Date StartTime U_cm/s V_cm/s W_cm/s Ustd_cm/s Vstd_cm/s Wstd_cm/s Uvar_(cm/s)^2 Vvar_(cm/s)^2 Wvar_(cm/s)^2 KE_(m/s)^2 TurbulentKE_(m/s)^2 HorizWindSpeed_cm/s FrictionSpeec_cm/s DragCoef SpeedOfSound_m/s SonicTemperature_C Pressure_mb 
12/01/2021  00:00:00      -88.970        5.882      -22.586       18.858       16.653       12.569      355.608      277.337      157.972        0.463        0.040       89.164        6.767        0.006      333.438        2.753      872.807
12/01/2021  00:01:00      -79.137        8.475      -17.054       25.313       15.621       17.191      640.761      244.030      295.514        0.390        0.059       79.590       12.079        0.023      333.476        2.815      872.781
12/01/2021  00:02:00      -98.878       21.482      -19.985        7.230        7.920        6.994       52.279       62.727       48.913        0.540        0.008      101.185        4.598        0.002      333.550        2.936      872.763
12/01/2021  00:03:00      -87.288       18.061      -15.425       10.432       11.390        7.972      108.836      129.728       63.559        0.424        0.015       89.137        3.247        0.001      333.628        3.069      872.765
12/01/2021  00:04:00     -101.434       21.304      -18.898       12.172        7.500        8.397      148.148       56.249       70.505        0.569        0.014      103.647        4.261        0.002      333.629        3.071      872.774
12/01/2021  00:05:00      -88.622       18.782      -14.918       22.053       13.427       15.507      486.350      180.278      240.453        0.467        0.045       90.591       11.981        0.017      333.628        3.069      872.780
12/01/2021  00:06:00      -85.992       13.115      -20.383       22.044       16.771       14.579      485.941      281.278      212.551        0.448        0.049       86.987        4.896        0.003      333.680        3.154      872.770
12/01/2021  00:07:00      -98.763        7.813      -12.734       23.319       22.009       14.576      543.759      484.383      212.446        0.561        0.062       99.072       10.808        0.012      333.692        3.173      872.746
12/01/2021  00:08:00      -89.702       11.328      -16.537       23.374       18.767       14.754      546.335      352.205      217.688        0.478        0.056       90.414       12.808        0.020      333.653        3.110      872.732
12/01/2021  00:09:00     -111.275       19.956      -12.365       12.277       10.133        9.450      150.713      102.679       89.303        0.664        0.017      113.050        4.518        0.002      333.699        3.186      872.725
12/01/2021  00:10:00      -93.103       13.828       -4.487       19.799       15.467       13.209      391.992      239.224      174.488        0.484        0.040       94.124        9.384        0.010      333.684        3.160      872.723
12/01/2021  00:11:00      -98.479       22.097      -14.878       12.994       10.529        8.470      168.839      110.867       71.740        0.538        0.018      100.928        6.794        0.005      333.703        3.193      872.720
12/01/2021  00:12:00     -107.149       36.278      -21.860        7.962        8.213        8.069       63.391       67.446       65.115        0.674        0.010      113.124        5.246        0.002      333.677        3.150      872.717
12/01/2021  00:13:00      -46.721        8.574      -20.772       29.190       21.818       11.482      852.065      476.043      131.826        0.207        0.073       47.501       12.687        0.071      333.596        3.015      872.713
12/01/2021  00:14:00      -12.937       -0.760       -9.662       20.658       19.799       15.967      426.761      391.995      254.936        0.067        0.054       12.959       10.766        0.690      333.598        3.020      872.703
12/01/2021  00:15:00      -30.583        2.667       -8.840       21.026       24.950       15.802      442.078      622.496      249.689        0.117        0.066       30.699       10.287        0.112      333.606        3.032      872.696
12/01/2021  00:16:00      -55.675      -22.215      -14.422       21.060       19.655       13.302      443.525      386.331      176.955        0.240        0.050       59.944        5.134        0.007      333.628        3.068      872.690
12/01/2021  00:17:00      -41.400        2.692       -9.719       21.675       17.286       16.228      469.816      298.806      263.351        0.142        0.052       41.487        9.518        0.053      333.631        3.075      872.695
12/01/2021  00:18:00      -42.916        1.808        0.242       35.861       23.646       14.837     1286.033      559.110      220.124        0.195        0.103       42.954       15.287        0.127      333.555        2.948      872.700
12/01/2021  00:19:00      -38.811       14.396       -6.330       36.913       18.996       17.589     1362.538      360.862      309.390        0.189        0.102       41.395       18.382        0.197      333.553        2.945      872.700
12/01/2021  00:20:00      -48.176        2.214       -3.472       40.504       24.534       20.952     1640.543      601.926      438.998        0.251        0.134       48.227       14.650        0.092      333.458        2.785      872.694
12/01/2021  00:21:00      -48.324      -10.693       -2.241       46.426       21.119       27.465     2155.328      446.021      754.301        0.290        0.168       49.493       23.048        0.217      333.375        2.650      872.692
12/01/2021  00:22:00      -66.657        0.593       -7.485       36.336       29.392       21.626     1320.282      863.861      467.690        0.358        0.133       66.660       24.264        0.132      333.407        2.701      872.696
12/01/2021  00:23:00      -67.560        2.300       -4.060       39.090       34.963       20.035     1528.030     1222.396      401.392        0.387        0.158       67.599       15.429        0.052      333.403        2.696      872.698
12/01/2021  00:24:00      -61.264       17.515       -5.210       48.901       30.455       20.086     2391.336      927.515      403.429        0.390        0.186       63.719        9.595        0.023      333.353        2.613      872.691
12/01/2021  00:25:00      -24.345        5.901        0.715       60.578       24.111       17.504     3669.638      581.319      306.389        0.259        0.228       25.050       17.853        0.508      333.323        2.562      872.687
12/01/2021  00:26:00      -71.609        3.344        3.817       61.442       27.515       21.398     3775.160      757.089      457.869        0.507        0.250       71.687       26.569        0.137      333.259        2.458      872.678
12/01/2021  00:27:00      -41.684       -4.257       -5.479       44.566       31.672       29.553     1986.166     1003.143      873.375        0.282        0.193       41.901       17.868        0.182      333.206        2.369      872.667
12/01/2021  00:28:00      -74.667       -7.578       -0.655       55.489       29.442       26.519     3079.005      866.857      703.241        0.514        0.232       75.051       23.287        0.096      333.109        2.210      872.671
12/01/2021  00:29:00     -117.961      -12.723       -6.536       44.836       29.985       25.833     2010.297      899.104      667.320        0.885        0.179      118.645       23.242        0.038      333.140        2.261      872.688
12/01/2021  00:30:00     -131.202       -6.446      -11.898       58.531       38.093       28.062     3425.871     1451.059      787.458        1.153        0.283      131.360       30.866        0.055      333.125        2.237      872.690
12/01/2021  00:31:00      -66.027      -13.850        1.134       67.233       29.350       32.769     4520.333      861.450     1073.835        0.550        0.323       67.464       38.309        0.322      333.129        2.243      872.688
12/01/2021  00:32:00      -85.534       21.701       -4.406       49.794       32.642       21.979     2479.398     1065.487      483.076        0.592        0.201       88.244       11.720        0.018      333.118        2.224      872.682
12/01/2021  00:33:00      -87.911        0.574        0.867       55.795       30.684       28.131     3113.071      941.534      791.342        0.629        0.242       87.913       30.981        0.124      333.119        2.226      872.673
12/01/2021  00:34:00     -142.316       30.783        1.038       58.277       34.281       30.005     3396.240     1175.157      900.305        1.334        0.274      145.607       28.999        0.040      333.164        2.299      872.663
12/01/2021  00:35:00     -166.415       19.066       -3.555       50.185       37.909       27.573     2518.558     1437.101      760.263        1.639        0.236      167.504       22.559        0.018      333.199        2.357      872.665
12/01/2021  00:36:00     -153.026       15.645       -8.944       43.863       37.135       24.491     1923.987     1379.021      599.795        1.382        0.195      153.823       26.524        0.030      333.211        2.378      872.668
12/01/2021  00:37:00     -127.596       10.534       -1.530       55.750       34.465       25.676     3108.045     1187.864      659.262        1.067        0.248      128.030       25.048        0.038      333.209        2.375      872.664
12/01/2021  00:38:00     -133.518       17.485       -8.280       49.671       34.401       23.114     2467.191     1183.460      534.265        1.119        0.209      134.658       22.925        0.029      333.193        2.348      872.642
12/01/2021  00:39:00     -106.132       22.344        2.466       59.225       41.209       29.118     3507.633     1698.171      847.838        0.891        0.303      108.458       27.081        0.062      333.177        2.322      872.620
12/01/2021  00:40:00     -115.424       16.503        2.374       58.271       35.407       26.815     3395.527     1253.686      719.068        0.948        0.268      116.597       23.179        0.040      333.153        2.282      872.609
12/01/2021  00:41:00     -158.387       16.366       -3.101       48.471       35.051       29.807     2349.399     1228.571      888.485        1.491        0.223      159.230       28.859        0.033      333.200        2.360      872.617
12/01/2021  00:42:00     -136.684       29.611        6.965       62.980       40.788       32.622     3966.452     1663.629     1064.164        1.315        0.335      139.855       31.607        0.051      333.142        2.264      872.638
12/01/2021  00:43:00     -157.193        2.868       -7.060       75.003       41.752       34.389     5625.446     1743.195     1182.626        1.666        0.428      157.219       26.806        0.029      333.132        2.247      872.642
12/01/2021  00:44:00      -41.054        5.792       10.708       72.016       48.719       41.613     5186.232     2373.583     1731.655        0.556        0.465       41.460       38.300        0.853      333.013        2.050      872.640
12/01/2021  00:45:00      -68.896        9.989      -11.336       57.861       39.654       35.769     3347.907     1572.460     1279.421        0.559        0.310       69.616       23.696        0.116      333.039        2.093      872.634
12/01/2021  00:46:00      -79.631       18.228       -6.852       46.265       38.399       25.859     2140.428     1474.500      668.691        0.550        0.214       81.691       25.667        0.099      332.966        1.973      872.640
12/01/2021  00:47:00     -102.047       23.404       -7.065       51.869       29.181       23.867     2690.358      851.553      569.656        0.756        0.206      104.697       19.888        0.036      332.882        1.836      872.654
12/01/2021  00:48:00     -121.463       14.863      -10.627       55.491       25.322       22.099     3079.217      641.205      488.381        0.965        0.210      122.369       20.000        0.027      332.930        1.913      872.682
12/01/2021  00:49:00     -122.886       16.392       -0.568       53.253       32.394       27.927     2835.848     1049.370      779.890        1.002        0.233      123.974       29.291        0.056      332.902        1.868      872.701
12/01/2021  00:50:00     -122.401       23.926      -14.872       32.887       29.230       23.931     1081.568      854.391      572.715        0.914        0.125      124.717       20.713        0.028      332.959        1.961      872.704
12/01/2021  00:51:00      -95.088      -12.970       -5.415       35.129       24.073       26.861     1234.078      579.489      721.538        0.589        0.127       95.969       21.365        0.050      332.960        1.964      872.709
12/01/2021  00:52:00     -127.105       33.357      -17.210       33.186       22.968       20.679     1101.315      527.531      427.636        0.981        0.103      131.409       16.929        0.017      332.995        2.022      872.722
12/01/2021  00:53:00     -128.105       30.196      -15.343       28.867       25.270       25.898      833.280      638.565      670.714        0.985        0.107      131.615       16.351        0.015      333.037        2.090      872.737
12/01/2021  00:54:00     -125.203       10.141       -8.244       51.641       33.343       23.517     2666.821     1111.744      553.072        1.009        0.217      125.613       25.823        0.042      333.065        2.136      872.737
12/01/2021  00:55:00     -137.507       30.309      -15.097       36.771       35.424       28.580     1352.082     1254.877      816.842        1.174        0.171      140.807       18.055        0.016      333.102        2.200      872.716
12/01/2021  00:56:00     -135.158       19.559      -11.161       53.181       28.547       27.843     2828.230      814.935      775.219        1.160        0.221      136.566       29.438        0.046      333.035        2.088      872.702
12/01/2021  00:57:00     -124.904       51.213       -4.199       48.284       36.736       31.374     2331.373     1349.561      984.342        1.145        0.233      134.996       31.114        0.053      333.017        2.058      872.700
12/01/2021  00:58:00     -148.114       41.923      -11.791       54.676       43.271       23.595     2989.473     1872.346      556.732        1.463        0.271      153.933       22.302        0.021      333.084        2.168      872.710
12/01/2021  00:59:00     -100.306       28.467      -15.998       36.266       40.030       25.526     1315.189     1602.438      651.570        0.735        0.178      104.267       23.154        0.049      333.068        2.142      872.725
12/01/2021  01:00:00     -141.008       59.301      -15.767       47.281       33.645       29.117     2235.478     1131.968      847.824        1.393        0.211      152.971       29.056        0.036      333.068        2.142      872.734
12/01/2021  01:01:00     -125.941       53.864       -0.108       57.417       40.669       29.844     3296.714     1653.944      890.671        1.230        0.292      136.976       29.051        0.045      333.008        2.042      872.732
12/01/2021  01:02:00     -105.042       65.731       -1.823       55.697       40.160       26.236     3102.193     1612.831      688.337        1.038        0.270      123.913       25.098        0.041      333.051        2.115      872.728
12/01/2021  01:03:00      -77.267       25.620      -15.139       35.067       37.073       23.623     1229.664     1374.373      558.055        0.501        0.158       81.404       18.708        0.053      332.988        2.012      872.745
12/01/2021  01:04:00      -70.927       -3.960      -16.270       48.199       30.958       27.903     2323.133      958.422      778.596        0.468        0.203       71.037       26.385        0.138      333.094        2.185      872.749
12/01/2021  01:05:00      -77.191       13.718       -5.952       52.618       25.878       20.896     2768.706      669.694      436.628        0.503        0.194       78.400       24.743        0.100      333.126        2.237      872.738
12/01/2021  01:06:00      -61.293       13.574       -6.445       62.016       23.725       18.566     3845.938      562.897      344.692        0.437        0.238       62.778       22.163        0.125      333.171        2.312      872.720
12/01/2021  01:07:00      -61.135       -4.791       -8.894       56.002       28.969       22.554     3136.228      839.180      508.668        0.416        0.224       61.323       20.011        0.106      333.230        2.408      872.711
12/01/2021  01:08:00      -30.342      -12.225       -9.081       50.052       25.111       20.651     2505.250      630.574      426.463        0.236        0.178       32.712       24.361        0.555      333.270        2.477      872.731
12/01/2021  01:09:00      -40.033       -0.333       -3.123       21.704       30.926       24.214      471.065      956.434      586.300        0.181        0.101       40.034       15.653        0.153      333.302        2.528      872.763
12/01/2021  01:10:00      -73.485       -2.191      -10.235       26.253       22.203       16.395      689.217      492.978      268.796        0.348        0.073       73.518       13.480        0.034      333.402        2.695      872.787
12/01/2021  01:11:00      -54.971      -26.867      -14.904       21.015       12.871       12.415      441.646      165.651      154.127        0.236        0.038       61.186       10.479        0.029      333.602        3.026      872.800
12/01/2021  01:12:00      -64.480      -16.561      -15.870       25.506       17.473       14.755      650.538      305.307      217.725        0.293        0.059       66.573       10.019        0.023      333.629        3.069      872.799
12/01/2021  01:13:00     -108.983      -31.193       -4.542       39.827       30.791       22.587     1586.159      948.089      510.168        0.796        0.152      113.360       19.512        0.030      333.513        2.878      872.793
12/01/2021  01:14:00      -67.731      -18.622      -11.594       50.362       41.265       26.379     2536.321     1702.801      695.841        0.500        0.247       70.245       25.366        0.130      333.431        2.741      872.800
12/01/2021  01:15:00      -89.941      -23.806      -13.731       39.256       28.905       22.374     1541.000      835.513      500.584        0.586        0.144       93.038       16.379        0.031      333.453        2.778      872.805
12/01/2021  01:16:00     -105.659      -20.771       -8.991       59.528       35.458       22.556     3543.573     1257.238      508.794        0.849        0.265      107.682       21.120        0.038      333.499        2.854      872.810
12/01/2021  01:17:00     -139.167      -16.406      -23.961       40.078       39.481       30.168     1606.263     1558.718      910.107        1.214        0.204      140.131       21.037        0.023      333.450        2.773      872.808
12/01/2021  01:18:00     -145.036       -2.666      -11.155       51.024       44.991       31.783     2603.479     2024.162     1010.132        1.340        0.282      145.061       21.326        0.022      333.371        2.643      872.827
12/01/2021  01:19:00     -144.053      -24.042      -10.377       46.325       42.379       26.977     2145.998     1795.959      727.757        1.305        0.233      146.045       24.481        0.028      333.280        2.493      872.852
12/01/2021  01:20:00     -154.466      -40.768      -23.108       42.225       41.796       25.498     1782.991     1746.874      650.135        1.512        0.209      159.755       18.502        0.013      333.245        2.434      872.869
12/01/2021  01:21:00     -172.161      -42.790      -16.848       50.738       44.485       30.767     2574.322     1978.930      946.619        1.863        0.275      177.399       17.798        0.010      333.174        2.315      872.875
12/01/2021  01:22:00     -167.961      -43.875      -27.532       58.164       53.924       30.322     3383.082     2907.755      919.425        1.905        0.361      173.597       20.032        0.013      333.148        2.271      872.877
12/01/2021  01:23:00     -181.657      -36.571      -30.098       48.922       37.549       36.874     2393.329     1409.903     1359.699        2.020        0.258      185.301       27.559        0.022      333.041        2.097      872.873
12/01/2021  01:24:00     -186.166      -26.670      -27.340       40.833       42.375       32.057     1667.369     1795.631     1027.629        2.030        0.225      188.067       17.089        0.008      332.950        1.946      872.872
12/01/2021  01:25:00     -182.192      -19.446      -15.201       54.815       49.855       35.960     3004.724     2485.539     1293.103        2.029        0.339      183.227       30.108        0.027      332.951        1.947      872.882
12/01/2021  01:26:00     -105.143        7.578       -2.885       67.173       50.941       41.081     4512.167     2595.010     1687.682        0.996        0.440      105.415       33.377        0.100      332.968        1.976      872.898
12/01/2021  01:27:00     -124.041      -15.801        1.094       87.061       44.109       32.409     7579.592     1945.646     1050.352        1.310        0.529      125.044       29.387        0.055      333.014        2.052      872.903
12/01/2021  01:28:00     -148.674      -11.981       -3.053       59.971       44.265       32.547     3596.575     1959.390     1059.286        1.443        0.331      149.156       32.959        0.049      332.988        2.008      872.893
12/01/2021  01:29:00     -136.836        1.600       -2.325       52.004       40.092       29.497     2704.365     1607.346      870.063        1.196        0.259      136.846       30.199        0.049      332.921        1.900      872.901
12/01/2021  01:30:00      -80.187       -0.545      -10.290       46.204       42.835       21.745     2134.826     1834.854      472.825        0.549        0.222       80.189       15.914        0.039      332.936        1.923      872.906
12/01/2021  01:31:00      -77.905       13.306       -7.541       45.957       37.050       22.309     2112.034     1372.704      497.699        0.514        0.199       79.033       15.783        0.040      332.879        1.829      872.909
12/01/2021  01:32:00      -89.820       28.891       -0.541       57.273       32.367       22.938     3280.182     1047.614      526.142        0.688        0.243       94.352       28.536        0.091      332.809        1.713      872.920
12/01/2021  01:33:00      -49.517       -4.615       -2.079       48.706       41.278       27.562     2372.309     1703.841      759.679        0.366        0.242       49.732       22.669        0.208      332.824        1.739      872.928
12/01/2021  01:34:00      -97.235       20.823       -8.172       30.666       30.496       22.736      940.390      930.007      516.917        0.617        0.119       99.440       21.403        0.046      332.795        1.692      872.957
12/01/2021  01:35:00      -70.555       36.455        7.755       36.115       32.196       20.260     1304.288     1036.563      410.448        0.456        0.138       79.416       15.975        0.040      332.651        1.453      872.986
12/01/2021  01:36:00      -53.317       18.304       -0.958       37.349       27.505       15.715     1394.940      756.508      246.953        0.279        0.120       56.372       20.965        0.138      332.704        1.541      873.000
12/01/2021  01:37:00      -44.593        9.057       -6.150       43.222       30.946       19.439     1868.175      957.681      377.877        0.266        0.160       45.504       14.087        0.096      332.653        1.455      872.925
12/01/2021  01:38:00      -35.395        3.041       -5.573       27.657       23.085       20.436      764.931      532.897      417.638        0.150        0.086       35.525       17.066        0.231      332.693        1.524      872.903
12/01/2021  01:39:00      -54.609       -5.021      -13.740       51.016       28.092       16.843     2602.661      789.147      283.683        0.344        0.184       54.839        5.933        0.012      332.693        1.524      872.900
12/01/2021  01:40:00      -85.575       16.668        0.272       33.381       18.690       14.221     1114.273      349.319      202.229        0.463        0.083       87.183       14.900        0.029      332.628        1.415      872.907
12/01/2021  01:41:00      -92.134       11.004      -11.518       18.026       13.337       10.443      324.932      177.875      109.053        0.468        0.031       92.789        6.413        0.005      332.691        1.519      872.915
12/01/2021  01:42:00      -12.474       -9.029       -5.475       30.657       14.204       11.022      939.835      201.762      121.480        0.076        0.063       15.399        4.132        0.072      332.802        1.704      872.921
12/01/2021  01:43:00      -12.936       -8.417       -9.263       18.909       10.472        8.353      357.549      109.672       69.767        0.043        0.027       15.433        4.555        0.087      332.821        1.733      872.928
12/01/2021  01:44:00      -10.049       -5.387       -0.565       18.111       12.150       10.741      328.012      147.611      115.369        0.036        0.030       11.402        7.381        0.419      332.740        1.600      872.939
12/01/2021  01:45:00      -46.422        7.637      -13.678        9.321        7.577        9.816       86.882       57.417       96.360        0.132        0.012       47.046        4.876        0.011      332.796        1.692      872.955
12/01/2021  01:46:00       -1.335       -3.706        0.069       14.544       14.507       11.480      211.537      210.451      131.787        0.028        0.028        3.939        9.467        5.776      332.791        1.685      872.986
12/01/2021  01:47:00       -4.773       -2.940       -7.449       13.921       15.032       10.366      193.800      225.961      107.461        0.031        0.026        5.606        4.939        0.776      332.839        1.763      873.002
12/01/2021  01:48:00        4.694      -19.826        3.564       13.137       12.713       12.607      172.585      161.619      158.935        0.046        0.025       20.374        6.584        0.104      332.833        1.754      873.017
12/01/2021  01:49:00      -12.038      -37.547      -22.772       21.307       12.946       10.917      454.006      167.588      119.189        0.141        0.037       39.429        7.133        0.033      332.744        1.607      873.025
12/01/2021  01:50:00       -4.328      -28.765      -20.363       14.303       20.201       12.046      204.568      408.092      145.114        0.101        0.038       29.088        9.639        0.110      332.743        1.604      873.039
12/01/2021  01:51:00       -3.429      -27.582      -22.602       16.768       14.371       12.677      281.151      206.512      160.710        0.097        0.032       27.794        4.482        0.026      332.741        1.601      873.053
12/01/2021  01:52:00      -19.813      -19.861      -20.877       17.484       17.480       14.526      305.700      305.562      211.012        0.102        0.041       28.054        4.883        0.030      332.798        1.696      873.062
12/01/2021  01:53:00       -4.000       11.087       -4.173       11.678       26.659       13.836      136.387      710.681      191.440        0.060        0.052       11.787       11.017        0.874      332.759        1.630      873.056
12/01/2021  01:54:00       -1.610       -1.707       -7.772       23.889       20.027       12.261      570.666      401.068      150.333        0.059        0.056        2.346       13.969       35.444      332.741        1.601      873.048
12/01/2021  01:55:00      -11.591       -3.376       -2.155       18.276       18.149       10.575      334.029      329.396      111.829        0.046        0.039       12.072        9.950        0.679      332.734        1.590      873.032
12/01/2021  01:56:00      -32.877      -12.025      -12.791       26.175       28.530       21.584      685.134      813.981      465.867        0.168        0.098       35.007       19.930        0.324      332.788        1.680      873.031
12/01/2021  01:57:00      -11.950      -24.598       -5.884       28.116       28.195       19.739      790.513      794.972      389.641        0.138        0.099       27.347       10.074        0.136      332.787        1.678      873.035
12/01/2021  01:58:00      -48.998      -20.091       -0.713       52.078       27.159       19.260     2712.159      737.599      370.945        0.331        0.191       52.957       19.294        0.133      332.821        1.734      873.047
12/01/2021  01:59:00      -29.307      -28.643       -2.874       39.205       40.338       28.028     1537.028     1627.175      785.560        0.282        0.197       40.980       21.713        0.281      332.781        1.668      873.041
12/01/2021  02:00:00      -25.381       -8.344       -4.777       21.850       20.885       18.890      477.427      436.173      356.830        0.100        0.064       26.718       10.262        0.148      332.769        1.650      873.028
12/01/2021  02:01:00      -21.889      -20.879      -11.195       31.071       20.867       20.631      965.410      435.421      425.641        0.143        0.091       30.250       11.020        0.133      332.828        1.746      873.026
12/01/2021  02:02:00      -52.040      -25.056        1.134       35.618       39.773       20.791     1268.617     1581.903      432.247        0.331        0.164       57.757       16.203        0.079      332.796        1.692      873.034
12/01/2021  02:03:00      -45.625      -17.261       -3.535       47.197       36.976       21.274     2227.546     1367.223      452.590        0.322        0.202       48.781       18.892        0.150      332.730        1.583      873.048
12/01/2021  02:04:00      -37.341       -0.344       -6.299       37.656       23.953       16.924     1417.995      573.730      286.424        0.186        0.114       37.343        5.579        0.022      332.780        1.665      873.053
12/01/2021  02:05:00      -54.717      -17.757       -9.954       35.115       24.651       19.800     1233.042      607.669      392.021        0.282        0.112       57.526       15.878        0.076      332.757        1.628      873.042
12/01/2021  02:06:00      -45.637      -30.105      -13.277       28.504       24.129       22.101      812.495      582.224      488.468        0.252        0.094       54.672       16.628        0.092      332.826        1.741      873.047
12/01/2021  02:07:00      -21.565      -24.570      -18.169       24.395       29.804       26.024      595.111      888.307      677.263        0.178        0.108       32.692       18.561        0.322      332.790        1.683      873.047
12/01/2021  02:08:00        5.893      -21.709      -11.727       15.881       28.281       16.675      252.219      799.835      278.043        0.099        0.067       22.494       16.026        0.508      332.762        1.635      873.040
12/01/2021  02:09:00      -15.610      -14.115      -23.378       17.965       15.661       21.070      322.753      245.262      443.933        0.100        0.051       21.045       16.215        0.594      332.723        1.570      873.030
12/01/2021  02:10:00      -25.965      -19.769      -14.640       18.612       15.698        9.529      346.408      246.419       90.811        0.098        0.034       32.634        6.957        0.045      332.756        1.625      873.022
12/01/2021  02:11:00       -8.979      -14.674       -7.191       38.971       26.972       20.213     1518.753      727.503      408.579        0.150        0.133       17.203       11.933        0.481      332.836        1.759      873.011
12/01/2021  02:12:00      -21.828      -34.804      -10.375       37.081       23.573       24.632     1374.979      555.675      606.744        0.217        0.127       41.082       12.966        0.100      332.821        1.736      872.987
12/01/2021  02:13:00      -67.685      -10.759      -13.759       33.985       26.942       27.668     1155.000      725.874      765.527        0.377        0.132       68.535       18.235        0.071      332.791        1.685      872.966
12/01/2021  02:14:00      -13.520        1.412       -9.537       45.740       20.421       17.008     2092.143      417.005      289.256        0.154        0.140       13.594       18.310        1.814      332.752        1.619      872.953
12/01/2021  02:15:00       -9.564      -15.187        2.924       25.528       20.645       17.156      651.655      426.216      294.337        0.085        0.069       17.947       14.028        0.611      332.783        1.672      872.951
12/01/2021  02:16:00      -13.793       -0.572       -2.243       29.010       13.158       19.985      841.587      173.121      399.405        0.080        0.071       13.805       17.191        1.551      332.781        1.667      872.953
12/01/2021  02:17:00      -63.790       -7.937       -2.215       55.012       31.610       22.602     3026.359      999.218      510.849        0.434        0.227       64.282       16.636        0.067      332.764        1.639      872.944
12/01/2021  02:18:00      -61.961        1.343       -6.008       37.008       31.194       21.225     1369.562      973.050      450.512        0.333        0.140       61.976       13.614        0.048      332.696        1.528      872.938
12/01/2021  02:19:00      -79.093       23.736      -10.986       41.968       31.081       23.221     1761.282      966.012      539.209        0.510        0.163       82.577       18.996        0.053      332.590        1.352      872.944
12/01/2021  02:20:00     -100.491       13.148      -14.761       38.088       32.510       26.985     1450.711     1056.885      728.207        0.686        0.162      101.347       23.448        0.054      332.457        1.131      872.960
12/01/2021  02:21:00      -65.340       30.248       -3.426       38.378       32.098       26.052     1472.868     1030.306      678.711        0.419        0.159       72.002       22.725        0.100      332.280        0.840      872.969
12/01/2021  02:22:00      -39.763        7.890      -10.094       51.774       23.589       24.417     2680.558      556.445      596.185        0.279        0.192       40.538       12.325        0.092      332.293        0.862      872.966
12/01/2021  02:23:00      -20.636      -13.198      -10.174       49.480       40.175       22.089     2448.272     1614.063      487.939        0.263        0.228       24.495       18.010        0.541      332.347        0.950      872.944
12/01/2021  02:24:00     -117.429       11.652      -10.772       60.113       38.487       30.724     3613.587     1481.261      943.971        1.004        0.302      118.005       26.463        0.050      332.251        0.791      872.919
12/01/2021  02:25:00     -108.787       14.162       -9.309       45.856       35.205       23.095     2102.733     1239.357      533.360        0.800        0.194      109.705       13.624        0.015      332.190        0.691      872.909
12/01/2021  02:26:00      -72.920        5.222       -1.754       56.031       36.790       28.276     3139.515     1353.509      799.556        0.532        0.265       73.107       29.908        0.167      332.229        0.756      872.916
12/01/2021  02:27:00     -119.422       22.207      -11.880       57.230       42.194       26.241     3275.288     1780.340      688.612        1.032        0.287      121.469       21.026        0.030      332.109        0.556      872.926
12/01/2021  02:28:00      -98.830       39.093       -9.650       54.261       28.282       25.034     2944.207      799.899      626.708        0.788        0.219      106.281       27.158        0.065      332.096        0.535      872.929
12/01/2021  02:29:00      -86.011       21.086      -11.908       49.817       34.531       23.852     2481.688     1192.403      568.898        0.611        0.212       88.558       22.084        0.062      332.156        0.634      872.919
12/01/2021  02:30:00      -90.047       33.971      -14.192       36.172       32.939       26.262     1308.415     1084.964      689.695        0.627        0.154       96.242       16.198        0.028      332.161        0.642      872.921
12/01/2021  02:31:00      -86.734       14.910      -20.549       52.403       29.313       21.060     2746.117      859.242      443.524        0.611        0.202       88.006       17.504        0.040      332.238        0.770      872.909
12/01/2021  02:32:00      -81.404       21.089      -18.954       43.043       28.786       23.140     1852.691      828.608      535.464        0.532        0.161       84.091       17.164        0.042      332.174        0.663      872.909
12/01/2021  02:33:00      -51.720        4.588       -7.779       48.479       28.780       22.530     2350.186      828.314      507.579        0.322        0.184       51.923       22.275        0.184      332.232        0.761      872.915
12/01/2021  02:34:00      -23.692      -27.043      -15.739       32.172       20.045       16.839     1035.021      401.817      283.560        0.163        0.086       35.954        9.073        0.064      332.215        0.731      872.925
12/01/2021  02:35:00      -10.158       -3.849       -7.095       18.335       26.721       16.822      336.187      714.019      282.993        0.075        0.067       10.863        1.319        0.015      332.208        0.720      872.930
12/01/2021  02:36:00      -21.226        6.621      -10.054       11.543       10.734       12.037      133.244      115.224      144.880        0.049        0.020       22.235        5.931        0.071      332.138        0.606      872.915
12/01/2021  02:37:00        1.549        1.598       -0.774       16.990        9.923       10.978      288.646       98.469      120.512        0.026        0.025        2.225        5.615        6.368      332.192        0.693      872.913
12/01/2021  02:38:00       11.771       10.028       -8.157       13.526       12.181        8.181      182.940      148.386       66.928        0.035        0.020       15.463        6.454        0.174      332.405        1.044      872.910
12/01/2021  02:39:00       -5.008       14.059      -17.770       12.405       13.035        9.261      153.892      169.901       85.764        0.047        0.020       14.924        6.972        0.218      332.414        1.062      872.915
12/01/2021  02:40:00        0.344        0.540       -9.935        8.832       10.581        7.627       78.009      111.948       58.164        0.017        0.012        0.640        4.540       50.285      332.452        1.123      872.915
12/01/2021  02:41:00       -4.483      -14.279      -13.335        7.537        9.347        8.130       56.813       87.369       66.101        0.031        0.011       14.967        5.259        0.123      332.509        1.219      872.912
12/01/2021  02:42:00      -18.656      -17.258      -14.059       11.642        9.561        7.687      135.543       91.414       59.085        0.056        0.014       25.414        5.645        0.049      332.533        1.257      872.909
12/01/2021  02:43:00      -13.765       -6.860       -9.994       10.606        7.709        7.806      112.497       59.422       60.932        0.028        0.012       15.380        6.386        0.172      332.534        1.259      872.902
12/01/2021  02:44:00      -18.378      -13.310      -12.029       13.071        9.356       10.137      170.856       87.525      102.769        0.051        0.018       22.692        2.596        0.013      332.397        1.033      872.899
12/01/2021  02:45:00      -27.026      -21.399      -13.315        7.937        9.151        7.510       62.997       83.736       56.402        0.078        0.010       34.472        5.107        0.022      332.562        1.304      872.903
12/01/2021  02:46:00      -18.830      -21.506      -13.382       10.429        8.486        7.215      108.764       72.015       52.055        0.061        0.012       28.584        5.501        0.037      332.623        1.407      872.903
12/01/2021  02:47:00        4.317      -27.877      -22.326       16.371       17.225        9.673      268.002      296.693       93.575        0.098        0.033       28.210        5.103        0.033      332.669        1.481      872.902
12/01/2021  02:48:00       -6.770      -26.617      -14.978       39.470       22.035       19.845     1557.897      485.540      393.805        0.171        0.122       27.464       20.876        0.578      332.676        1.494      872.890
12/01/2021  02:49:00      -20.083        2.059      -12.300       13.353        9.607       11.831      178.291       92.290      139.970        0.048        0.021       20.188        7.912        0.154      332.519        1.234      872.883
12/01/2021  02:50:00      -19.365       18.814      -13.112       11.898       14.452       12.917      141.563      208.862      166.859        0.071        0.026       26.999        9.339        0.120      332.474        1.159      872.868
12/01/2021  02:51:00      -26.034       11.759       -8.060        8.743       13.620        8.029       76.438      185.496       64.468        0.060        0.016       28.567        3.967        0.019      332.392        1.024      872.859
12/01/2021  02:52:00       -5.351       -3.416       -7.232        6.170        4.919        3.156       38.065       24.196        9.960        0.008        0.004        6.348        2.149        0.115      332.451        1.121      872.849
12/01/2021  02:53:00       -4.526       -3.723       -6.229       10.623        8.208        6.726      112.842       67.378       45.235        0.015        0.011        5.860        7.087        1.462      332.467        1.147      872.840
12/01/2021  02:54:00       -6.623       10.589      -12.196       18.683       13.485        7.679      349.053      181.843       58.973        0.045        0.029       12.490        4.988        0.160      332.530        1.251      872.843
12/01/2021  02:55:00      -17.380       20.920      -14.875       24.365       12.242       13.834      593.630      149.875      191.378        0.095        0.047       27.198       11.584        0.181      332.455        1.129      872.834
12/01/2021  02:56:00      -25.761       24.814       -8.846       16.954       15.864       14.686      287.442      251.662      215.686        0.106        0.038       35.768        4.926        0.019      332.417        1.066      872.815
12/01/2021  02:57:00      -46.586       33.642      -13.590       13.854       10.534        8.819      191.920      110.964       77.771        0.193        0.019       57.463        4.021        0.005      332.384        1.011      872.795
12/01/2021  02:58:00      -52.199       18.079      -13.405       22.378       17.332       10.689      500.781      300.408      114.247        0.207        0.046       55.241        4.147        0.006      332.397        1.033      872.776
12/01/2021  02:59:00      -75.495       13.087      -10.408       25.010       19.054       16.241      625.487      363.066      263.776        0.362        0.063       76.621        3.147        0.002      332.343        0.943      872.763
12/01/2021  03:00:00      -59.594        6.440       -7.520       36.981       21.056       17.788     1367.625      443.357      316.425        0.289        0.106       59.941       20.357        0.115      332.233        0.762      872.761
12/01/2021  03:01:00      -75.288       21.442       -4.588       33.205       18.223       13.634     1102.582      332.074      185.879        0.388        0.081       78.282       14.680        0.035      332.159        0.641      872.761
12/01/2021  03:02:00      -78.442       21.643       -3.177       25.779       14.993       11.951      664.570      224.800      142.819        0.383        0.052       81.373       11.305        0.019      332.066        0.485      872.759
12/01/2021  03:03:00      -79.392       17.498       -3.931       29.758       20.938       15.947      885.564      438.407      254.295        0.410        0.079       81.298       13.807        0.029      332.041        0.445      872.756
12/01/2021  03:04:00     -110.818       29.326       -9.129       18.445       14.992       12.598      340.228      224.746      158.707        0.697        0.036      114.633       12.392        0.012      331.981        0.347      872.747
12/01/2021  03:05:00      -95.263       30.016       -3.984       29.755       19.982       18.588      885.373      399.300      345.531        0.581        0.082       99.879       17.740        0.032      331.997        0.374      872.748
12/01/2021  03:06:00      -91.360       20.175       -8.963       32.422       23.975       14.869     1051.215      574.778      221.097        0.534        0.092       93.562       12.165        0.017      331.971        0.330      872.753
12/01/2021  03:07:00      -90.494       31.662       -9.840       24.730       25.747       16.622      611.593      662.891      276.302        0.542        0.078       95.873       13.642        0.020      331.944        0.286      872.766
12/01/2021  03:08:00      -76.624       16.864       -2.381       35.346       19.490       20.401     1249.319      379.866      416.204        0.410        0.102       78.458       21.071        0.072      331.982        0.348      872.776
12/01/2021  03:09:00      -70.385       10.883       -1.504       30.867       22.264       18.515      952.761      495.690      342.788        0.343        0.090       71.222       13.024        0.033      332.132        0.595      872.787
12/01/2021  03:10:00      -40.124       14.152       -1.645       30.230       17.253       13.765      913.838      297.671      189.472        0.161        0.070       42.547       12.115        0.081      332.138        0.605      872.789
12/01/2021  03:11:00      -60.941       25.016       -8.908       16.468       12.668       10.724      271.185      160.481      115.008        0.248        0.027       65.876        5.450        0.007      332.091        0.527      872.785
12/01/2021  03:12:00      -72.630       18.988      -10.159        9.747       10.568        9.132       95.000      111.685       83.402        0.301        0.015       75.072        6.322        0.007      332.156        0.635      872.771
12/01/2021  03:13:00      -71.728       26.944      -12.228       12.700       14.890       12.839      161.300      221.720      164.853        0.328        0.027       76.622        6.041        0.006      332.235        0.764      872.755
12/01/2021  03:14:00      -53.657        4.751      -11.862       24.347       28.195       14.524      592.779      794.966      210.941        0.232        0.080       53.867        9.684        0.032      332.141        0.610      872.748
12/01/2021  03:15:00      -49.112        7.979       -8.781       26.775       13.571       12.933      716.883      184.178      167.253        0.181        0.053       49.756       13.127        0.070      332.223        0.745      872.740
12/01/2021  03:16:00       -5.940      -24.223      -10.656       21.755       14.488       15.793      473.292      209.901      249.412        0.083        0.047       24.941       11.090        0.198      332.218        0.737      872.721
12/01/2021  03:17:00        0.428        6.287      -10.980       10.224       10.138        7.286      104.529      102.779       53.082        0.021        0.013        6.301        5.218        0.686      332.134        0.596      872.695
12/01/2021  03:18:00      -42.093        2.828      -14.184       22.574       16.459       13.794      509.566      270.903      190.261        0.148        0.049       42.188        8.639        0.042      332.153        0.630      872.662
12/01/2021  03:19:00      -36.813       16.168      -15.013       15.432       10.299        8.201      238.131      106.069       67.258        0.113        0.021       40.207        4.673        0.014      332.132        0.593      872.637
12/01/2021  03:20:00      -18.142        1.585      -14.037       12.139       11.381        7.379      147.356      129.534       54.450        0.043        0.017       18.211        6.546        0.129      332.122        0.576      872.617
12/01/2021  03:21:00       -5.023       -3.240       -5.922        8.303        9.654        5.931       68.936       93.191       35.173        0.013        0.010        5.978        3.617        0.366      332.174        0.665      872.607
12/01/2021  03:22:00       -1.748       -2.996      -17.651        8.291       10.704        6.890       68.740      114.580       47.475        0.028        0.012        3.468        3.998        1.329      332.290        0.855      872.608
12/01/2021  03:23:00       11.703        1.090       -5.959        7.079       15.044        7.110       50.111      226.324       50.546        0.025        0.016       11.754        5.507        0.219      332.509        1.215      872.616
12/01/2021  03:24:00       24.582      -13.943       -8.568        8.930        8.235        7.429       79.746       67.815       55.189        0.054        0.010       28.261        5.411        0.037      332.360        0.972      872.624
12/01/2021  03:25:00       20.358       -3.444      -14.664       18.343       14.805       11.506      336.477      219.183      132.387        0.066        0.034       20.648        7.374        0.128      332.605        1.376      872.634
12/01/2021  03:26:00      -10.028       -2.009      -18.270       13.214       15.357       11.889      174.601      235.842      141.342        0.049        0.028       10.227        8.995        0.774      332.451        1.123      872.649
12/01/2021  03:27:00      -16.464       -3.985       -8.045        8.359        8.152        8.748       69.881       66.459       76.526        0.028        0.011       16.940        4.586        0.073      332.348        0.951      872.646
12/01/2021  03:28:00       -1.291       -2.749       -4.835        4.558        4.178        4.735       20.777       17.460       22.421        0.005        0.003        3.037        3.673        1.463      332.331        0.924      872.635
12/01/2021  03:29:00       -3.309       -7.505       -3.874        8.786        5.977        5.259       77.194       35.723       27.660        0.011        0.007        8.202        4.194        0.261      332.396        1.031      872.628
12/01/2021  03:30:00        1.821      -21.446       -7.434        8.852       12.245       10.992       78.365      149.929      120.834        0.043        0.017       21.523        8.812        0.168      332.409        1.053      872.626
12/01/2021  03:31:00      -12.889       -6.453       -2.174        8.968        9.670        6.235       80.430       93.514       38.871        0.021        0.011       14.414        4.729        0.108      332.385        1.013      872.626
12/01/2021  03:32:00      -15.476        6.255       -5.197       13.589        7.078        4.994      184.650       50.101       24.943        0.028        0.013       16.693        2.358        0.020      332.195        0.698      872.642
12/01/2021  03:33:00      -18.376        8.076       -9.525       10.233        6.588        7.797      104.721       43.407       60.790        0.035        0.010       20.072        4.474        0.050      332.205        0.714      872.660
12/01/2021  03:34:00      -27.512       19.388       -9.703        8.935        5.911        5.918       79.835       34.936       35.024        0.069        0.007       33.657        1.253        0.001      332.134        0.599      872.673
12/01/2021  03:35:00      -41.744       21.579       -8.851        5.031        5.406        6.987       25.313       29.223       48.820        0.119        0.005       46.992        2.023        0.002      332.107        0.553      872.678
12/01/2021  03:36:00      -50.158       10.897       -5.841       20.733       15.808       12.545      429.848      249.908      157.380        0.175        0.042       51.328       10.254        0.040      332.143        0.612      872.681
12/01/2021  03:37:00      -19.515       -6.852       -5.868       18.153       15.974       12.155      329.532      255.159      147.752        0.060        0.037       20.683        4.937        0.057      332.158        0.637      872.687
12/01/2021  03:38:00      -35.768      -14.417       -8.475       20.488       19.198       12.263      419.764      368.581      150.387        0.125        0.047       38.565        7.204        0.035      332.148        0.621      872.683
12/01/2021  03:39:00      -14.127        4.369       -4.298       11.898       12.074        9.538      141.573      145.784       90.967        0.031        0.019       14.787        5.115        0.120      331.994        0.369      872.679
12/01/2021  03:40:00      -27.674        1.410      -10.873       14.091       16.298       12.161      198.567      265.640      147.892        0.075        0.031       27.710        4.998        0.033      332.016        0.405      872.675
12/01/2021  03:41:00      -29.184        2.043       -0.766       28.970       19.642        8.781      839.243      385.807       77.098        0.108        0.065       29.255        6.055        0.043      332.024        0.418      872.670
12/01/2021  03:42:00      -17.135        6.757       -4.656       23.513       13.238       10.935      552.847      175.250      119.584        0.060        0.042       18.419       11.816        0.412      331.971        0.330      872.679
12/01/2021  03:43:00      -24.261        5.844       -6.140       20.180       18.384        7.535      407.215      337.975       56.775        0.073        0.040       24.955        6.651        0.071      331.965        0.321      872.688
12/01/2021  03:44:00      -62.395      -26.104       -8.972       37.939       32.776       20.724     1439.347     1074.282      429.467        0.380        0.147       67.635       14.865        0.048      332.113        0.563      872.697
12/01/2021  03:45:00      -73.827      -41.840       -1.864       43.245       49.751       31.028     1870.160     2475.130      962.759        0.626        0.265       84.859       26.823        0.100      332.208        0.720      872.695
12/01/2021  03:46:00      -72.839      -35.128       -9.618       47.332       55.005       26.878     2240.275     3025.533      722.437        0.631        0.299       80.867       21.957        0.074      332.201        0.709      872.680
12/01/2021  03:47:00      -81.851       -6.252        1.026       61.711       48.639       33.156     3808.208     2365.707     1099.327        0.701        0.364       82.089       25.761        0.098      332.162        0.645      872.672
12/01/2021  03:48:00      -41.444        1.675       -9.167       40.752       38.943       29.035     1660.717     1516.566      843.008        0.291        0.201       41.478       24.478        0.348      332.135        0.600      872.673
12/01/2021  03:49:00      -50.225       -9.232      -13.163       56.296       31.466       25.183     3169.246      990.102      634.177        0.379        0.240       51.066       23.999        0.221      332.152        0.627      872.677
12/01/2021  03:50:00      -92.995      -13.721       -5.678       56.241       38.296       25.270     3163.084     1466.604      638.555        0.707        0.263       94.002       18.915        0.040      332.191        0.694      872.681
12/01/2021  03:51:00      -90.819       -5.315        7.887       48.666       45.141       26.977     2368.339     2037.727      727.780        0.674        0.257       90.974       23.712        0.068      332.087        0.522      872.665
12/01/2021  03:52:00      -41.436        1.028       -1.228       58.480       31.926       25.863     3419.944     1019.245      668.907        0.341        0.255       41.449       27.945        0.455      332.084        0.516      872.653
12/01/2021  03:53:00      -86.955       27.713       -2.377       45.327       25.004       25.775     2054.563      625.214      664.355        0.584        0.167       91.264       17.603        0.037      331.982        0.348      872.648
12/01/2021  03:54:00      -85.211       17.992        2.971       58.454       35.353       20.832     3416.920     1249.815      433.992        0.635        0.255       87.089       25.968        0.089      331.919        0.245      872.645
12/01/2021  03:55:00      -92.143       26.177        2.939       34.462       30.339       21.124     1187.650      920.483      446.204        0.587        0.128       95.789       15.256        0.025      331.826        0.091      872.640
12/01/2021  03:56:00     -110.914       35.009       -2.331       52.749       35.347       19.862     2782.454     1249.386      394.480        0.898        0.221      116.308       22.967        0.039      331.791        0.035      872.633
12/01/2021  03:57:00     -118.331       30.954       -4.673       45.135       22.717       21.666     2037.166      516.066      469.414        0.900        0.151      122.312       23.819        0.038      331.745       -0.041      872.620
12/01/2021  03:58:00      -83.218       29.575       -3.742       41.329       27.326       23.351     1708.053      746.685      545.287        0.541        0.150       88.318       25.172        0.081      331.768       -0.004      872.617
12/01/2021  03:59:00     -105.438       28.606       -6.218       36.037       22.827       16.406     1298.680      521.081      269.161        0.703        0.104      109.249       16.638        0.023      331.753       -0.029      872.614
12/01/2021  04:00:00     -127.318       24.157       -5.810       29.733       19.644       20.292      884.040      385.900      411.751        0.925        0.084      129.590       17.536        0.018      331.809        0.064      872.611
12/01/2021  04:01:00      -94.355       17.668       -0.229       37.781       25.552       22.613     1427.385      652.904      511.333        0.590        0.130       95.995       17.612        0.034      331.826        0.093      872.603
12/01/2021  04:02:00      -66.299       23.273        8.016       35.456       22.554       22.627     1257.117      508.704      511.964        0.364        0.114       70.265       20.526        0.085      331.775        0.008      872.595
12/01/2021  04:03:00     -107.079       15.466       -7.778       34.268       29.057       21.099     1174.274      844.332      445.147        0.711        0.123      108.190       15.075        0.019      331.812        0.069      872.588
12/01/2021  04:04:00     -119.123       31.502      -10.580       30.576       25.803       19.290      934.887      665.780      372.118        0.863        0.099      123.217       14.683        0.014      331.867        0.159      872.576
12/01/2021  04:05:00      -99.856       12.656       -8.204       36.984       29.891       22.708     1367.842      893.486      515.647        0.649        0.139      100.655       20.880        0.043      331.845        0.124      872.571
12/01/2021  04:06:00      -40.042       13.987       -2.052       46.142       23.476       26.095     2129.101      551.112      680.965        0.258        0.168       42.414       29.248        0.476      331.872        0.169      872.581
12/01/2021  04:07:00      -19.647      -11.555       -6.099       29.726       30.224       26.664      883.653      913.503      710.953        0.153        0.125       22.793       23.666        1.078      331.887        0.194      872.577
12/01/2021  04:08:00      -24.558        1.444       -7.776       29.078       28.696       17.710      845.534      823.464      313.633        0.132        0.099       24.601        9.730        0.156      331.918        0.243      872.585
12/01/2021  04:09:00      -29.290        1.600       -7.722       40.297       20.042       21.732     1623.833      401.693      472.276        0.171        0.125       29.334       19.876        0.459      331.857        0.143      872.588
12/01/2021  04:10:00      -39.394        7.314       -6.108       30.443       25.912       25.412      926.758      671.441      645.746        0.194        0.112       40.068       20.579        0.264      331.772        0.003      872.589
12/01/2021  04:11:00      -74.116       24.721      -19.144       15.456       15.275       11.451      238.883      233.337      131.117        0.354        0.030       78.130        7.124        0.008      331.857        0.144      872.593
12/01/2021  04:12:00      -70.755       28.497      -10.668       17.507        9.996        8.643      306.501       99.911       74.706        0.321        0.024       76.278        8.895        0.014      331.908        0.227      872.599
12/01/2021  04:13:00      -89.131       28.202      -20.843        9.155       10.942        9.007       83.805      119.733       81.126        0.473        0.014       93.486        3.414        0.001      331.960        0.313      872.603
12/01/2021  04:14:00      -87.144       20.482       -9.521       27.182       22.415       19.524      738.873      502.428      381.174        0.486        0.081       89.519       14.694        0.027      331.917        0.241      872.597
12/01/2021  04:15:00     -127.293       40.091      -13.331       16.768       14.520       11.609      281.155      210.828      134.778        0.931        0.031      133.457        9.435        0.005      331.807        0.063      872.592
12/01/2021  04:16:00     -119.087       33.189      -17.750       27.913       23.936       14.707      779.132      572.934      216.287        0.858        0.078      123.625        8.960        0.005      331.773        0.005      872.574
12/01/2021  04:17:00      -96.467       18.987      -16.250       28.357       22.619       21.513      804.146      511.610      462.820        0.585        0.089       98.318       13.644        0.019      331.747       -0.038      872.556
12/01/2021  04:18:00      -87.984        7.969      -13.611       41.842       30.527       24.436     1750.768      931.914      597.121        0.563        0.164       88.344       25.142        0.081      331.737       -0.056      872.542
12/01/2021  04:19:00      -41.028        6.464      -15.157       37.705       25.998       23.242     1421.640      675.916      540.191        0.230        0.132       41.534       19.040        0.210      331.798        0.045      872.548
12/01/2021  04:20:00      -97.225       21.159      -23.155       13.890       15.393       12.076      192.931      236.938      145.836        0.551        0.029       99.500        4.237        0.002      331.712       -0.094      872.560
12/01/2021  04:21:00      -61.441        0.364      -16.487       35.597       22.998       21.069     1267.152      528.925      443.899        0.314        0.112       61.442       15.134        0.061      331.734       -0.059      872.563
12/01/2021  04:22:00      -22.189       13.470       -8.892       38.540       29.036       25.799     1485.325      843.096      665.565        0.187        0.150       25.957       20.996        0.654      331.762       -0.013      872.547
12/01/2021  04:23:00       -8.668        7.394        2.357       25.480       33.969       20.976      649.227     1153.921      439.974        0.119        0.112       11.393       15.370        1.820      331.685       -0.140      872.540
12/01/2021  04:24:00     -129.811       23.571       -7.493       41.696       28.633       22.761     1738.575      819.841      518.075        1.027        0.154      131.934       20.838        0.025      331.726       -0.073      872.537
12/01/2021  04:25:00     -103.010       35.338      -13.140       24.271       32.634       22.134      589.079     1064.951      489.896        0.709        0.107      108.903        9.356        0.007      331.661       -0.180      872.542
12/01/2021  04:26:00      -85.913       36.671      -14.976       34.531       21.071       17.337     1192.368      444.000      300.567        0.544        0.097       93.413       10.943        0.014      331.597       -0.286      872.559
12/01/2021  04:27:00      -83.336       34.354      -10.523       17.681       15.055       13.997      312.619      226.653      195.918        0.449        0.037       90.139        9.138        0.010      331.598       -0.283      872.587
12/01/2021  04:28:00      -60.738       10.047       -7.942       30.073       18.820       12.840      904.385      354.195      164.855        0.264        0.071       61.564        7.840        0.016      331.755       -0.025      872.608
12/01/2021  04:29:00      -59.434        0.476       -5.979       23.021       20.716       12.625      529.975      429.155      159.392        0.234        0.056       59.436        7.163        0.015      331.832        0.102      872.631
12/01/2021  04:30:00      -37.327       -5.811      -11.900       21.160       18.263       14.107      447.747      333.520      198.996        0.127        0.049       37.776        8.639        0.052      331.809        0.065      872.654
12/01/2021  04:31:00      -25.134        1.570       -2.341       23.932       12.307       12.107      572.762      151.455      146.569        0.076        0.044       25.183       10.447        0.172      331.811        0.067      872.668
12/01/2021  04:32:00      -38.244        6.612       -3.489       26.710       24.048       15.764      713.440      578.327      248.500        0.153        0.077       38.811       13.370        0.119      331.830        0.100      872.672
12/01/2021  04:33:00      -37.194        6.593       -6.156       26.885       21.468       14.986      722.809      460.883      224.586        0.144        0.070       37.774        9.959        0.070      331.834        0.106      872.684
12/01/2021  04:34:00      -55.155       -4.959       -8.048       32.464       20.697       17.163     1053.939      428.345      294.584        0.245        0.089       55.377       12.661        0.052      331.734       -0.059      872.681
12/01/2021  04:35:00      -50.025       -2.266       -5.753       33.376       21.161       19.783     1113.989      447.790      391.373        0.225        0.098       50.077       14.804        0.087      331.707       -0.103      872.686
12/01/2021  04:36:00      -30.408        2.403       -4.920       22.108       20.650       13.856      488.754      426.437      191.995        0.103        0.055       30.503        6.002        0.039      331.750       -0.033      872.693
12/01/2021  04:37:00      -15.308        2.225       -4.588       22.226       15.546       10.172      493.989      241.671      103.478        0.055        0.042       15.469        6.253        0.163      331.779        0.015      872.709
12/01/2021  04:38:00      -35.397        5.109       -7.829       34.226       23.425       16.786     1171.435      548.725      281.759        0.167        0.100       35.764       13.998        0.153      331.843        0.121      872.718
12/01/2021  04:39:00      -68.417        9.442       -6.840       26.930       15.980       16.311      725.231      255.363      266.054        0.303        0.062       69.065       11.187        0.026      331.812        0.070      872.723
12/01/2021  04:40:00      -69.586        9.780      -10.224       30.341       16.809       12.363      920.587      282.556      152.855        0.320        0.068       70.270       13.053        0.035      331.824        0.091      872.734
12/01/2021  04:41:00      -73.394        8.524      -11.327       20.470       15.821       13.467      419.011      250.304      181.372        0.322        0.043       73.887        9.142        0.015      331.868        0.161      872.733
12/01/2021  04:42:00      -66.803        6.366      -14.889       22.063       14.788       13.231      486.765      218.684      175.060        0.280        0.044       67.106        7.902        0.014      331.915        0.238      872.727
12/01/2021  04:43:00      -74.060        8.764      -11.077       34.328       15.089       13.834     1178.387      227.675      191.375        0.364        0.080       74.577       16.137        0.047      331.808        0.060      872.724
12/01/2021  04:44:00      -79.097        6.791      -12.087       25.374       18.973       14.089      643.848      359.991      198.513        0.383        0.060       79.388        3.468        0.002      331.883        0.186      872.725
12/01/2021  04:45:00      -62.797       11.357      -16.745       22.846       18.623       19.476      521.953      346.831      379.298        0.280        0.062       63.816       11.472        0.032      331.862        0.150      872.722
12/01/2021  04:46:00      -20.715        7.957       -7.992       21.796       21.467       15.460      475.058      460.845      239.009        0.087        0.059       22.190       11.639        0.275      331.745       -0.042      872.718
12/01/2021  04:47:00        3.241       -0.092       -8.381       20.941        9.099       12.530      438.529       82.793      156.991        0.038        0.034        3.242        8.330        6.601      331.724       -0.077      872.718
12/01/2021  04:48:00       -3.885       -4.951       -5.716       11.040       15.845       10.666      121.884      251.071      113.761        0.028        0.024        6.294        8.431        1.795      331.763       -0.012      872.722
12/01/2021  04:49:00       -3.088      -16.928      -13.297       12.363       15.128       10.775      152.853      228.857      116.096        0.049        0.025       17.207        7.626        0.196      331.826        0.093      872.724
12/01/2021  04:50:00       -6.571      -23.209       -5.343       15.666       14.839       11.990      245.438      220.195      143.755        0.061        0.030       24.122        2.039        0.007      331.839        0.114      872.721
12/01/2021  04:51:00       -8.654       -6.656      -11.831        8.332       16.902        9.743       69.428      285.672       94.930        0.035        0.023       10.918        7.738        0.502      331.735       -0.057      872.730
12/01/2021  04:52:00      -23.879      -10.356      -10.793       14.354       11.871       14.837      206.034      140.913      220.131        0.068        0.028       26.028        4.558        0.031      331.757       -0.022      872.732
12/01/2021  04:53:00        0.676        5.142       -0.489        7.078        7.736       10.115       50.096       59.853      102.305        0.012        0.011        5.186        5.803        1.252      331.626       -0.238      872.734
12/01/2021  04:54:00      -45.152       24.822       -7.315       18.739       10.107        8.654      351.151      102.147       74.889        0.162        0.026       51.525        8.648        0.028      331.594       -0.289      872.734
12/01/2021  04:55:00      -52.711       25.040      -13.279        7.147        7.482        9.963       51.073       55.982       99.255        0.189        0.010       58.356        3.391        0.003      331.607       -0.269      872.738
12/01/2021  04:56:00      -61.904       19.285      -16.837       13.163        9.533        8.206      173.258       90.879       67.339        0.241        0.017       64.839        6.226        0.009      331.640       -0.212      872.748
12/01/2021  04:57:00      -71.517       18.855      -15.446       22.026       17.630        9.036      485.148      310.827       81.646        0.329        0.044       73.961        4.663        0.004      331.579       -0.315      872.751
12/01/2021  04:58:00      -45.396       12.443       -9.605       21.693       15.026       11.328      470.572      225.787      128.324        0.157        0.041       47.071        6.110        0.017      331.615       -0.255      872.764
12/01/2021  04:59:00      -17.796        6.028      -11.888       11.033        9.222        9.154      121.720       85.038       83.791        0.039        0.015       18.789        4.630        0.061      331.588       -0.301      872.775
12/01/2021  05:00:00      -29.846       15.112      -10.668       27.116       15.896       10.785      735.257      252.682      116.324        0.117        0.055       33.454       11.309        0.114      331.589       -0.298      872.782
12/01/2021  05:01:00      -46.532       18.923      -19.254       18.004       14.454       12.247      324.150      208.913      149.983        0.179        0.034       50.232        2.783        0.003      331.517       -0.417      872.781
12/01/2021  05:02:00      -46.575       17.518      -16.999       20.861       12.826       11.519      435.172      164.499      132.697        0.175        0.037       49.761        6.109        0.015      331.482       -0.475      872.770
12/01/2021  05:03:00      -56.350       21.369      -17.387        8.059        8.074        5.884       64.952       65.189       34.622        0.205        0.008       60.265        3.114        0.003      331.416       -0.583      872.768
12/01/2021  05:04:00      -53.009        8.219      -14.697       23.291       20.190       12.731      542.470      407.628      162.085        0.210        0.056       53.643       10.744        0.040      331.499       -0.447      872.768
12/01/2021  05:05:00      -69.616       18.723      -18.835       11.224       12.608        7.975      125.979      158.969       63.600        0.295        0.017       72.090        4.899        0.005      331.435       -0.551      872.759
12/01/2021  05:06:00      -77.806       21.028      -17.911       14.343       13.566       10.490      205.718      184.040      110.039        0.366        0.025       80.597        3.418        0.002      331.458       -0.514      872.770
12/01/2021  05:07:00      -97.522       33.000      -18.323       16.604       14.117        9.390      275.696      199.276       88.178        0.575        0.028      102.954        5.631        0.003      331.423       -0.572      872.776
12/01/2021  05:08:00      -98.193       38.925      -17.549       14.031       11.959       12.243      196.863      143.008      149.882        0.598        0.024      105.626        5.059        0.002      331.407       -0.598      872.779
12/01/2021  05:09:00      -96.672       30.056      -21.174       17.898       15.953       14.216      320.327      254.486      202.092        0.574        0.039      101.236        6.686        0.004      331.505       -0.437      872.776
12/01/2021  05:10:00      -92.866       13.785      -18.764       16.693       16.930       15.014      278.650      286.620      225.427        0.498        0.040       93.883        9.027        0.009      331.603       -0.275      872.766
12/01/2021  05:11:00      -79.997        4.385       -8.625       37.957       18.353       16.839     1440.744      336.834      283.555        0.428        0.103       80.117       16.164        0.041      331.681       -0.147      872.764
12/01/2021  05:12:00      -93.949       20.001      -13.054       21.748       14.342       13.288      472.964      205.680      176.561        0.513        0.043       96.054        9.153        0.009      331.716       -0.088      872.763
12/01/2021  05:13:00      -59.825       29.938       -5.138       19.585       16.602       13.157      383.560      275.631      173.116        0.267        0.042       66.898        8.067        0.015      331.608       -0.267      872.763
12/01/2021  05:14:00      -88.641       48.297       -9.338       17.947       14.570       12.968      322.095      212.271      168.170        0.549        0.035      100.945       11.667        0.013      331.609       -0.266      872.754
12/01/2021  05:15:00      -72.892       36.853      -13.753       13.074       11.865        9.558      170.924      140.783       91.351        0.363        0.020       81.679        6.003        0.005      331.581       -0.311      872.740
12/01/2021  05:16:00      -86.283       26.921      -14.079       20.668       20.919       15.279      427.161      437.611      233.458        0.473        0.055       90.386        8.517        0.009      331.687       -0.136      872.742
12/01/2021  05:17:00      -67.768       -5.926      -12.208       29.075       37.053       17.051      845.346     1372.892      290.728        0.364        0.125       68.027       14.072        0.043      331.688       -0.135      872.749
12/01/2021  05:18:00        5.676        9.289      -11.242        9.444       21.862        8.016       89.186      477.926       64.255        0.044        0.032       10.886        5.794        0.283      331.634       -0.223      872.754
12/01/2021  05:19:00      -50.048       14.750      -11.222       28.627       21.513       18.870      819.521      462.791      356.058        0.224        0.082       52.176       12.840        0.061      331.692       -0.128      872.749
12/01/2021  05:20:00      -28.398       11.974      -12.452       32.610       27.057       23.985     1063.418      732.082      575.274        0.174        0.119       30.819       16.203        0.276      331.704       -0.107      872.747
12/01/2021  05:21:00        0.770       -8.443      -10.848       16.533       22.767       17.970      273.332      518.334      322.907        0.065        0.056        8.478       11.328        1.785      331.648       -0.200      872.741
12/01/2021  05:22:00       10.228       -1.399        5.155       10.983       19.184       12.526      120.621      368.026      156.902        0.039        0.032       10.323        9.677        0.879      331.578       -0.315      872.740
12/01/2021  05:23:00       -4.169      -29.879      -15.397       18.317       23.485       16.622      335.528      551.532      276.282        0.116        0.058       30.168        7.028        0.054      331.584       -0.308      872.751
12/01/2021  05:24:00       12.724       -2.033      -13.341       15.231       16.460       15.685      231.986      270.918      246.014        0.055        0.037       12.885        9.671        0.563      331.557       -0.351      872.753
12/01/2021  05:25:00      -10.410      -19.288      -18.027       17.177       27.473       18.846      295.039      754.766      355.166        0.110        0.070       21.918       15.590        0.506      331.587       -0.303      872.766
12/01/2021  05:26:00      -11.093      -12.344       -1.129       13.782       14.839       12.434      189.937      220.203      154.609        0.042        0.028       16.596       11.164        0.453      331.533       -0.390      872.784
12/01/2021  05:27:00      -40.306        9.323      -15.249       23.938       12.102       13.211      573.049      146.468      174.533        0.142        0.045       41.370       14.981        0.131      331.644       -0.209      872.786
12/01/2021  05:28:00      -13.909       -4.940      -14.809       28.920       16.968       13.678      836.352      287.902      187.078        0.087        0.066       14.760       11.995        0.660      331.713       -0.093      872.778
12/01/2021  05:29:00       -2.324        8.949      -13.525        8.294       11.931        7.848       68.795      142.345       61.585        0.027        0.014        9.245        6.922        0.561      331.583       -0.308      872.764
12/01/2021  05:30:00      -23.337       -1.823      -13.066       12.321       21.218       10.835      151.817      450.224      117.402        0.072        0.036       23.408        4.801        0.042      331.654       -0.190      872.755
12/01/2021  05:31:00      -23.511       -6.554      -14.952       13.957       13.278       10.362      194.809      176.307      107.363        0.065        0.024       24.408        5.187        0.045      331.736       -0.055      872.736
12/01/2021  05:32:00      -23.619      -30.830      -11.406       14.666       14.404       11.449      215.086      207.477      131.086        0.110        0.028       38.838        9.225        0.056      331.608       -0.267      872.732
12/01/2021  05:33:00      -15.958      -25.515      -20.060       11.558       10.489       10.273      133.593      110.019      105.534        0.083        0.017       30.094        7.146        0.056      331.564       -0.340      872.732
12/01/2021  05:34:00       -6.930       -3.794       -7.175        8.794       10.187       12.678       77.335      103.777      160.733        0.023        0.017        7.900        8.554        1.172      331.645       -0.205      872.735
12/01/2021  05:35:00       -7.683        6.549       -2.661       10.741        9.389        5.848      115.374       88.152       34.202        0.017        0.012       10.096        4.153        0.169      331.698       -0.120      872.731
12/01/2021  05:36:00      -12.661       10.363       -1.916       13.387        9.028        7.664      179.205       81.504       58.734        0.030        0.016       16.361        6.360        0.151      331.623       -0.242      872.728
12/01/2021  05:37:00       -1.602      -18.917       -3.890        8.383        7.986        9.153       70.283       63.783       83.768        0.030        0.011       18.985        2.781        0.021      331.894        0.204      872.733
12/01/2021  05:38:00        5.031      -32.939      -20.022       14.386       15.543        8.696      206.961      241.587       75.615        0.102        0.026       33.321        5.801        0.030      331.899        0.213      872.739
12/01/2021  05:39:00      -13.834      -29.333      -19.314       23.835       17.556       12.147      568.100      308.230      147.555        0.122        0.051       32.431        7.581        0.055      331.979        0.345      872.747
12/01/2021  05:40:00      -28.745      -13.612      -18.839       15.789       11.300       10.751      249.292      127.697      115.583        0.093        0.025       31.805        8.076        0.064      331.859        0.147      872.745
12/01/2021  05:41:00        0.542       -4.977       -3.483       13.881        8.044        8.244      192.685       64.705       67.971        0.018        0.016        5.006        5.633        1.266      331.813        0.071      872.754
12/01/2021  05:42:00      -12.483      -11.461       -5.468       13.201        9.552        8.799      174.274       91.240       77.426        0.033        0.017       16.947        4.911        0.084      331.790        0.033      872.759
12/01/2021  05:43:00      -10.045      -15.381       -8.570       11.454       17.705        9.975      131.204      313.454       99.499        0.048        0.027       18.370       10.962        0.356      331.898        0.211      872.773
12/01/2021  05:44:00      -24.122        7.996       -3.545       10.178        8.165        6.773      103.596       66.661       45.878        0.044        0.011       25.413        5.913        0.054      331.860        0.147      872.795
12/01/2021  05:45:00      -16.664       -5.008       -3.565       10.299       11.739        6.173      106.067      137.811       38.108        0.030        0.014       17.400        4.685        0.073      331.912        0.232      872.825
12/01/2021  05:46:00      -25.617        2.273      -11.273       14.002        6.491       10.434      196.050       42.138      108.860        0.057        0.017       25.718        5.918        0.053      331.991        0.362      872.839
12/01/2021  05:47:00       -7.982      -14.652       -3.036        8.520       10.123       10.908       72.597      102.467      118.990        0.029        0.015       16.685        6.004        0.130      332.003        0.382      872.833
12/01/2021  05:48:00       -4.319       -6.252       -0.501        7.039       11.930        8.464       49.545      142.326       71.634        0.016        0.013        7.599        4.902        0.416      331.934        0.271      872.822
12/01/2021  05:49:00       -3.801        0.822       -2.688        8.422        6.340        4.160       70.936       40.200       17.304        0.008        0.006        3.889        3.975        1.045      331.882        0.185      872.823
12/01/2021  05:50:00      -23.566       10.539       -5.956       10.688       11.346        6.310      114.239      128.738       39.815        0.049        0.014       25.816        2.936        0.013      331.870        0.166      872.817
12/01/2021  05:51:00      -30.607        6.713       -8.078       14.163       14.847        9.933      200.590      220.426       98.671        0.078        0.026       31.334        7.559        0.058      331.908        0.226      872.827
12/01/2021  05:52:00      -36.691       14.990       -1.613       12.913        9.304        8.964      166.734       86.569       80.348        0.095        0.017       39.635        7.779        0.039      331.831        0.102      872.847
12/01/2021  05:53:00      -18.779       12.907       -2.771        6.526        8.673        6.711       42.583       75.220       45.041        0.034        0.008       22.787        3.425        0.023      331.803        0.054      872.861
12/01/2021  05:54:00       -5.692       -1.349       -3.100        8.056        9.026        7.213       64.896       81.465       52.034        0.012        0.010        5.849        2.818        0.232      331.841        0.117      872.873
12/01/2021  05:55:00      -31.942       14.825      -10.033       11.120       12.485        7.051      123.659      155.887       49.714        0.083        0.016       35.215        4.835        0.019      331.791        0.034      872.869
12/01/2021  05:56:00      -15.094       -2.196       -8.337       17.387       12.900        9.041      302.303      166.401       81.734        0.043        0.028       15.252        8.028        0.277      331.785        0.025      872.870
12/01/2021  05:57:00       -5.149       -5.549       -5.201        7.418        7.271        6.052       55.029       52.862       36.626        0.011        0.007        7.570        3.666        0.235      331.766       -0.007      872.879
12/01/2021  05:58:00      -37.641       24.169       -5.175        9.603       10.243        7.319       92.210      104.929       53.572        0.114        0.013       44.732        3.364        0.006      331.779        0.013      872.891
12/01/2021  05:59:00      -36.150       27.671      -11.384        8.664       10.232        7.802       75.063      104.690       60.873        0.122        0.012       45.524        6.467        0.020      331.806        0.060      872.900
12/01/2021  06:00:00      -39.735       20.962       -8.379       14.598       12.158       10.447      213.097      147.808      109.135        0.128        0.024       44.925        9.419        0.044      331.799        0.048      872.905
12/01/2021  06:01:00      -32.769        6.269      -10.284       16.563       19.210       10.589      274.333      369.010      112.127        0.099        0.038       33.363        5.541        0.028      331.741       -0.047      872.919
12/01/2021  06:02:00      -20.092        7.955       -8.285       10.492       13.484        9.538      110.079      181.808       90.982        0.046        0.019       21.609        6.521        0.091      331.656       -0.188      872.927
12/01/2021  06:03:00      -11.321        4.774       -1.011       11.306        8.646        8.009      127.831       74.762       64.141        0.021        0.013       12.287        3.877        0.100      331.568       -0.333      872.929
12/01/2021  06:04:00      -28.505        9.208      -10.047       22.815       19.136       13.756      520.542      366.170      189.228        0.104        0.054       29.955       12.746        0.181      331.611       -0.262      872.930
12/01/2021  06:05:00      -37.650       10.893      -15.613       21.445       18.688       13.984      459.885      349.259      195.556        0.139        0.050       39.194        3.877        0.010      331.607       -0.268      872.926
12/01/2021  06:06:00      -36.600        6.094      -10.597       18.105       22.495       13.901      327.774      506.038      193.227        0.126        0.051       37.104        5.776        0.024      331.582       -0.310      872.927
12/01/2021  06:07:00      -23.219       17.140       -5.925       19.091       14.392       13.378      364.473      207.124      178.962        0.081        0.038       28.860        7.604        0.069      331.609       -0.265      872.931
12/01/2021  06:08:00       -9.854        1.019       -8.149       17.023       20.563       17.553      289.772      422.833      308.091        0.059        0.051        9.906       16.772        2.867      331.620       -0.247      872.932
12/01/2021  06:09:00      -37.346       -2.139      -15.842       23.728       22.525       15.873      562.999      507.369      251.939        0.149        0.066       37.407       10.186        0.074      331.565       -0.338      872.927
12/01/2021  06:10:00      -34.874       -4.577       -8.123       26.131       19.809       15.309      682.842      392.413      234.380        0.131        0.065       35.173       12.974        0.136      331.544       -0.373      872.926
12/01/2021  06:11:00      -58.091       16.534       -8.851       15.445       18.201       16.888      238.539      331.287      285.190        0.229        0.043       60.398        7.097        0.014      331.508       -0.432      872.936
12/01/2021  06:12:00      -71.371       34.493       -5.086       18.390       18.944       12.702      338.191      358.880      161.329        0.358        0.043       79.270       10.514        0.018      331.424       -0.570      872.957
12/01/2021  06:13:00      -67.282       36.180       -7.340       22.245       15.207       13.174      494.854      231.241      173.559        0.339        0.045       76.393        9.005        0.014      331.342       -0.706      872.960
12/01/2021  06:14:00      -78.692       43.935       -4.977       22.165       16.436       11.721      491.284      270.153      137.390        0.452        0.045       90.127       10.745        0.014      331.315       -0.749      872.961
12/01/2021  06:15:00      -73.176       38.784       -3.471       21.029       17.780       13.938      442.212      316.122      194.280        0.391        0.048       82.819       11.446        0.019      331.419       -0.579      872.960
12/01/2021  06:16:00      -66.389       38.918       -6.721       19.922       17.305       10.963      396.895      299.464      120.177        0.339        0.041       76.955        8.786        0.013      331.445       -0.535      872.975
12/01/2021  06:17:00      -37.767       22.129       -5.611       22.781       14.936       11.501      518.972      223.096      132.264        0.141        0.044       43.773        9.700        0.049      331.455       -0.519      872.997
12/01/2021  06:18:00      -32.094       12.789      -12.199       15.902       15.022       13.582      252.877      225.658      184.481        0.100        0.033       34.548        5.001        0.021      331.563       -0.340      872.998
12/01/2021  06:19:00      -52.427       11.443      -14.226       20.033       14.013       14.712      401.338      196.375      216.436        0.195        0.041       53.662       10.222        0.036      331.535       -0.388      873.005
12/01/2021  06:20:00      -64.213       13.927      -14.358       17.534       15.296       14.941      307.448      233.960      223.245        0.264        0.038       65.706        8.767        0.018      331.539       -0.380      873.019
12/01/2021  06:21:00      -58.835       21.350      -15.457       24.176       20.597       13.423      584.487      424.236      180.166        0.267        0.059       62.589        9.620        0.024      331.425       -0.567      873.029
12/01/2021  06:22:00      -70.576       20.578      -19.646       20.011       19.377       16.631      400.444      375.462      276.582        0.342        0.053       73.515        8.181        0.012      331.412       -0.589      873.043
12/01/2021  06:23:00      -33.235        0.154      -13.838       31.622       23.242       11.450      999.938      540.180      131.109        0.148        0.084       33.236        8.930        0.072      331.386       -0.633      873.035
12/01/2021  06:24:00      -11.286       20.592       -6.094       13.425       12.259       16.197      180.244      150.294      262.339        0.059        0.030       23.482       10.364        0.195      331.350       -0.692      873.041
12/01/2021  06:25:00        5.712        1.347       -7.388        4.341        7.681        8.184       18.842       58.996       66.971        0.012        0.007        5.869        3.996        0.464      331.302       -0.770      873.050
12/01/2021  06:26:00       -1.085        2.659       -1.751        4.905        6.778        4.705       24.061       45.948       22.133        0.005        0.005        2.872        3.636        1.603      331.192       -0.950      873.060
12/01/2021  06:27:00      -26.673        9.028       -9.227       11.997       16.744       11.407      143.924      280.353      130.119        0.072        0.028       28.160        6.683        0.056      331.356       -0.682      873.075
12/01/2021  06:28:00       -0.135       -8.820       -7.940        5.132        7.652        6.553       26.341       58.557       42.942        0.013        0.006        8.821        5.391        0.374      331.452       -0.526      873.091
12/01/2021  06:29:00        5.383       -2.968       -4.441        9.821        6.632        5.375       96.453       43.989       28.892        0.011        0.008        6.146        2.346        0.146      331.570       -0.330      873.108
12/01/2021  06:30:00       17.400        3.796       -8.605       17.600       10.638        9.784      309.752      113.157       95.720        0.045        0.026       17.809       10.961        0.379      331.636       -0.222      873.121
12/01/2021  06:31:00       35.510       24.786       -7.005       11.306        7.848        7.290      127.820       61.592       53.147        0.108        0.012       43.305        3.797        0.008      331.691       -0.130      873.131
12/01/2021  06:32:00       32.291       16.207       -3.963        9.311        6.338        6.016       86.687       40.171       36.197        0.074        0.008       36.130        4.652        0.017      331.706       -0.107      873.138
12/01/2021  06:33:00       28.610       11.263       -4.910        6.148        5.863        3.743       37.798       34.373       14.011        0.053        0.004       30.747        1.732        0.003      331.708       -0.101      873.129
12/01/2021  06:34:00       13.552       24.016       -3.569        7.386       10.403        5.505       54.559      108.223       30.301        0.048        0.010       27.576        3.257        0.014      331.734       -0.061      873.130
12/01/2021  06:35:00       24.041       36.013       -1.087        9.980        7.117        3.793       99.592       50.646       14.389        0.102        0.008       43.300        4.600        0.011      331.788        0.031      873.130
12/01/2021  06:36:00       46.063       23.950       -6.821        7.760       11.367        5.150       60.224      129.206       26.526        0.148        0.011       51.917        4.206        0.007      331.819        0.081      873.133
12/01/2021  06:37:00       40.880       21.316       -3.523       11.793        8.871        5.727      139.069       78.693       32.797        0.119        0.013       46.103        3.282        0.005      331.768       -0.003      873.142
12/01/2021  06:38:00       44.195       23.999       -4.534        8.960        9.254        6.945       80.279       85.641       48.230        0.138        0.011       50.290        4.419        0.008      331.770        0.001      873.155
12/01/2021  06:39:00       42.016       13.047       -6.019       11.359       14.629        7.292      129.021      213.993       53.177        0.118        0.020       43.995        4.277        0.009      331.769       -0.003      873.167
12/01/2021  06:40:00       34.733        4.180       -8.317       19.196       10.071        8.575      368.483      101.420       73.535        0.092        0.027       34.983        6.013        0.030      331.740       -0.051      873.178
12/01/2021  06:41:00       38.200        2.733       -2.461       11.141        8.035        7.145      124.131       64.564       51.055        0.086        0.012       38.298        3.863        0.010      331.773        0.005      873.173
12/01/2021  06:42:00       16.066       -1.142       -6.158       14.519        9.271        8.142      210.811       85.942       66.289        0.033        0.018       16.106        8.398        0.272      331.699       -0.115      873.176
12/01/2021  06:43:00       13.124        0.044       -3.019       17.822       14.900       10.505      317.617      222.022      110.363        0.042        0.033       13.124       10.162        0.600      331.791        0.036      873.169
12/01/2021  06:44:00        6.495        7.890      -11.561       21.146       22.219       16.374      447.134      493.689      268.094        0.072        0.060       10.220        9.165        0.804      331.785        0.025      873.179
12/01/2021  06:45:00       -1.571       -6.936        4.794       10.020       16.791       17.693      100.401      281.927      313.057        0.038        0.035        7.112       11.193        2.477      331.874        0.172      873.183
12/01/2021  06:46:00       13.792        3.693       -4.744       14.428        6.928        9.682      208.174       48.001       93.743        0.029        0.017       14.278        8.412        0.347      331.669       -0.167      873.186
12/01/2021  06:47:00       18.157       -5.714      -10.063       10.929       11.539        7.215      119.442      133.137       52.049        0.038        0.015       19.035        4.992        0.069      331.686       -0.137      873.174
12/01/2021  06:48:00       26.840       -5.456       -5.056        7.574        5.172        5.354       57.369       26.746       28.668        0.044        0.006       27.389        1.811        0.004      331.749       -0.035      873.167
12/01/2021  06:49:00       -9.971       -8.771       -1.186       10.064        7.076        9.633      101.289       50.065       92.793        0.021        0.012       13.280        5.475        0.170      331.725       -0.074      873.161
12/01/2021  06:50:00      -14.949        3.293       -4.113       11.154        9.989        7.096      124.402       99.782       50.360        0.026        0.014       15.307        6.998        0.209      331.628       -0.233      873.155
12/01/2021  06:51:00      -32.590        8.101       -4.126       13.021        9.665        7.773      169.543       93.418       60.423        0.073        0.016       33.582        6.761        0.041      331.605       -0.271      873.162
12/01/2021  06:52:00        2.434       -0.540        0.443       11.986        8.638        6.655      143.655       74.611       44.293        0.013        0.013        2.494        2.896        1.349      331.518       -0.415      873.166
12/01/2021  06:53:00       -4.142       -2.293       -6.017       11.182        9.623        5.851      125.035       92.598       34.239        0.016        0.013        4.734        4.920        1.080      331.624       -0.241      873.173
12/01/2021  06:54:00      -27.147        9.475       -7.426       13.689        8.297        9.612      187.399       68.844       92.381        0.062        0.017       28.753        7.874        0.075      331.599       -0.283      873.184
12/01/2021  06:55:00      -19.036       -9.958       -6.113        7.625        8.513        9.524       58.136       72.478       90.705        0.036        0.011       21.483        6.922        0.104      331.606       -0.270      873.194
12/01/2021  06:56:00       -6.334        7.046       -6.123        6.089        9.303        6.472       37.078       86.548       41.881        0.015        0.008        9.474        4.374        0.213      331.495       -0.455      873.206
12/01/2021  06:57:00      -30.941       14.441      -12.302       12.501       10.972        7.838      156.268      120.382       61.430        0.083        0.017       34.145        4.657        0.019      331.514       -0.421      873.216
12/01/2021  06:58:00      -44.844       14.539      -10.423       14.269       10.936        7.735      203.594      119.592       59.829        0.136        0.019       47.142        6.572        0.019      331.525       -0.403      873.215
12/01/2021  06:59:00      -48.261       11.241       -4.432       16.551       11.720       10.250      273.932      137.351      105.054        0.150        0.026       49.552        6.748        0.019      331.483       -0.472      873.210
12/01/2021  07:00:00      -27.512       -0.525       -0.102       25.545       17.649       12.094      652.531      311.487      146.273        0.093        0.056       27.517        9.865        0.129      331.532       -0.393      873.194
12/01/2021  07:01:00      -57.968        8.776       -2.872       34.912       19.751       16.014     1218.838      390.089      256.448        0.266        0.093       58.628       16.865        0.083      331.433       -0.556      873.191
12/01/2021  07:02:00      -67.446       20.373       -4.166       26.659       19.943       13.305      710.691      397.735      177.035        0.313        0.064       70.455        8.104        0.013      331.344       -0.701      873.193
12/01/2021  07:03:00      -82.069       27.016      -11.288       33.055       20.049       14.098     1092.663      401.982      198.744        0.464        0.085       86.401       13.225        0.023      331.295       -0.784      873.216
12/01/2021  07:04:00     -104.101       29.401      -13.918       27.962       20.404       10.065      781.846      416.334      101.297        0.660        0.065      108.174        8.171        0.006      331.489       -0.464      873.220
12/01/2021  07:05:00      -49.198       -5.625       -1.281       30.608       27.657       20.457      936.835      764.930      418.500        0.229        0.106       49.519       17.314        0.122      331.504       -0.439      873.230
12/01/2021  07:06:00      -27.133        8.933       -0.970       21.472       20.245       16.064      461.065      409.859      258.066        0.097        0.056       28.566       12.770        0.200      331.489       -0.463      873.239
12/01/2021  07:07:00      -42.571        0.090        0.988       44.083       31.164       21.339     1943.292      971.182      455.351        0.259        0.168       42.572       18.824        0.196      331.439       -0.546      873.253
12/01/2021  07:08:00      -35.036        1.498       -2.323       50.194       23.935       18.309     2519.443      572.893      335.208        0.233        0.171       35.068       18.392        0.275      331.423       -0.572      873.258
12/01/2021  07:09:00      -75.739       12.649        3.130       42.175       24.997       22.187     1778.690      624.851      492.268        0.440        0.145       76.789       22.342        0.085      331.406       -0.600      873.261
12/01/2021  07:10:00      -96.329       23.040      -11.764       28.976       26.455       16.705      839.590      699.848      279.058        0.588        0.091       99.046        8.592        0.008      331.352       -0.687      873.267
12/01/2021  07:11:00      -90.591       31.811      -13.767       33.470       27.104       20.486     1120.262      734.636      419.681        0.584        0.114       96.013       13.676        0.020      331.294       -0.782      873.273
12/01/2021  07:12:00      -96.327       14.351      -18.216       41.184       30.992       25.606     1696.115      960.533      655.659        0.656        0.166       97.390       22.498        0.053      331.367       -0.664      873.271
12/01/2021  07:13:00      -63.958       -2.471       -8.040       48.874       27.128       25.186     2388.653      735.920      634.350        0.396        0.188       64.006       21.155        0.109      331.325       -0.733      873.274
12/01/2021  07:14:00     -130.232       44.697       -7.172       49.398       30.951       20.815     2440.152      957.964      433.256        1.142        0.192      137.688       20.450        0.022      331.251       -0.855      873.272
12/01/2021  07:15:00      -64.316       23.010        0.287       44.698       35.371       24.173     1997.918     1251.111      584.355        0.425        0.192       68.308       18.025        0.070      331.212       -0.917      873.267
12/01/2021  07:16:00      -70.872       16.294       -3.591       43.054       26.843       23.763     1853.618      720.520      564.697        0.422        0.157       72.721       18.819        0.067      331.256       -0.845      873.257
12/01/2021  07:17:00      -89.846       18.279       -8.164       36.422       23.784       22.124     1326.541      565.698      489.465        0.543        0.119       91.687       21.681        0.056      331.371       -0.657      873.247
12/01/2021  07:18:00     -102.718       21.420       -7.888       39.317       24.880       22.805     1545.853      619.023      520.051        0.688        0.134      104.928       19.216        0.034      331.365       -0.667      873.233
12/01/2021  07:19:00      -97.798       32.513       -6.151       35.573       27.761       21.218     1265.444      770.665      450.217        0.657        0.124      103.061       14.982        0.021      331.410       -0.593      873.217
12/01/2021  07:20:00      -82.457       31.959       -6.742       43.618       23.956       23.213     1902.491      573.879      538.841        0.544        0.151       88.434       26.663        0.091      331.374       -0.655      873.212
12/01/2021  07:21:00     -103.802       52.377       -9.696       22.337       16.559       14.599      498.922      274.196      213.137        0.730        0.049      116.267       12.209        0.011      331.387       -0.632      873.211
12/01/2021  07:22:00      -79.826       37.361       -5.297       33.469       18.856       17.619     1120.193      355.539      310.413        0.479        0.089       88.137       15.814        0.032      331.483       -0.473      873.208
12/01/2021  07:23:00      -73.515       39.080       -3.841       42.932       19.425       21.067     1843.156      377.324      443.835        0.480        0.133       83.257       22.814        0.075      331.490       -0.462      873.216
12/01/2021  07:24:00      -73.060       32.988       -7.754       28.421       16.223       15.883      807.735      263.173      252.258        0.390        0.066       80.162       13.925        0.030      331.549       -0.365      873.220
12/01/2021  07:25:00      -72.773       17.511       -8.651       26.354       24.088       15.587      694.551      580.240      242.964        0.360        0.076       74.851       14.304        0.037      331.655       -0.191      873.225
12/01/2021  07:26:00      -89.247       21.312       -8.452       21.469       21.800       15.184      460.914      475.255      230.540        0.483        0.058       91.756       13.724        0.022      331.666       -0.171      873.220
12/01/2021  07:27:00      -55.492       11.048       -7.524       37.098       21.712       16.997     1376.296      471.399      288.898        0.270        0.107       56.582       18.566        0.108      331.733       -0.061      873.217
12/01/2021  07:28:00      -53.359       -4.223       -9.037       28.867       20.406       15.275      833.314      416.404      233.322        0.221        0.074       53.526       13.539        0.064      331.801        0.051      873.206
12/01/2021  07:29:00      -69.679       12.895       -7.810       31.194       17.125       17.690      973.082      293.255      312.933        0.333        0.079       70.862       16.112        0.052      331.726       -0.072      873.198
12/01/2021  07:30:00      -76.322       25.673      -10.385       17.858       17.033       13.932      318.907      290.137      194.087        0.370        0.040       80.524       12.237        0.023      331.636       -0.219      873.196
12/01/2021  07:31:00      -46.387       13.750       -7.646       26.243       13.271       13.704      688.674      176.109      187.812        0.173        0.053       48.382       17.049        0.124      331.705       -0.107      873.211
12/01/2021  07:32:00      -32.851       12.633       -8.237       26.013       10.219        9.316      676.672      104.436       86.792        0.109        0.043       35.196        8.701        0.061      331.698       -0.118      873.227
12/01/2021  07:33:00      -15.883       13.923      -14.047       13.426        9.488        7.560      180.251       90.027       57.158        0.049        0.016       21.121        3.341        0.025      331.795        0.041      873.252
12/01/2021  07:34:00       -1.835       16.299       -9.529       13.449        8.484        7.894      180.879       71.974       62.320        0.034        0.016       16.402        3.618        0.049      331.891        0.199      873.263
12/01/2021  07:35:00      -11.017        9.667       -7.663       12.052        7.925        7.176      145.250       62.808       51.490        0.027        0.013       14.657        4.829        0.109      332.007        0.390      873.281
12/01/2021  07:36:00      -10.926        0.316      -12.171       12.578        9.357        7.972      158.197       87.555       63.553        0.029        0.015       10.930        7.085        0.420      332.040        0.444      873.295
12/01/2021  07:37:00        2.967        0.957        1.381        5.260        5.179       11.536       27.672       26.820      133.073        0.010        0.009        3.118        4.386        1.980      332.080        0.511      873.306
12/01/2021  07:38:00       -7.790      -18.730      -10.259       10.688       10.323        7.966      114.242      106.571       63.462        0.040        0.014       20.285        4.356        0.046      331.969        0.329      873.312
12/01/2021  07:39:00       -0.272       -5.447      -11.581        4.939        8.341        8.194       24.397       69.569       67.139        0.016        0.008        5.454        5.435        0.993      332.230        0.757      873.327
12/01/2021  07:40:00       -0.483        7.298       -9.427        4.074        8.732        8.697       16.599       76.244       75.641        0.016        0.008        7.314        6.827        0.871      332.215        0.733      873.340
12/01/2021  07:41:00       -9.856       11.137       -7.173        6.893        7.105        8.494       47.507       50.482       72.149        0.022        0.009       14.872        4.834        0.106      332.066        0.486      873.347
12/01/2021  07:42:00       -8.326        0.027       -6.411        9.727       14.212       10.830       94.619      201.980      117.294        0.026        0.021        8.326        6.043        0.527      332.084        0.516      873.356
12/01/2021  07:43:00       -8.332       -0.612       -2.631        9.049        9.087        7.523       81.883       82.574       56.593        0.015        0.011        8.354        5.134        0.378      332.100        0.541      873.359
12/01/2021  07:44:00      -11.776      -11.200       -5.344       13.361       12.446       10.258      178.522      154.911      105.235        0.037        0.022       16.252        6.783        0.174      332.076        0.503      873.378
12/01/2021  07:45:00      -21.818       17.552       -5.918       23.814        8.915        8.628      567.087       79.484       74.448        0.077        0.036       28.002        6.923        0.061      331.975        0.336      873.381
12/01/2021  07:46:00      -54.193       17.081      -10.621       13.714        9.759        7.159      188.086       95.237       51.252        0.184        0.017       56.821        4.530        0.006      331.956        0.305      873.389
12/01/2021  07:47:00      -46.258       21.175       -9.296       17.958       13.325        9.176      322.487      177.560       84.203        0.163        0.029       50.874        7.536        0.022      331.998        0.375      873.403
12/01/2021  07:48:00      -22.117       16.314       -3.469       21.880       10.453        8.337      478.749      109.257       69.499        0.071        0.033       27.483        8.014        0.085      332.065        0.483      873.413
12/01/2021  07:49:00      -36.198       13.635       -3.931       10.709        8.135        7.157      114.689       66.175       51.222        0.087        0.012       38.681        5.718        0.022      332.122        0.579      873.413
12/01/2021  07:50:00      -49.679       20.845       -9.582        8.849        6.018        6.717       78.308       36.212       45.121        0.158        0.008       53.875        3.855        0.005      332.102        0.543      873.416
12/01/2021  07:51:00      -14.889       -0.102      -10.566       11.937       11.708        7.185      142.490      137.072       51.630        0.033        0.017       14.890        6.350        0.182      332.230        0.755      873.406
12/01/2021  07:52:00      -12.980       -8.983       -7.690       10.672        7.992        9.130      113.884       63.879       83.352        0.028        0.013       15.786        5.116        0.105      332.268        0.820      873.407
12/01/2021  07:53:00      -14.940      -11.180        1.678       11.819       10.177        6.873      139.680      103.568       47.236        0.032        0.015       18.660        6.342        0.116      332.482        1.174      873.413
12/01/2021  07:54:00       -7.356       -1.055      -10.757        8.486        7.637        6.910       72.017       58.329       47.742        0.017        0.009        7.431        3.229        0.189      332.364        0.977      873.423
12/01/2021  07:55:00       -1.039       -1.879       -9.675        6.051        6.433        5.885       36.617       41.378       34.628        0.011        0.006        2.147        2.059        0.920      332.549        1.284      873.432
12/01/2021  07:56:00       -0.054      -17.709      -13.272       18.581       12.735        8.579      345.251      162.193       73.598        0.054        0.029       17.709        6.619        0.140      332.500        1.203      873.432
12/01/2021  07:57:00      -24.494       -8.823       -9.385       13.053       17.394        9.491      170.377      302.545       90.073        0.066        0.028       26.034        3.267        0.016      332.418        1.067      873.424
12/01/2021  07:58:00       -6.409       -0.321       -6.428        8.773       13.151       10.061       76.973      172.936      101.219        0.022        0.018        6.417        7.236        1.272      332.560        1.302      873.411
12/01/2021  07:59:00        1.054        3.784       -8.511        8.272        9.522        9.992       68.423       90.660       99.836        0.017        0.013        3.928        3.887        0.979      332.497        1.198      873.411
12/01/2021  08:00:00        7.510       -4.458       -7.265        8.588       11.275        9.140       73.755      127.129       83.543        0.021        0.014        8.734        3.836        0.193      332.646        1.445      873.404
12/01/2021  08:01:00        1.389       -9.450       -7.396        8.059       16.113       12.844       64.941      259.641      164.961        0.032        0.024        9.552        7.745        0.657      332.795        1.692      873.400
12/01/2021  08:02:00        5.855      -20.611       -7.957        8.270       18.804       12.412       68.393      353.603      154.067        0.055        0.029       21.426        5.089        0.056      332.718        1.565      873.401
12/01/2021  08:03:00       38.311      -20.086      -15.299       12.268       12.920       10.067      150.515      166.924      101.347        0.126        0.021       43.258        3.622        0.007      332.495        1.195      873.397
12/01/2021  08:04:00       37.513      -14.596      -18.737       15.407       17.053       11.843      237.363      290.802      140.250        0.132        0.033       40.252        6.780        0.028      332.517        1.231      873.396
12/01/2021  08:05:00       25.713       -2.635      -17.458       20.815       18.695       15.497      433.249      349.515      240.163        0.100        0.051       25.848       10.592        0.168      332.662        1.469      873.403
12/01/2021  08:06:00        4.144      -15.887      -14.244       26.078       33.359       17.237      680.068     1112.845      297.100        0.128        0.105       16.418       14.863        0.820      332.762        1.637      873.405
12/01/2021  08:07:00       -1.760      -19.564       -8.271       14.940       26.939       20.168      223.190      725.687      406.739        0.090        0.068       19.643       14.314        0.531      332.962        1.966      873.405
12/01/2021  08:08:00       -7.732      -17.601      -20.802       15.283       14.988       12.135      233.572      224.632      147.257        0.070        0.030       19.225        5.877        0.093      332.707        1.545      873.406
12/01/2021  08:09:00        8.266       -9.648       -0.676       18.901       19.452       16.084      357.246      378.399      258.703        0.058        0.050       12.704       12.361        0.947      332.765        1.642      873.404
12/01/2021  08:10:00       17.750      -24.815       -9.142       19.887       14.234       11.898      395.510      202.600      141.557        0.088        0.037       30.510        9.288        0.093      332.854        1.789      873.391
12/01/2021  08:11:00       28.590      -27.128      -15.658       19.557       13.304       14.752      382.484      176.999      217.627        0.129        0.039       39.412        9.750        0.061      332.766        1.644      873.388
12/01/2021  08:12:00       24.657       -4.753      -13.260       19.531       26.062       22.350      381.477      679.228      499.513        0.118        0.078       25.111        9.127        0.132      332.886        1.841      873.386
12/01/2021  08:13:00       15.188        8.562      -11.358       18.275       39.179       17.488      333.964     1535.009      305.842        0.130        0.109       17.435       18.747        1.156      332.782        1.670      873.390
12/01/2021  08:14:00       23.282      -35.211      -16.450       22.202       26.711       19.394      492.940      713.485      376.124        0.182        0.079       42.212       11.295        0.072      332.846        1.776      873.385
12/01/2021  08:15:00       -7.257      -33.547      -10.491       28.278       23.249       18.083      799.619      540.501      326.998        0.148        0.083       34.323        9.877        0.083      332.926        1.909      873.378
12/01/2021  08:16:00       15.813      -58.770      -26.581       23.847       28.924       18.177      568.679      836.614      330.395        0.307        0.087       60.860       11.648        0.037      332.977        1.991      873.386
12/01/2021  08:17:00       33.966      -34.129      -20.845       22.522       15.662       13.376      507.259      245.294      178.906        0.184        0.047       48.150        5.535        0.013      332.902        1.868      873.393
12/01/2021  08:18:00       29.335       -4.547      -31.406       15.760       15.922       12.766      248.378      253.506      162.975        0.127        0.033       29.686        7.077        0.057      332.870        1.815      873.408
12/01/2021  08:19:00       34.443      -11.657      -10.001       26.174       21.498       18.209      685.067      462.172      331.578        0.145        0.074       36.362       15.806        0.189      332.958        1.961      873.414
12/01/2021  08:20:00       33.580      -10.908      -25.980       27.762       45.236       22.023      770.745     2046.305      485.020        0.261        0.165       35.307       16.223        0.211      332.872        1.818      873.410
12/01/2021  08:21:00       52.794      -22.797      -18.827       25.652       33.181       25.699      658.032     1100.978      660.436        0.304        0.121       57.506       10.190        0.031      332.952        1.949      873.410
12/01/2021  08:22:00       21.741       11.490       -3.411       33.358       30.714       20.561     1112.732      943.357      422.763        0.155        0.124       24.590       14.341        0.340      332.958        1.960      873.403
12/01/2021  08:23:00       20.722       -9.975      -14.090       25.273       33.960       21.351      638.720     1153.280      455.846        0.149        0.112       22.998       10.683        0.216      333.000        2.028      873.402
12/01/2021  08:24:00       16.416      -29.849      -21.767       22.912       38.675       25.408      524.942     1495.774      645.576        0.215        0.133       34.065       13.323        0.153      333.182        2.331      873.398
12/01/2021  08:25:00       -3.395      -11.509       -9.358       20.965       26.367       16.416      439.546      695.193      269.494        0.082        0.070       11.999        9.232        0.592      333.289        2.508      873.400
12/01/2021  08:26:00        9.456      -17.294       -1.705       26.742       22.080       16.400      715.140      487.546      268.968        0.093        0.074       19.710       11.276        0.327      333.220        2.393      873.400
12/01/2021  08:27:00       -1.037      -18.810        5.450       24.750       18.882       15.512      612.576      356.521      240.610        0.080        0.060       18.838        6.679        0.126      333.258        2.455      873.392
12/01/2021  08:28:00       34.952        5.759       -7.868       30.157       19.496       14.444      909.463      380.080      208.643        0.141        0.075       35.423        8.687        0.060      333.065        2.137      873.390
12/01/2021  08:29:00       53.999        6.215      -16.492       37.945       36.130       19.008     1439.786     1305.376      361.315        0.317        0.155       54.355       16.021        0.087      332.935        1.922      873.393
12/01/2021  08:30:00        3.427       -8.848        0.222       25.461       23.494       23.391      648.251      551.979      547.116        0.092        0.087        9.488       19.598        4.267      333.413        2.713      873.390
12/01/2021  08:31:00       62.942       -0.537      -17.420       43.037       31.859       21.926     1852.177     1015.022      480.728        0.381        0.167       62.945       16.221        0.066      333.086        2.174      873.396
12/01/2021  08:32:00       42.193       -6.772      -13.536       41.283       34.502       27.557     1704.298     1190.406      759.377        0.283        0.183       42.733       19.822        0.215      333.111        2.213      873.409
12/01/2021  08:33:00       -1.723      -44.120       -5.887       28.119       32.387       25.853      790.705     1048.889      668.381        0.225        0.125       44.154       22.528        0.260      333.301        2.527      873.413
12/01/2021  08:34:00      -38.241      -16.118        1.991       26.013       15.455       18.294      676.692      238.862      334.661        0.149        0.063       41.499       13.468        0.105      333.301        2.529      873.408
12/01/2021  08:35:00      -23.239      -36.993      -19.913       32.564       34.387       21.318     1060.424     1182.460      454.442        0.250        0.135       43.687       16.916        0.150      333.283        2.498      873.398
12/01/2021  08:36:00       -3.722      -62.157      -14.764       31.997       30.543       26.257     1023.783      932.847      689.418        0.337        0.132       62.268       21.029        0.114      333.218        2.391      873.400
12/01/2021  08:37:00       13.084      -58.363      -13.970       21.528       28.424       20.679      463.455      807.918      427.634        0.274        0.085       59.811       12.231        0.042      333.296        2.519      873.387
12/01/2021  08:38:00       26.909      -11.026      -12.618       20.353       30.984       23.554      414.253      960.031      554.784        0.147        0.096       29.081       12.346        0.180      333.334        2.583      873.387
12/01/2021  08:39:00       55.454      -58.767      -26.608       21.039       30.052       17.065      442.631      903.093      291.219        0.444        0.082       80.801        8.598        0.011      333.271        2.479      873.403
12/01/2021  08:40:00       17.338      -24.532      -13.659       29.633       26.633       21.849      878.091      709.330      477.368        0.158        0.103       30.041       21.233        0.500      333.472        2.810      873.418
12/01/2021  08:41:00       10.162      -21.376      -13.793       21.579       22.178       20.740      465.666      491.871      430.151        0.107        0.069       23.668       16.444        0.483      333.567        2.967      873.434
12/01/2021  08:42:00      -24.026       14.995      -10.327       18.726       18.030       11.156      350.676      325.078      124.465        0.085        0.040       28.322        1.914        0.005      333.310        2.542      873.448
12/01/2021  08:43:00      -24.750       37.674       -4.171       24.842       25.401       15.318      617.117      645.200      234.646        0.177        0.075       45.076       10.540        0.055      333.253        2.448      873.446
12/01/2021  08:44:00       -6.849       15.725        3.371       22.191       17.568       11.902      492.433      308.628      141.653        0.062        0.047       17.151        9.675        0.318      333.422        2.728      873.445
12/01/2021  08:45:00      -25.866        2.823       -8.688       15.705       13.574       12.270      246.634      184.251      150.554        0.067        0.029       26.020        7.937        0.093      333.354        2.616      873.437
12/01/2021  08:46:00      -18.442       -4.929       -8.267       16.791       13.615       14.410      281.928      185.359      207.648        0.055        0.034       19.089       10.328        0.293      333.430        2.741      873.439
12/01/2021  08:47:00      -18.872       -9.982       -7.247       22.903       19.025       13.864      524.551      361.963      192.224        0.079        0.054       21.350       13.376        0.393      333.490        2.841      873.449
12/01/2021  08:48:00      -38.652       12.966       -1.945       30.202       14.063       10.210      912.170      197.758      104.244        0.144        0.061       40.769        7.362        0.033      333.458        2.788      873.454
12/01/2021  08:49:00      -70.334      -10.201      -11.393       25.121       23.566       17.408      631.077      555.336      303.037        0.333        0.074       71.070       13.392        0.036      333.348        2.605      873.455
12/01/2021  08:50:00      -24.340        5.887       -5.774       20.772       11.102       11.134      431.480      123.259      123.974        0.067        0.034       25.042        5.413        0.047      333.435        2.749      873.450
12/01/2021  08:51:00       -5.215       15.806       -3.357        7.845        7.637        8.915       61.541       58.330       79.475        0.024        0.010       16.644        3.406        0.042      333.445        2.764      873.445
12/01/2021  08:52:00       21.332       15.904       -0.735       17.755       17.973       12.904      315.249      323.046      166.505        0.076        0.040       26.608        6.906        0.067      333.643        3.093      873.432
12/01/2021  08:53:00        2.281       33.177      -22.221       37.829       16.660       19.553     1431.006      277.570      382.300        0.184        0.105       33.256       21.922        0.435      333.302        2.528      873.415
12/01/2021  08:54:00      -42.528      -15.282      -10.985       37.358       25.090       18.213     1395.611      629.496      331.700        0.226        0.118       45.191       10.155        0.050      333.459        2.788      873.407
12/01/2021  08:55:00      -35.604      -17.826       -3.095       29.611       27.496       22.473      876.795      756.005      505.052        0.187        0.107       39.817       17.628        0.196      333.642        3.090      873.385
12/01/2021  08:56:00      -72.233       -7.478       -6.310       27.199       19.830       16.143      739.774      393.217      260.594        0.335        0.070       72.619       15.387        0.045      333.572        2.976      873.368
12/01/2021  08:57:00      -32.524        8.597       -4.014       19.393       17.125       15.196      376.086      293.275      230.917        0.102        0.045       33.641       12.243        0.132      333.645        3.097      873.368
12/01/2021  08:58:00       -5.291       -1.972       -4.807       13.359        8.304        9.953      178.456       68.963       99.057        0.020        0.017        5.646        7.196        1.624      333.850        3.436      873.375
12/01/2021  08:59:00       -4.710       17.296       -8.792        9.626       15.649        9.061       92.654      244.904       82.101        0.041        0.021       17.926        7.006        0.153      333.742        3.257      873.368
12/01/2021  09:00:00      -25.719       11.434      -11.738       18.254       18.268        9.339      333.215      333.732       87.226        0.084        0.038       28.146        5.223        0.034      333.656        3.116      873.360
12/01/2021  09:01:00       -9.927        4.514      -15.773        9.825       12.611       10.796       96.538      159.040      116.555        0.037        0.019       10.905        8.101        0.552      333.889        3.500      873.344
12/01/2021  09:02:00      -24.622        2.585      -16.815       15.749       11.581        9.397      248.041      134.109       88.298        0.068        0.024       24.757        5.794        0.055      333.765        3.296      873.337
12/01/2021  09:03:00      -44.949       11.987      -10.257       23.334       23.330       12.517      544.465      544.279      156.677        0.176        0.062       46.520        6.405        0.019      333.755        3.278      873.312
12/01/2021  09:04:00      -34.012        8.921       -8.940       17.249       13.637       12.035      297.539      185.970      144.845        0.097        0.031       35.162       12.732        0.131      333.689        3.169      873.296
12/01/2021  09:05:00      -12.056       -1.890      -12.361       19.303        7.894       10.143      372.605       62.317      102.887        0.042        0.027       12.203        9.219        0.571      333.889        3.501      873.295
12/01/2021  09:06:00      -14.737       -7.323       -0.854       12.831       20.382       21.106      164.644      415.445      445.481        0.065        0.051       16.456       13.918        0.715      334.071        3.802      873.284
12/01/2021  09:07:00      -57.194       35.331      -11.828       27.122       15.395       16.208      735.616      237.009      262.702        0.295        0.062       67.227       15.576        0.054      333.761        3.288      873.278
12/01/2021  09:08:00      -22.276       37.666       -8.328       15.914       11.881       13.977      253.250      141.165      195.367        0.129        0.029       43.761        6.035        0.019      333.745        3.260      873.280
12/01/2021  09:09:00      -29.367       19.161      -11.172       21.106       28.329       16.058      445.470      802.528      257.852        0.143        0.075       35.065        8.555        0.060      333.925        3.560      873.281
12/01/2021  09:10:00      -33.233       19.073      -18.000       17.013       16.009       14.133      289.437      256.304      199.756        0.127        0.037       38.318       11.809        0.095      333.836        3.412      873.286
12/01/2021  09:11:00      -41.161       22.304      -10.220       14.524       15.558       13.525      210.944      242.058      182.925        0.147        0.032       46.815       10.031        0.046      333.847        3.431      873.287
12/01/2021  09:12:00      -34.121       -0.509      -23.758       16.422        7.458        8.846      269.698       55.624       78.247        0.107        0.020       34.125        3.595        0.011      333.844        3.426      873.289
12/01/2021  09:13:00      -39.627        3.447      -14.740       11.032       12.390        9.597      121.699      153.506       92.108        0.108        0.018       39.777        4.819        0.015      333.844        3.426      873.285
12/01/2021  09:14:00      -30.341        2.818      -19.608       10.848        7.522        9.458      117.674       56.575       89.462        0.079        0.013       30.471        6.172        0.041      333.932        3.571      873.323
12/01/2021  09:15:00      -19.398       -1.327      -14.398       16.276        9.469       13.089      264.900       89.653      171.323        0.056        0.026       19.443       10.569        0.295      334.180        3.983      873.355
12/01/2021  09:16:00        3.392      -12.179      -10.160        8.785       15.431       21.031       77.172      238.127      442.285        0.051        0.038       12.642       12.330        0.951      334.401        4.350      873.352
12/01/2021  09:17:00        2.596       -6.994      -15.043        5.415        6.716        8.806       29.324       45.108       77.551        0.022        0.008        7.460        6.707        0.808      334.467        4.458      873.350
12/01/2021  09:18:00      -11.718       -2.241      -13.343       12.618        9.243        7.680      159.211       85.434       58.987        0.031        0.015       11.931        7.400        0.385      334.278        4.143      873.343
12/01/2021  09:19:00        0.626       -9.639       -9.157       12.519       10.377       11.485      156.722      107.685      131.910        0.029        0.020        9.660        4.540        0.221      334.279        4.147      873.341
12/01/2021  09:20:00       50.493       28.932      -20.813       25.437       21.040       17.438      647.030      442.673      304.068        0.261        0.070       58.194       10.857        0.035      334.172        3.968      873.330
12/01/2021  09:21:00       81.174       59.215      -17.617       21.708       17.498       19.921      471.217      306.182      396.855        0.579        0.059      100.477       17.195        0.029      334.148        3.929      873.348
12/01/2021  09:22:00       64.912       54.922      -10.957       44.256       22.823       21.443     1958.621      520.889      459.783        0.514        0.147       85.029       10.836        0.016      334.212        4.036      873.349
12/01/2021  09:23:00       81.657       54.177      -21.522       27.677       25.046       27.739      766.005      627.300      769.473        0.611        0.108       97.995       15.910        0.026      334.443        4.418      873.345
12/01/2021  09:24:00       56.738       42.643      -22.205       49.569       25.918       23.009     2457.081      671.730      529.423        0.459        0.183       70.976       23.343        0.108      334.401        4.349      873.337
12/01/2021  09:25:00       48.092       10.800      -12.870       36.871       22.459       25.901     1359.504      504.389      670.871        0.256        0.127       49.290       16.177        0.108      334.397        4.341      873.320
12/01/2021  09:26:00       70.379       22.035      -18.953       20.936       23.567       16.208      438.299      555.390      262.705        0.353        0.063       73.748        9.444        0.016      334.437        4.410      873.314
12/01/2021  09:27:00       50.341       29.474      -14.375       25.815       40.267       19.420      666.407     1621.413      377.149        0.314        0.133       58.335       15.347        0.069      334.593        4.667      873.288
12/01/2021  09:28:00       65.655      -19.193      -35.162       29.980       31.663       27.657      898.782     1002.565      764.926        0.429        0.133       68.403       14.104        0.043      334.571        4.630      873.272
12/01/2021  09:29:00       19.062      -55.426      -28.113       34.506       41.247       28.714     1190.688     1701.327      824.476        0.397        0.186       58.612       25.696        0.192      334.895        5.169      873.257
12/01/2021  09:30:00        9.370      -16.450       -0.963       36.047       51.152       33.175     1299.403     2616.554     1100.565        0.269        0.251       18.931       17.536        0.858      335.041        5.411      873.249
12/01/2021  09:31:00      100.083       50.508      -23.322       42.798       48.776       31.687     1831.710     2379.061     1004.062        0.916        0.261      112.106       16.245        0.021      334.706        4.855      873.248
12/01/2021  09:32:00      124.939       67.166      -18.822       32.670       34.776       22.220     1067.329     1209.372      493.723        1.162        0.139      141.848       11.179        0.006      334.554        4.603      873.253
12/01/2021  09:33:00       50.434       30.806      -22.662       46.145       40.256       22.944     2129.380     1620.537      526.444        0.414        0.214       59.098       21.643        0.134      334.630        4.729      873.266
12/01/2021  09:34:00       41.721      -33.283      -37.161       48.680       58.784       25.421     2369.772     3455.571      646.219        0.535        0.324       53.371       15.800        0.088      335.107        5.523      873.280
12/01/2021  09:35:00       72.558      -81.500      -18.501       56.574       50.121       32.626     3200.638     2512.137     1064.434        0.951        0.339      109.119       27.687        0.064      334.823        5.050      873.292
12/01/2021  09:36:00       24.715      -65.035      -25.004       45.137       39.625       22.296     2037.370     1570.145      497.102        0.478        0.205       69.573       18.128        0.068      335.044        5.418      873.291
12/01/2021  09:37:00       34.934      -45.003      -15.863       34.238       32.734       26.936     1172.254     1071.483      725.566        0.323        0.148       56.971       21.123        0.137      335.217        5.704      873.287
12/01/2021  09:38:00       29.074      -19.120       -5.027       26.933       40.734       32.417      725.410     1659.227     1050.851        0.234        0.172       34.798       22.221        0.408      335.053        5.432      873.271
12/01/2021  09:39:00       36.904      -16.663      -14.793       41.995       39.046       29.732     1763.592     1524.573      883.986        0.301        0.209       40.492       17.814        0.194      335.196        5.669      873.269
12/01/2021  09:40:00       56.669      -31.360      -30.778       35.903       38.011       28.271     1289.035     1444.807      799.267        0.434        0.177       64.768       20.155        0.097      335.106        5.520      873.272
12/01/2021  09:41:00       21.133        5.110      -22.684       33.912       34.212       21.608     1150.023     1170.485      466.888        0.189        0.139       21.742       13.355        0.377      335.085        5.485      873.268
12/01/2021  09:42:00       45.680       65.134        6.877       56.755       37.117       30.575     3221.100     1377.668      934.850        0.595        0.277       79.555       28.679        0.130      335.021        5.379      873.254
12/01/2021  09:43:00       61.033      -23.827      -19.882       42.937       41.810       40.313     1843.599     1748.102     1625.112        0.495        0.261       65.519       26.731        0.166      335.055        5.435      873.247
12/01/2021  09:44:00       66.632       38.172       -6.156       25.755       26.456       15.849      663.320      699.915      251.192        0.377        0.081       76.791       13.700        0.032      335.074        5.465      873.253
12/01/2021  09:45:00       62.396       42.314      -10.974       21.843       16.792       18.040      477.099      281.956      325.435        0.344        0.054       75.390        8.304        0.012      335.011        5.363      873.259
12/01/2021  09:46:00       60.816       57.346       -7.533       27.219       20.534       16.713      740.850      421.636      279.314        0.424        0.072       83.589       10.698        0.016      334.960        5.278      873.265
12/01/2021  09:47:00       36.153       40.688       -3.516       27.156       22.251       16.198      737.437      495.127      262.382        0.223        0.075       54.429        7.197        0.017      335.183        5.648      873.268
12/01/2021  09:48:00       61.992       61.234      -10.478       25.359       16.584       18.889      643.068      275.046      356.797        0.449        0.064       87.135       13.084        0.023      335.117        5.538      873.266
12/01/2021  09:49:00      -25.426      -21.752       -1.313       40.690       53.598       20.876     1655.679     2872.788      435.818        0.304        0.248       33.460       22.250        0.442      335.318        5.872      873.265
12/01/2021  09:50:00       -1.798        2.644       -1.731       39.083       37.116       22.636     1527.450     1377.588      512.370        0.171        0.171        3.197       17.997       31.681      335.300        5.843      873.259
12/01/2021  09:51:00       47.225       -3.332      -22.217       35.055       44.522       31.913     1228.838     1982.179     1018.416        0.348        0.211       47.342       24.245        0.262      335.378        5.972      873.260
12/01/2021  09:52:00       46.875       43.704      -10.095       37.036       22.055       25.136     1371.650      486.437      631.818        0.335        0.124       64.088       15.365        0.057      335.252        5.763      873.263
12/01/2021  09:53:00       47.508       48.658      -12.595       38.481       27.602       24.906     1480.789      761.863      620.290        0.382        0.143       68.005       25.650        0.142      335.266        5.786      873.272
12/01/2021  09:54:00       -7.093      -51.213       -9.776       51.571       51.332       22.482     2659.597     2634.999      505.459        0.428        0.290       51.702       19.651        0.144      335.348        5.922      873.264
12/01/2021  09:55:00       49.632      -50.935      -26.326       34.126       38.672       23.304     1164.584     1495.502      543.094        0.448        0.160       71.118       13.438        0.036      335.239        5.741      873.261
12/01/2021  09:56:00       38.892       28.921        2.445       34.241       31.066       20.468     1172.458      965.094      418.947        0.246        0.128       48.467       12.330        0.065      335.503        6.180      873.259
12/01/2021  09:57:00       82.900       76.728      -22.817       28.101       32.015       21.783      789.682     1024.967      474.508        0.778        0.114      112.958        7.578        0.005      335.183        5.648      873.249
12/01/2021  09:58:00        0.478       23.071       -0.246       29.446       24.018       16.056      867.082      576.855      257.780        0.112        0.085       23.076       12.354        0.287      335.558        6.272      873.238
12/01/2021  09:59:00        2.246      -76.518      -17.880       45.764       49.458       27.734     2094.374     2446.069      769.192        0.574        0.265       76.551       11.405        0.022      335.663        6.447      873.225
12/01/2021  10:00:00        6.776        9.755      -21.642       34.034       39.237       33.219     1158.316     1539.542     1103.504        0.220        0.190       11.877        8.871        0.558      335.719        6.540      873.221
12/01/2021  10:01:00        0.955       14.703        5.226       29.317       39.083       23.094      859.460     1527.496      533.343        0.158        0.146       14.734       13.536        0.844      335.769        6.625      873.212
12/01/2021  10:02:00        4.819       -3.456       -4.433       31.398       22.288       18.081      985.852      496.762      326.930        0.093        0.090        5.930       15.546        6.874      335.903        6.848      873.207
12/01/2021  10:03:00      -18.768      -14.643      -28.129       54.005       25.323       22.186     2916.493      641.272      492.199        0.270        0.202       23.804       21.207        0.794      335.592        6.329      873.192
12/01/2021  10:04:00        5.621       -2.591      -22.390       37.078       34.471       22.058     1374.801     1188.221      486.560        0.179        0.152        6.189       16.971        7.519      336.035        7.067      873.180
12/01/2021  10:05:00       38.674       42.311       -3.051       28.851       32.739       26.083      832.356     1071.860      680.332        0.294        0.129       57.322       17.210        0.090      335.811        6.692      873.170
12/01/2021  10:06:00        8.855        9.404        2.791       34.406       46.823       28.723     1183.802     2192.354      825.012        0.219        0.210       12.917       19.584        2.299      335.973        6.964      873.151
12/01/2021  10:07:00       -6.393      -32.248       -8.373       34.653       38.329       32.930     1200.801     1469.115     1084.367        0.245        0.188       32.875       23.483        0.510      336.083        7.146      873.136
12/01/2021  10:08:00       -2.538      -35.236      -32.569       43.307       36.272       24.896     1875.494     1315.694      619.833        0.306        0.191       35.327        9.352        0.070      335.991        6.993      873.121
12/01/2021  10:09:00       17.601       -8.865      -19.371       31.895       27.167       24.260     1017.323      738.033      588.570        0.155        0.117       19.707       15.466        0.616      335.836        6.734      873.121
12/01/2021  10:10:00        0.087       -8.275       -5.965       27.224       28.931       25.174      741.120      836.984      633.741        0.116        0.111        8.275       11.536        1.943      336.344        7.583      873.101
12/01/2021  10:11:00       69.619      -81.656      -42.618       72.408       47.755       39.472     5242.984     2280.514     1558.071        1.120        0.454      107.305       29.912        0.078      335.665        6.449      873.092
12/01/2021  10:12:00       65.017      -80.599      -15.555       40.410       52.129       26.663     1632.988     2717.394      710.907        0.801        0.253      103.554       19.309        0.035      335.666        6.453      873.095
12/01/2021  10:13:00       50.484       49.496      -19.971       45.027       34.625       38.576     2027.441     1198.877     1488.106        0.505        0.236       70.700       17.294        0.060      335.589        6.323      873.097
12/01/2021  10:14:00       87.267       78.399      -11.364       30.542       23.233       18.063      932.785      539.762      326.279        0.784        0.090      117.312       15.695        0.018      335.640        6.408      873.095
12/01/2021  10:15:00       43.079      -60.881       -1.252       47.371       88.942       42.379     2244.042     7910.683     1796.007        0.876        0.598       74.580       49.773        0.445      335.705        6.517      873.083
12/01/2021  10:16:00       63.688     -120.627      -33.083       35.752       37.091       18.283     1278.202     1375.764      334.270        1.134        0.149      136.408       12.857        0.009      335.424        6.047      873.075
12/01/2021  10:17:00       21.002      -55.889      -21.264       28.222       27.382       22.790      796.496      749.777      519.405        0.304        0.103       59.705       10.828        0.033      335.622        6.377      873.065
12/01/2021  10:18:00       40.229      -42.778      -25.780       32.205       53.692       35.562     1037.143     2882.865     1264.621        0.465        0.259       58.723       15.454        0.069      335.851        6.760      873.050
12/01/2021  10:19:00       61.387      -67.888      -25.843       34.026       63.221       26.348     1157.747     3996.878      694.220        0.745        0.292       91.527       28.649        0.098      335.816        6.702      873.053
12/01/2021  10:20:00       14.308        2.619      -18.063       31.889       36.605       25.895     1016.931     1339.925      670.527        0.178        0.151       14.546       11.838        0.662      336.196        7.335      873.040
12/01/2021  10:21:00       50.801       22.087      -25.948       39.749       47.210       30.295     1579.988     2228.794      917.808        0.423        0.236       55.394       22.386        0.163      335.958        6.939      873.018
12/01/2021  10:22:00       39.776      -14.358      -31.907       33.153       53.928       27.643     1099.149     2908.190      764.140        0.379        0.239       42.288       21.292        0.254      336.187        7.321      872.999
12/01/2021  10:23:00      -32.022      -14.339       -8.723       50.908       46.276       21.882     2591.585     2141.438      478.814        0.326        0.261       35.086       25.623        0.533      336.049        7.090      872.988
12/01/2021  10:24:00       26.397      -51.661       -9.159       50.979       56.643       40.623     2598.831     3208.475     1650.239        0.545        0.373       58.014       31.456        0.294      336.143        7.247      872.981
12/01/2021  10:25:00       78.722      -85.912      -28.818       54.005       40.896       31.764     2916.492     1672.446     1008.982        1.000        0.280      116.525       21.356        0.034      335.827        6.718      872.961
12/01/2021  10:26:00       11.186        2.153        1.855       42.582       31.240       24.425     1813.197      975.944      596.579        0.176        0.169       11.391       14.706        1.667      335.966        6.952      872.955
12/01/2021  10:27:00       29.624      -81.308      -22.046       41.052       51.657       26.442     1685.235     2668.485      699.202        0.651        0.253       86.536       23.998        0.077      335.944        6.914      872.944
12/01/2021  10:28:00       53.156     -108.233      -27.750       35.895       56.846       31.866     1288.482     3231.521     1015.441        1.042        0.277      120.581       27.665        0.053      335.960        6.942      872.936
12/01/2021  10:29:00       35.023       -0.123      -15.854       45.655       36.087       31.344     2084.399     1302.293      982.472        0.292        0.218       35.023       26.108        0.556      336.359        7.608      872.920
12/01/2021  10:30:00       67.616        6.705       -9.882       39.547       51.769       26.013     1563.965     2679.990      676.655        0.482        0.246       67.948       19.044        0.079      336.132        7.228      872.895
12/01/2021  10:31:00       75.573       39.207      -17.665       35.099       46.442       28.803     1231.912     2156.814      829.596        0.589        0.211       85.138       19.615        0.053      336.215        7.367      872.873
12/01/2021  10:32:00       70.438       77.676       -9.608       42.563       30.311       29.632     1811.621      918.731      878.034        0.735        0.180      104.857       15.836        0.023      336.316        7.535      872.841
12/01/2021  10:33:00       52.055       69.071       -1.862       50.550       50.514       39.341     2555.329     2551.668     1547.686        0.707        0.333       86.490       13.552        0.025      336.606        8.021      872.818
12/01/2021  10:34:00       44.819       -3.835      -24.851       51.702       71.908       36.770     2673.116     5170.788     1352.034        0.592        0.460       44.983       33.868        0.567      336.433        7.732      872.796
12/01/2021  10:35:00       52.255       -0.891      -35.903       38.138       60.682       38.975     1454.484     3682.336     1519.075        0.534        0.333       52.263       26.775        0.262      336.228        7.388      872.771
12/01/2021  10:36:00       44.914      -70.044      -28.755       36.176       50.686       29.292     1308.734     2569.064      858.026        0.624        0.237       83.207       20.389        0.060      336.214        7.365      872.760
12/01/2021  10:37:00       54.225       -5.679      -12.280       52.556       57.571       44.042     2762.129     3314.436     1939.664        0.557        0.401       54.522       34.399        0.398      336.439        7.741      872.723
12/01/2021  10:38:00       62.570      -66.439      -42.174       37.793       49.910       31.039     1428.282     2491.052      963.438        0.749        0.244       91.264        7.892        0.007      336.330        7.560      872.708
12/01/2021  10:39:00       -0.452       -2.523      -18.184       36.374       29.692       20.220     1323.088      881.619      408.852        0.147        0.131        2.563       15.710       37.575      336.434        7.732      872.681
12/01/2021  10:40:00      -38.249      -12.018      -15.632       45.178       24.940       27.091     2041.092      621.996      733.938        0.262        0.170       40.093       17.985        0.201      336.502        7.848      872.653
12/01/2021  10:41:00       21.436       25.236        1.001       39.193       45.553       27.416     1536.104     2075.063      751.640        0.273        0.218       33.111       18.586        0.315      336.679        8.143      872.634
12/01/2021  10:42:00       88.498      -20.360      -16.424       56.791       44.917       33.775     3225.236     2017.522     1140.751        0.745        0.319       90.810       28.176        0.096      336.341        7.577      872.601
12/01/2021  10:43:00      109.591       45.975       -9.178       55.183       45.514       30.329     3045.197     2071.481      919.879        1.012        0.302      118.844       26.183        0.049      336.381        7.644      872.577
12/01/2021  10:44:00       58.745        2.487       -9.260       48.347       70.860       33.810     2337.477     5021.090     1143.119        0.602        0.425       58.797       22.083        0.141      336.554        7.932      872.553
12/01/2021  10:45:00      115.757       -4.942      -31.967       78.075       60.329       41.199     6095.685     3639.638     1697.360        1.294        0.572      115.862       24.869        0.046      336.492        7.829      872.516
12/01/2021  10:46:00       45.891       32.585      -31.696       62.213       48.820       34.843     3870.497     2383.426     1214.024        0.582        0.373       56.283       22.448        0.159      336.709        8.194      872.518
12/01/2021  10:47:00       46.587      -31.258      -26.806       73.108       57.373       42.778     5344.802     3291.695     1829.994        0.716        0.523       56.101       31.986        0.325      336.611        8.029      872.511
12/01/2021  10:48:00       73.781       19.487      -37.053       61.559       58.760       40.927     3789.515     3452.717     1675.004        0.806        0.446       76.311       27.129        0.126      336.586        7.988      872.498
12/01/2021  10:49:00       88.853       53.910      -19.189       79.375       49.885       36.181     6300.322     2488.473     1309.074        1.063        0.505      103.928       32.609        0.098      336.657        8.105      872.487
12/01/2021  10:50:00      118.838       51.147      -32.679       54.720       46.073       30.226     2994.238     2122.749      913.636        1.192        0.302      129.377       19.636        0.023      336.603        8.016      872.467
12/01/2021  10:51:00      113.269       44.583      -37.456       54.656       59.112       35.906     2987.320     3494.230     1289.208        1.199        0.389      121.728       20.318        0.028      336.740        8.246      872.435
12/01/2021  10:52:00      103.362       37.878      -30.891       64.854       54.833       32.938     4205.983     3006.679     1084.931        1.068        0.415      110.084       26.360        0.057      336.772        8.297      872.408
12/01/2021  10:53:00       99.819       56.299      -28.787       64.470       41.300       24.946     4156.414     1705.655      622.289        1.022        0.324      114.602        9.562        0.007      336.538        7.906      872.384
12/01/2021  10:54:00        1.092      -37.367      -10.398       37.699       66.977       39.877     1421.180     4485.981     1590.198        0.450        0.375       37.383       26.037        0.485      336.849        8.427      872.357
12/01/2021  10:55:00      149.555       53.953      -34.368       66.543       54.784       41.313     4427.981     3001.321     1706.731        1.780        0.457      158.989       18.031        0.013      336.686        8.152      872.354
12/01/2021  10:56:00      177.228       90.991      -25.368       47.050       34.970       35.029     2213.689     1222.908     1227.064        2.250        0.233      199.221       18.195        0.008      336.496        7.836      872.346
12/01/2021  10:57:00      138.653       81.294      -28.903       55.864       34.079       25.250     3120.759     1161.398      637.559        1.579        0.246      160.728       17.340        0.012      336.602        8.014      872.340
12/01/2021  10:58:00      129.170       51.624      -35.001       42.973       65.212       27.980     1846.685     4252.634      782.900        1.373        0.344      139.104       23.175        0.028      336.682        8.149      872.316
12/01/2021  10:59:00       76.504      -42.765       -9.015       70.838       60.850       52.906     5017.961     3702.772     2799.051        0.964        0.576       87.645       39.207        0.200      336.801        8.345      872.290
12/01/2021  11:00:00      100.813      -39.305      -37.857       57.918       96.726       50.065     3354.522     9355.920     2506.529        1.418        0.761      108.204       33.052        0.093      336.857        8.439      872.253
12/01/2021  11:01:00       87.473       38.765      -26.274       65.604       63.188       39.505     4303.938     3992.706     1560.645        0.985        0.493       95.678       18.653        0.038      336.916        8.538      872.226
12/01/2021  11:02:00       52.169        9.194      -19.317       54.867       67.065       42.060     3010.374     4497.749     1769.008        0.623        0.464       52.973       23.610        0.199      337.070        8.797      872.210
12/01/2021  11:03:00       59.217      -46.786       -9.827       73.781       97.673       46.034     5443.682     9540.041     2119.154        1.144        0.855       75.469       47.432        0.395      336.940        8.578      872.187
12/01/2021  11:04:00      126.589       61.183      -22.461       71.650       46.208       36.193     5133.793     2135.155     1309.967        1.442        0.429      140.599       16.570        0.014      336.890        8.494      872.181
12/01/2021  11:05:00      158.743       64.655      -31.547       60.536       53.885       33.777     3664.549     2903.559     1140.905        1.904        0.385      171.404       27.121        0.025      336.815        8.369      872.160
12/01/2021  11:06:00      100.927        8.866      -23.144       71.503       72.947       40.006     5112.679     5321.259     1600.508        1.142        0.602      101.315       32.426        0.102      337.166        8.957      872.126
12/01/2021  11:07:00       90.346        7.506      -28.929       61.913       91.277       46.561     3833.227     8331.580     2167.924        1.169        0.717       90.657       33.020        0.133      337.075        8.804      872.105
12/01/2021  11:08:00      152.966     -108.656      -39.122       78.582       65.864       49.153     6175.070     4338.095     2415.987        2.483        0.646      187.630       35.375        0.036      336.608        8.023      872.085
12/01/2021  11:09:00      118.994      -50.152      -23.562       91.519       72.060       54.104     8375.813     5192.645     2927.249        1.686        0.825      129.131       37.728        0.085      336.730        8.227      872.050
12/01/2021  11:10:00      106.413      -10.203      -40.402       64.860       78.442       40.849     4206.764     6153.195     1668.654        1.254        0.601      106.901       20.869        0.038      336.811        8.363      872.021
12/01/2021  11:11:00       66.112      -63.673      -35.819       71.291      125.532       48.652     5082.350    15758.354     2367.037        1.645        1.160       91.788       55.432        0.365      336.825        8.386      872.014
12/01/2021  11:12:00       30.551      -36.910      -11.931       47.802       77.410       47.503     2285.077     5992.343     2256.496        0.648        0.527       47.914       28.676        0.358      337.026        8.723      871.994
12/01/2021  11:13:00      107.014       -8.165      -19.867       52.915      111.302       31.134     2800.015    12388.087      969.325        1.403        0.808      107.325       30.009        0.078      336.724        8.218      871.987
12/01/2021  11:14:00       42.463      -45.228      -33.330       50.974       70.390       36.472     2598.394     4954.820     1330.194        0.692        0.444       62.038       20.730        0.112      337.105        8.855      871.970
12/01/2021  11:15:00       27.976       -9.610      -32.249       60.087       54.536       29.934     3610.440     2974.122      896.064        0.470        0.374       29.581       10.708        0.131      337.183        8.987      871.954
12/01/2021  11:16:00       85.946       -4.864      -27.185       67.883       60.653       36.694     4608.088     3678.726     1346.473        0.889        0.482       86.083       19.985        0.054      337.113        8.867      871.939
12/01/2021  11:17:00       84.909       22.474      -29.017       68.121       54.088       29.153     4640.517     2925.461      849.887        0.848        0.421       87.833       26.407        0.090      336.929        8.561      871.926
12/01/2021  11:18:00      103.144     -123.650      -39.436       52.417       78.637       36.608     2747.515     6183.793     1340.149        1.888        0.514      161.022       19.948        0.015      336.906        8.520      871.909
12/01/2021  11:19:00       31.739        9.031      -13.115       46.095       69.751       42.265     2124.748     4865.171     1786.346        0.502        0.439       32.999       30.852        0.874      337.153        8.934      871.890
12/01/2021  11:20:00       43.034      -57.958      -40.887       46.102       68.739       38.654     2125.380     4725.078     1494.149        0.761        0.417       72.188       25.708        0.127      337.088        8.825      871.873
12/01/2021  11:21:00       50.549      -52.675       -9.157       49.221       72.512       39.828     2422.669     5257.952     1586.290        0.734        0.463       73.006       29.683        0.165      337.088        8.827      871.859
12/01/2021  11:22:00       73.402      -60.828      -22.612       67.553       93.693       49.040     4563.362     8778.339     2404.924        1.267        0.787       95.331       49.959        0.275      337.004        8.685      871.840
12/01/2021  11:23:00       50.767      -28.385      -20.219       48.212       79.835       34.461     2324.423     6373.630     1187.560        0.684        0.494       58.163       30.546        0.276      337.173        8.969      871.808
12/01/2021  11:24:00       51.752      -72.634      -32.165       53.289       93.359       41.364     2839.733     8715.963     1710.995        1.113        0.663       89.186       41.603        0.218      337.198        9.010      871.793
12/01/2021  11:25:00        5.444       -9.752      -17.296       53.413       54.099       31.828     2852.973     2926.674     1013.048        0.361        0.340       11.169       17.726        2.519      337.351        9.266      871.780
12/01/2021  11:26:00      113.276       39.746      -18.800       78.688       73.043       36.866     6191.780     5335.347     1359.130        1.382        0.644      120.047       15.822        0.017      337.278        9.144      871.765
12/01/2021  11:27:00       69.800       13.969      -22.653       67.445       78.053       46.539     4548.791     6092.264     2165.924        0.919        0.640       71.184       23.643        0.110      337.290        9.163      871.747
12/01/2021  11:28:00       59.270      -27.074      -30.140       43.536       70.148       42.855     1895.356     4920.801     1836.576        0.690        0.433       65.161       24.854        0.145      337.163        8.952      871.732
12/01/2021  11:29:00       34.090      -18.068      -31.532       34.477       47.345       24.602     1188.637     2241.576      605.267        0.326        0.202       38.582       15.543        0.162      337.155        8.939      871.726
12/01/2021  11:30:00       22.357      -52.112      -23.558       50.847       61.014       34.357     2585.414     3722.746     1180.419        0.563        0.374       56.705       20.198        0.127      337.299        9.179      871.698
12/01/2021  11:31:00       87.183     -161.637      -30.226       38.257       57.662       36.354     1463.561     3324.889     1321.634        2.037        0.306      183.650       34.602        0.035      336.953        8.600      871.675
12/01/2021  11:32:00      105.249       51.997      -25.829       47.395       42.475       33.007     2246.269     1804.092     1089.476        0.979        0.257      117.393       23.088        0.039      337.221        9.050      871.656
12/01/2021  11:33:00       26.975       26.733      -18.034       38.798       52.103       32.826     1505.322     2714.712     1077.542        0.353        0.265       37.978       18.093        0.227      337.563        9.622      871.632
12/01/2021  11:34:00       21.802        2.394      -27.303       57.588       53.972       32.792     3316.414     2912.962     1075.293        0.426        0.365       21.933       25.072        1.307      337.589        9.665      871.602
12/01/2021  11:35:00       42.991      -71.674      -18.001       61.212       71.706       46.909     3746.942     5141.718     2200.500        0.920        0.554       83.579       42.943        0.264      337.312        9.202      871.587
12/01/2021  11:36:00       38.816      -88.441      -35.653       48.630       78.658       33.262     2364.880     6187.044     1106.360        1.013        0.483       96.585       17.114        0.031      336.998        8.676      871.570
12/01/2021  11:37:00       31.664      -86.227      -31.401       50.017       68.024       40.696     2501.720     4627.231     1656.187        0.910        0.439       91.857       34.927        0.145      337.037        8.742      871.558
12/01/2021  11:38:00      -21.430      -46.489       -5.009       42.372       52.626       34.209     1795.411     2769.483     1170.287        0.419        0.287       51.190       28.447        0.309      337.265        9.124      871.542
12/01/2021  11:39:00       39.750       73.363       -2.890       28.961       31.804       26.658      838.748     1011.517      710.674        0.477        0.128       83.439       20.774        0.062      337.200        9.013      871.544
12/01/2021  11:40:00      103.052       50.099       -5.036       43.383       31.821       23.741     1882.052     1012.596      563.633        0.831        0.173      114.585       14.695        0.016      337.309        9.197      871.523
12/01/2021  11:41:00       95.951        1.382      -19.382       71.553       50.985       27.133     5119.805     2599.458      736.180        0.902        0.423       95.961       16.351        0.029      337.580        9.650      871.485
12/01/2021  11:42:00      113.923       39.251      -22.460       45.190       58.073       36.321     2042.174     3372.465     1319.182        1.088        0.337      120.495       14.786        0.015      337.437        9.411      871.461
12/01/2021  11:43:00       50.478       29.644      -29.984       58.980       61.819       38.754     3478.593     3821.553     1501.841        0.656        0.440       58.539       21.933        0.140      337.614        9.706      871.436
12/01/2021  11:44:00       58.882       34.826      -30.764       32.826       47.910       33.261     1077.535     2295.337     1106.305        0.505        0.224       68.410       27.302        0.159      337.723        9.889      871.433
12/01/2021  11:45:00       87.372       64.969      -24.037       33.300       33.076       23.054     1108.869     1093.998      531.480        0.758        0.137      108.880       17.088        0.025      337.350        9.264      871.426
12/01/2021  11:46:00      119.443       15.330      -22.434       54.168       51.666       31.005     2934.180     2669.397      961.308        1.078        0.328      120.423       19.851        0.027      337.526        9.559      871.406
12/01/2021  11:47:00      143.679       20.643      -20.588       65.637       58.945       30.327     4308.175     3474.468      919.730        1.510        0.435      145.154       24.765        0.029      337.416        9.376      871.382
12/01/2021  11:48:00      136.336       76.474      -28.390       64.585       40.977       31.973     4171.184     1679.092     1022.288        1.606        0.344      156.319       14.107        0.008      337.526        9.559      871.370
12/01/2021  11:49:00       30.215        5.361      -29.917       40.569       53.836       40.634     1645.828     2898.332     1651.082        0.401        0.310       30.687       24.708        0.648      337.693        9.839      871.349
12/01/2021  11:50:00       55.756       65.181      -27.059       42.817       36.673       30.055     1833.279     1344.929      903.298        0.608        0.204       85.775       21.460        0.063      337.536        9.576      871.341
12/01/2021  11:51:00        2.799       23.495       -8.111       16.678       20.217       14.398      278.159      408.743      207.290        0.076        0.045       23.661        9.419        0.158      337.800       10.018      871.328
12/01/2021  11:52:00      -15.157       -0.486      -16.628       30.424       45.079       18.282      925.649     2032.105      334.217        0.190        0.165       15.165        7.707        0.258      337.954       10.277      871.315
12/01/2021  11:53:00      -23.136        8.283      -10.961       36.944       38.149       21.999     1364.824     1455.367      483.943        0.201        0.165       24.574       16.466        0.449      338.026       10.398      871.309
12/01/2021  11:54:00       31.298       69.389      -21.332       36.706       20.847       13.753     1347.367      434.578      189.135        0.411        0.099       76.121        6.420        0.007      337.331        9.236      871.291
12/01/2021  11:55:00       19.673       56.176        5.916       29.156       25.565       21.156      850.100      653.565      447.583        0.276        0.098       59.521       14.777        0.062      337.650        9.767      871.273
12/01/2021  11:56:00       15.364       77.116      -17.152       25.236       18.072       21.998      636.872      326.601      483.901        0.396        0.072       78.632       17.218        0.048      337.387        9.327      871.264
12/01/2021  11:57:00        1.312      -32.717       -9.611       36.463       41.267       22.133     1329.547     1702.943      489.872        0.234        0.176       32.743       19.163        0.343      337.964       10.294      871.245
12/01/2021  11:58:00       39.456     -105.462      -24.857       44.657       33.683       28.835     1994.236     1134.558      831.480        0.863        0.198      112.601       26.070        0.054      337.674        9.806      871.233
12/01/2021  11:59:00       37.302     -107.038      -22.188       52.641       55.265       38.336     2771.054     3054.205     1469.637        1.032        0.365      113.351       30.946        0.075      337.602        9.688      871.212
12/01/2021  12:00:00      -22.174      -47.486      -12.537       29.251       64.649       40.893      855.647     4179.469     1672.208        0.480        0.335       52.408       35.218        0.452      337.646        9.761      871.179
12/01/2021  12:01:00       85.329       46.013      -12.924       43.862       56.380       28.718     1923.835     3178.731      824.710        0.775        0.296       96.944       29.838        0.095      337.588        9.663      871.153
12/01/2021  12:02:00       49.725       50.648      -14.068       45.350       31.839       24.870     2056.647     1013.741      618.497        0.446        0.184       70.977       25.735        0.131      337.649        9.766      871.135
12/01/2021  12:03:00       76.102       74.308      -15.961       34.532       27.821       19.663     1192.428      774.020      386.637        0.696        0.118      106.364       17.981        0.029      337.555        9.607      871.119
12/01/2021  12:04:00       49.538       89.383       -5.793       30.898       25.227       26.356      954.705      636.386      694.664        0.638        0.114      102.192       18.764        0.034      337.685        9.827      871.102
12/01/2021  12:05:00       24.551       44.672        8.699       29.597       42.328       27.047      875.999     1791.635      731.567        0.304        0.170       50.974       10.854        0.045      337.944       10.260      871.086
12/01/2021  12:06:00      -16.482        4.866      -17.346       31.024       25.298       19.167      962.484      639.971      367.393        0.128        0.098       17.186       18.249        1.128      337.947       10.265      871.074
12/01/2021  12:07:00       56.666       32.783       -8.933       26.116       30.428       18.720      682.031      925.883      350.456        0.316        0.098       65.466        6.653        0.010      337.979       10.319      871.058
12/01/2021  12:08:00       51.555       24.065      -19.963       18.073       14.557       11.998      326.617      211.914      143.950        0.216        0.034       56.895        5.646        0.010      337.586        9.660      871.034
12/01/2021  12:09:00       40.844        9.563       -5.974       26.892       27.500       19.413      723.168      756.242      376.857        0.183        0.093       41.949       13.983        0.111      337.818       10.049      871.019
12/01/2021  12:10:00      -21.167       46.499      -13.963       49.541       53.447       26.321     2454.315     2856.626      692.806        0.440        0.300       51.090       15.156        0.088      338.184       10.664      871.001
12/01/2021  12:11:00      -29.857       73.292       -5.239       35.078       29.459       36.032     1230.477      867.840     1298.325        0.484        0.170       79.140       21.376        0.073      338.456       11.120      870.986
12/01/2021  12:12:00       16.238       35.013       -9.294       37.069       35.814       19.442     1374.108     1282.673      378.001        0.230        0.152       38.595       15.367        0.159      338.244       10.765      870.966
12/01/2021  12:13:00      -48.871        7.138       -5.076       47.205       33.352       25.727     2228.338     1112.378      661.892        0.323        0.200       49.389       30.291        0.376      338.236       10.750      870.951
12/01/2021  12:14:00      -50.565       14.309       -6.726       24.995       22.765       18.813      624.761      518.257      353.941        0.215        0.075       52.550        9.750        0.034      337.951       10.272      870.935
12/01/2021  12:15:00       -8.257        6.063       -0.044       19.827       17.331       11.742      393.120      300.360      137.874        0.047        0.042       10.244        4.357        0.181      338.228       10.738      870.918
12/01/2021  12:16:00       42.867        6.956       -8.287       43.337       32.375       17.575     1878.113     1048.152      308.893        0.259        0.162       43.428       17.389        0.160      338.092       10.509      870.896
12/01/2021  12:17:00       -9.819       16.132       -8.164       18.600       18.122       18.609      345.954      328.401      346.299        0.072        0.051       18.885       12.958        0.471      338.242       10.760      870.879
12/01/2021  12:18:00      -14.008        1.547       -8.695       34.915       20.604       20.362     1219.054      424.509      414.600        0.117        0.103       14.094        9.235        0.429      338.416       11.052      870.860
12/01/2021  12:19:00      -28.437        4.190       -7.062       36.942       16.539       20.829     1364.687      273.527      433.832        0.147        0.104       28.744       18.789        0.427      338.574       11.319      870.843
12/01/2021  12:20:00      -13.187       10.945       -4.889       35.747       31.899       22.164     1277.834     1017.562      491.239        0.155        0.139       17.138       16.214        0.895      338.331       10.910      870.813
12/01/2021  12:21:00      -12.811       -7.289      -10.192       28.496       37.362       26.605      812.013     1395.907      707.826        0.162        0.146       14.740       20.956        2.021      338.369       10.974      870.796
12/01/2021  12:22:00       17.300       40.258        8.289       34.727       47.985       26.655     1205.965     2302.598      710.514        0.310        0.211       43.818       10.688        0.059      338.585       11.337      870.776
12/01/2021  12:23:00      102.183       33.732      -28.299       41.614       31.616       23.145     1731.735      999.548      535.699        0.782        0.163      107.607       11.729        0.012      338.247       10.770      870.763
12/01/2021  12:24:00      136.809       60.274      -17.326       32.860       31.654       24.283     1079.777     1001.952      589.676        1.266        0.134      149.498       16.022        0.011      338.035       10.414      870.749
12/01/2021  12:25:00       92.601       63.121      -16.669       23.098       20.588       20.977      533.498      423.856      440.050        0.712        0.070      112.068       11.346        0.010      338.106       10.533      870.738
12/01/2021  12:26:00       23.442       32.398      -19.950       44.375       34.953       19.365     1969.121     1221.698      375.009        0.278        0.178       39.990       18.957        0.225      338.447       11.104      870.717
12/01/2021  12:27:00       70.755       49.452       -8.380       44.999       34.756       18.938     2024.944     1208.014      358.663        0.556        0.180       86.324       18.856        0.048      338.326       10.900      870.698
12/01/2021  12:28:00       77.831       62.963       -6.906       33.344       23.490       24.062     1111.802      551.764      578.964        0.616        0.112      100.110       11.156        0.012      338.213       10.712      870.678
12/01/2021  12:29:00       30.296       45.610      -18.563       32.099       40.259       24.205     1030.337     1620.752      585.885        0.329        0.162       54.755       16.126        0.087      338.331       10.910      870.653
12/01/2021  12:30:00       75.165       78.763       -3.813       51.478       37.711       27.544     2649.967     1422.148      758.656        0.835        0.242      108.874       16.368        0.023      338.386       11.001      870.634
12/01/2021  12:31:00      119.054       58.335      -23.468       38.913       35.284       21.531     1514.259     1244.940      463.583        1.067        0.161      132.577       14.417        0.012      338.333       10.913      870.625
12/01/2021  12:32:00      114.091       44.601      -20.321       43.272       45.067       28.622     1872.474     2031.042      819.209        1.007        0.236      122.499       23.709        0.037      338.254       10.780      870.620
12/01/2021  12:33:00      107.763       65.875      -19.430       26.740       22.249       23.025      715.035      495.011      530.162        0.903        0.087      126.302        9.959        0.006      338.209       10.707      870.618
12/01/2021  12:34:00       71.988       37.236      -16.719       18.378       13.902       12.086      337.753      193.252      146.076        0.376        0.034       81.048        7.916        0.010      338.078       10.487      870.606
12/01/2021  12:35:00      107.925       55.239      -18.282       39.791       29.972       18.020     1583.354      898.320      324.713        0.892        0.140      121.240       14.711        0.015      338.228       10.736      870.595
12/01/2021  12:36:00      105.035       63.406      -24.023       33.481       33.140       25.101     1120.963     1098.248      630.056        0.924        0.142      122.690       14.688        0.014      338.167       10.634      870.583
12/01/2021  12:37:00       70.021       74.710      -29.097       22.488       20.766       15.408      505.720      431.218      237.401        0.625        0.059      102.394       13.387        0.017      338.116       10.549      870.570
12/01/2021  12:38:00       63.230       86.241      -16.058       45.272       31.508       22.980     2049.597      992.735      528.063        0.763        0.179      106.937       20.140        0.035      338.342       10.927      870.542
12/01/2021  12:39:00       46.324       73.215       -1.850       31.344       42.830       18.353      982.422     1834.420      336.818        0.533        0.158       86.639       19.188        0.049      338.520       11.228      870.515
12/01/2021  12:40:00       27.259       66.914       -9.849       32.610       45.760       24.660     1063.439     2094.022      608.098        0.454        0.188       72.253       17.575        0.059      338.635       11.420      870.489
12/01/2021  12:41:00       12.912       70.724      -16.557       27.200       28.327       23.591      739.822      802.428      556.518        0.377        0.105       71.893       15.930        0.049      338.716       11.557      870.468
12/01/2021  12:42:00       44.561       18.561      -26.522       30.685       23.713       21.352      941.557      562.292      455.927        0.250        0.098       48.272       11.044        0.052      338.679       11.494      870.452
12/01/2021  12:43:00       62.935       36.296      -32.307       46.948       51.960       26.833     2204.131     2699.863      720.000        0.597        0.281       72.652       21.479        0.087      338.704       11.537      870.434
12/01/2021  12:44:00       60.942       21.241      -36.807       45.432       61.963       35.074     2064.099     3839.387     1230.200        0.633        0.357       64.537       26.594        0.170      338.704       11.535      870.415
12/01/2021  12:45:00      115.583       23.829      -19.614       88.987       46.441       38.264     7918.666     2156.755     1464.123        1.292        0.577      118.013       42.628        0.130      338.695       11.520      870.397
12/01/2021  12:46:00      152.871       27.830      -19.966       52.741       54.509       35.929     2781.618     2971.278     1290.917        1.579        0.352      155.383       22.676        0.021      338.707       11.540      870.378
12/01/2021  12:47:00       66.878       27.911      -15.052       65.536       42.554       45.999     4294.937     1810.804     2115.952        0.685        0.411       72.469       34.948        0.233      338.887       11.845      870.359
12/01/2021  12:48:00       49.470       51.614       -3.610       54.197       47.851       27.316     2937.261     2289.745      746.137        0.555        0.299       71.493       32.606        0.208      338.854       11.789      870.352
12/01/2021  12:49:00       24.547       51.002      -14.629       22.962       22.340       18.971      527.275      499.054      359.890        0.240        0.069       56.602       15.074        0.071      338.690       11.513      870.329
12/01/2021  12:50:00        6.678       32.733       -6.520       12.999       28.888       14.767      168.970      834.517      218.050        0.119        0.061       33.407       13.603        0.166      338.915       11.892      870.308
12/01/2021  12:51:00       47.544       35.524       -6.674       34.038       22.170       17.434     1158.611      491.530      303.938        0.276        0.098       59.349       10.657        0.032      338.750       11.614      870.278
12/01/2021  12:52:00       17.844       10.921        5.734       36.069       22.187       19.902     1300.948      492.280      396.074        0.133        0.109       20.921       14.961        0.511      339.064       12.141      870.258
12/01/2021  12:53:00       83.660       11.203      -19.465       77.113       61.037       40.881     5946.474     3725.455     1671.261        0.942        0.567       84.407       21.286        0.064      338.840       11.765      870.219
12/01/2021  12:54:00      142.469       15.755      -17.683       66.196       57.266       37.566     4381.966     3279.395     1411.167        1.496        0.454      143.338       19.189        0.018      338.697       11.524      870.222
12/01/2021  12:55:00      101.136       27.260      -27.795       77.069       42.216       30.537     5939.568     1782.175      932.528        1.020        0.433      104.746       19.988        0.036      338.945       11.942      870.218
12/01/2021  12:56:00       51.823       28.302      -25.247       68.418       51.418       32.040     4681.007     2643.801     1026.577        0.624        0.418       59.047       17.938        0.092      339.051       12.118      870.198
12/01/2021  12:57:00      194.295       48.360      -16.436       43.504       30.832       26.902     1892.617      950.608      723.736        2.196        0.178      200.223       16.867        0.007      338.657       11.454      870.210
12/01/2021  12:58:00      148.414      -15.199      -19.396       69.414       35.343       32.542     4818.248     1249.140     1058.954        1.488        0.356      149.190       30.886        0.043      338.725       11.571      870.197
12/01/2021  12:59:00       79.670       55.375      -14.116       41.471       50.570       28.262     1719.885     2557.353      798.763        0.734        0.254       97.025       21.795        0.050      338.933       11.922      870.182
12/01/2021  13:00:00      117.896       48.803      -23.423       49.424       43.960       23.341     2442.734     1932.487      544.826        1.087        0.246      127.598       15.072        0.014      338.764       11.636      870.188
12/01/2021  13:01:00       28.295       19.356      -10.273       24.530       31.306       18.542      601.723      980.056      343.818        0.160        0.096       34.282        7.406        0.047      338.892       11.852      870.178
12/01/2021  13:02:00       35.729      -58.362      -17.680       44.740       47.937       29.235     2001.650     2297.945      854.691        0.507        0.258       68.430       20.317        0.088      339.097       12.196      870.168
12/01/2021  13:03:00       85.782     -132.328      -45.943       45.155       47.787       36.915     2038.993     2283.634     1362.740        1.633        0.284      157.700       28.067        0.032      338.578       11.324      870.154
12/01/2021  13:04:00       53.893      -83.023      -33.925       41.097       69.754       44.215     1688.963     4865.656     1954.947        0.973        0.425       98.981       29.580        0.089      338.856       11.792      870.130
12/01/2021  13:05:00       -7.959        3.648       10.792       30.370       42.584       36.894      922.317     1813.436     1361.167        0.214        0.205        8.755       24.508        7.837      338.972       11.986      870.120
12/01/2021  13:06:00       34.760       -5.156      -31.860       39.083       59.166       29.233     1527.513     3500.569      854.580        0.407        0.294       35.140       22.550        0.412      338.834       11.754      870.100
12/01/2021  13:07:00       47.258      -68.266      -22.768       53.337       56.559       38.092     2844.793     3198.891     1450.985        0.745        0.375       83.028       39.736        0.229      338.787       11.674      870.078
12/01/2021  13:08:00       77.856     -129.688      -43.148       52.696       48.311       29.551     2776.904     2333.907      873.246        1.536        0.299      151.263       27.580        0.033      338.588       11.340      870.067
12/01/2021  13:09:00       39.843      -51.137      -29.961       35.388       59.129       29.159     1252.285     3496.223      850.263        0.535        0.280       64.826       19.965        0.095      338.748       11.610      870.039
12/01/2021  13:10:00       42.595       28.691      -22.908       39.831       69.022       40.966     1586.473     4764.086     1678.188        0.559        0.401       51.357       33.610        0.428      338.936       11.926      870.021
12/01/2021  13:11:00       57.228       57.886      -20.320       44.269       59.079       32.506     1959.770     3490.343     1056.644        0.677        0.325       81.400       19.276        0.056      338.958       11.962      870.012
12/01/2021  13:12:00       40.128       41.952      -18.731       23.756       26.197       19.407      564.360      686.264      376.622        0.267        0.081       58.053        8.415        0.021      338.822       11.734      870.011
12/01/2021  13:13:00       43.020       31.793      -20.011       17.152       30.609       21.379      294.177      936.919      457.066        0.247        0.084       53.493       20.042        0.140      339.014       12.057      870.007
12/01/2021  13:14:00       46.827       36.686      -23.177       29.222       20.702       17.183      853.922      428.577      295.252        0.283        0.079       59.486        8.318        0.020      339.095       12.193      869.995
12/01/2021  13:15:00       42.770       49.965       -1.268       32.012       42.490       22.805     1024.774     1805.429      520.068        0.384        0.168       65.771       16.878        0.066      339.188       12.348      869.982
12/01/2021  13:16:00       17.942       90.958      -19.984       21.772       47.986       10.422      474.034     2302.696      108.609        0.594        0.144       92.710        8.735        0.009      339.040       12.100      869.964
12/01/2021  13:17:00       31.225        7.866      -20.623       34.174       23.249       23.457     1167.841      540.535      550.217        0.186        0.113       32.200       15.584        0.234      339.247       12.448      869.933
12/01/2021  13:18:00       40.757      -19.906      -15.666       50.306       90.483       30.351     2530.660     8187.101      921.197        0.697        0.582       45.358       24.287        0.287      339.112       12.223      869.912
12/01/2021  13:19:00       72.762       14.820      -21.354       53.073       64.422       34.375     2816.743     4150.155     1181.650        0.706        0.407       74.256       22.889        0.095      339.197       12.365      869.875
12/01/2021  13:20:00       73.088       25.481      -33.686       48.966       35.593       33.758     2397.688     1266.835     1139.614        0.596        0.240       77.403       17.100        0.049      339.211       12.389      869.869
12/01/2021  13:21:00       21.114       10.268      -10.739       17.075       23.576       14.058      291.559      555.847      197.614        0.086        0.052       23.478        6.821        0.084      339.242       12.442      869.859
12/01/2021  13:22:00       51.355       19.348      -23.513       45.733       58.631       35.630     2091.514     3437.538     1269.482        0.518        0.340       54.878       25.819        0.221      339.483       12.846      869.848
12/01/2021  13:23:00      106.428       84.944      -14.812       43.758       35.207       24.312     1914.725     1239.529      591.078        1.125        0.187      136.171       13.688        0.010      339.251       12.455      869.839
12/01/2021  13:24:00       79.666       33.575      -17.426       45.648       41.787       30.469     2083.762     1746.134      928.354        0.627        0.238       86.452       21.466        0.062      339.568       12.990      869.821
12/01/2021  13:25:00      -10.940        1.817        4.033       31.799       22.334       24.468     1011.172      498.819      598.663        0.112        0.105       11.090       11.597        1.093      339.969       13.668      869.800
12/01/2021  13:26:00       -4.435        0.156        3.773       39.559       44.907       31.976     1564.951     2016.615     1022.465        0.232        0.230        4.438       24.971       31.660      339.627       13.089      869.790
12/01/2021  13:27:00       81.397       39.781      -15.117       43.234       41.244       23.648     1869.182     1701.051      559.238        0.628        0.206       90.598       15.639        0.030      339.440       12.775      869.784
12/01/2021  13:28:00       98.053       51.414      -13.478       41.767       35.105       25.445     1744.507     1232.333      647.430        0.803        0.181      110.715        7.318        0.004      339.383       12.679      869.770
12/01/2021  13:29:00       95.869       44.197      -21.471       25.385       22.344       17.450      644.411      499.242      304.490        0.653        0.072      105.566        9.105        0.007      339.237       12.432      869.752
12/01/2021  13:30:00       84.215       37.491      -12.074       22.619       22.331       18.159      511.609      498.673      329.737        0.499        0.067       92.183       12.261        0.018      339.366       12.649      869.729
12/01/2021  13:31:00       56.861       39.553      -25.571       19.734       20.615       17.776      389.441      424.980      315.980        0.329        0.057       69.265        9.847        0.020      339.292       12.525      869.705
12/01/2021  13:32:00       64.839       46.928      -16.544       34.737       16.629       17.836     1206.644      276.511      318.123        0.424        0.090       80.040        8.941        0.012      339.361       12.640      869.686
12/01/2021  13:33:00      101.519       11.933      -22.210       57.294       39.371       26.959     3282.583     1550.110      726.791        0.825        0.278      102.218       23.677        0.054      339.241       12.440      869.656
12/01/2021  13:34:00       80.578        4.624      -23.334       44.259       28.542       22.177     1958.884      814.622      491.815        0.516        0.163       80.710       19.526        0.059      339.205       12.378      869.654
12/01/2021  13:35:00       89.292       48.675       -9.908       39.850       37.340       29.219     1588.033     1394.261      853.745        0.714        0.192      101.697       19.270        0.036      339.352       12.626      869.645
12/01/2021  13:36:00       86.423       28.378      -22.104       35.820       66.172       32.335     1283.078     4378.753     1045.527        0.773        0.335       90.963       12.193        0.018      339.618       13.075      869.629
12/01/2021  13:37:00       60.269      -41.244      -32.159       34.513       68.168       33.155     1191.170     4646.810     1099.239        0.665        0.347       73.030       23.768        0.106      339.293       12.527      869.617
12/01/2021  13:38:00       94.934       10.053      -24.683       43.370       45.137       28.687     1880.961     2037.348      822.942        0.723        0.237       95.465       17.131        0.032      339.491       12.861      869.616
12/01/2021  13:39:00      107.262       46.270      -19.414       48.773       30.178       24.964     2378.808      910.707      623.179        0.897        0.196      116.816       21.938        0.035      339.487       12.854      869.599
12/01/2021  13:40:00      123.058       67.246      -11.852       41.182       32.311       24.636     1695.983     1043.982      606.942        1.158        0.167      140.233       17.519        0.016      339.604       13.050      869.590
12/01/2021  13:41:00       57.404       21.320      -11.499       37.665       20.636       25.752     1418.660      425.850      663.153        0.319        0.125       61.235       24.305        0.158      339.519       12.910      869.584
12/01/2021  13:42:00       42.456      -65.986      -22.767       61.755       65.016       38.698     3813.636     4227.121     1497.570        0.810        0.477       78.464       30.736        0.153      339.487       12.853      869.556
12/01/2021  13:43:00       23.789      -33.231      -23.666       39.920       40.489       31.912     1593.580     1639.374     1018.367        0.324        0.213       40.868       20.503        0.252      339.406       12.716      869.539
12/01/2021  13:44:00       16.352      -27.188      -25.797       37.275       50.522       26.048     1389.423     2552.504      678.498        0.315        0.231       31.726       22.520        0.504      339.494       12.865      869.523
12/01/2021  13:45:00       71.102      -57.992      -32.948       58.412       56.838       37.633     3411.943     3230.510     1416.263        0.878        0.403       91.753       28.921        0.099      339.352       12.627      869.509
12/01/2021  13:46:00       53.244      -50.980      -22.699       39.855       70.274       32.124     1588.405     4938.382     1031.982        0.675        0.378       73.715       22.269        0.091      339.330       12.589      869.516
12/01/2021  13:47:00      102.328      -24.354      -21.693       75.558       57.176       55.843     5708.961     3269.042     3118.409        1.181        0.605      105.186       42.391        0.162      339.699       13.211      869.477
12/01/2021  13:48:00       99.497      -14.322      -33.193       70.664       52.786       42.569     4993.459     2786.377     1812.108        1.040        0.480      100.522       28.367        0.080      339.680       13.179      869.471
12/01/2021  13:49:00      104.002       -8.743      -10.842       76.784       55.805       38.213     5895.732     3114.241     1460.218        1.074        0.524      104.369       36.084        0.120      339.731       13.265      869.454
12/01/2021  13:50:00       68.411      -13.762      -33.562       65.291       77.831       57.473     4262.934     6057.688     3303.127        0.981        0.681       69.781       47.167        0.457      339.761       13.315      869.439
12/01/2021  13:51:00       56.057      -16.569      -14.485       47.460       34.555       29.910     2252.456     1194.043      894.605        0.398        0.217       58.454       30.251        0.268      339.733       13.269      869.444
12/01/2021  13:52:00       69.430      -41.500      -15.159       23.944       17.831       17.723      573.294      317.930      314.090        0.399        0.060       80.887       10.848        0.018      339.616       13.072      869.443
12/01/2021  13:53:00       78.913      -27.850      -20.475       23.559       28.000       15.720      555.021      783.997      247.103        0.450        0.079       83.683       11.594        0.019      339.551       12.960      869.446
12/01/2021  13:54:00       14.708       11.349       -7.584       24.997       29.670       18.229      624.847      880.327      332.292        0.112        0.092       18.578       15.958        0.738      339.708       13.227      869.458
12/01/2021  13:55:00       36.311     -110.272      -19.887       43.854       64.820       21.646     1923.191     4201.671      468.537        1.023        0.330      116.097       27.023        0.054      339.856       13.475      869.448
12/01/2021  13:56:00       68.316      -40.216      -26.976       46.899       44.683       27.100     2199.533     1996.541      734.385        0.597        0.247       79.274       20.286        0.065      339.821       13.418      869.459
12/01/2021  13:57:00       56.921        7.557      -21.701       30.056       34.941       19.291      903.366     1220.893      372.152        0.313        0.125       57.421       11.612        0.041      339.783       13.354      869.459
12/01/2021  13:58:00       32.968        2.826      -15.175       41.326       28.767       20.531     1707.840      827.529      421.521        0.214        0.148       33.089       14.470        0.191      339.945       13.625      869.437
12/01/2021  13:59:00       29.264        8.080       -5.285       49.975       39.746       30.731     2497.523     1579.737      944.405        0.298        0.251       30.359       24.461        0.649      340.039       13.784      869.419
12/01/2021  14:00:00       36.431      -21.676      -14.771       57.463       40.308       29.964     3302.045     1624.720      897.840        0.392        0.291       42.392       27.489        0.421      340.017       13.746      869.415
12/01/2021  14:01:00       41.978       -2.561      -14.249       45.385       16.905       19.434     2059.818      285.773      377.677        0.235        0.136       42.056       14.552        0.120      339.710       13.229      869.416
12/01/2021  14:02:00       77.442       -3.630      -12.238       46.761       25.440       18.816     2186.582      647.212      354.036        0.467        0.159       77.527       12.136        0.025      339.789       13.364      869.394
12/01/2021  14:03:00       72.183       38.033      -19.191       36.931       38.956       19.237     1363.901     1517.578      370.067        0.514        0.163       81.590       18.235        0.050      339.937       13.612      869.391
12/01/2021  14:04:00       10.184       15.209       -9.935       28.653       28.219       16.941      821.020      796.299      286.988        0.117        0.095       18.304       10.013        0.299      340.033       13.775      869.390
12/01/2021  14:05:00       36.368       40.231       -5.317       41.729       36.893       28.147     1741.343     1361.120      792.270        0.343        0.195       54.233       23.837        0.193      340.048       13.799      869.386
12/01/2021  14:06:00       46.986       -0.572      -16.496       50.323       66.243       40.432     2532.377     4388.083     1634.739        0.552        0.428       46.990       32.318        0.473      340.085       13.861      869.364
12/01/2021  14:07:00      114.058      -18.793      -22.816       35.492       54.703       28.841     1259.714     2992.457      831.791        0.948        0.254      115.596       22.288        0.037      339.810       13.398      869.369
12/01/2021  14:08:00       11.024      -19.048      -10.260       55.458       32.262       23.099     3075.591     1040.846      533.554        0.262        0.232       22.008       15.322        0.485      340.188       14.037      869.367
12/01/2021  14:09:00       37.110      -73.129      -25.443       46.423       49.219       25.654     2155.126     2422.528      658.103        0.630        0.262       82.006       23.704        0.084      340.092       13.873      869.368
12/01/2021  14:10:00       32.667      -27.826      -17.760       37.682       49.848       29.605     1419.915     2484.816      876.471        0.347        0.239       42.912       18.394        0.184      340.134       13.945      869.354
12/01/2021  14:11:00       45.416        1.040      -18.741       61.567       55.355       36.666     3790.539     3064.210     1344.403        0.531        0.410       45.428       27.820        0.375      339.970       13.667      869.346
12/01/2021  14:12:00       34.667       -7.172      -13.039       50.091       40.259       32.258     2509.153     1620.770     1040.585        0.330        0.259       35.401       25.991        0.539      339.978       13.682      869.338
12/01/2021  14:13:00       89.721      -39.919      -30.550       38.052       34.998       28.435     1447.958     1224.882      808.560        0.703        0.174       98.200       11.331        0.013      339.824       13.422      869.331
12/01/2021  14:14:00       69.534      -26.754      -41.726       42.520       40.829       35.420     1807.932     1667.029     1254.567        0.601        0.236       74.503       25.328        0.116      340.028       13.765      869.325
12/01/2021  14:15:00       74.904       13.726      -20.985       39.244       48.287       24.853     1540.108     2331.594      617.680        0.536        0.224       76.151       15.680        0.042      339.915       13.576      869.331
12/01/2021  14:16:00       49.088      -21.221      -21.729       31.578       27.852       22.060      997.174      775.729      486.639        0.280        0.113       53.479       12.724        0.057      339.870       13.498      869.332
12/01/2021  14:17:00       44.636       67.958      -15.738       26.841       53.347       27.626      720.440     2845.942      763.220        0.559        0.216       81.306       21.174        0.068      339.889       13.532      869.337
12/01/2021  14:18:00       64.209       31.924      -20.119       26.706       19.670       20.249      713.234      386.899      410.003        0.353        0.076       71.707        7.556        0.011      339.814       13.402      869.333
12/01/2021  14:19:00       46.636        8.884       -9.394       26.773       20.830       16.873      716.784      433.899      284.691        0.189        0.072       47.475       11.667        0.060      339.886       13.526      869.323
12/01/2021  14:20:00       14.545       28.958        1.366       24.985       21.761       13.148      624.262      473.547      172.867        0.116        0.064       32.406        7.947        0.060      340.064       13.826      869.329
12/01/2021  14:21:00        1.075       24.079       -3.771       19.714       21.631       23.397      388.632      467.917      547.414        0.100        0.070       24.103       16.447        0.466      340.315       14.250      869.324
12/01/2021  14:22:00       17.939       31.242       -7.903       15.058       21.160       20.532      226.750      447.740      421.581        0.123        0.055       36.026       14.255        0.157      340.191       14.040      869.319
12/01/2021  14:23:00       41.493       17.488       -8.214       43.576       22.130       19.720     1898.895      489.740      388.865        0.244        0.139       45.028       18.588        0.170      340.088       13.866      869.310
12/01/2021  14:24:00       43.947       28.826      -13.396       35.531       35.876       22.993     1262.450     1287.107      528.675        0.301        0.154       52.557       21.501        0.167      339.942       13.621      869.307
12/01/2021  14:25:00       58.780       31.248       -7.569       16.596       14.557       13.584      275.439      211.907      184.512        0.258        0.034       66.569        6.954        0.011      339.891       13.533      869.289
12/01/2021  14:26:00       34.870       15.084      -12.207       20.494       25.385       11.601      419.996      644.408      134.591        0.140        0.060       37.993        6.787        0.032      340.041       13.786      869.279
12/01/2021  14:27:00       49.609       31.697       -2.257       28.663       37.608       18.792      821.539     1414.384      353.122        0.303        0.129       58.871       14.649        0.062      340.007       13.730      869.278
12/01/2021  14:28:00       49.695       24.037      -13.567       17.996       19.321       12.215      323.861      373.305      149.216        0.204        0.042       55.203        4.562        0.007      339.893       13.536      869.279
12/01/2021  14:29:00       17.996       27.874      -16.788       21.167       15.915       12.109      448.060      253.294      146.636        0.112        0.042       33.179       10.155        0.094      339.949       13.634      869.274
12/01/2021  14:30:00       -2.700      -12.557      -13.939        5.772       16.364       16.007       33.314      267.786      256.218        0.046        0.028       12.844       14.007        1.189      340.243       14.130      869.273
12/01/2021  14:31:00      -15.781      -16.973      -24.374       11.033       13.491       14.313      121.734      182.000      204.855        0.082        0.025       23.176        6.174        0.071      340.094       13.876      869.264
12/01/2021  14:32:00       -5.164       -0.857      -19.118       19.626       24.809       14.655      385.187      615.508      214.760        0.080        0.061        5.235       11.233        4.605      340.199       14.054      869.259
12/01/2021  14:33:00      -31.805      -38.228      -12.920       30.267       24.100       23.336      916.115      580.814      544.565        0.234        0.102       49.728       15.920        0.102      340.383       14.367      869.250
12/01/2021  14:34:00        0.828       -6.357      -15.018       14.437       14.202       11.531      208.423      201.684      132.960        0.040        0.027        6.411        3.562        0.309      340.512       14.583      869.249
12/01/2021  14:35:00        4.532       -2.038       -8.835        9.480       26.714       13.739       89.871      713.649      188.755        0.055        0.050        4.969        4.999        1.012      340.439       14.460      869.237
12/01/2021  14:36:00        1.337       22.122       -1.343        9.777       10.826       11.175       95.581      117.211      124.873        0.042        0.017       22.162        8.162        0.136      340.162       13.992      869.226
12/01/2021  14:37:00        5.968       32.929      -16.381        8.853       15.447       13.629       78.371      238.609      185.750        0.095        0.025       33.465        9.951        0.088      340.125       13.931      869.220
12/01/2021  14:38:00        8.164       24.020      -10.262        7.048        9.054        7.066       49.676       81.970       49.932        0.047        0.009       25.369        3.048        0.014      340.123       13.925      869.210
12/01/2021  14:39:00        2.820       50.009       -9.212       17.115       20.050       17.431      292.934      402.005      303.824        0.180        0.050       50.088        9.838        0.039      340.192       14.042      869.194
12/01/2021  14:40:00       15.289       12.826       -1.763       10.572       18.152       11.039      111.772      329.489      121.866        0.048        0.028       19.957        5.206        0.068      340.300       14.225      869.185
12/01/2021  14:41:00        1.805       -0.184       -8.054       15.118       10.821       11.694      228.546      117.095      136.751        0.028        0.024        1.815        9.537       27.621      340.489       14.545      869.168
12/01/2021  14:42:00       -0.780       15.252      -16.546       18.386       20.057       14.354      338.041      402.291      206.031        0.073        0.047       15.272        7.189        0.222      340.488       14.543      869.163
12/01/2021  14:43:00        3.129       -1.430       -7.095       17.185       10.349       13.606      295.341      107.095      185.131        0.032        0.029        3.441        7.363        4.580      340.569       14.680      869.151
12/01/2021  14:44:00      -34.102      -17.399      -10.010       43.907       29.074       25.597     1927.826      845.277      655.194        0.250        0.171       38.284       25.044        0.428      340.450       14.479      869.149
12/01/2021  14:45:00       -3.699        3.099        3.536       28.212       23.807       16.965      795.895      566.783      287.822        0.084        0.083        4.825       10.510        4.744      340.614       14.755      869.137
12/01/2021  14:46:00       41.209        7.830       -1.285       24.812       25.019       22.054      615.649      625.941      486.382        0.174        0.086       41.947       10.305        0.060      340.297       14.220      869.135
12/01/2021  14:47:00        0.880       45.781       -4.524       22.173       29.451       20.200      491.648      867.387      408.041        0.194        0.088       45.790       12.843        0.079      340.517       14.593      869.140
12/01/2021  14:48:00       38.558       11.005      -13.935       19.558       23.450       18.312      382.531      549.904      335.312        0.153        0.063       40.098        9.302        0.054      340.211       14.075      869.146
12/01/2021  14:49:00       -0.944       12.720       -0.876       16.165       16.573       14.797      261.291      274.652      218.956        0.046        0.038       12.755        5.831        0.209      340.612       14.753      869.142
12/01/2021  14:50:00        2.489       -5.830      -10.795       16.623       37.099       19.255      276.313     1376.366      370.762        0.109        0.101        6.339       11.117        3.076      340.429       14.443      869.147
12/01/2021  14:51:00       18.508      -15.567      -15.827       23.706       24.327       15.605      561.971      591.791      243.521        0.112        0.070       24.184       13.576        0.315      340.504       14.570      869.138
12/01/2021  14:52:00       15.934       -3.432       -7.430       18.284       20.160       21.903      334.289      406.411      479.726        0.077        0.061       16.299       15.764        0.935      340.529       14.612      869.133
12/01/2021  14:53:00      -10.620       12.399      -10.944       13.801       26.360       14.522      190.467      694.836      210.901        0.074        0.055       16.325       14.908        0.834      340.586       14.710      869.139
12/01/2021  14:54:00      -19.345       51.834      -10.056       27.206       29.516       16.029      740.163      871.205      256.932        0.251        0.093       55.327       11.947        0.047      340.524       14.604      869.137
12/01/2021  14:55:00      -26.311        8.873      -13.404       22.170       36.581       17.639      491.505     1338.183      311.125        0.155        0.107       27.767       10.712        0.149      340.586       14.709      869.123
12/01/2021  14:56:00       -4.660       54.490      -13.896       26.935       26.130       20.754      725.492      682.752      430.733        0.251        0.092       54.689        7.510        0.019      340.356       14.319      869.120
12/01/2021  14:57:00       12.766      -20.162       -1.262       15.914       20.157       13.890      253.240      406.290      192.942        0.071        0.043       23.864        9.970        0.175      340.500       14.565      869.107
12/01/2021  14:58:00       -4.613      -17.045       -0.843       18.020       27.394       18.574      324.721      750.436      345.008        0.087        0.071       17.658       16.878        0.914      340.658       14.830      869.087
12/01/2021  14:59:00       14.807       -3.465       -2.176       12.189       11.177       14.960      148.578      124.934      223.812        0.037        0.025       15.207        9.981        0.431      340.453       14.483      869.077
12/01/2021  15:00:00       16.712      -15.538        6.756       16.110       17.340       18.556      259.544      300.663      344.322        0.074        0.045       22.819        6.152        0.073      340.586       14.710      869.066
12/01/2021  15:01:00        3.716       -4.700        1.170       29.608       20.147       16.301      876.656      405.913      265.734        0.079        0.077        5.991        6.957        1.348      340.602       14.734      869.058
12/01/2021  15:02:00       11.410      -17.737       -2.325       11.847       18.536       13.327      140.354      343.597      177.606        0.056        0.033       21.090        8.275        0.154      340.718       14.933      869.057
12/01/2021  15:03:00       20.996      -21.711       -1.134       21.513       18.155       17.433      462.790      329.598      303.900        0.100        0.055       30.203       13.184        0.191      340.577       14.694      869.045
12/01/2021  15:04:00       11.128      -19.450       -5.111       36.032       29.547       12.324     1298.334      873.016      151.878        0.143        0.116       22.408       11.364        0.257      340.440       14.461      869.037
12/01/2021  15:05:00       41.693       31.153       -7.739       20.119       15.882       12.798      404.786      252.251      163.801        0.179        0.041       52.047        5.429        0.011      340.297       14.221      869.034
12/01/2021  15:06:00       24.663       54.997      -12.164       20.118       19.107       18.272      404.741      365.066      333.871        0.244        0.055       60.274       14.402        0.057      340.193       14.045      869.027
12/01/2021  15:07:00       36.235       60.692      -17.913       15.375       20.659       13.250      236.382      426.776      175.555        0.308        0.042       70.686        7.089        0.010      340.183       14.028      869.016
12/01/2021  15:08:00       43.748       58.024      -16.804       31.587       32.294       26.737      997.750     1042.908      714.841        0.416        0.138       72.668       19.968        0.076      340.301       14.226      869.014
12/01/2021  15:09:00       67.108       40.907       -3.756       35.970       21.575       21.232     1293.826      465.463      450.798        0.420        0.111       78.593        5.900        0.006      340.242       14.128      869.014
12/01/2021  15:10:00       72.299       50.088      -11.430       48.994       40.357       29.018     2400.419     1628.714      842.031        0.637        0.244       87.954       16.183        0.034      340.232       14.111      869.016
12/01/2021  15:11:00       62.476       36.103        1.117       46.144       30.984       24.105     2129.263      959.997      581.033        0.444        0.184       72.158       17.103        0.056      340.242       14.128      869.025
12/01/2021  15:12:00       28.219       -6.521       -7.328       25.793       37.804       18.760      665.280     1429.154      351.940        0.167        0.122       28.962       13.985        0.233      340.528       14.611      869.013
12/01/2021  15:13:00       37.906        2.244       -8.834       26.326       30.113       19.677      693.081      906.793      387.165        0.175        0.099       37.973       15.562        0.168      340.346       14.302      869.006
12/01/2021  15:14:00       49.278       -3.247       -5.781       34.065       38.019       19.272     1160.415     1445.482      371.402        0.272        0.149       49.385       18.702        0.143      340.309       14.240      869.006
12/01/2021  15:15:00       75.206      -25.486      -15.543       33.309       29.944       17.850     1109.475      896.655      318.628        0.444        0.116       79.407        6.813        0.007      340.301       14.227      868.994
12/01/2021  15:16:00       64.518      -25.975      -19.089       24.856       25.622       16.330      617.802      656.493      266.676        0.337        0.077       69.550       11.969        0.030      340.270       14.175      868.990
12/01/2021  15:17:00       39.958      -16.666       -4.388       18.360       17.468       13.308      337.088      305.148      177.104        0.136        0.041       43.294       12.690        0.086      340.402       14.396      868.998
12/01/2021  15:18:00       28.543      -14.451       -7.106       25.445       25.591       19.570      647.449      654.875      382.996        0.138        0.084       31.993       11.868        0.138      340.457       14.491      868.998
12/01/2021  15:19:00       34.296      -19.601      -13.099       47.094       35.381       31.437     2217.882     1251.788      988.276        0.309        0.223       39.502       27.947        0.501      340.453       14.484      868.989
12/01/2021  15:20:00       25.835       19.446       -8.132       40.803       28.868       17.425     1664.921      833.380      303.626        0.196        0.140       32.336       19.403        0.360      340.359       14.327      869.001
12/01/2021  15:21:00       65.193       48.109       -9.348       23.222       11.749       12.444      539.263      138.049      154.858        0.374        0.042       81.023        6.547        0.007      340.217       14.085      868.997
12/01/2021  15:22:00       71.688       24.285      -16.384       15.473        8.408        9.807      239.413       70.695       96.175        0.320        0.020       75.689        8.872        0.014      340.246       14.133      868.986
12/01/2021  15:23:00       58.822       34.580       -4.044       25.438       16.035       11.986      647.104      257.118      143.657        0.286        0.052       68.234       10.225        0.022      340.277       14.185      868.985
12/01/2021  15:24:00       39.586       41.811       -9.469       23.294       22.444       13.825      542.598      503.739      191.121        0.232        0.062       57.578       12.159        0.045      340.259       14.156      868.966
12/01/2021  15:25:00       72.279       40.231       -7.418       37.539       23.685       19.349     1409.202      560.964      374.376        0.462        0.117       82.721        3.571        0.002      340.239       14.123      868.945
12/01/2021  15:26:00       65.674       24.138       -1.696       29.416       18.670       17.250      865.328      348.560      297.579        0.320        0.076       69.969       15.988        0.052      340.211       14.073      868.928
12/01/2021  15:27:00       69.568       26.930       -7.421       21.495       10.115       10.320      462.034      102.317      106.501        0.315        0.034       74.599       11.009        0.022      340.228       14.105      868.914
12/01/2021  15:28:00       50.719       15.959      -16.416       13.372       17.904        6.161      178.813      320.557       37.961        0.182        0.027       53.171        2.195        0.002      340.260       14.155      868.908
12/01/2021  15:29:00       28.515      -13.896       -8.116       14.897       11.903       12.785      221.922      141.687      163.465        0.080        0.026       31.721        7.744        0.060      340.413       14.417      868.902
12/01/2021  15:30:00       26.684       21.502       -5.427       21.524       21.573       10.865      463.283      465.405      118.059        0.113        0.052       34.269        5.487        0.026      340.402       14.398      868.907
12/01/2021  15:31:00       35.564       30.346      -10.343       13.766       12.738       10.970      189.511      162.258      120.332        0.138        0.024       46.752        5.579        0.014      340.334       14.284      868.911
12/01/2021  15:32:00       11.567      -33.212      -13.441       19.578       29.710       15.278      383.282      882.695      233.419        0.146        0.075       35.169       11.304        0.103      340.536       14.624      868.920
12/01/2021  15:33:00       30.890      -56.636      -13.088       19.527       35.849       15.194      381.304     1285.143      230.862        0.311        0.095       64.512       14.727        0.052      340.448       14.474      868.917
12/01/2021  15:34:00       31.323      -30.355      -12.454       21.636       28.704       21.303      468.110      823.915      453.810        0.190        0.087       43.618       13.042        0.089      340.469       14.512      868.925
12/01/2021  15:35:00        5.139      -13.153       -0.060       19.682       17.267       12.751      387.380      298.141      162.595        0.052        0.042       14.121       11.884        0.708      340.656       14.827      868.919
12/01/2021  15:36:00        7.609       -5.795      -10.012       16.605       22.075       17.156      275.728      487.284      294.316        0.062        0.053        9.565       14.543        2.312      340.574       14.690      868.907
12/01/2021  15:37:00       -2.444        1.167        0.903       17.007       18.452       16.044      289.231      340.490      257.401        0.045        0.044        2.709        7.732        8.148      340.667       14.846      868.898
12/01/2021  15:38:00      -10.080       18.608      -18.761       17.857       22.201       11.277      318.858      492.897      127.175        0.087        0.047       21.163        8.067        0.145      340.609       14.746      868.900
12/01/2021  15:39:00       -9.820      -11.757       -8.383       18.758       19.379       15.612      351.856      375.530      243.721        0.064        0.049       15.318       13.238        0.747      340.527       14.610      868.892
12/01/2021  15:40:00      -36.881      -19.151      -10.137       42.734       29.287       19.243     1826.180      857.754      370.294        0.244        0.153       41.557       12.203        0.086      340.431       14.446      868.891
12/01/2021  15:41:00      -51.788       -6.955        0.997       32.129       25.797       19.596     1032.289      665.472      384.010        0.241        0.104       52.253       14.301        0.075      340.370       14.343      868.889
12/01/2021  15:42:00      -67.861      -27.107        0.788       31.470       49.065       23.055      990.384     2407.364      531.527        0.463        0.196       73.075       11.399        0.024      340.453       14.484      868.874
12/01/2021  15:43:00      -34.268        2.520        6.139       53.591       33.660       23.544     2872.017     1133.019      554.314        0.289        0.228       34.361       24.565        0.511      340.574       14.689      868.869
12/01/2021  15:44:00      -51.513      -17.833       -4.678       36.351       34.601       24.203     1321.379     1197.216      585.779        0.305        0.155       54.512       23.838        0.191      340.412       14.414      868.863
12/01/2021  15:45:00      -59.773       -3.695       -3.656       34.444       32.419       19.883     1186.373     1050.981      395.334        0.312        0.132       59.888       10.004        0.028      340.419       14.427      868.860
12/01/2021  15:46:00       -6.783      -11.961      -18.888       24.818       26.838       16.841      615.934      720.274      283.605        0.108        0.081       13.751       18.392        1.789      340.355       14.319      868.854
12/01/2021  15:47:00      -23.062       20.462       -4.925       12.019       16.129       13.843      144.455      260.139      191.633        0.079        0.030       30.830        8.277        0.072      340.430       14.444      868.850
12/01/2021  15:48:00       -5.260      -23.149        0.331       14.238       22.725       15.055      202.734      516.448      226.660        0.075        0.047       23.739       12.407        0.273      340.536       14.624      868.838
12/01/2021  15:49:00       57.886      -75.609      -26.395       43.305       40.241       23.233     1875.345     1619.303      539.777        0.690        0.202       95.224       18.089        0.036      340.364       14.334      868.825
12/01/2021  15:50:00       11.962      -36.924      -16.855       27.033       32.605       20.569      730.788     1063.077      423.076        0.200        0.111       38.813       13.971        0.130      340.437       14.457      868.821
12/01/2021  15:51:00      -18.032      -32.432      -11.997       25.707       22.973       21.467      660.849      527.745      460.830        0.158        0.082       37.108        9.007        0.059      340.359       14.326      868.822
12/01/2021  15:52:00       29.540      -79.671      -13.533       36.819       49.939       27.569     1355.644     2493.867      760.074        0.601        0.230       84.971       22.715        0.071      340.415       14.418      868.813
12/01/2021  15:53:00       20.275      -30.143      -10.797       22.976       26.310       20.201      527.905      692.242      408.099        0.153        0.081       36.327       15.231        0.176      340.307       14.237      868.812
12/01/2021  15:54:00       17.320      -29.702      -16.619       38.375       30.264       20.597     1472.665      915.900      424.219        0.214        0.141       34.383       15.415        0.201      340.256       14.151      868.805
12/01/2021  15:55:00       -0.887      -13.144      -24.900       30.775       21.824       14.678      947.108      476.279      215.454        0.122        0.082       13.174        9.133        0.481      340.363       14.330      868.797
12/01/2021  15:56:00       -9.680       -6.942      -11.754       22.714       20.255       12.084      515.910      410.280      146.013        0.068        0.054       11.912        7.583        0.405      340.456       14.490      868.798
12/01/2021  15:57:00      -17.117       22.933       -1.583       23.216       16.279       12.998      538.977      264.998      168.949        0.090        0.049       28.617        5.092        0.032      340.359       14.325      868.787
12/01/2021  15:58:00      -24.636      -31.335       -4.783       24.051       29.984       15.911      578.433      899.054      253.148        0.167        0.087       39.860        9.628        0.058      340.327       14.271      868.789
12/01/2021  15:59:00       25.658      -25.639       -8.191       41.057       36.456       23.688     1685.713     1329.072      561.138        0.248        0.179       36.273        9.948        0.075      340.437       14.457      868.784
12/01/2021  16:00:00       15.955      -53.397       -9.030       38.981       48.636       20.583     1519.495     2365.502      423.662        0.375        0.215       55.730       19.930        0.128      340.431       14.447      868.774
12/01/2021  16:01:00       12.485      -38.928       -4.446       30.251       41.451       25.130      915.136     1718.187      631.520        0.248        0.163       40.881       21.689        0.281      340.394       14.385      868.769
12/01/2021  16:02:00       20.201      -47.786      -10.528       25.189       27.898       22.538      634.482      778.307      507.953        0.236        0.096       51.881       20.704        0.159      340.322       14.262      868.771
12/01/2021  16:03:00      -29.364      -23.490      -21.045       27.163       18.900       17.599      737.814      357.221      309.732        0.163        0.070       37.604        8.499        0.051      340.226       14.100      868.767
12/01/2021  16:04:00       -9.987      -10.718      -14.062       17.511       18.956       18.572      306.648      359.322      344.936        0.071        0.051       14.650        7.264        0.246      340.276       14.185      868.772
12/01/2021  16:05:00        2.648      -23.862       -9.838       22.476       20.252       21.462      505.157      410.161      460.632        0.102        0.069       24.008       13.531        0.318      340.311       14.244      868.767
12/01/2021  16:06:00       12.037      -12.027      -14.401       17.163       18.161       18.323      294.555      329.826      335.722        0.073        0.048       17.016       11.587        0.464      340.310       14.243      868.759
12/01/2021  16:07:00       20.666      -38.565      -15.367       25.712       33.618       21.220      661.106     1130.170      450.275        0.220        0.112       43.753       16.205        0.137      340.176       14.016      868.755
12/01/2021  16:08:00      -22.127        1.395       -8.793       28.496       27.518       13.990      812.009      757.249      195.711        0.117        0.088       22.171        6.080        0.075      340.162       13.992      868.738
12/01/2021  16:09:00       -8.970      -15.273      -12.819       15.229       14.518       10.610      231.934      210.783      112.572        0.052        0.028       17.713        7.425        0.176      340.165       13.996      868.735
12/01/2021  16:10:00      -10.037      -12.817       -6.275       13.910       17.807       14.362      193.496      317.086      206.264        0.051        0.036       16.279       10.735        0.435      340.130       13.939      868.727
12/01/2021  16:11:00       -4.913      -20.522        4.287       17.819       16.528       11.871      317.531      273.174      140.916        0.060        0.037       21.102        7.971        0.143      340.097       13.882      868.713
12/01/2021  16:12:00       15.736      -11.798      -12.557       28.201       20.578       17.853      795.274      423.452      318.735        0.104        0.077       19.668       10.451        0.282      340.120       13.922      868.703
12/01/2021  16:13:00       -1.457      -13.470      -11.004       17.466       12.921       13.358      305.049      166.948      178.439        0.048        0.033       13.548        2.880        0.045      340.215       14.082      868.689
12/01/2021  16:14:00       -5.205       13.974       -2.522       12.632       15.280        9.182      159.574      233.470       84.314        0.035        0.024       14.912        6.080        0.166      340.045       13.795      868.688
12/01/2021  16:15:00       -2.267        5.901       -9.823        7.577       10.227        5.539       57.406      104.598       30.677        0.016        0.010        6.322        5.880        0.865      340.092       13.874      868.686
12/01/2021  16:16:00      -18.148       12.413       -4.667       14.912       14.312       10.114      222.368      204.832      102.301        0.052        0.026       21.988        3.311        0.023      340.047       13.799      868.682
12/01/2021  16:17:00       -1.495       -5.779       -9.954       19.493       27.541       16.186      379.962      758.499      261.973        0.077        0.070        5.969       11.981        4.029      340.016       13.743      868.683
12/01/2021  16:18:00        4.860       -8.369       -0.845       17.662       24.040       12.685      311.959      577.929      160.919        0.057        0.053        9.678        8.668        0.802      339.917       13.578      868.682
12/01/2021  16:19:00      -17.001        6.075       -5.552       10.067       10.381       11.196      101.350      107.765      125.355        0.035        0.017       18.054        5.362        0.088      339.965       13.660      868.676
12/01/2021  16:20:00        4.396       -5.395      -14.412       14.594        9.228       10.898      212.979       85.161      118.776        0.034        0.021        6.959        4.587        0.434      340.020       13.752      868.681
12/01/2021  16:21:00       -1.045       -5.546       -3.899       16.508       11.651       13.599      272.514      135.752      184.922        0.032        0.030        5.644        9.979        3.127      339.974       13.674      868.674
12/01/2021  16:22:00       -3.353      -23.006      -22.644       22.504       16.278       11.570      506.434      264.984      133.867        0.098        0.045       23.249        4.834        0.043      339.912       13.570      868.667
12/01/2021  16:23:00       -5.035       -4.202       -8.040       11.264       21.578       17.880      126.886      465.631      319.704        0.051        0.046        6.558       11.564        3.109      339.905       13.558      868.662
12/01/2021  16:24:00       23.785      -23.814      -12.913       22.072       36.908       16.738      487.180     1362.217      280.174        0.171        0.106       33.658       13.769        0.167      339.916       13.577      868.662
12/01/2021  16:25:00       -0.727      -26.350       -4.971       22.169       30.021       23.585      491.453      901.264      556.239        0.133        0.097       26.360       19.352        0.539      339.875       13.507      868.660
12/01/2021  16:26:00       13.470      -33.842      -14.699       18.752       26.745       19.384      351.628      715.293      375.726        0.149        0.072       36.424       16.754        0.212      339.865       13.491      868.649
12/01/2021  16:27:00      -29.903        4.966       -3.426       11.372       11.768        8.561      129.330      138.486       73.294        0.064        0.017       30.312        3.955        0.017      339.888       13.530      868.654
12/01/2021  16:28:00      -11.900        3.777       -6.347       16.498       12.459       14.049      272.183      155.219      197.371        0.041        0.031       12.485        9.794        0.615      339.823       13.421      868.654
12/01/2021  16:29:00       -3.939        1.909       -9.226        7.243        9.208        6.901       52.461       84.784       47.619        0.014        0.009        4.377        5.858        1.791      339.781       13.349      868.643
12/01/2021  16:30:00      -12.782        4.040      -15.040       20.519       10.677        9.403      421.015      113.991       88.409        0.051        0.031       13.405        6.048        0.204      339.718       13.243      868.642
12/01/2021  16:31:00        6.404       -6.273        0.263       10.421        7.226        6.072      108.603       52.210       36.867        0.014        0.010        8.965        6.106        0.464      339.720       13.247      868.643
12/01/2021  16:32:00      -26.677      -14.372       -4.681       33.274       21.726        8.835     1107.152      472.023       78.054        0.130        0.083       30.302        6.968        0.053      339.797       13.376      868.639
12/01/2021  16:33:00      -30.769      -12.807       -8.904       42.701       20.350       18.131     1823.396      414.137      328.741        0.188        0.128       33.328       13.210        0.157      339.770       13.331      868.640
12/01/2021  16:34:00      -45.750      -34.535       -5.799       49.682       33.895       22.695     2468.275     1148.878      515.049        0.373        0.207       57.321       14.343        0.063      339.731       13.265      868.630
12/01/2021  16:35:00     -136.500      -65.572      -26.108       42.767       29.296       22.944     1829.051      858.235      526.407        1.341        0.161      151.433       12.747        0.007      339.732       13.267      868.621
12/01/2021  16:36:00      -97.225      -70.559      -12.924       42.443       42.775       24.054     1801.372     1829.669      578.605        0.940        0.210      120.130       17.926        0.022      339.630       13.095      868.610
12/01/2021  16:37:00     -109.847      -31.110       -5.800       36.682       40.200       29.984     1345.586     1616.060      899.035        0.846        0.193      114.168       20.782        0.033      339.594       13.034      868.594
12/01/2021  16:38:00     -123.271      -42.625      -17.340       47.664       36.099       26.341     2271.892     1303.161      693.841        1.079        0.213      130.432       19.321        0.022      339.564       12.985      868.589
12/01/2021  16:39:00     -155.836      -35.232      -19.095       38.494       31.753       25.906     1481.761     1008.245      671.131        1.453        0.158      159.768       21.005        0.017      339.540       12.943      868.584
12/01/2021  16:40:00     -127.000       -9.124      -13.257       38.209       33.322       20.410     1459.911     1110.381      416.574        0.969        0.149      127.328       17.949        0.020      339.533       12.931      868.574
12/01/2021  16:41:00     -115.056      -10.539      -12.677       31.796       35.601       24.360     1010.999     1267.408      593.391        0.819        0.144      115.537       15.867        0.019      339.566       12.987      868.566
12/01/2021  16:42:00     -126.115      -11.306      -13.326       37.705       21.153       20.446     1421.696      447.431      418.028        0.925        0.114      126.620       21.811        0.030      339.508       12.888      868.564
12/01/2021  16:43:00     -122.212      -10.695       -9.640       34.307       41.203       21.335     1176.970     1697.647      455.167        0.924        0.166      122.679       22.398        0.033      339.482       12.847      868.555
12/01/2021  16:44:00     -118.612      -34.460      -15.751       21.656       25.504       17.315      468.982      650.472      299.803        0.846        0.071      123.517        9.789        0.006      339.457       12.803      868.552
12/01/2021  16:45:00      -81.223      -36.076      -14.091       40.549       40.104       21.665     1644.239     1608.370      469.377        0.591        0.186       88.875       23.044        0.067      339.428       12.754      868.555
12/01/2021  16:46:00     -118.853      -30.870      -27.368       20.646       23.888       14.091      426.242      570.633      198.556        0.851        0.060      122.796        8.265        0.005      339.354       12.632      868.559
12/01/2021  16:47:00     -140.270      -41.348      -18.037       27.115       29.770       20.584      735.225      886.234      423.706        1.188        0.102      146.237       12.370        0.007      339.336       12.598      868.559
12/01/2021  16:48:00     -132.884      -37.672      -22.403       22.617       23.305       18.167      511.540      543.132      330.026        1.048        0.069      138.120        4.807        0.001      339.292       12.525      868.557
12/01/2021  16:49:00     -140.952      -36.535      -16.862       33.649       20.338       18.177     1132.273      413.642      330.418        1.168        0.094      145.610        8.047        0.003      339.298       12.535      868.557
12/01/2021  16:50:00     -112.682      -30.667      -17.161       32.848       22.404       23.388     1078.986      501.960      546.991        0.803        0.106      116.781       14.521        0.015      339.299       12.538      868.559
12/01/2021  16:51:00     -130.526      -78.713      -18.069       19.310       35.856       16.498      372.875     1285.635      272.185        1.274        0.097      152.423        9.875        0.004      339.264       12.479      868.563
12/01/2021  16:52:00     -119.124      -40.269      -17.266       35.207       32.394       28.165     1239.511     1049.348      793.277        0.960        0.154      125.746       23.125        0.034      339.187       12.348      868.565
12/01/2021  16:53:00      -99.120      -39.489      -18.499       35.507       31.865       21.218     1260.741     1015.408      450.208        0.723        0.136      106.696       18.893        0.031      339.152       12.289      868.573
12/01/2021  16:54:00     -114.932      -26.606      -17.017       32.616       29.074       20.002     1063.794      845.318      400.095        0.826        0.115      117.971       11.355        0.009      339.176       12.330      868.574
12/01/2021  16:55:00     -109.624      -54.263      -10.196       23.076       35.903       20.062      532.488     1289.023      402.493        0.864        0.111      122.319       13.764        0.013      339.127       12.247      868.574
12/01/2021  16:56:00      -99.332      -54.725       -6.589       28.552       31.261       22.503      815.201      977.280      506.365        0.760        0.115      113.409       17.149        0.023      339.121       12.237      868.581
12/01/2021  16:57:00     -125.053      -29.264      -19.295       32.895       20.702       22.708     1082.096      428.564      515.640        0.945        0.101      128.431       17.993        0.020      339.088       12.182      868.580
12/01/2021  16:58:00     -135.646      -31.957      -12.219       36.316       22.724       22.390     1318.837      516.396      501.298        1.095        0.117      139.360       22.045        0.025      339.080       12.168      868.582
12/01/2021  16:59:00     -122.307      -21.923      -11.823       33.797       29.571       19.209     1142.217      874.433      368.992        0.898        0.119      124.256       10.311        0.007      339.079       12.167      868.577
12/01/2021  17:00:00     -102.154      -12.465       -5.992       45.707       32.540       22.650     2089.157     1058.872      513.029        0.714        0.183      102.912       19.959        0.038      338.979       11.998      868.574
12/01/2021  17:01:00      -90.059      -36.799       -8.629       43.796       29.908       23.935     1918.114      894.501      572.871        0.646        0.169       97.287       24.675        0.064      338.917       11.895      868.583
12/01/2021  17:02:00     -106.635      -24.511      -10.367       48.297       41.943       17.567     2332.568     1759.189      308.600        0.824        0.220      109.416       12.128        0.012      338.893       11.851      868.585
12/01/2021  17:03:00     -116.647      -46.413      -21.136       28.413       29.891       22.103      807.274      893.498      488.551        0.920        0.109      125.541       13.426        0.011      338.894       11.854      868.599
12/01/2021  17:04:00     -128.970      -40.977      -17.161       48.506       36.859       23.455     2352.850     1358.573      550.154        1.143        0.213      135.323       20.752        0.024      338.839       11.762      868.601
12/01/2021  17:05:00     -149.969      -32.290      -18.664       38.317       43.729       22.426     1468.199     1912.267      502.930        1.388        0.194      153.405       24.081        0.025      338.771       11.647      868.604
12/01/2021  17:06:00     -136.053      -36.457      -16.112       38.056       33.494       18.888     1448.278     1121.865      356.759        1.151        0.146      140.853       14.278        0.010      338.751       11.617      868.604
12/01/2021  17:07:00     -125.943      -62.629      -14.246       44.306       56.904       32.912     1962.989     3238.049     1083.222        1.313        0.314      140.655       26.166        0.035      338.696       11.523      868.604
12/01/2021  17:08:00     -117.021      -43.671      -20.706       62.146       45.310       32.846     3862.094     2052.998     1078.855        1.151        0.350      124.904       35.084        0.079      338.671       11.479      868.613
12/01/2021  17:09:00     -147.981      -60.663      -26.476       33.168       47.759       25.783     1100.135     2280.936      664.783        1.516        0.202      159.933       13.802        0.007      338.620       11.394      868.606
12/01/2021  17:10:00     -139.369      -72.669      -19.637       44.152       51.108       25.771     1949.384     2612.000      664.146        1.516        0.261      157.176       17.716        0.013      338.577       11.322      868.604
12/01/2021  17:11:00     -143.550      -54.813      -17.655       34.522       46.211       24.507     1191.743     2135.437      600.587        1.392        0.196      153.659       16.751        0.012      338.505       11.202      868.600
12/01/2021  17:12:00     -115.137      -19.509      -15.459       56.945       45.670       31.233     3242.731     2085.780      975.489        1.009        0.315      116.778       24.226        0.043      338.509       11.209      868.604
12/01/2021  17:13:00     -120.985      -22.287       -2.599       43.665       43.364       25.133     1906.670     1880.419      631.662        0.978        0.221      123.020       19.263        0.025      338.456       11.118      868.610
12/01/2021  17:14:00     -107.706      -13.509      -11.433       48.338       43.641       23.619     2336.575     1904.569      557.865        0.836        0.240      108.550       20.772        0.037      338.428       11.072      868.620
12/01/2021  17:15:00     -128.052      -12.169      -16.565       47.745       30.378       24.912     2279.628      922.848      620.601        1.032        0.191      128.629       18.829        0.021      338.401       11.028      868.628
12/01/2021  17:16:00     -103.820       -6.943      -12.217       52.376       31.296       25.454     2743.200      979.410      647.896        0.767        0.219      104.052       18.843        0.033      338.418       11.055      868.636
12/01/2021  17:17:00      -98.034      -12.677      -14.671       43.692       41.726       28.801     1908.991     1741.046      829.515        0.723        0.224       98.850       17.875        0.033      338.392       11.011      868.629
12/01/2021  17:18:00     -113.490      -21.132      -20.932       52.307       47.378       28.216     2736.057     2244.673      796.163        0.977        0.289      115.441       21.569        0.035      338.364       10.965      868.637
12/01/2021  17:19:00      -99.580      -12.492      -11.587       46.172       33.914       28.973     2131.815     1150.176      839.445        0.716        0.206      100.361       23.794        0.056      338.333       10.915      868.637
12/01/2021  17:20:00      -81.212      -12.387       -6.338       55.427       33.561       28.630     3072.180     1126.357      819.653        0.590        0.251       82.152       27.879        0.115      338.290       10.841      868.647
12/01/2021  17:21:00     -127.780      -16.279      -15.281       41.330       45.557       28.458     1708.182     2075.473      809.842        1.071        0.230      128.813       16.613        0.017      338.238       10.754      868.650
12/01/2021  17:22:00      -54.969        2.993       -2.464       33.172       40.935       28.246     1100.365     1675.645      797.817        0.330        0.179       55.050       19.209        0.122      338.190       10.674      868.658
12/01/2021  17:23:00     -105.172        0.053      -10.350       54.776       37.406       30.696     3000.392     1399.185      942.217        0.825        0.267      105.172       19.846        0.036      338.138       10.585      868.666
12/01/2021  17:24:00     -100.429      -14.002      -10.812       49.665       33.385       31.262     2466.602     1114.532      977.322        0.748        0.228      101.400       25.217        0.062      338.077       10.484      868.671
12/01/2021  17:25:00      -84.097        4.609       -0.254       67.557       25.815       23.742     4563.908      666.394      563.696        0.644        0.290       84.223       19.854        0.056      338.039       10.419      868.673
12/01/2021  17:26:00     -119.654      -14.299       -2.873       55.383       32.381       28.904     3067.237     1048.502      835.446        0.974        0.248      120.505       25.788        0.046      337.996       10.348      868.667
12/01/2021  17:27:00      -33.750        8.601        2.396       55.133       28.041       26.124     3039.659      786.302      682.477        0.286        0.225       34.829       23.661        0.462      337.962       10.291      868.667
12/01/2021  17:28:00     -116.798      -13.912       -9.248       53.602       29.635       24.120     2873.155      878.213      581.771        0.913        0.217      117.623       20.966        0.032      338.016       10.381      868.663
12/01/2021  17:29:00      -83.420       -3.049        0.051       44.503       37.796       25.053     1980.532     1428.552      627.671        0.550        0.202       83.475       23.757        0.081      337.945       10.262      868.665
12/01/2021  17:30:00      -21.700        1.355       -8.784       30.783       25.577       20.878      947.589      654.165      435.881        0.129        0.102       21.742       13.078        0.362      337.799       10.016      868.671
12/01/2021  17:31:00      -97.003       19.477       -7.462       44.580       30.311       19.530     1987.371      918.781      381.422        0.657        0.164       98.939       14.606        0.022      337.762        9.954      868.679
12/01/2021  17:32:00      -68.272       -4.789       -0.027       47.774       35.635       29.813     2282.392     1269.862      888.802        0.456        0.222       68.439       21.627        0.100      337.749        9.933      868.679
12/01/2021  17:33:00      -72.451        1.657        1.218       57.464       35.748       31.486     3302.152     1277.933      991.370        0.541        0.279       72.470       28.353        0.153      337.704        9.858      868.683
12/01/2021  17:34:00      -97.124       23.512       -6.270       37.924       28.656       20.661     1438.229      821.165      426.893        0.636        0.134       99.930       17.358        0.030      337.772        9.971      868.687
12/01/2021  17:35:00      -73.961       -1.892        3.985       57.104       31.125       22.394     3260.827      968.786      501.483        0.511        0.237       73.985       18.923        0.065      337.709        9.865      868.693
12/01/2021  17:36:00     -102.043       -3.382       -2.533       55.342       30.044       25.918     3062.691      902.624      671.723        0.753        0.232      102.099       21.633        0.045      337.668        9.797      868.686
12/01/2021  17:37:00     -104.050       21.094      -19.005       37.743       24.300       16.262     1424.540      590.485      264.452        0.696        0.114      106.166       13.523        0.016      337.636        9.744      868.692
12/01/2021  17:38:00      -99.592        9.700       -5.349       32.701       32.052       22.371     1069.325     1027.338      500.445        0.632        0.130      100.064       16.053        0.026      337.629        9.731      868.692
12/01/2021  17:39:00     -108.631       12.733       -5.462       24.809       30.843       20.413      615.491      951.315      416.707        0.699        0.099      109.375       10.089        0.009      337.584        9.657      868.685
12/01/2021  17:40:00      -91.784       10.734       -2.226       45.901       26.664       19.495     2106.879      710.983      380.066        0.587        0.160       92.410       15.482        0.028      337.523        9.553      868.686
12/01/2021  17:41:00      -94.550       36.692       -9.005       31.908       24.929       16.650     1018.122      621.435      277.225        0.614        0.096      101.420       10.988        0.012      337.489        9.497      868.688
12/01/2021  17:42:00      -83.371        8.501       -8.868       29.313       34.875       21.826      859.233     1216.298      476.392        0.483        0.128       83.803       16.624        0.039      337.470        9.465      868.693
12/01/2021  17:43:00     -106.234       23.380      -11.012       25.900       25.408       25.142      670.793      645.546      632.097        0.695        0.097      108.777       13.877        0.016      337.537        9.579      868.698
12/01/2021  17:44:00     -105.473       26.209      -13.214       29.699       22.833       19.394      882.029      521.330      376.138        0.688        0.089      108.681       12.030        0.012      337.520        9.548      868.706
12/01/2021  17:45:00      -95.588       17.519       -6.060       38.094       30.332       22.232     1451.158      920.012      494.244        0.617        0.143       97.180       19.864        0.042      337.459        9.447      868.701
12/01/2021  17:46:00     -115.562       37.717       -9.267       26.155       12.357       20.308      684.082      152.705      412.409        0.806        0.062      121.561       16.035        0.017      337.326        9.225      868.705
12/01/2021  17:47:00     -105.213       20.530      -12.751       17.670       17.788       16.047      312.236      316.418      257.506        0.627        0.044      107.198       11.247        0.011      337.373        9.303      868.701
12/01/2021  17:48:00     -106.403       22.913       -9.172       18.801       19.740       18.261      353.471      389.655      333.478        0.650        0.054      108.842        9.556        0.008      337.363        9.288      868.709
12/01/2021  17:49:00      -92.665       17.824      -13.206       33.009       29.360       20.519     1089.622      862.012      421.029        0.573        0.119       94.364       16.163        0.029      337.372        9.303      868.721
12/01/2021  17:50:00     -121.151       34.848       -9.823       30.359       23.474       22.059      921.689      551.051      486.606        0.897        0.098      126.063       17.738        0.020      337.213        9.037      868.723
12/01/2021  17:51:00     -118.670       35.319      -12.504       19.513       20.714       14.181      380.755      429.071      201.110        0.825        0.051      123.815        8.821        0.005      337.204        9.021      868.742
12/01/2021  17:52:00     -113.474       39.240      -12.995       24.630       16.840       21.051      606.636      283.577      443.163        0.796        0.067      120.067       16.905        0.020      337.122        8.882      868.746
12/01/2021  17:53:00     -124.924       26.573      -14.394       33.267       26.871       14.304     1106.714      722.068      204.616        0.928        0.102      127.719       10.747        0.007      337.244        9.088      868.745
12/01/2021  17:54:00     -131.033       58.681      -15.800       24.396       17.607       16.948      595.186      309.997      287.250        1.103        0.060      143.573       11.193        0.006      337.147        8.926      868.748
12/01/2021  17:55:00     -127.266       54.141      -14.496       29.364       24.021       21.448      862.233      577.025      460.013        1.062        0.095      138.304       14.813        0.011      337.112        8.867      868.751
12/01/2021  17:56:00      -91.638       25.252      -11.132       40.377       24.083       16.786     1630.266      580.003      281.760        0.583        0.125       95.054       17.223        0.033      337.116        8.873      868.754
12/01/2021  17:57:00      -85.911       10.635      -20.821       29.035       19.362       16.647      843.009      374.902      277.120        0.471        0.075       86.567        8.488        0.010      337.027        8.725      868.762
12/01/2021  17:58:00      -78.076        4.883      -16.419       26.693       29.564       18.820      712.508      874.013      354.183        0.416        0.097       78.229       13.062        0.028      337.088        8.826      868.764
12/01/2021  17:59:00     -124.401       30.968      -17.495       16.514       14.905       17.721      272.723      222.166      314.046        0.877        0.040      128.198        9.007        0.005      337.007        8.692      868.765
12/01/2021  18:00:00     -119.850       34.960      -18.115       29.625       22.321       14.178      877.657      498.238      201.012        0.875        0.079      124.844       10.389        0.007      337.029        8.728      868.770
12/01/2021  18:01:00     -106.223       42.657      -10.165       39.091       27.826       23.348     1528.125      774.261      545.151        0.803        0.142      114.468       20.746        0.033      337.022        8.717      868.772
12/01/2021  18:02:00     -124.616       61.946      -14.877       37.089       25.853       26.744     1375.573      668.388      715.233        1.117        0.138      139.164       22.456        0.026      336.989        8.660      868.770
12/01/2021  18:03:00     -119.461       46.577      -21.906       19.843       22.291       14.370      393.736      496.874      206.511        0.901        0.055      128.220        7.503        0.003      336.878        8.475      868.771
12/01/2021  18:04:00     -111.139       37.951      -18.313       27.028       27.247       21.721      730.523      742.373      471.809        0.804        0.097      117.440       14.073        0.014      336.844        8.416      868.777
12/01/2021  18:05:00      -77.820       16.004      -10.347       49.729       31.273       24.510     2472.985      977.997      600.725        0.523        0.203       79.449       23.237        0.086      336.778        8.307      868.780
12/01/2021  18:06:00      -68.934      -12.267      -12.072       48.582       29.368       20.609     2360.255      862.464      424.718        0.435        0.182       70.017       14.922        0.045      336.765        8.287      868.782
12/01/2021  18:07:00      -65.702       11.699      -11.392       37.675       27.776       23.884     1419.388      771.484      570.440        0.367        0.138       66.736       23.350        0.122      336.751        8.264      868.783
12/01/2021  18:08:00      -37.595        3.180       -4.448       34.398       18.912       17.437     1183.255      357.676      304.033        0.164        0.092       37.729       19.297        0.262      336.785        8.318      868.785
12/01/2021  18:09:00        1.761       -8.441       -3.149       27.405       14.473       10.385      751.035      209.474      107.857        0.058        0.053        8.623        8.848        1.053      336.794        8.336      868.781
12/01/2021  18:10:00      -38.603       -2.432       -2.073       14.035       22.300       12.785      196.977      497.270      163.452        0.118        0.043       38.679        5.116        0.017      336.845        8.419      868.788
12/01/2021  18:11:00        2.386        6.304        3.529       12.224       13.023        7.803      149.417      169.591       60.881        0.022        0.019        6.741        2.187        0.105      336.769        8.294      868.797
12/01/2021  18:12:00      -31.885       11.335       -3.720       25.797       15.329       15.625      665.505      234.980      244.131        0.115        0.057       33.840       12.538        0.137      336.817        8.373      868.802
12/01/2021  18:13:00      -66.166       10.268      -10.397       19.564       16.853       15.000      382.737      284.012      225.001        0.274        0.045       66.958        8.833        0.017      336.826        8.387      868.808
12/01/2021  18:14:00      -57.743        6.607       -7.156       26.539       20.380       13.243      704.327      415.356      175.388        0.236        0.065       58.120        9.838        0.029      336.794        8.334      868.813
12/01/2021  18:15:00      -62.031        4.379      -13.112       32.197       22.291       18.148     1036.639      496.867      329.368        0.295        0.093       62.185        6.712        0.012      336.825        8.386      868.817
12/01/2021  18:16:00      -40.478        0.570       -2.144       34.241       21.885       19.766     1172.448      478.971      390.702        0.184        0.102       40.482       13.611        0.113      336.750        8.261      868.820
12/01/2021  18:17:00      -15.070        0.598       -6.460       30.229       20.940       12.263      913.820      438.486      150.391        0.089        0.075       15.082       10.697        0.503      336.626        8.055      868.820
12/01/2021  18:18:00      -78.329       24.715       -6.884       33.756       26.524       21.547     1139.469      703.534      464.293        0.455        0.115       82.136       22.197        0.073      336.631        8.064      868.821
12/01/2021  18:19:00     -102.132       40.500      -14.435       14.758       20.122       11.009      217.810      404.905      121.191        0.651        0.037      109.869        5.955        0.003      336.499        7.842      868.821
12/01/2021  18:20:00      -95.183       39.024      -10.637       19.349       20.199       17.933      374.367      407.990      321.591        0.590        0.055      102.872       11.708        0.013      336.495        7.836      868.828
12/01/2021  18:21:00     -103.538       50.941      -17.277       16.763       13.575       13.709      280.985      184.294      187.945        0.713        0.033      115.391        6.120        0.003      336.478        7.807      868.821
12/01/2021  18:22:00     -117.405       44.280      -19.159       22.625       22.008       15.538      511.904      484.341      241.427        0.867        0.062      125.478        8.517        0.005      336.470        7.793      868.819
12/01/2021  18:23:00     -121.714       29.745      -18.215       28.984       25.032       16.661      840.073      626.585      277.588        0.889        0.087      125.296       12.173        0.009      336.439        7.741      868.812
12/01/2021  18:24:00      -44.647        4.503       -1.705       40.849       19.000       18.425     1668.609      360.997      339.465        0.219        0.118       44.873       17.828        0.158      336.422        7.714      868.816
12/01/2021  18:25:00      -56.343       19.880       -4.512       27.790       16.387       17.743      772.267      268.533      314.813        0.247        0.068       59.747       14.937        0.063      336.351        7.594      868.814
12/01/2021  18:26:00     -102.744       39.323       -8.829       15.050       14.759       17.244      226.502      217.832      297.365        0.646        0.037      110.012       14.074        0.016      336.481        7.813      868.817
12/01/2021  18:27:00     -106.561       34.305      -10.291       22.550       22.161       19.978      508.522      491.106      399.124        0.702        0.070      111.947       17.050        0.023      336.435        7.735      868.820
12/01/2021  18:28:00     -105.864       38.675      -16.575       11.938       17.334       12.559      142.518      300.460      157.733        0.679        0.030      112.707        8.098        0.005      336.331        7.561      868.838
12/01/2021  18:29:00     -110.134       36.509      -16.879       10.534       13.860       10.068      110.975      192.089      101.367        0.708        0.020      116.028        5.720        0.002      336.357        7.606      868.844
12/01/2021  18:30:00      -84.012       26.524       -9.550       31.389       20.786       15.626      985.260      432.079      244.168        0.476        0.083       88.099       17.257        0.038      336.305        7.516      868.858
12/01/2021  18:31:00     -101.779       39.105      -13.192       15.702       14.260       15.595      246.558      203.352      243.192        0.638        0.035      109.033       12.284        0.013      336.264        7.448      868.867
12/01/2021  18:32:00     -108.774       49.790      -22.089       12.220       11.384       11.294      149.318      129.594      127.558        0.760        0.020      119.628        6.760        0.003      336.364        7.616      868.867
12/01/2021  18:33:00      -86.277       35.776      -20.850       10.875        6.536        7.391      118.262       42.724       54.627        0.469        0.011       93.401        4.723        0.003      336.288        7.488      868.867
12/01/2021  18:34:00      -65.606       16.200      -11.278       31.732       21.063       13.760     1006.888      443.655      189.347        0.317        0.082       67.576       12.331        0.033      336.252        7.428      868.878
12/01/2021  18:35:00       -6.059       -8.698       -2.029       12.893       16.238       11.753      166.235      263.688      138.132        0.034        0.028       10.600        7.584        0.512      336.295        7.499      868.899
12/01/2021  18:36:00      -39.754       -8.084      -14.493       15.834       10.397       12.634      250.704      108.099      159.628        0.119        0.026       40.568        9.322        0.053      336.385        7.649      868.898
12/01/2021  18:37:00      -38.629        2.355      -17.439       27.018       14.818       15.158      729.947      219.578      229.754        0.149        0.059       38.701       12.303        0.101      336.336        7.570      868.905
12/01/2021  18:38:00      -30.009        7.451       -8.174       24.875       21.577       16.094      618.776      465.558      259.030        0.118        0.067       30.920        3.555        0.013      336.207        7.353      868.914
12/01/2021  18:39:00      -50.626       15.606       -9.970       23.844       15.698       13.195      568.528      246.413      174.119        0.195        0.049       52.977       11.710        0.049      336.211        7.359      868.930
12/01/2021  18:40:00      -19.287        6.122      -13.843       22.798       21.132        8.711      519.749      446.568       75.890        0.082        0.052       20.235       12.744        0.397      336.299        7.507      868.947
12/01/2021  18:41:00       17.776        0.436       -7.214       11.150        5.426        5.710      124.322       29.441       32.606        0.028        0.009       17.781        3.977        0.050      336.461        7.779      868.957
12/01/2021  18:42:00       -2.456        2.602       -7.886        8.779        4.565        8.642       77.076       20.836       74.680        0.012        0.009        3.578        6.342        3.141      336.437        7.737      868.956
12/01/2021  18:43:00       -0.268       -1.885      -10.787        8.582        5.105        7.934       73.659       26.066       62.951        0.014        0.008        1.904        5.014        6.934      336.451        7.763      868.958
12/01/2021  18:44:00       -6.764       -0.129       -8.413       10.667        9.606        7.954      113.790       92.273       63.261        0.019        0.013        6.766        3.232        0.228      336.426        7.718      868.957
12/01/2021  18:45:00       -6.573        2.398       -9.055        8.386        9.385       10.403       70.329       88.080      108.213        0.020        0.013        6.996        4.969        0.504      336.339        7.574      868.952
12/01/2021  18:46:00      -21.002       -5.069      -10.134       11.140       10.877        9.946      124.089      118.308       98.924        0.046        0.017       21.605        7.141        0.109      336.434        7.734      868.944
12/01/2021  18:47:00      -20.108       -2.083       -6.834       12.760       11.354        7.489      162.822      128.909       56.081        0.040        0.017       20.216        6.149        0.093      336.293        7.497      868.936
12/01/2021  18:48:00      -13.290        1.865       -9.783        9.547        4.211        5.274       91.138       17.728       27.810        0.021        0.007       13.421        3.853        0.082      336.358        7.606      868.946
12/01/2021  18:49:00      -31.231        6.755      -14.305        8.308        6.464        7.019       69.022       41.789       49.271        0.069        0.008       31.953        5.081        0.025      336.403        7.680      868.940
12/01/2021  18:50:00      -51.277        7.718      -19.397        9.168        7.436        7.164       84.046       55.298       51.319        0.163        0.010       51.855        4.210        0.007      336.339        7.573      868.940
12/01/2021  18:51:00      -75.294       12.300      -20.825       11.756        9.669        8.777      138.194       93.491       77.028        0.328        0.015       76.292        4.309        0.003      336.274        7.466      868.941
12/01/2021  18:52:00      -75.253       14.511      -13.574        6.958       10.649        9.583       48.413      113.400       91.825        0.316        0.013       76.639        6.171        0.006      336.200        7.340      868.939
12/01/2021  18:53:00      -80.906       31.137      -15.929       12.957       11.380       12.263      167.882      129.504      150.391        0.411        0.022       86.691        4.991        0.003      336.313        7.530      868.939
12/01/2021  18:54:00      -88.528       35.194      -20.984       11.455        9.311       10.021      131.210       86.695      100.429        0.492        0.016       95.267        5.167        0.003      336.260        7.443      868.945
12/01/2021  18:55:00     -100.135       39.703      -17.258        7.456        9.493        8.323       55.594       90.111       69.279        0.606        0.011      107.719        3.875        0.001      336.147        7.252      868.945
12/01/2021  18:56:00      -76.886       21.868      -13.307       14.957       14.999       10.337      223.701      224.957      106.858        0.356        0.028       79.935        7.383        0.009      336.126        7.217      868.949
12/01/2021  18:57:00      -63.687       21.600      -17.663       11.645       11.891        8.075      135.616      141.387       65.211        0.259        0.017       67.250        3.834        0.003      336.273        7.463      868.949
12/01/2021  18:58:00      -61.097       19.930      -21.907       14.171       13.234        9.816      200.805      175.141       96.359        0.254        0.024       64.265        5.008        0.006      336.321        7.544      868.953
12/01/2021  18:59:00      -75.912        6.006      -21.031       11.929        8.228       11.176      142.291       67.693      124.895        0.329        0.017       76.149        5.774        0.006      336.268        7.455      868.950
12/01/2021  19:00:00      -60.641       40.492      -14.610       13.414       14.516       14.664      179.946      210.704      215.037        0.307        0.030       72.917        8.376        0.013      336.315        7.535      868.960
12/01/2021  19:01:00      -42.817       44.174      -12.280       15.864       11.668       17.327      251.654      136.149      300.219        0.231        0.034       61.520        7.362        0.014      336.546        7.921      868.976
12/01/2021  19:02:00      -58.725       35.277      -18.757       11.977        9.545        8.615      143.444       91.108       74.214        0.268        0.015       68.506        4.997        0.005      336.357        7.602      868.988
12/01/2021  19:03:00      -25.246       23.368       -9.233       28.566       19.967       11.802      816.042      398.686      139.294        0.131        0.068       34.400       12.247        0.127      336.758        8.275      868.995
12/01/2021  19:04:00      -26.853        1.126       -7.098       18.223       16.997       11.217      332.086      288.912      125.817        0.076        0.037       26.877        7.312        0.074      336.369        7.623      869.000
12/01/2021  19:05:00       -8.706       33.840       -0.381       11.591       12.918        7.003      134.352      166.878       49.048        0.079        0.018       34.942        5.580        0.025      336.741        8.248      869.006
12/01/2021  19:06:00      -25.726        2.835       -3.640       16.495       22.528       11.663      272.098      507.495      136.019        0.080        0.046       25.881        6.624        0.065      336.619        8.043      869.009
12/01/2021  19:07:00      -40.692       -5.888       -7.250       16.139       15.397       10.883      260.477      237.080      118.434        0.118        0.031       41.115        8.210        0.040      336.414        7.699      869.015
12/01/2021  19:08:00      -48.060        2.066      -17.601       18.750       18.638       14.275      351.549      347.374      203.770        0.176        0.045       48.104        7.424        0.024      336.083        7.147      869.020
12/01/2021  19:09:00      -52.138       13.895      -18.424       12.556       11.582       13.095      157.666      134.150      171.480        0.186        0.023       53.958        5.968        0.012      335.909        6.856      869.022
12/01/2021  19:10:00      -83.731       35.668      -19.528       20.266       22.147       12.795      410.709      490.474      163.716        0.486        0.053       91.012        9.793        0.012      335.862        6.778      869.035
12/01/2021  19:11:00      -85.591       25.334      -22.463       26.545       25.179       18.108      704.616      633.982      327.909        0.507        0.083       89.261       14.104        0.025      335.920        6.876      869.040
12/01/2021  19:12:00     -104.824       35.996      -15.103       20.107       24.589       19.729      404.301      604.595      389.251        0.695        0.070      110.832       11.972        0.012      336.040        7.076      869.050
12/01/2021  19:13:00      -93.373       25.594      -24.497       14.390       17.292       14.802      207.079      299.013      219.097        0.535        0.036       96.817        9.850        0.010      336.016        7.037      869.056
12/01/2021  19:14:00      -68.536       30.814      -20.405       20.049       15.964       14.917      401.960      254.850      222.511        0.347        0.044       75.144       10.385        0.019      335.864        6.781      869.061
12/01/2021  19:15:00      -74.378       29.389      -20.980       25.944       26.345       18.613      673.076      694.078      346.452        0.427        0.086       79.974       11.453        0.021      335.906        6.852      869.070
12/01/2021  19:16:00      -75.144       36.114      -23.617       27.847       24.513       18.981      775.463      600.865      360.297        0.462        0.087       83.372       10.214        0.015      335.931        6.893      869.065
12/01/2021  19:17:00      -71.335       33.669      -21.822       20.688       15.133       16.905      427.997      229.008      285.786        0.382        0.047       78.881        9.807        0.015      335.956        6.936      869.059
12/01/2021  19:18:00      -55.114       20.531      -21.461       16.561       19.098       15.972      274.281      364.731      255.089        0.241        0.045       58.814       10.650        0.033      335.925        6.885      869.044
12/01/2021  19:19:00      -48.183       11.982      -17.010       12.310       10.378        7.154      151.537      107.712       51.178        0.153        0.016       49.651        3.132        0.004      336.130        7.224      869.038
12/01/2021  19:20:00      -49.084       19.899      -12.725        8.207        6.876        6.021       67.347       47.276       36.249        0.156        0.008       52.965        3.889        0.005      336.123        7.214      869.034
12/01/2021  19:21:00      -54.972        5.004      -19.710       14.957       17.257       14.378      223.711      297.807      206.717        0.208        0.036       55.199        8.966        0.026      336.153        7.265      869.035
12/01/2021  19:22:00      -46.428       13.541      -19.117       21.770       19.145       16.246      473.930      366.540      263.937        0.190        0.055       48.363       13.365        0.076      335.911        6.862      869.042
12/01/2021  19:23:00      -71.420       33.753      -21.162       15.609       13.262       13.793      243.634      175.870      190.240        0.365        0.030       78.994        5.876        0.006      335.912        6.862      869.048
12/01/2021  19:24:00      -72.973       19.953      -21.246       14.061       20.974       12.357      197.713      439.927      152.688        0.348        0.040       75.652        6.518        0.007      335.893        6.831      869.049
12/01/2021  19:25:00      -77.670       23.814      -23.029       15.195       19.615       16.041      230.885      384.737      257.311        0.400        0.044       81.238        9.358        0.013      335.927        6.885      869.042
12/01/2021  19:26:00      -41.350        0.846      -16.137       34.506       22.783       19.231     1190.678      519.064      369.823        0.202        0.104       41.359       18.969        0.210      335.903        6.848      869.044
12/01/2021  19:27:00      -62.998      -10.240      -23.816       22.161       12.659       17.713      491.124      160.249      313.741        0.280        0.048       63.825       11.897        0.035      335.943        6.914      869.044
12/01/2021  19:28:00      -84.226       12.878       -9.532       30.328       22.415       17.801      919.813      502.450      316.878        0.454        0.087       85.205       17.859        0.044      335.923        6.881      869.034
12/01/2021  19:29:00      -88.040       28.783      -14.418       10.970        9.461        9.073      120.332       89.504       82.323        0.454        0.015       92.625        5.820        0.004      335.896        6.835      869.037
12/01/2021  19:30:00      -91.252       27.189      -15.537       11.499       15.164       10.463      132.222      229.947      109.482        0.489        0.024       95.216        5.034        0.003      335.915        6.868      869.028
12/01/2021  19:31:00      -93.145       22.033      -27.049       17.730       13.972       16.302      314.366      195.226      265.765        0.533        0.039       95.716       11.796        0.015      335.907        6.855      869.016
12/01/2021  19:32:00      -89.743        5.186      -19.529       34.130       23.368       19.386     1164.889      546.082      375.815        0.527        0.104       89.892       12.368        0.019      335.891        6.827      869.004
12/01/2021  19:33:00      -97.597       17.262      -10.688       29.261       27.525       17.706      856.232      757.601      313.494        0.593        0.096       99.112       13.804        0.019      335.840        6.744      868.997
12/01/2021  19:34:00      -97.223       26.588      -12.903       17.495       18.660       13.409      306.080      348.206      179.789        0.558        0.042      100.793        7.024        0.005      335.837        6.737      868.994
12/01/2021  19:35:00      -93.795       15.717      -21.377       33.694       23.729       19.412     1135.280      563.084      376.838        0.579        0.104       95.103       17.945        0.036      335.798        6.672      869.008
12/01/2021  19:36:00      -37.076      -10.327       -5.737       28.037       19.779       16.345      786.100      391.198      267.151        0.148        0.072       38.487       13.512        0.123      335.715        6.532      869.023
12/01/2021  19:37:00      -72.881        7.802       -3.194       37.156       24.606       15.232     1380.567      605.450      232.011        0.380        0.111       73.298       11.277        0.024      335.767        6.620      869.049
12/01/2021  19:38:00      -94.525       20.739      -15.643       38.966       27.709       15.078     1518.355      767.792      227.332        0.606        0.126       96.773       17.307        0.032      335.803        6.678      869.064
12/01/2021  19:39:00      -84.070       -4.296      -10.713       26.371       24.821       21.225      695.437      616.062      450.500        0.448        0.088       84.180       16.292        0.037      335.689        6.489      869.065
12/01/2021  19:40:00      -63.850        0.738       -8.619       42.629       20.661       16.452     1817.215      426.880      270.671        0.333        0.126       63.855       15.511        0.059      335.691        6.493      869.061
12/01/2021  19:41:00      -82.949       -7.990      -10.943       39.429       23.170       19.193     1554.618      536.835      368.380        0.476        0.123       83.333       19.846        0.057      335.657        6.437      869.055
12/01/2021  19:42:00      -63.600       -3.886       -5.043       34.315       24.085       22.063     1177.526      580.091      486.772        0.316        0.112       63.718       19.858        0.097      335.630        6.392      869.050
12/01/2021  19:43:00      -84.282       -6.953       -8.331       33.416       24.180       18.313     1116.615      584.673      335.371        0.463        0.102       84.568       14.555        0.030      335.611        6.358      869.046
12/01/2021  19:44:00      -81.087        9.090       -7.109       35.451       30.773       21.333     1256.794      946.980      455.111        0.468        0.133       81.594       18.759        0.053      335.587        6.320      869.049
12/01/2021  19:45:00      -50.049        1.707       -5.516       44.046       31.276       20.294     1940.050      978.198      411.865        0.293        0.167       50.078       15.766        0.099      335.607        6.353      869.058
12/01/2021  19:46:00      -42.029        4.065       -7.801       41.223       20.664       16.934     1699.324      427.019      286.772        0.213        0.121       42.225       15.977        0.143      335.629        6.391      869.064
12/01/2021  19:47:00      -43.155       11.728       -1.714       36.564       25.138       24.468     1336.929      631.909      598.681        0.228        0.128       44.720       23.597        0.278      335.643        6.412      869.072
12/01/2021  19:48:00      -65.820       10.962       -5.554       53.232       26.850       21.269     2833.613      720.937      452.356        0.424        0.200       66.726       26.550        0.158      335.628        6.387      869.077
12/01/2021  19:49:00      -75.885       -3.348       -4.991       35.528       26.842       17.890     1262.237      720.506      320.043        0.405        0.115       75.959       16.855        0.049      335.623        6.379      869.077
12/01/2021  19:50:00     -100.842       11.891       -8.136       31.999       22.538       19.647     1023.928      507.957      385.998        0.615        0.096      101.541       19.020        0.035      335.661        6.442      869.078
12/01/2021  19:51:00      -97.597       18.103       -5.807       29.183       22.397       20.428      851.655      501.632      417.302        0.583        0.089       99.262       19.263        0.038      335.684        6.479      869.078
12/01/2021  19:52:00      -91.904        0.843       -8.239       25.480       23.215       17.440      649.242      538.950      304.148        0.500        0.075       91.908       15.509        0.028      335.696        6.500      869.088
12/01/2021  19:53:00      -64.627       -4.237       -6.262       29.623       24.919       19.289      877.521      620.946      372.061        0.305        0.094       64.766        5.884        0.008      335.687        6.486      869.089
12/01/2021  19:54:00      -38.502       -2.687        1.308       39.559       28.627       22.496     1564.947      819.480      506.075        0.219        0.145       38.596       20.172        0.273      335.648        6.420      869.094
12/01/2021  19:55:00      -59.988        2.504       -4.434       34.044       20.554       15.607     1159.006      422.455      243.584        0.272        0.091       60.040       10.089        0.028      335.657        6.437      869.092
12/01/2021  19:56:00      -63.538      -12.443      -15.217       31.659       17.663       16.927     1002.311      311.992      286.526        0.301        0.080       64.745       18.952        0.086      335.562        6.278      869.092
12/01/2021  19:57:00      -73.106      -12.460      -14.163       25.069       23.052       14.463      628.460      531.405      209.173        0.353        0.068       74.161        6.484        0.008      335.517        6.203      869.093
12/01/2021  19:58:00      -72.913       -4.497      -11.707       32.488       21.733       21.773     1055.502      472.312      474.047        0.374        0.100       73.052       22.033        0.091      335.528        6.223      869.099
12/01/2021  19:59:00      -91.424        1.395      -10.097       29.485       32.697       20.601      869.395     1069.091      424.411        0.541        0.118       91.435       12.421        0.018      335.483        6.148      869.099
12/01/2021  20:00:00      -73.551        6.399       -5.522       45.990       33.718       28.073     2115.071     1136.884      788.111        0.476        0.202       73.829       21.017        0.081      335.474        6.132      869.107
12/01/2021  20:01:00     -101.383       -8.658       -2.764       32.403       39.211       24.289     1049.922     1537.479      589.934        0.677        0.159      101.752       16.642        0.027      335.419        6.039      869.101
12/01/2021  20:02:00      -48.865        8.682       -1.639       33.861       28.247       18.976     1146.541      797.897      360.101        0.238        0.115       49.631       12.674        0.065      335.392        5.995      869.102
12/01/2021  20:03:00      -94.399       -4.166      -12.333       42.885       22.906       16.360     1839.112      524.699      267.665        0.586        0.132       94.491       17.271        0.033      335.412        6.029      869.108
12/01/2021  20:04:00      -98.581       14.563       -9.877       35.773       27.728       18.817     1279.674      768.856      354.087        0.621        0.120       99.650       15.707        0.025      335.451        6.093      869.113
12/01/2021  20:05:00     -141.616       25.702       -7.406       19.630       18.512       13.606      385.325      342.687      185.117        1.084        0.046      143.930       10.088        0.005      335.396        6.002      869.108
12/01/2021  20:06:00      -93.870       13.576       -8.704       37.289       27.416       18.722     1390.495      751.664      350.516        0.578        0.125       94.847       12.353        0.017      335.366        5.953      869.114
12/01/2021  20:07:00      -87.894        8.738       -5.206       36.120       29.643       20.648     1304.644      878.717      426.356        0.522        0.130       88.328       16.111        0.033      335.413        6.029      869.131
12/01/2021  20:08:00     -109.550       19.321       -9.157       26.325       21.164       14.970      693.025      447.906      224.110        0.691        0.068      111.241       11.402        0.011      335.486        6.153      869.143
12/01/2021  20:09:00      -83.812       -7.883       -6.178       37.988       21.279       18.170     1443.087      452.785      330.133        0.467        0.111       84.182       15.380        0.033      335.453        6.097      869.150
12/01/2021  20:10:00      -89.824       -9.611       -6.429       30.240       25.596       20.894      914.478      655.175      436.538        0.510        0.100       90.337       16.788        0.035      335.373        5.965      869.157
12/01/2021  20:11:00      -93.216       -8.551       -7.422       37.158       29.073       27.121     1380.688      845.228      735.573        0.589        0.148       93.607       22.146        0.056      335.323        5.880      869.166
12/01/2021  20:12:00      -87.504      -10.875       -3.309       40.288       23.898       28.791     1623.102      571.132      828.902        0.540        0.151       88.177       25.052        0.081      335.345        5.917      869.175
12/01/2021  20:13:00     -104.702      -17.108       -8.116       39.483       24.335       20.852     1558.883      592.192      434.807        0.695        0.129      106.090       18.710        0.031      335.370        5.959      869.186
12/01/2021  20:14:00     -114.698      -21.003      -11.111       44.490       23.872       21.644     1979.321      569.850      468.453        0.837        0.151      116.605       25.586        0.048      335.407        6.020      869.183
12/01/2021  20:15:00     -119.980        1.242       -3.210       46.421       27.314       23.042     2154.941      746.074      530.956        0.892        0.172      119.986       18.508        0.024      335.308        5.854      869.177
12/01/2021  20:16:00     -108.512      -14.269      -21.797       39.516       35.625       26.090     1561.479     1269.124      680.687        0.798        0.176      109.446       20.786        0.036      335.242        5.745      869.175
12/01/2021  20:17:00      -63.993       -7.043      -10.190       54.092       31.238       28.340     2925.920      975.815      803.134        0.448        0.235       64.379       30.873        0.230      335.247        5.753      869.169
12/01/2021  20:18:00      -93.102        5.021       -8.554       33.588       27.135       21.536     1128.174      736.330      463.807        0.555        0.116       93.237       13.859        0.022      335.322        5.878      869.183
12/01/2021  20:19:00     -105.975        4.494       -9.646       35.100       34.047       24.783     1232.030     1159.216      614.219        0.717        0.150      106.070       16.985        0.026      335.303        5.847      869.191
12/01/2021  20:20:00      -85.665      -10.940       -6.921       56.774       32.889       25.553     3223.324     1081.669      652.936        0.623        0.248       86.361       28.734        0.111      335.246        5.751      869.205
12/01/2021  20:21:00     -101.197      -17.403      -18.740       29.663       24.853       20.394      879.916      617.656      415.929        0.640        0.096      102.682       15.493        0.023      335.289        5.823      869.221
12/01/2021  20:22:00      -79.602      -22.369       -8.955       48.006       23.531       25.084     2304.606      553.701      629.182        0.520        0.174       82.685       23.195        0.079      335.265        5.783      869.227
12/01/2021  20:23:00      -95.413       -2.086      -10.746       47.222       32.003       20.491     2229.892     1024.200      419.880        0.645        0.184       95.435       12.513        0.017      335.233        5.730      869.232
12/01/2021  20:24:00      -91.810      -13.303       -8.482       34.868       27.383       22.751     1215.807      749.832      517.587        0.558        0.124       92.769       18.429        0.039      335.218        5.705      869.238
12/01/2021  20:25:00      -70.555       -8.200      -14.184       40.179       19.208       24.360     1614.335      368.963      593.388        0.391        0.129       71.029       24.810        0.122      335.120        5.544      869.242
12/01/2021  20:26:00      -41.937       -3.668        3.142       38.397       25.962       22.258     1474.341      674.005      495.433        0.221        0.132       42.098       20.163        0.229      335.114        5.533      869.248
12/01/2021  20:27:00      -58.927       -3.253       -9.323       31.038       27.233       19.024      963.360      741.624      361.904        0.282        0.103       59.017        9.310        0.025      335.113        5.532      869.254
12/01/2021  20:28:00     -108.496       16.485       -5.824       39.886       25.687       18.349     1590.921      659.837      336.698        0.733        0.129      109.741       15.455        0.020      335.147        5.587      869.263
12/01/2021  20:29:00      -94.940       15.888       -2.352       50.232       27.823       22.436     2523.215      774.145      503.395        0.654        0.190       96.260       25.590        0.071      335.210        5.691      869.261
12/01/2021  20:30:00     -130.259       12.746       -4.472       46.628       29.842       22.070     2174.196      890.526      487.101        1.035        0.178      130.882       22.719        0.030      335.214        5.699      869.254
12/01/2021  20:31:00      -84.798       10.100        1.351       50.928       32.713       25.990     2593.622     1070.131      675.468        0.582        0.217       85.398       26.266        0.095      335.157        5.604      869.241
12/01/2021  20:32:00      -58.540       -5.900        1.710       54.954       32.414       26.901     3019.997     1050.658      723.658        0.413        0.240       58.836       28.911        0.241      335.096        5.503      869.244
12/01/2021  20:33:00      -29.099       -6.765       -0.795       42.612       34.274       30.891     1815.803     1174.700      954.284        0.242        0.197       29.875       26.794        0.804      335.067        5.455      869.243
12/01/2021  20:34:00      -62.666       -4.194       -6.906       39.799       34.918       24.598     1583.958     1219.238      605.065        0.370        0.170       62.806       18.758        0.089      335.024        5.384      869.250
12/01/2021  20:35:00      -83.119       -3.062       -8.353       36.192       37.999       21.222     1309.872     1443.924      450.363        0.510        0.160       83.175       12.184        0.021      335.008        5.358      869.248
12/01/2021  20:36:00      -37.543       -5.435      -10.478       28.452       29.763       27.494      809.524      885.841      755.925        0.200        0.123       37.934       12.447        0.108      334.949        5.261      869.244
12/01/2021  20:37:00     -102.160        5.211       -8.199       45.989       31.159       18.450     2114.944      970.854      340.403        0.698        0.171      102.293       16.218        0.025      334.917        5.208      869.238
12/01/2021  20:38:00      -74.727        6.529       -7.321       45.325       30.639       21.738     2054.320      938.751      472.549        0.457        0.173       75.011       19.493        0.068      334.829        5.061      869.245
12/01/2021  20:39:00     -101.927       18.352      -10.086       35.318       28.135       18.383     1247.356      791.602      337.947        0.660        0.119      103.566       14.146        0.019      334.914        5.203      869.263
12/01/2021  20:40:00     -113.579       13.275      -13.335       22.552       23.707       16.344      508.612      561.999      267.134        0.730        0.067      114.352       13.348        0.014      334.884        5.150      869.278
12/01/2021  20:41:00      -91.097       -6.480       -7.316       31.147       24.657       19.831      970.113      607.987      393.270        0.518        0.099       91.327       14.232        0.024      334.870        5.129      869.286
12/01/2021  20:42:00      -90.916        7.046      -11.873       43.029       16.795       20.172     1851.518      282.061      406.902        0.550        0.127       91.188       16.602        0.033      334.871        5.131      869.285
12/01/2021  20:43:00      -92.648       18.582       -5.513       39.568       37.109       22.029     1565.601     1377.064      485.295        0.619        0.171       94.493       17.517        0.034      334.877        5.140      869.288
12/01/2021  20:44:00      -93.892       13.531       -5.700       26.744       21.353       13.436      715.267      455.964      180.527        0.519        0.068       94.862        7.936        0.007      334.930        5.227      869.284
12/01/2021  20:45:00      -68.411       -8.530       -6.404       34.435       24.933       22.282     1185.757      621.652      496.481        0.355        0.115       68.941       20.359        0.087      334.935        5.237      869.288
12/01/2021  20:46:00      -90.975      -13.373      -16.312       41.854       28.515       26.796     1751.723      813.087      718.023        0.600        0.164       91.952       23.292        0.064      334.870        5.130      869.298
12/01/2021  20:47:00     -105.941      -11.117       -8.805       45.231       30.771       31.327     2045.847      946.837      981.383        0.770        0.199      106.523       25.541        0.057      334.862        5.115      869.308
12/01/2021  20:48:00     -101.797      -12.631      -15.286       44.126       26.964       25.533     1947.134      727.060      651.916        0.704        0.166      102.578       22.917        0.050      334.788        4.992      869.309
12/01/2021  20:49:00      -89.814       11.256      -11.090       43.039       27.277       28.619     1852.365      744.013      819.067        0.587        0.171       90.517       24.615        0.074      334.774        4.968      869.322
12/01/2021  20:50:00      -89.091       26.723       -5.670       35.455       24.644       17.186     1257.051      607.316      295.364        0.542        0.108       93.013       12.791        0.019      334.839        5.078      869.319
12/01/2021  20:51:00      -52.710        4.989       -0.661       44.197       23.492       20.655     1953.416      551.861      426.637        0.287        0.147       52.946       19.525        0.136      334.821        5.048      869.319
12/01/2021  20:52:00      -85.387       13.272      -11.784       28.571       21.766       16.131      816.286      473.772      260.215        0.458        0.078       86.412       11.462        0.018      334.817        5.040      869.321
12/01/2021  20:53:00     -104.530       11.679      -13.574       23.446       18.238       13.986      549.734      332.609      195.615        0.616        0.054      105.181        5.558        0.003      334.806        5.022      869.325
12/01/2021  20:54:00      -96.088        3.421       -8.450       31.758       23.292       17.334     1008.577      542.518      300.476        0.558        0.093       96.148       14.482        0.023      334.760        4.946      869.327
12/01/2021  20:55:00      -94.104        8.893       -8.710       39.233       29.754       19.053     1539.261      885.274      363.020        0.590        0.139       94.523       19.222        0.041      334.725        4.888      869.329
12/01/2021  20:56:00      -85.234        2.787       -8.602       42.230       27.280       22.403     1783.366      744.202      501.899        0.519        0.151       85.280       17.962        0.044      334.706        4.855      869.334
12/01/2021  20:57:00      -47.716        1.627      -12.083       35.450       33.372       26.853     1256.721     1113.686      721.071        0.276        0.155       47.743       18.233        0.146      334.739        4.910      869.340
12/01/2021  20:58:00      -51.246       -0.880      -15.343       44.838       30.212       24.518     2010.476      912.794      601.141        0.319        0.176       51.253       21.182        0.171      334.661        4.779      869.336
12/01/2021  20:59:00      -35.183        7.497       -4.258       39.064       40.723       26.299     1525.967     1658.351      691.639        0.259        0.194       35.973       20.962        0.340      334.587        4.656      869.330
12/01/2021  21:00:00      -54.642        2.147       -6.511       42.551       30.808       31.743     1810.561      949.128     1007.606        0.340        0.188       54.684       27.438        0.252      334.538        4.574      869.335
12/01/2021  21:01:00      -64.945       -0.219       -9.610       56.599       37.913       39.350     3203.436     1437.427     1548.395        0.525        0.309       64.945       37.158        0.327      334.530        4.562      869.342
12/01/2021  21:02:00      -35.336      -17.382      -15.631       54.193       25.307       26.257     2936.832      640.454      689.449        0.303        0.213       39.379       28.772        0.534      334.506        4.521      869.350
12/01/2021  21:03:00      -59.831      -33.000      -24.664       26.459       28.931       27.074      700.056      837.007      732.984        0.377        0.114       68.328       14.918        0.048      334.551        4.596      869.353
12/01/2021  21:04:00      -47.323       26.030      -12.564       37.259       33.677       20.919     1388.239     1134.135      437.597        0.302        0.148       54.009       14.307        0.070      334.598        4.675      869.349
12/01/2021  21:05:00      -85.909       27.564      -29.486       22.163       21.465       20.291      491.198      460.738      411.727        0.519        0.068       90.223        6.207        0.005      334.576        4.637      869.339
12/01/2021  21:06:00      -38.602        5.576      -14.122       33.699       21.148       25.100     1135.637      447.226      630.035        0.197        0.111       39.002       21.892        0.315      334.574        4.636      869.343
12/01/2021  21:07:00       -8.868       11.511       -8.650       26.923       20.877       18.403      724.826      435.840      338.657        0.089        0.075       14.531       11.426        0.618      334.569        4.626      869.348
12/01/2021  21:08:00      -15.650       -5.375       -8.190       27.560       28.527       21.748      759.570      813.781      472.985        0.119        0.102       16.547       20.951        1.603      334.541        4.580      869.349
12/01/2021  21:09:00      -18.734       20.811        0.879       29.813       26.289       26.060      888.824      691.109      679.112        0.152        0.113       28.001       15.842        0.320      334.516        4.538      869.352
12/01/2021  21:10:00      -87.644       19.510      -25.198       31.785       22.449       22.095     1010.314      503.962      488.198        0.535        0.100       89.789       12.964        0.021      334.612        4.698      869.346
12/01/2021  21:11:00      -36.280        3.680      -19.152       28.135       23.812       19.328      791.559      567.018      373.588        0.171        0.087       36.467       11.506        0.100      334.554        4.602      869.340
12/01/2021  21:12:00      -44.074       -0.668      -12.895       25.436       19.198       17.141      647.013      368.560      293.809        0.171        0.065       44.079       12.719        0.083      334.601        4.679      869.334
12/01/2021  21:13:00      -59.164      -16.022      -20.321       36.573       33.732       27.631     1337.595     1137.873      763.450        0.370        0.162       61.295       22.141        0.130      334.512        4.530      869.325
12/01/2021  21:14:00      -75.103      -13.794      -25.478       34.157       24.285       22.897     1166.703      589.737      524.261        0.438        0.114       76.359       17.934        0.055      334.481        4.482      869.311
12/01/2021  21:15:00      -85.831      -43.110      -35.081       20.406       20.995       20.194      416.412      440.782      407.789        0.586        0.063       96.049        8.737        0.008      334.448        4.428      869.295
12/01/2021  21:16:00      -92.501      -26.955      -37.586       25.281       26.189       14.676      639.146      685.879      215.388        0.612        0.077       96.348        7.964        0.007      334.469        4.460      869.295
12/01/2021  21:17:00      -64.487      -39.264      -33.357       23.864       22.867       15.815      569.499      522.891      250.103        0.408        0.067       75.500       10.449        0.019      334.541        4.577      869.297
12/01/2021  21:18:00      -85.612      -13.398      -35.187       19.501       15.780       17.015      380.278      249.022      289.519        0.483        0.046       86.654       10.731        0.015      334.713        4.867      869.297
12/01/2021  21:19:00      -52.622        0.696      -16.361       30.757       25.626       25.381      946.015      656.696      644.210        0.264        0.112       52.627       16.753        0.101      334.564        4.618      869.303
12/01/2021  21:20:00     -113.079       23.545       -8.914       27.512       25.380       16.148      756.897      644.153      260.742        0.754        0.083      115.504       14.347        0.015      334.578        4.642      869.309
12/01/2021  21:21:00      -95.261       26.484      -13.087       34.084       17.837       17.531     1161.687      318.175      307.345        0.587        0.089       98.874       16.165        0.027      334.572        4.632      869.317
12/01/2021  21:22:00      -84.758       23.599       -8.764       22.373       19.003       16.482      500.542      361.101      271.651        0.448        0.057       87.982       10.334        0.014      334.612        4.697      869.323
12/01/2021  21:23:00      -70.199        2.677      -10.112       28.405       18.067       13.645      806.833      326.400      186.190        0.318        0.066       70.250       12.339        0.031      334.713        4.868      869.321
12/01/2021  21:24:00      -84.713       17.660      -11.095       24.689       14.605       16.126      609.541      213.320      260.043        0.435        0.054       86.534       15.576        0.032      334.713        4.868      869.318
12/01/2021  21:25:00      -72.894        4.392       -7.910       29.427       25.463       18.969      865.943      648.380      359.809        0.363        0.094       73.026       15.536        0.045      334.683        4.816      869.323
12/01/2021  21:26:00      -34.643        3.615       -3.624       36.538       22.410       20.233     1335.044      502.212      409.369        0.174        0.112       34.831       17.160        0.243      334.580        4.644      869.334
12/01/2021  21:27:00      -36.775       -9.021       -3.883       38.025       28.265       27.637     1445.880      798.905      763.817        0.223        0.150       37.865       22.960        0.368      334.506        4.523      869.347
12/01/2021  21:28:00      -60.697       -4.163       -1.247       44.555       29.010       23.603     1985.119      841.573      557.090        0.354        0.169       60.840       23.140        0.145      334.568        4.625      869.355
12/01/2021  21:29:00      -69.553      -16.933       -8.555       43.427       27.062       26.098     1885.914      732.346      681.081        0.425        0.165       71.585       21.406        0.089      334.537        4.573      869.360
12/01/2021  21:30:00      -59.813       -3.275        3.664       39.597       28.636       22.867     1567.919      819.996      522.897        0.326        0.146       59.903       20.477        0.117      334.585        4.654      869.356
12/01/2021  21:31:00     -105.926      -24.070        1.813       47.501       31.207       27.890     2256.354      973.849      777.826        0.790        0.200      108.626       24.239        0.050      334.555        4.603      869.349
12/01/2021  21:32:00     -133.860      -11.698      -10.866       33.763       29.959       25.729     1139.917      897.566      661.999        1.044        0.135      134.370       20.108        0.022      334.504        4.517      869.342
12/01/2021  21:33:00      -90.194       -5.717       -6.387       45.982       40.202       23.216     2114.381     1616.222      538.993        0.624        0.213       90.375       21.522        0.057      334.486        4.488      869.340
12/01/2021  21:34:00     -125.976        6.314       -8.357       42.949       24.522       21.730     1844.640      601.317      472.174        0.945        0.146      126.135       20.330        0.026      334.468        4.460      869.341
12/01/2021  21:35:00      -80.755      -10.316       -7.794       43.858       28.354       25.216     1923.498      803.954      635.850        0.503        0.168       81.412       21.205        0.068      334.420        4.380      869.332
12/01/2021  21:36:00      -50.679       -2.583       -8.293       42.998       22.862       27.768     1848.787      522.649      771.071        0.289        0.157       50.745       28.087        0.306      334.361        4.282      869.323
12/01/2021  21:37:00      -37.171        8.633       -2.769       43.957       30.721       23.702     1932.235      943.797      561.783        0.245        0.172       38.161       14.719        0.149      334.383        4.318      869.314
12/01/2021  21:38:00      -71.281       10.032       -6.676       43.953       26.378       20.195     1931.825      695.815      407.857        0.413        0.152       71.984       15.726        0.048      334.395        4.338      869.311
12/01/2021  21:39:00      -56.189      -19.662       -1.282       49.331       36.093       26.296     2433.528     1302.708      691.495        0.399        0.221       59.530       22.371        0.141      334.345        4.256      869.311
12/01/2021  21:40:00     -107.419      -13.983       -6.188       51.547       27.015       29.478     2657.115      729.806      868.955        0.801        0.213      108.325       26.044        0.058      334.381        4.317      869.307
12/01/2021  21:41:00      -69.386      -11.375       -6.180       41.445       25.818       23.825     1717.698      666.585      567.635        0.397        0.148       70.312        8.689        0.015      334.432        4.402      869.314
12/01/2021  21:42:00      -40.227        1.173        0.415       34.123       31.799       25.698     1164.370     1011.160      660.378        0.223        0.142       40.244       18.399        0.209      334.378        4.311      869.315
12/01/2021  21:43:00     -108.079      -17.685       -8.756       57.041       27.329       24.514     3253.726      746.874      600.954        0.834        0.230      109.516       21.922        0.040      334.367        4.292      869.318
12/01/2021  21:44:00      -62.473       -9.152       -8.013       47.825       30.924       22.465     2287.265      956.297      504.684        0.390        0.187       63.140       15.506        0.060      334.334        4.236      869.323
12/01/2021  21:45:00      -55.693        2.332       -7.365       32.962       23.873       20.912     1086.485      569.911      437.318        0.263        0.105       55.742       17.096        0.094      334.349        4.262      869.317
12/01/2021  21:46:00      -50.310        2.997       -2.647       33.111       20.079       15.170     1096.352      403.158      230.143        0.214        0.086       50.399       15.671        0.097      334.359        4.280      869.323
12/01/2021  21:47:00     -108.922        0.700      -10.611       36.268       21.331       17.285     1315.347      455.009      298.757        0.702        0.103      108.924       11.485        0.011      334.314        4.205      869.326
12/01/2021  21:48:00      -76.771       -1.817       -1.176       26.879       28.503       18.078      722.492      812.396      326.823        0.388        0.093       76.792       13.305        0.030      334.361        4.283      869.337
12/01/2021  21:49:00      -37.565       -0.010       -7.382       38.833       23.840       23.160     1507.996      568.355      536.397        0.204        0.131       37.565       21.310        0.322      334.319        4.212      869.347
12/01/2021  21:50:00       -5.417       -0.123       -7.709       21.928       14.676       15.053      480.847      215.375      226.590        0.051        0.046        5.418        6.062        1.252      334.312        4.201      869.349
12/01/2021  21:51:00      -42.694        0.807       -5.827       35.137       22.488       19.851     1234.606      505.725      394.057        0.200        0.107       42.702       20.637        0.234      334.287        4.159      869.357
12/01/2021  21:52:00      -77.279       -5.078      -10.343       35.128       23.161       20.241     1233.971      536.451      409.707        0.414        0.109       77.445       17.606        0.052      334.339        4.245      869.361
12/01/2021  21:53:00      -16.625       -0.656       -0.690       27.653       18.309       15.493      764.699      335.227      240.019        0.081        0.067       16.638       11.888        0.511      334.301        4.182      869.370
12/01/2021  21:54:00      -49.298       -9.067       -2.726       40.830       21.183       18.581     1667.063      448.728      345.258        0.249        0.123       50.125       18.158        0.131      334.246        4.092      869.369
12/01/2021  21:55:00      -67.942      -20.745       -1.573       31.238       25.523       20.479      975.841      651.432      419.381        0.355        0.102       71.039       17.105        0.058      334.285        4.158      869.369
12/01/2021  21:56:00      -84.963        9.606       -6.689       30.947       25.098       18.425      957.711      629.927      339.473        0.464        0.096       85.504       12.828        0.023      334.360        4.281      869.375
12/01/2021  21:57:00      -97.287       13.192       -3.076       35.875       28.540       22.145     1287.022      814.520      490.415        0.612        0.130       98.178       21.853        0.050      334.409        4.361      869.380
12/01/2021  21:58:00      -65.506       23.480        3.411       33.670       17.019       17.226     1133.655      289.638      296.744        0.329        0.086       69.587       15.714        0.051      334.366        4.289      869.384
12/01/2021  21:59:00      -90.336       27.811      -10.632       23.843       15.471       13.412      568.500      239.346      179.886        0.502        0.049       94.520       10.530        0.012      334.353        4.270      869.380
12/01/2021  22:00:00      -77.702       20.189       -1.712       36.928       22.299       17.564     1363.651      497.241      308.488        0.431        0.108       80.282       13.589        0.029      334.320        4.215      869.383
12/01/2021  22:01:00      -88.865       19.725       -2.314       32.785       23.907       14.213     1074.876      571.539      202.010        0.507        0.092       91.028       11.522        0.016      334.341        4.249      869.395
12/01/2021  22:02:00     -112.646       30.101      -12.249       15.468       11.015       12.952      239.265      121.328      167.743        0.714        0.026      116.599        3.742        0.001      334.339        4.246      869.404
12/01/2021  22:03:00      -67.333       22.777      -16.863       21.158       24.645       19.340      447.645      607.368      374.017        0.338        0.071       71.081        9.077        0.016      334.254        4.106      869.406
12/01/2021  22:04:00      -99.602       24.032      -28.547       13.326       16.492       14.641      177.582      271.997      214.372        0.599        0.033      102.460        4.942        0.002      334.181        3.984      869.406
12/01/2021  22:05:00      -67.062       -1.382      -14.587       27.481       29.002       19.743      755.188      841.099      389.770        0.335        0.099       67.076       17.944        0.072      334.120        3.882      869.396
12/01/2021  22:06:00      -30.546       -2.293       -7.633       22.195       13.113       16.030      492.596      171.939      256.965        0.096        0.046       30.632        5.092        0.028      334.088        3.830      869.394
12/01/2021  22:07:00       -7.212       10.246       -5.709       21.382       19.085       13.472      457.188      364.256      181.498        0.060        0.050       12.530       11.241        0.805      334.071        3.802      869.387
12/01/2021  22:08:00       -8.512        6.892       -0.717       33.894       21.737       10.589     1148.832      472.495      112.117        0.093        0.087       10.952       13.182        1.449      334.040        3.750      869.384
12/01/2021  22:09:00      -57.591       19.731      -19.402       22.833       22.186       16.910      521.349      492.221      285.960        0.269        0.065       60.877        7.388        0.015      334.024        3.725      869.390
12/01/2021  22:10:00      -47.171       11.235      -15.304       20.400       20.749       14.005      416.144      430.523      196.142        0.181        0.052       48.491        8.784        0.033      333.978        3.648      869.389
12/01/2021  22:11:00      -74.099       21.456      -13.809       19.925       18.914       14.856      396.999      357.732      220.697        0.356        0.049       77.143        4.795        0.004      333.961        3.620      869.388
12/01/2021  22:12:00      -63.214        3.179      -16.387       29.761       27.529       18.176      885.708      757.860      330.374        0.312        0.099       63.293       13.145        0.043      333.913        3.541      869.383
12/01/2021  22:13:00      -62.990       -1.681      -23.630       29.996       24.659       20.576      899.774      608.076      423.356        0.323        0.097       63.013        7.404        0.014      333.891        3.504      869.369
12/01/2021  22:14:00      -23.955      -11.983      -12.862       24.953       30.430       22.750      622.636      925.998      517.572        0.147        0.103       26.785       19.250        0.516      333.826        3.394      869.360
12/01/2021  22:15:00      -21.524       37.286        0.057       33.084       21.507       22.278     1094.555      462.554      496.323        0.195        0.103       43.052       17.333        0.162      333.821        3.388      869.346
12/01/2021  22:16:00      -35.738       16.694      -27.954       18.349       25.168       23.639      336.682      633.414      558.799        0.193        0.076       39.445       11.029        0.078      333.850        3.436      869.335
12/01/2021  22:17:00       -5.516       -0.000       -4.922       13.101       15.475       15.388      171.626      239.486      236.793        0.035        0.032        5.516       10.657        3.732      333.773        3.309      869.336
12/01/2021  22:18:00      -39.580      -29.393      -18.999       27.459       26.105       12.438      753.972      681.458      154.704        0.219        0.080       49.300       14.869        0.091      333.836        3.414      869.337
12/01/2021  22:19:00      -44.335      -16.378      -17.636       29.594       35.770       17.891      875.794     1279.472      320.076        0.251        0.124       47.263       16.661        0.124      333.891        3.504      869.338
12/01/2021  22:20:00      -72.597       -3.701      -15.940       26.459       18.788       20.039      700.081      352.983      401.569        0.350        0.073       72.691       16.175        0.050      333.890        3.503      869.344
12/01/2021  22:21:00      -48.469        6.264       -8.518       29.787       26.950       18.272      887.292      726.314      333.883        0.220        0.097       48.872       14.075        0.083      333.901        3.520      869.347
12/01/2021  22:22:00     -100.749       23.469      -23.482       14.137       15.247        8.984      199.868      232.484       80.706        0.588        0.026      103.447        8.234        0.006      333.896        3.514      869.345
12/01/2021  22:23:00     -114.926       34.944      -14.533       14.974       10.966       12.789      224.207      120.258      163.563        0.757        0.025      120.121        8.957        0.006      333.932        3.573      869.339
12/01/2021  22:24:00      -88.468       16.590      -19.443       19.852        9.537       12.762      394.110       90.954      162.873        0.456        0.032       90.010        7.989        0.008      333.997        3.680      869.336
12/01/2021  22:25:00      -60.996       10.889      -12.309       19.815       20.950       14.042      392.620      438.895      197.189        0.251        0.051       61.960       12.926        0.044      333.933        3.574      869.327
12/01/2021  22:26:00      -43.269       -7.022      -11.520       28.767       18.793       15.538      827.519      353.165      241.445        0.174        0.071       43.835       16.972        0.150      333.886        3.496      869.314
12/01/2021  22:27:00      -66.836       -5.561      -16.184       16.927       10.394       15.539      286.519      108.030      241.450        0.270        0.032       67.067       12.514        0.035      333.929        3.567      869.307
12/01/2021  22:28:00      -69.433        4.409      -12.352       20.895       14.749       13.267      436.594      217.521      176.024        0.291        0.042       69.572        8.780        0.016      333.972        3.640      869.303
12/01/2021  22:29:00      -80.077       -3.017      -13.675       19.390       25.749       12.531      375.990      663.006      157.015        0.390        0.060       80.133       10.521        0.017      333.941        3.587      869.298
12/01/2021  22:30:00      -88.432       23.287      -21.568       17.234       11.959       10.046      296.994      143.008      100.913        0.468        0.027       91.447        7.807        0.007      333.904        3.526      869.298
12/01/2021  22:31:00      -75.819       19.461      -14.233       16.808        9.888       11.287      282.514       97.780      127.399        0.342        0.025       78.277        5.014        0.004      333.958        3.615      869.285
12/01/2021  22:32:00      -91.789       22.030      -14.822       10.045       10.499        8.706      100.898      110.219       75.801        0.471        0.014       94.396        4.884        0.003      333.989        3.668      869.277
12/01/2021  22:33:00      -62.149        9.835       -9.655       28.762       20.709       14.838      827.239      428.874      220.156        0.276        0.074       62.922       12.555        0.040      334.009        3.699      869.280
12/01/2021  22:34:00      -25.940       -0.175       -1.593       22.981       19.709       17.886      528.133      388.437      319.925        0.096        0.062       25.941       14.048        0.293      333.946        3.596      869.290
12/01/2021  22:35:00      -41.700        0.967       -4.527       30.065       19.439       15.994      903.877      377.858      255.796        0.165        0.077       41.711       11.495        0.076      333.949        3.601      869.297
12/01/2021  22:36:00      -71.937       17.364      -13.891       10.816        9.708        7.891      116.993       94.251       62.265        0.297        0.014       74.003        5.775        0.006      333.949        3.601      869.301
12/01/2021  22:37:00      -62.809       11.848      -11.678       16.737       18.230       12.284      280.121      332.349      150.891        0.249        0.038       63.917        6.267        0.010      334.043        3.756      869.295
12/01/2021  22:38:00      -67.854        8.964       -6.605       24.087       19.457       11.196      580.187      378.566      125.354        0.291        0.054       68.444        7.370        0.012      334.013        3.705      869.301
12/01/2021  22:39:00      -24.534       -2.116       -2.950       15.424       18.445       13.711      237.907      340.201      188.000        0.069        0.038       24.626        8.535        0.120      333.974        3.641      869.296
12/01/2021  22:40:00      -67.568       12.655       -9.338       22.502       13.816       12.066      506.334      190.885      145.590        0.283        0.042       68.743        5.833        0.007      334.014        3.710      869.298
12/01/2021  22:41:00      -81.346       20.226      -17.266        7.102        8.282        8.532       50.442       68.599       72.796        0.376        0.010       83.823        5.069        0.004      333.941        3.587      869.301
12/01/2021  22:42:00      -79.078       15.888      -16.432        8.026        8.320        6.598       64.417       69.218       43.528        0.348        0.009       80.659        3.515        0.002      333.950        3.603      869.298
12/01/2021  22:43:00      -55.296        5.112      -14.135       11.607       15.443        8.709      134.721      238.475       75.847        0.187        0.022       55.532        6.549        0.014      333.986        3.663      869.289
12/01/2021  22:44:00      -27.670       -4.007       -5.563       11.359       13.302        9.976      129.037      176.956       99.518        0.061        0.020       27.959        5.549        0.039      333.996        3.677      869.289
12/01/2021  22:45:00      -10.675       -2.149       -5.946       22.484       13.793       11.437      505.549      190.247      130.804        0.049        0.041       10.890        5.815        0.285      333.938        3.583      869.295
12/01/2021  22:46:00      -20.021       10.945       -0.748       33.350       22.769       18.795     1112.219      518.406      353.256        0.125        0.099       22.818       17.861        0.613      333.857        3.448      869.306
12/01/2021  22:47:00      -55.471       -3.312      -14.334       25.179       23.011       16.519      633.958      529.502      272.861        0.236        0.072       55.570       12.164        0.048      333.916        3.545      869.319
12/01/2021  22:48:00      -57.230        9.961       -0.116       33.786       21.465       16.098     1141.468      460.733      259.144        0.262        0.093       58.090       15.539        0.072      333.865        3.460      869.327
12/01/2021  22:49:00      -34.208       -2.179       -5.691       27.890       15.748       20.638      777.835      248.009      425.931        0.133        0.073       34.277       17.627        0.264      333.721        3.223      869.337
12/01/2021  22:50:00      -20.297      -16.335       -2.229       34.493       20.558       22.384     1189.754      422.621      501.057        0.140        0.106       26.054       19.243        0.545      333.703        3.191      869.345
12/01/2021  22:51:00      -20.534       -2.536       -1.695       34.599       24.387       23.724     1197.091      594.743      562.848        0.139        0.118       20.690       22.552        1.188      333.760        3.287      869.350
12/01/2021  22:52:00      -49.518       -4.956       -7.619       35.204       22.896       19.110     1239.306      524.208      365.202        0.233        0.106       49.766       12.504        0.063      333.816        3.380      869.353
12/01/2021  22:53:00      -30.748        8.589       -1.490       24.015       25.923       18.258      576.734      671.991      333.338        0.130        0.079       31.925        9.723        0.093      333.758        3.284      869.351
12/01/2021  22:54:00      -28.677        7.470        3.952       30.620       17.415       15.603      937.576      303.295      243.450        0.119        0.074       29.634       13.723        0.214      333.730        3.237      869.347
12/01/2021  22:55:00      -57.465       15.433       -7.316       29.127       15.071       13.355      848.367      227.121      178.359        0.242        0.063       59.501        6.457        0.012      333.675        3.146      869.342
12/01/2021  22:56:00      -45.663       -4.471       -6.705       23.291       17.422       14.049      542.483      303.527      197.375        0.160        0.052       45.882       11.015        0.058      333.795        3.345      869.345
12/01/2021  22:57:00      -66.802        3.045       -1.737       28.029       22.397       16.143      785.605      501.606      260.604        0.301        0.077       66.871       12.321        0.034      333.790        3.335      869.351
12/01/2021  22:58:00      -13.036        4.575        4.020       32.272       21.857       17.467     1041.466      477.741      305.088        0.102        0.091       13.815       11.450        0.687      333.660        3.122      869.354
12/01/2021  22:59:00      -55.709      -14.910        2.394       39.841       28.002       22.429     1587.334      784.139      503.055        0.310        0.144       57.670       18.299        0.101      333.660        3.121      869.355
12/01/2021  23:00:00      -99.970        2.171       -8.234       59.349       18.167       18.311     3522.320      330.031      335.299        0.713        0.209       99.993       21.790        0.047      333.752        3.273      869.366
12/01/2021  23:01:00      -63.763      -21.752       -7.041       36.352       24.979       21.744     1321.441      623.935      472.816        0.350        0.121       67.371       17.831        0.070      333.779        3.318      869.381
12/01/2021  23:02:00      -78.997      -10.334      -15.095       31.908       19.252       13.798     1018.094      370.629      190.384        0.408        0.079       79.670       12.476        0.025      333.807        3.364      869.389
12/01/2021  23:03:00      -54.284       -4.034        2.981       35.823       30.314       19.337     1283.307      918.909      373.907        0.277        0.129       54.434       18.802        0.119      333.812        3.374      869.397
12/01/2021  23:04:00      -40.354       -4.332        1.428       33.749       26.975       18.326     1139.017      727.641      335.842        0.193        0.110       40.586       17.702        0.190      333.845        3.429      869.401
12/01/2021  23:05:00      -39.344       -2.335       -3.336       38.004       26.346       14.161     1444.340      694.117      200.525        0.195        0.117       39.413       14.420        0.134      333.885        3.494      869.402
12/01/2021  23:06:00      -44.288        0.618      -15.143       32.664       29.017       16.291     1066.940      841.978      265.386        0.218        0.109       44.292        6.516        0.022      333.820        3.386      869.392
12/01/2021  23:07:00      -65.578       16.317       -1.172       44.735       25.128       22.833     2001.187      631.441      521.334        0.386        0.158       67.578       21.479        0.101      333.756        3.281      869.382
12/01/2021  23:08:00      -99.218        9.411       -4.041       35.458       23.348       20.444     1257.260      545.133      417.948        0.608        0.111       99.663       14.631        0.022      333.690        3.169      869.371
12/01/2021  23:09:00      -97.320        4.719       -3.611       53.819       27.343       18.682     2896.449      747.643      349.025        0.675        0.200       97.434       21.473        0.049      333.733        3.242      869.363
12/01/2021  23:10:00     -122.183       21.192       -2.373       37.363       33.471       23.390     1396.008     1120.319      547.084        0.922        0.153      124.007       22.234        0.032      333.692        3.173      869.356
12/01/2021  23:11:00     -105.994        7.861        2.951       38.978       29.935       23.613     1519.280      896.117      557.559        0.714        0.149      106.285       20.482        0.037      333.745        3.262      869.349
12/01/2021  23:12:00     -113.187       21.641       -3.932       40.087       34.542       21.790     1606.947     1193.158      474.801        0.828        0.164      115.237       13.388        0.013      333.752        3.273      869.341
12/01/2021  23:13:00      -73.553       12.149       -4.595       33.425       17.540       19.942     1117.205      307.641      397.690        0.370        0.091       74.550       17.725        0.057      333.724        3.226      869.344
12/01/2021  23:14:00      -76.939        1.272       -4.363       38.769       22.166       25.577     1503.036      491.326      654.199        0.429        0.132       76.949       16.568        0.046      333.776        3.314      869.347
12/01/2021  23:15:00      -73.684        8.914        5.857       40.439       24.696       21.513     1635.296      609.907      462.794        0.413        0.135       74.222       21.852        0.087      333.760        3.287      869.343
12/01/2021  23:16:00      -84.184       19.294       -1.576       39.189       23.536       15.301     1535.749      553.963      234.120        0.489        0.116       86.367       14.975        0.030      333.779        3.317      869.337
12/01/2021  23:17:00      -86.984       14.283       -4.232       28.092       19.772       16.384      789.143      390.935      268.443        0.462        0.072       88.149       14.716        0.028      333.722        3.222      869.340
12/01/2021  23:18:00     -102.138       19.135       -5.312       21.153       16.884       14.006      447.453      285.083      196.170        0.588        0.046      103.915       12.102        0.014      333.729        3.235      869.344
12/01/2021  23:19:00      -84.242       17.508       -2.699       29.100       19.272       17.305      846.791      371.396      299.463        0.446        0.076       86.042       14.293        0.028      333.717        3.216      869.351
12/01/2021  23:20:00      -83.216       19.755       -1.227       22.882       16.712       16.585      523.592      279.294      275.065        0.420        0.054       85.529       14.033        0.027      333.685        3.162      869.346
12/01/2021  23:21:00      -86.118       13.356       -6.323       19.516       22.221       15.629      380.888      493.765      244.252        0.438        0.056       87.147        7.148        0.007      333.764        3.293      869.332
12/01/2021  23:22:00      -82.902       16.395      -13.981       25.472       15.166       12.470      648.798      230.023      155.494        0.419        0.052       84.507        7.784        0.008      333.699        3.187      869.324
12/01/2021  23:23:00      -51.985       15.409      -11.444       28.956       18.798       16.510      838.471      353.366      272.582        0.227        0.073       54.221       11.936        0.048      333.602        3.026      869.318
12/01/2021  23:24:00      -26.388       17.400       -8.625       23.497       21.670       15.059      552.127      469.586      226.769        0.116        0.062       31.608       12.010        0.144      333.486        2.833      869.325
12/01/2021  23:25:00      -33.306       -6.132      -14.193       31.700       32.681       24.723     1004.921     1068.056      611.251        0.202        0.134       33.866       23.794        0.494      333.460        2.789      869.323
12/01/2021  23:26:00      -37.133       13.163      -10.659       40.651       20.369       35.989     1652.509      414.904     1295.227        0.251        0.168       39.397       30.007        0.580      333.399        2.691      869.315
12/01/2021  23:27:00      -23.785        4.461      -13.010       29.159       22.879       18.642      850.256      523.464      347.508        0.124        0.086       24.200       15.115        0.390      333.465        2.798      869.307
12/01/2021  23:28:00      -33.122       10.933      -20.267       54.664       13.936       20.745     2988.157      194.198      430.375        0.262        0.181       34.879       27.922        0.641      333.428        2.736      869.307
12/01/2021  23:29:00       -0.238        2.944        0.265       18.358       19.349       18.353      337.017      374.400      336.849        0.053        0.052        2.954       11.405       14.909      333.375        2.650      869.316
12/01/2021  23:30:00      -21.726       17.097      -12.599       26.826       24.667       18.947      719.638      608.437      358.986        0.130        0.084       27.646       14.494        0.275      333.322        2.561      869.323
12/01/2021  23:31:00      -44.068       10.386      -16.066       38.361       26.148       18.279     1471.529      683.704      334.106        0.240        0.124       45.275       18.682        0.170      333.339        2.590      869.324
12/01/2021  23:32:00      -81.285       33.337      -13.014       20.991       18.852       14.323      440.604      355.400      205.151        0.444        0.050       87.855       11.476        0.017      333.359        2.623      869.316
12/01/2021  23:33:00      -92.905       38.626      -14.652       20.003       13.727       12.901      400.105      188.438      166.445        0.555        0.038      100.615        8.315        0.007      333.408        2.704      869.312
12/01/2021  23:34:00      -89.667       31.165      -22.575       26.980       15.284       17.317      727.937      233.590      299.883        0.539        0.063       94.928       13.585        0.020      333.406        2.702      869.317
12/01/2021  23:35:00      -65.442       10.643      -22.637       35.453       34.331       21.662     1256.918     1178.584      469.235        0.391        0.145       66.302       19.442        0.086      333.355        2.617      869.326
12/01/2021  23:36:00      -77.277        7.734      -19.453       41.537       24.273       21.602     1725.311      589.157      466.656        0.460        0.139       77.663       21.366        0.076      333.319        2.557      869.332
12/01/2021  23:37:00      -78.795        4.378      -21.468       34.714       30.909       26.978     1205.062      955.371      727.821        0.479        0.144       78.917       21.866        0.077      333.352        2.612      869.325
12/01/2021  23:38:00      -97.270       18.776      -17.312       16.737       18.336       13.271      280.111      336.217      176.107        0.545        0.040       99.066        4.734        0.002      333.319        2.558      869.319
12/01/2021  23:39:00      -96.395       13.948      -11.535       21.032       17.310       12.430      442.343      299.633      154.496        0.526        0.045       97.399        8.195        0.007      333.421        2.727      869.319
12/01/2021  23:40:00     -105.302       25.226      -11.892       14.371       17.726       13.320      206.512      314.207      177.422        0.628        0.035      108.282        7.210        0.004      333.371        2.644      869.318
12/01/2021  23:41:00     -101.251       28.046      -19.885       19.986       21.485       15.917      399.422      461.601      253.354        0.627        0.056      105.064       13.995        0.018      333.345        2.600      869.315
12/01/2021  23:42:00      -81.229       19.357      -25.550       21.076       10.314       11.806      444.213      106.384      139.381        0.416        0.034       83.504        6.614        0.006      333.369        2.640      869.315
12/01/2021  23:43:00      -72.098       28.385      -12.604       14.415       15.824        9.077      207.803      250.393       82.394        0.335        0.027       77.485        7.159        0.009      333.286        2.501      869.318
12/01/2021  23:44:00      -71.879       10.975      -13.315       24.758       20.055       13.453      612.954      402.195      180.976        0.333        0.060       72.712       11.296        0.024      333.285        2.499      869.319
12/01/2021  23:45:00      -90.062       30.379      -14.484       13.502       15.276        7.471      182.314      233.370       55.820        0.486        0.024       95.048        4.030        0.002      333.236        2.420      869.329
12/01/2021  23:46:00      -47.706       12.767      -18.084       35.165       24.066       19.255     1236.584      579.195      370.755        0.248        0.109       49.385       17.361        0.124      333.275        2.483      869.326
12/01/2021  23:47:00      -88.690       21.492      -20.457       24.525       17.147       13.526      601.468      294.033      182.959        0.491        0.054       91.257        9.062        0.010      333.260        2.458      869.309
12/01/2021  23:48:00      -86.314       19.508      -26.274       19.075       15.918       13.958      363.841      253.379      194.821        0.467        0.041       88.491        9.845        0.012      333.232        2.414      869.295
12/01/2021  23:49:00      -30.895        1.017       -8.183       33.618       22.079       16.625     1130.171      487.470      276.388        0.146        0.095       30.912       17.457        0.319      333.242        2.429      869.283
12/01/2021  23:50:00      -34.105        9.124       -9.638       19.142       19.470       17.376      366.429      379.084      301.912        0.119        0.052       35.304        7.572        0.046      333.279        2.490      869.283
12/01/2021  23:51:00      -57.629       29.316      -18.348        9.649        9.298        7.684       93.101       86.460       59.044        0.238        0.012       64.657        6.821        0.011      333.238        2.421      869.266
12/01/2021  23:52:00      -50.782       18.812      -25.660       16.594       14.778       12.776      275.367      218.389      163.225        0.212        0.033       54.154        7.870        0.021      333.294        2.516      869.253
12/01/2021  23:53:00      -62.123       16.031      -19.132       16.146       17.460       12.752      260.705      304.851      162.617        0.261        0.036       64.158       11.922        0.035      333.255        2.449      869.240
12/01/2021  23:54:00      -86.102       41.331      -14.196       19.997       14.724       13.594      399.900      216.796      184.809        0.506        0.040       95.508        7.741        0.007      333.112        2.215      869.242
12/01/2021  23:55:00      -77.285       35.791      -17.583       15.305       14.688       11.993      234.252      215.737      143.831        0.408        0.030       85.171        4.317        0.003      333.152        2.282      869.233
12/01/2021  23:56:00      -88.434       41.045      -21.392       11.658       14.182        9.770      135.917      201.129       95.453        0.520        0.022       97.495        7.479        0.006      333.116        2.221      869.221
12/01/2021  23:57:00      -85.893       35.745      -17.023       19.190       17.138       11.679      368.248      293.695      136.388        0.487        0.040       93.034        6.003        0.004      333.074        2.152      869.209
12/01/2021  23:58:00      -81.660       32.561      -21.179       13.085       16.742       11.259      171.230      280.291      126.757        0.438        0.029       87.913        6.155        0.005      333.114        2.219      869.198
12/01/2021  23:59:00      -90.004       31.033      -21.288       18.569       17.772       11.074      344.800      315.842      122.632        0.515        0.039       95.204        2.411        0.001      333.111        2.213      869.192
12/02/2021  00:00:00      -43.512       12.396      -22.905       20.152       18.052       16.655      406.101      325.888      277.391        0.179        0.050       45.243       11.789        0.068      333.176        2.320      869.176
12/02/2021  00:01:00      -67.808        5.953      -22.409       25.301       22.090       19.180      640.135      487.987      367.874        0.332        0.075       68.069       10.645        0.024      333.197        2.354      869.165
12/02/2021  00:02:00      -70.633       11.001      -17.471       24.128       19.770       19.321      582.177      390.861      373.300        0.338        0.067       71.484       10.939        0.023      333.147        2.271      869.159
12/02/2021  00:03:00      -55.477       11.147      -19.129       29.844       18.641       21.706      890.677      347.500      471.169        0.264        0.085       56.585       16.564        0.086      333.067        2.140      869.156
12/02/2021  00:04:00      -76.596       32.740      -26.565       15.101       15.212       11.616      228.030      231.416      134.931        0.412        0.030       83.300        6.685        0.006      333.077        2.156      869.153
12/02/2021  00:05:00      -74.704       10.110      -19.334       25.938       23.842       18.230      672.794      568.457      332.333        0.381        0.079       75.385       10.949        0.021      333.068        2.141      869.143
12/02/2021  00:06:00      -72.475       21.887      -23.078       19.704       14.110       15.577      388.245      199.084      242.654        0.355        0.041       75.708        2.879        0.001      333.222        2.395      869.127
12/02/2021  00:07:00      -44.701        9.840       -8.926       17.962       21.562       12.966      322.622      464.905      168.117        0.157        0.048       45.772        6.716        0.022      333.189        2.341      869.112
12/02/2021  00:08:00      -43.353       10.170      -14.638       20.107       23.390       12.458      404.280      547.092      155.208        0.165        0.055       44.529        9.339        0.044      333.209        2.375      869.108
12/02/2021  00:09:00      -43.087       -3.404      -12.037       19.380       21.555       16.609      375.572      464.599      275.874        0.156        0.056       43.221       11.925        0.076      333.189        2.343      869.095
12/02/2021  00:10:00      -81.259       23.690      -22.191       26.685       17.282       16.788      712.076      298.654      281.842        0.447        0.065       84.642       13.647        0.026      333.175        2.319      869.090
12/02/2021  00:11:00      -74.882       15.115      -25.661       29.925       24.730       14.730      895.525      611.555      216.967        0.411        0.086       76.393       10.417        0.019      333.147        2.272      869.090
12/02/2021  00:12:00      -74.605       20.402      -30.121       36.212       30.343       26.641     1311.343      920.674      709.767        0.492        0.147       77.345       19.812        0.066      333.139        2.260      869.085
12/02/2021  00:13:00      -72.375       26.550      -13.669       34.958       30.861       22.796     1222.068      952.377      519.679        0.441        0.135       77.091       15.930        0.043      333.109        2.211      869.075
12/02/2021  00:14:00      -54.667       -6.717      -14.771       39.407       26.210       22.834     1552.920      686.944      521.376        0.301        0.138       55.078       19.871        0.130      333.012        2.050      869.064
12/02/2021  00:15:00      -42.253       15.521      -15.185       41.372       19.659       24.570     1711.649      386.468      603.697        0.248        0.135       45.014       29.262        0.423      332.981        1.999      869.047
12/02/2021  00:16:00      -49.167       26.965      -13.393       28.400       24.688       18.156      806.570      609.482      329.638        0.253        0.087       56.076       14.093        0.063      333.020        2.062      869.037
12/02/2021  00:17:00      -57.641       22.291      -23.862       38.545       38.081       16.636     1485.704     1450.193      276.743        0.380        0.161       61.801       10.156        0.027      333.027        2.074      869.042
12/02/2021  00:18:00      -42.306       -3.555      -17.095       37.066       19.344       25.746     1373.885      374.172      662.870        0.225        0.121       42.456       24.068        0.321      332.965        1.972      869.047
12/02/2021  00:19:00      -55.232       12.729      -24.192       32.736       34.140       30.952     1071.613     1165.521      958.025        0.350        0.160       56.680       23.946        0.178      333.023        2.067      869.042
12/02/2021  00:20:00      -58.814        3.485      -24.511       47.783       30.044       30.589     2283.214      902.627      935.661        0.410        0.206       58.917       26.418        0.201      332.940        1.932      869.025
12/02/2021  00:21:00        8.137        2.000        3.855       20.527       27.375       23.953      421.368      749.365      573.737        0.091        0.087        8.379       17.286        4.256      332.910        1.880      869.023
12/02/2021  00:22:00      -53.484      -13.943      -10.627       43.789       22.716       21.449     1917.470      516.002      460.051        0.303        0.145       55.271       22.414        0.164      332.899        1.864      869.036
12/02/2021  00:23:00      -82.371       25.013      -14.396       22.101       20.601       15.505      488.474      424.407      240.401        0.439        0.058       86.085        9.760        0.013      332.956        1.958      869.036
12/02/2021  00:24:00      -76.933       12.799      -12.265       22.634       18.306       12.374      512.312      335.098      153.107        0.362        0.050       77.991        9.950        0.016      333.101        2.196      869.039
12/02/2021  00:25:00      -96.514       24.866      -13.867       20.585       12.580       10.037      423.757      158.251      100.751        0.540        0.034       99.666        7.577        0.006      333.072        2.151      869.039
12/02/2021  00:26:00     -110.479       28.863      -16.429       14.139       13.246       13.642      199.900      175.466      186.095        0.693        0.028      114.187        5.097        0.002      333.060        2.128      869.043
12/02/2021  00:27:00      -92.330       26.827      -13.910       22.461       19.665       15.608      504.496      386.698      243.620        0.529        0.057       96.149       12.747        0.018      332.962        1.966      869.029
12/02/2021  00:28:00      -87.581       26.898      -15.207       29.785       12.675       15.978      887.132      160.661      255.306        0.496        0.065       91.618       15.065        0.027      332.946        1.940      869.017
12/02/2021  00:29:00      -79.606        5.339      -15.554       30.551       22.801       16.733      933.367      519.881      280.004        0.417        0.087       79.785       14.776        0.034      333.083        2.166      869.005
12/02/2021  00:30:00      -87.050        8.275      -13.979       28.300       24.136       19.022      800.916      582.562      361.844        0.479        0.087       87.442       12.032        0.019      333.016        2.054      869.010
12/02/2021  00:31:00      -97.671       21.765      -22.089       21.638       15.688       17.999      468.184      246.111      323.960        0.577        0.052      100.067        6.659        0.004      332.906        1.875      869.006
12/02/2021  00:32:00     -110.939       48.759      -23.685       12.039       10.893        9.237      144.937      118.652       85.324        0.780        0.017      121.181        4.734        0.002      332.938        1.928      868.995
12/02/2021  00:33:00     -102.774       35.499      -26.168       20.209       25.018       15.812      408.403      625.895      250.015        0.690        0.064      108.732        8.478        0.006      332.909        1.880      868.996
12/02/2021  00:34:00      -84.807       22.050      -20.799       20.699       27.521       19.011      428.462      757.417      361.429        0.483        0.077       87.626        9.115        0.011      332.910        1.880      869.005
12/02/2021  00:35:00      -85.450       27.576      -22.076       18.699       18.867       13.764      349.659      355.980      189.453        0.472        0.045       89.789       12.935        0.021      332.962        1.965      869.005
12/02/2021  00:36:00      -49.773       16.244      -15.092       23.072       25.513       19.862      532.328      650.917      394.480        0.227        0.079       52.357       15.092        0.083      333.031        2.080      869.000
12/02/2021  00:37:00      -34.625        4.561      -11.028       29.016       25.949       22.157      841.954      673.360      490.951        0.167        0.100       34.924       14.407        0.170      332.977        1.992      869.003
12/02/2021  00:38:00      -28.062        6.643       -2.169       28.464       26.644       26.291      810.217      709.880      691.239        0.152        0.111       28.838       19.950        0.479      332.908        1.877      868.999
12/02/2021  00:39:00      -33.961       17.189       -5.541       42.054       19.951       14.722     1768.517      398.048      216.745        0.193        0.119       38.063       18.152        0.227      332.890        1.848      868.994
12/02/2021  00:40:00      -56.956        7.586       -8.180       27.539       26.625       17.300      758.394      708.905      299.278        0.257        0.088       57.459       13.983        0.059      333.022        2.066      868.993
12/02/2021  00:41:00      -39.288        7.291       -1.660       40.722       27.174       22.391     1658.291      738.408      501.372        0.225        0.145       39.959       19.899        0.248      332.877        1.827      869.005
12/02/2021  00:42:00      -81.519        4.933       -4.209       29.484       26.508       17.546      869.298      702.655      307.858        0.428        0.094       81.668       13.911        0.029      332.865        1.806      869.013
12/02/2021  00:43:00      -20.779        5.365       -6.738       33.682       15.844        9.736     1134.493      251.042       94.799        0.099        0.074       21.461        4.599        0.046      332.888        1.846      869.010
12/02/2021  00:44:00      -35.326       -8.845       -7.985       19.328       18.940       12.265      373.560      358.710      150.419        0.114        0.044       36.417        9.242        0.064      332.967        1.975      869.004
12/02/2021  00:45:00      -64.360       11.102       -5.633       30.560       20.561       15.174      933.929      422.765      230.257        0.294        0.079       65.311       13.994        0.046      332.977        1.991      869.003
12/02/2021  00:46:00      -85.243       22.619       -8.388       18.869       17.913       12.633      356.023      320.858      159.591        0.434        0.042       88.192        4.456        0.003      332.882        1.835      868.995
12/02/2021  00:47:00      -43.936       22.895      -12.840       16.524       10.110        7.146      273.046      102.210       51.061        0.152        0.021       49.543        5.472        0.012      332.958        1.959      868.979
12/02/2021  00:48:00      -10.303       -0.313       -9.220       10.621        8.128        6.312      112.800       66.064       39.846        0.020        0.011       10.308        5.285        0.263      332.877        1.827      868.960
12/02/2021  00:49:00      -71.523       18.090      -18.518       36.936       15.162       15.384     1364.273      229.872      236.663        0.381        0.092       73.775       15.241        0.043      332.996        2.023      868.959
12/02/2021  00:50:00      -50.117       -1.980       -8.109       27.784       28.851       18.233      771.928      832.358      332.457        0.226        0.097       50.156       12.935        0.067      332.932        1.919      868.946
12/02/2021  00:51:00      -44.290        7.595       -6.933       38.921       24.001       18.415     1514.812      576.060      339.127        0.225        0.121       44.937       15.606        0.121      332.907        1.874      868.930
12/02/2021  00:52:00      -75.827       18.168       -6.999       17.310       18.524       12.960      299.647      343.154      167.966        0.347        0.041       77.973        7.611        0.010      332.952        1.949      868.914
12/02/2021  00:53:00      -60.529       -6.904       -6.656       25.218       22.297       17.186      635.970      497.146      295.345        0.259        0.071       60.921       15.328        0.063      332.996        2.022      868.917
12/02/2021  00:54:00      -41.625        6.237       -2.893       28.319       18.102       15.410      801.983      327.681      237.457        0.157        0.068       42.090       10.789        0.066      332.909        1.880      868.928
12/02/2021  00:55:00      -53.104       -3.476       -8.427       31.505       19.502       16.328      992.546      380.316      266.619        0.227        0.082       53.217       14.766        0.077      332.919        1.896      868.934
12/02/2021  00:56:00      -66.057       10.508       -4.723       60.797       16.426       18.062     3696.304      269.825      326.249        0.439        0.215       66.887       22.251        0.111      332.850        1.781      868.936
12/02/2021  00:57:00      -83.127       25.143      -12.895       28.603       28.409       18.887      818.109      807.078      356.726        0.484        0.099       86.846       14.762        0.029      332.773        1.655      868.933
12/02/2021  00:58:00      -78.462       28.231      -10.689       14.420        9.755        9.641      207.923       95.150       92.940        0.373        0.020       83.387        4.614        0.003      332.779        1.664      868.930
12/02/2021  00:59:00      -33.666        9.498      -10.331       24.234       16.450       15.821      587.275      270.614      250.308        0.122        0.055       34.981       16.826        0.231      332.821        1.734      868.936
12/02/2021  01:00:00      -23.628        0.762       -8.246       23.121       15.800       10.884      534.583      249.630      118.454        0.076        0.045       23.641        9.112        0.149      332.762        1.636      868.938
12/02/2021  01:01:00      -66.826        1.648      -13.802       32.120       24.632       20.505     1031.675      606.750      420.462        0.336        0.103       66.847       20.070        0.090      332.779        1.663      868.941
12/02/2021  01:02:00     -110.429       20.767      -14.858       21.480       15.632       18.100      461.391      244.352      327.623        0.694        0.052      112.365       10.007        0.008      332.831        1.750      868.940
12/02/2021  01:03:00     -108.354       34.722      -11.653       17.471       12.246       11.975      305.237      149.953      143.395        0.684        0.030      113.782        7.173        0.004      332.735        1.591      868.925
12/02/2021  01:04:00     -106.159       27.989      -13.824       14.835       14.876       10.839      220.070      221.299      117.486        0.640        0.028      109.787        7.018        0.004      332.715        1.558      868.909
12/02/2021  01:05:00     -103.824       46.401      -12.191       11.208       14.172       10.101      125.614      200.847      102.031        0.675        0.021      113.721        5.545        0.002      332.631        1.419      868.906
12/02/2021  01:06:00      -86.941       29.373      -15.394       14.773       13.757        8.493      218.248      189.267       72.135        0.457        0.024       91.769        3.876        0.002      332.657        1.464      868.895
12/02/2021  01:07:00      -68.538       12.936      -12.063       18.282       16.013       12.461      334.219      256.426      155.277        0.288        0.037       69.748        8.651        0.015      332.695        1.527      868.879
12/02/2021  01:08:00      -57.136        9.732      -20.090       21.998       20.473       16.063      483.921      419.153      258.020        0.246        0.058       57.959        9.983        0.030      332.719        1.565      868.877
12/02/2021  01:09:00      -86.758       20.736      -23.629       17.468       15.594       12.754      305.121      243.187      162.666        0.461        0.036       89.201        6.332        0.005      332.668        1.480      868.867
12/02/2021  01:10:00      -67.751       21.919      -16.902       17.583       17.777       12.768      309.162      316.023      163.031        0.307        0.039       71.208        7.860        0.012      332.686        1.510      868.856
12/02/2021  01:11:00      -44.018       -8.118      -20.890       27.334       22.788       14.510      747.130      519.279      210.539        0.196        0.074       44.761       13.286        0.088      332.661        1.469      868.850
12/02/2021  01:12:00      -62.456       16.788      -19.833       31.261       18.781       17.815      977.230      352.726      317.375        0.311        0.082       64.672       16.438        0.065      332.649        1.449      868.845
12/02/2021  01:13:00      -87.079       21.020      -19.404       17.911       20.386       15.982      320.805      415.604      255.437        0.470        0.050       89.580        7.243        0.007      332.631        1.420      868.841
12/02/2021  01:14:00      -63.011       22.516      -10.692       15.977       22.678       12.101      255.272      514.272      146.437        0.275        0.046       66.913        4.554        0.005      332.691        1.519      868.842
12/02/2021  01:15:00      -38.823       16.334      -14.673       18.322       17.683       10.984      335.691      312.680      120.646        0.138        0.038       42.119        2.985        0.005      332.707        1.545      868.832
12/02/2021  01:16:00      -39.502       13.995      -10.348       10.751        8.573        7.647      115.590       73.493       58.483        0.106        0.012       41.908        3.204        0.006      333.044        2.102      868.824
12/02/2021  01:17:00      -40.796       10.407      -16.451       16.849       13.317        9.275      283.892      177.335       86.023        0.130        0.027       42.102        6.204        0.022      332.959        1.963      868.814
12/02/2021  01:18:00      -54.054       25.159      -13.483       11.260       10.780       10.766      126.778      116.215      115.904        0.205        0.018       59.622        5.744        0.009      332.979        1.995      868.813
12/02/2021  01:19:00      -57.992        6.852      -20.915        9.243        6.941        8.951       85.431       48.177       80.127        0.203        0.011       58.396        5.395        0.009      332.800        1.699      868.816
12/02/2021  01:20:00      -22.289       -0.315      -21.420       13.800        9.350        9.288      190.432       87.414       86.271        0.066        0.018       22.291        3.862        0.030      332.979        1.995      868.820
12/02/2021  01:21:00      -36.828        0.794      -17.348       13.908       14.110        9.727      193.434      199.090       94.615        0.107        0.024       36.836        4.721        0.016      332.856        1.791      868.815
12/02/2021  01:22:00      -62.473       26.994      -13.808       21.214       20.236       12.665      450.022      409.503      160.404        0.292        0.051       68.056        0.927        0.000      332.732        1.586      868.828
12/02/2021  01:23:00      -69.517       32.178      -19.839       10.852       10.162       11.258      117.767      103.267      126.752        0.330        0.017       76.603        4.015        0.003      332.620        1.401      868.849
12/02/2021  01:24:00      -82.469       29.049      -22.320       18.353       14.081       14.257      336.835      198.265      203.249        0.444        0.037       87.436        8.256        0.009      332.631        1.419      868.859
12/02/2021  01:25:00      -77.244       20.292      -19.965       21.279       14.926       12.012      452.807      222.781      144.288        0.380        0.041       79.865        4.567        0.003      332.606        1.379      868.870
12/02/2021  01:26:00      -83.393       33.654      -16.997       15.933       17.798       13.939      253.861      316.755      194.309        0.457        0.038       89.928        6.512        0.005      332.573        1.324      868.875
12/02/2021  01:27:00      -64.422       30.169      -22.464       13.489        9.625       10.337      181.952       92.640      106.845        0.297        0.019       71.136        4.947        0.005      332.590        1.353      868.878
12/02/2021  01:28:00      -67.048       26.508      -15.090       10.818       14.964       10.422      117.039      223.919      108.622        0.294        0.022       72.098        5.936        0.007      332.608        1.382      868.873
12/02/2021  01:29:00      -81.694       33.051      -26.094       13.940        9.586        9.132      194.315       91.886       83.401        0.441        0.018       88.126        3.134        0.001      332.539        1.268      868.866
12/02/2021  01:30:00      -63.587       40.443      -10.055       17.108       14.410        9.862      292.696      207.635       97.260        0.319        0.030       75.358        5.142        0.005      332.567        1.315      868.856
12/02/2021  01:31:00      -28.531       25.123      -11.982       11.019        8.548        7.526      121.420       73.076       56.644        0.092        0.013       38.016        5.606        0.022      332.981        1.999      868.850
12/02/2021  01:32:00       -8.354        1.659       -1.479       10.788       20.585        8.497      116.381      423.749       72.200        0.034        0.031        8.517        6.283        0.544      333.231        2.410      868.851
12/02/2021  01:33:00      -24.843      -13.661       -7.002       19.272       11.386       13.029      371.417      129.643      169.743        0.076        0.034       28.351       12.080        0.182      332.880        1.830      868.864
12/02/2021  01:34:00      -27.564       14.000      -10.613       24.954       12.609        9.546      622.696      158.994       91.122        0.097        0.044       30.915        7.601        0.060      332.654        1.458      868.833
12/02/2021  01:35:00      -49.686       21.738      -15.717       11.473        6.749        9.651      131.626       45.552       93.134        0.173        0.014       54.233        4.549        0.007      332.605        1.376      868.794
12/02/2021  01:36:00      -11.581       14.218       -5.124       15.319        8.397        6.430      234.670       70.507       41.347        0.035        0.017       18.338        4.471        0.059      332.961        1.966      868.792
12/02/2021  01:37:00        6.229       14.460       -6.124        7.957       10.082        4.915       63.314      101.638       24.160        0.024        0.009       15.745        2.888        0.034      333.058        2.125      868.789
12/02/2021  01:38:00      -16.659       -1.874      -14.404       11.319       10.751        9.877      128.119      115.591       97.561        0.041        0.017       16.764        7.846        0.219      332.911        1.881      868.799
12/02/2021  01:39:00      -19.378       -6.610       -9.274       15.645       13.770       14.101      244.759      189.614      198.849        0.057        0.032       20.474       12.020        0.345      332.732        1.587      868.807
12/02/2021  01:40:00      -12.138       -3.982      -12.769       13.156        8.154        8.191      173.080       66.485       67.098        0.032        0.015       12.774        8.595        0.453      332.930        1.914      868.807
12/02/2021  01:41:00      -43.120       15.938       -8.819       16.420       12.910        7.560      269.612      166.657       57.161        0.134        0.025       45.971        3.588        0.006      332.707        1.546      868.811
12/02/2021  01:42:00      -52.671       12.000      -16.309       11.816        5.246        6.047      139.622       27.517       36.565        0.169        0.010       54.020        2.603        0.002      332.633        1.423      868.810
12/02/2021  01:43:00      -57.499       13.064      -15.468       14.332        8.699        9.770      205.393       75.669       95.445        0.205        0.019       58.965        6.939        0.014      332.726        1.576      868.817
12/02/2021  01:44:00      -62.438       26.534      -12.542       15.868       11.095        8.814      251.799      123.104       77.682        0.261        0.023       67.842        5.597        0.007      332.617        1.396      868.835
12/02/2021  01:45:00      -53.940       22.243        1.034       31.248       24.573       16.532      976.451      603.824      273.303        0.263        0.093       58.347       15.748        0.073      332.475        1.163      868.840
12/02/2021  01:46:00      -80.602       42.216       -8.646       16.048       15.170       13.243      257.542      230.122      175.370        0.451        0.033       90.988       10.952        0.014      332.554        1.292      868.842
12/02/2021  01:47:00      -83.459       38.196       -7.369       22.996       16.207       13.147      528.815      262.651      172.844        0.472        0.048       91.784       12.640        0.019      332.459        1.135      868.834
12/02/2021  01:48:00     -109.405       23.286      -11.437       13.416       12.722       11.145      179.999      161.853      124.221        0.655        0.023      111.856        4.467        0.002      332.509        1.218      868.833
12/02/2021  01:49:00     -103.631       19.974      -11.686       30.879       16.518       15.203      953.527      272.847      231.136        0.637        0.073      105.539       11.770        0.012      332.514        1.226      868.837
12/02/2021  01:50:00     -118.125       40.859      -17.674       10.912        9.885        8.564      119.068       97.723       73.337        0.811        0.015      124.992        4.498        0.001      332.469        1.152      868.829
12/02/2021  01:51:00     -102.863       36.882      -15.499       15.173       12.419       12.541      230.218      154.225      157.266        0.636        0.027      109.275        7.172        0.004      332.380        1.004      868.820
12/02/2021  01:52:00      -84.672       23.524       -7.815       24.692       20.068       14.957      609.707      402.709      223.711        0.451        0.062       87.879       12.798        0.021      332.410        1.054      868.823
12/02/2021  01:53:00     -103.726       17.026      -17.340       10.152       10.417       12.305      103.062      108.512      151.415        0.586        0.018      105.114        4.929        0.002      332.426        1.081      868.839
12/02/2021  01:54:00      -90.634       16.418      -12.257       18.664       18.972       14.325      348.341      359.947      205.218        0.477        0.046       92.109        9.658        0.011      332.494        1.192      868.852
12/02/2021  01:55:00      -97.201       19.075      -13.746       24.058       19.712       15.756      578.772      388.571      248.265        0.561        0.061       99.055       13.077        0.017      332.401        1.039      868.860
12/02/2021  01:56:00      -94.641       15.380       -7.486       21.542       14.340       10.536      464.074      205.633      110.998        0.501        0.039       95.882        9.264        0.009      332.387        1.016      868.864
12/02/2021  01:57:00     -104.534       25.599      -14.768       11.514        7.685       11.067      132.578       59.055      122.476        0.606        0.016      107.623        4.479        0.002      332.411        1.056      868.856
12/02/2021  01:58:00     -107.493       31.245      -18.789       16.864       16.943       13.378      284.387      287.056      178.960        0.682        0.038      111.942       10.379        0.009      332.408        1.051      868.857
12/02/2021  01:59:00      -29.862       -3.344      -15.946       26.239       14.139       17.203      688.461      199.924      295.929        0.117        0.059       30.049       18.572        0.382      332.342        0.940      868.858
12/02/2021  02:00:00      -31.846       10.442      -11.888       20.065       13.398       15.985      402.598      179.513      255.528        0.105        0.042       33.514       13.197        0.155      332.439        1.100      868.867
12/02/2021  02:01:00      -67.481       16.938      -16.128       18.767       16.521       15.629      352.206      272.927      244.269        0.298        0.043       69.574        8.077        0.013      332.474        1.159      868.879
12/02/2021  02:02:00      -73.903        3.632      -22.230       31.510       24.546       18.068      992.881      602.491      326.455        0.395        0.096       73.992       11.202        0.023      332.330        0.922      868.897
12/02/2021  02:03:00      -30.716        2.180       -4.272       33.913       17.993       20.321     1150.065      323.741      412.957        0.143        0.094       30.793       16.280        0.280      332.314        0.894      868.908
12/02/2021  02:04:00      -19.407        2.842      -14.322       24.848       18.839       14.824      617.402      354.909      219.740        0.089        0.060       19.614       11.292        0.331      332.309        0.887      868.902
12/02/2021  02:05:00      -17.781        8.174       -8.863       16.109       17.130       15.411      259.493      293.433      237.495        0.063        0.040       19.570        6.089        0.097      332.419        1.070      868.883
12/02/2021  02:06:00      -38.558       24.368      -19.920       12.252       12.057        9.119      150.122      145.383       83.161        0.143        0.019       45.613        6.895        0.023      332.409        1.053      868.859
12/02/2021  02:07:00      -24.420       43.285      -11.693       16.936       26.602       10.766      286.834      707.661      115.916        0.186        0.056       49.698       12.286        0.061      332.745        1.608      868.846
12/02/2021  02:08:00      -38.893       -7.677      -18.210       21.786       16.138       18.135      474.636      260.422      328.861        0.148        0.053       39.643        9.352        0.056      332.337        0.934      868.848
12/02/2021  02:09:00      -61.550        0.124      -11.971       30.460       23.698       16.960      927.787      561.578      287.654        0.285        0.089       61.550       18.128        0.087      332.239        0.772      868.870
12/02/2021  02:10:00      -45.115        0.767      -10.764       35.500       23.999       18.972     1260.219      575.931      359.945        0.217        0.110       45.121       17.233        0.146      332.218        0.736      868.882
12/02/2021  02:11:00      -87.477       19.218      -21.539       12.614       16.263       11.565      159.105      264.479      133.753        0.452        0.028       89.563        6.650        0.006      332.203        0.712      868.877
12/02/2021  02:12:00      -84.278       22.027      -25.885       20.259       15.804       14.794      410.443      249.762      218.852        0.457        0.044       87.109        5.183        0.004      332.298        0.868      868.867
12/02/2021  02:13:00      -74.673       39.533      -24.214       15.528       18.354       15.557      241.103      336.867      242.025        0.427        0.041       84.492        9.076        0.012      332.279        0.839      868.853
12/02/2021  02:14:00      -64.086       32.864      -19.458       17.943       15.855       13.304      321.963      251.379      176.989        0.316        0.038       72.021        5.640        0.006      332.264        0.813      868.862
12/02/2021  02:15:00      -31.157       15.305      -20.507       19.877        9.931       15.688      395.110       98.619      246.103        0.118        0.037       34.713       12.907        0.138      332.303        0.877      868.882
12/02/2021  02:16:00      -56.729       18.310      -19.615       17.375       17.428       13.441      301.878      303.740      180.657        0.236        0.039       59.611        8.003        0.018      332.325        0.913      868.901
12/02/2021  02:17:00      -87.661       18.478      -22.009       35.977       22.593       15.491     1294.374      510.437      239.963        0.528        0.102       89.587       10.963        0.015      332.238        0.770      868.897
12/02/2021  02:18:00     -107.416       33.478      -34.762       18.607       19.105       18.389      346.217      365.000      338.148        0.746        0.052      112.512       10.376        0.009      332.232        0.760      868.879
12/02/2021  02:19:00      -85.966       33.477      -20.891       21.290       18.579       13.817      453.263      345.174      190.909        0.497        0.049       92.254        6.085        0.004      332.165        0.650      868.870
12/02/2021  02:20:00      -82.725       33.633      -19.435       19.370       13.754       16.028      375.189      189.164      256.893        0.459        0.041       89.301       10.161        0.013      332.133        0.595      868.871
12/02/2021  02:21:00      -75.575       45.676      -19.855       14.135       12.062       12.710      199.808      145.483      161.556        0.435        0.025       88.306        8.742        0.010      332.381        1.006      868.874
12/02/2021  02:22:00      -52.120       23.628      -12.045       24.441       22.492       11.324      597.366      505.909      128.244        0.233        0.062       57.225        9.542        0.028      332.479        1.169      868.872
12/02/2021  02:23:00      -51.457        9.114      -14.705       32.601       24.397       17.669     1062.802      595.210      312.201        0.246        0.099       52.258       17.459        0.112      332.325        0.913      868.875
12/02/2021  02:24:00      -57.602       -1.010       -7.199       35.358       26.957       23.011     1250.218      726.704      529.528        0.294        0.125       57.611       15.918        0.076      332.281        0.842      868.881
12/02/2021  02:25:00      -91.576       12.515      -29.361       21.668       18.536       18.717      469.506      343.590      350.315        0.528        0.058       92.427       13.073        0.020      332.248        0.787      868.883
12/02/2021  02:26:00      -60.442       16.584      -21.916       34.425       20.617       19.414     1185.087      425.052      376.905        0.320        0.099       62.676       17.311        0.076      332.214        0.730      868.870
12/02/2021  02:27:00      -84.234       22.129      -21.783       26.355       28.453       20.686      694.596      809.566      427.907        0.500        0.097       87.092       12.198        0.020      332.254        0.796      868.857
12/02/2021  02:28:00      -84.116       16.385      -12.525       30.965       22.127       23.156      958.847      489.610      536.205        0.474        0.099       85.697       17.899        0.044      332.249        0.789      868.857
12/02/2021  02:29:00      -74.521        6.697      -16.305       49.961       28.742       21.525     2496.097      826.105      463.337        0.482        0.189       74.821       25.061        0.112      332.163        0.646      868.859
12/02/2021  02:30:00      -87.857       31.078      -10.259       24.488       22.051       15.313      599.651      486.257      234.494        0.505        0.066       93.191        8.232        0.008      332.171        0.659      868.846
12/02/2021  02:31:00      -70.106       24.148      -20.006       19.930       13.481       14.191      397.204      181.734      201.382        0.334        0.039       74.148        9.168        0.015      332.149        0.623      868.826
12/02/2021  02:32:00      -43.677        0.681      -22.420       27.357       26.862       20.979      748.412      721.578      440.120        0.216        0.096       43.682       10.594        0.059      332.261        0.807      868.814
12/02/2021  02:33:00      -25.651       -2.387      -11.042       28.628       12.756       16.750      819.573      162.728      280.550        0.102        0.063       25.762       15.471        0.361      332.168        0.654      868.816
12/02/2021  02:34:00      -71.830       -4.082      -15.155       38.323       27.488       21.106     1468.677      755.598      445.448        0.404        0.133       71.946       10.400        0.021      332.130        0.593      868.834
12/02/2021  02:35:00      -58.088       -6.710       -9.277       49.027       34.193       27.132     2403.602     1169.157      736.153        0.391        0.215       58.474       24.963        0.182      332.086        0.518      868.846
12/02/2021  02:36:00      -68.042        8.957       -9.522       50.887       33.255       25.374     2589.465     1105.869      643.832        0.457        0.217       68.629       26.577        0.150      332.113        0.564      868.836
12/02/2021  02:37:00      -21.506       -2.120       -0.487       38.781       30.805       22.676     1503.948      948.921      514.223        0.172        0.148       21.610       19.558        0.819      332.091        0.527      868.830
12/02/2021  02:38:00      -30.678        3.972       -3.582       45.031       33.106       20.673     2027.776     1095.984      427.356        0.226        0.178       30.934       20.534        0.441      332.180        0.674      868.838
12/02/2021  02:39:00      -36.800       -6.870       -7.269       43.950       29.080       19.651     1931.564      845.621      386.156        0.231        0.158       37.435       12.271        0.107      332.239        0.771      868.852
12/02/2021  02:40:00      -60.058       13.003      -20.223       18.801       15.579       14.207      353.494      242.715      201.838        0.249        0.040       61.449        9.086        0.022      332.169        0.656      868.858
12/02/2021  02:41:00      -69.775        1.293      -14.172       29.510       18.986       12.589      870.827      360.482      158.483        0.323        0.069       69.787       10.378        0.022      332.254        0.796      868.853
12/02/2021  02:42:00      -89.920       24.755       -4.943       32.145       19.910       15.631     1033.290      396.403      244.322        0.520        0.084       93.265       14.023        0.023      332.300        0.872      868.839
12/02/2021  02:43:00      -49.612        6.255       -4.130       32.800       25.595       19.647     1075.868      655.098      385.988        0.232        0.106       50.005       16.673        0.111      332.251        0.793      868.835
12/02/2021  02:44:00      -58.457       22.458       -5.270       30.079       14.811       13.577      904.755      219.376      184.346        0.263        0.065       62.623       14.294        0.052      332.234        0.765      868.827
12/02/2021  02:45:00      -83.982       35.294       -9.396       22.667       21.648       17.610      513.775      468.624      310.097        0.484        0.065       91.097       15.672        0.030      332.231        0.757      868.815
12/02/2021  02:46:00     -126.567       31.133      -14.425       29.134       22.769       17.443      848.802      518.439      304.265        0.943        0.084      130.340       12.328        0.009      332.292        0.861      868.804
12/02/2021  02:47:00      -34.298        1.931        3.986       64.043       20.652       28.071     4101.462      426.514      787.967        0.325        0.266       34.353       30.078        0.767      332.272        0.827      868.784
12/02/2021  02:48:00        8.166      -21.869        3.984       21.264       28.784       19.539      452.163      828.499      381.778        0.111        0.083       23.344        9.788        0.176      332.271        0.825      868.789
12/02/2021  02:49:00       -3.816        6.795       -9.451       40.624       36.555       19.496     1650.339     1336.284      380.101        0.176        0.168        7.793       15.241        3.825      332.241        0.775      868.787
12/02/2021  02:50:00      -61.473        0.304       -7.960       73.770       50.430       27.276     5441.995     2543.139      744.005        0.628        0.436       61.474       23.051        0.141      332.189        0.690      868.780
12/02/2021  02:51:00      -63.965       16.598       -3.978       61.195       55.222       33.344     3744.847     3049.471     1111.854        0.614        0.395       66.084       29.459        0.199      332.096        0.535      868.778
12/02/2021  02:52:00      -99.929        6.401      -10.890       67.032       40.380       23.216     4493.236     1630.561      538.979        0.840        0.333      100.134       10.437        0.011      332.149        0.623      868.769
12/02/2021  02:53:00      -99.733       25.311       -6.992       43.964       36.556       20.859     1932.795     1336.372      435.110        0.717        0.185      102.895       19.394        0.036      332.093        0.532      868.767
12/02/2021  02:54:00      -32.050        7.225       -5.414       40.217       32.145       25.463     1617.442     1033.296      648.364        0.220        0.165       32.854       23.685        0.520      332.140        0.608      868.777
12/02/2021  02:55:00      -40.907       -7.935       -2.451       45.575       23.972       23.322     2077.062      574.636      543.934        0.247        0.160       41.670       23.029        0.305      332.113        0.565      868.787
12/02/2021  02:56:00      -51.224       10.624       -2.464       35.001       26.016       22.823     1225.037      676.810      520.885        0.258        0.121       52.314       14.510        0.077      332.098        0.540      868.787
12/02/2021  02:57:00      -39.860       -4.878       -1.451       32.210       25.546       18.860     1037.458      652.578      355.685        0.183        0.102       40.158       17.046        0.180      332.152        0.627      868.772
12/02/2021  02:58:00      -12.784       -0.307       -2.745       28.684       26.854       20.242      822.798      721.139      409.738        0.106        0.098       12.787       16.255        1.616      332.126        0.585      868.762
12/02/2021  02:59:00       20.813        8.628        5.949       17.700       14.238       18.740      313.308      202.734      351.199        0.070        0.043       22.531       14.841        0.434      332.072        0.497      868.753
12/02/2021  03:00:00        1.732      -19.612      -11.684       24.678       32.750       22.477      609.004     1072.595      505.220        0.136        0.109       19.688       14.028        0.508      332.106        0.551      868.751
12/02/2021  03:01:00        3.047      -12.118      -12.314       29.580       27.398       18.101      874.994      750.669      327.633        0.113        0.098       12.495       13.216        1.119      332.109        0.558      868.757
12/02/2021  03:02:00      -32.024       19.073       -4.327       53.240       27.663       17.445     2834.472      765.234      304.333        0.266        0.195       37.274       12.662        0.115      332.174        0.663      868.745
12/02/2021  03:03:00     -109.436       28.970      -18.588       30.178       30.569       21.348      910.691      934.465      455.728        0.773        0.115      113.206        6.489        0.003      332.112        0.561      868.715
12/02/2021  03:04:00      -46.287        8.014      -11.786       71.037       28.578       27.153     5046.220      816.685      737.282        0.447        0.330       46.975       31.800        0.458      332.123        0.580      868.678
12/02/2021  03:05:00       -2.571       -5.735       -6.344       20.009       17.817       15.322      400.344      317.444      234.779        0.052        0.048        6.285        6.286        1.000      332.169        0.656      868.667
12/02/2021  03:06:00      -20.092      -12.044       -5.433       35.013       21.918       18.052     1225.885      480.396      325.865        0.130        0.102       23.425       16.970        0.525      332.162        0.645      868.682
12/02/2021  03:07:00      -63.326        7.104       -4.531       59.153       29.326       17.434     3499.118      860.026      303.930        0.437        0.233       63.723       21.547        0.114      332.083        0.514      868.704
12/02/2021  03:08:00      -33.331       12.326       -7.201       58.271       27.669       28.475     3395.563      765.555      810.842        0.314        0.249       35.537       26.126        0.540      332.039        0.441      868.712
12/02/2021  03:09:00      -23.635        8.501       -9.146       34.034       40.397       35.008     1158.327     1631.906     1225.585        0.236        0.201       25.118       23.902        0.906      332.134        0.599      868.708
12/02/2021  03:10:00      -34.530      -21.409       -6.793       49.187       48.094       23.853     2419.398     2313.077      568.959        0.350        0.265       40.629       14.353        0.125      332.188        0.687      868.689
12/02/2021  03:11:00      -96.073       -0.060       -6.567       41.118       30.985       27.483     1690.681      960.081      755.326        0.634        0.170       96.073       18.428        0.037      332.111        0.560      868.664
12/02/2021  03:12:00     -107.235       27.587      -21.576       44.559       22.813       15.263     1985.510      520.454      232.969        0.773        0.137      110.726       10.133        0.008      332.107        0.553      868.655
12/02/2021  03:13:00      -97.437       18.620      -14.204       20.359       20.916       17.811      414.492      437.461      317.245        0.561        0.058       99.200        9.639        0.009      332.178        0.671      868.646
12/02/2021  03:14:00     -119.710       28.730      -10.710       22.058       26.470       13.193      486.561      700.648      174.051        0.832        0.068      123.109        6.865        0.003      332.260        0.807      868.648
12/02/2021  03:15:00      -54.346       -1.527      -19.072       49.189       23.665       20.157     2419.554      560.045      406.310        0.335        0.169       54.367       20.150        0.137      332.203        0.713      868.643
12/02/2021  03:16:00      -47.579       -1.799      -14.967       37.962       21.216       19.598     1441.092      450.133      384.068        0.238        0.114       47.613       19.316        0.165      332.204        0.714      868.644
12/02/2021  03:17:00      -57.262       16.629       -3.031       33.376       20.714       17.123     1113.925      429.075      293.192        0.270        0.092       59.628       14.072        0.056      332.172        0.660      868.631
12/02/2021  03:18:00      -87.248       41.523      -10.681       24.654       16.048       11.284      607.800      257.548      127.320        0.522        0.050       96.625       11.047        0.013      332.097        0.537      868.618
12/02/2021  03:19:00      -78.569       28.223      -13.187       29.656       15.950       13.622      879.492      254.416      185.561        0.423        0.066       83.485       14.413        0.030      332.165        0.649      868.606
12/02/2021  03:20:00      -79.508       27.330      -14.055       20.774       13.780       12.940      431.577      189.885      167.439        0.403        0.039       84.074       11.659        0.019      332.219        0.740      868.593
12/02/2021  03:21:00      -57.216       22.161      -11.970       16.323       15.883        9.494      266.442      252.272       90.140        0.226        0.030       61.358        7.621        0.015      332.215        0.731      868.584
12/02/2021  03:22:00      -79.150       35.773      -17.906       19.429       28.410       12.098      377.498      807.108      146.374        0.460        0.067       86.859        7.988        0.008      332.180        0.674      868.577
12/02/2021  03:23:00      -52.323        5.613       -5.703       32.400       28.345       20.733     1049.782      803.425      429.840        0.254        0.114       52.623       13.155        0.062      332.176        0.666      868.562
12/02/2021  03:24:00      -40.080       11.021       -3.900       27.134       31.377       21.363      736.236      984.517      456.395        0.196        0.109       41.568       12.541        0.091      332.150        0.626      868.553
12/02/2021  03:25:00      -14.723        4.087       -9.434       19.790       23.601       22.760      391.637      557.026      518.013        0.089        0.073       15.279       15.809        1.070      332.238        0.769      868.545
12/02/2021  03:26:00      -81.341       15.271      -12.271       35.698       14.088       14.891     1274.324      198.463      221.756        0.435        0.085       82.762       19.759        0.057      332.069        0.491      868.553
12/02/2021  03:27:00      -27.722       -3.138        1.647       33.287       18.506       15.777     1108.052      342.472      248.912        0.124        0.085       27.899       12.512        0.201      332.032        0.430      868.565
12/02/2021  03:28:00      -52.493        3.772       -8.242       28.984       23.032       17.787      840.046      530.469      316.377        0.226        0.084       52.629       11.494        0.048      332.126        0.586      868.576
12/02/2021  03:29:00      -65.143       15.446       -6.060       27.433       19.644       17.505      752.552      385.905      306.421        0.298        0.072       66.949       16.008        0.057      332.035        0.435      868.579
12/02/2021  03:30:00      -52.458       25.812       -3.716       17.323       14.300       17.112      300.100      204.501      292.822        0.211        0.040       58.465       12.796        0.048      331.990        0.363      868.577
12/02/2021  03:31:00      -15.062       -4.624      -12.543        7.729       10.902        8.293       59.743      118.864       68.767        0.033        0.012       15.756        2.127        0.018      332.088        0.522      868.582
12/02/2021  03:32:00      -28.983      -17.267       -7.356       13.111       13.479       15.308      171.888      181.681      234.320        0.089        0.029       33.737        5.836        0.030      332.258        0.803      868.590
12/02/2021  03:33:00      -46.633        8.417       -8.388       25.114       18.082       12.864      630.711      326.975      165.491        0.172        0.056       47.386        4.647        0.010      332.270        0.822      868.584
12/02/2021  03:34:00      -88.638       39.051       -7.863       17.769       11.866       13.673      315.739      140.805      186.943        0.504        0.032       96.859        7.439        0.006      332.154        0.631      868.563
12/02/2021  03:35:00      -85.799       54.311      -12.128       11.815       13.163       10.146      139.586      173.263      102.939        0.544        0.021      101.543        7.003        0.005      332.149        0.623      868.537
12/02/2021  03:36:00      -78.805       31.235      -13.371       22.788       15.976       16.018      519.305      255.223      256.574        0.420        0.052       84.769       11.762        0.019      332.095        0.534      868.521
12/02/2021  03:37:00      -90.646       18.969      -15.313       25.015       19.250       19.661      625.738      370.555      386.545        0.510        0.069       92.609       18.327        0.039      332.093        0.531      868.518
12/02/2021  03:38:00      -71.310       24.585      -13.586       16.958        8.723       10.865      287.582       76.092      118.058        0.318        0.024       75.429        5.072        0.005      332.050        0.461      868.517
12/02/2021  03:39:00      -50.826        1.131       -5.743       19.460       18.962       19.613      378.695      359.553      384.677        0.187        0.056       50.838       15.236        0.090      332.034        0.433      868.503
12/02/2021  03:40:00       -1.588       -8.017       -8.356       33.905       16.245       12.902     1149.523      263.907      166.453        0.086        0.079        8.173       14.053        2.957      332.071        0.494      868.496
12/02/2021  03:41:00        1.608       -4.099      -13.402        6.216       10.795        8.209       38.634      116.535       67.385        0.021        0.011        4.403        6.082        1.908      331.985        0.354      868.503
12/02/2021  03:42:00       -1.605       -7.009       -2.978        5.965        8.309        8.879       35.577       69.044       78.833        0.012        0.009        7.191        4.847        0.454      331.968        0.324      868.517
12/02/2021  03:43:00       -7.842       -6.206       -7.601        7.697        6.582        7.287       59.251       43.317       53.106        0.016        0.008       10.000        4.570        0.209      332.074        0.500      868.511
12/02/2021  03:44:00       -3.061       -0.469       -4.507        7.773        6.707        6.030       60.426       44.988       36.355        0.009        0.007        3.097        2.699        0.760      332.080        0.510      868.491
12/02/2021  03:45:00      -43.097       16.028       -9.447       10.438       11.727       10.860      108.950      137.518      117.935        0.128        0.018       45.981        7.351        0.026      332.002        0.382      868.483
12/02/2021  03:46:00      -66.013       22.673      -16.362       13.572        8.573        9.820      184.199       73.492       96.426        0.275        0.018       69.798        6.328        0.008      331.881        0.184      868.494
12/02/2021  03:47:00      -37.022        3.341      -10.385       27.002       15.989       11.857      729.087      255.651      140.584        0.131        0.056       37.173        7.046        0.036      331.973        0.334      868.512
12/02/2021  03:48:00      -15.918       -8.433       -4.593       14.462       13.962       13.169      209.136      194.926      173.430        0.046        0.029       18.014        7.682        0.182      332.028        0.424      868.519
12/02/2021  03:49:00      -30.919       11.715       -1.466       22.851       17.335        8.194      522.169      300.495       67.145        0.099        0.044       33.063       11.209        0.115      332.033        0.433      868.512
12/02/2021  03:50:00      -70.692       31.856      -14.645        8.600        8.860        6.911       73.959       78.503       47.761        0.321        0.010       77.539        4.134        0.003      332.032        0.431      868.509
12/02/2021  03:51:00      -83.757       35.804      -12.657       20.316       16.756       14.779      412.754      280.758      218.406        0.468        0.046       91.089       12.051        0.018      331.968        0.326      868.507
12/02/2021  03:52:00      -96.457       31.575      -15.057       11.627       13.045        8.969      135.187      170.184       80.439        0.546        0.019      101.493        5.421        0.003      331.884        0.187      868.496
12/02/2021  03:53:00      -85.929       19.931       -9.304       19.486       14.413       11.412      379.715      207.744      130.225        0.429        0.036       88.211        5.266        0.004      331.851        0.134      868.501
12/02/2021  03:54:00      -68.851       -1.082      -17.903       20.433       16.343       14.515      417.490      267.100      210.695        0.298        0.045       68.859       11.043        0.026      331.854        0.138      868.517
12/02/2021  03:55:00      -95.898       20.326      -13.406       16.959       19.918       11.014      287.593      396.707      121.305        0.530        0.040       98.028        7.725        0.006      331.821        0.084      868.523
12/02/2021  03:56:00      -82.020       26.419      -11.212       19.067       14.535       13.006      363.532      211.261      169.158        0.415        0.037       86.170        9.305        0.012      331.874        0.172      868.511
12/02/2021  03:57:00      -71.612       39.742       -9.188       13.184       14.793       11.399      173.810      218.832      129.935        0.366        0.026       81.901        6.006        0.005      331.869        0.162      868.489
12/02/2021  03:58:00      -91.642       23.092      -14.937       13.815       11.482        9.170      190.847      131.848       84.086        0.478        0.020       94.507        4.137        0.002      331.942        0.283      868.482
12/02/2021  03:59:00      -59.917       13.312      -10.757       36.499       21.359       17.807     1332.206      456.204      317.074        0.299        0.105       61.378       14.955        0.059      331.941        0.282      868.490
12/02/2021  04:00:00      -31.611        2.979      -13.961       25.054       22.594       18.549      627.699      510.469      344.065        0.134        0.074       31.751       12.406        0.153      331.875        0.173      868.493
12/02/2021  04:01:00      -47.741        2.369      -15.626       23.095       20.686       14.043      533.379      427.904      197.199        0.184        0.058       47.800       11.123        0.054      331.839        0.114      868.485
12/02/2021  04:02:00      -11.264       -0.004       -8.738       19.133       20.687       11.027      366.078      427.960      121.595        0.056        0.046       11.264        9.485        0.709      331.739       -0.052      868.492
12/02/2021  04:03:00      -60.006       11.833       -8.669       34.587       13.381       11.023     1196.243      179.040      121.507        0.266        0.075       61.161        6.240        0.010      331.766       -0.005      868.501
12/02/2021  04:04:00      -64.515       23.038      -15.671       11.810       10.368        8.613      139.479      107.501       74.181        0.263        0.016       68.505        4.993        0.005      331.796        0.044      868.500
12/02/2021  04:05:00     -102.601       26.591      -21.075       15.509       14.246        9.722      240.541      202.954       94.525        0.611        0.027      105.991        7.515        0.005      331.787        0.030      868.491
12/02/2021  04:06:00      -87.848       -3.119      -10.228       28.790       28.033       18.898      828.843      785.841      357.134        0.490        0.099       87.904       11.710        0.018      331.721       -0.082      868.499
12/02/2021  04:07:00      -64.394        2.310      -14.631       25.592       23.387       19.766      654.933      546.929      390.678        0.298        0.080       64.436       14.111        0.048      331.680       -0.148      868.498
12/02/2021  04:08:00      -61.372       25.937      -10.733       16.930       14.781       15.658      286.618      218.476      245.173        0.265        0.038       66.628       11.625        0.030      331.686       -0.139      868.496
12/02/2021  04:09:00      -82.257       50.002      -11.424       17.118       10.813       14.238      293.012      116.917      202.729        0.500        0.031       96.262       12.314        0.016      331.685       -0.139      868.481
12/02/2021  04:10:00      -81.920       36.617      -25.129       18.154       16.947       18.250      329.554      287.211      333.065        0.482        0.047       89.731        8.361        0.009      331.743       -0.044      868.459
12/02/2021  04:11:00      -57.476       10.518      -13.452       22.781       17.716       14.562      518.954      313.839      212.039        0.232        0.052       58.431        7.770        0.018      331.808        0.064      868.433
12/02/2021  04:12:00      -23.981        3.509       -4.917       23.803       21.081       14.642      566.606      444.425      214.401        0.092        0.061       24.236        7.713        0.101      331.922        0.250      868.416
12/02/2021  04:13:00      -41.138       12.741      -10.374       35.771       12.000       15.686     1279.589      143.996      246.059        0.182        0.083       43.066       13.433        0.097      331.970        0.329      868.422
12/02/2021  04:14:00      -57.011       18.332      -11.635       25.228       17.136        9.780      636.454      293.641       95.642        0.237        0.051       59.885        8.022        0.018      331.860        0.149      868.431
12/02/2021  04:15:00      -18.676      -10.810      -12.506       19.187       14.840       12.320      368.151      220.236      151.794        0.068        0.037       21.579       10.120        0.220      331.866        0.158      868.435
12/02/2021  04:16:00       -3.285        6.086        1.504       20.133       20.723       16.395      405.336      429.449      268.804        0.058        0.055        6.916       13.297        3.697      331.729       -0.067      868.432
12/02/2021  04:17:00      -90.272       46.189      -12.650       15.237       15.225       13.475      232.161      231.796      181.583        0.554        0.032      101.403        8.177        0.007      331.658       -0.184      868.421
12/02/2021  04:18:00      -64.882       20.120      -20.151       17.780       15.743       16.173      316.145      247.850      261.573        0.292        0.041       67.930       11.946        0.031      331.687       -0.135      868.415
12/02/2021  04:19:00      -42.911       -3.275       -8.858       35.099       22.264       17.861     1231.956      495.681      319.006        0.199        0.102       43.036       18.334        0.182      331.715       -0.090      868.422
12/02/2021  04:20:00        8.009        5.204        6.098       11.562       14.195       15.010      133.674      201.505      225.302        0.034        0.028        9.551       10.346        1.174      331.671       -0.162      868.426
12/02/2021  04:21:00       14.836       -4.428        4.919       12.206       14.184       18.074      148.990      201.194      326.663        0.047        0.034       15.483       11.134        0.517      331.717       -0.087      868.423
12/02/2021  04:22:00       -8.985        5.321       -2.758       17.588       11.239       11.722      309.322      126.317      137.401        0.034        0.029       10.443       11.712        1.258      331.653       -0.193      868.405
12/02/2021  04:23:00      -34.617       15.285      -14.153       15.665       15.846       14.377      245.397      251.094      206.694        0.117        0.035       37.841        7.307        0.037      331.713       -0.093      868.402
12/02/2021  04:24:00      -34.210        6.631       -7.002       20.274       16.408       16.368      411.027      269.213      267.913        0.111        0.047       34.847       13.943        0.160      331.675       -0.157      868.401
12/02/2021  04:25:00      -28.099        5.536      -13.123       14.338       17.841       11.661      205.567      318.294      135.981        0.083        0.033       28.640        8.189        0.082      331.606       -0.269      868.406
12/02/2021  04:26:00      -10.634       -2.484       -4.039       24.356       18.273       10.711      593.237      333.920      114.718        0.059        0.052       10.920        3.892        0.127      331.620       -0.246      868.403
12/02/2021  04:27:00      -23.448       -6.481      -13.665       12.993       13.733       10.653      168.808      188.602      113.495        0.062        0.024       24.327        5.927        0.059      331.763       -0.011      868.399
12/02/2021  04:28:00      -34.162       15.316       -9.961        9.068        8.556        6.588       82.230       73.200       43.402        0.085        0.010       37.438        4.589        0.015      331.746       -0.039      868.390
12/02/2021  04:29:00      -39.823        8.957      -10.100        9.560       12.274        8.364       91.389      150.656       69.954        0.104        0.016       40.818        5.643        0.019      331.801        0.051      868.386
12/02/2021  04:30:00      -49.867        9.405      -17.214       12.857       11.743        8.060      165.307      137.889       64.960        0.162        0.018       50.746        7.160        0.020      331.810        0.066      868.398
12/02/2021  04:31:00      -22.906        2.257       -5.598       19.035       17.516       12.140      362.312      306.822      147.369        0.069        0.041       23.017        7.912        0.118      331.873        0.169      868.415
12/02/2021  04:32:00      -25.181       17.155       -8.845       12.508        9.378       10.591      156.451       87.938      112.160        0.068        0.018       30.470        8.300        0.074      331.837        0.112      868.416
12/02/2021  04:33:00      -37.993       10.842      -11.501       11.833       14.890        6.962      140.021      221.711       48.471        0.105        0.021       39.510        2.099        0.003      331.929        0.260      868.408
12/02/2021  04:34:00      -27.105        2.855       -4.078       23.251       12.302        9.945      540.619      151.338       98.895        0.078        0.040       27.255        3.485        0.016      331.872        0.169      868.402
12/02/2021  04:35:00      -33.424       15.041      -11.040        7.408        8.934        7.464       54.878       79.810       55.707        0.083        0.010       36.652        4.235        0.013      331.869        0.161      868.385
12/02/2021  04:36:00      -47.690       10.508       -7.867       21.739       15.036       10.562      472.583      226.079      111.546        0.163        0.041       48.834        5.269        0.012      331.904        0.222      868.369
12/02/2021  04:37:00       -8.680       -1.467       -5.568       19.370        9.791        9.314      375.205       95.869       86.748        0.033        0.028        8.803        7.110        0.652      331.714       -0.092      868.372
12/02/2021  04:38:00      -11.583      -12.337       -9.985       10.695       14.752        9.261      114.379      217.623       85.773        0.040        0.021       16.923        2.364        0.020      331.695       -0.123      868.403
12/02/2021  04:39:00      -28.489        2.994       -8.157       17.613       22.212        9.193      310.203      493.359       84.506        0.089        0.044       28.646        4.628        0.026      331.826        0.094      868.421
12/02/2021  04:40:00      -58.578       12.260      -11.429       30.632       21.257       14.990      938.336      451.865      224.710        0.266        0.081       59.848       10.077        0.028      331.704       -0.111      868.416
12/02/2021  04:41:00      -46.928       10.182       -6.419       28.110       14.651       12.169      790.168      214.644      148.090        0.175        0.058       48.020        9.165        0.036      331.695       -0.123      868.407
12/02/2021  04:42:00      -25.777        8.123       -7.511       17.484       13.141        6.506      305.693      172.687       42.327        0.065        0.026       27.027        4.210        0.024      331.794        0.039      868.401
12/02/2021  04:43:00       -2.701        3.136      -12.719        8.549       10.633        7.512       73.081      113.070       56.428        0.021        0.012        4.138        3.361        0.660      331.851        0.134      868.422
12/02/2021  04:44:00       -7.806        0.448        0.254        8.546       10.391        7.225       73.039      107.979       52.195        0.015        0.012        7.819        5.971        0.583      331.875        0.174      868.435
12/02/2021  04:45:00      -32.909       25.638       -2.282        9.010        9.334        6.553       81.188       87.119       42.943        0.098        0.011       41.717        4.260        0.010      331.969        0.328      868.422
12/02/2021  04:46:00      -27.191       25.223       -7.110        9.834        6.384        6.566       96.700       40.760       43.111        0.080        0.009       37.088        3.203        0.007      331.922        0.248      868.392
12/02/2021  04:47:00      -16.437      -11.323       -2.143       14.189       19.385       10.033      201.321      375.777      100.662        0.054        0.034       19.960        4.512        0.051      331.844        0.121      868.390
12/02/2021  04:48:00      -19.694      -16.210      -14.604        8.981       14.785        8.022       80.656      218.599       64.347        0.061        0.018       25.508        4.820        0.036      331.859        0.148      868.420
12/02/2021  04:49:00       -0.052        7.081       -0.016       20.657       12.607       12.333      426.719      158.931      152.099        0.039        0.037        7.081       13.662        3.723      331.887        0.192      868.448
12/02/2021  04:50:00      -42.488       12.699       -2.787       27.026       19.122       17.607      730.410      365.666      309.998        0.169        0.070       44.345        8.807        0.039      331.736       -0.056      868.452
12/02/2021  04:51:00      -55.182       11.228       -9.572       27.834       31.904       10.811      774.735     1017.851      116.883        0.259        0.095       56.313        8.767        0.024      331.670       -0.166      868.447
12/02/2021  04:52:00      -67.767       17.033       -4.466       24.474       19.420       16.352      598.953      377.129      267.393        0.307        0.062       69.875       13.198        0.036      331.609       -0.266      868.438
12/02/2021  04:53:00      -62.839       30.306       -7.374       20.745       12.986       11.553      430.342      168.648      133.460        0.283        0.037       69.765       10.984        0.025      331.501       -0.444      868.424
12/02/2021  04:54:00      -23.011       20.129       -6.968       20.686       14.869        8.333      427.896      221.093       69.444        0.085        0.036       30.572        5.280        0.030      331.622       -0.244      868.424
12/02/2021  04:55:00       -4.419       17.216       -5.106        7.380        9.882        6.525       54.466       97.658       42.570        0.027        0.010       17.774        4.848        0.074      331.764       -0.009      868.417
12/02/2021  04:56:00      -29.007       14.977       -8.637       14.780       16.229        8.937      218.462      263.375       79.876        0.085        0.028       32.646        7.068        0.047      331.897        0.209      868.419
12/02/2021  04:57:00      -26.486        0.887       -0.114       16.291       16.485       12.574      265.394      271.753      158.103        0.070        0.035       26.500       11.473        0.187      331.803        0.054      868.414
12/02/2021  04:58:00      -18.011        2.913       -8.988       19.672       12.169       11.406      387.002      148.092      130.099        0.054        0.033       18.245        8.051        0.195      331.700       -0.115      868.387
12/02/2021  04:59:00        4.030       -0.585       -2.058       17.329        8.449        6.407      300.285       71.392       41.049        0.022        0.021        4.072        3.748        0.847      331.787        0.029      868.370
12/02/2021  05:00:00      -39.603       18.782      -10.811       20.737       11.360       12.826      430.006      129.044      164.513        0.138        0.036       43.831       10.573        0.058      331.744       -0.042      868.363
12/02/2021  05:01:00      -47.863       26.938      -10.127       14.147       12.372        9.617      200.150      153.060       92.485        0.178        0.022       54.923        4.051        0.005      331.821        0.085      868.361
12/02/2021  05:02:00       -7.480        4.580       -7.763        9.123        7.958        9.574       83.225       63.334       91.669        0.019        0.012        8.771        4.654        0.282      331.739       -0.051      868.363
12/02/2021  05:03:00       10.392       -7.742       -4.880        8.998        7.237        7.701       80.964       52.367       59.301        0.019        0.010       12.959        5.270        0.165      331.754       -0.027      868.360
12/02/2021  05:04:00        0.483      -11.220       -4.733        8.800       11.266        6.994       77.448      126.917       48.917        0.020        0.013       11.230        3.147        0.079      331.978        0.343      868.343
12/02/2021  05:05:00       -7.235       -3.505      -11.907        9.444       14.922        5.961       89.191      222.677       35.538        0.028        0.017        8.039        1.788        0.049      331.839        0.113      868.318
12/02/2021  05:06:00      -10.267       -9.781       -8.754       14.328       10.910       11.205      205.298      119.031      125.558        0.036        0.022       14.180        5.169        0.133      331.700       -0.115      868.311
12/02/2021  05:07:00      -20.272      -16.491      -14.440       10.437       10.319        7.154      108.938      106.472       51.183        0.058        0.013       26.132        4.874        0.035      331.607       -0.267      868.310
12/02/2021  05:08:00       -6.953        6.699       -4.362       11.016        9.373        7.105      121.361       87.862       50.488        0.019        0.013        9.655        5.322        0.304      331.627       -0.235      868.297
12/02/2021  05:09:00      -29.905       22.805       -9.170       10.741        7.388        6.594      115.371       54.588       43.485        0.086        0.011       37.608        4.084        0.012      331.526       -0.404      868.299
12/02/2021  05:10:00      -19.512       13.877      -16.064       10.722        7.674        8.107      114.960       58.895       65.717        0.054        0.012       23.943        2.886        0.015      331.634       -0.222      868.304
12/02/2021  05:11:00      -53.483       32.602      -10.217       12.679       10.932        8.892      160.758      119.512       79.063        0.219        0.018       62.636        3.976        0.004      331.509       -0.430      868.291
12/02/2021  05:12:00      -55.611       25.957       -8.103       19.396       15.930       13.162      376.220      253.777      173.227        0.232        0.040       61.370        9.695        0.025      331.451       -0.526      868.261
12/02/2021  05:13:00      -13.411       20.768       -5.278       13.006       11.032        7.464      169.163      121.711       55.706        0.049        0.017       24.722        5.258        0.045      331.509       -0.431      868.246
12/02/2021  05:14:00        8.635       19.880       -6.403       15.633       15.522       12.458      244.379      240.923      155.194        0.058        0.032       21.675        7.564        0.122      331.683       -0.144      868.235
12/02/2021  05:15:00        9.574       15.801      -13.796        7.978       17.624       12.703       63.641      310.621      161.367        0.053        0.027       18.475        9.226        0.249      331.744       -0.042      868.237
12/02/2021  05:16:00        7.818        8.137       -0.691       14.789       12.963       11.694      218.719      168.051      136.750        0.033        0.026       11.285        8.027        0.506      331.737       -0.055      868.235
12/02/2021  05:17:00       32.231       20.913       -4.405       20.874       22.084       15.188      435.717      487.681      230.690        0.132        0.058       38.421       13.556        0.124      331.747       -0.038      868.225
12/02/2021  05:18:00       18.339       38.616       -3.583       18.314       23.493       12.203      335.413      551.919      148.904        0.144        0.052       42.750        6.745        0.025      331.817        0.076      868.230
12/02/2021  05:19:00       21.512       48.468       -2.601       14.857       19.261       12.263      220.717      370.993      150.384        0.178        0.037       53.027        6.355        0.014      331.817        0.078      868.237
12/02/2021  05:20:00       41.762       24.701       -3.979       16.817       16.900       12.470      282.803      285.606      155.490        0.155        0.036       48.520       10.347        0.045      331.797        0.046      868.248
12/02/2021  05:21:00       37.797       40.533      -12.511       18.145       12.787       11.652      329.226      163.499      135.772        0.193        0.031       55.422        8.063        0.021      331.796        0.042      868.245
12/02/2021  05:22:00        8.997       30.203       -1.174       11.122       15.490        8.989      123.696      239.952       80.809        0.072        0.022       31.515        7.278        0.053      331.877        0.175      868.241
12/02/2021  05:23:00        7.546       35.418       -0.015       30.897       20.564       15.260      954.655      422.877      232.881        0.146        0.081       36.213        8.899        0.060      331.829        0.096      868.229
12/02/2021  05:24:00      -15.486       10.763      -15.142        9.095        7.747       10.769       82.717       60.017      115.977        0.042        0.013       18.859        4.962        0.069      331.802        0.053      868.205
12/02/2021  05:25:00       -6.491       16.811       -7.643       16.892       12.436       11.217      285.340      154.662      125.832        0.047        0.028       18.020        7.563        0.176      331.771        0.002      868.181
12/02/2021  05:26:00       18.884       52.410       -7.403       16.801       17.423        9.835      282.276      303.565       96.723        0.192        0.034       55.708        6.663        0.014      332.033        0.432      868.173
12/02/2021  05:27:00      -13.292        2.193       -5.301       19.433       17.265        9.316      377.635      298.075       86.780        0.049        0.038       13.471       11.110        0.680      331.890        0.196      868.175
12/02/2021  05:28:00      -50.759       24.116       -9.497       12.438       10.581        8.757      154.701      111.951       76.683        0.180        0.017       56.197        6.962        0.015      331.587       -0.302      868.166
12/02/2021  05:29:00      -21.276       18.487      -14.959       19.224       11.782        9.633      369.551      138.821       92.789        0.081        0.030       28.186        9.462        0.113      331.640       -0.213      868.163
12/02/2021  05:30:00      -39.787       36.325      -10.721       11.589       14.980        9.306      134.302      224.387       86.607        0.173        0.022       53.875        5.085        0.009      331.505       -0.437      868.159
12/02/2021  05:31:00      -52.991       52.411      -13.165       11.536        7.935        8.909      133.082       62.965       79.376        0.300        0.014       74.532        4.921        0.004      331.436       -0.549      868.152
12/02/2021  05:32:00      -59.671       24.788      -13.954       12.845       15.307       14.774      164.988      234.309      218.275        0.249        0.031       64.615        7.116        0.012      331.658       -0.184      868.163
12/02/2021  05:33:00      -40.268       19.518      -15.465       16.784       16.562       14.135      281.708      274.306      199.794        0.150        0.038       44.749        9.968        0.050      331.554       -0.356      868.173
12/02/2021  05:34:00      -52.099       18.854      -14.307       12.705        9.495       10.940      161.416       90.154      119.681        0.182        0.019       55.406        6.087        0.012      331.660       -0.181      868.175
12/02/2021  05:35:00      -32.252       18.179       -9.630        7.338        8.850        6.651       53.848       78.323       44.235        0.082        0.009       37.023        4.569        0.015      331.666       -0.172      868.181
12/02/2021  05:36:00      -11.286       -3.109       -7.909        7.844       10.262       10.410       61.531      105.317      108.365        0.024        0.014       11.706        5.553        0.225      331.707       -0.104      868.222
12/02/2021  05:37:00      -14.968       -6.179       -0.740       10.711       12.697       12.509      114.729      161.218      156.475        0.035        0.022       16.193        8.051        0.247      331.755       -0.024      868.236
12/02/2021  05:38:00      -34.641       17.589      -12.656       12.291       15.713        9.985      151.070      246.900       99.706        0.108        0.025       38.850        7.557        0.038      331.675       -0.155      868.224
12/02/2021  05:39:00      -31.188       17.506       -9.567       13.142        9.206        7.767      172.709       84.742       60.327        0.084        0.016       35.765        5.555        0.024      331.584       -0.307      868.215
12/02/2021  05:40:00      -23.710      -15.950       -8.857       14.204       21.217       10.906      201.751      450.151      118.942        0.083        0.039       28.575        5.545        0.038      331.583       -0.307      868.238
12/02/2021  05:41:00      -19.953      -22.698      -14.537        8.584        6.106        7.501       73.681       37.288       56.265        0.065        0.008       30.221        3.919        0.017      331.600       -0.279      868.265
12/02/2021  05:42:00       -7.992       -4.765       -0.864       15.575       13.407        8.597      242.569      179.747       73.905        0.029        0.025        9.305        7.974        0.734      331.762       -0.014      868.273
12/02/2021  05:43:00      -13.193        6.333       -6.097       13.640        6.019        9.133      186.058       36.232       83.409        0.028        0.015       14.634        6.373        0.190      331.670       -0.163      868.272
12/02/2021  05:44:00      -19.152        5.834       -8.897       12.978       12.075        9.652      168.428      145.811       93.157        0.044        0.020       20.021        6.858        0.117      331.752       -0.030      868.285
12/02/2021  05:45:00      -20.923        2.917       -4.385       11.926        9.039        7.605      142.229       81.702       57.837        0.037        0.014       21.126        6.900        0.107      331.703       -0.109      868.322
12/02/2021  05:46:00       -8.854       -2.073       -5.360       12.474       18.770       11.044      155.608      352.302      121.968        0.037        0.031        9.093        3.786        0.173      331.665       -0.174      868.337
12/02/2021  05:47:00      -14.241      -13.172      -13.324       12.963       10.248       11.324      168.041      105.022      128.228        0.048        0.020       19.398        8.170        0.177      331.668       -0.171      868.323
12/02/2021  05:48:00      -31.078       13.684      -10.666       18.400       17.221        8.995      338.560      296.576       80.914        0.099        0.036       33.957        5.507        0.026      331.754       -0.027      868.316
12/02/2021  05:49:00      -70.521       29.598      -14.546       16.515       12.450       11.758      272.749      155.003      138.255        0.331        0.028       76.481        7.818        0.010      331.559       -0.349      868.321
12/02/2021  05:50:00      -54.690       25.359      -21.276       14.373       12.395        9.093      206.571      153.647       82.677        0.226        0.022       60.283        7.859        0.017      331.474       -0.487      868.336
12/02/2021  05:51:00      -51.143       14.721      -12.598       10.184       12.124       10.680      103.709      146.983      114.070        0.168        0.018       53.219        6.268        0.014      331.463       -0.505      868.321
12/02/2021  05:52:00       -1.257        2.616       -1.403       18.805       11.671       13.540      353.610      136.215      183.325        0.034        0.034        2.902        8.645        8.872      331.375       -0.650      868.314
12/02/2021  05:53:00      -34.937       17.169      -14.483       15.189        9.322        9.599      230.694       86.900       92.146        0.107        0.020       38.928       10.318        0.070      331.401       -0.608      868.317
12/02/2021  05:54:00      -42.146       26.583      -17.416        9.408        5.900        7.932       88.505       34.804       62.915        0.149        0.009       49.829        1.947        0.002      331.435       -0.551      868.323
12/02/2021  05:55:00      -48.595       17.425      -14.564       10.240        8.423        6.189      104.864       70.948       38.299        0.155        0.011       51.624        4.927        0.009      331.318       -0.745      868.320
12/02/2021  05:56:00      -25.884       14.240      -12.598       10.395        8.619        7.117      108.064       74.280       50.651        0.063        0.012       29.543        3.623        0.015      331.303       -0.769      868.319
12/02/2021  05:57:00      -23.818      -11.184       -1.800       11.294       14.899       13.390      127.545      221.979      179.304        0.061        0.026       26.313        7.041        0.072      331.424       -0.572      868.319
12/02/2021  05:58:00      -29.556       10.019      -14.272       19.574       16.489       14.189      383.132      271.895      201.321        0.102        0.043       31.208        4.216        0.018      331.471       -0.494      868.332
12/02/2021  05:59:00      -48.647       17.102      -12.851       24.394       16.361       13.029      595.075      267.695      169.754        0.193        0.052       51.565        5.616        0.012      331.451       -0.525      868.347
12/02/2021  06:00:00      -49.905       12.022      -10.896       14.984       22.922       11.594      224.506      525.437      134.422        0.182        0.044       51.332        8.868        0.030      331.448       -0.530      868.357
12/02/2021  06:01:00      -41.865        7.555       -7.468       19.867       14.683       10.394      394.688      215.599      108.034        0.129        0.036       42.541        7.578        0.032      331.474       -0.488      868.357
12/02/2021  06:02:00      -43.417       10.016       -2.996       20.431       16.672       11.146      417.413      277.963      124.229        0.141        0.041       44.557       10.149        0.052      331.454       -0.520      868.355
12/02/2021  06:03:00      -46.381       18.460      -10.302       15.827       10.501        8.545      250.481      110.277       73.016        0.152        0.022       49.920        5.184        0.011      331.420       -0.575      868.346
12/02/2021  06:04:00      -15.390        2.828      -13.110       12.844       14.448        7.312      164.962      208.737       53.463        0.042        0.021       15.648        4.939        0.100      331.516       -0.418      868.338
12/02/2021  06:05:00       -9.393       -2.836       -4.003       11.247        8.203        9.050      126.500       67.286       81.901        0.019        0.014        9.811        4.916        0.251      331.602       -0.277      868.334
12/02/2021  06:06:00      -17.761        5.201       -1.763       15.197       15.321        8.574      230.962      234.740       73.521        0.044        0.027       18.507        3.715        0.040      331.566       -0.337      868.333
12/02/2021  06:07:00      -34.114        3.003      -13.209       20.816       16.313       11.984      433.324      266.125      143.623        0.109        0.042       34.245        7.268        0.045      331.470       -0.495      868.319
12/02/2021  06:08:00      -39.251       -3.697       -7.768       22.336       18.874       14.651      498.888      356.210      214.657        0.134        0.053       39.425        7.194        0.033      331.464       -0.505      868.311
12/02/2021  06:09:00       -7.832        9.336        2.282       21.803       18.054       19.418      475.388      325.952      377.043        0.067        0.059       12.186       15.524        1.623      331.309       -0.760      868.301
12/02/2021  06:10:00      -84.974       24.644       -7.649       27.142       19.334       17.230      736.679      373.815      296.868        0.465        0.070       88.475       12.493        0.020      331.271       -0.821      868.289
12/02/2021  06:11:00      -39.862        9.615       -9.140       32.345       25.057       19.060     1046.224      627.840      363.270        0.190        0.102       41.006       18.243        0.198      331.288       -0.793      868.286
12/02/2021  06:12:00      -85.271       30.769      -12.053       21.383       13.022       12.796      457.217      169.582      163.748        0.458        0.040       90.653        7.526        0.007      331.209       -0.922      868.289
12/02/2021  06:13:00      -94.592       25.052      -17.841       17.922       17.624       13.495      321.205      310.620      182.120        0.535        0.041       97.853        7.780        0.006      331.267       -0.828      868.296
12/02/2021  06:14:00     -115.589       55.176      -13.742       28.969       21.940       15.544      839.210      481.385      241.610        0.908        0.078      128.082        8.481        0.004      331.167       -0.993      868.297
12/02/2021  06:15:00      -99.705       35.033      -11.687       25.593       26.450       13.212      654.995      699.595      174.554        0.642        0.076      105.680        3.580        0.001      331.221       -0.903      868.294
12/02/2021  06:16:00      -87.818       22.136      -18.240       18.791       17.653       11.227      353.101      311.641      126.047        0.466        0.040       90.565        8.600        0.009      331.235       -0.879      868.292
12/02/2021  06:17:00      -63.412       26.657      -20.997       13.067       14.060       11.791      170.750      197.675      139.031        0.284        0.025       68.787        7.459        0.012      331.377       -0.648      868.287
12/02/2021  06:18:00      -68.171       25.745      -18.037       11.976       14.178       10.821      143.424      201.023      117.089        0.305        0.023       72.870        6.652        0.008      331.346       -0.696      868.273
12/02/2021  06:19:00      -83.292       35.027      -15.802       20.224       15.465       13.683      409.025      239.156      187.218        0.462        0.042       90.357        8.451        0.009      331.323       -0.736      868.259
12/02/2021  06:20:00      -90.110       31.093      -16.499       17.459       17.585       12.191      304.802      309.230      148.629        0.506        0.038       95.324        7.845        0.007      331.367       -0.663      868.247
12/02/2021  06:21:00      -94.570       40.961      -18.352       21.728       12.876       11.740      472.089      165.782      137.831        0.587        0.039      103.060        5.192        0.003      331.317       -0.744      868.243
12/02/2021  06:22:00      -76.010       18.700      -23.061       23.987       19.074       18.037      575.377      363.816      325.327        0.396        0.063       78.277        9.955        0.016      331.300       -0.772      868.246
12/02/2021  06:23:00      -79.123       30.051      -11.736       36.564       22.231       15.437     1336.922      494.219      238.294        0.468        0.103       84.637       14.745        0.030      331.279       -0.808      868.252
12/02/2021  06:24:00     -118.603       41.539      -15.903       17.465       16.496       10.663      305.041      272.132      113.695        0.837        0.035      125.667        8.014        0.004      331.251       -0.853      868.259
12/02/2021  06:25:00     -110.948       24.562      -19.325       23.157       22.729       16.262      536.266      516.607      264.457        0.730        0.066      113.634       10.638        0.009      331.322       -0.738      868.261
12/02/2021  06:26:00      -79.728       13.132      -13.065       33.839       29.646       20.012     1145.075      878.903      400.485        0.456        0.121       80.802       17.562        0.047      331.327       -0.729      868.253
12/02/2021  06:27:00      -73.061       34.014      -20.380       15.124       15.979       10.604      228.750      255.332      112.437        0.375        0.030       80.591        3.317        0.002      331.399       -0.611      868.248
12/02/2021  06:28:00      -61.218       33.543      -17.241       20.150       16.853       19.157      406.016      284.027      366.989        0.311        0.053       69.806       10.301        0.022      331.688       -0.135      868.248
12/02/2021  06:29:00      -46.809       28.922      -10.686       28.958       15.421       19.898      838.555      237.815      395.924        0.231        0.074       55.023       17.442        0.100      331.618       -0.252      868.257
12/02/2021  06:30:00      -54.824       21.790      -12.907       17.598       19.360       11.457      309.678      374.791      131.253        0.223        0.041       58.996        4.901        0.007      331.563       -0.341      868.271
12/02/2021  06:31:00      -25.876       10.742       -7.560       27.347        8.433       13.862      747.858       71.117      192.167        0.093        0.051       28.017       14.481        0.267      331.488       -0.466      868.269
12/02/2021  06:32:00      -11.981       11.241       -0.108       28.386       17.508       16.272      805.757      306.544      264.768        0.082        0.069       16.428       18.393        1.254      331.525       -0.405      868.275
12/02/2021  06:33:00      -76.541       17.245      -10.325       56.223       21.383       15.136     3160.988      457.237      229.091        0.505        0.192       78.459        7.937        0.010      331.475       -0.487      868.285
12/02/2021  06:34:00      -64.065       11.195      -11.248       28.027       12.238       13.034      785.531      149.761      169.891        0.273        0.055       65.035       13.030        0.040      331.512       -0.427      868.297
12/02/2021  06:35:00      -33.793       -0.321      -12.436       15.958       10.383       14.499      254.673      107.816      210.235        0.093        0.029       33.794       11.023        0.106      331.628       -0.233      868.301
12/02/2021  06:36:00      -24.957        0.224       -9.653       23.086       13.827       11.346      532.975      191.186      128.723        0.078        0.043       24.958        9.030        0.131      331.685       -0.140      868.308
12/02/2021  06:37:00      -32.955       10.544       -8.891       14.782       12.010        8.747      218.503      144.250       76.517        0.086        0.022       34.601        4.130        0.014      331.670       -0.164      868.299
12/02/2021  06:38:00      -41.023       20.838      -10.151       12.040        7.924        9.603      144.957       62.785       92.215        0.126        0.015       46.012        2.479        0.003      331.776        0.011      868.296
12/02/2021  06:39:00      -52.219       16.504       -8.190       12.561       14.491        7.486      157.784      209.976       56.037        0.174        0.021       54.765        3.404        0.004      331.817        0.079      868.298
12/02/2021  06:40:00      -21.150        6.749       -4.523       10.608        9.275        8.163      112.532       86.029       66.634        0.039        0.013       22.200        2.987        0.018      331.802        0.052      868.290
12/02/2021  06:41:00      -16.036       16.326       -3.863        9.172        6.197        7.125       84.117       38.405       50.759        0.036        0.009       22.885        1.689        0.005      331.828        0.094      868.284
12/02/2021  06:42:00      -25.717       17.876        4.262        8.424       12.661        9.431       70.957      160.301       88.935        0.066        0.016       31.319        6.479        0.043      332.010        0.396      868.281
12/02/2021  06:43:00       -5.878        5.953       -0.283       13.373        7.206        5.482      178.842       51.929       30.052        0.017        0.013        8.366        5.865        0.492      331.900        0.214      868.269
12/02/2021  06:44:00      -30.111       13.259      -12.272       10.008        7.571        5.222      100.169       57.323       27.268        0.071        0.009       32.901        2.987        0.008      331.857        0.144      868.268
12/02/2021  06:45:00      -40.773        5.380       -5.540       12.091       12.837        7.591      146.192      164.783       57.629        0.105        0.018       41.126        3.644        0.008      331.766       -0.007      868.277
12/02/2021  06:46:00      -21.383        2.884      -10.864       15.047       13.104        8.188      226.414      171.704       67.044        0.052        0.023       21.577        6.502        0.091      331.690       -0.131      868.287
12/02/2021  06:47:00      -14.370       -6.385       -1.288       10.823       10.661       13.995      117.148      113.653      195.850        0.034        0.021       15.724        7.742        0.242      331.771        0.002      868.288
12/02/2021  06:48:00      -40.545       10.991       -8.536       21.583       21.572       17.165      465.812      465.350      294.627        0.153        0.061       42.008       13.866        0.109      331.728       -0.070      868.290
12/02/2021  06:49:00      -61.461        9.761      -24.364       26.973       21.160       21.911      727.549      447.762      480.082        0.306        0.083       62.232       16.078        0.067      331.529       -0.398      868.289
12/02/2021  06:50:00      -83.814       21.569      -16.056       22.554       20.336       15.025      508.690      413.546      225.744        0.445        0.057       86.545        9.889        0.013      331.502       -0.442      868.297
12/02/2021  06:51:00     -103.031       43.176       -7.944       26.094       19.073       13.887      680.900      363.776      192.856        0.689        0.062      111.712       13.038        0.014      331.368       -0.662      868.291
12/02/2021  06:52:00     -118.415       50.164      -15.408       18.262       15.044       14.314      333.506      226.310      204.884        0.877        0.038      128.602        9.550        0.006      331.376       -0.649      868.289
12/02/2021  06:53:00     -108.225       44.363      -18.211       23.759       21.132       13.247      564.489      446.556      175.476        0.760        0.059      116.965        7.503        0.004      331.359       -0.676      868.288
12/02/2021  06:54:00      -85.000       40.276       -9.692       25.919       15.250       14.955      671.816      232.570      223.654        0.503        0.056       94.060       12.323        0.017      331.333       -0.719      868.290
12/02/2021  06:55:00      -81.107       41.972      -11.953       18.689       15.401       14.178      349.279      237.186      201.025        0.464        0.039       91.324        9.279        0.010      331.357       -0.679      868.299
12/02/2021  06:56:00      -81.603       44.101      -13.044       10.006        9.454        8.730      100.116       89.381       76.209        0.452        0.013       92.757        5.713        0.004      331.403       -0.603      868.304
12/02/2021  06:57:00      -78.120       34.667       -9.010       14.613       11.835       11.268      213.554      140.069      126.967        0.393        0.024       85.466        9.117        0.011      331.489       -0.462      868.306
12/02/2021  06:58:00      -98.325       43.596      -10.846       18.511       12.476        9.099      342.661      155.656       82.793        0.613        0.029      107.557        2.745        0.001      331.556       -0.354      868.313
12/02/2021  06:59:00      -67.587       25.461      -13.230       20.176       20.073       11.833      407.069      402.908      140.013        0.317        0.047       72.224        6.938        0.009      331.517       -0.419      868.322
12/02/2021  07:00:00      -22.230        6.417       -9.768       15.464       17.090       11.733      239.129      292.054      137.656        0.065        0.033       23.138        9.464        0.167      331.551       -0.362      868.338
12/02/2021  07:01:00       -2.163       -9.035        7.268       13.444       20.106       14.953      180.728      404.240      223.601        0.047        0.040        9.291       10.963        1.392      331.593       -0.293      868.357
12/02/2021  07:02:00      -49.821       13.617      -11.465       16.014       16.828        9.667      256.459      283.195       93.448        0.172        0.032       51.648        8.509        0.027      331.623       -0.243      868.379
12/02/2021  07:03:00      -44.826       -5.546      -17.379       25.925       23.228       14.408      672.089      539.548      207.603        0.188        0.071       45.168        4.937        0.012      331.594       -0.290      868.392
12/02/2021  07:04:00      -38.014        7.257       -3.991       37.278       28.512       14.289     1389.635      812.929      204.178        0.196        0.120       38.701       18.422        0.227      331.549       -0.365      868.405
12/02/2021  07:05:00      -69.449       34.892       -3.969       17.962       14.421       13.867      322.649      207.963      192.294        0.339        0.036       77.722       11.210        0.021      331.483       -0.474      868.397
12/02/2021  07:06:00      -82.539       26.272       -9.864       20.845       19.370       11.453      434.517      375.199      131.165        0.427        0.047       86.619        7.858        0.008      331.524       -0.406      868.403
12/02/2021  07:07:00      -61.294       11.112      -13.971       38.656       18.821       19.306     1494.316      354.214      372.711        0.315        0.111       62.293       22.364        0.129      331.531       -0.395      868.412
12/02/2021  07:08:00      -20.724        7.136       -1.412       26.739       26.477       17.499      714.959      701.037      306.230        0.110        0.086       21.918       14.476        0.436      331.462       -0.508      868.412
12/02/2021  07:09:00      -30.672        1.843       -9.883       34.019       31.246       24.596     1157.272      976.301      604.954        0.189        0.137       30.727       23.017        0.561      331.424       -0.572      868.409
12/02/2021  07:10:00      -33.171       14.370       -6.018       54.191       32.983       25.322     2936.700     1087.887      641.205        0.300        0.233       36.150       28.520        0.622      331.370       -0.659      868.406
12/02/2021  07:11:00        7.519      -15.920      -16.732       20.325       21.383       24.569      413.114      457.229      603.645        0.103        0.074       17.606       12.111        0.473      331.376       -0.649      868.413
12/02/2021  07:12:00      -56.878        0.777      -15.335       57.935       34.816       16.489     3356.414     1212.123      271.888        0.415        0.242       56.883       19.148        0.113      331.365       -0.668      868.420
12/02/2021  07:13:00       -4.251       -1.191       -0.891       20.193       28.709       19.651      407.750      824.232      386.181        0.082        0.081        4.415       16.154       13.388      331.452       -0.525      868.418
12/02/2021  07:14:00       -3.517       -0.264      -12.573       19.480       20.067       19.308      379.468      402.692      372.803        0.066        0.058        3.527       11.566       10.754      331.374       -0.653      868.425
12/02/2021  07:15:00        1.402      -15.643      -13.215       20.179       14.770       17.923      407.211      218.139      321.241        0.068        0.047       15.705       10.053        0.410      331.555       -0.354      868.430
12/02/2021  07:16:00        1.517      -21.255       -5.020       32.039       31.884       21.060     1026.495     1016.582      443.511        0.148        0.124       21.310        9.279        0.190      331.433       -0.557      868.438
12/02/2021  07:17:00      -22.884      -12.291      -11.705       30.683       39.940       18.706      941.434     1595.180      349.925        0.185        0.144       25.976       19.126        0.542      331.471       -0.492      868.425
12/02/2021  07:18:00       -8.930       -6.075        4.413       18.179       16.840       24.572      330.463      283.578      603.792        0.068        0.061       10.800       14.743        1.863      331.494       -0.455      868.427
12/02/2021  07:19:00       -3.922      -26.218      -14.059       13.394       20.963       18.546      179.388      439.467      343.972        0.093        0.048       26.510       13.501        0.259      331.534       -0.389      868.422
12/02/2021  07:20:00      -25.886        5.194      -16.747       20.588       19.354       14.258      423.846      374.572      203.299        0.099        0.050       26.402       10.765        0.166      331.537       -0.385      868.418
12/02/2021  07:21:00      -11.300       -4.006        8.080       45.434       21.957       18.592     2064.241      482.112      345.650        0.155        0.145       11.989       20.217        2.844      331.630       -0.231      868.415
12/02/2021  07:22:00       -9.659       -5.269       -1.876       34.960       18.006       17.757     1222.172      324.222      315.298        0.099        0.093       11.003       18.482        2.822      331.630       -0.230      868.415
12/02/2021  07:23:00       -9.168       -7.624       -9.086       23.369       17.809       20.364      546.120      317.154      414.704        0.075        0.064       11.924       17.114        2.060      331.629       -0.233      868.418
12/02/2021  07:24:00      -15.843       11.803       -6.784       19.092       16.889       12.817      364.504      285.245      164.280        0.063        0.041       19.757        6.394        0.105      331.601       -0.278      868.430
12/02/2021  07:25:00      -58.859       23.228      -14.687       18.896       14.231       14.098      357.057      202.509      198.745        0.249        0.038       63.277        7.166        0.013      331.567       -0.335      868.439
12/02/2021  07:26:00      -57.239        3.197      -25.658       13.241       16.040       14.835      175.319      257.297      220.089        0.230        0.033       57.328        7.833        0.019      331.593       -0.292      868.447
12/02/2021  07:27:00      -51.569       22.034       -8.834       28.000       19.265       11.139      783.976      371.149      124.085        0.225        0.064       56.079        9.299        0.027      331.619       -0.248      868.437
12/02/2021  07:28:00      -53.500       21.458       -9.562       16.456       11.734       11.249      270.797      137.697      126.529        0.197        0.027       57.643       10.984        0.036      331.646       -0.205      868.440
12/02/2021  07:29:00      -54.016       25.486      -12.285        8.769       10.504        5.907       76.895      110.334       34.890        0.197        0.011       59.726        5.320        0.008      331.773        0.005      868.440
12/02/2021  07:30:00      -43.611       24.359      -11.990        9.868       10.122        8.429       97.368      102.449       71.044        0.145        0.014       49.953        3.361        0.005      331.793        0.037      868.433
12/02/2021  07:31:00      -30.428       -1.625       -9.886       16.649       20.537       11.359      277.193      421.765      129.020        0.093        0.041       30.471       10.139        0.111      331.871        0.167      868.428
12/02/2021  07:32:00      -34.632       -2.211       -6.482       11.993       13.893       11.309      143.830      193.015      127.901        0.086        0.023       34.702        6.250        0.032      331.873        0.170      868.413
12/02/2021  07:33:00       -8.759       -2.718       -3.959       22.326       14.745       12.015      498.452      217.425      144.363        0.048        0.043        9.171        5.495        0.359      331.985        0.353      868.411
12/02/2021  07:34:00      -26.125       -0.820       -4.024       26.514       18.734       14.510      702.981      350.960      210.554        0.098        0.063       26.138       12.415        0.226      331.961        0.314      868.417
12/02/2021  07:35:00       -9.076        4.986       -1.597       11.954       17.886       12.727      142.889      319.916      161.980        0.037        0.031       10.356        8.456        0.667      331.993        0.368      868.423
12/02/2021  07:36:00      -10.288       -6.617       -1.993       10.500       14.100        9.024      110.243      198.821       81.424        0.027        0.020       12.232        7.684        0.395      332.046        0.453      868.418
12/02/2021  07:37:00      -22.268       -6.971       -3.749       16.206       10.627       11.031      262.619      112.942      121.694        0.053        0.025       23.334        8.419        0.130      332.194        0.697      868.421
12/02/2021  07:38:00      -34.995        3.087      -12.388        8.527        5.937        4.897       72.708       35.243       23.983        0.076        0.007       35.131        1.343        0.001      332.245        0.781      868.419
12/02/2021  07:39:00       -3.893       -1.537       -3.108        4.678        3.221        4.332       21.885       10.374       18.766        0.004        0.003        4.185        2.472        0.349      332.545        1.277      868.414
12/02/2021  07:40:00       -3.422       -1.368       -2.067        3.747        8.375        5.736       14.039       70.142       32.906        0.007        0.006        3.685        4.182        1.288      332.498        1.199      868.429
12/02/2021  07:41:00        3.446        3.531       -0.831        5.860        4.426        3.744       34.342       19.592       14.020        0.005        0.003        4.934        3.223        0.427      332.543        1.274      868.429
12/02/2021  07:42:00       14.001       20.811       -5.717        9.076       10.365        7.357       82.374      107.441       54.122        0.045        0.012       25.083        4.713        0.035      332.306        0.882      868.431
12/02/2021  07:43:00       18.383       22.426       -3.197        6.849        7.763        7.729       46.913       60.269       59.738        0.051        0.008       28.997        4.016        0.019      332.253        0.796      868.419
12/02/2021  07:44:00       17.356       29.100        1.744       21.083       12.525       10.813      444.486      156.875      116.913        0.093        0.036       33.882        7.499        0.049      332.257        0.801      868.408
12/02/2021  07:45:00       18.186       20.784        5.662       24.862       16.560       10.609      618.121      274.228      112.542        0.090        0.050       27.617        9.354        0.115      332.244        0.781      868.399
12/02/2021  07:46:00       19.992        8.852       -2.589       16.953       18.811       13.114      287.391      353.857      171.988        0.065        0.041       21.864        9.101        0.173      332.273        0.828      868.394
12/02/2021  07:47:00       35.053       -7.628       -8.717       22.458       16.960       16.028      504.340      287.631      256.896        0.121        0.052       35.873       14.938        0.173      332.370        0.989      868.386
12/02/2021  07:48:00       31.980        1.160       -5.287       24.707       26.062       14.509      610.422      679.219      210.512        0.128        0.075       32.001       15.003        0.220      332.309        0.887      868.376
12/02/2021  07:49:00       52.771       32.457       -3.718       15.205       21.482       10.433      231.198      461.485      108.837        0.233        0.040       61.954        8.554        0.019      332.273        0.829      868.360
12/02/2021  07:50:00       50.023        2.038       -9.891       14.243       14.974       10.753      202.860      224.232      115.621        0.157        0.027       50.064        7.857        0.025      332.387        1.015      868.349
12/02/2021  07:51:00       61.491       33.804      -12.609       22.366       29.590       20.200      500.240      875.540      408.048        0.343        0.089       70.170       14.776        0.044      332.317        0.900      868.353
12/02/2021  07:52:00       51.427       42.630       -6.160       37.408       30.430       19.772     1399.381      925.963      390.948        0.361        0.136       66.798       12.840        0.037      332.309        0.887      868.367
12/02/2021  07:53:00       41.102       20.590      -21.728       28.097       33.466       19.418      789.439     1119.988      377.041        0.244        0.114       45.971       14.417        0.098      332.341        0.939      868.378
12/02/2021  07:54:00       16.314        5.864       -9.037       22.525       31.372       21.501      507.362      984.228      462.303        0.117        0.098       17.336        8.485        0.240      332.430        1.088      868.376
12/02/2021  07:55:00       19.616       14.932       -6.848       28.611       33.051       17.491      818.594     1092.379      305.921        0.144        0.111       24.653        4.112        0.028      332.433        1.091      868.366
12/02/2021  07:56:00       64.201       15.116      -19.645       44.802       30.490       19.447     2007.186      929.612      378.191        0.402        0.166       65.956       18.685        0.080      332.360        0.972      868.368
12/02/2021  07:57:00       70.261        8.491      -25.597       36.629       33.891       23.064     1341.692     1148.630      531.944        0.434        0.151       70.772       19.266        0.074      332.293        0.861      868.373
12/02/2021  07:58:00       32.536       23.727      -15.029       23.080       28.220       22.577      532.670      796.370      509.714        0.184        0.092       40.268        8.724        0.047      332.337        0.933      868.374
12/02/2021  07:59:00       38.871       10.710      -20.294       39.331       44.354       26.481     1546.946     1967.248      701.263        0.313        0.211       40.320       15.047        0.139      332.289        0.855      868.372
12/02/2021  08:00:00       40.798        5.107      -18.627       37.437       49.721       24.896     1401.498     2472.208      619.833        0.326        0.225       41.116       16.579        0.163      332.315        0.898      868.375
12/02/2021  08:01:00       30.525       11.094      -21.652       39.721       44.230       23.343     1577.719     1956.294      544.911        0.280        0.204       32.479       14.411        0.197      332.409        1.053      868.392
12/02/2021  08:02:00       40.997       30.877      -25.099       49.092       58.481       29.405     2410.062     3420.071      864.682        0.498        0.335       51.324       14.979        0.085      332.405        1.047      868.405
12/02/2021  08:03:00       56.498       10.230      -24.901       44.693       43.161       29.511     1997.492     1862.834      870.918        0.432        0.237       57.417       15.735        0.075      332.349        0.954      868.400
12/02/2021  08:04:00       70.526       22.735      -33.565       45.292       64.375       33.462     2051.375     4144.127     1119.726        0.696        0.366       74.100       17.243        0.054      332.394        1.027      868.403
12/02/2021  08:05:00       70.511      -25.782      -51.302       43.612       36.655       22.387     1902.033     1343.599      501.168        0.601        0.187       75.077        8.080        0.012      332.342        0.943      868.425
12/02/2021  08:06:00       42.034      -32.203      -11.589       45.076       35.908       28.174     2031.859     1289.416      793.746        0.353        0.206       52.951       19.678        0.138      332.533        1.258      868.418
12/02/2021  08:07:00       57.582       -2.840      -30.686       33.309       51.383       23.676     1109.499     2640.203      560.543        0.429        0.216       57.652       21.052        0.133      332.335        0.930      868.410
12/02/2021  08:08:00       55.292      -11.233      -49.731       40.460       41.370       23.930     1637.026     1711.451      572.625        0.479        0.196       56.421        4.200        0.006      332.371        0.989      868.412
12/02/2021  08:09:00       63.388        0.770      -27.289       47.299       69.408       29.278     2237.192     4817.504      857.172        0.634        0.396       63.392       25.365        0.160      332.297        0.868      868.411
12/02/2021  08:10:00       35.880        3.158      -21.959       36.179       67.877       30.580     1308.954     4607.254      935.121        0.431        0.343       36.019       15.936        0.196      332.491        1.188      868.417
12/02/2021  08:11:00        7.118      -18.769      -16.357       26.884       28.396       25.515      722.757      806.322      651.011        0.142        0.109       20.073       17.136        0.729      332.807        1.711      868.412
12/02/2021  08:12:00       56.105       42.388       -8.178       42.446       43.139       29.894     1801.697     1860.942      893.654        0.478        0.228       70.317       24.647        0.123      332.366        0.982      868.403
12/02/2021  08:13:00        5.388        5.929      -17.656       25.929       40.910       23.462      672.327     1673.591      550.474        0.164        0.145        8.012       16.346        4.163      332.574        1.326      868.408
12/02/2021  08:14:00      -14.929       -2.580       -2.496       28.499       28.441       15.482      812.214      808.876      239.689        0.105        0.093       15.150        8.717        0.331      332.517        1.230      868.422
12/02/2021  08:15:00        9.158       -3.700        1.907       29.718       45.386       27.317      883.161     2059.897      746.231        0.189        0.184        9.877       10.493        1.129      332.660        1.467      868.437
12/02/2021  08:16:00      -12.030       -7.760       -5.090       15.794       15.181       21.748      249.458      230.465      472.973        0.059        0.048       14.316        8.536        0.356      332.761        1.635      868.461
12/02/2021  08:17:00      -29.388      -18.957       -7.382       41.837       32.410       23.769     1750.314     1050.435      564.945        0.232        0.168       34.972       15.131        0.187      332.715        1.559      868.484
12/02/2021  08:18:00      -29.931       -6.740      -14.183       23.592       25.542       23.770      556.596      652.387      565.018        0.146        0.089       30.681       12.136        0.156      332.735        1.592      868.499
12/02/2021  08:19:00        3.844       -4.376      -10.087       51.385       25.787       19.628     2640.425      664.952      385.239        0.191        0.185        5.825        7.203        1.529      332.634        1.424      868.516
12/02/2021  08:20:00      105.082       19.590      -19.648       27.636       36.686       18.854      763.728     1345.836      355.480        0.714        0.123      106.893        7.134        0.004      332.419        1.068      868.540
12/02/2021  08:21:00       97.172       17.379      -13.695       34.513       33.027       26.207     1191.168     1090.772      686.788        0.645        0.148       98.714       17.441        0.031      332.449        1.119      868.543
12/02/2021  08:22:00       92.725       20.418      -13.191       25.683       35.853       12.935      659.634     1285.449      167.320        0.565        0.106       94.947        5.562        0.003      332.426        1.080      868.554
12/02/2021  08:23:00       69.930       16.831      -15.813       39.319       25.883       18.415     1545.993      669.937      339.130        0.399        0.128       71.927       17.531        0.059      332.587        1.348      868.557
12/02/2021  08:24:00       49.299       -4.402      -13.625       30.975       28.560       18.842      959.435      815.676      355.039        0.238        0.107       49.496        9.642        0.038      332.594        1.358      868.572
12/02/2021  08:25:00       59.464       20.153      -18.926       29.920       38.770       24.554      895.214     1503.083      602.893        0.365        0.150       62.786       17.441        0.077      332.590        1.352      868.598
12/02/2021  08:26:00       64.049       19.561      -17.156       33.137       43.742       19.910     1098.041     1913.334      396.414        0.409        0.170       66.969       15.685        0.055      332.650        1.451      868.607
12/02/2021  08:27:00       64.362       39.474       -4.753       26.150       29.020       17.680      683.815      842.169      312.592        0.378        0.092       75.502       10.789        0.020      332.710        1.549      868.610
12/02/2021  08:28:00       63.053       48.223       -6.526       34.874       21.259       18.903     1216.168      451.953      357.327        0.418        0.101       79.380       12.091        0.023      332.683        1.506      868.602
12/02/2021  08:29:00       53.619       13.951      -15.310       28.991       37.506       19.091      840.466     1406.692      364.456        0.296        0.131       55.404       14.780        0.071      332.789        1.681      868.585
12/02/2021  08:30:00       60.340       35.875      -14.708       16.475       15.071       15.208      271.415      227.147      231.273        0.294        0.036       70.199        5.173        0.005      332.700        1.533      868.572
12/02/2021  08:31:00       66.096       39.527      -21.065       18.800       12.511       12.211      353.446      156.530      149.106        0.352        0.033       77.014        7.292        0.009      332.646        1.443      868.560
12/02/2021  08:32:00       48.583       28.200      -17.563       13.293       16.783       15.808      176.707      281.662      249.905        0.209        0.035       56.174        7.157        0.016      332.720        1.567      868.550
12/02/2021  08:33:00       68.894        7.773      -13.597       16.308       25.930       15.713      265.941      672.362      246.894        0.309        0.059       69.331        6.817        0.010      332.930        1.914      868.536
12/02/2021  08:34:00       67.037       46.317      -12.500       24.830       17.281       15.966      616.513      298.642      254.899        0.398        0.059       81.482       13.913        0.029      332.820        1.732      868.527
12/02/2021  08:35:00       73.629       57.749      -12.798       22.471       32.171       18.724      504.942     1034.983      350.596        0.540        0.095       93.574        7.883        0.007      333.029        2.078      868.539
12/02/2021  08:36:00       56.777       41.599      -13.601       20.143       26.925       20.503      405.731      724.947      420.391        0.334        0.078       70.385       11.426        0.026      333.087        2.172      868.560
12/02/2021  08:37:00       33.292       -9.577       -7.757       28.914       49.680       18.913      836.019     2468.109      357.688        0.246        0.183       34.642       20.207        0.340      333.162        2.298      868.581
12/02/2021  08:38:00       49.228       12.484       -9.645       43.081       52.896       17.580     1856.000     2797.992      309.056        0.382        0.248       50.786       15.222        0.090      333.344        2.598      868.590
12/02/2021  08:39:00       81.691       77.972      -14.778       25.827       19.967       22.492      667.053      398.690      505.870        0.727        0.079      112.929        7.803        0.005      333.112        2.215      868.610
12/02/2021  08:40:00       52.808       67.353       -5.718       24.803       42.478       25.102      615.186     1804.380      630.112        0.520        0.152       85.586       20.492        0.057      333.154        2.285      868.616
12/02/2021  08:41:00       26.695      -12.747        0.264       35.303       38.349       21.063     1246.315     1470.654      443.667        0.202        0.158       29.582       21.044        0.506      333.433        2.745      868.623
12/02/2021  08:42:00       95.107       46.123      -22.793       17.038       16.630       16.160      290.291      276.555      261.141        0.626        0.041      105.701        8.637        0.007      333.001        2.032      868.620
12/02/2021  08:43:00       87.294       66.872      -22.939       21.754       27.151       21.016      473.224      737.173      441.687        0.713        0.083      109.964       11.076        0.010      333.135        2.254      868.618
12/02/2021  08:44:00       87.883       61.672      -29.369       18.508       16.652       14.876      342.559      277.298      221.300        0.662        0.042      107.363       10.441        0.009      333.045        2.104      868.611
12/02/2021  08:45:00       77.235       47.877      -23.121       23.902       17.720       23.093      571.291      313.983      533.295        0.511        0.071       90.871       12.017        0.017      333.315        2.551      868.604
12/02/2021  08:46:00       23.774       17.061       -4.306       27.764       56.818       28.244      770.813     3228.258      797.726        0.283        0.240       29.262       20.020        0.468      333.416        2.718      868.605
12/02/2021  08:47:00       18.276        3.060      -13.745       28.038       41.052       26.731      786.110     1685.283      714.523        0.186        0.159       18.531       17.397        0.881      333.598        3.019      868.605
12/02/2021  08:48:00       31.006       21.172      -17.831       18.899       39.369       21.278      357.186     1549.882      452.735        0.204        0.118       37.545       20.007        0.284      333.531        2.907      868.605
12/02/2021  08:49:00       65.686       38.799      -26.087       49.976       39.745       23.461     2497.572     1579.685      550.406        0.556        0.231       76.289       12.423        0.027      333.555        2.948      868.618
12/02/2021  08:50:00       67.366       64.326      -21.170       30.651       34.564       24.724      939.478     1194.663      611.259        0.593        0.137       93.145       22.058        0.056      333.359        2.624      868.619
12/02/2021  08:51:00        8.233      -27.668       -6.510       50.164       57.196       30.115     2516.443     3271.325      906.884        0.378        0.335       28.867       22.801        0.624      333.608        3.035      868.611
12/02/2021  08:52:00       19.266      -15.347      -20.374       41.115       46.516       28.583     1690.407     2163.780      817.002        0.285        0.234       24.632       14.869        0.364      333.799        3.351      868.617
12/02/2021  08:53:00       57.076       34.131      -15.201       35.417       57.245       29.618     1254.383     3276.969      877.232        0.503        0.270       66.503       20.960        0.099      333.498        2.854      868.623
12/02/2021  08:54:00       54.608       25.175      -24.649       30.707       28.569       21.469      942.906      816.166      460.918        0.322        0.111       60.131       16.476        0.075      333.583        2.994      868.638
12/02/2021  08:55:00       57.616       -7.932      -24.579       35.142       52.575       28.372     1234.949     2764.144      804.953        0.439        0.240       58.159       21.954        0.142      333.727        3.232      868.651
12/02/2021  08:56:00       -4.053      -39.036      -17.758       43.659       32.221       28.444     1906.101     1038.173      809.040        0.280        0.188       39.246       28.434        0.525      333.762        3.289      868.662
12/02/2021  08:57:00       -6.638      -24.591      -20.395       39.157       29.105       28.456     1533.292      847.125      809.722        0.213        0.160       25.471       20.518        0.649      333.874        3.476      868.669
12/02/2021  08:58:00      -14.769       -8.768       -4.913       43.531       41.810       23.226     1894.926     1748.091      539.462        0.225        0.209       17.175       14.697        0.732      333.777        3.315      868.681
12/02/2021  08:59:00       92.438       62.379      -11.857       34.103       29.276       19.922     1162.998      857.072      396.882        0.750        0.121      111.516       10.700        0.009      333.552        2.943      868.676
12/02/2021  09:00:00       72.626       64.336      -25.417       21.951       14.617       13.983      481.831      213.656      195.517        0.548        0.045       97.024        8.109        0.007      333.359        2.624      868.674
12/02/2021  09:01:00       42.255       35.391       -9.358       24.733       20.914       22.175      611.710      437.383      491.714        0.233        0.077       55.118       11.795        0.046      333.648        3.102      868.667
12/02/2021  09:02:00       60.384        3.271      -31.038       41.504       38.829       15.803     1722.585     1507.713      249.749        0.405        0.174       60.472       15.090        0.062      333.453        2.780      868.667
12/02/2021  09:03:00       -6.021      -14.481      -17.924       25.374       34.093       20.553      643.851     1162.339      422.413        0.140        0.111       15.683       19.100        1.483      333.774        3.310      868.662
12/02/2021  09:04:00        2.037       -2.483       -2.256       21.558       12.970       17.864      464.742      168.215      319.117        0.048        0.048        3.212       13.037       16.475      333.943        3.590      868.659
12/02/2021  09:05:00        3.281      -16.496      -13.045       20.721       21.809       20.227      429.351      475.617      409.144        0.088        0.066       16.819        6.039        0.129      334.138        3.913      868.648
12/02/2021  09:06:00       30.829      -37.731      -18.245       30.922       34.362       23.033      956.165     1180.714      530.519        0.269        0.133       48.724       12.150        0.062      334.074        3.808      868.644
12/02/2021  09:07:00       31.564      -38.114      -16.575       34.695       53.285       23.848     1203.776     2839.249      568.747        0.367        0.231       49.487       15.722        0.101      334.131        3.901      868.648
12/02/2021  09:08:00        9.328      -46.815      -10.387       39.220       39.911       35.835     1538.227     1592.863     1284.119        0.340        0.221       47.736       23.042        0.233      334.302        4.183      868.652
12/02/2021  09:09:00       53.092      -90.439      -34.397       43.245       56.036       32.554     1870.156     3140.061     1059.739        0.912        0.303      104.871       24.305        0.054      334.145        3.923      868.659
12/02/2021  09:10:00       58.189      -90.833      -14.336       41.207       47.491       38.360     1698.018     2255.359     1471.455        0.863        0.271      107.873       33.939        0.099      333.946        3.596      868.673
12/02/2021  09:11:00       78.250      -40.853      -20.971       45.938       49.301       29.321     2110.303     2430.632      859.702        0.682        0.270       88.272       19.399        0.048      333.950        3.601      868.668
12/02/2021  09:12:00       70.622      -36.133      -24.069       41.341       39.879       31.392     1709.103     1590.318      985.485        0.558        0.214       79.328       32.138        0.164      333.851        3.440      868.661
12/02/2021  09:13:00       42.460      -23.452      -27.276       31.356       41.120       29.476      983.180     1690.878      868.818        0.332        0.177       48.506       26.809        0.305      334.141        3.918      868.661
12/02/2021  09:14:00       53.598      -30.813      -25.031       47.605       37.911       30.737     2266.254     1437.217      944.751        0.455        0.232       61.824       20.312        0.108      334.025        3.725      868.656
12/02/2021  09:15:00       67.241      -22.194      -25.544       34.798       44.462       19.263     1210.883     1976.837      371.079        0.461        0.178       70.809        7.287        0.011      333.954        3.610      868.655
12/02/2021  09:16:00       58.372       40.704      -17.687       27.377       53.775       26.400      749.477     2891.741      696.955        0.486        0.217       71.162       24.067        0.114      334.004        3.690      868.667
12/02/2021  09:17:00       26.430      -81.792      -24.000       22.743       35.230       19.418      517.240     1241.173      377.054        0.505        0.107       85.956       15.614        0.033      333.958        3.616      868.684
12/02/2021  09:18:00       57.283      -32.863      -35.533       30.253       57.334       34.684      915.218     3287.162     1202.970        0.551        0.270       66.041       21.035        0.101      334.281        4.149      868.692
12/02/2021  09:19:00       73.027       -2.732      -26.787       36.964       37.994       31.502     1366.346     1443.582      992.394        0.493        0.190       73.078       21.183        0.084      334.203        4.022      868.695
12/02/2021  09:20:00       75.323       -4.790      -33.027       34.219       56.306       31.793     1170.937     3170.363     1010.791        0.607        0.268       75.475       22.854        0.092      334.265        4.125      868.678
12/02/2021  09:21:00       50.637       15.585      -23.462       40.908       37.078       28.091     1673.485     1374.779      789.091        0.360        0.192       52.981       19.488        0.135      334.282        4.151      868.674
12/02/2021  09:22:00       37.115      -10.469      -20.429       24.820       31.468       29.351      616.018      990.229      861.494        0.219        0.123       38.563       16.793        0.190      334.378        4.309      868.665
12/02/2021  09:23:00       92.191       41.301      -23.382       26.759       23.375       17.717      716.059      546.391      313.886        0.616        0.079      101.019        7.125        0.005      334.090        3.832      868.663
12/02/2021  09:24:00       67.911      -10.601      -33.544       41.269       41.729       21.466     1703.129     1741.343      460.785        0.488        0.195       68.734       19.531        0.081      334.173        3.971      868.658
12/02/2021  09:25:00       48.351      -22.226      -10.624       44.242       38.145       38.106     1957.372     1455.066     1452.033        0.390        0.243       53.215       28.997        0.297      334.387        4.325      868.664
12/02/2021  09:26:00       64.745      -13.459      -30.998       54.717       46.639       32.188     2993.977     2175.239     1036.062        0.577        0.310       66.129       29.179        0.195      334.512        4.533      868.664
12/02/2021  09:27:00       42.001       15.337      -24.058       37.697       50.543       28.137     1421.051     2554.610      791.698        0.367        0.238       44.713       17.574        0.154      334.393        4.336      868.666
12/02/2021  09:28:00       22.078      -16.405      -21.060       28.048       58.901       33.616      786.680     3469.286     1130.050        0.329        0.269       27.505       15.493        0.317      334.667        4.789      868.673
12/02/2021  09:29:00       25.230       -2.375       -1.148       33.504       42.684       32.291     1122.524     1821.892     1042.678        0.231        0.199       25.341       17.428        0.473      334.727        4.890      868.677
12/02/2021  09:30:00       36.560       -9.852      -32.243       42.054       58.141       29.945     1768.566     3380.404      896.692        0.426        0.302       37.864       19.939        0.277      334.625        4.720      868.680
12/02/2021  09:31:00       63.563      -87.532      -37.588       38.975       54.423       29.814     1519.019     2961.845      888.895        0.924        0.268      108.177       16.470        0.023      334.459        4.445      868.737
12/02/2021  09:32:00       76.186      -43.703      -38.032       41.358       34.072       25.376     1710.461     1160.891      643.939        0.634        0.176       87.831       19.713        0.050      334.477        4.475      868.756
12/02/2021  09:33:00       56.037      -35.485      -23.233       32.586       37.979       24.058     1061.874     1442.390      578.764        0.401        0.154       66.328       18.405        0.077      334.481        4.483      868.752
12/02/2021  09:34:00       43.792      -84.839      -27.012       26.804       29.224       22.742      718.462      854.015      517.212        0.597        0.104       95.475        9.707        0.010      334.680        4.811      868.732
12/02/2021  09:35:00       47.128      -81.052      -50.114       33.656       55.228       28.500     1132.730     3050.097      812.238        0.815        0.250       93.757       18.542        0.039      334.881        5.146      868.717
12/02/2021  09:36:00       66.951      -51.993      -36.057       33.648       34.217       26.106     1132.205     1170.792      681.522        0.573        0.149       84.769       21.837        0.066      334.733        4.900      868.713
12/02/2021  09:37:00       67.707      -33.743      -41.815       34.279       31.037       20.232     1175.077      963.278      409.316        0.501        0.127       75.650       10.207        0.018      334.582        4.649      868.713
12/02/2021  09:38:00       54.393       19.809      -15.363       37.336       42.445       20.284     1393.971     1801.608      411.457        0.360        0.180       57.888       14.699        0.064      334.688        4.827      868.717
12/02/2021  09:39:00       69.447      -16.644      -18.746       36.836       31.015       16.156     1356.881      961.913      261.007        0.402        0.129       71.414        9.137        0.016      334.552        4.599      868.722
12/02/2021  09:40:00       52.444      -10.728       -6.757       54.357       40.485       41.698     2954.685     1639.020     1738.695        0.462        0.317       53.529       36.238        0.458      334.784        4.986      868.718
12/02/2021  09:41:00       76.498      -17.566      -15.428       57.278       46.217       41.654     3280.768     2136.054     1735.095        0.677        0.358       78.489       37.845        0.232      334.700        4.845      868.722
12/02/2021  09:42:00       66.309      -41.989      -27.738       41.335       38.451       25.726     1708.615     1478.466      661.841        0.539        0.192       78.485       16.408        0.044      334.638        4.742      868.724
12/02/2021  09:43:00       77.898      -83.284      -37.037       35.656       50.853       22.937     1271.347     2586.009      526.123        0.938        0.219      114.037       14.517        0.016      334.764        4.951      868.723
12/02/2021  09:44:00       66.766       35.380      -33.952       33.966       55.027       31.503     1153.681     3027.952      992.447        0.602        0.259       75.561       20.140        0.071      335.053        5.433      868.717
12/02/2021  09:45:00      101.844       74.952      -19.549       38.458       33.241       22.741     1479.039     1104.987      517.160        0.974        0.155      126.452       11.682        0.009      334.868        5.126      868.712
12/02/2021  09:46:00       40.592      -33.304      -21.348       34.033       34.650       19.470     1158.225     1200.647      379.078        0.297        0.137       52.506       10.708        0.042      334.943        5.249      868.713
12/02/2021  09:47:00       46.278      -14.162      -20.618       35.934       29.060       20.398     1291.249      844.470      416.085        0.266        0.128       48.396       12.807        0.070      334.971        5.295      868.713
12/02/2021  09:48:00       63.231       10.523      -24.843       32.523       47.657       29.244     1057.765     2271.186      855.205        0.445        0.209       64.100       12.369        0.037      335.004        5.350      868.708
12/02/2021  09:49:00       28.235      -11.374      -24.133       26.234       42.309       28.448      688.232     1790.078      809.315        0.240        0.164       30.440        9.543        0.098      335.237        5.738      868.717
12/02/2021  09:50:00       35.705      -42.523      -11.159       47.160       46.174       30.426     2224.022     2132.049      925.714        0.424        0.264       55.525       26.411        0.226      335.228        5.723      868.709
12/02/2021  09:51:00       72.512      -53.042      -32.446       52.830       47.042       25.231     2790.980     2212.988      636.594        0.738        0.282       89.841       16.842        0.035      335.126        5.553      868.708
12/02/2021  09:52:00       26.476      -46.092      -16.111       32.306       66.935       33.577     1043.703     4480.293     1127.447        0.487        0.333       53.155       25.188        0.225      335.318        5.872      868.711
12/02/2021  09:53:00       10.222      -17.843      -14.001       29.100       43.871       25.342      846.811     1924.628      642.218        0.202        0.171       20.563       14.189        0.476      335.530        6.225      868.704
12/02/2021  09:54:00       59.674      -19.957      -37.325       44.933       50.316       44.454     2018.968     2531.660     1976.146        0.594        0.326       62.922       31.228        0.246      335.362        5.946      868.692
12/02/2021  09:55:00       81.482      -32.229      -38.096       27.892       37.415       32.611      777.990     1399.885     1063.465        0.618        0.162       87.624       12.492        0.020      335.046        5.419      868.685
12/02/2021  09:56:00       83.251      -14.672       -6.116       58.931       41.591       31.933     3472.910     1729.809     1019.697        0.670        0.311       84.534       26.597        0.099      335.235        5.734      868.669
12/02/2021  09:57:00       40.930        7.635      -12.835       38.239       51.909       33.873     1462.258     2694.506     1147.407        0.360        0.265       41.636       24.149        0.336      335.595        6.333      868.662
12/02/2021  09:58:00       63.136      -37.772      -15.885       38.241       47.681       27.550     1462.377     2273.474      759.016        0.508        0.225       73.572       20.108        0.075      335.383        5.982      868.659
12/02/2021  09:59:00       10.826      -24.966       -8.930       31.345       32.006       29.692      982.512     1024.360      881.629        0.185        0.144       27.212       14.728        0.293      335.432        6.061      868.655
12/02/2021  10:00:00       84.107       37.788      -16.435       42.577       75.073       27.997     1812.790     5636.008      783.858        0.850        0.412       92.206       14.781        0.026      335.327        5.889      868.656
12/02/2021  10:01:00       69.447       48.242      -13.942       42.313       51.837       34.860     1790.409     2687.105     1215.246        0.652        0.285       84.559       17.553        0.043      335.395        6.000      868.657
12/02/2021  10:02:00       57.896       -1.766      -17.724       44.565       57.666       38.212     1985.999     3325.356     1460.170        0.522        0.339       57.923       20.668        0.127      335.787        6.654      868.650
12/02/2021  10:03:00       55.019      -32.132       -5.905       49.153       45.578       33.351     2416.044     2077.313     1112.263        0.485        0.280       63.715       21.098        0.110      335.551        6.261      868.637
12/02/2021  10:04:00       55.065      -36.314       -7.360       57.473       51.714       44.670     3303.183     2674.306     1995.442        0.619        0.399       65.961       40.980        0.386      335.562        6.279      868.628
12/02/2021  10:05:00       46.286       14.792      -13.598       43.509       64.660       35.672     1893.047     4180.913     1272.461        0.494        0.367       48.592       20.406        0.176      335.618        6.372      868.619
12/02/2021  10:06:00       45.320       15.459      -23.602       44.663       54.328       42.759     1994.788     2951.578     1828.307        0.481        0.339       47.883       20.909        0.191      335.809        6.691      868.606
12/02/2021  10:07:00       48.434      -14.263      -26.053       29.089       52.751       29.933      846.175     2782.675      896.014        0.388        0.226       50.491       16.494        0.107      335.523        6.214      868.608
12/02/2021  10:08:00       74.503      -51.536      -41.306       38.121       39.294       25.393     1453.174     1544.019      644.813        0.678        0.182       90.591       17.794        0.039      335.605        6.351      868.593
12/02/2021  10:09:00       73.555      -77.176      -42.609       44.911       55.855       32.364     2017.002     3119.794     1047.427        0.968        0.309      106.614       22.443        0.044      335.501        6.177      868.570
12/02/2021  10:10:00       82.653       19.834      -11.418       32.654       50.618       27.345     1066.276     2562.142      747.749        0.586        0.219       85.000       22.620        0.071      335.327        5.887      868.565
12/02/2021  10:11:00       29.069       11.051      -20.060       35.800       42.190       28.787     1281.648     1779.991      828.674        0.263        0.195       31.099       18.532        0.355      335.800        6.674      868.540
12/02/2021  10:12:00       95.473       -3.905      -33.521       66.919       65.776       33.117     4478.212     4326.472     1096.735        1.008        0.495       95.553       27.174        0.081      335.737        6.570      868.528
12/02/2021  10:13:00       62.305      -87.847      -30.481       29.937       52.391       26.245      896.236     2744.858      688.794        0.843        0.216      107.698       16.190        0.023      335.641        6.410      868.522
12/02/2021  10:14:00       17.973      -10.697      -11.489       49.210       42.288       29.274     2421.591     1788.271      856.968        0.282        0.253       20.915       32.108        2.357      335.823        6.714      868.524
12/02/2021  10:15:00       47.908      -43.249      -23.047       44.438       36.649       25.429     1974.743     1343.160      646.657        0.433        0.198       64.542       27.332        0.179      335.903        6.847      868.521
12/02/2021  10:16:00       70.591      -89.343      -38.619       37.088       38.319       24.900     1375.557     1468.328      619.998        0.896        0.173      113.865       19.556        0.029      335.807        6.686      868.517
12/02/2021  10:17:00       83.397      -71.809      -38.035       44.107       49.293       38.678     1945.443     2429.769     1496.023        0.971        0.294      110.053       25.039        0.052      335.843        6.748      868.507
12/02/2021  10:18:00       27.190      -51.911      -32.572       47.994       49.748       35.379     2303.450     2474.845     1251.687        0.526        0.301       58.601       22.406        0.146      336.171        7.292      868.494
12/02/2021  10:19:00       49.973      -20.904      -31.241       46.697       39.619       29.778     2180.583     1569.633      886.716        0.427        0.232       54.169       24.490        0.204      335.958        6.937      868.489
12/02/2021  10:20:00       71.180      -83.841      -36.342       25.798       31.265       18.360      665.519      977.485      337.106        0.770        0.099      109.981       12.252        0.012      335.633        6.396      868.473
12/02/2021  10:21:00       75.029      -60.152      -20.791       27.671       39.623       22.782      765.703     1569.983      519.004        0.627        0.143       96.165       22.180        0.053      335.849        6.756      868.464
12/02/2021  10:22:00       85.428      -31.748      -18.764       34.641       29.737       18.638     1199.998      884.275      347.380        0.554        0.122       91.137       15.551        0.029      335.630        6.394      868.458
12/02/2021  10:23:00       52.886       -4.548      -20.307       32.428       39.904       21.110     1051.574     1592.364      445.620        0.316        0.154       53.081        8.398        0.025      335.777        6.637      868.452
12/02/2021  10:24:00       54.094      -36.613      -23.944       30.553       25.807       21.313      933.467      665.989      454.246        0.345        0.103       65.320       17.178        0.069      335.799        6.673      868.438
12/02/2021  10:25:00       39.910      -17.620      -17.069       25.731       47.595       21.096      662.065     2265.261      445.024        0.278        0.169       43.627       20.617        0.223      335.838        6.738      868.421
12/02/2021  10:26:00       30.444      -24.086       -9.060       39.209       53.944       31.388     1537.356     2909.951      985.181        0.351        0.272       38.820       23.474        0.366      336.186        7.320      868.412
12/02/2021  10:27:00       63.879      -15.045      -19.449       39.203       57.999       33.577     1536.877     3363.872     1127.395        0.536        0.301       65.627       30.781        0.220      336.119        7.207      868.394
12/02/2021  10:28:00       62.073       51.022      -21.078       15.709       17.391       14.074      246.770      302.458      198.090        0.382        0.037       80.352        8.523        0.011      335.740        6.574      868.353
12/02/2021  10:29:00       35.204       -1.264      -21.098       18.748       26.120       14.405      351.505      682.267      207.517        0.146        0.062       35.227        6.108        0.030      335.989        6.990      868.359
12/02/2021  10:30:00       57.992       11.401      -13.466       27.997       32.882       20.887      783.843     1081.223      436.278        0.299        0.115       59.102       10.439        0.031      336.339        7.574      868.250
12/02/2021  10:31:00       18.118       18.377      -22.711       27.850       36.179       22.016      775.611     1308.909      484.690        0.187        0.128       25.806        9.659        0.140      336.346        7.586      868.221
12/02/2021  10:32:00       19.525      -43.332       -7.325       31.641       47.608       25.952     1001.181     2266.475      673.493        0.313        0.197       47.528       12.800        0.073      336.392        7.663      868.206
12/02/2021  10:33:00       37.303       -9.047      -14.835       28.055       48.067       27.759      787.106     2310.428      770.589        0.278        0.193       38.385       17.546        0.209      336.337        7.570      868.193
12/02/2021  10:34:00       17.658       27.743       -3.810       47.613       41.786       28.609     2267.035     1746.052      818.500        0.296        0.242       32.886        5.113        0.024      336.310        7.525      868.168
12/02/2021  10:35:00       14.973      -43.964      -21.476       46.775       45.334       24.620     2187.926     2055.186      606.166        0.373        0.242       46.444       12.494        0.072      336.550        7.927      868.147
12/02/2021  10:36:00       -7.231      -38.001       10.063       29.057       25.539       32.615      844.322      652.223     1063.708        0.208        0.128       38.683       15.469        0.160      336.747        8.258      868.126
12/02/2021  10:37:00      -29.014      -63.058      -17.063       38.196       36.929       23.163     1458.962     1363.749      536.509        0.423        0.168       69.413       17.527        0.064      336.383        7.648      868.112
12/02/2021  10:38:00       55.796      -69.334      -18.808       34.562       38.044       27.192     1194.530     1447.321      739.413        0.583        0.169       88.996       13.241        0.022      336.530        7.894      868.097
12/02/2021  10:39:00       -1.203      -25.415      -18.903       29.949       30.836       19.595      896.935      950.843      383.953        0.162        0.112       25.444       19.456        0.585      336.533        7.899      868.093
12/02/2021  10:40:00        1.444       -4.505       -7.429       29.504       13.705       17.394      870.475      187.826      302.547        0.072        0.068        4.730       14.641        9.579      336.564        7.950      868.082
12/02/2021  10:41:00      -16.247       -9.078      -12.179       24.059       18.856       20.386      578.821      355.548      415.574        0.092        0.067       18.611       16.049        0.744      336.771        8.296      868.070
12/02/2021  10:42:00       32.284      -11.711      -11.079       43.329       32.486       22.601     1877.409     1055.367      510.805        0.237        0.172       34.343       18.502        0.290      336.539        7.909      868.072
12/02/2021  10:43:00       69.721        7.882      -16.742       57.812       73.512       28.982     3342.234     5404.061      839.978        0.739        0.479       70.165       16.852        0.058      336.426        7.721      868.062
12/02/2021  10:44:00      114.109       71.556      -19.459       32.897       67.945       26.673     1082.242     4616.574      711.446        1.246        0.321      134.688       21.892        0.026      336.343        7.581      868.060
12/02/2021  10:45:00       89.561       81.837      -16.765       37.847       32.723       25.910     1432.380     1070.783      671.307        0.909        0.159      121.320       12.297        0.010      336.216        7.369      868.065
12/02/2021  10:46:00      125.701       66.972      -22.412       28.510       22.628       22.157      812.825      512.044      490.923        1.130        0.091      142.429       11.140        0.006      336.120        7.208      868.069
12/02/2021  10:47:00       82.808       61.927      -14.534       54.008       23.752       27.141     2916.857      564.157      736.654        0.756        0.211      103.402       30.304        0.086      336.198        7.340      868.052
12/02/2021  10:48:00       64.072       68.484      -12.227       25.605       27.511       25.988      655.599      756.864      675.356        0.552        0.104       93.783       16.311        0.030      336.392        7.663      868.047
12/02/2021  10:49:00       -5.841       72.257        2.289       50.128       59.016       18.867     2512.769     3482.867      355.946        0.580        0.318       72.492       21.058        0.084      336.595        8.003      868.045
12/02/2021  10:50:00        8.512      -61.331       -6.654       31.745       40.383       21.641     1007.716     1630.815      468.332        0.349        0.155       61.918       10.896        0.031      336.775        8.303      868.047
12/02/2021  10:51:00       41.912      -23.941      -21.177       25.198       36.469       22.351      634.952     1329.980      499.556        0.262        0.123       48.267       11.975        0.062      336.812        8.366      868.042
12/02/2021  10:52:00       11.456      -28.963      -22.127       39.407       35.773       24.927     1552.899     1279.689      621.347        0.246        0.173       31.146       17.594        0.319      336.886        8.489      868.020
12/02/2021  10:53:00       18.889      -52.206      -18.694       27.931       40.668       31.118      780.134     1653.908      968.350        0.342        0.170       55.518       20.565        0.137      337.010        8.696      868.010
12/02/2021  10:54:00       57.323      -70.623      -25.175       36.360       31.428       19.021     1322.080      987.704      361.809        0.579        0.134       90.959       17.496        0.037      336.618        8.040      867.995
12/02/2021  10:55:00       33.232      -36.986      -10.758       39.896       23.716       20.376     1591.720      562.470      415.196        0.258        0.128       49.723       12.967        0.068      336.726        8.221      867.985
12/02/2021  10:56:00      -10.468      -49.710       -8.714       46.551       39.664       20.084     2166.990     1573.197      403.357        0.340        0.207       50.801       24.230        0.227      336.957        8.608      867.966
12/02/2021  10:57:00      -20.967        3.546       -2.281       18.051       33.002       20.043      325.832     1089.121      401.725        0.114        0.091       21.264       14.223        0.447      336.959        8.611      867.946
12/02/2021  10:58:00       17.326       24.973       -2.334       46.034       26.771       23.363     2119.118      716.677      545.833        0.215        0.169       30.395       14.645        0.232      337.036        8.739      867.931
12/02/2021  10:59:00       57.208       61.983       16.025       40.017       33.029       26.869     1601.385     1090.942      721.931        0.539        0.171       84.348       24.215        0.082      337.054        8.769      867.916
12/02/2021  11:00:00        2.157      -22.077        1.754       40.170       60.672       24.926     1613.611     3681.106      621.294        0.320        0.296       22.182       31.482        2.014      337.095        8.839      867.909
12/02/2021  11:01:00       44.679      -59.076      -28.091       51.150       80.473       35.776     2616.281     6475.961     1279.951        0.832        0.519       74.069       29.045        0.154      336.960        8.613      867.891
12/02/2021  11:02:00      122.584       60.424      -35.225       44.368       46.592       31.420     1968.520     2170.859      987.238        1.252        0.256      136.667       19.301        0.020      336.874        8.469      867.882
12/02/2021  11:03:00      141.725       84.777      -30.649       41.706       39.320       28.810     1739.364     1546.066      830.001        1.616        0.206      165.146        7.125        0.002      336.988        8.659      867.886
12/02/2021  11:04:00       79.611       35.001      -17.624       26.500       28.378       18.119      702.236      805.290      328.302        0.485        0.092       86.966        9.779        0.013      336.614        8.035      867.894
12/02/2021  11:05:00       76.654       32.786      -21.620       23.764       36.387       22.778      564.746     1323.997      518.824        0.491        0.120       83.371       20.672        0.061      336.664        8.117      867.885
12/02/2021  11:06:00       75.441       68.267      -34.081       24.208       19.075       22.943      586.046      363.850      526.396        0.649        0.074      101.743        8.010        0.006      336.666        8.120      867.870
12/02/2021  11:07:00       -5.210      -31.875      -23.044       20.418       45.055       20.242      416.904     2029.922      409.747        0.221        0.143       32.298       12.819        0.158      337.085        8.821      867.858
12/02/2021  11:08:00       28.986       46.283        1.659       46.976       39.909       26.882     2206.773     1592.705      722.633        0.375        0.226       54.611       20.315        0.138      337.196        9.006      867.841
12/02/2021  11:09:00       -4.136       26.003        0.620       29.128       24.352       27.979      848.456      593.035      782.828        0.146        0.111       26.330       12.233        0.216      337.460        9.449      867.824
12/02/2021  11:10:00      -30.368      -23.421      -22.456       31.984       31.232       18.002     1022.982      975.453      324.085        0.215        0.116       38.350        9.162        0.057      337.102        8.850      867.806
12/02/2021  11:11:00      -53.935      -34.154      -17.989       20.985       21.595       13.934      440.374      466.354      194.165        0.275        0.055       63.840        7.664        0.014      336.865        8.454      867.786
12/02/2021  11:12:00      -51.836      -16.999      -13.041       20.643       19.433       18.921      426.145      377.656      357.994        0.215        0.058       54.552       10.037        0.034      337.024        8.720      867.763
12/02/2021  11:13:00       -6.643      -32.598      -14.172       43.768       31.055       14.480     1915.640      964.400      209.675        0.220        0.154       33.268        9.455        0.081      337.152        8.933      867.740
12/02/2021  11:14:00        8.874      -46.848       -7.970       44.618       55.184       35.477     1990.773     3045.328     1258.617        0.431        0.315       47.682       31.983        0.450      337.254        9.104      867.709
12/02/2021  11:15:00       21.398       26.998      -19.799       47.878       33.108       27.593     2292.287     1096.165      761.354        0.286        0.207       34.449       21.382        0.385      337.340        9.249      867.696
12/02/2021  11:16:00       -8.472       18.015        4.807       55.975       43.529       32.582     3133.206     1894.812     1061.562        0.325        0.304       19.907       21.597        1.177      337.413        9.371      867.681
12/02/2021  11:17:00       19.751      -12.423      -23.605       54.490       41.679       33.555     2969.171     1737.153     1125.968        0.347        0.292       23.333       21.574        0.855      337.539        9.580      867.654
12/02/2021  11:18:00       43.524      -12.512      -26.006       45.633       51.690       34.727     2082.363     2671.883     1205.944        0.434        0.298       45.287       14.993        0.110      337.329        9.230      867.625
12/02/2021  11:19:00       95.655      -21.992      -22.912       59.817       47.314       29.172     3578.101     2238.659      850.982        0.841        0.333       98.150       27.116        0.076      337.234        9.072      867.611
12/02/2021  11:20:00       93.035       39.477      -22.213       51.114       74.351       42.348     2612.599     5528.017     1793.318        1.032        0.497      101.064       31.213        0.095      337.467        9.460      867.582
12/02/2021  11:21:00       83.543       17.576      -28.726       38.319       48.421       33.442     1468.365     2344.594     1118.348        0.652        0.247       85.372       19.537        0.052      337.455        9.441      867.566
12/02/2021  11:22:00       48.683       -5.520      -23.619       46.008       36.539       28.195     2116.771     1335.118      794.980        0.360        0.212       48.995        9.140        0.035      337.414        9.373      867.552
12/02/2021  11:23:00       50.484        0.614       -4.912       40.374       46.484       25.803     1630.020     2160.775      665.812        0.351        0.223       50.487        6.557        0.017      337.464        9.456      867.532
12/02/2021  11:24:00       33.730      -12.046      -17.703       43.608       36.932       31.228     1901.658     1363.954      975.191        0.292        0.212       35.816       14.206        0.157      337.715        9.877      867.514
12/02/2021  11:25:00       57.153      -39.693       -7.129       33.118       36.263       33.182     1096.826     1314.970     1101.033        0.420        0.176       69.584       28.546        0.168      337.598        9.681      867.506
12/02/2021  11:26:00       51.925       29.964      -17.555       44.218       44.740       24.737     1955.209     2001.657      611.909        0.423        0.228       59.951       22.364        0.139      337.463        9.456      867.489
12/02/2021  11:27:00      104.470       66.737      -24.304       30.128       36.947       22.759      907.670     1365.084      517.974        0.937        0.140      123.966       13.111        0.011      337.548        9.597      867.478
12/02/2021  11:28:00       77.268       70.614      -23.292       29.063       23.582       23.668      844.654      556.108      560.196        0.673        0.098      104.674       15.005        0.021      337.372        9.302      867.461
12/02/2021  11:29:00       42.470       22.562      -22.023       39.523       36.082       27.470     1562.088     1301.885      754.583        0.321        0.181       48.091       24.505        0.260      337.528        9.564      867.459
12/02/2021  11:30:00       83.335      -40.568      -25.066       62.780       47.333       32.535     3941.276     2240.411     1058.511        0.823        0.362       92.685       26.411        0.081      337.645        9.759      867.448
12/02/2021  11:31:00       40.583       -7.602      -18.270       40.275       38.523       32.558     1622.095     1483.997     1060.012        0.310        0.208       41.289       16.460        0.159      337.862       10.121      867.434
12/02/2021  11:32:00       37.031      -56.444      -22.316       58.872       73.917       36.795     3465.872     5463.650     1353.902        0.767        0.514       67.507       28.356        0.176      337.809       10.033      867.419
12/02/2021  11:33:00       48.525      -37.061      -38.657       36.620       50.518       27.146     1340.990     2552.089      736.915        0.493        0.231       61.059       11.963        0.038      337.862       10.124      867.400
12/02/2021  11:34:00       13.900      -38.302      -10.486       35.544       35.985       26.154     1263.369     1294.924      684.045        0.251        0.162       40.746       19.758        0.235      337.696        9.845      867.384
12/02/2021  11:35:00       41.042      -31.356      -16.835       26.966       38.608       23.850      727.153     1490.614      568.821        0.287        0.139       51.649       20.789        0.162      337.716        9.879      867.370
12/02/2021  11:36:00       67.251       47.588      -16.427       46.336       25.746       19.244     2147.019      662.831      370.329        0.512        0.159       82.385       24.223        0.086      337.547        9.596      867.360
12/02/2021  11:37:00      111.413       62.239      -33.481       19.644       17.919       17.871      385.875      321.104      319.366        0.922        0.051      127.618       13.369        0.011      337.351        9.267      867.346
12/02/2021  11:38:00       51.282       29.793      -18.172       27.705       55.481       23.527      767.549     3078.128      553.517        0.412        0.220       59.308       16.878        0.081      337.585        9.658      867.326
12/02/2021  11:39:00        0.605      -26.523      -21.707       41.253       50.292       30.330     1701.793     2529.299      919.894        0.316        0.258       26.530       16.431        0.384      337.801       10.022      867.299
12/02/2021  11:40:00      -39.307       -0.679      -15.951       26.704       26.822       23.003      713.100      719.445      529.122        0.188        0.098       39.313        8.938        0.052      338.006       10.366      867.278
12/02/2021  11:41:00        4.844      -48.859       -4.757       49.024       54.152       32.202     2403.335     2932.443     1037.000        0.440        0.319       49.099       21.683        0.195      338.056       10.448      867.277
12/02/2021  11:42:00       30.883      -86.108      -25.077       33.030       27.824       19.816     1090.979      774.186      392.686        0.563        0.113       91.479       18.587        0.041      337.741        9.921      867.272
12/02/2021  11:43:00       11.166      -12.979      -14.873       46.324       49.576       20.504     2145.911     2457.755      420.413        0.277        0.251       17.121       10.358        0.366      337.931       10.239      867.267
12/02/2021  11:44:00      109.864       41.590      -29.815       35.257       43.965       26.993     1243.044     1932.896      728.619        0.930        0.195      117.473       20.279        0.030      337.805       10.026      867.256
12/02/2021  11:45:00       85.760       63.556      -22.844       55.413       49.474       30.005     3070.614     2447.698      900.316        0.917        0.321      106.744       22.104        0.043      338.090       10.507      867.240
12/02/2021  11:46:00       67.351       60.502        1.126       56.589       30.522       33.627     3202.306      931.569     1130.763        0.673        0.263       90.535       18.753        0.043      338.091       10.506      867.230
12/02/2021  11:47:00       71.471       33.196      -16.433       43.365       27.978       22.688     1880.535      782.774      514.728        0.483        0.159       78.804       20.414        0.067      337.869       10.136      867.219
12/02/2021  11:48:00       22.840       70.823       -5.474       26.436       44.655       18.197      698.879     1994.039      331.135        0.430        0.151       74.414       11.452        0.024      337.963       10.291      867.205
12/02/2021  11:49:00       33.582       72.612       -7.301       26.438       49.715       25.049      698.950     2471.544      627.429        0.513        0.190       80.002       11.664        0.021      338.101       10.524      867.187
12/02/2021  11:50:00       63.744        0.120      -23.674       69.013       54.895       32.778     4762.853     3013.508     1074.416        0.674        0.443       63.744       19.372        0.092      338.186       10.667      867.166
12/02/2021  11:51:00       29.718        1.872      -19.409       65.510       48.027       33.893     4291.496     2306.554     1148.752        0.450        0.387       29.777       23.232        0.609      338.170       10.640      867.149
12/02/2021  11:52:00        2.984       13.053      -37.747       44.127       53.012       38.454     1947.170     2810.264     1478.739        0.392        0.312       13.390       22.064        2.715      338.271       10.810      867.121
12/02/2021  11:53:00       68.157       42.653      -11.447       73.731       44.130       26.992     5436.277     1947.414      728.561        0.735        0.406       80.403       21.200        0.070      338.316       10.886      867.113
12/02/2021  11:54:00      100.029       86.642      -11.517       54.614       25.317       25.717     2982.656      640.930      661.372        1.096        0.214      132.335       26.556        0.040      338.001       10.355      867.108
12/02/2021  11:55:00       61.541       27.232       -9.858       53.768       47.123       30.563     2891.050     2220.539      934.070        0.533        0.302       67.297       25.744        0.146      338.255       10.783      867.099
12/02/2021  11:56:00       61.198       67.213       -7.084       33.810       31.948       21.053     1143.123     1020.691      443.236        0.546        0.130       90.900       19.282        0.045      338.029       10.402      867.081
12/02/2021  11:57:00       -7.264       19.926      -20.610       46.527       50.161       39.280     2164.799     2516.155     1542.928        0.355        0.311       21.209       30.022        2.004      338.315       10.883      867.069
12/02/2021  11:58:00       26.492       13.001      -42.827       40.612       66.726       30.946     1649.324     4452.369      957.641        0.488        0.353       29.510       20.263        0.472      338.209       10.705      867.050
12/02/2021  11:59:00       15.240       -0.908      -37.722       46.626       47.524       34.743     2173.970     2258.564     1207.048        0.365        0.282       15.267        9.682        0.402      338.136       10.583      867.037
12/02/2021  12:00:00       23.084       48.413       -9.951       40.168       35.945       26.864     1613.441     1292.047      721.656        0.330        0.181       53.635       14.042        0.069      338.171       10.642      867.038
12/02/2021  12:01:00       38.562       21.082       -7.954       40.127       40.218       27.449     1610.209     1617.463      753.428        0.299        0.199       43.949       18.746        0.182      338.258       10.788      867.026
12/02/2021  12:02:00       50.238       -7.692      -12.128       52.972       80.639       33.322     2806.002     6502.715     1110.351        0.657        0.521       50.823       20.843        0.168      338.216       10.718      867.007
12/02/2021  12:03:00       47.780       43.774      -20.935       66.947       43.696       42.782     4481.900     1909.314     1830.273        0.643        0.411       64.800       35.195        0.295      338.495       11.185      866.979
12/02/2021  12:04:00       78.182      -48.219      -53.657       37.487       86.563       33.329     1405.287     7493.139     1110.804        1.066        0.500       91.855       10.207        0.012      338.119       10.553      866.968
12/02/2021  12:05:00       31.095      -32.261      -10.017       36.425       46.531       29.767     1326.817     2165.165      886.077        0.324        0.219       44.807       29.874        0.445      338.290       10.843      866.957
12/02/2021  12:06:00       50.402       16.465      -15.677       39.793       29.827       19.364     1583.462      889.629      374.956        0.295        0.142       53.023       12.573        0.056      338.342       10.928      866.941
12/02/2021  12:07:00       48.047       20.273      -13.538       43.299       57.983       29.463     1874.792     3362.008      868.053        0.450        0.305       52.149       23.288        0.199      338.452       11.113      866.927
12/02/2021  12:08:00       43.541       66.939      -12.507       30.869       14.721       16.796      952.869      216.704      282.099        0.399        0.073       79.854        9.134        0.013      338.172       10.645      866.916
12/02/2021  12:09:00       31.264       41.539      -20.221       20.921       21.333       17.426      437.706      455.077      303.665        0.215        0.060       51.990       12.631        0.059      338.389       11.008      866.908
12/02/2021  12:10:00       36.402       49.458       -2.211       24.195       19.742       18.553      585.388      389.755      344.197        0.255        0.066       61.410       16.664        0.074      338.506       11.203      866.904
12/02/2021  12:11:00       46.014       47.393      -16.261       21.674       19.435       11.020      469.766      377.711      121.445        0.280        0.048       66.056        6.797        0.011      338.261       10.791      866.895
12/02/2021  12:12:00       34.822       44.563       -5.780       41.454       32.491       25.144     1718.442     1055.647      632.233        0.332        0.170       56.555       18.461        0.107      338.615       11.386      866.886
12/02/2021  12:13:00        7.369       34.243      -17.187       37.184       22.779       17.543     1382.640      518.868      307.747        0.187        0.110       35.027       11.953        0.116      338.548       11.273      866.875
12/02/2021  12:14:00       11.815      -82.522      -28.280       45.544       47.556       22.305     2074.226     2261.546      497.501        0.629        0.242       83.363       18.887        0.051      338.590       11.344      866.865
12/02/2021  12:15:00       65.795      -80.580      -29.409       41.084       59.800       31.565     1687.861     3576.040      996.356        0.897        0.313      104.029       19.701        0.036      338.350       10.941      866.851
12/02/2021  12:16:00       27.328      -45.534      -12.240       33.896       56.771       36.888     1148.962     3222.983     1360.730        0.435        0.287       53.105       29.900        0.317      338.521       11.230      866.848
12/02/2021  12:17:00       32.442      -87.485      -12.770       32.003       45.835       33.998     1024.187     2100.871     1155.894        0.657        0.214       93.307       25.871        0.077      338.714       11.554      866.834
12/02/2021  12:18:00       32.302       24.990      -19.981       44.679       45.789       34.448     1996.209     2096.640     1186.661        0.367        0.264       40.840       26.826        0.431      338.610       11.378      866.833
12/02/2021  12:19:00        5.733        5.963       -7.017       32.681       42.457       22.452     1068.034     1802.570      504.072        0.175        0.169        8.272       10.110        1.494      338.719       11.562      866.816
12/02/2021  12:20:00       16.228      -16.058      -16.664       34.346       60.671       28.134     1179.631     3680.968      791.533        0.322        0.283       22.830       16.098        0.497      338.864       11.806      866.799
12/02/2021  12:21:00       30.554      -76.540      -25.435       32.367       64.547       27.356     1047.619     4166.328      748.330        0.670        0.298       82.413       27.923        0.115      339.008       12.048      866.784
12/02/2021  12:22:00       39.809      -69.795      -28.622       47.272       57.754       34.387     2234.677     3335.485     1182.468        0.701        0.338       80.350       25.548        0.101      338.761       11.632      866.767
12/02/2021  12:23:00      -13.403      -52.554      -37.304       50.129       60.574       24.794     2512.867     3669.227      614.746        0.556        0.340       54.236       20.418        0.142      338.872       11.817      866.756
12/02/2021  12:24:00       11.259      -56.927      -10.319       26.023       41.330       25.076      677.175     1708.167      628.806        0.324        0.151       58.030       20.743        0.128      338.867       11.810      866.744
12/02/2021  12:25:00      -19.324      -28.940       -9.461       29.830       30.196       20.891      889.821      911.781      436.436        0.177        0.112       34.798        9.164        0.069      338.871       11.817      866.721
12/02/2021  12:26:00      -31.564      -15.644      -17.578       29.861       49.209       21.918      891.697     2421.543      480.395        0.267        0.190       35.228       23.492        0.445      338.911       11.885      866.702
12/02/2021  12:27:00      -52.633        2.568      -22.771       30.800       34.648       21.995      948.655     1200.461      483.763        0.296        0.132       52.696       17.157        0.106      338.885       11.840      866.697
12/02/2021  12:28:00      -15.619      -42.948      -16.418       51.846       73.653       36.804     2687.999     5424.765     1354.562        0.591        0.473       45.700       35.114        0.590      338.865       11.807      866.690
12/02/2021  12:29:00       56.181      -31.541      -13.057       49.296       54.427       27.799     2430.131     2962.318      772.792        0.524        0.308       64.429       25.563        0.157      338.882       11.835      866.682
12/02/2021  12:30:00       92.092       43.894      -31.886       64.701       47.394       34.799     4186.198     2246.163     1210.984        0.953        0.382      102.017       22.053        0.047      338.851       11.784      866.667
12/02/2021  12:31:00       43.913       13.244      -16.045       49.408       34.725       34.462     2441.147     1205.803     1187.648        0.360        0.242       45.866       26.635        0.337      338.988       12.015      866.657
12/02/2021  12:32:00       13.956      -24.980      -22.210       33.617       41.639       21.062     1130.098     1733.799      443.589        0.231        0.165       28.614       16.426        0.330      339.142       12.272      866.647
12/02/2021  12:33:00       47.849      -71.650      -19.928       66.148       61.955       35.926     4375.504     3838.452     1290.701        0.866        0.475       86.158       40.955        0.226      339.020       12.067      866.650
12/02/2021  12:34:00       88.854     -155.140      -32.936       47.723       48.381       26.899     2277.456     2340.726      723.576        1.919        0.267      178.783       21.521        0.014      338.658       11.457      866.645
12/02/2021  12:35:00       25.266      -36.948      -24.301       77.312       60.501       35.284     5977.124     3660.429     1244.992        0.674        0.544       44.760       26.394        0.348      338.878       11.829      866.716
12/02/2021  12:36:00       56.888      -13.968      -33.352       52.731       67.210       38.170     2780.587     4517.225     1456.982        0.665        0.438       58.578       29.168        0.248      338.780       11.663      866.716
12/02/2021  12:37:00       22.591      -11.696      -12.872       31.144       45.864       26.586      969.944     2103.541      706.805        0.230        0.189       25.439       15.367        0.365      338.827       11.744      866.725
12/02/2021  12:38:00       14.715        9.718       -0.791       50.066       63.408       34.625     2506.567     4020.538     1198.874        0.402        0.386       17.634       32.647        3.427      338.745       11.605      866.710
12/02/2021  12:39:00       52.665       40.782       -1.690       38.200       46.069       27.351     1459.236     2122.391      748.093        0.438        0.216       66.609       25.013        0.141      338.866       11.809      866.694
12/02/2021  12:40:00      -18.351      -10.768      -21.283       25.692       38.373       24.953      660.080     1472.484      622.642        0.183        0.138       21.277       17.499        0.676      338.826       11.741      866.676
12/02/2021  12:41:00       26.838       28.532       -5.798       34.393       43.193       32.687     1182.888     1865.674     1068.439        0.284        0.206       39.171       20.192        0.266      338.911       11.884      866.666
12/02/2021  12:42:00       11.588      -35.259      -21.323       32.117       40.913       32.130     1031.507     1673.856     1032.354        0.278        0.187       37.114       16.966        0.209      338.860       11.797      866.646
12/02/2021  12:43:00       54.300       44.015      -12.330       50.078       48.630       31.356     2507.773     2364.856      983.199        0.545        0.293       69.898       19.817        0.080      339.132       12.257      866.636
12/02/2021  12:44:00       10.432       32.626      -16.415       40.989       35.893       36.338     1680.108     1288.289     1320.424        0.287        0.214       34.254       22.912        0.447      339.376       12.667      866.620
12/02/2021  12:45:00       18.858      -28.919      -12.796       36.211       56.767       43.105     1311.231     3222.494     1858.005        0.387        0.320       34.524       20.185        0.342      339.366       12.649      866.606
12/02/2021  12:46:00       54.252      -64.112      -29.170       33.694       86.897       30.267     1135.315     7551.091      916.078        0.875        0.480       83.986       19.193        0.052      338.964       11.972      866.603
12/02/2021  12:47:00       29.445      -61.674      -32.538       34.319       49.017       25.686     1177.807     2402.624      659.776        0.498        0.212       68.342       14.970        0.048      338.796       11.691      866.594
12/02/2021  12:48:00       17.026      -42.995      -19.172       77.842       58.354       31.625     6059.345     3405.160     1000.127        0.648        0.523       46.244       36.565        0.625      339.037       12.096      866.579
12/02/2021  12:49:00       55.097      -54.675      -28.434       57.229       60.060       30.107     3275.189     3607.225      906.449        0.731        0.389       77.622       29.670        0.146      338.805       11.706      866.555
12/02/2021  12:50:00       50.534      -85.781      -22.556       37.893       35.313       35.506     1435.908     1246.994     1260.686        0.718        0.197       99.559       28.886        0.084      338.718       11.561      866.542
12/02/2021  12:51:00       40.865      -74.741      -19.463       45.669       53.985       33.323     2085.663     2914.428     1110.395        0.687        0.306       85.184       38.690        0.206      338.890       11.848      866.503
12/02/2021  12:52:00       11.460      -45.386      -16.396       42.380       37.546       31.489     1796.099     1409.737      991.573        0.333        0.210       46.810       30.503        0.425      339.012       12.054      866.480
12/02/2021  12:53:00      -26.111       -2.144      -22.708       17.535       17.315       19.938      307.473      299.811      397.531        0.110        0.050       26.199       10.252        0.153      339.135       12.261      866.449
12/02/2021  12:54:00        2.193      -14.025      -22.329       25.668       53.422       21.352      658.840     2853.947      455.894        0.233        0.198       14.196       22.912        2.605      339.159       12.302      866.437
12/02/2021  12:55:00       35.692     -115.329      -41.449       33.712       28.102       30.549     1136.490      789.711      933.229        0.958        0.143      120.725       10.518        0.008      338.747       11.607      866.421
12/02/2021  12:56:00        0.302      -26.173      -17.634       49.699       41.264       33.121     2469.969     1702.709     1097.004        0.313        0.263       26.175       15.180        0.336      338.989       12.014      866.392
12/02/2021  12:57:00       71.371       35.788      -17.349       46.018       41.765       24.728     2117.662     1744.341      611.494        0.557        0.224       79.841       11.803        0.022      339.047       12.113      866.375
12/02/2021  12:58:00       81.522       59.643       -9.851       37.888       36.602       24.301     1435.481     1339.671      590.529        0.683        0.168      101.011       20.083        0.040      339.290       12.522      866.356
12/02/2021  12:59:00       60.665      -14.132      -26.242       45.693       37.278       31.517     2087.848     1389.627      993.342        0.452        0.224       62.290       12.082        0.038      339.312       12.560      866.341
12/02/2021  13:00:00       16.689       14.101       -9.093       30.974       39.453       27.672      959.365     1556.534      765.734        0.192        0.164       21.849       19.920        0.831      339.537       12.938      866.320
12/02/2021  13:01:00       -8.176        6.773       -9.900       29.514       39.330       33.572      871.070     1546.886     1127.099        0.188        0.177       10.617       21.348        4.043      339.896       13.543      866.298
12/02/2021  13:02:00       47.024       22.509      -18.730       42.597       44.279       29.635     1814.465     1960.591      878.209        0.386        0.233       52.134       20.086        0.148      339.581       13.012      866.284
12/02/2021  13:03:00       37.387       41.450      -14.834       46.213       47.754       35.852     2135.622     2280.442     1285.352        0.452        0.285       55.820       29.059        0.271      339.579       13.008      866.287
12/02/2021  13:04:00       20.854      -43.230      -13.481       27.254       40.784       30.003      742.758     1663.329      900.190        0.290        0.165       47.997       18.621        0.151      339.581       13.013      866.276
12/02/2021  13:05:00       20.375       36.325       -9.152       43.020       30.510       25.284     1850.680      930.872      639.286        0.262        0.171       41.649       17.714        0.181      339.669       13.161      866.266
12/02/2021  13:06:00       -7.898      -49.116      -23.551       32.924       70.702       24.208     1083.959     4998.733      586.007        0.485        0.333       49.747       12.373        0.062      339.700       13.212      866.250
12/02/2021  13:07:00       96.696     -114.367      -40.744       45.921       40.432       30.270     2108.739     1634.752      916.260        1.437        0.233      149.766       22.796        0.023      339.168       12.317      866.242
12/02/2021  13:08:00       62.072     -110.927      -37.700       40.166       49.818       26.821     1613.323     2481.853      719.392        1.120        0.241      127.113       19.819        0.024      339.308       12.553      866.240
12/02/2021  13:09:00       40.641     -101.411      -31.248       31.484       28.801       18.409      991.222      829.511      338.894        0.754        0.108      109.251       10.930        0.010      339.208       12.384      866.239
12/02/2021  13:10:00       81.748     -129.487      -32.534       42.659       55.288       31.732     1819.760     3056.752     1006.919        1.519        0.294      153.133       21.152        0.019      339.403       12.712      866.236
12/02/2021  13:11:00       44.421      -97.699       -7.917       42.900       60.617       32.236     1840.390     3674.470     1039.156        0.907        0.328      107.323       27.362        0.065      339.599       13.043      866.247
12/02/2021  13:12:00       32.036      -61.789       -9.315       36.056       51.451       28.696     1300.049     2647.228      823.471        0.485        0.239       69.600       10.287        0.022      339.683       13.185      866.243
12/02/2021  13:13:00       80.752     -105.696      -36.793       49.739       58.894       34.624     2473.956     3468.530     1198.801        1.309        0.357      133.013       29.059        0.048      339.277       12.500      866.228
12/02/2021  13:14:00       28.885       -4.384        1.905       43.644       66.472       27.338     1904.776     4418.552      747.350        0.396        0.354       29.216       18.774        0.413      339.428       12.754      866.221
12/02/2021  13:15:00       59.941       11.719      -16.838       34.012       56.044       28.871     1156.821     3140.960      833.537        0.457        0.257       61.076       10.077        0.027      339.370       12.656      866.225
12/02/2021  13:16:00       -6.481        5.050      -12.427       26.538       23.929       17.796      704.289      572.598      316.696        0.091        0.080        8.216       12.067        2.157      339.550       12.960      866.205
12/02/2021  13:17:00       -3.462      -39.350      -25.690       37.351       28.480       28.323     1395.093      811.129      802.168        0.261        0.150       39.502        9.305        0.055      339.449       12.789      866.183
12/02/2021  13:18:00       13.017       33.567        4.730       32.490       21.576       18.751     1055.620      465.539      351.612        0.160        0.094       36.003       13.506        0.141      339.761       13.316      866.161
12/02/2021  13:19:00       44.952       40.572      -21.771       42.819       34.695       28.787     1833.434     1203.772      828.696        0.400        0.193       60.554       22.331        0.136      339.502       12.878      866.140
12/02/2021  13:20:00       34.676       39.619      -16.454       24.012       36.823       23.141      576.587     1355.956      535.498        0.275        0.123       52.651       17.298        0.108      339.512       12.896      866.125
12/02/2021  13:21:00       95.602       54.346      -19.533       45.602       43.811       25.561     2079.566     1919.397      653.353        0.856        0.233      109.969       20.801        0.036      339.581       13.012      866.113
12/02/2021  13:22:00       68.881       39.995        0.184       53.412       45.539       32.750     2852.813     2073.822     1072.585        0.617        0.300       79.651       31.741        0.159      339.726       13.257      866.103
12/02/2021  13:23:00       40.413       11.772      -19.784       62.315       52.370       27.393     3883.215     2742.570      750.386        0.477        0.369       42.093       20.109        0.228      339.818       13.410      866.074
12/02/2021  13:24:00      100.107       47.044      -13.505       43.049       30.835       26.965     1853.187      950.790      727.088        0.797        0.177      110.610       14.424        0.017      339.736       13.274      866.074
12/02/2021  13:25:00       96.555       17.089      -17.034       55.141       50.673       30.349     3040.475     2567.783      921.081        0.822        0.326       98.056       21.296        0.047      339.742       13.284      866.058
12/02/2021  13:26:00       64.680       34.889       -4.521       47.627       37.817       33.277     2268.289     1430.125     1107.391        0.511        0.240       73.490       34.004        0.214      339.853       13.471      866.058
12/02/2021  13:27:00       76.774       50.359      -23.507       15.782       13.332       13.119      249.062      177.750      172.105        0.479        0.030       91.817        6.419        0.005      339.593       13.033      866.061
12/02/2021  13:28:00       32.358       20.662      -12.736       25.020       21.410       21.089      626.015      458.404      444.751        0.158        0.076       38.392       11.707        0.093      339.944       13.624      866.056
12/02/2021  13:29:00       95.866       20.098      -23.262       37.402       33.645       22.132     1398.919     1132.012      489.827        0.658        0.151       97.950       11.200        0.013      339.737       13.276      866.057
12/02/2021  13:30:00       61.892       52.837      -11.551       25.716       34.777       24.015      661.328     1209.415      576.733        0.460        0.122       81.378       16.025        0.039      339.705       13.221      866.068
12/02/2021  13:31:00       76.474       12.219      -14.009       19.949       31.770       15.999      397.945     1009.321      255.975        0.393        0.083       77.444       13.464        0.030      339.667       13.158      866.061
12/02/2021  13:32:00       70.357       35.319       -9.910       24.271       22.998       15.920      589.083      528.899      253.453        0.383        0.069       78.724        6.418        0.007      339.733       13.268      866.054
12/02/2021  13:33:00       52.856       86.747      -17.804       22.130       25.903       16.790      489.742      670.969      281.890        0.604        0.072      101.581       10.373        0.010      339.827       13.427      866.058
12/02/2021  13:34:00       55.618       62.401      -12.592       34.179       24.971       19.848     1168.221      623.543      393.946        0.467        0.109       83.589       20.382        0.059      339.939       13.615      866.050
12/02/2021  13:35:00       15.857       59.986      -11.133       26.856       22.553       18.448      721.256      508.658      340.345        0.277        0.079       62.046       17.602        0.080      340.083       13.858      866.043
12/02/2021  13:36:00       -0.621       21.797       -3.070       18.883       19.364       13.648      356.574      374.954      186.281        0.070        0.046       21.806        9.755        0.200      340.219       14.089      866.034
12/02/2021  13:37:00        7.181       -6.068      -10.841       24.216       21.246       17.433      586.410      451.382      303.905        0.077        0.067        9.402        6.082        0.419      340.320       14.259      866.016
12/02/2021  13:38:00       62.942       37.660       -5.491       51.068       27.983       15.861     2607.987      783.038      251.571        0.453        0.182       73.348       18.881        0.066      340.029       13.767      866.005
12/02/2021  13:39:00       12.416        5.219      -13.005       18.487       22.785       18.634      341.772      519.161      347.227        0.078        0.060       13.469       12.200        0.820      340.235       14.114      866.000
12/02/2021  13:40:00       25.535       18.612       -7.835       28.148       29.001       20.028      792.297      841.030      401.106        0.155        0.102       31.598       12.070        0.146      340.235       14.115      865.985
12/02/2021  13:41:00       32.621      -20.365      -14.872       47.053       28.944       17.834     2213.967      837.761      318.049        0.253        0.168       38.456       16.096        0.175      340.178       14.019      865.985
12/02/2021  13:42:00       46.313       18.788      -16.500       51.613       45.331       27.379     2663.930     2054.903      749.637        0.412        0.273       49.979       27.026        0.292      340.243       14.130      865.972
12/02/2021  13:43:00       35.668      -16.301      -19.404       39.201       53.481       25.015     1536.715     2860.196      625.748        0.347        0.251       39.217       24.152        0.379      340.095       13.880      865.968
12/02/2021  13:44:00       36.415      -30.864      -22.955       33.005       36.744       23.089     1089.337     1350.124      533.107        0.289        0.149       47.735       10.125        0.045      340.125       13.928      865.952
12/02/2021  13:45:00       40.509      -57.658      -28.020       25.154       18.637       21.440      632.730      347.345      459.667        0.359        0.072       70.466       10.313        0.021      340.009       13.734      865.937
12/02/2021  13:46:00       27.716      -52.532      -26.458       27.028       20.841       17.596      730.526      434.345      309.628        0.285        0.074       59.395       14.074        0.056      339.990       13.701      865.929
12/02/2021  13:47:00       54.281      -73.606      -25.601       27.049       18.953       18.887      731.651      359.228      356.718        0.523        0.072       91.456       16.720        0.033      339.906       13.560      865.919
12/02/2021  13:48:00       94.529      -15.919      -28.752       31.226       25.797       17.708      975.040      665.467      313.575        0.598        0.098       95.860       10.290        0.012      339.930       13.599      865.910
12/02/2021  13:49:00       41.330      -16.447       -7.386       41.919       26.592       28.090     1757.219      707.119      789.076        0.264        0.163       44.482       25.788        0.336      340.336       14.287      865.892
12/02/2021  13:50:00       34.581      -30.397      -22.131       28.510       30.623       22.339      812.842      937.786      499.019        0.243        0.112       46.042       15.375        0.112      340.233       14.113      865.879
12/02/2021  13:51:00      -38.628      -33.308      -19.229       26.216       41.127       21.852      687.295     1691.441      477.520        0.291        0.143       51.005       15.476        0.092      340.319       14.258      865.863
12/02/2021  13:52:00       54.764       33.069       -8.018       56.107       43.011       30.797     3148.033     1849.962      948.436        0.505        0.297       63.974       27.716        0.188      340.318       14.255      865.860
12/02/2021  13:53:00       82.364       57.810       -5.635       22.242       18.180       17.691      494.722      330.509      312.972        0.565        0.057      100.627       11.912        0.014      340.121       13.924      865.860
12/02/2021  13:54:00       11.482       33.871       -8.335       18.625       17.127       11.963      346.904      293.332      143.117        0.107        0.039       35.764        8.898        0.062      340.222       14.094      865.851
12/02/2021  13:55:00       25.549       39.414       -8.747       23.275       16.040       13.162      541.743      257.293      173.242        0.163        0.049       46.970       10.423        0.049      340.320       14.259      865.843
12/02/2021  13:56:00        0.976        5.760       -6.240        8.610       12.612       11.220       74.133      159.068      125.892        0.022        0.018        5.842        7.353        1.584      340.614       14.756      865.832
12/02/2021  13:57:00       12.407      -15.826       -5.797       13.677       15.665       14.884      187.059      245.389      221.529        0.055        0.033       20.110        8.938        0.198      340.609       14.749      865.820
12/02/2021  13:58:00        5.287       19.465       -0.874       11.672       13.254       11.359      136.244      175.663      129.029        0.042        0.022       20.170        6.369        0.100      340.686       14.879      865.801
12/02/2021  13:59:00       43.833       40.482       -7.823       28.178       22.166       12.752      794.005      491.350      162.612        0.253        0.072       59.666       14.065        0.056      340.373       14.347      865.778
12/02/2021  14:00:00       39.853       38.918       -3.044       19.176       28.620       16.479      367.714      819.100      271.545        0.228        0.073       55.703       10.584        0.036      340.355       14.317      865.765
12/02/2021  14:01:00       38.456      -11.491      -11.459       41.461       30.915       22.260     1719.040      955.732      495.495        0.246        0.159       40.136       17.256        0.185      340.525       14.605      865.741
12/02/2021  14:02:00       34.786      -12.065        1.380       30.538       22.751       15.235      932.554      517.610      232.095        0.152        0.084       36.819       14.993        0.166      340.563       14.669      865.742
12/02/2021  14:03:00       65.978       -2.588       -9.926       17.589       16.036       17.194      309.362      257.145      295.617        0.266        0.043       66.029        9.871        0.022      340.302       14.229      865.747
12/02/2021  14:04:00       28.787       -6.404       -9.323       35.266       12.485       12.143     1243.669      155.870      147.461        0.125        0.077       29.490       12.076        0.168      340.508       14.576      865.748
12/02/2021  14:05:00        1.810       -1.882        7.296       27.998       14.879       15.596      783.864      221.387      243.245        0.065        0.062        2.611       14.255       29.800      340.897       15.235      865.758
12/02/2021  14:06:00       49.645       -7.232       -5.569       30.061       36.639       22.298      903.642     1342.418      497.204        0.265        0.137       50.169       17.519        0.122      340.652       14.819      865.756
12/02/2021  14:07:00       42.378       40.151      -11.353       20.952       21.704       18.349      438.982      471.077      336.703        0.239        0.062       58.378        8.668        0.022      340.502       14.567      865.761
12/02/2021  14:08:00        0.154       35.385      -22.020       13.834       12.302       14.044      191.375      151.344      197.245        0.114        0.027       35.385       10.767        0.093      340.375       14.352      865.753
12/02/2021  14:09:00        5.877       32.846       -9.412       11.901        7.810        8.442      141.642       60.989       71.271        0.074        0.014       33.367        6.725        0.041      340.486       14.541      865.742
12/02/2021  14:10:00       20.756       26.397       -3.023       25.365       17.504       11.591      643.383      306.387      134.344        0.111        0.054       33.581        9.094        0.073      340.608       14.745      865.733
12/02/2021  14:11:00       17.693      -28.815       -6.536       36.104       19.576       20.583     1303.515      383.219      423.670        0.165        0.106       33.814       16.676        0.243      340.964       15.350      865.729
12/02/2021  14:12:00       22.552      -33.379       -6.843       48.295       38.225       28.533     2332.366     1461.170      814.153        0.314        0.230       40.284       24.669        0.375      340.799       15.069      865.713
12/02/2021  14:13:00       57.447      -17.492      -21.881       32.844       34.281       16.492     1078.748     1175.211      271.984        0.330        0.126       60.051        9.912        0.027      340.568       14.678      865.705
12/02/2021  14:14:00       39.134      -19.199      -23.726       26.695       26.130       17.673      712.618      682.795      312.334        0.209        0.085       43.590        9.438        0.047      340.686       14.878      865.711
12/02/2021  14:15:00       11.070       31.434       -8.578       23.130       24.760       15.603      534.985      613.054      243.458        0.129        0.070       33.326       12.807        0.148      340.584       14.705      865.716
12/02/2021  14:16:00       41.912       36.661       -2.626       32.332       20.679       19.679     1045.338      427.601      387.252        0.248        0.093       55.683       13.996        0.063      340.620       14.766      865.710
12/02/2021  14:17:00       35.419      -27.278      -10.760       40.513       33.498       27.886     1641.281     1122.093      777.655        0.283        0.177       44.705       25.310        0.321      340.746       14.979      865.700
12/02/2021  14:18:00       16.191        9.447      -14.391       32.427       42.468       29.331     1051.506     1803.562      860.316        0.214        0.186       18.746       16.274        0.754      340.711       14.921      865.690
12/02/2021  14:19:00      113.174        5.579      -31.490       53.279       49.666       32.016     2838.616     2466.667     1025.010        1.008        0.317      113.312       16.163        0.020      340.552       14.651      865.680
12/02/2021  14:20:00      100.925       -6.885      -15.013       38.902       40.922       22.695     1513.393     1674.646      515.043        0.708        0.185      101.160       15.344        0.023      340.475       14.521      865.674
12/02/2021  14:21:00       41.118       -7.519      -10.683       34.419       37.366       23.823     1184.655     1396.212      567.552        0.250        0.157       41.800       20.987        0.252      340.605       14.741      865.673
12/02/2021  14:22:00       95.268      -21.178      -40.184       61.572       64.102       36.104     3791.071     4109.045     1303.493        1.017        0.460       97.594       30.921        0.100      340.542       14.634      865.642
12/02/2021  14:23:00       77.732      -26.530      -20.653       52.483       47.754       42.083     2754.425     2280.482     1771.008        0.699        0.340       82.135       33.142        0.163      340.633       14.789      865.632
12/02/2021  14:24:00      121.395      -62.524      -36.986       30.331       53.541       31.178      919.965     2866.611      972.041        1.239        0.238      136.550       22.932        0.028      340.564       14.672      865.632
12/02/2021  14:25:00       90.759      -36.019      -19.406       56.726       34.305       35.706     3217.866     1176.811     1274.913        0.779        0.283       97.645       30.214        0.096      340.648       14.815      865.627
12/02/2021  14:26:00       56.237      -24.185      -12.130       46.496       35.954       28.398     2161.923     1292.697      806.452        0.408        0.213       61.217       21.952        0.129      340.658       14.830      865.629
12/02/2021  14:27:00       70.612      -50.895      -23.277       58.183       35.098       31.266     3385.270     1231.850      977.555        0.686        0.280       87.042       30.109        0.120      340.555       14.655      865.618
12/02/2021  14:28:00       76.701      -45.575      -21.898       45.742       40.340       29.418     2092.347     1627.298      865.404        0.651        0.229       89.219       27.593        0.096      340.599       14.731      865.608
12/02/2021  14:29:00       93.502      -58.464      -17.255       49.330       45.844       30.970     2433.466     2101.706      959.142        0.898        0.275      110.276       34.548        0.098      340.636       14.793      865.595
12/02/2021  14:30:00       93.231        9.167      -17.684       42.268       47.499       22.707     1786.607     2256.175      515.604        0.682        0.228       93.681       17.306        0.034      340.633       14.789      865.599
12/02/2021  14:31:00       76.739       35.377      -10.831       47.866       40.457       22.864     2291.172     1636.761      522.745        0.585        0.223       84.502       20.789        0.061      340.623       14.772      865.604
12/02/2021  14:32:00       13.825       14.074       -6.164       36.634       41.472       25.162     1342.031     1719.944      633.125        0.206        0.185       19.728       10.891        0.305      340.812       15.092      865.600
12/02/2021  14:33:00       85.554       50.249      -12.159       56.825       28.194       21.553     3229.122      794.903      464.531        0.724        0.224       99.219       16.606        0.028      340.588       14.711      865.595
12/02/2021  14:34:00      125.659       24.859      -12.489       45.378       46.769       21.334     2059.146     2187.318      455.160        1.063        0.235      128.095       14.540        0.013      340.591       14.717      865.592
12/02/2021  14:35:00      101.343       33.136      -11.926       26.777       19.617       14.288      716.993      384.836      204.148        0.641        0.065      106.622       11.575        0.012      340.581       14.700      865.593
12/02/2021  14:36:00       61.857      -23.083       -9.182       39.352       22.404       28.074     1548.566      501.918      788.137        0.364        0.142       66.023       25.400        0.148      340.794       15.060      865.592
12/02/2021  14:37:00       52.910      -15.797      -17.402       36.780       39.358       24.348     1352.739     1549.035      592.818        0.342        0.175       55.218       16.082        0.085      340.789       15.052      865.594
12/02/2021  14:38:00      116.408       41.389       -9.762       48.470       26.295       20.555     2349.324      691.437      422.513        0.941        0.173      123.547       15.092        0.015      340.601       14.735      865.595
12/02/2021  14:39:00      105.709       18.638      -13.662       61.840       77.679       28.833     3824.217     6034.067      831.342        1.120        0.534      107.339       21.360        0.040      340.702       14.906      865.580
12/02/2021  14:40:00       36.031      -50.189      -25.189       44.455       48.572       31.458     1976.228     2359.237      989.592        0.489        0.266       61.783       18.839        0.093      340.856       15.166      865.580
12/02/2021  14:41:00       56.912      -94.246      -31.686       35.786       65.264       28.928     1280.610     4259.406      836.839        0.975        0.319      110.096       17.926        0.027      340.600       14.735      865.577
12/02/2021  14:42:00       25.812      -22.984      -12.208       28.339       45.578       15.429      803.100     2077.343      238.052        0.223        0.156       34.562        3.959        0.013      340.775       15.030      865.575
12/02/2021  14:43:00       43.575       -0.239       -7.540       48.798       53.464       33.885     2381.210     2858.398     1148.165        0.417        0.319       43.575       24.243        0.310      340.748       14.982      865.554
12/02/2021  14:44:00       46.021      -11.117      -14.164       43.050       45.316       31.030     1853.267     2053.538      962.834        0.365        0.243       47.344       23.951        0.256      340.719       14.934      865.550
12/02/2021  14:45:00       56.651      -11.221      -15.785       52.666       43.044       29.032     2773.675     1852.813      842.867        0.453        0.273       57.752       30.901        0.286      340.771       15.021      865.547
12/02/2021  14:46:00       54.841      -28.097      -16.723       37.629       27.994       28.575     1415.972      783.692      816.518        0.355        0.151       61.619       17.642        0.082      340.721       14.937      865.553
12/02/2021  14:47:00       46.478        2.881       -7.100       18.657       19.038       10.690      348.102      362.441      114.275        0.152        0.041       46.567        7.557        0.026      340.597       14.730      865.556
12/02/2021  14:48:00        7.525        0.290       -9.674       15.709       26.238       18.035      246.782      688.448      325.251        0.071        0.063        7.530       12.062        2.566      340.764       15.011      865.563
12/02/2021  14:49:00       -8.172      -32.279        3.212       29.965       51.695       21.458      897.892     2672.394      460.430        0.257        0.202       33.297       24.370        0.536      341.000       15.409      865.545
12/02/2021  14:50:00       44.508       26.817       -5.428       43.772       50.416       30.542     1915.963     2541.823      932.825        0.406        0.270       51.963        9.952        0.037      340.803       15.077      865.545
12/02/2021  14:51:00       76.716       -9.964      -11.584       47.016       36.072       26.507     2210.551     1301.220      702.633        0.517        0.211       77.361       19.797        0.065      340.750       14.987      865.542
12/02/2021  14:52:00       95.370       27.843      -23.126       34.172       49.786       25.164     1167.723     2478.609      633.245        0.734        0.214       99.351       21.001        0.045      340.724       14.942      865.547
12/02/2021  14:53:00       57.391        7.183      -21.141       30.859       23.480       11.749      952.277      551.333      138.030        0.272        0.082       57.839       15.844        0.075      340.747       14.981      865.550
12/02/2021  14:54:00       33.134      -32.934      -16.495       20.929       19.573       16.594      438.027      383.113      275.352        0.178        0.055       46.717       16.704        0.128      340.829       15.121      865.546
12/02/2021  14:55:00       49.044       -3.433       -5.756       22.362       24.384       12.686      500.079      594.568      160.934        0.185        0.063       49.164        9.422        0.037      340.844       15.144      865.547
12/02/2021  14:56:00       36.997      -14.018      -11.605       14.898       13.190       10.806      221.965      173.968      116.770        0.111        0.026       39.563        9.253        0.055      340.856       15.166      865.546
12/02/2021  14:57:00       23.941      -17.513      -14.534       17.679       16.602       17.450      312.546      275.634      304.494        0.099        0.045       29.663       12.109        0.167      340.957       15.336      865.531
12/02/2021  14:58:00       16.300       25.608       -1.705       16.788       25.456       11.509      281.828      647.986      132.468        0.099        0.053       30.356        6.986        0.053      340.921       15.276      865.526
12/02/2021  14:59:00       48.783       43.828       -3.938       17.113       10.336       10.265      292.869      106.825      105.368        0.241        0.025       65.580        8.741        0.018      340.827       15.117      865.522
12/02/2021  15:00:00       37.456       25.883      -10.557       10.326       14.045       10.405      106.617      197.263      108.256        0.130        0.021       45.529        6.339        0.019      340.790       15.054      865.512
12/02/2021  15:01:00       48.574        7.186      -10.730       14.681       21.145       11.335      215.545      447.110      128.488        0.166        0.040       49.103        9.449        0.037      340.800       15.073      865.504
12/02/2021  15:02:00       40.809       29.292      -13.691       15.587        6.533        7.726      242.965       42.675       59.686        0.153        0.017       50.234        6.150        0.015      340.780       15.040      865.494
12/02/2021  15:03:00       20.378       36.486      -13.559       15.746       16.902       13.153      247.939      285.672      173.002        0.132        0.035       41.791        5.036        0.015      340.874       15.195      865.488
12/02/2021  15:04:00        6.219       28.893      -16.475       17.672       23.224       22.719      312.295      539.352      516.147        0.126        0.068       29.554       12.162        0.169      340.966       15.354      865.481
12/02/2021  15:05:00       14.692        9.187       -6.790       21.296       16.877       14.168      453.538      284.837      200.731        0.064        0.047       17.328       11.241        0.421      341.010       15.425      865.474
12/02/2021  15:06:00       23.752       33.575      -13.836       10.596        7.276       12.581      112.277       52.940      158.275        0.110        0.016       41.127        3.326        0.007      340.811       15.090      865.466
12/02/2021  15:07:00       44.831       33.809      -15.327        9.478       10.183        9.678       89.823      103.696       93.670        0.184        0.014       56.151        3.589        0.004      340.815       15.093      865.455
12/02/2021  15:08:00       51.635       -4.812      -20.454       17.406       17.689        8.495      302.962      312.913       72.165        0.190        0.034       51.859        7.330        0.020      340.843       15.143      865.440
12/02/2021  15:09:00        4.096      -12.740       -7.154        7.348       12.246       18.122       53.993      149.972      328.400        0.038        0.027       13.383       12.550        0.879      341.309       15.932      865.439
12/02/2021  15:10:00        5.399       12.446       -8.183       10.263       19.248        9.469      105.329      370.489       89.663        0.041        0.028       13.566        3.361        0.061      341.162       15.683      865.439
12/02/2021  15:11:00       16.924       49.374       -7.840       31.976       29.636       21.411     1022.450      878.309      458.422        0.257        0.118       52.194       15.859        0.092      341.016       15.438      865.436
12/02/2021  15:12:00       12.659       45.336      -12.108       21.791       21.028       22.498      474.849      442.169      506.172        0.189        0.071       47.070       16.800        0.127      340.972       15.362      865.428
12/02/2021  15:13:00       24.211       44.727      -11.567       21.391       24.118       14.773      457.567      581.687      218.242        0.199        0.063       50.859        7.868        0.024      340.923       15.281      865.426
12/02/2021  15:14:00       44.563       46.425      -10.627       15.845       16.828       15.919      251.057      283.173      253.430        0.252        0.039       64.352        8.191        0.016      340.844       15.145      865.419
12/02/2021  15:15:00       53.028       36.435      -11.596       13.834       15.730       13.232      191.393      247.441      175.095        0.244        0.031       64.339        6.743        0.011      340.869       15.188      865.421
12/02/2021  15:16:00       31.667       16.051       -9.036        8.678       11.746        8.175       75.303      137.960       66.824        0.081        0.014       35.502        2.067        0.003      340.891       15.223      865.423
12/02/2021  15:17:00       18.146       30.470       -4.774       18.264       23.731       14.208      333.567      563.162      201.861        0.119        0.055       35.464       12.394        0.122      341.016       15.436      865.420
12/02/2021  15:18:00       27.046       31.012       -0.977       16.540       11.140       12.310      273.568      124.109      151.526        0.112        0.027       41.149       10.965        0.071      340.956       15.334      865.419
12/02/2021  15:19:00       19.891       39.300       -2.703       17.207       14.456       12.976      296.090      208.978      168.381        0.131        0.034       44.047        6.945        0.025      340.963       15.348      865.413
12/02/2021  15:20:00       18.016       59.023      -19.364       14.506       14.742       13.660      210.432      217.334      186.585        0.240        0.031       61.712        6.060        0.010      341.021       15.445      865.410
12/02/2021  15:21:00       21.965       31.132       -3.690       14.812       16.453       12.518      219.392      270.708      156.702        0.106        0.032       38.101        7.730        0.041      340.960       15.343      865.397
12/02/2021  15:22:00       11.389       12.043       -8.797       20.161       13.692       15.082      406.475      187.475      227.476        0.059        0.041       16.575       12.619        0.580      341.049       15.493      865.383
12/02/2021  15:23:00       19.270       12.242      -13.063       15.783       18.219       13.735      249.114      331.921      188.659        0.073        0.038       22.830       12.682        0.309      340.999       15.408      865.369
12/02/2021  15:24:00        9.452      -18.104       -7.935       20.561       21.841       12.084      422.755      477.024      146.019        0.076        0.052       20.423        7.266        0.127      341.100       15.579      865.351
12/02/2021  15:25:00        1.955      -24.366       -2.484       19.202       15.440       11.515      368.728      238.402      132.597        0.067        0.037       24.445        6.123        0.063      341.159       15.678      865.341
12/02/2021  15:26:00      -23.730       -6.191      -10.227       23.180       21.687       17.204      537.298      470.306      295.988        0.100        0.065       24.524        6.432        0.069      341.264       15.855      865.335
12/02/2021  15:27:00      -13.521       -5.980        4.007       18.299       16.454       18.693      334.839      270.720      349.414        0.059        0.048       14.785       16.330        1.220      341.486       16.231      865.336
12/02/2021  15:28:00      -14.904      -12.298       -4.651       16.759       15.143       16.065      280.874      229.297      258.079        0.058        0.038       19.323       12.999        0.453      341.454       16.178      865.343
12/02/2021  15:29:00       24.947        0.762       -4.465       13.723       17.979        7.780      188.315      323.248       60.534        0.061        0.029       24.959        6.259        0.063      341.117       15.608      865.340
12/02/2021  15:30:00       20.902        8.906        8.460       11.533        8.347       10.707      133.021       69.671      114.641        0.045        0.016       22.721        5.368        0.056      341.112       15.599      865.334
12/02/2021  15:31:00       22.897       19.216        1.391       14.196       10.414       13.819      201.527      108.450      190.972        0.070        0.025       29.892       10.652        0.127      341.117       15.608      865.329
12/02/2021  15:32:00        4.936       -3.265       -7.798       10.163       14.445       15.127      103.284      208.670      228.833        0.032        0.027        5.918        4.349        0.540      341.279       15.881      865.323
12/02/2021  15:33:00        7.868        2.096       -2.893       17.597       18.908       12.069      309.671      357.503      145.666        0.044        0.041        8.142        7.743        0.904      341.228       15.795      865.321
12/02/2021  15:34:00       -2.044      -26.759        8.272       12.555       17.581       15.548      157.631      309.097      241.734        0.075        0.035       26.837        9.832        0.134      341.299       15.914      865.315
12/02/2021  15:35:00      -34.029      -21.750       -8.557       13.187       11.883       10.864      173.898      141.214      118.034        0.107        0.022       40.385        8.352        0.043      341.292       15.902      865.311
12/02/2021  15:36:00      -34.825      -11.374       -9.470       19.790       13.963       12.802      391.641      194.970      163.885        0.109        0.038       36.635       10.471        0.082      341.287       15.896      865.302
12/02/2021  15:37:00      -25.516       -9.060      -10.139        9.550       12.531       11.684       91.194      157.018      136.522        0.061        0.019       27.077        7.587        0.079      341.235       15.806      865.299
12/02/2021  15:38:00       -6.646      -12.672       -5.049       13.248       16.388       10.787      175.508      268.574      116.351        0.040        0.028       14.309        4.196        0.086      341.387       16.064      865.291
12/02/2021  15:39:00      -22.974      -13.901       -1.794       18.534       15.894       10.653      343.493      252.614      113.478        0.072        0.035       26.852       11.550        0.185      341.505       16.263      865.286
12/02/2021  15:40:00      -31.005      -32.905       -8.428       12.385       14.937        8.694      153.388      223.114       75.581        0.128        0.023       45.211        3.104        0.005      341.188       15.728      865.285
12/02/2021  15:41:00      -36.432      -11.804      -15.273       16.244       12.834       10.625      263.860      164.709      112.894        0.112        0.027       38.296        5.899        0.024      341.282       15.886      865.281
12/02/2021  15:42:00      -23.917        0.314      -11.243       21.554       11.948       14.402      464.593      142.748      207.408        0.076        0.041       23.919       10.199        0.182      341.255       15.839      865.280
12/02/2021  15:43:00      -14.204       -6.157       -9.349       14.210       11.000       11.972      201.914      120.994      143.330        0.040        0.023       15.481        8.595        0.308      341.238       15.810      865.279
12/02/2021  15:44:00      -10.365        0.572       -9.860       17.127       10.034       12.961      293.320      100.671      167.998        0.038        0.028       10.380        7.354        0.502      341.193       15.737      865.284
12/02/2021  15:45:00      -25.654        2.061       -6.188       24.012       13.783       13.855      576.579      189.966      191.951        0.083        0.048       25.737       10.032        0.152      341.238       15.813      865.285
12/02/2021  15:46:00      -18.224       -6.536       -3.345       15.040       10.848       11.801      226.190      117.681      139.265        0.043        0.024       19.361       10.995        0.322      341.353       16.007      865.281
12/02/2021  15:47:00        0.026        2.942        5.507       16.022       16.442       15.202      256.707      270.348      231.110        0.040        0.038        2.942       11.730       15.897      341.346       15.994      865.283
12/02/2021  15:48:00      -13.602       -1.583       -3.889       14.349       24.789       10.636      205.884      614.502      113.120        0.057        0.047       13.694        4.847        0.125      341.289       15.898      865.287
12/02/2021  15:49:00      -37.106        3.195       -2.219       24.806       25.697       15.292      615.351      660.322      233.850        0.145        0.075       37.243       12.138        0.106      341.192       15.734      865.297
12/02/2021  15:50:00      -58.143        8.073      -15.363       12.886       12.847       10.690      166.054      165.053      114.272        0.206        0.022       58.701        7.185        0.015      341.074       15.536      865.293
12/02/2021  15:51:00      -30.024        4.287       -4.442       22.834       17.167       15.494      521.377      294.692      240.058        0.100        0.053       30.328       14.622        0.232      341.240       15.814      865.294
12/02/2021  15:52:00      -40.162       -0.126       -5.590       19.668       16.881       15.495      386.823      284.983      240.101        0.128        0.046       40.163       10.614        0.070      341.294       15.907      865.293
12/02/2021  15:53:00      -30.475        4.062       -4.304       21.695       17.262       15.581      470.671      297.966      242.770        0.099        0.051       30.745       14.536        0.224      341.247       15.828      865.293
12/02/2021  15:54:00      -20.254       -0.561       -5.823       19.261       22.063       14.515      370.983      486.770      210.673        0.076        0.053       20.262       11.898        0.345      341.286       15.894      865.288
12/02/2021  15:55:00      -25.486       -5.010       -4.398       17.621       16.762       13.359      310.488      280.977      178.462        0.073        0.038       25.973       10.144        0.153      341.356       16.012      865.285
12/02/2021  15:56:00      -33.835        9.497       -6.139       27.032       18.651       13.944      730.751      347.851      194.447        0.127        0.064       35.143       15.689        0.199      341.096       15.572      865.288
12/02/2021  15:57:00      -47.606       11.766       -8.993       15.255       14.697       11.736      232.710      216.015      137.734        0.154        0.029       49.039        2.624        0.003      341.125       15.620      865.295
12/02/2021  15:58:00      -60.555       20.234      -14.820        6.971        4.856        7.329       48.590       23.581       53.711        0.221        0.006       63.846        3.297        0.003      340.995       15.405      865.301
12/02/2021  15:59:00      -56.359        9.933      -12.678       14.916        9.444       12.040      222.497       89.191      144.973        0.195        0.023       57.227        9.312        0.026      341.054       15.503      865.300
12/02/2021  16:00:00      -64.321       14.256       -8.965       19.529       13.847       11.397      381.386      191.742      129.897        0.256        0.035       65.882        8.953        0.018      340.979       15.375      865.306
12/02/2021  16:01:00      -60.816        9.574      -13.376       19.368       10.355       11.399      375.136      107.228      129.944        0.229        0.031       61.565       12.256        0.040      341.023       15.451      865.304
12/02/2021  16:02:00      -61.047        3.759      -14.427       12.599       12.676       10.410      158.731      160.679      108.367        0.219        0.021       61.163        7.419        0.015      341.017       15.438      865.302
12/02/2021  16:03:00      -42.132        2.070       -4.659       26.719       14.556       14.923      713.896      211.878      222.705        0.147        0.057       42.182       11.840        0.079      341.133       15.632      865.295
12/02/2021  16:04:00      -42.470        8.250       -9.209       21.795       12.139       14.999      475.009      147.343      224.961        0.140        0.042       43.263       14.469        0.112      341.063       15.515      865.293
12/02/2021  16:05:00      -36.024        0.784       -3.850       17.922       21.473       14.849      321.191      461.079      220.499        0.116        0.050       36.033       11.581        0.103      341.096       15.571      865.289
12/02/2021  16:06:00      -56.079        6.180       -7.127       20.182       13.544       14.340      407.301      183.451      205.645        0.201        0.040       56.418        9.867        0.031      341.025       15.451      865.286
12/02/2021  16:07:00      -66.246        9.885      -13.423        6.262        7.861        5.464       39.218       61.801       29.856        0.240        0.007       66.979        4.140        0.004      340.935       15.299      865.278
12/02/2021  16:08:00      -74.722       11.431      -15.327       15.050       12.133       11.909      226.495      147.217      141.836        0.323        0.026       75.591        9.854        0.017      340.915       15.267      865.265
12/02/2021  16:09:00      -88.167       28.256      -16.102        5.575        7.154        4.303       31.078       51.180       18.513        0.447        0.005       92.584        2.668        0.001      340.830       15.122      865.252
12/02/2021  16:10:00      -85.351       28.148      -15.272        7.330       10.061        6.642       53.728      101.220       44.111        0.425        0.010       89.872        4.360        0.002      340.853       15.163      865.242
12/02/2021  16:11:00      -90.176       26.295      -15.690        5.004        6.155        5.818       25.037       37.880       33.853        0.458        0.005       93.932        3.405        0.001      340.851       15.158      865.228
12/02/2021  16:12:00      -87.635       23.018      -13.669        6.615        6.028        4.883       43.755       36.334       23.840        0.425        0.005       90.607        2.487        0.001      340.805       15.081      865.224
12/02/2021  16:13:00      -86.334       33.003      -11.146        6.340        6.616        5.437       40.192       43.771       29.562        0.439        0.006       92.427        2.120        0.001      340.711       14.919      865.214
12/02/2021  16:14:00      -89.923       35.637      -13.492        7.576        6.493        9.406       57.400       42.164       88.466        0.486        0.009       96.727        3.853        0.002      340.665       14.843      865.209
12/02/2021  16:15:00      -81.405       27.309      -15.207        9.839        9.223        7.999       96.815       85.070       63.985        0.392        0.012       85.864        5.139        0.004      340.649       14.814      865.212
12/02/2021  16:16:00      -77.548       23.722      -12.454       11.450       13.360       10.068      131.091      178.497      101.367        0.357        0.021       81.095        7.103        0.008      340.642       14.804      865.211
12/02/2021  16:17:00      -86.525       29.619      -12.469       10.386        9.278        7.388      107.867       86.085       54.588        0.438        0.012       91.454        4.566        0.002      340.708       14.915      865.204
12/02/2021  16:18:00      -92.060       41.838       -8.150       13.977       11.459        9.304      195.348      131.302       86.565        0.535        0.021      101.121        7.577        0.006      340.644       14.808      865.198
12/02/2021  16:19:00      -95.446       38.078      -13.096        7.313        6.452        6.654       53.475       41.629       44.274        0.544        0.007      102.761        3.734        0.001      340.661       14.836      865.193
12/02/2021  16:20:00      -87.012       32.772      -14.575        8.659        6.110        7.111       74.979       37.337       50.572        0.451        0.008       92.979        2.422        0.001      340.643       14.805      865.192
12/02/2021  16:21:00      -78.411       29.850      -15.386        8.863        6.931        7.205       78.550       48.042       51.905        0.373        0.009       83.901        3.608        0.002      340.669       14.851      865.187
12/02/2021  16:22:00      -83.521       35.542      -12.463        7.379        6.667        5.952       54.444       44.447       35.427        0.426        0.007       90.769        3.196        0.001      340.627       14.779      865.184
12/02/2021  16:23:00      -78.336       23.803      -12.293       16.030       23.036       11.893      256.956      530.639      141.445        0.389        0.046       81.872        9.899        0.015      340.389       14.374      865.182
12/02/2021  16:24:00      -89.530       30.704      -11.818       29.640       21.909       15.947      878.518      480.009      254.309        0.536        0.081       94.649       13.851        0.021      340.037       13.780      865.187
12/02/2021  16:25:00      -99.950       35.454       -5.445       41.083       23.532       24.033     1687.774      553.769      577.565        0.705        0.141      106.052       13.591        0.016      340.007       13.729      865.186
12/02/2021  16:26:00      -33.392       20.741       -6.020       40.325       31.641       17.122     1626.139     1001.137      293.165        0.225        0.146       39.310       10.589        0.073      339.815       13.407      865.187
12/02/2021  16:27:00      -41.525       14.143      -10.405       43.637       20.350       20.905     1904.218      414.122      437.037        0.239        0.138       43.868       20.187        0.212      339.772       13.334      865.187
12/02/2021  16:28:00      -34.148       14.672      -18.438       37.392       22.552       20.084     1398.150      508.601      403.364        0.202        0.116       37.166       12.478        0.113      339.704       13.220      865.192
12/02/2021  16:29:00      -24.266      -17.233      -16.257       32.317       22.002       17.930     1044.414      484.089      321.473        0.150        0.092       29.763       19.095        0.412      339.690       13.196      865.196
12/02/2021  16:30:00      -88.487       13.272      -17.606       25.118       20.594       15.649      630.926      424.128      244.882        0.481        0.065       89.477        4.744        0.003      339.722       13.250      865.194
12/02/2021  16:31:00      -25.343       -7.315      -13.983       32.619       24.742       16.160     1064.000      612.175      261.134        0.141        0.097       26.378        8.815        0.112      339.539       12.941      865.192
12/02/2021  16:32:00      -43.709        0.722      -18.461       27.878       23.749       18.468      777.158      564.038      341.058        0.197        0.084       43.715       17.280        0.156      339.468       12.821      865.193
12/02/2021  16:33:00      -58.154        0.676      -13.919       34.516       32.821       25.624     1191.341     1077.242      656.575        0.325        0.146       58.158       14.965        0.066      339.384       12.681      865.196
12/02/2021  16:34:00      -58.079       17.093       -7.667       46.924       32.381       18.574     2201.877     1048.512      344.991        0.366        0.180       60.542       23.648        0.153      339.446       12.786      865.199
12/02/2021  16:35:00      -51.349        7.947      -19.774       26.508       30.451       21.103      702.675      927.260      445.333        0.258        0.104       51.961        8.843        0.029      339.447       12.784      865.212
12/02/2021  16:36:00       -9.828       -3.993        4.179       16.854       17.804       18.343      284.073      316.984      336.466        0.053        0.047       10.608        9.214        0.754      339.346       12.615      865.216
12/02/2021  16:37:00      -19.618      -13.941       -6.432       20.654       19.187       16.030      426.586      368.148      256.953        0.084        0.053       24.067       14.616        0.369      339.330       12.587      865.221
12/02/2021  16:38:00      -46.407      -10.923      -18.476       28.444       24.925       17.250      809.035      621.269      297.571        0.217        0.086       47.675       11.399        0.057      339.293       12.527      865.220
12/02/2021  16:39:00      -46.335        1.157      -19.614       25.890       22.301       19.747      670.266      497.355      389.925        0.204        0.078       46.349       15.513        0.112      339.296       12.530      865.220
12/02/2021  16:40:00      -60.733        4.355      -22.556       29.383       20.402       22.557      863.375      416.227      508.838        0.300        0.089       60.889       20.155        0.110      339.286       12.515      865.217
12/02/2021  16:41:00      -88.160       16.784      -22.897       21.580       21.677       19.906      465.675      469.882      396.240        0.495        0.067       89.744       15.013        0.028      339.338       12.602      865.224
12/02/2021  16:42:00     -103.927       27.851      -25.740       13.956       13.836       17.186      194.770      191.429      295.349        0.646        0.034      107.594        9.092        0.007      339.260       12.471      865.226
12/02/2021  16:43:00      -93.665        5.337      -19.680       20.588       19.186       14.693      423.875      368.116      215.882        0.510        0.050       93.817       13.154        0.020      339.261       12.473      865.221
12/02/2021  16:44:00      -76.847        4.939      -15.702       34.108       25.698       23.059     1163.352      660.381      531.737        0.427        0.118       77.005       20.648        0.072      339.214       12.394      865.230
12/02/2021  16:45:00      -12.923       18.399       -4.536       60.861       28.717       22.555     3704.062      824.689      508.735        0.278        0.252       22.484       27.301        1.474      339.208       12.383      865.231
12/02/2021  16:46:00      -76.213       13.639      -21.413       43.101       29.701       23.596     1857.714      882.125      556.767        0.487        0.165       77.424       19.436        0.063      339.132       12.255      865.234
12/02/2021  16:47:00      -14.891       -0.122      -11.703       24.560       25.898       24.835      603.209      670.702      616.762        0.112        0.095       14.891       11.123        0.558      339.008       12.046      865.237
12/02/2021  16:48:00      -20.378        1.191      -17.022       47.790       29.338       25.925     2283.905      860.730      672.116        0.226        0.191       20.413       23.377        1.312      338.930       11.915      865.233
12/02/2021  16:49:00      -72.017      -21.730      -32.745       36.355       32.836       28.063     1321.715     1078.199      787.529        0.496        0.159       75.224       26.884        0.128      338.947       11.946      865.241
12/02/2021  16:50:00      -28.305        7.397      -11.850       40.603       28.609       27.609     1648.616      818.486      762.256        0.211        0.161       29.255       21.701        0.550      338.834       11.753      865.249
12/02/2021  16:51:00      -90.510       14.148      -11.769       46.160       39.459       26.431     2130.742     1556.977      698.601        0.646        0.219       91.609       22.667        0.061      338.902       11.868      865.257
12/02/2021  16:52:00      -99.158       28.383      -14.155       84.060       25.234       24.826     7066.100      636.741      616.329        0.958        0.416      103.140       21.986        0.045      338.884       11.838      865.266
12/02/2021  16:53:00      -98.197        9.796      -13.295       59.950       38.500       31.155     3594.004     1482.220      970.648        0.798        0.302       98.684       26.263        0.071      338.852       11.785      865.277
12/02/2021  16:54:00     -115.374        5.501      -12.782       83.108       40.659       27.938     6906.913     1653.189      780.521        1.142        0.467      115.505       30.745        0.071      338.825       11.740      865.281
12/02/2021  16:55:00     -151.432       34.174      -13.625       42.430       32.961       19.345     1800.269     1086.425      374.218        1.377        0.163      155.240        8.753        0.003      338.751       11.615      865.302
12/02/2021  16:56:00     -137.178       19.468      -12.782       38.354       27.017       26.077     1471.012      729.935      680.001        1.112        0.144      138.553       25.070        0.033      338.679       11.493      865.310
12/02/2021  16:57:00      -70.098        1.653       -5.810       43.903       35.487       29.746     1927.453     1259.307      884.817        0.451        0.204       70.117       27.042        0.149      338.698       11.525      865.327
12/02/2021  16:58:00      -62.465       -3.495      -16.968       56.595       37.694       24.324     3202.991     1420.830      591.663        0.471        0.261       62.562       15.123        0.058      338.691       11.514      865.341
12/02/2021  16:59:00       -0.814       25.607       -4.505       31.435       32.468       18.056      988.146     1054.146      326.011        0.152        0.118       25.620       14.723        0.330      338.565       11.304      865.353
12/02/2021  17:00:00       -2.433        5.119        2.813       28.850       28.166       25.770      832.339      793.351      664.111        0.116        0.114        5.667       20.200       12.705      338.481       11.162      865.359
12/02/2021  17:01:00      -84.266       -2.249      -13.693       43.491       33.618       26.653     1891.437     1130.140      710.356        0.551        0.187       84.296       20.216        0.058      338.541       11.262      865.367
12/02/2021  17:02:00      -92.897       11.255      -14.808       54.493       36.105       23.220     2969.438     1303.602      539.150        0.689        0.241       93.576       18.468        0.039      338.532       11.247      865.375
12/02/2021  17:03:00      -80.687       -4.042      -14.252       50.232       39.402       25.339     2523.238     1552.547      642.051        0.572        0.236       80.788       23.117        0.082      338.490       11.177      865.379
12/02/2021  17:04:00      -20.434        0.217      -12.673       57.422       40.699       25.940     3297.286     1656.431      672.880        0.310        0.281       20.435       29.032        2.018      338.396       11.018      865.389
12/02/2021  17:05:00      -58.050       -3.285       -8.774       45.934       40.427       25.419     2109.935     1634.376      646.112        0.392        0.220       58.143       22.995        0.156      338.389       11.007      865.400
12/02/2021  17:06:00      -96.185      -25.725      -18.353       40.766       26.698       33.592     1661.889      712.797     1128.391        0.688        0.175       99.566       25.080        0.063      338.311       10.879      865.399
12/02/2021  17:07:00      -81.526       -1.063      -21.692       40.985       25.809       28.379     1679.755      666.100      805.343        0.513        0.158       81.533       25.113        0.095      338.311       10.877      865.404
12/02/2021  17:08:00      -59.435        1.078      -10.324       39.223       31.123       30.312     1538.413      968.670      918.823        0.353        0.171       59.445       27.440        0.213      338.299       10.857      865.411
12/02/2021  17:09:00     -106.097        1.151      -26.396       30.837       23.722       23.351      950.900      562.740      545.282        0.701        0.103      106.103       10.677        0.010      338.248       10.771      865.418
12/02/2021  17:10:00      -62.220      -19.125      -28.543       38.078       24.459       29.161     1449.949      598.225      850.344        0.397        0.145       65.093       23.677        0.132      338.209       10.704      865.414
12/02/2021  17:11:00      -94.780       -5.509      -35.107       28.147       28.917       28.650      792.280      836.200      820.808        0.635        0.122       94.940       20.515        0.047      338.214       10.712      865.414
12/02/2021  17:12:00      -74.012       20.005      -20.181       63.257       34.893       27.934     4001.388     1217.535      780.312        0.614        0.300       76.668       32.010        0.174      338.240       10.756      865.420
12/02/2021  17:13:00      -53.528       -1.833      -21.464       41.069       31.338       22.396     1686.703      982.097      501.592        0.325        0.159       53.559       22.628        0.178      338.205       10.698      865.428
12/02/2021  17:14:00      -63.352       13.545      -31.562       26.344       23.869       24.044      694.000      569.738      578.125        0.352        0.092       64.784       17.887        0.076      338.231       10.742      865.426
12/02/2021  17:15:00      -62.544        0.009      -26.777       28.844       26.206       25.500      831.968      686.777      650.274        0.340        0.108       62.544       17.341        0.077      338.155       10.614      865.423
12/02/2021  17:16:00      -58.383        6.288      -27.415       28.770       21.081       24.910      827.706      444.388      620.502        0.305        0.095       58.720       18.725        0.102      338.112       10.542      865.425
12/02/2021  17:17:00      -94.302       12.382      -32.915       21.470       21.601       17.661      460.980      466.617      311.912        0.568        0.062       95.112       11.246        0.014      338.037       10.416      865.422
12/02/2021  17:18:00      -72.434       21.854      -28.090       29.014       26.001       19.617      841.808      676.041      384.820        0.421        0.095       75.659        9.520        0.016      338.014       10.379      865.422
12/02/2021  17:19:00      -81.367       14.860      -32.930       28.648       20.219       18.839      820.730      408.793      354.912        0.475        0.079       82.713        9.622        0.014      338.015       10.381      865.429
12/02/2021  17:20:00      -80.522        1.539      -33.361       26.064       20.969       19.830      679.321      439.702      393.228        0.456        0.076       80.537       10.402        0.017      338.021       10.390      865.437
12/02/2021  17:21:00      -87.503        5.474      -28.979       31.773       28.698       21.278     1009.503      823.583      452.734        0.541        0.114       87.674       15.361        0.031      337.988       10.334      865.443
12/02/2021  17:22:00      -99.051       21.288      -31.242       34.842       28.821       19.697     1213.942      830.676      387.976        0.684        0.122      101.313       14.154        0.020      337.915       10.213      865.448
12/02/2021  17:23:00     -119.470       38.858      -28.084       16.892       22.023       14.390      285.327      485.005      207.068        0.877        0.049      125.631        8.757        0.005      337.910       10.205      865.451
12/02/2021  17:24:00     -104.886       37.825      -25.904       17.584       22.508       16.886      309.207      506.630      285.141        0.710        0.055      111.498       12.221        0.012      337.866       10.129      865.457
12/02/2021  17:25:00      -90.960       31.484      -24.884       20.539       26.800       19.568      421.864      718.241      382.921        0.570        0.076       96.255        8.896        0.009      337.925       10.229      865.460
12/02/2021  17:26:00      -95.353       32.256      -30.253       24.420       27.929       19.539      596.359      780.016      381.790        0.640        0.088      100.661       13.406        0.018      338.069       10.470      865.480
12/02/2021  17:27:00      -82.045        6.693      -28.613       31.367       31.844       21.421      983.895     1014.038      458.862        0.503        0.123       82.318       15.885        0.037      337.876       10.147      865.490
12/02/2021  17:28:00      -87.029        0.115      -25.054       40.696       28.852       23.355     1656.179      832.428      545.441        0.562        0.152       87.029       19.523        0.050      337.872       10.141      865.501
12/02/2021  17:29:00     -124.018        6.370      -36.294       26.632       24.742       23.050      709.284      612.147      531.322        0.930        0.093      124.182       15.455        0.015      337.800       10.018      865.516
12/02/2021  17:30:00     -137.230       20.241      -21.747       24.847       22.198       18.488      617.357      492.746      341.812        1.058        0.073      138.715       12.487        0.008      337.810       10.035      865.530
12/02/2021  17:31:00     -143.490       34.938      -24.390       21.455       14.304       12.639      460.300      204.607      159.741        1.161        0.041      147.682        3.888        0.001      337.759        9.951      865.537
12/02/2021  17:32:00     -117.513       36.611      -20.861       20.010       15.877       11.908      400.404      252.091      141.799        0.819        0.040      123.084        6.681        0.003      337.772        9.973      865.540
12/02/2021  17:33:00     -108.222       28.301      -26.972       15.939       12.810       14.000      254.047      164.086      195.997        0.693        0.031      111.861       11.920        0.011      337.724        9.890      865.545
12/02/2021  17:34:00     -101.810       32.796      -28.899       18.557       19.637       16.344      344.378      385.618      267.114        0.664        0.050      106.962       11.387        0.011      337.708        9.865      865.551
12/02/2021  17:35:00      -85.856       22.587      -27.645       29.516       27.400       22.475      871.203      750.757      505.124        0.539        0.106       88.777       12.084        0.019      337.749        9.933      865.552
12/02/2021  17:36:00      -61.469        6.157      -16.833       51.604       29.577       32.847     2662.929      874.808     1078.947        0.436        0.231       61.777       33.245        0.290      337.643        9.756      865.555
12/02/2021  17:37:00      -88.019       13.092      -25.903       40.336       31.907       27.385     1626.961     1018.045      749.925        0.599        0.170       88.988       22.290        0.063      337.660        9.785      865.563
12/02/2021  17:38:00      -92.846        1.188      -22.978       38.602       35.260       25.413     1490.089     1243.260      645.828        0.626        0.169       92.854       18.062        0.038      337.612        9.705      865.571
12/02/2021  17:39:00      -98.547       14.940      -17.288       44.911       25.994       19.191     2016.961      675.683      368.295        0.665        0.153       99.673       17.676        0.031      337.657        9.779      865.585
12/02/2021  17:40:00      -97.273       11.640      -23.292       28.668       28.383       20.112      821.842      805.585      404.498        0.609        0.102       97.967       15.524        0.025      337.675        9.808      865.591
12/02/2021  17:41:00     -100.404       20.808      -16.234       26.204       19.451       20.553      686.668      378.349      422.425        0.613        0.074      102.538       12.654        0.015      337.655        9.775      865.604
12/02/2021  17:42:00      -96.431       27.627      -16.066       26.748       20.684       18.134      715.445      427.824      328.838        0.590        0.074      100.310       11.569        0.013      337.622        9.720      865.615
12/02/2021  17:43:00     -101.973       18.587      -24.746       30.647       19.766       15.035      939.223      390.712      226.051        0.646        0.078      103.653       10.928        0.011      337.668        9.797      865.618
12/02/2021  17:44:00      -60.815        6.851      -16.330       39.149       25.441       20.481     1532.611      647.231      419.466        0.331        0.130       61.199       18.595        0.092      337.620        9.718      865.627
12/02/2021  17:45:00      -73.738        8.906      -17.135       28.665       23.209       19.816      821.691      538.675      392.688        0.378        0.088       74.273       10.449        0.020      337.593        9.673      865.630
12/02/2021  17:46:00     -103.181       19.079      -25.288       28.347       27.226       19.509      803.579      741.268      380.598        0.679        0.096      104.930       10.284        0.010      337.550        9.599      865.633
12/02/2021  17:47:00     -121.322       19.276      -29.463       15.775       21.352       14.122      248.863      455.926      199.443        0.843        0.045      122.844        4.735        0.001      337.583        9.654      865.632
12/02/2021  17:48:00      -95.898       11.116      -24.306       33.016       22.618       20.978     1090.054      511.559      440.075        0.598        0.102       96.540       14.703        0.023      337.588        9.663      865.626
12/02/2021  17:49:00     -111.340       26.565      -22.192       21.920       15.196       17.000      480.475      230.925      289.009        0.730        0.050      114.465       13.650        0.014      337.570        9.632      865.638
12/02/2021  17:50:00     -101.515       37.604      -28.527       24.634       20.008       18.094      606.815      400.331      327.386        0.693        0.067      108.256        8.104        0.006      337.639        9.749      865.640
12/02/2021  17:51:00      -83.892        8.631      -24.978       27.212       25.319       17.479      740.467      641.061      305.508        0.471        0.084       84.334       13.665        0.026      337.541        9.585      865.643
12/02/2021  17:52:00     -107.683       21.036      -34.657       21.433       20.776       20.301      459.374      431.628      412.111        0.727        0.065      109.719       13.448        0.015      337.535        9.574      865.644
12/02/2021  17:53:00     -125.396       30.593      -36.068       22.394       21.589       17.110      501.512      466.104      292.745        0.961        0.063      129.074        6.054        0.002      337.478        9.478      865.646
12/02/2021  17:54:00     -109.226       23.445      -31.441       22.002       15.922       13.725      484.098      253.520      188.380        0.720        0.046      111.714       10.152        0.008      337.461        9.450      865.644
12/02/2021  17:55:00     -126.355       19.861      -36.948       18.682       18.842       21.850      349.021      355.040      477.444        0.945        0.059      127.906       10.504        0.007      337.464        9.454      865.652
12/02/2021  17:56:00     -103.669       -7.431      -27.815       35.748       22.132       25.221     1277.921      489.841      636.077        0.699        0.120      103.935       20.874        0.040      337.388        9.328      865.649
12/02/2021  17:57:00     -145.813        3.375      -28.707       16.276       18.991       16.014      264.907      360.675      256.451        1.149        0.044      145.852        9.412        0.004      337.371        9.299      865.658
12/02/2021  17:58:00     -134.671       10.074      -23.062       30.279       25.334       22.355      916.788      641.831      499.744        1.041        0.103      135.048       15.267        0.013      337.336        9.242      865.657
12/02/2021  17:59:00     -111.879       -6.653      -19.891       33.380       25.874       24.228     1114.229      669.475      587.012        0.766        0.119      112.076       18.612        0.028      337.290        9.164      865.666
12/02/2021  18:00:00      -88.894       17.584      -11.673       27.359       29.674       22.000      748.507      880.539      483.981        0.523        0.106       90.617       14.911        0.027      337.308        9.197      865.676
12/02/2021  18:01:00     -123.008       25.211      -12.364       39.890       30.064       21.493     1591.238      903.863      461.951        0.944        0.148      125.565       20.826        0.028      337.292        9.168      865.683
12/02/2021  18:02:00     -153.216       43.485      -25.796       23.153       24.135       21.517      536.078      582.502      462.986        1.381        0.079      159.268       11.262        0.005      337.230        9.065      865.690
12/02/2021  18:03:00     -132.164       10.696      -27.909       29.801       31.374       19.045      888.129      984.358      362.704        1.030        0.112      132.596       15.283        0.013      337.201        9.015      865.700
12/02/2021  18:04:00      -49.054        0.497       -4.460       44.839       29.008       32.020     2010.493      841.450     1025.309        0.315        0.194       49.057       28.797        0.345      337.123        8.885      865.706
12/02/2021  18:05:00      -68.769       -9.723      -15.223       40.109       43.319       32.081     1608.763     1876.540     1029.194        0.478        0.226       69.453       20.394        0.086      337.140        8.913      865.720
12/02/2021  18:06:00       -2.755        8.949        2.775       21.374       25.120       24.304      456.827      630.992      590.685        0.089        0.084        9.364       14.069        2.258      337.099        8.845      865.730
12/02/2021  18:07:00      -39.161       -8.253      -16.651       37.622       43.243       28.484     1415.415     1869.957      811.362        0.299        0.205       40.021       23.234        0.337      337.085        8.822      865.745
12/02/2021  18:08:00      -48.122       22.643      -16.974       37.002       29.590       24.314     1369.151      875.589      591.171        0.298        0.142       53.183       15.505        0.085      337.152        8.933      865.755
12/02/2021  18:09:00      -38.353       17.790      -13.742       38.352       26.512       20.927     1470.907      702.904      437.955        0.229        0.131       42.278       19.556        0.214      337.064        8.783      865.761
12/02/2021  18:10:00      -45.581      -17.692      -14.768       31.852       27.443       24.173     1014.537      753.113      584.313        0.248        0.118       48.894       16.677        0.116      337.036        8.737      865.764
12/02/2021  18:11:00      -47.045       -6.155      -18.321       48.653       30.707       27.059     2367.115      942.928      732.208        0.331        0.202       47.446       29.608        0.389      337.005        8.688      865.774
12/02/2021  18:12:00      -62.304       12.347      -21.802       30.504       35.059       25.720      930.492     1229.129      661.506        0.366        0.141       63.516       11.582        0.033      337.045        8.754      865.776
12/02/2021  18:13:00      -94.420       25.279      -26.352       33.260       28.732       18.609     1106.208      825.535      346.306        0.626        0.114       97.745       14.237        0.021      337.091        8.831      865.792
12/02/2021  18:14:00      -91.404       32.159      -26.764       26.833       32.393       21.660      719.983     1049.314      469.170        0.617        0.112       96.897       10.250        0.011      337.166        8.957      865.796
12/02/2021  18:15:00      -93.769       21.925      -25.657       18.061       19.643       17.419      326.213      385.859      303.418        0.547        0.051       96.299        7.872        0.007      337.135        8.905      865.805
12/02/2021  18:16:00      -83.289        5.270      -18.228       30.941       33.295       24.974      957.345     1108.564      623.704        0.499        0.134       83.455       17.113        0.042      337.097        8.842      865.811
12/02/2021  18:17:00      -97.966        8.676      -23.641       24.453       22.575       19.129      597.932      509.652      365.909        0.585        0.074       98.350        7.065        0.005      337.042        8.750      865.813
12/02/2021  18:18:00      -95.846        5.883      -31.358       28.093       25.180       23.611      789.232      634.011      557.479        0.609        0.099       96.026        9.801        0.010      336.995        8.670      865.819
12/02/2021  18:19:00     -111.202       22.389      -34.538       27.835       24.598       16.954      774.793      605.075      287.431        0.786        0.083      113.433       11.656        0.011      336.973        8.634      865.827
12/02/2021  18:20:00     -115.795       47.251      -25.159       16.436       20.153       15.299      270.140      406.124      234.053        0.859        0.046      125.065        8.179        0.004      336.929        8.559      865.834
12/02/2021  18:21:00      -92.933       10.292      -38.634       29.170       25.764       26.236      850.866      663.796      688.320        0.622        0.110       93.501       21.586        0.053      336.976        8.639      865.837
12/02/2021  18:22:00      -62.402        3.744      -19.636       35.876       29.845       25.938     1287.102      890.740      672.761        0.357        0.143       62.514       22.512        0.130      336.903        8.517      865.838
12/02/2021  18:23:00       -3.990      -11.066      -14.447       24.259       28.832       23.290      588.496      831.291      542.424        0.115        0.098       11.763       10.946        0.866      336.884        8.484      865.841
12/02/2021  18:24:00      -71.545        1.652      -27.577       32.877       33.980       34.351     1080.885     1154.672     1180.006        0.465        0.171       71.564       22.433        0.098      336.897        8.506      865.844
12/02/2021  18:25:00      -88.361       -2.018      -25.791       29.459       33.242       22.075      867.811     1105.007      487.303        0.547        0.123       88.384       14.784        0.028      336.839        8.411      865.848
12/02/2021  18:26:00      -80.861       24.613      -22.826       49.778       40.132       24.937     2477.808     1610.616      621.834        0.619        0.236       84.524       18.202        0.046      336.820        8.378      865.849
12/02/2021  18:27:00     -126.298       56.119      -26.141       30.538       20.188       18.903      932.572      407.555      357.317        1.074        0.085      138.205       10.387        0.006      336.817        8.372      865.847
12/02/2021  18:28:00     -132.118       59.828      -28.537       18.571       19.473       15.440      344.890      379.210      238.391        1.141        0.048      145.033        2.261        0.000      336.809        8.359      865.846
12/02/2021  18:29:00     -109.439       35.007      -26.623       26.191       26.282       17.647      685.947      690.763      311.409        0.780        0.084      114.902       16.241        0.020      336.788        8.325      865.842
12/02/2021  18:30:00      -82.085       16.844      -24.236       30.045       29.798       24.358      902.702      887.897      593.332        0.500        0.119       83.795       19.006        0.051      336.842        8.414      865.844
12/02/2021  18:31:00     -112.471       19.497      -27.508       27.862       29.338       21.391      776.273      860.698      457.570        0.794        0.105      114.149       15.956        0.020      336.859        8.442      865.847
12/02/2021  18:32:00      -67.204      -18.023      -27.609       25.404       32.928       27.330      645.351     1084.222      746.925        0.404        0.124       69.578       13.609        0.038      336.824        8.384      865.852
12/02/2021  18:33:00      -91.837       12.043      -29.764       29.093       22.380       17.635      846.374      500.842      311.005        0.556        0.083       92.624       10.366        0.013      336.810        8.361      865.854
12/02/2021  18:34:00      -88.338        2.164      -19.911       30.916       27.752       21.033      955.814      770.155      442.397        0.519        0.108       88.365        9.055        0.011      336.771        8.297      865.861
12/02/2021  18:35:00      -56.734        1.109      -16.392       47.299       32.484       27.700     2237.223     1055.232      767.263        0.377        0.203       56.745       28.301        0.249      336.801        8.345      865.860
12/02/2021  18:36:00      -88.373       22.092      -21.265       37.683       30.638       23.511     1419.992      938.664      552.744        0.583        0.146       91.092       20.117        0.049      336.864        8.451      865.859
12/02/2021  18:37:00      -99.294       34.407      -32.219       32.825       31.940       21.379     1077.448     1020.178      457.050        0.732        0.128      105.087       18.885        0.032      336.880        8.478      865.856
12/02/2021  18:38:00      -86.330       14.362      -36.576       24.203       25.612       22.699      585.781      655.987      515.255        0.538        0.088       87.516       17.766        0.041      336.846        8.421      865.850
12/02/2021  18:39:00      -91.463       19.589      -40.035       33.127       21.850       20.136     1097.393      477.434      405.470        0.617        0.099       93.538        8.313        0.008      336.839        8.409      865.850
12/02/2021  18:40:00     -100.622       28.203      -35.861       26.679       28.700       19.833      711.766      823.715      393.353        0.707        0.096      104.499        9.304        0.008      336.828        8.391      865.848
12/02/2021  18:41:00      -99.147       33.683      -24.674       18.535       19.780       16.592      343.541      391.267      275.281        0.629        0.051      104.713        9.148        0.008      336.852        8.432      865.851
12/02/2021  18:42:00      -99.012        8.465      -22.843       24.920       19.361       21.783      621.014      374.853      474.491        0.593        0.074       99.373       17.361        0.031      336.774        8.301      865.863
12/02/2021  18:43:00     -104.952       31.957      -28.427       17.508       20.025       16.519      306.517      401.016      272.893        0.691        0.049      109.709        8.593        0.006      336.719        8.211      865.874
12/02/2021  18:44:00      -99.286       27.182      -30.664       19.006       16.856       17.593      361.228      284.138      309.528        0.625        0.048      102.940        7.256        0.005      336.783        8.316      865.881
12/02/2021  18:45:00      -95.794       25.760      -31.809       25.071       22.081       18.407      628.576      487.554      338.809        0.615        0.073       99.197       12.189        0.015      336.766        8.290      865.885
12/02/2021  18:46:00      -89.306       23.670      -28.775       27.596       25.002       21.921      761.561      625.106      480.550        0.562        0.093       92.390       15.653        0.029      336.767        8.289      865.891
12/02/2021  18:47:00      -80.342       28.416      -28.061       26.497       23.258       16.384      702.096      540.921      268.446        0.478        0.076       85.219        8.240        0.009      336.776        8.304      865.902
12/02/2021  18:48:00      -81.817       33.724      -19.847       26.246       20.894       16.631      688.856      436.542      276.597        0.481        0.070       88.495        9.275        0.011      336.804        8.352      865.909
12/02/2021  18:49:00      -76.749       13.869      -24.547       18.686       21.865       13.337      349.152      478.078      177.871        0.385        0.050       77.992        6.829        0.008      336.880        8.480      865.922
12/02/2021  18:50:00      -70.445       18.645      -18.819       20.427       29.368       22.904      417.282      862.504      524.607        0.373        0.090       72.870       13.628        0.035      336.894        8.501      865.932
12/02/2021  18:51:00      -50.705        3.906      -16.928       27.607       25.057       20.892      762.157      627.832      436.495        0.235        0.091       50.855       15.721        0.096      336.766        8.288      865.938
12/02/2021  18:52:00      -94.202        0.404      -21.263       33.855       30.613       24.970     1146.169      937.185      623.484        0.602        0.135       94.203       16.081        0.029      336.752        8.265      865.947
12/02/2021  18:53:00     -116.882       10.686      -31.293       21.823       22.890       15.532      476.258      523.966      241.248        0.800        0.062      117.370        5.887        0.003      336.802        8.347      865.957
12/02/2021  18:54:00     -125.156        8.048      -24.255       20.803       17.916       16.227      432.749      320.970      263.308        0.867        0.051      125.415        7.522        0.004      336.786        8.320      865.976
12/02/2021  18:55:00      -83.352        8.605      -20.188       42.051       27.424       22.879     1768.261      752.066      523.449        0.524        0.152       83.795       19.383        0.054      336.746        8.255      865.983
12/02/2021  18:56:00      -87.093       -1.112      -20.980       27.377       22.887       18.327      749.503      523.795      335.882        0.482        0.080       87.100       17.149        0.039      336.755        8.270      865.992
12/02/2021  18:57:00      -39.654       -6.623       -8.772       35.576       34.055       21.831     1265.616     1159.738      476.587        0.230        0.145       40.204       22.210        0.305      336.659        8.111      865.991
12/02/2021  18:58:00     -128.124       13.739      -26.041       19.352       26.266       26.497      374.519      689.877      702.067        0.952        0.088      128.859       10.431        0.007      336.636        8.072      866.000
12/02/2021  18:59:00     -107.076        8.511      -12.163       38.733       24.954       27.658     1500.208      622.683      764.946        0.729        0.144      107.413       23.904        0.050      336.642        8.081      866.017
12/02/2021  19:00:00     -107.614        3.710      -19.668       29.396       29.353       19.650      864.110      861.608      386.142        0.705        0.106      107.678       15.647        0.021      336.647        8.090      866.031
12/02/2021  19:01:00     -109.775       -3.072      -24.683       25.003       17.353       23.683      625.139      301.144      560.897        0.708        0.074      109.818        7.099        0.004      336.606        8.022      866.044
12/02/2021  19:02:00      -69.248       -9.648      -10.096       46.584       22.833       20.639     2170.064      521.326      425.967        0.405        0.156       69.917       19.401        0.077      336.599        8.010      866.051
12/02/2021  19:03:00      -88.571      -10.663      -24.009       26.128       22.844       23.275      682.671      521.851      541.708        0.514        0.087       89.210       18.044        0.041      336.555        7.935      866.055
12/02/2021  19:04:00     -106.307        5.483      -26.786       23.265       16.673       16.772      541.279      277.980      281.295        0.657        0.055      106.449        7.016        0.004      336.585        7.988      866.058
12/02/2021  19:05:00     -101.870       -0.105      -13.557       36.861       28.232       19.381     1358.738      797.033      375.612        0.655        0.127      101.870        8.399        0.007      336.581        7.980      866.063
12/02/2021  19:06:00      -89.359       -4.329      -10.122       45.843       30.571       24.286     2101.585      934.605      589.793        0.587        0.181       89.463       18.817        0.044      336.589        7.993      866.078
12/02/2021  19:07:00      -89.933        8.944       -8.098       42.910       27.679       18.339     1841.227      766.099      336.317        0.559        0.147       90.376       19.294        0.046      336.583        7.985      866.088
12/02/2021  19:08:00      -99.128        1.336       -6.315       39.851       26.056       18.239     1588.108      678.928      332.676        0.623        0.130       99.137       17.318        0.031      336.524        7.885      866.109
12/02/2021  19:09:00     -134.255       16.147      -15.592       32.035       20.660       15.201     1026.273      426.847      231.061        1.011        0.084      135.222       12.453        0.008      336.631        8.065      866.120
12/02/2021  19:10:00     -130.552       20.284       -6.518       29.931       24.522       17.264      895.883      601.311      298.029        0.965        0.090      132.118       14.274        0.012      336.624        8.052      866.135
12/02/2021  19:11:00      -84.948       18.170       -6.974       53.250       26.939       19.819     2835.532      725.686      392.795        0.577        0.198       86.869       26.154        0.091      336.651        8.097      866.150
12/02/2021  19:12:00     -131.884       40.511      -15.431       26.470       23.364       13.794      700.653      545.896      190.272        1.035        0.072      137.966        6.684        0.002      336.590        7.995      866.159
12/02/2021  19:13:00      -66.297        3.386      -16.269       31.308       22.181       16.403      980.220      491.996      269.074        0.321        0.087       66.383        9.121        0.019      336.612        8.031      866.166
12/02/2021  19:14:00      -64.768       -9.529       -7.290       30.335       28.478       23.702      920.239      810.976      561.783        0.332        0.115       65.465       15.778        0.058      336.564        7.952      866.170
12/02/2021  19:15:00      -77.473      -11.643       -3.375       41.388       29.040       25.806     1712.973      843.316      665.953        0.469        0.161       78.343       26.037        0.110      336.474        7.799      866.177
12/02/2021  19:16:00      -60.148       -6.201       -7.286       37.767       27.617       21.262     1426.357      762.682      452.065        0.317        0.132       60.467       15.425        0.065      336.430        7.726      866.182
12/02/2021  19:17:00      -39.833       -2.594       -5.984       31.650       28.051       24.311     1001.753      786.872      591.044        0.200        0.119       39.917       20.905        0.274      336.394        7.667      866.189
12/02/2021  19:18:00      -93.532      -10.430       -9.431       33.054       27.775       21.606     1092.588      771.441      466.833        0.564        0.117       94.111       19.724        0.044      336.467        7.787      866.206
12/02/2021  19:19:00     -108.783       10.113       -8.041       39.512       27.838       16.733     1561.233      774.935      279.982        0.731        0.131      109.252       14.725        0.018      336.481        7.813      866.218
12/02/2021  19:20:00      -64.615        7.453       -5.840       34.380       26.950       18.981     1182.006      726.320      360.267        0.327        0.113       65.043        9.795        0.023      336.495        7.836      866.235
12/02/2021  19:21:00     -117.975        5.674      -14.190       29.958       29.317       14.897      897.490      859.508      221.919        0.806        0.099      118.111        9.919        0.007      336.490        7.827      866.258
12/02/2021  19:22:00      -86.148       -3.179       -4.343       37.638       32.720       21.674     1416.654     1070.611      469.750        0.520        0.148       86.206       16.414        0.036      336.455        7.768      866.273
12/02/2021  19:23:00      -99.288       -0.901      -19.889       28.500       20.867       16.796      812.256      435.445      282.122        0.589        0.076       99.292       10.330        0.011      336.405        7.685      866.300
12/02/2021  19:24:00      -56.343      -14.962      -12.303       47.048       29.733       26.041     2213.479      884.042      678.124        0.366        0.189       58.296       19.610        0.113      336.337        7.570      866.318
12/02/2021  19:25:00     -104.561      -13.898      -15.192       38.537       26.010       29.897     1485.109      676.534      893.801        0.721        0.153      105.481       21.594        0.042      336.269        7.457      866.333
12/02/2021  19:26:00      -95.439       -8.573      -11.162       49.636       32.066       29.990     2463.717     1028.200      899.405        0.685        0.220       95.823       29.997        0.098      336.224        7.381      866.343
12/02/2021  19:27:00      -72.564      -16.770      -16.300       53.135       26.039       29.899     2823.298      678.047      893.928        0.510        0.220       74.477       27.286        0.134      336.202        7.344      866.361
12/02/2021  19:28:00      -11.673        1.370       -3.679       40.446       20.061       24.715     1635.854      402.442      610.815        0.140        0.132       11.753       20.252        2.969      336.139        7.239      866.369
12/02/2021  19:29:00      -37.676      -16.074       -5.624       49.134       23.225       22.018     2414.117      539.407      484.780        0.257        0.172       40.962       21.258        0.269      336.161        7.276      866.379
12/02/2021  19:30:00      -64.483       -0.173       -7.477       55.121       26.051       24.746     3038.278      678.637      612.383        0.427        0.216       64.483       28.513        0.196      336.195        7.333      866.398
12/02/2021  19:31:00      -99.216       17.080       -3.689       44.964       24.712       25.970     2021.774      610.664      674.428        0.673        0.165      100.676       25.778        0.066      336.222        7.378      866.417
12/02/2021  19:32:00      -60.650        1.846       -8.848       33.003       26.210       16.650     1089.180      686.988      277.227        0.291        0.103       60.678        5.583        0.008      336.292        7.496      866.439
12/02/2021  19:33:00      -54.285      -10.663       -5.393       33.266       23.875       19.113     1106.632      570.007      365.324        0.257        0.102       55.322       15.881        0.082      336.297        7.503      866.459
12/02/2021  19:34:00      -68.788      -17.351      -11.722       27.112       19.856       16.245      735.076      394.251      263.910        0.328        0.070       70.943        9.126        0.017      336.309        7.523      866.477
12/02/2021  19:35:00      -51.269      -10.047       -5.297       33.977       23.790       20.440     1154.460      565.984      417.787        0.245        0.107       52.244       21.478        0.169      336.269        7.455      866.493
12/02/2021  19:36:00      -50.115       -7.325       -5.578       42.098       22.220       17.131     1772.280      493.728      293.459        0.258        0.128       50.647       18.737        0.137      336.262        7.445      866.510
12/02/2021  19:37:00      -41.933       -1.840       -5.506       21.017       24.154       14.939      441.700      583.406      223.175        0.152        0.062       41.974        6.970        0.028      336.306        7.518      866.523
12/02/2021  19:38:00      -44.724      -10.044       -0.261       30.488       26.842       21.566      929.514      720.494      465.100        0.211        0.106       45.838       19.351        0.178      336.282        7.479      866.534
12/02/2021  19:39:00      -49.905      -13.585       -4.073       44.351       26.337       24.339     1966.980      693.622      592.382        0.297        0.163       51.722       24.560        0.225      336.194        7.332      866.543
12/02/2021  19:40:00      -41.857       -7.462       -3.074       31.452       25.309       21.432      989.253      640.567      459.336        0.195        0.104       42.517       13.205        0.096      336.156        7.267      866.551
12/02/2021  19:41:00      -75.428        1.967       -6.637       31.346       32.805       21.770      982.599     1076.160      473.915        0.413        0.127       75.454       19.029        0.064      336.142        7.245      866.557
12/02/2021  19:42:00     -100.088       -8.034      -10.182       41.057       30.006       22.655     1685.713      900.388      513.255        0.664        0.155      100.410       23.179        0.053      336.157        7.269      866.560
12/02/2021  19:43:00      -57.487        7.097       -5.044       47.677       26.381       22.877     2273.136      695.970      523.374        0.344        0.175       57.923       22.413        0.150      336.121        7.209      866.567
12/02/2021  19:44:00     -100.868       -6.626       -4.581       33.911       28.362       21.375     1149.970      804.427      456.912        0.632        0.121      101.086       17.828        0.031      336.156        7.267      866.576
12/02/2021  19:45:00      -98.442       -3.955       -5.336       30.942       29.456       15.261      957.423      867.669      232.897        0.590        0.103       98.521       14.124        0.021      336.183        7.313      866.582
12/02/2021  19:46:00      -93.661        2.919       -4.780       45.143       27.662       18.212     2037.883      765.204      331.659        0.597        0.157       93.706       20.184        0.046      336.218        7.372      866.589
12/02/2021  19:47:00      -69.637        2.619       -5.216       43.121       31.109       22.175     1859.383      967.777      491.746        0.410        0.166       69.686       22.279        0.102      336.211        7.359      866.590
12/02/2021  19:48:00      -55.339        3.597        3.369       49.052       34.214       22.106     2406.136     1170.598      488.658        0.358        0.203       55.456       17.579        0.100      336.173        7.297      866.588
12/02/2021  19:49:00      -48.603        6.551        0.622       45.650       33.875       26.389     2083.907     1147.498      696.375        0.317        0.196       49.042       20.536        0.175      336.128        7.223      866.591
12/02/2021  19:50:00      -79.201      -18.067       -4.669       36.219       22.628       22.934     1311.800      512.021      525.968        0.449        0.117       81.236       20.314        0.063      336.032        7.062      866.590
12/02/2021  19:51:00      -61.234       -5.154       -9.027       38.500       26.893       24.963     1482.212      723.248      623.147        0.334        0.141       61.450       24.204        0.155      336.108        7.188      866.590
12/02/2021  19:52:00      -38.216        6.474       -7.678       39.707       33.376       25.071     1576.609     1113.934      628.567        0.244        0.166       38.761       21.335        0.303      336.127        7.219      866.592
12/02/2021  19:53:00      -16.112        2.653       -9.324       31.444       22.017       25.385      988.753      484.756      644.415        0.124        0.106       16.329       11.556        0.501      336.084        7.148      866.591
12/02/2021  19:54:00      -40.828       -3.320        3.376       41.232       27.484       31.079     1700.085      755.365      965.876        0.255        0.171       40.962       24.131        0.347      336.098        7.171      866.592
12/02/2021  19:55:00     -100.902      -19.686       -5.420       57.088       26.145       31.474     3258.993      683.584      990.614        0.776        0.247      102.804       30.246        0.087      336.098        7.170      866.584
12/02/2021  19:56:00     -117.591      -24.055      -10.035       44.622       32.815       31.499     1991.098     1076.840      992.203        0.928        0.203      120.026       26.154        0.047      336.102        7.177      866.583
12/02/2021  19:57:00      -57.871      -15.986       -5.116       61.703       29.309       30.023     3807.264      859.027      901.382        0.460        0.278       60.038       30.411        0.257      336.044        7.082      866.589
12/02/2021  19:58:00      -43.250        6.931       -8.915       36.869       30.968       23.950     1359.307      958.989      573.611        0.244        0.145       43.801       17.188        0.154      336.040        7.075      866.593
12/02/2021  19:59:00     -111.133        7.907       -2.221       44.986       32.436       23.725     2023.781     1052.070      562.895        0.803        0.182      111.414       20.448        0.034      336.136        7.234      866.606
12/02/2021  20:00:00     -100.899        6.101        0.948       41.928       30.235       23.084     1757.974      914.152      532.870        0.671        0.160      101.083       19.688        0.038      336.137        7.236      866.616
12/02/2021  20:01:00      -17.999       -1.332       -0.165       39.546       25.247       22.907     1563.885      637.406      524.737        0.153        0.136       18.048       20.654        1.310      336.082        7.143      866.619
12/02/2021  20:02:00      -42.934       -3.992       -2.292       34.607       30.118       20.728     1197.641      907.067      429.655        0.220        0.127       43.119       17.824        0.171      336.030        7.059      866.624
12/02/2021  20:03:00      -12.796       -2.747       -0.148       34.675       35.592       21.290     1202.342     1266.798      453.282        0.155        0.146       13.088       13.763        1.106      335.942        6.912      866.624
12/02/2021  20:04:00     -109.607       13.020      -16.420       53.102       38.119       26.896     2819.798     1453.025      723.421        0.872        0.250      110.377       30.308        0.075      335.886        6.818      866.627
12/02/2021  20:05:00      -95.195       18.297       -6.014       54.785       32.459       21.404     3001.382     1053.580      458.125        0.697        0.226       96.937       24.187        0.062      335.862        6.780      866.628
12/02/2021  20:06:00     -131.492       40.399      -13.504       26.430       27.552       21.538      698.533      759.091      463.865        1.051        0.096      137.558       13.407        0.009      335.889        6.823      866.637
12/02/2021  20:07:00     -152.151       51.417      -19.678       24.498       21.396       16.097      600.172      457.792      259.100        1.375        0.066      160.604        8.106        0.003      335.816        6.701      866.640
12/02/2021  20:08:00     -112.593       13.088      -19.270       41.736       29.784       24.295     1741.887      887.059      590.233        0.822        0.161      113.351       13.964        0.015      335.796        6.667      866.637
12/02/2021  20:09:00     -116.565       11.224      -14.648       42.067       33.770       21.642     1769.648     1140.429      468.369        0.865        0.169      117.104       16.537        0.020      335.773        6.630      866.639
12/02/2021  20:10:00     -131.521       42.541      -13.512       38.431       34.626       24.170     1476.947     1198.946      584.176        1.127        0.163      138.230       17.987        0.017      335.798        6.672      866.639
12/02/2021  20:11:00     -130.745       34.886       -9.315       39.793       29.466       28.145     1583.455      868.266      792.154        1.082        0.162      135.319       21.407        0.025      335.753        6.596      866.637
12/02/2021  20:12:00      -98.252       26.163       -3.780       50.015       33.090       24.799     2501.530     1094.949      615.004        0.728        0.211      101.676       22.038        0.047      335.668        6.454      866.642
12/02/2021  20:13:00      -74.977        4.031      -10.908       38.433       29.201       19.873     1477.109      852.686      394.952        0.424        0.136       75.085       16.628        0.049      335.662        6.444      866.650
12/02/2021  20:14:00      -79.395       11.150       -8.291       46.774       30.353       23.336     2187.788      921.293      544.553        0.507        0.183       80.174       25.493        0.101      335.621        6.376      866.652
12/02/2021  20:15:00      -92.422       20.320      -13.076       31.936       24.263       21.857     1019.903      588.680      477.742        0.561        0.104       94.630       19.243        0.041      335.600        6.342      866.663
12/02/2021  20:16:00      -74.345        8.687       -8.028       43.941       18.865       15.474     1930.770      355.882      239.436        0.410        0.126       74.851       17.134        0.052      335.548        6.257      866.666
12/02/2021  20:17:00      -30.233        6.146        0.231       38.520       13.744       14.060     1483.767      188.911      197.692        0.141        0.094       30.851       14.332        0.216      335.559        6.274      866.676
12/02/2021  20:18:00      -49.074       -8.609       -1.709       37.721       25.675       19.531     1422.838      659.194      381.458        0.247        0.123       49.823        8.699        0.030      335.509        6.190      866.679
12/02/2021  20:19:00      -18.318      -14.535       -0.945       32.547       29.168       17.403     1059.324      850.799      302.863        0.138        0.111       23.384       14.762        0.399      335.506        6.185      866.692
12/02/2021  20:20:00      -48.993       -8.926       -5.211       39.352       28.067       21.140     1548.594      787.774      446.886        0.264        0.139       49.800       15.921        0.102      335.515        6.200      866.702
12/02/2021  20:21:00      -85.797        1.722      -14.558       30.387       30.436       19.471      923.350      926.331      379.133        0.490        0.111       85.814       11.085        0.017      335.531        6.227      866.712
12/02/2021  20:22:00     -101.878      -19.510      -26.827       20.962       19.508       17.949      439.417      380.562      322.178        0.631        0.057      103.729       11.420        0.012      335.541        6.244      866.711
12/02/2021  20:23:00      -76.073      -14.405      -14.052       34.256       30.761       19.856     1173.457      946.251      394.252        0.435        0.126       77.424       13.913        0.032      335.521        6.211      866.711
12/02/2021  20:24:00      -76.610      -11.319      -14.320       26.449       22.473       24.478      699.540      505.050      599.191        0.400        0.090       77.442       17.714        0.052      335.531        6.227      866.720
12/02/2021  20:25:00      -47.169        0.136      -22.403       28.522       32.326       22.202      813.519     1044.985      492.924        0.254        0.118       47.169       17.898        0.144      335.497        6.171      866.716
12/02/2021  20:26:00      -49.302       -3.445       -7.533       38.811       38.493       29.377     1506.295     1481.724      862.993        0.317        0.193       49.423       20.154        0.166      335.405        6.016      866.722
12/02/2021  20:27:00      -90.655      -11.782      -16.474       49.959       33.483       29.801     2495.902     1121.135      888.121        0.657        0.225       91.417       27.553        0.091      335.381        5.977      866.720
12/02/2021  20:28:00     -146.413      -11.210      -15.762       39.021       36.614       31.147     1522.619     1340.607      970.164        1.282        0.192      146.842       21.188        0.021      335.426        6.053      866.726
12/02/2021  20:29:00     -120.327      -10.071       -3.502       56.947       27.420       29.289     3243.003      751.836      857.817        0.972        0.243      120.748       29.914        0.061      335.428        6.056      866.742
12/02/2021  20:30:00     -106.873       -8.344      -16.258       50.019       33.734       25.661     2501.867     1138.005      658.512        0.803        0.215      107.198       24.657        0.053      335.408        6.023      866.753
12/02/2021  20:31:00      -88.255       13.257      -13.368       44.651       34.019       25.584     1993.703     1157.305      654.526        0.597        0.190       89.245       22.792        0.065      335.373        5.964      866.766
12/02/2021  20:32:00      -93.751      -14.204      -22.424       36.706       21.036       22.466     1347.343      442.524      504.704        0.589        0.115       94.821       20.677        0.048      335.359        5.940      866.781
12/02/2021  20:33:00     -102.783       -2.939      -27.145       23.111       21.093       17.526      534.137      444.914      307.161        0.630        0.064      102.825        5.541        0.003      335.331        5.895      866.789
12/02/2021  20:34:00      -98.962        3.894      -27.339       29.786       30.848       21.681      887.230      951.616      470.055        0.643        0.115       99.039       13.290        0.018      335.385        5.985      866.785
12/02/2021  20:35:00     -110.264       18.215      -28.341       33.562       37.706       27.400     1126.420     1421.711      750.777        0.830        0.165      111.758       28.724        0.066      335.430        6.059      866.795
12/02/2021  20:36:00     -123.893       24.950      -19.986       18.935       19.907       17.152      358.553      396.300      294.185        0.871        0.052      126.380       11.850        0.009      335.401        6.010      866.793
12/02/2021  20:37:00     -125.403       11.569      -18.123       36.069       21.981       21.403     1300.960      483.174      458.068        0.921        0.112      125.936       16.418        0.017      335.441        6.076      866.793
12/02/2021  20:38:00     -124.083       13.723      -24.412       35.781       20.711       17.288     1280.255      428.927      298.880        0.909        0.100      124.840       14.998        0.014      335.476        6.135      866.794
12/02/2021  20:39:00     -146.859       21.842      -17.382       32.577       18.686       17.351     1061.240      349.152      301.057        1.203        0.086      148.474       13.678        0.008      335.485        6.150      866.792
12/02/2021  20:40:00     -160.162       37.334      -11.467       22.139       15.695       20.050      490.115      246.347      401.999        1.416        0.057      164.456       11.471        0.005      335.424        6.049      866.791
12/02/2021  20:41:00     -154.514       45.394      -10.075       23.976       16.313       14.445      574.867      266.108      208.660        1.354        0.052      161.044       12.508        0.006      335.412        6.029      866.797
12/02/2021  20:42:00     -145.479       45.512       -9.022       23.738       19.562       17.658      563.477      382.687      311.808        1.229        0.063      152.432       13.204        0.008      335.429        6.058      866.801
12/02/2021  20:43:00     -122.467       46.762       -8.481       25.486       21.636       20.027      649.525      468.134      401.093        0.939        0.076      131.091       15.813        0.015      335.424        6.049      866.804
12/02/2021  20:44:00      -84.733       24.813       -8.650       25.316       18.116       15.954      640.880      328.186      254.518        0.455        0.061       88.291       12.330        0.020      335.378        5.972      866.810
12/02/2021  20:45:00      -62.228        4.203       -6.775       18.620       18.190       11.691      346.701      330.868      136.685        0.237        0.041       62.370        8.187        0.017      335.461        6.110      866.801
12/02/2021  20:46:00      -33.811        3.116        0.059       28.341       15.307       13.018      803.210      234.295      169.470        0.118        0.060       33.954       13.106        0.149      335.467        6.121      866.794
12/02/2021  20:47:00       -1.638        3.094        0.840       13.826       10.914        9.336      191.164      119.122       87.158        0.021        0.020        3.500        3.036        0.752      335.473        6.130      866.797
12/02/2021  20:48:00       -6.185        1.874        2.948       19.146       11.598       12.536      366.560      134.517      157.148        0.035        0.033        6.462       11.387        3.105      335.416        6.036      866.790
12/02/2021  20:49:00      -39.516      -15.953       -4.249       30.086       17.884       12.214      905.194      319.823      149.190        0.160        0.069       42.615       10.632        0.062      335.402        6.010      866.793
12/02/2021  20:50:00      -62.792       -5.998       -2.140       24.442       23.161       18.731      597.433      536.442      350.865        0.273        0.074       63.078       11.998        0.036      335.306        5.851      866.793
12/02/2021  20:51:00      -40.141      -16.828       -1.630       28.548       26.299       21.075      815.009      691.661      444.162        0.192        0.098       43.526       14.202        0.106      335.265        5.783      866.795
12/02/2021  20:52:00      -61.428      -13.352       -3.879       33.667       22.991       23.627     1133.477      528.604      558.219        0.309        0.111       62.862       19.626        0.097      335.259        5.772      866.803
12/02/2021  20:53:00      -63.318      -13.717        2.274       51.802       27.253       29.708     2683.419      742.737      882.559        0.425        0.215       64.787       24.887        0.148      335.363        5.946      866.811
12/02/2021  20:54:00      -70.746       -8.439        0.075       43.505       26.525       18.917     1892.688      703.588      357.858        0.401        0.148       71.248       18.251        0.066      335.346        5.920      866.818
12/02/2021  20:55:00      -49.276        8.179       -2.972       44.886       21.086       22.158     2014.731      444.613      490.964        0.273        0.148       49.950       22.166        0.197      335.374        5.966      866.834
12/02/2021  20:56:00     -101.888       -0.831       -6.907       35.618       29.188       20.172     1268.674      851.954      406.912        0.648        0.126      101.892       14.103        0.019      335.331        5.894      866.839
12/02/2021  20:57:00      -91.585       12.860       -4.745       49.442       29.195       27.154     2444.521      852.324      737.324        0.630        0.202       92.483       25.153        0.074      335.336        5.901      866.849
12/02/2021  20:58:00      -90.921        8.864        0.248       42.813       27.412       21.523     1832.911      751.419      463.226        0.570        0.152       91.352       18.965        0.043      335.393        5.996      866.863
12/02/2021  20:59:00     -110.404       18.191       -0.928       47.905       21.709       22.621     2294.929      471.297      511.723        0.790        0.164      111.892       24.083        0.046      335.326        5.885      866.874
12/02/2021  21:00:00     -121.339       27.759      -11.008       49.022       21.359       23.139     2403.156      456.191      535.425        0.950        0.170      124.474       21.390        0.030      335.333        5.897      866.885
12/02/2021  21:01:00     -121.071       21.305      -13.660       40.485       23.341       21.539     1639.009      544.807      463.933        0.897        0.132      122.931       20.814        0.029      335.329        5.889      866.907
12/02/2021  21:02:00     -118.000        7.326      -10.262       28.758       21.713       17.712      827.027      471.462      313.707        0.785        0.081      118.227       11.885        0.010      335.328        5.888      866.927
12/02/2021  21:03:00      -87.647        7.719       -7.381       34.403       24.929       17.459     1183.546      621.470      304.833        0.495        0.105       87.987       10.731        0.015      335.263        5.779      866.943
12/02/2021  21:04:00     -118.772       31.724      -15.669       20.579       21.930       15.535      423.491      480.915      241.342        0.825        0.057      122.936        8.030        0.004      335.276        5.800      866.959
12/02/2021  21:05:00     -119.544       23.613      -12.993       23.433       22.867       16.379      549.099      522.880      268.264        0.818        0.067      121.854       13.002        0.011      335.248        5.755      866.969
12/02/2021  21:06:00     -101.334       20.400      -10.448       24.528       21.210       19.631      601.607      449.882      385.379        0.612        0.072      103.367       14.461        0.020      335.220        5.706      866.975
12/02/2021  21:07:00     -101.914       22.016      -11.751       25.793       17.162       16.455      665.253      294.526      270.767        0.612        0.062      104.265       16.723        0.026      335.176        5.635      866.979
12/02/2021  21:08:00     -115.683       35.454      -14.772       22.743       15.724       15.729      517.242      247.238      247.402        0.793        0.051      120.994       10.854        0.008      335.123        5.548      866.993
12/02/2021  21:09:00     -104.652       14.102      -10.280       26.484       24.443       12.490      701.376      597.437      156.007        0.636        0.073      105.598        7.637        0.005      335.136        5.571      867.006
12/02/2021  21:10:00     -104.111       28.624      -17.242       18.665       15.009       11.886      348.381      225.275      141.276        0.634        0.036      107.974        9.990        0.009      335.086        5.486      867.019
12/02/2021  21:11:00     -101.853       32.778      -21.163       13.549       12.979       11.863      183.587      168.456      140.732        0.619        0.025      106.997        7.539        0.005      335.060        5.442      867.030
12/02/2021  21:12:00      -78.993       15.255      -19.647       26.684       26.371       15.865      712.042      695.419      251.684        0.426        0.083       80.453       13.239        0.027      335.011        5.364      867.040
12/02/2021  21:13:00      -93.682       27.837      -21.223       16.228       17.757       12.279      263.338      315.295      150.777        0.537        0.036       97.730        6.721        0.005      335.070        5.462      867.043
12/02/2021  21:14:00     -108.152       39.720      -24.126       15.475       20.025       13.978      239.488      401.018      195.388        0.735        0.042      115.215       10.041        0.008      335.071        5.461      867.040
12/02/2021  21:15:00      -97.812       37.139      -23.289       16.020       21.660       12.763      256.634      469.148      162.905        0.619        0.044      104.625        8.168        0.006      335.028        5.390      867.038
12/02/2021  21:16:00      -97.803       29.521      -20.233       16.294       14.428        9.882      265.481      208.163       97.661        0.571        0.029      102.161        6.008        0.003      335.001        5.346      867.034
12/02/2021  21:17:00     -122.854       51.199      -20.842       13.964       13.716       12.728      194.989      188.120      162.009        0.935        0.027      133.095        7.029        0.003      335.031        5.396      867.035
12/02/2021  21:18:00     -111.218       35.624      -21.858       13.038       20.405       12.247      169.987      416.357      149.981        0.743        0.037      116.784        8.263        0.005      335.020        5.377      867.024
12/02/2021  21:19:00     -100.114       32.646      -21.225       16.824       22.868       16.692      283.053      522.958      278.618        0.631        0.054      105.302       10.169        0.009      334.982        5.313      867.023
12/02/2021  21:20:00      -98.070       48.405      -23.172       16.455       19.198       13.441      270.764      368.570      180.672        0.666        0.041      109.365        5.486        0.003      335.034        5.401      867.019
12/02/2021  21:21:00      -96.642       37.678      -18.938       15.903       19.140       11.056      252.921      366.338      122.232        0.593        0.037      103.727        3.076        0.001      335.003        5.349      867.014
12/02/2021  21:22:00      -93.372       30.861      -28.688       17.429       20.894       14.804      303.759      436.548      219.146        0.573        0.048       98.340        9.853        0.010      335.054        5.434      867.010
12/02/2021  21:23:00      -76.695       14.632      -17.533       30.228       30.337       20.588      913.754      920.326      423.864        0.433        0.113       78.078       14.388        0.034      335.008        5.357      867.022
12/02/2021  21:24:00      -92.093       17.883      -25.092       21.288       23.786       18.094      453.184      565.772      327.398        0.539        0.067       93.813       14.181        0.023      334.968        5.290      867.023
12/02/2021  21:25:00      -95.287       31.466      -22.173       19.929       17.844       13.796      397.163      318.409      190.328        0.573        0.045      100.348        8.749        0.008      335.003        5.349      867.027
12/02/2021  21:26:00     -110.950       25.212      -28.383       11.628       11.365       10.596      135.205      129.158      112.279        0.706        0.019      113.778        4.711        0.002      334.967        5.289      867.034
12/02/2021  21:27:00     -105.343       16.077      -24.673       10.477       15.279        9.310      109.758      233.443       86.684        0.620        0.021      106.562        4.890        0.002      334.996        5.338      867.041
12/02/2021  21:28:00     -100.045       26.017      -17.482       14.704       18.818       11.305      216.222      354.099      127.810        0.584        0.035      103.373        6.451        0.004      335.082        5.479      867.052
12/02/2021  21:29:00      -85.680       20.699      -23.736       19.431       14.780       16.316      377.550      218.453      266.204        0.460        0.043       88.145       11.390        0.017      334.979        5.309      867.058
12/02/2021  21:30:00      -68.299       23.831      -18.601       26.499       20.552       15.777      702.216      422.402      248.915        0.348        0.069       72.337       16.815        0.054      335.027        5.391      867.056
12/02/2021  21:31:00      -49.798       11.034      -14.163       25.430       21.922       14.990      646.677      480.555      224.691        0.208        0.068       51.005       12.016        0.055      335.021        5.379      867.059
12/02/2021  21:32:00      -95.616       25.927      -17.885       13.231       14.941       10.117      175.061      223.224      102.354        0.532        0.025       99.069        7.357        0.006      334.999        5.343      867.069
12/02/2021  21:33:00      -96.442       12.782      -16.232       23.226       15.148       12.764      539.458      229.472      162.917        0.533        0.047       97.285       12.340        0.016      335.033        5.398      867.071
12/02/2021  21:34:00     -108.476       13.319      -10.082       25.265       15.647       17.269      638.331      244.834      298.207        0.661        0.059      109.291       14.337        0.017      334.993        5.332      867.074
12/02/2021  21:35:00      -98.688       17.551      -17.225       16.193       13.941       13.116      262.204      194.341      172.036        0.549        0.031      100.237        7.570        0.006      335.026        5.387      867.081
12/02/2021  21:36:00     -106.671       18.333      -10.178       12.833       13.010       12.493      164.682      169.260      156.064        0.615        0.025      108.235        6.065        0.003      335.038        5.407      867.087
12/02/2021  21:37:00     -115.673       29.873      -13.741       14.857       14.346       11.124      220.740      205.797      123.735        0.751        0.028      119.468        8.694        0.005      335.027        5.389      867.095
12/02/2021  21:38:00      -83.947       14.684      -16.689       33.837       24.211       19.938     1144.966      586.192      397.508        0.483        0.106       85.222       20.320        0.057      334.982        5.314      867.108
12/02/2021  21:39:00      -83.226       37.104      -12.995       22.119       20.600       19.409      489.266      424.362      376.695        0.488        0.065       91.122       13.421        0.022      334.909        5.194      867.116
12/02/2021  21:40:00      -67.523       32.528      -17.578       22.800       24.622       17.318      519.829      606.257      299.917        0.368        0.071       74.949       10.958        0.021      334.968        5.292      867.124
12/02/2021  21:41:00      -60.850        5.022       -9.711       32.678       21.626       17.852     1067.839      467.668      318.703        0.284        0.093       61.057       11.607        0.036      334.897        5.174      867.134
12/02/2021  21:42:00      -34.313        6.698      -12.216       32.528       22.889       24.256     1058.087      523.902      588.370        0.177        0.109       34.961       21.886        0.392      334.883        5.151      867.149
12/02/2021  21:43:00      -38.708       -4.489      -13.623       31.349       21.729       18.474      982.772      472.170      341.283        0.175        0.090       38.967       16.338        0.176      334.823        5.051      867.162
12/02/2021  21:44:00      -38.898        5.545      -10.881       24.016       22.717       15.464      576.767      516.060      239.138        0.150        0.067       39.292       10.317        0.069      334.836        5.073      867.176
12/02/2021  21:45:00      -33.929        1.996      -16.299       18.943       14.693       20.531      358.820      215.879      421.540        0.121        0.050       33.988       11.596        0.116      334.784        4.987      867.190
12/02/2021  21:46:00      -31.194        3.456      -12.715       19.121       20.997       22.346      365.601      440.857      499.330        0.123        0.065       31.385       17.781        0.321      334.824        5.052      867.203
12/02/2021  21:47:00      -33.379       11.203       -8.958       18.191       17.284       17.205      330.921      298.732      296.007        0.112        0.046       35.209       12.283        0.122      334.821        5.047      867.211
12/02/2021  21:48:00      -38.603       -5.566      -10.923       23.228       19.283       15.853      539.560      371.821      251.305        0.140        0.058       39.003       11.223        0.083      334.803        5.017      867.215
12/02/2021  21:49:00      -61.443       16.484      -18.053       24.906       16.850       13.197      620.316      283.936      174.153        0.273        0.054       63.616       12.853        0.041      334.755        4.937      867.220
12/02/2021  21:50:00      -36.819      -11.377       -6.333       23.778       18.653       20.536      565.379      347.942      421.725        0.143        0.067       38.536       18.762        0.237      334.775        4.972      867.219
12/02/2021  21:51:00      -54.523        3.465      -12.400       30.438       15.078       17.564      926.496      227.349      308.510        0.230        0.073       54.633       17.347        0.101      334.777        4.973      867.211
12/02/2021  21:52:00      -93.642       12.840      -18.343       27.334       17.817       14.708      747.160      317.456      216.333        0.528        0.064       94.518        6.449        0.005      334.799        5.011      867.208
12/02/2021  21:53:00     -105.999       23.597      -16.450       24.204       15.428       10.708      585.811      238.017      114.660        0.650        0.047      108.593        8.171        0.006      334.782        4.981      867.214
12/02/2021  21:54:00     -110.471       33.927      -10.929       25.487       13.633       13.591      649.605      185.868      184.714        0.725        0.051      115.563       12.209        0.011      334.727        4.890      867.218
12/02/2021  21:55:00     -113.856       33.591      -10.811       18.355       15.985       12.754      336.909      255.525      162.668        0.748        0.038      118.708        8.903        0.006      334.707        4.857      867.224
12/02/2021  21:56:00      -84.125       19.033      -10.869       14.379       17.297       14.653      206.766      299.175      214.723        0.414        0.036       86.252        7.460        0.007      334.803        5.018      867.230
12/02/2021  21:57:00      -83.764       12.358      -13.424       15.792       17.129       11.244      249.374      293.389      126.430        0.401        0.033       84.671        7.912        0.009      334.825        5.054      867.243
12/02/2021  21:58:00      -85.050       10.580      -13.595       13.045       12.779       11.273      170.175      163.308      127.084        0.400        0.023       85.706        5.412        0.004      334.839        5.077      867.256
12/02/2021  21:59:00      -73.788       18.109      -17.840       10.086        8.198        4.087      101.718       67.200       16.701        0.314        0.009       75.978        3.590        0.002      334.847        5.089      867.280
12/02/2021  22:00:00      -82.239       21.228      -16.706        5.578        6.573        5.467       31.115       43.210       29.890        0.380        0.005       84.934        2.619        0.001      334.911        5.198      867.301
12/02/2021  22:01:00      -85.129       29.864      -16.236        6.578        5.545        6.267       43.268       30.742       39.281        0.426        0.006       90.215        2.192        0.001      334.917        5.208      867.317
12/02/2021  22:02:00      -82.074       25.017      -13.810        9.027        7.055        8.171       81.480       49.779       66.766        0.388        0.010       85.802        4.621        0.003      334.893        5.168      867.333
12/02/2021  22:03:00      -91.773       28.097      -11.547       14.644       12.877        9.408      214.437      165.813       88.509        0.491        0.023       95.978        5.872        0.004      334.838        5.075      867.343
12/02/2021  22:04:00      -97.575       16.569      -12.624       13.422       15.885       11.650      180.147      252.348      135.732        0.526        0.028       98.972        6.525        0.004      334.850        5.095      867.347
12/02/2021  22:05:00      -87.131       13.093      -15.435       19.832       13.513        9.065      393.324      182.591       82.167        0.433        0.033       88.109        8.944        0.010      334.868        5.126      867.349
12/02/2021  22:06:00      -96.048       17.214      -16.103       18.734       16.099       14.079      350.946      259.192      198.231        0.529        0.040       97.578       11.915        0.015      334.847        5.091      867.345
12/02/2021  22:07:00      -96.636        6.731       -9.893       26.985       14.498       16.124      728.201      210.203      259.995        0.534        0.060       96.870       12.423        0.016      334.799        5.010      867.333
12/02/2021  22:08:00      -82.309        8.853      -14.897       21.024       11.286       12.767      442.004      127.373      163.008        0.390        0.037       82.784        7.385        0.008      334.820        5.044      867.327
12/02/2021  22:09:00      -59.122       -5.804      -10.646       26.305       27.210       16.870      691.950      740.365      284.611        0.268        0.086       59.406       11.848        0.040      334.721        4.879      867.327
12/02/2021  22:10:00      -51.443       -0.245       -8.715       27.667       21.766       16.619      765.450      473.775      276.189        0.212        0.076       51.444       11.817        0.053      334.692        4.833      867.324
12/02/2021  22:11:00      -72.412       13.880       -9.864       24.366       16.536       12.307      593.723      273.439      151.458        0.328        0.051       73.731        8.496        0.013      334.667        4.789      867.327
12/02/2021  22:12:00      -67.406        7.758       -6.078       28.216       21.994       16.364      796.155      483.727      267.765        0.309        0.077       67.851       16.068        0.056      334.693        4.834      867.334
12/02/2021  22:13:00      -71.526        8.534       -8.818       30.481       18.244       13.434      929.113      332.860      180.466        0.335        0.072       72.033        8.218        0.013      334.667        4.789      867.343
12/02/2021  22:14:00      -50.851        9.970       -7.845       28.023       20.873       16.198      785.297      435.689      262.387        0.211        0.074       51.819        8.356        0.026      334.685        4.820      867.356
12/02/2021  22:15:00      -49.442        2.292       -7.627       23.457       23.044       13.487      550.218      531.004      181.894        0.189        0.063       49.495        8.890        0.032      334.683        4.815      867.361
12/02/2021  22:16:00      -47.512        2.949       -4.825       26.677       27.505       15.970      711.655      756.508      255.048        0.201        0.086       47.603        7.994        0.028      334.632        4.732      867.370
12/02/2021  22:17:00      -38.310       -3.748       -6.103       27.338       19.238       15.843      747.374      370.109      250.991        0.144        0.068       38.493       15.507        0.162      334.588        4.658      867.370
12/02/2021  22:18:00      -62.678        2.044       -8.869       31.626       18.329       14.472     1000.213      335.962      209.426        0.278        0.077       62.711       11.487        0.034      334.514        4.535      867.375
12/02/2021  22:19:00      -69.354        2.947       -9.736       21.915       22.133       16.037      480.246      489.869      257.191        0.307        0.061       69.417        8.530        0.015      334.458        4.442      867.380
12/02/2021  22:20:00      -92.886        5.540      -12.679       23.782       25.403       11.070      565.583      645.289      122.550        0.508        0.067       93.051        8.401        0.008      334.475        4.472      867.382
12/02/2021  22:21:00     -100.255       18.577      -16.655       12.385       14.463       13.936      153.383      209.169      194.200        0.562        0.028      101.962        8.045        0.006      334.462        4.451      867.382
12/02/2021  22:22:00      -92.630       14.250      -14.252       16.856       16.347       10.834      284.131      267.227      117.384        0.483        0.033       93.719        2.786        0.001      334.500        4.510      867.392
12/02/2021  22:23:00     -113.281       14.138      -16.864       13.467       13.285       11.573      181.367      176.497      133.923        0.690        0.025      114.160        3.767        0.001      334.526        4.554      867.398
12/02/2021  22:24:00      -83.584       15.543        0.022       30.750       18.976       20.521      945.536      360.101      421.101        0.448        0.086       85.017       15.048        0.031      334.478        4.474      867.403
12/02/2021  22:25:00      -69.079       16.694       -2.488       41.912       17.939       15.120     1756.606      321.802      228.608        0.368        0.115       71.067       16.416        0.053      334.506        4.521      867.400
12/02/2021  22:26:00      -82.284       14.484       -4.157       41.841       23.150       18.300     1750.702      535.944      334.900        0.481        0.131       83.549       16.823        0.041      334.543        4.581      867.399
12/02/2021  22:27:00      -73.028       13.361       -1.843       37.467       19.147       19.483     1403.761      366.599      379.576        0.383        0.107       74.240       18.300        0.061      334.554        4.601      867.403
12/02/2021  22:28:00      -81.572        2.992       -5.477       29.688       24.733       18.581      881.353      611.734      345.249        0.427        0.092       81.627       12.583        0.024      334.572        4.630      867.406
12/02/2021  22:29:00      -90.408        2.515       -3.164       37.110       21.900       16.441     1377.161      479.609      270.296        0.516        0.106       90.443       15.060        0.028      334.589        4.660      867.407
12/02/2021  22:30:00      -73.100       -7.952       -1.230       39.505       27.673       27.930     1560.664      765.822      780.101        0.426        0.155       73.532       23.387        0.101      334.550        4.593      867.410
12/02/2021  22:31:00      -68.251      -12.996       -0.750       53.743       26.580       24.612     2888.361      706.485      605.772        0.451        0.210       69.477       27.546        0.157      334.551        4.597      867.411
12/02/2021  22:32:00      -81.087      -16.935       -6.759       31.592       32.023       24.315      998.074     1025.475      591.232        0.476        0.131       82.837       16.756        0.041      334.590        4.661      867.420
12/02/2021  22:33:00      -52.661       -4.775       -1.715       32.054       29.077       19.157     1027.453      845.489      366.987        0.252        0.112       52.877       17.386        0.108      334.566        4.621      867.427
12/02/2021  22:34:00      -59.634       -1.082       -5.323       31.506       28.164       18.686      992.598      793.199      349.167        0.286        0.107       59.644       11.706        0.039      334.577        4.640      867.430
12/02/2021  22:35:00      -77.557        5.164       -0.297       33.659       25.197       19.685     1132.912      634.884      387.483        0.410        0.108       77.729       18.246        0.055      334.552        4.598      867.431
12/02/2021  22:36:00      -81.383       10.947       -2.355       37.623       21.771       21.861     1415.517      473.992      477.905        0.456        0.118       82.116       20.776        0.064      334.553        4.600      867.437
12/02/2021  22:37:00      -83.539        3.795       -4.917       36.835       30.256       15.671     1356.816      915.419      245.568        0.477        0.126       83.626        4.975        0.004      334.565        4.621      867.435
12/02/2021  22:38:00      -78.876        4.860       -0.089       36.050       33.400       21.079     1299.600     1115.577      444.316        0.455        0.143       79.026       19.451        0.061      334.562        4.615      867.433
12/02/2021  22:39:00     -113.645       16.388       -7.705       27.129       19.311       18.623      735.981      372.898      346.816        0.735        0.073      114.821       14.135        0.015      334.544        4.585      867.429
12/02/2021  22:40:00     -106.814       17.692       -4.192       36.589       23.852       18.597     1338.789      568.902      345.854        0.700        0.113      108.269       17.469        0.026      334.482        4.483      867.427
12/02/2021  22:41:00     -104.117       19.627       -2.638       33.371       19.430       21.054     1113.642      377.527      443.267        0.658        0.097      105.950       19.684        0.035      334.464        4.452      867.435
12/02/2021  22:42:00      -73.804        8.621        0.795       35.122       27.394       21.900     1233.557      750.447      479.595        0.399        0.123       74.306       16.248        0.048      334.416        4.373      867.439
12/02/2021  22:43:00     -104.756       17.394       -2.753       31.361       23.365       22.050      983.503      545.941      486.201        0.665        0.101      106.191       18.428        0.030      334.408        4.359      867.440
12/02/2021  22:44:00     -107.058       10.742       -0.512       43.082       20.834       18.285     1856.048      434.046      334.328        0.710        0.131      107.595       20.626        0.037      334.343        4.252      867.440
12/02/2021  22:45:00      -78.305       27.398        7.740       48.093       28.113       23.552     2312.915      790.340      554.694        0.530        0.183       82.960       20.109        0.059      334.277        4.142      867.442
12/02/2021  22:46:00      -86.471       -1.318       -8.038       51.774       27.661       26.573     2680.517      765.132      706.147        0.585        0.208       86.481       23.062        0.071      334.341        4.248      867.433
12/02/2021  22:47:00      -75.007       17.151       -7.199       43.565       31.196       27.241     1897.871      973.171      742.072        0.479        0.181       76.942       20.118        0.068      334.261        4.117      867.431
12/02/2021  22:48:00      -85.137       -3.958      -10.168       49.039       37.043       27.416     2404.843     1372.157      751.664        0.595        0.226       85.229       23.029        0.073      334.222        4.052      867.426
12/02/2021  22:49:00      -72.841        9.571       -5.034       54.045       31.745       30.469     2920.871     1007.728      928.366        0.514        0.243       73.467       22.742        0.096      334.180        3.982      867.420
12/02/2021  22:50:00      -45.920       -1.313      -11.053       57.863       36.986       28.184     3348.099     1367.997      794.323        0.387        0.276       45.939       15.051        0.107      334.092        3.836      867.418
12/02/2021  22:51:00      -53.707       22.137      -13.930       46.493       39.037       23.435     2161.620     1523.883      549.207        0.390        0.212       58.090       21.395        0.136      334.036        3.744      867.420
12/02/2021  22:52:00      -52.902       -4.335      -12.491       48.407       41.625       27.984     2343.198     1732.666      783.086        0.392        0.243       53.079       17.715        0.111      333.981        3.653      867.421
12/02/2021  22:53:00      -62.151       -1.147      -25.042       59.920       33.246       20.576     3590.447     1105.291      423.361        0.480        0.256       62.161        9.720        0.024      333.968        3.633      867.413
12/02/2021  22:54:00        4.665      -11.657       -4.008       26.196       31.758       24.320      686.234     1008.548      591.446        0.123        0.114       12.555       18.959        2.280      333.947        3.596      867.398
12/02/2021  22:55:00      -16.553        3.632      -27.375       28.161       33.918       24.481      793.050     1150.444      599.305        0.179        0.127       16.947       14.295        0.712      333.949        3.598      867.388
12/02/2021  22:56:00      -11.892      -11.683      -16.549       34.123       31.876       25.318     1164.408     1016.106      640.981        0.169        0.141       16.671       20.625        1.531      333.961        3.620      867.377
12/02/2021  22:57:00       -6.255      -18.702      -21.318       22.721       42.338       29.516      516.252     1792.494      871.221        0.201        0.159       19.720       26.467        1.801      333.947        3.596      867.375
12/02/2021  22:58:00       -7.123       -2.388      -16.306       16.895       25.920       19.612      285.455      671.824      384.640        0.083        0.067        7.512       10.355        1.900      333.943        3.591      867.366
12/02/2021  22:59:00       -9.717       -3.064      -13.792       39.846       44.068       26.283     1587.734     1941.968      690.771        0.226        0.211       10.189       17.578        2.976      333.978        3.650      867.361
12/02/2021  23:00:00        0.822      -13.016      -19.147       21.687       25.456       20.810      470.327      648.001      433.054        0.104        0.078       13.042       15.282        1.373      333.964        3.627      867.355
12/02/2021  23:01:00      -25.095      -18.838      -17.272       36.949       28.636       24.651     1365.250      820.007      607.661        0.204        0.140       31.379       16.133        0.264      333.973        3.641      867.353
12/02/2021  23:02:00      -25.367        9.883      -16.814       25.499       25.644       23.760      650.176      657.593      564.529        0.145        0.094       27.224       11.840        0.189      334.014        3.707      867.350
12/02/2021  23:03:00      -33.707      -18.904      -16.508       23.655       28.152       22.969      559.543      792.538      527.557        0.182        0.094       38.646       13.426        0.121      334.028        3.731      867.350
12/02/2021  23:04:00      -70.832       15.142      -20.058       37.508       35.933       29.214     1406.836     1291.206      853.437        0.460        0.178       72.433       21.729        0.090      334.017        3.712      867.355
12/02/2021  23:05:00      -77.296       30.540      -28.402       38.595       28.817       21.214     1489.557      830.393      450.032        0.524        0.138       83.111       19.051        0.053      334.061        3.785      867.356
12/02/2021  23:06:00      -80.915       32.375      -18.983       43.901       36.406       18.081     1927.309     1325.432      326.918        0.577        0.179       87.152       20.183        0.054      334.026        3.729      867.356
12/02/2021  23:07:00     -109.849       40.051      -24.775       21.317       24.273       17.989      454.397      589.179      323.595        0.783        0.068      116.923       11.746        0.010      334.085        3.825      867.349
12/02/2021  23:08:00     -104.492       38.495      -30.561       20.244       18.549       18.033      409.817      344.075      325.175        0.721        0.054      111.358       10.252        0.008      334.094        3.840      867.353
12/02/2021  23:09:00      -21.396        6.856      -12.780       47.573       27.048       23.042     2263.176      731.610      530.956        0.210        0.176       22.468       22.891        1.038      334.027        3.729      867.344
12/02/2021  23:10:00      -43.571        0.891      -11.661       31.028       28.904       20.223      962.725      835.443      408.969        0.212        0.110       43.580       11.499        0.070      334.004        3.692      867.338
12/02/2021  23:11:00      -85.977        5.147      -17.158       32.878       25.414       16.346     1080.988      645.847      267.183        0.485        0.100       86.131       16.349        0.036      334.021        3.719      867.335
12/02/2021  23:12:00     -113.649       19.063      -23.199       20.076       15.150       12.884      403.057      229.515      166.006        0.731        0.040      115.237        8.177        0.005      334.062        3.787      867.318
12/02/2021  23:13:00     -109.927       17.889       -7.939       32.406       23.615       12.813     1050.174      557.648      164.179        0.712        0.089      111.373       12.754        0.013      334.056        3.777      867.304
12/02/2021  23:14:00      -94.851       18.758       -6.521       29.979       26.543       15.213      898.733      704.508      231.450        0.561        0.092       96.689       14.180        0.022      334.052        3.769      867.294
12/02/2021  23:15:00      -80.557       -0.252       -3.946       22.905       21.160       16.843      524.626      447.732      283.673        0.388        0.063       80.558       11.037        0.019      334.162        3.953      867.285
12/02/2021  23:16:00      -41.431       -1.689       -1.867       26.269       22.428       12.534      690.079      503.021      157.091        0.154        0.068       41.466       11.416        0.076      334.133        3.904      867.299
12/02/2021  23:17:00      -43.615       -7.525       -4.633       26.860       21.898       14.897      721.484      479.538      221.913        0.170        0.071       44.260       10.553        0.057      334.157        3.945      867.312
12/02/2021  23:18:00      -84.575      -23.483       -7.098       25.388       21.482       18.295      644.532      461.492      334.705        0.460        0.072       87.775       10.637        0.015      334.239        4.078      867.328
12/02/2021  23:19:00      -53.100      -12.220       -6.468       34.607       14.887       18.558     1197.624      221.625      344.415        0.239        0.088       54.488       18.727        0.118      334.131        3.901      867.338
12/02/2021  23:20:00      -69.227       -6.559       -4.560       37.364       23.501       16.190     1396.054      552.318      262.103        0.353        0.111       69.537       16.028        0.053      334.153        3.937      867.336
12/02/2021  23:21:00      -61.904       -7.013       -7.151       40.978       22.161       20.078     1679.201      491.109      403.125        0.325        0.129       62.300       20.575        0.109      334.167        3.961      867.330
12/02/2021  23:22:00      -83.699      -21.843       -9.970       32.588       26.605       24.689     1062.007      707.818      609.539        0.498        0.119       86.502       20.119        0.054      334.130        3.898      867.330
12/02/2021  23:23:00      -66.432      -21.623      -13.028       29.208       27.721       20.069      853.128      768.438      402.752        0.354        0.101       69.862       13.532        0.038      334.173        3.972      867.326
12/02/2021  23:24:00      -71.278       -8.749       -9.120       31.125       25.193       13.721      968.796      634.683      188.255        0.352        0.090       71.813        9.819        0.019      334.207        4.026      867.330
12/02/2021  23:25:00      -96.025        3.781       -6.844       39.335       24.430       17.295     1547.240      596.821      299.111        0.586        0.122       96.100       21.858        0.052      334.215        4.040      867.324
12/02/2021  23:26:00      -17.862       -2.829        1.063       24.986       17.346       14.211      624.285      300.881      201.942        0.073        0.056       18.085        9.389        0.270      334.203        4.019      867.323
12/02/2021  23:27:00      -33.064      -10.485        5.404       30.941       25.568       15.264      957.342      653.703      232.983        0.154        0.092       34.686       13.265        0.146      334.240        4.080      867.326
12/02/2021  23:28:00      -20.933       -3.596       -7.621       24.619       26.604       13.455      606.092      707.762      181.024        0.100        0.075       21.239        8.485        0.160      334.173        3.970      867.325
12/02/2021  23:29:00      -28.735       -7.088       -4.869       24.190       21.051       16.430      585.177      443.131      269.959        0.110        0.065       29.596       12.376        0.175      334.199        4.014      867.318
12/02/2021  23:30:00      -36.365        4.411        0.795       25.832       16.491       13.463      667.315      271.947      181.250        0.123        0.056       36.632       14.910        0.166      334.111        3.868      867.318
12/02/2021  23:31:00      -12.123        0.430       -2.641       10.174       12.682        9.418      103.505      160.845       88.703        0.025        0.018       12.130        4.957        0.167      334.140        3.916      867.319
12/02/2021  23:32:00      -29.028       -8.564       -2.229       26.748       17.619       12.350      715.473      310.436      152.511        0.105        0.059       30.264        7.608        0.063      334.117        3.878      867.316
12/02/2021  23:33:00      -37.432       -8.727       -2.345       19.127       23.019       15.501      365.853      529.865      240.274        0.131        0.057       38.436       10.889        0.080      333.974        3.643      867.319
12/02/2021  23:34:00      -17.645       -1.622        1.561       20.852       18.181       12.951      434.794      330.558      167.734        0.062        0.047       17.720       12.201        0.474      333.916        3.546      867.329
12/02/2021  23:35:00      -50.696        3.274       -0.640       31.895       19.551       15.057     1017.272      382.255      226.711        0.210        0.081       50.801       15.309        0.091      333.972        3.639      867.326
12/02/2021  23:36:00      -29.920        4.047       -0.663       31.326       22.678       15.502      981.346      514.278      240.325        0.132        0.087       30.192        6.947        0.053      333.993        3.673      867.324
12/02/2021  23:37:00      -34.341       17.075        2.138       21.526       19.296       15.337      463.362      372.340      235.235        0.127        0.054       38.352       13.522        0.124      333.907        3.532      867.328
12/02/2021  23:38:00      -87.077       19.834       -3.278       25.471       22.715       15.132      648.780      515.986      228.983        0.469        0.070       89.308       13.790        0.024      333.843        3.424      867.323
12/02/2021  23:39:00     -105.841       39.278       -4.641       30.030       20.305       13.941      901.825      412.283      194.347        0.714        0.075      112.894       14.450        0.016      333.737        3.248      867.311
12/02/2021  23:40:00     -122.547       41.754      -10.355       18.003       18.413       16.044      324.119      339.050      257.404        0.889        0.046      129.465       10.323        0.006      333.712        3.208      867.296
12/02/2021  23:41:00     -128.389       36.176      -15.752       24.113       17.558       17.692      581.415      308.274      312.992        0.962        0.060      133.388       13.365        0.010      333.729        3.235      867.285
12/02/2021  23:42:00      -93.639       15.486      -10.698       38.461       24.335       19.214     1479.254      592.188      369.183        0.578        0.122       94.911       14.264        0.023      333.724        3.227      867.278
12/02/2021  23:43:00      -60.349       -0.690      -19.867       19.008       19.393       14.006      361.293      376.081      196.181        0.249        0.047       60.353        6.304        0.011      333.775        3.312      867.272
12/02/2021  23:44:00      -14.440       10.395       -7.754       26.098       24.383       25.574      681.119      594.521      654.053        0.115        0.096       17.792       18.423        1.072      333.794        3.341      867.270
12/02/2021  23:45:00      -25.976        4.129      -16.571       29.610       26.206       20.630      876.739      686.742      425.581        0.148        0.099       26.302       15.459        0.345      333.806        3.361      867.273
12/02/2021  23:46:00       -3.574      -12.191       -5.291       23.336       22.580       14.827      544.584      509.872      219.840        0.073        0.064       12.704        9.169        0.521      333.742        3.258      867.268
12/02/2021  23:47:00       -8.279       14.509      -15.125       21.651       21.509       13.678      468.753      462.626      187.089        0.081        0.056       16.705        5.944        0.127      333.686        3.165      867.272
12/02/2021  23:48:00      -20.090       11.892      -10.284       19.286       20.531       15.026      371.937      421.528      225.791        0.083        0.051       23.346       12.642        0.293      333.758        3.283      867.274
12/02/2021  23:49:00      -53.157       17.468      -22.295       23.054       12.397       15.947      531.495      153.684      254.311        0.228        0.047       55.953       15.479        0.077      333.787        3.331      867.272
12/02/2021  23:50:00      -36.200       -2.019      -11.608       30.179       16.105       21.052      910.755      259.368      443.205        0.153        0.081       36.256       21.974        0.367      333.698        3.183      867.270
12/02/2021  23:51:00      -17.948       -3.058      -10.090       22.078       18.428       18.032      487.450      339.607      325.135        0.079        0.058       18.206       13.891        0.582      333.552        2.942      867.258
12/02/2021  23:52:00      -39.700        2.999       -4.699       39.770       26.681       17.204     1581.692      711.855      295.977        0.210        0.129       39.813       13.757        0.119      333.553        2.943      867.244
12/02/2021  23:53:00       -9.357       -3.804       -7.866       28.174       32.742       20.277      793.768     1072.040      411.147        0.122        0.114       10.100       15.048        2.220      333.509        2.871      867.237
12/02/2021  23:54:00      -20.023      -10.911      -18.595       24.000       31.725       20.814      576.008     1006.470      433.227        0.144        0.101       22.803       21.016        0.849      333.471        2.808      867.235
12/02/2021  23:55:00      -17.772       21.589       -3.118       17.559       28.959       19.753      308.320      838.603      390.191        0.116        0.077       27.963        5.839        0.044      333.407        2.704      867.240
12/02/2021  23:56:00      -48.268       15.736      -19.896       35.660       41.178       23.370     1271.662     1695.610      546.174        0.324        0.176       50.768       18.083        0.127      333.402        2.693      867.242
12/02/2021  23:57:00      -33.361       17.086      -11.629       36.954       18.154       25.827     1365.566      329.585      667.054        0.195        0.118       37.481       25.005        0.445      333.390        2.674      867.230
12/02/2021  23:58:00      -59.597       21.507      -23.324       18.003       17.901       15.628      324.110      320.456      244.228        0.272        0.044       63.359        9.208        0.021      333.839        3.419      867.215
12/02/2021  23:59:00      -46.624       14.757      -18.693       15.492       13.001       10.142      240.011      169.017      102.852        0.163        0.026       48.904        4.891        0.010      333.878        3.482      867.206
12/03/2021  00:00:00      -23.792       30.042      -11.043        8.005       16.762       10.293       64.087      280.966      105.951        0.102        0.023       38.322        5.389        0.020      334.223        4.055      867.186
12/03/2021  00:01:00       12.045       67.720      -12.395       22.307       17.130       12.105      497.581      293.433      146.535        0.291        0.047       68.783        7.535        0.012      334.522        4.548      867.163
12/03/2021  00:02:00       18.037       84.866       -3.950       20.309       23.408       15.873      412.454      547.919      251.937        0.438        0.061       86.761       13.650        0.025      334.760        4.946      867.147
12/03/2021  00:03:00      -17.361       35.013      -10.571       33.059       45.862       21.048     1092.901     2103.282      443.026        0.264        0.182       39.081       27.806        0.506      334.272        4.136      867.141
12/03/2021  00:04:00      -47.251       -5.111       -7.569       50.069       33.946       29.291     2506.937     1152.344      857.964        0.342        0.226       47.527       30.659        0.416      333.376        2.652      867.149
12/03/2021  00:05:00     -109.520       16.575      -16.561       30.030       31.188       16.299      901.784      972.719      265.645        0.734        0.107      110.767       11.893        0.012      333.486        2.833      867.146
12/03/2021  00:06:00      -83.314        6.253       -9.276       23.269       25.576       17.291      541.450      654.132      298.962        0.428        0.075       83.548        8.441        0.010      333.471        2.807      867.139
12/03/2021  00:07:00     -104.886       21.080      -11.700       20.563       19.104       15.018      422.821      364.979      225.538        0.630        0.051      106.983       13.156        0.015      333.517        2.884      867.134
12/03/2021  00:08:00      -83.712       16.154       -8.433       19.967       11.133       11.117      398.693      123.936      123.590        0.399        0.032       85.256        8.560        0.010      333.610        3.038      867.130
12/03/2021  00:09:00      -71.429       17.134       -6.947       11.724        8.750        7.442      137.449       76.557       55.379        0.286        0.013       73.456        3.594        0.002      333.678        3.152      867.129
12/03/2021  00:10:00      -48.289       13.180      -14.210        7.365        7.870        7.468       54.240       61.939       55.778        0.144        0.009       50.055        5.447        0.012      333.635        3.079      867.128
12/03/2021  00:11:00      -22.707       -0.546      -10.296       26.504       17.297       10.731      702.436      299.189      115.151        0.087        0.056       22.714        9.190        0.164      333.706        3.199      867.129
12/03/2021  00:12:00      -35.902      -19.018       -8.751       21.932       23.062       15.933      480.995      531.849      253.853        0.150        0.063       40.627       13.477        0.110      333.630        3.073      867.130
12/03/2021  00:13:00      -46.718       -5.010       -7.265       26.404       25.558       21.447      697.154      653.232      459.986        0.204        0.091       46.986       16.368        0.121      333.581        2.991      867.142
12/03/2021  00:14:00      -62.698        6.241       -4.661       42.538       32.022       27.425     1809.447     1025.382      752.120        0.379        0.179       63.008       24.638        0.153      333.502        2.860      867.156
12/03/2021  00:15:00      -55.308        0.273        2.252       39.679       25.319       22.725     1574.433      641.045      516.440        0.290        0.137       55.309       20.810        0.142      333.458        2.787      867.175
12/03/2021  00:16:00      -83.622       17.359       -3.038       26.714       23.924       19.028      713.622      572.378      362.047        0.448        0.082       85.405       12.490        0.021      333.493        2.845      867.174
12/03/2021  00:17:00      -90.591       22.622      -11.965       13.505       13.046       10.149      182.393      170.190      102.998        0.466        0.023       93.373        6.798        0.005      333.503        2.861      867.173
12/03/2021  00:18:00      -78.734       11.984      -11.463       28.086       23.641       18.772      788.799      558.913      352.386        0.409        0.085       79.641        6.667        0.007      333.503        2.860      867.157
12/03/2021  00:19:00      -83.915        6.835       -9.033       37.538       18.056       16.664     1409.134      326.034      277.698        0.459        0.101       84.193       14.845        0.031      333.499        2.854      867.143
12/03/2021  00:20:00      -93.325        3.836      -19.093       15.893       14.821       13.182      252.579      219.675      173.771        0.487        0.032       93.403       11.390        0.015      333.558        2.953      867.141
12/03/2021  00:21:00      -96.348       22.391       -8.761       18.726       13.736       16.683      350.676      188.681      278.329        0.534        0.041       98.916       14.558        0.022      333.512        2.878      867.132
12/03/2021  00:22:00      -78.528       22.085       -8.538       15.916       11.096        9.389      253.320      123.123       88.148        0.360        0.023       81.575        6.165        0.006      333.645        3.095      867.117
12/03/2021  00:23:00      -51.142       28.084      -11.588        9.988        9.174        6.686       99.753       84.158       44.703        0.188        0.011       58.346        3.168        0.003      333.730        3.238      867.097
12/03/2021  00:24:00      -75.596       33.885      -12.852       15.270        8.814        6.615      233.162       77.694       43.759        0.369        0.018       82.843        2.205        0.001      333.710        3.204      867.087
12/03/2021  00:25:00      -53.329        2.210      -10.706       28.215       21.664       15.298      796.106      469.321      234.044        0.223        0.075       53.375       16.061        0.091      333.561        2.958      867.092
12/03/2021  00:26:00      -58.075        5.957      -12.026       25.279       22.325       14.686      639.024      498.427      215.686        0.245        0.068       58.380        9.884        0.029      333.582        2.993      867.097
12/03/2021  00:27:00      -49.199       26.707      -15.907       17.955       14.610       11.536      322.381      213.446      133.080        0.203        0.033       55.981        2.729        0.002      333.542        2.925      867.096
12/03/2021  00:28:00      -46.132       24.255       -8.644       14.907       13.077        7.530      222.207      171.008       56.694        0.162        0.022       52.120        7.148        0.019      333.541        2.925      867.085
12/03/2021  00:29:00      -41.967       13.301       -7.304       11.344       17.590        7.783      128.680      309.402       60.575        0.124        0.025       44.025        7.227        0.027      333.547        2.935      867.094
12/03/2021  00:30:00      -54.397      -11.072      -12.380       19.032       19.051       17.928      362.216      362.952      321.397        0.214        0.052       55.512       14.699        0.070      333.437        2.751      867.102
12/03/2021  00:31:00      -32.663        7.499       -8.526       28.838       20.624       19.903      831.644      425.365      396.128        0.142        0.083       33.513       14.042        0.176      333.379        2.656      867.109
12/03/2021  00:32:00      -41.035       -3.757       -4.654       21.921       27.934       16.563      480.549      780.285      274.348        0.163        0.077       41.207       12.256        0.088      333.260        2.458      867.113
12/03/2021  00:33:00      -71.564       13.692      -27.250       16.696       13.985       13.154      278.767      195.578      173.026        0.335        0.032       72.862        8.320        0.013      333.290        2.510      867.122
12/03/2021  00:34:00      -97.875       32.560      -13.019       19.363       20.781       15.460      374.926      431.844      239.004        0.593        0.052      103.149        9.054        0.008      333.257        2.455      867.121
12/03/2021  00:35:00      -77.628       27.205      -15.084       19.835       12.163       10.897      393.408      147.946      118.754        0.383        0.033       82.257       10.016        0.015      333.223        2.397      867.115
12/03/2021  00:36:00      -33.403       38.546       -7.460       19.854        6.578        9.139      394.182       43.276       83.520        0.159        0.026       51.005       10.800        0.045      333.536        2.916      867.101
12/03/2021  00:37:00      -30.301       26.550      -10.733       19.524       18.662       12.870      381.203      348.271      165.641        0.132        0.045       40.287       14.866        0.136      333.900        3.519      867.097
12/03/2021  00:38:00      -12.162        2.144       -9.331       19.280       13.727       16.621      371.724      188.421      276.255        0.054        0.042       12.350       14.778        1.432      333.302        2.530      867.102
12/03/2021  00:39:00      -19.176       -2.207       -2.382       14.713       19.721       14.029      216.464      388.905      196.825        0.059        0.040       19.303       10.844        0.316      333.250        2.441      867.099
12/03/2021  00:40:00      -40.459        4.908      -11.470       18.543       16.974       16.249      343.833      288.109      264.017        0.134        0.045       40.755        9.002        0.049      333.252        2.447      867.104
12/03/2021  00:41:00      -50.409        3.536      -15.450       33.128       28.988       19.750     1097.469      840.281      390.069        0.256        0.116       50.533       18.102        0.128      333.179        2.325      867.109
12/03/2021  00:42:00      -89.039       19.625      -22.401       24.897       16.989       13.260      619.847      288.615      175.819        0.495        0.054       91.176        9.753        0.011      333.214        2.383      867.117
12/03/2021  00:43:00     -100.035       31.048      -20.505       12.280       13.168        9.507      150.804      173.392       90.392        0.590        0.021      104.743        7.403        0.005      333.145        2.270      867.117
12/03/2021  00:44:00      -90.407       34.188      -15.763       16.752       13.190       11.686      280.633      173.972      136.564        0.509        0.030       96.655        6.432        0.004      333.121        2.230      867.112
12/03/2021  00:45:00      -80.525       31.239      -11.378       23.186       17.242       12.475      537.584      297.279      155.634        0.429        0.050       86.372        8.453        0.010      333.139        2.259      867.116
12/03/2021  00:46:00      -68.330       37.172      -15.382       23.528       14.607       11.831      553.560      213.368      139.975        0.360        0.045       77.786        8.221        0.011      333.221        2.393      867.112
12/03/2021  00:47:00      -75.949       32.593      -12.925       15.635        9.192        9.462      244.446       84.487       89.535        0.371        0.021       82.647        7.320        0.008      333.280        2.493      867.097
12/03/2021  00:48:00      -81.335       33.404      -11.872       12.712        9.897        8.784      161.595       97.955       77.164        0.410        0.017       87.927        4.297        0.002      333.267        2.471      867.091
12/03/2021  00:49:00      -81.378       32.205      -14.145        9.902       11.671       10.205       98.045      136.206      104.135        0.410        0.017       87.519        3.399        0.002      333.331        2.578      867.080
12/03/2021  00:50:00      -81.533       23.068      -18.041        9.519       12.162        8.009       90.619      147.915       64.141        0.390        0.015       84.733        5.424        0.004      333.322        2.561      867.085
12/03/2021  00:51:00      -62.698       12.385      -12.557       19.735       18.439       12.136      389.485      340.010      147.273        0.256        0.044       63.909        4.463        0.005      333.330        2.575      867.093
12/03/2021  00:52:00      -65.627       13.299      -15.642       22.764       21.607       14.059      518.216      466.850      197.664        0.296        0.059       66.961        9.012        0.018      333.319        2.558      867.102
12/03/2021  00:53:00      -68.549        6.152      -16.885       24.955       20.440       15.873      622.759      417.797      251.957        0.316        0.065       68.825        9.196        0.018      333.253        2.447      867.114
12/03/2021  00:54:00     -102.744       18.929      -17.861       12.586       11.492       10.273      158.415      132.064      105.525        0.581        0.020      104.473        5.761        0.003      333.259        2.458      867.124
12/03/2021  00:55:00      -84.981       14.712      -24.641       18.776       14.826       14.051      352.554      219.813      197.444        0.441        0.038       86.245        2.317        0.001      333.237        2.420      867.139
12/03/2021  00:56:00     -101.418       27.448      -20.986       14.063       12.180       11.669      197.777      148.343      136.166        0.598        0.024      105.067        5.891        0.003      333.210        2.377      867.149
12/03/2021  00:57:00      -92.009       25.702      -17.642       21.857       14.899       14.685      477.749      221.994      215.661        0.518        0.046       95.531        9.400        0.010      333.213        2.381      867.156
12/03/2021  00:58:00      -64.834       10.355      -13.774       35.738       27.982       21.142     1277.196      782.996      447.001        0.350        0.125       65.656       22.019        0.112      333.105        2.204      867.153
12/03/2021  00:59:00      -26.179        3.636       -7.713       34.189       27.068       15.222     1168.873      732.667      231.721        0.145        0.107       26.430       10.286        0.151      333.110        2.211      867.160
12/03/2021  01:00:00      -53.555       12.703      -16.979       25.614       31.073       16.176      656.081      965.508      261.648        0.260        0.094       55.041       14.972        0.074      333.134        2.251      867.164
12/03/2021  01:01:00      -84.483       15.274      -20.658       22.709       16.774       14.557      515.697      281.378      211.898        0.440        0.050       85.852       10.650        0.015      333.097        2.190      867.162
12/03/2021  01:02:00      -77.182       12.736      -20.370       22.917       16.016       14.888      525.209      256.524      221.654        0.377        0.050       78.226        7.408        0.009      333.066        2.139      867.156
12/03/2021  01:03:00      -92.111       24.220      -19.491       26.479       17.041       16.717      701.136      290.410      279.468        0.536        0.064       95.242        8.516        0.008      333.133        2.249      867.156
12/03/2021  01:04:00      -64.693       10.846      -17.907       32.821       26.920       21.650     1077.239      724.684      468.725        0.345        0.114       65.596       18.815        0.082      333.115        2.220      867.159
12/03/2021  01:05:00      -84.461       23.239      -16.463       26.234       28.141       15.714      688.215      791.890      246.938        0.484        0.086       87.600        5.903        0.005      333.020        2.064      867.162
12/03/2021  01:06:00      -92.330       41.068      -21.591       11.583       10.002        9.238      134.173      100.039       85.332        0.550        0.016      101.051        2.570        0.001      333.041        2.099      867.165
12/03/2021  01:07:00      -82.259       34.616      -20.260       24.570       18.995       12.391      603.662      360.792      153.531        0.475        0.056       89.245        9.366        0.011      333.008        2.042      867.163
12/03/2021  01:08:00      -97.223       21.902      -17.887       12.513       17.532       13.386      156.582      307.359      179.194        0.545        0.032       99.659        5.222        0.003      333.065        2.137      867.163
12/03/2021  01:09:00     -104.723       26.656      -19.831       18.643       20.755       11.096      347.559      430.753      123.132        0.649        0.045      108.062        4.960        0.002      333.083        2.168      867.166
12/03/2021  01:10:00      -83.007       31.842      -22.718       18.495       16.661       12.733      342.073      277.590      162.130        0.460        0.039       88.905        9.734        0.012      333.041        2.099      867.167
12/03/2021  01:11:00      -74.135       18.462      -19.157       24.206       21.516       13.740      585.923      462.959      188.782        0.372        0.062       76.399       11.611        0.023      333.040        2.096      867.169
12/03/2021  01:12:00      -90.698       24.593      -14.354       26.205       25.038       14.442      686.681      626.909      208.567        0.528        0.076       93.973       10.687        0.013      333.099        2.194      867.164
12/03/2021  01:13:00      -82.555        7.435      -14.233       42.897       29.121       23.014     1840.155      848.024      529.665        0.514        0.161       82.889       19.807        0.057      333.079        2.159      867.153
12/03/2021  01:14:00      -38.721        7.262       -2.982       29.726       27.116       23.299      883.664      735.282      542.853        0.186        0.108       39.396       18.748        0.226      333.055        2.119      867.148
12/03/2021  01:15:00      -20.539       -7.311       -2.549       39.546       18.421       22.526     1563.909      339.322      507.407        0.145        0.121       21.802       24.251        1.237      333.078        2.160      867.140
12/03/2021  01:16:00      -42.097      -13.235      -25.297       33.232       42.574       25.166     1104.378     1812.583      633.350        0.307        0.178       44.128       14.817        0.113      333.085        2.170      867.132
12/03/2021  01:17:00      -49.198        2.324      -18.211       30.886       26.121       17.108      953.935      682.284      292.672        0.234        0.096       49.253       15.960        0.105      333.170        2.310      867.122
12/03/2021  01:18:00      -72.142       16.131      -21.173       29.246       31.502       18.584      855.300      992.359      345.350        0.405        0.110       73.923       14.704        0.040      333.157        2.288      867.116
12/03/2021  01:19:00      -71.477        5.786      -21.376       33.025       23.524       22.029     1090.618      553.381      485.255        0.386        0.106       71.711       12.884        0.032      333.167        2.305      867.116
12/03/2021  01:20:00      -20.302        1.981       -4.905       27.211       20.794       18.214      740.423      432.386      331.732        0.097        0.075       20.399       14.753        0.523      333.138        2.256      867.114
12/03/2021  01:21:00      -68.487       12.048      -19.000       21.121       27.788       16.615      446.103      772.195      276.074        0.335        0.075       69.539       13.643        0.038      333.122        2.231      867.117
12/03/2021  01:22:00      -79.130       17.210      -15.910       17.057       20.189       12.371      290.949      407.602      153.044        0.383        0.043       80.979        6.385        0.006      333.156        2.286      867.120
12/03/2021  01:23:00      -97.488       20.424      -19.433       31.391       19.177       18.570      985.394      367.751      344.846        0.600        0.085       99.604       18.240        0.034      333.161        2.295      867.121
12/03/2021  01:24:00      -97.606       53.288      -16.560       11.586        8.802        6.679      134.228       77.471       44.613        0.645        0.013      111.205        2.518        0.001      333.291        2.511      867.127
12/03/2021  01:25:00      -82.332       32.277      -23.680       14.152       17.199       10.636      200.283      295.804      113.116        0.449        0.030       88.432       10.464        0.014      333.326        2.567      867.132
12/03/2021  01:26:00      -70.469       17.000      -22.893       22.514       26.245       17.828      506.864      688.821      317.828        0.365        0.076       72.491       11.516        0.025      333.290        2.508      867.138
12/03/2021  01:27:00      -38.937       18.748       -0.503       44.050       17.603       22.995     1940.414      309.851      528.793        0.232        0.139       43.216       26.757        0.383      333.133        2.249      867.141
12/03/2021  01:28:00      -59.089       -2.773      -14.786       38.171       23.397       22.278     1457.062      547.417      496.314        0.311        0.125       59.154       22.650        0.147      333.164        2.300      867.146
12/03/2021  01:29:00     -112.667       33.508      -12.136       14.417       13.887       11.209      207.856      192.851      125.642        0.725        0.026      117.544        5.414        0.002      333.189        2.342      867.151
12/03/2021  01:30:00      -96.507       21.381       -8.769       27.666       17.684       16.477      765.382      312.738      271.489        0.560        0.067       98.847       13.523        0.019      333.222        2.396      867.158
12/03/2021  01:31:00      -98.588       20.985       -3.930       31.469       19.665       20.727      990.292      386.723      429.609        0.599        0.090      100.797       19.388        0.037      333.229        2.407      867.172
12/03/2021  01:32:00      -78.065       20.901       -5.063       31.088       19.421       14.656      966.434      377.159      214.793        0.406        0.078       80.814       12.588        0.024      333.160        2.293      867.180
12/03/2021  01:33:00      -85.343       14.215       -5.296       21.531       15.736       15.957      463.593      247.624      254.611        0.424        0.048       86.519       13.734        0.025      333.239        2.424      867.190
12/03/2021  01:34:00      -59.729       15.015       -5.755       33.136       17.103       14.271     1097.996      292.499      203.673        0.271        0.080       61.588       13.328        0.047      333.237        2.421      867.200
12/03/2021  01:35:00      -42.188        5.890       -0.300       39.377       19.236       23.153     1550.530      370.021      536.058        0.214        0.123       42.598       20.251        0.226      333.196        2.352      867.205
12/03/2021  01:36:00     -105.204       27.043       -7.971       24.490       15.333       14.719      599.770      235.112      216.641        0.646        0.053      108.624        9.979        0.008      333.065        2.138      867.213
12/03/2021  01:37:00      -97.893       30.774      -11.223       23.675       12.468       13.674      560.483      155.446      186.977        0.578        0.045      102.616       10.470        0.010      333.058        2.127      867.218
12/03/2021  01:38:00     -118.509       20.124      -10.266       26.879       16.955       15.652      722.498      287.465      244.971        0.790        0.063      120.205       10.282        0.007      333.102        2.199      867.228
12/03/2021  01:39:00     -114.197       39.004      -15.526       15.514       11.210        9.866      240.670      125.659       97.331        0.763        0.023      120.674        6.898        0.003      333.067        2.141      867.233
12/03/2021  01:40:00     -103.710       47.902      -14.115       28.018       16.760       15.180      785.003      280.907      230.427        0.727        0.065      114.238       11.398        0.010      333.026        2.074      867.242
12/03/2021  01:41:00     -111.720       47.371      -11.431       12.679       13.184       13.177      160.754      173.807      173.639        0.768        0.025      121.349        8.336        0.005      333.097        2.190      867.249
12/03/2021  01:42:00      -77.927       17.269      -17.381       26.721       15.172       15.401      713.990      230.190      237.189        0.393        0.059       79.817       14.129        0.031      333.091        2.180      867.256
12/03/2021  01:43:00      -42.078       13.383      -18.867       24.811       17.442       15.669      615.565      304.234      245.511        0.174        0.058       44.155       10.140        0.053      333.025        2.070      867.260
12/03/2021  01:44:00      -29.016       -1.965       -7.928       25.536       27.042       20.208      652.104      731.296      408.361        0.135        0.090       29.083       10.376        0.127      333.001        2.030      867.263
12/03/2021  01:45:00      -26.019       -4.247       -8.212       26.066       22.506       23.003      679.414      506.527      529.137        0.124        0.086       26.363       18.471        0.491      332.962        1.966      867.260
12/03/2021  01:46:00      -53.953        0.272       -5.331       22.959       24.151       22.145      527.128      583.282      490.383        0.227        0.080       53.954       12.003        0.049      332.908        1.877      867.268
12/03/2021  01:47:00      -88.122       23.333      -12.004       24.431       20.718       17.564      596.878      429.248      308.501        0.489        0.067       91.159       13.375        0.022      332.868        1.812      867.264
12/03/2021  01:48:00      -72.376       14.710      -11.875       14.057       15.795       11.860      197.612      249.477      140.666        0.309        0.029       73.856       10.337        0.020      332.894        1.855      867.257
12/03/2021  01:49:00      -75.226       13.039      -13.522       16.287       14.684       12.013      265.255      215.609      144.307        0.332        0.031       76.347        6.581        0.007      332.944        1.938      867.251
12/03/2021  01:50:00      -82.004       21.490      -17.472       15.591       12.621       15.251      243.083      159.291      232.579        0.406        0.032       84.773        9.337        0.012      332.850        1.780      867.249
12/03/2021  01:51:00      -73.433       16.284      -19.045       25.708       30.223       15.841      660.908      913.453      250.926        0.392        0.091       75.217       13.937        0.034      332.885        1.838      867.243
12/03/2021  01:52:00      -81.269       41.475      -15.342       14.924       13.992        9.608      222.735      195.767       92.322        0.454        0.026       91.241        7.497        0.007      332.916        1.890      867.246
12/03/2021  01:53:00      -53.885       25.958      -16.419        7.128       10.346        9.035       50.812      107.049       81.626        0.204        0.012       59.811        6.369        0.011      333.143        2.266      867.244
12/03/2021  01:54:00      -59.803       10.772      -16.231       15.250        7.437        7.612      232.559       55.309       57.936        0.215        0.017       60.766        4.774        0.006      333.069        2.145      867.244
12/03/2021  01:55:00      -56.562        6.730      -11.989       19.849       17.532       10.821      393.997      307.360      117.098        0.210        0.041       56.961        6.358        0.012      333.051        2.114      867.247
12/03/2021  01:56:00      -80.911       19.276      -10.646       20.500       15.035       12.369      420.252      226.052      152.997        0.392        0.040       83.175       11.192        0.018      333.032        2.082      867.248
12/03/2021  01:57:00      -67.709       30.028      -18.223        9.044        9.802        8.224       81.800       96.075       67.632        0.303        0.012       74.069        5.600        0.006      333.093        2.184      867.256
12/03/2021  01:58:00      -59.180       24.540      -11.091       16.018       10.495        9.483      256.563      110.149       89.933        0.234        0.023       64.066        7.521        0.014      333.098        2.191      867.263
12/03/2021  01:59:00      -60.998       30.415       -7.371        8.515        8.624        6.909       72.500       74.374       47.734        0.245        0.010       68.160        2.549        0.001      333.029        2.078      867.265
12/03/2021  02:00:00      -71.609       28.673      -11.716       17.736       16.514       10.777      314.549      272.718      116.133        0.340        0.035       77.136        9.086        0.014      333.080        2.163      867.271
12/03/2021  02:01:00      -75.631       19.607      -16.863       19.332       16.846       13.393      373.708      283.801      179.374        0.361        0.042       78.131        2.753        0.001      333.027        2.075      867.269
12/03/2021  02:02:00      -52.265       22.982      -15.900       11.471       10.710        8.079      131.578      114.699       65.269        0.191        0.016       57.095        4.695        0.007      332.977        1.992      867.270
12/03/2021  02:03:00      -54.727       16.100      -18.896        8.543        7.653        9.544       72.985       58.568       91.085        0.192        0.011       57.046        6.664        0.014      332.933        1.917      867.270
12/03/2021  02:04:00      -61.291       20.132      -13.447       10.747        9.743        8.551      115.492       94.923       73.113        0.231        0.014       64.513        6.817        0.011      332.921        1.899      867.275
12/03/2021  02:05:00      -69.584       35.814      -16.571       21.154       12.354       10.620      447.472      152.616      112.794        0.356        0.036       78.260        9.926        0.016      332.962        1.968      867.267
12/03/2021  02:06:00      -78.318       29.434      -14.985       14.745       13.497       10.134      217.425      182.181      102.695        0.386        0.025       83.666        5.163        0.004      332.828        1.746      867.264
12/03/2021  02:07:00      -74.011       20.844      -19.159       12.100        8.543        7.279      146.407       72.983       52.977        0.328        0.014       76.890        5.146        0.004      332.870        1.813      867.260
12/03/2021  02:08:00      -71.382       31.679      -13.092       16.143       13.142        8.659      260.610      172.715       74.971        0.339        0.025       78.096        6.819        0.008      332.745        1.608      867.247
12/03/2021  02:09:00      -72.705       33.435      -13.802        7.225        7.347        7.393       52.196       53.984       54.661        0.338        0.008       80.025        2.690        0.001      332.730        1.583      867.232
12/03/2021  02:10:00      -79.263       40.702      -18.242       12.804       12.426        9.437      163.934      154.413       89.056        0.434        0.020       89.103        2.781        0.001      332.753        1.621      867.229
12/03/2021  02:11:00      -79.163       43.531       -7.028       12.846       10.961       12.173      165.008      120.151      148.184        0.432        0.022       90.342        6.619        0.005      332.715        1.559      867.211
12/03/2021  02:12:00      -90.278       28.740      -13.213       15.886       17.127       17.109      252.363      293.347      292.709        0.499        0.042       94.742       10.814        0.013      332.735        1.593      867.199
12/03/2021  02:13:00      -92.689       24.125      -20.560       15.864       14.693        9.368      251.669      215.874       87.768        0.508        0.028       95.777        4.912        0.003      332.724        1.573      867.192
12/03/2021  02:14:00      -94.853       45.598       -7.032       19.225       18.591       15.833      369.611      345.621      250.689        0.605        0.048      105.243       14.162        0.018      332.675        1.492      867.186
12/03/2021  02:15:00     -115.846       39.772       -9.811       24.742       19.697       15.861      612.169      387.972      251.577        0.817        0.063      122.483       16.367        0.018      332.620        1.402      867.178
12/03/2021  02:16:00     -116.912       46.844       -6.697       24.181       19.275       16.910      584.735      371.514      285.944        0.857        0.062      125.947       15.037        0.014      332.639        1.433      867.168
12/03/2021  02:17:00     -112.265       51.141      -18.194       17.021       12.660       13.499      289.720      160.268      182.235        0.809        0.032      123.364        3.582        0.001      332.698        1.530      867.159
12/03/2021  02:18:00     -100.200       37.043      -18.341       22.241       21.145       15.425      494.682      447.124      237.944        0.646        0.059      106.828        8.061        0.006      332.759        1.632      867.149
12/03/2021  02:19:00      -60.942       -6.845      -21.139       38.497       34.612       20.024     1482.053     1197.958      400.946        0.364        0.154       61.325       20.643        0.113      332.689        1.517      867.145
12/03/2021  02:20:00      -30.285       11.265        0.994       43.486       24.318       26.135     1891.008      591.357      683.036        0.210        0.158       32.313       23.358        0.523      332.565        1.310      867.145
12/03/2021  02:21:00      -72.964       14.868      -21.297       32.336       22.844       18.750     1045.646      521.831      351.554        0.396        0.096       74.463       14.665        0.039      332.572        1.321      867.133
12/03/2021  02:22:00      -20.123       -1.015       -4.494       29.545       19.980       21.029      872.905      399.219      442.232        0.107        0.086       20.148       13.923        0.478      332.649        1.449      867.129
12/03/2021  02:23:00      -24.358       -4.995       -8.502       35.605       33.523       26.049     1267.721     1123.793      678.570        0.188        0.154       24.865       22.984        0.854      332.547        1.280      867.129
12/03/2021  02:24:00      -70.163       18.206      -16.831       33.791       23.234       19.436     1141.830      539.840      377.744        0.380        0.103       72.487       20.421        0.079      332.576        1.329      867.130
12/03/2021  02:25:00      -12.672      -18.608      -23.074       23.897       30.477       19.158      571.072      928.853      367.045        0.145        0.093       22.513       14.708        0.427      332.625        1.410      867.122
12/03/2021  02:26:00       -3.612       16.846        1.734       27.526       18.818       15.964      757.708      354.130      254.843        0.083        0.068       17.229       16.243        0.889      332.583        1.340      867.112
12/03/2021  02:27:00      -62.386       30.787      -19.944       11.599       10.866       10.662      134.540      118.063      113.681        0.280        0.018       69.569        5.850        0.007      332.740        1.600      867.097
12/03/2021  02:28:00      -53.120       10.052      -14.957       35.305       22.353       27.424     1246.424      499.660      752.058        0.282        0.125       54.062       24.296        0.202      332.726        1.577      867.094
12/03/2021  02:29:00      -15.395        5.754        0.952       30.880       16.751       18.848      953.585      280.605      355.230        0.093        0.079       16.435       17.558        1.141      332.648        1.448      867.086
12/03/2021  02:30:00      -69.853       21.399      -14.841       27.307       16.872       16.709      745.657      284.650      279.174        0.343        0.065       73.057        8.475        0.013      332.604        1.376      867.081
12/03/2021  02:31:00      -30.534       16.510      -17.427       14.744       16.502       16.067      217.371      272.309      258.162        0.113        0.037       34.712        5.917        0.029      332.569        1.317      867.074
12/03/2021  02:32:00      -45.815       22.472      -14.252       13.584        9.811        8.618      184.532       96.254       74.275        0.158        0.018       51.030        7.081        0.019      332.578        1.332      867.066
12/03/2021  02:33:00      -38.955       15.145       -9.509       10.093       13.686        9.493      101.870      187.299       90.118        0.111        0.019       41.795        6.167        0.022      332.668        1.481      867.059
12/03/2021  02:34:00      -27.733        4.838      -13.014       12.744       13.358        8.385      162.398      178.437       70.314        0.069        0.021       28.152        4.449        0.025      333.086        2.172      867.048
12/03/2021  02:35:00      -32.034       -5.514       -6.594       18.622       13.452       10.328      346.774      180.948      106.666        0.087        0.032       32.505        5.869        0.033      333.079        2.160      867.046
12/03/2021  02:36:00      -30.841       -3.331       -7.637       22.008       12.972       17.911      484.334      168.279      320.818        0.100        0.049       31.020       13.973        0.203      332.632        1.422      867.057
12/03/2021  02:37:00      -84.729      -10.994      -15.342       35.471       22.726       23.096     1258.192      516.461      533.439        0.492        0.115       85.439       21.788        0.065      332.480        1.171      867.080
12/03/2021  02:38:00     -102.634       37.802      -14.298       25.336       13.985       12.087      641.936      195.578      146.094        0.658        0.049      109.375        5.611        0.003      332.649        1.448      867.092
12/03/2021  02:39:00      -58.734       24.134      -11.262       17.108       10.360        9.526      292.676      107.340       90.750        0.232        0.025       63.499        9.619        0.023      332.743        1.604      867.093
12/03/2021  02:40:00      -45.839       20.898      -17.218       14.271        9.204        6.673      203.661       84.706       44.525        0.158        0.017       50.378        2.405        0.002      332.885        1.840      867.097
12/03/2021  02:41:00      -41.529       10.640      -13.331       15.582       10.058       10.460      242.811      101.156      109.417        0.123        0.023       42.870        5.561        0.017      332.861        1.799      867.106
12/03/2021  02:42:00      -17.551       -7.398       -4.188       12.676        8.366        8.830      160.670       69.993       77.973        0.034        0.015       19.047        4.907        0.066      332.889        1.846      867.106
12/03/2021  02:43:00       -1.612       -3.658       -4.156        6.323        5.497        3.893       39.976       30.215       15.152        0.006        0.004        3.998        2.911        0.530      332.979        1.995      867.096
12/03/2021  02:44:00        4.287       -2.240       -8.057        3.759        4.000        3.465       14.129       16.000       12.004        0.007        0.002        4.837        2.016        0.174      333.076        2.156      867.093
12/03/2021  02:45:00      -14.198        1.240       -6.316       15.705       10.207       12.945      246.656      104.184      167.567        0.038        0.026       14.252        4.153        0.085      332.946        1.941      867.087
12/03/2021  02:46:00      -10.841       -1.098       -4.606       18.439       14.378       12.487      339.993      206.718      155.921        0.042        0.035       10.896       11.776        1.168      332.658        1.464      867.091
12/03/2021  02:47:00      -22.279        0.117      -11.623       12.044        9.408       10.297      145.055       88.506      106.033        0.049        0.017       22.279        3.892        0.031      332.586        1.346      867.090
12/03/2021  02:48:00      -46.774       19.467      -11.239        6.227        8.655        6.823       38.773       74.912       46.558        0.143        0.008       50.663        4.530        0.008      332.663        1.473      867.075
12/03/2021  02:49:00      -62.343       18.393      -10.444       10.504       10.641        9.656      110.343      113.225       93.229        0.233        0.016       64.999        5.457        0.007      332.712        1.554      867.071
12/03/2021  02:50:00      -48.823       -6.539       -7.703       21.690       24.317       17.651      470.444      591.317      311.547        0.193        0.069       49.258       13.366        0.074      332.574        1.326      867.075
12/03/2021  02:51:00      -49.875       12.095      -16.321       17.490       22.060       14.637      305.890      486.665      214.247        0.195        0.050       51.320        8.040        0.025      332.496        1.196      867.082
12/03/2021  02:52:00      -61.970       44.024      -17.811       18.439       15.232       16.903      340.010      232.008      285.699        0.348        0.043       76.016       12.300        0.026      332.471        1.156      867.084
12/03/2021  02:53:00      -54.612       16.546      -20.753       22.521       14.841       12.862      507.212      220.263      165.425        0.229        0.045       57.063        6.278        0.012      332.572        1.322      867.095
12/03/2021  02:54:00      -44.117       17.363       -8.316        9.297       13.318        9.007       86.425      177.380       81.124        0.133        0.017       47.411        2.963        0.004      332.567        1.313      867.109
12/03/2021  02:55:00      -17.209       10.036       -7.463       25.029       18.209       14.656      626.437      331.560      214.806        0.081        0.059       19.922        8.407        0.178      332.522        1.240      867.118
12/03/2021  02:56:00      -44.369        3.038      -10.979       17.754       19.135       13.294      315.202      366.135      176.727        0.148        0.043       44.473        8.217        0.034      332.536        1.264      867.129
12/03/2021  02:57:00      -42.554        6.928      -17.503       25.430       17.931       12.173      646.698      321.526      148.188        0.164        0.056       43.114        8.085        0.035      332.567        1.314      867.131
12/03/2021  02:58:00      -70.258       22.851      -13.960       23.128       15.364       12.175      534.897      236.041      148.226        0.329        0.046       73.881       10.331        0.020      332.472        1.158      867.134
12/03/2021  02:59:00      -58.773       18.900      -18.037       15.681       13.916        9.619      245.905      193.656       92.518        0.233        0.027       61.737        6.008        0.009      332.451        1.122      867.136
12/03/2021  03:00:00      -56.011       19.457      -14.179       14.640       14.314       11.532      214.331      204.884      132.986        0.213        0.028       59.295        5.389        0.008      332.497        1.199      867.069
12/03/2021  03:01:00      -76.651       27.454      -16.676       13.213       10.446        7.409      174.579      109.118       54.899        0.362        0.017       81.419        4.519        0.003      332.436        1.098      867.042
12/03/2021  03:02:00      -62.643       36.893      -16.399       18.709       11.325       10.054      350.019      128.251      101.082        0.307        0.029       72.700        6.286        0.007      332.343        0.943      867.042
12/03/2021  03:03:00      -50.825       27.299      -15.618        9.138        9.485        9.906       83.498       89.964       98.122        0.192        0.014       57.692        5.933        0.011      332.439        1.102      867.036
12/03/2021  03:04:00      -46.618        9.732      -14.695       14.922       12.603       12.064      222.676      158.829      145.545        0.151        0.026       47.623        5.112        0.012      332.514        1.226      867.027
12/03/2021  03:05:00      -33.361        9.092      -14.327       19.098       20.235       13.168      364.722      409.460      173.403        0.117        0.047       34.577        8.279        0.057      332.446        1.114      867.015
12/03/2021  03:06:00      -40.069       18.176      -14.974       13.060       12.829       13.144      170.568      164.577      172.768        0.133        0.025       43.999        7.437        0.029      332.467        1.149      867.016
12/03/2021  03:07:00      -41.099       10.128      -11.290       15.296       13.055       10.657      233.969      170.437      113.581        0.122        0.026       42.328        4.622        0.012      332.499        1.202      867.020
12/03/2021  03:08:00      -72.105       23.574      -16.070       25.448       19.694       12.589      647.625      387.873      158.488        0.360        0.060       75.861        5.067        0.004      332.393        1.026      867.004
12/03/2021  03:09:00      -83.138       39.142      -15.830        9.934       11.992        9.895       98.681      143.814       97.905        0.452        0.017       91.891        5.398        0.003      332.330        0.921      866.995
12/03/2021  03:10:00      -82.042       24.558      -18.859       21.792       14.885       11.552      474.907      221.561      133.456        0.426        0.041       85.639        5.072        0.004      332.361        0.973      866.974
12/03/2021  03:11:00      -85.715       30.880      -16.042        9.756       11.485        9.320       95.171      131.908       86.862        0.444        0.016       91.108        3.456        0.001      332.333        0.926      866.955
12/03/2021  03:12:00      -71.853       13.772      -15.973       25.541       16.951       13.459      652.335      287.349      181.144        0.336        0.056       73.161       11.672        0.025      332.351        0.956      866.948
12/03/2021  03:13:00      -96.632       30.135      -16.085       17.745       19.278       12.165      314.883      371.660      147.984        0.567        0.042      101.221        7.832        0.006      332.339        0.938      866.933
12/03/2021  03:14:00      -95.280       31.636      -15.349        8.185       13.145        8.297       67.002      172.781       68.844        0.531        0.015      100.395        4.350        0.002      332.391        1.024      866.921
12/03/2021  03:15:00     -118.274       43.743      -14.329       23.567       13.683       15.247      555.423      187.222      232.466        0.854        0.049      126.104       12.967        0.011      332.386        1.014      866.918
12/03/2021  03:16:00      -97.705       24.466      -10.296       19.456       20.726       11.652      378.531      429.551      135.778        0.560        0.047      100.722        8.083        0.006      332.398        1.033      866.912
12/03/2021  03:17:00      -87.000       15.258      -11.779       15.777       13.689       11.970      248.909      187.376      143.278        0.426        0.029       88.328        7.260        0.007      332.453        1.124      866.899
12/03/2021  03:18:00      -98.863       23.095      -12.592       14.943       13.631       10.323      223.295      185.800      106.571        0.549        0.026      101.525        7.307        0.005      332.432        1.090      866.883
12/03/2021  03:19:00     -109.568       38.821       -7.426       17.982       11.263       12.451      323.367      126.854      155.017        0.709        0.030      116.242       10.909        0.009      332.423        1.074      866.873
12/03/2021  03:20:00      -99.200       27.973       -9.524       12.300       13.113        9.878      151.293      171.949       97.573        0.557        0.021      103.068        5.074        0.002      332.459        1.135      866.864
12/03/2021  03:21:00      -92.441       14.166       -9.885       22.630       16.499       12.439      512.119      272.219      154.732        0.489        0.047       93.520       11.546        0.015      332.611        1.389      866.856
12/03/2021  03:22:00      -71.595       19.341       -4.298       15.425       13.818       13.573      237.931      190.950      184.231        0.307        0.031       74.161       10.034        0.018      332.522        1.241      866.851
12/03/2021  03:23:00      -59.208        5.778       -3.391       23.795       14.090       10.415      566.214      198.528      108.464        0.221        0.044       59.489       11.652        0.038      332.487        1.181      866.844
12/03/2021  03:24:00      -47.890        3.998       -4.771       20.005       17.714       13.189      400.192      313.771      173.953        0.161        0.044       48.056       10.556        0.048      332.478        1.165      866.842
12/03/2021  03:25:00      -14.676       -2.261       -2.102       18.986       11.250        8.475      360.451      126.570       71.827        0.039        0.028       14.850        9.722        0.429      332.564        1.309      866.828
12/03/2021  03:26:00      -12.213       -3.009       -6.367       11.848        9.010       10.086      140.378       81.188      101.728        0.026        0.016       12.578        7.436        0.350      332.671        1.486      866.818
12/03/2021  03:27:00       -7.660       -4.409       -5.201        8.595        8.868        9.801       73.879       78.640       96.052        0.018        0.012        8.838        4.948        0.313      332.819        1.731      866.805
12/03/2021  03:28:00      -27.960       -2.607       -7.226       18.156       10.362       10.414      329.640      107.364      108.460        0.069        0.027       28.082        9.233        0.108      332.822        1.736      866.790
12/03/2021  03:29:00      -12.718       -5.673      -10.765       17.965       13.637       11.517      322.739      185.954      132.634        0.048        0.032       13.926       10.177        0.534      332.681        1.503      866.781
12/03/2021  03:30:00      -12.403       -9.150       -3.964       10.444       15.521        7.751      109.087      240.910       60.079        0.033        0.021       15.413        4.302        0.078      332.622        1.405      866.783
12/03/2021  03:31:00      -19.520      -11.702       -6.536        8.149       17.777        7.250       66.403      316.009       52.557        0.050        0.022       22.759        3.596        0.025      332.611        1.386      866.782
12/03/2021  03:32:00      -25.366       -0.190       -8.758       14.609       14.929       11.345      213.415      222.868      128.702        0.064        0.028       25.367        8.913        0.123      332.554        1.293      866.786
12/03/2021  03:33:00      -35.373        2.065       -2.939       29.744       23.056       11.623      884.725      531.585      135.095        0.141        0.078       35.433       11.143        0.099      332.538        1.267      866.792
12/03/2021  03:34:00      -29.087       15.519       -3.227       20.737       15.863       10.516      430.007      251.648      110.580        0.094        0.040       32.968       10.004        0.092      332.509        1.216      866.794
12/03/2021  03:35:00      -46.671        9.604      -14.594       15.590       14.802        9.949      243.046      219.110       98.979        0.152        0.028       47.649        9.586        0.040      332.640        1.435      866.787
12/03/2021  03:36:00      -62.416       23.715      -12.076       17.987       17.865       12.132      323.526      319.149      147.181        0.270        0.039       66.770        7.828        0.014      332.490        1.187      866.793
12/03/2021  03:37:00      -29.521       16.791       -0.634       14.634       15.569        6.748      214.152      242.387       45.532        0.083        0.025       33.962        5.685        0.028      332.413        1.059      866.783
12/03/2021  03:38:00        0.955       -6.496       -6.570        9.859       13.428        6.770       97.199      180.319       45.829        0.020        0.016        6.566        7.290        1.233      332.496        1.197      866.776
12/03/2021  03:39:00      -24.411       11.727       -7.245       16.240       12.138        9.294      263.742      147.320       86.373        0.064        0.025       27.081        6.682        0.061      332.522        1.238      866.768
12/03/2021  03:40:00      -27.959       11.281       -5.066        6.514       11.421        5.301       42.435      130.441       28.098        0.057        0.010       30.149        1.943        0.004      332.553        1.290      866.765
12/03/2021  03:41:00      -13.773       -7.794      -10.506        8.999        8.278        8.803       80.974       68.523       77.491        0.029        0.011       15.825        5.662        0.128      332.590        1.352      866.763
12/03/2021  03:42:00       -5.455        2.092       -2.452        6.627        5.851        5.082       43.919       34.235       25.829        0.007        0.005        5.843        2.767        0.224      332.532        1.256      866.764
12/03/2021  03:43:00       -9.325        7.461       -5.017        8.254       14.296        7.221       68.121      204.375       52.139        0.025        0.016       11.943        4.623        0.150      332.532        1.255      866.757
12/03/2021  03:44:00      -47.902       28.696      -13.234        9.355       10.236        9.399       87.512      104.767       88.334        0.179        0.014       55.840        5.080        0.008      332.475        1.162      866.757
12/03/2021  03:45:00      -29.739       -0.725       -4.901       19.358       15.160       11.818      374.750      229.822      139.675        0.083        0.037       29.748       10.748        0.131      332.381        1.006      866.757
12/03/2021  03:46:00      -32.577       16.128       -6.073       17.373       14.062       10.283      301.826      197.738      105.743        0.098        0.030       36.350        9.789        0.073      332.483        1.174      866.762
12/03/2021  03:47:00       -4.942       -1.554       -7.906        5.037        8.183        6.837       25.371       66.960       46.741        0.011        0.007        5.181        4.995        0.930      332.545        1.277      866.764
12/03/2021  03:48:00        8.901      -10.320      -12.298        6.318        9.804        8.587       39.921       96.126       73.730        0.027        0.010       13.628        5.116        0.141      332.709        1.550      866.757
12/03/2021  03:49:00        1.536       -6.273      -10.507        6.819       17.449       10.136       46.497      304.456      102.739        0.030        0.023        6.458       10.171        2.481      332.729        1.581      866.754
12/03/2021  03:50:00       20.827       16.578       -2.680       13.882       22.966        8.517      192.699      527.448       72.544        0.075        0.040       26.619        6.520        0.060      332.531        1.253      866.756
12/03/2021  03:51:00       26.316       25.331       -3.877       10.274       10.740        7.568      105.555      115.346       57.280        0.081        0.014       36.526        4.915        0.018      332.400        1.038      866.756
12/03/2021  03:52:00       46.255       13.569       -8.326        7.204       10.176        5.401       51.897      103.550       29.173        0.129        0.009       48.204        4.103        0.007      332.423        1.076      866.759
12/03/2021  03:53:00       18.826       -8.679       -7.801       16.253        9.825        6.732      264.149       96.530       45.326        0.045        0.020       20.730        6.274        0.092      332.433        1.092      866.763
12/03/2021  03:54:00       31.197        2.481       -4.234       10.469        9.359        5.051      109.602       87.588       25.513        0.061        0.011       31.296        4.371        0.020      332.439        1.104      866.760
12/03/2021  03:55:00       29.468        0.966       -6.869       11.507       15.888        6.648      132.408      252.441       44.197        0.067        0.021       29.484        4.372        0.022      332.485        1.180      866.752
12/03/2021  03:56:00       29.692       12.056       -5.716       17.474       13.097        5.778      305.352      171.540       33.380        0.078        0.026       32.046        3.363        0.011      332.371        0.990      866.745
12/03/2021  03:57:00       47.584       23.822       -5.887       10.892       16.554        9.599      118.627      274.028       92.146        0.168        0.024       53.214        6.046        0.013      332.483        1.174      866.741
12/03/2021  03:58:00       24.830       26.388       -0.387       20.443       22.287       10.322      417.912      496.695      106.544        0.117        0.051       36.234       10.402        0.082      332.414        1.060      866.733
12/03/2021  03:59:00       17.250       26.187        2.921       15.690       11.532        9.300      246.165      132.984       86.496        0.073        0.023       31.358        7.538        0.058      332.448        1.117      866.732
12/03/2021  04:00:00      -22.291       16.876      -10.207       14.538        7.734        6.388      211.353       59.814       40.806        0.060        0.016       27.958        4.155        0.022      332.406        1.048      866.721
12/03/2021  04:01:00      -18.142        7.985      -14.079        8.646        6.630        4.491       74.756       43.961       20.165        0.036        0.007       19.821        4.904        0.061      332.475        1.161      866.703
12/03/2021  04:02:00        1.387        6.271       -3.300        3.683        5.559        3.559       13.564       30.901       12.665        0.005        0.003        6.423        2.474        0.148      332.480        1.169      866.686
12/03/2021  04:03:00       -4.100        7.106       -8.900        8.564        7.183        6.986       73.335       51.597       48.810        0.016        0.009        8.204        6.290        0.588      332.572        1.320      866.676
12/03/2021  04:04:00      -34.631       11.557      -12.970        6.333        7.916        5.710       40.104       62.665       32.608        0.082        0.007       36.508        3.027        0.007      332.363        0.977      866.669
12/03/2021  04:05:00      -24.065       15.600       -9.077        4.801        5.354        4.628       23.047       28.665       21.415        0.049        0.004       28.679        2.214        0.006      332.376        0.998      866.666
12/03/2021  04:06:00      -24.910        6.615       -9.512       11.220       10.138        8.119      125.879      102.785       65.916        0.052        0.015       25.773        4.991        0.037      332.381        1.006      866.660
12/03/2021  04:07:00      -32.043       16.710      -10.806        6.471        6.400        4.952       41.867       40.958       24.521        0.077        0.005       36.138        1.433        0.002      332.320        0.905      866.661
12/03/2021  04:08:00      -40.647       16.816      -11.939        8.952        4.648        6.155       80.146       21.607       37.888        0.111        0.007       43.988        4.100        0.009      332.384        1.013      866.660
12/03/2021  04:09:00      -31.252        8.516       -6.039       14.919       10.857       10.342      222.567      117.871      106.949        0.077        0.022       32.391        8.510        0.069      332.358        0.968      866.658
12/03/2021  04:10:00      -30.437       13.066      -10.106        7.573        4.468        5.302       57.358       19.963       28.110        0.065        0.005       33.123        2.779        0.007      332.397        1.032      866.658
12/03/2021  04:11:00        0.280       12.860       -5.705       11.835        6.621        5.288      140.079       43.839       27.959        0.020        0.011       12.863        5.489        0.182      332.343        0.942      866.654
12/03/2021  04:12:00       21.326       34.563       -3.506       14.545        8.849        9.886      211.569       78.305       97.741        0.102        0.019       40.612        3.441        0.007      332.597        1.362      866.659
12/03/2021  04:13:00        3.255       41.901       -0.830       13.926       17.922       11.789      193.934      321.201      138.987        0.121        0.033       42.027       10.182        0.059      332.639        1.434      866.651
12/03/2021  04:14:00       -8.707       36.627       -7.055       19.752       23.561       12.101      390.137      555.123      146.428        0.128        0.055       37.647        6.424        0.029      332.492        1.188      866.651
12/03/2021  04:15:00      -24.081       20.398       -6.824       14.345       18.214       12.940      205.772      331.738      167.440        0.087        0.035       31.559       11.021        0.122      332.248        0.787      866.652
12/03/2021  04:16:00      -13.349       20.141      -12.017       17.514       15.720       12.337      306.727      247.114      152.207        0.072        0.035       24.163        9.797        0.164      332.179        0.673      866.649
12/03/2021  04:17:00       -6.171       32.851       -5.719       11.893       16.039       16.074      141.438      257.249      258.362        0.090        0.033       33.426        6.127        0.034      332.353        0.961      866.646
12/03/2021  04:18:00      -10.815       14.315       -8.189       10.356       12.810       11.592      107.246      164.083      134.384        0.040        0.020       17.941        6.387        0.127      332.323        0.910      866.643
12/03/2021  04:19:00      -19.226      -13.963       -6.448       15.804       13.892        9.826      249.765      192.996       96.547        0.057        0.027       23.761        5.147        0.047      332.265        0.814      866.644
12/03/2021  04:20:00      -24.828       -3.878       -5.793       14.465       15.671       10.814      209.249      245.576      116.945        0.062        0.029       25.129        6.046        0.058      332.030        0.428      866.640
12/03/2021  04:21:00      -41.852       17.845      -14.858        8.649       10.178       11.220       74.808      103.601      125.895        0.130        0.015       45.497        3.313        0.005      332.291        0.857      866.642
12/03/2021  04:22:00      -15.141       11.735      -10.714       15.781       10.152        9.543      249.040      103.069       91.072        0.046        0.022       19.157        9.634        0.253      332.359        0.969      866.643
12/03/2021  04:23:00       13.408       34.878       -5.605       13.748       31.732       13.384      189.011     1006.939      179.119        0.140        0.069       37.367       12.336        0.109      332.601        1.370      866.642
12/03/2021  04:24:00       14.938       36.741       -0.177       16.497       17.265       10.443      272.136      298.066      109.052        0.113        0.034       39.662        7.347        0.034      332.709        1.550      866.638
12/03/2021  04:25:00       23.344       72.774       -6.910       13.832       15.709        9.059      191.326      246.758       82.065        0.320        0.026       76.426        6.650        0.008      332.940        1.930      866.630
12/03/2021  04:26:00      -13.632        9.144       -9.336       22.456       27.859       11.551      504.278      776.119      133.420        0.088        0.071       16.415        3.791        0.053      332.492        1.189      866.620
12/03/2021  04:27:00      -19.968        2.111      -19.166       14.811       12.837        7.842      219.377      164.782       61.499        0.061        0.022       20.080        2.699        0.018      332.405        1.045      866.617
12/03/2021  04:28:00      -29.921       16.259      -14.745       12.281       11.893       10.924      150.831      141.440      119.335        0.089        0.021       34.053        5.216        0.023      332.476        1.165      866.609
12/03/2021  04:29:00      -28.666       10.051      -11.784       11.017        8.036        9.736      121.375       64.582       94.793        0.067        0.014       30.377        6.168        0.041      332.337        0.934      866.615
12/03/2021  04:30:00       -6.530       26.564      -10.088       16.330       10.616        9.297      266.685      112.708       86.429        0.066        0.023       27.355        8.533        0.097      332.782        1.669      866.611
12/03/2021  04:31:00        6.169       16.869       -5.997       20.363       10.420        9.039      414.635      108.580       81.704        0.048        0.030       17.961        8.472        0.223      332.803        1.705      866.609
12/03/2021  04:32:00        8.977       11.902       -8.673       18.290       17.330       10.906      334.519      300.325      118.942        0.053        0.038       14.908        9.995        0.449      332.773        1.654      866.605
12/03/2021  04:33:00       -1.717       38.367       -3.082       16.169       26.866        9.310      261.423      721.771       86.685        0.128        0.053       38.406        9.613        0.063      332.856        1.792      866.607
12/03/2021  04:34:00       19.099       50.528       -2.585       17.854       14.991       11.133      318.772      224.732      123.955        0.180        0.033       54.018        8.729        0.026      332.851        1.784      866.595
12/03/2021  04:35:00       29.360       63.228      -10.043       23.588       19.426       14.474      556.415      377.381      209.487        0.305        0.057       69.713       11.349        0.027      332.855        1.792      866.590
12/03/2021  04:36:00       23.182       55.317       -6.673       20.102       17.115       11.293      404.081      292.933      127.532        0.223        0.041       59.979       10.420        0.030      332.893        1.852      866.588
12/03/2021  04:37:00       18.067       49.581       -1.840       13.447       23.155       12.937      180.828      536.170      167.372        0.184        0.044       52.771       12.832        0.059      332.867        1.809      866.586
12/03/2021  04:38:00       25.388       41.465       -7.679       21.012       22.477       13.003      441.492      505.225      169.076        0.177        0.056       48.619       10.335        0.045      332.844        1.773      866.591
12/03/2021  04:39:00       26.841       45.240       -3.558       17.694       15.765       13.558      313.086      248.541      183.828        0.176        0.037       52.603       11.692        0.049      332.833        1.755      866.591
12/03/2021  04:40:00       40.920       60.294       -6.520       20.356       15.677       14.152      414.347      245.776      200.289        0.311        0.043       72.868       14.809        0.041      332.876        1.824      866.589
12/03/2021  04:41:00       42.985       61.032       -8.475       19.001       18.263       10.462      361.049      333.542      109.443        0.322        0.040       74.650        7.286        0.010      332.925        1.905      866.597
12/03/2021  04:42:00       26.858       54.241      -10.562       20.986       15.270       12.642      440.399      233.165      159.827        0.230        0.042       60.526       13.277        0.048      332.941        1.933      866.604
12/03/2021  04:43:00       23.664       62.652       -6.733       16.588       18.885       10.654      275.157      356.650      113.508        0.264        0.037       66.972       10.003        0.022      333.020        2.063      866.608
12/03/2021  04:44:00       18.566       37.240       -6.004       21.587       14.846       14.786      466.011      220.401      218.622        0.134        0.045       41.612       12.424        0.089      332.743        1.604      866.612
12/03/2021  04:45:00      -14.771       24.077       -4.463       21.686        9.941       12.444      470.302       98.819      154.861        0.077        0.036       28.247        9.623        0.116      332.356        0.964      866.603
12/03/2021  04:46:00        6.286       35.082       -3.194       28.690       17.844       12.495      823.143      318.408      156.114        0.129        0.065       35.640        4.549        0.016      332.627        1.412      866.592
12/03/2021  04:47:00      -13.158       15.012       -3.579       13.495       11.651        9.305      182.111      135.754       86.580        0.041        0.020       19.962        7.513        0.142      332.572        1.323      866.586
12/03/2021  04:48:00       -9.139       17.547      -11.438       18.640       12.102       10.843      347.455      146.453      117.565        0.057        0.031       19.784        9.401        0.226      332.720        1.568      866.579
12/03/2021  04:49:00      -33.932       15.376      -20.546       15.549       11.538       14.341      241.784      133.130      205.655        0.120        0.029       37.253        7.948        0.046      332.316        0.899      866.566
12/03/2021  04:50:00      -53.006       15.792      -11.486       12.302       11.081        9.662      151.335      122.789       93.348        0.178        0.018       55.308        4.354        0.006      332.085        0.518      866.551
12/03/2021  04:51:00      -41.424       12.539      -15.629       16.827       10.592        9.830      283.145      112.180       96.630        0.130        0.025       43.280        4.739        0.012      332.345        0.948      866.555
12/03/2021  04:52:00       -2.317       14.607       -3.932       19.564       14.874        9.446      382.739      221.240       89.225        0.046        0.035       14.790        5.624        0.145      332.683        1.505      866.548
12/03/2021  04:53:00       41.625       43.997       -8.831        6.431        7.126        6.788       41.358       50.774       46.077        0.194        0.007       60.567        4.000        0.004      332.939        1.928      866.553
12/03/2021  04:54:00       52.937       44.590       -7.673       11.034        9.901        8.095      121.753       98.027       65.530        0.257        0.014       69.214        4.408        0.004      332.938        1.927      866.565
12/03/2021  04:55:00       19.159       29.560       -6.024       19.539       10.819        5.888      381.762      117.049       34.664        0.091        0.027       35.225        6.432        0.033      332.871        1.817      866.571
12/03/2021  04:56:00       20.347       25.843       -5.893        8.091        4.195        4.933       65.470       17.596       24.330        0.061        0.005       32.891        3.015        0.008      332.962        1.965      866.580
12/03/2021  04:57:00       10.941       23.048       -2.321       13.809        5.985        5.682      190.680       35.816       32.283        0.046        0.013       25.513        5.242        0.042      332.880        1.828      866.594
12/03/2021  04:58:00      -24.779        2.672      -11.413       20.656        8.836       10.589      426.668       78.078      112.125        0.068        0.031       24.923        8.466        0.115      332.454        1.128      866.597
12/03/2021  04:59:00      -51.815       12.811       -8.803       13.260       13.586       11.655      175.831      184.583      135.848        0.171        0.025       53.375        5.948        0.012      331.968        0.326      866.596
12/03/2021  05:00:00      -62.975       22.884       -9.107       17.944       13.236       11.975      321.994      175.186      143.410        0.261        0.032       67.004        9.702        0.021      332.029        0.426      866.598
12/03/2021  05:01:00      -43.045       25.594      -10.280       14.993        9.346        8.496      224.785       87.352       72.183        0.150        0.019       50.079        4.801        0.009      332.055        0.469      866.593
12/03/2021  05:02:00      -44.846       18.686      -15.292       13.130        7.504        7.373      172.384       56.310       54.356        0.144        0.014       48.583        5.429        0.012      332.158        0.638      866.595
12/03/2021  05:03:00      -44.610       19.644       -5.224       10.366        9.056       10.341      107.446       82.020      106.937        0.135        0.015       48.744        5.177        0.011      332.360        0.971      866.586
12/03/2021  05:04:00      -53.003       12.691       -6.359       16.750        9.584        8.857      280.555       91.857       78.449        0.173        0.023       54.502        4.407        0.007      332.130        0.592      866.585
12/03/2021  05:05:00      -50.701       21.755      -11.520        8.292        7.063        6.401       68.766       49.885       40.978        0.167        0.008       55.171        3.326        0.004      332.024        0.418      866.585
12/03/2021  05:06:00      -52.707       31.518      -14.407       14.469       11.990       12.847      209.344      143.751      165.053        0.225        0.026       61.412        8.948        0.021      332.162        0.643      866.597
12/03/2021  05:07:00      -62.879       36.616      -12.042       16.179        7.800        9.383      261.764       60.841       88.048        0.292        0.021       72.763        6.135        0.007      332.178        0.670      866.604
12/03/2021  05:08:00      -62.775       35.399      -11.272       21.040       13.012       10.131      442.688      169.305      102.642        0.302        0.036       72.068        8.697        0.015      332.079        0.506      866.603
12/03/2021  05:09:00      -50.668       38.657      -12.730       11.457       11.434       10.571      131.272      130.740      111.750        0.230        0.019       63.730        7.575        0.014      332.128        0.589      866.615
12/03/2021  05:10:00      -32.184       43.672       -7.281        9.522        5.490        6.465       90.661       30.137       41.801        0.158        0.008       54.250        3.612        0.004      332.669        1.483      866.619
12/03/2021  05:11:00      -25.991       45.147        7.468       16.175        8.649       13.428      261.627       74.802      180.306        0.164        0.026       52.094        7.711        0.022      332.731        1.584      866.622
12/03/2021  05:12:00      -23.548       51.411       -1.188       13.277       14.830       11.099      176.287      219.915      123.190        0.186        0.026       56.548       11.200        0.039      332.568        1.317      866.643
12/03/2021  05:13:00      -10.927       46.876       -2.740       11.586        9.084        7.087      134.231       82.525       50.220        0.130        0.013       48.133        1.997        0.002      332.587        1.345      866.655
12/03/2021  05:14:00      -14.712       35.283        1.046       11.494        7.690        5.481      132.114       59.130       30.046        0.084        0.011       38.228        5.106        0.018      332.609        1.383      866.675
12/03/2021  05:15:00        8.994       33.112       -9.647       17.533       14.619        8.748      307.389      213.729       76.525        0.093        0.030       34.312        9.820        0.082      332.756        1.626      866.692
12/03/2021  05:16:00       27.510       30.445      -12.076       14.145       18.906       15.142      200.083      357.452      229.282        0.131        0.039       41.033       10.682        0.068      332.897        1.858      866.702
12/03/2021  05:17:00       36.645       32.693       -8.456       13.080       17.847       12.825      171.099      318.507      164.477        0.157        0.033       49.109       13.103        0.071      332.939        1.928      866.716
12/03/2021  05:18:00       27.843       27.983      -10.192       13.611       14.030       11.385      185.250      196.829      129.629        0.109        0.026       39.475        9.081        0.053      332.931        1.916      866.725
12/03/2021  05:19:00       45.850       31.153       -7.747       10.832        6.410        7.836      117.339       41.082       61.402        0.168        0.011       55.433        4.188        0.006      332.943        1.936      866.721
12/03/2021  05:20:00       43.789       30.841       -8.762       13.551        9.959       10.657      183.628       99.182      113.566        0.167        0.020       53.560        8.776        0.027      333.053        2.116      866.719
12/03/2021  05:21:00       29.399       42.776      -10.192       15.492       12.706       12.138      240.009      161.453      147.330        0.167        0.027       51.905        9.139        0.031      333.091        2.181      866.720
12/03/2021  05:22:00       28.618       24.482       -5.615       14.745       10.475        9.838      217.429      109.729       96.791        0.094        0.021       37.661        6.529        0.030      333.046        2.104      866.731
12/03/2021  05:23:00       36.460       19.918       -4.881       14.506        9.380        6.011      210.422       87.983       36.131        0.104        0.017       41.546        3.540        0.007      333.035        2.087      866.745
12/03/2021  05:24:00       43.604       36.688       -5.987        7.328        9.246        6.961       53.697       85.482       48.461        0.174        0.009       56.986        5.465        0.009      333.089        2.175      866.746
12/03/2021  05:25:00       34.435       31.310       -5.719       10.753        8.300        6.281      115.636       68.889       39.454        0.121        0.011       46.541        4.903        0.011      332.958        1.960      866.736
12/03/2021  05:26:00       31.820        3.837       -4.627       13.219       13.229        7.289      174.736      175.004       53.133        0.073        0.020       32.050        2.579        0.006      332.856        1.792      866.735
12/03/2021  05:27:00       28.907        7.402       -0.576       12.174        9.005        6.743      148.207       81.092       45.471        0.058        0.014       29.839        5.887        0.039      332.921        1.899      866.739
12/03/2021  05:28:00       15.703        1.759       -1.543        7.324        9.060        5.403       53.644       82.087       29.193        0.021        0.008       15.801        1.889        0.014      332.901        1.866      866.727
12/03/2021  05:29:00      -14.360       -8.742       -5.890       12.930        7.283        8.810      167.189       53.043       77.608        0.031        0.015       16.812        3.793        0.051      332.785        1.674      866.719
12/03/2021  05:30:00       -6.299        1.348       -7.962        7.798        5.754        6.490       60.807       33.103       42.117        0.012        0.007        6.442        4.121        0.409      332.753        1.621      866.724
12/03/2021  05:31:00      -40.312       11.293      -11.517       11.458        8.801        7.274      131.278       77.460       52.916        0.107        0.013       41.864        7.012        0.028      332.894        1.854      866.711
12/03/2021  05:32:00      -38.190       19.066      -11.448       10.393       11.050        8.503      108.017      122.094       72.298        0.113        0.015       42.685        4.491        0.011      332.713        1.557      866.725
12/03/2021  05:33:00      -15.538       10.901       -4.421       16.231       11.527        5.694      263.440      132.878       32.421        0.040        0.021       18.980        2.719        0.021      332.405        1.046      866.742
12/03/2021  05:34:00      -21.584       15.507        5.020       10.944       10.149        7.971      119.760      102.997       63.530        0.051        0.014       26.577        6.194        0.054      332.840        1.766      866.755
12/03/2021  05:35:00       -2.324       -7.219      -13.535       11.265       20.659       13.140      126.894      426.774      172.658        0.048        0.036        7.584       13.025        2.949      332.729        1.582      866.755
12/03/2021  05:36:00      -15.445       -4.602       -4.345       10.996       21.734        7.931      120.909      472.384       62.899        0.047        0.033       16.116        5.595        0.121      332.696        1.528      866.754
12/03/2021  05:37:00      -13.600        1.041       -6.071        7.530        5.277        8.237       56.698       27.849       67.856        0.019        0.008       13.639        4.257        0.097      332.622        1.405      866.754
12/03/2021  05:38:00      -32.464       21.051       -5.760       12.420       15.295       10.958      154.255      233.939      120.085        0.102        0.025       38.691        9.523        0.061      332.459        1.135      866.745
12/03/2021  05:39:00      -46.875       -3.622       -9.302       39.228       23.830       11.995     1538.862      567.872      143.885        0.227        0.113       47.015        8.587        0.033      332.442        1.106      866.745
12/03/2021  05:40:00      -66.063      -31.344       -7.799       54.250       39.287       22.615     2943.031     1543.454      511.451        0.520        0.250       73.121       26.397        0.130      332.558        1.300      866.745
12/03/2021  05:41:00      -25.985      -14.545       -1.920       46.673       28.462       18.301     2178.360      810.111      334.917        0.211        0.166       29.779       20.881        0.492      332.480        1.170      866.752
12/03/2021  05:42:00      -59.246       -8.027       -6.004       48.244       25.331       19.661     2327.525      641.674      386.557        0.348        0.168       59.788       23.505        0.155      332.502        1.207      866.757
12/03/2021  05:43:00      -20.385        0.447       -5.216       36.359       25.722       19.009     1322.008      661.632      361.334        0.139        0.117       20.390       13.969        0.469      332.420        1.070      866.755
12/03/2021  05:44:00      -72.481       11.423       -0.326       45.753       35.163       21.971     2093.372     1236.466      482.738        0.460        0.191       73.376       17.832        0.059      332.164        0.649      866.752
12/03/2021  05:45:00      -75.220       16.573        0.943       34.674       35.569       26.018     1202.304     1265.167      676.929        0.454        0.157       77.024       19.258        0.063      332.047        0.455      866.762
12/03/2021  05:46:00      -53.095       -2.835        6.114       30.737       29.638       22.642      944.762      878.430      512.678        0.260        0.117       53.171       14.550        0.075      332.169        0.656      866.787
12/03/2021  05:47:00      -41.049        2.351       -4.949       33.943       22.210       16.737     1152.127      493.266      280.119        0.182        0.096       41.116        3.988        0.009      332.225        0.749      866.796
12/03/2021  05:48:00      -64.126       20.606        1.678       31.246       26.162       13.890      976.286      684.455      192.924        0.320        0.093       67.356       11.569        0.029      332.073        0.498      866.803
12/03/2021  05:49:00      -67.725       24.080        1.657       44.686       28.036       19.278     1996.849      786.035      371.653        0.416        0.158       71.879       22.282        0.096      332.066        0.485      866.803
12/03/2021  05:50:00     -106.203       22.015        0.394       33.244       29.049       21.212     1105.169      843.822      449.948        0.708        0.120      108.461       19.369        0.032      332.135        0.599      866.808
12/03/2021  05:51:00      -99.069       18.334       -3.955       31.941       30.712       18.930     1020.246      943.221      358.330        0.624        0.116      100.751       18.074        0.032      332.095        0.535      866.815
12/03/2021  05:52:00      -79.166       10.016       -7.945       31.474       26.848       16.421      990.606      720.810      269.635        0.421        0.099       79.797       13.267        0.028      332.143        0.614      866.827
12/03/2021  05:53:00       -6.128       -0.079       -6.462       22.823       15.536       16.838      520.904      241.379      283.524        0.056        0.052        6.128        7.804        1.622      332.067        0.487      866.831
12/03/2021  05:54:00      -58.104       20.974      -15.425       20.916       14.156       12.620      437.458      200.386      159.253        0.243        0.040       61.773        5.860        0.009      332.132        0.595      866.844
12/03/2021  05:55:00      -58.204       24.069      -10.328       18.779       15.752       11.749      352.635      248.111      138.042        0.241        0.037       62.984        5.839        0.009      332.174        0.663      866.851
12/03/2021  05:56:00      -59.489       34.091      -12.458       21.940       21.986       13.540      481.381      483.390      183.328        0.300        0.057       68.565        7.694        0.013      332.221        0.742      866.857
12/03/2021  05:57:00      -34.225       12.631      -11.332       34.680       21.293       13.319     1202.687      453.413      177.389        0.165        0.092       36.482        3.815        0.011      332.202        0.711      866.859
12/03/2021  05:58:00      -21.341       14.673       -9.424       14.446       17.011        9.209      208.701      289.366       84.812        0.067        0.029       25.899        6.299        0.059      332.168        0.655      866.855
12/03/2021  05:59:00      -41.252       17.322      -10.482       18.084       14.205       11.265      327.020      201.794      126.890        0.138        0.033       44.741        9.254        0.043      332.137        0.603      866.850
12/03/2021  06:00:00      -19.024       -3.676      -15.794       16.680       12.892       12.280      278.218      166.209      150.791        0.061        0.030       19.376        9.658        0.248      332.155        0.633      866.849
12/03/2021  06:01:00      -30.684       14.287       -9.672       22.563       18.937       13.120      509.100      358.613      172.122        0.114        0.052       33.847       11.950        0.125      332.050        0.461      866.847
12/03/2021  06:02:00      -43.880       11.569      -11.173       23.313       21.252       12.561      543.485      451.658      157.775        0.167        0.058       45.379       10.858        0.057      331.985        0.354      866.843
12/03/2021  06:03:00      -34.781        7.933       -7.422       29.349       17.593       10.880      861.339      309.525      118.384        0.131        0.064       35.674        6.358        0.032      331.945        0.288      866.836
12/03/2021  06:04:00      -13.766       -0.595       -7.301       22.967       20.174       14.711      527.477      406.981      216.407        0.070        0.058       13.778       16.964        1.516      331.980        0.345      866.832
12/03/2021  06:05:00      -14.251       -8.913      -13.345       18.590       14.655       15.539      345.583      214.778      241.473        0.063        0.040       16.808       10.810        0.414      331.965        0.320      866.832
12/03/2021  06:06:00       -1.633        8.347        0.241        9.374       11.779       13.437       87.868      138.756      180.559        0.024        0.020        8.506        8.621        1.027      331.825        0.091      866.830
12/03/2021  06:07:00      -14.446        6.491      -10.095       14.535       13.217       10.907      211.278      174.687      118.969        0.043        0.025       15.837        6.306        0.159      331.819        0.081      866.823
12/03/2021  06:08:00      -19.942       -4.849       -6.712       25.450       13.939       17.480      647.685      194.285      305.567        0.081        0.057       20.523       15.199        0.548      331.802        0.052      866.814
12/03/2021  06:09:00      -22.618       10.934      -12.489       18.521       20.492       18.127      343.029      419.914      328.594        0.094        0.055       25.122       12.908        0.264      331.825        0.091      866.798
12/03/2021  06:10:00      -20.985       -0.897      -14.739       23.753       18.287       19.763      564.209      334.414      390.571        0.097        0.064       21.004       17.755        0.715      331.843        0.121      866.793
12/03/2021  06:11:00      -40.250       11.901       -4.771       22.409       19.937       14.709      502.183      397.503      216.340        0.145        0.056       41.973       10.580        0.064      331.914        0.236      866.785
12/03/2021  06:12:00      -67.746       23.658      -22.794       20.378       19.081       15.872      415.265      364.077      251.914        0.335        0.052       71.757        9.117        0.016      331.880        0.181      866.786
12/03/2021  06:13:00      -77.746       26.789      -19.489       19.683       13.031       15.311      387.432      169.816      234.430        0.397        0.040       82.233        8.749        0.011      331.857        0.144      866.776
12/03/2021  06:14:00      -86.765       29.587      -14.454       21.314       18.860       15.006      454.266      355.697      225.175        0.482        0.052       91.671        9.978        0.012      331.834        0.105      866.771
12/03/2021  06:15:00      -50.061        7.632       -8.210       27.675       31.774       21.476      765.911     1009.614      461.237        0.243        0.112       50.639       20.506        0.164      331.931        0.264      866.768
12/03/2021  06:16:00      -29.331        4.653      -14.024       38.262       24.969       17.192     1463.969      623.433      295.581        0.173        0.119       29.698       12.856        0.187      331.964        0.319      866.780
12/03/2021  06:17:00      -70.987       13.329      -12.846       46.125       24.041       21.257     2127.512      577.976      451.871        0.427        0.158       72.227       23.536        0.106      331.905        0.223      866.789
12/03/2021  06:18:00      -99.515       30.571      -12.830       33.208       21.807       17.005     1102.739      475.542      289.160        0.643        0.093      104.105        6.470        0.004      331.973        0.333      866.793
12/03/2021  06:19:00      -29.817        8.038       -8.193       38.331       19.442       16.239     1469.274      377.998      263.698        0.157        0.106       30.881       13.156        0.181      331.999        0.376      866.784
12/03/2021  06:20:00      -60.897       17.642       -7.734       28.115       17.120       16.719      790.426      293.096      279.530        0.272        0.068       63.401       16.418        0.067      332.016        0.405      866.776
12/03/2021  06:21:00      -68.606       16.723       -3.938       18.541       21.910       15.063      343.782      480.063      226.908        0.303        0.053       70.615       10.777        0.023      331.997        0.373      866.768
12/03/2021  06:22:00      -85.247       23.671      -10.379       32.650       28.485       22.018     1066.015      811.407      484.795        0.515        0.118       88.473       19.649        0.049      331.994        0.368      866.772
12/03/2021  06:23:00      -97.328       32.981      -10.609       20.799       14.185       14.790      432.608      201.225      218.735        0.576        0.043      102.764        4.562        0.002      331.984        0.353      866.777
12/03/2021  06:24:00     -104.289       28.490      -10.208       23.052       24.942       18.040      531.380      622.088      325.433        0.664        0.074      108.111       10.824        0.010      331.906        0.225      866.775
12/03/2021  06:25:00      -91.640       48.947       -6.917       28.198       17.882       19.014      795.121      319.783      361.529        0.616        0.074      103.893       16.826        0.026      331.792        0.037      866.776
12/03/2021  06:26:00      -78.753       42.287       -4.601       22.420       16.418       15.767      502.676      269.548      248.586        0.452        0.051       89.388       13.297        0.022      331.739       -0.051      866.772
12/03/2021  06:27:00      -67.308       27.215       -2.154       23.369       25.037       15.936      546.116      626.851      253.970        0.335        0.071       72.602       10.138        0.019      331.848        0.129      866.775
12/03/2021  06:28:00      -57.558       28.989       -8.169       21.824       18.919       14.263      476.278      357.912      203.446        0.263        0.052       64.446       13.109        0.041      331.856        0.141      866.779
12/03/2021  06:29:00      -63.842       11.342       -9.059       20.852       24.110       15.413      434.812      581.288      237.549        0.277        0.063       64.842       12.238        0.036      331.897        0.209      866.773
12/03/2021  06:30:00      -39.012        6.349        0.086       40.683       23.736       16.156     1655.084      563.392      261.027        0.202        0.124       39.525       16.135        0.167      331.996        0.372      866.781
12/03/2021  06:31:00      -75.022       15.067      -13.384       21.271       16.284       14.328      452.436      265.154      205.283        0.348        0.046       76.520        4.608        0.004      332.013        0.400      866.784
12/03/2021  06:32:00      -62.896        4.149      -10.120       25.667       19.207       13.215      658.810      368.893      174.630        0.264        0.060       63.033        6.999        0.012      332.019        0.409      866.779
12/03/2021  06:33:00      -23.976      -14.004       -4.180       36.233       21.763       18.464     1312.856      473.621      340.909        0.146        0.106       27.766       20.834        0.563      332.019        0.410      866.787
12/03/2021  06:34:00      -10.314       -4.169        6.808       29.387       17.612       14.657      863.624      310.168      214.819        0.078        0.069       11.125        9.021        0.657      332.024        0.417      866.785
12/03/2021  06:35:00      -20.258       -0.948       -0.991       32.908       20.493       11.021     1082.928      419.945      121.456        0.102        0.081       20.280       11.590        0.327      332.052        0.463      866.784
12/03/2021  06:36:00      -35.125       10.485       -6.908       36.677       12.432       10.022     1345.197      154.553      100.446        0.150        0.080       36.656        6.441        0.031      332.005        0.387      866.784
12/03/2021  06:37:00      -69.356        1.887      -11.409       30.062       32.761       18.883      903.750     1073.289      356.558        0.364        0.117       69.382       14.833        0.046      331.998        0.374      866.781
12/03/2021  06:38:00     -101.305        9.184       -6.841       29.700       23.223       17.333      882.100      539.293      300.448        0.606        0.086      101.720       17.437        0.029      331.998        0.374      866.771
12/03/2021  06:39:00      -47.790        5.791       -1.360       49.923       28.746       24.421     2492.264      826.358      596.369        0.312        0.196       48.140       27.815        0.334      332.032        0.430      866.764
12/03/2021  06:40:00      -37.141       -3.347       -5.288       33.340       23.730       16.400     1111.531      563.098      268.964        0.168        0.097       37.292        8.841        0.056      331.990        0.362      866.773
12/03/2021  06:41:00      -29.136        1.320       -9.089       32.128       22.686       18.180     1032.182      514.640      330.507        0.140        0.094       29.166       14.240        0.238      331.991        0.364      866.784
12/03/2021  06:42:00      -52.450       11.868      -10.930       33.453       29.156       14.179     1119.090      850.092      201.041        0.259        0.109       53.776        4.773        0.008      332.022        0.415      866.790
12/03/2021  06:43:00     -113.005        2.866       -3.791       44.381       40.850       22.732     1969.679     1668.720      516.745        0.847        0.208      113.041       16.135        0.020      331.964        0.319      866.797
12/03/2021  06:44:00     -103.717       25.133       -4.016       64.360       27.305       26.918     4142.234      745.571      724.599        0.851        0.281      106.719       27.749        0.068      331.996        0.372      866.804
12/03/2021  06:45:00      -84.709       17.595        0.184       43.399       27.302       19.476     1883.510      745.414      379.308        0.525        0.150       86.517       19.947        0.053      331.937        0.276      866.802
12/03/2021  06:46:00      -69.539        1.545        2.141       44.997       26.956       25.039     2024.768      726.649      626.944        0.411        0.169       69.556       19.976        0.082      332.034        0.436      866.806
12/03/2021  06:47:00      -74.281        2.568        0.972       45.124       26.020       21.644     2036.180      677.056      468.458        0.435        0.159       74.325       21.218        0.081      332.158        0.637      866.806
12/03/2021  06:48:00      -83.498        5.631        1.326       49.683       26.879       24.212     2468.405      722.473      586.220        0.539        0.189       83.688       17.014        0.041      332.173        0.664      866.800
12/03/2021  06:49:00      -82.527       20.269       -1.954       40.417       27.318       17.966     1633.516      746.278      322.760        0.496        0.135       84.980       16.762        0.039      332.055        0.468      866.799
12/03/2021  06:50:00      -69.871       14.189       -2.323       47.495       24.741       19.000     2255.809      612.099      360.989        0.416        0.161       71.297        8.709        0.015      332.064        0.482      866.803
12/03/2021  06:51:00      -82.357        5.364       -9.530       35.009       24.063       16.982     1225.638      579.040      288.401        0.450        0.105       82.532       13.405        0.026      332.121        0.576      866.809
12/03/2021  06:52:00      -64.718       22.740      -10.972       43.391       19.567       19.032     1882.774      382.886      362.203        0.373        0.131       68.597       17.018        0.062      332.046        0.454      866.831
12/03/2021  06:53:00      -74.357       12.668       -6.551       25.664       22.130       15.544      658.622      489.723      241.617        0.356        0.069       75.429       12.874        0.029      332.053        0.466      866.837
12/03/2021  06:54:00      -64.671       24.688       -6.302       19.958       19.238       16.672      398.322      370.083      277.962        0.294        0.052       69.223       12.692        0.034      331.989        0.361      866.852
12/03/2021  06:55:00      -39.276       24.758       -7.634       14.651       16.740       11.796      214.650      280.241      139.154        0.142        0.032       46.428        4.215        0.008      331.889        0.196      866.865
12/03/2021  06:56:00       -9.468       13.306      -13.415        8.370        7.745        6.980       70.049       59.985       48.722        0.031        0.009       16.330        5.196        0.101      331.865        0.156      866.865
12/03/2021  06:57:00       -5.370        9.004      -12.318        7.637        8.375        7.001       58.321       70.137       49.013        0.022        0.009       10.483        5.965        0.324      331.935        0.272      866.875
12/03/2021  06:58:00       -6.457        9.623       -3.602        5.275        5.457        6.255       27.824       29.773       39.119        0.012        0.005       11.589        2.779        0.057      332.034        0.433      866.876
12/03/2021  06:59:00        3.892       27.018       -6.775        8.939       11.157        7.843       79.913      124.483       61.509        0.053        0.013       27.297        3.913        0.021      332.006        0.389      866.877
12/03/2021  07:00:00       13.806       21.834       -3.027       10.819       12.735        6.569      117.059      162.178       43.145        0.050        0.016       25.833        5.910        0.052      332.009        0.393      866.880
12/03/2021  07:01:00       45.876       34.621       -9.361       11.372        9.679        9.771      129.327       93.686       95.468        0.185        0.016       57.474        6.219        0.012      332.081        0.512      866.883
12/03/2021  07:02:00       24.499       34.531      -12.111       17.442        8.867       10.236      304.231       78.615      104.776        0.121        0.024       42.339        5.017        0.014      332.000        0.378      866.878
12/03/2021  07:03:00        2.294       35.890      -10.629       12.790       14.432       10.336      163.576      208.293      106.841        0.094        0.024       35.964        9.171        0.065      332.107        0.553      866.874
12/03/2021  07:04:00       22.583       63.969      -10.048       12.236       14.937       12.237      149.726      223.128      149.742        0.261        0.026       67.838        6.134        0.008      332.323        0.911      866.877
12/03/2021  07:05:00       27.052       58.162      -11.949       16.060       22.519       12.139      257.917      507.115      147.354        0.258        0.046       64.145        8.899        0.019      332.276        0.833      866.896
12/03/2021  07:06:00       32.001       36.702       -8.646       15.763       17.520       11.195      248.485      306.947      125.332        0.156        0.034       48.694        7.564        0.024      332.237        0.769      866.903
12/03/2021  07:07:00       44.764       30.487       -7.394       13.300       10.196       10.820      176.897      103.968      117.080        0.169        0.020       54.160        4.851        0.008      332.185        0.682      866.907
12/03/2021  07:08:00       50.217       31.755      -11.305       18.367       18.420       11.964      337.339      339.291      143.125        0.224        0.041       59.415        6.774        0.013      332.121        0.577      866.913
12/03/2021  07:09:00       62.223       33.336       -8.457       17.502       17.837       13.124      306.303      318.165      172.250        0.293        0.040       70.590       10.924        0.024      332.057        0.472      866.916
12/03/2021  07:10:00       64.124       30.682       -9.094       16.250       15.931       15.236      264.072      253.792      232.126        0.294        0.037       71.086       12.587        0.031      332.031        0.429      866.926
12/03/2021  07:11:00       64.388       44.060      -16.548       11.858       10.175       11.934      140.620      103.522      142.413        0.337        0.019       78.020        5.815        0.006      332.015        0.405      866.939
12/03/2021  07:12:00       54.943       35.155      -14.238       19.042       11.373       10.428      362.584      129.348      108.738        0.253        0.030       65.227        5.333        0.007      332.006        0.389      866.951
12/03/2021  07:13:00       46.472       51.207      -11.117       21.307       26.034       12.771      453.997      677.778      163.102        0.310        0.065       69.151        8.734        0.016      332.099        0.542      866.969
12/03/2021  07:14:00       39.034       35.774      -10.591       27.160       21.668       13.987      737.656      469.518      195.634        0.216        0.070       52.948       11.426        0.047      332.070        0.493      866.985
12/03/2021  07:15:00       61.487       37.638       -6.709       31.696       20.140       12.955     1004.631      405.617      167.819        0.341        0.079       72.092       13.008        0.033      332.113        0.565      866.999
12/03/2021  07:16:00       40.111       22.142       -8.896       20.349       16.072       11.975      414.101      258.318      143.393        0.150        0.041       45.816        7.439        0.026      332.100        0.541      867.017
12/03/2021  07:17:00       52.745       27.318       -9.321       18.554       10.353       13.118      344.255      107.185      172.075        0.212        0.031       59.399        6.681        0.013      332.125        0.583      867.014
12/03/2021  07:18:00       44.055       16.868       -8.774       12.127       14.643        8.602      147.064      214.430       73.993        0.137        0.022       47.174        1.565        0.001      332.155        0.631      867.027
12/03/2021  07:19:00       26.127       18.078       -7.100       13.137       13.859       10.079      172.589      192.072      101.595        0.076        0.023       31.772        3.074        0.009      332.172        0.661      867.029
12/03/2021  07:20:00       15.142       21.881        2.268       18.844       16.333       10.908      355.081      266.767      118.994        0.073        0.037       26.609        9.760        0.135      332.163        0.644      867.024
12/03/2021  07:21:00       10.874        5.488       -3.378       15.871       20.479       17.524      251.880      419.380      307.100        0.057        0.049       12.181       16.016        1.729      332.272        0.826      867.024
12/03/2021  07:22:00       10.978       -1.064       -2.867       11.322        5.486        6.297      128.185       30.092       39.648        0.016        0.010       11.029        2.592        0.055      332.312        0.893      867.036
12/03/2021  07:23:00       31.834        6.555       -5.714       21.118        8.234        8.868      445.969       67.793       78.646        0.084        0.030       32.502       11.581        0.127      332.311        0.891      867.061
12/03/2021  07:24:00       19.831       -6.605       -6.699       16.423       19.874       12.334      269.709      394.962      152.117        0.065        0.041       20.902       11.109        0.282      332.311        0.889      867.076
12/03/2021  07:25:00       42.883      -18.393       -7.586       14.580       14.132       13.207      212.563      199.715      174.433        0.141        0.029       46.661       10.803        0.054      332.245        0.782      867.094
12/03/2021  07:26:00       33.566      -11.270       -2.819       21.609       10.767       12.629      466.964      115.924      159.502        0.100        0.037       35.407       13.843        0.153      332.261        0.810      867.105
12/03/2021  07:27:00       10.568      -17.156       -6.358       17.654       13.793       13.886      311.669      190.250      192.819        0.057        0.035       20.149       12.231        0.368      332.351        0.958      867.114
12/03/2021  07:28:00       24.867       -8.729      -10.183       16.615       19.637       16.492      276.073      385.627      271.986        0.087        0.047       26.355       11.781        0.200      332.312        0.891      867.120
12/03/2021  07:29:00       36.182        7.754      -15.859       18.965       21.120       14.861      359.673      446.053      220.838        0.132        0.051       37.004        4.679        0.016      332.271        0.825      867.121
12/03/2021  07:30:00      -27.979       -8.101      -10.482       16.456       11.035        9.963      270.796      121.761       99.263        0.072        0.025       29.128        7.643        0.069      332.268        0.819      867.122
12/03/2021  07:31:00       -9.164       -4.227       -1.009       12.766       11.262       13.188      162.968      126.828      173.913        0.028        0.023       10.092        6.884        0.465      332.351        0.956      867.115
12/03/2021  07:32:00        7.973       -9.854       -6.351       21.980       17.614       13.889      483.125      310.252      192.892        0.059        0.049       12.675        8.757        0.477      332.376        0.998      867.115
12/03/2021  07:33:00       58.838      -41.726      -16.550       24.913       24.519       20.822      620.653      601.178      433.575        0.357        0.083       72.132       17.863        0.061      332.405        1.046      867.107
12/03/2021  07:34:00       70.673      -63.436      -26.169       26.514       30.824       18.305      702.987      950.093      335.071        0.585        0.099       94.967       17.955        0.036      332.452        1.123      867.105
12/03/2021  07:35:00       75.476      -74.218      -29.807       28.978       29.051       18.313      839.739      843.981      335.362        0.706        0.101      105.853       12.237        0.013      332.482        1.172      867.109
12/03/2021  07:36:00       -1.871      -30.328      -10.968       40.393       22.879       17.775     1631.588      523.439      315.966        0.176        0.124       30.385       10.647        0.123      332.410        1.054      867.128
12/03/2021  07:37:00      -10.433       -2.220       -6.952       34.140       11.832       14.168     1165.541      139.997      200.729        0.083        0.075       10.667       14.429        1.830      332.370        0.988      867.146
12/03/2021  07:38:00      -22.090       -1.999       -9.360       15.884       19.541       12.367      252.287      381.844      152.934        0.068        0.039       22.180        6.457        0.085      332.408        1.051      867.152
12/03/2021  07:39:00      -27.298      -12.362       -6.779        9.469       14.674       14.907       89.653      215.324      222.216        0.074        0.026       29.966        6.258        0.044      332.420        1.071      867.161
12/03/2021  07:40:00      -23.330       -6.151        0.219       11.940       12.656        8.472      142.564      160.185       71.780        0.048        0.019       24.127        7.004        0.084      332.458        1.134      867.165
12/03/2021  07:41:00      -31.885      -16.938        5.852       11.440       17.614       19.490      130.866      310.243      379.876        0.108        0.041       36.105        9.795        0.074      332.609        1.384      867.159
12/03/2021  07:42:00      -16.205      -30.425       -0.190       17.411       14.528       17.152      303.135      211.061      294.204        0.100        0.040       34.472        8.258        0.057      332.659        1.466      867.163
12/03/2021  07:43:00        2.925      -28.365      -21.291       13.978       12.638        8.377      195.376      159.709       70.176        0.085        0.021       28.515        4.414        0.024      332.576        1.329      867.166
12/03/2021  07:44:00       -6.246        7.331       -2.127        9.336       12.538        8.412       87.170      157.204       70.761        0.021        0.016        9.631        5.563        0.334      332.585        1.344      867.154
12/03/2021  07:45:00       -1.524        2.110       -3.241        9.033        9.640        7.638       81.599       92.937       58.333        0.013        0.012        2.603        3.970        2.326      332.507        1.213      867.155
12/03/2021  07:46:00      -10.011      -12.736      -12.813       14.459       12.725       14.666      209.068      161.923      215.094        0.051        0.029       16.200        9.047        0.312      332.551        1.288      867.153
12/03/2021  07:47:00      -23.062        1.398       -5.297       15.897        8.909        8.016      252.730       79.368       64.259        0.048        0.020       23.105        5.507        0.057      332.477        1.166      867.142
12/03/2021  07:48:00      -21.273       12.245       -4.802        7.963        9.365        6.647       63.413       87.703       44.188        0.041        0.010       24.546        3.497        0.020      332.485        1.177      867.141
12/03/2021  07:49:00      -18.342       31.773       -6.624        9.304        6.800        5.582       86.566       46.238       31.157        0.078        0.008       36.688        2.223        0.004      332.444        1.113      867.147
12/03/2021  07:50:00      -14.328       34.900       -8.996       12.658       11.183       11.169      160.216      125.053      124.738        0.096        0.021       37.727        8.879        0.055      332.451        1.122      867.141
12/03/2021  07:51:00        4.158       16.066       -1.365       23.138       10.138       12.235      535.357      102.780      149.701        0.053        0.039       16.596       10.237        0.381      332.471        1.155      867.149
12/03/2021  07:52:00        4.675       16.485       -4.913        8.680       10.733        8.173       75.347      115.206       66.805        0.029        0.013       17.135        3.900        0.052      332.490        1.187      867.159
12/03/2021  07:53:00       18.997       23.305       -2.583       11.467        9.227       10.262      131.489       85.130      105.304        0.062        0.016       30.067        6.549        0.047      332.461        1.137      867.168
12/03/2021  07:54:00       13.630       16.474       -1.125       10.837        8.462        7.898      117.449       71.611       62.378        0.035        0.013       21.381        4.198        0.039      332.556        1.295      867.186
12/03/2021  07:55:00       -0.469        5.957       -7.325        9.694        7.462        4.460       93.982       55.677       19.894        0.013        0.008        5.975        3.746        0.393      332.580        1.335      867.193
12/03/2021  07:56:00        1.724        2.425       -4.689        4.091        4.574        5.389       16.733       20.918       29.041        0.005        0.003        2.975        3.434        1.332      332.649        1.449      867.198
12/03/2021  07:57:00      -21.259        2.615       -5.516       25.945        9.348        9.743      673.130       87.384       94.929        0.067        0.043       21.420       13.064        0.372      332.630        1.418      867.207
12/03/2021  07:58:00      -36.681        8.728      -12.257       11.629        9.662        8.513      135.236       93.349       72.467        0.094        0.015       37.705        7.407        0.039      332.553        1.291      867.217
12/03/2021  07:59:00      -34.247        3.921       -4.292       18.103       13.445       10.107      327.731      180.775      102.155        0.091        0.031       34.471        8.409        0.060      332.644        1.442      867.232
12/03/2021  08:00:00      -20.358       -4.835        0.392       21.760       14.000       10.348      473.519      196.007      107.083        0.061        0.039       20.924        7.966        0.145      332.787        1.678      867.232
12/03/2021  08:01:00      -37.493       15.500       -5.628       19.988       15.469       12.609      399.511      239.283      158.992        0.124        0.040       40.571        8.309        0.042      332.720        1.567      867.238
12/03/2021  08:02:00      -55.773       28.149       -6.910       25.877       25.991       14.507      669.621      675.551      210.463        0.275        0.078       62.474        9.491        0.023      332.590        1.353      867.234
12/03/2021  08:03:00      -58.456       22.358       -7.439       18.804       14.848       12.185      353.601      220.464      148.473        0.235        0.036       62.586        9.357        0.022      332.651        1.455      867.229
12/03/2021  08:04:00      -48.564       19.001       -9.635       18.632       18.841       15.097      347.163      354.969      227.907        0.187        0.047       52.149        7.531        0.021      332.593        1.358      867.228
12/03/2021  08:05:00      -56.921       16.605       -2.388       21.896       20.298       14.033      479.441      412.009      196.911        0.230        0.054       59.294        9.876        0.028      332.668        1.480      867.226
12/03/2021  08:06:00      -37.350       17.206       -7.339       28.498       16.422       12.961      812.160      269.667      167.995        0.150        0.062       41.123        8.227        0.040      332.666        1.478      867.230
12/03/2021  08:07:00      -38.728        4.253       -3.697       34.498       22.097       20.530     1190.128      488.292      421.469        0.182        0.105       38.961       19.776        0.258      332.734        1.590      867.237
12/03/2021  08:08:00      -19.510       11.978       -1.668       30.246       25.884       19.764      914.841      669.960      390.608        0.125        0.099       22.894        9.964        0.189      332.761        1.634      867.240
12/03/2021  08:09:00      -71.410       21.957      -11.247       16.342       22.876       16.487      267.051      523.299      271.837        0.338        0.053       74.709       10.441        0.020      332.720        1.567      867.241
12/03/2021  08:10:00      -56.464       32.772      -15.112       22.039       22.991       12.641      485.697      528.608      159.791        0.283        0.059       65.286        5.098        0.006      332.726        1.578      867.239
12/03/2021  08:11:00      -42.364       26.765       -3.438       14.682       14.984       11.543      215.564      224.525      133.244        0.155        0.029       50.110        9.072        0.033      332.782        1.669      867.234
12/03/2021  08:12:00      -65.937       24.313      -14.216       23.347       10.448       12.505      545.097      109.163      156.371        0.298        0.041       70.277       11.494        0.027      332.832        1.754      867.230
12/03/2021  08:13:00      -36.706       12.615       -5.508       38.800       14.271       14.384     1505.453      203.670      206.897        0.173        0.096       38.813       17.070        0.193      332.925        1.906      867.223
12/03/2021  08:14:00      -60.596       27.375       -6.094       25.673       20.093       16.304      659.116      403.738      265.824        0.289        0.066       66.492       12.394        0.035      332.918        1.895      867.228
12/03/2021  08:15:00      -46.744       26.633       -8.049       16.524       18.443       10.421      273.057      340.150      108.600        0.184        0.036       53.799        2.068        0.001      332.973        1.984      867.240
12/03/2021  08:16:00      -38.876       17.880       -8.810       15.878       15.984       11.037      252.111      255.492      121.825        0.127        0.031       42.791        9.562        0.050      333.029        2.077      867.251
12/03/2021  08:17:00      -42.098       16.145      -17.702       14.879       14.430        9.134      221.380      208.217       83.429        0.143        0.026       45.088        5.874        0.017      333.016        2.056      867.267
12/03/2021  08:18:00      -40.306        6.150      -13.421       14.887       11.362       12.487      221.616      129.105      155.918        0.117        0.025       40.773        9.830        0.058      333.078        2.158      867.277
12/03/2021  08:19:00      -29.498       11.899      -10.009        9.970        9.900        8.764       99.410       98.017       76.808        0.069        0.014       31.808        4.199        0.017      333.117        2.223      867.287
12/03/2021  08:20:00      -38.391       17.785       -7.074       17.564       11.979       13.126      308.478      143.493      172.288        0.123        0.031       42.311       12.075        0.081      333.123        2.233      867.294
12/03/2021  08:21:00      -29.191       13.297       -0.658       19.101       10.854       10.835      364.850      117.809      117.398        0.081        0.030       32.077        9.800        0.093      333.243        2.430      867.296
12/03/2021  08:22:00       -7.150       -1.554       -3.428       20.218        9.270        8.159      408.767       85.926       66.572        0.031        0.028        7.317        5.132        0.492      333.393        2.679      867.290
12/03/2021  08:23:00       -3.158       -3.910       -0.718       10.816        9.788        6.945      116.980       95.814       48.226        0.014        0.013        5.026        5.488        1.193      333.618        3.052      867.290
12/03/2021  08:24:00       -7.099        6.340       -5.992        8.937        8.092        8.891       79.873       65.480       79.051        0.018        0.011        9.518        4.470        0.221      333.458        2.787      867.281
12/03/2021  08:25:00      -15.682       -5.660       -9.239       13.924        9.853       10.195      193.883       97.079      103.943        0.038        0.020       16.672        4.614        0.077      333.556        2.949      867.277
12/03/2021  08:26:00      -16.602       -0.979       -5.354       17.824       10.655        7.400      317.691      113.523       54.758        0.040        0.024       16.631        4.536        0.074      333.583        2.993      867.273
12/03/2021  08:27:00       -6.361       -3.305       -6.908        9.321        8.541        8.186       86.872       72.948       67.012        0.016        0.011        7.168        5.748        0.643      333.920        3.551      867.268
12/03/2021  08:28:00      -12.132       -1.558       -7.221       11.930        7.856       11.039      142.315       61.711      121.852        0.026        0.016       12.231        9.954        0.662      333.793        3.342      867.262
12/03/2021  08:29:00       -2.412       10.877       -1.335        8.129       10.629        7.737       66.073      112.980       59.866        0.018        0.012       11.141        4.717        0.179      333.806        3.362      867.259
12/03/2021  08:30:00        6.439       25.296       -6.833       15.207       15.369       12.064      231.240      236.215      145.537        0.067        0.031       26.102       10.916        0.175      333.767        3.297      867.256
12/03/2021  08:31:00      -18.580       15.059       -4.659       18.535       15.144        9.454      343.547      229.343       89.372        0.063        0.033       23.916        5.949        0.062      333.730        3.238      867.259
12/03/2021  08:32:00        4.112       25.392       -9.020       17.458       11.498       11.448      304.767      132.204      131.046        0.066        0.028       25.723       10.025        0.152      333.731        3.238      867.256
12/03/2021  08:33:00       10.466       36.076       -9.325       11.942       13.182       17.325      142.611      173.765      300.151        0.106        0.031       37.564        7.922        0.044      333.768        3.299      867.261
12/03/2021  08:34:00       15.382       27.308       -2.855       17.047       23.351       14.457      290.588      545.276      208.995        0.102        0.052       31.342        8.931        0.081      334.003        3.689      867.272
12/03/2021  08:35:00       41.152      -13.042      -18.816       24.233       30.770       17.684      587.226      946.818      312.729        0.203        0.092       43.169       15.848        0.135      333.972        3.638      867.276
12/03/2021  08:36:00       29.396      -15.594      -12.467       27.547       27.234       22.193      758.861      741.684      492.527        0.163        0.100       33.276       15.114        0.206      334.012        3.703      867.283
12/03/2021  08:37:00       79.249       -1.914      -27.960       29.731       24.745       15.523      883.908      612.312      240.954        0.440        0.087       79.272       10.579        0.018      333.830        3.402      867.294
12/03/2021  08:38:00       18.477        9.462      -11.112       22.480       38.769       21.701      505.337     1503.061      470.927        0.152        0.124       20.759        4.840        0.054      334.105        3.858      867.292
12/03/2021  08:39:00       26.510      -52.252      -19.927       32.627       36.944       27.363     1064.494     1364.834      748.742        0.350        0.159       58.592       21.477        0.134      334.200        4.016      867.299
12/03/2021  08:40:00       45.594      -33.662      -20.082       33.399       28.979       23.808     1115.491      839.808      566.812        0.307        0.126       56.674       18.090        0.102      334.101        3.851      867.297
12/03/2021  08:41:00       40.183      -15.327      -18.205       42.274       45.186       24.555     1787.080     2041.754      602.931        0.331        0.222       43.007       22.427        0.272      334.137        3.912      867.303
12/03/2021  08:42:00       68.309      -10.903      -20.194       33.911       27.682       19.617     1149.984      766.301      384.822        0.375        0.115       69.173       14.860        0.046      333.946        3.593      867.307
12/03/2021  08:43:00       55.580      -18.923       -4.068       57.387       35.708       33.644     3293.243     1275.075     1131.925        0.458        0.285       58.713       30.300        0.266      334.083        3.822      867.301
12/03/2021  08:44:00       79.734        1.074      -23.278       34.480       43.556       32.008     1188.874     1897.148     1024.503        0.550        0.206       79.741       20.646        0.067      333.980        3.652      867.296
12/03/2021  08:45:00       65.740      -29.212      -11.004       36.384       35.345       28.275     1323.815     1249.276      799.499        0.433        0.169       71.938       21.620        0.090      333.989        3.666      867.302
12/03/2021  08:46:00       74.670      -21.607      -19.451       51.863       51.259       36.844     2689.780     2627.504     1357.479        0.655        0.334       77.733       25.547        0.108      334.040        3.751      867.294
12/03/2021  08:47:00       89.228      -20.311      -18.117       39.525       46.199       31.764     1562.199     2134.336     1008.923        0.670        0.235       91.510       26.152        0.082      333.931        3.568      867.286
12/03/2021  08:48:00       66.114       10.189      -37.725       47.745       54.891       32.098     2279.618     3013.039     1030.308        0.611        0.316       66.895       21.940        0.108      334.211        4.034      867.285
12/03/2021  08:49:00       89.805        9.910      -47.443       52.226       58.023       35.619     2727.595     3366.649     1268.730        0.889        0.368       90.350       21.086        0.054      334.134        3.905      867.286
12/03/2021  08:50:00       68.877       -2.415      -33.296       53.322       47.341       30.714     2843.265     2241.161      943.325        0.594        0.301       68.919       24.091        0.122      334.070        3.801      867.285
12/03/2021  08:51:00       90.789      -63.542      -21.679       30.074       26.980       26.852      904.474      727.912      721.024        0.755        0.118      110.817       23.071        0.043      333.896        3.512      867.290
12/03/2021  08:52:00       53.412      -64.442      -29.365       26.668       42.775       22.935      711.171     1829.701      526.037        0.547        0.153       83.700        9.002        0.012      334.106        3.860      867.296
12/03/2021  08:53:00       68.088      -12.056      -20.171       39.386       52.058       38.202     1551.244     2709.996     1459.430        0.545        0.286       69.147       30.960        0.200      334.251        4.099      867.294
12/03/2021  08:54:00      112.694       13.841      -14.506       53.155       52.957       33.145     2825.403     2804.435     1098.602        0.991        0.336      113.541       19.265        0.029      333.996        3.678      867.298
12/03/2021  08:55:00       28.868      -15.455      -13.635       40.774       47.588       29.414     1662.498     2264.599      865.188        0.302        0.240       32.745       22.623        0.477      334.262        4.119      867.303
12/03/2021  08:56:00       94.916      -27.412      -28.910       35.889       45.366       27.992     1288.040     2058.098      783.573        0.736        0.206       98.795       11.091        0.013      334.054        3.775      867.311
12/03/2021  08:57:00       41.802      -12.708      -19.720       35.751       40.928       30.342     1278.102     1675.110      920.621        0.309        0.194       43.691       23.849        0.298      334.472        4.467      867.318
12/03/2021  08:58:00       59.887       12.897      -17.221       49.880       52.829       28.001     2487.968     2790.942      784.052        0.506        0.303       61.260       14.254        0.054      334.399        4.346      867.330
12/03/2021  08:59:00       57.028      -13.711      -22.990       39.641       56.069       26.062     1571.389     3143.754      679.232        0.468        0.270       58.653       23.283        0.158      334.320        4.214      867.405
12/03/2021  09:00:00       40.756      -46.327      -25.057       40.287       60.777       21.496     1623.027     3693.859      462.071        0.511        0.289       61.703       12.714        0.042      334.290        4.164      867.411
12/03/2021  09:01:00       57.439      -25.422      -15.634       41.009       52.558       25.516     1681.766     2762.394      651.057        0.464        0.255       62.813       12.896        0.042      334.388        4.326      867.404
12/03/2021  09:02:00       43.369      -46.597      -36.405       36.947       51.778       27.070     1365.114     2680.948      732.767        0.508        0.239       63.657       14.850        0.054      334.710        4.863      867.398
12/03/2021  09:03:00       47.368      -13.998      -19.690       47.855       59.520       30.832     2290.062     3542.602      950.619        0.480        0.339       49.393       26.774        0.294      334.615        4.704      867.393
12/03/2021  09:04:00       94.510        1.671      -16.508       36.543       40.474       32.022     1335.420     1638.118     1025.402        0.660        0.200       94.525       20.058        0.045      334.212        4.035      867.408
12/03/2021  09:05:00       39.138       -0.708      -11.853       28.931       27.012       23.060      837.019      729.628      531.784        0.189        0.105       39.144       13.764        0.124      334.452        4.433      867.428
12/03/2021  09:06:00       89.734       -1.479      -10.509       54.563       35.120       32.695     2977.132     1233.387     1068.941        0.672        0.264       89.746       25.880        0.083      334.326        4.224      867.438
12/03/2021  09:07:00       59.569       -2.059      -15.852       48.024       51.088       35.356     2306.272     2609.940     1250.014        0.498        0.308       59.604       25.316        0.180      334.675        4.803      867.441
12/03/2021  09:08:00       39.253       10.303      -15.928       42.001       60.451       33.797     1764.115     3654.277     1142.268        0.423        0.328       40.582       26.711        0.433      334.689        4.828      867.451
12/03/2021  09:09:00       46.544      -16.936      -22.114       48.427       39.759       25.714     2345.210     1580.807      661.220        0.376        0.229       49.530        7.781        0.025      334.587        4.657      867.455
12/03/2021  09:10:00       82.170      -31.644      -29.525       51.127       51.609       35.725     2613.933     2663.451     1276.271        0.759        0.328       88.052       22.833        0.067      334.628        4.725      867.459
12/03/2021  09:11:00      145.189       44.507      -22.401       38.828       31.821       17.332     1507.643     1012.548      300.408        1.319        0.141      151.858       13.900        0.008      334.317        4.209      867.477
12/03/2021  09:12:00      121.446       34.862      -14.531       36.957       41.886       24.749     1365.788     1754.470      612.519        0.995        0.187      126.351       13.843        0.012      334.361        4.282      867.486
12/03/2021  09:13:00       90.100       17.814      -13.554       55.512       35.085       23.742     3081.622     1230.989      563.700        0.675        0.244       91.844       21.700        0.056      334.604        4.686      867.505
12/03/2021  09:14:00       81.839       63.692      -15.658       26.552       24.787       21.324      704.990      614.384      454.731        0.639        0.089      103.703       13.346        0.017      334.513        4.535      867.528
12/03/2021  09:15:00       87.780       51.300      -23.678       33.674       30.802       22.934     1133.968      948.794      525.984        0.675        0.130      101.672        9.660        0.009      334.517        4.541      867.549
12/03/2021  09:16:00       81.072       62.283      -28.179       21.098       22.207       16.180      445.114      493.146      261.779        0.622        0.060      102.235       11.721        0.013      334.398        4.345      867.566
12/03/2021  09:17:00      121.430       63.778      -29.891       36.426       29.378       20.181     1326.838      863.094      407.271        1.115        0.130      137.160       16.374        0.014      334.475        4.470      867.561
12/03/2021  09:18:00       60.973       24.403      -13.537       32.448       38.697       19.244     1052.905     1497.445      370.319        0.371        0.146       65.675       14.191        0.047      334.649        4.761      867.562
12/03/2021  09:19:00       50.239       35.889      -10.597       34.479       38.668       24.364     1188.790     1495.204      593.591        0.360        0.164       61.741       10.942        0.031      334.795        5.003      867.552
12/03/2021  09:20:00      121.684       40.211      -25.431       32.946       31.694       24.482     1085.421     1004.484      599.388        0.988        0.134      128.156       15.325        0.014      334.483        4.485      867.536
12/03/2021  09:21:00       74.296       48.003      -25.827       42.534       35.487       25.903     1809.114     1259.356      670.968        0.611        0.187       88.454       17.515        0.039      334.612        4.698      867.520
12/03/2021  09:22:00       44.807      -42.270      -15.312       45.199       48.702       32.893     2042.910     2371.889     1081.926        0.476        0.275       61.599       25.900        0.177      334.833        5.067      867.491
12/03/2021  09:23:00       42.471      -44.989      -32.259       29.965       51.806       23.081      897.873     2683.816      532.737        0.449        0.206       61.869       19.524        0.100      334.919        5.210      867.468
12/03/2021  09:24:00       60.100      -67.783      -45.118       40.691       33.742       28.735     1655.749     1138.499      825.692        0.693        0.181       90.590       22.287        0.061      334.715        4.870      867.460
12/03/2021  09:25:00       32.194      -50.858      -22.626       31.019       41.379       31.689      962.152     1712.244     1004.222        0.391        0.184       60.191       22.553        0.140      335.068        5.457      867.460
12/03/2021  09:26:00       37.248      -16.118      -21.631       30.164       51.614       27.306      909.846     2664.033      745.612        0.322        0.216       40.586       17.503        0.186      335.048        5.425      867.469
12/03/2021  09:27:00       91.110       33.307      -16.587       65.482       60.952       25.164     4287.920     3715.131      633.215        0.916        0.432       97.007       12.714        0.017      334.753        4.933      867.482
12/03/2021  09:28:00      122.335       43.317      -29.815       44.635       49.148       24.141     1992.248     2415.487      582.804        1.136        0.250      129.777       18.613        0.021      334.578        4.642      867.504
12/03/2021  09:29:00       30.713       11.483       -7.114       39.825       46.753       29.147     1586.036     2185.835      849.564        0.287        0.231       32.789       21.939        0.448      335.108        5.523      867.514
12/03/2021  09:30:00       11.415      -49.537      -10.959       50.441       58.867       40.941     2544.259     3465.364     1676.141        0.519        0.384       50.835       35.483        0.487      335.011        5.362      867.521
12/03/2021  09:31:00       89.776      -23.403      -34.971       49.317       46.175       33.574     2432.200     2132.160     1127.180        0.776        0.285       92.776       26.179        0.080      334.745        4.921      867.528
12/03/2021  09:32:00       73.944      -10.622      -36.711       61.222       80.954       42.047     3748.133     6553.486     1767.941        0.950        0.603       74.703       17.285        0.054      334.959        5.276      867.542
12/03/2021  09:33:00      146.234       74.502      -31.198       45.813       39.386       28.281     2098.847     1551.261      799.838        1.618        0.222      164.119       14.356        0.008      334.701        4.847      867.554
12/03/2021  09:34:00      101.226       41.992      -18.162       56.205       65.552       35.160     3158.983     4297.039     1236.212        1.051        0.435      109.590       21.847        0.040      334.884        5.151      867.574
12/03/2021  09:35:00       52.472       47.400        3.706       45.762       38.380       20.674     2094.154     1473.055      427.399        0.450        0.200       70.712       24.941        0.124      335.043        5.416      867.576
12/03/2021  09:36:00       40.401      -67.421      -17.003       29.884       28.573       19.925      893.037      816.411      397.013        0.429        0.105       78.599       11.408        0.021      334.944        5.251      867.572
12/03/2021  09:37:00       50.883       -3.137       -5.755       53.975       49.841       32.135     2913.308     2484.086     1032.670        0.453        0.322       50.980       25.881        0.258      335.119        5.541      867.571
12/03/2021  09:38:00       33.404       29.284       -9.031       28.198       40.553       24.368      795.121     1644.550      593.784        0.254        0.152       44.422       18.230        0.168      335.148        5.589      867.577
12/03/2021  09:39:00       32.745      -36.279      -12.571       52.576       40.398       31.605     2764.242     1631.995      998.856        0.397        0.270       48.871       33.128        0.460      334.950        5.261      867.569
12/03/2021  09:40:00       35.792       16.666       -1.004       46.788       52.681       27.083     2189.141     2775.270      733.492        0.363        0.285       39.482        9.135        0.054      335.126        5.553      867.574
12/03/2021  09:41:00       67.822       23.221      -13.690       26.896       23.852       18.508      723.375      568.896      342.530        0.348        0.082       71.687       11.855        0.027      334.798        5.009      867.583
12/03/2021  09:42:00       47.201       60.044      -21.494       25.114       15.338       19.057      630.692      235.247      363.164        0.376        0.061       76.376       11.125        0.021      334.767        4.956      867.595
12/03/2021  09:43:00       50.273       62.407       -8.539       39.802       30.812       26.501     1584.176      949.370      702.282        0.486        0.162       80.138       23.206        0.084      334.896        5.171      867.591
12/03/2021  09:44:00       58.490       24.297      -12.473       38.084       59.509       28.464     1450.413     3541.379      810.180        0.498        0.290       63.336       18.404        0.084      335.196        5.669      867.598
12/03/2021  09:45:00       85.806       20.386      -30.499       45.185       41.246       24.092     2041.729     1701.264      580.407        0.652        0.216       88.194       11.934        0.018      335.069        5.458      867.600
12/03/2021  09:46:00       37.338        4.378      -23.789       37.880       30.958       22.087     1434.924      958.400      487.833        0.243        0.144       37.594       20.730        0.304      335.039        5.408      867.603
12/03/2021  09:47:00       67.436       34.395      -11.073       40.680       31.030       30.390     1654.827      962.865      923.574        0.470        0.177       75.701       16.062        0.045      335.120        5.543      867.600
12/03/2021  09:48:00       12.659       33.755      -10.385       29.354       22.111       19.729      861.639      488.905      389.217        0.157        0.087       36.051       13.770        0.146      334.991        5.331      867.584
12/03/2021  09:49:00        3.981      -28.371      -12.134       18.211       44.811       22.262      331.641     2008.034      495.582        0.190        0.142       28.649       14.975        0.273      335.409        6.022      867.561
12/03/2021  09:50:00       33.483      -17.791      -28.075       26.033       30.993       18.198      677.730      960.538      331.175        0.210        0.098       37.916       12.331        0.106      335.044        5.418      867.539
12/03/2021  09:51:00        9.334       18.668       -3.236       13.887       21.469       19.564      192.859      460.920      382.763        0.074        0.052       20.871       14.139        0.459      335.188        5.658      867.515
12/03/2021  09:52:00       -7.086       -6.112      -15.591       23.337       43.082       25.065      544.622     1856.050      628.246        0.168        0.151        9.358       15.824        2.859      335.352        5.928      867.492
12/03/2021  09:53:00       -2.537        7.676       -5.998       28.354       53.546       17.692      803.925     2867.172      313.003        0.204        0.199        8.085       16.848        4.343      335.354        5.932      867.474
12/03/2021  09:54:00       39.830      -11.970      -15.293       41.330       35.147       27.300     1708.194     1235.324      745.287        0.283        0.184       41.589       17.991        0.187      335.676        6.469      867.473
12/03/2021  09:55:00       61.617      -23.621      -12.704       42.759       38.904       25.594     1828.329     1513.516      655.074        0.426        0.200       65.990       17.619        0.071      335.575        6.301      867.476
12/03/2021  09:56:00       40.117      -79.471      -19.552       35.369       39.780       23.912     1250.987     1582.478      571.793        0.586        0.170       89.023       17.930        0.041      335.249        5.757      867.481
12/03/2021  09:57:00       15.341       21.277        6.747       31.463       51.615       24.984      989.923     2664.065      624.222        0.251        0.214       26.231       16.174        0.380      335.563        6.281      867.502
12/03/2021  09:58:00      100.252       60.272      -23.842       28.245       28.775       20.608      797.771      828.022      424.696        0.815        0.103      116.975       13.337        0.013      335.206        5.686      867.519
12/03/2021  09:59:00       70.065       48.984      -25.113       20.480       20.237       16.703      419.433      409.556      278.997        0.452        0.055       85.490        6.579        0.006      335.112        5.531      867.530
12/03/2021  10:00:00       99.034       64.822      -23.778       27.413       18.187       24.287      751.496      330.772      589.880        0.812        0.084      118.363       14.767        0.016      335.231        5.726      867.537
12/03/2021  10:01:00       30.360       35.337      -30.568       28.559       21.921       17.221      815.607      480.533      296.577        0.235        0.080       46.588       10.231        0.048      335.294        5.832      867.530
12/03/2021  10:02:00       10.581        1.766      -25.539       20.748       30.770       15.169      430.461      946.775      230.098        0.119        0.080       10.727        6.917        0.416      335.707        6.520      867.510
12/03/2021  10:03:00        8.744        2.466      -25.478       50.050       41.738       23.099     2504.980     1742.083      533.552        0.276        0.239        9.085       22.169        5.955      335.765        6.617      867.484
12/03/2021  10:04:00       42.762      -19.447      -43.175       31.345       46.765       31.473      982.512     2186.977      990.525        0.411        0.208       46.977       13.092        0.078      335.785        6.649      867.468
12/03/2021  10:05:00       43.540      -50.584      -23.552       46.751       53.045       30.407     2185.687     2813.790      924.570        0.547        0.296       66.742       22.491        0.114      335.641        6.411      867.447
12/03/2021  10:06:00       56.436      -73.724      -36.876       27.706       27.967       17.098      767.634      782.179      292.338        0.591        0.092       92.846       12.511        0.018      335.411        6.026      867.443
12/03/2021  10:07:00       24.688       -3.662      -17.562       50.235       57.267       21.142     2523.537     3279.554      446.976        0.359        0.313       24.958       26.016        1.087      335.617        6.370      867.439
12/03/2021  10:08:00       35.878      -12.465      -24.026       42.029       32.128       23.093     1766.456     1032.225      533.293        0.268        0.167       37.982       20.761        0.299      336.058        7.105      867.428
12/03/2021  10:09:00       28.989      -41.741      -26.590       28.737       50.030       29.761      825.821     2502.989      885.742        0.375        0.211       50.820       29.201        0.330      336.168        7.287      867.420
12/03/2021  10:10:00      144.760       79.113      -29.640       37.883       25.020       21.423     1435.151      625.977      458.944        1.531        0.126      164.968        9.649        0.003      335.459        6.108      867.436
12/03/2021  10:11:00      118.566       10.621      -16.888       52.020       52.259       27.546     2706.057     2731.001      758.802        1.032        0.310      119.041       26.283        0.049      335.631        6.394      867.438
12/03/2021  10:12:00      117.047       54.199      -23.469       25.838       27.560       17.419      667.585      759.526      303.426        0.946        0.087      128.986       13.203        0.010      335.365        5.950      867.452
12/03/2021  10:13:00       79.889       59.263      -19.997       31.615       28.415       22.498      999.486      807.419      506.140        0.630        0.116       99.470       10.632        0.011      335.574        6.298      867.453
12/03/2021  10:14:00       47.891       38.276      -11.425       37.498       38.431       30.102     1406.083     1476.910      906.111        0.384        0.189       61.307       21.300        0.121      335.999        7.006      867.442
12/03/2021  10:15:00       23.481       24.307        5.476       31.561       33.677       18.494      996.075     1134.134      342.042        0.182        0.124       33.796       11.044        0.107      336.096        7.169      867.442
12/03/2021  10:16:00       16.824       31.614       -3.872       42.440       23.124       30.512     1801.163      534.727      930.968        0.228        0.163       35.812       21.729        0.368      335.787        6.654      867.435
12/03/2021  10:17:00        8.409       34.650      -13.947       34.277       23.602       15.233     1174.900      557.058      232.055        0.171        0.098       35.655        7.892        0.049      335.902        6.845      867.423
12/03/2021  10:18:00       14.884       21.401       -4.924       52.854       55.532       30.555     2793.496     3083.845      933.608        0.376        0.341       26.068       29.305        1.264      336.091        7.161      867.414
12/03/2021  10:19:00       19.695      -12.647      -20.684       25.186       46.897       23.046      634.310     2199.353      531.125        0.217        0.168       23.406       11.696        0.250      336.346        7.587      867.392
12/03/2021  10:20:00       34.905      -87.534      -24.546       31.881       50.384       25.171     1016.381     2538.553      633.571        0.684        0.209       94.237       22.857        0.059      335.807        6.687      867.386
12/03/2021  10:21:00       40.788       40.664        3.660       35.367       48.321       32.304     1250.833     2334.905     1043.560        0.398        0.231       57.595       18.978        0.109      336.414        7.700      867.375
12/03/2021  10:22:00       27.318      -19.240      -25.154       34.912       40.568       29.336     1218.830     1645.781      860.597        0.274        0.186       33.413       12.285        0.135      336.336        7.570      867.367
12/03/2021  10:23:00       -7.690        4.031      -10.236       37.955       26.201       25.558     1440.576      686.510      653.204        0.148        0.139        8.683       19.946        5.277      336.285        7.482      867.357
12/03/2021  10:24:00      139.990       48.370      -25.916       31.219       37.651       19.077      974.621     1417.626      363.922        1.268        0.138      148.111        6.503        0.002      335.834        6.733      867.353
12/03/2021  10:25:00      118.986       52.263      -25.057       30.289       29.282       21.850      917.407      857.454      477.426        0.988        0.113      129.958       11.109        0.007      335.836        6.736      867.346
12/03/2021  10:26:00       21.227       45.611      -17.045       44.307       21.964       18.341     1963.083      482.408      336.401        0.280        0.139       50.308       18.886        0.141      335.876        6.802      867.345
12/03/2021  10:27:00       89.594       40.233      -12.365       48.564       29.632       24.235     2358.498      878.035      587.358        0.681        0.191       98.213       20.413        0.043      335.976        6.965      867.333
12/03/2021  10:28:00      109.352       52.566      -25.465       13.385       10.245       17.257      179.164      104.960      297.814        0.798        0.029      121.331        6.276        0.003      335.689        6.488      867.327
12/03/2021  10:29:00       99.370       52.441      -24.057       40.659       20.643       20.698     1653.177      426.116      428.395        0.786        0.125      112.359       16.241        0.021      335.787        6.654      867.320
12/03/2021  10:30:00       43.057       39.169      -24.999       53.029       16.659       12.090     2812.090      277.530      146.175        0.362        0.162       58.208       10.442        0.032      335.754        6.599      867.313
12/03/2021  10:31:00       -6.749       21.228       -3.643       26.121       36.176       21.314      682.293     1308.727      454.290        0.148        0.122       22.275        9.216        0.171      336.309        7.522      867.296
12/03/2021  10:32:00       77.711       19.804      -19.040       54.941       39.211       29.527     3018.462     1537.481      871.844        0.611        0.271       80.195       15.574        0.038      336.290        7.495      867.283
12/03/2021  10:33:00      129.064       46.401      -27.081       28.020       29.879       19.063      785.105      892.744      363.382        1.079        0.102      137.152        7.418        0.003      335.981        6.977      867.279
12/03/2021  10:34:00       18.293       31.318      -15.692       46.102       37.572       20.339     2125.389     1411.619      413.685        0.276        0.198       36.269       20.721        0.326      335.822        6.711      867.277
12/03/2021  10:35:00       -5.862       13.938      -27.764       19.601       19.318       14.118      384.188      373.188      199.320        0.098        0.048       15.120       11.096        0.539      336.119        7.208      867.255
12/03/2021  10:36:00        4.198      -34.428      -19.203       28.033       32.785       28.044      785.867     1074.865      786.468        0.211        0.132       34.683       14.450        0.174      336.497        7.839      867.240
12/03/2021  10:37:00       45.999      -77.031      -26.772       40.765       52.993       33.709     1661.812     2808.220     1136.293        0.719        0.280       89.719       27.636        0.095      336.214        7.366      867.225
12/03/2021  10:38:00       36.064      -17.945      -13.306       33.905       59.366       25.740     1149.556     3524.289      662.555        0.357        0.267       40.282       14.340        0.127      336.398        7.672      867.217
12/03/2021  10:39:00       80.676       -4.521      -15.448       50.352       49.931       29.609     2535.359     2493.063      876.707        0.634        0.295       80.802       11.647        0.021      336.270        7.458      867.195
12/03/2021  10:40:00       49.550      -40.465       -9.251       49.078       56.036       41.631     2408.661     3140.082     1733.162        0.573        0.364       63.974       34.648        0.293      336.357        7.604      867.183
12/03/2021  10:41:00      108.039      -98.783      -33.232       64.442       43.782       37.855     4152.835     1916.903     1433.007        1.502        0.375      146.392       37.823        0.067      335.986        6.986      867.157
12/03/2021  10:42:00       78.939      -64.953      -24.137       50.127       44.522       26.584     2512.704     1982.191      706.692        0.812        0.260      102.226       17.115        0.028      336.194        7.332      867.147
12/03/2021  10:43:00       14.353       -7.281       -5.106       40.877       39.977       38.894     1670.942     1598.180     1512.721        0.253        0.239       16.094       24.464        2.311      336.645        8.087      867.134
12/03/2021  10:44:00       75.404      -50.288      -36.918       33.593       40.788       31.040     1128.456     1663.670      963.469        0.667        0.188       90.635       10.455        0.013      336.627        8.056      867.124
12/03/2021  10:45:00        7.612       25.053        7.414       29.603       34.225       31.867      876.340     1171.371     1015.479        0.190        0.153       26.184       22.460        0.736      336.765        8.288      867.121
12/03/2021  10:46:00       58.016       31.154      -18.334       33.458       30.878       23.402     1119.421      953.477      547.633        0.365        0.131       65.852       12.898        0.038      336.456        7.769      867.116
12/03/2021  10:47:00      117.398       30.704      -23.074       40.433       40.473       25.320     1634.826     1638.102      641.108        0.959        0.196      121.347       16.411        0.018      336.300        7.510      867.100
12/03/2021  10:48:00       35.870      -10.806      -16.470       45.438       60.127       26.899     2064.629     3615.262      723.574        0.404        0.320       37.462        4.548        0.015      336.815        8.371      867.080
12/03/2021  10:49:00       46.322      -71.383      -27.586       32.283       61.310       34.781     1042.206     3758.946     1209.715        0.701        0.301       85.096       26.115        0.094      336.767        8.290      867.059
12/03/2021  10:50:00       78.780     -164.287      -37.952       30.435       58.283       20.890      926.267     3396.947      436.412        1.970        0.238      182.199       19.674        0.012      336.148        7.253      867.039
12/03/2021  10:51:00       51.587     -127.268      -37.696       38.218       70.270       26.418     1460.635     4937.915      697.892        1.369        0.355      137.326       23.088        0.028      336.421        7.711      867.011
12/03/2021  10:52:00       16.556      -35.740      -21.409       37.770       45.233       30.755     1426.572     2046.003      945.853        0.321        0.221       39.389       12.812        0.106      336.898        8.508      866.997
12/03/2021  10:53:00        1.610        7.008       -6.698       51.308       33.529       28.661     2632.549     1124.216      821.435        0.234        0.229        7.191       12.917        3.227      336.901        8.513      866.988
12/03/2021  10:54:00       -3.822       24.076        0.573       50.572       37.584       22.482     2557.569     1412.540      505.418        0.253        0.224       24.378       19.985        0.672      336.897        8.507      866.985
12/03/2021  10:55:00       23.805       32.856       -9.094       44.169       30.348       30.614     1950.927      921.012      937.196        0.277        0.190       40.574       27.593        0.463      336.909        8.528      866.980
12/03/2021  10:56:00       -8.741       59.961        0.967       26.306       29.722       22.454      691.998      883.411      504.200        0.288        0.104       60.595       12.307        0.041      336.729        8.226      866.969
12/03/2021  10:57:00      -13.026       35.327       -9.076       55.880       24.894       22.829     3122.537      619.723      521.159        0.288        0.213       37.652       16.327        0.188      336.982        8.649      866.953
12/03/2021  10:58:00       34.305       42.648       -1.539       54.914       34.241       27.345     3015.556     1172.466      747.726        0.397        0.247       54.733        8.841        0.026      337.057        8.776      866.943
12/03/2021  10:59:00       41.471       34.007        2.343       50.642       32.525       28.339     2564.609     1057.902      803.111        0.365        0.221       53.631       23.622        0.194      337.190        8.997      866.931
12/03/2021  11:00:00       60.099       18.363      -30.146       33.144       41.535       32.622     1098.531     1725.118     1064.213        0.437        0.194       62.842       21.570        0.118      336.904        8.519      866.923
12/03/2021  11:01:00       67.826       28.561      -19.887       46.022       45.739       23.688     2118.044     2092.063      561.139        0.529        0.239       73.594        9.191        0.016      336.901        8.514      866.907
12/03/2021  11:02:00      100.741       53.701      -22.953       30.602       20.732       18.684      936.461      429.829      349.110        0.764        0.086      114.160        2.780        0.001      336.615        8.038      866.891
12/03/2021  11:03:00      115.118       53.177      -22.211       46.727       39.212       21.575     2183.389     1537.599      465.496        1.038        0.209      126.806       17.184        0.018      336.596        8.004      866.861
12/03/2021  11:04:00      106.231       63.539      -18.782       39.254       26.419       23.596     1540.880      697.938      556.794        0.923        0.140      123.783       15.878        0.016      336.769        8.293      866.834
12/03/2021  11:05:00      117.772       42.056      -19.357       34.126       36.960       19.682     1164.580     1366.058      387.377        0.947        0.146      125.056        6.097        0.002      336.689        8.161      866.809
12/03/2021  11:06:00       49.149       56.885       -9.815       24.364       23.963       20.584      593.603      574.249      423.721        0.367        0.080       75.177       12.879        0.029      336.693        8.167      866.793
12/03/2021  11:07:00       64.938       30.416       -5.283       40.175       35.154       24.457     1614.065     1235.770      598.138        0.431        0.172       71.709       16.254        0.051      336.946        8.590      866.772
12/03/2021  11:08:00      101.362       58.254      -28.250       41.562       31.032       25.717     1727.409      962.964      661.382        0.891        0.168      116.909       11.898        0.010      337.059        8.778      866.756
12/03/2021  11:09:00       37.828       26.738      -11.817       46.163       47.925       26.737     2130.988     2296.799      714.854        0.371        0.257       46.324       22.021        0.226      337.190        8.996      866.744
12/03/2021  11:10:00       59.747        2.327      -15.052       69.514       39.421       22.907     4832.219     1554.012      524.719        0.536        0.346       59.792       12.754        0.045      337.117        8.877      866.744
12/03/2021  11:11:00       93.327       49.898      -16.083       32.352       22.148       17.260     1046.682      490.518      297.893        0.665        0.092      105.829       12.208        0.013      336.889        8.495      866.742
12/03/2021  11:12:00       10.081       42.786       -6.385       34.821       30.124       27.691     1212.525      907.473      766.783        0.243        0.144       43.958        9.670        0.048      337.314        9.204      866.727
12/03/2021  11:13:00       15.217      -57.587      -18.495       42.421       56.209       17.718     1799.564     3159.506      313.912        0.458        0.264       59.564       21.845        0.135      337.028        8.725      866.716
12/03/2021  11:14:00       39.311      -42.002      -10.362       38.813       35.159       19.762     1506.445     1236.178      390.532        0.327        0.157       57.529        8.061        0.020      336.801        8.346      866.707
12/03/2021  11:15:00      -18.113        1.554        5.584       27.903       31.821       26.727      778.599     1012.559      714.334        0.143        0.125       18.179       12.176        0.449      337.063        8.784      866.692
12/03/2021  11:16:00       -2.522        0.283      -12.629       26.041       32.378       24.664      678.143     1048.308      608.294        0.125        0.117        2.538       16.032       39.910      337.279        9.146      866.664
12/03/2021  11:17:00      -22.906        9.627       -3.083       22.217       26.807       25.976      493.591      718.622      674.754        0.126        0.094       24.846       20.257        0.665      337.185        8.988      866.646
12/03/2021  11:18:00        6.077        9.356       -7.845       44.552       23.227       21.968     1984.894      539.484      482.585        0.160        0.150       11.157       14.117        1.601      337.426        9.392      866.630
12/03/2021  11:19:00      -25.429       -9.560      -18.313       53.191       28.194       24.447     2829.235      794.895      597.668        0.265        0.211       27.167       18.774        0.478      337.231        9.064      866.616
12/03/2021  11:20:00      -35.217       -0.185       -2.027       17.262       18.800       12.430      297.975      353.434      154.502        0.102        0.040       35.217        8.767        0.062      337.222        9.051      866.603
12/03/2021  11:21:00      -12.241        7.756      -10.216       27.741       41.710       18.468      769.550     1739.755      341.054        0.158        0.143       14.491       13.846        0.913      337.691        9.836      866.587
12/03/2021  11:22:00       23.643      -42.061      -31.105       33.687       60.293       30.617     1134.800     3635.305      937.387        0.450        0.285       48.250       23.033        0.228      337.310        9.196      866.557
12/03/2021  11:23:00       38.676      -54.492      -29.396       43.818       57.088       39.701     1920.027     3259.062     1576.200        0.604        0.338       66.823       25.975        0.151      337.332        9.234      866.530
12/03/2021  11:24:00       29.512      -27.752      -24.251       36.021       36.230       35.792     1297.548     1312.586     1281.043        0.306        0.195       40.511       22.340        0.304      337.520        9.551      866.505
12/03/2021  11:25:00       10.235        0.982      -20.391       33.534       51.497       28.448     1124.536     2651.919      809.292        0.255        0.229       10.282       21.597        4.412      337.360        9.283      866.478
12/03/2021  11:26:00       45.833      -12.498      -10.745       41.614       90.660       33.201     1731.739     8219.315     1102.289        0.671        0.553       47.507       40.404        0.723      337.488        9.496      866.439
12/03/2021  11:27:00       30.290      -77.246      -22.686       28.166       48.811       28.566      793.315     2382.490      816.041        0.569        0.200       82.972       17.606        0.045      337.256        9.108      866.408
12/03/2021  11:28:00       58.271       12.308      -18.310       34.368       51.723       26.835     1181.161     2675.301      720.102        0.423        0.229       59.557       21.630        0.132      337.493        9.504      866.378
12/03/2021  11:29:00       -5.811       27.652       -8.514       44.095       28.760       24.230     1944.371      827.110      587.113        0.211        0.168       28.256       12.080        0.183      337.840       10.086      866.352
12/03/2021  11:30:00       29.303      -71.704      -27.399       65.594       84.423       36.734     4302.543     7127.218     1349.366        0.976        0.639       77.461       42.812        0.305      337.726        9.894      866.331
12/03/2021  11:31:00       57.957      -83.785      -25.315       26.485       46.861       30.571      701.441     2195.982      934.596        0.743        0.192      101.877       26.816        0.069      337.256        9.108      866.313
12/03/2021  11:32:00        9.494       -6.177      -21.734       29.459       49.655       27.090      867.860     2465.581      733.851        0.233        0.203       11.327       18.694        2.724      337.560        9.618      866.322
12/03/2021  11:33:00       59.676       46.857      -16.915       38.509       44.107       35.103     1482.944     1945.463     1232.254        0.535        0.233       75.874       15.726        0.043      337.741        9.920      866.313
12/03/2021  11:34:00       61.673       71.597      -18.320       24.263       17.088       18.926      588.688      291.994      358.202        0.525        0.062       94.496       13.189        0.019      337.447        9.427      866.331
12/03/2021  11:35:00       70.015       45.132       -9.374       43.259       21.319       24.891     1871.307      454.512      619.538        0.499        0.147       83.301       18.481        0.049      337.652        9.770      866.338
12/03/2021  11:36:00       71.597       24.439      -20.462       21.294       33.394       15.647      453.422     1115.138      244.832        0.398        0.091       75.653       14.393        0.036      337.479        9.481      866.338
12/03/2021  11:37:00       23.557       47.379        0.906       30.011       30.307       20.187      900.689      918.536      407.522        0.251        0.111       52.912       13.323        0.063      337.756        9.945      866.335
12/03/2021  11:38:00       41.315       33.964       -0.480       28.926       23.883       22.418      836.740      570.383      502.545        0.238        0.095       53.484       16.664        0.097      337.899       10.187      866.326
12/03/2021  11:39:00       16.539       35.525        6.609       21.057       27.199       27.537      443.377      739.811      758.286        0.176        0.097       39.186       14.135        0.130      338.116       10.550      866.315
12/03/2021  11:40:00       -9.106        7.297      -21.352       21.640       21.184       24.472      468.292      448.763      598.899        0.105        0.076       11.669       15.672        1.804      338.114       10.545      866.297
12/03/2021  11:41:00      -48.723        0.150      -25.417       22.715       19.305       20.218      515.992      372.684      408.782        0.216        0.065       48.723       11.654        0.057      337.853       10.108      866.273
12/03/2021  11:42:00      -19.242      -10.288      -20.072       22.917       16.410       16.969      525.189      269.287      287.960        0.098        0.054       21.820        9.290        0.181      337.931       10.238      866.248
12/03/2021  11:43:00        6.181      -58.861      -17.152       38.511       47.237       30.921     1483.063     2231.380      956.079        0.423        0.234       59.184       11.931        0.041      337.655        9.776      866.226
12/03/2021  11:44:00       25.915      -80.559      -23.621       28.766       55.052       28.288      827.501     3030.752      800.196        0.619        0.233       84.625       26.958        0.101      337.416        9.375      866.207
12/03/2021  11:45:00       44.289       43.421       -6.434       31.848       26.822       27.703     1014.297      719.430      767.442        0.319        0.125       62.024       14.853        0.057      337.740        9.917      866.177
12/03/2021  11:46:00       79.397       59.034      -20.985       30.392       38.992       21.487      923.688     1520.382      461.712        0.657        0.145       98.939        9.220        0.009      337.898       10.184      866.156
12/03/2021  11:47:00       84.099       21.584      -21.829       35.919       40.782       32.856     1290.210     1663.188     1079.549        0.602        0.202       86.825        8.518        0.010      337.778        9.983      866.123
12/03/2021  11:48:00       95.113       63.553      -17.253       40.843       31.164       26.333     1668.127      971.197      693.410        0.836        0.167      114.392       21.599        0.036      337.899       10.184      866.115
12/03/2021  11:49:00      117.178       96.136      -21.140       36.629       31.403       26.986     1341.671      986.131      728.237        1.324        0.153      151.568       16.217        0.011      337.771        9.971      866.105
12/03/2021  11:50:00      111.131       73.552      -26.895       40.000       44.038       30.867     1599.970     1939.324      952.784        1.149        0.225      133.267       21.152        0.025      337.901       10.190      866.099
12/03/2021  11:51:00       24.476       44.852      -23.678       26.930       18.382       23.510      725.217      337.893      552.701        0.239        0.081       51.096       12.747        0.062      337.837       10.081      866.085
12/03/2021  11:52:00       64.269       51.214      -15.689       14.022       24.463       19.557      196.623      598.458      382.476        0.409        0.059       82.179       11.963        0.021      337.774        9.976      866.077
12/03/2021  11:53:00       21.533       42.631       -7.089       28.143       18.466       23.047      792.014      340.985      531.162        0.200        0.083       47.760       18.316        0.147      338.011       10.373      866.058
12/03/2021  11:54:00       -3.237      -13.403      -11.387       21.245       25.906       19.727      451.369      671.118      389.149        0.092        0.076       13.789       14.000        1.031      338.247       10.769      866.045
12/03/2021  11:55:00       13.522      -23.170      -10.953       41.798       30.549       29.800     1747.071      933.216      888.055        0.220        0.178       26.828       24.278        0.819      338.163       10.628      866.039
12/03/2021  11:56:00       12.295       15.013       -7.177       40.229       37.462       32.115     1618.335     1403.385     1031.345        0.224        0.203       19.406       19.928        1.055      338.360       10.959      866.021
12/03/2021  11:57:00       15.444       26.009      -13.784       55.410       43.175       33.506     3070.315     1864.057     1122.643        0.358        0.303       30.249       26.906        0.791      338.560       11.294      866.004
12/03/2021  11:58:00       20.226      -78.996      -24.552       58.159       61.649       38.986     3382.457     3800.630     1519.936        0.798        0.435       81.544       22.574        0.077      338.210       10.706      865.984
12/03/2021  11:59:00       62.821       -3.967      -16.092       52.068       85.720       29.787     2711.060     7347.979      887.240        0.758        0.547       62.946       25.113        0.159      338.112       10.542      865.973
12/03/2021  12:00:00       21.299       21.278      -17.486       37.172       40.036       32.032     1381.784     1602.912     1026.060        0.261        0.201       30.107       13.454        0.200      338.541       11.262      865.947
12/03/2021  12:01:00       20.289       40.990        8.706       37.002       31.717       26.807     1369.147     1005.999      718.615        0.263        0.155       45.736       11.973        0.069      338.453       11.115      865.954
12/03/2021  12:02:00       63.250     -123.905      -35.475       58.056       57.550       31.191     3370.531     3311.975      972.854        1.413        0.383      139.115       26.223        0.036      338.167       10.635      865.926
12/03/2021  12:03:00       21.955      -24.505      -19.128       35.966       63.473       40.763     1293.563     4028.847     1661.597        0.421        0.349       32.902       28.520        0.751      338.378       10.988      865.907
12/03/2021  12:04:00        6.089       -6.302       -1.123       36.669       35.896       29.586     1344.585     1288.537      875.318        0.179        0.175        8.763       19.871        5.142      338.425       11.067      865.897
12/03/2021  12:05:00      -25.622       -1.174      -10.119       48.939       34.187       27.510     2395.062     1168.768      756.793        0.254        0.216       25.649       18.248        0.506      338.224       10.729      865.880
12/03/2021  12:06:00       13.015       19.981       -6.827       37.313       34.016       21.039     1392.255     1157.057      442.638        0.180        0.150       23.846       12.070        0.256      338.284       10.830      865.873
12/03/2021  12:07:00      128.935       42.126      -23.664       29.284       26.997       21.668      857.526      728.829      469.484        1.051        0.103      135.643       12.012        0.008      338.102       10.525      865.863
12/03/2021  12:08:00       98.107       62.428       -7.777       46.311       32.032       31.415     2144.743     1026.046      986.893        0.887        0.208      116.285       24.811        0.046      338.162       10.629      865.860
12/03/2021  12:09:00      128.437       63.324      -12.195       59.056       37.363       27.293     3487.610     1396.028      744.913        1.314        0.281      143.199       29.101        0.041      338.238       10.754      865.846
12/03/2021  12:10:00       50.975       10.283       -4.359       66.481       52.417       33.121     4419.778     2747.553     1097.027        0.549        0.413       52.002       23.554        0.205      338.624       11.402      865.827
12/03/2021  12:11:00       77.205       30.392      -13.823       50.839       62.698       41.969     2584.626     3931.023     1761.419        0.767        0.414       82.971       21.665        0.068      338.389       11.007      865.812
12/03/2021  12:12:00       79.400       75.077      -13.301       45.594       33.128       30.424     2078.792     1097.447      925.649        0.811        0.205      109.274       12.149        0.012      338.250       10.775      865.815
12/03/2021  12:13:00        4.219       21.659       -8.236       31.739       23.513       30.254     1007.394      552.846      915.324        0.151        0.124       22.066       18.674        0.716      338.607       11.373      865.808
12/03/2021  12:14:00       53.937       66.650        1.432       48.491       39.359       34.397     2351.341     1549.164     1183.176        0.622        0.254       85.741       26.795        0.098      338.507       11.205      865.805
12/03/2021  12:15:00       10.464       18.882        4.644       25.180       25.752       21.047      634.049      663.162      442.991        0.111        0.087       21.588       10.861        0.253      338.711       11.547      865.800
12/03/2021  12:16:00       72.562       45.175      -10.514       41.831       27.578       19.732     1749.810      760.528      389.340        0.516        0.145       85.475       17.495        0.042      338.441       11.095      865.793
12/03/2021  12:17:00      121.883       58.684      -15.584       68.301       25.951       25.102     4665.067      673.462      630.119        1.225        0.298      135.275       26.113        0.037      338.381       10.993      865.780
12/03/2021  12:18:00      151.940       40.915      -23.994       66.876       48.674       38.406     4472.358     2369.112     1475.027        1.682        0.416      157.353       22.400        0.020      338.349       10.938      865.767
12/03/2021  12:19:00       45.103       30.688       -6.322       69.861       69.167       28.350     4880.496     4784.047      803.714        0.674        0.523       54.553       16.750        0.094      338.645       11.436      865.763
12/03/2021  12:20:00       59.989       34.732      -16.285       72.601       49.848       22.739     5270.918     2484.837      517.078        0.667        0.414       69.319       16.444        0.056      338.495       11.185      865.765
12/03/2021  12:21:00      152.742       43.065      -30.452       37.332       32.559       21.008     1393.690     1060.065      441.326        1.450        0.145      158.697       16.328        0.011      338.397       11.019      865.720
12/03/2021  12:22:00       28.970       36.665        1.471       56.899       32.211       34.638     3237.541     1037.553     1199.814        0.383        0.274       46.729       39.925        0.730      338.683       11.501      865.746
12/03/2021  12:23:00       41.383       80.862      -15.400       34.082       32.345       22.564     1161.593     1046.186      509.135        0.560        0.136       90.837       16.060        0.031      338.525       11.236      865.737
12/03/2021  12:24:00       13.715       87.570      -11.486       25.998       24.332       25.213      675.878      592.049      635.674        0.495        0.095       88.638       13.016        0.022      338.431       11.075      865.719
12/03/2021  12:25:00       11.359       41.397       -6.644       32.827       19.977       11.984     1077.585      399.082      143.611        0.175        0.081       42.927        5.306        0.015      338.605       11.370      865.699
12/03/2021  12:26:00      118.804       55.579      -26.486       50.249       31.327       21.483     2524.980      981.353      461.530        1.094        0.198      131.162       12.310        0.009      338.439       11.091      865.679
12/03/2021  12:27:00      144.052       26.680      -25.252       53.109       49.159       24.740     2820.589     2416.561      612.076        1.397        0.292      146.502        9.038        0.004      338.454       11.115      865.652
12/03/2021  12:28:00      125.688       55.101      -29.161       28.251       22.009       16.180      798.113      484.396      261.794        1.061        0.077      137.236        7.082        0.003      338.432       11.080      865.639
12/03/2021  12:29:00       96.311       53.405      -19.439       47.729       25.840       25.454     2278.082      667.695      647.928        0.805        0.180      110.127       21.098        0.037      338.409       11.041      865.625
12/03/2021  12:30:00       81.712       59.002      -22.764       29.553       30.606       20.664      873.365      936.754      426.989        0.646        0.112      100.787       10.556        0.011      338.404       11.032      865.605
12/03/2021  12:31:00       25.749       63.262      -25.053       28.228       18.689       17.269      796.839      349.268      298.223        0.337        0.072       68.301       14.308        0.044      338.439       11.090      865.572
12/03/2021  12:32:00       -8.943       54.170        6.275       33.777       29.341       32.056     1140.893      860.904     1027.577        0.304        0.151       54.903       18.941        0.119      339.027       12.081      865.555
12/03/2021  12:33:00       -0.908       16.628        8.788       19.120       26.255       14.242      365.568      689.344      202.844        0.081        0.063       16.653       11.163        0.449      339.275       12.496      865.556
12/03/2021  12:34:00       -1.480       55.284        8.214       30.195       23.959       25.189      911.725      574.013      634.485        0.262        0.106       55.304       15.145        0.075      339.139       12.267      865.543
12/03/2021  12:35:00       17.950       23.547       -2.904       17.725       23.610       22.259      314.173      557.455      495.468        0.113        0.068       29.608       13.959        0.222      338.957       11.963      865.514
12/03/2021  12:36:00       -5.495      -38.232      -27.668       26.415       23.703       17.665      697.750      561.813      312.041        0.191        0.079       38.625       10.116        0.069      339.251       12.455      865.504
12/03/2021  12:37:00      -21.317      -45.585      -26.650       27.121       23.618       17.041      735.560      557.815      290.395        0.241        0.079       50.323       11.089        0.049      339.002       12.037      865.478
12/03/2021  12:38:00        3.431      -83.414      -28.483       36.295       37.792       26.804     1317.309     1428.261      718.451        0.562        0.173       83.485       10.672        0.016      338.960       11.967      865.466
12/03/2021  12:39:00      -44.315       -4.030      -12.892       29.733       25.267       14.252      884.028      638.404      203.111        0.194        0.086       44.498        9.876        0.049      339.017       12.061      865.437
12/03/2021  12:40:00        8.502      -31.851      -12.350       21.242       23.210       24.038      451.202      538.715      577.813        0.140        0.078       32.966        8.041        0.059      338.783       11.669      865.423
12/03/2021  12:41:00       50.025      -81.286      -26.340       31.939       51.165       21.300     1020.071     2617.812      453.686        0.695        0.205       95.446       19.561        0.042      338.708       11.543      865.395
12/03/2021  12:42:00       36.646      -70.029      -29.985       46.601       44.933       29.300     2171.671     2019.008      858.486        0.610        0.252       79.038       30.752        0.151      339.029       12.082      865.373
12/03/2021  12:43:00       36.521      -76.497      -21.318       34.766       44.044       27.463     1208.686     1939.897      754.196        0.577        0.195       84.768       23.207        0.075      338.945       11.940      865.363
12/03/2021  12:44:00       67.434       32.406      -33.110       35.097       50.270       20.608     1231.777     2527.122      424.709        0.544        0.209       74.816        5.395        0.005      338.784       11.671      865.358
12/03/2021  12:45:00       48.822       50.570       -4.192       48.793       40.532       23.194     2380.781     1642.843      537.985        0.476        0.228       70.291       14.783        0.044      338.946       11.944      865.348
12/03/2021  12:46:00      -11.910       -5.365       -5.775       43.999       29.098       24.593     1935.941      846.682      604.791        0.180        0.169       13.062       18.342        1.972      339.484       12.848      865.335
12/03/2021  12:47:00       30.314      -64.869      -24.329       28.424       39.173       22.227      807.915     1534.543      494.032        0.428        0.142       71.603        9.558        0.018      338.600       11.362      865.330
12/03/2021  12:48:00       24.591      -20.175      -22.512       34.812       31.456       21.938     1211.860      989.475      481.282        0.210        0.134       31.808       17.954        0.319      338.787       11.676      865.318
12/03/2021  12:49:00       49.672      -38.073      -19.932       39.701       35.218       28.916     1576.144     1240.286      836.143        0.398        0.183       62.585       10.252        0.027      339.009       12.049      865.299
12/03/2021  12:50:00       76.512      -29.759      -19.335       53.805       42.544       33.926     2894.964     1809.978     1150.962        0.648        0.293       82.096       19.969        0.059      338.982       12.004      865.281
12/03/2021  12:51:00       63.992       27.994      -10.459       57.388       55.760       32.836     3293.336     3109.145     1078.221        0.623        0.374       69.847       32.476        0.216      339.055       12.127      865.280
12/03/2021  12:52:00       51.857       -8.476      -16.367       60.731       56.950       40.970     3688.253     3243.321     1678.502        0.582        0.431       52.545       38.744        0.544      339.135       12.261      865.263
12/03/2021  12:53:00      111.633      -29.626      -12.745       55.259       43.025       32.888     3053.550     1851.187     1081.611        0.974        0.299      115.497       33.500        0.084      338.984       12.007      865.239
12/03/2021  12:54:00       93.650      -27.806      -32.746       33.672       36.799       30.579     1133.830     1354.146      935.051        0.702        0.171       97.691       12.868        0.017      339.023       12.072      865.236
12/03/2021  12:55:00       75.994       -9.038      -21.683       35.021       38.766       21.068     1226.499     1502.809      443.870        0.475        0.159       76.530       10.037        0.017      339.027       12.079      865.221
12/03/2021  12:56:00       64.640      -86.638      -19.885       46.433       43.858       31.202     2156.030     1923.530      973.575        0.857        0.253      108.095       24.379        0.051      339.049       12.116      865.209
12/03/2021  12:57:00       32.764      -70.294      -18.624       26.906       27.905       20.094      723.926      778.695      403.778        0.413        0.095       77.555        8.713        0.013      339.035       12.093      865.178
12/03/2021  12:58:00       44.591     -109.348      -30.711       35.240       27.634       24.750     1241.839      763.630      612.553        0.875        0.131      118.090       17.604        0.022      339.116       12.229      865.155
12/03/2021  12:59:00       43.678      -25.336       -6.396       58.117       71.698       30.372     3377.548     5140.630      922.467        0.601        0.472       50.494       16.941        0.113      339.493       12.865      865.134
12/03/2021  13:00:00      108.439       62.138      -23.243       43.371       20.120       14.759     1881.008      404.816      217.814        0.933        0.125      124.980        5.977        0.002      338.835       11.756      865.125
12/03/2021  13:01:00       58.270       35.146      -15.475       24.354       21.855       19.777      593.113      477.624      391.121        0.317        0.073       68.049       13.390        0.039      338.958       11.961      865.115
12/03/2021  13:02:00       97.776       44.690      -19.840       30.078       37.596       20.710      904.716     1413.438      428.889        0.735        0.137      107.505       13.571        0.016      339.059       12.133      865.097
12/03/2021  13:03:00       24.257       32.419      -19.063       30.570       19.885       13.954      934.512      395.429      194.722        0.176        0.076       40.490        6.497        0.026      339.234       12.426      865.077
12/03/2021  13:04:00       84.244      -13.042      -27.843       63.182       43.959       33.635     3991.998     1932.362     1131.306        0.755        0.353       85.247       17.081        0.040      339.369       12.653      865.046
12/03/2021  13:05:00       82.163      -52.018      -29.429       53.589       65.205       29.644     2871.745     4251.744      878.775        0.916        0.400       97.245       29.214        0.090      339.324       12.580      865.027
12/03/2021  13:06:00      144.307      -14.054      -16.696       53.653       44.786       37.472     2878.648     2005.804     1404.130        1.379        0.314      144.989       29.055        0.040      339.222       12.406      865.018
12/03/2021  13:07:00      112.672       20.260      -21.775       44.198       42.082       23.858     1953.461     1770.853      569.195        0.894        0.215      114.479       15.813        0.019      339.152       12.288      865.016
12/03/2021  13:08:00       83.820       35.162      -16.108       41.135       32.463       25.461     1692.058     1053.840      648.241        0.596        0.170       90.897       13.798        0.023      339.286       12.515      865.012
12/03/2021  13:09:00      157.016       71.131      -18.000       42.296       44.795       24.833     1788.942     2006.628      616.701        1.722        0.221      172.377       19.774        0.013      339.176       12.329      865.001
12/03/2021  13:10:00       85.047       14.160      -15.094       47.910       84.503       30.713     2295.389     7140.825      943.261        0.902        0.519       86.218       21.023        0.059      339.373       12.662      864.995
12/03/2021  13:11:00       39.184       14.674      -23.981       54.636       44.959       29.847     2985.107     2021.276      890.833        0.411        0.295       41.841        9.546        0.052      339.579       13.009      864.980
12/03/2021  13:12:00       65.302       12.230      -18.130       44.864       54.442       29.037     2012.755     2963.977      843.147        0.528        0.291       66.437       25.790        0.151      339.567       12.989      864.972
12/03/2021  13:13:00       52.310      -15.636      -21.197       38.995       33.492       18.698     1520.626     1121.742      349.612        0.321        0.150       54.597       15.293        0.078      339.381       12.675      864.959
12/03/2021  13:14:00       70.574       -9.666      -21.007       47.159       54.703       25.806     2224.003     2992.419      665.955        0.570        0.294       71.233       16.446        0.053      339.571       12.996      864.950
12/03/2021  13:15:00       80.244      -27.755      -26.606       45.318       32.956       28.233     2053.744     1086.083      797.091        0.593        0.197       84.909       21.117        0.062      339.511       12.893      864.941
12/03/2021  13:16:00       24.037      -97.909      -13.504       27.959       44.684       21.920      781.724     1996.636      480.487        0.680        0.163      100.816       18.230        0.033      339.462       12.812      864.933
12/03/2021  13:17:00       75.182      -15.869      -23.233       51.548       67.712       33.040     2657.154     4584.878     1091.645        0.739        0.417       76.838       25.185        0.107      339.626       13.088      864.930
12/03/2021  13:18:00       83.661        2.391      -24.561       80.608       56.954       27.568     6497.705     3243.789      760.002        0.905        0.525       83.695       19.988        0.057      339.702       13.216      864.931
12/03/2021  13:19:00      122.315       29.227      -18.481       77.982       77.161       29.979     6081.153     5953.890      898.735        1.454        0.647      125.758       19.511        0.024      339.596       13.036      864.927
12/03/2021  13:20:00      126.361        2.507      -23.212       54.567       56.264       33.787     2977.600     3165.635     1141.579        1.190        0.364      126.386       16.587        0.017      339.553       12.965      864.925
12/03/2021  13:21:00      122.043       48.060      -18.639       39.959       36.112       19.017     1596.686     1304.110      361.653        1.041        0.163      131.164        3.576        0.001      339.398       12.702      864.925
12/03/2021  13:22:00       92.088       72.821      -23.210       56.236       49.471       29.600     3162.449     2447.402      876.176        1.040        0.324      117.401       23.178        0.039      339.493       12.864      864.919
12/03/2021  13:23:00      104.053       18.533       -7.466       46.497       48.231       28.440     2161.965     2326.215      808.813        0.826        0.265      105.691       15.626        0.022      339.713       13.234      864.907
12/03/2021  13:24:00      158.968      -13.005       -8.157       79.535       61.929       48.573     6325.805     3835.253     2359.357        1.901        0.626      159.499       30.230        0.036      339.660       13.144      864.889
12/03/2021  13:25:00      132.467       56.509      -29.495       30.420       35.603       20.900      925.362     1267.604      436.829        1.212        0.131      144.017       10.375        0.005      339.504       12.882      864.887
12/03/2021  13:26:00       51.046       24.707      -16.304       56.332       28.496       13.717     3173.329      812.004      188.166        0.383        0.209       56.710        7.068        0.016      339.594       13.034      864.870
12/03/2021  13:27:00       37.052      -28.072      -17.204       50.071       42.706       30.078     2507.072     1823.833      904.672        0.385        0.262       46.485       31.721        0.466      339.873       13.505      864.846
12/03/2021  13:28:00       44.338      -85.706      -26.170       33.698       50.367       24.064     1135.559     2536.831      579.058        0.712        0.213       96.496       13.494        0.020      339.883       13.522      864.848
12/03/2021  13:29:00       79.538     -155.584      -39.611       33.523       38.767       31.088     1123.765     1502.910      966.467        1.785        0.180      174.736       23.435        0.018      339.720       13.246      864.837
12/03/2021  13:30:00       89.519     -160.058      -35.696       44.492       56.635       30.512     1979.533     3207.500      931.011        2.051        0.306      183.391       25.965        0.020      339.907       13.561      864.830
12/03/2021  13:31:00      102.537      -54.780      -38.351       63.965       84.299       44.985     4091.580     7106.387     2023.664        1.410        0.661      116.253       31.661        0.074      339.925       13.593      864.817
12/03/2021  13:32:00       84.871      -12.190      -28.265       42.917       82.665       35.619     1841.849     6833.546     1268.710        0.905        0.497       85.742       32.331        0.142      339.919       13.582      864.815
12/03/2021  13:33:00       81.606      -17.462      -14.707       99.415       56.371       45.537     9883.266     3177.741     2073.588        1.115        0.757       83.453       46.374        0.309      340.023       13.757      864.815
12/03/2021  13:34:00      118.603      -12.467      -18.853       78.927       57.247       43.132     6229.533     3277.270     1860.410        1.297        0.568      119.256       44.156        0.137      339.811       13.399      864.817
12/03/2021  13:35:00       65.199       -3.788      -14.423       52.528       54.435       35.466     2759.176     2963.211     1257.862        0.573        0.349       65.309       20.497        0.098      340.070       13.837      864.815
12/03/2021  13:36:00       38.925       -1.771      -20.217       52.814       55.612       29.589     2789.294     3092.643      875.491        0.434        0.338       38.965       26.937        0.478      340.186       14.033      864.817
12/03/2021  13:37:00      111.565      -33.211      -21.338       48.387       70.738       29.600     2341.306     5003.818      876.159        1.111        0.411      116.403       21.787        0.035      339.978       13.681      864.806
12/03/2021  13:38:00      113.091      -11.073      -13.625       77.066       48.173       39.167     5939.136     2320.629     1534.035        1.144        0.490      113.631       31.974        0.079      339.998       13.715      864.807
12/03/2021  13:39:00       52.292       -2.169       -2.724       45.049       44.990       27.268     2029.391     2024.077      743.536        0.377        0.240       52.337       23.019        0.193      340.093       13.876      864.795
12/03/2021  13:40:00       91.437      -40.548      -20.125       61.107       57.635       40.516     3734.112     3321.750     1641.513        0.955        0.435      100.024       19.557        0.038      340.062       13.822      864.773
12/03/2021  13:41:00       70.296       -5.437       -5.104       49.778       48.647       38.360     2477.888     2366.548     1471.453        0.566        0.316       70.506       28.566        0.164      340.140       13.955      864.764
12/03/2021  13:42:00      139.392      -36.905      -32.296       71.486       50.521       41.541     5110.317     2552.395     1725.626        1.561        0.469      144.194       31.039        0.046      340.104       13.893      864.743
12/03/2021  13:43:00       68.699      -56.899      -28.943       58.109       58.462       34.588     3376.676     3417.779     1196.353        0.839        0.400       89.202       18.005        0.041      340.284       14.199      864.735
12/03/2021  13:44:00       42.471      -24.938      -15.166       47.791       68.353       40.824     2284.023     4672.109     1666.573        0.564        0.431       49.251       32.484        0.435      340.431       14.448      864.718
12/03/2021  13:45:00       39.040      -81.400       -9.584       53.384       75.127       31.480     2849.807     5644.078      990.994        0.886        0.474       90.277       36.374        0.162      340.421       14.429      864.678
12/03/2021  13:46:00       40.267       -0.792      -14.448       41.880       69.205       27.350     1753.961     4789.384      748.034        0.456        0.365       40.274       15.881        0.155      340.388       14.373      864.697
12/03/2021  13:47:00       96.537       18.934      -13.421       76.085       43.245       27.836     5788.982     1870.153      774.827        0.914        0.422       98.376       27.152        0.076      340.151       13.973      864.690
12/03/2021  13:48:00       41.327      -28.464       -6.145       60.521       60.655       46.084     3662.744     3678.976     2123.775        0.601        0.473       50.181       32.926        0.431      340.265       14.167      864.665
12/03/2021  13:49:00      128.124      -42.938      -33.174      100.027       68.449       48.936    10005.482     4685.296     2394.752        1.822        0.854      135.128       28.937        0.046      340.279       14.187      864.635
12/03/2021  13:50:00       57.682      -20.070      -19.139       82.122       75.800       54.105     6743.981     5745.584     2927.381        0.975        0.771       61.074       29.025        0.226      340.423       14.432      864.652
12/03/2021  13:51:00      141.280      -30.730      -26.278       80.077       67.852       53.978     6412.406     4603.950     2913.667        1.776        0.697      144.583       48.792        0.114      340.171       14.006      864.641
12/03/2021  13:52:00       90.251      -30.632      -29.565       78.774       75.625       51.408     6205.297     5719.129     2642.753        1.226        0.728       95.308       39.081        0.168      340.220       14.089      864.642
12/03/2021  13:53:00       68.298       39.545       -8.891      108.079       54.688       37.178    11681.117     2990.736     1382.240        1.118        0.803       78.920       34.584        0.192      340.281       14.193      864.659
12/03/2021  13:54:00      161.281       87.607        6.202       80.126       61.788       46.206     6420.178     3817.750     2134.995        2.305        0.619      183.539       43.787        0.057      339.972       13.668      864.646
12/03/2021  13:55:00      214.124       61.637      -13.871       68.373       50.767       23.466     4674.839     2577.301      550.632        2.882        0.390      222.819       17.404        0.006      339.948       13.628      864.653
12/03/2021  13:56:00      168.363       52.663      -16.822       40.962       28.674       19.438     1677.862      822.205      377.848        1.714        0.144      176.407       12.563        0.005      339.920       13.581      864.657
12/03/2021  13:57:00      164.783       56.540      -21.560       63.443       27.398       22.369     4025.057      750.624      500.360        1.804        0.264      174.214       12.785        0.005      339.963       13.655      864.652
12/03/2021  13:58:00      144.430       75.256      -18.000       51.213       36.326       23.344     2622.735     1319.575      544.938        1.567        0.224      162.860       17.358        0.011      340.105       13.895      864.652
12/03/2021  13:59:00       83.520       17.891       -5.250       53.243       52.590       35.287     2834.857     2765.681     1245.147        0.708        0.342       85.415       28.352        0.110      340.392       14.378      864.636
12/03/2021  14:00:00       96.576      -19.582      -11.491       56.374       68.759       43.731     3177.991     4727.733     1912.376        0.983        0.491       98.541       33.325        0.114      340.325       14.267      864.623
12/03/2021  14:01:00      104.058      -35.226      -32.232       41.373       83.911       31.873     1711.701     7041.064     1015.874        1.144        0.488      109.859       24.248        0.049      340.211       14.075      864.628
12/03/2021  14:02:00       60.986      -13.806       -7.192       73.161       56.085       47.268     5352.476     3145.509     2234.224        0.734        0.537       62.529       39.002        0.389      340.474       14.520      864.615
12/03/2021  14:03:00      100.752      -15.908      -25.868       62.323       76.984       41.703     3884.111     5926.575     1739.137        1.131        0.577      102.000       32.481        0.101      340.252       14.143      864.610
12/03/2021  14:04:00       72.139      -97.249      -24.082       53.236       67.763       37.257     2834.024     4591.858     1388.120        1.203        0.441      121.084       35.167        0.084      340.329       14.275      864.616
12/03/2021  14:05:00       68.718      -53.172      -18.775       81.806       55.849       46.023     6692.260     3119.074     2118.144        0.991        0.596       86.887       36.297        0.175      340.356       14.319      864.603
12/03/2021  14:06:00       69.692      -35.933       -4.638       61.929       55.513       45.480     3835.148     3081.743     2068.417        0.758        0.449       78.410       44.452        0.321      340.302       14.229      864.586
12/03/2021  14:07:00       27.256      -67.646      -16.908       23.704       33.256       20.708      561.866     1105.942      428.825        0.385        0.105       72.931       18.258        0.063      340.243       14.129      864.617
12/03/2021  14:08:00       56.546       -8.176      -10.929       33.129       45.989       31.051     1097.500     2114.981      964.150        0.378        0.209       57.134       19.287        0.114      340.433       14.450      864.619
12/03/2021  14:09:00       90.021      -16.658      -18.358       65.700       55.597       38.332     4316.491     3091.027     1469.355        0.880        0.444       91.549       28.516        0.097      340.275       14.182      864.598
12/03/2021  14:10:00       94.182      -44.519      -20.747       79.854       77.872       36.877     6376.719     6064.123     1359.928        1.254        0.690      104.174       23.316        0.050      340.319       14.256      864.571
12/03/2021  14:11:00       99.066     -105.898      -25.905       75.629       54.160       35.170     5719.737     2933.309     1236.941        1.579        0.494      145.012       33.394        0.053      340.236       14.117      864.574
12/03/2021  14:12:00      124.515      -34.475      -25.813       71.751       53.275       51.022     5148.157     2838.244     2603.206        1.397        0.529      129.199       31.540        0.060      340.350       14.310      864.558
12/03/2021  14:13:00      121.515      -19.589      -18.858       79.546       61.487       56.850     6327.550     3780.680     3231.934        1.442        0.667      123.084       51.695        0.176      340.318       14.254      864.543
12/03/2021  14:14:00       49.033      -18.950      -22.441       41.721       50.657       36.590     1740.674     2566.115     1338.858        0.446        0.282       52.568       27.713        0.278      340.440       14.462      864.562
12/03/2021  14:15:00       85.536       38.936      -14.472       35.020       30.094       23.543     1226.379      905.656      554.288        0.586        0.134       93.981       11.830        0.016      340.303       14.229      864.568
12/03/2021  14:16:00       44.376        5.284      -15.642       61.186       48.376       32.159     3743.668     2340.280     1034.221        0.468        0.356       44.690       19.602        0.192      340.576       14.692      864.559
12/03/2021  14:17:00       41.374        1.862      -17.927       66.413       68.124       54.910     4410.692     4640.915     3015.103        0.705        0.603       41.416       41.533        1.006      340.519       14.596      864.532
12/03/2021  14:18:00      103.123      -39.941      -18.966       82.015       57.807       53.036     6726.496     3341.633     2812.818        1.273        0.644      110.588       52.574        0.226      340.363       14.331      864.539
12/03/2021  14:19:00       48.484      -12.291        2.240       61.446       43.277       46.124     3775.565     1872.906     2127.407        0.514        0.389       50.018       37.972        0.576      340.434       14.451      864.536
12/03/2021  14:20:00       66.768      -34.386      -13.487       43.000       45.240       31.553     1848.981     2046.668      995.593        0.536        0.245       75.103       29.218        0.151      340.350       14.311      864.545
12/03/2021  14:21:00       89.701      -62.274      -37.227       30.012       34.238       26.829      900.703     1172.212      719.774        0.805        0.140      109.198       18.763        0.030      340.206       14.067      864.545
12/03/2021  14:22:00       74.316       -6.591      -19.180       26.155       32.450       21.680      684.065     1052.983      470.004        0.407        0.110       74.608       11.868        0.025      340.338       14.290      864.545
12/03/2021  14:23:00       87.942      -32.570       -7.200       88.263       61.366       47.639     7790.367     3765.787     2269.487        1.133        0.691       93.780       54.838        0.342      340.511       14.581      864.517
12/03/2021  14:24:00       90.179      -29.819       -6.280       74.415       45.800       46.920     5537.663     2097.673     2201.475        0.945        0.492       94.981       47.152        0.246      340.513       14.585      864.513
12/03/2021  14:25:00      149.808      -11.838      -24.813       62.195       63.119       40.442     3868.205     3983.947     1635.521        1.634        0.474      150.275       25.373        0.029      340.332       14.277      864.497
12/03/2021  14:26:00       96.880      -38.473      -15.526       50.432       56.598       34.305     2543.365     3203.327     1176.839        0.901        0.346      104.240       32.071        0.095      340.528       14.609      864.499
12/03/2021  14:27:00       90.296      -26.781      -17.697       74.323       62.162       45.765     5523.883     3864.172     2094.474        1.033        0.574       94.184       31.316        0.111      340.441       14.462      864.481
12/03/2021  14:28:00      132.713      -34.023      -17.680       69.789       53.032       45.993     4870.497     2812.445     2115.357        1.444        0.490      137.005       35.626        0.068      340.410       14.411      864.466
12/03/2021  14:29:00       60.401      -18.587      -11.471       73.273       49.490       38.978     5368.969     2449.291     1519.313        0.673        0.467       63.196       37.684        0.356      340.491       14.548      864.465
12/03/2021  14:30:00       66.995       -6.594      -35.544       50.383       51.246       36.305     2538.435     2626.178     1318.072        0.614        0.324       67.319       32.318        0.230      340.548       14.644      864.467
12/03/2021  14:31:00       69.526       21.871      -11.018       48.816       46.428       26.782     2383.028     2155.545      717.294        0.534        0.263       72.885       25.053        0.118      340.610       14.748      864.474
12/03/2021  14:32:00       49.961      -21.706      -17.129       52.388       57.279       24.133     2744.471     3280.884      582.392        0.493        0.330       54.473       17.109        0.099      340.557       14.660      864.478
12/03/2021  14:33:00       92.170      -58.465      -26.816       42.996       53.608       37.176     1848.679     2873.780     1382.022        0.937        0.305      109.149       27.143        0.062      340.453       14.483      864.469
12/03/2021  14:34:00       70.871      -19.818       -9.459       46.380       27.315       19.930     2151.118      746.086      397.213        0.440        0.165       73.590       17.065        0.054      340.473       14.519      864.464
12/03/2021  14:35:00       65.745      -35.745      -18.855       57.216       54.881       37.229     3273.670     3011.948     1386.033        0.681        0.384       74.833       34.994        0.219      340.492       14.550      864.452
12/03/2021  14:36:00      106.616      -41.634      -13.825       48.110       41.420       32.705     2314.595     1715.578     1069.624        0.919        0.255      114.457       31.287        0.075      340.483       14.534      864.459
12/03/2021  14:37:00       72.629       -4.992      -28.472       56.435       44.362       39.739     3184.884     1968.006     1579.166        0.642        0.337       72.800       32.847        0.204      340.618       14.762      864.469
12/03/2021  14:38:00       90.775      -35.127      -12.824       64.811       34.488       37.594     4200.501     1189.430     1413.342        0.822        0.340       97.335       38.366        0.155      340.470       14.511      864.481
12/03/2021  14:39:00       46.587      -11.211      -20.892       43.623       53.430       34.961     1902.935     2854.717     1222.268        0.436        0.299       47.917       23.176        0.234      340.595       14.724      864.485
12/03/2021  14:40:00       56.795     -101.299      -33.418       30.746       70.001       25.955      945.344     4900.144      673.646        1.056        0.326      116.135       27.360        0.056      340.584       14.705      864.488
12/03/2021  14:41:00       95.891      -50.508      -12.950       73.815       46.444       44.751     5448.705     2157.001     2002.659        1.076        0.480      108.379       41.332        0.145      340.595       14.723      864.477
12/03/2021  14:42:00       49.775       -4.221      -12.663       47.956       51.157       31.431     2299.775     2617.024      987.896        0.428        0.295       49.953       25.130        0.253      340.638       14.798      864.499
12/03/2021  14:43:00      116.473       18.327      -17.154       79.651       80.014       36.539     6344.276     6402.257     1335.110        1.414        0.704      117.906       28.567        0.059      340.547       14.641      864.508
12/03/2021  14:44:00       89.057       -8.837        1.764       67.356       38.398       38.752     4536.854     1474.408     1501.754        0.776        0.376       89.494       36.337        0.165      340.580       14.699      864.511
12/03/2021  14:45:00       65.974       -1.956        1.065       51.478       35.312       26.441     2649.966     1246.958      699.132        0.448        0.230       66.003       24.513        0.138      340.538       14.628      864.524
12/03/2021  14:46:00       77.605      -15.574       -7.693       44.019       21.513       18.294     1937.704      462.811      334.663        0.453        0.137       79.153       19.354        0.060      340.488       14.542      864.525
12/03/2021  14:47:00       72.560      -19.930      -20.725       70.236       58.866       39.854     4933.079     3465.155     1588.366        0.804        0.499       75.248       29.306        0.152      340.577       14.693      864.507
12/03/2021  14:48:00       94.663      -42.778      -16.666       71.777       82.912       45.107     5151.881     6874.355     2034.678        1.256        0.703      103.880       44.180        0.181      340.588       14.712      864.495
12/03/2021  14:49:00       52.525        2.483      -12.180       62.698       64.819       42.606     3931.085     4201.454     1815.290        0.643        0.497       52.583       22.101        0.177      340.722       14.940      864.514
12/03/2021  14:50:00      147.447       54.340      -23.969       46.447       31.210       30.847     2157.362      974.047      951.564        1.467        0.204      157.142       22.739        0.021      340.377       14.354      864.521
12/03/2021  14:51:00       48.003       10.677       -0.376       46.324       51.185       31.476     2145.910     2619.929      990.709        0.409        0.288       49.176       25.130        0.261      340.563       14.672      864.518
12/03/2021  14:52:00       35.367        4.573      -13.521       40.186       46.404       33.870     1614.944     2153.339     1147.201        0.318        0.246       35.662       21.976        0.380      340.617       14.761      864.505
12/03/2021  14:53:00       31.386       -9.382      -14.189       53.839       46.967       44.808     2898.673     2205.907     2007.768        0.419        0.356       32.759       32.893        1.008      340.587       14.710      864.497
12/03/2021  14:54:00       63.172      -54.082      -25.343       65.770       55.038       34.929     4325.630     3029.133     1220.046        0.806        0.429       83.160       30.995        0.139      340.521       14.600      864.483
12/03/2021  14:55:00       77.496      -36.785       -8.489       50.688       28.112       27.085     2569.267      790.301      733.601        0.576        0.205       85.783       23.091        0.072      340.546       14.642      864.483
12/03/2021  14:56:00       87.947      -54.661      -27.155       65.801       54.024       41.142     4329.827     2918.573     1692.652        1.020        0.447      103.549       34.161        0.109      340.523       14.602      864.466
12/03/2021  14:57:00       46.607       -7.232       -4.483       60.876       49.314       42.651     3705.860     2431.909     1819.144        0.510        0.398       47.165       36.481        0.598      340.682       14.870      864.464
12/03/2021  14:58:00       50.638       -9.776       -8.049       68.495       70.042       52.440     4691.572     4905.910     2749.922        0.753        0.617       51.573       44.220        0.735      340.707       14.914      864.475
12/03/2021  14:59:00       48.352      -29.241      -23.139       46.081       47.842       27.566     2123.497     2288.903      759.896        0.445        0.259       56.506        8.360        0.022      340.645       14.810      864.479
12/03/2021  15:00:00       53.686        0.974      -19.713       42.877       53.321       34.856     1838.475     2843.146     1214.913        0.458        0.295       53.695       25.040        0.217      340.642       14.804      864.474
12/03/2021  15:01:00       86.199      -26.708       -4.460       61.126       47.457       34.256     3736.374     2252.185     1173.504        0.766        0.358       90.242       37.283        0.171      340.581       14.700      864.467
12/03/2021  15:02:00       57.645      -14.667       -3.367       66.099       49.468       51.444     4369.016     2447.055     2646.472        0.650        0.473       59.482       43.439        0.533      340.589       14.714      864.481
12/03/2021  15:03:00       62.533      -23.217      -32.965       50.040       48.125       36.148     2504.043     2316.016     1306.695        0.583        0.306       66.704       33.238        0.248      340.555       14.656      864.495
12/03/2021  15:04:00      103.786      -31.646      -25.141       42.569       57.528       35.976     1812.128     3309.456     1294.275        0.941        0.321      108.503       25.839        0.057      340.550       14.649      864.506
12/03/2021  15:05:00       84.444      -33.221      -27.406       59.786       63.523       38.316     3574.420     4035.144     1468.118        0.903        0.454       90.743       32.687        0.130      340.609       14.747      864.513
12/03/2021  15:06:00      121.187      -46.835      -24.080       35.495       30.100       21.751     1259.861      906.028      473.095        1.005        0.132      129.923       20.448        0.025      340.431       14.447      864.513
12/03/2021  15:07:00       82.961      -17.529       -6.193       63.325       44.023       43.500     4010.013     1938.056     1892.210        0.753        0.392       84.792       41.363        0.238      340.549       14.646      864.519
12/03/2021  15:08:00       62.537      -21.634       -7.817       60.853       36.681       37.144     3703.128     1345.480     1379.663        0.543        0.321       66.174       38.151        0.332      340.582       14.704      864.525
12/03/2021  15:09:00       39.134      -17.975      -12.678       38.434       24.960       23.270     1477.208      623.007      541.494        0.233        0.132       43.064       23.913        0.308      340.546       14.640      864.537
12/03/2021  15:10:00        5.412       -0.591      -12.056       17.985       21.611       17.432      323.444      467.020      303.876        0.063        0.055        5.444        9.629        3.128      340.646       14.810      864.549
12/03/2021  15:11:00       68.015        7.807      -10.925       52.658       38.681       12.172     2772.872     1496.227      148.166        0.461        0.221       68.461        6.398        0.009      340.589       14.713      864.557
12/03/2021  15:12:00       67.686       -1.209       -4.471       49.914       40.614       25.061     2491.405     1649.499      628.052        0.469        0.238       67.697       26.296        0.151      340.580       14.698      864.555
12/03/2021  15:13:00       50.927       18.582      -11.959       45.630       48.358       28.346     2082.105     2338.510      803.485        0.415        0.261       54.211       23.191        0.183      340.617       14.763      864.555
12/03/2021  15:14:00       71.030      -27.496      -20.736       68.967       50.791       32.339     4756.448     2579.740     1045.827        0.731        0.419       76.167       29.680        0.152      340.635       14.791      864.554
12/03/2021  15:15:00       82.170       -7.053      -11.616       54.667       31.441       19.911     2988.429      988.546      396.440        0.565        0.219       82.472       25.181        0.093      340.502       14.566      864.550
12/03/2021  15:16:00       64.635      -32.599      -13.717       44.342       42.645       23.607     1966.191     1818.634      557.293        0.488        0.217       72.390       29.807        0.170      340.561       14.666      864.540
12/03/2021  15:17:00       78.284      -15.018      -26.023       58.878       50.566       36.198     3466.677     2556.896     1310.264        0.718        0.367       79.711       27.433        0.118      340.578       14.695      864.525
12/03/2021  15:18:00       78.857      -13.863       -9.388       65.236       50.518       36.695     4255.676     2552.034     1346.514        0.732        0.408       80.066       35.875        0.201      340.632       14.786      864.520
12/03/2021  15:19:00       77.942      -39.337      -15.232       56.586       55.837       33.960     3201.961     3117.772     1153.298        0.766        0.374       87.306       28.588        0.107      340.605       14.741      864.512
12/03/2021  15:20:00       85.260      -30.680      -18.890       60.046       46.945       43.476     3605.560     2203.816     1890.167        0.813        0.385       90.612       42.684        0.222      340.565       14.672      864.507
12/03/2021  15:21:00      112.334      -57.645      -19.455       59.446       39.421       31.713     3533.791     1554.002     1005.727        1.121        0.305      126.261       24.220        0.037      340.595       14.724      864.504
12/03/2021  15:22:00      105.778      -28.774      -19.459       82.059       65.993       47.082     6733.710     4355.017     2216.746        1.285        0.665      109.622       39.109        0.127      340.604       14.739      864.491
12/03/2021  15:23:00      116.961      -27.278      -14.007       66.621       50.580       42.410     4438.384     2558.367     1798.567        1.171        0.440      120.100       37.774        0.099      340.542       14.633      864.481
12/03/2021  15:24:00       71.036       -8.008      -19.470       69.049       40.561       39.197     4767.804     1645.225     1536.369        0.672        0.397       71.486       39.019        0.298      340.595       14.724      864.484
12/03/2021  15:25:00       41.355       -2.763      -17.086       46.314       38.346       23.312     2144.985     1470.404      543.441        0.308        0.208       41.448       18.507        0.199      340.612       14.754      864.493
12/03/2021  15:26:00       28.484      -33.040      -10.068       31.209       40.220       25.905      973.982     1617.654      671.087        0.263        0.163       43.623       19.570        0.201      340.681       14.870      864.496
12/03/2021  15:27:00       78.834      -32.336      -17.265       48.955       46.745       35.881     2396.609     2185.084     1287.424        0.671        0.293       85.208       27.357        0.103      340.596       14.725      864.500
12/03/2021  15:28:00      107.242        4.264      -19.201       50.190       41.040       24.063     2519.043     1684.274      579.015        0.833        0.239      107.327       22.709        0.045      340.569       14.680      864.511
12/03/2021  15:29:00      135.616       33.369      -21.549       28.306       30.669       15.805      801.237      940.615      249.803        1.098        0.100      139.661       12.300        0.008      340.566       14.673      864.519
12/03/2021  15:30:00       65.120       27.674       -9.778       40.564       26.406       22.807     1645.402      697.250      520.167        0.398        0.143       70.757       22.080        0.097      340.576       14.692      864.530
12/03/2021  15:31:00       52.266       33.115      -10.027       13.635        9.595        7.136      185.909       92.059       50.929        0.213        0.016       61.874        3.944        0.004      340.522       14.601      864.533
12/03/2021  15:32:00       44.975       30.677      -20.151       19.790       14.593       14.191      391.660      212.949      201.378        0.209        0.040       54.441        8.275        0.023      340.556       14.660      864.536
12/03/2021  15:33:00       14.969        4.972       -4.738       11.730       16.833        8.053      137.597      283.355       64.852        0.038        0.024       15.773        5.897        0.140      340.624       14.775      864.533
12/03/2021  15:34:00        0.295        5.661       -1.685        2.902        5.906        5.623        8.424       34.880       31.614        0.005        0.004        5.668        2.141        0.143      340.765       15.013      864.531
12/03/2021  15:35:00       40.036        8.700       -5.689       20.814       12.395        9.660      433.231      153.631       93.308        0.120        0.034       40.970        8.366        0.042      340.604       14.737      864.535
12/03/2021  15:36:00       35.043       28.769       -6.738       15.874       10.469        8.571      251.972      109.594       73.462        0.127        0.022       45.339        7.439        0.027      340.590       14.716      864.538
12/03/2021  15:37:00       19.780       11.880       -2.875       26.869       35.186       21.526      721.938     1238.082      463.380        0.148        0.121       23.073       14.223        0.380      340.623       14.771      864.532
12/03/2021  15:38:00       17.297       -4.366       -3.494       26.986       40.254       20.556      728.240     1620.352      422.569        0.155        0.139       17.840        5.875        0.108      340.641       14.802      864.531
12/03/2021  15:39:00       49.912       13.854       -7.205       29.906       29.987       16.926      894.376      899.236      286.476        0.241        0.104       51.799        7.420        0.021      340.559       14.664      864.538
12/03/2021  15:40:00       40.834      -28.370      -10.022       42.752       21.764       24.489     1827.776      473.656      599.726        0.274        0.145       49.722       22.344        0.202      340.589       14.714      864.535
12/03/2021  15:41:00       32.253        1.606      -17.963       35.104       29.711       28.952     1232.268      882.764      838.209        0.216        0.148       32.293       16.893        0.274      340.565       14.674      864.530
12/03/2021  15:42:00       28.590       -2.831      -10.765       26.084       26.306       27.035      680.393      692.031      730.872        0.152        0.105       28.730       19.370        0.455      340.611       14.752      864.536
12/03/2021  15:43:00       19.611       -5.327      -17.919       26.884       22.668       17.943      722.767      513.833      321.942        0.115        0.078       20.322       13.876        0.466      340.576       14.692      864.540
12/03/2021  15:44:00       24.392      -15.953      -12.952       31.694       22.135       20.953     1004.527      489.974      439.010        0.148        0.097       29.146       17.908        0.378      340.613       14.756      864.544
12/03/2021  15:45:00       23.447       -4.904      -24.520       25.435       25.484       22.423      646.954      649.424      502.779        0.149        0.090       23.954       17.535        0.536      340.613       14.755      864.545
12/03/2021  15:46:00       31.925        3.243      -30.288       20.049       30.943       21.281      401.965      957.465      452.876        0.188        0.091       32.089        6.993        0.047      340.608       14.747      864.551
12/03/2021  15:47:00       32.498      -10.399      -11.644       25.846       20.036       19.400      668.019      401.444      376.359        0.137        0.072       34.121       17.198        0.254      340.651       14.818      864.558
12/03/2021  15:48:00       28.882        1.194       -6.276       26.222       23.862       20.668      687.579      569.412      427.157        0.128        0.084       28.907       20.538        0.505      340.629       14.780      864.556
12/03/2021  15:49:00       55.304       -2.273      -12.738       29.001       28.576       15.900      841.073      816.581      252.809        0.257        0.096       55.350        8.889        0.026      340.496       14.555      864.557
12/03/2021  15:50:00       51.882       -4.166      -17.955       23.480       21.492       14.286      551.326      461.892      204.094        0.212        0.061       52.049       12.275        0.056      340.468       14.507      864.566
12/03/2021  15:51:00       47.442       -3.586       -8.568       26.520       14.571       15.157      703.331      212.315      229.722        0.174        0.057       47.578       14.439        0.092      340.483       14.534      864.568
12/03/2021  15:52:00       27.957       -5.151      -10.619       21.345       25.737       13.977      455.601      662.396      195.367        0.112        0.066       28.428        7.812        0.076      340.433       14.449      864.572
12/03/2021  15:53:00       28.221       10.003      -17.430       35.379       37.788       18.993     1251.647     1427.958      360.732        0.212        0.152       29.942       10.453        0.122      340.484       14.534      864.569
12/03/2021  15:54:00       51.641       13.100      -14.377       38.224       29.800       17.548     1461.042      888.056      307.947        0.285        0.133       53.276       11.343        0.045      340.535       14.621      864.570
12/03/2021  15:55:00       27.859       -5.759       -9.149       19.783       21.034       16.602      391.367      442.430      275.626        0.100        0.055       28.448       14.524        0.261      340.533       14.619      864.568
12/03/2021  15:56:00       33.873      -14.265      -10.074        7.694        8.741        8.030       59.194       76.404       64.475        0.083        0.010       36.754        4.134        0.013      340.480       14.528      864.565
12/03/2021  15:57:00       15.737      -15.816       -6.459       23.272       14.802       18.150      541.582      219.094      329.413        0.081        0.055       22.312       16.430        0.542      340.561       14.666      864.557
12/03/2021  15:58:00       32.542      -16.315      -16.018       17.929       18.536       12.599      321.451      343.571      158.730        0.120        0.041       36.403        6.972        0.037      340.426       14.439      864.550
12/03/2021  15:59:00       38.508       -9.067      -11.313       15.201       11.457        9.015      231.068      131.260       81.262        0.107        0.022       39.561        6.650        0.028      340.458       14.491      864.546
12/03/2021  16:00:00       42.068      -19.291       -8.725       19.338       17.948       12.984      373.951      322.133      168.583        0.154        0.043       46.280       10.996        0.056      340.481       14.531      864.535
12/03/2021  16:01:00       23.477      -10.819       -5.958       26.712       15.801       10.797      713.535      249.687      116.580        0.089        0.054       25.850        9.230        0.128      340.508       14.576      864.531
12/03/2021  16:02:00      -10.388      -14.111      -19.623       15.188       12.024       13.967      230.661      144.570      195.082        0.063        0.029       17.523        7.419        0.179      340.559       14.663      864.530
12/03/2021  16:03:00        3.036      -19.422      -23.733       11.398       15.693       13.839      129.907      246.259      191.531        0.076        0.028       19.658       11.926        0.368      340.582       14.701      864.525
12/03/2021  16:04:00       12.878       -7.644       -7.888       11.286       11.601       10.349      127.379      134.576      107.096        0.033        0.018       14.976        8.420        0.316      340.567       14.677      864.527
12/03/2021  16:05:00      -15.925        8.358       -9.886       25.999       15.958        9.598      675.954      254.660       92.122        0.072        0.051       17.985        8.944        0.247      340.481       14.532      864.527
12/03/2021  16:06:00      -10.687      -10.159      -10.837       29.671       19.947       22.930      880.358      397.874      525.781        0.107        0.090       14.745       14.426        0.957      340.589       14.714      864.533
12/03/2021  16:07:00        6.492      -18.390        0.450       21.121       21.047       25.141      446.103      442.958      632.076        0.095        0.076       19.503       16.835        0.745      340.562       14.668      864.535
12/03/2021  16:08:00       -0.144      -11.815       -2.827       15.654       16.573       11.591      245.056      274.669      134.351        0.040        0.033       11.816       10.487        0.788      340.525       14.606      864.544
12/03/2021  16:09:00        1.487       10.693       -7.326       11.266       17.630       11.560      126.917      310.800      133.643        0.037        0.029       10.796        9.108        0.712      340.457       14.489      864.548
12/03/2021  16:10:00        2.220       -1.360       -8.255        7.654        6.811        7.443       58.578       46.386       55.392        0.012        0.008        2.604        5.814        4.985      340.452       14.482      864.553
12/03/2021  16:11:00        4.210       -2.461       -2.463       10.047       13.754       18.203      100.937      189.163      331.352        0.033        0.031        4.877       11.041        5.126      340.406       14.403      864.557
12/03/2021  16:12:00        4.317      -18.419      -17.685       11.864       17.167       11.564      140.744      294.708      133.715        0.062        0.028       18.919        9.015        0.227      340.291       14.210      864.558
12/03/2021  16:13:00        8.295        3.808       -6.794       13.503       17.734       11.104      182.325      314.511      123.300        0.037        0.031        9.128       10.111        1.227      340.395       14.388      864.566
12/03/2021  16:14:00        0.814        3.681       -7.292       12.891       14.694        8.887      166.168      215.908       78.971        0.026        0.023        3.770        5.749        2.325      340.400       14.395      864.572
12/03/2021  16:15:00      -24.392       18.566       -4.417       15.195       17.081       14.925      230.903      291.746      222.769        0.085        0.037       30.654        9.603        0.098      340.309       14.241      864.576
12/03/2021  16:16:00       19.961       10.281        0.949       17.448       14.188       18.108      304.449      201.296      327.898        0.067        0.042       22.453        8.902        0.157      340.276       14.185      864.579
12/03/2021  16:17:00        9.819      -10.070      -12.159       21.799        7.459        9.107      475.187       55.638       82.933        0.048        0.031       14.065       10.696        0.578      340.200       14.055      864.582
12/03/2021  16:18:00      -13.955       11.600      -22.371       13.054       14.090       11.099      170.394      198.535      123.197        0.066        0.025       18.147        9.708        0.286      340.336       14.287      864.589
12/03/2021  16:19:00        7.560       11.784      -16.774        9.586       10.928       10.868       91.892      119.417      118.124        0.040        0.016       14.001        5.498        0.154      340.303       14.232      864.587
12/03/2021  16:20:00      -14.620       24.933       -4.280       12.381       16.644       14.724      153.295      277.028      216.782        0.075        0.032       28.903        9.629        0.111      340.237       14.118      864.590
12/03/2021  16:21:00       -3.388       12.562      -10.310       12.915       10.559       11.746      166.785      111.489      137.970        0.035        0.021       13.011        6.832        0.276      340.214       14.078      864.585
12/03/2021  16:22:00       11.988       -9.334       -9.693       14.676       14.294       10.510      215.395      204.312      110.454        0.043        0.027       15.193        9.271        0.372      340.162       13.992      864.583
12/03/2021  16:23:00      -10.769      -12.729      -12.424       12.842       11.115       10.525      164.908      123.552      110.783        0.042        0.020       16.673        7.632        0.210      340.179       14.021      864.587
12/03/2021  16:24:00        0.397       -0.017      -14.128       11.725       14.356        8.213      137.486      206.107       67.455        0.031        0.021        0.397        8.643      473.188      340.164       13.993      864.593
12/03/2021  16:25:00       -8.585        6.234      -11.849       12.481       12.682       14.894      155.786      160.839      221.840        0.040        0.027       10.609        6.739        0.403      340.124       13.929      864.594
12/03/2021  16:26:00       -7.709        6.003      -10.420       16.324       10.672       10.058      266.470      113.887      101.158        0.034        0.024        9.770        5.912        0.366      340.129       13.938      864.605
12/03/2021  16:27:00      -29.282        8.542       -4.241       13.685        9.144        9.932      187.290       83.615       98.647        0.066        0.018       30.503        7.793        0.065      340.145       13.963      864.607
12/03/2021  16:28:00      -20.779        9.178       -9.843       11.215        7.330        8.507      125.780       53.729       72.361        0.043        0.013       22.716        5.557        0.060      340.188       14.035      864.603
12/03/2021  16:29:00      -43.157        9.159      -12.831       10.323        6.597       11.672      106.559       43.519      136.237        0.120        0.014       44.118        3.315        0.006      339.882       13.521      864.596
12/03/2021  16:30:00      -52.020       -7.354       -1.872       31.971       24.889       18.929     1022.142      619.485      358.310        0.238        0.100       52.537        6.866        0.017      340.031       13.771      864.593
12/03/2021  16:31:00      -75.237      -22.802       -4.851       39.003       26.449       20.418     1521.222      699.532      416.881        0.442        0.132       78.617       14.757        0.035      340.137       13.950      864.588
12/03/2021  16:32:00     -108.724      -24.234      -13.750       25.907       19.818       21.579      671.165      392.758      465.657        0.706        0.076      111.392       16.539        0.022      340.258       14.153      864.586
12/03/2021  16:33:00      -88.006      -43.656       -9.555       35.767       27.375       17.910     1279.271      749.380      320.770        0.605        0.117       98.239       13.795        0.020      340.228       14.102      864.585
12/03/2021  16:34:00      -73.714      -24.112       -9.902       47.683       19.817       22.615     2273.696      392.719      511.438        0.464        0.159       77.558       20.806        0.072      340.194       14.046      864.590
12/03/2021  16:35:00      -99.066      -32.480      -16.815       24.731       39.857       21.795      611.641     1588.612      475.042        0.691        0.134      104.255       13.699        0.017      340.233       14.112      864.592
12/03/2021  16:36:00     -115.746      -50.776      -19.370       18.763       24.240       13.982      352.032      587.584      195.505        0.874        0.057      126.394        8.077        0.004      340.204       14.061      864.587
12/03/2021  16:37:00      -95.253      -38.842      -19.246       24.155       25.727       15.743      583.468      661.893      247.848        0.622        0.075      102.868       12.023        0.014      340.150       13.971      864.589
12/03/2021  16:38:00     -102.314      -31.001      -18.737       29.364       37.396       16.693      862.229     1398.431      278.664        0.716        0.127      106.908       13.010        0.015      340.159       13.987      864.580
12/03/2021  16:39:00      -97.685      -27.854      -12.588       24.221       26.499       18.475      586.635      702.204      341.342        0.605        0.082      101.578       13.012        0.016      340.141       13.954      864.571
12/03/2021  16:40:00      -85.412      -18.061       -9.116       26.748       18.465       15.729      715.445      340.946      247.411        0.450        0.065       87.301        4.905        0.003      340.053       13.806      864.578
12/03/2021  16:41:00      -67.695      -18.892       -8.111       29.153       26.376       17.713      849.925      695.694      313.759        0.343        0.093       70.282       16.461        0.055      340.051       13.805      864.582
12/03/2021  16:42:00      -86.618      -39.426       -7.858       18.480       15.774       15.812      341.498      248.824      250.032        0.498        0.042       95.169       11.129        0.014      340.039       13.784      864.590
12/03/2021  16:43:00      -93.282      -58.575      -11.204       13.200       27.731       13.438      174.227      769.023      180.575        0.669        0.056      110.148        8.882        0.007      340.062       13.823      864.608
12/03/2021  16:44:00      -62.982       -5.732       -6.497       25.689       29.264       16.109      659.939      856.360      259.512        0.291        0.089       63.243       14.947        0.056      339.790       13.362      864.620
12/03/2021  16:45:00      -77.027       17.395       -8.838       15.793       12.727       12.898      249.416      161.982      166.370        0.345        0.029       78.967        8.007        0.010      339.319       12.570      864.636
12/03/2021  16:46:00      -84.557       20.122      -10.490       12.563       14.161        9.070      157.835      200.541       82.257        0.405        0.022       86.918        2.287        0.001      339.328       12.586      864.645
12/03/2021  16:47:00      -64.145        0.711      -12.582       28.937       18.240       20.207      837.344      332.682      408.320        0.293        0.079       64.149       19.306        0.091      339.030       12.083      864.655
12/03/2021  16:48:00      -65.506        0.484       -6.264       24.518       21.980       15.558      601.155      483.112      242.040        0.283        0.066       65.507        8.882        0.018      339.021       12.069      864.647
12/03/2021  16:49:00      -80.000        0.657       -5.628       20.942       23.179       15.188      438.568      537.255      230.686        0.382        0.060       80.002       11.848        0.022      339.368       12.653      864.649
12/03/2021  16:50:00      -75.907       10.029       -7.475       24.368       23.725       15.602      593.777      562.875      243.415        0.366        0.070       76.567        9.602        0.016      339.212       12.391      864.648
12/03/2021  16:51:00      -60.245       15.993       -4.748       38.594       32.524       14.109     1489.481     1057.834      199.053        0.333        0.137       62.332       16.868        0.073      339.206       12.379      864.654
12/03/2021  16:52:00      -60.251        8.150       -4.990       35.489       25.430       18.867     1259.467      646.667      355.978        0.299        0.113       60.800        8.872        0.021      339.153       12.292      864.665
12/03/2021  16:53:00     -122.939      -12.421      -13.869       39.531       24.130       18.272     1562.715      582.236      333.864        0.897        0.124      123.565       15.279        0.015      339.359       12.639      864.672
12/03/2021  16:54:00      -69.155       -4.494      -10.429       35.453       29.138       16.003     1256.924      849.033      256.103        0.364        0.118       69.301       12.173        0.031      339.372       12.659      864.685
12/03/2021  16:55:00      -72.879       -9.861      -10.283       37.929       25.139       13.434     1438.627      631.961      180.476        0.388        0.113       73.543        9.714        0.017      339.155       12.294      864.691
12/03/2021  16:56:00      -85.799      -12.789       -8.508       34.015       40.540       22.481     1157.039     1643.524      505.389        0.545        0.165       86.747       13.766        0.025      339.241       12.440      864.705
12/03/2021  16:57:00      -67.548       -0.013      -14.539       34.980       24.354       17.418     1223.582      593.101      303.389        0.345        0.106       67.548       15.015        0.049      339.097       12.198      864.705
12/03/2021  16:58:00      -57.004       12.151       -6.477       34.615       30.076       16.747     1198.171      904.544      280.469        0.291        0.119       58.285        6.005        0.011      338.972       11.985      864.722
12/03/2021  16:59:00      -79.660       19.945       -8.731       29.926       24.533       19.208      895.583      601.887      368.958        0.434        0.093       82.119        6.149        0.006      339.019       12.066      864.742
12/03/2021  17:00:00      -93.828       24.528       -7.649       34.241       33.571       18.699     1172.438     1127.008      349.659        0.606        0.132       96.981       13.611        0.020      338.901       11.868      864.755
12/03/2021  17:01:00     -135.597       45.419       -5.841       18.666       19.068       12.422      348.420      363.584      154.295        1.067        0.043      143.001        8.700        0.004      338.767       11.643      864.768
12/03/2021  17:02:00     -128.440       31.359      -16.028       25.252       22.369       16.873      637.684      500.373      284.707        0.958        0.071      132.213       13.884        0.011      338.621       11.396      864.771
12/03/2021  17:03:00      -93.739       24.425       -7.879       38.622       28.118       26.133     1491.694      790.636      682.942        0.620        0.148       96.869       18.700        0.037      338.455       11.117      864.777
12/03/2021  17:04:00      -76.279       10.416      -11.507       47.434       32.143       22.980     2249.944     1033.192      528.069        0.493        0.191       76.987       22.530        0.086      338.278       10.821      864.779
12/03/2021  17:05:00      -22.180        0.637      -12.650       40.006       40.448       28.912     1600.492     1636.034      835.923        0.236        0.204       22.189       24.065        1.176      338.179       10.654      864.783
12/03/2021  17:06:00      -33.155       -8.464      -11.076       47.760       41.975       31.035     2281.062     1761.881      963.199        0.315        0.250       34.219       26.782        0.613      338.071       10.474      864.787
12/03/2021  17:07:00      -31.018        9.972      -28.229       42.397       39.133       21.884     1797.478     1531.389      478.910        0.283        0.190       32.582       14.518        0.199      338.041       10.423      864.791
12/03/2021  17:08:00      -55.182        1.425      -30.085       37.690       23.557       29.939     1420.503      554.914      896.322        0.341        0.144       55.200       25.594        0.215      338.007       10.366      864.793
12/03/2021  17:09:00      -88.444        9.222      -18.087       47.325       32.696       23.680     2239.647     1069.056      560.720        0.605        0.193       88.924       22.595        0.065      337.995       10.348      864.792
12/03/2021  17:10:00     -146.032       35.623      -10.845       33.691       35.067       20.555     1135.081     1229.687      422.525        1.275        0.139      150.315       16.817        0.013      338.076       10.484      864.784
12/03/2021  17:11:00     -140.749       33.318      -11.760       23.095       22.624       18.870      533.357      511.828      356.062        1.123        0.070      144.639       11.785        0.007      338.042       10.426      864.779
12/03/2021  17:12:00     -142.170       43.365      -16.599       16.887       16.389       19.407      285.155      268.614      376.622        1.165        0.047      148.636       10.141        0.005      337.985       10.329      864.784
12/03/2021  17:13:00     -123.985       35.801      -19.810       22.984       24.470       19.015      528.287      598.773      361.563        0.927        0.074      129.050       14.506        0.013      338.026       10.400      864.773
12/03/2021  17:14:00     -144.089       38.848      -14.973       17.502       17.554        9.801      306.310      308.132       96.051        1.160        0.036      149.234        6.874        0.002      338.191       10.672      864.763
12/03/2021  17:15:00     -119.936       21.807      -16.273       21.121       20.689       16.763      446.109      428.045      281.000        0.814        0.058      121.902       10.729        0.008      338.214       10.713      864.763
12/03/2021  17:16:00      -73.856        0.721      -13.047       38.323       17.901       17.528     1468.625      320.438      307.234        0.386        0.105       73.860       17.569        0.057      338.216       10.716      864.766
12/03/2021  17:17:00      -77.649        7.686      -14.316       32.136       16.144       16.590     1032.726      260.619      275.229        0.393        0.078       78.028       16.650        0.046      338.182       10.659      864.771
12/03/2021  17:18:00     -104.229       17.606      -20.976       15.811       18.209        9.337      249.982      331.559       87.184        0.614        0.033      105.706        1.994        0.000      338.141       10.591      864.780
12/03/2021  17:19:00     -110.723       26.831      -15.884       10.686       11.432        9.410      114.185      130.700       88.550        0.678        0.017      113.927        5.657        0.002      338.069       10.472      864.788
12/03/2021  17:20:00     -119.997       23.852      -16.563       13.210       16.118        9.743      174.505      259.788       94.936        0.789        0.026      122.345        5.610        0.002      338.114       10.546      864.788
12/03/2021  17:21:00     -113.858       17.805      -19.516       12.175       12.312       11.449      148.233      151.594      131.086        0.705        0.022      115.242        4.592        0.002      338.098       10.519      864.797
12/03/2021  17:22:00     -110.192       13.403      -18.782       21.057       19.621       14.615      443.416      384.993      213.589        0.686        0.052      111.004        8.716        0.006      338.061       10.457      864.810
12/03/2021  17:23:00     -120.400       26.358      -17.423       16.448       21.616       15.200      270.530      467.249      231.039        0.823        0.048      123.252        8.455        0.005      337.986       10.331      864.819
12/03/2021  17:24:00     -111.816       32.445      -18.512       15.862       20.636       13.469      251.613      425.861      181.411        0.738        0.043      116.428        6.483        0.003      337.884       10.159      864.811
12/03/2021  17:25:00      -82.226       15.782      -13.589       27.754       23.477       17.877      770.289      551.150      319.597        0.442        0.082       83.727        8.576        0.010      337.875       10.146      864.813
12/03/2021  17:26:00      -65.122       -0.167      -17.984       33.544       30.389       25.686     1125.222      923.471      659.775        0.364        0.135       65.122       13.646        0.044      337.892       10.173      864.804
12/03/2021  17:27:00      -57.846        1.983       -5.821       42.022       24.463       23.595     1765.835      598.462      556.707        0.315        0.146       57.880       22.931        0.157      337.874       10.142      864.810
12/03/2021  17:28:00      -76.210        7.714      -10.764       42.973       28.115       18.118     1846.677      790.449      328.249        0.447        0.148       76.600        9.554        0.016      337.978       10.318      864.806
12/03/2021  17:29:00      -93.235        5.738      -14.027       31.181       28.338       15.611      972.278      803.045      243.695        0.547        0.101       93.411        8.429        0.008      337.985       10.330      864.812
12/03/2021  17:30:00     -117.214       48.004      -13.247       19.875       18.255       17.730      395.010      333.236      314.336        0.863        0.052      126.663       12.955        0.010      337.957       10.282      864.814
12/03/2021  17:31:00     -124.312       44.890      -12.643       13.141       11.970       12.116      172.675      143.279      146.803        0.905        0.023      132.169        8.535        0.004      337.970       10.306      864.828
12/03/2021  17:32:00     -127.426       55.833      -15.914       17.781       14.229       16.064      316.168      202.465      258.046        1.019        0.039      139.121       13.240        0.009      337.914       10.211      864.836
12/03/2021  17:33:00     -137.316       68.129      -16.648       12.957       18.209       14.704      167.892      331.550      216.193        1.224        0.036      153.288        9.346        0.004      337.839       10.085      864.850
12/03/2021  17:34:00     -148.352       73.707      -12.927       21.893       17.836       23.273      479.305      318.128      541.631        1.447        0.067      165.653       14.537        0.008      337.730        9.901      864.867
12/03/2021  17:35:00     -153.547       64.096      -12.484       27.177       28.103       20.087      738.586      789.793      403.505        1.489        0.097      166.388       11.533        0.005      337.627        9.729      864.875
12/03/2021  17:36:00     -150.450       58.126      -19.107       21.140       23.961       18.051      446.903      574.121      325.837        1.386        0.067      161.288        8.975        0.003      337.488        9.496      864.887
12/03/2021  17:37:00     -112.302       15.474      -20.803       43.432       34.738       22.921     1886.355     1206.745      525.393        0.845        0.181      113.363       13.287        0.014      337.479        9.481      864.901
12/03/2021  17:38:00     -121.451        9.669       -6.532       51.950       34.245       25.841     2698.826     1172.709      667.772        0.971        0.227      121.835       25.595        0.044      337.381        9.317      864.920
12/03/2021  17:39:00      -84.329       10.051       -2.042       63.903       35.736       27.632     4083.560     1277.051      763.528        0.667        0.306       84.926       27.262        0.103      337.355        9.273      864.940
12/03/2021  17:40:00       -8.588        3.031        4.768       33.678       31.475       28.237     1134.188      990.669      797.311        0.151        0.146        9.107       19.530        4.599      337.299        9.181      864.950
12/03/2021  17:41:00       -5.169       10.122        0.082       39.486       23.682       18.874     1559.149      560.823      356.244        0.130        0.124       11.365       18.305        2.594      337.228        9.063      864.964
12/03/2021  17:42:00      -36.746      -10.175      -20.352       23.830       19.787       15.857      567.865      391.519      251.446        0.154        0.061       38.128       14.006        0.135      337.318        9.213      864.982
12/03/2021  17:43:00      -44.109        5.174      -10.367       47.404       26.839       20.475     2247.157      720.321      419.227        0.273        0.169       44.411       22.767        0.263      337.275        9.141      864.991
12/03/2021  17:44:00      -54.477        1.407      -11.315       45.894       28.820       25.613     2106.255      830.583      656.015        0.334        0.180       54.495       27.131        0.248      337.266        9.125      865.004
12/03/2021  17:45:00      -67.952       13.272      -24.619       32.507       25.840       26.329     1056.728      667.681      693.215        0.391        0.121       69.236       16.633        0.058      337.250        9.101      865.005
12/03/2021  17:46:00      -38.828       13.823       -0.730       26.748       30.454       21.213      715.478      927.426      450.004        0.190        0.105       41.216       13.022        0.100      337.229        9.065      865.021
12/03/2021  17:47:00      -34.277        8.114      -13.778       26.321       30.377       17.058      692.773      922.779      290.964        0.167        0.095       35.225        6.072        0.030      337.235        9.075      865.028
12/03/2021  17:48:00      -56.757       -2.195      -18.121       27.659       23.280       16.474      765.006      541.939      271.403        0.257        0.079       56.800        7.234        0.016      337.316        9.209      865.035
12/03/2021  17:49:00      -66.626       10.350      -24.681       18.172       17.995       16.613      330.236      323.813      275.979        0.304        0.047       67.425        5.691        0.007      337.306        9.193      865.048
12/03/2021  17:50:00      -69.246       22.250      -19.646       20.647       19.816       16.272      426.305      392.655      264.776        0.338        0.054       72.733       11.728        0.026      337.290        9.165      865.058
12/03/2021  17:51:00      -60.859        8.551      -17.193       18.486       16.631       16.289      341.735      276.586      265.333        0.248        0.044       61.457        5.300        0.007      337.327        9.228      865.066
12/03/2021  17:52:00      -42.270       17.989      -16.898       19.248       19.167       14.122      370.484      367.391      199.418        0.167        0.047       45.939        8.727        0.036      337.697        9.847      865.076
12/03/2021  17:53:00      -44.616       13.238      -15.217       16.005       21.629       12.570      256.169      467.797      158.000        0.164        0.044       46.539        8.129        0.031      337.486        9.494      865.087
12/03/2021  17:54:00      -53.149       19.344      -12.696       16.827       18.210       14.297      283.160      331.621      204.390        0.209        0.041       56.560        9.784        0.030      337.491        9.500      865.102
12/03/2021  17:55:00      -52.761       22.061      -23.636       21.627       18.333       17.183      467.721      336.093      295.254        0.246        0.055       57.188       14.957        0.068      337.237        9.076      865.119
12/03/2021  17:56:00      -38.634        3.738      -11.669       16.569       18.334       13.641      274.546      336.146      186.083        0.122        0.040       38.815       10.550        0.074      337.150        8.930      865.131
12/03/2021  17:57:00      -49.017       13.900      -21.745       13.703       10.981       12.847      187.762      120.576      165.053        0.177        0.024       50.950        7.690        0.023      337.264        9.122      865.139
12/03/2021  17:58:00      -50.299       18.699      -18.716       13.698       12.687       11.479      187.633      160.968      131.758        0.186        0.024       53.663        5.084        0.009      337.339        9.247      865.151
12/03/2021  17:59:00      -48.941        3.984      -14.624       12.251       15.448       11.953      150.093      238.648      142.876        0.158        0.027       49.103       10.217        0.043      337.183        8.987      865.162
12/03/2021  18:00:00      -48.638        8.045      -18.768       17.497       15.345       12.457      306.156      235.467      155.184        0.174        0.035       49.298        3.205        0.004      337.289        9.163      865.162
12/03/2021  18:01:00      -40.057        3.325       -6.788       20.650       15.265       13.584      426.406      233.007      184.522        0.125        0.042       40.194        8.503        0.045      337.398        9.346      865.158
12/03/2021  18:02:00      -38.013       -6.921       -8.203       20.119       15.602       15.841      404.762      243.435      250.935        0.123        0.045       38.638       10.951        0.080      337.126        8.889      865.163
12/03/2021  18:03:00      -36.746        1.140      -11.904       16.025       14.856       17.926      256.795      220.705      321.355        0.115        0.040       36.764       13.778        0.140      337.148        8.927      865.157
12/03/2021  18:04:00      -73.304       19.972      -18.236       12.533       10.981        9.264      157.073      120.572       85.821        0.323        0.018       75.976        3.900        0.003      337.168        8.963      865.147
12/03/2021  18:05:00      -78.900       11.057      -14.350       19.947       16.617       15.211      397.874      276.132      231.371        0.373        0.045       79.671       10.024        0.016      337.229        9.064      865.144
12/03/2021  18:06:00      -41.858       -0.016      -14.620       23.582       20.566       19.580      556.094      422.946      383.385        0.166        0.068       41.858       14.878        0.126      337.198        9.011      865.148
12/03/2021  18:07:00      -60.443       15.900      -14.630       31.472       19.115       15.722      990.484      365.380      247.167        0.286        0.080       62.499        8.549        0.019      337.160        8.947      865.151
12/03/2021  18:08:00     -103.283       14.005      -24.085       24.368       17.645       13.138      593.806      311.343      172.607        0.626        0.054      104.229       11.361        0.012      337.124        8.888      865.151
12/03/2021  18:09:00      -79.847       12.003      -15.797       19.631       15.215       12.991      385.362      231.499      168.770        0.378        0.039       80.744        6.449        0.006      337.061        8.780      865.155
12/03/2021  18:10:00      -55.353       -3.005      -15.980       31.934       23.620       20.859     1019.807      557.910      435.105        0.267        0.101       55.434       16.576        0.089      337.035        8.738      865.161
12/03/2021  18:11:00      -73.125       16.698      -19.327       25.154       17.060       15.727      632.745      291.034      247.354        0.359        0.059       75.007        9.635        0.016      336.994        8.668      865.169
12/03/2021  18:12:00      -75.997       10.925      -14.631       36.784       17.082       17.741     1353.064      291.785      314.731        0.403        0.098       76.778       19.327        0.063      337.061        8.783      865.168
12/03/2021  18:13:00      -79.028       17.049      -16.713       37.391       22.048       20.965     1398.079      486.132      439.512        0.457        0.116       80.846       15.295        0.036      337.012        8.699      865.168
12/03/2021  18:14:00     -120.946       30.894      -19.803       17.707       14.438       16.985      313.553      208.450      288.489        0.839        0.041      124.830        8.079        0.004      336.955        8.603      865.164
12/03/2021  18:15:00     -103.204       23.151      -20.084       22.139       17.244       15.784      490.141      297.346      249.128        0.631        0.052      105.769       13.458        0.016      336.955        8.603      865.157
12/03/2021  18:16:00     -100.771       20.433      -20.246       20.639       16.167       14.850      425.967      261.384      220.512        0.594        0.045      102.822       12.629        0.015      336.910        8.528      865.159
12/03/2021  18:17:00     -111.615       32.108      -17.841       19.098       13.335       11.092      364.720      177.829      123.029        0.724        0.033      116.141        4.082        0.001      336.950        8.596      865.163
12/03/2021  18:18:00     -115.844       23.380      -21.956       25.106       19.332       15.710      630.327      373.738      246.818        0.785        0.063      118.180       13.249        0.013      336.934        8.567      865.166
12/03/2021  18:19:00     -107.266        4.427      -17.035       30.372       19.927       13.499      922.488      397.078      182.225        0.666        0.075      107.358        9.541        0.008      336.914        8.535      865.166
12/03/2021  18:20:00     -111.812       17.546      -16.580       34.678       19.669       19.701     1202.584      386.869      388.149        0.753        0.099      113.180       17.074        0.023      336.942        8.580      865.174
12/03/2021  18:21:00     -120.985       33.972      -20.655       19.786       19.048       11.835      391.494      362.837      140.061        0.856        0.045      125.665        8.774        0.005      336.865        8.453      865.173
12/03/2021  18:22:00      -65.195        6.675      -12.953       30.733       24.701       22.142      944.535      610.125      490.259        0.325        0.102       65.536       16.113        0.060      336.872        8.464      865.172
12/03/2021  18:23:00      -70.399       -7.496      -20.689       34.147       38.532       24.161     1166.042     1484.702      583.749        0.434        0.162       70.797       18.531        0.069      336.771        8.297      865.177
12/03/2021  18:24:00      -80.807       10.276      -14.154       44.039       26.435       26.454     1939.476      698.790      699.811        0.509        0.167       81.458       25.420        0.097      336.739        8.243      865.183
12/03/2021  18:25:00      -72.976        3.264      -19.552       39.244       28.840       24.918     1540.129      831.725      620.896        0.436        0.150       73.049       22.742        0.097      336.699        8.177      865.187
12/03/2021  18:26:00      -80.830        8.823      -15.672       44.103       28.299       21.567     1945.103      800.817      465.130        0.503        0.161       81.310       21.669        0.071      336.699        8.177      865.188
12/03/2021  18:27:00      -78.033        1.126      -20.026       24.985       36.020       26.163      624.261     1297.448      684.480        0.455        0.130       78.041       16.581        0.045      336.692        8.166      865.188
12/03/2021  18:28:00      -11.439        4.215        1.752       25.701       23.632       22.876      660.543      558.457      523.305        0.095        0.087       12.191       17.438        2.046      336.576        7.971      865.183
12/03/2021  18:29:00      -80.195       -9.569      -24.050       34.790       26.754       23.896     1210.352      715.754      571.018        0.480        0.125       80.764       16.778        0.043      336.599        8.011      865.176
12/03/2021  18:30:00      -71.667      -10.168      -22.786       30.761       18.475       18.425      946.246      341.312      339.473        0.369        0.081       72.385       16.301        0.051      336.574        7.967      865.180
12/03/2021  18:31:00      -35.499        1.436       -9.093       35.137       19.983       27.799     1234.614      399.329      772.804        0.188        0.120       35.528       24.030        0.457      336.570        7.961      865.187
12/03/2021  18:32:00      -47.349        0.541      -10.282       36.332       28.998       24.996     1320.037      840.908      624.784        0.257        0.139       47.352       18.811        0.158      336.537        7.906      865.186
12/03/2021  18:33:00      -89.870        4.637      -28.952       24.914       23.033       16.759      620.728      530.497      280.879        0.518        0.072       89.989       10.852        0.015      336.551        7.929      865.203
12/03/2021  18:34:00     -101.060       -1.300      -28.476       17.748       19.999       13.535      315.003      399.950      183.194        0.596        0.045      101.068        8.138        0.006      336.547        7.924      865.209
12/03/2021  18:35:00      -85.519       -1.572       -6.568       35.568       29.936       21.116     1265.065      896.161      445.891        0.498        0.130       85.533       18.371        0.046      336.581        7.980      865.224
12/03/2021  18:36:00      -85.197       -1.463      -13.501       29.776       22.442       13.771      886.637      503.623      189.638        0.451        0.079       85.210       10.608        0.015      336.606        8.022      865.236
12/03/2021  18:37:00     -104.974       14.370      -15.753       19.803       16.677       15.544      392.146      278.127      241.606        0.619        0.046      105.953        9.326        0.008      336.643        8.083      865.240
12/03/2021  18:38:00      -97.772       24.153      -22.666       17.671       17.030       11.693      312.261      290.026      136.734        0.570        0.037      100.711        8.009        0.006      336.634        8.069      865.248
12/03/2021  18:39:00     -123.962       30.438      -21.313       14.833       15.685        8.453      220.019      246.029       71.452        0.864        0.027      127.644        4.068        0.001      336.622        8.049      865.259
12/03/2021  18:40:00     -131.482       37.148      -17.970       23.978       13.830       14.755      574.954      191.266      217.713        0.999        0.049      136.629        9.622        0.005      336.659        8.110      865.273
12/03/2021  18:41:00     -106.585       21.296      -18.236       23.016       16.520       12.531      529.726      272.909      157.038        0.655        0.048      108.692        5.426        0.002      336.676        8.138      865.278
12/03/2021  18:42:00      -97.519       22.334      -26.792       20.051       13.546       13.182      402.057      183.491      173.759        0.574        0.038      100.043        7.135        0.005      336.682        8.147      865.295
12/03/2021  18:43:00      -94.817       25.462      -23.843       25.065       15.117       12.002      628.230      228.519      144.051        0.560        0.050       98.177       11.676        0.014      336.705        8.188      865.303
12/03/2021  18:44:00     -106.134       24.344      -21.688       24.968       17.768       19.791      623.389      315.707      391.701        0.683        0.067      108.890       11.334        0.011      336.631        8.063      865.318
12/03/2021  18:45:00     -112.951       23.534      -13.937       19.592       19.791       13.472      383.841      391.696      181.499        0.723        0.048      115.377        8.030        0.005      336.564        7.952      865.325
12/03/2021  18:46:00     -113.225       11.426      -24.074       26.885       18.266       16.618      722.802      333.631      276.166        0.743        0.067      113.800        5.825        0.003      336.569        7.959      865.338
12/03/2021  18:47:00      -97.985       31.773      -21.656       16.436       19.885       12.075      270.134      395.427      145.796        0.595        0.041      103.007        8.179        0.006      336.450        7.761      865.343
12/03/2021  18:48:00     -130.296       48.590      -26.423       18.671       24.896       17.229      348.611      619.828      296.826        1.065        0.063      139.061        7.796        0.003      336.414        7.699      865.347
12/03/2021  18:49:00      -97.669       17.711      -16.327       53.639       25.917       25.896     2877.120      671.698      670.603        0.717        0.211       99.262       29.215        0.087      336.387        7.654      865.351
12/03/2021  18:50:00      -60.313        4.372      -27.833       29.578       28.091       33.126      874.868      789.085     1097.308        0.360        0.138       60.471       24.871        0.169      336.379        7.641      865.369
12/03/2021  18:51:00      -65.350        4.196      -27.531       27.154       35.670       17.765      737.322     1272.342      315.582        0.369        0.116       65.485       13.950        0.045      336.306        7.520      865.380
12/03/2021  18:52:00      -83.517       23.801      -20.856       17.961       20.083       24.649      322.595      403.318      607.569        0.465        0.067       86.843        9.760        0.013      336.324        7.549      865.388
12/03/2021  18:53:00      -64.605       20.416      -17.528       32.271       25.812       18.463     1041.448      666.239      340.893        0.347        0.102       67.754       13.883        0.042      336.255        7.435      865.397
12/03/2021  18:54:00      -77.796       26.180      -17.768       14.012       17.032       15.969      196.346      290.102      255.004        0.390        0.037       82.083        6.891        0.007      336.257        7.437      865.413
12/03/2021  18:55:00      -57.770        3.506      -15.713       33.392       17.947       16.588     1115.017      322.084      275.178        0.265        0.086       57.876       16.860        0.085      336.267        7.454      865.419
12/03/2021  18:56:00      -42.122        0.422       -7.800       25.222       20.255       25.572      636.141      410.248      653.924        0.177        0.085       42.124       15.220        0.131      336.180        7.309      865.426
12/03/2021  18:57:00      -72.122       13.686      -16.455       29.731       23.560       17.681      883.906      555.065      312.621        0.371        0.088       73.409       14.936        0.041      336.188        7.322      865.434
12/03/2021  18:58:00      -86.259        5.022      -26.595       30.946       27.171       23.174      957.684      738.278      537.048        0.520        0.112       86.406       18.229        0.045      336.165        7.282      865.429
12/03/2021  18:59:00      -88.749       17.449      -30.815       30.545       21.827       19.462      933.003      476.434      378.751        0.546        0.089       90.448       13.531        0.022      336.096        7.168      865.423
12/03/2021  19:00:00     -101.324       26.067      -21.232       32.891       35.634       15.551     1081.792     1269.748      241.845        0.699        0.130      104.623       15.836        0.023      336.084        7.149      865.419
12/03/2021  19:01:00     -124.950       53.102      -31.751       27.625       25.287       21.542      763.134      639.431      464.073        1.065        0.093      135.765        9.631        0.005      336.161        7.277      865.416
12/03/2021  19:02:00     -105.641       31.583      -25.691       37.082       27.590       20.741     1375.108      761.211      430.196        0.769        0.128      110.261       15.166        0.019      336.123        7.211      865.420
12/03/2021  19:03:00      -90.148       31.557      -23.023       35.221       39.343       20.705     1240.540     1547.896      428.714        0.643        0.161       95.512        8.907        0.009      336.068        7.121      865.431
12/03/2021  19:04:00      -84.382       17.388      -24.765       23.754       25.989       20.181      564.249      675.437      407.270        0.484        0.082       86.155       12.318        0.020      336.064        7.114      865.442
12/03/2021  19:05:00      -62.960       10.799      -17.514       27.653       24.937       27.118      764.665      621.851      735.370        0.325        0.106       63.879       20.309        0.101      336.021        7.044      865.454
12/03/2021  19:06:00      -88.052       28.424      -17.946       34.029       26.570       23.241     1157.961      705.990      540.140        0.564        0.120       92.526       22.468        0.059      336.001        7.011      865.463
12/03/2021  19:07:00     -107.813       27.124      -28.600       27.971       27.385       18.565      782.352      749.932      344.676        0.753        0.094      111.173        3.838        0.001      336.046        7.086      865.469
12/03/2021  19:08:00     -124.424       52.645      -24.597       27.353       24.767       21.950      748.196      613.409      481.799        1.035        0.092      135.103       13.058        0.009      335.966        6.952      865.478
12/03/2021  19:09:00     -131.796       35.410      -23.919       21.807       26.789       18.179      475.567      717.641      330.469        1.036        0.076      136.470        5.177        0.001      335.908        6.855      865.492
12/03/2021  19:10:00      -53.441        9.929      -10.366       37.421       33.777       26.685     1400.344     1140.896      712.090        0.316        0.163       54.356       20.188        0.138      335.949        6.924      865.502
12/03/2021  19:11:00      -87.669       11.789      -10.837       55.842       29.675       28.775     3118.367      880.631      828.018        0.638        0.241       88.458       33.355        0.142      336.016        7.035      865.511
12/03/2021  19:12:00      -68.518       25.158      -16.679       31.973       31.935       24.192     1022.257     1019.845      585.248        0.412        0.131       72.990       19.982        0.075      335.922        6.880      865.525
12/03/2021  19:13:00      -51.903      -15.270      -16.219       32.033       49.567       21.946     1026.136     2456.917      481.615        0.358        0.198       54.103       19.311        0.127      335.937        6.904      865.532
12/03/2021  19:14:00      -81.101      -34.963      -37.640       23.390       25.882       17.962      547.108      669.865      322.636        0.538        0.077       88.316       12.252        0.019      335.938        6.906      865.549
12/03/2021  19:15:00      -73.249      -21.592      -24.659       41.614       25.770       29.678     1731.747      664.101      880.795        0.486        0.164       76.365       21.845        0.082      335.984        6.982      865.552
12/03/2021  19:16:00      -80.435       -0.927      -19.439       41.756       26.801       29.038     1743.536      718.307      843.212        0.508        0.165       80.440       29.854        0.138      335.996        7.004      865.558
12/03/2021  19:17:00     -127.528       33.928      -20.109       27.527       26.609       19.029      757.736      708.057      362.120        0.982        0.091      131.964        8.472        0.004      335.994        6.999      865.559
12/03/2021  19:18:00     -109.678       20.364      -12.057       45.575       17.487       17.901     2077.054      305.786      320.454        0.765        0.135      111.552       16.946        0.023      336.111        7.193      865.558
12/03/2021  19:19:00     -100.738        8.789      -20.439       27.018       25.107       22.662      729.988      630.361      513.548        0.626        0.094      101.121       13.149        0.017      336.134        7.231      865.558
12/03/2021  19:20:00     -140.245       30.447       -9.178       34.001       22.661       16.534     1156.084      513.529      273.361        1.131        0.097      143.512       14.279        0.010      336.162        7.278      865.566
12/03/2021  19:21:00     -108.614       23.164      -13.024       42.410       28.027       21.270     1798.650      785.504      452.424        0.777        0.152      111.057       19.269        0.030      336.231        7.394      865.568
12/03/2021  19:22:00     -107.607       12.540      -17.567       21.187       14.456       13.950      448.878      208.975      194.599        0.645        0.043      108.335        7.326        0.005      336.317        7.537      865.561
12/03/2021  19:23:00     -100.549        2.813      -16.446       24.725       15.460       14.088      611.317      239.023      198.461        0.572        0.052      100.588        9.264        0.008      336.332        7.564      865.558
12/03/2021  19:24:00      -83.866        0.832       -9.518       29.247       22.451       18.811      855.383      504.068      353.865        0.442        0.086       83.870       12.495        0.022      336.255        7.433      865.552
12/03/2021  19:25:00     -103.775       -2.842      -15.399       22.003       13.378       13.958      484.154      178.960      194.832        0.594        0.043      103.814        8.889        0.007      336.301        7.511      865.547
12/03/2021  19:26:00      -80.756       -5.594      -15.183       19.822       20.693       15.325      392.912      428.212      234.850        0.392        0.053       80.950        7.112        0.008      336.194        7.330      865.539
12/03/2021  19:27:00      -76.393       -0.658      -10.426       33.453       30.968       21.354     1119.078      959.013      456.011        0.424        0.127       76.395       16.321        0.046      336.178        7.303      865.533
12/03/2021  19:28:00      -54.002       -9.556       -6.232       40.699       32.009       20.921     1656.424     1024.593      437.701        0.308        0.156       54.841       12.764        0.054      336.153        7.262      865.521
12/03/2021  19:29:00      -61.455       -3.647       -8.066       35.109       29.188       23.736     1232.648      851.934      563.401        0.325        0.132       61.563       16.584        0.073      336.042        7.080      865.515
12/03/2021  19:30:00      -63.928      -15.456      -11.920       51.911       28.579       35.021     2694.800      816.784     1226.484        0.460        0.237       65.770       31.202        0.225      336.001        7.011      865.505
12/03/2021  19:31:00      -86.039      -27.958      -12.294       47.664       45.805       29.109     2271.824     2098.069      847.328        0.678        0.261       90.468       24.920        0.076      336.039        7.073      865.504
12/03/2021  19:32:00      -72.176       -3.694       -9.893       65.551       43.602       29.757     4296.918     1901.170      885.451        0.620        0.354       72.271       33.458        0.214      336.028        7.056      865.500
12/03/2021  19:33:00      -84.369      -10.086      -17.717       42.907       28.013       30.999     1840.980      784.712      960.964        0.556        0.179       84.969       23.818        0.079      336.019        7.039      865.500
12/03/2021  19:34:00     -143.319       28.421      -19.744       30.371       24.502       23.231      922.397      600.329      539.657        1.190        0.103      146.110       11.983        0.007      336.145        7.250      865.497
12/03/2021  19:35:00     -140.028       19.529       -9.249       37.131       28.498       23.656     1378.748      812.130      559.592        1.141        0.138      141.383       18.709        0.018      336.117        7.203      865.492
12/03/2021  19:36:00     -133.251        4.575       -7.788       51.730       31.437       28.222     2675.978      988.316      796.468        1.115        0.223      133.329       23.762        0.032      336.050        7.091      865.498
12/03/2021  19:37:00      -81.956        5.997        2.096       76.765       39.401       28.860     5892.794     1552.423      832.916        0.752        0.414       82.175       34.817        0.180      335.926        6.885      865.507
12/03/2021  19:38:00     -167.456       17.965       -0.996       50.164       33.503       28.444     2516.404     1122.450      809.083        1.641        0.222      168.417       25.819        0.024      335.917        6.870      865.511
12/03/2021  19:39:00      -84.462        3.273        1.191       52.486       35.645       28.725     2754.831     1270.570      825.148        0.600        0.243       84.525       30.180        0.127      335.886        6.818      865.510
12/03/2021  19:40:00      -46.055       -3.562       -8.983       52.482       39.386       27.017     2754.400     1551.290      729.915        0.362        0.252       46.193       27.082        0.344      335.850        6.758      865.515
12/03/2021  19:41:00      -48.696      -11.222       -4.341       43.003       30.437       24.666     1849.252      926.425      608.390        0.295        0.169       49.972       23.684        0.225      335.790        6.658      865.529
12/03/2021  19:42:00      -85.247      -12.485      -18.994       49.780       28.500       28.858     2478.081      812.250      832.759        0.595        0.206       86.157       29.455        0.117      335.779        6.639      865.541
12/03/2021  19:43:00      -40.510        0.429       -8.951       37.895       35.783       23.545     1436.005     1280.390      554.358        0.250        0.164       40.512       17.071        0.178      335.763        6.612      865.545
12/03/2021  19:44:00      -92.471       -3.426      -25.304       35.762       29.951       28.528     1278.938      897.091      813.850        0.610        0.149       92.534       18.141        0.038      335.740        6.574      865.550
12/03/2021  19:45:00      -64.909        9.094      -21.872       36.776       30.894       29.067     1352.500      954.458      844.866        0.396        0.158       65.543       21.649        0.109      335.727        6.553      865.550
12/03/2021  19:46:00      -13.077      -15.758      -12.087       34.494       23.650       27.610     1189.837      559.305      762.327        0.154        0.126       20.477       21.681        1.121      335.683        6.480      865.558
12/03/2021  19:47:00      -20.742       -8.670       -1.894       33.707       29.955       29.288     1136.137      897.312      857.807        0.170        0.145       22.481       26.528        1.392      335.647        6.420      865.566
12/03/2021  19:48:00      -57.745       20.955      -10.048       33.003       32.617       16.426     1089.208     1063.852      269.802        0.315        0.121       61.429       17.218        0.079      335.641        6.409      865.576
12/03/2021  19:49:00      -32.334       -3.942       -5.741       24.312       24.585       18.283      591.070      604.408      334.280        0.131        0.076       32.573       12.565        0.149      335.647        6.418      865.580
12/03/2021  19:50:00      -66.876       11.659      -13.729       30.479       33.359       29.518      928.949     1112.840      871.301        0.385        0.146       67.885       24.141        0.126      335.663        6.445      865.585
12/03/2021  19:51:00      -91.225       25.303      -18.566       37.639       30.024       19.044     1416.667      901.468      362.676        0.599        0.134       94.669       10.459        0.012      335.654        6.431      865.589
12/03/2021  19:52:00      -40.981       13.868       -4.638       46.925       33.236       27.840     2201.963     1104.655      775.046        0.299        0.204       43.263       17.762        0.169      335.609        6.358      865.591
12/03/2021  19:53:00      -52.050       -1.576      -16.936       31.476       36.228       27.706      990.755     1312.503      767.632        0.303        0.154       52.074       15.882        0.093      335.648        6.422      865.592
12/03/2021  19:54:00      -51.980       33.482      -11.132       31.242       35.048       23.920      976.049     1228.338      572.152        0.336        0.139       61.830       15.479        0.063      335.643        6.412      865.595
12/03/2021  19:55:00      -86.860       28.751      -26.022       30.107       33.389       28.187      906.444     1114.833      794.529        0.593        0.141       91.495       18.223        0.040      335.617        6.369      865.593
12/03/2021  19:56:00      -99.714       36.701      -17.618       40.189       25.098       13.730     1615.128      629.932      188.525        0.702        0.122      106.254       14.929        0.020      335.624        6.381      865.590
12/03/2021  19:57:00      -40.386       12.845       -8.122       31.443       20.174       24.021      988.634      406.983      577.027        0.192        0.099       42.380       20.112        0.225      335.604        6.348      865.593
12/03/2021  19:58:00      -80.097       31.659      -18.817       29.141       22.894       15.902      849.198      524.122      252.861        0.470        0.081       86.127        1.966        0.001      335.629        6.388      865.602
12/03/2021  19:59:00      -69.529        3.845      -24.251       24.779       22.680       22.338      614.015      514.383      499.004        0.353        0.081       69.636        2.849        0.002      335.727        6.553      865.605
12/03/2021  20:00:00      -52.613       13.278      -14.840       32.660       26.385       19.038     1066.663      696.188      362.449        0.264        0.106       54.262       15.338        0.080      335.769        6.622      865.604
12/03/2021  20:01:00      -59.802       22.865      -25.995       28.804       21.578       25.844      829.651      465.595      667.903        0.337        0.098       64.024       18.949        0.088      335.774        6.629      865.609
12/03/2021  20:02:00      -80.918       32.905      -32.383       26.885       23.537       17.562      722.789      553.994      308.430        0.513        0.079       87.352       11.255        0.017      335.744        6.580      865.611
12/03/2021  20:03:00      -81.646       27.712      -25.254       25.589       26.645       20.183      654.790      709.932      407.355        0.492        0.089       86.221        9.474        0.012      335.679        6.473      865.617
12/03/2021  20:04:00     -117.286       44.686      -22.680       16.008       16.638       11.895      256.252      276.812      141.482        0.847        0.034      125.510        3.849        0.001      335.707        6.520      865.624
12/03/2021  20:05:00      -95.462       25.444      -33.637       22.696       21.751       22.120      515.107      473.118      489.287        0.618        0.074       98.795       10.726        0.012      335.702        6.512      865.629
12/03/2021  20:06:00      -97.460       12.172      -32.549       20.332       19.772       12.376      413.399      390.934      153.165        0.583        0.048       98.218        7.963        0.007      335.650        6.425      865.637
12/03/2021  20:07:00      -35.712       -5.439       -4.097       35.606       28.171       24.489     1267.815      793.585      599.706        0.199        0.133       36.124       17.775        0.242      335.652        6.427      865.648
12/03/2021  20:08:00     -105.149        6.146      -20.907       25.830       22.773       18.982      667.179      518.601      360.324        0.654        0.077      105.329        7.550        0.005      335.555        6.267      865.668
12/03/2021  20:09:00      -45.574       -5.862      -16.995       34.682       32.780       27.652     1202.865     1074.524      764.628        0.272        0.152       45.949       22.713        0.244      335.592        6.330      865.694
12/03/2021  20:10:00      -43.170      -11.891      -11.563       24.630       26.901       23.833      606.631      723.637      567.998        0.202        0.095       44.778       18.325        0.167      335.532        6.228      865.714
12/03/2021  20:11:00      -70.790      -15.243      -30.593       24.603       33.914       18.880      605.299     1150.170      356.452        0.415        0.106       72.413       10.268        0.020      335.503        6.180      865.735
12/03/2021  20:12:00      -65.145       19.338      -15.420       25.645       19.380       22.061      657.686      375.599      486.700        0.319        0.076       67.954       16.671        0.060      335.525        6.218      865.751
12/03/2021  20:13:00     -101.339       35.684      -14.923       19.336       15.113       14.817      373.871      228.410      219.550        0.629        0.041      107.438        8.804        0.007      335.569        6.288      865.755
12/03/2021  20:14:00      -82.190       23.700      -14.858       15.258       12.282       12.636      232.821      150.837      159.678        0.404        0.027       85.539        8.378        0.010      335.561        6.276      865.756
12/03/2021  20:15:00      -84.138       20.399      -19.316        8.121        9.471        8.894       65.951       89.694       79.101        0.405        0.012       86.575        4.726        0.003      335.649        6.422      865.751
12/03/2021  20:16:00      -87.951        5.490      -14.434       21.576       19.287       13.828      465.526      372.002      191.206        0.450        0.051       88.122        8.988        0.010      335.734        6.564      865.755
12/03/2021  20:17:00      -79.060        8.829      -11.100       19.186       18.084       15.288      368.085      327.022      233.727        0.369        0.046       79.552        8.199        0.011      335.807        6.687      865.744
12/03/2021  20:18:00      -38.173       -2.232       -8.229       28.422       16.295       15.287      807.837      265.529      233.684        0.142        0.065       38.238       16.056        0.176      335.848        6.754      865.749
12/03/2021  20:19:00      -72.570        2.498      -19.237       20.757       14.237       13.870      430.846      202.681      192.376        0.323        0.041       72.613       12.410        0.029      335.841        6.745      865.754
12/03/2021  20:20:00      -84.074       10.269      -12.936       22.603       14.075       10.870      510.879      198.114      118.159        0.408        0.041       84.699        7.657        0.008      335.821        6.710      865.753
12/03/2021  20:21:00      -92.627       22.249      -15.723       12.138        7.702        7.361      147.325       59.320       54.187        0.479        0.013       95.262        3.409        0.001      335.782        6.646      865.760
12/03/2021  20:22:00      -80.844       15.951      -14.176       18.935       15.558       12.710      358.527      242.044      161.548        0.388        0.038       82.402        9.644        0.014      335.700        6.506      865.774
12/03/2021  20:23:00     -106.423       14.167      -13.962       20.677       11.510       13.265      427.547      132.477      175.962        0.623        0.037      107.362       11.171        0.011      335.670        6.455      865.784
12/03/2021  20:24:00     -104.709       28.232      -15.893       19.455       15.159       14.086      378.509      229.809      198.424        0.641        0.040      108.448       13.230        0.015      335.671        6.459      865.788
12/03/2021  20:25:00     -111.386       24.300      -21.274       10.478       10.735       15.138      109.787      115.242      229.160        0.695        0.023      114.006        4.995        0.002      335.714        6.531      865.795
12/03/2021  20:26:00     -127.298       27.962      -17.959       16.763       12.058       13.670      281.004      145.404      186.869        0.896        0.031      130.332        7.879        0.004      335.675        6.467      865.794
12/03/2021  20:27:00     -137.482       36.696      -10.574       15.066       11.391       12.961      226.998      129.747      167.979        1.044        0.026      142.295        8.914        0.004      335.615        6.366      865.796
12/03/2021  20:28:00     -125.809       27.522      -15.682       22.612       13.849       12.658      511.305      191.798      160.232        0.885        0.043      128.784       10.618        0.007      335.647        6.420      865.796
12/03/2021  20:29:00     -136.824       27.665      -18.645       13.144       11.706        7.099      172.770      137.020       50.397        1.010        0.018      139.592        3.097        0.000      335.656        6.433      865.799
12/03/2021  20:30:00      -93.089       21.404      -20.387       19.674       16.016       11.095      387.085      256.496      123.110        0.515        0.038       95.518        7.388        0.006      335.591        6.328      865.803
12/03/2021  20:31:00      -35.100       -9.368       -5.087       28.828       18.162       16.295      831.069      329.847      265.524        0.139        0.071       36.329       11.920        0.108      335.580        6.308      865.809
12/03/2021  20:32:00     -102.424        1.866      -14.140       27.534       23.079       18.423      758.133      532.634      339.419        0.616        0.082      102.441       14.223        0.019      335.546        6.252      865.808
12/03/2021  20:33:00     -123.753       30.390      -15.645       16.015       12.086       13.218      256.482      146.072      174.704        0.853        0.029      127.429        9.193        0.005      335.445        6.084      865.797
12/03/2021  20:34:00     -103.335       16.342      -13.805       19.221       15.240       13.779      369.433      232.271      189.871        0.596        0.040      104.620        7.425        0.005      335.380        5.975      865.796
12/03/2021  20:35:00      -80.337        2.098      -12.947       31.819       16.996       14.498     1012.471      288.876      210.206        0.407        0.076       80.365       12.514        0.024      335.471        6.127      865.795
12/03/2021  20:36:00      -65.269       -0.456       -7.488       42.225       19.659       15.402     1782.953      386.471      237.226        0.336        0.120       65.270       16.573        0.064      335.526        6.218      865.801
12/03/2021  20:37:00      -80.143        9.271      -10.168       32.906       19.943       18.095     1082.797      397.741      327.422        0.421        0.090       80.677       15.306        0.036      335.480        6.141      865.800
12/03/2021  20:38:00      -76.628        4.485       -6.081       25.182       17.353       13.016      634.111      301.130      169.404        0.352        0.055       76.759        9.572        0.016      335.502        6.179      865.803
12/03/2021  20:39:00      -64.005       10.498      -11.539       22.804       18.919       12.547      520.012      357.922      157.438        0.269        0.052       64.860        5.588        0.007      335.503        6.180      865.812
12/03/2021  20:40:00      -47.259       -6.555      -10.775       33.015       19.094       17.185     1089.999      364.590      295.329        0.207        0.087       47.712       16.193        0.115      335.511        6.195      865.814
12/03/2021  20:41:00      -53.011      -10.040      -10.167       27.134       23.105       18.237      736.264      533.850      332.600        0.231        0.080       53.954       14.838        0.076      335.429        6.056      865.810
12/03/2021  20:42:00      -68.774       -0.263       -9.237       32.018       19.265       17.062     1025.152      371.127      291.102        0.325        0.084       68.774       16.407        0.057      335.396        6.000      865.806
12/03/2021  20:43:00      -95.042       -8.382      -17.477       22.646       15.018       11.818      512.825      225.529      139.669        0.514        0.044       95.411        6.222        0.004      335.392        5.995      865.809
12/03/2021  20:44:00      -43.471        0.492       -2.876       33.525       17.781       19.211     1123.923      316.166      369.056        0.185        0.090       43.474       15.320        0.124      335.442        6.078      865.793
12/03/2021  20:45:00      -44.223      -11.747       -7.422       30.385       19.695       14.302      923.221      387.897      204.535        0.183        0.076       45.757       11.637        0.065      335.398        6.005      865.791
12/03/2021  20:46:00      -51.691       -2.670       -9.599       20.649       15.405       14.897      426.401      237.310      221.932        0.183        0.044       51.760       12.350        0.057      335.400        6.009      865.786
12/03/2021  20:47:00      -42.242       -8.196       -1.957       36.809       20.528       19.774     1354.882      421.380      391.027        0.201        0.108       43.029       21.389        0.247      335.353        5.929      865.774
12/03/2021  20:48:00      -48.526        0.290       -5.044       43.089       17.416       21.282     1856.676      303.302      452.930        0.250        0.131       48.527       21.785        0.202      335.282        5.811      865.762
12/03/2021  20:49:00      -76.705       -5.713      -15.236       30.498       20.041       19.844      930.101      401.653      393.765        0.394        0.086       76.918       18.876        0.060      335.278        5.804      865.765
12/03/2021  20:50:00      -64.378        5.932      -10.175       30.823       16.345       16.770      950.046      267.174      281.221        0.289        0.075       64.650       14.494        0.050      335.304        5.847      865.764
12/03/2021  20:51:00      -38.931        1.210       -2.727       28.359       21.987       15.984      804.232      483.409      255.494        0.153        0.077       38.949       10.010        0.066      335.298        5.838      865.769
12/03/2021  20:52:00      -91.386        3.643      -11.558       23.767       24.384       15.991      564.878      594.594      255.721        0.496        0.071       91.458        8.948        0.010      335.279        5.806      865.773
12/03/2021  20:53:00      -66.045       -4.482       -4.274       34.339       27.458       20.932     1179.135      753.933      438.155        0.339        0.119       66.197       14.595        0.049      335.225        5.716      865.780
12/03/2021  20:54:00      -67.466       13.108       -0.989       33.937       23.183       20.720     1151.730      537.466      429.319        0.342        0.106       68.727       16.586        0.058      335.249        5.757      865.796
12/03/2021  20:55:00      -81.742       15.433        0.007       43.569       33.724       21.962     1898.285     1137.331      482.313        0.522        0.176       83.186       20.246        0.059      335.180        5.643      865.809
12/03/2021  20:56:00      -57.455        6.352       -2.329       46.367       21.406       22.030     2149.912      458.198      485.337        0.322        0.155       57.805       22.905        0.157      335.122        5.547      865.814
12/03/2021  20:57:00     -100.564        9.963       -7.417       25.972       17.993       16.743      674.536      323.740      280.314        0.577        0.064      101.056       15.206        0.023      335.137        5.572      865.831
12/03/2021  20:58:00     -127.125       17.911      -12.945       23.549       16.692       16.681      554.572      278.623      278.259        0.888        0.056      128.381       11.774        0.008      335.149        5.590      865.829
12/03/2021  20:59:00      -65.970        4.688      -10.870       40.676       27.916       20.092     1654.511      779.285      403.670        0.366        0.142       66.136       16.172        0.060      335.157        5.604      865.836
12/03/2021  21:00:00      -88.436        7.850      -10.110       35.936       24.500       16.201     1291.378      600.250      262.474        0.507        0.108       88.783        8.989        0.010      335.123        5.548      865.836
12/03/2021  21:01:00     -101.133       14.239       -6.564       33.126       21.202       17.525     1097.322      449.515      307.137        0.616        0.093      102.130       14.982        0.022      335.028        5.391      865.851
12/03/2021  21:02:00     -128.114       24.777       -9.028       24.068       20.452       17.325      579.261      418.282      300.140        0.920        0.065      130.488        9.175        0.005      335.039        5.411      865.863
12/03/2021  21:03:00      -90.513       17.441      -10.144       35.325       31.587       21.587     1247.888      997.725      465.978        0.566        0.136       92.178       18.240        0.039      335.027        5.390      865.876
12/03/2021  21:04:00     -123.488       28.705      -17.474       23.950       25.433       17.668      573.591      646.856      312.148        0.896        0.077      126.780        9.574        0.006      334.928        5.225      865.875
12/03/2021  21:05:00      -96.846       29.140       -6.029       49.440       34.522       22.866     2444.301     1191.774      522.853        0.721        0.208      101.135       19.682        0.038      335.005        5.354      865.885
12/03/2021  21:06:00      -79.892        1.616       -3.367       49.932       38.280       27.099     2493.214     1465.385      734.336        0.554        0.235       79.908       28.725        0.129      334.967        5.289      865.886
12/03/2021  21:07:00      -13.127       -1.136       -7.318       47.684       28.496       28.758     2273.755      812.042      827.013        0.207        0.196       13.176       25.757        3.821      334.902        5.182      865.883
12/03/2021  21:08:00      -54.518       11.359       -7.239       78.121       31.220       23.484     6102.919      974.708      551.517        0.539        0.381       55.689       34.181        0.377      334.938        5.242      865.874
12/03/2021  21:09:00      -63.994       -3.848      -11.514       66.384       43.321       34.308     4406.879     1876.682     1177.019        0.585        0.373       64.109       32.701        0.260      334.994        5.334      865.871
12/03/2021  21:10:00      -87.146       13.024        0.883       63.112       35.665       32.362     3983.095     1271.974     1047.307        0.703        0.315       88.114       33.141        0.141      334.951        5.262      865.874
12/03/2021  21:11:00      -57.722        6.746       -2.333       51.811       30.599       22.499     2684.369      936.284      506.196        0.375        0.206       58.114       27.327        0.221      334.944        5.252      865.878
12/03/2021  21:12:00      -76.245       25.112       -0.056       54.454       28.861       24.984     2965.276      832.967      624.185        0.543        0.221       80.274       30.704        0.146      334.934        5.235      865.881
12/03/2021  21:13:00      -60.524        3.027        2.207       51.929       37.651       22.181     2696.635     1417.586      492.005        0.414        0.230       60.600       26.098        0.185      334.901        5.181      865.879
12/03/2021  21:14:00      -59.792       -2.276       -9.125       41.550       46.555       26.212     1726.401     2167.363      687.056        0.412        0.229       59.835       21.025        0.123      334.880        5.146      865.881
12/03/2021  21:15:00      -25.186        5.250        4.342       58.593       35.006       24.350     3433.088     1225.451      592.937        0.297        0.263       25.727       27.277        1.124      334.816        5.039      865.877
12/03/2021  21:16:00      -40.945      -12.391      -26.723       36.473       19.700       26.945     1330.255      388.105      726.019        0.249        0.122       42.779       22.373        0.274      334.840        5.079      865.886
12/03/2021  21:17:00      -25.610       -2.682      -18.425       33.091       36.331       27.935     1095.031     1319.948      780.376        0.210        0.160       25.750       18.069        0.492      334.838        5.075      865.886
12/03/2021  21:18:00      -24.542       -1.727      -14.463       32.943       37.412       19.147     1085.246     1399.624      366.596        0.183        0.143       24.603       13.281        0.291      334.834        5.070      865.897
12/03/2021  21:19:00      -89.447       -4.654       -9.076       46.234       27.915       22.166     2137.578      779.221      491.336        0.576        0.170       89.568       21.604        0.058      334.813        5.035      865.900
12/03/2021  21:20:00     -136.010       32.930      -10.664       26.150       19.886       17.955      683.822      395.471      322.374        1.055        0.070      139.940       14.294        0.010      334.813        5.034      865.906
12/03/2021  21:21:00     -126.882       37.351      -10.155       26.194       17.413       16.472      686.115      303.204      271.324        0.943        0.063      132.265       10.504        0.006      334.844        5.085      865.913
12/03/2021  21:22:00      -71.745       16.411      -12.762       18.075       16.618       14.153      326.693      276.169      200.318        0.319        0.040       73.598        9.927        0.018      334.845        5.088      865.919
12/03/2021  21:23:00      -80.508       13.414      -16.902       12.046       15.624       10.894      145.100      244.102      118.673        0.373        0.025       81.617        8.230        0.010      334.936        5.239      865.921
12/03/2021  21:24:00      -86.363       18.427      -12.190       26.833       14.253       10.896      720.028      203.160      118.717        0.449        0.052       88.307        6.151        0.005      334.878        5.144      865.919
12/03/2021  21:25:00      -98.539       36.158      -13.822       20.282       17.648       13.367      411.364      311.444      178.667        0.605        0.045      104.964       12.861        0.015      334.896        5.171      865.914
12/03/2021  21:26:00      -39.654        4.325       -3.914       35.275       29.031       16.272     1244.319      842.783      264.775        0.198        0.118       39.890       13.742        0.119      334.948        5.257      865.912
12/03/2021  21:27:00      -78.283       10.364       -6.248       21.190       16.214       14.852      448.997      262.904      220.586        0.360        0.047       78.966        8.823        0.012      335.022        5.381      865.902
12/03/2021  21:28:00      -39.659       -7.290      -10.540       24.086       19.675       13.475      580.122      387.093      181.586        0.144        0.057       40.324        9.824        0.059      335.041        5.410      865.891
12/03/2021  21:29:00      -79.885       14.992      -13.448       29.112       24.674       16.474      847.499      608.822      271.377        0.426        0.086       81.280       12.345        0.023      335.002        5.347      865.878
12/03/2021  21:30:00      -82.878        8.900       -8.087       37.596       23.126       17.664     1413.425      534.795      312.004        0.464        0.113       83.355       12.106        0.021      334.959        5.276      865.867
12/03/2021  21:31:00      -81.787        6.697       -1.633       28.822       26.149       21.044      830.693      683.763      442.860        0.435        0.098       82.060       15.124        0.034      334.953        5.267      865.861
12/03/2021  21:32:00      -93.426        5.208       -8.684       39.028       20.093       17.109     1523.204      403.746      292.720        0.552        0.111       93.571       19.837        0.045      334.823        5.051      865.863
12/03/2021  21:33:00      -93.728       20.686      -10.194       28.517       26.046       17.621      813.203      678.376      310.502        0.556        0.090       95.984       16.701        0.030      334.816        5.038      865.862
12/03/2021  21:34:00     -122.356       24.185       -9.137       22.255       20.965       17.362      495.286      439.532      301.430        0.844        0.062      124.724       13.320        0.011      334.738        4.910      865.864
12/03/2021  21:35:00     -108.192       12.860       -5.583       40.801       23.403       18.145     1664.690      547.684      329.247        0.722        0.127      108.953       19.195        0.031      334.788        4.992      865.870
12/03/2021  21:36:00      -83.556        6.825        0.019       42.899       27.982       21.977     1840.282      782.988      483.003        0.507        0.155       83.834       22.884        0.075      334.792        4.998      865.873
12/03/2021  21:37:00      -81.244       23.541       -2.229       42.161       23.664       20.323     1777.550      560.002      413.044        0.495        0.138       84.586       22.037        0.068      334.845        5.088      865.881
12/03/2021  21:38:00      -72.629       12.669       -8.448       32.966       23.147       14.149     1086.776      535.803      200.203        0.366        0.091       73.726       13.300        0.033      334.894        5.168      865.876
12/03/2021  21:39:00      -73.261        3.753       -8.806       36.419       22.574       17.797     1326.339      509.601      316.722        0.381        0.108       73.357       21.072        0.083      334.902        5.183      865.874
12/03/2021  21:40:00      -47.841       -0.768       -9.952       32.851       21.169       19.927     1079.164      448.120      397.078        0.216        0.096       47.847       17.227        0.130      334.822        5.049      865.873
12/03/2021  21:41:00     -101.294      -12.256      -12.539       59.191       25.525       20.896     3503.529      651.540      436.662        0.758        0.230      102.033       23.308        0.052      334.692        4.832      865.882
12/03/2021  21:42:00     -113.439        2.413      -11.139       48.616       31.717       20.559     2363.474     1005.970      422.657        0.839        0.190      113.465       19.328        0.029      334.726        4.888      865.879
12/03/2021  21:43:00     -110.197       -8.847       -3.147       32.671       27.574       24.653     1067.366      760.302      607.748        0.733        0.122      110.552       20.288        0.034      334.667        4.791      865.873
12/03/2021  21:44:00      -95.737       13.054      -13.303       33.273       26.726       26.378     1107.068      714.305      695.797        0.601        0.126       96.623       18.755        0.038      334.745        4.920      865.874
12/03/2021  21:45:00      -55.277        2.886       -3.416       28.343       37.190       18.744      803.315     1383.099      351.332        0.281        0.127       55.352       13.454        0.059      334.663        4.784      865.880
12/03/2021  21:46:00      -63.576       -1.721       -6.970       40.367       25.464       21.076     1629.527      648.399      444.198        0.341        0.136       63.599       16.874        0.070      334.708        4.859      865.878
12/03/2021  21:47:00     -103.693       21.495       -0.950       45.126       27.054       25.634     2036.318      731.917      657.117        0.732        0.171      105.898       27.455        0.067      334.694        4.836      865.874
12/03/2021  21:48:00      -88.950       -1.271       -1.573       38.798       24.186       19.632     1505.303      584.958      385.397        0.520        0.124       88.960       20.360        0.052      334.643        4.750      865.879
12/03/2021  21:49:00      -86.269        1.449       -0.017       43.157       33.662       23.278     1862.561     1133.115      541.862        0.549        0.177       86.281       24.075        0.078      334.628        4.725      865.883
12/03/2021  21:50:00     -121.506       24.742       -2.893       38.036       20.469       21.773     1446.773      418.989      474.076        0.886        0.117      124.000       21.441        0.030      334.584        4.651      865.897
12/03/2021  21:51:00      -56.171        0.617       -5.449       46.785       29.646       22.791     2188.789      878.899      519.436        0.339        0.179       56.174       24.438        0.189      334.540        4.577      865.905
12/03/2021  21:52:00      -56.763       -1.410       -1.331       37.846       24.026       21.757     1432.288      577.232      473.353        0.285        0.124       56.781       19.511        0.118      334.583        4.649      865.924
12/03/2021  21:53:00      -95.356      -22.375      -18.472       38.322       24.054       20.365     1468.590      578.584      414.730        0.620        0.123       97.946       18.176        0.034      334.503        4.517      865.923
12/03/2021  21:54:00     -107.609       12.323      -16.881       30.531       32.775       15.750      932.124     1074.214      248.050        0.714        0.113      108.312       13.913        0.016      334.501        4.516      865.928
12/03/2021  21:55:00      -49.029        3.787      -10.931       37.891       23.141       17.320     1435.722      535.506      299.996        0.240        0.114       49.175       15.578        0.100      334.473        4.467      865.937
12/03/2021  21:56:00      -36.202       -9.780       -6.597       28.652       21.666       19.477      820.957      469.431      379.373        0.156        0.083       37.499       11.545        0.095      334.452        4.432      865.944
12/03/2021  21:57:00     -106.557       20.973      -18.161       23.198       14.633       14.067      538.163      214.138      197.886        0.654        0.048      108.601       10.556        0.009      334.425        4.388      865.953
12/03/2021  21:58:00      -74.906        7.277      -12.821       22.001       22.801       19.475      484.065      519.880      379.277        0.361        0.069       75.259        6.570        0.008      334.437        4.407      865.949
12/03/2021  21:59:00      -99.615       22.763       -8.695       26.149       21.437       13.879      683.780      459.566      192.639        0.593        0.067      102.182       13.089        0.016      334.372        4.300      865.947
12/03/2021  22:00:00     -118.398       24.041      -20.042       15.169       11.102       13.817      230.111      123.254      190.916        0.777        0.027      120.814        4.309        0.001      334.366        4.292      865.950
12/03/2021  22:01:00      -98.323       13.704      -21.919       10.364       13.644       13.827      107.406      186.172      191.186        0.541        0.024       99.273       10.519        0.011      334.373        4.301      865.948
12/03/2021  22:02:00      -91.145       16.816      -22.516       17.027       15.097       13.351      289.913      227.918      178.256        0.490        0.035       92.684        6.999        0.006      334.434        4.403      865.951
12/03/2021  22:03:00      -55.783        1.077      -11.235       31.538       22.225       21.218      994.625      493.951      450.201        0.259        0.097       55.793       16.935        0.092      334.418        4.377      865.957
12/03/2021  22:04:00      -82.187       16.126      -26.554       22.884       19.621       17.706      523.685      384.987      313.511        0.447        0.061       83.755       17.587        0.044      334.347        4.258      865.958
12/03/2021  22:05:00      -79.600       22.229      -20.813       19.463       16.587       14.058      378.813      275.136      197.629        0.406        0.043       82.646        5.728        0.005      334.383        4.319      865.961
12/03/2021  22:06:00      -63.824       13.942      -24.086       15.726       18.809       13.139      247.303      353.773      172.633        0.281        0.039       65.329        8.480        0.017      334.304        4.189      865.962
12/03/2021  22:07:00      -53.239        1.798      -12.693       22.587       29.160       18.038      510.184      850.308      325.361        0.234        0.084       53.269       14.503        0.074      334.370        4.298      865.958
12/03/2021  22:08:00      -87.417       19.988      -21.923       19.695       23.360       18.134      387.880      545.683      328.845        0.489        0.063       89.673       11.708        0.017      334.355        4.273      865.951
12/03/2021  22:09:00      -66.542       20.475      -20.356       34.438       24.821       23.291     1185.978      616.089      542.472        0.380        0.117       69.620       19.854        0.081      334.312        4.200      865.946
12/03/2021  22:10:00      -78.478       21.038      -29.819       24.572       20.957       18.599      603.776      439.208      345.913        0.444        0.069       81.249       13.416        0.027      334.316        4.208      865.934
12/03/2021  22:11:00      -69.760       16.053      -25.226       24.347       25.024       22.488      592.798      626.224      505.709        0.374        0.086       71.584       10.492        0.021      334.353        4.268      865.935
12/03/2021  22:12:00      -56.574        7.486      -18.487       21.673       22.541       18.831      469.704      508.107      354.622        0.247        0.067       57.068        7.551        0.018      334.286        4.157      865.935
12/03/2021  22:13:00      -65.133       -1.750      -15.135       28.538       23.844       19.747      814.443      568.525      389.931        0.312        0.089       65.156       16.784        0.066      334.262        4.118      865.934
12/03/2021  22:14:00      -69.413       14.969      -18.259       20.927       19.533       18.506      437.940      381.553      342.477        0.327        0.058       71.009       13.344        0.035      334.272        4.133      865.930
12/03/2021  22:15:00      -89.436       18.444      -23.061       12.832       18.993       11.651      164.660      360.745      135.742        0.477        0.033       91.318        5.333        0.003      334.247        4.094      865.930
12/03/2021  22:16:00      -64.075       13.185      -24.798       37.959       18.457       16.101     1440.859      340.646      259.245        0.347        0.102       65.417       16.494        0.064      334.253        4.103      865.924
12/03/2021  22:17:00      -68.077       21.501      -15.226       26.756       28.536       22.801      715.909      814.319      519.889        0.369        0.103       71.391       12.274        0.030      334.260        4.115      865.928
12/03/2021  22:18:00      -37.074      -10.226      -13.898       34.329       21.649       25.103     1178.454      468.693      630.172        0.197        0.114       38.459       25.294        0.433      334.199        4.014      865.927
12/03/2021  22:19:00      -35.591       19.656      -13.007       27.803       19.810       23.167      772.984      392.421      536.727        0.176        0.085       40.658       18.296        0.202      334.197        4.010      865.930
12/03/2021  22:20:00      -36.640       -1.169      -14.352       22.528       28.780       19.353      507.518      828.303      374.531        0.163        0.086       36.658        6.657        0.033      334.142        3.918      865.939
12/03/2021  22:21:00      -45.842       -3.207      -18.842       34.753       27.345       24.115     1207.774      747.752      581.521        0.250        0.127       45.954       15.502        0.114      334.142        3.920      865.939
12/03/2021  22:22:00      -55.627       19.445      -17.942       39.195       25.143       20.433     1536.285      632.193      417.494        0.319        0.129       58.928       16.368        0.077      334.200        4.015      865.936
12/03/2021  22:23:00      -78.246       15.209      -18.239       33.045       25.831       20.189     1091.988      667.218      407.593        0.443        0.108       79.710       16.039        0.040      334.159        3.946      865.939
12/03/2021  22:24:00      -44.580        4.256      -24.043       36.151       24.193       20.359     1306.861      585.308      414.484        0.244        0.115       44.783       18.650        0.173      334.132        3.903      865.949
12/03/2021  22:25:00      -22.894        3.383       -0.483       36.028       33.290       17.438     1298.005     1108.241      304.068        0.162        0.136       23.143       21.531        0.866      334.054        3.774      865.956
12/03/2021  22:26:00      -30.168        9.059       -8.332       41.167       25.359       32.152     1694.694      643.083     1033.720        0.222        0.169       31.499       31.659        1.010      334.072        3.805      865.965
12/03/2021  22:27:00      -29.681        8.514      -15.405       36.127       29.833       21.638     1305.177      890.002      468.199        0.193        0.133       30.878       16.728        0.293      334.049        3.766      865.969
12/03/2021  22:28:00      -68.864       14.270      -29.977       29.876       30.346       22.942      892.561      920.871      526.314        0.409        0.117       70.327       13.137        0.035      334.052        3.771      865.974
12/03/2021  22:29:00      -63.878       -0.634      -20.369       20.155       29.606       21.401      406.239      876.522      458.001        0.312        0.087       63.882        9.486        0.022      334.063        3.789      865.972
12/03/2021  22:30:00      -54.722       -1.146      -20.498       28.534       23.005       23.956      814.214      529.219      573.883        0.267        0.096       54.734       17.323        0.100      334.106        3.859      865.977
12/03/2021  22:31:00      -45.413        3.253      -21.371       32.891       19.531       22.347     1081.804      381.457      499.390        0.225        0.098       45.530       18.662        0.168      334.072        3.803      865.976
12/03/2021  22:32:00      -73.662       -1.140      -34.779       22.274       18.929       19.402      496.144      358.309      376.419        0.393        0.062       73.671       11.316        0.024      334.100        3.850      865.978
12/03/2021  22:33:00      -85.076       11.861      -30.043       18.849       25.210       17.575      355.296      635.523      308.868        0.479        0.065       85.899        8.977        0.011      334.142        3.920      865.975
12/03/2021  22:34:00      -33.131       12.776      -14.445       29.680       24.169       22.597      880.927      584.141      510.625        0.172        0.099       35.509       18.455        0.270      334.086        3.827      865.976
12/03/2021  22:35:00      -58.036        9.509      -31.143       26.538       15.494       16.762      704.248      240.062      280.960        0.283        0.061       58.810        9.335        0.025      334.153        3.938      865.978
12/03/2021  22:36:00      -47.673       21.089      -16.788       19.857       17.361       10.308      394.288      301.407      106.261        0.190        0.040       52.129        8.168        0.025      334.156        3.942      865.985
12/03/2021  22:37:00      -57.246       26.746      -16.951        8.599       10.123        8.639       73.947      102.471       74.635        0.227        0.013       63.186        1.716        0.001      334.142        3.919      865.984
12/03/2021  22:38:00      -53.659       10.578      -27.767       16.823       13.881       15.330      283.002      192.680      235.009        0.224        0.036       54.692        6.104        0.012      334.191        4.001      865.982
12/03/2021  22:39:00      -61.349       18.008      -21.568       23.301       17.171       13.798      542.947      294.848      190.388        0.279        0.051       63.938       10.503        0.027      334.126        3.893      865.989
12/03/2021  22:40:00      -73.373       20.461      -20.387       28.299       19.840       15.259      800.860      393.628      232.828        0.382        0.071       76.173       18.213        0.057      334.076        3.809      865.989
12/03/2021  22:41:00      -74.833       16.798      -30.568       23.962       19.780       14.124      574.165      391.249      199.475        0.399        0.058       76.695       12.805        0.028      334.019        3.716      866.000
12/03/2021  22:42:00      -21.990        5.279       -3.756       22.435       17.597       15.428      503.329      309.671      238.013        0.079        0.053       22.615        8.943        0.156      333.988        3.665      866.000
12/03/2021  22:43:00      -52.531       -1.521      -18.508       20.471       25.261       16.828      419.044      638.096      283.169        0.222        0.067       52.553        8.209        0.024      334.057        3.779      866.013
12/03/2021  22:44:00      -36.320        6.543      -12.787       30.665       26.092       17.717      940.336      680.804      313.906        0.173        0.097       36.904       10.405        0.079      334.075        3.808      866.026
12/03/2021  22:45:00      -45.201       14.708      -11.280       23.973       20.806       17.155      574.716      432.900      294.278        0.184        0.065       47.533        7.581        0.025      334.044        3.757      866.043
12/03/2021  22:46:00      -36.655       -5.331      -19.457       19.466       24.205       18.430      378.925      585.903      339.654        0.153        0.065       37.041       13.137        0.126      334.007        3.697      866.047
12/03/2021  22:47:00      -40.444        7.064       -6.926       28.233       18.752       15.937      797.087      351.620      253.973        0.157        0.070       41.056       13.211        0.104      334.052        3.771      866.061
12/03/2021  22:48:00      -49.266       15.004      -18.116       18.686       15.534       18.065      349.160      241.317      326.331        0.195        0.046       51.500       10.788        0.044      334.082        3.821      866.067
12/03/2021  22:49:00      -49.066       11.224      -17.965       16.454       10.026       10.330      270.747      100.514      106.719        0.167        0.024       50.334        4.898        0.009      334.090        3.834      866.082
12/03/2021  22:50:00      -39.567        7.334      -13.248       15.312       22.767       13.914      234.442      518.336      193.605        0.137        0.047       40.241        9.376        0.054      334.072        3.803      866.097
12/03/2021  22:51:00      -57.833       13.529      -14.973       18.229       17.531       12.676      332.299      307.334      160.689        0.228        0.040       59.394        6.304        0.011      334.034        3.742      866.120
12/03/2021  22:52:00      -45.592        6.293      -14.636       19.505       19.141       14.044      380.455      366.380      197.236        0.164        0.047       46.024        5.937        0.017      334.011        3.704      866.136
12/03/2021  22:53:00      -83.388       18.051      -22.213       21.627       14.506       15.859      467.732      210.415      251.512        0.435        0.046       85.320        5.936        0.005      333.988        3.665      866.153
12/03/2021  22:54:00      -76.411       21.039      -11.175       37.774       27.482       16.939     1426.894      755.243      286.939        0.444        0.123       79.254       15.314        0.037      333.915        3.543      866.175
12/03/2021  22:55:00     -117.234       40.705      -14.269       16.304       15.598       15.053      265.824      243.309      226.597        0.817        0.037      124.100        9.200        0.005      333.938        3.582      866.187
12/03/2021  22:56:00      -91.169       29.317      -10.027       40.733       18.629       17.045     1659.146      347.039      290.533        0.578        0.115       95.767       21.552        0.051      333.910        3.536      866.199
12/03/2021  22:57:00      -88.438       24.740       -7.281       14.544       14.958       11.676      211.533      223.728      136.322        0.453        0.029       91.834        7.827        0.007      333.966        3.626      866.205
12/03/2021  22:58:00      -66.075       12.716      -16.830       10.862       12.193        8.843      117.988      148.675       78.198        0.258        0.017       67.287        5.606        0.007      334.054        3.774      866.210
12/03/2021  22:59:00      -66.142       17.035      -14.468       14.557       11.431       12.001      211.902      130.667      144.021        0.268        0.024       68.301        5.658        0.007      334.158        3.947      866.211
12/03/2021  23:00:00      -76.110       18.752      -16.490       25.808       15.334       14.551      666.033      235.122      211.729        0.376        0.056       78.386        9.422        0.014      334.110        3.866      866.212
12/03/2021  23:01:00      -42.742       -7.563       -8.839       19.499       16.685       13.009      380.207      278.374      169.224        0.139        0.041       43.406        5.882        0.018      333.986        3.661      866.213
12/03/2021  23:02:00      -67.848       16.191       -3.544       22.355       19.062       13.857      499.750      363.374      192.003        0.297        0.053       69.754        6.026        0.007      334.014        3.708      866.209
12/03/2021  23:03:00      -65.463       14.538      -10.185       27.592       18.971       11.913      761.343      359.905      141.917        0.293        0.063       67.058        7.819        0.014      334.067        3.796      866.213
12/03/2021  23:04:00     -100.946       17.137      -10.174       23.965       17.657       13.466      574.329      311.768      181.320        0.583        0.053      102.390        9.420        0.008      333.997        3.681      866.212
12/03/2021  23:05:00     -114.201       28.651       -5.410       20.765       21.065       13.484      431.186      443.752      181.813        0.747        0.053      117.740       10.509        0.008      333.977        3.646      866.211
12/03/2021  23:06:00      -95.633       19.134       -5.192       24.441       15.745       16.271      597.342      247.895      264.736        0.532        0.055       97.528       13.148        0.018      333.898        3.516      866.211
12/03/2021  23:07:00      -87.587       20.008       -5.314       29.235       20.169       17.516      854.661      406.807      306.828        0.483        0.078       89.843       17.192        0.037      333.794        3.343      866.217
12/03/2021  23:08:00      -91.930       23.095       -3.995       30.630       21.289       16.362      938.224      453.207      267.722        0.533        0.083       94.787       12.665        0.018      333.749        3.268      866.218
12/03/2021  23:09:00     -111.152       19.737      -14.438       18.051       14.579       11.147      325.857      212.551      124.264        0.681        0.033      112.891        7.828        0.005      333.826        3.396      866.222
12/03/2021  23:10:00      -71.459        4.127      -13.915       27.625       17.008       13.458      763.167      289.269      181.119        0.328        0.062       71.578       11.052        0.024      333.852        3.439      866.231
12/03/2021  23:11:00      -57.346      -11.840       -7.594       39.082       20.146       17.332     1527.430      405.881      300.415        0.286        0.112       58.556       20.328        0.121      333.807        3.365      866.236
12/03/2021  23:12:00      -79.010        0.450      -16.540       41.535       20.067       19.240     1725.166      402.684      370.162        0.451        0.125       79.011       19.313        0.060      333.815        3.379      866.236
12/03/2021  23:13:00      -79.590        8.706      -15.980       31.482       25.539       19.495      991.136      652.239      380.051        0.434        0.101       80.065       13.525        0.029      333.799        3.351      866.238
12/03/2021  23:14:00     -131.224       22.665      -15.695       19.150       19.330       15.128      366.738      373.658      228.857        0.947        0.048      133.167        8.494        0.004      333.816        3.380      866.249
12/03/2021  23:15:00     -117.493       16.428       -6.165       27.215       20.560       16.204      740.642      422.694      262.572        0.777        0.071      118.636       12.571        0.011      333.766        3.296      866.248
12/03/2021  23:16:00      -78.000        8.795       -5.990       29.132       22.754       17.769      848.644      517.737      315.749        0.394        0.084       78.494       10.051        0.016      333.774        3.311      866.244
12/03/2021  23:17:00      -54.848       -3.430       -0.744       42.941       21.336       16.542     1843.923      455.243      273.636        0.280        0.129       54.955       16.294        0.088      333.750        3.270      866.243
12/03/2021  23:18:00      -90.473        2.771      -10.049       25.058       18.274       15.885      627.898      333.941      252.323        0.475        0.061       90.515       14.660        0.026      333.835        3.412      866.242
12/03/2021  23:19:00     -113.236       21.761       -9.033       18.661       15.437       13.895      348.250      238.294      193.079        0.708        0.039      115.308       11.138        0.009      333.780        3.320      866.236
12/03/2021  23:20:00      -82.877       23.638        0.224       27.496       20.388       15.041      756.026      415.669      226.221        0.441        0.070       86.182       12.303        0.020      333.730        3.236      866.239
12/03/2021  23:21:00      -60.476        6.414       -2.498       46.571       20.921       18.846     2168.879      437.708      355.183        0.333        0.148       60.815       18.512        0.093      333.741        3.256      866.240
12/03/2021  23:22:00      -91.098        1.145       -5.938       27.671       23.929       18.578      765.679      572.599      345.142        0.501        0.084       91.106       13.977        0.024      333.840        3.418      866.247
12/03/2021  23:23:00      -43.853        5.359       -5.106       31.341       19.097       16.334      982.253      364.680      266.793        0.180        0.081       44.179       12.374        0.078      333.877        3.480      866.249
12/03/2021  23:24:00      -18.705       -3.453        4.457       31.580       26.629       17.354      997.291      709.128      301.177        0.119        0.100       19.021       14.016        0.543      333.778        3.316      866.249
12/03/2021  23:25:00      -71.864       -3.568       -1.596       31.652       24.401       21.441     1001.830      595.427      459.697        0.362        0.103       71.952       17.808        0.061      333.732        3.240      866.243
12/03/2021  23:26:00      -87.132        8.278       -9.806       36.028       27.613       18.576     1298.014      762.502      345.070        0.508        0.120       87.524       13.509        0.024      333.715        3.212      866.231
12/03/2021  23:27:00      -85.752        8.125       -0.700       35.916       22.836       21.510     1289.928      521.501      462.699        0.485        0.114       86.136       17.209        0.040      333.789        3.335      866.218
12/03/2021  23:28:00      -62.838        6.204       -3.904       32.526       21.540       16.480     1057.963      463.979      271.600        0.290        0.090       63.144       13.190        0.044      333.773        3.309      866.206
12/03/2021  23:29:00      -47.077        9.840       -2.028       35.836       18.510       14.501     1284.196      342.613      210.270        0.208        0.092       48.095       13.922        0.084      333.745        3.262      866.203
12/03/2021  23:30:00      -58.100        8.498       -2.205       21.843       17.598       14.202      477.122      309.677      201.709        0.222        0.049       58.718       11.673        0.040      333.787        3.331      866.200
12/03/2021  23:31:00      -82.742       18.268      -18.158       13.686       13.834       12.422      187.307      191.381      154.298        0.402        0.027       84.734       11.621        0.019      333.798        3.349      866.197
12/03/2021  23:32:00      -89.783       16.716      -25.406       12.374       11.271        8.400      153.120      127.044       70.558        0.467        0.018       91.326        2.532        0.001      333.766        3.297      866.198
12/03/2021  23:33:00      -92.692       16.817      -13.912       27.296       19.642       10.362      745.091      385.802      107.371        0.515        0.062       94.205        8.677        0.008      333.805        3.360      866.214
12/03/2021  23:34:00      -43.296        2.887       -7.967       21.950       22.683       16.029      481.781      514.533      256.937        0.160        0.063       43.392        8.968        0.043      333.779        3.316      866.222
12/03/2021  23:35:00      -56.023        5.182       -6.172       30.442       19.276       15.793      926.711      371.579      249.405        0.238        0.077       56.262       12.901        0.053      333.776        3.313      866.233
12/03/2021  23:36:00      -68.676       12.688       -7.018       27.336       17.900       13.049      747.273      320.412      170.264        0.308        0.062       69.838       12.325        0.031      333.816        3.380      866.247
12/03/2021  23:37:00      -90.918       14.875       -5.516       25.248       18.742       14.809      637.483      351.258      219.317        0.486        0.060       92.127       14.229        0.024      333.765        3.295      866.246
12/03/2021  23:38:00     -100.084       23.298       -2.192       21.817       18.545       13.082      475.978      343.925      171.150        0.578        0.050      102.760       10.057        0.010      333.639        3.085      866.240
12/03/2021  23:39:00     -113.310       15.021       -3.973       24.862       17.004       18.756      618.110      289.127      351.804        0.717        0.063      114.302       14.401        0.016      333.642        3.091      866.242
12/03/2021  23:40:00     -119.755       27.599      -12.125       19.492       13.185       16.405      379.919      173.842      269.121        0.804        0.041      122.894       13.861        0.013      333.625        3.065      866.244
12/03/2021  23:41:00     -128.949       28.394      -10.283       20.509       14.739       13.221      420.622      217.230      174.787        0.918        0.041      132.038        8.243        0.004      333.588        3.003      866.247
12/03/2021  23:42:00     -121.359       18.106      -13.297       23.032       18.460       15.957      530.470      340.772      254.632        0.818        0.056      122.702       12.207        0.010      333.537        2.918      866.237
12/03/2021  23:43:00      -91.149        0.165      -13.492       43.630       20.651       19.920     1903.617      426.480      396.795        0.561        0.136       91.149       18.886        0.043      333.521        2.892      866.234
12/03/2021  23:44:00      -76.566       -3.299       -8.906       37.541       25.495       22.668     1409.332      649.989      513.851        0.426        0.129       76.637       19.845        0.067      333.448        2.769      866.229
12/03/2021  23:45:00      -66.915      -25.074      -20.695       31.511       23.282       24.143      992.921      542.050      582.863        0.383        0.106       71.459       18.168        0.065      333.401        2.692      866.226
12/03/2021  23:46:00      -27.180       28.053      -12.761       30.549       20.315       16.801      933.241      412.700      282.264        0.166        0.081       39.061       11.259        0.083      333.339        2.589      866.219
12/03/2021  23:47:00      -39.158       18.856       -5.342       25.522       21.192       18.380      651.349      449.115      337.814        0.168        0.072       43.462       12.965        0.089      333.473        2.812      866.221
12/03/2021  23:48:00      -58.438       17.576      -16.560       37.298       21.465       18.412     1391.118      460.742      339.008        0.309        0.110       61.024        9.803        0.026      333.474        2.812      866.225
12/03/2021  23:49:00      -46.669       13.167      -26.838       22.954       21.626       18.955      526.904      467.666      359.304        0.221        0.068       48.491        9.302        0.037      333.452        2.777      866.217
12/03/2021  23:50:00      -42.627       10.620      -25.344       25.748       22.632       20.730      662.969      512.185      429.721        0.209        0.080       43.930       14.688        0.112      333.481        2.825      866.218
12/03/2021  23:51:00      -45.008      -12.888      -13.689       23.018       19.668       18.061      529.845      386.838      326.215        0.181        0.062       46.817        9.889        0.045      333.439        2.756      866.229
12/03/2021  23:52:00      -87.872       24.796      -20.139       26.567       25.562       17.738      705.815      653.391      314.651        0.521        0.084       91.304        9.921        0.012      333.405        2.699      866.227
12/03/2021  23:53:00      -76.644       22.145      -21.396       34.807       26.465       25.494     1211.546      700.382      649.936        0.469        0.128       79.779       20.179        0.064      333.452        2.778      866.227
12/03/2021  23:54:00      -69.453       10.210      -19.143       31.167       28.309       23.187      971.373      801.421      537.655        0.380        0.116       70.200       14.332        0.042      333.481        2.825      866.228
12/03/2021  23:55:00      -67.252       36.675      -28.082       20.721       18.532       14.853      429.374      343.423      220.608        0.382        0.050       76.602        9.689        0.016      333.485        2.831      866.225
12/03/2021  23:56:00      -52.614       11.089      -20.925       28.010       23.670       21.032      784.586      560.252      442.350        0.256        0.089       53.769       14.337        0.071      333.539        2.920      866.228
12/03/2021  23:57:00      -68.706       30.187      -28.815       22.360       15.337       15.927      499.962      235.222      253.654        0.373        0.049       75.045       10.676        0.020      333.494        2.844      866.217
12/03/2021  23:58:00      -64.821       27.216      -24.513       17.453       14.433       15.375      304.606      208.312      236.375        0.315        0.037       70.303        6.793        0.009      333.501        2.857      866.213
12/03/2021  23:59:00      -37.999        2.433       -9.617       22.883       17.298       14.375      523.613      299.235      206.648        0.129        0.051       38.077       14.291        0.141      333.498        2.853      866.204
12/04/2021  00:00:00      -40.760        7.982       -9.177       18.567       12.166       10.526      344.720      148.001      110.801        0.121        0.030       41.534        6.945        0.028      333.628        3.070      866.196
12/04/2021  00:01:00      -55.422       12.959      -14.657       12.975       12.579       10.317      168.339      158.234      106.431        0.194        0.022       56.917        6.079        0.011      333.625        3.063      866.188
12/04/2021  00:02:00      -66.642       20.412      -15.831        9.161       13.309        8.367       83.925      177.120       69.999        0.272        0.017       69.698        3.164        0.002      333.518        2.887      866.187
12/04/2021  00:03:00      -46.604       13.732      -10.257       15.865       15.993       11.346      251.702      255.776      128.742        0.155        0.032       48.585        5.255        0.012      333.571        2.974      866.178
12/04/2021  00:04:00      -76.474       28.575      -18.516       12.055       13.174       11.676      145.331      173.547      136.332        0.373        0.023       81.638        8.763        0.012      333.376        2.652      866.169
12/04/2021  00:05:00      -63.219        9.581      -12.876       19.505       15.735       13.609      380.465      247.596      185.193        0.253        0.041       63.941       10.359        0.026      333.390        2.675      866.167
12/04/2021  00:06:00      -65.661       -2.544      -22.790       17.583       16.696       17.366      309.149      278.758      301.567        0.286        0.044       65.710        8.202        0.016      333.362        2.629      866.165
12/04/2021  00:07:00      -55.947        1.142      -14.496       28.087       26.463       18.730      788.887      700.298      350.803        0.259        0.092       55.959       10.389        0.034      333.401        2.693      866.162
12/04/2021  00:08:00      -95.787       20.420      -23.715       16.796       14.221       11.578      282.122      202.229      134.051        0.539        0.031       97.940        7.664        0.006      333.425        2.731      866.159
12/04/2021  00:09:00     -115.834       26.161      -11.276       22.872       15.007       13.474      523.115      225.204      181.549        0.758        0.046      118.752       13.295        0.013      333.410        2.706      866.160
12/04/2021  00:10:00     -115.285       40.494       -5.641       32.629       22.038       17.303     1064.662      485.676      299.390        0.841        0.092      122.190       16.468        0.018      333.387        2.670      866.159
12/04/2021  00:11:00      -90.208       17.313       -9.794       20.220       19.479       16.879      408.829      379.438      284.913        0.480        0.054       91.855        9.532        0.011      333.431        2.740      866.165
12/04/2021  00:12:00     -104.436       34.402      -11.479       21.619       17.931       14.618      467.380      321.515      213.679        0.661        0.050      109.956        8.698        0.006      333.365        2.632      866.168
12/04/2021  00:13:00     -112.157       34.844      -16.255       27.698       20.932       17.978      767.206      438.167      323.216        0.779        0.076      117.445       12.831        0.012      333.194        2.351      866.163
12/04/2021  00:14:00      -80.139        3.012       -7.954       32.058       26.158       21.620     1027.686      684.254      467.418        0.434        0.109       80.196       16.336        0.041      333.227        2.405      866.171
12/04/2021  00:15:00      -99.335       -5.576      -13.141       28.867       27.548       23.988      833.309      758.871      575.401        0.612        0.108       99.492        9.571        0.009      333.327        2.570      866.178
12/04/2021  00:16:00     -105.446        2.032       -4.280       32.412       21.302       17.159     1050.522      453.780      294.420        0.647        0.090      105.466       16.538        0.025      333.246        2.437      866.180
12/04/2021  00:17:00      -93.424        2.886      -15.072       25.197       23.881       18.798      634.878      570.325      353.381        0.526        0.078       93.469       12.125        0.017      333.318        2.556      866.176
12/04/2021  00:18:00      -88.413       16.430      -18.686       15.081       14.125       11.963      227.429      199.510      143.109        0.450        0.029       89.927        8.657        0.009      333.277        2.487      866.176
12/04/2021  00:19:00      -95.802       15.584      -14.672       11.655       11.687       11.709      135.838      136.580      137.106        0.502        0.020       97.061        7.218        0.006      333.282        2.496      866.179
12/04/2021  00:20:00      -52.372       -1.893      -13.083       21.097       21.017       13.124      445.069      441.733      172.242        0.199        0.053       52.406        9.738        0.035      333.294        2.516      866.180
12/04/2021  00:21:00      -38.363        8.391      -14.256       22.830       20.278       17.194      521.217      411.203      295.618        0.149        0.061       39.270       11.288        0.083      333.294        2.515      866.184
12/04/2021  00:22:00      -59.932       14.062      -23.553       22.933       15.784       12.846      525.900      249.131      165.022        0.264        0.047       61.560        6.121        0.010      333.263        2.465      866.188
12/04/2021  00:23:00      -44.407       19.963      -18.513       17.904       15.435       16.192      320.540      238.254      262.196        0.177        0.041       48.688       11.491        0.056      333.352        2.611      866.191
12/04/2021  00:24:00      -33.211        6.745       -9.638       12.517       13.792        8.259      156.669      190.206       68.216        0.083        0.021       33.889        6.628        0.038      333.441        2.759      866.189
12/04/2021  00:25:00      -42.074        4.288      -12.978       14.112       12.786       11.650      199.156      163.477      135.714        0.123        0.025       42.292        4.767        0.013      333.431        2.742      866.187
12/04/2021  00:26:00      -51.605        0.193      -12.047       22.664       23.422       13.557      513.666      548.588      183.791        0.203        0.062       51.606        7.402        0.021      333.371        2.642      866.186
12/04/2021  00:27:00      -98.187       29.108      -15.815       34.674       20.085       16.945     1202.266      403.394      287.133        0.632        0.095      102.411       15.629        0.023      333.259        2.459      866.186
12/04/2021  00:28:00     -103.665       26.233      -21.878       17.017       13.321       11.251      289.562      177.461      126.593        0.625        0.030      106.933        8.111        0.006      333.371        2.643      866.184
12/04/2021  00:29:00      -80.468       20.755      -16.547       13.102       12.241       14.490      171.663      149.848      209.965        0.386        0.027       83.102        8.360        0.010      333.381        2.659      866.178
12/04/2021  00:30:00      -81.603       16.325      -17.572       13.305       11.586       10.827      177.011      134.232      117.216        0.383        0.021       83.220        5.164        0.004      333.413        2.713      866.167
12/04/2021  00:31:00      -49.647        9.768      -14.616       23.634       22.703       16.708      558.563      515.441      279.171        0.206        0.068       50.599       11.890        0.055      333.389        2.673      866.168
12/04/2021  00:32:00      -84.549       16.494      -15.526       16.700        9.549       13.361      278.893       91.180      178.514        0.410        0.027       86.142        6.541        0.006      333.449        2.770      866.172
12/04/2021  00:33:00      -66.697       16.981      -19.546       10.258        8.524        7.328      105.225       72.661       53.706        0.268        0.012       68.824        2.903        0.002      333.504        2.862      866.170
12/04/2021  00:34:00      -71.600       24.405      -21.367       12.878        7.698        8.109      165.841       59.256       65.752        0.323        0.015       75.645        4.435        0.003      333.612        3.042      866.171
12/04/2021  00:35:00      -77.561       19.151       -7.811       14.710       16.606       13.088      216.391      275.766      171.287        0.355        0.033       79.891        7.255        0.008      333.572        2.977      866.174
12/04/2021  00:36:00      -65.929       11.633      -12.811       22.801       18.256       14.766      519.880      333.275      218.049        0.286        0.054       66.947       12.832        0.037      333.515        2.880      866.181
12/04/2021  00:37:00      -61.621       28.315       -2.820       23.254       22.686       12.095      540.739      514.653      146.281        0.290        0.060       67.815        9.803        0.021      333.345        2.600      866.183
12/04/2021  00:38:00      -69.089       12.206       -6.067       22.134       16.534       11.470      489.920      273.360      131.560        0.293        0.045       70.159        4.341        0.004      333.377        2.652      866.183
12/04/2021  00:39:00      -35.599        2.562       -7.018       23.975       16.049       11.829      574.781      257.581      139.936        0.115        0.049       35.692        5.954        0.028      333.420        2.724      866.180
12/04/2021  00:40:00      -56.267       15.124      -11.108       14.825       11.612       12.452      219.795      134.849      155.041        0.201        0.025       58.264        8.650        0.022      333.481        2.823      866.176
12/04/2021  00:41:00      -61.064       14.930       -7.959       12.007       10.778        8.848      144.166      116.160       78.282        0.218        0.017       62.863        4.146        0.004      333.461        2.791      866.173
12/04/2021  00:42:00      -59.627       13.303       -4.564       19.562       11.678       12.429      382.654      136.379      154.486        0.221        0.034       61.093       12.490        0.042      333.482        2.825      866.173
12/04/2021  00:43:00      -70.951        7.669       -8.226       17.357       17.357       10.578      301.267      301.265      111.901        0.294        0.036       71.364       10.291        0.021      333.572        2.975      866.172
12/04/2021  00:44:00      -57.800       -1.238      -10.654       20.664       20.904       12.759      427.000      436.989      162.781        0.224        0.051       57.813        7.725        0.018      333.503        2.861      866.176
12/04/2021  00:45:00      -77.799        4.590      -10.266       44.844       25.417       18.283     2010.981      645.999      334.272        0.458        0.150       77.934       12.867        0.027      333.437        2.751      866.178
12/04/2021  00:46:00      -63.454        5.613       -3.186       38.763       33.744       24.010     1502.550     1138.650      576.458        0.364        0.161       63.702       17.975        0.080      333.236        2.420      866.188
12/04/2021  00:47:00     -103.533        2.956       -7.391       52.744       32.780       21.980     2781.905     1074.497      483.104        0.756        0.217      103.575       16.638        0.026      333.170        2.310      866.182
12/04/2021  00:48:00      -98.680       13.492       -6.053       38.489       25.911       20.085     1481.399      671.395      403.391        0.626        0.128       99.598       19.251        0.037      333.221        2.395      866.183
12/04/2021  00:49:00      -99.936       19.717       -6.032       25.625       21.038       18.205      656.630      442.580      331.429        0.592        0.072      101.862       13.133        0.017      333.137        2.256      866.182
12/04/2021  00:50:00      -25.530       -5.817        2.253       46.591       23.798       19.710     2170.691      566.333      388.481        0.191        0.156       26.185       15.955        0.371      333.200        2.359      866.184
12/04/2021  00:51:00      -69.571        0.374       -1.661       39.596       22.797       20.889     1567.863      519.680      436.333        0.368        0.126       69.572       17.316        0.062      333.170        2.309      866.190
12/04/2021  00:52:00      -79.188       12.242       -4.265       30.944       19.764       16.560      957.506      390.604      274.233        0.403        0.081       80.129       11.908        0.022      333.231        2.410      866.184
12/04/2021  00:53:00      -47.864        6.557       -1.222       31.745       23.210       15.610     1007.749      538.721      243.668        0.206        0.090       48.311       14.178        0.086      333.217        2.387      866.185
12/04/2021  00:54:00      -48.782        3.304       -4.724       31.704       21.443       17.664     1005.117      459.799      312.019        0.209        0.089       48.894       14.552        0.089      333.169        2.307      866.181
12/04/2021  00:55:00      -53.243        7.067       -7.766       21.603       18.024       13.006      466.688      324.857      169.158        0.195        0.048       53.710       11.747        0.048      333.231        2.411      866.178
12/04/2021  00:56:00      -20.452       -1.380       -1.901       23.914       14.525       11.444      571.895      210.990      130.955        0.067        0.046       20.498       12.194        0.354      333.256        2.453      866.178
12/04/2021  00:57:00      -42.727      -12.415       -7.969       20.232       19.590       12.870      409.321      383.760      165.631        0.150        0.048       44.494       10.620        0.057      333.259        2.456      866.177
12/04/2021  00:58:00      -23.570       -5.468       -4.969       31.501       14.645       14.978      992.340      214.475      224.343        0.102        0.072       24.196       16.288        0.453      333.232        2.414      866.176
12/04/2021  00:59:00      -43.531       -5.455      -14.068       14.506       16.155       12.522      210.422      260.980      156.802        0.138        0.031       43.872        7.138        0.026      333.219        2.393      866.173
12/04/2021  01:00:00      -44.323       -7.307      -15.787       15.330       13.074       14.612      235.006      170.931      213.504        0.144        0.031       44.922        8.703        0.038      333.191        2.345      866.175
12/04/2021  01:01:00      -44.548        0.047       -4.412       29.466       15.525       12.171      868.273      241.011      148.138        0.163        0.063       44.548        8.254        0.034      333.223        2.396      866.170
12/04/2021  01:02:00      -63.968        2.497       -4.686       22.673       16.457       12.551      514.078      270.836      157.521        0.253        0.047       64.016        9.354        0.021      333.219        2.390      866.167
12/04/2021  01:03:00      -83.647       15.654      -10.847       15.632       15.468       10.384      244.366      239.266      107.832        0.398        0.030       85.099        6.248        0.005      333.265        2.468      866.166
12/04/2021  01:04:00      -92.616       17.064       -7.612       22.761       14.408       13.092      518.064      207.579      171.413        0.491        0.045       94.175       10.204        0.012      333.215        2.385      866.164
12/04/2021  01:05:00     -107.989       15.004       -6.688       22.174       17.356       15.355      491.686      301.224      235.789        0.648        0.051      109.026       13.729        0.016      333.130        2.244      866.162
12/04/2021  01:06:00     -117.029       27.364       -8.599       15.219       16.285       11.753      231.607      265.191      138.139        0.758        0.032      120.185        9.590        0.006      333.071        2.149      866.162
12/04/2021  01:07:00      -97.031       17.955       -7.252       29.038       18.021       12.695      843.223      324.741      161.155        0.556        0.066       98.678       15.139        0.024      333.120        2.226      866.158
12/04/2021  01:08:00      -85.212       21.302       -7.165       21.937       11.755       12.025      481.216      138.188      144.598        0.426        0.038       87.834       10.715        0.015      333.122        2.230      866.153
12/04/2021  01:09:00      -83.901       29.371       -5.611       21.038       13.097       14.272      442.588      171.521      203.690        0.438        0.041       88.893        9.462        0.011      333.078        2.158      866.157
12/04/2021  01:10:00      -89.461       38.778      -11.906       22.466       11.735       14.299      504.710      137.712      204.451        0.525        0.042       97.504       13.257        0.018      333.052        2.115      866.151
12/04/2021  01:11:00     -115.110       29.929      -10.413       12.104       10.809        9.674      146.496      116.832       93.584        0.731        0.018      118.938        6.633        0.003      333.080        2.162      866.150
12/04/2021  01:12:00     -116.066       23.715       -5.602       21.223       18.183       15.465      450.405      330.624      239.167        0.754        0.051      118.464       13.716        0.013      333.004        2.036      866.155
12/04/2021  01:13:00     -118.587       29.459      -14.135       10.799       16.530       10.776      116.608      273.250      116.120        0.782        0.025      122.192        7.874        0.004      332.921        1.901      866.152
12/04/2021  01:14:00      -91.343       23.920       -6.584       18.753       12.770       11.753      351.687      163.075      138.126        0.481        0.033       94.423       11.560        0.015      332.868        1.811      866.152
12/04/2021  01:15:00      -92.049       27.234       -9.100       15.619       12.735       10.770      243.939      162.192      116.003        0.491        0.026       95.993        8.082        0.007      332.865        1.808      866.137
12/04/2021  01:16:00     -102.410       21.248      -21.995        9.127       11.782       10.133       83.302      138.827      102.668        0.587        0.016      104.591        5.216        0.002      332.847        1.777      866.130
12/04/2021  01:17:00      -59.309        8.383      -20.969       25.674       23.024       16.929      659.148      530.092      286.598        0.275        0.074       59.898       11.422        0.036      332.849        1.780      866.127
12/04/2021  01:18:00      -47.209        6.547      -14.114       22.997       26.083       15.595      528.871      680.306      243.206        0.196        0.073       47.660       13.517        0.080      332.901        1.866      866.132
12/04/2021  01:19:00      -54.983       18.603      -15.498       18.686       14.269       11.993      349.171      203.599      143.834        0.215        0.035       58.045        7.392        0.016      332.923        1.903      866.133
12/04/2021  01:20:00      -62.918       19.628      -14.126       23.804       20.682       17.644      566.651      427.753      311.299        0.292        0.065       65.909       13.507        0.042      332.794        1.689      866.134
12/04/2021  01:21:00      -53.552        3.194      -22.206       29.835       22.878       17.319      890.154      523.390      299.965        0.254        0.086       53.647       13.101        0.060      332.765        1.641      866.136
12/04/2021  01:22:00      -64.630       11.379      -17.453       20.690       28.106       18.394      428.071      789.963      338.322        0.308        0.078       65.624       11.683        0.032      332.805        1.707      866.138
12/04/2021  01:23:00      -90.935       34.605      -19.222       13.955       12.034       12.326      194.749      144.812      151.923        0.516        0.025       97.296        5.778        0.004      332.715        1.558      866.143
12/04/2021  01:24:00     -111.549       44.123      -16.401       19.170       15.414       11.881      367.470      237.605      141.158        0.770        0.037      119.958        7.699        0.004      332.694        1.524      866.145
12/04/2021  01:25:00     -118.101       36.457      -21.248       19.076       15.129       11.358      363.885      228.894      129.001        0.822        0.036      123.600        7.687        0.004      332.701        1.535      866.149
12/04/2021  01:26:00      -83.771       19.315      -29.964       34.427       21.398       17.516     1185.193      457.877      306.820        0.512        0.097       85.968        4.638        0.003      332.725        1.575      866.159
12/04/2021  01:27:00      -79.298        9.162      -26.930       27.019       24.037       20.751      730.018      577.775      430.612        0.442        0.087       79.826       16.681        0.044      332.755        1.626      866.168
12/04/2021  01:28:00      -75.485       13.335      -25.079       31.641       18.036       21.059     1001.122      325.288      443.481        0.414        0.088       76.654       15.471        0.041      332.707        1.545      866.171
12/04/2021  01:29:00      -84.454       19.261      -19.955       27.888       22.670       15.515      777.748      513.925      240.730        0.472        0.077       86.623        9.938        0.013      332.690        1.517      866.174
12/04/2021  01:30:00      -81.801       24.006      -20.422       18.358       25.178       16.947      337.034      633.923      287.214        0.447        0.063       85.251        8.364        0.010      332.731        1.586      866.171
12/04/2021  01:31:00      -50.479        9.781      -14.409       26.064       25.622       18.083      679.351      656.488      327.004        0.226        0.083       51.418       13.094        0.065      332.774        1.656      866.170
12/04/2021  01:32:00      -43.212        5.069      -15.091       23.290       24.230       16.586      542.430      587.101      275.101        0.176        0.070       43.508        9.616        0.049      332.769        1.647      866.168
12/04/2021  01:33:00       -8.920        7.300      -11.524       11.997       15.979       15.524      143.927      255.330      240.984        0.045        0.032       11.526        7.387        0.411      332.723        1.572      866.181
12/04/2021  01:34:00      -20.411        9.896       -8.333       29.579       15.861       10.527      874.934      251.556      110.810        0.091        0.062       22.684        9.178        0.164      332.703        1.539      866.189
12/04/2021  01:35:00      -52.440        5.671      -16.763       19.742       20.287       15.312      389.732      411.549      234.470        0.205        0.052       52.746        6.214        0.014      332.693        1.522      866.196
12/04/2021  01:36:00      -40.490        0.198      -11.341       26.174       17.932       13.657      685.102      321.551      186.527        0.148        0.060       40.491       13.533        0.112      332.647        1.447      866.192
12/04/2021  01:37:00      -73.259       13.422      -13.278       26.246       21.109       13.927      688.835      445.596      193.959        0.353        0.066       74.479       11.834        0.025      332.601        1.370      866.185
12/04/2021  01:38:00      -80.592       34.550      -17.029        9.692       10.728        8.384       93.941      115.082       70.289        0.413        0.014       87.686        3.335        0.001      332.523        1.239      866.180
12/04/2021  01:39:00      -67.549       24.992      -13.848        9.343        8.121       11.308       87.283       65.956      127.860        0.283        0.014       72.024        5.679        0.006      332.564        1.310      866.179
12/04/2021  01:40:00      -67.229       20.431      -14.693       10.735       12.303       10.406      115.234      151.360      108.289        0.276        0.019       70.265        4.129        0.003      332.636        1.428      866.178
12/04/2021  01:41:00      -73.650       19.218      -21.088       20.308       13.546       10.333      412.401      183.481      106.773        0.347        0.035       76.117       10.837        0.020      332.570        1.319      866.176
12/04/2021  01:42:00      -55.958       20.082      -17.124       25.716       15.804       16.895      661.292      249.777      285.446        0.251        0.060       59.452        6.969        0.014      332.592        1.355      866.178
12/04/2021  01:43:00      -72.832       31.889      -14.308       10.558       13.043        9.756      111.479      170.123       95.174        0.345        0.019       79.507        7.297        0.008      332.535        1.262      866.178
12/04/2021  01:44:00      -41.325       -1.095      -15.674       23.145       16.566        9.396      535.703      274.443       88.279        0.143        0.045       41.339        3.800        0.008      332.601        1.370      866.181
12/04/2021  01:45:00      -36.309        3.387      -18.625       20.842       13.943        9.443      434.371      194.394       89.172        0.120        0.036       36.467        8.796        0.058      332.673        1.490      866.182
12/04/2021  01:46:00      -21.305        4.706       -5.701       22.851       21.379       18.877      522.152      457.069      356.341        0.092        0.067       21.818       16.819        0.594      332.700        1.533      866.183
12/04/2021  01:47:00      -58.878       -0.527      -11.918       14.805       14.414       15.777      219.191      207.764      248.899        0.214        0.034       58.881        8.913        0.023      332.664        1.475      866.192
12/04/2021  01:48:00      -70.539       -9.594      -18.339       26.822       18.412       19.296      719.400      338.992      372.325        0.342        0.072       71.188       16.418        0.053      332.603        1.375      866.207
12/04/2021  01:49:00      -83.325       22.292      -11.448       33.475       27.270       19.843     1120.605      743.628      393.745        0.491        0.113       86.255       15.812        0.034      332.632        1.422      866.217
12/04/2021  01:50:00      -96.054       28.451       -9.191       12.879       11.160        8.667      165.861      124.543       75.122        0.524        0.018      100.179        3.895        0.002      332.685        1.510      866.217
12/04/2021  01:51:00      -74.144       21.911      -10.389       16.012        9.893        9.775      256.389       97.867       95.548        0.327        0.022       77.314        8.851        0.013      332.758        1.629      866.204
12/04/2021  01:52:00      -82.823       16.407      -12.598       13.028       10.517        9.825      169.728      110.612       96.535        0.383        0.019       84.432        5.093        0.004      332.763        1.638      866.200
12/04/2021  01:53:00      -75.461       27.061      -14.571       13.450       11.699       10.721      180.890      136.862      114.946        0.354        0.022       80.167        5.163        0.004      332.759        1.629      866.190
12/04/2021  01:54:00      -82.531       33.652       -8.987       20.408       14.526       11.258      416.481      210.991      126.746        0.439        0.038       89.128        8.227        0.009      332.780        1.667      866.185
12/04/2021  01:55:00     -113.261       25.399      -10.697       16.940       10.635        9.883      286.951      113.093       97.675        0.704        0.025      116.074        5.923        0.003      332.778        1.663      866.185
12/04/2021  01:56:00     -101.480       25.852      -12.018       15.809       15.498       10.699      249.938      240.196      114.468        0.586        0.030      104.721        6.950        0.004      332.794        1.689      866.183
12/04/2021  01:57:00      -76.147       39.830      -16.352       15.500       14.761       13.122      240.239      217.881      172.175        0.414        0.032       85.935       12.635        0.022      332.812        1.718      866.170
12/04/2021  01:58:00      -68.765       21.045      -13.824       13.210        9.425       11.971      174.503       88.829      143.309        0.288        0.020       71.913        7.876        0.012      332.832        1.751      866.159
12/04/2021  01:59:00      -94.399       25.969      -16.665       18.207       17.487       15.211      331.483      305.795      231.382        0.537        0.043       97.906       12.304        0.016      332.765        1.641      866.144
12/04/2021  02:00:00     -103.333       13.615      -23.781       25.013       18.806       17.157      625.657      353.662      294.362        0.635        0.064      104.226        9.846        0.009      332.718        1.562      866.138
12/04/2021  02:01:00     -122.875       -8.113      -21.003       23.195       23.462       20.122      537.988      550.487      404.898        0.855        0.075      123.143        6.074        0.002      332.652        1.454      866.140
12/04/2021  02:02:00     -112.515       39.109      -15.707       23.027       25.121       14.941      530.248      631.087      223.239        0.791        0.069      119.118        6.018        0.003      332.665        1.477      866.139
12/04/2021  02:03:00      -88.797       40.788      -15.122       16.602       15.276       12.711      275.623      233.361      161.575        0.522        0.034       97.717        9.873        0.010      332.675        1.492      866.129
12/04/2021  02:04:00      -90.970       15.771      -10.620       11.937       13.389        9.485      142.493      179.272       89.972        0.452        0.021       92.327        2.155        0.001      332.680        1.501      866.118
12/04/2021  02:05:00      -82.051       24.247      -15.016       19.696       12.617       12.050      387.917      159.195      145.211        0.412        0.035       85.558       11.570        0.018      332.688        1.514      866.120
12/04/2021  02:06:00      -98.314       28.875      -20.336       19.986       19.153       12.482      399.435      366.843      155.801        0.592        0.046      102.466        8.999        0.008      332.647        1.447      866.121
12/04/2021  02:07:00      -98.695       41.769      -17.507       14.122       12.662       10.315      199.420      160.317      106.406        0.613        0.023      107.170        4.205        0.002      332.630        1.417      866.125
12/04/2021  02:08:00      -63.104       16.626       -9.907       27.971       27.896       14.546      782.377      778.175      211.572        0.306        0.089       65.258        2.798        0.002      332.652        1.454      866.130
12/04/2021  02:09:00      -74.450        6.662      -24.094       24.120       26.355       23.457      581.786      694.573      550.212        0.400        0.091       74.748       11.262        0.023      332.671        1.485      866.136
12/04/2021  02:10:00      -55.034       12.241      -23.512       34.498       27.937       21.248     1190.145      780.469      451.480        0.308        0.121       56.379       18.824        0.111      332.596        1.362      866.139
12/04/2021  02:11:00      -87.541       26.679      -18.743       25.267       15.874       14.204      638.418      251.999      201.764        0.491        0.055       91.517       11.088        0.015      332.548        1.283      866.143
12/04/2021  02:12:00      -42.856        5.415      -16.873       27.934       19.290       20.289      780.329      372.085      411.651        0.186        0.078       43.197       16.649        0.149      332.626        1.411      866.144
12/04/2021  02:13:00       -8.519        0.425      -10.809       28.734       18.366       18.785      825.657      337.325      352.868        0.085        0.076        8.529       15.934        3.490      332.631        1.421      866.146
12/04/2021  02:14:00      -23.811       10.732       -8.077       24.031       20.773       16.242      577.465      431.533      263.789        0.101        0.064       26.118       10.250        0.154      332.602        1.372      866.156
12/04/2021  02:15:00      -60.003       15.311      -14.187       28.931       25.982       13.111      836.982      675.083      171.907        0.286        0.084       61.926       17.161        0.077      332.520        1.238      866.079
12/04/2021  02:16:00      -77.713        6.426      -13.759       19.096       24.702       14.543      364.667      610.186      211.512        0.373        0.059       77.978       10.774        0.019      332.542        1.272      866.086
12/04/2021  02:17:00      -82.123       20.817      -15.857       12.790       14.400       10.640      163.590      207.351      113.211        0.396        0.024       84.720        8.317        0.010      332.537        1.265      866.097
12/04/2021  02:18:00      -91.942       22.272      -13.943       14.829       14.027       10.390      219.902      196.753      107.950        0.483        0.026       94.601        4.693        0.002      332.496        1.196      866.113
12/04/2021  02:19:00     -116.175       28.214      -15.044       24.763       24.392       11.028      613.189      594.962      121.617        0.792        0.066      119.552       12.021        0.010      332.477        1.165      866.126
12/04/2021  02:20:00      -72.751       13.648       -9.891       37.333       21.935       16.024     1393.722      481.152      256.770        0.385        0.107       74.020       16.576        0.050      332.475        1.161      866.136
12/04/2021  02:21:00      -81.785       19.482      -16.056       12.440       11.730        8.217      154.754      137.592       67.522        0.384        0.018       84.074        5.555        0.004      332.545        1.278      866.145
12/04/2021  02:22:00      -84.924       23.854       -4.982       24.229       15.511       13.488      587.054      240.594      181.927        0.441        0.050       88.210       11.369        0.017      332.537        1.266      866.165
12/04/2021  02:23:00      -88.108       30.666      -15.009       18.171       13.300       13.489      330.193      176.890      181.947        0.481        0.034       93.292        8.444        0.008      332.528        1.249      866.174
12/04/2021  02:24:00     -114.638       40.016      -10.754       23.325       13.393       15.391      544.034      179.380      236.878        0.791        0.048      121.422       11.337        0.009      332.427        1.083      866.185
12/04/2021  02:25:00      -97.734       45.601       -8.721       19.729       17.616       17.732      389.230      310.339      314.411        0.636        0.051      107.849        5.956        0.003      332.443        1.109      866.201
12/04/2021  02:26:00      -91.694       41.253      -13.944       21.323       16.320       12.654      454.652      266.353      160.118        0.559        0.044      100.547        9.708        0.009      332.445        1.112      866.207
12/04/2021  02:27:00      -65.612       15.495      -21.316       19.733       21.210       17.220      389.400      449.864      296.511        0.307        0.057       67.417       10.557        0.025      332.480        1.170      866.217
12/04/2021  02:28:00      -40.296        4.440      -13.462       26.320       28.096       16.118      692.758      789.413      259.793        0.178        0.087       40.540       13.851        0.117      332.479        1.168      866.229
12/04/2021  02:29:00      -40.294        9.748      -18.160       18.848       22.156       12.790      355.264      490.878      163.586        0.153        0.050       41.456        6.932        0.028      332.428        1.085      866.232
12/04/2021  02:30:00      -23.278        2.468      -13.562       22.619       18.388       13.786      511.642      338.135      190.062        0.089        0.052       23.409       11.658        0.248      332.520        1.236      866.241
12/04/2021  02:31:00      -12.989       -2.422      -11.011       13.824       10.739       12.590      191.103      115.326      158.511        0.038        0.023       13.212        9.749        0.544      332.595        1.360      866.243
12/04/2021  02:32:00      -19.930       -3.136       -4.233       14.768       14.454       13.154      218.094      208.931      173.020        0.051        0.030       20.175       10.119        0.252      332.640        1.434      866.240
12/04/2021  02:33:00      -20.934       -7.792       -8.223       16.790       11.497       15.372      281.904      132.179      236.313        0.061        0.033       22.337       12.341        0.305      332.499        1.202      866.235
12/04/2021  02:34:00      -50.224       27.950      -12.499       13.317        9.448        7.997      177.336       89.263       63.955        0.190        0.017       57.477        5.181        0.008      332.464        1.144      866.224
12/04/2021  02:35:00      -47.975       28.412      -16.895        9.383       11.182        7.546       88.048      125.034       56.946        0.183        0.014       55.758        3.295        0.003      332.403        1.043      866.209
12/04/2021  02:36:00      -42.646       22.304      -10.247       21.588       19.461       11.353      466.046      378.740      128.882        0.170        0.049       48.126       13.126        0.074      332.356        0.964      866.199
12/04/2021  02:37:00      -63.597       27.926      -17.541       23.816       19.952       14.740      567.196      398.066      217.269        0.316        0.059       69.458        8.032        0.013      332.366        0.981      866.197
12/04/2021  02:38:00      -49.782       29.815      -12.079       19.277        9.620        7.893      371.612       92.549       62.307        0.202        0.026       58.027        3.404        0.003      332.448        1.118      866.185
12/04/2021  02:39:00      -33.822       16.490      -17.479       15.935       14.339       11.891      253.922      205.599      141.396        0.116        0.030       37.628        8.282        0.048      332.518        1.233      866.190
12/04/2021  02:40:00      -55.465        1.120      -19.612       28.965       17.215       16.249      838.991      296.367      264.027        0.243        0.070       55.476        9.348        0.028      332.384        1.011      866.209
12/04/2021  02:41:00      -77.435        7.828      -20.080       31.991       25.681       19.859     1023.401      659.507      394.366        0.427        0.104       77.830       20.484        0.069      332.338        0.935      866.223
12/04/2021  02:42:00      -72.320       17.759      -18.098       27.813       28.755       22.081      773.558      826.825      487.576        0.398        0.104       74.469       16.062        0.047      332.310        0.888      866.232
12/04/2021  02:43:00      -61.545       10.591      -16.899       20.766       23.214       15.819      431.220      538.912      250.228        0.270        0.061       62.449        6.435        0.011      332.299        0.871      866.230
12/04/2021  02:44:00      -38.827        0.357      -24.272       22.340       23.591       14.470      499.095      556.519      209.394        0.168        0.063       38.828       12.225        0.099      332.404        1.043      866.227
12/04/2021  02:45:00      -50.575       15.972      -21.677       20.677       21.617       17.117      427.525      467.289      292.998        0.224        0.059       53.037        7.654        0.021      332.406        1.048      866.231
12/04/2021  02:46:00      -67.508       32.613      -20.199       10.478       15.533       11.934      109.798      241.271      142.409        0.326        0.025       74.973        4.462        0.004      332.418        1.068      866.229
12/04/2021  02:47:00      -66.535        5.090      -20.120       19.134       30.055       18.451      366.128      903.307      340.447        0.323        0.080       66.729        9.443        0.020      332.386        1.015      866.225
12/04/2021  02:48:00      -55.092       -1.677      -10.293       43.850       18.289       21.180     1922.841      334.472      448.594        0.292        0.135       55.118       21.891        0.158      332.307        0.883      866.224
12/04/2021  02:49:00      -12.586       -4.724       -2.629       24.623       20.765       21.325      606.294      431.193      454.770        0.084        0.075       13.444       19.314        2.064      332.282        0.844      866.227
12/04/2021  02:50:00      -28.653       -4.912      -17.984       22.655       20.987       13.744      513.227      440.462      188.894        0.116        0.057       29.071        7.324        0.063      332.264        0.812      866.232
12/04/2021  02:51:00      -14.883       -9.486      -14.406       36.647       32.046       22.683     1342.973     1026.977      514.500        0.170        0.144       17.649       16.972        0.925      332.288        0.853      866.225
12/04/2021  02:52:00      -22.187        7.421      -21.137       29.286       19.917       22.868      857.655      396.690      522.967        0.139        0.089       23.395       14.400        0.379      332.369        0.987      866.226
12/04/2021  02:53:00      -47.502       38.926      -21.646       31.506       20.308       27.898      992.622      412.416      778.298        0.321        0.109       61.414       15.438        0.063      332.331        0.923      866.222
12/04/2021  02:54:00      -43.992       19.904      -18.099       20.506       18.053       14.645      420.481      325.928      214.471        0.181        0.048       48.286       10.420        0.047      332.371        0.990      866.217
12/04/2021  02:55:00      -57.838       34.186      -17.104       14.309       13.979        9.825      204.740      195.420       96.531        0.265        0.025       67.186        7.336        0.012      332.385        1.013      866.219
12/04/2021  02:56:00      -69.401       28.087      -20.384       21.523       16.945       16.375      463.256      287.121      268.144        0.352        0.051       74.869        7.523        0.010      332.431        1.089      866.226
12/04/2021  02:57:00      -88.182       31.362      -21.043       11.419       13.047       11.677      130.390      170.221      136.356        0.482        0.022       93.593        2.395        0.001      332.267        0.818      866.225
12/04/2021  02:58:00      -83.157       32.595      -19.629       15.025       13.107       14.837      225.751      171.798      220.131        0.449        0.031       89.317        8.271        0.009      332.331        0.922      866.230
12/04/2021  02:59:00      -73.267       26.046      -22.288       20.537       14.410       13.479      421.788      207.649      181.689        0.368        0.041       77.759       11.689        0.023      332.350        0.956      866.232
12/04/2021  03:00:00      -93.994       40.496      -19.187       13.403       10.754        9.546      179.629      115.645       91.121        0.561        0.019      102.346        4.424        0.002      332.342        0.942      866.229
12/04/2021  03:01:00      -65.983       38.110      -14.997       15.131       13.198        9.305      228.953      174.182       86.588        0.326        0.024       76.198        3.893        0.003      332.401        1.038      866.237
12/04/2021  03:02:00      -52.298       17.260      -24.160       17.410       18.631       15.445      303.121      347.110      238.556        0.225        0.044       55.073        7.503        0.019      332.440        1.103      866.238
12/04/2021  03:03:00      -59.141       29.611      -18.504        9.364       11.167        9.029       87.680      124.697       81.521        0.251        0.015       66.140        4.225        0.004      332.370        0.988      866.248
12/04/2021  03:04:00      -35.614       14.906      -11.798       21.563       19.671       11.627      464.978      386.943      135.193        0.131        0.049       38.608       10.882        0.079      332.378        1.001      866.243
12/04/2021  03:05:00      -44.086        7.244       -8.882       20.470       22.875       15.107      419.008      523.266      228.217        0.162        0.059       44.677       11.928        0.071      332.431        1.089      866.246
12/04/2021  03:06:00      -45.224       -8.691      -21.585       22.068       18.842       17.778      486.984      355.016      316.062        0.187        0.058       46.052       10.119        0.048      332.371        0.988      866.251
12/04/2021  03:07:00      -81.399       43.497      -18.304       14.072       11.089       11.918      198.031      122.956      142.030        0.466        0.023       92.291        6.306        0.005      332.224        0.747      866.254
12/04/2021  03:08:00      -64.453       25.494      -14.102       11.432       12.146       10.471      130.691      147.516      109.644        0.270        0.019       69.312        6.066        0.008      332.210        0.724      866.241
12/04/2021  03:09:00      -76.558       24.029      -18.795       11.167        9.929        8.135      124.694       98.590       66.176        0.354        0.014       80.240        5.447        0.005      332.181        0.674      866.223
12/04/2021  03:10:00      -47.076        7.925      -18.901       17.094       13.350       10.334      292.207      178.210      106.788        0.161        0.029       47.738        9.843        0.043      332.216        0.732      866.223
12/04/2021  03:11:00      -46.930       -0.486      -13.793       17.523       11.925       13.162      307.058      142.199      173.246        0.151        0.031       46.933        8.470        0.033      332.322        0.909      866.219
12/04/2021  03:12:00      -27.315        4.636      -16.098       15.633       21.800       15.879      244.378      475.249      252.139        0.100        0.049       27.706       13.810        0.248      332.269        0.822      866.219
12/04/2021  03:13:00      -55.620       17.100       -9.851       10.224       10.890        9.347      104.522      118.600       87.358        0.190        0.016       58.189        8.083        0.019      332.269        0.821      866.217
12/04/2021  03:14:00      -50.307       10.335      -15.663       13.999       14.502       12.294      195.966      210.318      151.153        0.172        0.028       51.358        5.705        0.012      332.264        0.814      866.220
12/04/2021  03:15:00      -63.706        7.110      -15.455       19.142       19.641       12.879      366.432      385.773      165.863        0.263        0.046       64.101        8.383        0.017      332.237        0.768      866.233
12/04/2021  03:16:00      -65.979       11.968      -19.819       19.407       16.148       11.138      376.627      260.757      124.055        0.283        0.038       67.056        7.170        0.011      332.172        0.660      866.241
12/04/2021  03:17:00      -81.793       27.340      -13.209       15.428       22.747       10.126      238.009      517.434      102.526        0.423        0.043       86.241        4.835        0.003      332.192        0.695      866.244
12/04/2021  03:18:00      -85.304       36.348      -17.132       14.068       13.532       11.694      197.913      183.111      136.739        0.470        0.026       92.726        4.338        0.002      332.148        0.621      866.247
12/04/2021  03:19:00      -59.949       34.249      -14.262       15.373       15.315       11.711      236.328      234.536      137.136        0.279        0.030       69.043        4.582        0.004      332.447        1.115      866.241
12/04/2021  03:20:00      -68.307        6.281      -18.908       35.127       23.442       16.728     1233.898      549.517      279.831        0.356        0.103       68.595       13.916        0.041      332.264        0.814      866.242
12/04/2021  03:21:00      -82.757        7.833      -17.614       26.300       22.491       18.304      691.680      505.860      335.024        0.438        0.077       83.127       12.600        0.023      332.189        0.687      866.249
12/04/2021  03:22:00      -64.587       45.017      -10.413       22.176       15.366       10.986      491.785      236.122      120.703        0.358        0.042       78.728        8.013        0.010      332.656        1.460      866.244
12/04/2021  03:23:00      -28.869       17.676       -8.018       19.987       14.363       11.778      399.461      206.306      138.717        0.098        0.037       33.851        7.720        0.052      332.826        1.741      866.249
12/04/2021  03:24:00      -25.904        3.886      -11.207       39.157       19.643       17.257     1533.234      385.856      297.800        0.151        0.111       26.194       21.879        0.698      332.373        0.994      866.259
12/04/2021  03:25:00      -12.880       -4.888       -8.145       22.569       19.646       17.263      509.347      385.970      298.016        0.072        0.060       13.776       10.276        0.556      332.204        0.713      866.260
12/04/2021  03:26:00      -25.395        8.527       -6.485       25.119       24.397       16.473      630.976      595.208      271.363        0.113        0.075       26.789       13.882        0.269      332.161        0.642      866.257
12/04/2021  03:27:00      -36.291       16.444      -16.798       19.879       18.485       13.579      395.161      341.709      184.389        0.140        0.046       39.843        9.269        0.054      332.275        0.832      866.249
12/04/2021  03:28:00      -57.138        8.665      -18.518       23.324       22.310       13.691      544.014      497.733      187.437        0.246        0.061       57.791       11.479        0.039      332.232        0.759      866.245
12/04/2021  03:29:00      -50.445       16.791      -13.421       29.196       18.185       12.277      852.400      330.683      150.734        0.217        0.067       53.166        6.589        0.015      332.141        0.610      866.236
12/04/2021  03:30:00        1.885       -0.925       -2.751        8.554       10.693        9.983       73.177      114.342       99.662        0.015        0.014        2.100        6.870       10.705      332.171        0.659      866.228
12/04/2021  03:31:00      -14.617        3.678       -5.403       12.139       13.647        9.228      147.347      186.228       85.157        0.034        0.021       15.073        5.860        0.151      332.200        0.707      866.223
12/04/2021  03:32:00      -52.138       12.678      -10.309        7.947        5.886        6.913       63.153       34.640       47.789        0.157        0.007       53.657        3.573        0.004      332.283        0.844      866.209
12/04/2021  03:33:00      -65.395       13.117      -15.103        7.198        8.784        8.551       51.809       77.154       73.128        0.244        0.010       66.697        4.613        0.005      332.338        0.935      866.196
12/04/2021  03:34:00      -33.289        2.830      -15.067       25.380       15.625       11.947      644.131      244.138      142.733        0.119        0.052       33.409        5.897        0.031      332.273        0.828      866.185
12/04/2021  03:35:00      -43.683       -4.333       -8.785       18.921       16.756       11.281      357.999      280.766      127.256        0.138        0.038       43.897        3.829        0.008      332.306        0.881      866.167
12/04/2021  03:36:00      -61.288       23.611      -12.205       11.540        7.660        7.738      133.161       58.674       59.884        0.236        0.013       65.679        7.045        0.012      332.496        1.198      866.160
12/04/2021  03:37:00      -56.003       16.193       -9.510       11.810       11.201        7.814      139.483      125.452       61.057        0.191        0.016       58.297        5.828        0.010      332.535        1.261      866.168
12/04/2021  03:38:00      -53.143       10.824       -7.226       20.322       17.792       11.387      412.983      316.571      129.671        0.193        0.043       54.234        5.364        0.010      332.469        1.153      866.182
12/04/2021  03:39:00      -34.639        5.139       -5.734       25.963       18.895       12.838      674.072      357.021      164.812        0.123        0.060       35.018       10.302        0.087      332.376        0.997      866.203
12/04/2021  03:40:00      -51.685       17.725       -4.947       17.627       16.477       11.785      310.727      271.498      138.884        0.187        0.036       54.640        8.044        0.022      332.361        0.974      866.214
12/04/2021  03:41:00      -70.600       22.747       -9.392       11.043       14.657        9.920      121.939      214.828       98.406        0.301        0.022       74.174        3.082        0.002      332.360        0.973      866.216
12/04/2021  03:42:00      -69.198       42.728      -12.613       18.398       17.810       11.689      338.502      317.192      136.643        0.378        0.040       81.326        9.684        0.014      332.274        0.829      866.225
12/04/2021  03:43:00      -83.293       32.235      -12.776       17.322       12.694       16.429      300.036      161.139      269.919        0.444        0.037       89.313       13.281        0.022      332.238        0.770      866.227
12/04/2021  03:44:00     -107.554       28.270      -17.891       10.917       13.553        9.401      119.171      183.692       88.373        0.654        0.020      111.208        6.029        0.003      332.278        0.837      866.237
12/04/2021  03:45:00      -94.461       32.071      -11.207       19.398       12.957       12.399      376.294      167.886      153.735        0.539        0.035       99.757       11.078        0.012      332.197        0.702      866.240
12/04/2021  03:46:00      -70.228       24.055      -11.893       27.633       21.743       12.702      763.555      472.752      161.340        0.352        0.070       74.234        7.122        0.009      332.219        0.740      866.245
12/04/2021  03:47:00      -44.505        8.143       -8.049       39.560       14.803       17.451     1565.002      219.125      304.534        0.210        0.104       45.244       15.577        0.119      332.185        0.682      866.254
12/04/2021  03:48:00      -76.252       25.282      -10.456       21.222       21.353       13.012      450.376      455.966      169.303        0.382        0.054       80.334        9.417        0.014      332.308        0.887      866.255
12/04/2021  03:49:00      -61.246       14.917      -12.597       12.695       15.000       11.902      161.161      224.991      141.669        0.233        0.026       63.036        6.511        0.011      332.318        0.902      866.253
12/04/2021  03:50:00       -1.067       -1.673       -7.922       12.534       13.535        9.153      157.105      183.185       83.780        0.025        0.021        1.984        8.435       18.072      332.285        0.849      866.246
12/04/2021  03:51:00       -5.603        6.111       -8.706        5.845        6.990        8.358       34.164       48.858       69.849        0.015        0.008        8.291        5.331        0.413      332.335        0.930      866.237
12/04/2021  03:52:00      -30.592        1.156      -11.233       16.698       18.575        9.608      278.835      345.040       92.308        0.089        0.036       30.614        7.728        0.064      332.257        0.801      866.227
12/04/2021  03:53:00      -34.788       12.034      -10.953       21.705       18.315       15.145      471.105      335.427      229.379        0.126        0.052       36.811        9.746        0.070      332.100        0.543      866.212
12/04/2021  03:54:00      -58.997       13.475      -13.723       32.105       24.470       12.144     1030.704      598.777      147.478        0.281        0.089       60.516       11.964        0.039      332.008        0.392      866.201
12/04/2021  03:55:00      -57.626       20.556      -18.466       28.623       25.294       17.969      819.295      639.795      322.888        0.293        0.089       61.182       19.689        0.104      332.058        0.475      866.188
12/04/2021  03:56:00      -28.854        9.243       -7.162       22.833       11.844       19.295      521.367      140.280      372.310        0.100        0.052       30.298       14.991        0.245      332.024        0.418      866.178
12/04/2021  03:57:00      -59.309        4.664      -18.210       16.211       20.630       17.405      262.789      425.597      302.942        0.243        0.050       59.492        9.800        0.027      332.040        0.445      866.174
12/04/2021  03:58:00      -64.756       20.626      -25.247       21.997       18.959       17.621      483.855      359.459      310.510        0.320        0.058       67.961        7.606        0.013      332.110        0.559      866.165
12/04/2021  03:59:00      -83.425       30.378      -20.974       11.641       10.727       10.960      135.507      115.066      120.126        0.435        0.019       88.784        5.827        0.004      332.093        0.531      866.165
12/04/2021  04:00:00      -95.867       42.525       -8.546       19.868       18.140       13.753      394.722      329.048      189.151        0.599        0.046      104.876        8.209        0.006      332.083        0.515      866.171
12/04/2021  04:01:00     -107.245       54.775       -8.391       23.422       18.317       16.523      548.568      335.507      273.006        0.786        0.058      120.424       13.701        0.013      332.077        0.505      866.172
12/04/2021  04:02:00      -89.748       42.657      -11.869       31.382       17.618       12.624      984.857      310.411      159.368        0.573        0.073       99.370        7.744        0.006      332.026        0.422      866.168
12/04/2021  04:03:00      -80.399       30.881      -16.846       29.495       20.276       19.382      869.960      411.102      375.672        0.468        0.083       86.126        6.602        0.006      332.046        0.454      866.169
12/04/2021  04:04:00      -49.957       14.983      -13.948       20.447       24.604       19.626      418.089      605.372      385.181        0.216        0.070       52.155       12.638        0.059      332.157        0.636      866.173
12/04/2021  04:05:00      -71.524       12.501      -21.659       24.168       15.065       16.537      584.087      226.954      273.470        0.341        0.054       72.609        9.258        0.016      332.180        0.674      866.180
12/04/2021  04:06:00      -49.863       24.169      -14.461       22.192       19.090       14.650      492.504      364.410      214.620        0.218        0.054       55.412        7.327        0.017      332.185        0.683      866.190
12/04/2021  04:07:00      -58.461       32.647      -16.723       21.617       22.812       15.252      467.290      520.365      232.638        0.299        0.061       66.959       11.409        0.029      332.135        0.601      866.197
12/04/2021  04:08:00      -64.471       29.280      -12.226       22.810       23.340       16.634      520.293      544.736      276.676        0.325        0.067       70.808       13.493        0.036      332.161        0.642      866.204
12/04/2021  04:09:00      -66.448       31.107      -12.152       21.831       14.789       15.737      476.579      218.716      247.659        0.324        0.047       73.369       11.973        0.027      332.186        0.684      866.212
12/04/2021  04:10:00      -73.571       13.785      -16.958       23.564       12.414       16.141      555.267      154.104      260.529        0.343        0.048       74.851       15.052        0.040      332.203        0.712      866.211
12/04/2021  04:11:00      -64.086       17.680      -17.936       25.903       16.525       11.739      670.991      273.084      137.794        0.291        0.054       66.480        8.183        0.015      332.252        0.793      866.208
12/04/2021  04:12:00       -1.388        3.840       -7.124       10.310        8.366        9.437      106.289       69.996       89.065        0.017        0.013        4.083        4.092        1.004      332.208        0.721      866.211
12/04/2021  04:13:00      -25.136        5.878       -9.632       20.681       13.397       10.153      427.719      179.472      103.078        0.073        0.036       25.814        6.558        0.065      332.243        0.779      866.204
12/04/2021  04:14:00      -55.075       15.670      -17.845       13.814       15.019       13.851      190.817      225.557      191.851        0.210        0.030       57.261        5.370        0.009      332.219        0.738      866.203
12/04/2021  04:15:00      -58.904        6.641      -19.957       18.800       14.697       13.485      353.431      216.016      181.852        0.233        0.038       59.277        9.494        0.026      332.145        0.616      866.212
12/04/2021  04:16:00      -60.693       14.435      -12.136       24.809       15.234       16.660      615.483      232.079      277.561        0.258        0.056       62.386       15.389        0.061      332.148        0.622      866.223
12/04/2021  04:17:00      -97.088       34.393      -17.219       11.460       10.518       11.923      131.333      110.632      142.152        0.564        0.019      103.000        7.554        0.005      332.145        0.618      866.235
12/04/2021  04:18:00     -102.327       39.905      -13.666       13.162       15.030       11.039      173.246      225.904      121.866        0.639        0.026      109.833        8.272        0.006      332.039        0.442      866.249
12/04/2021  04:19:00     -101.671       34.152      -14.452       18.805       14.577       14.296      353.625      212.503      204.369        0.624        0.039      107.254       11.686        0.012      332.013        0.400      866.262
12/04/2021  04:20:00      -87.793       39.318      -12.176       15.122       16.298       13.822      228.679      265.629      191.061        0.504        0.034       96.195        6.621        0.005      332.056        0.469      866.272
12/04/2021  04:21:00      -59.393       13.035      -22.449       22.169       21.987       18.060      491.484      483.434      326.161        0.275        0.065       60.807       12.698        0.044      332.070        0.493      866.276
12/04/2021  04:22:00      -10.509       -4.697       -9.334       13.922       10.340       11.910      193.809      106.906      141.842        0.033        0.022       11.511        6.461        0.315      332.080        0.508      866.287
12/04/2021  04:23:00        7.350       -8.422       -9.178       13.085       22.413       14.410      171.219      502.340      207.634        0.055        0.044       11.179        9.821        0.772      332.139        0.607      866.301
12/04/2021  04:24:00       -1.047        5.978      -10.108       10.807       18.179       15.574      116.796      330.483      242.540        0.041        0.034        6.069        6.902        1.293      332.022        0.414      866.303
12/04/2021  04:25:00       -2.489        5.730       -5.177        8.977       13.613       10.226       80.589      185.304      104.566        0.022        0.019        6.247        8.323        1.775      332.001        0.380      866.303
12/04/2021  04:26:00      -13.938        2.117      -10.813       14.431       14.193       11.289      208.258      201.427      127.431        0.043        0.027       14.098        8.377        0.353      332.030        0.428      866.314
12/04/2021  04:27:00      -32.581       10.577       -9.983       17.830       23.524       17.648      317.915      553.399      311.468        0.123        0.059       34.254       14.024        0.168      332.016        0.404      866.338
12/04/2021  04:28:00      -38.156       10.573      -18.604       20.354       15.187       13.761      414.285      230.637      189.353        0.137        0.042       39.594        3.646        0.008      331.910        0.231      866.358
12/04/2021  04:29:00      -27.354        8.205       -6.894       16.150       11.795        8.788      260.829      139.133       77.232        0.067        0.024       28.558        6.579        0.053      331.907        0.224      866.369
12/04/2021  04:30:00      -10.441       14.851      -20.502       18.220       12.776       12.990      331.967      163.215      168.751        0.071        0.033       18.154       11.575        0.407      332.386        1.014      866.377
12/04/2021  04:31:00      -14.701       19.073      -10.992       15.137       10.992        8.956      229.137      120.814       80.205        0.057        0.022       24.081        7.238        0.090      332.483        1.176      866.367
12/04/2021  04:32:00       -0.532       32.593      -12.223       17.369       11.125        8.418      301.678      123.770       70.869        0.085        0.025       32.597        6.387        0.038      332.524        1.244      866.361
12/04/2021  04:33:00        5.806       30.378        6.906       18.562       14.111       11.820      344.551      199.127      139.703        0.084        0.034       30.928        4.581        0.022      332.433        1.091      866.340
12/04/2021  04:34:00       13.861       14.723        1.058       18.891       11.595        9.756      356.859      134.435       95.174        0.050        0.029       20.221        6.887        0.116      332.414        1.059      866.321
12/04/2021  04:35:00       -7.297       17.577      -11.880       26.798       15.169       10.111      718.120      230.104      102.223        0.078        0.053       19.031       11.461        0.363      332.429        1.085      866.312
12/04/2021  04:36:00      -53.924       14.699      -11.261       21.087       20.392       11.598      444.659      415.842      134.502        0.212        0.050       55.892        6.973        0.016      331.922        0.251      866.306
12/04/2021  04:37:00      -61.782       33.204       -9.004       14.740       14.095        8.758      217.278      198.659       76.696        0.275        0.025       70.140        5.504        0.006      331.955        0.304      866.290
12/04/2021  04:38:00      -42.396        8.416      -17.759        7.920        8.162        6.801       62.732       66.626       46.258        0.118        0.009       43.223        4.512        0.011      332.094        0.534      866.277
12/04/2021  04:39:00      -32.087       -0.012      -10.860        8.884        4.817        5.566       78.925       23.206       30.981        0.064        0.007       32.087        2.281        0.005      332.547        1.280      866.265
12/04/2021  04:40:00      -53.919       20.586      -16.676       10.427       10.573        8.355      108.728      111.779       69.813        0.195        0.015       57.715        3.481        0.004      332.025        0.421      866.260
12/04/2021  04:41:00      -77.827       39.052      -14.434       21.561       12.927       11.630      464.886      167.097      135.248        0.428        0.038       87.075        3.840        0.002      331.918        0.243      866.262
12/04/2021  04:42:00      -75.698       31.070      -18.377       24.215       15.652       16.465      586.351      244.978      271.111        0.407        0.055       81.826       11.578        0.020      331.899        0.212      866.264
12/04/2021  04:43:00      -60.066       23.460      -20.514       27.345       25.996       16.196      747.766      675.776      262.307        0.313        0.084       64.485        4.028        0.004      331.864        0.155      866.269
12/04/2021  04:44:00      -74.721       32.916      -20.793       13.122       14.706       11.608      172.174      216.276      134.742        0.381        0.026       81.650        3.348        0.002      331.893        0.203      866.285
12/04/2021  04:45:00      -65.773       19.290      -21.465       23.848       24.217       18.060      568.712      586.443      326.149        0.332        0.074       68.544       11.218        0.027      331.850        0.131      866.296
12/04/2021  04:46:00      -69.687       10.926      -11.898       43.454       30.515       20.329     1888.228      931.167      413.258        0.417        0.162       70.539       22.874        0.105      331.798        0.046      866.308
12/04/2021  04:47:00      -39.776       12.383      -18.802       34.083       30.922       20.266     1161.669      956.178      410.712        0.231        0.126       41.659       12.020        0.083      331.816        0.076      866.320
12/04/2021  04:48:00      -14.276       -3.149      -10.983       14.776       22.556       17.036      218.318      508.754      290.239        0.068        0.051       14.619        2.902        0.039      331.782        0.019      866.339
12/04/2021  04:49:00       -8.314       12.448       -7.348       14.804       14.145       17.271      219.162      200.081      298.284        0.050        0.036       14.969       12.913        0.744      331.942        0.282      866.340
12/04/2021  04:50:00      -26.627       19.648       -8.599       18.396       14.918        8.722      338.408      222.553       76.077        0.090        0.032       33.091       10.916        0.109      332.347        0.951      866.355
12/04/2021  04:51:00      -29.376        0.518      -16.198       25.606       14.255       16.297      655.648      203.206      265.584        0.112        0.056       29.381       15.318        0.272      331.906        0.223      866.379
12/04/2021  04:52:00      -47.548        1.600      -19.910       20.800       21.512       14.155      432.628      462.779      200.356        0.188        0.055       47.575        8.219        0.030      331.819        0.081      866.397
12/04/2021  04:53:00      -59.219       15.070      -17.489       20.772       22.347       13.219      431.456      499.401      174.739        0.257        0.055       61.106        8.201        0.018      331.777        0.012      866.410
12/04/2021  04:54:00      -38.509       16.608      -10.223       16.963       14.422       12.768      287.741      207.983      163.027        0.126        0.033       41.938       11.014        0.069      331.762       -0.014      866.411
12/04/2021  04:55:00      -29.460       21.599      -17.047        7.462        6.675        8.881       55.685       44.550       78.873        0.090        0.009       36.529        5.545        0.023      332.060        0.476      866.398
12/04/2021  04:56:00      -36.693        9.592      -20.407       12.374       10.496        9.764      153.105      110.168       95.328        0.111        0.018       37.926        4.240        0.012      332.142        0.611      866.393
12/04/2021  04:57:00      -34.983       -6.645      -12.841       14.253        9.875       13.118      203.142       97.519      172.078        0.095        0.024       35.609       10.242        0.083      331.931        0.265      866.388
12/04/2021  04:58:00        2.643       33.753       -6.723       24.250       13.187        6.848      588.052      173.908       46.889        0.100        0.040       33.857        9.574        0.080      332.604        1.374      866.381
12/04/2021  04:59:00       14.465       25.999        0.317       12.987       12.853       12.036      168.673      165.201      144.865        0.068        0.024       29.752        6.141        0.043      332.534        1.260      866.378
12/04/2021  05:00:00        0.062       28.731        0.120        7.408        8.052        4.928       54.875       64.842       24.290        0.048        0.007       28.731        3.471        0.015      332.370        0.987      866.388
12/04/2021  05:01:00      -19.911       11.283       -3.554       15.245       11.020       12.878      232.399      121.433      165.846        0.053        0.026       22.885       11.677        0.260      332.294        0.862      866.399
12/04/2021  05:02:00      -25.110        0.281       -6.075        9.894       11.688       13.826       97.893      136.615      191.172        0.055        0.021       25.111        5.827        0.054      332.018        0.406      866.405
12/04/2021  05:03:00      -34.045       12.404      -12.261       18.260       12.900       12.074      333.431      166.402      145.792        0.105        0.032       36.235        6.811        0.035      331.996        0.372      866.414
12/04/2021  05:04:00      -29.491        1.378      -15.698       18.314       13.716        9.529      335.406      188.141       90.804        0.087        0.031       29.523        7.219        0.060      332.104        0.550      866.429
12/04/2021  05:05:00      -38.169       -0.521      -16.089       13.659        9.405       10.633      186.557       88.449      113.061        0.105        0.019       38.173        7.095        0.035      332.143        0.612      866.439
12/04/2021  05:06:00      -49.092       14.365      -14.083       20.801       15.430       13.078      432.692      238.088      171.043        0.183        0.042       51.151       10.107        0.039      331.829        0.097      866.450
12/04/2021  05:07:00      -54.428        8.902      -13.988       21.259       16.537       10.215      451.944      273.479      104.341        0.203        0.041       55.151        3.928        0.005      331.748       -0.036      866.458
12/04/2021  05:08:00      -60.413       16.072      -12.189       29.250       18.107       11.761      855.550      327.881      138.332        0.269        0.066       62.514       13.956        0.050      331.703       -0.110      866.463
12/04/2021  05:09:00      -32.818       -3.065      -12.514       23.443       18.134       14.924      549.551      328.855      222.720        0.117        0.055       32.961       13.495        0.168      331.712       -0.096      866.463
12/04/2021  05:10:00      -50.950       17.870      -11.717       19.912       14.548       15.513      396.475      211.651      240.643        0.195        0.042       53.993       14.390        0.071      331.707       -0.102      866.466
12/04/2021  05:11:00      -52.933       29.249      -12.081       11.567       10.689        7.570      133.789      114.262       57.298        0.205        0.015       60.476        5.974        0.010      331.756       -0.022      866.464
12/04/2021  05:12:00      -53.125       18.857      -15.045       10.614       13.588        8.949      112.661      184.635       80.093        0.189        0.019       56.373        5.709        0.010      331.812        0.069      866.462
12/04/2021  05:13:00      -49.902       10.375       -9.518       18.823       18.152       18.765      354.302      329.497      352.122        0.186        0.052       50.969       11.591        0.052      331.869        0.162      866.470
12/04/2021  05:14:00      -58.979       21.284      -17.176       15.496       16.495       17.163      240.134      272.098      294.584        0.252        0.040       62.702       11.304        0.033      331.800        0.051      866.485
12/04/2021  05:15:00      -55.563        6.890      -11.652       15.595       18.504       21.010      243.214      342.403      441.440        0.215        0.051       55.988       13.595        0.059      331.816        0.076      866.488
12/04/2021  05:16:00      -63.724       24.335      -18.372       11.471       15.100       10.940      131.574      227.996      119.688        0.273        0.024       68.213        3.216        0.002      331.854        0.139      866.490
12/04/2021  05:17:00      -71.397       29.980      -19.387       19.221       16.001       13.395      369.461      256.037      179.417        0.359        0.040       77.435       12.091        0.024      331.921        0.249      866.494
12/04/2021  05:18:00      -56.465       34.986      -14.142       20.168       12.927       11.349      406.732      167.119      128.800        0.266        0.035       66.425        9.295        0.020      332.001        0.380      866.488
12/04/2021  05:19:00      -52.345       20.241       -9.434       10.551        9.597        9.542      111.326       92.107       91.044        0.177        0.015       56.122        5.340        0.009      332.080        0.509      866.477
12/04/2021  05:20:00      -47.271       27.215      -10.049       12.128       15.138        9.209      147.082      229.158       84.814        0.177        0.023       54.545        5.888        0.012      332.044        0.451      866.468
12/04/2021  05:21:00      -66.050       26.410      -14.625       12.029        9.280        8.357      144.702       86.116       69.844        0.279        0.015       71.134        3.623        0.003      332.099        0.542      866.479
12/04/2021  05:22:00      -85.169       17.706      -12.131       33.761       16.270       18.228     1139.809      264.721      332.265        0.473        0.087       86.990       20.351        0.055      331.981        0.346      866.498
12/04/2021  05:23:00      -85.177       12.246      -17.209       36.499       26.911       19.357     1332.195      724.193      374.697        0.507        0.122       86.052       12.854        0.022      331.921        0.251      866.518
12/04/2021  05:24:00      -82.624       -4.469      -13.825       41.056       37.607       26.476     1685.584     1414.261      700.982        0.542        0.190       82.745       23.722        0.082      331.872        0.168      866.524
12/04/2021  05:25:00      -54.948        6.132       -9.600       52.740       35.102       28.809     2781.484     1232.145      829.977        0.400        0.242       55.289       25.234        0.208      331.847        0.128      866.520
12/04/2021  05:26:00      -40.083       -3.614       -7.559       57.507       35.418       27.632     3307.040     1254.401      763.549        0.350        0.266       40.245       27.869        0.480      331.778        0.014      866.528
12/04/2021  05:27:00      -41.306       16.787      -13.674       39.446       27.288       15.753     1555.995      744.634      248.154        0.236        0.127       44.587       12.464        0.078      331.726       -0.071      866.544
12/04/2021  05:28:00      -32.988       21.954      -11.731       14.221        7.194        5.693      202.251       51.758       32.410        0.100        0.014       39.625        2.706        0.005      331.774        0.008      866.553
12/04/2021  05:29:00       -6.372       13.422       -6.605        8.333        4.124        7.876       69.445       17.005       62.035        0.021        0.007       14.857        5.141        0.120      332.349        0.954      866.560
12/04/2021  05:30:00        8.131       13.737       -3.436        7.826        9.696        8.051       61.239       94.009       64.820        0.024        0.011       15.964        5.081        0.101      332.217        0.737      866.565
12/04/2021  05:31:00       -3.904       -0.246      -10.747        8.370        8.227       11.237       70.050       67.676      126.276        0.020        0.013        3.912        5.273        1.817      332.169        0.657      866.572
12/04/2021  05:32:00       -7.481       -9.478        1.082       12.962       11.201       13.577      168.015      125.458      184.347        0.031        0.024       12.075        9.296        0.593      331.850        0.132      866.579
12/04/2021  05:33:00      -48.896       17.244      -14.732       21.632       17.891       15.720      467.957      320.071      247.111        0.197        0.052       51.847        8.499        0.027      331.854        0.139      866.605
12/04/2021  05:34:00      -76.652       22.876      -17.489       34.822       26.795       16.952     1212.540      717.962      287.364        0.446        0.111       79.992        9.875        0.015      331.786        0.027      866.641
12/04/2021  05:35:00      -63.782       17.802      -12.475       21.258       20.399       15.827      451.908      416.112      250.478        0.283        0.056       66.220       13.390        0.041      331.850        0.132      866.678
12/04/2021  05:36:00       -6.538       -2.522      -10.549       15.553       11.402        8.639      241.907      129.996       74.639        0.030        0.022        7.007        8.257        1.389      331.884        0.187      866.695
12/04/2021  05:37:00        1.987        4.327       -3.868        5.916        7.502        6.463       34.994       56.277       41.769        0.009        0.007        4.762        4.165        0.765      331.960        0.311      866.696
12/04/2021  05:38:00      -12.637       -0.080       -6.074       10.587        5.979        8.919      112.088       35.753       79.556        0.021        0.011       12.637        7.778        0.379      332.208        0.721      866.686
12/04/2021  05:39:00      -14.170       -9.461       -2.368       19.628       10.314       10.556      385.259      106.371      111.432        0.045        0.030       17.039        5.843        0.118      332.083        0.514      866.686
12/04/2021  05:40:00      -16.346      -15.533       -2.007       10.401       15.595        9.538      108.179      243.201       90.970        0.048        0.022       22.549        7.983        0.125      332.091        0.528      866.688
12/04/2021  05:41:00        7.229      -35.117      -18.435        8.270        9.588        7.994       68.398       91.931       63.901        0.092        0.011       35.853        1.906        0.003      332.203        0.712      866.698
12/04/2021  05:42:00        4.352      -24.992       -6.689        9.417       13.003        8.988       88.685      169.068       80.780        0.051        0.017       25.368        6.590        0.067      332.350        0.956      866.710
12/04/2021  05:43:00      -12.524        1.773       -3.806        9.038        5.690        7.041       81.684       32.372       49.572        0.017        0.008       12.649        2.924        0.053      332.211        0.726      866.740
12/04/2021  05:44:00      -25.285       -2.134      -12.028       11.563       12.732        7.488      133.714      162.105       56.064        0.057        0.018       25.374        4.360        0.030      332.070        0.494      866.772
12/04/2021  05:45:00      -29.524       -3.931      -12.363       12.893       13.504       14.136      166.221      182.360      199.813        0.079        0.027       29.785       10.415        0.122      332.129        0.591      866.818
12/04/2021  05:46:00      -22.844       -6.086       -3.898       19.813       12.412       15.275      392.554      154.062      233.319        0.068        0.039       23.640       13.371        0.320      332.007        0.389      866.856
12/04/2021  05:47:00      -27.632       15.190       -1.983       19.431       20.732       14.443      377.571      429.825      208.587        0.101        0.051       31.532       13.117        0.173      331.887        0.192      866.872
12/04/2021  05:48:00      -54.702       33.192       -8.219       17.045       21.753       13.274      290.522      473.205      176.207        0.255        0.047       63.984       11.117        0.030      331.866        0.159      866.873
12/04/2021  05:49:00      -83.152       50.493       -6.347       29.382       19.703       18.134      863.322      388.219      328.847        0.554        0.079       97.282       16.231        0.028      331.701       -0.113      866.872
12/04/2021  05:50:00     -129.244       40.928      -13.346       31.029       27.661       19.902      962.786      765.139      396.082        1.034        0.106      135.570       12.354        0.008      331.591       -0.295      866.872
12/04/2021  05:51:00     -123.915       46.561       -3.761       44.050       33.365       26.140     1940.395     1113.210      683.288        1.064        0.187      132.374       17.942        0.018      331.543       -0.374      866.890
12/04/2021  05:52:00      -96.234       50.725       -1.980       38.675       24.864       19.390     1495.754      618.229      375.960        0.716        0.124      108.784       15.604        0.021      331.540       -0.379      866.914
12/04/2021  05:53:00      -64.257       27.473       -3.100       35.935       28.050       19.065     1291.336      786.801      363.487        0.367        0.122       69.884       14.339        0.042      331.592       -0.294      866.927
12/04/2021  05:54:00      -72.603       32.257       -7.762       34.894       22.435       22.393     1217.608      503.334      501.444        0.430        0.111       79.446       21.662        0.074      331.651       -0.195      866.949
12/04/2021  05:55:00      -26.288       -3.254      -11.085       59.506       31.931       32.489     3540.920     1019.584     1055.510        0.322        0.281       26.488       36.622        1.912      331.746       -0.039      866.980
12/04/2021  05:56:00      -37.271       -4.787      -17.519       36.348       25.814       21.024     1321.182      666.343      442.004        0.207        0.121       37.577       10.371        0.076      331.697       -0.119      867.000
12/04/2021  05:57:00        9.409       -2.274      -19.546       19.898       24.341       16.815      395.921      592.500      282.757        0.087        0.064        9.680       11.333        1.371      331.703       -0.109      867.007
12/04/2021  05:58:00        8.520       10.400        9.221       12.606       16.562       12.276      158.919      274.286      150.706        0.042        0.029       13.444        2.742        0.042      331.674       -0.159      867.017
12/04/2021  05:59:00      -22.326       12.030      -15.007       14.769       18.274       13.976      218.138      333.928      195.324        0.081        0.037       25.360        9.226        0.132      331.718       -0.084      867.025
12/04/2021  06:00:00      -45.002       11.024      -33.592       19.507       17.304       12.362      380.524      299.436      152.828        0.205        0.042       46.333        7.761        0.028      331.747       -0.038      867.041
12/04/2021  06:01:00      -52.947       23.925      -13.162       19.851       14.929       13.337      394.046      222.888      177.872        0.217        0.040       58.102        8.611        0.022      331.727       -0.071      867.057
12/04/2021  06:02:00      -62.661       20.618      -17.589       13.301       13.965       11.939      176.910      195.014      142.535        0.259        0.026       65.966        8.820        0.018      331.769       -0.003      867.063
12/04/2021  06:03:00      -33.070       10.802      -17.917       16.619       12.208       11.602      276.188      149.042      134.600        0.105        0.028       34.789        8.153        0.055      331.801        0.053      867.066
12/04/2021  06:04:00      -18.334       -1.471       -8.312       14.943       13.564        9.109      223.307      183.976       82.966        0.045        0.025       18.393        5.393        0.086      331.815        0.074      867.059
12/04/2021  06:05:00      -22.706       -3.754       -8.693       14.983        8.158       14.547      224.482       66.558      211.621        0.055        0.025       23.014       11.599        0.254      331.874        0.172      867.049
12/04/2021  06:06:00      -16.478       -1.325      -11.410       13.524       12.016       12.288      182.904      144.382      150.993        0.044        0.024       16.531        4.663        0.080      332.012        0.399      867.047
12/04/2021  06:07:00      -21.888       -6.351       -9.834       18.861       11.547       15.970      355.719      133.336      255.052        0.068        0.037       22.790       14.133        0.385      332.253        0.795      867.053
12/04/2021  06:08:00       -8.543       -6.574      -10.208       14.487        8.046       11.048      209.878       64.730      122.058        0.031        0.020       10.779       12.140        1.268      332.045        0.451      867.050
12/04/2021  06:09:00      -44.154       -9.360      -13.416       17.402       15.644       14.650      302.830      244.734      214.629        0.149        0.038       45.136        8.669        0.037      331.901        0.215      867.055
12/04/2021  06:10:00      -86.576       28.100      -16.968       17.252       10.621       10.855      297.641      112.804      117.830        0.455        0.026       91.022        5.446        0.004      331.968        0.325      867.043
12/04/2021  06:11:00      -71.860       24.906      -20.214       14.140        9.927       10.337      199.931       98.553      106.855        0.330        0.020       76.054        4.296        0.003      331.985        0.353      867.040
12/04/2021  06:12:00      -89.286       18.781      -11.538       14.407       12.282        9.616      207.556      150.845       92.473        0.445        0.023       91.240        5.816        0.004      332.041        0.445      867.033
12/04/2021  06:13:00      -55.451       15.617      -11.583       21.210       11.342        9.589      449.876      128.633       91.953        0.206        0.034       57.608        6.525        0.013      332.186        0.683      867.038
12/04/2021  06:14:00      -36.042       26.676       -6.929        4.938        5.404        6.890       24.389       29.198       47.478        0.108        0.005       44.840        2.008        0.002      332.343        0.944      867.047
12/04/2021  06:15:00      -42.587       35.987       -5.776       13.987       20.364       16.568      195.645      414.691      274.493        0.201        0.044       55.756       14.491        0.068      332.571        1.320      867.063
12/04/2021  06:16:00      -29.319       -7.707       -9.954       18.740       16.270       12.287      351.180      264.717      150.966        0.089        0.038       30.315       11.648        0.148      332.142        0.611      867.071
12/04/2021  06:17:00      -13.191        8.321       -2.806       11.707       18.914       13.188      137.058      357.745      173.919        0.046        0.033       15.596        6.316        0.164      331.948        0.293      867.083
12/04/2021  06:18:00       -3.735       -6.711       -6.377       13.347        8.893       12.419      178.144       79.091      154.242        0.026        0.021        7.680       10.196        1.763      331.930        0.263      867.092
12/04/2021  06:19:00      -13.053        7.352        1.875        8.164       12.386        8.793       66.644      153.415       77.323        0.026        0.015       14.982        4.986        0.111      331.984        0.352      867.098
12/04/2021  06:20:00       -4.732        6.623       -9.051       14.037       13.914       10.516      197.051      193.605      110.597        0.032        0.025        8.139        6.076        0.557      331.914        0.238      867.103
12/04/2021  06:21:00       -0.750        2.818       -4.262       10.869       14.320       12.547      118.142      205.067      157.438        0.025        0.024        2.916        8.495        8.489      332.005        0.387      867.117
12/04/2021  06:22:00       -7.206        4.496       -4.676       18.011       10.520        7.413      324.388      110.670       54.959        0.029        0.025        8.493        7.512        0.782      331.971        0.331      867.136
12/04/2021  06:23:00      -29.323        3.772       -7.383       14.668       13.343        9.812      215.144      178.032       96.270        0.071        0.024       29.564        8.609        0.085      331.965        0.320      867.164
12/04/2021  06:24:00      -28.439       -9.102       -2.421       12.982       13.130       11.458      168.540      172.388      131.282        0.068        0.024       29.860        9.582        0.103      332.061        0.477      867.175
12/04/2021  06:25:00      -30.010       -7.127       -7.062       22.822       10.020       11.343      520.831      100.398      128.657        0.088        0.037       30.845       10.545        0.117      332.076        0.503      867.179
12/04/2021  06:26:00       -3.713       -6.580       -8.994        6.745       12.889        6.757       45.491      166.117       45.653        0.020        0.013        7.555        4.925        0.425      332.066        0.487      867.179
12/04/2021  06:27:00       -7.099        2.989       -3.463        6.128        5.727        7.704       37.552       32.804       59.350        0.010        0.006        7.703        4.891        0.403      332.235        0.766      867.173
12/04/2021  06:28:00      -18.640       -0.852       -6.037       15.798        9.619        6.459      249.591       92.526       41.718        0.038        0.019       18.660        5.391        0.083      332.382        1.008      867.171
12/04/2021  06:29:00      -10.697        0.856       -6.380       13.724       11.079        9.340      188.350      122.736       87.241        0.028        0.020       10.732        4.166        0.151      332.074        0.500      867.182
12/04/2021  06:30:00      -32.521       13.094        5.834       22.215       10.371       10.447      493.489      107.557      109.142        0.099        0.036       35.059       10.437        0.089      331.991        0.363      867.191
12/04/2021  06:31:00      -20.744        1.143       -9.560       17.482        9.057        7.301      305.624       82.036       53.307        0.048        0.022       20.775        4.014        0.037      331.921        0.248      867.207
12/04/2021  06:32:00      -16.037        1.039       -1.576       10.319        6.412        8.845      106.475       41.112       78.234        0.024        0.011       16.071        6.213        0.149      331.892        0.201      867.218
12/04/2021  06:33:00      -20.420       14.786       -9.207        4.865        4.257        4.490       23.668       18.122       20.163        0.039        0.003       25.211        2.839        0.013      331.989        0.362      867.229
12/04/2021  06:34:00      -38.546       30.320       -8.660       18.810       11.177        9.890      353.828      124.924       97.805        0.153        0.029       49.041        4.491        0.008      331.898        0.211      867.238
12/04/2021  06:35:00      -60.900       29.516      -10.647       18.087       17.181       11.572      327.155      295.199      133.915        0.272        0.038       67.676       10.575        0.024      331.860        0.149      867.248
12/04/2021  06:36:00      -51.350       -4.362       -9.740       23.262       21.289       11.132      541.136      453.222      123.928        0.193        0.056       51.535       12.384        0.058      331.726       -0.073      867.255
12/04/2021  06:37:00      -53.551       17.811       -7.777       29.272       22.378       20.281      856.864      500.766      411.317        0.251        0.088       56.436       16.966        0.090      331.682       -0.144      867.252
12/04/2021  06:38:00      -94.241       31.232      -18.428       29.512       26.655       16.327      870.966      710.492      266.583        0.602        0.092       99.282       13.846        0.019      331.624       -0.241      867.257
12/04/2021  06:39:00      -84.853       47.710      -13.686       20.606       11.113       11.858      424.587      123.501      140.621        0.518        0.034       97.346        7.817        0.006      331.619       -0.249      867.267
12/04/2021  06:40:00      -59.362       50.682      -15.691        8.633       10.087        6.973       74.526      101.757       48.621        0.328        0.011       78.055        4.277        0.003      331.897        0.208      867.280
12/04/2021  06:41:00      -45.707       28.193       -5.389       14.391       14.110        9.886      207.087      199.090       97.728        0.171        0.025       53.703        6.308        0.014      331.882        0.183      867.300
12/04/2021  06:42:00      -27.009       32.948       -4.574       16.284       10.074        7.423      265.181      101.493       55.104        0.113        0.021       42.603        4.100        0.009      332.061        0.477      867.311
12/04/2021  06:43:00      -11.516       13.719      -10.143       13.988       10.841        7.901      195.651      117.538       62.420        0.040        0.019       17.912        7.961        0.198      331.968        0.326      867.333
12/04/2021  06:44:00      -52.033       16.232      -12.154       20.674       18.413       11.747      427.402      339.031      138.001        0.201        0.045       54.506        3.416        0.004      331.728       -0.069      867.357
12/04/2021  06:45:00      -65.694       19.536       -9.448       14.700       19.166       12.786      216.100      367.354      163.472        0.277        0.037       68.537        3.464        0.003      331.631       -0.229      867.373
12/04/2021  06:46:00       -2.700        1.334       -8.832       17.525       25.374       13.388      307.128      643.864      179.230        0.061        0.057        3.012        9.301        9.537      331.604       -0.273      867.376
12/04/2021  06:47:00      -26.159        7.039       -9.559       18.252       19.075       16.527      333.151      363.864      273.152        0.090        0.049       27.090        8.475        0.098      331.653       -0.192      867.374
12/04/2021  06:48:00      -31.412        9.669      -16.020       25.258       21.508       21.994      637.944      462.591      483.747        0.146        0.079       32.866       18.319        0.311      331.598       -0.282      867.375
12/04/2021  06:49:00      -32.068       -0.779      -18.534       25.731       23.518       15.967      662.101      553.086      254.957        0.142        0.074       32.077       14.276        0.198      331.630       -0.230      867.369
12/04/2021  06:50:00       -0.345       10.637       -1.784       16.024       12.068       11.492      256.762      145.644      132.070        0.033        0.027       10.642        6.337        0.355      331.612       -0.260      867.364
12/04/2021  06:51:00      -30.779        3.644      -14.808       19.516       15.750       16.141      380.878      248.070      260.538        0.103        0.044       30.994       10.973        0.125      331.698       -0.120      867.368
12/04/2021  06:52:00      -37.452       13.057      -12.415       17.481       20.453       15.722      305.588      418.335      247.193        0.135        0.049       39.663       10.201        0.066      331.763       -0.012      867.373
12/04/2021  06:53:00      -53.907       22.849      -10.847        7.331       10.494        8.865       53.747      110.128       78.594        0.189        0.012       58.550        5.807        0.010      331.771        0.002      867.368
12/04/2021  06:54:00      -50.366       20.302       -9.182       13.632       12.041       11.347      185.840      144.994      128.762        0.175        0.023       54.304        8.215        0.023      331.784        0.021      867.379
12/04/2021  06:55:00      -51.725       22.144      -14.022       12.561       11.702        9.760      157.772      136.946       95.251        0.188        0.019       56.266        7.148        0.016      331.707       -0.103      867.389
12/04/2021  06:56:00      -58.030       20.281      -11.085       23.201       13.519       11.101      538.304      182.769      123.221        0.237        0.042       61.472        8.701        0.020      331.725       -0.072      867.403
12/04/2021  06:57:00       -6.571       -7.171       -2.365       18.795       10.395       17.538      353.266      108.058      307.584        0.043        0.038        9.726       12.247        1.585      331.673       -0.160      867.419
12/04/2021  06:58:00      -26.369        8.253      -12.021       34.181       20.418       15.044     1168.320      416.906      226.327        0.136        0.091       27.631       15.673        0.322      331.672       -0.161      867.422
12/04/2021  06:59:00      -32.368       17.555       -7.886       17.063       12.317       11.553      291.161      151.716      133.477        0.100        0.029       36.822        8.301        0.051      331.713       -0.094      867.428
12/04/2021  07:00:00      -52.700       12.456      -13.250       22.796       21.412       13.396      519.636      458.489      179.441        0.213        0.058       54.152       10.507        0.038      331.773        0.006      867.433
12/04/2021  07:01:00      -27.703       12.941       -8.481       16.384       15.432       13.074      268.450      238.140      170.927        0.084        0.034       30.576        8.753        0.082      331.706       -0.106      867.438
12/04/2021  07:02:00      -21.712        0.027       -6.616       23.670       17.852        9.997      560.277      318.690       99.944        0.075        0.049       21.712       10.094        0.216      331.690       -0.133      867.435
12/04/2021  07:03:00      -40.881       11.446      -11.206       12.054        9.660        7.968      145.306       93.308       63.486        0.111        0.015       42.453        4.834        0.013      331.777        0.009      867.436
12/04/2021  07:04:00      -24.532        0.763      -10.068       17.290       14.006        7.818      298.951      196.162       61.127        0.063        0.028       24.544        6.104        0.062      331.855        0.139      867.437
12/04/2021  07:05:00      -45.082       14.194      -10.012       13.660       15.725        8.927      186.608      247.279       79.688        0.142        0.026       47.263        5.170        0.012      331.842        0.119      867.441
12/04/2021  07:06:00      -64.910       12.125      -12.742       18.987       15.953       10.835      360.493      254.507      117.398        0.263        0.037       66.033        9.495        0.021      331.784        0.023      867.460
12/04/2021  07:07:00      -17.710        8.173        0.159       27.490       17.610       14.083      755.703      310.098      198.333        0.082        0.063       19.505        9.641        0.244      331.726       -0.073      867.471
12/04/2021  07:08:00        0.319        9.336       -3.894       16.201       12.909        9.455      262.486      166.650       89.406        0.031        0.026        9.341        4.083        0.191      331.637       -0.220      867.469
12/04/2021  07:09:00      -41.646        3.319       -6.085       31.843       26.913       14.784     1013.968      724.325      218.556        0.187        0.098       41.778       14.512        0.121      331.628       -0.233      867.476
12/04/2021  07:10:00      -86.719       11.469      -14.193       23.671       16.903       12.232      560.337      285.718      149.623        0.442        0.050       87.474        7.100        0.007      331.511       -0.428      867.489
12/04/2021  07:11:00      -77.928       20.191      -14.461        8.898       11.974        9.422       79.166      143.373       88.771        0.350        0.016       80.501        3.600        0.002      331.473       -0.490      867.495
12/04/2021  07:12:00      -51.497       -9.132       -8.652       25.971       21.601       17.329      674.493      466.593      300.282        0.213        0.072       52.301       16.614        0.101      331.482       -0.476      867.514
12/04/2021  07:13:00      -80.108       21.337      -13.127       30.461       24.317       19.383      927.886      591.320      375.715        0.447        0.095       82.901       14.512        0.031      331.434       -0.552      867.527
12/04/2021  07:14:00      -79.096       34.762      -12.709       15.570       15.482       12.948      242.419      239.706      167.652        0.414        0.032       86.398        8.180        0.009      331.425       -0.567      867.543
12/04/2021  07:15:00      -73.243       29.483      -15.194       13.109       12.519        9.499      171.834      156.728       90.224        0.344        0.021       78.955        6.954        0.008      331.483       -0.474      867.550
12/04/2021  07:16:00      -79.571       34.257      -13.757       11.381       10.098       10.448      129.518      101.960      109.152        0.402        0.017       86.632        5.977        0.005      331.575       -0.322      867.562
12/04/2021  07:17:00      -72.604       46.397      -19.107       15.414       12.875       11.064      237.578      165.763      122.415        0.416        0.026       86.163        9.103        0.011      331.507       -0.433      867.567
12/04/2021  07:18:00      -25.419       18.329      -12.786       22.156       11.568       10.317      490.888      133.816      106.431        0.094        0.037       31.338        7.960        0.065      331.609       -0.266      867.564
12/04/2021  07:19:00      -20.134       23.877       -8.729        8.403        9.886        5.350       70.615       97.730       28.628        0.062        0.010       31.233        5.332        0.029      331.780        0.017      867.563
12/04/2021  07:20:00      -48.516       14.267      -13.934       17.740       14.946       14.357      314.708      223.376      206.126        0.175        0.037       50.571        7.651        0.023      331.775        0.008      867.564
12/04/2021  07:21:00      -38.985        9.481      -15.260       24.102       10.226       11.567      580.896      104.577      133.786        0.133        0.041       40.121        6.648        0.027      331.705       -0.106      867.553
12/04/2021  07:22:00      -10.808        2.785      -13.117        8.294        7.331        6.112       68.795       53.740       37.354        0.023        0.008       11.161        3.588        0.103      332.110        0.559      867.537
12/04/2021  07:23:00      -26.409        5.253      -16.188       18.147       22.104       14.344      329.304      488.582      205.743        0.101        0.051       26.927        9.430        0.123      331.697       -0.120      867.531
12/04/2021  07:24:00      -40.596       12.211      -11.911       15.879        9.491        7.171      252.132       90.079       51.420        0.117        0.020       42.393        2.559        0.004      331.699       -0.116      867.524
12/04/2021  07:25:00       -4.945       17.478       -5.942       23.410        7.896        6.476      548.031       62.341       41.935        0.051        0.033       18.164        2.847        0.025      331.976        0.339      867.516
12/04/2021  07:26:00       14.590       13.645       -7.382       10.573        9.092        8.731      111.792       82.660       76.223        0.036        0.014       19.976        5.242        0.069      332.070        0.493      867.523
12/04/2021  07:27:00        9.949       18.621       -3.500       14.722       11.289        7.849      216.732      127.450       61.601        0.043        0.020       21.113        8.875        0.177      332.024        0.417      867.526
12/04/2021  07:28:00        2.504        7.285       -1.605        9.273       18.229        9.130       85.996      332.287       83.360        0.028        0.025        7.703        6.727        0.763      332.104        0.550      867.521
12/04/2021  07:29:00      -15.678        0.736        1.061       11.739        8.100        9.076      137.797       65.606       82.376        0.027        0.014       15.695        8.621        0.302      332.184        0.680      867.521
12/04/2021  07:30:00      -40.383       14.328       -4.926       11.769       15.417        9.333      138.506      237.673       87.108        0.116        0.023       42.849        7.321        0.029      331.898        0.211      867.536
12/04/2021  07:31:00      -33.196       -6.605       -2.843        9.416       14.473        7.920       88.659      209.468       62.719        0.076        0.018       33.847        2.294        0.005      331.800        0.050      867.536
12/04/2021  07:32:00      -25.786        7.063        1.644       17.117       11.811       11.091      292.986      139.498      123.001        0.064        0.028       26.736        9.497        0.126      331.868        0.161      867.533
12/04/2021  07:33:00      -37.477       19.847      -10.948       10.670        8.655        9.808      113.851       74.917       96.197        0.110        0.014       42.408        5.926        0.020      331.771        0.002      867.543
12/04/2021  07:34:00      -47.538       22.650       -8.215       24.876       16.070        9.181      618.837      258.254       84.300        0.190        0.048       52.658       10.790        0.042      331.822        0.086      867.547
12/04/2021  07:35:00      -30.095       23.489       -5.115       15.106       13.600        7.692      228.202      184.963       59.162        0.098        0.024       38.177        3.194        0.007      331.821        0.085      867.567
12/04/2021  07:36:00       -1.909        9.672       -5.701        4.482        4.103        4.199       20.089       16.836       17.635        0.009        0.003        9.859        2.157        0.048      331.997        0.373      867.584
12/04/2021  07:37:00       -6.248        8.885       -6.966        5.172        4.443        6.891       26.751       19.737       47.487        0.013        0.005       10.862        2.763        0.065      332.156        0.634      867.601
12/04/2021  07:38:00        0.922        1.548       -1.094        5.441       12.461        9.412       29.604      155.265       88.592        0.014        0.014        1.802        4.359        5.851      332.167        0.653      867.613
12/04/2021  07:39:00        0.264      -14.383      -10.059       14.572       12.719       10.477      212.330      161.766      109.770        0.040        0.024       14.385        7.496        0.272      332.046        0.454      867.611
12/04/2021  07:40:00      -15.840       -6.430      -11.379       13.178        8.559       10.717      173.650       73.262      114.865        0.039        0.018       17.096        7.808        0.209      332.197        0.703      867.599
12/04/2021  07:41:00        1.076        4.668        1.973        5.280        6.647        8.691       27.881       44.188       75.535        0.009        0.007        4.791        4.093        0.730      332.207        0.718      867.599
12/04/2021  07:42:00       -9.688       -3.792       -3.177        9.936        6.785       12.342       98.733       46.041      152.329        0.021        0.015       10.404        8.611        0.685      332.333        0.926      867.605
12/04/2021  07:43:00      -21.877        8.091       -6.908        7.323        7.751        7.814       53.631       60.072       61.063        0.038        0.009       23.325        6.316        0.073      332.212        0.727      867.619
12/04/2021  07:44:00      -10.456        5.274       -5.344        6.068        5.695        5.907       36.815       32.436       34.888        0.013        0.005       11.711        3.654        0.097      332.330        0.923      867.633
12/04/2021  07:45:00        4.975        9.815       -0.092        4.132        6.994        4.336       17.077       48.912       18.803        0.010        0.004       11.004        2.601        0.056      332.286        0.849      867.638
12/04/2021  07:46:00        7.423       18.961       -2.150        6.428        8.157        7.326       41.321       66.537       53.666        0.029        0.008       20.362        3.799        0.035      332.241        0.778      867.639
12/04/2021  07:47:00       10.079       24.013       -0.644       10.386        9.084       10.053      107.877       82.511      101.063        0.048        0.015       26.042        6.420        0.061      332.184        0.680      867.646
12/04/2021  07:48:00        8.618       16.470       -2.503       12.877       12.598       12.021      165.809      158.702      144.503        0.041        0.023       18.589        7.837        0.178      332.290        0.855      867.657
12/04/2021  07:49:00       25.627       23.517       -7.943        9.297        6.908        7.074       86.429       47.718       50.045        0.073        0.009       34.783        1.054        0.001      332.240        0.776      867.674
12/04/2021  07:50:00       17.103       18.959       -0.351       13.846        8.756        5.752      191.699       76.671       33.089        0.048        0.015       25.533        4.838        0.036      332.303        0.877      867.698
12/04/2021  07:51:00       12.599       29.122      -12.998       12.988        8.747       11.193      168.678       76.512      125.286        0.077        0.019       31.731        3.526        0.012      332.339        0.937      867.726
12/04/2021  07:52:00       20.431       26.592       -7.419       10.020       11.128        9.309      100.402      123.832       86.649        0.075        0.016       33.535        6.007        0.032      332.354        0.963      867.757
12/04/2021  07:53:00       11.945       18.833       -2.422       14.251       13.375       11.484      203.092      178.891      131.881        0.051        0.026       22.302        7.987        0.128      332.431        1.089      867.771
12/04/2021  07:54:00       -3.620       33.454       -7.578        8.587       14.955        8.765       73.744      223.637       76.824        0.078        0.019       33.650        5.922        0.031      332.405        1.046      867.789
12/04/2021  07:55:00       -3.454       25.574       -8.992       11.248        9.384        8.363      126.513       88.054       69.939        0.052        0.014       25.806        5.219        0.041      332.407        1.049      867.809
12/04/2021  07:56:00        4.272       20.954        3.747       19.748        9.447       11.259      389.990       89.254      126.772        0.054        0.030       21.385        6.568        0.094      332.444        1.111      867.818
12/04/2021  07:57:00       59.932       44.503       -9.745       21.828       15.394       11.638      476.455      236.980      135.452        0.326        0.042       74.648       10.589        0.020      332.460        1.138      867.816
12/04/2021  07:58:00       75.688       43.769      -13.485       12.314       13.123       10.285      151.633      172.221      105.787        0.413        0.021       87.432        7.516        0.007      332.455        1.129      867.819
12/04/2021  07:59:00       52.437       28.751      -11.221       18.578       15.809        9.932      345.129      249.926       98.649        0.220        0.035       59.802        4.651        0.006      332.545        1.277      867.825
12/04/2021  08:00:00       65.868       20.003      -14.446       17.977       17.581       10.927      323.171      309.078      119.391        0.285        0.038       68.838        3.996        0.003      332.532        1.255      867.839
12/04/2021  08:01:00       59.949        6.693      -13.226       21.037       10.382       10.049      442.572      107.784      100.974        0.223        0.033       60.322        6.410        0.011      332.451        1.120      867.845
12/04/2021  08:02:00       61.585       15.293      -17.786       10.927       12.753        9.623      119.408      162.636       92.599        0.236        0.019       63.455        6.858        0.012      332.414        1.061      867.856
12/04/2021  08:03:00       64.180       14.168      -16.170       12.129        9.289       12.212      147.124       86.291      149.144        0.248        0.019       65.725        5.459        0.007      332.447        1.118      867.866
12/04/2021  08:04:00       50.374       10.699       -6.193       16.003       18.735       15.731      256.104      351.006      247.477        0.177        0.043       51.497        8.170        0.025      332.570        1.320      867.870
12/04/2021  08:05:00       54.403        4.329       -9.127       19.378       25.767       16.480      375.499      663.964      271.588        0.219        0.066       54.575        9.870        0.033      332.669        1.483      867.868
12/04/2021  08:06:00       43.844       27.989      -11.666       26.326       34.710       18.175      693.065     1204.771      330.334        0.253        0.111       52.016       12.460        0.057      332.658        1.463      867.861
12/04/2021  08:07:00      -30.249        2.130      -19.069       28.452       19.099       17.412      809.505      364.753      303.165        0.138        0.074       30.324       11.814        0.152      332.728        1.579      867.853
12/04/2021  08:08:00      -40.113        2.519      -12.717       17.484       15.835       16.394      305.697      250.761      268.769        0.130        0.041       40.192        6.131        0.023      332.638        1.434      867.862
12/04/2021  08:09:00      -46.527       -7.306      -15.697       18.495       20.620       16.907      342.068      425.196      285.836        0.176        0.053       47.097       11.495        0.060      332.722        1.569      867.864
12/04/2021  08:10:00      -36.486        0.854      -13.104       18.923       13.143       13.278      358.097      172.748      176.316        0.111        0.035       36.496        4.813        0.017      332.685        1.508      867.883
12/04/2021  08:11:00       66.978        3.106       -9.347       51.751       27.949       17.880     2678.212      781.151      319.688        0.418        0.189       67.050       18.026        0.072      332.540        1.269      867.906
12/04/2021  08:12:00      102.770       10.688      -26.003       31.817       37.446       18.807     1012.301     1402.214      353.697        0.706        0.138      103.324       11.528        0.012      332.539        1.267      867.911
12/04/2021  08:13:00       49.309       25.388      -20.256       32.060       31.980       27.226     1027.840     1022.724      741.244        0.314        0.140       55.461        7.030        0.016      332.636        1.427      867.921
12/04/2021  08:14:00       20.969        2.045      -21.888       29.106       43.343       28.345      847.135     1878.650      803.449        0.223        0.176       21.069       16.512        0.614      332.717        1.561      867.942
12/04/2021  08:15:00       39.097       32.248      -18.755       25.140       30.655       22.710      632.022      939.737      515.742        0.250        0.104       50.681       19.238        0.144      332.696        1.528      867.964
12/04/2021  08:16:00       66.054       52.101      -11.405       37.060       22.244       19.423     1373.472      494.794      377.251        0.473        0.112       84.128       16.076        0.037      332.640        1.434      867.994
12/04/2021  08:17:00      111.766       49.918      -26.204       32.086       41.138       26.441     1029.503     1692.356      699.142        0.954        0.171      122.407        9.944        0.007      332.710        1.550      868.029
12/04/2021  08:18:00      116.488       26.374      -22.844       46.941       35.232       22.242     2203.439     1241.270      494.706        0.936        0.197      119.436       24.880        0.043      332.671        1.487      868.067
12/04/2021  08:19:00      131.121       17.845      -17.029       39.346       34.131       18.409     1548.069     1164.895      338.884        1.043        0.153      132.329       12.437        0.009      332.565        1.311      868.093
12/04/2021  08:20:00       95.498       16.766      -20.038       42.388       31.080       19.705     1796.729      965.990      388.285        0.648        0.158       96.959       23.210        0.057      332.602        1.372      868.102
12/04/2021  08:21:00       97.578       22.797      -15.030       14.260       23.860       13.003      203.340      569.323      169.086        0.560        0.047      100.205        9.760        0.009      332.482        1.174      868.109
12/04/2021  08:22:00       53.249       20.207      -17.528       25.440       38.784       14.444      647.214     1504.230      208.621        0.296        0.118       56.954       13.048        0.052      332.769        1.648      868.113
12/04/2021  08:23:00       82.150       37.823      -14.086       21.914       16.412       12.444      480.216      269.346      154.848        0.464        0.045       90.439        7.321        0.007      332.626        1.410      868.116
12/04/2021  08:24:00       67.800       26.345      -17.371       13.489       11.456       10.141      181.950      131.249      102.849        0.300        0.021       72.739        6.220        0.007      332.591        1.353      868.120
12/04/2021  08:25:00       30.942        9.106      -11.492       10.705       11.902       12.144      114.593      141.657      147.480        0.079        0.020       32.254        5.532        0.029      332.704        1.542      868.118
12/04/2021  08:26:00       35.001       42.146       -6.404       19.163       25.240       12.458      367.216      637.047      155.200        0.210        0.058       54.785        9.412        0.030      332.819        1.729      868.102
12/04/2021  08:27:00      -17.411        3.422       -3.859       34.807       24.202       21.060     1211.550      585.738      443.539        0.128        0.112       17.744       16.348        0.849      333.060        2.129      868.093
12/04/2021  08:28:00      -42.003        3.376      -19.613       22.896       15.489       15.579      524.243      239.906      242.706        0.158        0.050       42.138        6.742        0.026      332.980        1.997      868.103
12/04/2021  08:29:00       30.536       39.363       -9.485       37.190       34.151       30.523     1383.121     1166.314      931.660        0.303        0.174       49.818       12.607        0.064      333.061        2.131      868.115
12/04/2021  08:30:00       35.873       25.818      -25.567       31.363       34.476       29.980      983.619     1188.610      898.785        0.284        0.154       44.198       12.308        0.078      333.169        2.310      868.129
12/04/2021  08:31:00       49.794       10.125      -13.942       39.728       37.742       30.108     1578.319     1424.462      906.476        0.334        0.195       50.813       24.526        0.233      333.157        2.289      868.133
12/04/2021  08:32:00       26.830       25.876      -15.182       39.552       41.870       28.656     1564.395     1753.076      821.188        0.288        0.207       37.275       25.431        0.465      333.094        2.185      868.137
12/04/2021  08:33:00        4.993      -32.138      -20.334       37.077       27.207       25.166     1374.697      740.211      633.327        0.211        0.137       32.524       12.555        0.149      333.329        2.573      868.136
12/04/2021  08:34:00       19.861       15.764      -10.650       30.549       36.582       28.926      933.251     1338.274      836.692        0.193        0.155       25.357       19.780        0.609      333.252        2.446      868.149
12/04/2021  08:35:00       74.723       12.661      -32.955       31.375       44.641       27.324      984.389     1992.821      746.582        0.528        0.186       75.788       14.666        0.037      333.188        2.340      868.160
12/04/2021  08:36:00       50.122       31.631       -7.268       44.442       38.463       25.125     1975.117     1479.425      631.259        0.382        0.204       59.269       22.471        0.144      333.261        2.460      868.185
12/04/2021  08:37:00       89.643       41.873      -21.392       37.229       49.642       26.743     1386.011     2464.351      715.196        0.741        0.228       98.941       17.206        0.030      333.180        2.328      868.214
12/04/2021  08:38:00       16.732       17.714       -7.574       25.736       31.807       22.222      662.330     1011.684      493.821        0.141        0.108       24.367       14.844        0.371      333.467        2.802      868.227
12/04/2021  08:39:00      -18.904      -37.713      -14.430       33.178       32.284       20.393     1100.753     1042.244      415.867        0.227        0.128       42.185        6.643        0.025      333.492        2.844      868.236
12/04/2021  08:40:00       -1.677       -3.822        7.892       28.438       30.076       19.760      808.713      904.595      390.448        0.109        0.105        4.173       13.254       10.087      333.576        2.981      868.250
12/04/2021  08:41:00       27.022        3.415       -7.304       24.365       44.582       18.920      593.656     1987.524      357.955        0.187        0.147       27.237       18.445        0.459      333.474        2.814      868.259
12/04/2021  08:42:00       46.521      -18.077      -10.606       27.420       35.002       30.483      751.868     1225.119      929.186        0.275        0.145       49.910       20.912        0.176      333.608        3.034      868.270
12/04/2021  08:43:00       71.418      -28.048      -23.754       36.690       37.973       28.677     1346.143     1441.931      822.387        0.503        0.181       76.728       15.501        0.041      333.475        2.816      868.282
12/04/2021  08:44:00       15.744      -46.820      -21.078       27.341       45.277       25.074      747.546     2049.971      628.707        0.315        0.171       49.397       17.696        0.128      333.707        3.199      868.300
12/04/2021  08:45:00       38.824      -29.752      -13.094       42.435       39.855       30.553     1800.744     1588.441      933.463        0.344        0.216       48.913       24.050        0.242      333.683        3.158      868.304
12/04/2021  08:46:00       47.889      -57.681      -35.576       29.872       41.116       23.352      892.354     1690.521      545.310        0.501        0.156       74.970       20.638        0.076      333.414        2.715      868.316
12/04/2021  08:47:00       84.026      -11.735      -31.469       34.785       59.469       24.957     1210.001     3536.594      622.861        0.678        0.268       84.842       12.020        0.020      333.496        2.850      868.332
12/04/2021  08:48:00       96.533       79.927      -27.210       26.299       28.414       23.160      691.659      807.350      536.402        0.924        0.102      125.327       11.186        0.008      333.446        2.768      868.357
12/04/2021  08:49:00       76.373       63.975      -15.151       22.737       22.219       17.434      516.961      493.695      303.940        0.573        0.066       99.627       12.599        0.016      333.386        2.669      868.377
12/04/2021  08:50:00       13.697       25.464       -8.741       17.850       34.815       25.220      318.633     1212.089      636.046        0.154        0.108       28.914        6.541        0.051      333.769        3.302      868.380
12/04/2021  08:51:00       38.761       48.453       -4.656       41.866       22.645       29.412     1752.756      512.784      865.055        0.350        0.157       62.049       25.532        0.169      333.690        3.171      868.364
12/04/2021  08:52:00        0.984       11.373      -21.699       40.836       34.385       17.195     1667.597     1182.352      295.659        0.187        0.157       11.416       11.732        1.056      333.790        3.336      868.335
12/04/2021  08:53:00      -47.771      -17.636        7.647       26.311       14.777       16.606      692.262      218.374      275.745        0.192        0.059       50.922        8.183        0.026      333.800        3.353      868.303
12/04/2021  08:54:00      -17.925       -8.740      -11.054       27.983       22.129       18.891      783.054      489.679      356.863        0.107        0.081       19.942       11.143        0.312      333.922        3.555      868.272
12/04/2021  08:55:00      -10.006       -4.450       -2.789       20.973       19.158       17.616      439.859      367.026      310.316        0.062        0.056       10.951        5.170        0.223      333.881        3.488      868.253
12/04/2021  08:56:00       46.165      -90.666      -24.375       33.134       48.178       29.690     1097.875     2321.142      881.483        0.762        0.215      101.743       16.291        0.026      333.972        3.638      868.230
12/04/2021  08:57:00       16.666      -64.331      -17.209       36.052       45.764       37.115     1299.757     2094.369     1377.546        0.474        0.239       66.455       20.912        0.099      334.020        3.716      868.209
12/04/2021  08:58:00       27.358      -50.181      -27.110       46.599       39.345       26.296     2171.472     1548.030      691.462        0.421        0.221       57.154       21.784        0.145      334.148        3.929      868.218
12/04/2021  08:59:00       12.339      -41.542      -18.530       41.187       43.073       26.380     1696.339     1855.290      695.901        0.323        0.212       43.336       21.232        0.240      334.222        4.052      868.216
12/04/2021  09:00:00       13.741       11.353       -6.961       22.270       23.073       26.783      495.949      532.368      717.302        0.106        0.087       17.825       18.425        1.069      334.162        3.952      868.205
12/04/2021  09:01:00       26.571      -16.344      -29.260       41.592       41.159       31.830     1729.910     1694.039     1013.119        0.313        0.222       31.195       23.332        0.559      334.234        4.073      868.206
12/04/2021  09:02:00       -5.741       -2.773        4.843       26.753       27.125       22.308      715.697      735.783      497.656        0.101        0.097        6.375       15.299        5.759      334.175        3.974      868.213
12/04/2021  09:03:00      -33.656        7.163      -10.619       22.519       19.421       10.271      507.083      377.191      105.502        0.114        0.049       34.410        4.693        0.019      333.961        3.619      868.224
12/04/2021  09:04:00      -36.644        3.290       -1.357       19.122       14.342       16.671      365.642      205.690      277.919        0.110        0.042       36.792       10.019        0.074      334.000        3.685      868.232
12/04/2021  09:05:00      -40.415       11.584      -14.464       17.918       16.146       17.360      321.048      260.690      301.358        0.143        0.044       42.042        8.870        0.045      333.984        3.657      868.235
12/04/2021  09:06:00      -29.940      -15.588      -11.717       23.074       39.961       12.295      532.409     1596.899      151.166        0.178        0.114       33.755        9.840        0.085      334.071        3.802      868.239
12/04/2021  09:07:00      -37.485        0.828       -3.440       22.471       24.107       21.344      504.966      581.140      455.552        0.148        0.077       37.494       14.990        0.160      334.218        4.044      868.255
12/04/2021  09:08:00      -35.928       16.680       -9.734       13.945       13.248        9.994      194.471      175.501       99.889        0.107        0.023       39.611        4.103        0.011      334.124        3.889      868.273
12/04/2021  09:09:00      -10.692        1.507      -20.841       23.391       21.404       14.954      547.158      458.119      223.623        0.089        0.061       10.798        7.468        0.478      334.351        4.266      868.296
12/04/2021  09:10:00       72.132      -44.741      -25.095       33.783       33.556       31.828     1141.324     1125.998     1013.014        0.556        0.164       84.881       16.305        0.037      334.337        4.242      868.305
12/04/2021  09:11:00       48.494      -13.502      -23.862       40.433       35.537       25.030     1634.832     1262.853      626.517        0.331        0.176       50.338       21.933        0.190      334.438        4.410      868.305
12/04/2021  09:12:00       63.868      -38.022      -35.892       38.434       45.729       28.924     1477.156     2091.117      836.606        0.561        0.220       74.329       20.037        0.073      334.445        4.422      868.294
12/04/2021  09:13:00       41.642       -9.618      -11.329       44.579       38.227       32.680     1987.282     1461.315     1068.000        0.323        0.226       42.738       21.051        0.243      334.443        4.418      868.280
12/04/2021  09:14:00       53.867       -5.681      -16.177       47.795       37.898       29.779     2284.394     1436.249      886.760        0.390        0.230       54.166       26.541        0.240      334.251        4.102      868.276
12/04/2021  09:15:00       21.738      -44.678      -20.508       42.500       47.273       29.569     1806.239     2234.737      874.332        0.390        0.246       49.686       29.922        0.363      334.691        4.830      868.274
12/04/2021  09:16:00       65.278      -43.944      -25.093       38.613       36.548       26.412     1490.992     1335.773      697.575        0.517        0.176       78.691       20.637        0.069      334.472        4.467      868.281
12/04/2021  09:17:00       88.183      -65.546      -39.813       42.385       60.913       27.472     1796.481     3710.355      754.725        0.996        0.313      109.875       29.568        0.072      334.386        4.324      868.282
12/04/2021  09:18:00       84.715     -108.820      -45.235       33.473       35.478       22.932     1120.444     1258.712      525.855        1.198        0.145      137.907       17.311        0.016      334.357        4.275      868.289
12/04/2021  09:19:00       71.901      -34.867      -26.949       44.823       56.955       31.115     2009.065     3243.833      968.173        0.667        0.311       79.910       25.686        0.103      334.573        4.634      868.290
12/04/2021  09:20:00       80.768       32.442      -32.427       36.549       61.356       34.823     1335.815     3764.561     1212.634        0.747        0.316       87.040       21.459        0.061      334.518        4.542      868.309
12/04/2021  09:21:00       82.994      -18.715      -22.557       54.118       50.341       31.463     2928.724     2534.249      989.908        0.710        0.323       85.079       20.121        0.056      334.541        4.582      868.323
12/04/2021  09:22:00       89.062      -36.994      -17.243       45.727       44.592       31.254     2090.922     1988.446      976.829        0.733        0.253       96.440       26.698        0.077      334.452        4.432      868.398
12/04/2021  09:23:00       45.575       -4.787       -5.406       41.988       37.163       31.497     1762.996     1381.084      992.080        0.313        0.207       45.826       24.149        0.278      334.848        5.090      868.459
12/04/2021  09:24:00       87.131       44.753       -8.251       53.884       67.487       38.031     2903.484     4554.468     1446.360        0.928        0.445       97.952       29.517        0.091      334.827        5.058      868.477
12/04/2021  09:25:00       37.160        0.094       -4.236       52.457       37.725       25.436     2751.769     1423.157      647.013        0.311        0.241       37.160       21.112        0.323      334.562        4.616      868.490
12/04/2021  09:26:00       70.183       45.328      -13.098       42.559       46.390       29.901     1811.260     2151.988      894.058        0.600        0.243       83.548       21.840        0.068      334.669        4.794      868.474
12/04/2021  09:27:00       40.390       48.785        4.780       55.550       42.654       25.472     3085.775     1819.346      648.833        0.479        0.278       63.335       20.395        0.104      334.799        5.009      868.473
12/04/2021  09:28:00        1.895      -27.532      -16.342       50.759       43.656       28.709     2576.505     1905.886      824.210        0.317        0.265       27.597       17.249        0.391      334.810        5.027      868.478
12/04/2021  09:29:00       45.156      -33.615      -25.250       29.291       54.122       30.308      857.981     2929.137      918.571        0.426        0.235       56.294        8.780        0.024      334.657        4.773      868.500
12/04/2021  09:30:00       62.027      -19.040      -14.670       38.814       44.116       22.870     1506.508     1946.226      523.050        0.420        0.199       64.884       17.978        0.077      334.786        4.987      868.514
12/04/2021  09:31:00       62.138        8.206      -24.518       40.274       53.703       26.703     1621.963     2884.037      713.041        0.487        0.261       62.678       16.206        0.067      334.795        5.005      868.536
12/04/2021  09:32:00       14.655      -16.744      -10.569       30.485       36.195       26.856      929.338     1310.075      721.249        0.178        0.148       22.251       18.217        0.670      335.064        5.451      868.553
12/04/2021  09:33:00       68.168      -45.845      -27.841       42.540       36.828       19.975     1809.636     1356.291      398.992        0.554        0.178       82.150       15.598        0.036      334.755        4.936      868.571
12/04/2021  09:34:00       69.331      -61.277      -21.999       32.863       36.017       19.033     1079.975     1297.209      362.255        0.589        0.137       92.530       13.888        0.023      334.502        4.516      868.584
12/04/2021  09:35:00       59.208      -57.558      -24.647       23.165       23.866       15.349      536.630      569.605      235.588        0.438        0.067       82.574        8.318        0.010      334.571        4.630      868.589
12/04/2021  09:36:00       38.436      -33.179      -10.179       31.914       35.337       19.195     1018.524     1248.712      368.452        0.266        0.132       50.776       16.420        0.105      334.896        5.171      868.591
12/04/2021  09:37:00       79.710       39.587      -21.182       22.637       30.966       21.015      512.435      958.905      441.611        0.514        0.096       88.999        7.821        0.008      334.714        4.869      868.586
12/04/2021  09:38:00       47.112       29.117      -15.003       30.434       30.691       14.097      926.230      941.925      198.723        0.268        0.103       55.383        3.419        0.004      334.782        4.982      868.573
12/04/2021  09:39:00       37.249       45.586       -4.547       24.780       25.515       18.598      614.059      651.002      345.881        0.255        0.081       58.869        9.410        0.026      335.074        5.467      868.574
12/04/2021  09:40:00       69.223       71.501      -16.735       26.970       27.080       23.525      727.363      733.305      553.428        0.610        0.101       99.520        9.518        0.009      335.004        5.352      868.575
12/04/2021  09:41:00       65.834       14.972      -23.965       39.573       38.364       26.463     1566.061     1471.804      700.315        0.443        0.187       67.515       18.537        0.075      334.991        5.328      868.577
12/04/2021  09:42:00       99.897       43.432      -24.994       13.504       13.362       12.324      182.368      178.545      151.883        0.650        0.026      108.930        5.760        0.003      334.535        4.568      868.587
12/04/2021  09:43:00       55.593       27.992      -16.404       34.673       22.116       14.732     1202.194      489.135      217.033        0.303        0.095       62.243       15.230        0.060      334.719        4.876      868.591
12/04/2021  09:44:00       69.189       15.699      -30.336       21.327       43.732       19.948      454.823     1912.447      397.913        0.436        0.138       70.948       15.316        0.047      334.960        5.279      868.595
12/04/2021  09:45:00       15.846      -17.906       -3.325       23.786       40.275       24.015      565.786     1622.098      576.701        0.167        0.138       23.911       18.883        0.624      335.258        5.772      868.594
12/04/2021  09:46:00       65.346      -45.000      -10.677       54.519       33.251       27.381     2972.355     1105.615      749.717        0.562        0.241       79.341       18.683        0.055      335.129        5.558      868.580
12/04/2021  09:47:00       61.270      -23.450      -39.289       41.292       48.449       35.545     1705.036     2347.336     1263.455        0.558        0.266       65.604       26.128        0.159      335.196        5.669      868.575
12/04/2021  09:48:00       69.760        2.120      -41.354       33.045       51.535       25.026     1091.997     2655.871      626.316        0.548        0.219       69.792       13.412        0.037      335.142        5.578      868.574
12/04/2021  09:49:00       56.156      -17.770      -26.721       30.171       36.336       23.808      910.292     1320.324      566.801        0.349        0.140       58.900        9.248        0.025      335.035        5.402      868.567
12/04/2021  09:50:00       36.390        3.955      -11.210       22.074       42.990       21.894      487.257     1848.106      479.332        0.214        0.141       36.604       13.350        0.133      334.988        5.325      868.560
12/04/2021  09:51:00       58.549      -14.595      -14.147       38.642       58.430       29.220     1493.212     3414.090      853.788        0.480        0.288       60.341       19.376        0.103      335.166        5.620      868.564
12/04/2021  09:52:00       76.116       23.784      -19.732       37.071       39.678       25.876     1374.272     1574.326      669.570        0.518        0.181       79.745       16.260        0.042      335.156        5.604      868.593
12/04/2021  09:53:00       16.895       41.036       -1.614       18.498       29.261       24.743      342.167      856.209      612.233        0.189        0.091       44.377       11.225        0.064      335.264        5.782      868.613
12/04/2021  09:54:00       24.962       18.857      -15.376       23.417       31.312       21.221      548.348      980.457      450.341        0.160        0.099       31.284       14.810        0.224      335.561        6.278      868.605
12/04/2021  09:55:00       48.422      -63.549      -31.151       41.331       53.794       28.103     1708.219     2893.757      789.777        0.637        0.270       79.895       33.141        0.172      335.348        5.924      868.593
12/04/2021  09:56:00       77.662      -37.403      -27.014       25.990       33.905       21.533      675.470     1149.522      463.658        0.522        0.114       86.199        8.940        0.011      335.085        5.487      868.582
12/04/2021  09:57:00       76.687      -11.820      -21.883       50.413       40.697       37.656     2541.464     1656.207     1417.961        0.606        0.281       77.592       32.928        0.180      335.304        5.849      868.584
12/04/2021  09:58:00       55.619       11.260      -10.133       38.260       58.898       31.285     1463.829     3468.920      978.782        0.462        0.296       56.748       14.016        0.061      335.412        6.029      868.598
12/04/2021  09:59:00       47.764       -7.800      -28.456       39.822       50.529       27.319     1585.764     2553.152      746.353        0.402        0.244       48.397       19.869        0.169      335.641        6.409      868.606
12/04/2021  10:00:00       65.548       14.756      -23.406       36.403       31.196       32.094     1325.146      973.213     1030.043        0.419        0.166       67.188       22.222        0.109      335.284        5.815      868.610
12/04/2021  10:01:00       54.768       41.981      -11.742       18.277       17.668       16.456      334.037      312.165      270.784        0.291        0.046       69.007        9.712        0.020      335.258        5.772      868.599
12/04/2021  10:02:00       44.683       55.123      -20.028       16.918       15.035       18.516      286.233      226.048      342.835        0.315        0.043       70.959        7.974        0.013      335.311        5.860      868.579
12/04/2021  10:03:00       15.088      -35.548      -18.313       60.984       71.632       22.387     3719.033     5131.185      501.182        0.559        0.468       38.617       20.179        0.273      335.551        6.259      868.574
12/04/2021  10:04:00       52.293      -64.043      -37.800       42.709       48.599       32.806     1824.065     2361.835     1076.248        0.676        0.263       82.680       19.741        0.057      335.824        6.715      868.580
12/04/2021  10:05:00       54.348       18.966      -54.350       30.127       37.906       27.514      907.630     1436.889      756.995        0.468        0.155       57.562       13.754        0.057      335.557        6.270      868.591
12/04/2021  10:06:00       67.418       11.214      -29.817       22.119       41.140       18.381      489.249     1692.528      337.855        0.404        0.126       68.344       18.075        0.070      335.495        6.166      868.579
12/04/2021  10:07:00        7.420      -34.768      -21.479       36.434       24.175       19.530     1327.457      584.439      381.408        0.201        0.115       35.551       14.281        0.161      335.803        6.681      868.570
12/04/2021  10:08:00      -30.350       34.015      -18.814       18.917       13.019       15.269      357.837      169.494      233.149        0.160        0.038       45.586        8.379        0.034      335.524        6.215      868.558
12/04/2021  10:09:00      -24.829       24.562       -7.190       21.448       25.321       16.287      459.999      641.153      265.276        0.132        0.068       34.926        5.066        0.021      335.776        6.636      868.553
12/04/2021  10:10:00       38.113      -37.066      -22.671       40.593       72.199       26.865     1647.783     5212.741      721.707        0.546        0.379       53.165       36.819        0.480      335.824        6.715      868.536
12/04/2021  10:11:00       63.415      -12.854      -13.438       28.214       75.669       22.964      796.019     5725.771      527.363        0.571        0.352       64.704       19.500        0.091      335.710        6.525      868.522
12/04/2021  10:12:00       48.807      -13.216      -11.921       42.755       31.248       31.777     1827.988      976.434     1009.793        0.326        0.191       50.564       29.344        0.337      335.953        6.931      868.514
12/04/2021  10:13:00       43.384       45.909       -3.371       45.388       41.713       28.248     2060.102     1739.993      797.967        0.430        0.230       63.165       16.842        0.071      335.749        6.589      868.508
12/04/2021  10:14:00       30.115       31.574      -11.242       35.719       33.859       21.834     1275.880     1146.442      476.745        0.246        0.145       43.632       14.486        0.110      335.811        6.693      868.509
12/04/2021  10:15:00       44.936      -12.848      -19.030       45.848       42.554       25.869     2102.062     1810.803      669.189        0.356        0.229       46.736       21.982        0.221      335.930        6.892      868.510
12/04/2021  10:16:00       72.712       -2.208      -27.413       50.694       38.950       30.166     2569.896     1517.068      909.989        0.552        0.250       72.746        4.746        0.004      335.939        6.907      868.522
12/04/2021  10:17:00       56.769      -19.893      -27.417       37.337       38.751       29.873     1394.040     1501.662      892.407        0.408        0.189       60.154       14.308        0.057      336.108        7.189      868.533
12/04/2021  10:18:00       23.189      -68.259      -22.124       47.039       49.985       36.916     2212.622     2498.459     1362.777        0.588        0.304       72.091       30.520        0.179      336.317        7.537      868.533
12/04/2021  10:19:00       48.055      -50.933      -38.539       38.953       54.491       27.495     1517.302     2969.254      755.966        0.581        0.262       70.024       15.255        0.047      335.989        6.990      868.538
12/04/2021  10:20:00       17.964       -9.898      -20.276       30.523       45.537       31.017      931.684     2073.627      962.043        0.240        0.198       20.510       15.457        0.568      336.195        7.334      868.542
12/04/2021  10:21:00       40.217       22.463      -14.378       55.913       73.677       22.993     3126.252     5428.305      528.683        0.570        0.454       46.065       24.388        0.280      336.155        7.267      868.550
12/04/2021  10:22:00       89.746      -16.921       -6.541       44.268       40.077       34.727     1959.632     1606.195     1205.973        0.658        0.239       91.327       29.064        0.101      335.912        6.863      868.538
12/04/2021  10:23:00       98.823       23.983      -17.997       43.413       43.017       24.699     1884.704     1850.467      610.046        0.750        0.217      101.692       11.255        0.012      335.695        6.500      868.530
12/04/2021  10:24:00       60.453        2.997      -28.032       41.382       48.965       31.227     1712.496     2397.566      975.148        0.477        0.254       60.527       23.503        0.151      335.835        6.734      868.522
12/04/2021  10:25:00       50.558       75.467       -1.243       36.294       39.412       29.371     1317.242     1553.310      862.666        0.599        0.187       90.837       23.843        0.069      336.116        7.202      868.515
12/04/2021  10:26:00       15.095        0.322      -10.931       25.921       47.843       21.611      671.892     2288.933      467.032        0.189        0.171       15.098       23.084        2.338      336.542        7.914      868.503
12/04/2021  10:27:00       35.426      -48.248      -37.967       26.929       43.035       22.812      725.157     1852.032      520.388        0.406        0.155       59.857       14.689        0.060      336.220        7.376      868.493
12/04/2021  10:28:00       44.411      -11.938      -31.752       32.907       24.595       15.632     1082.855      604.935      244.354        0.253        0.097       45.988       10.372        0.051      336.139        7.241      868.482
12/04/2021  10:29:00      -13.275       18.862       -1.420       20.179       26.467       16.815      407.204      700.494      282.755        0.096        0.070       23.065        4.922        0.046      336.444        7.750      868.474
12/04/2021  10:30:00       -7.700       12.700        8.459       36.314       29.591       19.163     1318.729      875.631      367.230        0.143        0.128       14.852        6.970        0.220      336.510        7.861      868.462
12/04/2021  10:31:00       96.728       26.533      -24.122       42.967       38.360       26.741     1846.151     1471.475      715.074        0.734        0.202      100.301       13.097        0.017      336.165        7.285      868.463
12/04/2021  10:32:00       54.772       49.539       -8.269       40.872       30.503       23.879     1670.531      930.423      570.205        0.435        0.159       73.852       11.532        0.024      336.359        7.609      868.471
12/04/2021  10:33:00       76.317       65.046      -19.108       36.372       51.509       27.144     1322.889     2653.201      736.773        0.757        0.236      100.276       24.396        0.059      336.333        7.564      868.472
12/04/2021  10:34:00       65.927       22.227      -16.668       57.788       46.631       31.701     3339.432     2174.428     1004.924        0.582        0.326       69.573       12.756        0.034      336.381        7.644      868.467
12/04/2021  10:35:00      113.304       57.865      -20.960       24.734       20.672       14.619      611.777      427.342      213.708        0.894        0.063      127.225       10.283        0.007      335.995        7.001      868.457
12/04/2021  10:36:00       59.546       26.827       -9.056       33.181       34.308       26.676     1100.999     1177.071      711.598        0.367        0.149       65.310       18.522        0.080      336.384        7.650      868.443
12/04/2021  10:37:00       86.769       34.321       -7.424       45.365       53.312       28.150     2057.983     2842.171      792.404        0.723        0.285       93.310       16.014        0.029      336.327        7.553      868.431
12/04/2021  10:38:00       22.700       10.998      -15.684       54.590       31.885       20.733     2980.027     1016.665      429.845        0.265        0.221       25.224       18.506        0.538      336.745        8.253      868.423
12/04/2021  10:39:00      -11.407      -55.464        1.610       45.321       45.363       28.865     2053.979     2057.839      833.214        0.408        0.247       56.625       21.558        0.145      336.695        8.170      868.410
12/04/2021  10:40:00       67.905      -98.861      -41.476       39.723       46.372       27.966     1577.923     2150.372      782.091        1.031        0.226      119.936       18.293        0.023      336.681        8.147      868.387
12/04/2021  10:41:00       95.622     -124.958      -42.021       35.759       42.275       25.415     1278.737     1787.178      645.946        1.512        0.186      157.347       20.655        0.017      336.427        7.721      868.358
12/04/2021  10:42:00       94.482     -169.701      -38.936       27.644       51.565       17.441      764.181     2658.937      304.205        2.148        0.186      194.230       14.381        0.005      336.186        7.316      868.329
12/04/2021  10:43:00      100.594     -107.440      -37.597       31.058       54.161       25.163      964.628     2933.401      633.165        1.380        0.227      147.182       28.375        0.037      336.259        7.439      868.316
12/04/2021  10:44:00       73.325     -109.833      -30.612       27.744       27.350       20.348      769.708      748.008      414.058        1.015        0.097      132.060       13.921        0.011      336.406        7.687      868.307
12/04/2021  10:45:00       58.074      -48.148      -26.498       35.452       41.547       23.000     1256.848     1726.151      529.022        0.495        0.176       75.438       18.169        0.058      336.455        7.769      868.296
12/04/2021  10:46:00       55.621      -55.278      -38.354       38.422       59.048       23.205     1476.249     3486.617      538.460        0.656        0.275       78.418       17.155        0.048      336.791        8.329      868.281
12/04/2021  10:47:00       55.801      -52.220      -25.706       36.095       49.641       34.289     1302.879     2464.253     1175.749        0.572        0.247       76.424        5.002        0.004      336.945        8.587      868.285
12/04/2021  10:48:00       47.400      -63.867      -31.244       81.334       58.654       32.517     6615.144     3440.277     1057.330        0.921        0.556       79.535       30.693        0.149      336.787        8.322      868.291
12/04/2021  10:49:00      116.256     -120.708      -37.219       34.143       70.610       23.827     1165.738     4985.811      567.748        1.809        0.336      167.588       29.957        0.032      336.456        7.769      868.288
12/04/2021  10:50:00       75.921      -97.204      -40.299       37.852       41.757       23.792     1432.755     1743.616      566.040        1.029        0.187      123.340        5.644        0.002      336.550        7.927      868.294
12/04/2021  10:51:00       55.516     -128.950      -35.721       40.026       42.938       21.187     1602.081     1843.712      448.896        1.244        0.195      140.393        3.884        0.001      336.647        8.088      868.287
12/04/2021  10:52:00       75.098      -49.786      -26.792       36.224       44.619       28.917     1312.162     1990.849      836.168        0.649        0.207       90.102       21.300        0.056      336.798        8.343      868.270
12/04/2021  10:53:00       78.519     -106.760      -27.104       30.970       38.664       26.466      959.157     1494.879      700.439        1.073        0.158      132.525       20.662        0.024      336.621        8.047      868.230
12/04/2021  10:54:00      113.640     -166.726      -55.195       32.455       54.547       24.035     1053.318     2975.368      577.661        2.418        0.230      201.771       14.865        0.005      336.525        7.883      868.203
12/04/2021  10:55:00       79.377      -82.368      -35.110       64.230       59.645       26.760     4125.516     3557.546      716.082        1.136        0.420      114.391       27.965        0.060      336.655        8.101      868.197
12/04/2021  10:56:00       -5.510       -4.267      -13.109       59.076       37.982       27.824     3490.010     1442.651      774.184        0.296        0.285        6.969       28.031       16.180      336.947        8.589      868.207
12/04/2021  10:57:00       67.389       17.026      -24.124       48.299       38.670       27.429     2332.791     1495.362      752.376        0.500        0.229       69.507       17.557        0.064      337.015        8.704      868.211
12/04/2021  10:58:00       14.829      -18.699       -8.059       36.330       51.965       29.699     1319.861     2700.342      882.034        0.277        0.245       23.865       13.694        0.329      337.295        9.172      868.200
12/04/2021  10:59:00       42.747      -91.795      -28.676       39.442       46.281       29.238     1555.661     2141.964      854.837        0.781        0.228      101.260       21.025        0.043      337.214        9.036      868.195
12/04/2021  11:00:00       82.685      -12.636      -35.103       54.304       83.160       49.190     2948.955     6915.651     2419.679        1.025        0.614       83.644       27.968        0.112      337.223        9.052      868.179
12/04/2021  11:01:00       55.552      -28.146      -40.873       77.406       94.023       43.089     5991.644     8840.276     1856.636        1.112        0.834       62.275       25.594        0.169      337.078        8.809      868.182
12/04/2021  11:02:00       80.545     -157.432      -34.009       24.290       29.111       15.308      589.992      847.433      234.335        1.705        0.084      176.840       12.230        0.005      336.528        7.889      868.178
12/04/2021  11:03:00       64.498     -102.367      -24.722       29.539       35.332       27.724      872.548     1248.349      768.604        0.907        0.144      120.992       21.412        0.031      336.634        8.068      868.161
12/04/2021  11:04:00       50.999     -142.246      -37.811       18.763       34.421       20.874      352.042     1184.801      435.735        1.312        0.099      151.112       15.488        0.011      336.633        8.068      868.149
12/04/2021  11:05:00       35.238      -42.742      -19.752       36.532       79.331       34.096     1334.557     6293.463     1162.554        0.612        0.440       55.395       32.211        0.338      337.041        8.750      868.128
12/04/2021  11:06:00       25.878       32.197        0.018       59.948       57.345       25.622     3593.716     3288.431      656.476        0.462        0.377       41.307       27.098        0.430      337.176        8.973      868.122
12/04/2021  11:07:00       43.354      -82.737      -27.348       52.579       53.007       32.982     2764.518     2809.707     1087.797        0.807        0.333       93.408       29.815        0.102      337.155        8.939      868.113
12/04/2021  11:08:00       16.013      -99.663      -26.718       57.769       45.479       48.253     3337.219     2068.336     2328.307        0.932        0.387      100.941       32.371        0.103      337.061        8.780      868.107
12/04/2021  11:09:00       80.581      -65.411      -22.653       27.471       34.493       24.266      754.654     1189.783      588.859        0.691        0.127      103.788       17.140        0.027      336.896        8.505      868.089
12/04/2021  11:10:00       82.933     -115.684      -33.372       42.468       56.226       32.001     1803.571     3161.404     1024.067        1.368        0.299      142.340       35.540        0.062      336.789        8.325      868.070
12/04/2021  11:11:00       55.298     -154.596      -38.640       34.874       41.430       18.643     1216.174     1716.458      347.552        1.586        0.164      164.188       14.671        0.008      336.661        8.114      868.033
12/04/2021  11:12:00       38.169     -116.906      -31.862       41.990       39.434       34.681     1763.140     1555.037     1202.798        1.033        0.226      122.979       25.708        0.044      336.814        8.367      868.008
12/04/2021  11:13:00       57.838      -74.692      -35.079       45.386       34.983       28.162     2059.921     1223.791      793.118        0.711        0.204       94.467       15.869        0.028      336.832        8.399      867.977
12/04/2021  11:14:00       36.336      -22.015      -24.301       31.638       56.931       23.761     1000.939     3241.171      564.591        0.360        0.240       42.485       12.185        0.082      337.087        8.824      867.955
12/04/2021  11:15:00       35.643       46.877       -3.674       53.060       53.864       24.840     2815.343     2901.284      617.042        0.491        0.317       58.889       10.507        0.032      337.296        9.174      867.929
12/04/2021  11:16:00       24.417       21.847       -0.689       32.497       47.619       24.284     1056.035     2267.570      589.695        0.249        0.196       32.764       15.979        0.238      337.548        9.596      867.918
12/04/2021  11:17:00       70.938       56.003      -22.221       47.807       36.854       31.111     2285.545     1358.193      967.866        0.664        0.231       90.380       19.841        0.048      337.280        9.148      867.906
12/04/2021  11:18:00       21.808      -69.092      -15.203       35.388       48.486       26.905     1252.278     2350.865      723.888        0.490        0.216       72.452       16.155        0.050      337.360        9.282      867.890
12/04/2021  11:19:00       45.532      -80.959      -24.429       30.689       59.263       33.673      941.843     3512.084     1133.878        0.741        0.279       92.884       29.730        0.102      337.489        9.498      867.857
12/04/2021  11:20:00       51.134     -142.323      -35.265       42.589       49.349       31.736     1813.795     2435.321     1007.184        1.468        0.263      151.230       29.348        0.038      337.166        8.955      867.835
12/04/2021  11:21:00       78.899     -137.407      -37.770       31.404       36.301       15.189      986.228     1317.784      230.702        1.453        0.127      158.448       14.108        0.008      336.877        8.472      867.806
12/04/2021  11:22:00       55.052      -74.649      -24.959       30.933       39.922       22.430      956.833     1593.772      503.100        0.614        0.153       92.753       16.837        0.033      337.162        8.950      867.797
12/04/2021  11:23:00       48.153      -84.618      -29.367       34.117       44.752       25.258     1163.996     2002.727      637.968        0.707        0.190       97.360       19.635        0.041      337.347        9.260      867.784
12/04/2021  11:24:00       12.148      -48.684      -35.457       36.598       29.955       23.954     1339.437      897.288      573.779        0.329        0.141       50.177       11.249        0.050      337.539        9.581      867.766
12/04/2021  11:25:00       23.262      -65.611      -30.598       47.007       45.652       26.626     2209.658     2084.129      708.925        0.539        0.250       69.613        4.929        0.005      337.486        9.493      867.758
12/04/2021  11:26:00       59.033      -40.603      -19.860       41.526       50.587       24.820     1724.442     2559.023      616.048        0.521        0.245       71.649       18.483        0.067      337.273        9.135      867.760
12/04/2021  11:27:00       68.256       35.668      -12.471       41.062       55.157       27.810     1686.102     3042.335      773.411        0.579        0.275       77.014       17.568        0.052      337.177        8.977      867.768
12/04/2021  11:28:00       63.965       61.729       -9.534       26.345       21.195       20.043      694.070      449.213      401.730        0.477        0.077       88.893       12.208        0.019      337.220        9.047      867.760
12/04/2021  11:29:00       58.370       28.573       -7.105       44.126       45.982       27.125     1947.121     2114.390      735.758        0.453        0.240       64.988       13.048        0.040      337.535        9.576      867.747
12/04/2021  11:30:00       66.348      -19.783      -27.915       47.298       40.064       32.438     2237.085     1605.118     1052.200        0.523        0.245       69.235       20.636        0.089      337.709        9.867      867.734
12/04/2021  11:31:00       62.742       57.527      -17.391       35.078       44.393       32.852     1230.493     1970.742     1079.252        0.591        0.214       85.123       24.145        0.080      337.556        9.610      867.729
12/04/2021  11:32:00       75.729       53.705      -13.917       35.828       57.230       31.054     1283.634     3275.309      964.381        0.717        0.276       92.840       14.621        0.025      337.636        9.744      867.732
12/04/2021  11:33:00       52.853       70.572      -14.857       33.009       20.951       23.132     1089.611      438.935      535.074        0.503        0.103       88.169       18.255        0.043      337.367        9.292      867.729
12/04/2021  11:34:00       53.973       36.578      -11.267       33.336       46.718       26.522     1111.289     2182.541      703.414        0.419        0.200       65.200       24.430        0.140      337.536        9.577      867.712
12/04/2021  11:35:00      110.986      -34.460      -19.688       28.618       24.766       25.974      818.969      613.340      674.663        0.800        0.105      116.213        9.295        0.006      337.292        9.169      867.692
12/04/2021  11:36:00       71.774       -7.140      -16.704       33.930       34.119       20.241     1151.256     1164.112      409.707        0.410        0.136       72.128       17.483        0.059      337.593        9.672      867.673
12/04/2021  11:37:00       32.848      -27.850      -12.358       36.159       55.696       31.319     1307.477     3102.016      980.856        0.370        0.270       43.065       24.164        0.315      337.738        9.914      867.657
12/04/2021  11:38:00       54.994     -128.520      -24.850       54.070       69.698       42.963     2923.545     4857.773     1845.784        1.489        0.481      139.792       40.251        0.083      337.712        9.871      867.643
12/04/2021  11:39:00       59.828     -154.775      -35.920       30.838       25.920       21.325      950.956      671.824      454.772        1.545        0.104      165.936       12.501        0.006      337.373        9.302      867.629
12/04/2021  11:40:00       34.335      -77.698      -28.085       31.887       30.986       21.322     1016.785      960.112      454.641        0.522        0.122       84.946       16.487        0.038      337.383        9.319      867.631
12/04/2021  11:41:00      -25.265      -15.589        8.387       34.051       40.383       22.996     1159.472     1630.826      528.826        0.213        0.166       29.687       16.829        0.321      337.899       10.186      867.627
12/04/2021  11:42:00       30.296       46.665       -7.178       47.348       29.391       24.411     2241.845      863.822      595.919        0.342        0.185       55.637       20.192        0.132      337.928       10.233      867.616
12/04/2021  11:43:00       65.209       69.942      -17.475       27.438       29.415       17.073      752.858      865.269      291.488        0.568        0.095       95.625        5.885        0.004      337.665        9.792      867.612
12/04/2021  11:44:00       88.067       60.117      -16.595       27.280       19.190       14.827      744.176      368.268      219.849        0.649        0.067      106.630        6.876        0.004      337.632        9.738      867.603
12/04/2021  11:45:00       50.339       60.350       -4.471       28.414       25.219       20.374      807.364      635.997      415.111        0.403        0.093       78.588       15.948        0.041      337.741        9.920      867.594
12/04/2021  11:46:00       20.592       30.456       -7.757       33.350       18.904       18.293     1112.210      357.376      334.646        0.161        0.090       36.764        3.984        0.012      337.801       10.021      867.577
12/04/2021  11:47:00      -11.784        2.046      -20.309       35.075       28.374       20.166     1230.271      805.075      406.665        0.150        0.122       11.960       16.479        1.898      338.076       10.481      867.560
12/04/2021  11:48:00       -6.365       16.469      -15.572       24.006       14.685       14.365      576.310      215.649      206.356        0.078        0.050       17.657        5.088        0.083      338.083       10.494      867.543
12/04/2021  11:49:00        2.758       48.945       -4.641       32.552       38.448       17.441     1059.623     1478.259      304.201        0.263        0.142       49.022       16.234        0.110      338.140       10.589      867.525
12/04/2021  11:50:00      -18.070       74.332      -10.537       33.052       23.510       25.067     1092.462      552.712      628.369        0.412        0.114       76.497       21.317        0.078      338.056       10.447      867.493
12/04/2021  11:51:00      -47.624       29.571      -13.141       28.321       29.626       19.109      802.070      877.689      365.170        0.268        0.102       56.058        6.717        0.014      338.406       11.037      867.470
12/04/2021  11:52:00      -18.042      -29.933      -17.291       23.632       27.744       22.774      558.449      769.709      518.671        0.168        0.092       34.950       10.194        0.085      338.349       10.940      867.441
12/04/2021  11:53:00      -22.380      -86.532      -36.446       45.568       46.010       31.575     2076.407     2116.887      996.978        0.725        0.260       89.379       28.926        0.105      338.067       10.468      867.422
12/04/2021  11:54:00      -34.430      -18.909      -11.443       33.409       33.140       21.044     1116.140     1098.241      442.834        0.217        0.133       39.280       14.315        0.133      338.213       10.712      867.392
12/04/2021  11:55:00      -32.424        6.290        3.877       36.432       22.923       19.623     1327.305      525.449      385.059        0.167        0.112       33.028        7.988        0.058      338.265       10.799      867.366
12/04/2021  11:56:00       94.980      -65.823      -20.231       38.313       29.769       24.573     1467.914      886.174      603.811        0.836        0.148      115.559       24.045        0.043      337.862       10.123      867.343
12/04/2021  11:57:00       52.793      -50.073      -16.934       32.799       38.375       26.285     1075.801     1472.607      690.896        0.441        0.162       72.762       23.532        0.105      337.891       10.171      867.321
12/04/2021  11:58:00        9.868      -63.410      -29.221       25.536       28.257       22.889      652.099      798.441      523.923        0.347        0.099       64.173       12.890        0.040      337.881       10.155      867.305
12/04/2021  11:59:00       23.671      -36.354       -8.360       24.110       34.752       25.443      581.275     1207.730      647.345        0.219        0.122       43.381       20.224        0.217      338.312       10.879      867.293
12/04/2021  12:00:00       72.076      -88.219      -37.322       33.240       42.247       26.230     1104.913     1784.801      688.012        0.897        0.179      113.919       16.462        0.021      337.873       10.142      867.277
12/04/2021  12:01:00       26.729      -37.946      -13.281       36.937       36.906       36.054     1364.338     1362.035     1299.866        0.318        0.201       46.415       25.561        0.303      338.274       10.815      867.268
12/04/2021  12:02:00       -9.462      -34.911      -14.876       38.237       44.021       24.903     1462.036     1937.837      620.135        0.277        0.201       36.171       20.524        0.322      338.367       10.971      867.253
12/04/2021  12:03:00      -51.659      -20.767       -2.691       33.171       21.432       29.305     1100.331      459.320      858.769        0.276        0.121       55.677       20.149        0.131      338.532       11.247      867.235
12/04/2021  12:04:00      -23.018      -44.936        1.317       41.488       52.391       27.361     1721.264     2744.784      748.643        0.388        0.261       50.488       21.414        0.180      338.486       11.170      867.216
12/04/2021  12:05:00        4.264      -48.880      -14.279       28.498       47.550       29.179      812.115     2261.000      851.422        0.327        0.196       49.066       25.095        0.262      338.698       11.527      867.207
12/04/2021  12:06:00       25.611      -81.102      -25.343       51.816       40.056       34.080     2684.883     1604.458     1161.467        0.666        0.273       85.049       12.702        0.022      338.290       10.841      867.188
12/04/2021  12:07:00      -13.707      -76.134      -12.137       41.940       23.672       30.101     1758.966      560.358      906.050        0.468        0.161       77.358       27.980        0.131      338.168       10.636      867.183
12/04/2021  12:08:00      -16.642       -6.536       -5.298       25.244       29.407       12.981      637.265      864.782      168.493        0.101        0.084       17.880       11.583        0.420      338.426       11.069      867.173
12/04/2021  12:09:00       -2.221      -12.417      -12.151       14.296       16.630       16.223      204.385      276.559      263.174        0.053        0.037       12.614       12.700        1.014      338.701       11.531      867.163
12/04/2021  12:10:00      -12.236       -0.790      -11.756       22.687       16.386       12.968      514.694      268.500      168.163        0.062        0.048       12.262        3.096        0.064      338.540       11.260      867.154
12/04/2021  12:11:00       -1.652       -0.845       -3.439       14.286       14.481       13.563      204.080      209.692      183.950        0.031        0.030        1.856        8.799       22.482      338.862       11.803      867.148
12/04/2021  12:12:00       15.181      -22.162       -0.935       41.056       53.220       27.824     1685.566     2832.402      774.179        0.301        0.265       26.863       30.461        1.286      338.755       11.622      867.141
12/04/2021  12:13:00       54.342     -113.223      -20.754       53.918       34.657       30.588     2907.125     1201.086      935.623        1.062        0.252      125.589       25.696        0.042      338.388       11.004      867.118
12/04/2021  12:14:00       37.726      -54.436      -31.873       42.407       24.222       22.100     1798.356      586.713      488.400        0.414        0.144       66.231       10.222        0.024      338.471       11.146      867.109
12/04/2021  12:15:00       10.705      -77.530      -28.690       40.400       29.878       31.274     1632.142      892.667      978.069        0.523        0.175       78.265       13.793        0.031      338.652       11.449      867.102
12/04/2021  12:16:00       20.435      -10.645       -4.929       19.948       25.680       18.810      397.942      659.439      353.831        0.098        0.071       23.041       15.675        0.463      338.721       11.565      867.098
12/04/2021  12:17:00      -10.628       18.030        8.684       22.743       27.047       17.983      517.243      731.554      323.378        0.104        0.079       20.929       12.290        0.345      338.909       11.882      867.096
12/04/2021  12:18:00      -29.884       -0.317       -3.408       30.553       19.168       21.538      933.488      367.410      463.886        0.133        0.088       29.886       13.911        0.217      338.804       11.704      867.077
12/04/2021  12:19:00      -24.544       -8.030       -7.504       32.840       24.244       23.783     1078.490      587.773      565.634        0.148        0.112       25.824       13.319        0.266      338.795       11.689      867.083
12/04/2021  12:20:00        5.415        0.774       -2.425       28.178       24.201       19.994      794.010      585.690      399.750        0.091        0.089        5.470        9.939        3.301      338.936       11.925      867.085
12/04/2021  12:21:00       21.239        3.809       -6.137       32.994       30.634       21.952     1088.583      938.432      481.911        0.151        0.125       21.578       17.439        0.653      338.916       11.892      867.085
12/04/2021  12:22:00       -4.322      -35.073      -14.369       45.490       40.050       41.939     2069.354     1603.999     1758.859        0.344        0.272       35.338       26.288        0.553      338.967       11.979      867.072
12/04/2021  12:23:00      -20.919      -62.284      -21.792       57.021       45.118       37.907     3251.440     2035.593     1436.941        0.576        0.336       65.703       22.539        0.118      338.915       11.891      867.055
12/04/2021  12:24:00        4.500      -70.940      -46.587       51.415       45.240       30.513     2643.532     2046.640      931.073        0.642        0.281       71.083       24.095        0.115      338.896       11.859      867.042
12/04/2021  12:25:00      -64.304      -51.522      -40.439       38.853       36.020       25.732     1509.524     1297.405      662.123        0.595        0.173       82.399       11.607        0.020      338.877       11.827      867.030
12/04/2021  12:26:00      -27.630       13.302       -3.659       31.915       18.567       20.677     1018.569      344.736      427.520        0.137        0.090       30.666       16.272        0.282      338.956       11.959      867.008
12/04/2021  12:27:00      -28.832       12.013      -18.502       19.589       32.082       26.800      383.729     1029.277      718.261        0.172        0.107       31.234       12.873        0.170      338.829       11.745      867.002
12/04/2021  12:28:00      -17.978       20.982       -7.078       14.330       20.511       17.459      205.361      420.682      304.805        0.087        0.047       27.630       11.538        0.174      338.957       11.961      866.992
12/04/2021  12:29:00       14.681       21.835      -16.660       27.386       26.238       23.550      750.011      688.448      554.588        0.148        0.100       26.312       19.331        0.540      338.961       11.966      866.981
12/04/2021  12:30:00        4.218       67.915       -6.102       18.459       22.689       17.954      340.717      514.813      322.349        0.292        0.059       68.046       14.161        0.043      338.713       11.551      866.977
12/04/2021  12:31:00       16.416       60.037      -10.860       26.504       25.262       19.774      702.464      638.152      391.003        0.286        0.087       62.241       10.780        0.030      338.750       11.613      866.968
12/04/2021  12:32:00       37.613       47.809       -3.105       22.911       24.519       20.728      524.933      601.160      429.640        0.263        0.078       60.831       13.134        0.047      338.791       11.683      866.968
12/04/2021  12:33:00       41.862       53.130      -14.188       18.027       22.499       14.143      324.984      506.186      200.023        0.290        0.052       67.640        8.018        0.014      338.812       11.718      866.969
12/04/2021  12:34:00       48.626       62.000       -3.558       24.412       13.641       16.867      595.948      186.084      284.501        0.364        0.053       78.794       12.037        0.023      338.908       11.879      866.973
12/04/2021  12:35:00       62.747       59.176        0.334       55.058       43.794       25.288     3031.421     1917.893      639.496        0.651        0.279       86.249       21.006        0.059      339.014       12.058      866.970
12/04/2021  12:36:00      -16.653      -31.836      -12.279       22.670       38.858       21.045      513.922     1509.917      442.872        0.195        0.123       35.929       16.780        0.218      338.782       11.667      866.969
12/04/2021  12:37:00       33.727        8.085      -18.515       29.600       32.504       29.162      876.185     1056.521      850.430        0.216        0.139       34.683       21.926        0.400      339.018       12.065      866.956
12/04/2021  12:38:00       71.353       22.644      -18.263       28.689       22.860       19.559      823.053      522.573      382.563        0.383        0.086       74.860       14.872        0.039      338.898       11.861      866.948
12/04/2021  12:39:00       41.902       33.865      -18.763       25.537       19.882       18.443      652.159      395.286      340.137        0.232        0.069       53.876       12.014        0.050      338.895       11.856      866.937
12/04/2021  12:40:00       24.901       22.354      -16.004       29.280       16.443       13.076      857.346      270.363      170.983        0.134        0.065       33.463        9.203        0.076      339.228       12.417      866.935
12/04/2021  12:41:00       -3.914      -22.119      -15.620       45.752       52.656       25.961     2093.253     2772.645      673.995        0.314        0.277       22.463       16.848        0.563      339.264       12.478      866.935
12/04/2021  12:42:00       51.443     -100.689      -27.086       38.570       31.726       31.847     1487.676     1006.528     1014.228        0.851        0.175      113.069       11.636        0.011      338.811       11.714      866.913
12/04/2021  12:43:00       21.289      -40.750      -12.751       36.913       43.022       37.141     1362.606     1850.887     1379.464        0.343        0.230       45.976       31.476        0.469      339.059       12.134      866.914
12/04/2021  12:44:00       -1.979       28.212      -21.038       44.117       30.785       17.857     1946.303      947.736      318.876        0.223        0.161       28.281       21.668        0.587      339.210       12.387      866.906
12/04/2021  12:45:00      -11.581       13.016      -22.620       37.896       31.716       30.438     1436.126     1005.891      926.501        0.209        0.168       17.423       16.864        0.937      339.492       12.860      866.892
12/04/2021  12:46:00       19.576      -27.718      -21.053       37.343       46.047       34.310     1394.483     2120.369     1177.196        0.314        0.235       33.934       23.399        0.475      339.323       12.578      866.885
12/04/2021  12:47:00       78.134     -135.179      -41.729       33.441       38.456       20.819     1118.273     1478.875      433.446        1.457        0.152      156.136       14.150        0.008      339.062       12.137      866.879
12/04/2021  12:48:00       91.677      -79.444      -27.896       32.188       32.599       26.304     1036.084     1062.688      691.913        0.914        0.140      121.309       16.357        0.018      339.031       12.086      866.874
12/04/2021  12:49:00       43.305      -52.414       -9.698       32.458       35.575       23.314     1053.510     1265.586      543.541        0.379        0.143       67.989       17.690        0.068      339.173       12.325      866.884
12/04/2021  12:50:00       44.522      -60.189      -19.291       51.409       48.815       30.186     2642.847     2382.874      911.170        0.596        0.297       74.867       32.815        0.192      339.425       12.749      866.885
12/04/2021  12:51:00       25.125      -34.032      -23.039       30.598       60.306       27.081      936.241     3636.847      733.359        0.381        0.265       42.302        5.872        0.019      339.476       12.835      866.885
12/04/2021  12:52:00       41.390      -52.417      -12.840       33.576       44.189       25.239     1127.375     1952.698      637.028        0.417        0.186       66.789       16.877        0.064      339.137       12.265      866.880
12/04/2021  12:53:00       -8.897       12.871       -8.444       46.416       37.092       17.663     2154.405     1375.783      311.993        0.208        0.192       15.647       18.656        1.422      339.393       12.694      866.873
12/04/2021  12:54:00      -46.638        9.884       -7.430       42.834       26.823       21.171     1834.748      719.449      448.213        0.266        0.150       47.674       15.517        0.106      339.661       13.147      866.852
12/04/2021  12:55:00      -14.390      -36.570      -27.823       38.992       30.950       25.419     1520.369      957.895      646.135        0.272        0.156       39.299       13.275        0.114      339.470       12.825      866.834
12/04/2021  12:56:00      -52.708      -14.424       -5.941       23.793       25.125       21.751      566.094      631.247      473.119        0.235        0.084       54.646       10.395        0.036      339.470       12.825      866.822
12/04/2021  12:57:00     -105.666      -32.187      -21.499       36.794       32.865       30.034     1353.771     1080.103      902.029        0.800        0.167      110.460       23.459        0.045      339.415       12.732      866.808
12/04/2021  12:58:00      -15.654      -25.204        3.151       36.307       32.967       30.008     1318.209     1086.796      900.452        0.210        0.165       29.670       11.382        0.147      339.700       13.212      866.784
12/04/2021  12:59:00      -44.387       -2.151       -7.645       39.025       33.237       27.456     1522.975     1104.686      753.819        0.271        0.169       44.439       19.990        0.202      339.610       13.061      866.774
12/04/2021  13:00:00      -90.586       -1.115       -5.125       60.534       30.645       28.995     3664.317      939.102      840.736        0.684        0.272       90.593       26.778        0.087      339.484       12.850      866.759
12/04/2021  13:01:00      -54.565      -18.497        2.477       57.087       46.225       30.872     3258.929     2136.754      953.072        0.484        0.317       57.615       38.098        0.437      339.833       13.437      866.748
12/04/2021  13:02:00     -102.932      -54.375      -23.996       24.775       39.987       22.060      613.806     1598.929      486.652        0.841        0.135      116.412       15.070        0.017      339.217       12.398      866.739
12/04/2021  13:03:00     -115.759      -10.018       -9.242       42.108       31.871       27.604     1773.064     1015.755      762.006        0.857        0.178      116.192       22.498        0.037      339.386       12.683      866.730
12/04/2021  13:04:00      -41.807      -35.130      -12.561       48.765       34.165       24.811     2378.050     1167.230      615.593        0.365        0.208       54.608       18.430        0.114      339.676       13.173      866.721
12/04/2021  13:05:00        8.126      -96.385      -16.741       62.806       68.891       32.087     3944.625     4745.946     1029.567        0.968        0.486       96.727       35.440        0.134      339.650       13.129      866.726
12/04/2021  13:06:00       93.710     -138.581      -38.844       27.033       43.866       24.418      730.757     1924.218      596.236        1.637        0.163      167.291       22.066        0.017      339.198       12.367      866.714
12/04/2021  13:07:00       76.148     -110.550      -24.367       44.354       46.019       29.103     1967.245     2117.717      846.965        1.177        0.247      134.238       29.021        0.047      339.484       12.848      866.705
12/04/2021  13:08:00       21.996      -42.210      -16.882       53.999       41.684       33.680     2915.857     1737.534     1134.340        0.417        0.289       47.598       17.306        0.132      339.834       13.438      866.696
12/04/2021  13:09:00       99.087     -154.485      -35.529       40.173       56.379       28.218     1613.860     3178.573      796.264        2.027        0.279      183.531       25.685        0.020      339.457       12.802      866.691
12/04/2021  13:10:00       75.389      -45.335      -12.511       29.696       50.962       28.527      881.830     2597.083      813.781        0.609        0.215       87.970       28.049        0.102      339.496       12.869      866.691
12/04/2021  13:11:00       24.624        8.382      -17.983       47.508       35.331       17.999     2257.012     1248.270      323.955        0.241        0.191       26.012       18.069        0.483      339.595       13.035      866.695
12/04/2021  13:12:00      -17.882      -21.231      -22.476       39.187       31.519       21.147     1535.647      993.456      447.213        0.213        0.149       27.758       10.308        0.138      339.796       13.374      866.692
12/04/2021  13:13:00      -12.414      -59.473      -24.823       32.807       38.465       27.469     1076.325     1479.558      754.519        0.381        0.166       60.755       23.378        0.148      339.805       13.390      866.681
12/04/2021  13:14:00       35.040      -68.475      -25.327       22.547       43.415       31.880      508.380     1884.840     1016.357        0.498        0.170       76.920       21.489        0.078      339.615       13.070      866.681
12/04/2021  13:15:00       -2.426      -28.081      -13.814       51.939       25.249       32.549     2697.702      637.516     1059.447        0.269        0.220       28.186       22.393        0.631      339.701       13.215      866.685
12/04/2021  13:16:00       -9.423        1.835        6.443       21.515       23.045       22.933      462.881      531.084      525.932        0.083        0.076        9.599        9.921        1.068      339.963       13.657      866.669
12/04/2021  13:17:00      -55.015       33.196      -16.400       20.830       21.662       23.030      433.878      469.256      530.375        0.292        0.072       64.255       14.880        0.054      339.482       12.846      866.676
12/04/2021  13:18:00      -15.164       24.913      -14.967       22.626       19.863       22.919      511.933      394.527      525.274        0.125        0.072       29.165       15.725        0.291      339.688       13.192      866.688
12/04/2021  13:19:00      -27.301        9.781      -21.609       18.367       24.743       13.129      337.365      612.214      172.382        0.121        0.056       29.001        8.056        0.077      339.936       13.609      866.679
12/04/2021  13:20:00      -21.944       -8.607      -13.386       20.445       12.196       12.900      417.995      148.750      166.405        0.073        0.037       23.571        6.727        0.081      340.015       13.744      866.683
12/04/2021  13:21:00      -17.457       -3.121       -0.970       43.804       29.279       18.118     1918.748      857.260      328.246        0.171        0.155       17.734       10.467        0.348      340.098       13.885      866.694
12/04/2021  13:22:00       86.630       -2.498      -16.487       44.019       26.625       26.929     1937.643      708.901      725.175        0.558        0.169       86.666        8.748        0.010      339.612       13.064      866.701
12/04/2021  13:23:00       36.608      -13.574       -5.695       50.072       55.097       42.290     2507.180     3035.731     1788.455        0.444        0.367       39.044       27.846        0.509      340.048       13.800      866.703
12/04/2021  13:24:00       69.946       16.219      -26.510       40.780       61.695       31.167     1663.015     3806.254      971.404        0.615        0.322       71.802       15.781        0.048      339.753       13.302      866.710
12/04/2021  13:25:00       29.108      -11.191       -6.445       38.592       32.316       23.596     1489.368     1044.303      556.768        0.205        0.155       31.185       11.234        0.130      340.018       13.749      866.704
12/04/2021  13:26:00       23.619       -4.010      -15.367       24.304       25.535       18.576      590.709      652.018      345.064        0.120        0.079       23.957       14.340        0.358      339.971       13.670      866.719
12/04/2021  13:27:00        1.226       19.232      -20.131       25.821       24.211       19.363      666.728      586.178      374.908        0.120        0.081       19.271        8.391        0.190      340.003       13.723      866.715
12/04/2021  13:28:00       58.108      -39.569       -7.849       45.322       39.846       30.355     2054.106     1587.736      921.448        0.478        0.228       70.301       23.465        0.111      339.977       13.680      866.708
12/04/2021  13:29:00       72.891      -84.050      -30.601       27.830       30.960       23.609      774.488      958.506      557.406        0.780        0.115      111.254       16.834        0.023      339.716       13.241      866.701
12/04/2021  13:30:00       67.438      -97.151      -21.935       36.488       41.355       28.124     1331.348     1710.244      790.954        0.915        0.192      118.263       23.568        0.040      339.891       13.534      866.694
12/04/2021  13:31:00       48.153      -77.305      -24.784       31.322       45.713       17.424      981.052     2089.703      303.608        0.614        0.169       91.076       13.121        0.021      339.819       13.413      866.694
12/04/2021  13:32:00       19.339      -45.684      -21.492       45.317       66.480       29.622     2053.660     4419.642      877.468        0.514        0.368       49.609       24.917        0.252      340.007       13.729      866.686
12/04/2021  13:33:00       79.993     -125.403      -28.344       26.431       43.882       21.369      698.608     1925.661      456.643        1.300        0.154      148.744       18.240        0.015      339.611       13.062      866.676
12/04/2021  13:34:00       63.776      -71.881      -30.741       34.286       24.613       27.947     1175.530      605.801      781.018        0.637        0.128       96.095       18.433        0.037      339.757       13.309      866.682
12/04/2021  13:35:00        1.720       -1.448      -26.790       25.983       36.546       27.284      675.097     1335.599      744.440        0.174        0.138        2.248       23.038      104.995      339.942       13.620      866.693
12/04/2021  13:36:00       45.040       22.501      -22.004       29.835       24.674       14.051      890.155      608.829      197.440        0.236        0.085       50.348        8.129        0.026      339.991       13.703      866.700
12/04/2021  13:37:00       95.608       32.831      -15.845       46.594       32.486       29.688     2170.959     1055.330      881.406        0.729        0.205      101.088       18.358        0.033      339.798       13.377      866.704
12/04/2021  13:38:00       30.811        6.065       -1.991       23.160       15.683       15.298      536.367      245.954      234.024        0.100        0.051       31.402       15.429        0.241      340.104       13.894      866.707
12/04/2021  13:39:00       14.892       -2.458       -9.430       29.017       26.422       18.127      842.002      698.103      328.601        0.109        0.093       15.094       12.201        0.653      340.122       13.924      866.710
12/04/2021  13:40:00       27.764      -12.630       -5.194       29.522       26.807       20.350      871.563      718.618      414.138        0.148        0.100       30.502       18.883        0.383      340.164       13.994      866.711
12/04/2021  13:41:00       11.096       -0.451        6.296       22.831       19.265       11.942      521.252      371.124      142.606        0.060        0.052       11.105       11.750        1.119      340.483       14.534      866.715
12/04/2021  13:42:00       21.824       23.294       -6.297       24.470       32.036       28.113      598.763     1026.283      790.367        0.174        0.121       31.920       21.586        0.457      340.104       13.895      866.715
12/04/2021  13:43:00        7.664       30.732       -0.161       29.142       21.373       18.994      849.241      456.815      360.773        0.133        0.083       31.674       14.877        0.221      340.228       14.105      866.707
12/04/2021  13:44:00       78.491       60.772      -10.150       33.520       27.723       19.252     1123.606      768.554      370.636        0.611        0.113       99.268       12.069        0.015      339.771       13.332      866.697
12/04/2021  13:45:00       72.542       30.666      -20.325       43.189       63.290       24.677     1865.280     4005.626      608.947        0.655        0.324       78.758       22.899        0.085      340.068       13.833      866.688
12/04/2021  13:46:00       11.082      -12.552      -15.001       32.487       38.940       24.702     1055.393     1516.333      610.209        0.184        0.159       16.744       19.240        1.320      340.336       14.285      866.678
12/04/2021  13:47:00       78.441      -20.233      -18.172       47.182       47.637       31.275     2226.136     2269.245      978.127        0.618        0.274       81.008       19.407        0.057      340.044       13.792      866.663
12/04/2021  13:48:00       63.121      -20.142      -19.869       39.903       43.667       26.056     1592.252     1906.814      678.897        0.448        0.209       66.257       21.809        0.108      339.973       13.672      866.644
12/04/2021  13:49:00       76.010      -42.400      -21.442       42.875       27.554       26.984     1838.223      759.196      728.152        0.568        0.166       87.036       22.678        0.068      339.896       13.544      866.627
12/04/2021  13:50:00       84.909       -8.804      -22.377       52.686       40.603       30.022     2775.764     1648.633      901.293        0.656        0.266       85.364       25.780        0.091      340.023       13.758      866.621
12/04/2021  13:51:00       94.737       28.414      -14.481       55.378       42.233       21.940     3066.685     1783.585      481.350        0.766        0.267       98.906       24.955        0.064      339.835       13.439      866.620
12/04/2021  13:52:00       40.480       23.041       -6.194       39.777       32.922       18.343     1582.239     1083.889      336.448        0.260        0.150       46.578        8.503        0.033      339.992       13.704      866.618
12/04/2021  13:53:00       35.913       -9.194        1.002       44.869       25.330       25.284     2013.188      641.626      639.291        0.233        0.165       37.071       24.057        0.421      340.308       14.239      866.598
12/04/2021  13:54:00       17.794       11.438      -10.111       27.991       29.106       15.616      783.505      847.143      243.854        0.121        0.094       21.153       12.219        0.334      340.164       13.995      866.590
12/04/2021  13:55:00        6.247        7.648       -7.633       23.826       21.981       16.240      567.659      483.154      263.744        0.073        0.066        9.875       10.415        1.112      340.359       14.325      866.569
12/04/2021  13:56:00      -19.525        4.350      -20.440       24.167       16.732       16.711      584.035      279.955      279.270        0.098        0.057       20.004        9.311        0.217      340.707       14.914      866.548
12/04/2021  13:57:00      -20.357      -49.390      -19.623       32.582       38.970       19.906     1061.608     1518.670      396.250        0.311        0.149       53.421       22.385        0.176      340.328       14.272      866.536
12/04/2021  13:58:00       26.975      -46.760      -14.649       26.927       42.851       18.967      725.054     1836.179      359.731        0.302        0.146       53.983       13.213        0.060      340.270       14.173      866.528
12/04/2021  13:59:00        6.583       11.856       -5.700       18.675       28.845       18.003      348.770      832.012      324.101        0.086        0.075       13.561       10.780        0.632      340.449       14.477      866.532
12/04/2021  14:00:00       22.103        5.220       -7.174       15.465       20.722       15.339      239.177      429.393      235.277        0.074        0.045       22.711       10.239        0.203      340.494       14.553      866.539
12/04/2021  14:01:00       36.651       15.235       -6.343       35.073       26.866       17.013     1230.124      721.794      289.453        0.193        0.112       39.691       14.420        0.132      340.301       14.226      866.539
12/04/2021  14:02:00       23.544       21.632       -4.578       37.822       34.629       20.836     1430.481     1199.171      434.128        0.205        0.153       31.973       14.191        0.197      340.331       14.278      866.545
12/04/2021  14:03:00       36.309       15.758      -10.364       27.457       39.269       24.734      753.894     1542.067      611.794        0.229        0.145       39.581       12.376        0.098      340.360       14.327      866.546
12/04/2021  14:04:00       50.346       -5.376       -8.863       37.410       52.215       30.182     1399.511     2726.408      910.947        0.384        0.252       50.632       25.313        0.250      340.295       14.216      866.551
12/04/2021  14:05:00        2.698      -62.510      -11.843       51.456       57.164       32.297     2647.754     3267.740     1043.079        0.551        0.348       62.568       33.188        0.281      340.466       14.506      866.538
12/04/2021  14:06:00       50.469      -47.353      -21.700       49.515       37.039       25.437     2451.740     1371.914      647.025        0.486        0.224       69.206       20.158        0.085      340.390       14.376      866.545
12/04/2021  14:07:00       83.502       -0.212      -22.437       23.121       28.246       15.858      534.591      797.824      251.484        0.453        0.079       83.503       12.506        0.022      340.083       13.858      866.546
12/04/2021  14:08:00      130.689       51.779      -14.646       27.806       37.896       19.465      773.190     1436.099      378.899        1.128        0.129      140.573       14.092        0.010      340.147       13.967      866.541
12/04/2021  14:09:00       70.756       56.001       -9.624       42.488       19.721       19.981     1805.241      388.927      399.243        0.541        0.130       90.237       21.417        0.056      340.195       14.049      866.542
12/04/2021  14:10:00       40.581       33.905       -1.562       33.359       21.236       29.080     1112.849      450.970      845.649        0.260        0.120       52.881       22.618        0.183      340.210       14.073      866.542
12/04/2021  14:11:00       20.786       17.057      -14.035       22.864       16.083       12.171      522.749      258.661      148.136        0.092        0.046       26.889        8.401        0.098      340.432       14.447      866.547
12/04/2021  14:12:00       40.543       24.259      -10.264       27.027       15.332       17.659      730.478      235.058      311.827        0.181        0.064       47.246       12.388        0.069      340.338       14.290      866.535
12/04/2021  14:13:00       25.401       -3.877       -7.472       21.881       20.829       19.725      478.790      433.862      389.065        0.101        0.065       25.695       10.476        0.166      340.497       14.559      866.530
12/04/2021  14:14:00        6.724       12.987       -9.992       17.630       20.216       16.594      310.834      408.667      275.350        0.065        0.050       14.625       13.778        0.888      340.699       14.901      866.531
12/04/2021  14:15:00      -21.049       47.989        4.296       35.507       30.498       25.207     1260.743      930.119      635.398        0.279        0.141       52.403       23.991        0.210      340.765       15.011      866.538
12/04/2021  14:16:00       -2.027       17.063        3.627       43.580       31.920       24.884     1899.200     1018.857      619.221        0.192        0.177       17.183       23.700        1.902      340.753       14.990      866.542
12/04/2021  14:17:00      -61.532      -11.708       -2.994       39.680       35.148       23.432     1574.515     1235.399      549.076        0.365        0.168       62.636       17.427        0.077      340.599       14.730      866.552
12/04/2021  14:18:00      -13.382      -21.340       -2.050       20.649       23.280       17.545      426.371      541.955      307.823        0.096        0.064       25.188       14.004        0.309      340.713       14.923      866.549
12/04/2021  14:19:00      -40.692       31.600      -12.136       21.622       17.166       15.952      467.530      294.679      254.458        0.191        0.051       51.521       10.327        0.040      340.479       14.528      866.549
12/04/2021  14:20:00      -26.425       -1.575       -2.388       30.106       24.894       19.556      906.364      619.691      382.449        0.131        0.095       26.472       19.118        0.522      340.775       15.028      866.555
12/04/2021  14:21:00       35.173       32.832      -16.375       41.035       31.652       19.727     1683.856     1001.842      389.156        0.283        0.154       48.115       17.023        0.125      340.514       14.588      866.563
12/04/2021  14:22:00       29.635      -18.317      -15.431       33.739       40.241       24.427     1138.332     1619.331      596.693        0.240        0.168       34.839       14.252        0.167      340.638       14.797      866.568
12/04/2021  14:23:00      -10.741       -9.359      -15.209       49.158       26.395       21.713     2416.494      696.681      471.451        0.201        0.179       14.246       18.428        1.673      340.574       14.688      866.567
12/04/2021  14:24:00        5.759       -0.199       -5.148       20.145       14.937       16.019      405.828      223.120      256.594        0.047        0.044        5.763       10.082        3.061      340.767       15.015      866.572
12/04/2021  14:25:00      -34.384       15.232       -4.955       15.038       13.206       15.860      226.151      174.396      251.532        0.105        0.033       37.606        7.793        0.043      340.537       14.626      866.570
12/04/2021  14:26:00       -8.183      -21.396       -2.955       18.255       29.749       23.830      333.263      884.996      567.847        0.116        0.089       22.907       14.043        0.376      340.798       15.068      866.580
12/04/2021  14:27:00      -15.447      -37.930      -10.485       41.320       22.269       21.111     1707.303      495.913      445.660        0.222        0.132       40.955        8.242        0.041      340.666       14.845      866.591
12/04/2021  14:28:00      -63.715       -1.850      -14.138       25.146       26.356       19.080      632.297      694.620      364.034        0.298        0.085       63.742       14.456        0.051      340.506       14.574      866.593
12/04/2021  14:29:00       -9.943       -5.924       -9.600       25.824       29.497       20.496      666.887      870.060      420.067        0.109        0.098       11.574       14.949        1.668      340.791       15.054      866.603
12/04/2021  14:30:00       31.257      -24.420       -2.560       31.220       27.687       22.749      974.686      766.543      517.500        0.192        0.113       39.665       17.951        0.205      340.731       14.955      866.610
12/04/2021  14:31:00       41.556      -37.288      -10.343       24.579       24.424       23.558      604.110      596.511      554.958        0.249        0.088       55.833       20.995        0.141      340.595       14.724      866.613
12/04/2021  14:32:00       30.677      -29.508       -3.744       32.231       21.456       23.086     1038.817      460.358      532.975        0.193        0.102       42.565       19.817        0.217      340.696       14.895      866.610
12/04/2021  14:33:00       -0.815      -22.270       -8.615       16.487       16.518       11.435      271.819      272.833      130.764        0.062        0.034       22.285        6.362        0.082      340.800       15.070      866.607
12/04/2021  14:34:00       -2.857      -39.377      -17.227       20.417       24.104       15.728      416.866      580.995      247.383        0.155        0.062       39.481       10.406        0.069      340.727       14.949      866.607
12/04/2021  14:35:00       21.335      -36.244       -2.631       25.485       29.265       21.566      649.462      856.466      465.072        0.187        0.099       42.057       15.385        0.134      340.808       15.085      866.606
12/04/2021  14:36:00      -23.741      -14.138      -11.761       27.984       13.096       14.681      783.110      171.493      215.542        0.104        0.059       27.632        3.898        0.020      340.739       14.968      866.595
12/04/2021  14:37:00       12.829      -28.671      -13.629       18.958       17.062       19.497      359.414      291.102      380.137        0.110        0.052       31.411        8.113        0.067      340.821       15.106      866.582
12/04/2021  14:38:00       16.083      -32.669      -11.769       15.187       24.218       26.889      230.634      586.516      723.027        0.150        0.077       36.413       19.087        0.275      341.045       15.487      866.570
12/04/2021  14:39:00       22.958       -4.624       -6.370       24.051       19.692       20.548      578.473      387.776      422.222        0.099        0.069       23.419       12.962        0.306      340.756       14.997      866.549
12/04/2021  14:40:00       40.962      -43.038       -7.566       28.057       24.869       24.690      787.190      618.446      609.609        0.280        0.101       59.415       13.926        0.055      340.806       15.081      866.548
12/04/2021  14:41:00        0.771      -44.153      -17.167       44.620       26.725       20.979     1990.912      714.238      440.138        0.269        0.157       44.160       13.147        0.089      340.827       15.116      866.546
12/04/2021  14:42:00        3.222      -30.133      -16.331       47.717       29.553       22.315     2276.925      873.354      497.940        0.242        0.182       30.305        7.867        0.067      340.845       15.147      866.555
12/04/2021  14:43:00       37.618      -49.778      -20.303       23.407       38.421       18.594      547.901     1476.197      345.723        0.334        0.118       62.393       14.106        0.051      340.741       14.972      866.559
12/04/2021  14:44:00       18.230      -11.972       -2.875       29.217       29.472       16.804      853.646      868.597      282.361        0.124        0.100       21.810       17.268        0.627      340.908       15.253      866.555
12/04/2021  14:45:00       -2.459      -42.330       -1.834       28.942       28.154       17.017      837.615      792.636      289.579        0.186        0.096       42.401       16.735        0.156      340.988       15.391      866.562
12/04/2021  14:46:00        6.546      -46.003      -25.821       29.487       26.775       22.842      869.504      716.895      521.747        0.247        0.105       46.466        8.424        0.033      340.801       15.074      866.568
12/04/2021  14:47:00       -1.981      -25.610       -9.531       18.835       26.805       18.397      354.767      718.499      338.461        0.108        0.071       25.686        8.077        0.099      341.007       15.420      866.575
12/04/2021  14:48:00       18.188      -11.815      -16.895       10.610       17.029       15.619      112.567      289.989      243.939        0.070        0.032       21.689        5.567        0.066      340.930       15.291      866.580
12/04/2021  14:49:00      -17.473       -1.136      -15.280       18.512       18.577       12.703      342.684      345.088      161.374        0.069        0.042       17.510       13.205        0.569      340.899       15.238      866.583
12/04/2021  14:50:00        3.509        2.241       -1.948       17.754       12.068       13.833      315.188      145.628      191.365        0.034        0.033        4.164       11.191        7.224      341.126       15.624      866.587
12/04/2021  14:51:00       18.838      -15.117       -7.115       19.487       21.019       18.597      379.762      441.795      345.858        0.090        0.058       24.153       12.269        0.258      340.860       15.172      866.599
12/04/2021  14:52:00       21.698      -48.621      -16.814       37.997       31.590       22.170     1443.744      997.914      491.526        0.302        0.147       53.243       19.174        0.130      340.973       15.363      866.602
12/04/2021  14:53:00       20.001      -47.662       -9.827       37.319       39.599       25.045     1392.673     1568.056      627.246        0.318        0.179       51.689       27.682        0.287      340.990       15.393      866.612
12/04/2021  14:54:00       -8.077      -12.385       -5.740       14.136       22.363       23.884      199.821      500.109      570.439        0.076        0.064       14.786       13.965        0.892      341.058       15.508      866.618
12/04/2021  14:55:00      -17.194       -4.364       -3.913       22.108       13.104       11.046      488.756      171.714      122.008        0.056        0.039       17.739        5.979        0.114      341.063       15.517      866.621
12/04/2021  14:56:00        2.957       -4.232        1.183       15.528       15.299       10.657      241.109      234.050      113.572        0.031        0.029        5.163        6.710        1.689      341.262       15.853      866.621
12/04/2021  14:57:00      -34.788      -16.448       -9.923       35.357       16.902       15.658     1250.100      285.685      245.164        0.168        0.089       38.481       14.092        0.134      340.952       15.328      866.621
12/04/2021  14:58:00        2.603      -18.544       -4.891       19.454       29.509       20.913      378.443      870.776      437.361        0.103        0.084       18.726       12.280        0.430      341.036       15.470      866.627
12/04/2021  14:59:00       32.895      -41.672      -17.946       23.525       47.385       21.234      553.446     2245.333      450.894        0.319        0.162       53.091       19.011        0.128      340.932       15.294      866.625
12/04/2021  15:00:00      -11.514      -14.633       -6.949       16.286       22.442       14.218      265.239      503.658      202.150        0.068        0.049       18.620        3.858        0.043      341.046       15.486      866.637
12/04/2021  15:01:00       13.655      -66.465       -7.618       32.186       41.326       21.811     1035.918     1707.843      475.714        0.394        0.161       67.853       10.589        0.024      340.974       15.366      866.641
12/04/2021  15:02:00       12.552      -53.256      -10.220       18.164       27.805       16.181      329.934      773.142      261.841        0.223        0.068       54.716        8.061        0.022      340.926       15.285      866.651
12/04/2021  15:03:00       20.786      -20.822        0.193       16.586       25.327       13.509      275.082      641.462      182.506        0.098        0.055       29.421        9.193        0.098      340.951       15.326      866.669
12/04/2021  15:04:00        6.775      -28.355      -13.819       14.472       17.811       13.851      209.431      317.238      191.855        0.088        0.036       29.153        7.633        0.069      340.942       15.312      866.683
12/04/2021  15:05:00       -1.575      -15.249       -9.778       23.969       25.863       14.896      574.497      668.876      221.883        0.090        0.073       15.330       11.231        0.537      340.958       15.338      866.696
12/04/2021  15:06:00        3.287      -26.946       -9.486       23.475       31.601       26.374      551.056      998.594      695.607        0.154        0.112       27.146       16.973        0.391      341.049       15.493      866.714
12/04/2021  15:07:00      -23.288       16.105      -11.024       14.709       24.854       15.863      216.354      617.729      251.636        0.100        0.054       28.314       15.885        0.315      340.993       15.399      866.735
12/04/2021  15:08:00       -0.063       -7.363        2.826        4.160       10.335        9.065       17.302      106.805       82.179        0.013        0.010        7.364        4.132        0.315      341.317       15.946      866.742
12/04/2021  15:09:00       -3.392       -2.919       -6.216       15.852       17.905       11.287      251.276      320.578      127.402        0.038        0.035        4.475        5.905        1.741      341.022       15.446      866.758
12/04/2021  15:10:00       46.061       -4.597      -11.199       34.004       35.949       23.390     1156.241     1292.308      547.078        0.263        0.150       46.289       18.255        0.156      340.836       15.132      866.763
12/04/2021  15:11:00       75.616       -2.074       -8.232       32.885       19.580       15.295     1081.406      383.374      233.934        0.374        0.085       75.645       12.294        0.026      340.748       14.983      866.770
12/04/2021  15:12:00       19.609       -9.583      -11.773       35.977       37.363       30.454     1294.346     1396.001      927.423        0.212        0.181       21.825       22.162        1.031      340.865       15.182      866.778
12/04/2021  15:13:00       37.378       10.680       -6.010       41.779       41.272       31.959     1745.452     1703.371     1021.366        0.301        0.224       38.874       22.819        0.345      340.831       15.123      866.796
12/04/2021  15:14:00       92.523      -15.208      -11.374       26.967       19.249       12.421      727.227      370.527      154.287        0.509        0.063       93.765        9.647        0.011      340.680       14.866      866.816
12/04/2021  15:15:00       30.649      -25.280       -7.578       36.735       26.920       25.928     1349.466      724.712      672.283        0.219        0.137       39.729       20.325        0.262      340.868       15.186      866.818
12/04/2021  15:16:00      109.095      -46.909       -7.353       25.676       20.277       17.472      659.282      411.144      305.279        0.777        0.069      118.753        9.092        0.006      340.764       15.009      866.825
12/04/2021  15:17:00       46.424      -25.024      -19.183       43.992       45.194       27.613     1935.297     2042.460      762.466        0.394        0.237       52.739       20.871        0.157      340.930       15.291      866.818
12/04/2021  15:18:00       25.781       11.249       -6.456       35.952       39.958       27.183     1292.578     1596.629      738.909        0.223        0.181       28.128       21.166        0.566      340.949       15.323      866.830
12/04/2021  15:19:00       13.960      -10.996      -14.410       26.177       26.330       24.051      685.254      693.293      578.445        0.124        0.098       17.770       15.274        0.739      340.937       15.302      866.831
12/04/2021  15:20:00       65.889      -19.560      -24.409       26.036       38.030       25.518      677.884     1446.271      651.172        0.405        0.139       68.731       16.079        0.055      340.775       15.029      866.826
12/04/2021  15:21:00       19.209      -21.393      -12.788       31.983       42.810       23.573     1022.886     1832.727      555.688        0.220        0.171       28.751       12.610        0.192      340.891       15.225      866.837
12/04/2021  15:22:00       23.598       10.005      -11.359       29.461       33.945       25.385      867.929     1152.250      644.383        0.172        0.133       25.631       16.059        0.393      340.854       15.163      866.840
12/04/2021  15:23:00       36.572       -0.357      -14.748       27.093       24.835       22.502      734.032      616.778      506.338        0.171        0.093       36.574       11.158        0.093      340.742       14.975      866.859
12/04/2021  15:24:00       57.831       -5.334       -7.340       20.600       17.431       13.314      424.344      303.849      177.253        0.217        0.045       58.077       10.226        0.031      340.698       14.901      866.863
12/04/2021  15:25:00       38.596       -0.403       -7.861       20.513       26.632       12.823      420.784      709.250      164.424        0.142        0.065       38.598        7.558        0.038      340.830       15.123      866.876
12/04/2021  15:26:00       31.632       21.632       -1.197       26.491       24.259       15.711      701.775      588.513      246.841        0.150        0.077       38.321       14.958        0.152      340.821       15.107      866.894
12/04/2021  15:27:00       65.193       29.974       -3.874       26.085       23.614       18.389      680.431      557.604      338.149        0.337        0.079       71.754       13.567        0.036      340.697       14.896      866.907
12/04/2021  15:28:00       68.537       46.346      -10.750       36.073       14.704       14.486     1301.289      216.205      209.852        0.434        0.086       82.737       11.341        0.019      340.655       14.824      866.923
12/04/2021  15:29:00       41.816       22.219      -10.879       30.177       29.186       23.098      910.631      851.812      533.501        0.233        0.115       47.353       20.089        0.180      340.756       14.996      866.932
12/04/2021  15:30:00       71.998       30.261      -13.872       31.759       16.663       14.375     1008.663      277.652      206.638        0.389        0.075       78.099        3.584        0.002      340.721       14.939      866.946
12/04/2021  15:31:00       63.825        5.854       -9.068       21.641       14.612       11.091      468.312      213.498      123.010        0.250        0.040       64.092        4.819        0.006      340.762       15.007      866.958
12/04/2021  15:32:00       54.493       23.069       -6.789       19.581       15.580        9.220      383.410      242.751       85.010        0.213        0.036       59.174        7.651        0.017      340.749       14.983      866.970
12/04/2021  15:33:00       51.106       20.256      -10.067        9.799        7.927        5.600       96.013       62.840       31.363        0.166        0.010       54.974        4.485        0.007      340.796       15.061      866.988
12/04/2021  15:34:00       26.396       17.260       -7.411        8.305       10.400        8.215       68.969      108.161       67.481        0.065        0.012       31.538        3.654        0.013      340.815       15.094      867.000
12/04/2021  15:35:00       19.199       16.115      -11.215       10.754       13.844        9.219      115.642      191.654       84.989        0.057        0.020       25.066        8.755        0.122      340.864       15.179      867.019
12/04/2021  15:36:00        4.230        2.823       -7.079       10.307        6.037        6.018      106.224       36.441       36.212        0.013        0.009        5.086        5.515        1.176      341.012       15.430      867.033
12/04/2021  15:37:00        8.216        0.776      -12.431       11.145        5.819        9.291      124.207       33.863       86.323        0.023        0.012        8.252        3.384        0.168      340.938       15.305      867.037
12/04/2021  15:38:00        3.384       -2.004      -12.243        4.910        5.658        5.273       24.111       32.012       27.808        0.012        0.004        3.932        4.249        1.168      341.036       15.470      867.047
12/04/2021  15:39:00        1.607        6.427       -4.017        2.587        3.809        6.131        6.691       14.511       37.584        0.006        0.003        6.625        1.629        0.060      341.001       15.411      867.059
12/04/2021  15:40:00       12.581       10.424      -11.328        6.351        6.955        9.200       40.332       48.374       84.635        0.028        0.009       16.338        3.537        0.047      340.843       15.143      867.071
12/04/2021  15:41:00        2.755       22.154      -13.999       14.450       16.141       10.439      208.812      260.524      108.967        0.064        0.029       22.325        9.105        0.166      340.941       15.309      867.087
12/04/2021  15:42:00      -29.911        2.453       -9.627       20.164       17.809       12.731      406.575      317.150      162.070        0.094        0.044       30.011        8.015        0.071      341.018       15.440      867.103
12/04/2021  15:43:00      -14.643        9.109        0.114       21.406       16.367       16.186      458.232      267.886      261.988        0.064        0.049       17.245       13.052        0.573      341.043       15.480      867.114
12/04/2021  15:44:00       -8.548      -17.464       -2.203       17.812       17.438       12.695      317.259      304.080      161.162        0.058        0.039       19.444        8.280        0.181      341.015       15.434      867.117
12/04/2021  15:45:00      -23.853      -16.970        3.175       42.949       19.035       15.873     1844.608      362.328      251.940        0.166        0.123       29.274       18.330        0.392      341.017       15.439      867.123
12/04/2021  15:46:00      -35.838      -13.890       -5.011       31.644       22.656       17.416     1001.337      513.286      303.320        0.166        0.091       38.435       15.989        0.173      341.004       15.415      867.128
12/04/2021  15:47:00      -60.255       -8.840       -4.907       29.841       22.168       20.645      890.457      491.425      426.200        0.277        0.090       60.900       16.792        0.076      340.896       15.234      867.146
12/04/2021  15:48:00      -34.008      -19.554        2.882       36.960       22.178       18.224     1366.015      491.861      332.127        0.187        0.110       39.229       20.868        0.283      341.017       15.438      867.168
12/04/2021  15:49:00      -63.547       -1.248      -11.325       29.178       30.955       17.571      851.374      958.234      308.754        0.314        0.106       63.559       10.529        0.027      340.979       15.374      867.179
12/04/2021  15:50:00      -35.974      -10.438       -2.842       29.718       22.753       18.178      883.176      517.718      330.428        0.157        0.087       37.458       16.786        0.201      341.037       15.471      867.187
12/04/2021  15:51:00      -52.934      -16.358      -13.502       24.301       17.773       13.127      590.516      315.893      172.331        0.217        0.054       55.404        7.969        0.021      340.999       15.407      867.197
12/04/2021  15:52:00      -74.479       -3.049       -8.034       41.828       26.787       14.204     1749.540      717.523      201.746        0.414        0.133       74.541       15.284        0.042      340.945       15.317      867.200
12/04/2021  15:53:00      -80.405       -2.869      -16.698       30.434       19.925       15.133      926.233      397.021      228.997        0.415        0.078       80.457        4.567        0.003      340.954       15.331      867.202
12/04/2021  15:54:00      -14.516        2.590        5.601       30.604       16.752       17.687      936.626      280.637      312.819        0.089        0.077       14.745       18.403        1.558      341.027       15.455      867.204
12/04/2021  15:55:00      -45.101        1.634       -2.740       31.261       16.645       17.143      977.259      277.055      293.867        0.180        0.077       45.131       18.888        0.175      341.002       15.412      867.227
12/04/2021  15:56:00      -78.097       26.706      -21.264       17.334       16.705       13.491      300.474      279.073      182.014        0.401        0.038       82.537        8.941        0.012      340.959       15.339      867.236
12/04/2021  15:57:00      -58.890        9.025      -15.772       10.153       13.270       11.387      103.080      176.096      129.655        0.210        0.020       59.578        6.150        0.011      340.938       15.306      867.247
12/04/2021  15:58:00      -21.952       -4.603       -5.886       28.547       18.155       11.729      814.918      329.619      137.562        0.091        0.064       22.430       11.774        0.276      341.024       15.451      867.253
12/04/2021  15:59:00       -3.513      -19.362        2.859       14.396       24.563        9.848      207.236      603.331       96.988        0.065        0.045       19.678       11.759        0.357      340.946       15.319      867.262
12/04/2021  16:00:00      -63.333        9.911      -10.912       20.837       15.982       12.702      434.196      255.437      161.340        0.254        0.043       64.104       13.504        0.044      340.874       15.195      867.272
12/04/2021  16:01:00      -51.292        4.786       -7.953       29.259       19.837       13.037      856.064      393.487      169.965        0.207        0.071       51.515        9.914        0.037      340.934       15.298      867.279
12/04/2021  16:02:00      -25.969        4.798        1.543       24.768       14.066       11.639      613.471      197.838      135.468        0.082        0.047       26.409        7.373        0.078      341.016       15.438      867.286
12/04/2021  16:03:00       -9.280      -13.072        0.566       15.539       17.608       12.473      241.454      310.048      155.576        0.048        0.035       16.031        6.803        0.180      340.937       15.303      867.292
12/04/2021  16:04:00       12.082       -6.593       -1.247       11.034       12.555        7.240      121.756      157.621       52.420        0.026        0.017       13.764        2.911        0.045      340.934       15.297      867.300
12/04/2021  16:05:00        8.175        0.520       -3.055        7.026       11.711        6.711       49.369      137.156       45.040        0.015        0.012        8.192        4.265        0.271      340.937       15.302      867.311
12/04/2021  16:06:00      -11.584        0.260       -3.996       11.248       15.704        7.686      126.516      246.616       59.070        0.029        0.022       11.587        8.103        0.489      340.929       15.291      867.327
12/04/2021  16:07:00      -29.298       15.386       -7.719       13.271        8.860        9.929      176.132       78.494       98.579        0.075        0.018       33.093        8.361        0.064      340.798       15.069      867.338
12/04/2021  16:08:00      -37.596       27.615       -1.512       11.698       12.598        9.280      136.844      158.698       86.119        0.128        0.019       46.648        5.973        0.016      340.767       15.017      867.349
12/04/2021  16:09:00      -38.548        9.147      -15.278       15.176       16.233        9.007      230.309      263.501       81.124        0.119        0.029       39.618        5.658        0.020      340.733       14.957      867.361
12/04/2021  16:10:00      -62.314       13.288      -10.705       20.785       11.895        8.483      431.998      141.493       71.969        0.241        0.032       63.715        6.973        0.012      340.687       14.882      867.368
12/04/2021  16:11:00      -81.811       17.258      -11.968       12.974       12.668        8.525      168.337      160.476       72.670        0.377        0.020       83.612        4.908        0.003      340.619       14.765      867.374
12/04/2021  16:12:00      -98.985       32.506      -15.655        7.976        9.476        7.476       63.624       89.801       55.898        0.565        0.010      104.186        4.912        0.002      340.664       14.841      867.385
12/04/2021  16:13:00      -86.027       36.882       -9.184       18.034       13.831       12.520      325.238      191.297      156.739        0.476        0.034       93.600       12.230        0.017      340.574       14.688      867.389
12/04/2021  16:14:00      -80.410       35.461       -4.270       29.649       17.096       14.118      879.038      292.282      199.313        0.456        0.069       87.882       13.889        0.025      340.566       14.675      867.392
12/04/2021  16:15:00      -82.958       35.095       -8.333       16.309       12.678       12.185      265.992      160.730      148.484        0.438        0.029       90.076       10.143        0.013      340.667       14.846      867.386
12/04/2021  16:16:00      -70.511       22.924      -10.890       12.245       11.003        9.476      149.942      121.064       89.788        0.299        0.018       74.144        8.355        0.013      340.674       14.858      867.381
12/04/2021  16:17:00      -66.362       13.061       -8.574       13.669       13.180        8.624      186.834      173.708       74.372        0.254        0.022       67.635        6.635        0.010      340.645       14.809      867.381
12/04/2021  16:18:00      -75.146       14.683      -14.463        7.269       13.131        8.037       52.844      172.424       64.596        0.318        0.014       76.567        4.861        0.004      340.567       14.675      867.378
12/04/2021  16:19:00      -64.384       13.777      -14.502       21.808       17.671       14.878      475.575      312.253      221.361        0.278        0.050       65.841       12.412        0.036      340.363       14.332      867.393
12/04/2021  16:20:00      -91.863       38.992      -13.451       13.729       11.515        8.124      188.487      132.593       66.002        0.526        0.019       99.796        5.758        0.003      340.365       14.335      867.413
12/04/2021  16:21:00     -101.040       41.387      -10.222       14.210       19.651       11.274      201.919      386.180      127.094        0.637        0.036      109.188        5.069        0.002      340.192       14.042      867.428
12/04/2021  16:22:00     -113.796       24.610      -13.844       18.050       18.859       11.374      325.812      355.648      129.362        0.728        0.041      116.427        5.586        0.002      340.037       13.781      867.449
12/04/2021  16:23:00     -112.191       25.988      -10.306       34.856       29.974       17.437     1214.942      898.466      304.040        0.789        0.121      115.161       18.341        0.025      340.014       13.742      867.461
12/04/2021  16:24:00     -111.103       21.652      -10.657       32.204       29.272       21.851     1037.072      856.859      477.474        0.765        0.119      113.193       16.094        0.020      339.971       13.667      867.464
12/04/2021  16:25:00      -92.015       30.409       -2.795       39.011       34.140       22.119     1521.853     1165.518      489.257        0.629        0.159       96.910       16.029        0.027      339.909       13.565      867.469
12/04/2021  16:26:00      -71.582       19.395        3.724       51.616       38.331       25.826     2664.245     1469.298      667.005        0.516        0.240       74.163       18.757        0.064      339.927       13.593      867.474
12/04/2021  16:27:00      -97.023       51.005       -4.585       82.089       49.964       29.243     6738.596     2496.441      855.175        1.106        0.505      109.613       37.982        0.120      339.937       13.612      867.473
12/04/2021  16:28:00     -151.659       56.862      -27.358       48.003       36.056       30.328     2304.320     1300.055      919.770        1.575        0.226      161.968       25.974        0.026      339.909       13.566      867.474
12/04/2021  16:29:00      -94.008       27.905       -3.816       63.469       40.448       32.331     4028.285     1636.045     1045.272        0.817        0.335       98.062       32.608        0.111      339.594       13.033      867.482
12/04/2021  16:30:00     -127.105       30.052      -36.351       59.240       39.164       44.420     3509.391     1533.794     1973.117        1.270        0.351      130.609       33.298        0.065      339.577       13.005      867.488
12/04/2021  16:31:00     -111.219       18.933      -12.743       42.071       34.370       31.621     1770.010     1181.268      999.900        0.842        0.198      112.820       27.628        0.060      339.404       12.712      867.490
12/04/2021  16:32:00     -135.732       40.438      -18.535       34.893       29.978       24.634     1217.508      898.654      606.822        1.156        0.136      141.627       19.535        0.019      339.453       12.796      867.488
12/04/2021  16:33:00     -117.453       49.653       -7.147       43.454       34.337       22.821     1888.246     1179.034      520.781        0.995        0.179      127.517       17.860        0.020      339.439       12.773      867.487
12/04/2021  16:34:00     -117.376       52.485      -13.795       49.613       33.471       32.307     2461.405     1120.288     1043.721        1.067        0.231      128.576       30.033        0.055      339.362       12.643      867.483
12/04/2021  16:35:00     -132.562       70.067      -12.165       44.578       36.535       29.769     1987.210     1334.824      886.185        1.342        0.210      149.941       21.857        0.021      339.380       12.673      867.482
12/04/2021  16:36:00      -94.544       50.243       -2.241       50.448       39.547       35.116     2545.001     1563.991     1233.149        0.840        0.267      107.065       29.679        0.077      339.434       12.765      867.496
12/04/2021  16:37:00     -136.560       55.826      -12.430       41.570       36.789       26.218     1728.029     1353.411      687.379        1.284        0.188      147.530       10.508        0.005      339.363       12.645      867.505
12/04/2021  16:38:00     -125.191       43.740       -9.803       49.689       37.206       24.664     2469.011     1384.320      608.312        1.107        0.223      132.612       24.257        0.033      339.336       12.599      867.514
12/04/2021  16:39:00      -90.911       23.158      -15.118       55.679       34.726       24.650     3100.127     1205.901      607.614        0.697        0.246       93.814       24.058        0.066      339.249       12.452      867.529
12/04/2021  16:40:00      -90.685       15.731      -13.247       65.925       49.224       23.955     4346.067     2423.012      573.856        0.799        0.367       92.039       27.500        0.089      339.340       12.606      867.551
12/04/2021  16:41:00      -93.384       39.927       -7.766       49.263       40.036       27.927     2426.854     1602.876      779.898        0.759        0.240      101.561       24.890        0.060      339.302       12.541      867.563
12/04/2021  16:42:00     -103.579       30.360      -14.677       55.938       37.355       22.277     3129.062     1395.420      496.265        0.844        0.251      107.937       25.889        0.058      339.220       12.403      867.572
12/04/2021  16:43:00      -64.766       24.425       -9.564       44.678       32.562       26.214     1996.109     1060.288      687.193        0.431        0.187       69.218       23.437        0.115      339.252       12.458      867.579
12/04/2021  16:44:00      -45.916       -1.766       -0.558       49.052       31.295       24.963     2406.113      979.363      623.173        0.306        0.200       45.950       22.125        0.232      339.048       12.114      867.586
12/04/2021  16:45:00      -94.608       11.812      -10.122       35.895       29.094       22.029     1288.443      846.437      485.277        0.591        0.131       95.343       20.369        0.046      339.080       12.168      867.592
12/04/2021  16:46:00     -116.147       17.171      -22.581       14.770       18.172       10.601      218.144      330.214      112.386        0.748        0.033      117.409        7.209        0.004      339.039       12.099      867.605
12/04/2021  16:47:00      -74.447        8.015       -4.708       39.504       27.157       20.448     1560.569      737.507      418.118        0.417        0.136       74.877       22.820        0.093      339.036       12.094      867.616
12/04/2021  16:48:00      -92.254       17.357      -11.226       25.988       26.171       15.912      675.394      684.935      253.199        0.528        0.081       93.873       13.028        0.019      339.048       12.114      867.634
12/04/2021  16:49:00     -107.780       57.633       -5.481       38.711       26.699       26.543     1498.572      712.851      704.515        0.894        0.146      122.221       25.664        0.044      338.956       11.959      867.651
12/04/2021  16:50:00     -138.366       69.876       -7.600       41.682       31.604       31.854     1737.424      998.838     1014.658        1.392        0.188      155.009       28.335        0.033      338.987       12.013      867.672
12/04/2021  16:51:00     -153.384       80.083       -7.653       45.365       33.133       29.879     2057.992     1097.824      892.757        1.702        0.202      173.031       31.034        0.032      338.828       11.744      867.701
12/04/2021  16:52:00     -122.365       33.769      -22.615       66.019       41.248       26.268     4358.517     1701.435      689.983        1.169        0.337      126.939       13.074        0.011      338.730       11.578      867.725
12/04/2021  16:53:00      -67.381        8.234       -5.234       67.346       45.027       35.221     4535.461     2027.429     1240.491        0.622        0.390       67.882       28.849        0.181      338.690       11.512      867.736
12/04/2021  16:54:00     -146.474       48.181       -8.913       69.656       44.884       33.631     4852.010     2014.565     1131.048        1.593        0.400      154.195       24.274        0.025      338.616       11.386      867.743
12/04/2021  16:55:00     -125.717       46.336      -22.699       30.811       35.805       21.698      949.311     1282.010      470.798        1.058        0.135      133.984       16.486        0.015      338.664       11.469      867.758
12/04/2021  16:56:00     -110.361       61.479      -16.737       44.565       34.186       28.418     1986.051     1168.683      807.574        1.010        0.198      126.330       20.997        0.028      338.770       11.646      867.766
12/04/2021  16:57:00     -139.592       55.955      -25.285       39.113       36.663       31.924     1529.814     1344.195     1019.153        1.357        0.195      150.389       23.745        0.025      338.826       11.740      867.780
12/04/2021  16:58:00     -134.857       63.491       -6.712       64.359       44.214       37.405     4142.087     1954.907     1399.159        1.488        0.375      149.055       38.758        0.068      338.810       11.713      867.791
12/04/2021  16:59:00     -179.416       82.362      -13.204       41.506       36.613       25.639     1722.739     1340.522      657.355        2.143        0.186      197.417       23.213        0.014      338.968       11.979      867.806
12/04/2021  17:00:00     -139.826       55.445      -12.085       34.747       32.683       24.224     1207.386     1068.207      586.819        1.282        0.143      150.418       22.287        0.022      338.981       12.000      867.800
12/04/2021  17:01:00     -150.251       58.857       -8.250       45.454       30.508       30.899     2066.079      930.751      954.772        1.503        0.198      161.368       25.193        0.024      339.015       12.058      867.798
12/04/2021  17:02:00     -141.255       46.397      -12.102       44.425       30.109       21.592     1973.593      906.566      466.228        1.280        0.167      148.680       12.521        0.007      338.995       12.024      867.810
12/04/2021  17:03:00     -164.465       27.943       -1.551       54.052       36.023       39.357     2921.611     1297.690     1548.984        1.680        0.288      166.821       32.925        0.039      339.056       12.128      867.806
12/04/2021  17:04:00      -50.418        8.807       -8.120      104.144       49.683       32.776    10845.928     2468.411     1074.270        0.853        0.719       51.181       30.910        0.365      339.082       12.172      867.804
12/04/2021  17:05:00     -118.297       30.128       -8.541       47.651       48.547       28.792     2270.631     2356.779      828.993        1.021        0.273      122.074       20.043        0.027      339.110       12.218      867.814
12/04/2021  17:06:00     -130.944       30.267      -18.833       41.764       30.351       24.244     1744.211      921.158      587.776        1.083        0.163      134.397       19.350        0.021      339.129       12.250      867.830
12/04/2021  17:07:00     -133.181       52.104      -13.278       42.419       30.382       27.133     1799.347      923.046      736.215        1.204        0.173      143.010       22.311        0.024      339.113       12.225      867.839
12/04/2021  17:08:00     -129.315       43.315      -11.215       53.895       31.709       24.256     2904.688     1005.443      588.340        1.161        0.225      136.377       26.753        0.038      339.065       12.144      867.849
12/04/2021  17:09:00     -140.616       30.654      -19.383       22.075       24.660       17.005      487.301      608.106      289.170        1.124        0.069      143.919        9.826        0.005      339.079       12.165      867.851
12/04/2021  17:10:00     -119.126       17.295      -12.599       24.803       25.478       14.653      615.187      649.119      214.720        0.806        0.074      120.375       12.254        0.010      339.051       12.121      867.860
12/04/2021  17:11:00     -107.775       13.588      -12.181       33.464       28.243       22.441     1119.819      797.647      503.597        0.718        0.121      108.629       16.884        0.024      338.996       12.027      867.865
12/04/2021  17:12:00     -130.344        5.010      -10.993       45.662       34.588       24.611     2085.017     1196.360      605.696        1.051        0.194      130.440       13.938        0.011      338.992       12.020      867.873
12/04/2021  17:13:00     -107.113       -8.503       -4.758       61.375       39.567       31.081     3766.888     1565.523      966.005        0.893        0.315      107.450       28.762        0.072      338.958       11.962      867.884
12/04/2021  17:14:00     -107.790        3.211       -9.839       48.394       30.627       22.772     2341.932      938.037      518.575        0.776        0.190      107.837       21.336        0.039      338.956       11.959      867.884
12/04/2021  17:15:00     -115.767        9.282       -8.791       45.929       32.561       30.498     2109.434     1060.190      930.140        0.883        0.205      116.138       24.572        0.045      339.010       12.049      867.870
12/04/2021  17:16:00     -130.780       23.373      -14.062       58.053       35.385       30.300     3370.103     1252.117      918.098        1.169        0.277      132.852       29.019        0.048      339.036       12.095      867.864
12/04/2021  17:17:00     -132.739       13.850      -17.808       55.614       35.072       26.178     3092.902     1230.047      685.301        1.157        0.250      133.459       29.771        0.050      338.951       11.952      867.874
12/04/2021  17:18:00     -138.001       49.596      -13.923       47.950       41.943       25.907     2299.160     1759.216      671.198        1.321        0.236      146.643       27.592        0.035      338.891       11.850      867.873
12/04/2021  17:19:00     -142.643        5.672      -16.837       32.395       30.952       25.100     1049.446      957.999      629.992        1.165        0.132      142.756       17.086        0.014      338.820       11.731      867.873
12/04/2021  17:20:00     -130.422       24.157      -12.350       43.187       35.531       25.568     1865.079     1262.459      653.713        1.076        0.189      132.640       22.390        0.028      338.713       11.550      867.884
12/04/2021  17:21:00     -152.845       40.314      -20.412       37.426       21.690       19.833     1400.689      470.446      393.332        1.383        0.113      158.072       12.232        0.006      338.670       11.479      867.892
12/04/2021  17:22:00     -141.152       48.324      -20.085       25.667       21.079       15.528      658.773      444.333      241.120        1.200        0.067      149.195        9.184        0.004      338.661       11.463      867.908
12/04/2021  17:23:00     -124.128       16.805      -16.127       39.226       29.259       23.873     1538.657      856.113      569.921        0.946        0.148      125.260       18.032        0.021      338.583       11.333      867.926
12/04/2021  17:24:00     -128.132       31.686      -16.343       43.579       29.873       15.403     1899.132      892.422      237.258        1.036        0.151      131.992       13.873        0.011      338.627       11.406      867.944
12/04/2021  17:25:00      -98.815       52.831      -11.751       41.437       22.574       23.749     1717.007      509.606      564.021        0.774        0.140      112.051       23.225        0.043      338.860       11.798      867.954
12/04/2021  17:26:00     -134.341       26.264      -27.616       15.991       15.588       10.716      255.722      242.978      114.840        1.006        0.031      136.884        5.466        0.002      338.767       11.642      867.961
12/04/2021  17:27:00     -106.734        3.855      -14.594       39.028       29.059       27.998     1523.208      844.419      783.864        0.739        0.158      106.803       21.078        0.039      338.701       11.531      867.968
12/04/2021  17:28:00      -66.767       27.128       -9.531       41.029       33.943       23.028     1683.338     1152.125      530.300        0.432        0.168       72.067       18.892        0.069      338.631       11.413      867.982
12/04/2021  17:29:00     -120.448       55.628      -14.674       36.902       28.699       23.776     1361.772      823.618      565.286        1.028        0.138      132.673       22.161        0.028      338.838       11.761      867.991
12/04/2021  17:30:00     -130.763       68.142      -26.697       61.656       52.982       38.121     3801.442     2807.135     1453.212        1.526        0.403      147.453       28.617        0.038      338.950       11.948      867.998
12/04/2021  17:31:00     -105.629       27.130      -17.056       30.417       27.556       19.348      925.201      759.341      374.357        0.712        0.103      109.058        9.692        0.008      338.698       11.524      868.004
12/04/2021  17:32:00     -118.151       21.859      -18.169       23.410       19.703       15.986      548.040      388.195      255.553        0.798        0.060      120.156       14.870        0.015      338.700       11.528      868.014
12/04/2021  17:33:00     -102.150       15.355      -15.581       22.435       20.557       15.787      503.336      422.578      249.236        0.604        0.059      103.298       13.463        0.017      338.675       11.485      868.028
12/04/2021  17:34:00      -83.564       15.672      -15.616       21.150       18.767       16.193      447.321      352.212      262.222        0.427        0.053       85.021        5.271        0.004      338.728       11.577      868.036
12/04/2021  17:35:00      -81.751        4.224      -12.468       20.049       20.391       18.409      401.982      415.783      338.880        0.401        0.058       81.860        4.610        0.003      338.548       11.274      868.047
12/04/2021  17:36:00      -66.851      -11.868       -5.531       43.660       24.760       28.285     1906.169      613.066      800.016        0.398        0.166       67.897       25.593        0.142      338.338       10.922      868.053
12/04/2021  17:37:00     -108.888      -17.249       -5.794       34.770       22.790       19.760     1208.923      519.395      390.464        0.715        0.106      110.245       16.034        0.021      338.463       11.132      868.056
12/04/2021  17:38:00     -103.782      -19.346      -11.066       28.542       22.714       23.163      814.639      515.908      536.507        0.657        0.093      105.570       17.108        0.026      338.358       10.956      868.060
12/04/2021  17:39:00     -158.738      -42.910      -21.932       27.633       21.623       20.180      763.575      467.548      407.218        1.458        0.082      164.435       15.118        0.008      338.537       11.256      868.054
12/04/2021  17:40:00     -118.276      -39.187      -16.201       51.534       34.156       26.644     2655.749     1166.614      709.887        1.016        0.227      124.599       23.559        0.036      338.635       11.420      868.050
12/04/2021  17:41:00     -116.441      -40.509      -11.921       37.245       41.302       21.907     1387.179     1705.847      479.902        0.946        0.179      123.286       10.931        0.008      338.619       11.393      868.046
12/04/2021  17:42:00     -163.436      -55.389      -14.517       46.289       39.823       25.185     2142.694     1585.839      634.303        1.718        0.218      172.567       24.149        0.020      338.702       11.533      868.049
12/04/2021  17:43:00     -101.310      -45.181      -20.718       42.831       30.753       18.769     1834.523      945.735      352.264        0.793        0.157      110.929       13.044        0.014      338.822       11.733      868.078
12/04/2021  17:44:00      -60.053      -12.653      -14.235       35.483       39.363       26.261     1259.053     1549.428      689.656        0.373        0.175       61.372       20.859        0.116      338.778       11.661      868.100
12/04/2021  17:45:00      -51.779       -3.355      -15.941       21.216       33.681       15.365      450.103     1134.407      236.096        0.238        0.091       51.887        6.901        0.018      338.703       11.533      868.113
12/04/2021  17:46:00      -70.817      -10.420       -7.443       37.013       27.729       17.493     1369.948      768.923      305.991        0.381        0.122       71.580       18.211        0.065      338.672       11.483      868.116
12/04/2021  17:47:00     -109.903      -20.157      -12.501       23.578       18.727       16.981      555.937      350.687      288.365        0.692        0.060      111.736        6.010        0.003      338.880       11.833      868.109
12/04/2021  17:48:00      -67.688      -18.492      -14.257       41.029       15.046       14.866     1683.343      226.380      220.992        0.363        0.107       70.168       17.688        0.064      338.861       11.801      868.102
12/04/2021  17:49:00      -69.070      -11.240       -6.441       32.822       21.169       16.777     1077.278      448.147      281.480        0.337        0.090       69.978       16.997        0.059      338.790       11.681      868.094
12/04/2021  17:50:00      -92.115      -30.006      -12.645       21.338       18.691       11.205      455.292      349.361      125.561        0.524        0.047       96.879        8.551        0.008      338.899       11.863      868.093
12/04/2021  17:51:00      -70.461      -12.781       -9.817       13.788       14.672       10.050      190.098      215.273      100.997        0.287        0.025       71.611        7.525        0.011      338.747       11.608      868.085
12/04/2021  17:52:00      -94.420      -25.285       -9.911       25.507       17.893       14.763      650.605      320.146      217.947        0.542        0.059       97.747       12.104        0.015      338.870       11.815      868.085
12/04/2021  17:53:00     -107.573      -21.338      -10.318       22.219       19.503       14.489      493.684      380.381      209.920        0.661        0.054      109.669        9.191        0.007      338.816       11.724      868.089
12/04/2021  17:54:00     -104.946      -24.891      -17.061       30.588       27.334       15.487      935.629      747.160      239.843        0.692        0.096      107.857        9.731        0.008      338.849       11.779      868.099
12/04/2021  17:55:00     -111.549       -6.591      -13.407       26.047       12.205       11.490      678.444      148.972      132.016        0.681        0.048      111.743        7.156        0.004      338.563       11.300      868.103
12/04/2021  17:56:00     -131.312      -10.050      -13.895       31.179       21.185       23.489      972.145      448.808      551.710        0.975        0.099      131.696       18.931        0.021      338.311       10.877      868.118
12/04/2021  17:57:00     -128.622      -33.023      -12.158       38.608       28.208       22.607     1490.599      795.687      511.084        1.029        0.140      132.794       12.903        0.009      338.329       10.905      868.135
12/04/2021  17:58:00     -100.692       -8.049      -10.949       31.533       16.923       14.971      994.312      286.403      224.133        0.591        0.075      101.013       13.115        0.017      338.364       10.966      868.154
12/04/2021  17:59:00      -51.940       -4.253       -6.101       35.944       26.486       18.148     1291.999      701.520      329.333        0.254        0.116       52.114       16.996        0.106      338.160       10.623      868.176
12/04/2021  18:00:00      -85.750      -10.440      -13.264       24.870       22.222       11.602      618.536      493.808      134.610        0.444        0.062       86.384        7.419        0.007      338.418       11.056      868.191
12/04/2021  18:01:00     -111.554       -6.075       -6.788       24.259       22.811       13.775      588.493      520.332      189.742        0.691        0.065      111.719       12.372        0.012      338.366       10.970      868.196
12/04/2021  18:02:00      -97.580        6.480       -7.798       28.971       17.636       15.426      839.346      311.044      237.947        0.551        0.069       97.795        8.503        0.008      338.485       11.170      868.205
12/04/2021  18:03:00      -64.454       11.716       -4.883       40.066       22.877       13.558     1605.312      523.378      183.823        0.331        0.116       65.510       13.588        0.043      338.103       10.527      868.226
12/04/2021  18:04:00      -70.579      -12.022      -19.921       27.427       22.500       14.045      752.238      506.267      197.268        0.349        0.073       71.595        7.354        0.011      337.882       10.157      868.219
12/04/2021  18:05:00     -103.623       -3.591       -8.623       30.743       26.713       15.637      945.129      713.596      244.518        0.636        0.095      103.685       12.462        0.014      337.915       10.212      868.232
12/04/2021  18:06:00      -98.257      -19.885      -10.028       33.470       24.399       24.225     1120.262      595.309      586.849        0.623        0.115      100.249       19.758        0.039      337.913       10.207      868.227
12/04/2021  18:07:00     -115.356      -29.027      -17.845       28.139       27.567       19.026      791.776      759.923      361.994        0.819        0.096      118.952       12.959        0.012      338.131       10.575      868.234
12/04/2021  18:08:00     -109.246        4.835      -10.084       33.357       20.488       16.285     1112.695      419.763      265.203        0.693        0.090      109.353       14.590        0.018      338.141       10.592      868.235
12/04/2021  18:09:00     -116.228       27.712      -15.107       17.497       18.759       13.478      306.155      351.901      181.665        0.767        0.042      119.486        8.020        0.005      338.014       10.380      868.247
12/04/2021  18:10:00     -124.610       32.267      -12.873       13.306       11.643        8.216      177.060      135.548       67.496        0.856        0.019      128.720        3.922        0.001      338.282       10.828      868.258
12/04/2021  18:11:00     -109.461       49.650       -5.065       35.913       23.111       22.622     1289.745      534.110      511.760        0.840        0.117      120.195       19.545        0.026      338.008       10.369      868.269
12/04/2021  18:12:00      -71.583       -0.138       -9.248       43.833       28.947       18.848     1921.310      837.934      355.264        0.416        0.156       71.583       15.033        0.044      337.723        9.890      868.275
12/04/2021  18:13:00     -107.103       27.618       -5.872       34.259       28.684       22.980     1173.706      822.772      528.086        0.740        0.126      110.606       17.005        0.024      337.711        9.870      868.289
12/04/2021  18:14:00      -72.585        8.703       -3.995       39.269       33.035       27.993     1542.066     1091.312      783.626        0.439        0.171       73.105       22.644        0.096      337.728        9.899      868.290
12/04/2021  18:15:00      -75.845       30.288      -12.192       54.871       26.110       18.337     3010.794      681.707      336.234        0.542        0.201       81.669       19.704        0.058      337.550        9.600      868.297
12/04/2021  18:16:00      -42.679       38.586       -2.702       41.139       30.689       20.310     1692.438      941.838      412.496        0.318        0.152       57.536       17.018        0.087      338.262       10.795      868.303
12/04/2021  18:17:00      -60.219       -5.200      -10.240       33.735       31.783       21.561     1138.021     1010.136      464.876        0.319        0.131       60.443       12.023        0.040      337.549        9.599      868.313
12/04/2021  18:18:00      -84.744        9.709      -11.138       62.899       44.535       34.457     3956.284     1983.352     1187.319        0.726        0.356       85.298       32.178        0.142      337.327        9.225      868.328
12/04/2021  18:19:00     -133.521       53.296       -9.676       33.342       26.542       19.402     1111.709      704.472      376.433        1.148        0.110      143.765       12.343        0.007      337.558        9.612      868.335
12/04/2021  18:20:00     -115.877       54.443      -13.341       29.143       20.274       16.976      849.297      411.027      288.181        0.906        0.077      128.029       16.649        0.017      337.507        9.526      868.358
12/04/2021  18:21:00     -118.487       59.479      -11.555       45.069       35.661       28.372     2031.198     1271.733      804.942        1.091        0.205      132.578       20.402        0.024      337.839       10.084      868.372
12/04/2021  18:22:00      -76.240       24.061       -3.615       41.611       32.421       24.347     1731.469     1051.137      592.780        0.489        0.169       79.947       23.380        0.086      337.975       10.312      868.383
12/04/2021  18:23:00      -91.488       25.521       -4.623       38.843       36.215       19.726     1508.773     1311.515      389.110        0.613        0.160       94.981       25.049        0.070      337.707        9.863      868.396
12/04/2021  18:24:00     -109.774       50.266      -14.670       20.693       14.367       14.183      428.193      206.417      201.153        0.781        0.042      120.736        8.886        0.005      337.759        9.949      868.410
12/04/2021  18:25:00      -82.630       34.838       -6.920       32.063       21.463       18.968     1028.060      460.673      359.797        0.497        0.092       89.674       18.736        0.044      337.840       10.087      868.417
12/04/2021  18:26:00      -50.910       14.120       -9.039       30.614       15.852       20.300      937.203      251.277      412.100        0.224        0.080       52.831        9.218        0.030      337.861       10.122      868.430
12/04/2021  18:27:00      -26.372       -3.702      -10.257       16.734       13.087       15.776      280.020      171.258      248.888        0.076        0.035       26.630        9.558        0.129      337.736        9.911      868.439
12/04/2021  18:28:00      -39.192      -10.173      -17.305       14.382       10.839       10.358      206.833      117.488      107.288        0.119        0.022       40.490        8.011        0.039      337.779        9.984      868.460
12/04/2021  18:29:00      -44.293        0.006      -15.075       15.229       10.870        7.071      231.930      118.167       50.004        0.129        0.020       44.293        6.427        0.021      338.550       11.277      868.484
12/04/2021  18:30:00      -56.007        6.286      -19.359       13.067        9.398       10.149      170.743       88.330      103.003        0.196        0.018       56.359        9.954        0.031      338.345       10.934      868.497
12/04/2021  18:31:00      -84.045       34.100      -18.633       23.405       16.505       11.598      547.791      272.431      134.510        0.476        0.048       90.700       10.201        0.013      337.365        9.292      868.527
12/04/2021  18:32:00      -34.230       23.094      -17.468       35.331       12.595       11.047     1248.300      158.645      122.027        0.177        0.076       41.292       10.740        0.068      337.894       10.177      868.550
12/04/2021  18:33:00       26.159        1.939       -2.780       34.150       32.018       15.537     1166.213     1025.181      241.393        0.156        0.122       26.231       16.941        0.417      337.702        9.854      868.558
12/04/2021  18:34:00       54.894        9.436      -21.465       38.815       46.437       32.113     1506.638     2156.372     1031.218        0.413        0.235       55.699       22.239        0.159      337.262        9.118      868.555
12/04/2021  18:35:00       83.780        2.824       -8.150       48.508       37.140       23.806     2353.012     1379.346      566.721        0.570        0.215       83.827       16.573        0.039      337.094        8.836      868.574
12/04/2021  18:36:00      106.596       -6.792       -2.023       27.713       24.445       14.910      768.031      597.562      222.310        0.650        0.079      106.812       10.607        0.010      337.438        9.411      868.593
12/04/2021  18:37:00       52.470      -15.096       -2.360       18.510       18.092       10.043      342.624      327.338      100.869        0.188        0.039       54.598        8.736        0.026      337.661        9.785      868.613
12/04/2021  18:38:00       24.218       -8.644       -1.722       14.307        9.797        4.332      204.678       95.984       18.768        0.049        0.016       25.714        3.935        0.023      337.997       10.351      868.638
12/04/2021  18:39:00      -26.731       36.546      -10.413       19.683       15.601        8.998      387.430      243.389       80.964        0.144        0.036       45.279        6.444        0.020      337.945       10.261      868.662
12/04/2021  18:40:00      -40.403       26.787      -14.028       22.936       17.012       11.602      526.074      289.405      134.596        0.175        0.048       48.477       13.824        0.081      337.712        9.871      868.676
12/04/2021  18:41:00       -0.419       11.772       -2.883       16.603       16.152       10.030      275.658      260.872      100.604        0.039        0.032       11.780        8.963        0.579      337.633        9.739      868.676
12/04/2021  18:42:00        0.040        0.106       -4.718        6.445        9.434        6.023       41.537       89.004       36.282        0.009        0.008        0.114        3.009      701.616      337.565        9.625      868.665
12/04/2021  18:43:00        1.214        3.217      -12.196        8.186       17.017        7.100       67.015      289.586       50.406        0.028        0.020        3.439        2.495        0.526      337.682        9.820      868.652
12/04/2021  18:44:00        0.270      -11.689      -16.448        9.851       17.689       15.247       97.042      312.887      232.480        0.052        0.032       11.693       10.612        0.824      337.655        9.775      868.653
12/04/2021  18:45:00      -10.126       23.010       -1.945        9.435       11.611        8.605       89.019      134.825       74.045        0.047        0.015       25.140        4.534        0.033      337.794       10.009      868.660
12/04/2021  18:46:00      -62.541        2.824      -15.667       20.089       17.235       19.983      403.587      297.059      399.304        0.263        0.055       62.605       11.614        0.034      337.826       10.063      868.685
12/04/2021  18:47:00      -42.347      -36.184      -17.218       25.410       28.721       24.040      645.664      824.876      577.911        0.272        0.102       55.700       15.971        0.082      337.693        9.840      868.681
12/04/2021  18:48:00      -23.176        6.102       -5.536       13.806       10.421       16.372      190.604      108.589      268.041        0.059        0.028       23.966       11.054        0.213      337.532        9.570      868.687
12/04/2021  18:49:00      -79.941       -1.864      -11.972       17.363       11.776       10.385      301.476      138.666      107.855        0.354        0.027       79.963        9.306        0.014      337.550        9.600      868.703
12/04/2021  18:50:00      -78.286       37.424      -13.608       12.396       11.470       11.365      153.654      131.567      129.163        0.406        0.021       86.772        5.165        0.004      337.475        9.473      868.729
12/04/2021  18:51:00     -103.425       40.296      -16.496       17.169       15.848       10.190      294.766      251.164      103.842        0.662        0.032      110.997        5.620        0.003      337.476        9.475      868.755
12/04/2021  18:52:00      -97.857       23.522      -13.432       27.994       28.699       19.334      783.664      823.615      373.785        0.615        0.099      100.645        6.958        0.005      337.083        8.817      868.785
12/04/2021  18:53:00      -98.097        9.793      -21.525       47.370       35.186       26.606     2243.885     1238.048      707.893        0.719        0.209       98.584       17.880        0.033      336.734        8.235      868.801
12/04/2021  18:54:00     -147.110       30.157      -10.575       74.069       48.403       38.321     5486.223     2342.892     1468.523        1.598        0.465      150.169       30.228        0.041      336.365        7.617      868.811
12/04/2021  18:55:00      -59.824       11.397      -10.941       62.870       35.587       32.845     3952.668     1266.431     1078.796        0.506        0.315       60.900       30.203        0.246      336.324        7.549      868.819
12/04/2021  18:56:00     -133.613        8.006       -5.608       62.399       37.433       31.408     3893.607     1401.257      986.474        1.211        0.314      133.853       20.436        0.023      336.509        7.859      868.817
12/04/2021  18:57:00     -170.762       13.034       -8.168       44.616       36.620       33.168     1990.619     1341.012     1100.108        1.691        0.222      171.258       26.042        0.023      336.720        8.211      868.832
12/04/2021  18:58:00     -149.827       23.469      -12.035       28.737       31.610       17.509      825.842      999.210      306.572        1.264        0.107      151.654        8.932        0.003      336.903        8.517      868.839
12/04/2021  18:59:00     -140.396       21.028      -12.334       40.637       28.774       27.123     1651.340      827.946      735.661        1.176        0.161      141.962       26.575        0.035      336.946        8.588      868.853
12/04/2021  19:00:00     -114.011       35.714       -7.350       60.568       31.527       32.713     3668.493      993.962     1070.130        1.003        0.287      119.474       26.725        0.050      336.891        8.497      868.858
12/04/2021  19:01:00     -119.703       41.434       -2.357       42.902       38.750       23.989     1840.571     1501.586      575.459        0.998        0.196      126.671       19.795        0.024      337.301        9.184      868.842
12/04/2021  19:02:00      -53.296       -1.934       -6.680       29.823       30.878       15.991      889.417      953.448      255.726        0.249        0.105       53.331       15.792        0.088      336.970        8.629      868.829
12/04/2021  19:03:00      -48.306       -1.561      -13.869       44.491       32.599       23.465     1979.439     1062.722      550.595        0.306        0.180       48.331       24.050        0.248      336.720        8.212      868.830
12/04/2021  19:04:00      -69.898       24.822       -5.164       63.875       41.315       31.291     4080.058     1706.930      979.138        0.615        0.338       74.174       19.815        0.071      336.681        8.146      868.845
12/04/2021  19:05:00      -73.342       50.043       -1.459       43.537       37.684       26.036     1895.493     1420.048      677.899        0.594        0.200       88.788       18.396        0.043      337.617        9.713      868.859
12/04/2021  19:06:00      -56.317        9.515       -0.557       38.313       37.328       24.211     1467.916     1393.376      586.148        0.335        0.172       57.115       14.510        0.065      337.435        9.408      868.873
12/04/2021  19:07:00      -91.740        7.836      -12.312       46.994       43.790       32.597     2208.400     1917.549     1062.557        0.691        0.259       92.074       23.682        0.066      336.681        8.146      868.878
12/04/2021  19:08:00      -92.582       16.431      -11.741       46.374       36.594       24.675     2150.505     1339.155      608.854        0.654        0.205       94.029       11.822        0.016      336.740        8.246      868.877
12/04/2021  19:09:00      -64.724       -4.200      -18.840       37.742       33.214       22.407     1424.424     1103.184      502.095        0.380        0.151       64.860       23.438        0.131      336.608        8.026      868.869
12/04/2021  19:10:00      -93.637      -11.366      -24.496       40.486       34.055       26.968     1639.088     1159.771      727.295        0.651        0.176       94.324       22.646        0.058      336.554        7.933      868.864
12/04/2021  19:11:00      -80.879       21.336      -13.008       50.366       44.414       28.366     2536.723     1972.613      804.622        0.624        0.266       83.645       24.176        0.084      336.518        7.873      868.870
12/04/2021  19:12:00     -143.303       34.110      -12.828       49.966       46.271       27.336     2496.638     2140.991      747.256        1.362        0.269      147.307       20.649        0.020      336.771        8.295      868.864
12/04/2021  19:13:00      -54.841      -11.964      -16.695       26.854       28.868       19.956      721.154      833.366      398.254        0.269        0.098       56.131       10.626        0.036      336.589        7.994      868.852
12/04/2021  19:14:00      -82.397       -4.408      -17.924       40.255       25.806       19.504     1620.447      665.926      380.399        0.490        0.133       82.515       10.136        0.015      336.566        7.954      868.849
12/04/2021  19:15:00     -120.960        2.118      -18.379       39.482       25.083       21.735     1558.847      629.133      472.390        0.882        0.133      120.979       20.519        0.029      336.586        7.988      868.851
12/04/2021  19:16:00     -146.861       34.550       -5.475       36.662       26.171       22.152     1344.124      684.913      490.725        1.266        0.126      150.870       19.959        0.018      336.643        8.084      868.870
12/04/2021  19:17:00     -126.431       46.821      -17.279       15.835       16.644       15.693      250.736      277.028      246.271        0.962        0.039      134.823        5.607        0.002      336.569        7.959      868.884
12/04/2021  19:18:00     -127.168       45.208      -15.462       21.780       25.036       17.743      474.378      626.792      314.820        0.993        0.071      134.964       10.800        0.006      336.618        8.041      868.895
12/04/2021  19:19:00     -148.640       54.430      -28.520       21.562       18.500       17.428      464.921      342.266      303.723        1.349        0.056      158.292        8.181        0.003      336.627        8.057      868.908
12/04/2021  19:20:00     -158.009       16.809      -24.824       25.544       29.974       19.430      652.505      898.467      377.535        1.390        0.096      158.901       11.351        0.005      336.597        8.006      868.914
12/04/2021  19:21:00      -28.803       11.821       -3.814       46.139       39.299       25.283     2128.783     1544.433      639.214        0.265        0.216       31.134       14.104        0.205      336.475        7.801      868.935
12/04/2021  19:22:00       -8.166       11.528        1.956       27.699       29.003       25.368      767.256      841.166      643.544        0.123        0.113       14.127       17.189        1.480      336.400        7.675      868.945
12/04/2021  19:23:00        3.209        2.904        1.542       21.064       29.849       25.896      443.693      890.981      670.579        0.101        0.100        4.328       14.145       10.680      336.333        7.564      868.958
12/04/2021  19:24:00      -46.396       -4.122      -12.777       48.969       40.810       30.614     2397.991     1665.496      937.235        0.367        0.250       46.579       21.261        0.208      336.358        7.606      868.977
12/04/2021  19:25:00     -104.492       -1.501        1.930       69.015       41.541       32.358     4763.127     1725.691     1047.045        0.923        0.377      104.503       20.110        0.037      336.496        7.838      868.995
12/04/2021  19:26:00      -16.220       21.164       -9.639       42.943       32.498       28.156     1844.096     1056.129      792.772        0.225        0.185       26.664       19.798        0.551      336.447        7.755      869.015
12/04/2021  19:27:00      -43.726      -12.791       -4.406       46.297       32.536       24.933     2143.449     1058.604      621.648        0.296        0.191       45.559       24.863        0.298      336.553        7.932      869.033
12/04/2021  19:28:00      -77.419       -8.243       -7.548       24.081       22.515       18.069      579.872      506.943      326.494        0.377        0.071       77.856        9.470        0.015      336.644        8.085      869.046
12/04/2021  19:29:00     -112.667       -9.891      -10.845       30.853       28.065       22.729      951.896      787.632      516.620        0.758        0.113      113.100       14.655        0.017      336.522        7.881      869.059
12/04/2021  19:30:00     -106.351      -11.421       -4.703       55.460       25.072       23.580     3075.862      628.584      556.036        0.786        0.213      106.962       23.355        0.048      336.653        8.101      869.056
12/04/2021  19:31:00     -108.787        8.459      -10.697       27.794       20.379       17.664      772.517      415.322      312.016        0.676        0.075      109.115       15.506        0.020      336.779        8.310      869.070
12/04/2021  19:32:00     -114.948       12.654      -13.408       23.467       16.164       15.230      550.690      261.283      231.965        0.730        0.052      115.643       11.057        0.009      336.671        8.131      869.082
12/04/2021  19:33:00     -124.166        5.642      -13.200       43.593       31.584       20.789     1900.391      997.541      432.164        0.948        0.167      124.294       18.851        0.023      336.722        8.214      869.107
12/04/2021  19:34:00     -108.805        6.328       -4.869       52.553       42.358       26.439     2761.773     1794.230      699.018        0.858        0.263      108.989       20.278        0.035      336.687        8.157      869.126
12/04/2021  19:35:00      -71.058        0.129        1.121       61.983       34.500       31.127     3841.888     1190.237      968.887        0.552        0.300       71.058       31.050        0.191      336.607        8.023      869.156
12/04/2021  19:36:00      -87.807       10.430       -5.795       58.564       38.263       23.684     3429.768     1464.027      560.937        0.665        0.273       88.424       20.114        0.052      336.513        7.865      869.183
12/04/2021  19:37:00     -101.889       -2.538       -4.949       54.728       45.553       37.401     2995.125     2075.075     1398.809        0.844        0.323      101.921       27.994        0.075      336.464        7.784      869.208
12/04/2021  19:38:00      -27.840        0.277        0.004       51.893       28.528       30.318     2692.900      813.825      919.165        0.260        0.221       27.841       28.146        1.022      336.462        7.781      869.213
12/04/2021  19:39:00      -30.512        1.698       -0.610       41.582       36.111       28.719     1729.030     1304.024      824.762        0.240        0.193       30.559       27.251        0.795      336.454        7.766      869.219
12/04/2021  19:40:00     -107.868       -8.574      -16.386       47.281       36.598       26.465     2235.454     1339.426      700.420        0.813        0.214      108.208       27.875        0.066      336.379        7.642      869.230
12/04/2021  19:41:00      -67.840        8.477       -9.225       47.698       32.573       21.098     2275.097     1060.980      445.132        0.427        0.189       68.368       17.002        0.062      336.357        7.603      869.239
12/04/2021  19:42:00      -80.319       26.715       -9.838       44.503       29.183       21.788     1980.546      851.660      474.699        0.528        0.165       84.646       21.816        0.066      336.371        7.627      869.252
12/04/2021  19:43:00     -114.642       15.376       -8.021       44.765       29.677       22.867     2003.900      880.747      522.916        0.842        0.170      115.669       23.729        0.042      336.310        7.525      869.254
12/04/2021  19:44:00      -81.361      -12.496      -12.256       24.455       27.207       12.925      598.042      740.224      167.052        0.422        0.075       82.315        8.263        0.010      336.227        7.387      869.248
12/04/2021  19:45:00      -51.391        8.373      -11.591       27.657       33.462       20.458      764.892     1119.683      418.543        0.257        0.115       52.069        7.017        0.018      336.195        7.332      869.245
12/04/2021  19:46:00      -98.808       28.406       -9.522       61.432       31.716       17.546     3773.914     1005.890      307.863        0.787        0.254      102.810       24.850        0.058      336.059        7.106      869.241
12/04/2021  19:47:00     -135.879       31.790      -14.942       23.481       22.309       20.353      551.334      497.713      414.262        1.058        0.073      139.548       12.966        0.009      336.084        7.148      869.240
12/04/2021  19:48:00     -120.274       28.841      -10.412       48.422       27.685       23.690     2344.710      766.443      561.228        0.954        0.184      123.683       26.183        0.045      336.025        7.050      869.247
12/04/2021  19:49:00     -145.273       52.814       -7.963       53.521       26.812       26.998     2864.530      718.907      728.876        1.413        0.216      154.576       21.539        0.019      336.057        7.104      869.249
12/04/2021  19:50:00     -159.378       45.674      -12.984       26.806       22.750       16.377      718.587      517.569      268.215        1.458        0.075      165.793       11.776        0.005      336.223        7.379      869.255
12/04/2021  19:51:00     -163.045       51.029      -14.401       14.962       19.729       15.595      223.850      389.237      243.204        1.513        0.043      170.844        7.944        0.002      336.105        7.183      869.262
12/04/2021  19:52:00     -166.123       77.165      -10.847       43.631       29.675       25.511     1903.626      880.622      650.790        1.855        0.172      183.170       21.840        0.014      336.234        7.398      869.266
12/04/2021  19:53:00     -156.944       75.691       -7.693       54.806       42.092       34.110     3003.691     1771.736     1163.518        1.818        0.297      174.243       30.682        0.031      336.124        7.215      869.267
12/04/2021  19:54:00     -165.811       50.734       -6.646       59.510       41.149       32.057     3541.477     1693.203     1027.621        1.819        0.313      173.399       28.911        0.028      336.197        7.334      869.270
12/04/2021  19:55:00     -180.103       71.741        1.765       68.466       45.609       38.833     4687.556     2080.162     1507.966        2.293        0.414      193.866       36.572        0.036      336.014        7.031      869.271
12/04/2021  19:56:00     -173.699       55.333       -3.774       55.429       39.718       31.897     3072.345     1577.548     1017.417        1.946        0.283      182.300       28.064        0.024      336.203        7.346      869.271
12/04/2021  19:57:00     -180.517       57.627       -6.697       48.827       40.345       31.591     2384.118     1627.718      998.002        2.048        0.250      189.492       27.067        0.020      336.188        7.319      869.279
12/04/2021  19:58:00     -182.150       79.171       -9.218       53.366       45.064       36.484     2847.911     2030.765     1331.105        2.287        0.310      198.612       33.769        0.029      336.084        7.146      869.293
12/04/2021  19:59:00     -191.639      100.356      -23.839       66.251       47.501       34.900     4389.225     2256.328     1218.012        2.761        0.393      216.325       23.753        0.012      336.315        7.531      869.299
12/04/2021  20:00:00     -211.689      108.372      -27.726       53.185       50.961       35.871     2828.594     2597.055     1286.756        3.202        0.336      237.816       18.521        0.006      336.107        7.183      869.303
12/04/2021  20:01:00     -196.629       81.109       -8.749       70.584       53.215       31.672     4982.164     2831.846     1003.129        2.707        0.441      212.700       24.133        0.013      335.948        6.917      869.312
12/04/2021  20:02:00     -227.054       58.238      -21.812       54.225       41.342       33.420     2940.309     1709.201     1116.873        3.059        0.288      234.404       15.642        0.004      336.020        7.039      869.314
12/04/2021  20:03:00     -229.361       73.339      -19.794       52.419       44.206       33.946     2747.787     1954.152     1152.362        3.211        0.293      240.801       25.880        0.012      335.896        6.831      869.328
12/04/2021  20:04:00     -202.314       68.158      -42.578       45.191       36.201       27.537     2042.243     1310.504      758.278        2.575        0.206      213.486       20.515        0.009      336.006        7.016      869.336
12/04/2021  20:05:00      -53.811       25.536       -9.004       77.931       46.789       43.674     6073.251     2189.178     1907.450        0.690        0.508       59.562       45.125        0.574      336.126        7.217      869.335
12/04/2021  20:06:00     -117.323       35.052       -6.141       77.504       65.310       36.611     6006.919     4265.415     1340.352        1.332        0.581      122.447       33.244        0.074      336.145        7.249      869.346
12/04/2021  20:07:00     -149.941       85.369      -31.994       45.595       51.365       36.023     2078.949     2638.321     1297.660        1.840        0.301      172.540       21.993        0.016      336.203        7.345      869.365
12/04/2021  20:08:00     -160.815       51.784      -15.225       57.582       38.867       31.135     3315.725     1510.626      969.385        1.728        0.290      168.946       22.314        0.017      336.022        7.045      869.375
12/04/2021  20:09:00     -130.063       -0.103       -8.039       74.991       48.246       36.142     5623.601     2327.671     1306.232        1.312        0.463      130.063       38.498        0.088      335.943        6.913      869.377
12/04/2021  20:10:00     -112.394       38.088      -10.322       70.098       50.215       34.692     4913.737     2521.590     1203.549        1.141        0.432      118.672       17.862        0.023      335.983        6.980      869.375
12/04/2021  20:11:00      -85.951       19.741       -7.647       64.135       41.672       33.510     4113.362     1736.586     1122.899        0.740        0.349       88.189       25.075        0.081      336.112        7.196      869.359
12/04/2021  20:12:00     -134.771        7.014        2.334       75.485       37.989       31.345     5697.996     1443.144      982.484        1.317        0.406      134.954       30.686        0.052      336.565        7.952      869.354
12/04/2021  20:13:00     -113.601        3.870        0.169       83.224       56.818       41.929     6926.303     3228.310     1758.066        1.241        0.596      113.667       33.698        0.088      336.498        7.839      869.368
12/04/2021  20:14:00     -171.370      -12.615      -18.636       44.725       41.046       29.174     2000.367     1684.736      851.136        1.720        0.227      171.834       13.430        0.006      336.472        7.796      869.367
12/04/2021  20:15:00     -125.053       40.338       -6.592       63.016       50.757       31.362     3971.059     2576.319      983.559        1.242        0.377      131.398       32.508        0.061      336.322        7.546      869.372
12/04/2021  20:16:00     -104.408       29.557      -15.883       41.277       31.011       29.541     1703.771      961.711      872.643        0.778        0.177      108.511       23.796        0.048      336.239        7.406      869.356
12/04/2021  20:17:00      -66.321        1.467       -5.455       57.189       44.170       26.222     3270.552     1950.991      687.613        0.517        0.295       66.338        4.252        0.004      336.159        7.274      869.351
12/04/2021  20:18:00     -173.037      -11.838      -12.232       58.913       50.132       28.599     3470.784     2513.182      817.921        1.852        0.340      173.442       28.570        0.027      336.147        7.251      869.360
12/04/2021  20:19:00     -149.929       13.335       -2.518       54.837       43.401       28.439     3007.071     1883.675      808.771        1.418        0.285      150.521       26.236        0.030      336.112        7.193      869.366
12/04/2021  20:20:00      -90.008       -5.071       -8.118       69.507       44.222       32.479     4831.193     1955.552     1054.871        0.802        0.392       90.151       21.454        0.057      336.042        7.078      869.375
12/04/2021  20:21:00      -52.714       -2.937       -8.099       60.565       33.527       30.292     3668.097     1124.061      917.593        0.428        0.285       52.796       30.158        0.326      336.014        7.031      869.374
12/04/2021  20:22:00     -130.183       -6.836       -6.759       53.076       49.600       43.551     2817.083     2460.146     1896.671        1.211        0.359      130.362       29.419        0.051      335.834        6.732      869.367
12/04/2021  20:23:00      -43.055      -10.466       -6.577       54.735       44.259       38.891     2995.910     1958.844     1512.492        0.424        0.323       44.309       31.276        0.498      335.835        6.733      869.373
12/04/2021  20:24:00      -50.367       -5.250       -5.313       61.478       28.202       30.075     3779.500      795.375      904.477        0.403        0.274       50.639       25.704        0.258      335.853        6.766      869.377
12/04/2021  20:25:00     -131.003       -7.310       -8.139       48.573       31.654       31.475     2359.378     1001.979      990.689        1.082        0.218      131.207       31.217        0.057      335.975        6.966      869.386
12/04/2021  20:26:00     -100.321      -11.955       -8.007       74.080       37.566       33.135     5487.864     1411.182     1097.935        0.913        0.400      101.031       35.860        0.126      335.920        6.874      869.391
12/04/2021  20:27:00      -87.985       -3.349      -12.110       61.944       47.527       34.587     3837.098     2258.841     1196.248        0.759        0.365       88.049       30.294        0.118      335.920        6.875      869.403
12/04/2021  20:28:00     -119.778       11.252       -6.907       63.165       40.152       29.668     3989.763     1612.209      880.183        1.050        0.324      120.306       29.484        0.060      335.878        6.806      869.422
12/04/2021  20:29:00     -143.483        0.202      -12.480       65.908       35.227       32.320     4343.917     1240.916     1044.570        1.369        0.331      143.483       23.659        0.027      335.839        6.741      869.444
12/04/2021  20:30:00     -185.380      -25.184      -22.549       60.749       37.453       31.255     3690.385     1402.762      976.885        2.079        0.304      187.083       32.849        0.031      335.948        6.920      869.451
12/04/2021  20:31:00     -159.248        5.343      -13.929       39.941       34.544       24.242     1595.310     1193.322      587.662        1.448        0.169      159.337       16.608        0.011      336.017        7.037      869.446
12/04/2021  20:32:00     -136.554       -9.293       -2.457       58.002       40.791       29.912     3364.182     1663.914      894.698        1.233        0.296      136.869       28.712        0.044      336.047        7.086      869.437
12/04/2021  20:33:00     -126.414        0.635      -10.987       66.157       43.335       34.071     4376.770     1877.915     1160.811        1.176        0.371      126.416       29.651        0.055      336.150        7.258      869.437
12/04/2021  20:34:00     -123.075       -9.387       -7.035       51.207       35.153       29.159     2622.126     1235.745      850.249        1.000        0.235      123.432       27.095        0.048      336.150        7.258      869.441
12/04/2021  20:35:00     -143.700      -15.184       -3.082       59.206       26.797       27.195     3505.331      718.079      739.573        1.293        0.248      144.500       25.296        0.031      336.235        7.399      869.455
12/04/2021  20:36:00     -162.764       -2.490      -14.087       48.862       36.064       26.130     2387.464     1300.609      682.756        1.553        0.219      162.783       15.204        0.009      336.251        7.427      869.465
12/04/2021  20:37:00     -137.871      -11.261      -18.900       43.907       31.846       22.230     1927.794     1014.176      494.171        1.146        0.172      138.330       13.329        0.009      336.192        7.328      869.477
12/04/2021  20:38:00     -134.312      -37.637      -19.138       17.154       40.891       21.655      294.251     1672.092      468.950        1.113        0.122      139.486       18.628        0.018      336.307        7.522      869.484
12/04/2021  20:39:00     -171.138       -9.141      -14.597       46.405       27.983       29.605     2153.380      783.025      876.437        1.670        0.191      171.382       29.017        0.029      336.253        7.430      869.485
12/04/2021  20:40:00      -81.889      -17.466       -0.976       54.932       27.951       27.505     3017.519      781.277      756.534        0.578        0.228       83.731       25.460        0.092      336.135        7.232      869.488
12/04/2021  20:41:00      -71.982       27.001      -10.456       39.742       30.197       15.984     1579.431      911.842      255.474        0.438        0.137       76.880       16.928        0.048      336.072        7.128      869.507
12/04/2021  20:42:00      -66.831       17.543      -10.187       26.839       28.671       13.263      720.344      822.004      175.909        0.330        0.086       69.095        9.598        0.019      336.051        7.093      869.524
12/04/2021  20:43:00       -2.318      -32.531      -16.227       14.864       21.264       16.278      220.926      452.138      264.961        0.113        0.047       32.614        8.601        0.070      336.135        7.234      869.540
12/04/2021  20:44:00       10.219      -30.377      -16.742       21.671       23.276       19.091      469.618      541.753      364.478        0.134        0.069       32.050       16.143        0.254      336.068        7.122      869.555
12/04/2021  20:45:00       41.940      -13.447       -9.804       33.069       12.835       10.670     1093.589      164.740      113.845        0.170        0.069       44.043        9.431        0.046      335.770        6.624      869.576
12/04/2021  20:46:00       48.065      -21.718      -13.384       30.146       20.150       23.163      908.784      406.021      536.528        0.241        0.093       52.744       19.854        0.142      335.573        6.298      869.591
12/04/2021  20:47:00       65.869       -0.134      -16.432       28.723       29.959       22.691      825.034      897.517      514.868        0.342        0.112       65.869       15.586        0.056      335.503        6.180      869.587
12/04/2021  20:48:00       36.771       19.820       -7.174       19.110        8.075        5.985      365.207       65.211       35.818        0.113        0.023       41.772        7.140        0.029      335.820        6.709      869.596
12/04/2021  20:49:00      -16.854       15.395       -6.091       25.761       21.554       13.253      663.637      464.595      175.641        0.093        0.065       22.827       16.005        0.492      335.821        6.710      869.602
12/04/2021  20:50:00      -42.173      -15.130      -11.565       25.624       18.250       17.944      656.598      333.057      321.975        0.173        0.066       44.804       12.489        0.078      335.589        6.324      869.622
12/04/2021  20:51:00      -29.546       13.366      -10.618       26.985       18.292       16.588      728.208      334.592      275.146        0.125        0.067       32.429       16.152        0.248      335.415        6.034      869.647
12/04/2021  20:52:00      -84.868        5.718       -4.595       34.457       20.806       16.710     1187.280      432.884      279.234        0.458        0.095       85.060       10.872        0.016      335.458        6.105      869.662
12/04/2021  20:53:00      -78.597       -8.029      -10.566       42.815       26.816       22.507     1833.102      719.120      506.586        0.471        0.153       79.006       15.290        0.037      335.506        6.186      869.678
12/04/2021  20:54:00      -62.544       -3.704       -0.437       45.960       24.560       21.377     2112.325      603.195      456.988        0.355        0.159       62.654       20.521        0.107      335.603        6.347      869.680
12/04/2021  20:55:00     -131.080       23.874       -9.198       49.603       25.303       23.397     2460.453      640.227      547.407        1.074        0.182      133.237       17.448        0.017      335.739        6.573      869.695
12/04/2021  20:56:00     -115.744       71.618      -13.361       40.826       25.963       26.813     1666.723      674.094      718.934        1.088        0.153      136.109       25.001        0.034      336.250        7.425      869.710
12/04/2021  20:57:00      -38.959        2.406        1.687       38.685       40.172       21.680     1496.531     1613.774      470.042        0.255        0.179       39.034       23.657        0.367      336.396        7.670      869.722
12/04/2021  20:58:00      -12.610      -42.503      -16.830       24.792       24.744       13.393      614.633      612.248      179.371        0.183        0.070       44.334        8.564        0.037      335.826        6.718      869.745
12/04/2021  20:59:00        6.088      -25.662      -14.962       10.765       15.615       10.228      115.882      243.822      104.622        0.069        0.023       26.374        8.441        0.102      335.774        6.631      869.753
12/04/2021  21:00:00       19.799      -29.754       -7.072       16.327       17.819        9.830      266.580      317.515       96.626        0.100        0.034       35.739       12.170        0.116      335.725        6.550      869.761
12/04/2021  21:01:00       47.039      -55.152      -18.897       18.704       23.593       15.255      349.847      556.638      232.704        0.338        0.057       72.487       15.536        0.046      335.524        6.214      869.777
12/04/2021  21:02:00       53.899      -55.888      -29.223       27.078       33.239       24.494      733.191     1104.842      599.956        0.466        0.122       77.644       18.887        0.059      335.489        6.156      869.801
12/04/2021  21:03:00       11.302      -80.765      -27.301       56.270       47.501       20.870     3166.362     2256.340      435.557        0.663        0.293       81.552       13.490        0.027      335.619        6.375      869.819
12/04/2021  21:04:00      -25.114      -12.945      -20.269       28.018       26.373       22.970      785.005      695.514      527.606        0.161        0.100       28.254       18.127        0.412      335.541        6.244      869.839
12/04/2021  21:05:00      -11.116       18.152      -10.596       17.288       13.229       10.448      298.888      175.019      109.151        0.057        0.029       21.285        6.841        0.103      335.697        6.504      869.872
12/04/2021  21:06:00      -21.748       -0.945       -1.730       18.716       15.777       10.009      350.283      248.899      100.183        0.059        0.035       21.768        5.992        0.076      335.574        6.299      869.890
12/04/2021  21:07:00      -83.933      -49.822       -6.614       50.591       40.800       19.692     2559.424     1664.616      387.755        0.709        0.231       97.606       26.059        0.071      335.617        6.370      869.904
12/04/2021  21:08:00      -67.192      -43.397       -7.897       45.829       38.837       24.648     2100.334     1508.295      607.515        0.534        0.211       79.988       28.884        0.130      335.707        6.518      869.897
12/04/2021  21:09:00       -8.588        9.484       -1.296       14.579       15.596       10.081      212.541      243.239      101.620        0.036        0.028       12.795        4.614        0.130      335.564        6.282      869.900
12/04/2021  21:10:00      -15.713        6.660        3.341       17.471       21.187       13.927      305.235      448.906      193.974        0.063        0.047       17.066       10.583        0.385      335.455        6.100      869.919
12/04/2021  21:11:00      -62.813      -16.618      -14.681       33.955       24.555       22.603     1152.948      602.964      510.890        0.335        0.113       64.974       16.149        0.062      335.390        5.992      869.941
12/04/2021  21:12:00      -56.405      -11.323       -6.118       33.659       28.726       14.418     1132.946      825.186      207.878        0.276        0.108       57.530       12.951        0.051      335.560        6.275      869.943
12/04/2021  21:13:00       -0.729      -20.408        0.569        9.815       21.002       10.075       96.336      441.094      101.515        0.053        0.032       20.421        5.424        0.071      335.563        6.279      869.939
12/04/2021  21:14:00        6.129       12.727       -3.274       12.015       13.057        6.058      144.362      170.479       36.703        0.028        0.018       14.126        6.112        0.187      335.581        6.311      869.950
12/04/2021  21:15:00       10.401       27.141       -6.581       17.028       11.163        9.586      289.964      124.612       91.887        0.070        0.025       29.066        3.745        0.017      335.563        6.281      869.962
12/04/2021  21:16:00       45.501       39.186       -5.484       13.735       22.129        9.617      188.645      489.694       92.482        0.220        0.039       60.049       10.041        0.028      335.415        6.035      869.968
12/04/2021  21:17:00       47.376       40.143      -13.412       15.819       17.371       10.176      250.229      301.763      103.551        0.235        0.033       62.096        8.697        0.020      335.109        5.526      869.983
12/04/2021  21:18:00       15.018       -2.107       -4.461       14.132       12.772        9.243      199.727      163.126       85.425        0.035        0.022       15.166        9.986        0.434      335.022        5.381      869.987
12/04/2021  21:19:00       44.134       16.442       -5.720       20.745       20.643        7.664      430.373      426.144       58.732        0.158        0.046       47.097       10.006        0.045      335.085        5.485      869.995
12/04/2021  21:20:00       50.061       50.690       -7.550       16.798       11.695       11.402      282.178      136.774      130.016        0.284        0.027       71.243        5.918        0.007      335.143        5.580      870.007
12/04/2021  21:21:00       17.778       49.396       -9.547       14.462       27.478       10.543      209.145      755.027      111.145        0.196        0.054       52.498       11.593        0.049      335.206        5.686      870.024
12/04/2021  21:22:00        2.395       -9.577       -2.505       21.250       19.670        9.845      451.556      386.895       96.918        0.052        0.047        9.872        3.196        0.105      335.143        5.581      870.039
12/04/2021  21:23:00       38.049       38.744      -13.929       14.495        9.813        8.739      210.098       96.292       76.366        0.176        0.019       54.303        4.984        0.008      335.239        5.740      870.045
12/04/2021  21:24:00       22.894       26.963      -12.510       16.947        7.695       12.795      287.187       59.219      163.721        0.096        0.026       35.372        6.977        0.039      335.224        5.715      870.059
12/04/2021  21:25:00       13.556       26.481       -4.317       15.430        8.349       10.557      238.091       69.700      111.445        0.066        0.021       29.749        8.244        0.077      335.281        5.808      870.087
12/04/2021  21:26:00       18.848       17.823       -7.051       15.883       11.107        8.816      252.278      123.374       77.729        0.059        0.023       25.940        8.468        0.107      335.187        5.653      870.107
12/04/2021  21:27:00       16.317       14.443       -3.272       12.039       11.504        7.055      144.940      132.351       49.769        0.041        0.016       21.791        5.491        0.063      335.136        5.570      870.122
12/04/2021  21:28:00       13.795       32.453       -2.170       13.415       11.293        9.951      179.958      127.527       99.019        0.083        0.020       35.263        8.023        0.052      335.153        5.598      870.125
12/04/2021  21:29:00      -10.517       22.991       -5.632       12.127       13.237       10.420      147.071      175.214      108.584        0.055        0.022       25.282        8.110        0.103      335.037        5.405      870.130
12/04/2021  21:30:00       11.197       13.827       -8.313       14.480       13.774        8.071      209.670      189.729       65.141        0.043        0.023       17.793        5.912        0.110      335.093        5.498      870.131
12/04/2021  21:31:00       42.138       28.741       -7.101        8.744        7.033        8.010       76.451       49.466       64.154        0.142        0.010       51.006        4.730        0.009      335.217        5.703      870.138
12/04/2021  21:32:00       37.680       27.309       -7.058        7.684        6.721        5.481       59.044       45.177       30.037        0.117        0.007       46.536        4.055        0.008      335.226        5.717      870.157
12/04/2021  21:33:00      -11.895        4.511      -10.453       23.707       20.649       10.370      562.014      426.394      107.541        0.068        0.055       12.722        9.983        0.616      335.177        5.637      870.181
12/04/2021  21:34:00      -30.004       17.805       -0.518       36.688       18.992       14.405     1346.013      360.706      207.504        0.157        0.096       34.890       17.688        0.257      334.862        5.117      870.208
12/04/2021  21:35:00      -64.488       18.785      -13.528       21.165       13.946       11.093      447.974      194.481      123.050        0.273        0.038       67.168        2.243        0.001      334.927        5.224      870.235
12/04/2021  21:36:00      -61.863       14.202      -18.361        8.524        5.699        5.898       72.660       32.480       34.788        0.225        0.007       63.472        4.583        0.005      335.161        5.609      870.259
12/04/2021  21:37:00      -44.395       14.868      -11.812        6.483        4.321        5.826       42.023       18.675       33.948        0.121        0.005       46.818        4.773        0.010      335.088        5.490      870.271
12/04/2021  21:38:00      -65.636       15.254      -13.447        7.343        8.322        8.763       53.920       69.248       76.783        0.246        0.010       67.385        5.447        0.007      335.004        5.353      870.277
12/04/2021  21:39:00      -72.873       22.545      -19.916       16.448       14.221       11.624      270.526      202.226      135.118        0.341        0.030       76.280        5.442        0.005      334.949        5.260      870.289
12/04/2021  21:40:00      -66.223       21.603      -13.278       20.372       16.592       14.592      415.013      275.293      212.921        0.297        0.045       69.657        9.878        0.020      334.872        5.132      870.297
12/04/2021  21:41:00      -39.792        4.737      -12.305       14.038       17.797       11.849      197.067      316.742      140.405        0.121        0.033       40.073        5.027        0.016      334.951        5.263      870.297
12/04/2021  21:42:00       -4.660       15.625      -10.753       20.314        9.808       10.052      412.642       96.204      101.049        0.050        0.030       16.305        8.592        0.278      335.528        6.223      870.306
12/04/2021  21:43:00       -9.884       14.319       -5.168       15.997        9.093        9.283      255.916       82.687       86.166        0.038        0.021       17.399        9.032        0.269      335.426        6.051      870.309
12/04/2021  21:44:00       -3.019        8.107       -8.763        9.238       10.260        7.228       85.345      105.259       52.245        0.020        0.012        8.651        5.741        0.440      335.384        5.984      870.308
12/04/2021  21:45:00      -34.540        1.367      -13.772       17.344        8.460        8.440      300.798       71.567       71.235        0.091        0.022       34.567        5.555        0.026      335.219        5.708      870.314
12/04/2021  21:46:00      -61.262        4.697      -18.778       22.313       18.985       10.975      497.883      360.425      120.443        0.255        0.049       61.442        6.098        0.010      334.764        4.952      870.323
12/04/2021  21:47:00      -86.460       26.094      -21.453       18.821       18.553       14.302      354.246      344.227      204.537        0.476        0.045       90.312       10.472        0.013      334.612        4.699      870.334
12/04/2021  21:48:00     -110.871       53.843      -19.646       25.049       22.763       14.241      627.452      518.154      202.808        0.846        0.067      123.254        4.811        0.002      334.545        4.588      870.342
12/04/2021  21:49:00      -96.796       33.728      -26.247       30.154       30.421       18.648      909.290      925.430      347.755        0.669        0.109      102.504       18.543        0.033      334.445        4.420      870.349
12/04/2021  21:50:00      -92.534        4.750      -27.523       29.235       20.039       22.022      854.661      401.572      484.975        0.554        0.087       92.656       10.382        0.013      334.487        4.492      870.353
12/04/2021  21:51:00      -60.095        3.882      -30.083       28.191       24.466       18.240      794.738      598.573      332.705        0.313        0.086       60.220       17.496        0.084      334.549        4.595      870.351
12/04/2021  21:52:00      -42.630       -4.113      -21.749       30.531       28.557       21.138      932.171      815.501      446.803        0.225        0.110       42.828       22.763        0.282      334.504        4.519      870.355
12/04/2021  21:53:00      -62.901       -4.266      -10.636       45.812       26.428       21.429     2098.703      698.430      459.212        0.367        0.163       63.045       19.869        0.099      334.365        4.290      870.373
12/04/2021  21:54:00     -128.259       52.809      -16.102       16.418       16.931       14.418      269.543      286.645      207.892        1.013        0.038      138.705        8.065        0.003      334.561        4.615      870.388
12/04/2021  21:55:00     -109.131       48.525       -6.829       27.589       18.619       17.651      761.176      346.670      311.550        0.786        0.071      119.433       14.614        0.015      334.360        4.280      870.389
12/04/2021  21:56:00     -126.596       45.737      -24.290       14.026       15.554       12.291      196.720      241.919      151.070        0.965        0.029      134.605        5.576        0.002      334.401        4.348      870.395
12/04/2021  21:57:00      -68.707       12.030      -10.422       34.859       21.346       18.340     1215.179      455.645      336.368        0.349        0.100       69.752       17.582        0.064      334.420        4.381      870.397
12/04/2021  21:58:00      -21.797        2.184       -7.045       25.083       22.677       15.138      629.156      514.267      229.174        0.095        0.069       21.906       12.218        0.311      334.410        4.363      870.397
12/04/2021  21:59:00      -63.377        2.887       -7.007       52.640       25.078       19.363     2770.986      628.891      374.937        0.392        0.189       63.443       22.890        0.130      334.430        4.396      870.403
12/04/2021  22:00:00     -103.693       20.259      -10.324       19.871       23.661       12.676      394.863      559.863      160.676        0.619        0.056      105.653        9.481        0.008      334.556        4.605      870.403
12/04/2021  22:01:00     -107.124       56.907      -19.323       15.370       15.025       11.242      236.225      225.746      126.393        0.784        0.029      121.301        4.823        0.002      334.479        4.478      870.402
12/04/2021  22:02:00     -117.503       63.159      -23.364       17.356       14.895       13.043      301.238      221.865      170.113        0.952        0.035      133.402        6.719        0.003      334.512        4.533      870.410
12/04/2021  22:03:00     -109.063       13.590      -16.257       56.322       35.761       29.176     3172.215     1278.838      851.229        0.882        0.265      109.906       16.617        0.023      334.376        4.306      870.413
12/04/2021  22:04:00      -88.087       20.701       -6.622       64.758       30.199       30.336     4193.628      911.999      920.262        0.713        0.301       90.486       24.845        0.075      334.352        4.267      870.408
12/04/2021  22:05:00      -78.054        8.957      -10.804       66.749       43.545       37.344     4455.391     1896.136     1394.559        0.702        0.387       78.567       31.680        0.163      334.243        4.087      870.398
12/04/2021  22:06:00      -51.532       -4.132       -8.143       65.783       45.738       31.569     4327.352     2091.942      996.592        0.508        0.371       51.697       31.706        0.376      334.230        4.065      870.390
12/04/2021  22:07:00      -70.987       30.120       -4.161       45.288       28.858       24.268     2051.012      832.783      588.943        0.472        0.174       77.112       17.076        0.049      334.207        4.026      870.375
12/04/2021  22:08:00      -83.821       53.424      -15.134       17.146       18.578       18.178      293.977      345.134      330.433        0.554        0.048       99.399       12.873        0.017      334.224        4.055      870.359
12/04/2021  22:09:00     -125.105       48.017      -24.197       26.190       22.187       16.545      685.936      492.284      273.721        1.000        0.073      134.003        9.252        0.005      334.444        4.420      870.359
12/04/2021  22:10:00     -167.157       31.267      -22.063       95.730       73.681       38.542     9164.279     5428.956     1485.465        2.274        0.804      170.056       28.146        0.027      334.169        3.963      870.365
12/04/2021  22:11:00      -96.353      -12.519      -12.622       74.887       46.187       33.254     5608.121     2133.230     1105.797        0.922        0.442       97.163       16.298        0.028      334.130        3.898      870.355
12/04/2021  22:12:00      -56.897       15.438       -2.152       33.142       26.351       25.897     1098.359      694.360      670.629        0.297        0.123       58.954       18.498        0.098      334.284        4.155      870.346
12/04/2021  22:13:00      -73.195       65.100      -13.786       49.017       41.229       25.051     2402.684     1699.821      627.564        0.726        0.237       97.957       26.574        0.074      334.398        4.344      870.360
12/04/2021  22:14:00      -87.041       38.065      -14.370       44.949       41.773       28.845     2020.427     1744.995      832.023        0.691        0.230       95.001       21.746        0.052      334.610        4.694      870.352
12/04/2021  22:15:00      -46.608       16.242      -10.278       40.451       30.085       21.798     1636.308      905.081      475.150        0.278        0.151       49.357       19.244        0.152      334.496        4.504      870.353
12/04/2021  22:16:00      -25.293       -2.928       -2.945       49.272       26.453       25.777     2427.776      699.736      664.431        0.222        0.190       25.462       27.357        1.154      334.251        4.100      870.370
12/04/2021  22:17:00      -83.395       15.588       -8.475       42.889       24.113       17.055     1839.439      581.426      290.857        0.499        0.136       84.840       14.707        0.030      334.241        4.082      870.397
12/04/2021  22:18:00      -40.715        9.390      -14.733       47.985       32.579       29.060     2302.559     1061.362      844.503        0.308        0.210       41.784       20.469        0.240      334.146        3.924      870.408
12/04/2021  22:19:00      -70.865        1.812      -15.363       85.364       33.508       34.888     7287.086     1122.777     1217.152        0.744        0.481       70.888       36.946        0.272      334.016        3.711      870.424
12/04/2021  22:20:00      -55.064       -4.045      -11.416       50.645       33.170       35.012     2564.913     1100.273     1225.862        0.403        0.245       55.212       31.940        0.335      334.165        3.957      870.426
12/04/2021  22:21:00     -141.174       23.537        1.650       52.181       36.161       27.728     2722.808     1307.648      768.849        1.264        0.240      143.123       24.031        0.028      334.187        3.993      870.437
12/04/2021  22:22:00     -125.074       74.371       -8.403       53.862       52.464       33.706     2901.138     2752.468     1136.085        1.402        0.339      145.515       32.193        0.049      334.316        4.209      870.450
12/04/2021  22:23:00      -65.023        4.472       -1.399       55.694       46.866       29.816     3101.770     2196.459      888.988        0.522        0.309       65.176       22.187        0.116      334.471        4.466      870.438
12/04/2021  22:24:00      -21.072       -9.848      -15.596       29.429       24.372       15.398      866.053      593.985      237.108        0.124        0.085       23.259        8.340        0.129      334.342        4.250      870.430
12/04/2021  22:25:00      -75.502       -2.562       -6.474       59.093       47.392       31.083     3491.935     2245.978      966.173        0.623        0.335       75.545       24.189        0.103      334.203        4.020      870.453
12/04/2021  22:26:00     -120.722       23.024       -3.946       61.692       35.253       32.875     3805.912     1242.804     1080.788        1.062        0.306      122.898       27.940        0.052      334.133        3.903      870.494
12/04/2021  22:27:00      -65.330        0.250        0.437       49.636       27.614       20.736     2463.746      762.529      429.988        0.396        0.183       65.330       15.105        0.053      334.285        4.155      870.513
12/04/2021  22:28:00     -110.730       -8.862      -18.729       37.287       20.677       17.167     1390.343      427.531      294.693        0.740        0.106      111.084       12.309        0.012      334.491        4.497      870.514
12/04/2021  22:29:00      -39.537       -1.043       -3.064       34.213       24.832       16.695     1170.539      616.607      278.720        0.182        0.103       39.551       14.045        0.126      334.550        4.594      870.499
12/04/2021  22:30:00     -113.986       38.921      -16.098       26.354       13.344       12.316      694.536      178.061      151.676        0.790        0.051      120.448       12.803        0.011      334.307        4.193      870.506
12/04/2021  22:31:00      -98.678       20.513      -11.507       42.123       24.780       23.301     1774.354      614.060      542.943        0.661        0.147      100.788       17.924        0.032      334.190        3.999      870.528
12/04/2021  22:32:00     -114.783        1.252       -5.626       53.521       36.432       24.176     2864.470     1327.317      584.482        0.899        0.239      114.790       20.728        0.033      334.213        4.036      870.540
12/04/2021  22:33:00      -78.958       28.667       -8.247       37.034       23.432       18.941     1371.523      549.075      358.780        0.470        0.114       84.001       11.530        0.019      334.194        4.006      870.529
12/04/2021  22:34:00      -84.206       39.482      -11.533       20.387       23.490       11.254      415.620      551.765      126.654        0.494        0.055       93.002        2.065        0.000      334.371        4.300      870.522
12/04/2021  22:35:00      -89.421        1.294      -14.121       22.375       18.854       13.663      500.626      355.475      186.681        0.462        0.052       89.430        6.056        0.005      334.380        4.314      870.535
12/04/2021  22:36:00      -70.133        8.494       -1.834       41.365       20.756       20.275     1711.038      430.811      411.091        0.377        0.128       70.645       18.055        0.065      334.349        4.262      870.559
12/04/2021  22:37:00      -84.353       32.720       -5.815       39.444       18.350       14.941     1555.803      336.714      223.241        0.517        0.106       90.477       19.926        0.049      334.378        4.310      870.579
12/04/2021  22:38:00      -72.285       12.831      -10.515       24.495       22.666       16.619      600.004      513.743      276.187        0.344        0.069       73.415        7.142        0.009      334.510        4.528      870.587
12/04/2021  22:39:00      -72.856       19.185       -3.477       23.974       18.151       13.505      574.762      329.444      182.388        0.339        0.054       75.340       13.162        0.031      334.477        4.475      870.602
12/04/2021  22:40:00      -83.509       22.099       -3.786       44.538       21.862       15.957     1983.671      477.959      254.630        0.510        0.136       86.384       17.732        0.042      334.358        4.278      870.604
12/04/2021  22:41:00      -90.997       23.874       -0.859       44.856       26.308       25.008     2012.063      692.118      625.391        0.609        0.166       94.077       22.978        0.060      334.338        4.245      870.610
12/04/2021  22:42:00      -87.894       16.405       -2.095       34.991       23.944       21.663     1224.353      573.319      469.297        0.513        0.113       89.412       18.825        0.044      334.273        4.136      870.616
12/04/2021  22:43:00      -58.563       17.898        0.086       32.134       24.433       18.789     1032.626      596.958      353.038        0.287        0.099       61.237       14.470        0.056      334.249        4.097      870.615
12/04/2021  22:44:00      -80.020       26.448       -8.714       36.993       31.024       13.522     1368.447      962.514      182.856        0.485        0.126       84.277       12.491        0.022      334.198        4.010      870.618
12/04/2021  22:45:00     -107.451       32.215      -10.972       27.399       22.517       17.019      750.724      506.997      289.658        0.713        0.077      112.177       14.934        0.018      334.361        4.282      870.625
12/04/2021  22:46:00      -62.571        8.817       -6.330       27.533       20.371       15.863      758.079      414.975      251.623        0.273        0.071       63.189       14.012        0.049      334.434        4.402      870.629
12/04/2021  22:47:00      -62.697        2.426       -9.856       27.605       17.686       15.530      762.059      312.792      241.188        0.267        0.066       62.744        7.620        0.015      334.500        4.514      870.644
12/04/2021  22:48:00      -29.269       -4.657       -4.758       25.641       23.529       17.917      657.476      553.613      321.014        0.122        0.077       29.638       16.035        0.293      334.159        3.947      870.659
12/04/2021  22:49:00      -31.584       -3.795      -11.926       31.856       28.601       18.926     1014.794      818.004      358.180        0.167        0.110       31.811       16.710        0.276      334.080        3.816      870.667
12/04/2021  22:50:00     -109.236       14.257       -7.598       45.801       30.224       21.435     2097.772      913.473      459.477        0.783        0.174      110.162       20.709        0.035      334.079        3.814      870.671
12/04/2021  22:51:00      -91.086       30.454      -11.849       28.921       24.962       14.688      836.430      623.117      215.746        0.552        0.084       96.043        8.463        0.008      334.268        4.127      870.686
12/04/2021  22:52:00      -34.020        4.010       -4.280       21.986       17.834       11.495      483.405      318.061      132.124        0.106        0.047       34.255       10.637        0.096      334.421        4.381      870.694
12/04/2021  22:53:00      -22.911       -0.721       -7.680       23.329       15.782       10.367      544.261      249.068      107.477        0.074        0.045       22.922        3.328        0.021      334.299        4.178      870.711
12/04/2021  22:54:00      -67.318       22.742      -12.373       11.022       18.835        9.049      121.491      354.753       81.886        0.288        0.028       71.056        8.567        0.015      334.270        4.132      870.733
12/04/2021  22:55:00      -37.421       16.964      -10.530       12.428        8.623        9.883      154.466       74.348       97.678        0.106        0.016       41.086        5.814        0.020      334.264        4.120      870.748
12/04/2021  22:56:00      -37.810       16.779      -10.532       11.016       12.625       11.928      121.362      159.403      142.274        0.112        0.021       41.366        6.699        0.026      334.577        4.640      870.753
12/04/2021  22:57:00      -38.007       14.171      -12.650        8.788       18.786        8.446       77.222      352.901       71.330        0.115        0.025       40.563        6.576        0.026      334.613        4.700      870.757
12/04/2021  22:58:00      -33.832        3.917       -5.595       16.259       15.128        9.587      264.348      228.862       91.908        0.089        0.029       34.058        2.900        0.007      334.449        4.428      870.762
12/04/2021  22:59:00       -6.235        2.071       -1.637       11.534        8.403        9.619      133.029       70.614       92.516        0.017        0.015        6.570        5.721        0.758      334.346        4.257      870.763
12/04/2021  23:00:00      -31.169       10.565      -10.931       12.825       12.204       12.014      164.476      148.946      144.331        0.083        0.023       32.911        6.405        0.038      334.292        4.169      870.754
12/04/2021  23:01:00      -27.682       11.122      -10.654        8.222        8.621       10.213       67.594       74.320      104.296        0.062        0.012       29.833        6.681        0.050      334.231        4.066      870.759
12/04/2021  23:02:00      -40.099       16.467      -10.681        5.553        7.923        4.265       30.834       62.775       18.189        0.105        0.006       43.348        2.817        0.004      334.232        4.068      870.760
12/04/2021  23:03:00      -38.220      -10.407      -11.135        9.524       13.788        7.824       90.710      190.111       61.211        0.102        0.017       39.612        3.213        0.007      334.206        4.025      870.765
12/04/2021  23:04:00      -51.926       -7.533      -11.643       26.462       19.136       16.941      700.230      366.197      286.993        0.212        0.068       52.470       11.722        0.050      334.269        4.128      870.767
12/04/2021  23:05:00      -39.062        0.234      -10.468       32.646       22.146       16.583     1065.794      490.462      275.004        0.173        0.092       39.063       14.435        0.137      334.443        4.419      870.756
12/04/2021  23:06:00      -36.192       30.557      -10.161       25.043       17.761       18.465      627.164      315.440      340.939        0.181        0.064       47.367       14.960        0.100      334.440        4.414      870.753
12/04/2021  23:07:00      -58.421       16.516       -9.251       18.934       17.033       13.468      358.505      290.121      181.375        0.230        0.042       60.711        9.944        0.027      334.283        4.152      870.774
12/04/2021  23:08:00      -36.902       -3.782      -18.225       19.566       22.433       19.549      382.823      503.240      382.163        0.149        0.063       37.095        9.407        0.064      334.016        3.712      870.781
12/04/2021  23:09:00      -22.949       -2.954       -9.186       16.699       23.469       17.057      278.873      550.810      290.948        0.087        0.056       23.138       11.733        0.257      333.861        3.455      870.796
12/04/2021  23:10:00      -65.272       36.926      -15.859       17.298       24.566       15.331      299.217      603.499      235.030        0.351        0.057       74.993        8.999        0.014      333.845        3.427      870.799
12/04/2021  23:11:00      -74.721       58.213      -19.077       14.471        9.796        8.030      209.406       95.967       64.487        0.485        0.018       94.721        6.472        0.005      333.998        3.681      870.795
12/04/2021  23:12:00      -60.857       26.935       -9.999       20.123       14.022        8.913      404.937      196.627       79.435        0.260        0.034       66.551        8.004        0.014      333.988        3.665      870.801
12/04/2021  23:13:00      -85.521        9.637      -10.738       18.692       25.749       14.982      349.376      663.006      224.447        0.438        0.062       86.063       11.272        0.017      333.874        3.477      870.819
12/04/2021  23:14:00      -43.864      -11.222       -6.710       31.643       24.621       18.291     1001.256      606.183      334.567        0.202        0.097       45.277        8.492        0.035      333.709        3.203      870.841
12/04/2021  23:15:00      -51.631        6.218       -1.651       33.724       26.655       18.840     1137.340      710.487      354.933        0.245        0.110       52.004       16.417        0.100      333.687        3.166      870.845
12/04/2021  23:16:00      -81.133       39.304      -13.344       18.317       15.005       11.945      335.524      225.163      142.683        0.450        0.035       90.152       10.377        0.013      333.636        3.083      870.846
12/04/2021  23:17:00      -74.998       21.763      -13.528       29.289       21.970       15.500      857.860      482.685      240.235        0.393        0.079       78.092       11.309        0.021      333.548        2.935      870.859
12/04/2021  23:18:00      -66.941       32.027      -13.647       34.531       22.287       17.835     1192.421      496.712      318.070        0.385        0.100       74.208       17.703        0.057      333.623        3.060      870.872
12/04/2021  23:19:00      -52.682       16.323       -6.190       24.343       19.925       17.146      592.579      396.997      293.973        0.218        0.064       55.153        7.636        0.019      333.717        3.215      870.876
12/04/2021  23:20:00      -42.521       19.839      -13.729       24.600       20.959       18.960      605.143      439.274      359.479        0.190        0.070       46.922       16.037        0.117      333.713        3.209      870.879
12/04/2021  23:21:00      -47.064       18.434      -18.965       16.322       14.159        8.812      266.423      200.481       77.655        0.173        0.027       50.545        8.782        0.030      333.747        3.264      870.870
12/04/2021  23:22:00      -20.302        4.825       -1.900       16.986       11.579       15.640      288.523      134.081      244.616        0.055        0.033       20.868       10.633        0.260      333.776        3.312      870.869
12/04/2021  23:23:00      -26.073       -1.414       -6.777       37.722       17.696       18.731     1422.967      313.160      350.837        0.141        0.104       26.111       20.026        0.588      333.695        3.179      870.877
12/04/2021  23:24:00      -63.901       -6.597      -25.056       19.445       16.176       16.868      378.108      261.674      284.538        0.284        0.046       64.240        6.584        0.011      333.566        2.966      870.888
12/04/2021  23:25:00      -40.570       -3.707      -15.997       24.717       32.068       17.171      610.944     1028.388      294.827        0.192        0.097       40.739       14.514        0.127      333.636        3.082      870.894
12/04/2021  23:26:00      -19.421        3.961        2.514       44.879       17.837       24.326     2014.105      318.146      591.772        0.166        0.146       19.820       24.707        1.554      333.535        2.914      870.898
12/04/2021  23:27:00     -103.507       34.658      -11.001       12.955       15.389       11.782      167.838      236.807      138.812        0.629        0.027      109.155        8.869        0.007      333.598        3.019      870.895
12/04/2021  23:28:00      -84.972       32.090      -13.133       16.548       16.131       10.628      273.822      260.212      112.956        0.453        0.032       90.829        7.214        0.006      333.664        3.129      870.885
12/04/2021  23:29:00      -85.317       41.323      -12.271       12.623       12.129       10.399      159.345      147.107      108.140        0.478        0.021       94.798        6.253        0.004      333.652        3.109      870.881
12/04/2021  23:30:00      -75.829       36.705       -2.319       24.003       25.215       15.711      576.161      635.789      246.834        0.428        0.073       84.246       11.371        0.018      333.615        3.046      870.868
12/04/2021  23:31:00      -45.613       27.313       -1.017       26.709       16.569        9.357      713.391      274.519       87.547        0.195        0.054       53.165        9.356        0.031      333.709        3.201      870.853
12/04/2021  23:32:00        3.823       -1.307       -8.438       10.886       13.816        5.604      118.514      190.871       31.410        0.021        0.017        4.040        3.473        0.739      333.937        3.581      870.831
12/04/2021  23:33:00      -34.028       20.935       -7.691       37.087       24.662        9.337     1375.441      608.197       87.175        0.186        0.104       39.952        3.950        0.010      333.796        3.346      870.823
12/04/2021  23:34:00     -103.745       57.049      -19.726       25.739       25.118       22.108      662.476      630.919      488.759        0.809        0.089      118.396       13.748        0.013      333.474        2.812      870.836
12/04/2021  23:35:00        4.087       18.363      -14.728       46.914       38.576       10.881     2200.962     1488.098      118.390        0.219        0.190       18.813        5.719        0.092      333.898        3.516      870.821
12/04/2021  23:36:00       38.201      -39.405      -25.749       27.567       21.609       17.740      759.938      466.953      314.723        0.261        0.077       54.883       13.932        0.064      333.674        3.146      870.788
12/04/2021  23:37:00     -121.808       32.996      -21.691       51.031       34.515       24.673     2604.199     1191.272      608.758        1.040        0.220      126.198        8.960        0.005      333.610        3.039      870.810
12/04/2021  23:38:00      -64.063       41.849       -5.625       42.305       21.837       20.113     1789.712      476.873      404.532        0.428        0.134       76.520       14.280        0.035      333.249        2.441      870.830
12/04/2021  23:39:00      -17.588       16.484       -9.037        7.531        8.742        6.548       56.717       76.415       42.876        0.042        0.009       24.105        2.987        0.015      333.663        3.125      870.815
12/04/2021  23:40:00      -33.904       18.474      -11.133       20.923       15.736       13.027      437.767      247.625      169.712        0.123        0.043       38.610        9.425        0.060      333.577        2.984      870.810
12/04/2021  23:41:00      -41.431       -5.035      -26.002       30.903       14.666       17.374      955.025      215.084      301.840        0.194        0.074       41.736       16.058        0.148      333.358        2.622      870.817
12/04/2021  23:42:00      -15.884      -16.766      -15.093        7.376       12.351        9.547       54.406      152.550       91.137        0.053        0.015       23.096        8.041        0.121      333.670        3.137      870.800
12/04/2021  23:43:00      -47.525        8.353      -16.266       20.408       16.180       10.466      416.486      261.784      109.527        0.169        0.039       48.253        4.344        0.008      333.546        2.934      870.810
12/04/2021  23:44:00      -47.951       25.408      -15.542       12.005       12.420        9.987      144.114      154.260       99.747        0.179        0.020       54.267        5.968        0.012      333.431        2.742      870.829
12/04/2021  23:45:00      -44.122       10.409      -12.475       11.099        9.023        7.518      123.182       81.413       56.524        0.124        0.013       45.333        3.142        0.005      333.573        2.979      870.822
12/04/2021  23:46:00      -67.564       34.541      -14.395       14.831       12.950        8.831      219.958      167.703       77.991        0.322        0.023       75.881        7.252        0.009      333.490        2.841      870.831
12/04/2021  23:47:00      -32.129       19.213      -10.389       16.625       11.843        4.445      276.379      140.265       19.759        0.097        0.022       37.436        4.208        0.013      333.623        3.061      870.829
12/04/2021  23:48:00      -23.711        7.200       -8.922       10.896        6.702        6.089      118.727       44.914       37.075        0.045        0.010       24.780        4.924        0.039      333.772        3.307      870.821
12/04/2021  23:49:00      -34.828       20.237       -9.860       15.309       17.080       12.171      234.359      291.720      148.143        0.120        0.034       40.281        5.256        0.017      333.484        2.830      870.830
12/04/2021  23:50:00       -6.210       43.945      -10.044       23.201        7.388        5.100      538.275       54.584       26.012        0.134        0.031       44.382        5.743        0.017      333.603        3.027      870.819
12/04/2021  23:51:00       21.627       27.085       -7.998       31.934       12.940       11.188     1019.772      167.437      125.171        0.129        0.066       34.660        8.634        0.062      333.969        3.632      870.813
12/04/2021  23:52:00      -47.921       -2.031      -14.500       28.029       24.920       23.436      785.652      620.986      549.268        0.223        0.098       47.964       19.519        0.166      333.378        2.655      870.829
12/04/2021  23:53:00      -56.267        2.169      -15.498       30.804       25.874       21.820      948.912      669.448      476.091        0.275        0.105       56.308       15.204        0.073      333.085        2.169      870.842
12/04/2021  23:54:00      -77.151       38.423      -20.193       18.674       12.003       14.610      348.727      144.080      213.438        0.427        0.035       86.189       10.608        0.015      333.093        2.183      870.819
12/04/2021  23:55:00      -28.291       33.063       -8.211       27.298       16.493        5.680      745.199      272.023       32.262        0.151        0.052       43.515       10.210        0.055      333.685        3.162      870.784
12/04/2021  23:56:00        2.742       40.103       -4.293       12.928        9.212        8.639      167.122       84.852       74.633        0.098        0.016       40.196        2.637        0.004      334.053        3.773      870.773
12/04/2021  23:57:00       31.659       46.857       -6.149       22.822       21.399       10.477      520.861      457.937      109.770        0.216        0.054       56.549        9.734        0.030      334.039        3.749      870.775
12/04/2021  23:58:00       55.943       47.119       -9.236       20.868       12.853       10.552      435.459      165.203      111.340        0.307        0.036       73.143        5.927        0.007      334.143        3.921      870.753
12/04/2021  23:59:00        1.071       40.748       -8.776       33.103       35.947       14.428     1095.776     1292.153      208.173        0.217        0.130       40.762       13.948        0.117      333.911        3.536      870.756
12/05/2021  00:00:00      -43.192      -12.078      -16.482       38.165       18.886       19.756     1456.551      356.673      390.315        0.224        0.110       44.849       22.320        0.248      333.133        2.248      870.783
12/05/2021  00:01:00      -55.517       14.369      -12.290       15.147       13.550       12.029      229.445      183.604      144.706        0.200        0.028       57.346        6.290        0.012      333.034        2.087      870.800
12/05/2021  00:02:00      -30.992       27.391      -18.672       23.473       17.846       11.461      551.005      318.465      131.358        0.153        0.050       41.362        8.535        0.043      333.314        2.548      870.797
12/05/2021  00:03:00        2.433       -6.238       -3.432        9.853        9.560        7.731       97.079       91.387       59.767        0.015        0.012        6.695        8.306        1.539      333.577        2.985      870.786
12/05/2021  00:04:00      -11.630      -20.127      -10.981       22.014       24.198        8.659      484.606      585.534       74.985        0.090        0.057       23.245        8.303        0.128      333.558        2.952      870.782
12/05/2021  00:05:00      -14.091       25.021       -5.719       22.278        7.029        6.588      496.292       49.404       43.397        0.072        0.029       28.716        7.287        0.064      333.480        2.824      870.778
12/05/2021  00:06:00       57.043        2.386       -5.314       22.542        9.199        7.771      508.143       84.630       60.391        0.197        0.033       57.093        3.539        0.004      333.853        3.442      870.759
12/05/2021  00:07:00        6.421       -1.867      -11.517       14.016       11.876        8.280      196.441      141.042       68.557        0.029        0.020        6.687        8.216        1.510      333.805        3.361      870.760
12/05/2021  00:08:00      -33.386       -7.339      -14.085       14.390       10.339       12.769      207.071      106.902      163.056        0.092        0.024       34.184        9.024        0.070      333.395        2.681      870.758
12/05/2021  00:09:00      -48.820       -0.224       -9.947       11.606       13.352        9.086      134.697      178.275       82.550        0.144        0.020       48.820        6.821        0.020      333.301        2.527      870.752
12/05/2021  00:10:00      -61.553       24.494      -12.165        8.663        9.943        9.525       75.051       98.856       90.735        0.240        0.013       66.247        4.514        0.005      333.318        2.556      870.769
12/05/2021  00:11:00      -41.358       13.771      -10.000       18.117       21.494        9.660      328.225      461.978       93.316        0.144        0.044       43.590        7.955        0.033      333.223        2.397      870.785
12/05/2021  00:12:00      -42.345       34.721       -9.772       10.554       11.955        6.233      111.395      142.916       38.845        0.169        0.015       54.760        5.881        0.012      333.339        2.590      870.793
12/05/2021  00:13:00      -68.607       45.479      -10.527       10.435       11.483        7.951      108.888      131.858       63.213        0.360        0.015       82.313        5.442        0.004      333.357        2.621      870.811
12/05/2021  00:14:00      -58.319       14.341      -14.121       14.173       15.482       10.162      200.877      239.680      103.269        0.217        0.027       60.056        7.039        0.014      333.324        2.564      870.826
12/05/2021  00:15:00      -66.678       13.321      -13.195       18.873       19.443        9.568      356.193      378.041       91.541        0.281        0.041       67.996        4.708        0.005      333.371        2.642      870.830
12/05/2021  00:16:00      -61.451      -11.812      -16.289       21.342       19.972       12.677      455.475      398.898      160.710        0.260        0.051       62.576        5.483        0.008      333.182        2.331      870.837
12/05/2021  00:17:00      -80.156       13.602      -15.866       13.348       14.366       10.502      178.162      206.388      110.289        0.368        0.025       81.302        5.808        0.005      333.130        2.245      870.840
12/05/2021  00:18:00      -55.046        6.144      -10.802       26.910       19.321       11.127      724.157      373.297      123.820        0.220        0.061       55.387       12.649        0.052      333.144        2.267      870.834
12/05/2021  00:19:00      -41.812        6.771       -8.137       34.132       19.498       14.661     1164.985      380.181      214.958        0.181        0.088       42.357       10.573        0.062      332.980        1.996      870.831
12/05/2021  00:20:00     -109.890       45.907       -8.071       20.693       19.181       14.801      428.194      367.914      219.058        0.763        0.051      119.094       10.629        0.008      332.958        1.961      870.845
12/05/2021  00:21:00      -83.158       40.889      -15.887       31.692       22.034       14.151     1004.372      485.476      200.257        0.526        0.085       92.667        8.203        0.008      332.849        1.781      870.846
12/05/2021  00:22:00      -42.849       39.001      -14.161       14.474       14.780       12.340      209.490      218.444      152.271        0.207        0.029       57.941        4.784        0.007      332.953        1.950      870.848
12/05/2021  00:23:00      -30.659       37.783       -6.020        7.338        9.168        6.364       53.841       84.058       40.500        0.129        0.009       48.658        5.005        0.011      333.509        2.872      870.843
12/05/2021  00:24:00      -41.473       -0.780      -15.066       14.049       16.355       13.149      197.361      267.483      172.890        0.129        0.032       41.480        9.604        0.054      333.047        2.107      870.851
12/05/2021  00:25:00      -57.128       23.270      -16.302       21.530       13.565       12.578      463.530      184.022      158.215        0.244        0.040       61.686        9.614        0.024      333.019        2.061      870.860
12/05/2021  00:26:00      -63.564       20.978      -17.609       25.315       16.889       13.450      640.833      285.241      180.892        0.295        0.055       66.936        6.345        0.009      332.866        1.807      870.876
12/05/2021  00:27:00      -16.891       14.628       -7.184       10.693       11.760        8.357      114.334      138.286       69.839        0.044        0.016       22.344        5.465        0.060      333.076        2.155      870.880
12/05/2021  00:28:00       -2.894       28.734      -10.532       10.312       13.081       10.089      106.331      171.108      101.788        0.066        0.019       28.880        6.237        0.047      333.582        2.990      870.891
12/05/2021  00:29:00      -31.497       -0.347       -8.792       27.721       20.148       12.435      768.453      405.926      154.630        0.120        0.066       31.499        9.916        0.099      333.144        2.268      870.889
12/05/2021  00:30:00      -36.894      -20.395      -22.130       14.862       11.232       10.006      220.894      126.152      100.125        0.136        0.022       42.156        3.897        0.009      332.901        1.866      870.883
12/05/2021  00:31:00      -17.616        5.776       -8.359       16.635       16.001        9.500      276.737      256.043       90.248        0.052        0.031       18.539        4.869        0.069      333.459        2.789      870.864
12/05/2021  00:32:00      -27.424        9.582      -16.139       22.504       23.372       12.392      506.415      546.273      153.559        0.116        0.060       29.050        8.957        0.095      333.370        2.642      870.857
12/05/2021  00:33:00      -39.683       -9.178       -8.175       27.401       21.223       21.147      750.801      450.419      447.195        0.169        0.082       40.730       18.709        0.211      332.691        1.519      870.847
12/05/2021  00:34:00      -62.931      -20.202      -16.763       22.129       16.712       18.885      489.703      279.279      356.658        0.289        0.056       66.094       14.900        0.051      332.689        1.516      870.828
12/05/2021  00:35:00      -80.488       11.370      -16.086       11.959        9.787        9.422      143.023       95.789       88.777        0.360        0.016       81.287        4.091        0.003      332.771        1.653      870.812
12/05/2021  00:36:00      -32.864        7.054      -17.104       20.190        7.433        7.253      407.619       55.249       52.611        0.097        0.026       33.613        9.369        0.078      333.302        2.530      870.784
12/05/2021  00:37:00      -24.183       19.557        3.494       12.293        8.315        7.931      151.125       69.144       62.896        0.063        0.014       31.102        1.528        0.002      333.656        3.115      870.770
12/05/2021  00:38:00      -56.948       17.346      -15.689        8.318       10.242        7.226       69.194      104.903       52.210        0.201        0.011       59.531        4.702        0.006      333.092        2.180      870.761
12/05/2021  00:39:00      -54.255       25.827      -16.559        8.772        7.839        7.012       76.947       61.453       49.173        0.204        0.009       60.089        3.972        0.004      332.950        1.946      870.756
12/05/2021  00:40:00      -70.020       19.604      -15.851       16.814       12.611       13.531      282.699      159.031      183.078        0.308        0.031       72.713        7.132        0.010      332.857        1.792      870.761
12/05/2021  00:41:00      -47.028       12.611      -13.313       24.475       20.993       16.598      599.035      440.722      275.506        0.193        0.066       48.689       16.804        0.119      332.835        1.756      870.754
12/05/2021  00:42:00      -45.424        6.594      -11.653       32.765       22.554       14.265     1073.573      508.662      203.503        0.201        0.089       45.900        8.959        0.038      332.882        1.835      870.738
12/05/2021  00:43:00      -88.700       52.054      -17.117       22.617       20.903       14.897      511.512      436.919      221.915        0.602        0.059      102.846        7.983        0.006      332.818        1.729      870.727
12/05/2021  00:44:00     -100.692        2.127      -24.455       25.672       30.871       16.631      659.051      953.035      276.580        0.631        0.094      100.715        7.762        0.006      332.680        1.501      870.730
12/05/2021  00:45:00      -54.508        4.461      -14.402       37.486       28.783       21.970     1405.182      828.480      482.681        0.296        0.136       54.690       20.033        0.134      332.667        1.480      870.736
12/05/2021  00:46:00     -122.163       35.022      -20.281       25.748       27.506       16.198      662.944      756.574      262.361        0.912        0.084      127.084       10.150        0.006      332.617        1.398      870.735
12/05/2021  00:47:00      -86.400       29.398      -18.070       27.005       28.451       17.386      729.247      809.437      302.261        0.525        0.092       91.264        8.763        0.009      332.594        1.359      870.742
12/05/2021  00:48:00      -91.331       18.982      -20.344       17.497       24.510       19.378      306.149      600.753      375.519        0.520        0.064       93.283       13.080        0.020      332.598        1.364      870.751
12/05/2021  00:49:00      -70.210       22.519      -19.034       35.545       26.387       24.932     1263.420      696.263      621.612        0.419        0.129       73.732       19.756        0.072      332.601        1.370      870.752
12/05/2021  00:50:00      -81.934       -1.782      -30.386       32.898       25.603       18.978     1082.288      655.520      360.148        0.487        0.105       81.953        9.854        0.014      332.523        1.240      870.737
12/05/2021  00:51:00      -86.977       22.099      -18.389       29.250       29.226       20.077      855.551      854.186      403.097        0.525        0.106       89.740       14.813        0.027      332.536        1.262      870.723
12/05/2021  00:52:00     -101.047       25.734      -28.057       22.513       27.811       15.572      506.840      773.435      242.481        0.659        0.076      104.273       11.722        0.013      332.535        1.261      870.725
12/05/2021  00:53:00      -89.928       11.791      -24.012       29.773       25.025       21.730      886.458      626.247      472.179        0.539        0.099       90.698       13.221        0.021      332.520        1.236      870.720
12/05/2021  00:54:00     -119.610       22.807      -21.054       20.922       18.008       13.954      437.718      324.282      194.712        0.811        0.048      121.765        7.181        0.003      332.542        1.271      870.726
12/05/2021  00:55:00     -105.230       30.446      -32.667       20.623       17.526       18.255      425.310      307.174      333.228        0.707        0.053      109.546        7.590        0.005      332.554        1.291      870.726
12/05/2021  00:56:00     -111.943       36.070      -18.216       35.044       24.594       20.183     1228.102      604.841      407.373        0.820        0.112      117.611       15.468        0.017      332.509        1.218      870.721
12/05/2021  00:57:00     -111.113       25.492      -13.481       50.765       26.135       20.744     2577.047      683.045      430.318        0.843        0.185      114.000       20.518        0.032      332.493        1.192      870.721
12/05/2021  00:58:00      -64.097       11.826      -11.585       55.449       30.495       26.002     3074.617      929.971      676.098        0.453        0.234       65.178       29.239        0.201      332.586        1.346      870.714
12/05/2021  00:59:00      -58.870       -3.740      -19.890       40.009       28.649       25.908     1600.724      820.738      671.207        0.348        0.155       58.989       24.422        0.171      332.579        1.333      870.714
12/05/2021  01:00:00       -9.341        3.275        6.975       28.582       43.358       27.513      816.926     1879.877      756.984        0.180        0.173        9.899       14.401        2.117      332.474        1.161      870.696
12/05/2021  01:01:00      -72.629       25.008      -16.664       56.488       19.572       20.943     3190.910      383.068      438.621        0.509        0.201       76.814       24.759        0.104      332.546        1.279      870.683
12/05/2021  01:02:00     -109.947       51.282      -14.588       15.217       16.693       13.916      231.555      278.672      193.648        0.782        0.035      121.319        9.587        0.006      332.624        1.410      870.672
12/05/2021  01:03:00      -99.464       48.906      -24.068       35.387       22.116       19.265     1252.260      489.107      371.156        0.749        0.106      110.837       11.093        0.010      332.730        1.585      870.664
12/05/2021  01:04:00      -63.049       21.017      -20.726       29.019       19.888       18.039      842.087      395.539      325.393        0.320        0.078       66.459       12.695        0.036      332.706        1.544      870.654
12/05/2021  01:05:00      -74.318        8.876      -14.900       48.495       32.302       20.600     2351.773     1043.436      424.367        0.482        0.191       74.846        4.442        0.004      332.717        1.562      870.650
12/05/2021  01:06:00      -76.940       16.956       -6.584       52.418       30.055       23.406     2747.609      903.296      547.834        0.522        0.210       78.786       12.964        0.027      332.629        1.416      870.645
12/05/2021  01:07:00      -39.135        7.387      -15.339       27.517       29.468       21.888      757.159      868.378      479.087        0.196        0.105       39.826       17.512        0.193      332.639        1.432      870.636
12/05/2021  01:08:00      -28.732        0.149      -18.012       20.346       18.721       20.599      413.966      350.485      424.326        0.117        0.059       28.733        7.405        0.066      332.640        1.434      870.626
12/05/2021  01:09:00      -30.392       -7.355      -15.461       36.775       26.982       25.564     1352.405      728.049      653.508        0.197        0.137       31.269       24.877        0.633      332.619        1.399      870.631
12/05/2021  01:10:00      -28.262       -5.749       -9.663       23.306       32.538       22.811      543.190     1058.717      520.351        0.152        0.106       28.841       18.025        0.391      332.643        1.441      870.643
12/05/2021  01:11:00      -38.308       12.389      -17.595       28.860       21.192       29.668      832.892      449.110      880.215        0.205        0.108       40.262       20.699        0.264      332.619        1.400      870.647
12/05/2021  01:12:00      -27.659       -0.491       -6.496       41.122       28.617       26.082     1691.030      818.957      680.251        0.200        0.160       27.663       24.099        0.759      332.638        1.432      870.648
12/05/2021  01:13:00      -56.531       19.622      -27.572       25.364       27.810       23.188      643.340      773.400      537.673        0.315        0.098       59.840       15.024        0.063      332.846        1.776      870.656
12/05/2021  01:14:00      -70.948       29.172      -21.070       13.360       12.656       10.524      178.479      160.174      110.746        0.339        0.022       76.711        3.879        0.003      332.799        1.697      870.656
12/05/2021  01:15:00      -45.667       -0.311      -14.996       27.021       20.913       22.022      730.129      437.337      484.967        0.198        0.083       45.668       17.601        0.149      332.682        1.504      870.665
12/05/2021  01:16:00      -77.605      -13.798      -34.199       36.476       33.114       30.022     1330.475     1096.507      901.348        0.535        0.166       78.822        6.485        0.007      332.650        1.451      870.663
12/05/2021  01:17:00     -115.949       -1.405      -18.045       35.710       27.658       33.075     1275.219      764.967     1093.973        0.845        0.157      115.957       22.723        0.038      332.558        1.299      870.665
12/05/2021  01:18:00     -128.751       26.258      -12.278       33.851       25.094       14.441     1145.889      629.699      208.539        0.970        0.099      131.401       12.712        0.009      332.710        1.551      870.650
12/05/2021  01:19:00      -99.481       -1.575      -16.739       29.907       22.712       20.133      894.433      515.832      405.335        0.600        0.091       99.494       15.420        0.024      332.788        1.680      870.626
12/05/2021  01:20:00      -78.033       13.875       -2.204       45.954       27.379       19.997     2111.724      749.592      399.873        0.477        0.163       79.257       21.696        0.075      332.787        1.679      870.622
12/05/2021  01:21:00     -107.620       53.310      -19.631       23.737       13.680       10.114      563.428      187.129      102.298        0.783        0.043      120.100        8.152        0.005      332.867        1.808      870.635
12/05/2021  01:22:00      -90.234       31.196      -17.342       13.326       21.126       14.438      177.579      446.323      208.468        0.512        0.042       95.474        8.182        0.007      332.991        2.014      870.642
12/05/2021  01:23:00     -103.442       21.881      -10.567       42.260       26.689       18.400     1785.893      712.281      338.576        0.706        0.142      105.731       15.907        0.023      332.795        1.691      870.657
12/05/2021  01:24:00     -103.932       15.164       -5.826       29.616       22.442       19.999      877.107      503.659      399.969        0.642        0.089      105.032       19.256        0.034      332.779        1.662      870.664
12/05/2021  01:25:00      -68.034        9.393       -6.823       28.370       17.242       16.026      804.885      297.277      256.841        0.306        0.068       68.679       14.333        0.044      332.749        1.615      870.669
12/05/2021  01:26:00      -67.759       20.629       -4.201       34.260       19.955       15.789     1173.758      398.214      249.297        0.343        0.091       70.829       13.585        0.037      332.840        1.766      870.668
12/05/2021  01:27:00     -101.757       16.375       -6.707       23.244       17.478       18.703      540.278      305.488      349.793        0.593        0.060      103.066       10.648        0.011      332.911        1.883      870.667
12/05/2021  01:28:00      -93.179       16.992      -13.338       35.755       24.401       16.746     1278.427      595.421      280.435        0.565        0.108       94.715       12.346        0.017      332.767        1.643      870.672
12/05/2021  01:29:00      -78.198       -2.046      -13.242       57.888       35.257       33.874     3351.041     1243.074     1147.475        0.602        0.287       78.225       31.948        0.167      332.652        1.454      870.694
12/05/2021  01:30:00      -88.516        0.512       -7.967       42.345       29.773       22.296     1793.081      886.451      497.133        0.554        0.159       88.518       21.081        0.057      332.575        1.327      870.713
12/05/2021  01:31:00     -114.154       47.662      -13.214       19.554       18.051       11.531      382.370      325.854      132.966        0.816        0.042      123.705        5.918        0.002      332.550        1.286      870.727
12/05/2021  01:32:00      -91.344       25.985      -11.716       14.520       15.423       12.310      210.830      237.872      151.543        0.488        0.030       94.968        6.562        0.005      332.573        1.325      870.740
12/05/2021  01:33:00      -78.754        2.644       -9.134       42.402       17.438       17.883     1797.892      304.088      319.816        0.436        0.121       78.799       18.969        0.058      332.626        1.412      870.748
12/05/2021  01:34:00      -93.511       32.890      -13.540       26.887       25.887       16.980      722.931      670.135      288.328        0.585        0.084       99.126       13.438        0.018      332.614        1.390      870.747
12/05/2021  01:35:00      -90.088       27.015      -15.308       18.010       20.994       12.923      324.359      440.767      167.001        0.501        0.047       94.051        8.309        0.008      332.628        1.415      870.742
12/05/2021  01:36:00      -49.314       14.197      -14.427       36.224       29.386       24.085     1312.196      863.512      580.068        0.280        0.138       51.317       22.968        0.200      332.647        1.446      870.733
12/05/2021  01:37:00     -114.762       -7.633      -14.181       43.216       33.975       25.521     1867.628     1154.304      651.329        0.855        0.184      115.015       20.983        0.033      332.598        1.364      870.755
12/05/2021  01:38:00     -124.397       41.016       -7.329       35.180       39.294       19.694     1237.600     1544.048      387.834        1.019        0.158      130.985       15.748        0.014      332.527        1.248      870.771
12/05/2021  01:39:00      -94.259       18.868      -11.545       27.085       23.954       13.732      733.596      573.786      188.568        0.543        0.075       96.129       10.630        0.012      332.582        1.339      870.761
12/05/2021  01:40:00      -67.105        2.019       -8.112       22.828       16.975       14.359      521.134      288.141      206.185        0.279        0.051       67.135       14.078        0.044      332.656        1.460      870.761
12/05/2021  01:41:00      -75.452       26.822      -13.693       18.112       22.184       13.605      328.046      492.122      185.108        0.380        0.050       80.078        9.823        0.015      332.709        1.548      870.767
12/05/2021  01:42:00      -35.407        1.159       -3.986       24.398       18.747       16.753      595.248      351.466      280.678        0.125        0.061       35.426       12.457        0.124      332.671        1.487      870.762
12/05/2021  01:43:00      -47.701       -4.793       -3.885       39.911       17.582       14.248     1592.853      309.143      203.007        0.221        0.105       47.941       15.126        0.100      332.763        1.639      870.764
12/05/2021  01:44:00     -110.421       12.928       -9.367       33.140       21.966       16.995     1098.237      482.489      288.840        0.716        0.093      111.175       12.982        0.014      332.698        1.530      870.776
12/05/2021  01:45:00      -94.739       24.980      -12.427       17.551       12.619       11.096      308.022      159.246      123.119        0.517        0.030       97.977        6.335        0.004      332.743        1.605      870.788
12/05/2021  01:46:00      -98.146       27.161      -10.882        8.930       10.334        7.910       79.745      106.791       62.575        0.537        0.012      101.835        4.721        0.002      332.983        2.001      870.791
12/05/2021  01:47:00      -87.273       27.697        0.155       28.574       23.582       15.217      816.447      556.120      231.567        0.499        0.080       91.563       13.967        0.023      332.878        1.828      870.809
12/05/2021  01:48:00      -24.007       -6.172       -0.360       37.288       17.484       17.211     1390.391      305.695      296.206        0.130        0.100       24.788       12.922        0.272      332.913        1.886      870.809
12/05/2021  01:49:00       -3.057       -1.109       -5.433       16.934        8.381        8.552      286.777       70.236       73.142        0.024        0.022        3.251        5.699        3.072      332.949        1.946      870.799
12/05/2021  01:50:00      -39.708       15.533      -10.136       23.200       18.758       14.134      538.248      351.872      199.783        0.151        0.054       42.638       12.025        0.080      332.954        1.952      870.808
12/05/2021  01:51:00      -16.422       -3.959        2.906       23.091       13.780       13.045      533.208      189.890      170.182        0.059        0.045       16.893       10.222        0.366      332.910        1.881      870.812
12/05/2021  01:52:00      -37.045       15.340       -2.753       22.880       19.512       13.100      523.475      380.714      171.607        0.135        0.054       40.095       11.710        0.085      332.826        1.742      870.811
12/05/2021  01:53:00      -83.995       24.552      -21.762       12.725       16.798       13.544      161.923      282.171      183.443        0.438        0.031       87.510        7.341        0.007      332.727        1.578      870.818
12/05/2021  01:54:00      -86.387       15.809      -18.161       27.437       23.922       18.119      752.815      572.282      328.290        0.485        0.083       87.822        7.204        0.007      332.628        1.414      870.825
12/05/2021  01:55:00      -46.423        7.281      -13.489       29.120       15.848       16.366      847.975      251.167      267.844        0.188        0.068       46.990       15.250        0.105      332.593        1.356      870.817
12/05/2021  01:56:00      -83.628       26.218      -15.768       16.980       15.453       17.276      288.330      238.795      298.472        0.438        0.041       87.642       10.066        0.013      332.580        1.336      870.806
12/05/2021  01:57:00      -64.269       -0.417      -11.522       39.061       16.110       16.376     1525.773      259.537      268.170        0.316        0.103       64.271       15.217        0.056      332.603        1.373      870.797
12/05/2021  01:58:00      -65.499       22.938       -4.523       34.311       28.819       15.810     1177.241      830.532      249.960        0.355        0.113       69.400       12.230        0.031      332.428        1.083      870.802
12/05/2021  01:59:00      -61.759       36.463       -6.570       19.906       14.047       12.063      396.242      197.305      145.512        0.296        0.037       71.720       12.139        0.029      332.396        1.031      870.800
12/05/2021  02:00:00      -80.171       23.475      -12.654       13.884       15.473       11.715      192.755      239.411      137.241        0.385        0.028       83.537        7.593        0.008      332.598        1.366      870.790
12/05/2021  02:01:00      -90.243       39.610       -7.180       18.210       14.608       14.597      331.615      213.389      213.077        0.526        0.038       98.554        7.933        0.006      332.468        1.151      870.776
12/05/2021  02:02:00      -74.019        9.465       -4.183       31.397       23.404       19.847      985.774      547.752      393.919        0.376        0.096       74.622       15.700        0.044      332.488        1.183      870.771
12/05/2021  02:03:00      -66.369       21.142       -9.727       35.102       24.453       12.554     1232.126      597.938      157.604        0.347        0.099       69.655       11.515        0.027      332.430        1.087      870.777
12/05/2021  02:04:00      -74.406       24.337      -13.180       21.498       17.118       15.359      462.164      293.029      235.903        0.365        0.050       78.285        9.794        0.016      332.491        1.189      870.811
12/05/2021  02:05:00      -52.398       41.416      -13.631       18.484       17.467       15.599      341.662      305.086      243.334        0.277        0.045       66.789       11.179        0.028      332.643        1.440      870.842
12/05/2021  02:06:00      -37.726       39.566       -4.928       16.323       22.063       12.762      266.446      486.773      162.879        0.196        0.046       54.669        7.620        0.019      332.559        1.300      870.864
12/05/2021  02:07:00      -59.290       14.002      -15.033       14.770        9.456       10.759      218.140       89.419      115.760        0.218        0.021       60.921        4.463        0.005      332.458        1.134      870.864
12/05/2021  02:08:00      -31.748        5.000       -1.286       37.346       22.669       21.510     1394.707      513.873      462.669        0.170        0.119       32.139       26.222        0.666      332.333        0.928      870.852
12/05/2021  02:09:00      -39.039       16.156      -11.590       33.224       22.724       16.494     1103.841      516.386      272.064        0.191        0.095       42.250       17.456        0.171      332.231        0.759      870.858
12/05/2021  02:10:00      -72.699       27.033       -7.248       14.840        9.921       11.326      220.212       98.419      128.286        0.326        0.022       77.562       10.473        0.018      332.206        0.716      870.865
12/05/2021  02:11:00      -19.894       10.191       -5.076       25.756       15.366       14.920      663.394      236.123      222.603        0.082        0.056       22.353       11.343        0.258      332.239        0.771      870.869
12/05/2021  02:12:00      -31.894        9.849      -10.495       18.215       15.408        8.749      331.776      237.417       76.548        0.093        0.032       33.380        2.493        0.006      332.356        0.966      870.873
12/05/2021  02:13:00        3.038      -12.089       -9.889        7.865       11.476        7.779       61.862      131.698       60.516        0.025        0.013       12.464        7.659        0.378      332.384        1.011      870.895
12/05/2021  02:14:00      -17.501       22.818      -16.711        8.905        9.699       10.498       79.300       94.078      110.209        0.069        0.014       28.757        4.784        0.028      332.573        1.325      870.900
12/05/2021  02:15:00       -0.852       29.863       -2.358       11.030       12.113        8.418      121.659      146.722       70.861        0.062        0.017       29.875        7.823        0.069      332.756        1.626      870.911
12/05/2021  02:16:00       30.542       22.487       -0.971       13.440       11.358        6.842      180.632      128.996       46.810        0.090        0.018       37.927        8.257        0.047      333.136        2.254      870.918
12/05/2021  02:17:00       32.610       41.819       -2.815       16.500        8.307        3.767      272.241       69.003       14.192        0.159        0.018       53.031        5.400        0.010      333.220        2.391      870.933
12/05/2021  02:18:00       38.459       49.370       -9.899        9.656        8.800        7.005       93.239       77.443       49.077        0.212        0.011       62.582        3.153        0.003      333.104        2.200      870.933
12/05/2021  02:19:00       17.910       42.100       -6.213       22.053       17.200       13.562      486.313      295.837      183.938        0.155        0.048       45.751       12.928        0.080      333.082        2.166      870.924
12/05/2021  02:20:00        9.431       29.699        0.391       14.510       15.364       11.702      210.545      236.062      136.929        0.078        0.029       31.160        9.593        0.095      333.073        2.150      870.897
12/05/2021  02:21:00        3.587       24.045        0.004       19.160       13.469        8.649      367.097      181.426       74.810        0.061        0.031       24.311        5.588        0.053      332.979        1.994      870.869
12/05/2021  02:22:00      -17.221        1.145       -3.309        9.743       12.302       10.400       94.928      151.341      108.157        0.033        0.018       17.259        6.239        0.131      332.791        1.684      870.850
12/05/2021  02:23:00       -1.370       12.948      -15.262       14.665       12.221        9.200      215.073      149.342       84.642        0.043        0.022       13.021        6.679        0.263      332.816        1.726      870.840
12/05/2021  02:24:00      -35.040       19.344      -10.335       18.158       11.569        9.050      329.721      133.851       81.909        0.113        0.027       40.025        7.257        0.033      332.841        1.767      870.843
12/05/2021  02:25:00      -29.295       18.406      -13.247       19.664       15.400       11.131      386.660      237.161      123.905        0.106        0.037       34.597        3.343        0.009      332.911        1.883      870.837
12/05/2021  02:26:00      -24.034       -0.759      -13.210       14.283       11.460       11.484      203.990      131.335      131.874        0.061        0.023       24.046        5.922        0.061      332.594        1.357      870.836
12/05/2021  02:27:00      -50.802        5.778      -14.267       24.924       12.230       14.059      621.225      149.562      197.666        0.189        0.048       51.129       16.103        0.099      332.324        0.912      870.835
12/05/2021  02:28:00      -45.111       10.911       -9.851       22.422       12.922       12.060      502.746      166.970      145.452        0.153        0.041       46.412       11.117        0.057      332.426        1.081      870.829
12/05/2021  02:29:00      -34.447      -10.545      -12.155       23.041       10.455       13.640      530.877      109.301      186.045        0.114        0.041       36.025       10.174        0.080      332.354        0.962      870.829
12/05/2021  02:30:00      -44.279       -1.156      -20.007       20.020       16.648       11.215      400.800      277.172      125.781        0.158        0.040       44.294        2.476        0.003      332.366        0.981      870.835
12/05/2021  02:31:00      -51.307        4.796      -12.847       28.723       17.480       16.211      825.021      305.562      262.805        0.211        0.070       51.531       14.365        0.078      332.103        0.547      870.823
12/05/2021  02:32:00      -74.014        1.623      -23.974       28.984       27.008       17.328      840.048      729.431      300.263        0.396        0.093       74.032        9.253        0.016      331.913        0.235      870.822
12/05/2021  02:33:00     -103.570       12.855      -16.141       22.962       23.963       17.703      527.256      574.249      313.383        0.628        0.071      104.365        7.684        0.005      331.874        0.173      870.825
12/05/2021  02:34:00      -64.262       16.854      -22.550       31.590       25.420       13.681      997.904      646.155      187.176        0.338        0.092       66.436        6.182        0.009      331.902        0.218      870.825
12/05/2021  02:35:00      -31.244       18.762      -11.600       23.398       18.623       15.791      547.457      346.804      249.360        0.130        0.057       36.445        9.720        0.071      332.110        0.559      870.812
12/05/2021  02:36:00      -22.520       -2.551      -19.334       16.477       22.119       18.690      271.480      489.267      349.332        0.100        0.056       22.664        9.805        0.187      332.366        0.982      870.813
12/05/2021  02:37:00      -41.032      -12.407      -21.413       24.937       16.062       21.114      621.841      257.997      445.795        0.181        0.066       42.867        7.960        0.034      332.393        1.027      870.831
12/05/2021  02:38:00      -18.922        3.204      -15.770       12.388       10.934       12.241      153.464      119.555      149.840        0.052        0.021       19.192       11.001        0.329      332.782        1.668      870.830
12/05/2021  02:39:00      -40.845       -3.635      -21.346       23.394       12.871       17.299      547.271      165.651      299.271        0.157        0.051       41.007       12.879        0.099      332.423        1.075      870.829
12/05/2021  02:40:00      -46.187        1.066      -16.336       19.810       24.327       14.942      392.454      591.811      223.266        0.180        0.060       46.199        8.662        0.035      332.117        0.571      870.829
12/05/2021  02:41:00     -105.769       22.166      -20.391       23.534       17.690       12.620      553.869      312.944      159.258        0.656        0.051      108.067        8.756        0.007      332.180        0.673      870.803
12/05/2021  02:42:00     -117.246       36.104      -18.381       29.740       18.846       12.161      884.462      355.175      147.896        0.839        0.069      122.679       13.392        0.012      332.288        0.852      870.762
12/05/2021  02:43:00     -118.180       27.494      -22.789       41.812       23.626       16.237     1748.272      558.195      263.646        0.891        0.129      121.336       17.445        0.021      332.329        0.919      870.755
12/05/2021  02:44:00     -123.352       22.777      -17.978       27.481       37.919       22.053      755.191     1437.824      486.318        0.937        0.134      125.437       13.929        0.012      332.234        0.762      870.760
12/05/2021  02:45:00      -86.279       36.417      -16.243       19.284       17.399        9.298      371.858      302.710       86.460        0.490        0.038       93.649        5.637        0.004      332.222        0.743      870.754
12/05/2021  02:46:00      -94.115       30.928      -14.641       16.398       11.084       11.647      268.886      122.847      135.648        0.528        0.026       99.067        5.992        0.004      332.334        0.927      870.758
12/05/2021  02:47:00     -106.815       54.412      -18.010       19.252       15.413       14.572      370.636      237.555      212.330        0.776        0.041      119.875        6.753        0.003      332.307        0.883      870.767
12/05/2021  02:48:00      -95.863       25.916      -17.198       34.929       26.250       24.457     1220.055      689.049      598.143        0.633        0.125       99.305       19.070        0.037      332.270        0.823      870.772
12/05/2021  02:49:00      -21.465       -5.069      -10.017       24.967       24.079       17.878      623.343      579.822      319.608        0.105        0.076       22.056       15.420        0.489      332.247        0.785      870.772
12/05/2021  02:50:00      -25.530        2.152      -12.662       40.047       18.901       16.927     1603.771      357.249      286.516        0.153        0.112       25.621       17.279        0.455      332.257        0.803      870.771
12/05/2021  02:51:00      -47.118        3.406      -18.399       35.455       30.452       23.268     1257.063      927.344      541.378        0.265        0.136       47.241       21.315        0.204      332.285        0.849      870.770
12/05/2021  02:52:00      -40.093       -2.278      -14.756       37.419       31.436       23.719     1400.188      988.225      562.588        0.239        0.148       40.158       19.322        0.232      332.191        0.691      870.771
12/05/2021  02:53:00      -85.010       12.754      -19.588       41.657       27.697       22.152     1735.322      767.118      490.733        0.538        0.150       85.962       16.968        0.039      332.219        0.738      870.797
12/05/2021  02:54:00      -38.301       -8.881      -19.646       38.197       17.025       18.524     1458.997      289.838      343.134        0.201        0.105       39.317        8.870        0.051      332.168        0.656      870.837
12/05/2021  02:55:00      -60.822       -7.584      -21.685       19.633       22.227       19.295      385.436      494.022      372.300        0.274        0.063       61.293       12.653        0.043      332.166        0.652      870.860
12/05/2021  02:56:00      -20.134        2.639      -14.879       37.755       23.039       19.876     1425.445      530.777      395.057        0.149        0.118       20.306       23.067        1.290      332.311        0.890      870.870
12/05/2021  02:57:00      -14.703       -0.739      -12.008       52.003       22.771       27.560     2704.313      518.539      759.545        0.217        0.199       14.722       30.735        4.358      332.285        0.847      870.861
12/05/2021  02:58:00      -71.238       -9.626      -15.991       37.269       15.957       18.954     1388.981      254.618      359.248        0.371        0.100       71.885       21.144        0.087      332.177        0.670      870.848
12/05/2021  02:59:00      -98.680       40.516      -13.100       18.506       19.277       11.973      342.488      371.593      143.364        0.620        0.043      106.674        9.893        0.009      332.195        0.699      870.826
12/05/2021  03:00:00     -100.262       43.982      -11.289       16.630       13.662       15.089      276.557      186.657      227.664        0.640        0.035      109.484       12.455        0.013      332.120        0.574      870.801
12/05/2021  03:01:00      -75.026        0.054      -16.787       30.972       27.528       18.658      959.262      757.801      348.132        0.399        0.103       75.026       15.977        0.045      332.155        0.634      870.797
12/05/2021  03:02:00      -58.408       -3.631      -17.274       36.471       27.021       20.991     1330.154      730.156      440.633        0.311        0.125       58.520       16.919        0.084      332.090        0.527      870.786
12/05/2021  03:03:00      -26.396        0.885       -7.160       34.838       23.342       20.005     1213.691      544.838      400.201        0.145        0.108       26.411       22.296        0.713      332.067        0.488      870.759
12/05/2021  03:04:00      -52.792       20.132      -15.217       22.447       12.900       16.019      503.852      166.404      256.604        0.218        0.046       56.501        7.054        0.016      332.176        0.668      870.723
12/05/2021  03:05:00      -50.381        7.319      -16.750       28.476       13.678       10.567      810.892      187.076      111.652        0.199        0.055       50.910       10.953        0.046      332.192        0.694      870.699
12/05/2021  03:06:00      -78.475       13.911      -19.952       24.020       19.126       11.222      576.942      365.787      125.943        0.391        0.053       79.698        7.916        0.010      332.265        0.814      870.710
12/05/2021  03:07:00      -58.749        9.264      -13.162       32.285       18.198       14.475     1042.345      331.158      209.532        0.265        0.079       59.475       10.212        0.029      332.242        0.777      870.742
12/05/2021  03:08:00      -54.564        9.495      -11.785       20.161       13.890        9.305      406.470      192.926       86.583        0.195        0.034       55.384        7.366        0.018      332.273        0.827      870.780
12/05/2021  03:09:00      -41.944       25.437      -16.074        9.390        7.540        6.491       88.163       56.855       42.128        0.143        0.009       49.054        4.779        0.009      332.324        0.913      870.798
12/05/2021  03:10:00      -32.098       26.601       -7.777       11.269        5.730        5.996      126.983       32.833       35.950        0.100        0.010       41.688        6.295        0.023      332.819        1.732      870.803
12/05/2021  03:11:00       -6.695      -12.198       -3.376       13.586       20.644       10.709      184.572      426.167      114.691        0.047        0.036       13.915        4.583        0.108      332.662        1.471      870.824
12/05/2021  03:12:00       54.442        5.305       -1.430       61.710       22.123       18.590     3808.064      489.427      345.579        0.382        0.232       54.700       16.086        0.086      332.220        0.742      870.851
12/05/2021  03:13:00      135.379       33.819       -5.924       30.935       24.720       22.574      956.985      611.062      509.575        1.079        0.104      139.540        9.231        0.004      331.866        0.159      870.858
12/05/2021  03:14:00       97.626       14.840      -14.436       34.674       32.537       19.424     1202.256     1058.681      377.274        0.630        0.132       98.747        9.690        0.010      331.883        0.186      870.841
12/05/2021  03:15:00       57.681       10.717        2.065       48.165       13.685       16.721     2319.887      187.279      279.606        0.312        0.139       58.669       18.344        0.098      331.820        0.083      870.835
12/05/2021  03:16:00       61.120        5.992      -10.241       22.560       22.646       12.622      508.937      512.848      159.317        0.253        0.059       61.413        9.859        0.026      331.785        0.025      870.812
12/05/2021  03:17:00       29.893       17.368        2.627       27.558       31.394       14.695      759.435      985.595      215.945        0.158        0.098       34.572       12.098        0.122      331.797        0.045      870.797
12/05/2021  03:18:00        7.586        8.633       -6.313       24.038       27.467       18.558      577.801      754.462      344.408        0.092        0.084       11.493        9.253        0.648      331.938        0.277      870.791
12/05/2021  03:19:00       60.347       30.318      -19.198       34.755       23.460       14.455     1207.936      550.367      208.938        0.345        0.098       67.535       14.679        0.047      331.905        0.223      870.725
12/05/2021  03:20:00       79.984       46.350       -6.495       22.559       18.356       13.855      508.907      336.955      191.956        0.481        0.052       92.443        7.471        0.007      331.917        0.240      870.715
12/05/2021  03:21:00       28.825       40.185        0.060       26.652       23.480       18.442      710.348      551.299      340.122        0.202        0.080       49.454       14.880        0.091      331.904        0.221      870.732
12/05/2021  03:22:00       80.099       41.349       -6.378       28.269       15.260       13.302      799.152      232.853      176.932        0.469        0.060       90.142        7.745        0.007      331.995        0.369      870.740
12/05/2021  03:23:00       59.434        7.376       -8.191       29.952       33.394       12.348      897.133     1115.177      152.474        0.291        0.108       59.890       10.218        0.029      331.985        0.353      870.727
12/05/2021  03:24:00       26.566       15.622       -8.182       13.907       16.396       10.626      193.418      268.843      112.902        0.080        0.029       30.819        7.400        0.058      331.930        0.262      870.701
12/05/2021  03:25:00        5.290       13.842       -5.985       18.035       12.153        7.881      325.252      147.691       62.114        0.040        0.027       14.818        5.281        0.127      331.928        0.260      870.670
12/05/2021  03:26:00       -5.660       27.816       -4.555       19.099        9.542        4.415      364.759       91.051       19.494        0.065        0.024       28.386        5.437        0.037      331.973        0.333      870.650
12/05/2021  03:27:00      -22.526       36.452       -9.480       12.836       13.821        8.567      164.753      191.029       73.399        0.118        0.021       42.851        7.229        0.028      331.934        0.268      870.654
12/05/2021  03:28:00        2.670       31.294       -5.481        7.176        8.896        7.168       51.491       79.143       51.377        0.060        0.009       31.408        3.517        0.013      332.173        0.663      870.664
12/05/2021  03:29:00       -2.973       34.813       -0.527        9.427        9.654        4.239       88.864       93.201       17.968        0.071        0.010       34.940        2.314        0.004      332.118        0.573      870.679
12/05/2021  03:30:00       -1.994       68.250      -13.714       16.074       20.553       13.834      258.379      422.405      191.389        0.286        0.044       68.279        7.369        0.012      332.091        0.528      870.696
12/05/2021  03:31:00       11.051       47.058       -7.615       16.117       24.191        9.744      259.748      585.224       94.944        0.167        0.047       48.338        9.160        0.036      332.181        0.675      870.699
12/05/2021  03:32:00        9.404       10.701       -3.880        5.656        6.915        4.583       31.986       47.818       21.007        0.016        0.005       14.246        2.159        0.023      332.318        0.904      870.697
12/05/2021  03:33:00      -19.070       16.710       -4.500       17.414        9.463        8.359      303.247       89.546       69.867        0.056        0.023       25.355        9.151        0.130      332.198        0.702      870.694
12/05/2021  03:34:00      -37.563        5.932      -16.217       11.263       16.374        6.302      126.863      268.092       39.711        0.107        0.022       38.028        3.146        0.007      332.088        0.522      870.687
12/05/2021  03:35:00      -19.230       -0.759      -11.282       14.493        8.647        9.132      210.035       74.779       83.402        0.043        0.018       19.245        2.865        0.022      332.143        0.614      870.683
12/05/2021  03:36:00       28.989        2.556       -5.372       23.247        8.397        9.235      540.412       70.504       85.281        0.079        0.035       29.102        4.610        0.025      332.327        0.917      870.675
12/05/2021  03:37:00       30.982        9.686      -11.049       17.557       15.485        8.135      308.251      239.781       66.180        0.089        0.031       32.460        4.783        0.022      332.366        0.981      870.667
12/05/2021  03:38:00        3.715       35.793       -4.615       16.231       10.441        9.583      263.439      109.008       91.836        0.089        0.023       35.986        8.416        0.055      332.384        1.011      870.675
12/05/2021  03:39:00      -51.827       14.186      -12.711       11.966       14.103       10.531      143.196      198.891      110.897        0.175        0.023       53.733        8.799        0.027      332.177        0.670      870.680
12/05/2021  03:40:00      -38.183        9.500       -9.284       15.644       10.977       10.553      244.750      120.487      111.375        0.106        0.024       39.347        7.694        0.038      331.962        0.316      870.662
12/05/2021  03:41:00      -24.924        5.132       -8.713       23.525       14.391       14.671      553.446      207.095      215.253        0.085        0.049       25.447       12.111        0.227      331.981        0.347      870.651
12/05/2021  03:42:00      -72.436       28.891      -11.210       14.410       12.176       11.884      207.637      148.247      141.227        0.335        0.025       77.985        5.390        0.005      332.050        0.461      870.639
12/05/2021  03:43:00      -85.586       29.232      -13.862       10.846        6.090        7.451      117.643       37.089       55.511        0.429        0.011       90.440        6.194        0.005      332.158        0.639      870.622
12/05/2021  03:44:00      -89.885       18.676       -8.949       26.693       19.902       18.900      712.540      396.097      357.210        0.499        0.073       91.805       12.298        0.018      332.034        0.435      870.611
12/05/2021  03:45:00     -122.146       25.945       -9.958       23.063       19.080       14.470      531.900      364.060      209.379        0.840        0.055      124.872       12.726        0.010      331.934        0.271      870.604
12/05/2021  03:46:00     -109.952       42.080      -11.334       16.390       17.899       13.316      268.639      320.366      177.315        0.738        0.038      117.729       10.282        0.008      331.895        0.206      870.607
12/05/2021  03:47:00      -95.820       51.352      -14.132       27.239       21.921       18.368      741.965      480.514      337.385        0.679        0.078      108.713       13.139        0.015      331.803        0.055      870.622
12/05/2021  03:48:00      -41.889       -0.469       -5.936       25.260       21.452       14.644      638.085      460.207      214.451        0.155        0.066       41.892       12.310        0.086      331.809        0.065      870.622
12/05/2021  03:49:00      -64.774       11.725      -18.731       24.877       25.315       21.085      618.879      640.839      444.564        0.319        0.085       65.826       14.933        0.051      331.860        0.148      870.640
12/05/2021  03:50:00      -86.117       22.354      -15.107       37.071       25.516       22.681     1374.256      651.060      514.445        0.534        0.127       88.971       19.696        0.049      331.861        0.151      870.635
12/05/2021  03:51:00      -83.794       16.851      -16.025       20.360       18.928       15.163      414.531      358.255      229.916        0.428        0.050       85.471        8.410        0.010      331.956        0.306      870.605
12/05/2021  03:52:00      -26.921       -0.954       -8.716       21.718       25.409       21.206      471.657      645.639      449.689        0.118        0.078       26.938       11.477        0.182      332.018        0.407      870.599
12/05/2021  03:53:00      -42.990       -2.780       -8.355       55.414       34.292       31.448     3070.743     1175.910      988.972        0.358        0.262       43.079       25.377        0.347      331.733       -0.060      870.611
12/05/2021  03:54:00       -6.272       -9.653      -23.257       24.021       30.446       18.288      577.028      926.972      334.459        0.126        0.092       11.512       10.109        0.771      331.761       -0.014      870.597
12/05/2021  03:55:00      -23.020       17.810      -15.432       27.242       26.720       22.524      742.144      713.942      507.342        0.152        0.098       29.105       15.932        0.300      331.800        0.051      870.576
12/05/2021  03:56:00      -21.672       12.826       -7.481       56.257       32.327       36.881     3164.801     1045.065     1360.203        0.313        0.279       25.183       37.236        2.186      331.747       -0.039      870.586
12/05/2021  03:57:00      -98.973       12.698      -31.263       64.642       37.440       31.350     4178.631     1401.716      982.848        0.875        0.328       99.784       19.245        0.037      331.762       -0.015      870.581
12/05/2021  03:58:00      -28.510      -16.575      -18.446       38.120       27.138       17.041     1453.123      736.478      290.385        0.195        0.124       32.977        9.681        0.086      331.903        0.220      870.576
12/05/2021  03:59:00      -79.655       -4.354      -12.954       48.670       22.134       15.997     2368.815      489.934      255.920        0.482        0.156       79.774        6.717        0.007      331.910        0.230      870.580
12/05/2021  04:00:00     -105.079       23.641      -16.723       18.034       21.256       17.434      325.218      451.808      303.928        0.648        0.054      107.706        9.482        0.008      331.874        0.172      870.590
12/05/2021  04:01:00     -107.802       36.788      -18.617       13.908       15.391       11.259      193.429      236.879      126.774        0.694        0.028      113.907        3.719        0.001      331.848        0.130      870.569
12/05/2021  04:02:00      -95.014       54.187      -10.828       15.952       21.188       14.105      254.463      448.922      198.939        0.649        0.045      109.379        7.603        0.005      331.762       -0.013      870.554
12/05/2021  04:03:00     -122.494       42.236      -14.704       29.570       24.961       17.885      874.360      623.070      319.863        0.941        0.091      129.571       16.452        0.016      331.836        0.110      870.558
12/05/2021  04:04:00      -66.997        8.206       -4.990       31.803       28.152       20.583     1011.410      792.522      423.680        0.340        0.111       67.497       18.612        0.076      331.905        0.223      870.559
12/05/2021  04:05:00      -38.936       -6.612       -8.045       34.525       35.512       27.487     1191.986     1261.122      755.527        0.242        0.160       39.494       25.285        0.410      331.922        0.250      870.558
12/05/2021  04:06:00      -80.523       10.676      -23.964       34.554       34.161       25.768     1193.988     1166.956      664.007        0.510        0.151       81.227       22.698        0.078      331.912        0.234      870.564
12/05/2021  04:07:00      -75.004        5.835      -16.705       34.948       29.044       19.672     1221.358      843.573      386.996        0.419        0.123       75.231       17.331        0.053      331.889        0.195      870.570
12/05/2021  04:08:00      -58.200       -5.375       -7.404       37.747       25.021       21.589     1424.841      626.063      466.093        0.299        0.126       58.448       13.177        0.051      331.914        0.237      870.572
12/05/2021  04:09:00       -4.948       -7.042       -1.561        8.843       11.724       11.137       78.197      137.463      124.030        0.021        0.017        8.607        6.023        0.490      331.935        0.272      870.584
12/05/2021  04:10:00      -41.553       22.923      -24.674       21.311       13.037       20.381      454.141      169.955      415.381        0.195        0.052       47.457        9.030        0.036      332.035        0.435      870.642
12/05/2021  04:11:00      -24.633        5.025      -19.210       16.768       20.005       12.294      281.182      400.205      151.132        0.092        0.042       25.141        8.314        0.109      332.055        0.468      870.668
12/05/2021  04:12:00      -37.075        5.311      -17.623       18.873       29.163       16.247      356.199      850.490      263.972        0.159        0.074       37.453       13.123        0.123      332.049        0.459      870.662
12/05/2021  04:13:00      -29.166       -5.507      -16.415       23.068       26.295       17.129      532.154      691.437      293.400        0.133        0.076       29.681       13.030        0.193      331.956        0.306      870.650
12/05/2021  04:14:00        4.833        7.478        2.918       20.261       22.252       20.332      410.516      495.144      413.396        0.070        0.066        8.904       16.120        3.278      331.798        0.047      870.625
12/05/2021  04:15:00      -10.300        0.492       -9.157       15.500       15.133       19.931      240.258      228.998      397.246        0.053        0.043       10.312       11.147        1.168      331.739       -0.052      870.611
12/05/2021  04:16:00      -34.122        4.509      -14.584       35.925       25.004       19.017     1290.601      625.221      361.628        0.184        0.114       34.418       16.802        0.238      331.759       -0.019      870.631
12/05/2021  04:17:00      -22.582       -9.806      -17.523       32.623       18.848       18.419     1064.262      355.253      339.257        0.134        0.088       24.619       17.706        0.517      331.757       -0.020      870.649
12/05/2021  04:18:00      -12.102      -16.952      -10.941       18.127       20.125       14.827      328.597      405.006      219.830        0.075        0.048       20.829       10.559        0.257      331.816        0.077      870.649
12/05/2021  04:19:00       -3.732        6.796      -10.657       22.467       20.907       17.670      504.753      437.105      312.241        0.071        0.063        7.753       16.689        4.634      331.790        0.032      870.661
12/05/2021  04:20:00      -12.866       -2.275        0.264       37.222       41.150       27.258     1385.496     1693.350      742.977        0.200        0.191       13.066       14.336        1.204      331.768       -0.003      870.703
12/05/2021  04:21:00        7.832      -15.681      -12.460       11.376       30.178       19.303      129.417      910.720      372.623        0.094        0.071       17.528       12.960        0.547      331.802        0.052      870.695
12/05/2021  04:22:00      -31.285       20.749      -37.560       24.760       15.889       15.139      613.064      252.468      229.186        0.196        0.055       37.540        6.125        0.027      331.958        0.311      870.673
12/05/2021  04:23:00      -51.695       14.673      -22.385       19.274       30.763       19.434      371.483      946.364      377.664        0.254        0.085       53.738        9.249        0.030      332.031        0.429      870.681
12/05/2021  04:24:00      -60.501      -13.717      -19.699       23.587       21.508       14.327      556.332      462.599      205.265        0.273        0.061       62.037        5.904        0.009      331.984        0.350      870.668
12/05/2021  04:25:00      -83.278        5.491      -23.625       23.343       23.262       14.431      544.877      541.141      208.255        0.441        0.065       83.459        9.074        0.012      332.000        0.379      870.631
12/05/2021  04:26:00      -78.496        9.314      -16.695       40.708       29.968       23.396     1657.152      898.096      547.396        0.481        0.155       79.046       21.285        0.073      331.852        0.136      870.622
12/05/2021  04:27:00      -39.559       -8.325      -16.037       28.590       30.264       27.797      817.405      915.885      772.650        0.220        0.125       40.425       19.134        0.224      331.838        0.111      870.633
12/05/2021  04:28:00      -63.458       22.151      -17.762       22.409       28.220       22.433      502.161      796.356      503.227        0.332        0.090       67.213       14.021        0.044      331.979        0.344      870.645
12/05/2021  04:29:00      -31.018       -0.707      -11.024       29.552       13.470       18.636      873.322      181.434      347.291        0.124        0.070       31.026       14.747        0.226      331.924        0.251      870.647
12/05/2021  04:30:00      -37.141        5.892      -17.319       31.157       20.836       25.174      970.752      434.119      633.737        0.188        0.102       37.605       23.410        0.388      331.893        0.202      870.642
12/05/2021  04:31:00      -41.497       10.931       -8.570       40.167       29.763       30.023     1613.358      885.808      901.405        0.266        0.170       42.912       28.348        0.436      331.775        0.009      870.622
12/05/2021  04:32:00      -94.550       15.058      -18.095       28.554       25.788       17.664      815.336      665.025      312.004        0.564        0.090       95.741        4.155        0.002      331.871        0.166      870.625
12/05/2021  04:33:00      -45.406        2.623      -20.034       36.821       23.199       20.174     1355.815      538.201      406.979        0.239        0.115       45.482       15.908        0.122      331.999        0.377      870.628
12/05/2021  04:34:00      -13.126       -7.566      -15.989       16.414       30.597       16.880      269.421      936.150      284.919        0.099        0.075       15.150        5.221        0.119      332.078        0.507      870.635
12/05/2021  04:35:00      -31.307        9.947      -17.072       20.002       16.343       10.800      400.074      267.105      116.638        0.108        0.039       32.850        5.901        0.032      332.098        0.540      870.650
12/05/2021  04:36:00       -3.041      -42.829      -23.627       18.874       17.965       15.128      356.214      322.727      228.867        0.165        0.045       42.937        6.665        0.024      332.074        0.500      870.659
12/05/2021  04:37:00       29.065      -27.690      -23.690       24.410       34.323       19.105      595.843     1178.077      364.999        0.216        0.107       40.143       13.438        0.112      332.018        0.408      870.657
12/05/2021  04:38:00        5.011       -0.294      -24.356       26.271       23.090       16.377      690.171      533.162      268.217        0.105        0.075        5.020       14.092        7.880      332.079        0.508      870.654
12/05/2021  04:39:00      -21.017       24.372       -6.301       11.264       14.930        7.591      126.888      222.915       57.625        0.074        0.020       32.183        4.528        0.020      332.040        0.445      870.654
12/05/2021  04:40:00      -11.431      -23.130      -16.910       18.943       15.334       11.415      358.847      235.120      130.311        0.084        0.036       25.801        4.643        0.032      332.048        0.457      870.622
12/05/2021  04:41:00        0.810        3.948      -14.845        8.525       14.091        9.821       72.672      198.558       96.450        0.030        0.018        4.031        9.376        5.411      331.991        0.361      870.635
12/05/2021  04:42:00        4.759      -18.131      -14.229       15.438       39.841       11.923      238.343     1587.310      142.150        0.126        0.098       18.745       10.727        0.327      332.014        0.400      870.660
12/05/2021  04:43:00      -11.177       -3.601        0.385       16.980       35.580       18.880      288.321     1265.901      356.452        0.102        0.096       11.743       20.735        3.118      331.837        0.111      870.671
12/05/2021  04:44:00      -31.240       12.561       -8.145       15.899       16.808        8.692      252.786      282.520       75.550        0.091        0.031       33.671        8.677        0.066      331.781        0.017      870.674
12/05/2021  04:45:00      -11.826       -6.155      -11.571       21.093        7.887        7.844      444.912       62.204       61.533        0.044        0.028       13.332        5.873        0.194      331.864        0.158      870.626
12/05/2021  04:46:00        8.242        1.753       -9.082       11.610        8.093        5.863      134.799       65.498       34.370        0.019        0.012        8.426        3.724        0.195      331.887        0.193      870.628
12/05/2021  04:47:00      -38.961       -9.371       -5.686       24.360       17.987       15.462      593.406      323.530      239.065        0.140        0.058       40.072       11.922        0.089      331.877        0.176      870.639
12/05/2021  04:48:00      -43.892       -6.212        1.661       39.377       18.880       26.452     1550.564      356.446      699.726        0.229        0.130       44.330       26.208        0.350      331.727       -0.070      870.621
12/05/2021  04:49:00       -2.008       13.802       -0.520       20.182       12.838       11.891      407.322      164.808      141.387        0.045        0.036       13.947       12.499        0.803      331.768       -0.002      870.619
12/05/2021  04:50:00      -39.866       25.320       -7.561       17.788        8.063        7.629      316.406       65.012       58.202        0.136        0.022       47.227        7.912        0.028      331.888        0.193      870.635
12/05/2021  04:51:00      -52.963       12.977      -11.892       29.557       19.621       16.213      873.606      384.998      262.853        0.232        0.076       54.530        7.071        0.017      331.898        0.210      870.653
12/05/2021  04:52:00       -3.843       -9.373      -14.798       15.596       17.222       10.426      243.240      296.590      108.707        0.048        0.032       10.130        7.068        0.487      331.959        0.310      870.673
12/05/2021  04:53:00        7.707       18.828       -6.072       14.679       15.743        7.277      215.481      247.854       52.956        0.048        0.026       20.344        9.059        0.198      331.917        0.243      870.691
12/05/2021  04:54:00       26.823       32.383       -1.868       11.447       10.293        8.832      131.027      105.940       78.005        0.104        0.016       42.049        5.944        0.020      331.964        0.318      870.702
12/05/2021  04:55:00      -23.089       53.070       -7.864       31.795       14.119        9.412     1010.931      199.332       88.590        0.235        0.065       57.875        5.904        0.010      332.045        0.453      870.718
12/05/2021  04:56:00      -43.402       22.231      -15.469       18.237       16.966       12.314      332.587      287.854      151.629        0.169        0.039       48.764        3.619        0.006      331.711       -0.096      870.743
12/05/2021  04:57:00      -14.298      -10.321       -7.734       16.807       11.959        8.870      282.466      143.012       78.684        0.044        0.025       17.634        6.687        0.144      331.705       -0.107      870.767
12/05/2021  04:58:00      -35.347       10.807      -14.393       15.397        9.171       11.525      237.065       84.103      132.823        0.101        0.023       36.962        4.661        0.016      331.791        0.034      870.776
12/05/2021  04:59:00      -43.972       17.213      -16.770       11.412       13.774       13.440      130.229      189.717      180.628        0.151        0.025       47.221        7.924        0.028      331.791        0.034      870.790
12/05/2021  05:00:00      -56.499       25.895      -20.332       22.513       18.705       12.882      506.822      349.882      165.937        0.265        0.051       62.150        8.903        0.021      331.719       -0.084      870.792
12/05/2021  05:01:00      -66.980        8.567      -21.515       23.784       22.982       18.466      565.683      528.166      340.983        0.323        0.072       67.526       14.541        0.046      331.635       -0.224      870.799
12/05/2021  05:02:00      -21.031        9.621       -6.405       28.783       22.415       14.768      828.447      502.446      218.109        0.106        0.077       23.128       17.500        0.573      331.620       -0.245      870.777
12/05/2021  05:03:00      -40.432        7.966       -8.784       22.797       19.852       18.890      519.699      394.089      356.832        0.152        0.064       41.209       13.543        0.108      331.597       -0.285      870.773
12/05/2021  05:04:00      -81.566       24.889      -18.523       13.312       10.753        8.859      177.218      115.636       78.484        0.399        0.019       85.279        3.995        0.002      331.472       -0.492      870.768
12/05/2021  05:05:00     -101.162       30.710      -20.475       17.725       19.796       12.448      314.174      391.899      154.941        0.623        0.043      105.720        7.545        0.005      331.475       -0.487      870.789
12/05/2021  05:06:00     -114.048       37.191      -22.234       12.694       16.338       13.463      161.135      266.937      181.253        0.775        0.030      119.959        4.508        0.001      331.440       -0.545      870.796
12/05/2021  05:07:00     -113.849       36.607      -19.961       23.279       27.653       20.399      541.913      764.701      416.128        0.821        0.086      119.589        5.386        0.002      331.447       -0.534      870.810
12/05/2021  05:08:00      -67.786      -14.903      -13.403       41.178       27.851       29.301     1695.610      775.660      858.561        0.416        0.166       69.405       30.464        0.193      331.450       -0.528      870.836
12/05/2021  05:09:00      -83.011       -0.208      -14.748       23.133       36.976       20.579      535.131     1367.188      423.499        0.472        0.116       83.011       14.459        0.030      331.469       -0.496      870.829
12/05/2021  05:10:00      -62.332       16.215      -21.589       30.824       24.230       24.018      950.129      587.097      576.870        0.336        0.106       64.407       14.945        0.054      331.569       -0.332      870.798
12/05/2021  05:11:00     -100.010       22.102      -28.333       22.122       19.072       19.659      489.395      363.726      386.485        0.627        0.062      102.423        9.322        0.008      331.743       -0.045      870.750
12/05/2021  05:12:00     -107.631       29.690      -23.696       16.642       14.541       10.173      276.945      211.455      103.494        0.681        0.030      111.651        2.827        0.001      331.868        0.161      870.739
12/05/2021  05:13:00      -89.010       38.948      -13.507       38.425       31.188       17.243     1476.489      972.701      297.323        0.618        0.137       97.158       14.377        0.022      331.783        0.022      870.770
12/05/2021  05:14:00     -135.166       63.949      -15.545       43.503       26.713       26.162     1892.542      713.576      684.427        1.295        0.165      149.530       28.036        0.035      331.617       -0.252      870.812
12/05/2021  05:15:00     -106.082       26.733      -14.427       48.214       36.386       27.634     2324.616     1323.961      763.639        0.829        0.221      109.399       20.661        0.036      331.645       -0.205      870.833
12/05/2021  05:16:00      -36.073        3.802      -16.457       34.728       30.691       23.007     1206.012      941.945      529.312        0.213        0.134       36.272       10.999        0.092      331.597       -0.285      870.855
12/05/2021  05:17:00      -24.501      -21.712      -12.234       29.085       26.169       15.801      845.934      684.841      249.674        0.150        0.089       32.737       10.657        0.106      331.631       -0.230      870.839
12/05/2021  05:18:00      -51.428       18.008      -15.578       41.252       24.002       21.862     1701.768      576.116      477.948        0.298        0.138       54.490       14.379        0.070      331.636       -0.222      870.795
12/05/2021  05:19:00     -109.116       66.554      -19.470       31.356       29.783       19.500      983.185      887.036      380.241        0.948        0.113      127.811       13.559        0.011      331.718       -0.085      870.798
12/05/2021  05:20:00      -98.509       38.689      -24.050       41.469       30.535       17.519     1719.713      932.374      306.902        0.737        0.148      105.834       11.750        0.012      331.697       -0.121      870.822
12/05/2021  05:21:00      -81.357       36.569      -14.805       33.535       23.786       16.777     1124.596      565.755      281.452        0.507        0.099       89.198       14.350        0.026      331.681       -0.146      870.822
12/05/2021  05:22:00      -55.728        9.781      -24.607       23.250       24.020       19.733      540.585      576.941      389.397        0.266        0.075       56.580       18.611        0.108      331.829        0.097      870.812
12/05/2021  05:23:00      -43.831       32.715       -7.211       21.128       30.076       15.648      446.374      904.591      244.870        0.232        0.080       54.694       14.228        0.068      331.758       -0.020      870.787
12/05/2021  05:24:00      -29.319       10.942      -18.545       19.627       24.276       16.175      385.232      589.336      261.638        0.128        0.062       31.294        7.776        0.062      331.673       -0.160      870.762
12/05/2021  05:25:00      -74.745       23.596      -26.918       27.866       29.286       16.169      776.508      857.643      261.422        0.438        0.095       78.381        2.913        0.001      331.591       -0.295      870.772
12/05/2021  05:26:00      -60.205        4.427      -11.387       19.561       15.840       12.414      382.614      250.897      154.116        0.228        0.039       60.367       10.469        0.030      331.665       -0.173      870.780
12/05/2021  05:27:00      -23.307       12.495        5.756       29.356       14.756       13.630      861.770      217.744      185.766        0.100        0.063       26.445       17.920        0.459      331.600       -0.279      870.799
12/05/2021  05:28:00      -15.008       -2.657       -4.143       25.924       16.297       15.687      672.035      265.590      246.093        0.072        0.059       15.242       12.421        0.664      331.631       -0.228      870.829
12/05/2021  05:29:00      -29.685        1.321      -13.638       29.645       21.189       19.646      878.805      448.967      385.983        0.139        0.086       29.715       18.170        0.374      331.522       -0.409      870.822
12/05/2021  05:30:00      -65.659      -12.951      -22.110       44.564       27.790       29.377     1985.925      772.259      863.037        0.429        0.181       66.924       26.313        0.155      331.502       -0.445      870.803
12/05/2021  05:31:00      -74.699       -2.730      -20.369       33.956       25.363       24.996     1153.042      643.283      624.825        0.421        0.121       74.749       19.877        0.071      331.546       -0.371      870.809
12/05/2021  05:32:00      -92.060       28.275      -16.432       17.337       13.389       11.735      300.556      179.255      137.703        0.508        0.031       96.305        5.003        0.003      331.603       -0.276      870.841
12/05/2021  05:33:00      -62.334       32.396       -6.115       24.602       21.265       16.962      605.249      452.200      287.702        0.316        0.067       70.250       16.860        0.058      331.561       -0.345      870.890
12/05/2021  05:34:00      -56.596       15.396       -7.303       22.915       13.241        9.408      525.112      175.328       88.502        0.214        0.039       58.652        9.629        0.027      331.592       -0.292      870.939
12/05/2021  05:35:00      -51.989       10.529       -6.306       27.730       14.126       12.867      768.945      199.539      165.568        0.199        0.057       53.044       10.265        0.037      331.707       -0.104      870.977
12/05/2021  05:36:00      -83.056       26.088      -16.773       15.665       16.877        9.994      245.405      284.848       99.887        0.425        0.032       87.057        2.727        0.001      331.820        0.082      870.976
12/05/2021  05:37:00      -58.868       17.985      -11.042       10.463       14.449        8.628      109.470      208.771       74.439        0.215        0.020       61.554        7.263        0.014      331.823        0.088      870.945
12/05/2021  05:38:00      -48.129       17.231       -9.970        6.547        7.487        6.593       42.864       56.059       43.462        0.143        0.007       51.121        2.618        0.003      331.875        0.174      870.923
12/05/2021  05:39:00      -17.768        1.700       -8.039       11.874        8.204        7.596      140.989       67.309       57.701        0.032        0.013       17.849        7.743        0.188      331.941        0.281      870.915
12/05/2021  05:40:00       16.565      -14.890       -8.859       14.798       14.929       11.325      218.968      222.880      128.246        0.057        0.029       22.273       11.339        0.259      331.913        0.235      870.912
12/05/2021  05:41:00       -6.092      -16.972      -16.763       25.378       17.829       14.294      644.046      317.875      204.307        0.089        0.058       18.032        7.776        0.186      331.938        0.278      870.898
12/05/2021  05:42:00       -9.407       11.939       -6.263       27.393       23.534       13.572      750.399      553.852      184.187        0.088        0.074       15.200        7.532        0.246      331.753       -0.029      870.902
12/05/2021  05:43:00      -47.037        4.856       -2.954       33.744       29.816       16.675     1138.660      888.996      278.049        0.227        0.115       47.287       12.839        0.074      331.583       -0.309      870.888
12/05/2021  05:44:00      -68.001       26.087       -9.917       22.295       19.185       12.657      497.058      368.054      160.195        0.321        0.051       72.833        4.652        0.004      331.599       -0.281      870.879
12/05/2021  05:45:00      -45.027       27.029       -4.693       15.689       12.920       11.410      246.154      166.918      130.194        0.166        0.027       52.517        8.840        0.028      331.534       -0.389      870.879
12/05/2021  05:46:00      -53.920       11.595       -8.924       13.350       17.810       10.731      178.220      317.185      115.150        0.187        0.031       55.153        8.746        0.025      331.713       -0.092      870.890
12/05/2021  05:47:00      -13.641        5.971        1.555       43.723       27.506       25.874     1911.713      756.570      669.486        0.178        0.167       14.891       28.104        3.562      331.589       -0.298      870.910
12/05/2021  05:48:00     -117.120       11.149       -6.703       43.100       34.453       26.966     1857.602     1186.977      727.175        0.883        0.189      117.650       21.071        0.032      331.532       -0.392      870.939
12/05/2021  05:49:00      -86.864       27.252       -6.778       35.862       28.559       16.236     1286.106      815.625      263.605        0.535        0.118       91.038       13.141        0.021      331.663       -0.177      870.968
12/05/2021  05:50:00     -137.425       43.445       -6.360       42.660       26.677       22.570     1819.898      711.656      509.406        1.193        0.152      144.129       18.877        0.017      331.419       -0.579      870.990
12/05/2021  05:51:00      -85.063       11.575       -4.714       82.363       43.210       37.737     6783.602     1867.061     1424.106        0.873        0.504       85.847       44.409        0.268      331.465       -0.503      871.020
12/05/2021  05:52:00      -49.499       16.054      -11.718       67.796       46.311       33.291     4596.246     2144.688     1108.306        0.535        0.392       52.037       27.494        0.279      331.500       -0.446      871.005
12/05/2021  05:53:00      -50.102       -8.033      -18.143       41.203       63.769       30.923     1697.683     4066.525      956.249        0.481        0.336       50.742       10.232        0.041      331.433       -0.556      870.951
12/05/2021  05:54:00      -48.689        9.067        3.122       50.953       23.586       22.330     2596.158      556.289      498.639        0.306        0.183       49.526       17.097        0.119      331.464       -0.506      870.912
12/05/2021  05:55:00      -91.162       32.064       -8.072       26.625       20.155       14.858      708.867      406.207      220.765        0.537        0.067       96.636       10.585        0.012      331.557       -0.350      870.890
12/05/2021  05:56:00      -42.473        8.113      -11.468       47.471       27.366       17.885     2253.502      748.913      319.868        0.266        0.166       43.241       12.232        0.080      331.507       -0.433      870.875
12/05/2021  05:57:00      -70.815       11.665      -11.039       20.800       16.501       15.554      432.636      272.268      241.926        0.311        0.047       71.770       14.382        0.040      331.527       -0.402      870.857
12/05/2021  05:58:00      -66.284       19.534       -4.309       13.191       19.956       11.580      174.005      398.237      134.092        0.275        0.035       69.103        6.230        0.008      331.502       -0.441      870.867
12/05/2021  05:59:00      -25.085        7.996       -4.477       17.224       11.417        7.268      296.657      130.347       52.825        0.060        0.024       26.328        7.169        0.074      331.555       -0.354      870.902
12/05/2021  06:00:00        3.163        0.705       -7.257        6.084        9.178        7.070       37.014       84.238       49.985        0.012        0.009        3.241        6.673        4.239      331.666       -0.172      870.954
12/05/2021  06:01:00       18.992       -3.112       -1.808        7.807       13.564        6.061       60.945      183.973       36.734        0.033        0.014       19.246        1.977        0.011      331.905        0.221      871.016
12/05/2021  06:02:00        2.733       -3.405       -2.609        6.581        5.568        4.940       43.306       31.001       24.406        0.006        0.005        4.366        3.856        0.780      331.832        0.104      871.050
12/05/2021  06:03:00       35.698       23.559       -4.559       14.912       15.506        7.752      222.357      240.445       60.100        0.119        0.026       42.771        6.458        0.023      331.667       -0.170      871.064
12/05/2021  06:04:00       75.765       31.861      -13.055       17.188       13.159        9.995      295.423      173.167       99.901        0.375        0.028       82.192        6.022        0.005      331.460       -0.510      871.062
12/05/2021  06:05:00       74.322       14.765      -18.706       33.509       25.442       21.251     1122.882      647.315      451.612        0.416        0.111       75.774       16.745        0.049      331.409       -0.594      871.055
12/05/2021  06:06:00       51.307       24.011      -10.532       37.530       24.820       20.203     1408.531      616.019      408.141        0.288        0.122       56.648       15.301        0.073      331.294       -0.785      871.060
12/05/2021  06:07:00       12.410       18.772       -2.864       16.039        9.208        7.362      257.253       84.787       54.204        0.046        0.020       22.503        5.743        0.065      331.288       -0.796      871.072
12/05/2021  06:08:00       25.708        2.916      -11.606        8.589       14.126        5.660       73.762      199.550       32.038        0.055        0.015       25.873        6.340        0.060      331.585       -0.304      871.069
12/05/2021  06:09:00       12.416       -3.175       -7.720       13.831       10.207       10.696      191.286      104.176      114.406        0.032        0.020       12.816        7.231        0.318      331.539       -0.381      871.055
12/05/2021  06:10:00       -6.842        9.244       -3.507       14.154        9.356        4.491      200.325       87.542       20.173        0.023        0.015       11.501        4.108        0.128      331.622       -0.244      871.058
12/05/2021  06:11:00      -36.041       26.589       -7.286        6.742        5.709        6.594       45.461       32.591       43.477        0.109        0.006       44.787        3.564        0.006      331.672       -0.159      871.083
12/05/2021  06:12:00      -52.004       40.576       -8.103        8.722       13.861        7.319       76.066      192.133       53.563        0.237        0.016       65.961        3.876        0.003      331.627       -0.234      871.110
12/05/2021  06:13:00      -45.698        4.021      -14.211       13.540       18.373        9.114      183.332      337.580       83.069        0.146        0.030       45.875        6.521        0.020      331.635       -0.222      871.118
12/05/2021  06:14:00      -58.140       11.627      -11.190        9.707       10.354        8.582       94.226      107.212       73.651        0.196        0.014       59.292        7.457        0.016      331.769       -0.003      871.104
12/05/2021  06:15:00      -76.460       41.121      -15.334       12.936       11.237       10.819      167.331      126.278      117.056        0.409        0.021       86.816        4.909        0.003      331.741       -0.049      871.076
12/05/2021  06:16:00      -60.032       20.793      -11.749       12.674       12.658       10.644      160.618      160.220      113.288        0.230        0.022       63.531        7.303        0.013      331.799        0.048      871.057
12/05/2021  06:17:00      -50.039       23.916      -12.418        9.661        8.281        6.678       93.338       68.579       44.592        0.172        0.010       55.460        5.551        0.010      331.996        0.371      871.079
12/05/2021  06:18:00      -35.485        4.575      -21.689       17.959       17.638       11.123      322.540      311.091      123.713        0.125        0.038       35.778        6.746        0.036      331.857        0.143      871.132
12/05/2021  06:19:00      -44.750      -18.443      -18.797       16.538       17.043       14.149      273.516      290.471      200.189        0.173        0.038       48.402        8.180        0.029      331.697       -0.119      871.145
12/05/2021  06:20:00      -37.475      -16.388      -20.643       15.181        9.777       12.452      230.461       95.587      155.062        0.129        0.024       40.901        5.646        0.019      331.840        0.115      871.111
12/05/2021  06:21:00       -8.297      -25.044       -7.895       13.471        9.815        9.056      181.466       96.339       82.014        0.056        0.018       26.382        7.157        0.074      332.287        0.851      871.069
12/05/2021  06:22:00      -13.918       -6.032       -4.638       10.557       11.055       11.200      111.444      122.204      125.438        0.031        0.018       15.169        7.612        0.252      332.265        0.813      871.074
12/05/2021  06:23:00      -36.870        7.422      -17.958       13.700        5.246        7.480      187.697       27.524       55.943        0.100        0.014       37.609        3.810        0.010      332.069        0.490      871.091
12/05/2021  06:24:00      -71.557       27.189      -14.938       13.772       14.168        8.106      189.666      200.729       65.714        0.327        0.023       76.549        3.554        0.002      331.790        0.033      871.121
12/05/2021  06:25:00     -105.439       44.857      -12.312       16.919       13.034       18.218      286.243      169.886      331.892        0.703        0.039      114.584        8.173        0.005      331.751       -0.031      871.149
12/05/2021  06:26:00      -76.361       14.091      -21.033       38.086       24.683       15.188     1450.553      609.266      230.682        0.438        0.115       77.650       15.160        0.038      331.643       -0.210      871.134
12/05/2021  06:27:00      -49.587       -4.758       -6.278       22.006       27.218       15.366      484.285      740.819      236.117        0.199        0.073       49.815       12.771        0.066      331.578       -0.315      871.073
12/05/2021  06:28:00      -54.757       -0.186      -15.190       39.755       27.106       24.038     1580.468      734.713      577.825        0.306        0.145       54.757       15.673        0.082      331.563       -0.341      871.041
12/05/2021  06:29:00     -165.846       75.112      -15.945       43.041       38.082       23.589     1852.502     1450.204      556.462        1.863        0.193      182.062       18.828        0.011      331.476       -0.485      871.070
12/05/2021  06:30:00     -157.351       56.742      -17.157       77.001       60.804       40.778     5929.084     3697.114     1662.838        1.978        0.564      167.269       37.971        0.052      331.294       -0.784      871.116
12/05/2021  06:31:00     -130.569       69.218      -12.164       99.061       77.915       42.073     9813.151     6070.698     1770.178        1.982        0.883      147.781       40.211        0.074      331.208       -0.926      871.148
12/05/2021  06:32:00     -126.044       80.529      -19.188       59.011       55.408       36.693     3482.278     3070.029     1346.375        1.532        0.395      149.572        6.261        0.002      331.182       -0.969      871.143
12/05/2021  06:33:00      -99.644       32.460      -12.028       54.538       37.723       34.488     2974.443     1423.016     1189.421        0.836        0.279      104.798       30.502        0.085      331.235       -0.879      871.123
12/05/2021  06:34:00     -132.816       27.851      -18.951       42.640       30.481       26.550     1818.131      929.111      704.906        1.111        0.173      135.705       21.558        0.025      331.344       -0.702      871.126
12/05/2021  06:35:00      -93.343       43.548      -25.339       59.031       58.683       30.900     3484.672     3443.731      954.813        0.957        0.394      103.002       27.032        0.069      331.484       -0.472      871.139
12/05/2021  06:36:00     -124.389       20.658      -30.826       37.206       34.752       22.250     1384.277     1207.687      495.059        0.997        0.154      126.093       15.304        0.015      331.507       -0.435      871.131
12/05/2021  06:37:00     -106.425        9.555      -13.680       70.264       40.457       29.193     4937.012     1636.767      852.215        0.951        0.371      106.853       26.572        0.062      331.481       -0.476      871.124
12/05/2021  06:38:00     -127.951       25.088      -24.341       60.107       42.995       28.846     3612.907     1848.530      832.081        1.194        0.315      130.387       20.043        0.024      331.425       -0.569      871.153
12/05/2021  06:39:00     -101.049       37.818      -33.092       50.780       48.894       34.765     2578.595     2390.669     1208.608        0.946        0.309      107.894       26.320        0.060      331.608       -0.268      871.161
12/05/2021  06:40:00     -104.649       44.648      -15.498       42.305       29.511       31.421     1789.754      870.886      987.300        0.842        0.182      113.775       25.739        0.051      331.621       -0.246      871.145
12/05/2021  06:41:00      -88.267       63.742      -12.872       36.921       25.576       22.476     1363.175      654.131      505.193        0.727        0.126      108.876       18.438        0.029      331.706       -0.106      871.124
12/05/2021  06:42:00     -116.386       47.622      -11.952       31.017       26.647       20.581      962.035      710.064      423.566        0.903        0.105      125.752       17.472        0.019      331.738       -0.053      871.132
12/05/2021  06:43:00      -81.861       37.017       -5.776       26.736       22.596       19.471      714.817      510.577      379.122        0.485        0.080       89.842       13.863        0.024      331.851        0.134      871.146
12/05/2021  06:44:00      -36.495      -20.862       -5.386       29.087       26.349       17.608      846.045      694.279      310.057        0.182        0.093       42.037       14.965        0.127      332.011        0.397      871.154
12/05/2021  06:45:00        4.492      -24.651      -19.978       12.911       15.962       15.627      166.691      254.780      244.211        0.085        0.033       25.057        9.626        0.148      332.085        0.516      871.181
12/05/2021  06:46:00        7.351       12.086      -11.321       16.432        9.755       10.977      269.998       95.162      120.503        0.041        0.024       14.146        7.768        0.302      332.121        0.578      871.221
12/05/2021  06:47:00       53.860       27.042       -8.642       12.149       10.174        7.399      147.592      103.514       54.739        0.201        0.015       60.267        4.043        0.005      331.992        0.365      871.239
12/05/2021  06:48:00       35.170      -20.870      -15.919       25.722       40.683       22.277      661.631     1655.074      496.243        0.237        0.141       40.896       12.640        0.096      331.935        0.272      871.208
12/05/2021  06:49:00        5.881       -0.877       -6.431       36.396       24.587       24.760     1324.682      604.529      613.052        0.131        0.127        5.946       19.397       10.643      331.708       -0.102      871.168
12/05/2021  06:50:00      -17.172       -0.259      -10.869       27.436       23.550       13.755      752.710      554.592      189.197        0.095        0.075       17.174       13.351        0.604      331.877        0.176      871.163
12/05/2021  06:51:00      -34.947       18.769      -11.865       23.115       19.262       12.401      534.306      371.025      153.785        0.139        0.053       39.668        9.985        0.063      331.644       -0.208      871.188
12/05/2021  06:52:00       20.054       -2.951      -18.638       22.333        7.986       11.049      498.762       63.775      122.081        0.072        0.034       20.270        7.215        0.127      331.812        0.069      871.227
12/05/2021  06:53:00       53.246       19.494       -8.342       18.715       11.636       14.328      350.248      135.406      205.305        0.199        0.035       56.703        7.605        0.018      331.712       -0.096      871.258
12/05/2021  06:54:00       45.308        8.336      -16.219       15.403       14.393       11.046      237.241      207.148      122.007        0.148        0.028       46.068        5.869        0.016      331.669       -0.166      871.283
12/05/2021  06:55:00       21.982        7.285       -7.604       17.148       13.846       12.050      294.049      191.720      145.211        0.061        0.032       23.157       10.637        0.211      331.476       -0.486      871.295
12/05/2021  06:56:00       -0.545      -24.723      -11.412       13.856       13.829       11.495      191.989      191.250      132.125        0.063        0.026       24.729        7.852        0.101      331.542       -0.375      871.275
12/05/2021  06:57:00       -7.230       -3.960       -6.605       13.110       17.711       15.396      171.883      313.685      237.038        0.042        0.036        8.244        5.829        0.500      331.663       -0.175      871.237
12/05/2021  06:58:00       -2.369       10.900       -4.086       10.575       15.833       10.733      111.836      250.685      115.206        0.031        0.024       11.154        5.881        0.278      331.604       -0.273      871.225
12/05/2021  06:59:00       18.254      -14.655       -4.240       24.501       16.888       14.442      600.300      285.218      208.577        0.083        0.055       23.409       11.918        0.259      331.748       -0.037      871.227
12/05/2021  07:00:00       19.685       30.126       -8.078       21.347       22.508       11.987      455.690      506.609      143.685        0.123        0.055       35.987       13.910        0.149      331.718       -0.086      871.239
12/05/2021  07:01:00      -23.560       41.796       -1.830       18.103       10.965        7.755      327.707      120.231       60.134        0.141        0.025       47.979        8.798        0.034      331.866        0.158      871.249
12/05/2021  07:02:00      -31.951       16.646       -8.719       12.476       20.196       11.294      155.644      407.866      127.545        0.103        0.035       36.027        7.823        0.047      331.612       -0.261      871.230
12/05/2021  07:03:00      -17.711       -1.341      -10.115       16.647       11.451        9.392      277.119      131.126       88.218        0.046        0.025       17.762        5.895        0.110      331.643       -0.208      871.228
12/05/2021  07:04:00       -2.474        4.733       -3.888       12.527       16.879       13.189      156.922      284.896      173.947        0.033        0.031        5.341        5.824        1.189      331.612       -0.260      871.241
12/05/2021  07:05:00      -19.431       19.568       -6.787       17.784       12.075        7.300      316.275      145.800       53.285        0.066        0.026       27.576        7.504        0.074      331.579       -0.314      871.256
12/05/2021  07:06:00        5.180       15.389       -7.109        7.521        9.037        6.937       56.566       81.663       48.115        0.025        0.009       16.237        4.677        0.083      331.620       -0.247      871.263
12/05/2021  07:07:00        1.773       24.531       -1.465       10.216        7.278        5.096      104.367       52.975       25.973        0.040        0.009       24.595        3.481        0.020      331.638       -0.218      871.261
12/05/2021  07:08:00      -18.180       31.441       -0.332        7.306        6.843        3.486       53.376       46.826       12.149        0.072        0.006       36.319        1.701        0.002      331.757       -0.023      871.277
12/05/2021  07:09:00      -11.565       42.262       -8.780        9.032        8.401        5.390       81.585       70.583       29.050        0.109        0.009       43.815        3.698        0.007      331.752       -0.031      871.315
12/05/2021  07:10:00        0.913       24.226       -5.069        7.907        9.610        5.175       62.528       92.346       26.784        0.040        0.009       24.243        2.534        0.011      331.795        0.043      871.358
12/05/2021  07:11:00      -11.342       28.449       -3.280       11.230        6.265        3.834      126.123       39.249       14.696        0.056        0.009       30.626        1.115        0.001      331.918        0.243      871.376
12/05/2021  07:12:00      -28.278       45.830      -10.358       18.255       10.746        8.787      333.260      115.477       77.212        0.177        0.026       53.851        4.624        0.007      331.646       -0.203      871.355
12/05/2021  07:13:00      -56.574       25.824      -12.143       15.472       16.921       11.808      239.369      286.328      139.419        0.234        0.033       62.190        6.199        0.010      331.418       -0.580      871.326
12/05/2021  07:14:00      -51.305       -2.807      -17.079       30.811       21.405       16.679      949.294      458.178      278.184        0.231        0.084       51.382       15.737        0.094      331.321       -0.739      871.304
12/05/2021  07:15:00      -31.557        3.470       -3.232       29.667       14.680       13.577      880.115      215.491      184.334        0.115        0.064       31.747       13.130        0.171      331.374       -0.652      871.273
12/05/2021  07:16:00      -42.884       13.012      -10.157       21.175       10.486       14.579      448.372      109.958      212.544        0.144        0.039       44.815       14.071        0.099      331.461       -0.510      871.252
12/05/2021  07:17:00      -89.874       37.695      -18.160       17.753       16.526       11.082      315.170      273.102      122.812        0.527        0.036       97.459        9.096        0.009      331.367       -0.664      871.264
12/05/2021  07:18:00      -96.232       33.575       -9.965       41.151       19.422       19.185     1693.397      377.221      368.048        0.646        0.122      101.921       17.352        0.029      331.263       -0.835      871.284
12/05/2021  07:19:00      -19.647       44.602       -4.524       22.717       21.760       14.778      516.067      473.479      218.385        0.180        0.060       48.737       11.399        0.055      331.429       -0.562      871.286
12/05/2021  07:20:00      -10.299       62.065       -4.431       16.504       29.843       11.400      272.389      890.592      129.959        0.264        0.065       62.913        6.254        0.010      331.953        0.301      871.297
12/05/2021  07:21:00      -46.180       19.882      -18.013       14.095       16.535       20.783      198.659      273.417      431.922        0.188        0.045       50.278        4.945        0.010      331.699       -0.117      871.299
12/05/2021  07:22:00      -50.799      -16.459       -7.266       18.231       21.058       12.094      332.368      443.421      146.256        0.191        0.046       53.399        9.851        0.034      331.436       -0.552      871.285
12/05/2021  07:23:00      -21.891       11.488      -11.449       20.621       24.750       16.571      425.213      612.573      274.602        0.103        0.066       24.722        9.562        0.150      331.437       -0.550      871.270
12/05/2021  07:24:00       -3.535       -5.395       -3.213       26.231       20.535       21.709      688.086      421.669      471.277        0.082        0.079        6.449       17.013        6.959      331.485       -0.469      871.260
12/05/2021  07:25:00      -40.205       -5.200      -10.960       38.559       25.995       17.225     1486.821      675.744      296.699        0.211        0.123       40.540       11.412        0.079      331.487       -0.469      871.256
12/05/2021  07:26:00      -58.421        3.212       -3.890       38.533       20.812       17.757     1484.756      433.158      315.327        0.284        0.112       58.510       14.066        0.058      331.475       -0.488      871.248
12/05/2021  07:27:00      -77.668        9.284      -11.912       28.507       26.197       15.665      812.650      686.274      245.387        0.400        0.087       78.221       11.619        0.022      331.528       -0.401      871.233
12/05/2021  07:28:00     -104.961       59.604      -11.993       29.039       30.939       18.267      843.248      957.250      333.688        0.842        0.107      120.704       12.456        0.011      331.488       -0.467      871.251
12/05/2021  07:29:00     -111.188       74.286      -22.052       21.019       34.639       14.670      441.809     1199.867      215.195        1.011        0.093      133.721       11.299        0.007      331.814        0.072      871.250
12/05/2021  07:30:00      -55.697        3.355      -15.167       55.257       30.500       21.538     3053.337      930.249      463.892        0.389        0.222       55.798       26.915        0.233      331.801        0.051      871.203
12/05/2021  07:31:00       19.228      -12.174       -0.635       24.024       24.026       17.463      577.159      577.265      304.945        0.099        0.073       22.758        4.593        0.041      331.807        0.061      871.179
12/05/2021  07:32:00      -61.803       -3.602       -8.498       46.467       32.327       23.670     2159.141     1045.041      560.286        0.383        0.188       61.908       15.680        0.064      331.644       -0.208      871.190
12/05/2021  07:33:00     -104.652       21.625       -8.313       38.416       25.835       19.458     1475.827      667.426      378.600        0.700        0.126      106.863       11.161        0.011      331.606       -0.270      871.208
12/05/2021  07:34:00      -93.233       43.017       -6.136       42.532       37.888       21.560     1808.944     1435.498      464.842        0.714        0.185      102.678       22.411        0.048      331.593       -0.291      871.233
12/05/2021  07:35:00      -84.057       31.302       -3.760       46.915       29.728       21.199     2200.989      883.735      449.403        0.580        0.177       89.696       12.677        0.020      331.703       -0.111      871.245
12/05/2021  07:36:00      -63.201       25.977      -10.189       49.763       39.299       23.044     2476.404     1544.384      531.043        0.466        0.228       68.332       17.087        0.063      331.755       -0.025      871.239
12/05/2021  07:37:00      -85.311       40.539      -18.220       39.058       44.163       25.809     1525.552     1950.358      666.112        0.670        0.207       94.454       17.786        0.035      331.759       -0.017      871.230
12/05/2021  07:38:00      -80.278       40.000      -11.792       48.807       32.797       28.356     2382.146     1075.675      804.072        0.622        0.213       89.692       24.972        0.078      331.790        0.034      871.198
12/05/2021  07:39:00      -68.513       21.009       -6.508       31.803       36.562       16.025     1011.401     1336.768      256.803        0.389        0.130       71.662       10.112        0.020      331.913        0.236      871.167
12/05/2021  07:40:00        3.640      -28.841      -16.806       16.697       33.066       15.245      278.792     1093.361      232.418        0.137        0.080       29.070        8.031        0.076      331.991        0.363      871.161
12/05/2021  07:41:00      -23.522      -20.824      -14.182       28.936       30.550       17.002      837.272      933.274      289.059        0.162        0.103       31.415       11.840        0.142      331.968        0.325      871.185
12/05/2021  07:42:00      -55.060        0.339        6.888       31.547       24.810       18.551      995.190      615.546      344.141        0.252        0.098       55.061       19.680        0.128      331.882        0.185      871.219
12/05/2021  07:43:00      -68.277      -19.240       -9.720       26.381       15.610       16.280      695.970      243.671      265.050        0.317        0.060       70.936       14.232        0.040      332.175        0.666      871.250
12/05/2021  07:44:00      -21.027        5.003       -2.354       23.292       21.539       13.105      542.530      463.933      171.740        0.083        0.059       21.614        5.987        0.077      332.204        0.714      871.254
12/05/2021  07:45:00      -30.979       16.244       -6.241       12.124       11.280        8.886      146.980      127.243       78.968        0.081        0.018       34.980        6.623        0.036      332.256        0.799      871.252
12/05/2021  07:46:00       -7.667       20.908       -3.331        5.071       10.895       11.762       25.712      118.712      138.340        0.039        0.014       22.270        8.153        0.134      332.342        0.940      871.258
12/05/2021  07:47:00      -10.191       10.006       -2.285        9.642        5.254        5.412       92.964       27.610       29.287        0.018        0.007       14.282        3.466        0.059      332.407        1.049      871.244
12/05/2021  07:48:00      -22.749       -1.170       -5.596       12.513       11.170        8.671      156.571      124.765       75.178        0.045        0.018       22.779        3.503        0.024      332.249        0.787      871.217
12/05/2021  07:49:00       11.797        4.622       -6.941        5.996        8.685        9.101       35.958       75.425       82.833        0.020        0.010       12.670        5.644        0.198      332.163        0.646      871.228
12/05/2021  07:50:00       -2.044       22.731      -11.399       12.518       15.041       10.357      156.702      226.246      107.270        0.057        0.025       22.823        6.581        0.083      332.269        0.821      871.260
12/05/2021  07:51:00      -19.160      -14.713       -5.090       20.242       19.649       19.544      409.755      386.074      381.984        0.089        0.059       24.158       15.769        0.426      332.472        1.158      871.271
12/05/2021  07:52:00      -12.012       25.771       -8.011       25.866       25.785       13.583      669.030      664.845      184.502        0.120        0.076       28.433       10.497        0.136      332.425        1.080      871.265
12/05/2021  07:53:00       25.990      -31.962      -14.729       49.445       34.872       25.145     2444.823     1216.070      632.259        0.310        0.215       41.195       23.597        0.328      332.437        1.099      871.269
12/05/2021  07:54:00       42.797       -2.866      -11.386       27.179       41.433       18.817      738.718     1716.700      354.061        0.239        0.140       42.893       16.204        0.143      332.376        0.998      871.320
12/05/2021  07:55:00       32.061       29.754        0.919       28.292       36.718       18.076      800.412     1348.210      326.726        0.219        0.124       43.740       15.956        0.133      332.231        0.760      871.353
12/05/2021  07:56:00       16.516      -22.869       -9.286       28.510       26.020       24.744      812.808      677.038      612.263        0.149        0.105       28.209       18.808        0.445      332.399        1.037      871.350
12/05/2021  07:57:00       38.415        8.384       -9.003       29.886       40.669       22.640      893.160     1653.945      512.588        0.234        0.153       39.319        9.984        0.064      332.261        0.809      871.350
12/05/2021  07:58:00       16.548        0.133       -9.629       20.607       22.024       15.659      424.639      485.045      245.207        0.076        0.058       16.548       13.734        0.689      332.262        0.810      871.340
12/05/2021  07:59:00       62.730       -5.648      -12.198       41.993       29.939       22.205     1763.437      896.348      493.058        0.363        0.158       62.984       13.034        0.043      332.183        0.680      871.336
12/05/2021  08:00:00       78.855        6.135      -13.241       31.123       34.741       26.604      968.642     1206.949      707.770        0.466        0.144       79.094        7.445        0.009      332.044        0.450      871.346
12/05/2021  08:01:00       41.336      -27.387      -14.605       41.681       39.332       28.635     1737.281     1547.004      819.972        0.339        0.205       49.586       22.853        0.212      332.118        0.573      871.369
12/05/2021  08:02:00       48.693      -19.254      -16.608       36.633       44.870       20.219     1341.943     2013.357      408.819        0.339        0.188       52.361       19.129        0.133      332.172        0.661      871.397
12/05/2021  08:03:00       66.607       18.257      -18.757       29.706       31.263       15.592      882.469      977.403      243.101        0.361        0.105       69.064        8.875        0.017      332.178        0.670      871.395
12/05/2021  08:04:00       71.370       24.704      -16.749       32.603       28.661       16.220     1062.965      821.464      263.074        0.407        0.107       75.524       13.803        0.033      332.174        0.664      871.381
12/05/2021  08:05:00       24.089        2.702      -12.989       32.635       42.125       23.173     1065.043     1774.526      537.000        0.207        0.169       24.240       11.872        0.240      332.254        0.796      871.348
12/05/2021  08:06:00       39.682       32.654       -4.954       31.146       43.289       18.956      970.095     1873.937      359.334        0.293        0.160       51.390       15.148        0.087      332.258        0.803      871.347
12/05/2021  08:07:00       82.854       54.971      -21.395       27.102       24.141       21.059      734.542      582.799      443.461        0.605        0.088       99.431       12.446        0.016      332.227        0.751      871.363
12/05/2021  08:08:00       78.899       24.738      -19.649       41.472       45.968       20.652     1719.920     2113.055      426.513        0.574        0.213       82.687       17.908        0.047      332.299        0.872      871.406
12/05/2021  08:09:00      112.933       31.661      -20.283       57.257       33.035       19.044     3278.380     1091.339      362.672        0.945        0.237      117.287        9.647        0.007      332.250        0.791      871.472
12/05/2021  08:10:00      116.853        3.877      -10.798       51.770       34.971       20.797     2680.096     1222.952      432.534        0.906        0.217      116.917       12.522        0.011      332.279        0.838      871.537
12/05/2021  08:11:00       84.002       37.842      -24.680       27.381       25.625       22.618      749.734      656.661      511.561        0.551        0.096       92.132        8.881        0.009      332.322        0.909      871.572
12/05/2021  08:12:00       74.503       44.950      -26.189       15.700       16.069       13.060      246.495      258.227      170.555        0.447        0.034       87.013        4.704        0.003      332.200        0.707      871.591
12/05/2021  08:13:00       44.311       51.495       -8.939       21.280       19.634       16.583      452.859      385.513      274.981        0.290        0.056       67.935       11.218        0.027      332.330        0.922      871.590
12/05/2021  08:14:00       94.629       54.263      -18.273       26.762       21.891       17.850      716.231      479.233      318.629        0.687        0.076      109.083       10.762        0.010      332.207        0.718      871.575
12/05/2021  08:15:00       47.772       10.363      -11.398       31.113       21.702       18.432      967.990      470.974      339.745        0.215        0.089       48.883       15.229        0.097      332.448        1.117      871.547
12/05/2021  08:16:00       48.267       35.806      -21.886       23.178       16.976       15.800      537.228      288.183      249.626        0.258        0.054       60.098       10.356        0.030      332.497        1.198      871.546
12/05/2021  08:17:00       28.710       32.875      -13.068       25.117       18.510       13.809      630.853      342.621      190.675        0.162        0.058       43.647        7.081        0.026      332.505        1.211      871.571
12/05/2021  08:18:00       43.686       30.662      -26.166       17.049       16.232       25.959      290.684      263.463      673.868        0.238        0.061       53.372        7.324        0.019      332.472        1.156      871.583
12/05/2021  08:19:00       41.606       -0.018      -21.469       16.222       27.945       11.926      263.143      780.923      142.240        0.169        0.059       41.606        7.659        0.034      332.594        1.358      871.576
12/05/2021  08:20:00       22.931      -38.716      -17.370       20.842       17.131       12.863      434.392      293.481      165.469        0.161        0.045       44.998        7.625        0.029      332.730        1.585      871.573
12/05/2021  08:21:00       44.585        8.941      -17.962       19.022       28.840       13.102      361.853      831.737      171.671        0.188        0.068       45.473        5.271        0.013      332.731        1.586      871.574
12/05/2021  08:22:00       31.246        5.747      -23.201       19.191       19.611       16.493      368.281      384.584      272.027        0.129        0.051       31.770        9.830        0.096      332.730        1.583      871.555
12/05/2021  08:23:00      -15.247       -3.759       -5.809       20.026       18.999       13.818      401.056      360.974      190.943        0.062        0.048       15.704       12.133        0.597      332.842        1.767      871.550
12/05/2021  08:24:00       14.073       11.140      -13.969       17.720       11.308       11.565      313.989      127.878      133.751        0.055        0.029       17.948        3.659        0.042      332.853        1.786      871.589
12/05/2021  08:25:00      -18.298       12.717      -13.026       16.075       10.497        9.370      258.393      110.183       87.801        0.056        0.023       22.283        6.307        0.080      332.755        1.625      871.615
12/05/2021  08:26:00      -17.477       40.158      -12.495       17.590       20.677       12.730      309.399      427.519      162.048        0.149        0.045       43.796        9.987        0.052      332.739        1.599      871.632
12/05/2021  08:27:00      -25.326       25.645       -4.603       16.913       16.863        9.806      286.048      284.361       96.163        0.099        0.033       36.043        8.028        0.050      332.796        1.692      871.648
12/05/2021  08:28:00      -37.780       16.233      -12.806        9.675        9.731        8.039       93.603       94.687       64.623        0.105        0.013       41.120        5.422        0.017      332.785        1.673      871.667
12/05/2021  08:29:00      -23.400       -4.581       -5.146       13.996       11.308       12.811      195.895      127.863      164.129        0.054        0.024       23.844        6.137        0.066      333.020        2.064      871.652
12/05/2021  08:30:00      -24.823       -0.842       -4.603       14.741       11.502       14.204      217.304      132.299      201.765        0.059        0.028       24.838        9.691        0.152      333.034        2.087      871.627
12/05/2021  08:31:00      -18.961       -8.308       -0.982       23.373       13.530       11.241      546.277      183.063      126.367        0.064        0.043       20.701        8.647        0.174      333.072        2.147      871.601
12/05/2021  08:32:00      -50.880        5.747       -1.123       40.662       25.047       17.486     1653.405      627.349      305.750        0.260        0.129       51.204       15.201        0.088      333.092        2.181      871.597
12/05/2021  08:33:00      -97.799       12.150       -8.606       22.112       15.963       14.835      488.921      254.831      220.082        0.537        0.048       98.551       12.926        0.017      332.947        1.941      871.617
12/05/2021  08:34:00      -76.523        9.892       -5.297       35.111       16.433       15.563     1232.796      270.028      242.214        0.386        0.087       77.160       16.863        0.048      333.002        2.034      871.602
12/05/2021  08:35:00      -97.356      -23.836      -11.218       46.308       22.165       21.724     2144.448      491.284      471.927        0.664        0.155      100.231       22.612        0.051      333.099        2.193      871.538
12/05/2021  08:36:00     -121.328      -17.020      -12.027       42.124       29.810       27.720     1774.469      888.649      768.418        0.929        0.172      122.516       24.347        0.039      333.174        2.317      871.517
12/05/2021  08:37:00      -59.767        8.082       -7.246       37.995       25.572       21.012     1443.610      653.912      441.497        0.311        0.127       60.311       20.621        0.117      333.214        2.382      871.510
12/05/2021  08:38:00      -32.946       -2.071       -6.395       15.710       10.210        8.622      246.820      104.239       74.333        0.078        0.021       33.011        7.975        0.058      333.198        2.356      871.486
12/05/2021  08:39:00      -17.776        6.036       -2.519       24.123       19.523       13.076      581.910      381.166      170.975        0.075        0.057       18.773       14.243        0.576      333.385        2.666      871.470
12/05/2021  08:40:00      -39.836       -5.789       -4.676       24.892       17.079       14.216      619.589      291.685      202.088        0.138        0.056       40.254        9.808        0.059      333.296        2.520      871.492
12/05/2021  08:41:00      -37.387      -13.826       -6.508       24.344       22.681       15.808      592.628      514.415      249.905        0.149        0.068       39.861       14.458        0.132      333.441        2.759      871.515
12/05/2021  08:42:00      -37.505       27.159       -1.839       15.584       14.764        9.535      242.876      217.980       90.916        0.135        0.028       46.306        7.992        0.030      333.354        2.615      871.541
12/05/2021  08:43:00      -11.873       -7.932       -5.372       16.908        7.360        6.338      285.892       54.165       40.164        0.031        0.019       14.279        4.003        0.079      333.497        2.851      871.552
12/05/2021  08:44:00       12.632       -9.008       -8.926       19.357       17.143       15.554      374.712      293.871      241.918        0.062        0.046       15.515       11.967        0.595      333.793        3.341      871.546
12/05/2021  08:45:00       31.871      -26.668      -22.632       25.883       28.781       18.945      669.906      828.345      358.901        0.205        0.093       41.556       11.405        0.075      333.872        3.472      871.543
12/05/2021  08:46:00       42.629      -48.820      -32.931       19.625       31.405       18.480      385.128      986.268      341.523        0.350        0.086       64.812        8.498        0.017      333.849        3.434      871.542
12/05/2021  08:47:00       34.828      -64.198      -11.658       29.329       22.541       18.621      860.212      508.093      346.725        0.359        0.086       73.037       15.500        0.045      333.859        3.450      871.552
12/05/2021  08:48:00       49.089      -18.553      -21.959       35.264       29.425       22.890     1243.516      865.849      523.940        0.293        0.132       52.478       17.252        0.108      334.007        3.694      871.572
12/05/2021  08:49:00       16.853      -35.121       -6.320       24.790       28.989       23.363      614.538      840.342      545.810        0.178        0.100       38.955       15.179        0.152      334.084        3.822      871.627
12/05/2021  08:50:00        2.326      -13.404       -7.182       20.722       19.488       18.609      429.387      379.775      346.297        0.070        0.058       13.604       13.094        0.927      334.139        3.915      871.644
12/05/2021  08:51:00       49.815      -25.768      -18.930       34.393       37.185       31.678     1182.894     1382.742     1003.484        0.354        0.178       56.085       14.592        0.068      334.100        3.850      871.621
12/05/2021  08:52:00       69.807        3.189      -33.948       37.626       39.283       27.193     1415.679     1543.159      739.478        0.487        0.185       69.880       13.327        0.036      333.960        3.618      871.611
12/05/2021  08:53:00       44.537      -12.214      -16.351       53.127       43.901       40.815     2822.493     1927.295     1665.829        0.441        0.321       46.181       32.408        0.492      333.994        3.674      871.595
12/05/2021  08:54:00       80.058       12.074      -33.305       54.429       60.963       52.635     2962.523     3716.515     2770.422        0.856        0.472       80.963       36.801        0.207      333.996        3.677      871.565
12/05/2021  08:55:00       59.129      -29.404       -8.698       69.635       42.026       46.092     4849.004     1766.143     2124.505        0.659        0.437       66.037       43.770        0.439      333.974        3.642      871.590
12/05/2021  08:56:00       48.521      -20.422        0.312       57.576       54.882       39.459     3315.042     3012.014     1557.027        0.533        0.394       52.643       36.916        0.492      334.069        3.798      871.623
12/05/2021  08:57:00       59.333      -60.668      -13.795       64.520       69.932       41.659     4162.774     4890.509     1735.493        0.909        0.539       84.859       32.436        0.146      333.878        3.483      871.621
12/05/2021  08:58:00       57.737      -43.985      -33.917       49.388       63.016       43.133     2439.199     3971.067     1860.413        0.734        0.414       72.583       25.770        0.126      333.789        3.335      871.601
12/05/2021  08:59:00       62.741      -22.210      -16.086       57.088       45.482       43.796     3259.073     2068.607     1918.062        0.597        0.362       66.556       34.797        0.273      333.843        3.424      871.592
12/05/2021  09:00:00       41.758       13.313       -4.335       49.159       55.304       40.377     2416.558     3058.522     1630.305        0.452        0.355       43.829       31.378        0.513      333.989        3.666      871.601
12/05/2021  09:01:00       53.274       -6.824      -31.875       52.467       57.825       32.820     2752.806     3343.695     1077.135        0.554        0.359       53.709       25.309        0.222      334.080        3.818      871.611
12/05/2021  09:02:00       71.386      -48.568      -13.660       52.070       60.654       37.747     2711.239     3678.927     1424.804        0.773        0.391       86.341       27.002        0.098      334.032        3.736      871.601
12/05/2021  09:03:00      105.614      -33.080      -19.349       76.309       62.409       40.165     5823.008     3894.939     1613.237        1.197        0.567      110.673       39.578        0.128      333.844        3.425      871.576
12/05/2021  09:04:00       42.316      -28.670      -21.636       37.754       57.603       34.943     1425.345     3318.116     1221.043        0.452        0.298       51.114       23.293        0.208      334.035        3.742      871.574
12/05/2021  09:05:00       54.695      -43.647      -23.312       47.833       36.543       28.332     2288.004     1335.372      802.700        0.493        0.221       69.976       20.626        0.087      334.073        3.805      871.617
12/05/2021  09:06:00       43.904      -47.890      -26.330       28.170       44.191       26.957      793.545     1952.887      726.694        0.419        0.174       64.969       19.107        0.086      334.175        3.973      871.639
12/05/2021  09:07:00       48.517      -25.353      -19.117       30.896       33.153       23.628      954.567     1099.100      558.299        0.299        0.131       54.742        9.463        0.030      334.081        3.818      871.650
12/05/2021  09:08:00       -6.260      -32.092       -4.134       29.915       20.764       16.290      894.903      431.140      265.372        0.134        0.080       32.696        9.665        0.087      334.189        3.998      871.670
12/05/2021  09:09:00       -1.806        0.381       -7.350       12.302       13.248       23.534      151.338      175.501      553.870        0.047        0.044        1.846        9.248       25.096      334.423        4.385      871.706
12/05/2021  09:10:00      -11.697      -32.891      -33.423       37.514       51.202       20.793     1407.272     2621.671      432.361        0.340        0.223       34.909        7.114        0.042      334.162        3.952      871.720
12/05/2021  09:11:00       34.561      -46.350      -26.505       43.594       44.640       31.163     1900.466     1992.725      971.106        0.445        0.243       57.817       15.860        0.075      334.220        4.047      871.728
12/05/2021  09:12:00       46.713      -19.016      -31.419       41.630       44.032       37.414     1733.067     1938.823     1399.771        0.430        0.254       50.436       22.144        0.193      334.296        4.175      871.741
12/05/2021  09:13:00       96.982      -43.757      -41.824       42.456       49.215       37.536     1802.534     2422.080     1408.980        0.935        0.282      106.397       15.205        0.020      334.252        4.102      871.765
12/05/2021  09:14:00      114.309      -66.882      -26.592       76.025       63.589       42.625     5779.832     4043.538     1816.869        1.494        0.582      132.438       50.161        0.143      334.192        4.002      871.794
12/05/2021  09:15:00       57.301      -74.993      -15.106       39.898       67.612       43.076     1591.854     4571.319     1855.570        0.858        0.401       94.379       31.889        0.114      334.219        4.047      871.794
12/05/2021  09:16:00       76.472       -6.450      -21.392       42.300       46.608       33.163     1789.312     2172.308     1099.763        0.570        0.253       76.743       15.353        0.040      334.122        3.887      871.764
12/05/2021  09:17:00       86.541       37.845      -17.471       40.936       21.720       16.561     1675.724      471.750      274.267        0.582        0.121       94.455       14.441        0.023      333.900        3.520      871.728
12/05/2021  09:18:00       65.899       51.781      -12.579       23.124       28.521       16.871      534.720      813.470      284.626        0.441        0.082       83.809       12.043        0.021      333.910        3.534      871.742
12/05/2021  09:19:00       47.131       53.473      -22.608       20.279       36.363       15.709      411.232     1322.297      246.770        0.379        0.099       71.279        4.503        0.004      333.834        3.410      871.736
12/05/2021  09:20:00       34.096       46.282       -3.939       25.194       28.078       20.559      634.735      788.396      422.689        0.258        0.092       57.485       11.817        0.042      334.010        3.701      871.700
12/05/2021  09:21:00       58.390       67.788      -14.293       40.861       27.788       20.119     1669.621      772.154      404.763        0.553        0.142       89.468       21.248        0.056      334.083        3.822      871.700
12/05/2021  09:22:00       72.107       43.975      -22.995       10.464       17.052        9.996      109.495      290.784       99.921        0.408        0.025       84.458        3.014        0.001      333.983        3.656      871.718
12/05/2021  09:23:00       81.533       10.555      -14.672       17.394       33.765       18.457      302.566     1140.054      340.655        0.438        0.089       82.213       14.380        0.031      334.117        3.879      871.734
12/05/2021  09:24:00      110.903       24.290      -22.364       49.385       23.685       22.372     2438.844      560.961      500.495        0.844        0.175      113.532       11.304        0.010      334.281        4.151      871.757
12/05/2021  09:25:00      139.797       46.097      -20.105       24.413       35.164       20.903      596.012     1236.499      436.956        1.217        0.113      147.201       12.702        0.007      334.281        4.150      871.795
12/05/2021  09:26:00       83.431       24.050      -16.919       45.393       47.009       30.926     2060.511     2209.801      956.436        0.653        0.261       86.828       20.173        0.054      334.508        4.525      871.809
12/05/2021  09:27:00      104.424       39.568      -30.455       55.876       37.890       30.105     3122.130     1435.685      906.301        0.943        0.273      111.669       12.889        0.013      334.722        4.883      871.801
12/05/2021  09:28:00      112.433       35.220      -23.279       52.004       45.693       28.085     2704.441     2087.852      788.744        1.000        0.279      117.821       10.351        0.008      334.483        4.485      871.774
12/05/2021  09:29:00       82.972        7.355      -21.613       56.231       77.604       40.000     3161.960     6022.421     1600.001        0.909        0.539       83.297       27.209        0.107      334.676        4.805      871.748
12/05/2021  09:30:00       83.049      -26.649      -24.982       71.296       49.006       36.138     5083.116     2401.541     1305.947        0.851        0.440       87.220       22.916        0.069      334.547        4.591      871.749
12/05/2021  09:31:00        2.524      -65.495      -32.481       50.110       41.377       32.314     2511.001     1712.033     1044.212        0.531        0.263       65.543       25.821        0.155      334.816        5.038      871.761
12/05/2021  09:32:00       35.760      -91.670      -30.334       48.755       43.491       27.323     2377.045     1891.476      746.532        0.781        0.251       98.398       20.981        0.045      334.669        4.794      871.767
12/05/2021  09:33:00       39.120       28.405      -17.539       48.063       56.016       34.212     2310.060     3137.835     1170.450        0.463        0.331       48.345       21.269        0.194      334.680        4.813      871.768
12/05/2021  09:34:00       68.172      -61.015      -34.963       45.705       80.919       30.170     2088.906     6547.871      910.205        0.957        0.477       91.489       20.370        0.050      334.690        4.829      871.747
12/05/2021  09:35:00       70.090       -4.576      -27.522       43.834       72.807       35.448     1921.429     5300.873     1256.568        0.708        0.424       70.240       23.235        0.109      334.805        5.021      871.728
12/05/2021  09:36:00       88.103      -45.748      -23.488       65.031       47.440       30.497     4229.073     2250.535      930.072        0.891        0.370       99.272       27.960        0.079      334.645        4.755      871.707
12/05/2021  09:37:00       89.281      -33.969      -30.444       47.655       55.272       29.495     2271.025     3055.020      869.928        0.812        0.310       95.525       18.697        0.038      334.759        4.943      871.691
12/05/2021  09:38:00       61.841      -73.759      -22.183       44.220       24.905       24.245     1955.451      620.281      587.831        0.646        0.158       96.254       17.050        0.031      334.488        4.494      871.690
12/05/2021  09:39:00       19.425       16.858      -12.889       39.528       38.598       21.727     1562.470     1489.768      472.052        0.218        0.176       25.720       16.179        0.396      334.912        5.200      871.709
12/05/2021  09:40:00       -1.038       31.795        0.194       26.873       24.983       16.098      722.151      624.125      259.135        0.131        0.080       31.812       11.995        0.142      334.713        4.867      871.729
12/05/2021  09:41:00       30.098      -26.723      -20.879       59.514       33.677       30.449     3541.941     1134.158      927.114        0.383        0.280       40.249       33.211        0.681      334.893        5.164      871.719
12/05/2021  09:42:00       68.270       23.482      -30.100       34.922       53.935       29.383     1219.518     2908.983      863.368        0.555        0.250       72.196       23.876        0.109      335.037        5.405      871.686
12/05/2021  09:43:00       88.283      -11.844      -33.017       26.417       28.670       19.122      697.852      821.952      365.667        0.545        0.094       89.074       13.012        0.021      334.811        5.029      871.690
12/05/2021  09:44:00       33.259       37.530      -10.293       24.425       35.773       22.020      596.577     1279.692      484.895        0.249        0.118       50.146       15.473        0.095      335.100        5.511      871.710
12/05/2021  09:45:00       21.500       17.650       -2.289       28.175       25.589       22.814      793.807      654.813      520.476        0.137        0.098       27.817       10.763        0.150      335.152        5.596      871.736
12/05/2021  09:46:00        4.736       -8.065      -15.909       23.911       28.397       21.520      571.714      806.417      463.106        0.109        0.092        9.352       16.512        3.117      335.210        5.692      871.748
12/05/2021  09:47:00       -2.887        0.415       -8.492       37.280       19.844       18.050     1389.791      393.768      325.788        0.109        0.105        2.917        9.225       10.002      335.170        5.625      871.736
12/05/2021  09:48:00       -3.950       13.167       -7.680       22.758       26.016       24.413      517.948      676.850      595.978        0.102        0.090       13.747       18.779        1.866      335.216        5.702      871.724
12/05/2021  09:49:00      -43.838       13.199      -22.878       18.583       16.601       15.088      345.328      275.593      227.655        0.173        0.042       45.782       11.772        0.066      334.911        5.196      871.721
12/05/2021  09:50:00      -10.690       13.225      -11.703       17.325       14.450       11.459      300.163      208.807      131.298        0.053        0.032       17.005        6.796        0.160      335.056        5.437      871.727
12/05/2021  09:51:00        4.131      -21.451      -24.761       20.840       26.777       29.228      434.300      716.990      854.286        0.155        0.100       21.845       19.587        0.804      335.395        6.000      871.728
12/05/2021  09:52:00       60.065      -84.753      -26.708       43.764       57.206       39.862     1915.258     3272.521     1588.973        0.914        0.339      103.879       43.645        0.177      335.213        5.698      871.725
12/05/2021  09:53:00       52.131      -42.746      -11.516       46.475       39.353       34.112     2159.923     1548.621     1163.609        0.477        0.244       67.416       29.525        0.192      335.374        5.965      871.727
12/05/2021  09:54:00       59.568       47.223      -16.416       48.262       55.158       28.605     2329.224     3042.363      818.264        0.612        0.309       76.016       22.507        0.088      335.359        5.940      871.723
12/05/2021  09:55:00      110.902       36.576      -19.407       55.133       37.119       29.641     3039.601     1377.830      878.597        0.965        0.265      116.778       20.002        0.029      335.204        5.683      871.704
12/05/2021  09:56:00       91.331       33.323       -9.836       75.558       44.220       26.964     5708.988     1955.382      727.064        0.897        0.420       97.220       35.063        0.130      335.476        6.136      871.681
12/05/2021  09:57:00       91.841       52.536      -27.123       54.509       36.331       28.736     2971.216     1319.978      825.741        0.852        0.256      105.806       19.048        0.032      335.251        5.761      871.668
12/05/2021  09:58:00       89.589       71.386      -26.521       47.540       27.659       20.869     2260.066      765.010      435.524        0.864        0.173      114.552       21.700        0.036      335.171        5.629      871.673
12/05/2021  09:59:00      118.782       58.735      -25.009       41.402       30.440       19.833     1714.127      926.576      393.357        1.061        0.152      132.510       14.680        0.012      335.195        5.667      871.663
12/05/2021  10:00:00       67.000       24.676      -27.891       57.713       76.045       37.290     3330.757     5782.892     1390.581        0.819        0.525       71.400       24.235        0.115      335.574        6.297      871.641
12/05/2021  10:01:00       61.208       16.059      -13.258       41.516       62.556       27.388     1723.593     3913.234      750.122        0.528        0.319       63.280       16.353        0.067      335.614        6.364      871.645
12/05/2021  10:02:00       54.646       36.615      -15.137       43.629       39.947       22.677     1903.490     1595.771      514.258        0.428        0.201       65.779       15.251        0.054      335.592        6.329      871.666
12/05/2021  10:03:00       13.923       20.478        2.862       19.777       17.096       20.399      391.126      292.257      416.113        0.086        0.055       24.763        7.602        0.094      335.634        6.398      871.684
12/05/2021  10:04:00      -19.639       15.126       -5.638       17.886       12.711       12.639      319.909      161.567      159.744        0.064        0.032       24.789        6.897        0.077      335.638        6.405      871.701
12/05/2021  10:05:00       17.608      -14.249      -19.890       35.824       26.877       27.052     1283.343      722.355      731.808        0.182        0.137       22.651       24.321        1.153      335.734        6.565      871.707
12/05/2021  10:06:00      -22.519      -43.857      -24.530       32.511       23.624       19.667     1056.990      558.094      386.789        0.252        0.100       49.300       12.637        0.066      335.814        6.698      871.685
12/05/2021  10:07:00      -45.778      -14.070      -18.204       20.686       22.480       19.050      427.916      505.362      362.895        0.196        0.065       47.892       11.179        0.054      335.490        6.158      871.653
12/05/2021  10:08:00       20.841      -30.986      -24.447       26.633       32.370       23.061      709.335     1047.785      531.788        0.214        0.114       37.343       13.537        0.131      335.821        6.711      871.626
12/05/2021  10:09:00       -6.916        3.423      -21.617       19.383       20.332       21.303      375.702      413.392      453.808        0.088        0.062        7.717       15.971        4.284      336.061        7.109      871.600
12/05/2021  10:10:00       34.510       47.132      -16.921       37.683       23.336       25.867     1419.977      544.584      669.113        0.317        0.132       58.415       20.785        0.127      335.670        6.458      871.608
12/05/2021  10:11:00       19.157       41.524       -4.679       23.433       19.485       17.531      549.089      379.647      307.325        0.167        0.062       45.730       10.219        0.050      335.929        6.891      871.621
12/05/2021  10:12:00       13.605      -15.686      -22.345       34.771       46.057       29.193     1209.057     2121.214      852.208        0.256        0.209       20.764       22.777        1.203      335.949        6.924      871.628
12/05/2021  10:13:00       20.795      -63.405      -10.582       43.964       49.439       35.575     1932.819     2444.211     1265.561        0.510        0.282       66.728       26.787        0.161      335.954        6.931      871.602
12/05/2021  10:14:00       41.789      -20.120      -12.927       57.150       35.395       27.110     3266.132     1252.816      734.956        0.379        0.263       46.381       20.080        0.187      336.106        7.184      871.573
12/05/2021  10:15:00       19.336       32.904      -14.752       48.111       27.812       28.723     2314.701      773.505      825.003        0.279        0.196       38.165       30.680        0.646      336.179        7.307      871.551
12/05/2021  10:16:00       37.033       47.807      -12.627       27.033       22.079       23.640      730.801      487.489      558.849        0.280        0.089       60.473       10.831        0.032      336.134        7.232      871.526
12/05/2021  10:17:00       80.545       65.141      -18.709       29.943       26.404       20.607      896.562      697.191      424.643        0.655        0.101      103.589       10.203        0.010      335.787        6.654      871.535
12/05/2021  10:18:00       88.168       72.051      -29.639       26.356       22.583       26.491      694.660      509.974      701.783        0.787        0.095      113.864       12.991        0.013      335.800        6.675      871.539
12/05/2021  10:19:00        5.750       -8.244       -0.589       50.014       64.306       34.182     2501.352     4135.224     1168.408        0.395        0.390       10.052       23.289        5.368      336.183        7.314      871.532
12/05/2021  10:20:00       68.378       -4.866      -25.430       34.199       65.703       26.758     1169.588     4316.937      715.985        0.577        0.310       68.551       21.105        0.095      335.913        6.863      871.524
12/05/2021  10:21:00       85.212       66.061      -23.028       40.519       44.302       19.470     1641.818     1962.681      379.079        0.807        0.199      107.819       17.251        0.026      336.050        7.092      871.521
12/05/2021  10:22:00        3.094      -16.449      -10.030       43.631       72.236       26.408     1903.669     5218.077      697.389        0.410        0.391       16.738       29.864        3.183      336.044        7.082      871.508
12/05/2021  10:23:00       52.656     -106.753      -26.938       36.607       61.353       27.070     1340.068     3764.203      732.811        1.036        0.292      119.033       20.636        0.030      335.988        6.989      871.477
12/05/2021  10:24:00       42.168       10.125      -32.577       35.947       71.258       38.852     1292.200     5077.720     1509.480        0.541        0.394       43.366       32.361        0.557      336.166        7.285      871.453
12/05/2021  10:25:00       29.402       62.397       -1.396       40.521       43.573       30.122     1641.938     1898.640      907.310        0.460        0.222       68.977       20.337        0.087      336.168        7.289      871.430
12/05/2021  10:26:00       62.897       57.777      -25.928       34.255       34.890       31.106     1173.414     1217.280      967.564        0.566        0.168       85.406       19.072        0.050      336.130        7.224      871.413
12/05/2021  10:27:00       60.134       55.076      -26.302       33.064       33.325       34.152     1093.201     1110.529     1166.355        0.535        0.169       81.544       15.143        0.034      336.166        7.286      871.395
12/05/2021  10:28:00       20.566       58.503       -8.983       24.433       38.052       25.195      596.962     1447.931      634.785        0.330        0.134       62.013       19.619        0.100      336.124        7.215      871.370
12/05/2021  10:29:00        8.181       55.529        3.945       20.469       30.445       20.608      418.989      926.906      424.699        0.247        0.089       56.128       11.682        0.043      336.038        7.072      871.344
12/05/2021  10:30:00        4.847       19.104       -5.835       18.730       15.206       11.572      350.814      231.228      133.916        0.057        0.036       19.709        7.135        0.131      336.156        7.268      871.333
12/05/2021  10:31:00      -33.028        9.908      -14.273       15.855       13.118       11.243      251.383      172.091      126.410        0.097        0.027       34.482        8.162        0.056      336.134        7.232      871.328
12/05/2021  10:32:00      -29.816       28.303       -9.785       28.777       28.028       17.441      828.114      785.579      304.201        0.185        0.096       41.110        9.103        0.049      336.300        7.510      871.311
12/05/2021  10:33:00      -37.514       18.244        0.342       32.039       21.909       20.590     1026.508      480.018      423.960        0.184        0.097       41.715       14.519        0.121      336.349        7.590      871.291
12/05/2021  10:34:00      -31.693       -7.519      -14.143       22.608       16.161       17.616      511.122      261.184      310.326        0.117        0.054       32.573       10.463        0.103      336.410        7.694      871.267
12/05/2021  10:35:00      -39.343       -4.601      -20.459       19.270       16.774        9.892      371.347      281.359       97.848        0.137        0.038       39.611        5.571        0.020      336.205        7.350      871.249
12/05/2021  10:36:00      -38.940        8.338      -11.435       17.015       17.454       12.398      289.495      304.635      153.706        0.123        0.037       39.823        9.933        0.062      336.313        7.530      871.242
12/05/2021  10:37:00      -47.424       24.806       -2.055       16.064       29.749       17.364      258.057      885.004      301.519        0.216        0.072       53.520        6.588        0.015      336.346        7.587      871.232
12/05/2021  10:38:00      -44.075       19.940       -4.568       15.754       22.038       16.182      248.181      485.652      261.859        0.168        0.050       48.376        8.168        0.029      336.298        7.504      871.217
12/05/2021  10:39:00      -32.857       -7.077      -10.320       24.712       16.691       14.705      610.675      278.573      216.238        0.117        0.055       33.611       11.359        0.114      336.426        7.720      871.200
12/05/2021  10:40:00      -23.063        9.250       -4.367       24.929       15.680       22.258      621.438      245.851      495.425        0.100        0.068       24.849        9.845        0.157      336.765        8.287      871.180
12/05/2021  10:41:00      -19.405      -34.455      -21.135       23.917       19.026       25.150      572.037      361.985      632.526        0.179        0.078       39.544       19.054        0.232      336.817        8.374      871.164
12/05/2021  10:42:00      -33.969        8.015      -26.258       14.684       15.203       13.302      215.606      231.121      176.941        0.127        0.031       34.902        8.582        0.060      336.479        7.808      871.152
12/05/2021  10:43:00      -21.807       -3.674       -8.256       26.809       11.332       15.462      718.727      128.417      239.083        0.082        0.054       22.114       11.451        0.268      336.831        8.397      871.137
12/05/2021  10:44:00      -40.110       14.448       -6.187       21.896       16.685       25.959      479.433      278.394      673.878        0.164        0.072       42.633       15.958        0.140      336.576        7.971      871.119
12/05/2021  10:45:00      -36.675        4.236       -3.481       10.894        7.865       13.491      118.673       61.865      182.005        0.087        0.018       36.919        5.302        0.021      336.646        8.087      871.089
12/05/2021  10:46:00      -21.919       17.514      -11.177       18.641       11.719       10.290      347.498      137.331      105.888        0.075        0.030       28.057       10.273        0.134      336.610        8.028      871.064
12/05/2021  10:47:00      -14.994       -3.014        0.094       25.705       19.530       12.193      660.761      381.411      148.659        0.071        0.060       15.294       11.172        0.534      336.991        8.665      871.046
12/05/2021  10:48:00      -69.226       10.795      -18.360       26.741       31.907       22.122      715.055     1018.035      489.403        0.373        0.111       70.063       21.741        0.096      336.549        7.926      871.029
12/05/2021  10:49:00      -82.567       -0.310      -15.092       26.620       26.254       15.459      708.625      689.287      238.966        0.434        0.082       82.568       11.972        0.021      336.642        8.084      871.007
12/05/2021  10:50:00      -12.744        0.053        4.951       13.257       16.821       12.323      175.737      282.958      151.855        0.040        0.031       12.744        4.169        0.107      337.110        8.864      870.993
12/05/2021  10:51:00      -72.151      -19.234      -13.707       37.773       22.977       18.848     1426.783      527.940      355.230        0.404        0.115       74.670       18.853        0.064      336.847        8.425      870.982
12/05/2021  10:52:00      -35.728        3.138      -14.983       21.217       17.955       16.469      450.162      322.372      271.235        0.128        0.052       35.865       11.922        0.110      337.021        8.714      870.980
12/05/2021  10:53:00      -19.236        3.325       -0.233       18.241       15.399       16.695      332.725      237.129      278.735        0.061        0.042       19.521       11.790        0.365      337.145        8.921      870.973
12/05/2021  10:54:00       -8.147       15.751       -2.165       21.729       17.827       22.159      472.141      317.788      491.004        0.080        0.064       17.733       16.908        0.909      337.101        8.848      870.968
12/05/2021  10:55:00      -34.706       12.005       -6.142       32.409       36.484       20.949     1050.328     1331.080      438.873        0.210        0.141       36.723       17.340        0.223      337.118        8.877      870.967
12/05/2021  10:56:00      -40.207       27.874      -13.045       19.348       21.644       15.786      374.358      468.455      249.182        0.183        0.055       48.924        9.406        0.037      336.823        8.383      870.970
12/05/2021  10:57:00      -73.590       30.136      -11.747       29.531       27.251       22.046      872.064      742.601      486.027        0.428        0.105       79.522       17.386        0.048      336.872        8.463      870.959
12/05/2021  10:58:00      -32.980       19.727       -0.769       36.424       35.721       16.253     1326.679     1275.965      264.149        0.217        0.143       38.429       10.959        0.081      337.060        8.779      870.938
12/05/2021  10:59:00      -64.930        4.268      -10.459       63.008       30.126       20.566     3969.954      907.577      422.980        0.482        0.265       65.070       15.197        0.055      337.254        9.104      870.918
12/05/2021  11:00:00        5.138       -5.829        8.282       32.339       26.298       18.832     1045.829      691.563      354.648        0.111        0.105        7.770       17.696        5.186      337.682        9.822      870.900
12/05/2021  11:01:00      -20.248        7.669       -8.752       25.516       18.900        9.573      651.076      357.225       91.642        0.082        0.055       21.651        4.741        0.048      337.298        9.178      870.897
12/05/2021  11:02:00       35.824       56.024      -10.805       27.165       24.174       15.056      737.919      584.383      226.676        0.304        0.077       66.499       13.075        0.039      337.388        9.328      870.893
12/05/2021  11:03:00       22.882       53.029        2.516       56.179       43.412       36.605     3156.087     1884.604     1339.951        0.486        0.319       57.755       34.657        0.360      337.520        9.549      870.890
12/05/2021  11:04:00      -19.426       -7.028      -11.161       32.476       31.299       27.426     1054.693      979.611      752.204        0.167        0.139       20.658       12.551        0.369      337.515        9.540      870.872
12/05/2021  11:05:00       28.637        9.479      -15.413       47.103       60.336       31.256     2218.733     3640.382      976.937        0.399        0.342       30.165       13.400        0.197      337.369        9.296      870.835
12/05/2021  11:06:00       39.748      -32.347       -6.460       38.148       61.703       32.036     1455.251     3807.217     1026.280        0.448        0.314       51.247       23.100        0.203      337.452        9.437      870.797
12/05/2021  11:07:00       10.116      -38.315      -21.997       50.335       69.422       33.943     2533.630     4819.345     1152.133        0.528        0.425       39.628       24.848        0.393      337.445        9.424      870.766
12/05/2021  11:08:00       -3.837      -12.200       -7.489       42.392       39.271       29.598     1797.118     1542.196      876.019        0.222        0.211       12.789       26.832        4.402      337.610        9.701      870.755
12/05/2021  11:09:00       -4.757      -51.175       -9.736       62.175       54.481       44.457     3865.735     2968.156     1976.437        0.577        0.441       51.396       37.532        0.533      337.532        9.569      870.748
12/05/2021  11:10:00       38.587      -44.669      -40.377       65.881       67.416       34.426     4340.372     4544.900     1185.145        0.759        0.504       59.028       31.918        0.292      337.386        9.326      870.745
12/05/2021  11:11:00       95.286       52.851      -18.545       63.978       54.823       26.387     4093.168     3005.585      696.250        1.000        0.390      108.962       13.478        0.015      337.213        9.035      870.732
12/05/2021  11:12:00      101.088       66.583      -15.988       52.848       37.365       26.218     2792.923     1396.157      687.360        0.989        0.244      121.046       26.122        0.047      337.205        9.023      870.707
12/05/2021  11:13:00      -13.706      -13.026      -10.325       39.679       31.302       34.781     1574.396      979.801     1209.741        0.211        0.188       18.909       24.855        1.728      337.523        9.553      870.669
12/05/2021  11:14:00       13.304      -15.954      -12.492       35.254       43.917       30.855     1242.824     1928.687      952.011        0.235        0.206       20.773       25.099        1.460      337.635        9.742      870.640
12/05/2021  11:15:00       51.471     -115.267      -36.294       31.577       50.102       30.507      997.102     2510.197      930.674        1.084        0.222      126.237       24.341        0.037      337.233        9.069      870.616
12/05/2021  11:16:00       41.238      -48.363      -17.062       31.618       31.030       26.501      999.676      962.877      702.313        0.350        0.133       63.558       23.791        0.140      337.283        9.152      870.605
12/05/2021  11:17:00       32.617      -64.271      -29.298       23.700       43.682       26.216      561.675     1908.120      687.300        0.460        0.158       72.074       15.394        0.046      337.176        8.976      870.597
12/05/2021  11:18:00        7.138       13.083      -13.175       21.460       14.998       18.196      460.514      224.941      331.098        0.071        0.051       14.903       10.811        0.526      337.461        9.449      870.580
12/05/2021  11:19:00       14.398       32.259       -9.264       23.459       29.498       24.188      550.344      870.148      585.040        0.167        0.100       35.326       12.445        0.124      337.840       10.086      870.577
12/05/2021  11:20:00      -15.416       -3.000      -11.926       30.522       27.803       20.331      931.586      772.995      413.338        0.125        0.106       15.705       12.414        0.625      337.905       10.195      870.579
12/05/2021  11:21:00       11.069      -29.982      -16.617       26.809       34.253       27.631      718.715     1173.240      763.458        0.198        0.133       31.960       18.545        0.337      337.781        9.986      870.582
12/05/2021  11:22:00       26.042      -10.393      -21.792       33.268       47.977       28.136     1106.772     2301.811      791.641        0.273        0.210       28.039       11.444        0.167      337.745        9.925      870.576
12/05/2021  11:23:00       42.042       36.526      -16.407       33.475       31.767       26.444     1120.597     1009.142      699.296        0.310        0.141       55.693        4.392        0.006      337.917       10.217      870.566
12/05/2021  11:24:00       67.280       42.574       -8.343       58.622       75.248       34.111     3436.595     5662.306     1163.570        0.833        0.513       79.619       28.863        0.131      337.847       10.097      870.554
12/05/2021  11:25:00       97.937       14.684       -7.901       67.833       31.392       28.384     4601.376      985.482      805.627        0.813        0.320       99.032       32.850        0.110      337.701        9.853      870.520
12/05/2021  11:26:00       90.449       38.568      -19.720       29.823       47.473       17.125      889.432     2253.690      293.280        0.675        0.172       98.328       11.592        0.014      337.392        9.336      870.501
12/05/2021  11:27:00       39.132       39.245      -16.790       74.285       58.755       23.450     5518.212     3452.195      549.917        0.644        0.476       55.421       17.105        0.095      337.526        9.559      870.481
12/05/2021  11:28:00        7.751      -19.396      -25.467       45.317       51.268       22.772     2053.668     2628.382      518.581        0.314        0.260       20.888       16.574        0.630      337.896       10.180      870.479
12/05/2021  11:29:00       77.546       21.088      -17.110       61.645       41.106       19.007     3800.157     1689.693      361.272        0.630        0.293       80.362       12.941        0.026      337.709        9.868      870.488
12/05/2021  11:30:00       83.332       24.316       -9.854       52.914       39.879       27.399     2799.853     1590.318      750.680        0.639        0.257       86.808       25.257        0.085      337.832       10.072      870.485
12/05/2021  11:31:00       83.511       38.441      -15.131       29.654       29.672       17.617      879.331      880.399      310.367        0.538        0.104       91.934        9.230        0.010      337.505        9.523      870.474
12/05/2021  11:32:00       79.331       61.469      -24.730       51.551       24.816       16.277     2657.541      615.817      264.937        0.711        0.177      100.358       13.565        0.018      337.527        9.559      870.465
12/05/2021  11:33:00       -6.739       20.180      -13.321       12.427       17.797       14.372      154.443      316.737      206.551        0.065        0.034       21.276       10.156        0.228      337.678        9.813      870.453
12/05/2021  11:34:00       11.340      -49.562      -31.340       37.969       59.835       22.507     1441.682     3580.186      506.551        0.455        0.276       50.843       23.172        0.208      337.867       10.131      870.436
12/05/2021  11:35:00       39.178      -77.868      -28.574       28.608       31.296       28.833      818.430      979.416      831.326        0.552        0.131       87.168       17.526        0.040      337.865       10.128      870.416
12/05/2021  11:36:00        8.857      -32.610      -24.650       30.931       35.369       29.353      956.708     1250.981      861.585        0.241        0.153       33.791       13.662        0.163      337.746        9.928      870.393
12/05/2021  11:37:00      -30.024       15.919      -17.522       28.796       26.403       28.037      829.197      697.116      786.060        0.189        0.116       33.983       11.084        0.106      338.148       10.604      870.378
12/05/2021  11:38:00       -9.512       13.115      -11.912       46.885       34.053       28.114     2198.165     1159.615      790.414        0.228        0.207       16.201       29.442        3.303      338.082       10.492      870.363
12/05/2021  11:39:00       37.320       20.096      -22.386       59.152       52.317       29.416     3498.967     2737.047      865.281        0.470        0.355       42.387       23.988        0.320      338.019       10.386      870.350
12/05/2021  11:40:00       25.708        3.977      -20.467       31.897       42.397       27.353     1017.391     1797.493      748.173        0.233        0.178       26.014       20.038        0.593      338.039       10.420      870.322
12/05/2021  11:41:00      -14.025        9.419      -14.655       36.993       50.978       20.617     1368.507     2598.792      425.065        0.245        0.220       16.894       19.121        1.281      338.171       10.642      870.311
12/05/2021  11:42:00       22.327     -100.202      -27.143       37.827       43.664       20.800     1430.906     1906.534      432.655        0.752        0.189      102.659       19.979        0.038      338.052       10.442      870.312
12/05/2021  11:43:00       28.166      -63.090      -21.718       34.284       38.729       25.026     1175.392     1499.957      626.290        0.427        0.165       69.091       19.071        0.076      337.968       10.301      870.315
12/05/2021  11:44:00        6.752      -65.143      -17.369       47.265       42.824       28.212     2233.977     1833.914      795.931        0.473        0.243       65.492       27.644        0.178      338.255       10.781      870.316
12/05/2021  11:45:00       82.140     -135.597      -37.053       21.063       42.677       19.006      443.644     1821.362      361.211        1.457        0.131      158.536       14.106        0.008      337.714        9.875      870.301
12/05/2021  11:46:00       54.742     -114.607      -37.501       21.176       19.216       13.943      448.418      369.242      194.418        0.927        0.051      127.010        6.764        0.003      337.611        9.700      870.288
12/05/2021  11:47:00       72.102     -112.035      -33.140       19.900       33.815       12.353      395.991     1143.458      152.594        1.027        0.085      133.231        8.377        0.004      337.693        9.841      870.265
12/05/2021  11:48:00        8.554       -0.769      -10.142       23.643       29.420       19.488      558.979      865.553      379.782        0.099        0.090        8.588       18.192        4.487      338.081       10.490      870.265
12/05/2021  11:49:00       -9.898        5.942        2.177       20.643       13.330       18.060      426.127      177.692      326.148        0.053        0.046       11.544       14.393        1.554      338.432       11.080      870.255
12/05/2021  11:50:00      -28.398      -41.444      -36.669       30.125       40.450       30.936      907.537     1636.215      957.017        0.368        0.175       50.240       14.676        0.085      337.961       10.290      870.227
12/05/2021  11:51:00       -6.575      -29.224      -13.501       19.811       27.147       22.106      392.492      736.962      488.686        0.135        0.081       29.955       13.604        0.206      338.022       10.391      870.200
12/05/2021  11:52:00        3.926       19.106      -23.934       23.781       37.848       26.064      565.545     1432.461      679.340        0.181        0.134       19.505       27.616        2.005      338.054       10.446      870.194
12/05/2021  11:53:00       13.714       42.569      -14.522       15.289       17.499       16.937      233.758      306.211      286.878        0.152        0.041       44.724       10.894        0.059      338.183       10.660      870.197
12/05/2021  11:54:00       48.310       28.900      -17.933       23.517       14.399       16.498      553.062      207.327      272.190        0.226        0.052       56.294        7.570        0.018      338.105       10.530      870.192
12/05/2021  11:55:00        1.452        7.931      -27.090       16.311       11.816       19.528      266.037      139.623      381.346        0.079        0.039        8.063       11.935        2.191      338.343       10.931      870.192
12/05/2021  11:56:00      -33.456       -0.774      -15.146       32.259       24.530       19.973     1040.669      601.743      398.904        0.169        0.102       33.465       16.709        0.249      338.471       11.146      870.176
12/05/2021  11:57:00      -44.074       -2.865       -6.247       30.869       23.639       18.108      952.898      558.811      327.885        0.191        0.092       44.167       13.996        0.100      338.451       11.112      870.163
12/05/2021  11:58:00      -46.492       -5.463      -11.045       22.365       25.871       17.449      500.186      669.332      304.457        0.189        0.074       46.812        2.768        0.003      338.585       11.337      870.144
12/05/2021  11:59:00      -20.294       -1.657      -15.595       54.882       30.551       28.147     3012.062      933.370      792.265        0.270        0.237       20.362       27.539        1.829      338.450       11.109      870.117
12/05/2021  12:00:00      -70.426       -3.922       -2.955       42.285       30.728       26.036     1788.004      944.221      677.897        0.420        0.171       70.535       22.615        0.103      338.426       11.068      870.099
12/05/2021  12:01:00      -92.817       52.622      -21.414       21.447       26.483       16.956      459.995      701.364      287.504        0.665        0.072      106.696        6.052        0.003      338.160       10.624      870.084
12/05/2021  12:02:00      -52.096       77.658      -14.107       29.815       29.617       30.575      888.927      877.148      934.818        0.582        0.135       93.514       19.033        0.041      338.545       11.271      870.068
12/05/2021  12:03:00      -77.141       58.154      -14.333       33.159       23.439       20.208     1099.518      549.409      408.365        0.580        0.103       96.605       14.139        0.021      338.622       11.399      870.037
12/05/2021  12:04:00      -26.451      -15.773      -18.459       40.962       33.604       21.713     1677.909     1129.229      471.450        0.228        0.164       30.796       13.851        0.202      338.799       11.697      870.015
12/05/2021  12:05:00      -11.868       -8.451       -5.413       29.500       38.858       22.178      870.231     1509.907      491.876        0.156        0.144       14.569       18.346        1.586      338.765       11.639      869.995
12/05/2021  12:06:00      -35.443       24.361      -14.657       19.949       16.852       11.378      397.961      283.997      129.452        0.144        0.041       43.008        5.255        0.015      338.543       11.266      869.972
12/05/2021  12:07:00      -38.503        2.010      -11.692       18.779       20.870       24.058      352.668      435.573      578.805        0.149        0.068       38.555       15.294        0.157      338.706       11.540      869.965
12/05/2021  12:08:00       13.391       -3.206        7.169       17.273       12.867       11.614      298.358      165.566      134.879        0.042        0.030       13.769        6.973        0.256      339.336       12.600      869.939
12/05/2021  12:09:00      -15.357       -0.239       -2.423       21.756       15.253       14.119      473.320      232.658      199.356        0.057        0.045       15.358        9.623        0.393      339.160       12.304      869.917
12/05/2021  12:10:00       48.159      -65.178      -22.516       27.545       53.695       22.383      758.749     2883.174      500.990        0.561        0.207       81.040       22.970        0.080      338.819       11.729      869.891
12/05/2021  12:11:00       54.884      -69.374      -28.476       42.574       30.787       20.710     1812.583      947.836      428.922        0.591        0.159       88.459       16.791        0.036      338.657       11.458      869.857
12/05/2021  12:12:00       30.526      -83.153      -30.135       27.621       39.082       22.250      762.930     1527.425      495.071        0.577        0.139       88.579       15.473        0.031      338.784       11.671      869.847
12/05/2021  12:13:00      -15.185       -3.997      -10.979       26.429       25.215       19.615      698.517      635.794      384.754        0.104        0.086       15.703       11.321        0.520      338.919       11.898      869.841
12/05/2021  12:14:00        2.415      -20.484      -32.256       32.422       30.197       22.190     1051.176      911.858      492.388        0.196        0.123       20.626       18.455        0.801      338.915       11.890      869.837
12/05/2021  12:15:00      -28.491      -21.956      -10.258       24.855       25.280       15.891      617.770      639.079      252.524        0.145        0.075       35.969       10.670        0.088      338.951       11.952      869.827
12/05/2021  12:16:00       -2.425        2.249       -8.497       26.185       29.966       22.407      685.662      897.954      502.071        0.108        0.104        3.308        5.518        2.783      339.017       12.063      869.809
12/05/2021  12:17:00       -5.297       -7.165      -15.998       30.454       23.682       25.691      927.441      560.819      660.010        0.124        0.107        8.911       16.407        3.390      339.034       12.092      869.786
12/05/2021  12:18:00       27.067      -29.688      -23.986       50.631       72.569       31.961     2563.528     5266.326     1021.484        0.552        0.443       40.175       31.668        0.621      338.940       11.932      869.765
12/05/2021  12:19:00       66.761     -158.970      -42.656       17.459       21.987       15.273      304.801      483.434      233.279        1.628        0.051      172.419       13.268        0.006      338.715       11.554      869.768
12/05/2021  12:20:00       84.107      -99.825      -32.981       17.539       32.344       16.374      307.616     1046.143      268.102        0.987        0.081      130.534        9.220        0.005      338.704       11.535      869.756
12/05/2021  12:21:00       59.003      -30.445      -27.317       20.394       17.999       17.900      415.929      323.970      320.416        0.311        0.053       66.394        9.517        0.021      338.750       11.613      869.746
12/05/2021  12:22:00        7.370       45.739        2.317       34.408       41.155       24.278     1183.932     1693.707      589.423        0.281        0.173       46.329       21.681        0.219      338.815       11.722      869.732
12/05/2021  12:23:00       -4.786        8.137       -3.824       28.193       29.065       24.081      794.834      844.757      579.909        0.116        0.111        9.440       14.623        2.400      339.236       12.430      869.711
12/05/2021  12:24:00      -15.535       24.775       -7.424       55.918       47.804       26.706     3126.774     2285.196      713.204        0.352        0.306       29.242       18.154        0.385      339.059       12.134      869.693
12/05/2021  12:25:00        6.552      -44.338       -5.135       53.390       53.509       31.674     2850.473     2863.244     1003.222        0.437        0.336       44.820       17.338        0.150      339.185       12.346      869.694
12/05/2021  12:26:00       25.398      -63.100      -25.730       32.264       42.204       22.968     1040.980     1781.171      527.515        0.432        0.167       68.020       22.115        0.106      339.245       12.448      869.691
12/05/2021  12:27:00      -29.275      -29.930      -19.133       23.730       27.247       20.640      563.137      742.388      426.025        0.192        0.087       41.866       12.686        0.092      339.244       12.445      869.686
12/05/2021  12:28:00       47.677      -84.578      -18.816       50.125       54.419       29.157     2512.517     2961.427      850.111        0.805        0.316       97.090       35.587        0.134      339.355       12.632      869.676
12/05/2021  12:29:00       59.608      -82.702      -14.878       67.229       43.549       37.278     4519.782     1896.523     1389.661        0.921        0.390      101.944       33.089        0.105      339.267       12.483      869.674
12/05/2021  12:30:00       18.376      -58.496       -9.480       29.710       50.152       32.582      882.673     2515.204     1061.558        0.415        0.223       61.314       32.284        0.277      339.529       12.925      869.680
12/05/2021  12:31:00       27.249        3.026       -6.244       40.469       40.869       24.408     1637.761     1670.303      595.736        0.235        0.195       27.417       18.700        0.465      339.138       12.264      869.683
12/05/2021  12:32:00       48.122      -49.564      -20.111       37.365       42.129       27.907     1396.123     1774.815      778.805        0.456        0.197       69.082       24.655        0.127      338.934       11.924      869.686
12/05/2021  12:33:00       27.541      -80.075      -19.404       39.724       46.803       36.341     1577.981     2190.566     1320.649        0.632        0.254       84.679       27.191        0.103      338.922       11.903      869.674
12/05/2021  12:34:00       20.877      -50.726       -9.614       28.056       50.215       34.110      787.152     2521.543     1163.475        0.379        0.224       54.854       24.051        0.192      339.186       12.346      869.672
12/05/2021  12:35:00       -9.891      -19.423       -2.038       43.027       59.729       29.777     1851.285     3567.587      886.679        0.339        0.315       21.796       24.275        1.240      339.496       12.868      869.672
12/05/2021  12:36:00       83.436     -180.311      -37.673       28.934       22.345       25.111      837.193      499.294      630.548        2.143        0.098      198.680       14.198        0.005      339.252       12.458      869.657
12/05/2021  12:37:00       51.793     -106.427      -30.256       30.332       38.487       22.642      920.059     1481.223      512.638        0.892        0.146      118.361       16.338        0.019      339.337       12.602      869.654
12/05/2021  12:38:00       72.675     -108.353      -39.828       50.597       58.093       32.804     2560.022     3374.756     1076.120        1.281        0.351      130.468       32.276        0.061      339.374       12.665      869.647
12/05/2021  12:39:00       70.692     -129.125      -33.744       25.463       34.023       22.023      648.378     1157.548      485.018        1.255        0.115      147.210        5.449        0.001      339.220       12.405      869.627
12/05/2021  12:40:00       31.245     -115.966      -24.789       33.880       50.603       30.647     1147.852     2560.712      939.210        0.984        0.232      120.101       21.025        0.031      339.244       12.444      869.623
12/05/2021  12:41:00       10.606      -15.501      -19.753       50.710       35.851       27.651     2571.522     1285.272      764.598        0.268        0.231       18.782       17.576        0.876      339.180       12.338      869.612
12/05/2021  12:42:00       59.574     -132.798      -26.512       33.622       51.254       26.061     1130.471     2627.019      679.150        1.316        0.222      145.549       18.148        0.016      339.356       12.633      869.584
12/05/2021  12:43:00       46.009     -124.374      -18.929       41.881       53.183       43.171     1753.980     2828.466     1863.773        1.219        0.322      132.611       34.306        0.067      339.562       12.980      869.558
12/05/2021  12:44:00       77.289      -67.042      -27.206       38.462       40.652       24.742     1479.290     1652.592      612.158        0.748        0.187      102.314       24.214        0.056      339.297       12.532      869.553
12/05/2021  12:45:00       60.896     -122.655      -25.728       37.795       49.305       23.060     1428.457     2431.012      531.776        1.190        0.220      136.940       23.107        0.028      339.503       12.881      869.528
12/05/2021  12:46:00       55.350     -123.691      -31.990       38.398       56.021       27.723     1474.389     3138.313      768.580        1.238        0.269      135.510       21.694        0.026      339.389       12.687      869.516
12/05/2021  12:47:00      -46.357      -51.774      -30.218       75.468       51.499       39.205     5695.372     2652.159     1537.061        0.781        0.494       69.495       38.156        0.301      339.619       13.075      869.524
12/05/2021  12:48:00       73.266     -169.259      -40.814       30.984       32.212       23.069      959.984     1037.582      532.169        1.911        0.126      184.436       12.395        0.005      339.263       12.477      869.517
12/05/2021  12:49:00       90.606     -164.358      -40.133       30.343       34.203       22.910      920.671     1169.832      524.858        1.972        0.131      187.678       20.656        0.012      339.355       12.633      869.509
12/05/2021  12:50:00      130.768     -215.318      -46.025       42.782       55.126       34.086     1830.326     3038.858     1161.862        3.580        0.302      251.917       23.428        0.009      339.415       12.730      869.480
12/05/2021  12:51:00      128.590     -138.010      -47.645       36.982       72.085       25.334     1367.679     5196.190      641.803        2.253        0.360      188.633       31.227        0.027      339.279       12.502      869.478
12/05/2021  12:52:00       87.756     -143.614      -36.397       29.637       38.767       18.713      878.352     1502.907      350.174        1.619        0.137      168.304       14.467        0.007      339.302       12.542      869.478
12/05/2021  12:53:00       62.617     -126.082      -31.954       20.640       29.080       23.178      426.023      845.672      537.216        1.132        0.090      140.775       18.141        0.017      339.406       12.719      869.466
12/05/2021  12:54:00       90.887     -173.727      -44.064       33.571       40.414       24.705     1126.992     1633.259      610.316        2.188        0.169      196.065       17.337        0.008      339.409       12.722      869.453
12/05/2021  12:55:00       37.620     -120.867      -15.664       41.301       84.017       27.184     1705.740     7058.909      738.976        1.288        0.475      126.587       33.274        0.069      339.524       12.917      869.430
12/05/2021  12:56:00       35.106      -33.361      -42.218       52.838       82.402       31.451     2791.905     6790.154      989.157        0.735        0.529       48.429       18.582        0.147      339.570       12.994      869.387
12/05/2021  12:57:00       69.417     -176.264      -34.139       25.453       24.353       23.336      647.834      593.067      544.563        1.942        0.089      189.440       12.097        0.004      339.377       12.667      869.356
12/05/2021  12:58:00       58.134      -95.264      -38.633       45.844       58.027       33.252     2101.635     3367.156     1105.670        1.026        0.329      111.601       28.297        0.064      339.730       13.264      869.316
12/05/2021  12:59:00       17.166     -105.994      -28.123       46.865       49.069       29.613     2196.299     2407.811      876.940        0.890        0.274      107.376       15.146        0.020      339.714       13.235      869.309
12/05/2021  13:00:00        7.613      -41.593      -17.724       39.351       32.360       28.671     1548.462     1047.147      822.046        0.276        0.171       42.283       14.167        0.112      339.945       13.624      869.304
12/05/2021  13:01:00       42.060      -64.313      -27.728       45.944       55.936       30.665     2110.860     3128.827      940.323        0.643        0.309       76.845       22.907        0.089      339.980       13.685      869.289
12/05/2021  13:02:00      -25.224      -33.318       -9.453       55.455       37.064       25.821     3075.270     1373.729      666.720        0.347        0.256       41.789       11.711        0.079      339.961       13.652      869.272
12/05/2021  13:03:00      -16.052       52.339       -3.202       45.577       39.022       31.160     2077.291     1522.717      970.918        0.379        0.229       54.746       19.156        0.122      339.847       13.460      869.263
12/05/2021  13:04:00       20.029       30.786       -8.209       36.133       24.303       27.162     1305.564      590.641      737.748        0.202        0.132       36.728       17.456        0.226      339.929       13.599      869.259
12/05/2021  13:05:00       51.688       32.894      -13.990       37.104       27.054       16.394     1376.711      731.916      268.753        0.316        0.119       61.268       19.098        0.097      339.714       13.237      869.257
12/05/2021  13:06:00       84.530      -47.881      -27.537       33.727       47.259       28.252     1137.542     2233.387      798.163        0.718        0.208       97.149       17.112        0.031      339.814       13.404      869.250
12/05/2021  13:07:00       73.975      -53.872      -36.111       46.444       58.404       34.318     2157.068     3411.034     1177.733        0.821        0.337       91.512       26.608        0.085      339.958       13.648      869.225
12/05/2021  13:08:00       92.457      -11.600      -43.790       68.273       68.596       42.701     4661.267     4705.425     1823.345        1.089        0.560       93.181       27.224        0.085      339.964       13.657      869.202
12/05/2021  13:09:00       76.540       -9.697      -11.717       63.669       61.440       40.789     4053.696     3774.845     1663.776        0.779        0.475       77.152       36.071        0.219      340.071       13.838      869.188
12/05/2021  13:10:00       -9.673      -18.242      -16.643       40.175       48.281       25.282     1614.017     2331.085      639.183        0.264        0.229       20.647       19.162        0.861      340.162       13.992      869.179
12/05/2021  13:11:00       88.035      -61.764      -46.574       56.568       84.370       35.151     3199.915     7118.256     1235.616        1.264        0.578      107.541       23.067        0.046      340.036       13.779      869.193
12/05/2021  13:12:00      140.864      -47.615      -21.050       40.384       37.131       29.901     1630.848     1378.732      894.084        1.323        0.195      148.694       20.276        0.019      339.658       13.142      869.198
12/05/2021  13:13:00       88.251      -55.043      -21.531       46.583       49.780       30.674     2169.936     2478.014      940.923        0.843        0.279      104.009       26.735        0.066      339.875       13.507      869.204
12/05/2021  13:14:00       82.029      -59.679      -28.351       39.587       56.565       27.133     1567.170     3199.618      736.187        0.830        0.275      101.442       29.685        0.086      339.981       13.686      869.198
12/05/2021  13:15:00        5.354       -9.843       -4.775       27.458       44.357       25.654      753.941     1967.569      658.105        0.176        0.169       11.205       22.583        4.062      340.260       14.158      869.188
12/05/2021  13:16:00       -5.959      -65.607      -24.915       36.415       42.283       26.762     1326.040     1787.862      716.183        0.439        0.192       65.877       18.222        0.077      340.218       14.087      869.157
12/05/2021  13:17:00       17.839      -38.400      -14.560       37.714       48.045       31.418     1422.354     2308.325      987.088        0.336        0.236       42.341       28.128        0.441      340.141       13.956      869.128
12/05/2021  13:18:00       -7.834       -5.264       -6.109       21.086       22.786       19.242      444.605      519.201      370.271        0.073        0.067        9.438        9.654        1.046      340.326       14.269      869.100
12/05/2021  13:19:00       -3.910       -5.315       -9.555       35.934       22.205       21.627     1291.217      493.066      467.707        0.119        0.113        6.598        4.717        0.511      340.394       14.383      869.074
12/05/2021  13:20:00      -10.683      -88.356      -14.758       60.827       67.109       29.577     3699.964     4503.563      874.783        0.861        0.454       89.000       28.312        0.101      340.168       14.002      869.048
12/05/2021  13:21:00       47.360     -100.335      -14.393       29.768       44.550       29.465      886.158     1984.737      868.209        0.813        0.187      110.951       23.694        0.046      340.212       14.076      869.034
12/05/2021  13:22:00       74.491      -82.797      -34.116       51.492       63.336       26.469     2651.477     4011.463      700.623        1.046        0.368      111.374       26.686        0.057      340.175       14.014      869.011
12/05/2021  13:23:00       94.385      -97.653      -29.574       62.538       63.122       42.381     3910.992     3984.394     1796.188        1.450        0.485      135.811       44.935        0.109      340.083       13.857      868.983
12/05/2021  13:24:00       98.834     -161.682      -43.234       31.272       31.219       17.445      977.941      974.601      304.339        2.002        0.113      189.498       15.594        0.007      339.996       13.711      868.976
12/05/2021  13:25:00       65.605      -84.885      -32.483       20.669       52.593       21.250      427.190     2766.025      451.544        0.810        0.182      107.282        9.926        0.009      340.098       13.884      868.981
12/05/2021  13:26:00       75.275      -94.985      -26.408       21.719       31.222       20.672      471.705      974.786      427.314        0.863        0.094      121.196       18.749        0.024      339.993       13.708      868.985
12/05/2021  13:27:00       75.431      -51.935      -29.595       21.771       28.517       21.558      473.962      813.194      464.729        0.551        0.088       91.581       20.622        0.051      340.069       13.834      868.988
12/05/2021  13:28:00       37.102      -13.433      -12.266       18.502       17.043       14.528      342.340      290.460      211.056        0.128        0.042       39.459       10.371        0.069      340.185       14.031      868.990
12/05/2021  13:29:00       15.597      -12.708      -12.706       20.549       15.703       12.534      422.244      246.580      157.089        0.070        0.041       20.119        8.855        0.194      340.316       14.251      868.988
12/05/2021  13:30:00       38.632       29.432      -13.820       40.639       23.632       18.974     1651.496      558.491      360.001        0.256        0.128       48.566       22.968        0.224      340.417       14.423      868.989
12/05/2021  13:31:00       36.943       19.110      -20.388       52.023       41.195       23.999     2706.377     1697.018      575.930        0.356        0.249       41.593       22.735        0.299      340.532       14.617      868.982
12/05/2021  13:32:00       45.985       23.195       -4.036       58.105       39.494       29.555     3376.227     1559.790      873.516        0.424        0.290       51.503       23.280        0.204      340.476       14.523      868.970
12/05/2021  13:33:00       77.519       27.126      -12.873       17.202       26.518       15.419      295.894      703.197      237.761        0.407        0.062       82.128       15.316        0.035      340.130       13.936      868.954
12/05/2021  13:34:00       72.302       17.753       -9.287       57.957       35.230       22.089     3359.041     1241.118      487.913        0.536        0.254       74.450       25.193        0.115      340.240       14.125      868.923
12/05/2021  13:35:00       52.141      -14.676       -8.238       34.297       43.478       23.900     1176.291     1890.352      571.207        0.332        0.182       54.167       15.277        0.080      340.410       14.410      868.906
12/05/2021  13:36:00       90.493        2.560       -7.399       44.663       22.724       24.272     1994.749      516.388      589.120        0.567        0.155       90.529       21.199        0.055      340.277       14.186      868.894
12/05/2021  13:37:00       71.249       17.810       -4.549       31.223       45.057       24.612      974.873     2030.112      605.769        0.451        0.181       73.441       17.475        0.057      340.241       14.125      868.886
12/05/2021  13:38:00       77.680       40.848      -13.544       33.980       31.318       20.143     1154.648      980.796      405.729        0.521        0.127       87.766       11.427        0.017      340.203       14.062      868.878
12/05/2021  13:39:00       65.044      -23.127      -25.980       66.552       55.679       40.075     4429.141     3100.172     1606.041        0.729        0.457       69.033       43.090        0.390      340.390       14.378      868.846
12/05/2021  13:40:00       87.569      -69.903      -33.933       59.921       58.282       42.328     3590.506     3396.813     1791.652        1.124        0.439      112.048       39.398        0.124      340.365       14.337      868.815
12/05/2021  13:41:00       97.169      -14.114      -17.728       45.627       42.359       37.242     2081.866     1794.258     1387.001        0.761        0.263       98.188       28.868        0.086      340.339       14.291      868.802
12/05/2021  13:42:00       70.875      -17.503      -25.779       49.375       52.149       26.392     2437.842     2719.510      696.545        0.592        0.293       73.004       26.054        0.127      340.346       14.303      868.790
12/05/2021  13:43:00       16.537        3.250      -10.023       16.101       42.354       24.683      259.252     1793.872      609.258        0.152        0.133       16.853        9.172        0.296      340.621       14.768      868.773
12/05/2021  13:44:00       54.692      -23.095      -16.622       32.241       27.970       21.633     1039.482      782.302      467.977        0.304        0.114       59.369       16.285        0.075      340.523       14.603      868.746
12/05/2021  13:45:00       89.296     -126.779      -32.408       39.763       55.141       28.782     1581.057     3040.529      828.409        1.527        0.272      155.070       29.159        0.035      340.583       14.703      868.727
12/05/2021  13:46:00       93.006      -84.609      -32.431       43.323       57.178       28.148     1876.842     3269.309      792.329        1.140        0.297      125.733       26.117        0.043      340.580       14.697      868.714
12/05/2021  13:47:00      -27.291      -44.213      -23.243       52.195       43.690       18.434     2724.355     1908.790      339.816        0.411        0.249       51.958       13.173        0.064      340.705       14.912      868.710
12/05/2021  13:48:00       63.673     -108.205      -29.041       44.768       58.899       32.701     2004.151     3469.038     1069.342        1.157        0.327      125.549       25.695        0.042      340.724       14.942      868.688
12/05/2021  13:49:00        3.538      -34.063      -13.290       31.463       45.935       29.944      989.951     2110.035      896.661        0.267        0.200       34.247       22.594        0.435      340.883       15.212      868.670
12/05/2021  13:50:00      -32.312        1.103       -3.316       21.717       28.337       20.265      471.628      802.976      410.670        0.137        0.084       32.330       14.721        0.207      341.035       15.470      868.658
12/05/2021  13:51:00       30.160      -85.392      -14.766       71.561       53.174       37.969     5120.973     2827.446     1441.610        0.890        0.470       90.561       42.583        0.221      341.004       15.418      868.644
12/05/2021  13:52:00       73.920     -100.708      -24.207       46.016       49.393       31.535     2117.450     2439.708      994.474        1.087        0.278      124.925       30.062        0.058      340.824       15.112      868.650
12/05/2021  13:53:00       81.600     -127.789      -36.656       30.357       44.274       28.808      921.525     1960.179      829.881        1.402        0.186      151.620       21.286        0.020      340.737       14.965      868.661
12/05/2021  13:54:00       50.776      -83.373      -22.695       21.826       36.209       19.326      476.395     1311.096      373.499        0.610        0.108       97.618       10.448        0.011      340.808       15.085      868.667
12/05/2021  13:55:00       48.112      -99.685      -23.402       36.312       39.262       23.051     1318.528     1541.518      531.371        0.809        0.170      110.688        8.191        0.005      340.948       15.321      868.661
12/05/2021  13:56:00       46.066       -3.806       -3.075       42.533       39.977       22.255     1809.078     1598.143      495.299        0.302        0.195       46.223       20.427        0.195      341.157       15.675      868.652
12/05/2021  13:57:00       -3.203      -56.447      -13.370       52.117       55.999       19.773     2716.233     3135.850      390.972        0.481        0.312       56.538       20.239        0.128      341.120       15.611      868.635
12/05/2021  13:58:00       62.512     -191.712      -38.359       25.087       48.072       19.431      629.380     2310.884      377.550        2.272        0.166      201.646        5.575        0.001      340.658       14.827      868.613
12/05/2021  13:59:00       78.982      -83.663      -26.590       36.219       32.273       21.632     1311.845     1041.545      467.923        0.838        0.141      115.055       16.512        0.021      340.949       15.323      868.605
12/05/2021  14:00:00       92.984     -178.294      -39.458       34.207       84.239       20.847     1170.109     7096.161      434.592        2.534        0.435      201.084       25.374        0.016      340.744       14.973      868.603
12/05/2021  14:01:00       56.678     -104.220      -22.586       42.255       55.962       37.270     1785.446     3131.788     1389.028        1.044        0.315      118.635       30.257        0.065      340.989       15.389      868.585
12/05/2021  14:02:00       51.643     -144.422      -24.780       34.457       49.968       25.967     1187.257     2496.850      674.268        1.425        0.218      153.378       16.190        0.011      340.868       15.185      868.576
12/05/2021  14:03:00       78.179      -87.516      -41.791       70.374       83.375       39.656     4952.487     6951.441     1572.572        1.449        0.674      117.350       28.415        0.059      341.002       15.411      868.560
12/05/2021  14:04:00       22.588     -131.349      -33.923       96.549       99.771       39.074     9321.698     9954.292     1526.814        1.985        1.040      133.277       46.461        0.122      340.969       15.355      868.552
12/05/2021  14:05:00      144.826     -190.284      -44.806       57.899       48.155       30.910     3352.336     2318.885      955.432        3.291        0.331      239.128       23.794        0.010      340.749       14.979      868.549
12/05/2021  14:06:00       90.180     -107.248      -36.782       49.662       96.132       26.055     2466.267     9241.312      678.888        1.668        0.619      140.123       15.622        0.012      340.859       15.169      868.553
12/05/2021  14:07:00      108.353      -95.542      -29.444       64.593       66.851       45.638     4172.319     4469.002     2082.859        1.623        0.536      144.460       39.097        0.073      340.962       15.345      868.539
12/05/2021  14:08:00       98.965      -24.240      -23.439      107.604       83.170       57.039    11578.600     6917.193     3253.484        1.634        1.087      101.890       28.755        0.080      340.862       15.173      868.514
12/05/2021  14:09:00      117.930       -7.205      -19.581       97.346       76.693       60.280     9476.337     5881.884     3633.691        1.666        0.950      118.150       53.323        0.204      340.879       15.203      868.505
12/05/2021  14:10:00      142.134        3.537      -28.076       84.477       65.711       35.513     7136.307     4317.988     1261.155        1.686        0.636      142.178       30.751        0.047      340.798       15.066      868.516
12/05/2021  14:11:00       62.955      -22.710      -31.453       46.168       56.425       33.335     2131.457     3183.824     1111.221        0.595        0.321       66.925       26.681        0.159      340.964       15.349      868.512
12/05/2021  14:12:00       48.069       10.770      -15.338       38.955       40.511       28.507     1517.456     1641.178      812.669        0.332        0.199       49.261       10.576        0.046      340.972       15.362      868.486
12/05/2021  14:13:00       99.077       30.327       -9.167       49.098       57.959       23.018     2410.638     3359.205      529.816        0.856        0.315      103.615       10.603        0.010      340.875       15.198      868.466
12/05/2021  14:14:00       91.977       31.369      -11.741       23.409       35.383       17.764      547.987     1251.931      315.543        0.585        0.106       97.179       10.246        0.011      340.909       15.257      868.438
12/05/2021  14:15:00       19.556        0.665      -14.651       38.991       28.649       20.433     1520.268      820.761      417.488        0.168        0.138       19.567       20.919        1.143      340.967       15.353      868.429
12/05/2021  14:16:00       11.048       46.105       -6.145       18.998       36.799       20.894      360.927     1354.181      436.579        0.222        0.108       47.410       10.063        0.045      340.985       15.384      868.431
12/05/2021  14:17:00       30.761       15.107       -8.232       15.240       19.978       18.222      232.257      399.105      332.027        0.110        0.048       34.271        8.235        0.058      340.855       15.164      868.420
12/05/2021  14:18:00        5.378      -10.944       -4.731       31.680       26.529       23.177     1003.634      703.783      537.188        0.121        0.112       12.194       23.557        3.732      341.173       15.702      868.413
12/05/2021  14:19:00       12.787      -47.936      -10.848       49.449       44.638       40.064     2445.251     1992.554     1605.087        0.431        0.302       49.612       24.720        0.248      341.239       15.813      868.402
12/05/2021  14:20:00       65.057     -117.710      -43.503       33.056       44.320       31.216     1092.721     1964.264      974.460        1.201        0.202      134.492       23.666        0.031      340.830       15.121      868.395
12/05/2021  14:21:00        1.523      -85.338      -27.410       56.486       39.130       25.436     3190.663     1531.155      647.007        0.670        0.268       85.352       18.045        0.045      341.024       15.449      868.384
12/05/2021  14:22:00       24.196      -71.091      -28.094       56.410       64.366       40.221     3182.072     4142.980     1617.740        0.768        0.447       75.095       28.832        0.147      341.113       15.599      868.370
12/05/2021  14:23:00       60.396      -65.290      -20.474       29.252       48.495       30.438      855.686     2351.812      926.500        0.623        0.207       88.941       21.914        0.061      340.764       15.011      868.375
12/05/2021  14:24:00       50.729       -2.614      -10.234       39.443       49.912       33.889     1555.738     2491.171     1148.435        0.394        0.260       50.797       26.163        0.265      340.916       15.266      868.383
12/05/2021  14:25:00       68.937       -3.290      -13.599       69.077       63.408       47.564     4771.686     4020.597     2262.363        0.800        0.553       69.016       37.439        0.294      340.905       15.249      868.358
12/05/2021  14:26:00       32.030       -7.279       -1.372       35.855       33.476       26.835     1285.546     1120.642      720.115        0.210        0.156       32.847       25.042        0.581      340.919       15.271      868.373
12/05/2021  14:27:00       74.158        6.338      -13.044       51.338       43.006       29.587     2635.575     1849.500      875.363        0.553        0.268       74.429       25.000        0.113      340.912       15.260      868.349
12/05/2021  14:28:00      101.490       27.781      -20.925       63.534       43.598       20.872     4036.564     1900.828      435.624        0.894        0.319      105.224       17.653        0.028      340.874       15.196      868.344
12/05/2021  14:29:00       86.274       65.903      -16.833       34.344       27.548       22.631     1179.479      758.868      512.155        0.726        0.123      108.565       10.874        0.010      340.774       15.026      868.343
12/05/2021  14:30:00       67.843      -60.418      -23.696       53.059       58.512       40.818     2815.293     3423.669     1666.123        0.836        0.395       90.846       39.958        0.193      340.987       15.388      868.329
12/05/2021  14:31:00       81.226      -95.080      -28.483       35.520       24.571       19.733     1261.680      603.720      389.377        0.935        0.113      125.051       16.514        0.017      340.842       15.143      868.315
12/05/2021  14:32:00       55.121      -63.703      -26.783       23.592       31.329       16.461      556.599      981.476      270.955        0.481        0.090       84.240        9.971        0.014      340.942       15.311      868.309
12/05/2021  14:33:00       36.059        4.993      -16.523       52.044       37.680       22.466     2708.602     1419.777      504.729        0.311        0.232       36.403       18.038        0.246      341.044       15.483      868.309
12/05/2021  14:34:00       99.769       17.522      -23.419       48.588       34.267       27.165     2360.796     1174.204      737.961        0.754        0.214      101.296       21.350        0.044      340.834       15.130      868.315
12/05/2021  14:35:00       85.637       27.487      -14.030       49.029       43.592       35.902     2403.812     1900.281     1288.956        0.694        0.280       89.940       27.007        0.090      340.877       15.202      868.319
12/05/2021  14:36:00       49.220       12.934       -9.645       16.194       14.416       14.111      262.238      207.833      199.119        0.168        0.033       50.891        4.141        0.007      340.872       15.194      868.307
12/05/2021  14:37:00      118.088        8.552       -7.588       55.189       46.782       27.767     3045.876     2188.592      771.031        1.004        0.300      118.397       21.048        0.032      340.915       15.265      868.282
12/05/2021  14:38:00       65.342       16.696       -3.690       39.209       27.814       18.621     1537.370      773.614      346.758        0.361        0.133       67.441       12.797        0.036      340.975       15.367      868.280
12/05/2021  14:39:00       20.334        9.728       -9.427       43.074       34.574       19.775     1855.336     1195.376      391.063        0.202        0.172       22.541       18.838        0.698      341.124       15.618      868.259
12/05/2021  14:40:00       18.964      -44.609      -21.402       40.267       49.183       24.442     1621.412     2418.975      597.401        0.372        0.232       48.473       18.409        0.144      341.085       15.551      868.227
12/05/2021  14:41:00       59.276      -71.292      -27.004       27.222       40.634       19.944      741.013     1651.138      397.774        0.606        0.139       92.716        7.013        0.006      341.103       15.584      868.224
12/05/2021  14:42:00       28.983      -38.049      -21.845       24.704       30.659       29.964      610.273      939.978      897.812        0.261        0.122       47.830       23.081        0.233      341.273       15.871      868.215
12/05/2021  14:43:00       73.423       14.841       -8.185       57.349       59.475       31.650     3288.944     3537.281     1001.698        0.675        0.391       74.908       23.744        0.100      341.081       15.546      868.223
12/05/2021  14:44:00      118.595       73.261      -13.638       24.395       19.799       19.322      595.126      392.003      373.349        1.049        0.068      139.398        7.234        0.003      340.843       15.144      868.245
12/05/2021  14:45:00       76.532       76.035      -28.856       22.677       15.294       17.500      514.245      233.917      306.261        0.676        0.053      107.882        6.440        0.004      340.865       15.183      868.263
12/05/2021  14:46:00       70.336       67.544      -24.894       23.334       18.002       18.045      544.467      324.057      325.630        0.566        0.060       97.516       12.115        0.015      340.874       15.196      868.271
12/05/2021  14:47:00       45.633       43.042      -21.638       16.352       14.390       13.417      267.395      207.062      180.016        0.253        0.033       62.729        9.291        0.022      340.857       15.170      868.281
12/05/2021  14:48:00        7.294       33.944      -22.723       22.994       16.982       14.404      528.745      288.395      207.462        0.137        0.051       34.719       13.743        0.157      340.931       15.291      868.265
12/05/2021  14:49:00       11.997       16.872       -4.155       14.276       11.470       15.287      203.797      131.551      233.700        0.051        0.028       20.703        6.895        0.111      340.989       15.391      868.230
12/05/2021  14:50:00       31.420      -48.292      -22.822       32.551       48.488       20.479     1059.578     2351.080      419.395        0.383        0.192       57.613       23.446        0.166      341.086       15.553      868.190
12/05/2021  14:51:00      103.658     -131.631      -44.026       66.761       69.780       33.941     4457.033     4869.251     1151.966        2.024        0.524      167.546       41.804        0.062      340.927       15.284      868.153
12/05/2021  14:52:00       75.531      -71.861      -28.630       33.477       30.389       19.904     1120.724      923.462      396.170        0.706        0.122      104.254       15.850        0.023      340.928       15.287      868.160
12/05/2021  14:53:00       58.406        5.255       -9.947       63.993       45.785       19.432     4095.094     2096.274      377.618        0.505        0.328       58.642       25.390        0.187      340.954       15.331      868.206
12/05/2021  14:54:00       80.445      -12.541      -15.400       47.359       28.103       31.275     2242.865      789.773      978.096        0.544        0.201       81.417       25.709        0.100      341.034       15.466      868.226
12/05/2021  14:55:00      117.347       -7.194      -13.651       31.413       23.255       18.323      986.758      540.792      335.739        0.794        0.093      117.567       15.039        0.016      340.938       15.304      868.224
12/05/2021  14:56:00       87.453       19.695      -13.999       40.429       26.347       14.400     1634.472      694.169      207.365        0.538        0.127       89.644       15.708        0.031      340.933       15.297      868.228
12/05/2021  14:57:00       -2.136        6.157       -5.611       25.310       20.039       16.533      640.589      401.572      273.343        0.069        0.066        6.517       12.765        3.837      341.261       15.851      868.224
12/05/2021  14:58:00       -2.539      -16.061      -17.685       29.815       27.484       15.231      888.952      755.370      231.991        0.123        0.094       16.260        8.887        0.299      341.188       15.727      868.233
12/05/2021  14:59:00       77.168      -47.191      -18.521       38.978       30.879       24.870     1519.310      953.493      618.534        0.581        0.155       90.454       23.676        0.069      341.107       15.591      868.221
12/05/2021  15:00:00       40.773        3.268      -18.646       34.647       37.390       23.958     1200.394     1397.977      573.991        0.260        0.159       40.903       13.325        0.106      341.047       15.489      868.218
12/05/2021  15:01:00       65.028      -12.170      -21.244       35.591       39.927       24.712     1266.737     1594.165      610.681        0.415        0.174       66.157       18.183        0.076      341.060       15.509      868.229
12/05/2021  15:02:00       25.553      -24.395      -12.691       34.677       22.209       23.695     1202.525      493.253      561.468        0.183        0.113       35.328       13.262        0.141      341.183       15.719      868.241
12/05/2021  15:03:00       43.492      -22.981      -27.423       37.468       32.741       21.773     1403.843     1071.978      474.071        0.306        0.147       49.190       16.959        0.119      341.117       15.608      868.241
12/05/2021  15:04:00       48.416      -61.469      -23.476       41.291       45.416       25.569     1704.925     2062.579      653.782        0.555        0.221       78.247       17.652        0.051      341.111       15.597      868.237
12/05/2021  15:05:00       24.896      -46.854      -18.405       34.101       41.709       22.505     1162.846     1739.612      506.492        0.328        0.170       53.057       14.542        0.075      341.176       15.707      868.216
12/05/2021  15:06:00       77.953     -103.982      -29.296       41.391       67.867       28.518     1713.198     4605.959      813.279        1.244        0.357      129.957       22.545        0.030      341.028       15.457      868.192
12/05/2021  15:07:00       23.582      -35.337      -10.486       35.846       36.348       22.574     1284.943     1321.152      509.592        0.251        0.156       42.484       13.271        0.098      341.209       15.763      868.194
12/05/2021  15:08:00       58.924      -12.890      -17.017       59.689       39.391       24.065     3562.730     1551.645      579.118        0.481        0.285       60.317       17.275        0.082      341.136       15.638      868.202
12/05/2021  15:09:00       61.554      -27.116       -9.692       36.216       29.280       27.419     1311.622      857.334      751.794        0.377        0.146       67.262       25.212        0.140      341.166       15.689      868.188
12/05/2021  15:10:00       80.793       13.845      -19.243       55.520       53.060       24.632     3082.488     2815.371      606.741        0.680        0.325       81.971       17.243        0.044      341.153       15.667      868.180
12/05/2021  15:11:00       48.260       42.243       -7.537       49.764       33.241       27.937     2476.437     1104.966      780.496        0.427        0.218       64.137       25.170        0.154      341.287       15.896      868.194
12/05/2021  15:12:00      146.991       72.163      -22.091       76.414       88.770       42.390     5839.077     7880.125     1796.909        2.141        0.776      163.749       30.819        0.035      341.108       15.590      868.170
12/05/2021  15:13:00      109.063      208.939      -24.341       82.710      116.889       46.963     6841.027    13662.954     2205.539        3.942        1.135      235.691       45.018        0.036      341.124       15.617      868.155
12/05/2021  15:14:00       31.102      260.380      -33.516       74.715       66.407       34.356     5582.317     4409.907     1180.339        4.053        0.559      262.231       26.076        0.010      341.083       15.546      868.149
12/05/2021  15:15:00     -104.113      235.720      -17.502       79.220       69.944       40.477     6275.790     4892.191     1638.427        3.976        0.640      257.689       29.926        0.013      341.221       15.780      868.135
12/05/2021  15:16:00      -11.610      204.548      -22.018       75.682       63.453       33.357     5727.748     4026.290     1112.694        2.666        0.543      204.877       25.686        0.016      341.274       15.869      868.144
12/05/2021  15:17:00      -62.273      233.550      -17.036       54.816       89.878       42.664     3004.808     8078.009     1820.205        3.581        0.645      241.709       31.044        0.016      341.255       15.838      868.127
12/05/2021  15:18:00       97.906      182.293      -13.677       81.895       96.210       43.800     6706.815     9256.430     1918.442        3.044        0.894      206.921       55.122        0.071      341.104       15.584      868.135
12/05/2021  15:19:00      127.641      281.852      -41.317       46.192       72.505       41.418     2133.716     5256.907     1715.458        5.327        0.455      309.407       32.786        0.011      341.112       15.594      868.118
12/05/2021  15:20:00       92.323      106.305      -13.443       80.875       71.836       41.667     6540.707     5160.451     1736.153        1.672        0.672      140.799       35.668        0.064      341.141       15.648      868.138
12/05/2021  15:21:00      124.985      234.503      -31.717       53.843      105.590       38.938     2899.100    11149.178     1516.182        4.359        0.778      265.731       43.389        0.027      341.124       15.615      868.162
12/05/2021  15:22:00       40.728      273.989      -29.820      100.655       69.634       40.541    10131.419     4848.830     1643.556        4.712        0.831      276.999       38.385        0.019      341.153       15.663      868.163
12/05/2021  15:23:00       75.161      202.768      -24.563       79.195       81.723       41.774     6271.885     6678.631     1745.096        3.103        0.735      216.250       43.030        0.040      341.150       15.659      868.172
12/05/2021  15:24:00      117.091      320.661      -40.433       48.410       55.723       30.053     2343.514     3104.999      903.166        6.226        0.318      341.370       23.489        0.005      341.144       15.649      868.188
12/05/2021  15:25:00       75.685      281.457      -31.364       81.535       85.986       44.463     6647.914     7393.611     1976.964        5.097        0.801      291.455       47.432        0.026      341.134       15.633      868.207
12/05/2021  15:26:00       75.092      308.053      -43.354      106.849       68.553       43.473    11416.718     4699.543     1889.869        6.021        0.900      317.074       47.683        0.023      341.145       15.650      868.220
12/05/2021  15:27:00       42.694      210.654      -18.197       61.419       78.189       36.524     3772.243     6113.581     1334.038        2.887        0.561      214.937       36.759        0.029      341.149       15.658      868.239
12/05/2021  15:28:00      -14.973      214.725      -25.456       83.014       74.208       35.920     6891.253     5506.868     1290.236        3.033        0.684      215.246       30.897        0.021      341.144       15.651      868.235
12/05/2021  15:29:00       10.843      311.535      -36.732       55.935       62.056       33.147     3128.712     3850.948     1098.692        5.330        0.404      311.723       27.851        0.008      341.091       15.559      868.233
12/05/2021  15:30:00       92.990      152.738      -21.628       61.782       64.999       44.086     3817.007     4224.854     1943.612        2.121        0.499      178.819       36.872        0.043      341.086       15.554      868.245
12/05/2021  15:31:00       50.794      137.862      -11.665       62.643       50.705       38.628     3924.088     2571.007     1492.152        1.485        0.399      146.922       21.574        0.022      341.144       15.653      868.243
12/05/2021  15:32:00       72.328      165.842      -14.422       53.574      110.181       48.602     2870.190    12139.839     2362.175        2.515        0.869      180.928       47.475        0.069      341.037       15.469      868.242
12/05/2021  15:33:00      124.432      252.164      -23.938       96.685      125.834       60.119     9347.907    15834.257     3614.236        5.421        1.440      281.193       69.733        0.061      340.987       15.385      868.239
12/05/2021  15:34:00      167.779      321.394      -44.170       85.919      115.452       51.346     7382.019    13329.123     2636.382        7.837        1.167      362.552       51.265        0.020      340.949       15.320      868.239
12/05/2021  15:35:00      112.793      265.853      -25.890       88.168       75.270       43.276     7773.529     5665.545     1872.841        4.969        0.766      288.791       36.277        0.016      340.976       15.365      868.247
12/05/2021  15:36:00       10.257      242.603      -18.579       96.510      101.049       43.659     9314.142    10210.955     1906.091        4.036        1.072      242.820       53.023        0.048      341.047       15.484      868.260
12/05/2021  15:37:00       27.857      217.857      -19.522       76.162       71.726       39.997     5800.618     5144.626     1599.763        3.058        0.627      219.630       38.306        0.030      340.977       15.369      868.256
12/05/2021  15:38:00       36.783      225.867      -19.935      137.480       82.089       53.257    18900.841     6738.585     2836.308        4.062        1.424      228.842       56.032        0.060      341.011       15.426      868.249
12/05/2021  15:39:00      -63.614      207.189      -32.071       44.451       64.392       36.483     1975.857     4146.327     1331.044        2.773        0.373      216.735       14.714        0.005      341.037       15.468      868.241
12/05/2021  15:40:00       10.685      199.230      -15.538       72.011       60.523       36.712     5185.586     3663.019     1347.736        2.512        0.510      199.517       22.601        0.013      340.975       15.366      868.261
12/05/2021  15:41:00       -3.142      212.565      -25.046       49.424       43.711       29.006     2442.750     1910.694      841.353        2.551        0.260      212.588       19.761        0.009      340.985       15.381      868.279
12/05/2021  15:42:00      -53.848      206.397      -15.693       50.800       76.480       38.132     2580.690     5849.240     1454.012        2.781        0.494      213.306       36.108        0.029      340.989       15.388      868.287
12/05/2021  15:43:00        8.732      197.530      -23.479       43.646       44.677       28.569     1905.000     1996.051      816.208        2.218        0.236      197.723       20.998        0.011      340.934       15.297      868.299
12/05/2021  15:44:00       18.167      248.283      -19.729       64.846       64.109       34.824     4204.956     4109.996     1212.703        3.594        0.476      248.947       24.096        0.009      340.918       15.266      868.300
12/05/2021  15:45:00        2.189      218.991      -25.578       68.790       55.806       34.966     4732.086     3114.316     1222.602        2.884        0.453      219.002       29.454        0.018      340.933       15.293      868.302
12/05/2021  15:46:00       12.849      179.526      -16.735       52.102       48.889       25.824     2714.632     2390.139      666.890        1.922        0.289      179.985       19.663        0.012      340.921       15.275      868.314
12/05/2021  15:47:00      -14.895      143.575      -13.519       63.606       46.982       26.513     4045.662     2207.271      702.930        1.399        0.348      144.346       18.958        0.017      340.959       15.340      868.323
12/05/2021  15:48:00      -55.458      114.107       -8.360       91.405       90.013       49.630     8354.874     8102.343     2463.088        1.754        0.946      126.870       27.959        0.049      340.951       15.325      868.322
12/05/2021  15:49:00       -6.037      170.477      -10.814       40.734       74.940       38.534     1659.280     5616.048     1484.869        1.899        0.438      170.583       37.692        0.049      340.956       15.333      868.338
12/05/2021  15:50:00       71.556      262.910      -21.501       73.553       99.492       45.094     5410.096     9898.618     2033.453        4.602        0.867      272.474       53.192        0.038      340.884       15.209      868.351
12/05/2021  15:51:00       34.706      231.214      -23.227       66.500       46.967       32.310     4422.308     2205.917     1043.962        3.144        0.384      233.804       28.152        0.014      340.910       15.253      868.375
12/05/2021  15:52:00       98.593      245.848      -33.775       68.348       79.266       31.804     4671.403     6283.099     1011.471        4.163        0.598      264.881       31.480        0.014      340.867       15.181      868.398
12/05/2021  15:53:00       88.521      279.783      -30.674       71.542       64.696       39.354     5118.205     4185.614     1548.744        4.895        0.543      293.453       42.286        0.021      340.856       15.160      868.414
12/05/2021  15:54:00       51.022      237.847      -19.771       71.658       72.716       41.308     5134.884     5287.686     1706.324        3.584        0.606      243.258       41.794        0.030      340.827       15.113      868.429
12/05/2021  15:55:00       85.734      243.128      -42.900       77.394       81.674       36.704     5989.809     6670.692     1347.216        4.115        0.700      257.802       35.009        0.018      340.823       15.107      868.443
12/05/2021  15:56:00      106.472      257.858      -33.459       68.360       72.598       42.623     4673.075     5270.511     1816.739        4.535        0.588      278.975       40.230        0.021      340.843       15.141      868.462
12/05/2021  15:57:00       60.586      242.396      -20.112       65.647       73.201       31.976     4309.464     5358.403     1022.457        3.676        0.535      249.853       38.481        0.024      340.847       15.147      868.491
12/05/2021  15:58:00       82.815      169.926      -25.627       44.490       52.944       25.717     1979.353     2803.078      661.361        2.092        0.272      189.032       25.176        0.018      340.818       15.100      868.506
12/05/2021  15:59:00       92.699       87.042      -19.334       43.026       53.805       28.024     1851.215     2894.937      785.332        1.104        0.277      127.159       27.079        0.045      340.745       14.979      868.508
12/05/2021  16:00:00      131.973       96.965      -27.031       89.574       59.727       48.459     8023.477     3567.342     2348.264        2.074        0.697      163.765       30.567        0.035      340.746       14.979      868.495
12/05/2021  16:01:00       74.333      134.580      -21.780       61.927       60.673       42.095     3834.937     3681.205     1771.976        1.670        0.464      153.744       34.751        0.051      340.706       14.911      868.494
12/05/2021  16:02:00       70.865      127.168      -25.724       53.067       41.010       35.497     2816.103     1681.823     1260.069        1.381        0.288      145.580       25.513        0.031      340.711       14.920      868.495
12/05/2021  16:03:00       67.252      121.300       -8.214       45.480       52.546       39.419     2068.428     2761.100     1553.894        1.284        0.319      138.696       25.956        0.035      340.701       14.904      868.506
12/05/2021  16:04:00      110.318      144.573      -31.174       56.524       56.180       40.451     3194.945     3156.206     1636.258        2.101        0.399      181.855       29.528        0.026      340.718       14.932      868.507
12/05/2021  16:05:00       54.975      190.840      -15.878       42.037       29.120       24.398     1767.092      847.956      595.281        2.145        0.161      198.601       23.119        0.014      340.826       15.111      868.507
12/05/2021  16:06:00       -4.554      146.520      -14.794       36.121       36.282       19.536     1304.692     1316.388      381.640        1.235        0.150      146.591       14.428        0.010      340.751       14.989      868.515
12/05/2021  16:07:00        5.364      133.767      -19.409       44.595       40.070       21.281     1988.741     1605.579      452.876        1.117        0.202      133.875       11.113        0.007      340.758       15.001      868.529
12/05/2021  16:08:00      -10.869      114.012      -15.093       43.690       28.211       18.945     1908.840      795.865      358.923        0.820        0.153      114.529       16.898        0.022      340.781       15.040      868.526
12/05/2021  16:09:00       -1.550       88.394       -5.663       34.702       40.433       20.739     1204.259     1634.866      430.114        0.556        0.163       88.407       19.360        0.048      340.786       15.047      868.523
12/05/2021  16:10:00       -2.066      142.990      -19.961       64.634       72.143       39.514     4177.600     5204.547     1561.355        1.589        0.547      143.005       34.110        0.057      340.739       14.966      868.532
12/05/2021  16:11:00       29.232      194.174      -32.910       49.695       47.317       26.316     2469.582     2238.862      692.550        2.252        0.270      196.362       17.813        0.008      340.704       14.909      868.538
12/05/2021  16:12:00      -30.130      116.595      -16.315       41.399       35.800       25.727     1713.904     1281.663      661.884        0.921        0.183      120.425       18.373        0.023      340.734       14.959      868.559
12/05/2021  16:13:00      -18.312      116.005       -2.412       46.963       50.176       31.849     2205.529     2517.628     1014.376        0.977        0.287      117.441       30.797        0.069      340.703       14.906      868.578
12/05/2021  16:14:00       15.677       75.364       -2.939       45.718       25.659       28.034     2090.090      658.400      785.908        0.473        0.177       76.977       27.093        0.124      340.672       14.853      868.596
12/05/2021  16:15:00      -22.535       95.995      -15.908       25.429       31.362       21.361      646.613      983.547      456.303        0.603        0.104       98.604       16.498        0.028      340.690       14.886      868.601
12/05/2021  16:16:00      -30.233       65.807      -14.798       34.867       31.653       20.692     1215.680     1001.941      428.151        0.405        0.132       72.419       14.797        0.042      340.644       14.808      868.611
12/05/2021  16:17:00      -27.252      111.527      -16.875       23.348       30.692       24.651      545.145      941.990      607.668        0.778        0.105      114.808        9.495        0.007      340.717       14.931      868.618
12/05/2021  16:18:00       -7.145       93.594      -10.130       37.248       34.584       21.805     1387.423     1196.061      475.472        0.599        0.153       93.867       16.097        0.029      340.587       14.711      868.636
12/05/2021  16:19:00      -17.727      129.006      -20.745       24.024       26.433       16.675      577.149      698.705      278.046        0.947        0.078      130.218       10.513        0.007      340.648       14.813      868.644
12/05/2021  16:20:00      -23.692      136.895      -15.644       33.387       51.548       23.963     1114.690     2657.187      574.220        1.195        0.217      138.931       12.173        0.008      340.612       14.752      868.656
12/05/2021  16:21:00        8.965      194.684      -20.963       73.352       66.495       31.422     5380.546     4421.552      987.349        2.460        0.539      194.890       30.305        0.024      340.586       14.707      868.657
12/05/2021  16:22:00        4.727      176.723      -18.296       46.714       38.652       28.444     2182.166     1493.970      809.061        1.804        0.224      176.786       22.075        0.016      340.495       14.554      868.653
12/05/2021  16:23:00       -8.487      199.468      -23.046       37.505       39.882       26.577     1406.635     1590.565      706.346        2.205        0.185      199.648       20.207        0.010      340.494       14.551      868.643
12/05/2021  16:24:00      -21.908      152.380      -14.479       39.447       34.704       30.766     1556.064     1204.379      946.518        1.381        0.185      153.947       20.010        0.017      340.531       14.614      868.631
12/05/2021  16:25:00      -29.081      121.111       -7.734       31.679       42.557       20.445     1003.537     1811.060      417.998        0.940        0.162      124.554       22.548        0.033      340.472       14.517      868.622
12/05/2021  16:26:00      -32.016      111.891       -9.167       28.870       42.923       27.010      833.470     1842.356      729.556        0.852        0.170      116.381       14.103        0.015      340.488       14.543      868.620
12/05/2021  16:27:00      -22.571      187.797      -21.671       41.753       60.667       27.201     1743.335     3680.512      739.888        2.120        0.308      189.149       25.219        0.018      340.437       14.453      868.611
12/05/2021  16:28:00      -32.460      109.485      -17.192       54.932       46.866       36.454     3017.577     2196.442     1328.885        0.994        0.327      114.195       22.734        0.040      340.384       14.367      868.605
12/05/2021  16:29:00      -48.657      121.201      -11.149       39.262       41.949       22.150     1541.524     1759.717      490.633        1.049        0.190      130.603        8.824        0.005      340.462       14.498      868.588
12/05/2021  16:30:00      -46.052      123.188      -16.825       27.720       38.600       24.012      768.374     1489.977      576.592        1.021        0.142      131.515       12.441        0.009      340.430       14.446      868.578
12/05/2021  16:31:00      -41.695      115.440       -2.132       22.728       30.083       20.962      516.569      905.003      439.416        0.846        0.093      122.739       13.908        0.013      340.385       14.368      868.584
12/05/2021  16:32:00      -58.730      149.605      -11.214       31.424       37.641       23.606      987.484     1416.870      557.252        1.446        0.148      160.720       15.490        0.009      340.308       14.237      868.579
12/05/2021  16:33:00      -46.813      175.877      -16.080       36.008       66.518       28.324     1296.605     4424.583      802.229        1.995        0.326      182.000       12.351        0.005      340.285       14.198      868.574
12/05/2021  16:34:00      -71.527      218.097      -24.554       39.208       60.465       25.999     1537.259     3656.018      675.933        2.958        0.293      229.526        6.036        0.001      340.199       14.049      868.571
12/05/2021  16:35:00      -71.750      141.609       -8.623       45.162       57.925       36.276     2039.585     3355.350     1315.929        1.599        0.336      158.749       23.802        0.022      340.312       14.244      868.578
12/05/2021  16:36:00      -36.367      230.871      -19.370       29.275       43.882       31.015      857.030     1925.655      961.954        2.937        0.187      233.717       17.939        0.006      340.115       13.909      868.584
12/05/2021  16:37:00      -41.806      179.215      -10.920       42.834       53.839       29.703     1834.748     2898.597      882.264        1.980        0.281      184.027       14.647        0.006      340.141       13.954      868.589
12/05/2021  16:38:00      -64.050      195.272      -10.992       56.841       67.620       33.627     3230.860     4572.488     1130.807        2.564        0.447      205.508       27.249        0.018      340.122       13.922      868.592
12/05/2021  16:39:00      -64.552      200.114      -15.743       58.159       47.596       27.563     3382.475     2265.419      759.696        2.543        0.320      210.268       23.149        0.012      340.151       13.972      868.587
12/05/2021  16:40:00      -61.605      184.242      -14.900       60.658       47.421       28.397     3679.365     2248.719      806.389        2.235        0.337      194.269       17.743        0.008      340.118       13.915      868.572
12/05/2021  16:41:00      -43.325      159.669      -10.903       48.067       41.317       26.845     2310.464     1707.069      720.650        1.611        0.237      165.443       15.954        0.009      340.145       13.962      868.574
12/05/2021  16:42:00      -49.762      178.628      -24.307       41.286       40.793       28.854     1704.497     1664.028      832.554        1.959        0.210      185.430       14.330        0.006      340.165       13.996      868.570
12/05/2021  16:43:00      -41.765      159.669      -14.121       40.230       61.046       22.824     1618.485     3726.604      520.949        1.665        0.293      165.041       10.845        0.004      340.118       13.917      868.585
12/05/2021  16:44:00      -63.116      185.226      -17.844       33.107       42.570       25.922     1096.043     1812.202      671.944        2.109        0.179      195.685       12.202        0.004      340.122       13.923      868.607
12/05/2021  16:45:00      -57.270      192.162      -13.042       44.315       58.888       34.050     1963.812     3467.761     1159.423        2.348        0.330      200.514       25.387        0.016      340.154       13.977      868.630
12/05/2021  16:46:00      -58.006      206.593      -16.392       42.031       47.645       23.546     1766.637     2270.027      554.433        2.545        0.230      214.582       12.088        0.003      340.077       13.845      868.652
12/05/2021  16:47:00      -35.231      187.917      -12.262       35.114       39.162       28.933     1233.015     1533.688      837.092        2.015        0.180      191.191       15.035        0.006      340.021       13.752      868.662
12/05/2021  16:48:00      -58.098      139.808      -12.021       52.097       67.525       35.662     2714.117     4559.563     1271.785        1.580        0.427      151.399       27.807        0.034      340.082       13.857      868.658
12/05/2021  16:49:00      -46.263      121.381       -8.097       39.744       56.461       28.572     1579.615     3187.793      816.364        1.126        0.279      129.899       22.764        0.031      339.999       13.717      868.656
12/05/2021  16:50:00      -64.070      100.399      -13.579       39.697       65.101       31.751     1575.824     4238.107     1008.100        1.059        0.341      119.100       18.687        0.025      339.993       13.706      868.652
12/05/2021  16:51:00      -47.399      148.141      -11.887       37.326       53.419       27.279     1393.248     2853.630      744.156        1.466        0.250      155.539       24.770        0.025      339.964       13.656      868.650
12/05/2021  16:52:00      -55.974      127.431       -8.806       42.752       79.262       33.788     1827.762     6282.522     1141.649        1.435        0.463      139.182       20.341        0.021      339.949       13.632      868.653
12/05/2021  16:53:00      -49.546      175.382      -16.617       49.978       62.188       40.786     2497.753     3867.314     1663.499        2.076        0.401      182.246       26.979        0.022      339.936       13.609      868.650
12/05/2021  16:54:00      -64.862      171.042      -13.270       44.483       56.900       36.683     1978.711     3237.639     1345.676        2.010        0.328      182.927       24.314        0.018      339.973       13.670      868.645
12/05/2021  16:55:00      -32.127      227.767      -27.475       45.875       64.245       32.963     2104.494     4127.360     1086.545        3.049        0.366      230.022       22.838        0.010      339.866       13.490      868.647
12/05/2021  16:56:00      -44.714      228.042      -18.624       44.125       66.732       30.749     1946.992     4453.214      945.497        3.085        0.367      232.385       26.544        0.013      339.884       13.520      868.645
12/05/2021  16:57:00      -38.544      181.237      -21.059       52.744       49.819       21.414     2781.946     2481.918      458.568        2.025        0.286      185.290       19.191        0.011      339.815       13.405      868.648
12/05/2021  16:58:00      -26.860      175.709      -13.980       34.274       34.958       22.589     1174.693     1222.049      510.252        1.735        0.145      177.751       13.846        0.006      339.803       13.388      868.646
12/05/2021  16:59:00      -34.487      164.987      -18.100       35.570       41.035       27.019     1265.211     1683.906      730.046        1.621        0.184      168.553       11.044        0.004      339.870       13.499      868.642
12/05/2021  17:00:00      -44.805      171.025      -14.635       45.528       48.087       33.804     2072.797     2312.347     1142.681        1.850        0.276      176.796       26.377        0.022      339.805       13.389      868.630
12/05/2021  17:01:00      -33.637      191.453      -15.088       37.615       51.638       20.918     1414.856     2666.436      437.561        2.127        0.226      194.385       18.186        0.009      339.774       13.337      868.620
12/05/2021  17:02:00      -24.422      191.885      -18.194       35.436       61.014       33.134     1255.738     3722.664     1097.891        2.191        0.304      193.433       25.069        0.017      339.775       13.338      868.622
12/05/2021  17:03:00      -14.789      169.627      -17.830       55.298       54.459       25.688     3057.876     2965.827      659.860        1.800        0.334      170.270       20.868        0.015      339.743       13.285      868.634
12/05/2021  17:04:00      -13.041      214.811      -24.434       31.221       49.332       25.780      974.748     2433.693      664.601        2.549        0.204      215.206       17.984        0.007      339.686       13.187      868.640
12/05/2021  17:05:00      -42.388      242.694      -16.915       59.575       60.498       37.212     3549.164     3660.019     1384.704        3.479        0.430      246.368       36.063        0.021      339.668       13.156      868.640
12/05/2021  17:06:00      -32.486      243.375      -19.264       50.168       69.725       29.910     2516.828     4861.603      894.600        3.446        0.414      245.534       25.027        0.010      339.645       13.117      868.633
12/05/2021  17:07:00        4.319      231.868      -19.449       52.476       70.658       36.402     2753.697     4992.551     1325.086        3.161        0.454      231.908       36.594        0.025      339.599       13.038      868.628
12/05/2021  17:08:00      -15.227      195.732      -13.681       54.257       55.389       27.831     2943.779     3067.933      774.540        2.276        0.339      196.323       18.583        0.009      339.549       12.957      868.621
12/05/2021  17:09:00       -5.561      244.556      -28.897       42.509       62.874       34.265     1807.056     3953.125     1174.102        3.380        0.347      244.619       30.413        0.015      339.538       12.937      868.613
12/05/2021  17:10:00      -49.600      203.318      -19.844       60.226       72.961       33.627     3627.148     5323.290     1130.760        2.713        0.504      209.281       12.489        0.004      339.579       13.006      868.594
12/05/2021  17:11:00      -46.476      253.162      -23.091       68.081       70.756       32.357     4635.011     5006.342     1047.000        3.873        0.534      257.393       20.405        0.006      339.559       12.972      868.587
12/05/2021  17:12:00      -77.430      210.512      -20.600       55.807       55.299       29.127     3114.452     3057.959      848.385        2.888        0.351      224.301       15.875        0.005      339.642       13.111      868.589
12/05/2021  17:13:00      -48.905      111.385      -10.263       46.798       58.612       32.989     2190.049     3435.328     1088.283        1.081        0.336      121.648       21.003        0.030      339.578       13.007      868.606
12/05/2021  17:14:00      -77.442       88.187      -20.915       55.475       51.909       48.121     3077.473     2694.587     2315.601        1.115        0.404      117.364       35.510        0.092      339.582       13.014      868.629
12/05/2021  17:15:00      -43.712       53.162       -5.345       55.833       48.454       38.457     3117.352     2347.838     1478.931        0.585        0.347       68.826       27.023        0.154      339.460       12.806      868.640
12/05/2021  17:16:00      -61.359       46.585       -8.961       81.748       47.143       50.495     6682.745     2222.493     2549.774        0.873        0.573       77.040       44.763        0.338      339.426       12.751      868.637
12/05/2021  17:17:00      -96.817      129.243      -23.893       86.972       47.153       33.928     7564.113     2223.417     1151.103        1.879        0.547      161.484       35.629        0.049      339.403       12.711      868.634
12/05/2021  17:18:00      -48.475      142.390      -17.588       51.939       43.283       30.202     2697.622     1873.445      912.132        1.421        0.274      150.415       18.909        0.016      339.380       12.673      868.631
12/05/2021  17:19:00      -80.484      128.659       -8.887       57.831       54.820       34.540     3344.414     3005.260     1192.993        1.532        0.377      151.759       25.857        0.029      339.325       12.580      868.645
12/05/2021  17:20:00      -67.059       74.307      -15.305       38.226       45.879       27.924     1461.214     2104.914      779.750        0.730        0.217      100.092       20.082        0.040      339.352       12.626      868.646
12/05/2021  17:21:00      -96.968       59.548      -31.390       65.411       45.324       33.810     4278.558     2054.245     1143.139        1.070        0.374      113.792       31.163        0.075      339.244       12.443      868.650
12/05/2021  17:22:00      -50.564      109.473      -18.935       74.707       51.213       28.302     5581.121     2622.786      801.020        1.195        0.450      120.586       10.413        0.007      339.366       12.650      868.663
12/05/2021  17:23:00      -90.473       55.352      -20.678       61.111       65.375       35.377     3734.601     4273.848     1251.558        1.047        0.463      106.062       22.620        0.045      339.344       12.612      868.670
12/05/2021  17:24:00     -104.809       32.739      -16.979       63.180       52.359       44.521     3991.650     2741.509     1982.081        1.053        0.436      109.803       34.692        0.100      339.215       12.396      868.676
12/05/2021  17:25:00     -106.791       62.700       -9.046       65.418       44.537       36.072     4279.570     1983.570     1301.175        1.149        0.378      123.837       22.258        0.032      339.157       12.297      868.677
12/05/2021  17:26:00      -64.799       87.069       -9.647       51.714       75.788       40.199     2674.289     5743.840     1615.922        1.095        0.502      108.535       30.877        0.081      339.222       12.406      868.674
12/05/2021  17:27:00      -33.801       31.445       -0.178       43.244       44.804       31.461     1870.021     2007.439      989.785        0.350        0.243       46.166       16.170        0.123      339.153       12.291      868.657
12/05/2021  17:28:00      -55.077      115.782      -20.537       36.121       62.476       38.702     1304.698     3903.220     1497.882        1.178        0.335      128.215       14.566        0.013      339.360       12.639      868.638
12/05/2021  17:29:00      -47.505       66.041       -5.860       56.986       50.565       37.449     3247.364     2556.797     1402.418        0.693        0.360       81.352       24.034        0.087      339.319       12.570      868.632
12/05/2021  17:30:00      -46.455       16.287       -6.542       34.836       28.022       25.919     1213.541      785.247      671.783        0.257        0.134       49.228       14.960        0.092      339.087       12.180      868.608
12/05/2021  17:31:00       -9.386       74.863        0.359       38.165       48.255       24.259     1456.559     2328.564      588.520        0.503        0.219       75.449       11.507        0.023      339.121       12.238      868.607
12/05/2021  17:32:00      -17.705      139.605      -17.383       30.095       30.988       22.868      905.682      960.261      522.957        1.125        0.119      140.723       14.497        0.011      339.180       12.336      868.601
12/05/2021  17:33:00      -56.333       77.531       -5.849       35.428       40.320       30.302     1255.150     1625.677      918.241        0.651        0.190       95.836       19.182        0.040      339.228       12.416      868.592
12/05/2021  17:34:00      -63.600      106.110      -14.699       31.333       51.085       23.281      981.743     2609.662      542.000        0.983        0.207      123.710       13.948        0.013      339.266       12.481      868.572
12/05/2021  17:35:00      -65.234      128.433      -13.471       27.331       45.101       31.511      746.999     2034.118      992.944        1.235        0.189      144.050       19.349        0.018      339.244       12.443      868.544
12/05/2021  17:36:00      -56.416       87.185       -4.735       43.706       60.854       27.295     1910.191     3703.179      744.993        0.858        0.318      103.846       17.319        0.028      339.137       12.264      868.533
12/05/2021  17:37:00      -73.132       68.667       -6.604       34.534       42.891       31.453     1192.599     1839.599      989.279        0.706        0.201      100.317       25.169        0.063      339.148       12.283      868.534
12/05/2021  17:38:00      -53.324       58.109      -10.202       42.488       35.136       32.226     1805.206     1234.571     1038.534        0.520        0.204       78.868       25.279        0.103      339.176       12.329      868.528
12/05/2021  17:39:00      -99.689       49.578      -16.052       39.426       41.118       36.298     1554.375     1690.673     1317.568        0.861        0.228      111.337       24.456        0.048      338.946       11.944      868.519
12/05/2021  17:40:00      -72.632       91.613      -16.248       38.194       57.133       26.442     1458.801     3264.158      699.186        0.968        0.271      116.912       17.917        0.023      339.011       12.052      868.522
12/05/2021  17:41:00      -48.423       25.358      -14.102       47.388       40.466       33.256     2245.577     1637.518     1105.932        0.409        0.249       54.661       11.657        0.045      338.913       11.888      868.524
12/05/2021  17:42:00      -48.413       52.619       -8.921       37.490       40.916       28.674     1405.497     1674.153      822.177        0.455        0.195       71.502       15.329        0.046      338.878       11.829      868.532
12/05/2021  17:43:00      -77.016       84.594       -4.832       54.498       62.793       34.708     2970.083     3942.908     1204.646        1.061        0.406      114.401       25.899        0.051      339.066       12.143      868.537
12/05/2021  17:44:00      -94.934      125.430      -22.342       55.178       86.996       45.780     3044.570     7568.380     2095.775        1.897        0.635      157.305       44.158        0.079      339.228       12.417      868.543
12/05/2021  17:45:00      -91.075      125.476      -11.700       45.667       67.106       34.962     2085.466     4503.232     1222.319        1.599        0.391      155.045       31.227        0.041      339.231       12.421      868.542
12/05/2021  17:46:00     -110.952       85.557      -16.970       60.830       73.383       51.673     3700.292     5385.029     2670.138        1.583        0.588      140.109       37.073        0.070      339.148       12.281      868.542
12/05/2021  17:47:00      -77.736       75.273      -11.987       50.429       44.278       37.825     2543.059     1960.583     1430.716        0.889        0.297      108.208       24.665        0.052      339.275       12.495      868.538
12/05/2021  17:48:00     -110.730       98.699      -19.134       43.604       50.754       35.539     1901.329     2575.962     1263.029        1.405        0.287      148.333       23.086        0.024      339.215       12.395      868.534
12/05/2021  17:49:00      -80.633      101.810      -11.566       47.652       51.180       39.137     2270.732     2619.376     1531.722        1.171        0.321      129.873       25.951        0.040      339.187       12.348      868.534
12/05/2021  17:50:00     -111.316      136.890      -20.809       39.626       51.540       41.198     1570.209     2656.416     1697.248        1.874        0.296      176.437       25.348        0.021      339.121       12.236      868.536
12/05/2021  17:51:00      -84.620       56.512       -4.803       47.201       56.239       37.639     2227.976     3162.770     1416.705        0.859        0.340      101.756       26.987        0.070      339.155       12.294      868.530
12/05/2021  17:52:00      -83.796       43.070      -23.260       50.576       37.815       30.969     2557.884     1429.993      959.048        0.718        0.247       94.217       22.731        0.058      338.954       11.956      868.534
12/05/2021  17:53:00      -53.890       84.350       -9.520       51.398       54.666       41.979     2641.708     2988.369     1762.265        0.875        0.370      100.096       17.617        0.031      339.112       12.222      868.550
12/05/2021  17:54:00      -33.152       19.197      -13.288       37.796       38.481       22.322     1428.561     1480.763      498.257        0.253        0.170       38.309       10.897        0.081      338.775       11.657      868.572
12/05/2021  17:55:00      -33.182       34.503       -7.938       46.234       47.514       25.199     2137.570     2257.592      634.972        0.369        0.252       47.870       14.416        0.091      338.892       11.852      868.601
12/05/2021  17:56:00      -70.451       17.217      -13.418       65.514       48.637       27.489     4292.069     2365.526      755.629        0.643        0.371       72.524       30.375        0.175      338.864       11.804      868.600
12/05/2021  17:57:00      -32.382       53.649      -16.697       33.111       42.806       25.968     1096.356     1832.338      674.345        0.390        0.180       62.664       20.044        0.102      338.903       11.871      868.593
12/05/2021  17:58:00      -12.646       99.437      -14.156       30.582       35.036       23.297      935.254     1227.490      542.769        0.648        0.135      100.238       14.037        0.020      339.107       12.213      868.592
12/05/2021  17:59:00       17.782        3.536       -9.584       17.528       26.809       18.250      307.226      718.735      333.074        0.089        0.068       18.130       17.557        0.938      338.929       11.914      868.590
12/05/2021  18:00:00       -0.041      -10.298       -3.330        7.438       19.633        9.629       55.321      385.443       92.714        0.033        0.027       10.299        9.574        0.864      338.714       11.555      868.592
12/05/2021  18:01:00      -20.335      -31.966      -14.155       14.411       13.726        8.784      207.688      188.407       77.163        0.105        0.024       37.886        4.656        0.015      338.584       11.335      868.597
12/05/2021  18:02:00       -8.862      -30.508       -8.433        7.722        6.964        7.355       59.633       48.496       54.098        0.062        0.008       31.769        3.095        0.009      338.614       11.386      868.601
12/05/2021  18:03:00        2.900      -34.119      -10.808       19.692       13.754       10.826      387.774      189.180      117.202        0.099        0.035       34.242        3.901        0.013      338.837       11.760      868.596
12/05/2021  18:04:00      -27.731      -25.944       -8.380       25.187       26.218       18.143      634.376      687.402      329.171        0.158        0.083       37.975       12.121        0.102      338.686       11.505      868.606
12/05/2021  18:05:00      -11.716      -15.063       -4.348       31.578       28.525       14.928      997.192      813.661      222.832        0.121        0.102       19.083        7.167        0.141      338.700       11.531      868.616
12/05/2021  18:06:00       -4.423       -8.599       -3.401       26.227       22.074       21.516      687.831      487.255      462.919        0.087        0.082        9.670       13.683        2.002      338.532       11.249      868.624
12/05/2021  18:07:00        2.017      -26.147      -15.836       21.168       20.372       13.747      448.087      415.010      188.969        0.100        0.053       26.225        8.908        0.115      338.466       11.139      868.624
12/05/2021  18:08:00      -42.789       -2.688      -14.533       37.442       25.805       20.162     1401.902      665.891      406.493        0.226        0.124       42.873       14.723        0.118      338.357       10.954      868.619
12/05/2021  18:09:00      -27.169      -17.850      -12.813       35.818       21.849       16.435     1282.953      477.383      270.103        0.163        0.102       32.508       13.800        0.180      338.310       10.873      868.617
12/05/2021  18:10:00      -73.105      -22.139       -6.045       35.638       27.944       27.613     1270.081      780.871      762.455        0.434        0.141       76.383       18.114        0.056      338.461       11.130      868.617
12/05/2021  18:11:00      -15.175      -29.517      -10.546       40.500       25.312       17.224     1640.259      640.695      296.668        0.189        0.129       33.190       10.308        0.096      338.405       11.035      868.624
12/05/2021  18:12:00       33.942      -59.221      -16.299       44.088       45.083       16.589     1943.747     2032.445      275.194        0.459        0.213       68.258       14.504        0.045      338.679       11.494      868.628
12/05/2021  18:13:00       74.424     -122.482      -29.097       37.152       42.817       23.970     1380.252     1833.298      574.575        1.259        0.189      143.320       22.619        0.025      338.851       11.782      868.618
12/05/2021  18:14:00       49.773      -97.113      -22.806       39.733       48.584       29.560     1578.727     2360.368      873.810        0.862        0.241      109.125       25.409        0.054      338.726       11.573      868.615
12/05/2021  18:15:00      -13.853      -18.152       -6.924       33.138       27.180       21.144     1098.121      738.739      447.069        0.143        0.114       22.835       18.151        0.632      338.613       11.382      868.616
12/05/2021  18:16:00      -42.243       -7.998       -6.283       17.505       13.532       15.327      306.420      183.109      234.908        0.131        0.036       42.994        7.354        0.029      338.589       11.344      868.619
12/05/2021  18:17:00      -23.027        7.326       -0.335        7.932        8.895        5.469       62.914       79.117       29.910        0.038        0.009       24.164        5.082        0.044      338.568       11.306      868.607
12/05/2021  18:18:00      -11.675        8.027       -3.495        7.845       14.250        8.865       61.539      203.058       78.586        0.028        0.017       14.168        5.598        0.156      338.539       11.259      868.589
12/05/2021  18:19:00      -18.706       -0.802      -11.062        7.169        6.836        7.474       51.389       46.728       55.854        0.031        0.008       18.723        3.846        0.042      338.508       11.207      868.560
12/05/2021  18:20:00      -15.130        4.833       -9.011        8.531        5.951        6.671       72.786       35.418       44.507        0.024        0.008       15.883        5.771        0.132      338.576       11.322      868.536
12/05/2021  18:21:00      -12.700        3.887       -5.282        9.005        8.021        5.659       81.084       64.331       32.026        0.019        0.009       13.282        3.801        0.082      338.774       11.654      868.517
12/05/2021  18:22:00      -23.721       -6.026      -10.447       16.865        8.957        8.227      284.416       80.232       67.686        0.057        0.022       24.475        8.770        0.128      338.687       11.508      868.517
12/05/2021  18:23:00      -76.235      -42.757       -3.406       54.263       50.064       24.261     2944.517     2506.437      588.600        0.684        0.302       87.407       28.922        0.109      338.522       11.229      868.527
12/05/2021  18:24:00      -99.303      -57.120      -23.355       38.105       45.406       31.210     1452.012     2061.732      974.094        0.908        0.224      114.559       19.555        0.029      338.507       11.206      868.548
12/05/2021  18:25:00      -49.686      -17.357       -8.613       27.756       57.147       21.952      770.385     3265.814      481.893        0.368        0.226       52.631       19.075        0.131      338.461       11.129      868.574
12/05/2021  18:26:00      -15.702      -34.538      -12.345       27.986       27.164       22.700      783.215      737.884      515.293        0.181        0.102       37.940       14.589        0.148      338.378       10.989      868.587
12/05/2021  18:27:00     -128.277      -29.964      -12.410       58.621       57.671       29.120     3436.408     3325.987      847.998        1.256        0.381      131.731       27.226        0.043      338.148       10.603      868.591
12/05/2021  18:28:00     -141.562      -63.172      -18.597       42.782       45.931       30.880     1830.340     2109.615      953.550        1.463        0.245      155.017       24.304        0.025      338.046       10.431      868.602
12/05/2021  18:29:00     -135.560      -61.933      -20.236       33.808       45.529       29.999     1142.990     2072.932      899.929        1.337        0.206      149.037       24.060        0.026      338.010       10.372      868.607
12/05/2021  18:30:00     -159.131      -25.613      -23.124       35.059       40.013       26.561     1229.159     1601.048      705.494        1.502        0.177      161.179       19.277        0.014      338.029       10.404      868.612
12/05/2021  18:31:00      -95.271       -9.348       -3.088       52.292       32.836       31.094     2734.452     1078.195      966.823        0.698        0.239       95.729       31.419        0.108      337.972       10.307      868.623
12/05/2021  18:32:00     -134.179      -13.542       -6.021       55.100       33.595       29.988     3036.005     1128.605      899.275        1.164        0.253      134.861       24.431        0.033      337.886       10.162      868.630
12/05/2021  18:33:00     -129.857      -13.110      -16.821       62.653       47.911       34.826     3925.369     2295.453     1212.820        1.237        0.372      130.517       22.412        0.029      337.848       10.099      868.635
12/05/2021  18:34:00     -147.583       -6.269       -9.788       59.020       46.645       34.609     3483.303     2175.747     1197.817        1.439        0.343      147.717       30.661        0.043      337.734        9.907      868.659
12/05/2021  18:35:00      -43.969       -1.144      -13.373       67.797       33.578       32.391     4596.489     1127.449     1049.197        0.444        0.339       43.984       31.475        0.512      337.695        9.843      868.690
12/05/2021  18:36:00     -103.750       23.711       -4.371       71.958       50.685       31.454     5177.929     2568.950      989.330        1.004        0.437      106.425       31.293        0.086      337.532        9.570      868.703
12/05/2021  18:37:00      -53.145        4.262      -17.106       72.103       36.120       21.355     5198.845     1304.657      456.050        0.505        0.348       53.315       18.861        0.125      337.479        9.480      868.705
12/05/2021  18:38:00     -114.208       26.250      -13.497       49.713       23.818       22.641     2471.347      567.277      512.600        0.873        0.178      117.186       23.164        0.039      337.450        9.431      868.710
12/05/2021  18:39:00      -90.696       25.472       -8.820       56.195       36.191       33.011     3157.858     1309.787     1089.701        0.725        0.278       94.205       31.539        0.112      337.466        9.458      868.719
12/05/2021  18:40:00     -127.273       39.927      -17.155       38.751       28.106       19.195     1501.677      789.953      368.432        1.037        0.133      133.388       14.975        0.013      337.444        9.420      868.734
12/05/2021  18:41:00      -92.843       20.141      -12.575       66.051       35.771       23.267     4362.700     1279.594      541.360        0.768        0.309       95.003       30.366        0.102      337.442        9.417      868.742
12/05/2021  18:42:00      -56.702        8.735      -14.553       61.994       40.928       29.526     3843.260     1675.119      871.782        0.495        0.320       57.371       27.149        0.224      337.337        9.245      868.746
12/05/2021  18:43:00     -153.026       44.488       -8.461       53.344       38.821       28.769     2845.589     1507.047      827.648        1.532        0.259      159.362       22.179        0.019      337.287        9.161      868.734
12/05/2021  18:44:00     -130.996        3.499       -9.469       60.079       39.459       25.661     3609.470     1556.979      658.508        1.154        0.291      131.043       27.264        0.043      337.283        9.154      868.705
12/05/2021  18:45:00      -69.943       12.481       -2.646       47.975       38.391       27.268     2301.587     1473.856      743.530        0.479        0.226       71.048       26.291        0.137      337.260        9.115      868.690
12/05/2021  18:46:00     -111.529       25.203      -11.579       30.546       23.179       23.522      933.083      537.279      553.262        0.762        0.101      114.341       17.967        0.025      337.304        9.189      868.700
12/05/2021  18:47:00     -116.257       16.934      -15.972       39.507       34.711       26.892     1560.837     1204.887      723.162        0.877        0.174      117.483       22.786        0.038      337.280        9.148      868.717
12/05/2021  18:48:00     -135.543       31.875      -17.303       44.301       36.875       27.516     1962.580     1359.777      757.118        1.188        0.204      139.241       19.759        0.020      337.221        9.049      868.740
12/05/2021  18:49:00     -144.097       36.872      -10.484       60.640       48.679       29.951     3677.175     2369.618      897.088        1.459        0.347      148.740       28.093        0.036      337.162        8.951      868.750
12/05/2021  18:50:00      -54.683       12.273        2.072       77.144       38.951       36.109     5951.238     1517.176     1303.849        0.596        0.439       56.043       40.608        0.525      337.070        8.797      868.763
12/05/2021  18:51:00      -60.565        5.246       -2.722       60.005       39.114       34.264     3600.654     1529.934     1174.008        0.500        0.315       60.792       25.648        0.178      337.119        8.876      868.760
12/05/2021  18:52:00      -69.655       -5.582       -6.964       61.470       39.613       25.373     3778.582     1569.214      643.813        0.546        0.300       69.878       22.141        0.100      337.194        9.004      868.760
12/05/2021  18:53:00      -98.018       18.101       -5.165       28.170       23.501       18.889      793.538      552.318      356.777        0.583        0.085       99.675       14.355        0.021      337.342        9.251      868.758
12/05/2021  18:54:00     -121.830       34.066      -12.158       16.163       18.031       15.297      261.235      325.129      233.991        0.849        0.041      126.503        5.763        0.002      337.258        9.110      868.776
12/05/2021  18:55:00     -106.177       24.578      -16.811       16.232       27.081       16.740      263.464      733.359      280.233        0.672        0.064      108.985        6.247        0.003      337.197        9.008      868.787
12/05/2021  18:56:00      -44.291       11.912      -11.593       39.233       28.336       22.368     1539.259      802.935      500.330        0.254        0.142       45.865       13.433        0.086      337.064        8.786      868.791
12/05/2021  18:57:00     -106.507       26.706       -4.177       86.405       30.492       26.905     7465.815      929.774      723.857        1.060        0.456      109.804       33.821        0.095      336.972        8.631      868.785
12/05/2021  18:58:00      -30.969        9.469      -11.770       46.545       30.368       23.362     2166.464      922.242      545.777        0.241        0.182       32.384       13.150        0.165      336.904        8.518      868.775
12/05/2021  18:59:00        4.525        2.790      -12.470       18.599       21.362       19.465      345.925      456.317      378.878        0.068        0.059        5.316       11.158        4.405      336.874        8.467      868.767
12/05/2021  19:00:00       -7.563       -2.675      -11.854       28.642       34.436       20.483      820.337     1185.854      419.556        0.131        0.121        8.022       16.672        4.319      336.823        8.382      868.752
12/05/2021  19:01:00     -126.392       34.840      -17.478       39.168       20.991       18.793     1534.141      440.632      353.180        0.991        0.116      131.106       13.396        0.010      336.820        8.376      868.747
12/05/2021  19:02:00     -147.153       67.809      -24.037       28.292       27.097       19.610      800.411      734.230      384.546        1.437        0.096      162.025       16.496        0.010      336.872        8.464      868.729
12/05/2021  19:03:00     -156.790       81.803       -9.128       39.584       35.178       33.094     1566.922     1237.472     1095.213        1.763        0.195      176.847       27.751        0.025      336.871        8.462      868.703
12/05/2021  19:04:00     -177.575       75.285      -19.145       26.577       21.110       23.956      706.360      445.626      573.884        1.965        0.086      192.875       19.733        0.010      336.703        8.183      868.682
12/05/2021  19:05:00     -123.630       64.933      -11.400       44.056       29.740       31.936     1940.931      884.496     1019.904        1.174        0.192      139.644       24.661        0.031      336.846        8.422      868.654
12/05/2021  19:06:00     -106.953       36.966       -9.311       41.343       30.162       24.483     1709.239      909.738      599.420        0.805        0.161      113.161       20.690        0.033      336.778        8.309      868.635
12/05/2021  19:07:00     -100.493       14.707      -16.352       30.809       25.954       21.388      949.192      673.621      457.451        0.633        0.104      101.563       12.308        0.015      336.756        8.271      868.624
12/05/2021  19:08:00      -51.186       -1.327       -6.874       38.874       27.473       20.400     1511.214      754.758      416.162        0.268        0.134       51.203       14.300        0.078      336.838        8.407      868.610
12/05/2021  19:09:00      -89.326      -13.394       -6.295       35.329       24.570       23.160     1248.154      603.703      536.365        0.529        0.119       90.324       19.309        0.046      336.967        8.625      868.599
12/05/2021  19:10:00      -41.016        2.987       -4.211       42.207       27.970       19.472     1781.450      782.332      379.152        0.233        0.147       41.125       12.958        0.099      336.975        8.636      868.594
12/05/2021  19:11:00     -129.494      -15.106       -5.231      103.385       48.569       37.705    10688.433     2358.948     1421.630        1.574        0.723      130.372       40.139        0.095      336.858        8.440      868.582
12/05/2021  19:12:00     -173.132      -21.727      -17.550       70.036       39.650       35.203     4905.068     1572.117     1239.269        1.923        0.386      174.490       35.205        0.041      336.722        8.212      868.559
12/05/2021  19:13:00      -86.537        8.542        0.192       51.514       38.068       27.329     2653.647     1449.169      746.896        0.620        0.242       86.958       25.428        0.086      336.833        8.400      868.534
12/05/2021  19:14:00     -106.447       33.857       -8.209       54.952       37.682       23.579     3019.730     1419.924      555.956        0.877        0.250      111.702       13.649        0.015      336.854        8.435      868.509
12/05/2021  19:15:00     -107.947       -2.158      -11.873       45.131       40.176       28.269     2036.849     1614.075      799.131        0.812        0.223      107.969       18.929        0.031      336.818        8.375      868.510
12/05/2021  19:16:00     -110.527       13.017      -11.576       43.881       39.575       30.590     1925.584     1566.172      935.766        0.847        0.221      111.291       24.368        0.048      336.788        8.326      868.510
12/05/2021  19:17:00     -139.829       30.526       -8.685       59.910       56.182       31.482     3589.172     3156.383      991.125        1.415        0.387      143.122       19.396        0.018      336.843        8.416      868.509
12/05/2021  19:18:00     -145.853       22.333      -11.490       42.873       37.506       31.701     1838.058     1406.715     1004.926        1.308        0.212      147.553       26.051        0.031      336.720        8.211      868.512
12/05/2021  19:19:00     -132.911       25.651      -11.272       39.244       37.100       24.415     1540.067     1376.442      596.086        1.098        0.176      135.364       14.513        0.011      336.615        8.037      868.504
12/05/2021  19:20:00     -153.155       54.508      -11.662       42.594       24.813       25.453     1814.291      615.679      647.833        1.482        0.154      162.566       20.909        0.017      336.581        7.979      868.496
12/05/2021  19:21:00      -49.706       -5.674       -4.380       81.471       33.228       36.063     6637.603     1104.084     1300.532        0.578        0.452       50.028       37.911        0.574      336.565        7.952      868.492
12/05/2021  19:22:00     -123.003       33.609      -18.841       73.051       33.794       32.027     5336.388     1142.026     1025.711        1.206        0.375      127.512       28.831        0.051      336.401        7.677      868.506
12/05/2021  19:23:00     -123.164       31.838      -19.478       83.460       33.704       25.964     6965.523     1135.974      674.150        1.267        0.439      127.212       21.828        0.029      336.358        7.605      868.518
12/05/2021  19:24:00     -120.127       38.635      -27.142       48.560       25.183       26.325     2358.099      634.179      693.018        1.017        0.184      126.187       25.569        0.041      336.587        7.988      868.527
12/05/2021  19:25:00      -60.906       29.632      -26.526       44.511       46.369       24.003     1981.195     2150.114      576.127        0.500        0.235       67.731       11.322        0.028      336.415        7.702      868.514
12/05/2021  19:26:00      -32.051       -0.084      -20.701       46.992       29.601       31.093     2208.262      876.220      966.780        0.275        0.203       32.051       22.782        0.505      336.285        7.483      868.502
12/05/2021  19:27:00       -0.208        4.888        2.070       36.706       26.463       27.188     1347.356      700.269      739.176        0.141        0.139        4.892       23.924       23.916      336.310        7.525      868.483
12/05/2021  19:28:00      -88.561       22.504      -15.912       64.146       40.401       26.559     4114.747     1632.243      705.363        0.753        0.323       91.376       19.908        0.047      336.371        7.628      868.476
12/05/2021  19:29:00     -148.308       71.312      -15.210       33.116       23.782       23.410     1096.642      565.602      548.047        1.476        0.111      164.562       19.199        0.014      336.404        7.683      868.476
12/05/2021  19:30:00     -145.128       60.497      -14.788       29.215       20.609       19.890      853.497      424.751      395.620        1.331        0.084      157.233        9.479        0.004      336.524        7.885      868.480
12/05/2021  19:31:00      -68.231       24.999       -0.330       57.797       54.496       28.085     3340.444     2969.832      788.759        0.619        0.355       72.666       27.770        0.146      336.587        7.991      868.498
12/05/2021  19:32:00      -96.281       37.719      -13.711       70.556       46.662       29.488     4978.114     2177.359      869.556        0.945        0.401      103.406       32.747        0.100      336.563        7.950      868.523
12/05/2021  19:33:00     -127.178       43.531      -27.969       32.879       33.350       18.794     1081.039     1112.195      353.210        1.070        0.127      134.421       11.133        0.007      336.452        7.764      868.552
12/05/2021  19:34:00     -117.536       48.501      -15.363       26.738       39.248       19.916      714.934     1540.388      396.662        0.953        0.133      127.150       14.554        0.013      336.381        7.645      868.593
12/05/2021  19:35:00      -56.193       31.599       -9.828       45.318       31.229       19.062     2053.750      975.270      363.347        0.382        0.170       64.469       22.190        0.118      336.392        7.663      868.622
12/05/2021  19:36:00      -72.775       50.395      -18.558       18.657       18.982       15.457      348.067      360.317      238.910        0.456        0.047       88.520        8.760        0.010      336.472        7.797      868.645
12/05/2021  19:37:00      -55.398        7.863       -6.758       27.825       36.420       17.143      774.215     1326.384      293.889        0.279        0.120       55.953       18.157        0.105      336.402        7.679      868.652
12/05/2021  19:38:00      -61.760        0.525      -11.276       16.742       20.299       14.759      280.300      412.068      217.836        0.243        0.046       61.762        8.987        0.021      336.533        7.901      868.660
12/05/2021  19:39:00      -11.911       -0.179       -5.455       12.465        9.502        5.833      155.372       90.282       34.020        0.023        0.014       11.912        5.869        0.243      336.662        8.115      868.672
12/05/2021  19:40:00      -56.056       12.702      -10.086       27.271       19.663       14.769      743.716      386.631      218.110        0.238        0.067       57.477        9.625        0.028      336.625        8.055      868.674
12/05/2021  19:41:00      -92.317       25.094      -11.834       27.183       22.745       15.820      738.940      517.316      250.262        0.540        0.075       95.667       11.404        0.014      336.584        7.986      868.661
12/05/2021  19:42:00      -79.238       27.121      -14.248       16.150       13.551        8.954      260.835      183.638       80.180        0.387        0.026       83.751        2.704        0.001      336.465        7.785      868.665
12/05/2021  19:43:00      -93.686       39.821      -16.529       28.977       24.239       17.407      839.667      587.508      302.996        0.618        0.087      101.797       15.790        0.024      336.521        7.878      868.665
12/05/2021  19:44:00     -111.573       41.622      -17.932       16.025       25.149       14.478      256.793      632.466      209.607        0.780        0.055      119.084       10.411        0.008      336.362        7.613      868.666
12/05/2021  19:45:00      -98.427       18.503      -21.285       21.409       15.134       13.808      458.358      229.024      190.673        0.568        0.044      100.151        6.265        0.004      336.326        7.553      868.670
12/05/2021  19:46:00     -102.633       13.457      -23.182       15.757       21.456       13.088      248.285      460.363      171.304        0.607        0.044      103.512        4.763        0.002      336.313        7.532      868.677
12/05/2021  19:47:00      -67.440       -0.000      -13.526       29.993       35.243       20.428      899.602     1242.058      417.295        0.364        0.128       67.440       15.309        0.052      336.276        7.469      868.683
12/05/2021  19:48:00      -51.815        7.048        1.520       58.540       24.581       24.976     3426.917      604.202      623.782        0.369        0.233       52.292       29.674        0.322      336.266        7.452      868.687
12/05/2021  19:49:00      -22.892        3.734      -14.063       23.832       13.825       19.942      567.968      191.125      397.702        0.095        0.058       23.194       18.475        0.634      336.242        7.412      868.712
12/05/2021  19:50:00      -14.707       -2.378       -5.494       17.267       10.504       16.118      298.147      110.340      259.801        0.046        0.033       14.898       11.589        0.605      336.262        7.445      868.739
12/05/2021  19:51:00       29.171       18.270       -7.166       27.787       13.953       11.103      772.142      194.689      123.279        0.116        0.055       34.420       10.144        0.087      336.127        7.220      868.762
12/05/2021  19:52:00       18.324       -0.328      -14.134       13.770       11.190        6.127      189.610      125.207       37.543        0.044        0.018       18.327        2.785        0.023      336.253        7.430      868.772
12/05/2021  19:53:00      -13.434      -21.187       -6.403       14.156        9.149        8.476      200.405       83.702       71.850        0.051        0.018       25.087        8.944        0.127      336.248        7.422      868.776
12/05/2021  19:54:00      -37.706      -19.643      -10.129       14.064        8.750       11.739      197.795       76.556      137.808        0.116        0.021       42.516        5.084        0.014      336.199        7.338      868.770
12/05/2021  19:55:00      -31.781       -5.302       -8.430       12.908        9.435       10.720      166.606       89.024      114.909        0.074        0.019       32.220        8.038        0.062      336.236        7.401      868.758
12/05/2021  19:56:00      -38.350        3.535       -8.819       18.989       11.346       11.289      360.584      128.737      127.435        0.109        0.031       38.513        7.024        0.033      336.173        7.295      868.748
12/05/2021  19:57:00      -63.441       15.276      -15.760        7.076        6.255        7.602       50.073       39.125       57.794        0.233        0.007       65.254        5.248        0.006      336.266        7.451      868.730
12/05/2021  19:58:00      -58.570       14.138      -16.435        5.339        5.890        5.741       28.504       34.689       32.963        0.200        0.005       60.252        2.058        0.001      336.398        7.673      868.710
12/05/2021  19:59:00      -57.945        6.368      -17.933       22.716       11.473       14.436      516.012      131.634      208.408        0.229        0.043       58.294       12.942        0.049      336.339        7.573      868.692
12/05/2021  20:00:00     -109.216       28.950      -19.201       18.704       20.607       11.733      349.850      424.660      137.652        0.702        0.046      112.987        8.803        0.006      336.224        7.383      868.684
12/05/2021  20:01:00     -114.289       47.015      -25.591       38.136       23.482       17.973     1454.386      551.389      323.031        0.913        0.116      123.582       19.738        0.026      336.023        7.045      868.692
12/05/2021  20:02:00      -96.511       15.863      -12.845       48.366       32.425       23.475     2339.228     1051.376      551.073        0.684        0.197       97.806       24.509        0.063      335.934        6.898      868.714
12/05/2021  20:03:00     -175.162       62.021      -20.254       40.160       31.862       24.984     1612.833     1015.191      624.178        1.909        0.163      185.818       20.298        0.012      335.795        6.665      868.733
12/05/2021  20:04:00     -140.780       68.605       -9.783       44.691       27.761       21.624     1997.286      770.663      467.586        1.393        0.162      156.606       22.617        0.021      335.873        6.797      868.751
12/05/2021  20:05:00     -121.516       50.547       -7.818       50.419       39.186       30.585     2542.124     1535.514      935.437        1.120        0.251      131.609       27.653        0.044      335.972        6.963      868.760
12/05/2021  20:06:00      -88.122       58.727       -5.740       50.208       37.827       31.517     2520.803     1430.863      993.296        0.810        0.247      105.898       32.936        0.097      336.189        7.322      868.783
12/05/2021  20:07:00     -117.737       42.069      -11.782       24.928       21.571       18.000      621.396      465.327      323.983        0.859        0.071      125.027       12.905        0.011      336.121        7.209      868.793
12/05/2021  20:08:00      -89.763       20.875      -16.823       30.651       21.891       18.496      939.508      479.195      342.089        0.527        0.088       92.159       16.853        0.033      336.112        7.193      868.794
12/05/2021  20:09:00      -41.591        4.762       -6.051       36.133       16.742       11.745     1305.615      280.284      137.953        0.176        0.086       41.862       13.559        0.105      336.091        7.159      868.790
12/05/2021  20:10:00      -81.760      -11.084       -6.919       22.976       24.378       18.679      527.881      594.300      348.890        0.416        0.074       82.508       11.689        0.020      336.148        7.255      868.793
12/05/2021  20:11:00      -64.226       -2.761       -9.246       25.639       23.220       18.278      657.351      539.155      334.092        0.287        0.077       64.285       14.849        0.053      336.107        7.188      868.799
12/05/2021  20:12:00      -97.089       -6.382      -10.053       23.728       21.084       17.260      563.015      444.538      297.897        0.544        0.065       97.298       10.699        0.012      336.017        7.037      868.809
12/05/2021  20:13:00     -129.196       15.553      -21.509       24.281       14.303       15.799      589.580      204.575      249.594        0.922        0.052      130.129        8.650        0.004      336.124        7.215      868.814
12/05/2021  20:14:00     -132.838       -5.034      -15.388       22.019       23.700       15.274      484.855      561.682      233.292        0.959        0.064      132.933        8.189        0.004      336.085        7.149      868.816
12/05/2021  20:15:00      -90.777       -1.306       -7.859       33.402       24.727       16.966     1115.663      611.429      287.858        0.516        0.101       90.786       13.443        0.022      336.080        7.142      868.811
12/05/2021  20:16:00      -95.124        4.143       -7.646       42.624       34.028       24.506     1816.780     1157.896      600.547        0.635        0.179       95.214       15.994        0.028      336.197        7.337      868.801
12/05/2021  20:17:00      -38.137       20.256       -8.363       42.128       31.885       29.687     1774.742     1016.635      881.314        0.280        0.184       43.182       28.302        0.430      336.074        7.132      868.790
12/05/2021  20:18:00     -108.370        8.516      -21.550       41.423       33.708       18.443     1715.897     1136.201      340.129        0.774        0.160      108.704        7.995        0.005      336.125        7.215      868.775
12/05/2021  20:19:00        2.637       15.139       -4.875       19.408       32.031       18.030      376.679     1026.014      325.091        0.099        0.086       15.367       10.652        0.481      335.995        7.001      868.751
12/05/2021  20:20:00     -119.831       16.501      -11.342       28.112       28.125       22.582      790.285      790.998      509.946        0.843        0.105      120.961       15.290        0.016      336.033        7.064      868.731
12/05/2021  20:21:00     -139.119       35.282      -20.388       44.747       38.014       21.767     2002.327     1445.071      473.822        1.247        0.196      143.523       15.073        0.011      335.991        6.994      868.723
12/05/2021  20:22:00     -128.091       40.657      -13.491       46.813       32.415       24.812     2191.440     1050.716      615.646        1.105        0.193      134.389       12.193        0.008      335.925        6.884      868.722
12/05/2021  20:23:00      -47.570        6.911       -8.703       46.175       26.941       24.712     2132.097      725.805      610.675        0.293        0.173       48.069       20.478        0.181      335.886        6.819      868.712
12/05/2021  20:24:00       -4.698       -1.866        0.064       44.945       29.246       27.714     2020.055      855.336      768.088        0.183        0.182        5.055       27.521       29.636      335.896        6.837      868.706
12/05/2021  20:25:00     -112.483        8.065      -15.365       46.923       33.672       16.775     2201.805     1133.816      281.407        0.828        0.181      112.772        5.524        0.002      335.894        6.832      868.710
12/05/2021  20:26:00     -134.728       17.679      -11.665       38.965       36.894       21.469     1518.244     1361.159      460.930        1.097        0.167      135.883       16.882        0.015      335.873        6.797      868.703
12/05/2021  20:27:00      -91.358        8.568       -4.308       39.745       33.154       26.288     1579.659     1099.195      691.076        0.590        0.168       91.759       16.401        0.032      335.845        6.751      868.693
12/05/2021  20:28:00     -104.035      -12.131        1.166       48.038       30.875       28.570     2307.620      953.250      816.261        0.752        0.204      104.740       27.268        0.068      335.809        6.689      868.682
12/05/2021  20:29:00     -125.822        0.950       -5.464       60.054       30.137       27.288     3606.518      908.255      744.636        1.056        0.263      125.826       22.157        0.031      335.930        6.892      868.669
12/05/2021  20:30:00     -138.563       -0.557      -12.831       45.433       29.088       24.453     2064.128      846.118      597.927        1.144        0.175      138.564       17.415        0.016      335.999        7.007      868.656
12/05/2021  20:31:00     -131.947       -2.113      -17.142       29.376       25.829       23.768      862.946      667.160      564.919        0.990        0.105      131.964       14.339        0.012      336.012        7.028      868.639
12/05/2021  20:32:00     -130.271      -24.772      -11.132       42.992       31.015       21.274     1848.281      961.908      452.600        1.048        0.163      132.606       23.298        0.031      336.130        7.225      868.610
12/05/2021  20:33:00     -163.038        1.358      -20.667       36.983       30.603       21.387     1367.756      936.531      457.404        1.489        0.138      163.044       12.762        0.006      336.254        7.432      868.585
12/05/2021  20:34:00     -123.768      -13.759      -16.662       21.895       30.983       23.453      479.399      959.923      550.056        0.889        0.099      124.530       11.489        0.009      336.299        7.508      868.549
12/05/2021  20:35:00      -84.543      -19.755       -3.207       41.819       31.888       18.652     1748.857     1016.859      347.882        0.533        0.156       86.820       19.563        0.051      336.292        7.497      868.515
12/05/2021  20:36:00      -72.589       -9.255       -3.101       35.398       32.130       18.213     1253.039     1032.315      331.725        0.399        0.131       73.176       16.722        0.052      336.243        7.414      868.488
12/05/2021  20:37:00      -88.168      -11.093       -9.384       48.457       24.962       22.492     2348.082      623.126      505.902        0.573        0.174       88.863       22.256        0.063      336.152        7.262      868.449
12/05/2021  20:38:00      -93.428       -7.235       -3.224       38.628       34.490       22.276     1492.118     1189.544      496.220        0.598        0.159       93.707       20.582        0.048      336.247        7.421      868.419
12/05/2021  20:39:00      -99.137      -15.522       -8.675       40.252       39.000       21.284     1620.196     1520.982      453.028        0.687        0.180      100.345       16.435        0.027      336.260        7.443      868.390
12/05/2021  20:40:00      -82.688       -0.389       -5.611       40.324       28.959       23.453     1626.025      838.598      550.034        0.494        0.151       82.689       17.418        0.044      336.241        7.409      868.366
12/05/2021  20:41:00      -86.528      -13.049       -9.709       39.956       32.438       22.730     1596.481     1052.203      516.641        0.546        0.158       87.507       18.326        0.044      336.161        7.276      868.347
12/05/2021  20:42:00      -63.767      -16.433       -9.921       35.175       22.042       18.112     1237.306      485.840      328.053        0.324        0.103       65.850       17.492        0.071      336.078        7.139      868.325
12/05/2021  20:43:00      -53.869      -13.543       -0.747       34.329       26.925       18.673     1178.462      724.980      348.697        0.267        0.113       55.545       16.856        0.092      335.988        6.989      868.296
12/05/2021  20:44:00      -41.826      -21.673      -12.558       21.929       22.694       18.450      480.879      515.017      340.413        0.186        0.067       47.108        9.291        0.039      335.987        6.988      868.270
12/05/2021  20:45:00      -35.927       -1.248       -0.631       21.645       21.918       20.200      468.521      480.412      408.043        0.132        0.068       35.949       14.432        0.161      336.025        7.051      868.243
12/05/2021  20:46:00      -37.429       14.850       -5.884       21.809       27.142       17.152      475.637      736.671      294.194        0.158        0.075       40.267        8.103        0.040      335.910        6.860      868.204
12/05/2021  20:47:00      -66.554        2.777       -8.421       25.576       27.017       18.493      654.144      729.903      341.992        0.312        0.086       66.612       12.155        0.033      335.960        6.941      868.181
12/05/2021  20:48:00      -50.298       -6.119      -10.793       34.717       27.862       13.320     1205.249      776.264      177.432        0.242        0.108       50.669        4.910        0.009      335.966        6.953      868.156
12/05/2021  20:49:00      -91.839       17.765      -10.105       44.994       31.021       25.049     2024.480      962.326      627.461        0.623        0.181       93.542       19.210        0.042      335.774        6.631      868.149
12/05/2021  20:50:00     -140.481       20.841      -10.211       46.189       37.055       24.463     2133.457     1373.097      598.424        1.219        0.205      142.019       18.409        0.017      335.857        6.769      868.141
12/05/2021  20:51:00      -13.438       -0.057       -5.368       37.737       30.129       24.380     1424.080      907.736      594.373        0.157        0.146       13.438       20.933        2.426      335.722        6.544      868.133
12/05/2021  20:52:00      -52.606       17.346       -3.525       79.447       28.119       25.883     6311.780      790.678      669.953        0.543        0.389       55.392       30.812        0.309      335.663        6.446      868.134
12/05/2021  20:53:00      -74.520       10.691      -10.809       52.649       37.739       22.342     2771.875     1424.226      499.163        0.524        0.235       75.283       12.129        0.026      335.673        6.463      868.142
12/05/2021  20:54:00      -36.508       19.205      -11.443       33.968       27.792       23.009     1153.847      772.369      529.392        0.214        0.123       41.252       13.504        0.107      335.624        6.380      868.169
12/05/2021  20:55:00      -78.364       29.041      -18.721       46.314       29.635       17.501     2144.968      878.244      306.268        0.533        0.166       83.572       10.621        0.016      335.644        6.415      868.210
12/05/2021  20:56:00     -103.700       53.910      -12.994       23.630       20.178       16.941      558.378      407.165      286.982        0.754        0.063      116.876       11.783        0.010      335.653        6.431      868.246
12/05/2021  20:57:00      -71.308        3.404       -7.355       45.062       27.988       19.371     2030.564      783.312      375.234        0.417        0.159       71.389       22.063        0.096      335.714        6.531      868.286
12/05/2021  20:58:00      -17.100        4.599       -1.613       36.754       23.796       16.749     1350.888      566.261      280.536        0.126        0.110       17.707       15.165        0.733      335.817        6.703      868.324
12/05/2021  20:59:00      -67.061       76.810      -22.110       42.403       42.297       19.775     1797.997     1789.003      391.040        0.743        0.199      101.966        9.374        0.008      335.874        6.798      868.367
12/05/2021  21:00:00      -60.468       44.435       -1.904       59.541       25.920       19.424     3545.108      671.844      377.300        0.511        0.230       75.039        7.495        0.010      335.983        6.981      868.405
12/05/2021  21:01:00      -66.736       38.630       -4.254       52.259       29.822       23.139     2730.954      889.355      535.435        0.506        0.208       77.110       20.732        0.072      335.824        6.713      868.437
12/05/2021  21:02:00      -22.672       94.672       -1.109       30.106       46.038       23.004      906.345     2119.455      529.171        0.652        0.178       97.349       20.974        0.046      335.956        6.935      868.460
12/05/2021  21:03:00      -21.441       78.453      -13.581       29.242       46.686       21.563      855.067     2179.551      464.976        0.515        0.175       81.330        8.797        0.012      335.977        6.971      868.481
12/05/2021  21:04:00      -39.849       19.851       -9.564       28.399       29.051       19.036      806.518      843.937      362.372        0.204        0.101       44.520        9.618        0.047      335.715        6.533      868.488
12/05/2021  21:05:00      -25.597        5.394      -12.312       33.402       26.038       18.343     1115.682      677.984      336.458        0.148        0.107       26.159       12.318        0.222      335.868        6.788      868.480
12/05/2021  21:06:00        4.986      -10.010       -7.747       16.373       22.093       15.096      268.071      488.091      227.896        0.058        0.049       11.183       12.054        1.162      335.754        6.598      868.461
12/05/2021  21:07:00      -19.495       -4.599       -9.398       26.294       19.856       20.579      691.357      394.259      423.493        0.100        0.075       20.030       18.101        0.817      335.625        6.384      868.442
12/05/2021  21:08:00       -4.298       -6.655       -7.485       19.741       15.233       13.815      389.689      232.046      190.848        0.047        0.041        7.922        9.742        1.512      335.559        6.273      868.438
12/05/2021  21:09:00        4.962       -1.252      -14.509       13.612       14.817        9.233      185.280      219.534       85.247        0.036        0.025        5.117        5.895        1.327      335.503        6.180      868.448
12/05/2021  21:10:00      -23.780       -1.345      -10.137       27.511       20.469       19.223      756.852      418.981      369.519        0.111        0.077       23.818       14.458        0.368      335.456        6.102      868.455
12/05/2021  21:11:00      -13.737        6.505       -7.214       23.061       24.651       22.787      531.812      607.648      519.250        0.097        0.083       15.199       16.623        1.196      335.363        5.947      868.463
12/05/2021  21:12:00      -17.455       -8.042       -1.368       11.698       10.742        7.351      136.838      115.383       54.036        0.034        0.015       19.218        6.531        0.115      335.451        6.094      868.474
12/05/2021  21:13:00      -48.315       -8.240      -11.875       19.277       11.083       13.778      371.591      122.837      189.827        0.161        0.034       49.013       11.256        0.053      335.481        6.144      868.472
12/05/2021  21:14:00      -25.163       -4.734       -6.274       23.872       17.654       13.874      569.860      311.657      192.488        0.088        0.054       25.605       14.006        0.299      335.432        6.062      868.484
12/05/2021  21:15:00      -32.724      -12.533       -7.564       24.409       11.777       16.158      595.815      138.690      261.085        0.114        0.050       35.042       15.552        0.197      335.501        6.177      868.510
12/05/2021  21:16:00      -36.312      -11.423       -6.714       29.664       15.369       13.610      879.960      236.198      185.224        0.140        0.065       38.067       15.063        0.157      335.586        6.317      868.540
12/05/2021  21:17:00      -62.566      -19.401       -1.014       32.975       18.303       19.860     1087.342      334.996      394.406        0.305        0.091       65.505       21.597        0.109      335.685        6.484      868.548
12/05/2021  21:18:00      -62.417      -29.454      -12.716       37.633       26.276       18.087     1416.257      690.428      327.134        0.368        0.122       69.017       13.794        0.040      335.726        6.551      868.554
12/05/2021  21:19:00      -42.722       -7.563       -5.909       28.346       25.862       15.681      803.508      668.842      245.879        0.182        0.086       43.386        8.943        0.042      335.774        6.630      868.565
12/05/2021  21:20:00       -9.154      -22.901      -12.847       23.017       21.312       11.588      529.774      454.187      134.273        0.095        0.056       24.663        8.954        0.132      335.686        6.484      868.571
12/05/2021  21:21:00        3.458      -64.078      -11.480       31.788       40.255       24.135     1010.472     1620.447      582.518        0.373        0.161       64.171       16.540        0.066      335.618        6.370      868.573
12/05/2021  21:22:00       -0.612      -45.329      -31.931       43.856       46.359       33.642     1923.390     2149.148     1131.776        0.414        0.260       45.333       25.117        0.307      335.481        6.143      868.567
12/05/2021  21:23:00      -30.441       -7.630        4.214       30.039       23.579       20.900      902.344      555.990      436.808        0.145        0.095       31.383       15.090        0.231      335.606        6.351      868.567
12/05/2021  21:24:00      -32.272       -4.885       -6.311       31.394       22.655       19.054      985.581      513.244      363.071        0.148        0.093       32.639       16.186        0.246      335.517        6.203      868.570
12/05/2021  21:25:00      -45.696       -0.120       -3.566       36.803       26.832       17.224     1354.434      719.981      296.678        0.224        0.119       45.696       14.949        0.107      335.448        6.089      868.589
12/05/2021  21:26:00      -10.099      -13.238       -8.478       27.308       18.959       15.534      745.733      359.459      241.301        0.085        0.067       16.651       12.712        0.583      335.469        6.126      868.629
12/05/2021  21:27:00      -67.452       -6.708        1.660       41.212       29.042       26.610     1698.459      843.410      708.085        0.392        0.162       67.785       17.205        0.064      335.410        6.026      868.683
12/05/2021  21:28:00      -30.297        3.332        6.115       39.357       31.544       25.931     1548.955      995.043      672.431        0.209        0.161       30.479       21.051        0.477      335.394        5.999      868.745
12/05/2021  21:29:00     -130.260       -7.410       -7.130       36.366       36.184       25.843     1322.454     1309.247      667.865        1.019        0.165      130.471       21.858        0.028      335.344        5.916      868.808
12/05/2021  21:30:00      -42.043      -11.455       -9.310       31.117       22.861       21.003      968.286      522.641      441.138        0.196        0.097       43.575       13.303        0.093      335.393        5.996      868.849
12/05/2021  21:31:00      -23.418      -21.602      -15.437       21.222       15.804       11.512      450.374      249.777      132.536        0.104        0.042       31.860        9.461        0.088      335.410        6.026      868.891
12/05/2021  21:32:00      -22.113       13.367      -12.654       11.852        7.822        9.510      140.466       61.186       90.432        0.056        0.015       25.839        2.215        0.007      335.410        6.025      868.935
12/05/2021  21:33:00      -26.188      -11.115       -6.897       25.231       22.629       10.005      636.604      512.071      100.109        0.105        0.062       28.450        9.471        0.111      335.445        6.084      868.983
12/05/2021  21:34:00      -80.383      -43.433      -10.679       21.307       26.293       15.484      453.978      691.311      239.761        0.492        0.069       91.367        9.324        0.010      335.464        6.114      869.012
12/05/2021  21:35:00      -11.248      -11.869       -1.140       31.802       26.766       24.498     1011.387      716.443      600.140        0.130        0.116       16.352       19.393        1.406      335.451        6.093      869.036
12/05/2021  21:36:00      -54.001       -9.080       -2.378       37.350       21.081       22.971     1395.029      444.393      527.689        0.269        0.118       54.760       22.687        0.172      335.308        5.854      869.050
12/05/2021  21:37:00      -99.529      -58.165      -14.276       54.113       56.794       32.546     2928.238     3225.546     1059.272        1.035        0.361      115.279       29.441        0.065      335.363        5.947      869.050
12/05/2021  21:38:00      -76.904      -22.685       -6.341       42.462       48.429       23.149     1802.986     2345.395      535.898        0.558        0.234       80.180       20.359        0.064      335.348        5.921      869.073
12/05/2021  21:39:00      -64.131        9.430       -0.596       41.684       33.215       25.626     1737.532     1103.251      656.692        0.385        0.175       64.820       22.468        0.120      335.286        5.818      869.114
12/05/2021  21:40:00        5.890        3.322        6.084       26.199       13.760       20.082      686.384      189.349      403.290        0.068        0.064        6.762       17.034        6.346      335.192        5.661      869.130
12/05/2021  21:41:00       -6.580        1.402       -3.352       13.231       10.614       10.776      175.060      112.660      116.125        0.023        0.020        6.727        9.617        2.043      335.163        5.614      869.137
12/05/2021  21:42:00        5.707       -5.901       -8.869       22.471       13.494        7.813      504.963      182.097       61.046        0.045        0.037        8.209        3.572        0.189      335.292        5.830      869.149
12/05/2021  21:43:00        4.613      -21.402      -10.206       16.307       10.263        8.361      265.902      105.329       69.904        0.051        0.022       21.893        7.708        0.124      335.539        6.239      869.173
12/05/2021  21:44:00       -5.828      -27.655       -5.866       13.315       11.023        8.098      177.290      121.516       65.579        0.060        0.018       28.263        2.200        0.006      335.607        6.353      869.186
12/05/2021  21:45:00      -23.816       46.145       -9.139       20.830       35.526       12.059      433.910     1262.116      145.425        0.231        0.092       51.928        9.138        0.031      335.277        5.804      869.212
12/05/2021  21:46:00      -66.846       14.442      -13.381       25.384       28.960       15.970      644.361      838.671      255.052        0.330        0.087       68.388       10.629        0.024      335.348        5.921      869.211
12/05/2021  21:47:00      -16.664      -18.247       -8.767       18.751       17.889        8.930      351.597      320.016       79.749        0.072        0.038       24.711        8.499        0.118      335.231        5.728      869.170
12/05/2021  21:48:00       12.607      -42.627      -15.507       29.277       18.442       15.662      857.124      340.125      245.306        0.183        0.072       44.453       14.785        0.111      335.420        6.041      869.152
12/05/2021  21:49:00       -7.954        0.741      -13.971       20.188       27.086       13.640      407.541      733.644      186.037        0.079        0.066        7.988       12.804        2.569      335.299        5.838      869.163
12/05/2021  21:50:00      -30.235      -10.637      -11.209       38.122       22.450       19.234     1453.299      503.997      369.947        0.174        0.116       32.051       17.317        0.292      335.257        5.769      869.176
12/05/2021  21:51:00        3.835        1.934       -5.000       19.324       20.939       17.004      373.410      438.451      289.153        0.057        0.055        4.295       14.820       11.907      335.087        5.489      869.197
12/05/2021  21:52:00      -77.262      -23.245      -17.600       45.896       21.924       17.393     2106.477      480.642      302.511        0.485        0.144       80.682       21.350        0.070      335.160        5.610      869.214
12/05/2021  21:53:00     -118.511       -5.125      -19.714       25.971       17.935       13.870      674.514      321.673      192.391        0.782        0.059      118.622       10.472        0.008      335.239        5.740      869.230
12/05/2021  21:54:00      -93.486      -55.293      -11.447       33.908       37.439       19.958     1149.722     1401.708      398.329        0.744        0.147      108.614       16.205        0.022      335.448        6.089      869.231
12/05/2021  21:55:00      -47.044      -16.897      -17.553       31.632       29.938       25.076     1000.555      896.282      628.817        0.267        0.126       49.987       13.259        0.070      335.418        6.039      869.224
12/05/2021  21:56:00      -46.176      -54.555      -18.899       35.509       35.791       18.856     1260.867     1281.028      355.567        0.418        0.145       71.474       19.146        0.072      335.569        6.291      869.218
12/05/2021  21:57:00      -76.652      -21.554       -7.872       38.439       49.850       21.378     1477.562     2485.033      457.008        0.541        0.221       79.625       19.213        0.058      335.470        6.125      869.228
12/05/2021  21:58:00      -77.621      -13.897      -16.760       52.775       39.319       27.752     2785.150     1546.009      770.165        0.580        0.255       78.855       23.099        0.086      335.340        5.909      869.246
12/05/2021  21:59:00      -15.503      -24.027       -1.506       25.055       22.469       18.173      627.755      504.860      330.248        0.114        0.073       28.594       11.437        0.160      335.271        5.795      869.253
12/05/2021  22:00:00      -78.154      -37.907      -14.560       51.992       31.899       16.859     2703.143     1017.576      284.223        0.588        0.200       86.862       12.468        0.021      335.294        5.831      869.258
12/05/2021  22:01:00      -81.818      -76.388      -15.305       56.535       50.835       31.463     3196.242     2584.207      989.934        0.977        0.339      111.935       25.302        0.051      335.392        5.994      869.267
12/05/2021  22:02:00      -93.782      -55.833       -5.682       41.576       48.594       30.201     1728.554     2361.384      912.089        0.847        0.250      109.144       26.580        0.059      335.486        6.152      869.286
12/05/2021  22:03:00      -59.379      -42.662       -9.993       28.637       48.286       29.597      820.104     2331.515      875.980        0.474        0.201       73.116       19.469        0.071      335.466        6.118      869.316
12/05/2021  22:04:00      -69.563      -34.863       -5.713       51.829       45.165       23.553     2686.229     2039.905      554.762        0.568        0.264       77.810       26.434        0.115      335.364        5.949      869.340
12/05/2021  22:05:00      -14.785      -33.970      -15.018       29.518       26.170       17.810      871.338      684.854      317.196        0.174        0.094       37.048       16.315        0.194      335.391        5.994      869.330
12/05/2021  22:06:00       11.979      -40.417      -23.206       49.031       32.040       21.062     2404.013     1026.584      443.609        0.309        0.194       42.154        9.483        0.051      335.410        6.024      869.289
12/05/2021  22:07:00       14.672      -49.781      -35.033       20.711       25.435       15.975      428.961      646.958      255.206        0.263        0.067       51.899       11.852        0.052      335.213        5.697      869.258
12/05/2021  22:08:00      -19.568       13.764      -11.942       20.805       14.476        8.377      432.839      209.540       70.177        0.071        0.036       23.924        8.741        0.134      335.290        5.823      869.246
12/05/2021  22:09:00       -9.786       13.222       -4.695       12.462       22.757        9.309      155.305      517.860       86.658        0.053        0.038       16.450        9.975        0.368      335.243        5.746      869.253
12/05/2021  22:10:00      -46.320      -22.767       -7.135       28.567       33.121       21.316      816.076     1097.018      454.390        0.254        0.118       51.613       15.882        0.095      335.242        5.745      869.251
12/05/2021  22:11:00      -31.004       -1.506       -6.968       25.698       31.371       18.824      660.367      984.129      354.331        0.151        0.100       31.041        8.780        0.080      335.130        5.559      869.254
12/05/2021  22:12:00      -67.567       -0.959      -15.070       37.028       29.311       24.875     1371.040      859.162      618.778        0.382        0.142       67.573       20.874        0.095      335.098        5.508      869.262
12/05/2021  22:13:00      -70.144       12.816       -9.503       50.446       20.494       17.654     2544.800      420.005      311.646        0.422        0.164       71.305       18.410        0.067      335.045        5.418      869.282
12/05/2021  22:14:00     -117.887       56.427      -11.814       15.067       15.523       14.677      227.002      240.979      215.406        0.895        0.034      130.696        6.271        0.002      335.013        5.366      869.310
12/05/2021  22:15:00     -107.995       21.171       -9.354       33.418       22.612       20.629     1116.760      511.305      425.560        0.713        0.103      110.050       21.024        0.036      335.015        5.369      869.316
12/05/2021  22:16:00      -43.749       -1.348       -5.363       46.373       23.815       20.795     2150.421      567.145      432.446        0.255        0.158       43.769       21.205        0.235      334.954        5.268      869.326
12/05/2021  22:17:00     -113.775       18.859       -4.634       42.272       29.130       23.981     1786.944      848.568      575.111        0.827        0.161      115.327       20.011        0.030      334.935        5.237      869.325
12/05/2021  22:18:00      -71.357       12.711        1.104       44.548       27.680       23.499     1984.550      766.192      552.212        0.428        0.165       72.480       23.408        0.104      334.874        5.135      869.306
12/05/2021  22:19:00      -66.657        3.076       -7.029       30.205       16.957       20.800      912.366      287.543      432.659        0.307        0.082       66.728       16.921        0.064      334.912        5.198      869.286
12/05/2021  22:20:00      -64.021       11.591       -8.209       30.777       24.180       19.398      947.251      584.674      376.276        0.310        0.095       65.062       13.393        0.042      335.037        5.406      869.273
12/05/2021  22:21:00      -78.830        8.289       -1.377       49.472       28.195       18.023     2447.485      794.959      324.837        0.493        0.178       79.265       21.770        0.075      334.934        5.236      869.263
12/05/2021  22:22:00      -55.575        4.658        1.949       49.423       19.093       16.101     2442.630      364.560      259.257        0.309        0.153       55.770       20.380        0.134      334.879        5.143      869.255
12/05/2021  22:23:00      -97.858       10.299      -15.508       37.365       20.265       13.196     1396.109      410.651      174.132        0.595        0.099       98.398        8.709        0.008      334.954        5.269      869.248
12/05/2021  22:24:00      -45.831      -12.899       -0.963       38.945       29.275       26.803     1516.708      857.041      718.381        0.268        0.155       47.611       20.073        0.178      334.889        5.160      869.250
12/05/2021  22:25:00      -87.126       14.814       -6.697       60.853       29.295       27.725     3703.088      858.198      768.668        0.659        0.266       88.377       28.196        0.102      334.757        4.940      869.271
12/05/2021  22:26:00      -58.530        8.942       -8.313       62.177       37.776       32.784     3866.028     1427.029     1074.766        0.497        0.318       59.210       25.098        0.180      334.674        4.803      869.300
12/05/2021  22:27:00     -126.944       35.554      -17.922       44.381       38.209       28.043     1969.706     1459.916      786.423        1.096        0.211      131.829       15.284        0.013      334.704        4.852      869.319
12/05/2021  22:28:00     -134.436       29.077       -8.232       27.817       24.991       21.263      773.788      624.558      452.126        1.042        0.093      137.545       16.047        0.014      334.635        4.737      869.326
12/05/2021  22:29:00     -157.375       34.382       -9.906       44.799       26.909       27.307     2006.947      724.077      745.663        1.476        0.174      161.087       27.461        0.029      334.579        4.643      869.353
12/05/2021  22:30:00     -150.110       36.132      -12.312       35.300       38.132       21.204     1246.103     1454.078      449.624        1.357        0.157      154.397        7.893        0.003      334.621        4.714      869.376
12/05/2021  22:31:00      -11.161       -3.932        1.234       67.913       27.172       31.845     4612.237      738.312     1014.087        0.325        0.318       11.833       26.504        5.017      334.597        4.674      869.389
12/05/2021  22:32:00       -9.549       -3.676      -28.436       64.032       46.773       28.680     4100.067     2187.712      822.540        0.401        0.356       10.232       25.198        6.065      334.602        4.681      869.382
12/05/2021  22:33:00      -46.759        6.926       -8.090       71.797       44.070       24.900     5154.793     1942.150      620.033        0.501        0.386       47.269       18.370        0.151      334.607        4.689      869.353
12/05/2021  22:34:00      -80.342        5.434       -5.764       52.309       30.016       22.411     2736.190      900.989      502.234        0.533        0.207       80.526       12.320        0.023      334.580        4.645      869.341
12/05/2021  22:35:00      -72.368       15.704       -0.223       50.298       18.899       17.118     2529.916      357.168      293.029        0.433        0.159       74.052       19.250        0.068      334.574        4.636      869.348
12/05/2021  22:36:00     -104.755       22.795      -14.142       25.912       18.882       15.892      671.407      356.513      252.567        0.649        0.064      107.206       10.087        0.009      334.628        4.724      869.342
12/05/2021  22:37:00      -86.856       22.433      -12.663       30.749       18.414       16.129      945.486      339.066      260.136        0.488        0.077       89.706       17.539        0.038      334.769        4.961      869.319
12/05/2021  22:38:00      -66.460       18.025      -13.374       19.428       16.684       11.080      377.458      278.347      122.767        0.285        0.039       68.861        8.738        0.016      334.735        4.903      869.291
12/05/2021  22:39:00      -76.012       19.819      -21.213       19.928       21.326       12.752      397.113      454.803      162.618        0.382        0.051       78.553       11.566        0.022      334.697        4.842      869.280
12/05/2021  22:40:00      -86.880       31.785      -22.558       12.306       12.052        8.295      151.443      145.250       68.815        0.472        0.018       92.511        4.723        0.003      334.609        4.694      869.281
12/05/2021  22:41:00      -63.798       14.704       -7.117       29.630       21.285       12.363      877.910      453.065      152.845        0.291        0.074       65.471       13.174        0.040      334.726        4.889      869.291
12/05/2021  22:42:00        7.672      -33.812       -9.289       24.722       12.651       12.656      611.179      160.035      160.171        0.111        0.047       34.671       10.230        0.087      334.793        5.000      869.308
12/05/2021  22:43:00       17.201      -10.487      -24.562       35.705       63.039       36.123     1274.814     3973.939     1304.879        0.378        0.328       20.146       28.603        2.016      334.909        5.195      869.320
12/05/2021  22:44:00       58.736       16.837      -15.208       43.290       53.204       35.674     1873.999     2830.680     1272.670        0.497        0.299       61.102       28.692        0.221      334.716        4.872      869.308
12/05/2021  22:45:00       41.146      -22.605      -19.214       38.640       34.485       32.757     1493.016     1189.247     1073.043        0.316        0.188       46.947       23.989        0.261      334.801        5.014      869.302
12/05/2021  22:46:00       17.099      -47.419      -16.216       28.335       30.794       21.572      802.898      948.293      465.337        0.251        0.111       50.408       14.703        0.085      334.915        5.204      869.297
12/05/2021  22:47:00      -15.891        4.203       -8.755       15.793       10.921        8.677      249.409      119.267       75.296        0.040        0.022       16.438        6.214        0.143      334.733        4.900      869.292
12/05/2021  22:48:00       -9.094        8.645       -6.131       14.029        9.635        8.961      196.824       92.832       80.296        0.028        0.018       12.547        7.691        0.376      334.685        4.819      869.283
12/05/2021  22:49:00      -37.074       12.627      -15.072       14.587        6.225        7.603      212.772       38.755       57.799        0.104        0.015       39.165        5.392        0.019      334.775        4.971      869.271
12/05/2021  22:50:00      -26.110        1.867       -1.130       20.820       12.544        8.370      433.457      157.358       70.050        0.067        0.033       26.177        9.588        0.134      334.659        4.776      869.244
12/05/2021  22:51:00      -45.820       -2.613       -6.921       26.598       14.292       11.870      707.453      204.272      140.898        0.160        0.053       45.894        8.829        0.037      334.492        4.501      869.228
12/05/2021  22:52:00     -103.856       11.148      -11.896       32.059       19.809       18.310     1027.785      392.409      335.269        0.640        0.088      104.452       15.735        0.023      334.530        4.562      869.212
12/05/2021  22:53:00      -93.372        6.667      -11.715       35.946       26.392       22.290     1292.090      696.518      496.855        0.569        0.124       93.609       14.176        0.023      334.528        4.558      869.216
12/05/2021  22:54:00      -48.379       -5.220        2.855       44.320       29.079       24.682     1964.244      845.616      609.216        0.290        0.171       48.660       24.792        0.260      334.595        4.669      869.239
12/05/2021  22:55:00     -137.053       17.989       -0.614       51.565       42.469       33.548     2658.938     1803.644     1125.494        1.235        0.279      138.229       19.805        0.021      334.667        4.791      869.270
12/05/2021  22:56:00     -139.653        6.651      -11.510       39.816       25.741       26.724     1585.318      662.596      714.190        1.132        0.148      139.811       18.866        0.018      334.657        4.775      869.282
12/05/2021  22:57:00      -58.073        8.639       -3.476       59.693       21.033       18.594     3563.225      442.373      345.729        0.390        0.218       58.712       25.218        0.184      334.574        4.635      869.264
12/05/2021  22:58:00      -50.457        1.712      -11.296       41.077       30.267       16.960     1687.279      916.100      287.647        0.278        0.145       50.486       21.842        0.187      334.660        4.779      869.207
12/05/2021  22:59:00      -29.661      -13.326      -10.784       20.851       16.323       13.402      434.777      266.454      179.625        0.103        0.044       32.517        8.388        0.067      334.724        4.885      869.155
12/05/2021  23:00:00      -13.954      -34.000       -7.567       27.152       24.197       17.730      737.251      585.507      314.370        0.152        0.082       36.752       15.306        0.173      334.714        4.868      869.127
12/05/2021  23:01:00       -5.373      -26.812      -23.039       15.727       16.181       15.939      247.324      261.821      254.051        0.102        0.038       27.345        4.835        0.031      334.679        4.808      869.138
12/05/2021  23:02:00      -25.660        4.391       -8.327       10.421       16.019       10.456      108.594      256.611      109.330        0.061        0.024       26.033       10.469        0.162      334.640        4.745      869.178
12/05/2021  23:03:00      -69.570       33.309      -13.726       15.415       19.313       13.071      237.611      372.998      170.839        0.346        0.039       77.133        9.099        0.014      334.504        4.519      869.213
12/05/2021  23:04:00      -50.498        6.536       -7.740       33.126       24.560       18.454     1097.359      603.192      340.558        0.235        0.102       50.919       11.998        0.056      334.498        4.508      869.221
12/05/2021  23:05:00      -43.408        6.295       -4.159       34.266       30.588       22.153     1174.151      935.629      490.750        0.227        0.130       43.862       17.763        0.164      334.459        4.444      869.209
12/05/2021  23:06:00      -39.222       -2.324        2.112       44.250       36.266       21.618     1958.072     1315.244      467.344        0.264        0.187       39.291       19.367        0.243      334.318        4.210      869.182
12/05/2021  23:07:00      -48.150       12.013       -0.303       57.135       31.207       23.513     3264.395      973.875      552.848        0.363        0.240       49.626       18.554        0.140      334.304        4.187      869.154
12/05/2021  23:08:00     -143.648      -31.344      -18.580       49.877       35.177       29.933     2487.710     1237.418      896.009        1.329        0.231      147.028       23.567        0.026      334.499        4.510      869.118
12/05/2021  23:09:00     -162.646      -26.883       -9.375       66.729       39.315       43.362     4452.704     1545.657     1880.282        1.757        0.394      164.853       39.522        0.057      334.458        4.442      869.094
12/05/2021  23:10:00     -179.809      -18.215       -4.760       86.352       55.681       35.617     7456.727     3100.357     1268.550        2.225        0.591      180.729       38.003        0.044      334.439        4.411      869.079
12/05/2021  23:11:00     -154.398      -19.740      -16.219       55.513       54.510       30.541     3081.693     2971.299      932.739        1.574        0.349      155.655       25.231        0.026      334.388        4.327      869.086
12/05/2021  23:12:00      -95.843        6.678       -6.180       48.366       37.198       23.327     2339.252     1383.723      544.165        0.677        0.213       96.075       26.113        0.074      334.321        4.215      869.106
12/05/2021  23:13:00     -101.112       27.508       -7.283       57.085       35.608       28.257     3258.647     1267.909      798.445        0.818        0.266      104.787       25.072        0.057      334.291        4.164      869.121
12/05/2021  23:14:00     -102.540       20.967        1.751       47.300       37.233       26.919     2237.321     1386.303      724.640        0.765        0.217      104.662       26.242        0.063      334.297        4.175      869.121
12/05/2021  23:15:00      -87.646       19.413        1.798       37.922       33.489       21.258     1438.109     1121.483      451.921        0.554        0.151       89.770       16.346        0.033      334.292        4.167      869.105
12/05/2021  23:16:00      -94.593       23.925       -9.460       36.849       23.879       18.774     1357.857      570.191      352.449        0.594        0.114       97.572       15.445        0.025      334.238        4.079      869.077
12/05/2021  23:17:00      -94.319       19.747      -12.682       30.485       22.959       20.697      929.361      527.101      428.356        0.567        0.094       96.364       15.697        0.027      334.359        4.279      869.049
12/05/2021  23:18:00      -65.184       -2.675       -4.229       31.601       27.116       19.056      998.602      735.264      363.122        0.319        0.105       65.239       18.128        0.077      334.341        4.249      869.026
12/05/2021  23:19:00      -51.838       -0.011       -2.878       28.680       26.191       16.450      822.541      685.964      270.590        0.224        0.089       51.838       10.408        0.040      334.401        4.349      869.022
12/05/2021  23:20:00     -114.488      -20.892      -10.306       36.120       24.087       20.749     1304.633      580.186      430.535        0.798        0.116      116.379       15.449        0.018      334.342        4.252      869.028
12/05/2021  23:21:00     -127.983      -31.811      -18.143       43.047       42.051       28.666     1853.041     1768.253      821.751        1.108        0.222      131.877       22.583        0.029      334.563        4.615      869.034
12/05/2021  23:22:00     -111.391      -28.024      -31.182       46.044       61.952       24.806     2120.084     3837.994      615.316        1.037        0.329      114.862        9.760        0.007      334.597        4.673      869.037
12/05/2021  23:23:00      -95.234       10.069       -9.437       51.229       36.639       39.213     2624.387     1342.426     1537.645        0.738        0.275       95.765       23.587        0.061      334.605        4.686      869.046
12/05/2021  23:24:00      -58.803      -13.087        0.115       60.400       36.621       31.251     3648.119     1341.103      976.620        0.480        0.298       60.242       27.151        0.203      334.553        4.599      869.063
12/05/2021  23:25:00      -56.847      -13.194       -9.029       40.320       42.725       26.502     1625.709     1825.454      702.350        0.382        0.208       58.358       13.084        0.050      334.569        4.626      869.071
12/05/2021  23:26:00      -65.220       -4.610       -3.594       57.036       27.363       29.849     3253.104      748.730      890.980        0.459        0.245       65.383       30.253        0.214      334.557        4.605      869.069
12/05/2021  23:27:00      -75.648       -3.088       -2.230       42.728       37.356       25.953     1825.683     1395.508      673.541        0.482        0.195       75.711       24.149        0.102      334.520        4.545      869.049
12/05/2021  23:28:00      -80.849       -0.477       -7.852       36.020       34.683       22.678     1297.450     1202.913      514.298        0.481        0.151       80.850       16.128        0.040      334.521        4.548      869.011
12/05/2021  23:29:00      -85.846      -22.202       -9.636       29.729       36.822       23.282      883.836     1355.889      542.074        0.537        0.139       88.670       14.610        0.027      334.512        4.533      868.983
12/05/2021  23:30:00      -40.813       -4.012       -8.126       40.667       26.268       22.806     1653.810      690.014      520.101        0.231        0.143       41.009       16.719        0.166      334.513        4.534      868.966
12/05/2021  23:31:00      -19.388       -7.607        1.204       45.114       24.225       22.402     2035.246      586.843      501.850        0.178        0.156       20.827       13.143        0.398      334.363        4.285      868.967
12/05/2021  23:32:00      -60.725       -4.270       -0.311       45.965       30.486       22.461     2112.740      929.379      504.495        0.363        0.177       60.875       21.170        0.121      334.365        4.290      868.969
12/05/2021  23:33:00      -90.679      -32.712      -12.224       37.996       66.622       32.117     1443.696     4438.528     1031.481        0.818        0.346       96.399       30.724        0.102      334.397        4.343      868.967
12/05/2021  23:34:00      -61.132       -7.025        3.356       76.612       44.912       26.074     5869.462     2017.059      679.856        0.618        0.428       61.534       30.241        0.242      334.403        4.352      868.951
12/05/2021  23:35:00      -55.785       13.380        7.922       45.865       33.067       27.512     2103.588     1093.431      756.897        0.365        0.198       57.367       26.841        0.219      334.267        4.128      868.945
12/05/2021  23:36:00      -79.599       24.997       -3.228       39.145       32.519       18.160     1532.338     1057.481      329.793        0.494        0.146       83.432       19.316        0.054      333.926        3.561      868.928
12/05/2021  23:37:00      -80.514       30.052       -2.329       32.441       31.141       22.662     1052.444      969.756      513.581        0.496        0.127       85.940       19.982        0.054      333.874        3.475      868.917
12/05/2021  23:38:00      -75.183       14.506       -1.401       28.572       28.560       21.832      816.339      815.667      476.639        0.399        0.105       76.570       17.229        0.051      333.967        3.632      868.926
12/05/2021  23:39:00      -96.596       23.634       -3.673       33.127       24.611       17.323     1097.430      605.711      300.080        0.595        0.100       99.445       16.515        0.028      334.054        3.773      868.940
12/05/2021  23:40:00      -86.951        8.478       -2.471       45.740       27.582       20.197     2092.171      760.777      407.924        0.545        0.163       87.364       17.843        0.042      334.066        3.793      868.957
12/05/2021  23:41:00     -130.550       14.150       -8.673       35.245       27.649       20.475     1242.203      764.483      419.211        0.987        0.121      131.315       16.783        0.016      334.097        3.844      868.969
12/05/2021  23:42:00     -115.288       29.113        1.153       43.555       27.144       25.249     1897.000      736.800      637.517        0.871        0.164      118.907       23.305        0.038      333.994        3.675      868.986
12/05/2021  23:43:00      -75.562        6.336       -5.862       37.134       30.145       21.060     1378.925      908.730      443.520        0.426        0.137       75.827       13.976        0.034      333.995        3.675      869.000
12/05/2021  23:44:00      -46.688       -6.424       -9.112       39.795       23.705       22.110     1583.648      561.926      488.852        0.247        0.132       47.128       24.920        0.280      333.920        3.553      869.011
12/05/2021  23:45:00      -31.454       -2.757       -3.940       29.923       25.425       16.120      895.382      646.420      259.841        0.141        0.090       31.575       11.528        0.133      333.883        3.490      869.020
12/05/2021  23:46:00      -66.604       11.182       -7.113       30.663       21.347       17.169      940.250      455.684      294.787        0.315        0.085       67.536       12.494        0.034      333.927        3.564      869.029
12/05/2021  23:47:00      -69.759       -9.331       -1.957       31.331       22.485       16.568      981.626      505.582      274.506        0.336        0.088       70.380       11.772        0.028      333.985        3.660      869.037
12/05/2021  23:48:00      -71.243       -7.619       -3.082       25.382       23.883       19.046      644.236      570.420      362.745        0.336        0.079       71.650       18.273        0.065      333.968        3.633      869.039
12/05/2021  23:49:00      -84.067        9.708       -4.916       32.276       24.511       17.209     1041.755      600.767      296.149        0.456        0.097       84.626       15.607        0.034      333.949        3.599      869.021
12/05/2021  23:50:00      -90.014        4.423       -5.491       27.574       25.706       17.765      760.349      660.783      315.595        0.494        0.087       90.122       11.798        0.017      333.972        3.639      868.985
12/05/2021  23:51:00      -47.731        7.288       -1.986       40.689       24.661       17.580     1655.576      608.158      309.053        0.245        0.129       48.285       19.359        0.161      333.944        3.592      868.937
12/05/2021  23:52:00      -57.728       10.198      -11.981       36.718       21.083       15.151     1348.211      444.484      229.559        0.280        0.101       58.622       10.768        0.034      333.966        3.628      868.904
12/05/2021  23:53:00      -55.684       10.488       -2.376       36.672       21.607       10.411     1344.856      466.871      108.380        0.257        0.096       56.663       13.784        0.059      333.897        3.514      868.896
12/05/2021  23:54:00      -58.334       11.115      -10.444       18.082       15.700       11.710      326.973      246.479      137.120        0.217        0.036       59.383        8.512        0.021      333.906        3.528      868.905
12/05/2021  23:55:00      -67.941       25.689      -10.628       11.798       13.205       10.939      139.186      174.375      119.659        0.291        0.022       72.635        7.019        0.009      333.830        3.403      868.920
12/05/2021  23:56:00      -68.182       10.892      -21.135       15.895        8.231        9.467      252.657       67.754       89.621        0.281        0.021       69.047        4.631        0.004      333.811        3.372      868.938
12/05/2021  23:57:00      -90.836       10.144      -18.820       20.146       14.928       11.435      405.864      222.843      130.759        0.473        0.038       91.400        5.990        0.004      333.819        3.384      868.936
12/05/2021  23:58:00      -73.460        4.148       -9.170       32.636       18.921       13.441     1065.141      357.992      180.652        0.355        0.080       73.577       12.395        0.028      333.880        3.486      868.931
12/05/2021  23:59:00      -54.200      -12.543       -9.329       19.061       26.712       16.091      363.340      713.534      258.907        0.226        0.067       55.632        9.769        0.031      333.907        3.533      868.911
12/06/2021  00:00:00      -64.780      -28.156      -18.264       13.850       12.521       12.737      191.835      156.774      162.228        0.292        0.026       70.634        9.092        0.017      334.061        3.787      868.881
12/06/2021  00:01:00      -61.098       -9.776      -12.853       16.887       18.074       16.987      285.180      326.668      288.553        0.245        0.045       61.875       10.291        0.028      334.128        3.897      868.851
12/06/2021  00:02:00      -73.644      -15.561       -6.244       59.188       23.821       21.023     3503.239      567.448      441.967        0.511        0.226       75.270       20.517        0.074      333.978        3.648      868.825
12/06/2021  00:03:00      -93.147      -19.925      -18.823       22.646       28.554       20.889      512.855      815.348      436.338        0.560        0.088       95.254       18.052        0.036      334.122        3.885      868.805
12/06/2021  00:04:00      -53.406       -1.178       -5.138       32.352       21.314       20.275     1046.628      454.272      411.087        0.240        0.096       53.419       20.158        0.142      334.158        3.946      868.793
12/06/2021  00:05:00      -34.763        2.077       -1.237       32.354       19.370       15.471     1046.804      375.206      239.337        0.144        0.083       34.825       12.091        0.121      334.079        3.814      868.784
12/06/2021  00:06:00      -37.480       14.315       -3.713       27.537       18.858       13.318      758.304      355.631      177.382        0.146        0.065       40.121        9.053        0.051      334.000        3.685      868.786
12/06/2021  00:07:00      -66.848       -1.488       -5.457       19.621       24.338       16.646      384.973      592.318      277.086        0.288        0.063       66.864       12.533        0.035      334.052        3.770      868.782
12/06/2021  00:08:00      -46.584       -3.320       -7.670       37.361       24.530       18.807     1395.874      601.725      353.690        0.230        0.118       46.703       18.247        0.153      334.039        3.749      868.774
12/06/2021  00:09:00     -115.830      -11.280       -6.622       41.947       29.593       26.254     1759.546      875.729      689.265        0.846        0.166      116.378       23.009        0.039      333.973        3.640      868.788
12/06/2021  00:10:00      -85.702       17.486       -5.388       41.482       27.926       19.336     1720.727      779.855      373.881        0.528        0.144       87.468       20.428        0.055      333.893        3.507      868.815
12/06/2021  00:11:00     -105.670       32.922       -2.244       37.617       24.980       18.156     1415.047      624.018      329.623        0.731        0.118      110.680       17.845        0.026      333.779        3.318      868.852
12/06/2021  00:12:00     -110.584       22.552      -10.186       26.855       28.696       19.376      721.192      823.435      375.435        0.738        0.096      112.860       15.517        0.019      333.822        3.391      868.885
12/06/2021  00:13:00      -61.843        5.945      -10.376       50.322       31.703       23.336     2532.307     1005.080      544.588        0.402        0.204       62.128       13.614        0.048      333.890        3.503      868.911
12/06/2021  00:14:00      -82.784       15.636       -8.812       36.985       24.363       22.631     1367.879      593.551      512.154        0.482        0.124       84.248       17.509        0.043      333.842        3.423      868.921
12/06/2021  00:15:00     -114.564       21.499       -5.851       31.186       20.182       18.518      972.548      407.330      342.923        0.767        0.086      116.564       18.522        0.025      333.840        3.420      868.927
12/06/2021  00:16:00      -83.106       -4.940       -9.516       26.393       22.010       17.957      696.610      484.434      322.445        0.426        0.075       83.253       11.866        0.020      333.890        3.503      868.922
12/06/2021  00:17:00     -105.414       10.455      -13.670       29.952       17.375       12.314      897.149      301.902      151.627        0.638        0.068      105.931        8.631        0.007      333.933        3.572      868.903
12/06/2021  00:18:00     -105.568       19.822       -7.379       34.259       19.833       16.842     1173.662      393.361      283.650        0.672        0.093      107.413       12.185        0.013      333.988        3.665      868.876
12/06/2021  00:19:00      -64.230        5.161       -0.193       35.672       29.713       18.738     1272.477      882.889      351.101        0.333        0.125       64.437       15.171        0.055      334.034        3.743      868.838
12/06/2021  00:20:00      -79.754        9.042       -7.730       28.447       23.732       20.735      809.248      563.199      429.959        0.415        0.090       80.264        9.201        0.013      333.983        3.657      868.800
12/06/2021  00:21:00      -74.988        7.629       -7.229       29.080       23.473       19.474      845.672      550.986      379.222        0.375        0.089       75.375       13.054        0.030      334.082        3.819      868.774
12/06/2021  00:22:00      -45.266        5.098       -3.641       37.960       23.874       20.042     1440.937      569.960      401.669        0.225        0.121       45.552       14.704        0.104      333.972        3.638      868.771
12/06/2021  00:23:00      -35.591        6.803       -3.093       40.265       22.912       20.534     1621.257      524.952      421.629        0.194        0.128       36.235       18.236        0.253      333.923        3.557      868.786
12/06/2021  00:24:00        5.166       -0.383        6.556       22.440       18.314       15.602      503.553      335.414      243.415        0.058        0.054        5.180       11.435        4.873      333.815        3.377      868.807
12/06/2021  00:25:00      -57.316        2.125       -2.512       35.952       26.778       21.472     1292.531      717.084      461.051        0.288        0.124       57.355       15.927        0.077      333.852        3.439      868.819
12/06/2021  00:26:00      -70.151        1.366       -6.796       32.057       29.707       17.297     1027.670      882.526      299.202        0.359        0.110       70.164       14.239        0.041      333.906        3.529      868.813
12/06/2021  00:27:00      -25.169       -9.120        3.427       29.778       19.360       15.966      886.739      374.793      254.900        0.112        0.076       26.770       15.745        0.346      333.917        3.547      868.802
12/06/2021  00:28:00      -80.626       -3.128       -2.903       35.773       22.806       22.930     1279.733      520.123      525.776        0.442        0.116       80.687       20.876        0.067      333.926        3.563      868.793
12/06/2021  00:29:00      -76.735       -6.403       -4.552       30.169       22.616       19.047      910.166      511.468      362.790        0.387        0.089       77.001       16.994        0.049      333.920        3.551      868.784
12/06/2021  00:30:00      -64.283       -4.107       -8.803       33.164       15.652       18.188     1099.834      244.981      330.811        0.295        0.084       64.414       17.518        0.074      333.998        3.681      868.787
12/06/2021  00:31:00      -91.062      -18.728       -7.577       30.469       25.932       19.171      928.339      672.451      367.535        0.533        0.098       92.968       17.197        0.034      334.059        3.781      868.814
12/06/2021  00:32:00     -109.697      -23.842      -12.237       32.626       16.780       16.792     1064.442      281.576      281.978        0.719        0.081      112.258       14.960        0.018      334.199        4.013      868.829
12/06/2021  00:33:00      -99.182       -9.122      -12.335       21.096       23.656       13.978      445.022      559.603      195.391        0.564        0.060       99.600       10.059        0.010      334.196        4.008      868.837
12/06/2021  00:34:00      -92.201      -12.793      -15.054       27.029       18.026       16.631      730.559      324.924      276.575        0.511        0.067       93.084       15.649        0.028      334.220        4.047      868.842
12/06/2021  00:35:00      -41.884       -9.712       -9.639       21.562       18.690       19.300      464.909      349.305      372.493        0.156        0.059       42.996        7.238        0.028      334.188        3.996      868.850
12/06/2021  00:36:00       -8.250        3.850       -3.622       19.973       17.379       14.552      398.908      302.037      211.775        0.050        0.046        9.104       12.966        2.028      334.053        3.771      868.865
12/06/2021  00:37:00      -56.262      -18.930      -12.039       32.199       16.493       19.657     1036.778      272.003      386.406        0.268        0.085       59.361       11.422        0.037      334.019        3.718      868.888
12/06/2021  00:38:00      -30.466       -0.164       -0.381       13.629       16.983       11.424      185.740      288.411      130.509        0.077        0.030       30.467        9.097        0.089      333.982        3.654      868.915
12/06/2021  00:39:00      -11.227       -2.578       -6.629       13.540       10.952       10.467      183.332      119.936      109.560        0.029        0.021       11.519        5.530        0.230      334.001        3.686      868.939
12/06/2021  00:40:00      -11.807       -5.786       -5.046       10.741        9.701        9.652      115.359       94.107       93.166        0.025        0.015       13.149        7.668        0.340      333.971        3.637      868.935
12/06/2021  00:41:00      -33.188      -25.594      -16.713       15.029       10.043       10.600      225.885      100.872      112.364        0.124        0.022       41.910        5.935        0.020      333.983        3.656      868.920
12/06/2021  00:42:00      -68.455      -32.023      -20.854       27.502       17.081       11.418      756.341      291.778      130.380        0.366        0.059       75.575        7.946        0.011      334.088        3.831      868.900
12/06/2021  00:43:00      -89.405      -16.936       -6.361       25.320       33.389       15.281      641.077     1114.809      233.524        0.515        0.099       90.995       10.127        0.012      334.187        3.993      868.894
12/06/2021  00:44:00      -36.560        2.481       -6.767       24.835       17.668       12.768      616.773      312.164      163.019        0.124        0.055       36.644       10.184        0.077      334.187        3.995      868.899
12/06/2021  00:45:00      -67.326        7.917       -8.379       26.824       22.891       19.177      719.521      524.011      367.768        0.314        0.081       67.790       12.212        0.032      334.052        3.770      868.916
12/06/2021  00:46:00      -28.585       -1.741       -1.000       26.992       12.144       11.451      728.592      147.468      131.115        0.091        0.050       28.638       13.737        0.230      333.970        3.636      868.924
12/06/2021  00:47:00      -11.877       -1.658        2.242       17.515       19.278       12.676      306.764      371.634      160.670        0.049        0.042       11.992        8.334        0.483      334.008        3.696      868.917
12/06/2021  00:48:00      -33.780       14.099       -7.072        9.505       12.344        8.896       90.353      152.382       79.133        0.086        0.016       36.604        5.319        0.021      333.912        3.541      868.899
12/06/2021  00:49:00      -28.444        5.084      -10.417       15.785        9.346        9.749      249.162       87.351       95.045        0.069        0.022       28.894        8.220        0.081      333.912        3.540      868.879
12/06/2021  00:50:00      -33.098        2.740       -2.433       15.548       11.812       12.482      241.731      139.524      155.811        0.082        0.027       33.211       10.868        0.107      333.941        3.586      868.852
12/06/2021  00:51:00      -39.858       13.441       -6.521       19.755       10.583       12.317      390.260      112.005      151.700        0.123        0.033       42.063        6.255        0.022      333.949        3.600      868.831
12/06/2021  00:52:00       -9.686      -15.090      -12.432       11.716       14.501        7.100      137.262      210.279       50.410        0.044        0.020       17.931        6.565        0.134      334.003        3.691      868.800
12/06/2021  00:53:00      -36.822      -25.692      -21.341       11.796       11.721        8.056      139.139      137.383       64.895        0.141        0.017       44.899        4.306        0.009      333.930        3.568      868.773
12/06/2021  00:54:00       -6.035        8.862       -2.716        9.939       13.089       13.191       98.774      171.316      174.001        0.028        0.022       10.721        5.488        0.262      333.866        3.462      868.732
12/06/2021  00:55:00      -29.494        0.098       -5.426       14.578       16.555        9.132      212.512      274.052       83.398        0.073        0.028       29.494        4.930        0.028      334.013        3.706      868.679
12/06/2021  00:56:00      -29.290       13.946       -8.714       11.658       10.796       12.503      135.920      116.559      156.320        0.077        0.020       32.440        5.778        0.032      334.081        3.819      868.628
12/06/2021  00:57:00       -7.644      -14.482       -1.993       10.158       13.085       12.342      103.182      171.223      152.332        0.035        0.021       16.376        7.587        0.215      333.985        3.661      868.588
12/06/2021  00:58:00      -78.760      -52.058        1.388       49.172       48.154       24.048     2417.860     2318.841      578.293        0.711        0.266       94.410       24.926        0.070      334.024        3.725      868.559
12/06/2021  00:59:00      -62.351      -27.481      -12.127       23.480       29.260       15.013      551.288      856.144      225.398        0.321        0.082       68.138        7.758        0.013      333.980        3.651      868.529
12/06/2021  01:00:00      -97.430      -45.411      -14.329       32.105       38.230       17.884     1030.725     1461.544      319.830        0.729        0.141      107.493       11.467        0.011      334.008        3.697      868.511
12/06/2021  01:01:00      -91.228      -10.134      -10.715       28.299       21.224       18.124      800.823      450.469      328.472        0.506        0.079       91.789       11.994        0.017      333.980        3.652      868.495
12/06/2021  01:02:00      -46.270      -16.573        0.039       46.726       25.278       22.931     2183.303      638.958      525.843        0.288        0.167       49.148       23.124        0.221      333.941        3.587      868.484
12/06/2021  01:03:00      -14.579       -2.602        3.772       45.518       29.208       20.422     2071.885      853.122      417.073        0.179        0.167       14.809       22.597        2.328      333.920        3.553      868.465
12/06/2021  01:04:00      -27.407       -2.344       -3.672       21.777       21.009       11.650      474.242      441.395      135.713        0.091        0.053       27.508        3.967        0.021      333.972        3.638      868.474
12/06/2021  01:05:00      -72.453      -10.461       -0.472       48.499       35.927       22.260     2352.189     1290.745      495.504        0.475        0.207       73.204       20.618        0.079      333.927        3.565      868.493
12/06/2021  01:06:00      -92.540       11.020       -2.425       46.461       32.375       22.625     2158.582     1048.140      511.909        0.620        0.186       93.194       17.803        0.036      333.808        3.366      868.520
12/06/2021  01:07:00      -61.746       10.604       -0.097       41.432       23.400       17.556     1716.576      547.576      308.230        0.325        0.129       62.650       11.451        0.033      333.622        3.059      868.546
12/06/2021  01:08:00      -74.512       14.446       -4.409       42.533       28.838       18.756     1809.074      831.620      351.778        0.439        0.150       75.900       12.046        0.025      333.654        3.112      868.570
12/06/2021  01:09:00      -64.588       11.372       -4.328       34.939       27.190       23.081     1220.709      739.294      532.732        0.341        0.125       65.581       14.373        0.048      333.587        3.000      868.589
12/06/2021  01:10:00      -90.027       29.849       -8.429       41.323       29.173       20.371     1707.577      851.079      414.983        0.602        0.149       94.846       14.044        0.022      333.525        2.896      868.594
12/06/2021  01:11:00      -71.177       21.915       -1.196       54.306       29.426       22.600     2949.128      865.899      510.742        0.494        0.216       74.475       27.158        0.133      333.471        2.807      868.583
12/06/2021  01:12:00      -55.431        7.736       -5.489       37.674       23.412       19.400     1419.327      548.130      376.344        0.275        0.117       55.968       18.033        0.104      333.532        2.908      868.553
12/06/2021  01:13:00      -74.295       11.444       -9.968       39.779       21.556       23.166     1582.357      464.673      536.651        0.417        0.129       75.171       24.432        0.106      333.570        2.973      868.521
12/06/2021  01:14:00      -74.750       13.469       -3.178       31.273       24.334       21.404      978.007      592.141      458.152        0.390        0.101       75.954       16.613        0.048      333.511        2.877      868.488
12/06/2021  01:15:00      -78.415       20.564       -8.097       23.696       21.801       13.147      561.494      475.294      172.855        0.392        0.060       81.066       10.805        0.018      333.512        2.875      868.465
12/06/2021  01:16:00      -55.637       15.503       -6.182       23.541       25.767       16.589      554.190      663.958      275.185        0.243        0.075       57.757       12.905        0.050      333.519        2.888      868.441
12/06/2021  01:17:00      -51.365       16.305       -9.043       14.699       13.384       10.887      216.067      179.130      118.534        0.175        0.026       53.891        7.267        0.018      333.561        2.957      868.410
12/06/2021  01:18:00      -26.623       -7.602       -7.385       27.741       18.049       14.531      769.549      325.759      211.156        0.106        0.065       27.687       15.484        0.313      333.660        3.121      868.393
12/06/2021  01:19:00      -17.175        5.074       -6.463       10.522        5.969        7.625      110.721       35.634       58.135        0.028        0.010       17.909        6.060        0.114      333.637        3.082      868.389
12/06/2021  01:20:00       -7.122      -11.797       -7.861        8.682       15.112        7.175       75.379      228.382       51.483        0.030        0.018       13.780        3.862        0.079      333.703        3.195      868.391
12/06/2021  01:21:00      -13.781        2.691       -3.000       12.569       15.760        9.263      157.979      248.371       85.809        0.035        0.025       14.041        6.420        0.209      333.756        3.279      868.398
12/06/2021  01:22:00      -44.897       17.994       -5.367       20.210       16.089        9.485      408.463      258.840       89.972        0.156        0.038       48.369        4.994        0.011      333.610        3.039      868.389
12/06/2021  01:23:00      -18.407       -7.695      -11.591       15.158       13.703        7.084      229.765      187.785       50.178        0.050        0.023       19.950        7.424        0.138      333.596        3.017      868.372
12/06/2021  01:24:00      -11.528       -3.810       -3.067        8.785        8.583        9.496       77.181       73.665       90.171        0.020        0.012       12.141        4.659        0.147      333.700        3.188      868.383
12/06/2021  01:25:00      -22.842        7.284      -15.034        8.193        7.709        8.682       67.122       59.422       75.374        0.050        0.010       23.975        4.928        0.042      333.724        3.224      868.396
12/06/2021  01:26:00      -33.429        7.005      -10.874        6.782        7.089        6.416       45.999       50.259       41.159        0.071        0.007       34.155        3.518        0.011      333.734        3.242      868.397
12/06/2021  01:27:00       -0.444       -7.227       -5.458       10.602        9.386        8.056      112.397       88.098       64.904        0.017        0.013        7.241        7.054        0.949      333.719        3.217      868.406
12/06/2021  01:28:00      -19.140      -20.105      -12.377        9.104       10.237        9.356       82.889      104.796       87.543        0.060        0.014       27.759        7.249        0.068      333.736        3.247      868.406
12/06/2021  01:29:00      -25.726      -21.531       -3.909       22.414       26.839       16.701      502.369      720.340      278.909        0.132        0.075       33.547        9.209        0.075      333.783        3.324      868.406
12/06/2021  01:30:00       -2.841        6.879       -6.371       15.176       12.409       11.820      230.325      153.983      139.715        0.031        0.026        7.443        7.707        1.072      333.601        3.024      868.396
12/06/2021  01:31:00        6.078       -0.745       -7.251        6.609        5.997        3.877       43.674       35.963       15.030        0.009        0.005        6.124        3.443        0.316      333.646        3.100      868.390
12/06/2021  01:32:00      -11.016       -2.135       -2.123        8.844       13.441        7.511       78.210      180.658       56.415        0.022        0.016       11.221        4.768        0.181      333.670        3.139      868.393
12/06/2021  01:33:00      -14.666       -9.818      -16.219        8.417        8.678        7.889       70.841       75.313       62.238        0.039        0.010       17.649        4.319        0.060      333.515        2.880      868.384
12/06/2021  01:34:00      -14.447      -11.734      -20.655       11.851       12.910       13.694      140.451      166.668      187.533        0.063        0.025       18.611        8.231        0.196      333.656        3.114      868.369
12/06/2021  01:35:00      -14.952      -25.004       -8.893       24.993       16.985       17.950      624.631      288.474      322.214        0.108        0.062       29.133        8.794        0.091      333.732        3.240      868.347
12/06/2021  01:36:00      -27.644       16.088       -1.336       19.688       15.444       11.074      387.635      238.510      122.635        0.089        0.037       31.985       10.115        0.100      333.608        3.035      868.318
12/06/2021  01:37:00      -20.878        9.763       -5.125       14.951        9.548       12.089      223.528       91.165      146.145        0.051        0.023       23.048       11.414        0.245      333.396        2.685      868.293
12/06/2021  01:38:00      -18.758       11.421       -5.094       17.713       18.694       11.519      313.762      349.479      132.692        0.065        0.040       21.961        9.538        0.189      333.425        2.732      868.264
12/06/2021  01:39:00      -33.530       -5.431       -8.366       30.601       21.698       17.510      936.424      470.784      306.617        0.147        0.086       33.967       18.086        0.284      333.372        2.644      868.248
12/06/2021  01:40:00      -23.150        3.175       -5.315       35.179       14.915       16.015     1237.566      222.450      256.492        0.115        0.086       23.367       14.056        0.362      333.311        2.544      868.251
12/06/2021  01:41:00      -60.676       13.895       -5.191       34.807       22.216       12.755     1211.516      493.572      162.684        0.288        0.093       62.247       13.367        0.046      333.300        2.524      868.264
12/06/2021  01:42:00      -83.729       15.644       -2.482       28.141       20.325       15.275      791.905      413.099      233.322        0.435        0.072       85.178       14.517        0.029      333.263        2.464      868.277
12/06/2021  01:43:00      -86.866       24.095       -7.469       22.331       22.675       19.215      498.684      514.173      369.201        0.478        0.069       90.146       11.693        0.017      333.111        2.212      868.280
12/06/2021  01:44:00      -61.904       19.196       -1.560       19.981       23.176       14.859      399.260      537.125      220.799        0.268        0.058       64.812        6.762        0.011      333.060        2.128      868.242
12/06/2021  01:45:00      -24.327       -4.665       -7.339       22.985       18.570       12.155      528.320      344.829      147.749        0.084        0.051       24.770       10.679        0.186      333.211        2.378      868.188
12/06/2021  01:46:00      -67.168        2.855      -17.923       28.496       13.924       12.201      812.020      193.889      148.861        0.300        0.058       67.229       11.747        0.031      333.317        2.553      868.144
12/06/2021  01:47:00      -79.614       15.862       -4.819       25.287       16.829       13.864      639.451      283.228      192.206        0.386        0.056       81.178       12.090        0.022      333.251        2.444      868.128
12/06/2021  01:48:00      -70.513       16.429       -3.302       30.509       20.628       17.647      930.769      425.522      311.401        0.346        0.083       72.401       15.771        0.047      333.222        2.396      868.142
12/06/2021  01:49:00      -83.053       14.422       -0.798       37.977       29.533       20.831     1442.278      872.195      433.911        0.493        0.137       84.296       19.484        0.053      333.170        2.310      868.148
12/06/2021  01:50:00      -91.643       11.390       -3.287       34.694       26.323       21.218     1203.706      692.907      450.194        0.544        0.117       92.348       19.716        0.046      333.119        2.225      868.165
12/06/2021  01:51:00     -103.445       35.963       -3.613       31.993       21.360       18.690     1023.529      456.254      349.326        0.692        0.091      109.518       15.995        0.021      333.046        2.105      868.174
12/06/2021  01:52:00      -89.852       22.736       -3.517       38.709       25.684       17.716     1498.415      659.650      313.863        0.554        0.124       92.684       18.260        0.039      333.051        2.114      868.192
12/06/2021  01:53:00      -98.447       20.484       -4.415       25.543       22.550       20.460      652.449      508.500      418.631        0.585        0.079      100.556       18.515        0.034      332.994        2.020      868.201
12/06/2021  01:54:00      -62.922        6.821      -12.858       39.032       20.575       16.180     1523.502      423.334      261.784        0.319        0.110       63.291       11.806        0.035      333.077        2.156      868.196
12/06/2021  01:55:00      -19.056       -1.602       -7.675       27.564       29.358       20.483      759.779      861.885      419.557        0.123        0.102       19.123       14.673        0.589      333.033        2.083      868.190
12/06/2021  01:56:00      -73.150       10.589      -11.717       41.930       37.100       21.153     1758.146     1376.443      447.470        0.459        0.179       73.912       16.686        0.051      333.039        2.094      868.188
12/06/2021  01:57:00      -62.098       10.828       -4.454       63.167       32.169       21.678     3990.087     1034.863      469.938        0.474        0.275       63.034       25.295        0.161      333.011        2.048      868.192
12/06/2021  01:58:00       10.447       -1.423       -0.030       22.295       24.270       20.805      497.061      589.025      432.839        0.081        0.076       10.544        9.235        0.767      332.924        1.903      868.186
12/06/2021  01:59:00      -21.982        8.070      -10.027       36.727       26.421       28.096     1348.891      698.067      789.360        0.174        0.142       23.416       21.572        0.849      332.908        1.877      868.178
12/06/2021  02:00:00      -13.890       -5.720       -5.988       38.163       23.993       20.732     1456.378      575.683      429.823        0.136        0.123       15.021       12.654        0.710      332.895        1.857      868.161
12/06/2021  02:01:00     -114.088       22.075       -8.760       35.073       22.566       20.693     1230.095      509.218      428.188        0.787        0.108      116.204       15.315        0.017      332.872        1.818      868.162
12/06/2021  02:02:00     -102.617       36.083       -8.780       40.381       21.191       20.130     1630.599      449.050      405.228        0.720        0.124      108.776       19.429        0.032      332.839        1.764      868.162
12/06/2021  02:03:00      -46.712       21.838      -11.146       31.247       22.511       17.119      976.346      506.743      293.062        0.228        0.089       51.565       14.099        0.075      332.940        1.930      868.145
12/06/2021  02:04:00      -30.389       -6.724      -11.772       38.961       23.677       14.963     1517.933      560.584      223.883        0.170        0.115       31.124       15.143        0.237      332.938        1.927      868.121
12/06/2021  02:05:00      -12.315      -21.183       -6.004       27.767       20.353       18.542      771.016      414.262      343.804        0.108        0.076       24.502       10.951        0.200      333.011        2.047      868.099
12/06/2021  02:06:00       -6.260       -9.086      -17.080        8.904        9.693        8.575       79.278       93.961       73.531        0.033        0.012       11.034        6.385        0.335      333.089        2.176      868.081
12/06/2021  02:07:00      -50.593       16.422      -11.731       19.139       13.934        6.785      366.300      194.168       46.034        0.179        0.030       53.192        7.571        0.020      333.037        2.090      868.078
12/06/2021  02:08:00      -58.908       33.828      -11.246       10.831       10.702        8.547      117.311      114.524       73.057        0.252        0.015       67.930        6.788        0.010      333.131        2.246      868.096
12/06/2021  02:09:00      -68.729       24.705      -18.529       16.420       23.462       16.333      269.611      550.471      266.773        0.338        0.054       73.034       11.154        0.023      333.078        2.159      868.118
12/06/2021  02:10:00     -103.788       39.509      -14.334       16.494       14.891       12.601      272.062      221.735      158.773        0.660        0.033      111.053        8.980        0.007      333.060        2.130      868.138
12/06/2021  02:11:00     -102.621       33.464      -11.890       22.975       19.438       17.051      527.831      377.830      290.723        0.649        0.060      107.940       13.205        0.015      332.999        2.027      868.147
12/06/2021  02:12:00      -72.501       32.800       -6.338       38.313       24.785       18.043     1467.914      614.306      325.552        0.439        0.120       79.576       11.624        0.021      332.989        2.012      868.124
12/06/2021  02:13:00      -72.734       13.614       -5.551       24.098       27.680       16.173      580.736      766.184      261.552        0.356        0.080       73.998       13.890        0.035      333.078        2.158      868.099
12/06/2021  02:14:00     -101.272       29.415      -15.382       30.817       25.003       17.281      949.681      625.136      298.645        0.662        0.094      105.458       13.879        0.017      333.031        2.082      868.078
12/06/2021  02:15:00      -73.463       14.741        8.337       56.832       27.406       23.591     3229.839      751.112      556.516        0.511        0.227       74.928       30.155        0.162      333.004        2.036      868.072
12/06/2021  02:16:00      -94.768       31.222       -2.943       41.276       32.124       19.986     1703.731     1031.922      399.424        0.655        0.157       99.779       12.663        0.016      333.026        2.073      868.068
12/06/2021  02:17:00       -5.517      -24.162        1.211       20.669       24.702       21.442      427.201      610.188      459.757        0.106        0.075       24.784        9.338        0.142      333.109        2.210      868.061
12/06/2021  02:18:00     -106.087       16.067       -3.110       43.278       34.940       25.165     1872.964     1220.775      633.260        0.762        0.186      107.297       16.543        0.024      333.115        2.221      868.046
12/06/2021  02:19:00      -54.410        5.255       -3.149       38.003       26.195       18.487     1444.213      686.171      341.782        0.273        0.124       54.663       19.231        0.124      333.139        2.260      868.034
12/06/2021  02:20:00     -100.848        2.708      -11.472       29.472       18.166       17.676      868.599      330.011      312.443        0.591        0.076      100.885       11.717        0.013      333.185        2.336      868.013
12/06/2021  02:21:00      -76.295      -14.864       -7.099       36.493       26.675       19.376     1331.706      711.577      375.440        0.426        0.121       77.729       20.537        0.070      333.272        2.478      867.995
12/06/2021  02:22:00      -65.146       -8.286        0.976       37.749       26.520       20.740     1424.992      703.292      430.164        0.344        0.128       65.671       16.321        0.062      333.300        2.525      867.964
12/06/2021  02:23:00      -62.279      -13.212       -4.609       44.609       25.160       19.405     1989.955      633.022      376.568        0.354        0.150       63.665       14.913        0.055      333.276        2.485      867.943
12/06/2021  02:24:00      -87.902        2.530       -4.341       44.597       26.414       14.083     1988.867      697.688      198.327        0.532        0.144       87.939       15.322        0.030      333.399        2.690      867.928
12/06/2021  02:25:00      -72.606       20.714       -6.210       41.075       22.902       18.091     1687.166      524.506      327.273        0.414        0.127       75.503       16.535        0.048      333.362        2.627      867.916
12/06/2021  02:26:00      -96.207       25.171        1.970       45.189       33.619       22.133     2042.064     1130.238      489.850        0.678        0.183       99.445       22.099        0.049      333.271        2.477      867.914
12/06/2021  02:27:00      -58.156      -10.837       -2.857       44.702       40.556       22.812     1998.294     1644.786      520.365        0.383        0.208       59.157       18.582        0.099      333.169        2.308      867.920
12/06/2021  02:28:00      -71.962        3.405       -4.566       37.811       34.970       22.239     1429.642     1222.935      494.563        0.418        0.157       72.043       18.950        0.069      333.159        2.291      867.926
12/06/2021  02:29:00      -46.717       23.872       -7.039       44.684       29.964       28.116     1996.680      897.850      790.536        0.324        0.184       52.463       24.928        0.226      333.139        2.260      867.933
12/06/2021  02:30:00      -92.546       21.144      -10.162       37.347       19.666       13.548     1394.823      386.756      183.540        0.554        0.098       94.930       16.200        0.029      333.153        2.282      867.938
12/06/2021  02:31:00      -96.284       19.995       -6.049       15.925       14.936       13.314      253.594      223.083      177.268        0.518        0.033       98.338        7.583        0.006      333.180        2.326      867.943
12/06/2021  02:32:00      -64.981       10.376       -7.053       29.713       21.296       18.065      882.834      453.529      326.360        0.302        0.083       65.804       17.614        0.072      333.187        2.339      867.945
12/06/2021  02:33:00      -42.026        5.095       -6.733       23.479       15.302       14.317      551.248      234.142      204.983        0.141        0.050       42.334       15.323        0.131      333.408        2.703      867.948
12/06/2021  02:34:00      -19.719       13.573       -3.446       20.134       17.839       15.756      405.396      318.233      248.238        0.078        0.049       23.939       13.724        0.329      333.281        2.494      867.955
12/06/2021  02:35:00      -19.488        1.491       -2.420       17.521       14.839       12.198      306.975      220.190      148.780        0.053        0.034       19.545        5.635        0.083      333.266        2.470      867.964
12/06/2021  02:36:00       -4.617       -8.380       -5.018       19.454       13.412        9.991      378.456      179.874       99.811        0.039        0.033        9.568        7.778        0.661      333.299        2.524      867.961
12/06/2021  02:37:00       -9.683        6.683       -8.345        6.160        8.786        9.540       37.948       77.187       91.014        0.021        0.010       11.765        7.879        0.448      333.222        2.394      867.944
12/06/2021  02:38:00      -21.410       11.892      -10.822        8.039        5.342        7.907       64.627       28.537       62.518        0.044        0.008       24.491        2.967        0.015      333.252        2.447      867.912
12/06/2021  02:39:00       -6.860       -3.857       -7.409        8.383       10.607        8.141       70.276      112.504       66.283        0.018        0.012        7.870        2.831        0.129      333.395        2.683      867.866
12/06/2021  02:40:00       -2.544        2.734       -2.050        3.496        4.067        4.356       12.219       16.544       18.974        0.003        0.002        3.734        2.656        0.506      333.494        2.845      867.819
12/06/2021  02:41:00       -6.563        9.869       -4.483        6.059        7.148        4.480       36.708       51.096       20.067        0.013        0.005       11.852        2.256        0.036      333.623        3.058      867.797
12/06/2021  02:42:00      -21.027       24.228       -6.616       10.962       10.428        5.571      120.155      108.746       31.037        0.067        0.013       32.080        3.445        0.012      333.595        3.012      867.788
12/06/2021  02:43:00      -65.482       27.919      -13.041       15.732        9.794        8.777      247.481       95.930       77.030        0.283        0.021       71.185        6.805        0.009      333.442        2.761      867.796
12/06/2021  02:44:00      -84.348       27.356       -7.815       26.990       15.618       15.105      728.452      243.907      228.148        0.456        0.060       88.673       13.870        0.024      333.311        2.543      867.792
12/06/2021  02:45:00      -78.117       34.618      -12.778       18.831       12.687       11.583      354.606      160.963      134.159        0.406        0.032       85.444        9.321        0.012      333.248        2.437      867.764
12/06/2021  02:46:00      -25.892       -8.261       -9.786       26.659       16.723       14.149      710.682      279.649      200.187        0.101        0.060       27.178        9.403        0.120      333.250        2.441      867.714
12/06/2021  02:47:00      -27.334      -10.176      -11.619       19.308       20.993       11.611      372.813      440.708      134.804        0.097        0.047       29.167       11.681        0.160      333.136        2.255      867.671
12/06/2021  02:48:00      -59.053       18.050      -13.752       19.304       12.267        8.054      372.648      150.491       64.860        0.229        0.029       61.750        2.441        0.002      333.141        2.261      867.646
12/06/2021  02:49:00      -40.877        5.499       -9.741       26.521       17.841        9.620      703.363      318.300       92.543        0.145        0.056       41.245        5.884        0.020      333.200        2.359      867.649
12/06/2021  02:50:00      -73.588        8.602       -4.457       37.060       25.240       18.409     1373.465      637.068      338.906        0.393        0.117       74.089       12.377        0.028      333.143        2.267      867.655
12/06/2021  02:51:00      -67.892        5.185       -4.670       34.451       20.916       14.212     1186.904      437.496      201.992        0.324        0.091       68.089        9.751        0.021      333.146        2.271      867.662
12/06/2021  02:52:00      -64.506        9.138       -6.381       19.948       15.513       13.429      397.920      240.658      180.336        0.255        0.041       65.150       12.815        0.039      333.200        2.358      867.652
12/06/2021  02:53:00      -80.145       13.725       -8.106       17.508       13.238       13.002      306.532      175.256      169.046        0.366        0.033       81.312       12.963        0.025      333.300        2.525      867.636
12/06/2021  02:54:00      -47.370       17.556       -2.166       18.391       18.575       13.218      338.247      345.046      174.724        0.171        0.043       50.518        9.175        0.033      333.268        2.471      867.622
12/06/2021  02:55:00      -48.802       19.609       -9.025       12.194       10.260        9.977      148.687      105.260       99.534        0.160        0.018       52.595        6.914        0.017      333.261        2.460      867.607
12/06/2021  02:56:00      -48.371        8.708       -8.528       20.124       15.083        7.917      404.978      227.494       62.682        0.159        0.035       49.148        4.623        0.009      333.265        2.468      867.583
12/06/2021  02:57:00       -2.068       -1.506       -2.000        9.015        7.751       10.075       81.276       60.076      101.504        0.013        0.012        2.558        6.522        6.502      333.239        2.423      867.569
12/06/2021  02:58:00       -0.098        4.647       -3.061        8.373       12.174        8.827       70.107      148.196       77.908        0.016        0.015        4.648        4.354        0.878      333.253        2.448      867.548
12/06/2021  02:59:00      -15.603       -2.444       -4.171       14.135       13.578       10.722      199.806      184.373      114.962        0.038        0.025       15.794       10.034        0.404      333.400        2.691      867.544
12/06/2021  03:00:00      -54.768       -0.203      -10.683       18.273       19.964       13.122      333.886      398.571      172.189        0.201        0.045       54.769        4.505        0.007      333.286        2.502      867.563
12/06/2021  03:01:00      -62.554      -10.498      -10.317       27.631       24.510       19.587      763.456      600.748      383.660        0.294        0.087       63.429        8.333        0.017      333.083        2.166      867.581
12/06/2021  03:02:00      -79.912        1.706       -2.195       42.950       26.095       21.232     1844.689      680.975      450.792        0.468        0.149       79.930       21.061        0.069      333.092        2.181      867.590
12/06/2021  03:03:00      -76.793       10.246       -3.102       32.944       27.794       18.741     1085.296      772.530      351.242        0.411        0.110       77.473       18.171        0.055      333.227        2.406      867.602
12/06/2021  03:04:00     -112.814       22.947      -10.486       36.993       22.991       16.743     1368.503      528.592      280.318        0.777        0.109      115.124       15.757        0.019      333.345        2.600      867.607
12/06/2021  03:05:00      -61.117        2.160       -2.615       43.735       26.009       18.309     1912.754      676.446      335.226        0.334        0.146       61.156       17.746        0.084      333.343        2.597      867.602
12/06/2021  03:06:00      -32.046        4.856        2.973       28.386       20.492       12.355      805.793      419.903      152.655        0.122        0.069       32.412        8.696        0.072      333.351        2.609      867.598
12/06/2021  03:07:00       -0.811       -4.200       -2.545       17.707       15.034       17.104      313.524      226.033      292.536        0.043        0.042        4.278       14.814       11.994      333.476        2.815      867.600
12/06/2021  03:08:00        1.808       -0.434       -1.046        7.143       10.771        9.217       51.022      116.024       84.958        0.013        0.013        1.859        3.946        4.505      333.502        2.859      867.616
12/06/2021  03:09:00      -14.248       16.402       -3.553       20.617        8.891        9.399      425.061       79.045       88.343        0.054        0.030       21.726        9.887        0.207      333.394        2.681      867.634
12/06/2021  03:10:00      -64.622       20.083      -10.601       14.238       10.706        9.389      202.709      114.618       88.148        0.255        0.020       67.670        5.961        0.008      333.325        2.569      867.636
12/06/2021  03:11:00      -53.979       11.285       -5.229       24.758       12.210       11.262      612.976      149.073      126.835        0.198        0.044       55.146       12.881        0.055      333.201        2.360      867.638
12/06/2021  03:12:00      -18.895        6.563       -7.324       17.215       16.726        9.499      296.360      279.751       90.235        0.056        0.033       20.003        5.193        0.067      333.227        2.404      867.621
12/06/2021  03:13:00        5.428       -2.284       -5.221       11.000       17.945        6.967      121.004      322.008       48.535        0.028        0.025        5.889        5.832        0.981      333.350        2.607      867.584
12/06/2021  03:14:00        3.463        2.718       -7.347        8.739        6.330        5.278       76.374       40.075       27.854        0.011        0.007        4.402        2.255        0.262      333.195        2.352      867.534
12/06/2021  03:15:00       -4.458       -9.243       -5.205        8.081        8.933        9.635       65.295       79.806       92.830        0.019        0.012       10.262        6.341        0.382      333.286        2.503      867.481
12/06/2021  03:16:00      -27.126      -32.059      -14.176        9.805       14.765       10.872       96.145      218.011      118.197        0.120        0.022       41.995        4.417        0.011      333.308        2.537      867.440
12/06/2021  03:17:00      -38.794      -37.380      -20.584       14.985       15.459       12.081      224.543      238.977      145.950        0.197        0.030       53.872        8.218        0.023      333.249        2.442      867.419
12/06/2021  03:18:00      -17.196      -45.105      -13.967       35.526       44.543       20.430     1262.115     1984.097      417.375        0.309        0.183       48.272        9.412        0.038      333.362        2.628      867.407
12/06/2021  03:19:00       41.161       37.897       -9.739       10.766        9.823        8.180      115.901       96.494       66.916        0.175        0.014       55.950        4.656        0.007      333.029        2.077      867.426
12/06/2021  03:20:00       20.138       31.574      -12.782        6.835        7.983        7.703       46.720       63.725       59.338        0.087        0.008       37.449        4.773        0.016      333.056        2.120      867.462
12/06/2021  03:21:00       24.370       27.858       -2.925        9.449        7.165        8.416       89.276       51.334       70.837        0.079        0.011       37.013        1.933        0.003      333.140        2.261      867.496
12/06/2021  03:22:00       22.416       48.581       -4.690        9.813        9.584        8.250       96.298       91.844       68.056        0.157        0.013       53.504        5.916        0.012      333.142        2.263      867.535
12/06/2021  03:23:00        4.288       48.803       -6.468       18.397       10.363        9.753      338.467      107.388       95.115        0.149        0.027       48.991        5.037        0.011      333.212        2.380      867.579
12/06/2021  03:24:00       -1.210       27.839       -1.560       11.533       14.099        8.858      133.001      198.773       78.467        0.059        0.021       27.866        7.645        0.075      333.193        2.349      867.619
12/06/2021  03:25:00       14.146       24.527       -5.040       13.494       14.262       10.482      182.087      203.392      109.874        0.066        0.025       28.314        9.415        0.111      333.262        2.463      867.628
12/06/2021  03:26:00       21.975       25.859       -6.222        8.746       14.671        8.208       76.491      215.245       67.366        0.077        0.018       33.935        4.521        0.018      333.292        2.515      867.612
12/06/2021  03:27:00       22.446       30.488       -4.898       11.086        7.939        5.497      122.904       63.026       30.214        0.084        0.011       37.859        4.444        0.014      333.262        2.464      867.571
12/06/2021  03:28:00       43.592       24.940       -2.730       15.664        7.057        7.005      245.351       49.797       49.070        0.144        0.017       50.222        9.033        0.032      333.232        2.411      867.520
12/06/2021  03:29:00       50.408       20.458       -9.354        9.861        8.886        7.464       97.242       78.967       55.704        0.164        0.012       54.401        4.130        0.006      333.129        2.241      867.489
12/06/2021  03:30:00       36.075       19.392       -8.762       13.284       16.399        9.664      176.468      268.918       93.391        0.115        0.027       40.957        8.456        0.043      333.084        2.168      867.479
12/06/2021  03:31:00       38.919       10.243       -5.740       19.824       11.316       11.920      392.981      128.042      142.082        0.116        0.033       40.244        9.579        0.057      333.101        2.198      867.488
12/06/2021  03:32:00       54.052       33.407       -7.737       14.576       11.474        8.774      212.447      131.659       76.988        0.226        0.021       63.543        7.016        0.012      333.053        2.119      867.471
12/06/2021  03:33:00       40.555       31.999       -5.570       17.981       16.844       11.789      323.309      283.725      138.975        0.172        0.037       51.659       11.088        0.046      333.029        2.080      867.445
12/06/2021  03:34:00       47.053       18.087       -1.038       12.441       10.383        8.441      154.788      107.804       71.258        0.144        0.017       50.409        5.070        0.010      333.017        2.057      867.397
12/06/2021  03:35:00       21.821       -1.191       -4.262       21.229        9.428        7.901      450.675       88.895       62.423        0.055        0.030       21.853        8.064        0.136      333.120        2.229      867.366
12/06/2021  03:36:00        6.471       -0.266       -2.024       10.248       12.645        6.683      105.027      159.904       44.661        0.018        0.015        6.476        5.494        0.720      333.234        2.415      867.361
12/06/2021  03:37:00       41.835       31.511       -8.830        7.206        5.411        6.790       51.928       29.280       46.099        0.147        0.006       52.375        2.580        0.002      333.223        2.397      867.372
12/06/2021  03:38:00       45.071        8.342       -7.452       24.880       19.696        8.194      619.028      387.916       67.144        0.162        0.054       45.837       10.079        0.048      333.154        2.284      867.377
12/06/2021  03:39:00       25.724        0.416       -3.065       17.234       13.676       10.259      297.005      187.042      105.243        0.063        0.029       25.727       11.057        0.185      333.114        2.218      867.353
12/06/2021  03:40:00       22.520       -2.828      -13.531       19.969       20.676        9.097      398.768      427.508       82.761        0.080        0.045       22.697        8.316        0.134      333.171        2.312      867.315
12/06/2021  03:41:00       -6.008      -22.646      -14.249       15.803       16.085       10.186      249.728      258.723      103.758        0.068        0.031       23.430        7.079        0.091      333.201        2.361      867.286
12/06/2021  03:42:00        4.955      -25.769      -23.892       11.483       18.410        8.808      131.856      338.916       77.585        0.090        0.027       26.241        7.785        0.088      333.188        2.339      867.268
12/06/2021  03:43:00       15.410       18.575        1.976       15.233       15.394       10.827      232.051      236.988      117.220        0.059        0.029       24.135        5.900        0.060      333.101        2.196      867.262
12/06/2021  03:44:00        1.848       14.613       -6.919       11.773       12.658       10.345      138.593      160.234      107.027        0.034        0.020       14.729        4.797        0.106      333.075        2.154      867.261
12/06/2021  03:45:00        3.316        2.074       -0.743        5.918        6.140        4.500       35.024       37.698       20.252        0.005        0.005        3.911        2.846        0.529      332.947        1.942      867.263
12/06/2021  03:46:00       -5.097       -3.021       -4.909        9.295        6.814        6.469       86.395       46.431       41.852        0.012        0.009        5.925        4.661        0.619      332.989        2.010      867.273
12/06/2021  03:47:00       14.945       14.442        0.007        9.004        8.758       10.607       81.064       76.697      112.512        0.035        0.014       20.783        5.714        0.076      333.016        2.056      867.290
12/06/2021  03:48:00        3.684        2.142       -5.242        8.366       11.655        6.068       69.990      135.837       36.816        0.014        0.012        4.261        6.529        2.347      333.069        2.143      867.285
12/06/2021  03:49:00       -2.837        2.034       -6.027        5.437        4.435        4.241       29.565       19.673       17.985        0.006        0.003        3.491        1.395        0.160      333.026        2.073      867.261
12/06/2021  03:50:00        1.737       -0.135        2.873        6.013        7.172        5.147       36.160       51.440       26.488        0.006        0.006        1.742        4.104        5.549      332.806        1.708      867.227
12/06/2021  03:51:00      -10.688        5.723       -0.933       10.027       13.409        7.914      100.535      179.813       62.638        0.025        0.017       12.124        3.338        0.076      332.797        1.694      867.192
12/06/2021  03:52:00      -35.283       14.001       -9.558       14.484       11.657        8.534      209.781      135.885       72.829        0.098        0.021       37.959        3.356        0.008      332.892        1.853      867.169
12/06/2021  03:53:00      -55.224       18.100      -10.168       10.833       11.238        6.479      117.346      126.289       41.976        0.188        0.014       58.114        4.265        0.005      332.893        1.855      867.134
12/06/2021  03:54:00      -42.481       10.543       -7.385       22.176       20.748       12.465      491.790      430.497      155.387        0.152        0.054       43.770        6.270        0.021      332.881        1.833      867.100
12/06/2021  03:55:00      -28.219        4.692       -5.135       18.286       11.819       13.324      334.366      139.687      177.541        0.075        0.033       28.606        8.464        0.088      332.911        1.882      867.065
12/06/2021  03:56:00      -15.754        1.144       -2.132       14.657       12.813        7.146      214.824      164.173       51.058        0.034        0.022       15.795        5.605        0.126      332.977        1.991      867.024
12/06/2021  03:57:00      -27.653       16.243      -12.101        8.599        5.949        6.625       73.947       35.385       43.888        0.066        0.008       32.070        3.518        0.012      332.982        1.997      866.997
12/06/2021  03:58:00      -27.260       10.638       -9.536        4.980        5.593        6.763       24.797       31.277       45.742        0.052        0.005       29.262        3.014        0.011      333.004        2.035      866.983
12/06/2021  03:59:00      -32.235       11.178       -5.264        7.250        7.698        9.303       52.561       59.266       86.544        0.070        0.010       34.118        5.189        0.023      333.035        2.088      866.982
12/06/2021  04:00:00      -34.234        4.146       -8.174       14.483       10.454        9.168      209.761      109.292       84.045        0.083        0.020       34.484       10.108        0.086      333.012        2.050      866.982
12/06/2021  04:01:00      -14.426       -5.378       -9.204       18.933       13.738        8.172      358.452      188.733       66.783        0.047        0.031       15.395        2.247        0.021      333.031        2.081      866.993
12/06/2021  04:02:00        3.352       -2.502       -1.862       10.754        7.783        7.729      115.638       60.578       59.730        0.013        0.012        4.183        3.356        0.644      333.040        2.096      867.010
12/06/2021  04:03:00      -29.578       11.773       -6.485       15.140       11.394       11.501      229.216      129.832      132.269        0.077        0.025       31.835        6.484        0.041      332.881        1.833      867.046
12/06/2021  04:04:00      -34.322        7.021       -7.700       12.220       12.483       10.695      149.321      155.835      114.386        0.085        0.021       35.032        5.620        0.026      332.869        1.815      867.082
12/06/2021  04:05:00      -25.283       -2.646       -7.403       13.857       18.027       13.659      192.016      324.962      186.575        0.070        0.035       25.421       11.811        0.216      332.904        1.871      867.107
12/06/2021  04:06:00      -11.376        5.370       -4.960       18.363       13.467       14.084      337.200      181.357      198.356        0.045        0.036       12.580       11.789        0.878      332.827        1.743      867.028
12/06/2021  04:07:00        0.709        4.803       -5.015        9.569        9.925        9.121       91.559       98.499       83.193        0.016        0.014        4.855        6.058        1.557      332.761        1.633      866.998
12/06/2021  04:08:00      -14.387        0.296       -9.595        9.818       10.314        9.014       96.392      106.368       81.260        0.029        0.014       14.390        4.964        0.119      332.768        1.645      866.986
12/06/2021  04:09:00      -14.563      -13.625       -9.115       15.748        9.986       11.789      248.005       99.718      138.981        0.048        0.024       19.943        8.313        0.174      332.750        1.618      866.994
12/06/2021  04:10:00      -22.311      -12.129      -13.899       12.465       12.735        9.786      155.388      162.186       95.760        0.063        0.021       25.395        5.646        0.049      332.735        1.591      867.015
12/06/2021  04:11:00       -1.006       -9.249       -1.124        8.754        6.602        7.410       76.637       43.583       54.906        0.013        0.009        9.303        5.442        0.342      332.676        1.492      867.039
12/06/2021  04:12:00      -11.674        9.842       -4.843       13.464        7.438        8.526      181.272       55.323       72.688        0.028        0.015       15.269        8.755        0.329      332.666        1.475      867.033
12/06/2021  04:13:00      -20.002       23.382       -4.597        9.065        7.816        4.784       82.165       61.092       22.886        0.057        0.008       30.770        3.974        0.017      332.798        1.696      867.016
12/06/2021  04:14:00      -16.217       15.207       -2.264       10.609       12.277        8.721      112.547      150.722       76.059        0.042        0.017       22.232        5.636        0.064      332.775        1.656      866.998
12/06/2021  04:15:00       -9.918        2.110       -2.575        7.546       11.759        8.459       56.941      138.283       71.554        0.019        0.013       10.140        5.381        0.282      332.858        1.793      866.971
12/06/2021  04:16:00      -11.245       10.630       -6.312        5.404        4.949        6.061       29.200       24.496       36.733        0.018        0.005       15.474        3.423        0.049      332.869        1.814      866.942
12/06/2021  04:17:00       -7.129       18.614       -8.606        5.198        8.077        5.941       27.018       65.234       35.300        0.030        0.006       19.932        3.651        0.034      332.886        1.843      866.907
12/06/2021  04:18:00       -4.529       27.668       -0.685        8.070        5.994        5.202       65.127       35.922       27.063        0.046        0.006       28.036        4.244        0.023      332.970        1.980      866.873
12/06/2021  04:19:00       -6.688        6.391       -2.424        9.048       10.380        6.684       81.862      107.751       44.677        0.016        0.012        9.250        4.972        0.289      332.946        1.940      866.833
12/06/2021  04:20:00        4.850       -3.710      -11.668        9.147       16.907       12.810       83.660      285.834      164.103        0.035        0.027        6.106        4.090        0.449      332.965        1.972      866.795
12/06/2021  04:21:00       18.801      -10.315       -8.341       21.133       15.608        9.655      446.616      243.601       93.226        0.066        0.039       21.445        6.445        0.090      332.990        2.012      866.770
12/06/2021  04:22:00       25.010        5.159       -6.405       19.878       21.942       11.464      395.134      481.432      131.434        0.085        0.050       25.536        7.558        0.088      332.956        1.957      866.761
12/06/2021  04:23:00        3.441        4.835      -13.566       18.680       26.750       30.117      348.933      715.563      907.018        0.110        0.099        5.935       21.706       13.377      333.033        2.084      866.754
12/06/2021  04:24:00        4.641       14.616       -6.947       27.092       22.832       18.363      733.978      521.286      337.195        0.094        0.080       15.336       11.824        0.595      332.965        1.972      866.753
12/06/2021  04:25:00       60.566       21.105      -10.707       13.108       12.973        7.868      171.823      168.287       61.910        0.232        0.020       64.138        5.389        0.007      332.833        1.755      866.753
12/06/2021  04:26:00       57.534       22.956       -6.438       13.255       11.359        6.268      175.695      129.034       39.292        0.211        0.017       61.944        6.055        0.010      332.839        1.764      866.755
12/06/2021  04:27:00       78.047       41.286       -7.680       13.039       13.061        6.323      170.024      170.595       39.975        0.412        0.019       88.294        3.342        0.001      332.836        1.760      866.752
12/06/2021  04:28:00       79.831       41.491       -6.360       22.276       15.088       15.853      496.212      227.642      251.326        0.455        0.049       89.969        7.836        0.008      332.789        1.682      866.749
12/06/2021  04:29:00       80.142       35.141       -1.931       27.470       20.480       14.300      754.617      419.425      204.479        0.452        0.069       87.508       12.994        0.022      332.830        1.748      866.751
12/06/2021  04:30:00       65.720       19.885       -4.146       31.227       21.203       15.789      975.151      449.559      249.288        0.320        0.084       68.662       11.043        0.026      332.806        1.709      866.752
12/06/2021  04:31:00       66.960       20.780       -9.342       18.389       17.536       12.252      338.159      307.516      150.099        0.290        0.040       70.110        8.941        0.016      332.830        1.748      866.749
12/06/2021  04:32:00       88.453       33.867      -11.542       18.234       25.576       17.473      332.493      654.153      305.306        0.520        0.065       94.715        8.011        0.007      332.906        1.877      866.741
12/06/2021  04:33:00       81.852       37.336      -18.857       25.461       37.593       16.768      648.277     1413.264      281.157        0.540        0.117       89.965       16.483        0.034      332.936        1.924      866.720
12/06/2021  04:34:00       24.525        1.127       -3.038       40.240       43.292       21.245     1619.243     1874.224      451.329        0.228        0.197       24.550       20.064        0.668      332.950        1.947      866.693
12/06/2021  04:35:00       20.742       -0.161      -10.475       22.635       19.979       13.735      512.321      399.174      188.661        0.082        0.055       20.743       12.181        0.345      332.890        1.850      866.664
12/06/2021  04:36:00       41.596      -19.123      -10.289       22.180       19.658       16.321      491.968      386.430      266.388        0.167        0.057       45.781       10.187        0.050      332.871        1.817      866.642
12/06/2021  04:37:00       45.011      -13.488       -7.171       29.504       23.188       14.680      870.499      537.701      215.509        0.194        0.081       46.989       10.268        0.048      332.954        1.954      866.621
12/06/2021  04:38:00       32.748       -0.043       -7.344       21.137       23.293       15.333      446.760      542.583      235.088        0.118        0.061       32.748        8.655        0.070      332.920        1.899      866.600
12/06/2021  04:39:00       65.580       31.336      -10.061       22.905       25.496       15.316      524.642      650.028      234.581        0.340        0.070       72.682        8.442        0.013      332.865        1.808      866.583
12/06/2021  04:40:00       27.857       13.063      -16.072       23.644       21.521       12.927      559.035      463.170      167.114        0.120        0.059       30.768        5.082        0.027      332.904        1.872      866.582
12/06/2021  04:41:00       27.684       23.150       -3.948       33.218       22.543       12.857     1103.428      508.203      165.293        0.155        0.089       36.088       15.432        0.183      332.875        1.822      866.597
12/06/2021  04:42:00       38.080       40.660       -2.003       20.248       12.300       15.561      409.996      151.294      242.143        0.196        0.040       55.708       13.516        0.059      332.795        1.691      866.611
12/06/2021  04:43:00       59.363       48.070       -8.130       10.972       10.684        8.319      120.395      114.141       69.206        0.310        0.015       76.385        5.267        0.005      332.833        1.754      866.611
12/06/2021  04:44:00       61.242       12.171      -12.797       13.713       17.948       15.774      188.041      322.134      248.824        0.241        0.038       62.439        6.451        0.011      332.959        1.962      866.584
12/06/2021  04:45:00       51.167       16.149      -15.776       20.502       16.505       11.460      420.329      272.411      131.321        0.198        0.041       53.655        5.949        0.012      332.886        1.841      866.555
12/06/2021  04:46:00       43.221       13.282       -9.057       10.450       11.261        6.624      109.202      126.808       43.871        0.120        0.014       45.216        2.685        0.004      332.868        1.812      866.515
12/06/2021  04:47:00       32.005        1.361      -10.456       12.934        7.298       10.276      167.297       53.256      105.595        0.073        0.016       32.034        6.753        0.044      332.885        1.842      866.509
12/06/2021  04:48:00       27.421        9.045       -7.937        8.819        6.160        6.543       77.782       37.942       42.808        0.053        0.008       28.874        3.787        0.017      332.864        1.806      866.515
12/06/2021  04:49:00       33.252       28.136       -9.691        8.957       14.540        7.387       80.232      211.419       54.575        0.117        0.017       43.558        8.219        0.036      332.871        1.817      866.522
12/06/2021  04:50:00       33.595       39.183       -8.497       20.096       13.310       15.153      403.833      177.161      229.625        0.177        0.041       51.614       14.415        0.078      332.899        1.863      866.532
12/06/2021  04:51:00       38.876       48.392       -8.426       17.805       16.255       11.571      317.009      264.229      133.885        0.232        0.036       62.073        9.373        0.023      332.949        1.945      866.531
12/06/2021  04:52:00       35.621       36.464      -11.241       16.022       11.942       11.456      256.706      142.618      131.240        0.163        0.027       50.975        2.236        0.002      332.977        1.992      866.527
12/06/2021  04:53:00       36.532       28.235       -8.785       18.902       14.693       11.733      357.268      215.876      137.670        0.146        0.036       46.171        9.490        0.042      333.022        2.065      866.537
12/06/2021  04:54:00       22.053       32.272       -1.522       16.342       14.243       11.034      267.051      202.859      121.748        0.106        0.030       39.088        8.498        0.047      333.009        2.044      866.547
12/06/2021  04:55:00      -27.181        8.018       -6.044       24.764       14.448        8.420      613.274      208.744       70.903        0.087        0.045       28.339       10.702        0.143      332.820        1.732      866.540
12/06/2021  04:56:00      -44.657       26.695      -14.387       22.184       12.325        8.658      492.134      151.903       74.963        0.182        0.036       52.027        6.220        0.014      332.698        1.531      866.507
12/06/2021  04:57:00      -43.829       33.554       -6.069       17.265       10.499       10.105      298.081      110.234      102.111        0.180        0.026       55.198        3.540        0.004      332.667        1.480      866.494
12/06/2021  04:58:00      -55.774       35.614       -7.391       16.912       15.375        9.058      286.003      236.400       82.054        0.252        0.030       66.175        5.687        0.007      332.644        1.442      866.490
12/06/2021  04:59:00      -65.972       16.208      -18.569       35.572       23.090       21.105     1265.375      533.139      445.436        0.360        0.112       67.934       15.470        0.052      332.586        1.344      866.506
12/06/2021  05:00:00      -13.143        7.160      -12.031       32.482       26.172       21.817     1055.086      684.951      475.995        0.129        0.111       14.967       16.070        1.153      332.507        1.216      866.514
12/06/2021  05:01:00      -22.096       13.244      -16.547       53.343       23.392       22.212     2845.515      547.191      493.371        0.241        0.194       25.761       11.695        0.206      332.494        1.192      866.513
12/06/2021  05:02:00      -95.229       34.807      -18.264       38.600       27.966       20.969     1489.967      782.121      439.706        0.666        0.136      101.391       11.100        0.012      332.565        1.310      866.500
12/06/2021  05:03:00      -91.926       33.036      -19.514       42.004       30.656       31.581     1764.344      939.794      997.385        0.681        0.185       97.682       23.541        0.058      332.638        1.431      866.495
12/06/2021  05:04:00      -76.887       10.274      -13.657       41.499       34.300       22.741     1722.129     1176.501      517.143        0.481        0.171       77.570       20.844        0.072      332.581        1.337      866.493
12/06/2021  05:05:00      -73.650       22.141      -26.742       35.021       33.441       20.232     1226.450     1118.279      409.348        0.469        0.138       76.906       16.237        0.045      332.587        1.346      866.512
12/06/2021  05:06:00      -86.479       35.726      -17.705       20.090       27.174       16.354      403.613      738.416      267.439        0.524        0.070       93.568       12.401        0.018      332.765        1.641      866.527
12/06/2021  05:07:00      -37.322       50.837       -5.614       31.559       24.098       15.091      995.980      580.692      227.727        0.291        0.090       63.066       14.726        0.055      332.948        1.943      866.541
12/06/2021  05:08:00      -31.307       76.202      -13.589       23.063       34.786       16.147      531.904     1210.082      260.730        0.449        0.100       82.382        9.006        0.012      333.243        2.431      866.529
12/06/2021  05:09:00      -15.613       79.527       -8.601       24.095       27.223       16.048      580.576      741.112      257.524        0.411        0.079       81.046       12.426        0.024      333.297        2.520      866.506
12/06/2021  05:10:00      -20.768      124.076      -17.913       17.466       28.464       11.520      305.060      810.196      132.715        0.870        0.062      125.802        9.995        0.006      333.470        2.808      866.472
12/06/2021  05:11:00      -14.409      124.766      -13.847       14.484       27.544       13.261      209.774      758.673      175.867        0.855        0.057      125.596        6.507        0.003      333.504        2.864      866.442
12/06/2021  05:12:00      -19.059       43.282       -8.278       12.722       28.219       13.315      161.854      796.286      177.278        0.172        0.057       47.292        4.555        0.009      333.110        2.212      866.417
12/06/2021  05:13:00      -18.321       20.420       -3.029       25.339       20.067       18.961      642.056      402.664      359.515        0.108        0.070       27.434        5.852        0.045      333.011        2.049      866.399
12/06/2021  05:14:00      -44.568       13.451      -19.188       14.169       12.173       10.958      200.759      148.187      120.071        0.150        0.023       46.554        4.419        0.009      332.709        1.549      866.398
12/06/2021  05:15:00      -48.621       11.069      -11.952       11.176        9.691        9.330      124.904       93.916       87.055        0.147        0.015       49.865        3.121        0.004      332.884        1.838      866.406
12/06/2021  05:16:00      -23.103       13.204      -11.347       10.040        8.250        6.940      100.802       68.056       48.160        0.053        0.011       26.611        4.821        0.033      333.026        2.072      866.411
12/06/2021  05:17:00        5.130       32.830       -3.942       21.383       12.640        7.799      457.234      159.764       60.831        0.090        0.034       33.228        7.459        0.050      333.433        2.746      866.409
12/06/2021  05:18:00      -15.916       19.746       -8.424       15.358       16.289       13.139      235.879      265.348      172.630        0.069        0.034       25.362        8.690        0.117      333.254        2.450      866.403
12/06/2021  05:19:00        0.235       27.459       -5.118       13.353        8.297        9.534      178.293       68.834       90.892        0.056        0.017       27.460        8.927        0.106      333.525        2.897      866.383
12/06/2021  05:20:00      -24.469       45.265       -0.629       22.431       17.074       15.995      503.156      291.536      255.833        0.185        0.053       51.455        8.216        0.025      333.396        2.685      866.369
12/06/2021  05:21:00      -29.436       28.788      -16.407       14.485        8.402        7.181      209.829       70.587       51.561        0.115        0.017       41.173        3.911        0.009      333.295        2.516      866.357
12/06/2021  05:22:00      -51.206       33.442      -12.645       14.603        9.693       11.077      213.239       93.959      122.704        0.217        0.021       61.159        3.079        0.003      333.001        2.031      866.343
12/06/2021  05:23:00      -84.613       44.208       -9.536       24.911       18.294       16.237      620.565      334.684      263.626        0.521        0.061       95.466       12.152        0.016      332.941        1.932      866.335
12/06/2021  05:24:00     -121.946       43.433      -18.024       21.483       21.913       17.077      461.507      480.160      291.635        0.916        0.062      129.449       10.005        0.006      332.852        1.787      866.323
12/06/2021  05:25:00      -91.524       18.741      -14.999       34.129       35.378       18.795     1164.795     1251.622      353.243        0.586        0.138       93.423       12.286        0.017      332.790        1.682      866.318
12/06/2021  05:26:00      -96.262       27.157       -9.780       42.685       32.845       22.751     1821.976     1078.772      517.613        0.676        0.171      100.019       20.191        0.041      332.787        1.677      866.304
12/06/2021  05:27:00     -101.633       27.482       -2.984       46.482       35.241       24.802     2160.581     1241.949      615.132        0.755        0.201      105.284       27.078        0.066      332.728        1.581      866.288
12/06/2021  05:28:00     -111.321       40.524       -2.188       44.999       49.950       26.839     2024.895     2494.998      720.311        0.964        0.262      118.468       22.042        0.035      332.759        1.631      866.279
12/06/2021  05:29:00      -74.156       34.217        6.108       49.383       37.864       27.358     2438.716     1433.708      748.466        0.566        0.231       81.669       22.475        0.076      332.700        1.533      866.255
12/06/2021  05:30:00      -79.452       30.125       -0.575       42.657       33.091       21.575     1819.644     1095.012      465.495        0.530        0.169       84.971       20.958        0.061      332.716        1.560      866.216
12/06/2021  05:31:00      -99.142       34.549       -8.443       39.988       35.457       19.240     1599.032     1257.191      370.173        0.716        0.161      104.989       18.789        0.032      332.767        1.644      866.182
12/06/2021  05:32:00     -100.142       21.563       -8.498       47.991       27.059       30.157     2303.154      732.199      909.422        0.725        0.197      102.437       22.609        0.049      332.819        1.730      866.150
12/06/2021  05:33:00     -102.994       41.783      -12.488       52.406       32.086       25.431     2746.403     1029.487      646.733        0.847        0.221      111.147       26.050        0.055      332.729        1.583      866.124
12/06/2021  05:34:00     -114.015       30.581       -0.280       46.406       34.340       26.458     2153.502     1179.230      700.016        0.898        0.202      118.045       23.163        0.039      332.681        1.502      866.112
12/06/2021  05:35:00     -122.245       45.990       -6.785       36.595       27.714       21.999     1339.211      768.079      483.947        0.985        0.130      130.610       14.614        0.013      332.634        1.425      866.094
12/06/2021  05:36:00     -104.999       36.969      -14.549       29.578       28.566       20.589      874.848      815.992      423.914        0.736        0.106      111.317       16.237        0.021      332.656        1.461      866.140
12/06/2021  05:37:00     -102.948       32.253       -8.858       29.462       25.155       18.270      868.013      632.750      333.777        0.678        0.092      107.882       10.683        0.010      332.673        1.489      866.166
12/06/2021  05:38:00      -81.482       21.116       -1.612       35.598       29.559       24.565     1267.229      873.734      603.459        0.492        0.137       84.174       20.409        0.059      332.723        1.572      866.148
12/06/2021  05:39:00     -108.934       36.254      -10.210       31.516       35.445       19.124      993.249     1256.357      365.726        0.795        0.131      114.808       13.431        0.014      332.766        1.644      866.147
12/06/2021  05:40:00      -95.114       32.591       -8.438       40.045       34.421       23.843     1603.583     1184.815      568.498        0.677        0.168      100.543       14.493        0.021      332.765        1.641      866.143
12/06/2021  05:41:00     -102.361       34.714       -5.493       45.905       41.942       26.296     2107.309     1759.136      691.499        0.813        0.228      108.087       26.882        0.062      332.712        1.553      866.131
12/06/2021  05:42:00      -62.366       22.378        0.034       52.629       35.913       24.301     2769.827     1289.726      590.546        0.452        0.233       66.260       25.387        0.147      332.743        1.606      866.108
12/06/2021  05:43:00      -79.763       29.727       -8.110       39.268       32.277       15.628     1541.982     1041.776      244.242        0.507        0.141       85.122       11.518        0.018      332.739        1.599      866.088
12/06/2021  05:44:00      -86.624       23.900       -5.068       49.491       30.234       20.602     2449.322      914.077      424.440        0.594        0.189       89.861       18.129        0.041      332.809        1.714      866.087
12/06/2021  05:45:00      -36.993        6.639      -16.128       55.669       50.377       21.465     3099.022     2537.850      460.763        0.388        0.305       37.584       13.551        0.130      332.846        1.774      866.111
12/06/2021  05:46:00      -55.146       16.701       -7.343       75.074       27.735       24.356     5636.042      769.255      593.192        0.518        0.350       57.620       21.247        0.136      332.827        1.744      866.128
12/06/2021  05:47:00      -59.495       -6.454       -6.621       45.874       37.200       22.786     2104.382     1383.804      519.181        0.382        0.200       59.844       12.935        0.047      332.861        1.801      866.130
12/06/2021  05:48:00      -43.978        4.844      -15.661       50.910       42.300       22.389     2591.854     1789.313      501.268        0.354        0.244       44.244       11.713        0.070      332.880        1.831      866.113
12/06/2021  05:49:00      -22.546      -16.379      -18.863       41.091       36.172       21.671     1688.489     1308.399      469.636        0.230        0.173       27.867       14.108        0.256      332.906        1.875      866.100
12/06/2021  05:50:00        2.863       -8.101       -4.477       22.620       37.132       29.597      511.662     1378.760      875.973        0.143        0.138        8.592       13.101        2.325      332.931        1.915      866.104
12/06/2021  05:51:00        3.324       -1.999      -10.350       27.583       38.745       21.897      760.800     1501.177      479.471        0.143        0.137        3.879       14.290       13.574      332.920        1.897      866.117
12/06/2021  05:52:00      -38.681       17.119       -4.545       57.143       24.049       20.576     3265.319      578.372      423.375        0.304        0.213       42.300       12.602        0.089      332.902        1.869      866.123
12/06/2021  05:53:00     -125.919       46.643       -6.047       46.580       45.825       23.200     2169.711     2099.975      538.219        1.144        0.240      134.281       17.135        0.016      332.890        1.847      866.153
12/06/2021  05:54:00     -125.451       46.448       -0.029       50.336       37.322       24.817     2533.728     1392.924      615.878        1.122        0.227      133.773       22.145        0.027      332.832        1.751      866.188
12/06/2021  05:55:00      -79.620       33.304        1.357       50.759       44.015       24.313     2576.498     1937.304      591.131        0.628        0.255       86.304       24.036        0.078      332.835        1.757      866.209
12/06/2021  05:56:00      -65.503       19.911        1.941       54.849       40.019       21.466     3008.460     1601.518      460.769        0.488        0.254       68.462       27.022        0.156      332.885        1.840      866.208
12/06/2021  05:57:00      -60.210       24.411       -0.977       33.688       29.390       25.240     1134.890      863.791      637.053        0.343        0.132       64.970       18.552        0.082      332.873        1.821      866.195
12/06/2021  05:58:00      -71.722       16.140       -1.051       48.630       29.832       19.961     2364.919      889.966      398.452        0.453        0.183       73.516       19.288        0.069      332.902        1.867      866.195
12/06/2021  05:59:00      -50.794       20.935        0.119       29.498       20.218       19.590      870.114      408.781      383.776        0.234        0.083       54.939       17.530        0.102      332.921        1.898      866.209
12/06/2021  06:00:00      -60.768       17.790       -9.045       16.661       21.680       15.407      277.593      470.035      237.390        0.254        0.049       63.319       10.518        0.028      332.895        1.858      866.212
12/06/2021  06:01:00      -61.246       13.885      -11.079       15.674       24.331       11.542      245.677      591.992      133.214        0.252        0.049       62.800        7.146        0.013      333.048        2.107      866.210
12/06/2021  06:02:00      -25.548       -2.381        1.305       24.847       14.962       11.294      617.364      223.862      127.565        0.081        0.048       25.659        9.878        0.148      333.184        2.332      866.202
12/06/2021  06:03:00      -66.433        0.889       -7.782       21.124       17.850        8.475      446.241      318.616       71.834        0.266        0.042       66.439        5.254        0.006      333.307        2.537      866.186
12/06/2021  06:04:00      -28.976        2.051       -4.274       19.177       14.701        9.589      367.745      216.128       91.950        0.077        0.034       29.048        8.976        0.095      333.299        2.524      866.166
12/06/2021  06:05:00      -30.182       27.056       -0.900       17.154       13.089       10.259      294.274      171.315      105.255        0.111        0.029       40.534        4.333        0.011      333.219        2.392      866.168
12/06/2021  06:06:00      -40.858       14.947       -4.578       16.850       11.235        9.625      283.926      126.218       92.635        0.121        0.025       43.507        7.132        0.027      333.274        2.482      866.181
12/06/2021  06:07:00      -53.416       18.879       -5.867       19.335       21.395       14.709      373.852      457.747      216.358        0.215        0.052       56.654        8.353        0.022      333.304        2.533      866.198
12/06/2021  06:08:00       -9.338      -17.531       -1.678       12.664       17.940        9.391      160.371      321.846       88.189        0.048        0.029       19.863        6.365        0.103      333.333        2.581      866.190
12/06/2021  06:09:00      -15.175       -3.891       -1.848       14.629       20.505       13.288      214.020      420.454      176.568        0.053        0.041       15.665       14.256        0.828      333.313        2.548      866.161
12/06/2021  06:10:00       38.082       28.148       -6.655       24.227       15.255       13.621      586.956      232.707      185.522        0.165        0.050       47.356       11.419        0.058      332.958        1.959      866.133
12/06/2021  06:11:00       52.052       33.849       -5.673       13.225       12.151       11.765      174.901      147.658      138.420        0.217        0.023       62.090        5.869        0.009      333.012        2.049      866.117
12/06/2021  06:12:00       43.857       33.715       -9.166       16.391       14.257        9.592      268.666      203.272       91.998        0.185        0.028       55.319        7.836        0.020      332.850        1.783      866.127
12/06/2021  06:13:00       39.659       29.087       -4.242       23.543       14.923       14.541      554.295      222.710      211.432        0.171        0.049       49.182        8.612        0.031      332.730        1.585      866.153
12/06/2021  06:14:00       46.829       25.463      -12.215       17.048       14.074       12.899      290.631      198.091      166.394        0.182        0.033       53.304       10.022        0.035      332.710        1.550      866.177
12/06/2021  06:15:00       37.462       26.025       -4.826       16.449        8.647        7.023      270.554       74.777       49.319        0.125        0.020       45.615        5.405        0.014      332.746        1.611      866.175
12/06/2021  06:16:00       29.821       28.642       -4.020       14.048       12.467       10.436      197.360      155.438      108.916        0.109        0.023       41.348        8.133        0.039      332.755        1.625      866.154
12/06/2021  06:17:00       58.710       45.913       -9.613       21.127       14.658       10.687      446.368      214.869      114.219        0.321        0.039       74.531       10.637        0.020      332.763        1.636      866.132
12/06/2021  06:18:00       73.110       56.494      -12.185       10.466        9.040        9.345      109.547       81.728       87.320        0.448        0.014       92.394        6.448        0.005      332.742        1.604      866.126
12/06/2021  06:19:00       81.117       37.651      -11.394       12.067       13.025        7.441      145.623      169.639       55.363        0.425        0.019       89.429        1.479        0.000      332.757        1.628      866.111
12/06/2021  06:20:00       79.639       29.035      -12.112       15.762       12.007        9.305      248.437      144.169       86.585        0.391        0.024       84.766        7.492        0.008      332.762        1.635      866.082
12/06/2021  06:21:00       94.235       42.403      -12.414       14.167       15.050        7.520      200.712      226.504       56.543        0.566        0.024      103.335        4.261        0.002      332.776        1.659      866.036
12/06/2021  06:22:00       91.382       56.962      -10.728       16.524        8.464        8.931      273.037       71.641       79.760        0.607        0.021      107.681        3.978        0.001      332.826        1.742      866.001
12/06/2021  06:23:00       77.674       46.254       -6.527       20.824       10.633       11.057      433.631      113.054      122.256        0.444        0.033       90.403        9.761        0.012      332.851        1.785      865.990
12/06/2021  06:24:00       47.892       45.805       -4.497       20.223       17.785       16.353      408.984      316.296      267.433        0.270        0.050       66.270       12.023        0.033      332.838        1.761      866.012
12/06/2021  06:25:00       27.727       32.607       -1.575       21.382       17.123       12.873      457.185      293.191      165.706        0.138        0.046       42.802       10.025        0.055      332.840        1.767      866.043
12/06/2021  06:26:00       43.396       34.481       -4.135       16.424       10.029       13.787      269.738      100.590      190.082        0.182        0.028       55.427        6.796        0.015      332.893        1.854      866.073
12/06/2021  06:27:00       52.947       37.437       -6.421       10.329        9.514        8.236      106.679       90.518       67.825        0.226        0.013       64.846        6.027        0.009      332.914        1.886      866.088
12/06/2021  06:28:00       58.246       46.508       -6.036       11.093        9.853        6.029      123.063       97.079       36.349        0.292        0.013       74.536        6.309        0.007      332.934        1.922      866.096
12/06/2021  06:29:00       42.690       36.720       -1.064       16.561       10.034        9.092      274.266      100.671       82.666        0.181        0.023       56.310        8.058        0.020      332.917        1.895      866.098
12/06/2021  06:30:00       38.049       33.942        0.106       10.619        7.423        6.720      112.767       55.107       45.153        0.141        0.011       50.988        6.422        0.016      332.918        1.895      866.096
12/06/2021  06:31:00       39.981       39.005       -4.887       14.479       13.085       12.639      209.638      171.204      159.742        0.184        0.027       55.856       10.582        0.036      332.922        1.902      866.078
12/06/2021  06:32:00       53.511       42.332       -8.201        9.268        8.336        9.078       85.902       69.490       82.413        0.248        0.012       68.230        3.317        0.002      332.902        1.866      866.039
12/06/2021  06:33:00       61.857       38.267       -6.346       11.073        6.110        6.414      122.610       37.328       41.144        0.277        0.010       72.737        2.857        0.002      332.916        1.888      865.996
12/06/2021  06:34:00       50.307       35.789       -6.371       16.471        7.420        7.219      271.288       55.063       52.120        0.212        0.019       61.739        5.920        0.009      332.906        1.873      865.962
12/06/2021  06:35:00       57.827       38.588      -10.234        7.091        5.541        7.730       50.285       30.699       59.754        0.254        0.007       69.520        3.634        0.003      332.907        1.875      865.935
12/06/2021  06:36:00       56.661       26.528      -10.192        6.341        5.420        5.664       40.202       29.378       32.086        0.206        0.005       62.564        3.470        0.003      332.921        1.895      865.912
12/06/2021  06:37:00       48.310       19.004      -11.967       16.862       25.525        7.988      284.311      651.526       63.805        0.192        0.050       51.914        8.256        0.025      332.981        1.998      865.909
12/06/2021  06:38:00       13.716        2.858      -15.236       19.443       23.877       11.231      378.032      570.110      126.143        0.075        0.054       14.011        6.151        0.193      332.996        2.022      865.910
12/06/2021  06:39:00       63.607       18.636      -14.645       20.416       29.281       16.182      416.827      857.348      261.855        0.307        0.077       66.281       12.286        0.034      333.034        2.085      865.919
12/06/2021  06:40:00       46.069       11.428      -14.933       20.248       16.748       15.472      409.976      280.511      239.374        0.170        0.046       47.465        9.025        0.036      332.977        1.990      865.925
12/06/2021  06:41:00       71.853       28.200      -10.271       15.703       14.667        9.451      246.570      215.107       89.314        0.331        0.028       77.189        6.986        0.008      332.893        1.853      865.922
12/06/2021  06:42:00       70.480       12.492       -6.188       34.610       21.398       18.880     1197.870      457.883      356.465        0.359        0.101       71.579       15.805        0.049      332.851        1.785      865.921
12/06/2021  06:43:00       35.155       13.536       -2.786       38.548       24.057       18.245     1485.943      578.719      332.866        0.191        0.120       37.671       11.689        0.096      332.906        1.876      865.925
12/06/2021  06:44:00       43.196        1.087       -7.769       29.114       29.476       16.836      847.651      868.838      283.462        0.196        0.100       43.210       10.520        0.059      332.935        1.922      865.954
12/06/2021  06:45:00       27.223       14.768       -5.736       21.931       25.693       16.886      480.982      660.141      285.149        0.121        0.071       30.971       10.678        0.119      332.966        1.973      865.973
12/06/2021  06:46:00       29.670       -1.278      -18.296       27.009       30.174       21.581      729.465      910.474      465.751        0.166        0.105       29.698       14.895        0.252      332.965        1.972      865.967
12/06/2021  06:47:00       13.883      -20.700      -18.140       30.642       26.759       18.952      938.911      716.070      359.180        0.148        0.101       24.924       15.218        0.373      333.104        2.201      865.958
12/06/2021  06:48:00      -16.561      -10.742       -6.344       21.660       19.812       18.101      469.150      392.528      327.650        0.081        0.059       19.740       12.303        0.388      333.126        2.238      865.932
12/06/2021  06:49:00      -23.668        9.420       -4.454       22.694       20.826       16.712      514.996      433.711      279.276        0.095        0.061       25.474       12.345        0.235      333.077        2.157      865.889
12/06/2021  06:50:00       -9.509       18.291      -17.533       23.480       23.274       15.695      551.313      541.671      246.346        0.104        0.067       20.615        4.860        0.056      332.947        1.942      865.899
12/06/2021  06:51:00      -25.528        5.601      -21.512       30.918       22.849       13.395      955.936      522.083      179.421        0.140        0.083       26.136        7.770        0.088      332.965        1.972      865.915
12/06/2021  06:52:00      -27.914       -6.872       -9.415       17.120       13.518       10.695      293.081      182.725      114.376        0.075        0.030       28.747        9.844        0.117      332.936        1.923      865.943
12/06/2021  06:53:00      -11.486        1.800       -8.806       13.533       16.020        9.562      183.135      256.652       91.425        0.037        0.027       11.626        7.943        0.467      332.943        1.937      865.969
12/06/2021  06:54:00      -21.755      -10.330      -15.691        8.801        9.980        7.050       77.458       99.591       49.702        0.053        0.011       24.083        4.169        0.030      332.915        1.888      865.985
12/06/2021  06:55:00      -21.382      -12.187       -0.116       12.495       10.198        9.169      156.123      103.990       84.076        0.047        0.017       24.612        4.786        0.038      333.021        2.063      866.009
12/06/2021  06:56:00      -25.479       -9.712       -2.813       11.306        7.491       11.783      127.835       56.119      138.834        0.054        0.016       27.267        9.212        0.114      333.078        2.158      866.030
12/06/2021  06:57:00      -18.880        7.084       -5.671       17.126       11.942        6.142      293.299      142.618       37.723        0.046        0.024       20.165        7.559        0.141      333.066        2.139      866.048
12/06/2021  06:58:00      -10.624      -32.675      -13.640       20.980       31.206       15.231      440.168      973.814      231.985        0.151        0.082       34.359       14.616        0.181      333.121        2.229      866.028
12/06/2021  06:59:00       43.985      -84.738      -17.891       20.444       17.634       20.074      417.974      310.954      402.950        0.528        0.057       95.474       16.375        0.029      333.238        2.422      865.985
12/06/2021  07:00:00       16.995      -66.487      -14.821       29.172       23.283       21.553      851.005      542.080      464.539        0.339        0.093       68.625       16.611        0.059      333.221        2.394      865.941
12/06/2021  07:01:00      -15.825      -16.989       -2.533       24.214       24.536       24.392      586.295      602.011      594.970        0.116        0.089       23.217       21.662        0.871      333.109        2.211      865.905
12/06/2021  07:02:00       -4.964      -19.994       -1.345       21.043       21.097       16.024      442.829      445.085      256.780        0.079        0.057       20.601        9.869        0.230      333.230        2.410      865.870
12/06/2021  07:03:00      -20.763        3.682       -3.949       15.266       11.598       10.894      233.051      134.513      118.673        0.047        0.024       21.087        5.978        0.080      333.079        2.159      865.872
12/06/2021  07:04:00      -28.382       16.273      -10.086        8.546        9.853        7.879       73.033       97.087       62.086        0.070        0.012       32.716        7.240        0.049      333.053        2.117      865.917
12/06/2021  07:05:00      -29.556        4.456       -9.899       21.801       13.536        9.568      475.274      183.225       91.548        0.087        0.038       29.891        7.094        0.056      333.008        2.043      865.973
12/06/2021  07:06:00      -39.224       20.884       -8.968       21.838       17.412       12.508      476.891      303.164      156.442        0.150        0.047       44.437       12.682        0.081      332.875        1.823      865.992
12/06/2021  07:07:00      -29.029       11.177       -5.190       18.246       16.389       14.010      332.933      268.599      196.287        0.090        0.040       31.106        4.398        0.020      332.813        1.721      865.974
12/06/2021  07:08:00      -59.779       21.670       -9.557       30.325       31.109       17.101      919.622      967.763      292.441        0.316        0.109       63.586       17.907        0.079      332.747        1.612      865.927
12/06/2021  07:09:00      -65.876       19.159      -20.407       27.213       30.449       18.511      740.535      927.119      342.644        0.357        0.101       68.605       10.030        0.021      332.768        1.645      865.885
12/06/2021  07:10:00      -77.711       21.418      -24.041       25.640       24.195       18.256      657.401      585.401      333.267        0.433        0.079       80.609       11.864        0.022      332.772        1.652      865.839
12/06/2021  07:11:00      -40.798       -2.759       -8.990       42.580       22.063       12.404     1813.066      486.774      153.863        0.210        0.123       40.891       14.143        0.120      332.824        1.739      865.811
12/06/2021  07:12:00      -80.717       26.269       -9.230       25.028       19.945       15.239      626.409      397.808      232.219        0.427        0.063       84.884       12.440        0.021      332.910        1.880      865.803
12/06/2021  07:13:00      -83.073       36.512       -9.420       19.741       16.444       12.421      389.714      270.397      154.269        0.457        0.041       90.742       10.431        0.013      332.867        1.811      865.807
12/06/2021  07:14:00      -73.929       36.933       -7.881       17.307       17.871       11.852      299.536      319.366      140.478        0.383        0.038       82.641        9.607        0.014      332.894        1.856      865.799
12/06/2021  07:15:00      -64.983       30.365       -2.065       26.233       19.103       14.847      688.159      364.923      220.435        0.321        0.064       71.728       14.067        0.038      332.915        1.889      865.778
12/06/2021  07:16:00      -46.301       17.197       -9.201       24.164       21.855       14.307      583.917      477.625      204.691        0.189        0.063       49.392       12.357        0.063      332.949        1.946      865.746
12/06/2021  07:17:00      -35.154        2.835       -7.968       17.152       19.360       17.871      294.186      374.802      319.378        0.115        0.049       35.268       12.196        0.120      333.005        2.037      865.703
12/06/2021  07:18:00      -37.713       19.302       -4.714       17.464       13.570       10.555      305.008      184.142      111.400        0.121        0.030       42.366        9.392        0.049      332.987        2.006      865.665
12/06/2021  07:19:00      -31.427        4.457       -5.705       22.501       17.316       14.000      506.280      299.856      196.012        0.102        0.050       31.741       12.798        0.163      333.064        2.136      865.641
12/06/2021  07:20:00      -39.675       12.588       -9.010       16.389       13.425       11.546      268.600      180.219      133.305        0.120        0.029       41.624        6.922        0.028      333.037        2.091      865.638
12/06/2021  07:21:00      -46.393       16.279       -9.934       16.418       10.098       10.909      269.545      101.979      119.016        0.150        0.025       49.167        8.403        0.029      333.019        2.060      865.648
12/06/2021  07:22:00      -43.613       11.954       -6.280       22.297       12.421       15.778      497.173      154.288      248.939        0.149        0.045       45.221       12.956        0.082      333.022        2.067      865.679
12/06/2021  07:23:00      -44.138        6.842       -5.615       25.524       17.187       19.538      651.498      295.385      381.745        0.168        0.066       44.665       16.602        0.138      333.020        2.062      865.742
12/06/2021  07:24:00      -83.183       10.330       -7.476       20.742       17.977       17.159      430.213      323.156      294.434        0.406        0.052       83.822       15.048        0.032      333.076        2.156      865.786
12/06/2021  07:25:00      -18.682       14.595       -1.410       28.885       21.841       20.412      834.347      477.015      416.641        0.115        0.086       23.707       19.311        0.664      333.087        2.174      865.811
12/06/2021  07:26:00      -60.716       16.480       -9.197       27.242       25.386       13.846      742.152      644.440      191.708        0.281        0.079       62.913        3.960        0.004      333.015        2.055      865.807
12/06/2021  07:27:00      -76.965       15.306       -1.108       34.288       21.819       15.048     1175.633      476.058      226.440        0.402        0.094       78.472       17.463        0.050      333.060        2.128      865.787
12/06/2021  07:28:00      -47.390       21.131       -1.444       20.701       16.156       12.610      428.517      261.000      159.018        0.177        0.042       51.888       12.526        0.058      333.001        2.031      865.765
12/06/2021  07:29:00      -52.694       18.061       -7.056       16.769       17.622       10.165      281.210      310.550      103.326        0.192        0.035       55.703        5.901        0.011      333.107        2.205      865.762
12/06/2021  07:30:00      -51.921       19.129       -5.167       26.087       15.528       10.182      680.515      241.116      103.666        0.206        0.051       55.332       10.616        0.037      333.118        2.223      865.781
12/06/2021  07:31:00      -41.450       31.451       -4.580       20.633       16.893       13.495      425.703      285.372      182.104        0.181        0.045       52.031       12.560        0.058      333.102        2.198      865.818
12/06/2021  07:32:00      -52.012       21.045      -12.418       15.130       13.106        9.832      228.920      171.757       96.672        0.190        0.025       56.108        8.094        0.021      333.176        2.319      865.853
12/06/2021  07:33:00      -42.159       17.999      -10.168       11.020       10.694        8.802      121.432      114.365       77.476        0.126        0.016       45.841        4.023        0.008      333.250        2.443      865.880
12/06/2021  07:34:00      -60.600       25.827      -13.681        9.213       12.220       11.015       84.883      149.333      121.336        0.244        0.018       65.874        3.849        0.003      333.256        2.453      865.913
12/06/2021  07:35:00      -40.472        2.580      -14.774       27.070       24.318       12.857      732.765      591.388      165.311        0.168        0.074       40.554        4.030        0.010      333.276        2.487      865.920
12/06/2021  07:36:00      -10.704      -23.617      -14.059        7.394       13.515        8.837       54.666      182.649       78.085        0.059        0.016       25.929        3.429        0.017      333.204        2.365      865.917
12/06/2021  07:37:00      -16.265      -16.162      -11.902       15.574       13.693       12.939      242.540      187.494      167.426        0.063        0.030       22.930        6.083        0.070      333.382        2.662      865.912
12/06/2021  07:38:00      -14.895      -32.834      -20.585       13.474       15.289       11.511      181.546      233.767      132.509        0.114        0.027       36.054        8.381        0.054      333.360        2.625      865.906
12/06/2021  07:39:00       -3.741        7.348        2.338        9.739       11.774        9.649       94.844      138.619       93.112        0.020        0.016        8.246        5.290        0.412      333.433        2.747      865.923
12/06/2021  07:40:00       -5.503        1.324       -5.460       12.528       14.755       11.715      156.945      217.714      137.233        0.029        0.026        5.660        6.521        1.328      333.399        2.688      865.948
12/06/2021  07:41:00      -21.602        7.885       -3.604       12.631       10.550        9.335      159.530      111.307       87.138        0.045        0.018       22.996        8.626        0.141      333.341        2.593      865.989
12/06/2021  07:42:00      -35.433       23.507       -7.424       20.975       16.041        8.256      439.934      257.314       68.165        0.131        0.038       42.521        3.582        0.007      333.384        2.665      866.015
12/06/2021  07:43:00       -9.321       22.111       -9.318       10.726       11.972        9.137      115.053      143.323       83.484        0.050        0.017       23.995        7.200        0.090      333.361        2.629      866.014
12/06/2021  07:44:00       20.795       21.887       -8.749       13.516       15.208       13.324      182.685      231.293      177.529        0.079        0.030       30.190        7.797        0.067      333.369        2.641      865.985
12/06/2021  07:45:00       36.696       21.917       -7.273       23.497       37.305       24.846      552.105     1391.664      617.335        0.222        0.128       42.743       16.086        0.142      333.378        2.655      865.943
12/06/2021  07:46:00       44.638       -1.898      -15.692       33.385       31.636       25.119     1114.580     1000.809      630.940        0.249        0.137       44.678       18.086        0.164      333.436        2.751      865.894
12/06/2021  07:47:00       87.193       39.128      -18.565       47.888       42.977       21.681     2293.279     1847.039      470.063        0.704        0.231       95.570        8.164        0.007      333.298        2.523      865.856
12/06/2021  07:48:00       38.626       11.183      -28.160       30.588       36.507       20.667      935.628     1332.760      427.104        0.255        0.135       40.213        6.064        0.023      333.351        2.611      865.851
12/06/2021  07:49:00       14.767      -12.914      -24.602       26.116       36.622       24.566      682.067     1341.167      603.500        0.181        0.131       19.617        7.047        0.129      333.484        2.829      865.868
12/06/2021  07:50:00      -10.978       -6.927      -15.443       16.939       17.139       16.630      286.935      293.733      276.556        0.063        0.043       12.981       11.232        0.749      333.502        2.860      865.887
12/06/2021  07:51:00       -9.119      -40.754      -17.980       50.026       38.267       21.845     2502.574     1464.379      477.222        0.325        0.222       41.762       25.402        0.370      333.590        3.005      865.869
12/06/2021  07:52:00       82.733     -122.073      -26.148       35.783       34.495       22.904     1280.410     1189.914      524.601        1.271        0.150      147.467       21.636        0.022      333.452        2.777      865.836
12/06/2021  07:53:00       66.090     -145.090      -32.421       25.656       23.321       18.385      658.210      543.874      338.021        1.400        0.077      159.433       16.899        0.011      333.277        2.488      865.807
12/06/2021  07:54:00       55.662     -118.191      -20.552       31.527       38.637       30.578      993.959     1492.791      934.984        1.046        0.171      130.642       29.363        0.051      333.310        2.544      865.796
12/06/2021  07:55:00       84.687     -102.828      -40.809       26.604       30.518       22.349      707.750      931.372      499.497        1.077        0.107      133.212       19.224        0.021      333.284        2.498      865.790
12/06/2021  07:56:00       14.007      -45.277      -28.466       51.901       26.813       21.686     2693.698      718.917      470.286        0.347        0.194       47.395       15.367        0.105      333.414        2.713      865.784
12/06/2021  07:57:00      -16.352        1.332      -17.637       19.731       22.012        9.433      389.321      484.508       88.977        0.077        0.048       16.406        4.167        0.064      333.517        2.885      865.827
12/06/2021  07:58:00       -3.797       19.228       -0.742       14.771       22.471       18.723      218.195      504.959      350.556        0.073        0.054       19.599       10.196        0.271      333.511        2.874      865.848
12/06/2021  07:59:00      -48.677      -19.774       -6.471       38.643       26.869       24.524     1493.245      721.966      601.449        0.281        0.141       52.540       22.383        0.181      333.518        2.886      865.916
12/06/2021  08:00:00      -70.679        2.888        2.106       37.828       24.420       17.651     1430.984      596.314      311.562        0.367        0.117       70.738       17.343        0.060      333.523        2.894      865.927
12/06/2021  08:01:00      -79.487       19.361       -9.129       13.407       18.533       10.535      179.736      343.457      110.985        0.371        0.032       81.811        6.811        0.007      333.395        2.683      865.906
12/06/2021  08:02:00      -60.472       -6.361      -16.183       19.500       17.765       11.363      380.258      315.601      129.124        0.239        0.041       60.805        6.725        0.012      333.471        2.806      865.871
12/06/2021  08:03:00      -28.972      -10.712       -7.553       11.670       26.820       12.355      136.197      719.337      152.655        0.101        0.050       30.889       14.089        0.208      333.571        2.975      865.817
12/06/2021  08:04:00      -13.205       -4.732       -4.888       12.496       13.993       11.844      156.160      195.807      140.281        0.036        0.025       14.028        8.516        0.369      333.614        3.047      865.773
12/06/2021  08:05:00      -31.243        1.497       -7.708       17.319       16.379       12.592      299.963      268.278      158.565        0.088        0.036       31.279        7.454        0.057      333.673        3.141      865.760
12/06/2021  08:06:00      -34.997       -4.022       -5.406       18.505       21.340       15.314      342.425      455.411      234.528        0.115        0.052       35.228        9.170        0.068      333.674        3.145      865.771
12/06/2021  08:07:00      -13.516      -10.763        2.814       26.761       17.637       14.403      716.136      311.056      207.433        0.077        0.062       17.278       14.318        0.687      333.667        3.132      865.797
12/06/2021  08:08:00        8.233        0.527        2.407       15.393       13.518       13.954      236.930      182.735      194.700        0.034        0.031        8.250        7.875        0.911      333.667        3.133      865.803
12/06/2021  08:09:00       17.779       24.986       -3.285       21.719       11.508        8.202      471.713      132.439       67.279        0.081        0.034       30.666        5.723        0.035      333.442        2.761      865.780
12/06/2021  08:10:00       42.234       38.718       -9.931       13.835        8.533        7.755      191.405       72.804       60.137        0.185        0.016       57.296        4.837        0.007      333.345        2.602      865.723
12/06/2021  08:11:00       28.700       46.919       -0.117       25.457       15.701       15.713      648.043      246.512      246.883        0.208        0.057       55.001       15.861        0.083      333.395        2.683      865.655
12/06/2021  08:12:00        2.042       21.708        1.235       15.043       14.882       14.969      226.285      221.481      224.058        0.057        0.034       21.804        9.913        0.207      333.449        2.770      865.610
12/06/2021  08:13:00        5.615       18.339       -0.180       16.328       12.255       11.284      266.608      150.194      127.319        0.046        0.027       19.179        8.734        0.207      333.449        2.770      865.592
12/06/2021  08:14:00       11.645       26.776        0.025       15.209       13.427       13.451      231.303      180.288      180.935        0.072        0.030       29.198       10.047        0.118      333.441        2.759      865.605
12/06/2021  08:15:00      -24.344       30.941       -8.676       28.687       14.616        7.330      822.971      213.626       53.733        0.136        0.055       39.370        5.042        0.016      333.455        2.783      865.649
12/06/2021  08:16:00      -41.183       26.487      -13.885       13.108       14.445       15.037      171.822      208.662      226.108        0.160        0.030       48.965        9.406        0.037      333.567        2.967      865.692
12/06/2021  08:17:00      -28.658       43.715       -8.325        8.553        6.894        8.810       73.150       47.521       77.624        0.150        0.010       52.271        2.695        0.003      333.494        2.844      865.693
12/06/2021  08:18:00      -32.653       28.604      -10.282       11.632        9.088        7.914      135.296       82.600       62.627        0.114        0.014       43.410        4.804        0.012      333.514        2.878      865.654
12/06/2021  08:19:00        4.392       12.533       -7.357       20.515       12.200       10.190      420.864      148.835      103.843        0.045        0.034       13.280       10.133        0.582      333.530        2.907      865.672
12/06/2021  08:20:00       55.990        8.883       -9.848       12.972       11.716       12.125      168.275      137.273      147.012        0.188        0.023       56.690        5.955        0.011      333.502        2.858      865.635
12/06/2021  08:21:00       40.609        5.178      -11.566       23.795       22.779       15.721      566.208      518.877      247.165        0.157        0.067       40.938       11.560        0.080      333.622        3.058      865.624
12/06/2021  08:22:00       54.813       -3.605      -13.537       28.469       21.307       23.697      810.486      453.969      561.568        0.251        0.091       54.932       14.455        0.069      333.591        3.006      865.620
12/06/2021  08:23:00       50.056       -0.150      -17.359       36.986       41.199       23.282     1367.952     1697.342      542.055        0.321        0.180       50.056       15.558        0.097      333.468        2.803      865.604
12/06/2021  08:24:00       54.761        7.377      -31.064       31.818       58.849       30.238     1012.368     3463.215      914.309        0.470        0.269       55.256       20.991        0.144      333.557        2.951      865.558
12/06/2021  08:25:00       45.837      -50.670      -28.603       32.802       34.040       23.028     1075.999     1158.706      530.294        0.413        0.138       68.327       16.536        0.059      333.814        3.376      865.527
12/06/2021  08:26:00       42.926      -35.141      -31.623       30.246       43.707       25.683      914.797     1910.282      659.633        0.378        0.174       55.476       13.148        0.056      333.724        3.228      865.502
12/06/2021  08:27:00       64.607      -47.312      -24.398       38.014       49.675       29.616     1445.080     2467.561      877.108        0.590        0.239       80.078       16.759        0.044      333.835        3.409      865.472
12/06/2021  08:28:00        8.731       11.031      -10.557       43.549       44.567       23.131     1896.485     1986.239      535.032        0.236        0.221       14.068       20.765        2.179      333.637        3.084      865.452
12/06/2021  08:29:00       -7.073        1.339       -1.080       14.629       17.913       10.500      214.018      320.861      110.247        0.035        0.032        7.199        3.269        0.206      333.659        3.121      865.441
12/06/2021  08:30:00       -5.895      -50.259      -11.765       59.108       47.392       26.987     3493.799     2246.049      728.294        0.458        0.323       50.604       25.281        0.250      333.638        3.085      865.393
12/06/2021  08:31:00       41.284      -83.925      -20.714       33.150       34.334       19.268     1098.954     1178.829      371.271        0.591        0.132       93.530       16.403        0.031      333.609        3.037      865.329
12/06/2021  08:32:00        5.506      -21.749       -7.764       34.761       47.799       30.312     1208.322     2284.743      918.790        0.249        0.221       22.435       23.360        1.084      333.815        3.378      865.306
12/06/2021  08:33:00        5.025        8.151      -12.917       31.070       25.676       22.827      965.330      659.277      521.051        0.120        0.107        9.576       13.427        1.966      333.751        3.271      865.289
12/06/2021  08:34:00        0.742       -6.175      -12.734       19.325       17.670       20.446      373.446      312.240      418.052        0.065        0.055        6.219       11.318        3.312      333.774        3.309      865.285
12/06/2021  08:35:00       48.240       10.521      -14.290       42.297       37.202       20.845     1789.045     1384.018      434.526        0.312        0.180       49.374       20.018        0.164      333.648        3.102      865.330
12/06/2021  08:36:00       88.937        6.299       -4.357       30.621       32.002       21.363      937.648     1024.103      456.368        0.519        0.121       89.160       17.501        0.039      333.467        2.801      865.351
12/06/2021  08:37:00       68.947       25.093      -13.577       47.428       39.558       24.142     2249.415     1564.869      582.829        0.498        0.220       73.371       17.442        0.057      333.520        2.890      865.382
12/06/2021  08:38:00       69.741       16.589      -15.910       38.261       30.992       19.560     1463.880      960.479      382.606        0.410        0.140       71.687       11.640        0.026      333.493        2.844      865.384
12/06/2021  08:39:00       79.994        3.108      -14.535       33.896       32.116       18.825     1148.909     1031.412      354.377        0.458        0.127       80.054       17.100        0.046      333.543        2.927      865.367
12/06/2021  08:40:00       41.440        5.262       -5.691       33.724       32.305       20.253     1137.329     1043.621      410.200        0.218        0.130       41.772       18.322        0.192      333.672        3.141      865.343
12/06/2021  08:41:00       71.003        4.265       -6.883       27.824       30.465       18.993      774.171      928.136      360.730        0.358        0.103       71.131        8.882        0.016      333.607        3.033      865.334
12/06/2021  08:42:00       86.389       42.209       -5.938       29.068       25.852       20.265      844.956      668.305      410.682        0.560        0.096       96.149       10.232        0.011      333.571        2.973      865.341
12/06/2021  08:43:00       69.564       37.164       -9.452       26.894       26.712       19.598      723.305      713.538      384.062        0.406        0.091       78.869       16.139        0.042      333.601        3.026      865.356
12/06/2021  08:44:00       58.230       35.859      -19.087       28.028       23.415       15.904      785.557      548.266      252.930        0.331        0.079       68.385        6.757        0.010      333.589        3.005      865.349
12/06/2021  08:45:00       49.160       10.040       -6.130       40.720       26.790       16.461     1658.104      717.706      270.968        0.260        0.132       50.175       16.965        0.114      333.646        3.098      865.318
12/06/2021  08:46:00       40.178       17.175       -1.768       23.903       21.218       12.398      571.341      450.194      153.713        0.154        0.059       43.695       10.729        0.060      333.633        3.078      865.284
12/06/2021  08:47:00       15.479       30.337        0.237       33.754       35.730       20.664     1139.302     1276.636      426.988        0.200        0.142       34.058       14.607        0.184      333.746        3.264      865.269
12/06/2021  08:48:00      -43.613      -31.511      -14.721       37.450       32.405       22.517     1402.489     1050.052      507.020        0.304        0.148       53.806       20.191        0.141      334.056        3.777      865.258
12/06/2021  08:49:00       -4.560      -53.363       -5.862       27.468       31.914       24.333      754.488     1018.523      592.117        0.263        0.118       53.557       13.222        0.061      334.233        4.070      865.237
12/06/2021  08:50:00      -29.762       -2.548        0.813       18.123       23.249       16.955      328.443      540.520      287.488        0.102        0.058       29.871       13.034        0.190      334.059        3.782      865.202
12/06/2021  08:51:00        7.849       18.076       -2.022       19.955       22.500       18.847      398.200      506.243      355.205        0.083        0.063       19.706       11.115        0.318      333.903        3.524      865.213
12/06/2021  08:52:00       41.975       51.046        7.932       35.063       25.899       17.503     1229.449      670.749      306.361        0.332        0.110       66.087       12.899        0.038      333.767        3.298      865.245
12/06/2021  08:53:00       48.011       47.237      -15.842       20.122       18.378       21.942      404.883      337.734      481.441        0.301        0.061       67.352       11.589        0.030      333.762        3.290      865.293
12/06/2021  08:54:00       -4.344       44.474        4.806       35.805       25.789       13.646     1281.988      665.072      186.216        0.208        0.107       44.686        9.605        0.046      333.954        3.608      865.374
12/06/2021  08:55:00      -45.955       52.953      -11.127       20.426       29.152       15.180      417.224      849.864      230.426        0.327        0.075       70.113       13.674        0.038      333.873        3.474      865.447
12/06/2021  08:56:00      -11.279       58.915      -12.777       17.539       22.015       14.572      307.607      484.647      212.357        0.238        0.050       59.985        2.821        0.002      333.828        3.400      865.486
12/06/2021  08:57:00        9.085       44.481      -16.191       12.061       14.467       18.230      145.478      209.303      332.332        0.151        0.034       45.400        6.071        0.018      333.862        3.456      865.477
12/06/2021  08:58:00       22.401       25.125       -6.960       13.679        9.065       13.334      187.107       82.165      177.787        0.081        0.022       33.661        5.275        0.025      333.869        3.467      865.475
12/06/2021  08:59:00       23.054       21.287        0.447       13.190       12.284       12.779      173.974      150.886      163.294        0.074        0.024       31.378        9.982        0.101      333.898        3.516      865.503
12/06/2021  09:00:00       14.148       30.122       -6.429       16.717       17.199       12.706      279.444      295.820      161.434        0.094        0.037       33.279        7.962        0.057      333.887        3.500      865.543
12/06/2021  09:01:00      -70.688       21.060      -14.841       30.132       23.262       20.991      907.953      541.105      440.605        0.377        0.094       73.759       13.313        0.033      334.031        3.736      865.574
12/06/2021  09:02:00      -74.820       22.931      -17.087       33.668       29.019       24.299     1133.504      842.127      590.442        0.449        0.128       78.255       16.549        0.045      334.004        3.691      865.582
12/06/2021  09:03:00      -42.020       52.133      -12.469       14.840       20.115       12.976      220.220      404.619      168.386        0.272        0.040       66.959        8.260        0.015      333.878        3.483      865.534
12/06/2021  09:04:00      -25.496       49.599      -12.003       17.122       24.320       13.351      293.177      591.444      178.239        0.216        0.053       55.769        8.786        0.025      333.908        3.533      865.463
12/06/2021  09:05:00      -48.323       29.625      -10.899       20.055       12.847       13.208      402.205      165.053      174.453        0.204        0.037       56.681        9.304        0.027      334.022        3.720      865.422
12/06/2021  09:06:00      -21.588       23.302       -9.097       17.594       14.310        9.439      309.557      204.763       89.097        0.085        0.030       31.765       10.427        0.108      333.970        3.635      865.392
12/06/2021  09:07:00       23.737       11.540      -11.356       21.982       19.124       22.035      483.226      365.729      485.544        0.108        0.067       26.393       10.545        0.160      334.045        3.758      865.367
12/06/2021  09:08:00      -19.820       28.831       -5.484       27.491       16.494       18.571      755.734      272.041      344.889        0.131        0.069       34.987        9.082        0.067      334.123        3.887      865.357
12/06/2021  09:09:00      -11.508       15.253       -7.998       22.786       15.515       12.498      519.184      240.716      156.211        0.067        0.046       19.107       13.493        0.499      334.046        3.761      865.331
12/06/2021  09:10:00       19.337       28.607       -5.406       19.688       11.919        9.826      387.615      142.059       96.544        0.092        0.031       34.529        7.108        0.042      334.035        3.742      865.298
12/06/2021  09:11:00      -10.335       15.345       -7.283       12.754       11.179       14.864      162.666      124.966      220.950        0.045        0.025       18.501       10.668        0.332      334.028        3.733      865.289
12/06/2021  09:12:00        6.883       19.776      -12.606       14.272       19.154       15.094      203.698      366.875      227.843        0.070        0.040       20.939       13.584        0.421      334.054        3.773      865.315
12/06/2021  09:13:00        3.341       20.133       -6.321        7.609       13.203       11.413       57.904      174.322      130.264        0.041        0.018       20.408        7.794        0.146      333.992        3.671      865.325
12/06/2021  09:14:00      -19.833       26.052       -4.213       26.986       12.908       11.127      728.229      166.624      123.802        0.105        0.051       32.742        2.995        0.008      333.989        3.667      865.338
12/06/2021  09:15:00      -32.358      -19.365      -10.073       27.301       13.679       14.177      745.322      187.104      200.987        0.133        0.057       37.710       11.295        0.090      334.141        3.918      865.352
12/06/2021  09:16:00      -22.425      -31.658       -9.233       15.245       14.752        9.875      232.412      217.619       97.514        0.107        0.027       38.796        5.407        0.019      334.135        3.906      865.364
12/06/2021  09:17:00       -7.639        5.833        5.082       15.529       15.150       14.464      241.156      229.516      209.221        0.040        0.034        9.611        7.535        0.615      334.290        4.164      865.373
12/06/2021  09:18:00      -19.350      -13.721        1.334       23.771       29.081       13.524      565.074      845.684      182.898        0.108        0.080       23.720       10.927        0.212      334.314        4.205      865.407
12/06/2021  09:19:00      -36.737       18.409       -7.134       22.157       21.236       17.344      490.932      450.963      300.831        0.149        0.062       41.092       16.022        0.152      334.231        4.067      865.453
12/06/2021  09:20:00      -46.985       10.109      -10.387       33.339       14.741       15.637     1111.487      217.286      244.522        0.200        0.079       48.061       17.428        0.132      334.195        4.006      865.484
12/06/2021  09:21:00      -46.030      -22.329      -13.626       22.118       29.149       21.545      489.214      849.651      464.166        0.230        0.090       51.160       15.099        0.087      334.211        4.034      865.479
12/06/2021  09:22:00      -40.473      -38.481      -27.812       20.649       30.904       15.490      426.367      955.068      239.952        0.276        0.081       55.847        5.783        0.011      334.212        4.036      865.458
12/06/2021  09:23:00      -23.875        1.480       -9.967       24.651       37.778       14.702      607.667     1427.212      216.149        0.146        0.113       23.921       15.127        0.400      334.211        4.034      865.441
12/06/2021  09:24:00      -28.789      -11.417        1.375       23.452        9.276       13.655      549.977       86.040      186.452        0.089        0.041       30.970       10.200        0.108      334.290        4.165      865.415
12/06/2021  09:25:00       38.634        2.663      -13.601       38.126       31.658       21.575     1453.582     1002.218      465.459        0.230        0.146       38.725       17.205        0.197      334.188        3.996      865.374
12/06/2021  09:26:00       46.179       -7.066      -13.138       41.326       30.709       21.696     1707.875      943.035      470.711        0.274        0.156       46.716       19.542        0.175      334.207        4.027      865.352
12/06/2021  09:27:00       21.593       -7.958       -5.740       38.566       25.963       31.605     1487.335      674.100      998.849        0.186        0.158       23.013       27.839        1.463      334.218        4.046      865.335
12/06/2021  09:28:00       28.824        2.488        4.579       46.863       35.216       31.523     2196.163     1240.137      993.700        0.264        0.222       28.931       22.665        0.614      334.251        4.100      865.313
12/06/2021  09:29:00       36.096      -10.893        4.647       52.153       32.513       28.354     2719.918     1057.078      803.977        0.301        0.229       37.704       26.815        0.506      334.190        3.999      865.294
12/06/2021  09:30:00       46.331      -11.676      -12.099       42.007       42.619       24.952     1764.582     1816.361      622.612        0.332        0.210       47.780       21.449        0.202      334.189        3.997      865.270
12/06/2021  09:31:00       62.345      -19.455      -26.643       54.288       37.177       28.489     2947.180     1382.137      811.619        0.506        0.257       65.310       19.450        0.089      334.226        4.059      865.204
12/06/2021  09:32:00       65.164       41.215      -22.527       40.013       52.220       38.931     1601.061     2726.904     1515.618        0.615        0.292       77.103       18.433        0.057      334.222        4.051      865.164
12/06/2021  09:33:00        4.704        5.666      -12.874       25.925       26.975       21.209      672.083      727.655      449.803        0.103        0.092        7.364       11.624        2.491      334.324        4.220      865.174
12/06/2021  09:34:00       60.123       -0.588      -11.890       28.146       27.491       20.909      792.190      755.775      437.182        0.287        0.099       60.126       14.023        0.054      334.174        3.975      865.195
12/06/2021  09:35:00       73.908       25.500       -5.321       22.988       15.830       15.969      528.451      250.596      255.024        0.359        0.052       78.183        7.620        0.010      334.069        3.799      865.191
12/06/2021  09:36:00       48.592       13.866       -8.683       33.746       32.426       16.401     1138.764     1051.428      269.007        0.254        0.123       50.532        8.860        0.031      334.226        4.057      865.202
12/06/2021  09:37:00       33.060       30.212      -17.695       23.859       33.630       28.760      569.258     1130.986      827.132        0.242        0.126       44.785       13.256        0.088      334.291        4.166      865.234
12/06/2021  09:38:00       58.801       34.661       -9.717       30.204       27.285       16.604      912.276      744.463      275.681        0.334        0.097       68.257       10.490        0.024      334.239        4.079      865.282
12/06/2021  09:39:00       16.241       80.543      -14.442       30.569       45.713       19.497      934.460     2089.651      380.133        0.518        0.170       82.164       23.910        0.085      334.249        4.098      865.312
12/06/2021  09:40:00       69.258       58.379      -10.976       28.310       27.893       17.119      801.453      778.037      293.052        0.510        0.094       90.581        6.523        0.005      334.184        3.989      865.285
12/06/2021  09:41:00       50.677       16.353      -11.877       42.817       27.146       20.893     1833.283      736.884      436.510        0.299        0.150       53.250       22.028        0.171      334.268        4.130      865.232
12/06/2021  09:42:00       21.939       35.129      -21.870       28.584       22.890       16.039      817.041      523.939      257.234        0.190        0.080       41.417       14.280        0.119      334.199        4.014      865.222
12/06/2021  09:43:00       -5.298       -1.099      -17.859       12.317       12.306       12.738      151.708      151.437      162.249        0.041        0.023        5.411       10.133        3.507      334.363        4.286      865.210
12/06/2021  09:44:00       38.176      -48.985      -32.368       39.631       50.527       26.737     1570.610     2552.962      714.849        0.487        0.242       62.104       31.429        0.256      334.430        4.398      865.159
12/06/2021  09:45:00      113.668     -127.810      -47.303       45.250       63.536       27.754     2047.574     4036.817      770.267        1.917        0.343      171.043       23.708        0.019      334.325        4.221      865.076
12/06/2021  09:46:00       68.870      -93.290      -23.997       49.600       39.836       32.413     2460.201     1586.924     1050.590        0.956        0.255      115.958       28.154        0.059      334.415        4.372      865.053
12/06/2021  09:47:00       65.726      -92.996      -25.023       35.776       41.829       23.367     1279.944     1749.625      546.024        0.858        0.179      113.878       18.131        0.025      334.381        4.316      865.083
12/06/2021  09:48:00       77.770      -85.181      -21.260       41.567       31.563       29.246     1727.846      996.214      855.308        0.867        0.179      115.343       18.267        0.025      334.444        4.419      865.082
12/06/2021  09:49:00       94.560      -60.945      -22.722       62.848       44.153       31.032     3949.842     1949.466      963.008        1.002        0.343      112.498       29.787        0.070      334.426        4.391      865.040
12/06/2021  09:50:00       28.504      -61.284      -16.750       50.622       64.885       36.450     2562.574     4210.115     1328.638        0.647        0.405       67.588       35.516        0.276      334.508        4.524      864.955
12/06/2021  09:51:00      106.052       17.969      -10.999       62.756       40.151       30.402     3938.256     1612.104      924.256        0.908        0.324      107.563       24.056        0.050      334.282        4.152      864.953
12/06/2021  09:52:00       50.352       26.607        0.921       47.703       38.007       21.426     2275.600     1444.494      459.089        0.371        0.209       56.949       14.403        0.064      334.382        4.318      864.994
12/06/2021  09:53:00       28.583        2.925       -5.640       39.906       31.431       29.799     1592.528      987.900      888.000        0.216        0.173       28.732       15.904        0.306      334.578        4.642      865.019
12/06/2021  09:54:00       29.781       -9.370       -3.140       40.426       31.954       25.743     1634.236     1021.088      662.720        0.215        0.166       31.220       20.436        0.428      334.506        4.523      864.987
12/06/2021  09:55:00       39.313       -6.971       -5.902       41.836       39.523       32.135     1750.271     1562.055     1032.631        0.299        0.217       39.926       23.674        0.352      334.484        4.485      864.901
12/06/2021  09:56:00       40.864        0.987       -5.373       53.645       49.456       45.479     2877.816     2445.872     2068.337        0.454        0.370       40.876       30.536        0.558      334.502        4.515      864.821
12/06/2021  09:57:00       76.734      -12.930      -19.078       61.798       40.801       41.120     3818.932     1664.683     1690.840        0.680        0.359       77.815       32.177        0.171      334.414        4.370      864.745
12/06/2021  09:58:00       23.737      -10.949       -7.793       51.229       41.954       36.106     2624.423     1760.099     1303.615        0.322        0.284       26.141       30.255        1.340      334.505        4.521      864.688
12/06/2021  09:59:00       55.948      -18.955       -7.679       51.713       43.022       40.705     2674.199     1850.909     1656.909        0.486        0.309       59.072       29.367        0.247      334.516        4.537      864.684
12/06/2021  10:00:00      102.056      -21.950      -18.327       80.060       46.275       46.870     6409.600     2141.356     2196.778        1.099        0.537      104.390       43.750        0.176      334.416        4.374      864.688
12/06/2021  10:01:00       42.677      -15.119        2.028       57.170       41.721       32.047     3268.403     1740.636     1027.005        0.404        0.302       45.276       33.637        0.552      334.495        4.503      864.734
12/06/2021  10:02:00      110.163       42.016      -15.416       52.145       35.809       21.091     2719.065     1282.300      444.810        0.929        0.222      117.904       18.824        0.025      334.465        4.455      864.794
12/06/2021  10:03:00      128.714       35.211      -29.521       71.832       43.739       24.369     5159.856     1913.102      593.869        1.317        0.383      133.443       28.479        0.046      334.388        4.325      864.828
12/06/2021  10:04:00      169.019       57.910      -12.859       38.983       34.482       24.177     1519.678     1189.003      584.528        1.769        0.165      178.665       15.011        0.007      334.385        4.323      864.818
12/06/2021  10:05:00      123.418       31.089      -14.617       56.543       49.269       38.290     3197.114     2427.408     1466.098        1.175        0.355      127.273       18.014        0.020      334.483        4.484      864.752
12/06/2021  10:06:00      113.756       34.797      -14.135       62.078       67.386       33.438     3853.696     4540.889     1118.113        1.193        0.476      118.959       25.628        0.046      334.535        4.570      864.678
12/06/2021  10:07:00      109.641       93.389      -24.325       63.350       43.729       37.040     4013.204     1912.236     1371.986        1.431        0.365      144.023       27.496        0.036      334.356        4.272      864.712
12/06/2021  10:08:00       53.460       92.311       -5.085       47.557       42.496       28.493     2261.689     1805.876      811.859        0.814        0.244      106.674       24.716        0.054      334.387        4.325      864.838
12/06/2021  10:09:00       51.594       67.219       -6.928       32.229       29.607       26.236     1038.703      876.582      688.321        0.492        0.130       84.737       22.581        0.071      334.428        4.393      864.929
12/06/2021  10:10:00       10.335       90.767       -8.948       37.504       38.092       25.824     1406.582     1450.971      666.891        0.597        0.176       91.353        8.185        0.008      334.431        4.397      864.991
12/06/2021  10:11:00      -30.957       58.571      -10.477       22.251       27.695       18.614      495.105      767.016      346.470        0.305        0.080       66.249       10.821        0.027      334.504        4.519      865.068
12/06/2021  10:12:00        5.838       40.337       -7.908       29.856       19.336       16.272      891.374      373.877      264.774        0.163        0.077       40.757        9.311        0.052      334.438        4.409      865.104
12/06/2021  10:13:00        0.415      104.404       -8.785       30.096       30.867       25.723      905.775      952.745      661.670        0.675        0.126      104.405       22.623        0.047      334.461        4.447      865.088
12/06/2021  10:14:00       45.304       46.416       -4.556       30.663       34.417       18.451      940.199     1184.547      340.429        0.335        0.123       64.860       12.771        0.039      334.515        4.537      865.059
12/06/2021  10:15:00       67.764       21.608       -1.678       30.689       22.405       18.173      941.791      501.963      330.242        0.342        0.089       71.126       17.478        0.060      334.473        4.467      864.995
12/06/2021  10:16:00       79.898       46.159      -22.136       14.609       26.329       15.330      213.433      693.196      235.000        0.507        0.057       92.273        9.690        0.011      334.394        4.336      864.919
12/06/2021  10:17:00       46.747       42.656      -15.996       38.756       14.614       11.588     1502.033      213.575      134.286        0.305        0.092       63.284       10.972        0.030      334.432        4.400      864.847
12/06/2021  10:18:00      -17.662       43.810       -8.150       23.937       23.673       15.503      572.980      560.404      240.349        0.184        0.069       47.236        4.859        0.011      334.599        4.678      864.848
12/06/2021  10:19:00      -19.562       94.578      -11.484       20.720       22.107       17.725      429.304      488.723      314.167        0.535        0.062       96.580        3.712        0.001      334.557        4.609      864.857
12/06/2021  10:20:00       21.591       63.330       -6.479       36.820       28.267       24.066     1355.687      799.036      579.174        0.363        0.137       66.909       13.097        0.038      334.670        4.794      864.893
12/06/2021  10:21:00       -2.932       72.192      -10.047       37.972       22.234       21.326     1441.856      494.359      454.791        0.386        0.120       72.251       22.801        0.100      334.693        4.834      865.028
12/06/2021  10:22:00       -4.580       23.078        1.948       24.652       24.019       10.923      607.710      576.921      119.309        0.093        0.065       23.528        8.272        0.124      334.833        5.067      865.184
12/06/2021  10:23:00       27.422       23.197       -5.888       16.333       17.297       10.769      266.764      299.201      115.965        0.100        0.034       35.917        5.993        0.028      334.869        5.127      865.243
12/06/2021  10:24:00       16.224       22.399       -8.505       20.464       17.737       16.343      418.783      314.602      267.108        0.092        0.050       27.657       11.000        0.158      334.915        5.204      865.277
12/06/2021  10:25:00       39.379       26.802       -4.181       32.960       25.421       27.306     1086.349      646.210      745.601        0.238        0.124       47.635       20.478        0.185      334.968        5.292      865.245
12/06/2021  10:26:00       54.950       49.846      -11.574       34.476       26.399       17.305     1188.624      696.913      299.456        0.391        0.109       74.190       16.356        0.049      334.842        5.082      865.218
12/06/2021  10:27:00       40.764       45.109      -20.296       19.191       21.687       18.917      368.284      470.322      357.837        0.265        0.060       60.800       10.222        0.028      334.878        5.144      865.201
12/06/2021  10:28:00       39.541        3.794      -22.466       24.384       17.160       13.063      594.564      294.480      170.642        0.157        0.053       39.723        7.799        0.039      334.841        5.081      865.172
12/06/2021  10:29:00        4.301        7.679       -6.515       21.457       11.778       13.353      460.413      138.714      178.305        0.045        0.039        8.801        4.243        0.232      334.934        5.235      865.152
12/06/2021  10:30:00      -16.449      -40.535      -23.091       25.342       25.757       22.858      642.197      663.398      522.499        0.214        0.091       43.745       19.046        0.190      335.157        5.604      865.141
12/06/2021  10:31:00      -49.584      -50.477      -28.737       17.484       16.630       12.733      305.679      276.552      162.130        0.329        0.037       70.757        9.449        0.018      334.988        5.325      865.104
12/06/2021  10:32:00       58.661      -11.634      -23.174       44.574       25.854       21.964     1986.844      668.419      482.425        0.363        0.157       59.804       13.014        0.047      335.033        5.400      865.031
12/06/2021  10:33:00       36.439       35.561      -16.792       48.356       25.661       18.971     2338.282      658.476      359.882        0.311        0.168       50.916       15.756        0.096      334.891        5.164      864.961
12/06/2021  10:34:00       -4.557       12.978      -11.250       33.859       46.109       25.014     1146.414     2126.022      625.681        0.211        0.195       13.754       13.907        1.022      335.284        5.816      864.983
12/06/2021  10:35:00      -27.020      -55.599      -19.451       39.385       28.433       17.882     1551.201      808.425      319.767        0.344        0.134       61.817       13.453        0.047      335.064        5.450      864.950
12/06/2021  10:36:00       -7.419       -0.052      -13.215       29.768       22.917       14.976      886.153      525.172      224.284        0.093        0.082        7.420        8.908        1.441      335.165        5.619      864.867
12/06/2021  10:37:00      -46.968      -25.985      -23.418       35.041       26.676       16.312     1227.840      711.595      266.077        0.282        0.110       53.677       10.180        0.036      335.200        5.675      864.832
12/06/2021  10:38:00      -90.853      -49.011      -27.842       26.013       23.866       17.400      676.680      569.563      302.750        0.649        0.077      103.230        7.030        0.005      335.096        5.504      864.817
12/06/2021  10:39:00      -50.720        4.333       -5.086       45.966       60.394       34.474     2112.880     3647.418     1188.472        0.478        0.347       50.904       38.744        0.579      335.225        5.716      864.767
12/06/2021  10:40:00        2.546       27.571       -1.447       30.838       27.402       25.760      950.974      750.895      663.578        0.157        0.118       27.689       14.437        0.272      335.459        6.107      864.663
12/06/2021  10:41:00       14.887        5.219       -4.085       16.312       26.731       15.849      266.074      714.551      251.178        0.075        0.062       15.776        9.673        0.376      335.513        6.196      864.647
12/06/2021  10:42:00       53.776       12.740       -8.789       52.481       55.290       30.951     2754.291     3057.022      957.966        0.495        0.338       55.264       26.641        0.232      335.532        6.228      864.680
12/06/2021  10:43:00      147.127       54.846      -25.464       57.758       52.714       24.322     3335.950     2778.787      591.559        1.600        0.335      157.017       13.647        0.008      335.395        5.999      864.678
12/06/2021  10:44:00      160.310       54.970      -18.044       47.077       33.808       24.926     2216.268     1142.983      621.308        1.651        0.199      169.473       14.821        0.008      335.205        5.683      864.685
12/06/2021  10:45:00      163.410       63.941      -10.655       58.420       38.374       22.103     3412.935     1472.541      488.533        1.814        0.269      175.475       17.030        0.009      335.132        5.562      864.682
12/06/2021  10:46:00      171.261       26.723      -15.499       52.426       44.762       25.870     2748.524     2003.640      669.275        1.785        0.271      173.333       20.773        0.014      335.092        5.494      864.671
12/06/2021  10:47:00       86.985       11.453      -17.977       50.389       40.888       25.139     2539.047     1671.860      631.945        0.643        0.242       87.735       15.660        0.032      335.138        5.574      864.670
12/06/2021  10:48:00       66.958       28.158      -21.371       48.503       47.303       25.424     2352.543     2237.559      646.390        0.548        0.262       72.638       20.314        0.078      335.173        5.631      864.660
12/06/2021  10:49:00        5.400      -11.705       -3.943       18.697       27.070        9.905      349.577      732.768       98.107        0.068        0.059       12.891        7.963        0.382      335.271        5.793      864.692
12/06/2021  10:50:00       29.843      -23.281      -13.306       27.356       31.851       23.337      748.332     1014.507      544.630        0.196        0.115       37.850       16.580        0.192      335.248        5.755      864.672
12/06/2021  10:51:00       62.395        1.067      -24.604       32.906       39.815       15.399     1082.781     1585.213      237.116        0.370        0.145       62.404       13.899        0.050      335.187        5.654      864.615
12/06/2021  10:52:00       59.070       30.626       -9.111       35.366       24.057       16.643     1250.721      578.744      276.985        0.331        0.105       66.537       12.951        0.038      335.128        5.557      864.581
12/06/2021  10:53:00       37.366       11.259        4.908       42.413       47.329       29.969     1798.867     2239.995      898.126        0.324        0.247       39.026       24.820        0.404      335.343        5.913      864.577
12/06/2021  10:54:00       37.311        2.531      -23.600       55.398       54.574       42.341     3068.976     2978.350     1792.756        0.490        0.392       37.397       31.836        0.725      335.381        5.977      864.532
12/06/2021  10:55:00      109.002        1.481      -14.262       61.294       47.739       31.437     3756.984     2278.985      988.310        0.955        0.351      109.012       30.982        0.081      335.192        5.661      864.499
12/06/2021  10:56:00      183.119       34.980       -8.857       23.460       24.966       20.811      550.368      623.291      433.110        1.822        0.080      186.430       11.384        0.004      335.056        5.436      864.454
12/06/2021  10:57:00      116.923       22.418       -7.677       58.863       42.547       31.231     3464.794     1810.260      975.353        1.024        0.313      119.053       24.643        0.043      335.238        5.739      864.401
12/06/2021  10:58:00       69.417       22.237       -6.720       56.057       32.702       25.217     3142.353     1069.439      635.881        0.510        0.242       72.892       23.129        0.101      335.287        5.821      864.399
12/06/2021  10:59:00      109.763       49.915      -13.891       36.489       20.597       18.129     1331.445      424.247      328.668        0.841        0.104      120.580       10.045        0.007      335.097        5.506      864.481
12/06/2021  11:00:00       78.221       52.847      -17.426       20.007       13.942       18.625      400.290      194.385      346.879        0.508        0.047       94.400       11.175        0.014      335.105        5.520      864.569
12/06/2021  11:01:00       60.752       55.762      -12.399       23.558       38.910       16.995      554.983     1513.969      288.828        0.466        0.118       82.463       14.941        0.033      335.199        5.675      864.612
12/06/2021  11:02:00      110.670       36.868      -14.886       43.947       44.538       27.248     1931.378     1983.600      742.433        0.924        0.233      116.649       25.970        0.050      335.202        5.679      864.581
12/06/2021  11:03:00       66.221        9.870      -16.115       49.464       51.845       36.641     2446.716     2687.897     1342.574        0.561        0.324       66.953       31.411        0.220      335.338        5.905      864.515
12/06/2021  11:04:00       79.182       -5.800      -27.314       52.977       58.362       41.262     2806.512     3406.152     1702.556        0.748        0.396       79.394       22.892        0.083      335.474        6.133      864.474
12/06/2021  11:05:00       33.726      -68.505      -22.956       55.815       76.224       40.186     3115.261     5810.157     1614.929        0.845        0.527       76.357       36.893        0.233      335.493        6.163      864.488
12/06/2021  11:06:00      128.221     -145.513      -47.749       46.854       70.900       29.532     2195.272     5026.757      872.162        2.399        0.405      193.945       26.865        0.019      335.366        5.951      864.466
12/06/2021  11:07:00       85.797     -199.343      -36.330       56.550       61.824       42.616     3197.880     3822.222     1816.157        2.863        0.442      217.022       29.034        0.018      335.480        6.140      864.418
12/06/2021  11:08:00       81.998     -205.103      -38.205       48.861       45.979       30.534     2387.389     2114.074      932.312        2.784        0.272      220.887       23.675        0.011      335.351        5.925      864.426
12/06/2021  11:09:00       87.159     -132.487      -33.192       39.658       45.621       27.224     1572.753     2081.306      741.130        1.532        0.220      158.586       27.320        0.030      335.250        5.759      864.436
12/06/2021  11:10:00       49.476      -13.614      -21.054       48.525       68.745       27.674     2354.629     4725.823      765.826        0.546        0.392       51.315       19.059        0.138      335.414        6.031      864.441
12/06/2021  11:11:00      151.427       17.863      -17.030       49.533       44.172       25.890     2453.488     1951.177      670.291        1.431        0.254      152.477       15.833        0.011      335.297        5.837      864.530
12/06/2021  11:12:00      111.261       59.388       -5.074       53.894       39.755       25.411     2904.599     1580.487      645.702        1.053        0.257      126.119       22.804        0.033      335.332        5.895      864.669
12/06/2021  11:13:00      160.740       98.841      -18.250       54.319       51.210       33.128     2950.519     2622.499     1097.471        2.130        0.334      188.698       20.854        0.012      335.257        5.768      864.745
12/06/2021  11:14:00      122.462       15.188      -16.406       56.802       58.779       30.169     3226.445     3454.956      910.181        1.154        0.380      123.400       27.572        0.050      335.354        5.932      864.720
12/06/2021  11:15:00      182.654       42.278      -22.347       50.407       28.804       23.926     2540.874      829.651      572.443        1.980        0.197      187.483        8.181        0.002      335.232        5.727      864.640
12/06/2021  11:16:00       86.858      -32.472      -22.410       64.497       62.984       43.203     4159.852     3967.002     1866.481        0.955        0.500       92.730       36.610        0.156      335.400        6.009      864.542
12/06/2021  11:17:00      133.418      -41.225      -33.633       69.258       81.212       37.915     4796.629     6595.414     1437.585        1.673        0.641      139.642       26.856        0.037      335.353        5.929      864.419
12/06/2021  11:18:00      101.285       -7.388      -27.248       67.939       75.011       46.651     4615.699     5626.702     2176.292        1.173        0.621      101.554       31.912        0.099      335.382        5.979      864.336
12/06/2021  11:19:00       72.003      -47.758      -13.727       81.370       64.218       45.699     6621.024     4123.981     2088.395        1.024        0.642       86.402       43.228        0.250      335.458        6.104      864.288
12/06/2021  11:20:00       50.936      -16.247      -23.691       45.905       58.474       35.359     2107.246     3419.206     1250.281        0.510        0.339       53.464        5.737        0.012      335.490        6.159      864.253
12/06/2021  11:21:00      106.119      -36.718      -17.824       58.435       45.341       34.129     3414.594     2055.771     1164.808        0.978        0.332      112.292       25.903        0.053      335.439        6.074      864.275
12/06/2021  11:22:00      114.448      -49.718        3.928       87.213       59.763       53.723     7606.102     3571.596     2886.172        1.482        0.703      124.781       55.533        0.198      335.407        6.020      864.275
12/06/2021  11:23:00       98.269        2.727      -26.312       74.486       70.449       44.088     5548.234     4963.042     1943.774        1.140        0.623       98.307       19.696        0.040      335.459        6.106      864.232
12/06/2021  11:24:00      131.504      -28.503      -16.653       62.356       80.386       51.497     3888.279     6461.937     2651.972        1.569        0.650      134.558       42.361        0.099      335.394        5.998      864.189
12/06/2021  11:25:00      148.815      -62.596      -19.360       78.044       65.341       39.837     6090.870     4269.385     1586.949        1.919        0.597      161.444       40.917        0.064      335.445        6.082      864.117
12/06/2021  11:26:00      113.476       -2.710      -18.032       82.503       68.762       55.207     6806.746     4728.202     3047.763        1.389        0.729      113.508       47.105        0.172      335.538        6.239      864.008
12/06/2021  11:27:00      117.024       17.402      -13.198       89.151       64.872       47.464     7947.983     4208.414     2252.837        1.429        0.720      118.311       39.043        0.109      335.696        6.500      863.942
12/06/2021  11:28:00      182.887      -35.846      -10.604      106.078       75.728       54.504    11252.646     5734.803     2970.696        2.740        0.998      186.366       45.588        0.060      335.576        6.300      863.888
12/06/2021  11:29:00      184.929       60.858      -20.062       78.726       76.453       55.194     6197.834     5845.096     3046.355        2.669        0.754      194.685       34.211        0.031      335.426        6.051      863.940
12/06/2021  11:30:00      198.123      -21.630      -11.648       89.578       64.454       37.317     8024.288     4154.255     1392.569        2.671        0.679      199.300       36.501        0.034      335.407        6.019      863.957
12/06/2021  11:31:00       89.696       -5.544       -7.247       83.435       68.179       63.010     6961.440     4648.317     3970.212        1.185        0.779       89.867       51.186        0.324      335.498        6.173      863.929
12/06/2021  11:32:00      171.415      -23.860       -7.872      118.173       61.281       45.972    13964.816     3755.403     2113.456        2.492        0.992      173.068       46.140        0.071      335.491        6.159      863.903
12/06/2021  11:33:00      123.558       -7.299      -10.331       98.937       72.892       57.739     9788.554     5313.267     3333.849        1.693        0.922      123.774       54.988        0.197      335.646        6.417      863.887
12/06/2021  11:34:00       79.608      -49.813      -16.448       65.950       62.298       33.027     4349.434     3881.086     1090.792        0.920        0.466       93.908       28.309        0.091      335.752        6.595      863.908
12/06/2021  11:35:00       40.585      -77.944      -34.882       46.547       78.322       39.878     2166.582     6134.279     1590.233        0.941        0.495       87.877       26.340        0.090      335.837        6.737      863.921
12/06/2021  11:36:00       12.371       28.140      -12.846       55.009       31.748       26.010     3026.016     1007.954      676.533        0.291        0.236       30.739       15.351        0.249      335.723        6.546      863.934
12/06/2021  11:37:00       95.637        1.996      -10.783      105.506       49.420       47.610    11131.575     2442.363     2266.750        1.255        0.792       95.658       51.318        0.288      335.747        6.585      863.923
12/06/2021  11:38:00       67.571      -62.716      -37.135       61.865      101.094       53.920     3827.269    10220.017     2907.365        1.341        0.848       92.191       50.564        0.301      335.889        6.822      863.850
12/06/2021  11:39:00       67.404      -16.715      -22.951       71.425       67.045       51.671     5101.544     4495.035     2669.842        0.881        0.613       69.445       48.200        0.482      335.828        6.720      863.783
12/06/2021  11:40:00       39.669     -118.445      -34.806       61.321       77.037       37.550     3760.321     5934.710     1409.988        1.396        0.555      124.911       37.322        0.089      335.749        6.590      863.791
12/06/2021  11:41:00       67.532     -119.878      -31.600       40.104       49.602       36.695     1608.327     2460.326     1346.536        1.267        0.271      137.591       25.579        0.035      335.752        6.596      863.777
12/06/2021  11:42:00       80.134      -77.254      -38.807       75.949      102.304       41.221     5768.176    10466.013     1699.131        1.591        0.897      111.309       36.020        0.105      335.807        6.685      863.743
12/06/2021  11:43:00       41.350      -18.386      -24.585       54.307       47.669       44.079     2949.254     2272.341     1942.927        0.491        0.358       45.254       28.797        0.405      335.850        6.757      863.698
12/06/2021  11:44:00       22.283      -53.796      -22.787       68.985       81.452       51.411     4758.997     6634.451     2643.045        0.897        0.702       58.229       39.028        0.449      335.801        6.676      863.703
12/06/2021  11:45:00       58.679     -130.351      -32.255       48.132       77.067       41.586     2316.726     5939.384     1729.374        1.573        0.499      142.950       33.920        0.056      335.823        6.714      863.739
12/06/2021  11:46:00       55.539     -163.547      -27.422       58.113       65.824       38.065     3377.083     4332.859     1448.942        1.987        0.458      172.720       30.147        0.030      335.881        6.809      863.731
12/06/2021  11:47:00       64.709     -241.923      -36.265       33.683       36.086       31.028     1134.565     1302.189      962.733        3.371        0.170      250.427       23.124        0.009      335.583        6.306      863.693
12/06/2021  11:48:00       96.620     -310.063      -43.577       39.090       59.154       28.802     1528.040     3499.167      829.562        5.661        0.293      324.768       23.132        0.005      335.618        6.366      863.666
12/06/2021  11:49:00      116.170     -206.295      -48.985       48.169       46.203       27.228     2320.286     2134.705      741.378        3.182        0.260      236.755       23.164        0.010      335.648        6.418      863.640
12/06/2021  11:50:00       76.556     -146.821      -35.582       29.806       44.480       19.884      888.385     1978.439      395.357        1.597        0.163      165.581       17.694        0.011      335.716        6.532      863.643
12/06/2021  11:51:00       44.150      -89.904      -20.967       41.483       41.730       22.675     1720.842     1741.403      514.173        0.722        0.199      100.160       18.454        0.034      335.929        6.889      863.612
12/06/2021  11:52:00       79.381     -103.419      -37.180       36.000       44.880       26.560     1295.983     2014.244      705.445        1.120        0.201      130.373       25.575        0.038      335.818        6.706      863.563
12/06/2021  11:53:00       93.812     -127.225      -35.718       49.194       57.847       27.471     2420.027     3346.223      754.679        1.639        0.326      158.072       18.171        0.013      335.797        6.668      863.489
12/06/2021  11:54:00       42.661      -99.466      -18.161       40.685       42.248       32.829     1655.289     1784.861     1077.713        0.828        0.226      108.229       14.797        0.019      335.884        6.816      863.440
12/06/2021  11:55:00       44.295      -70.952      -20.974       42.895       43.355       29.432     1840.017     1879.657      866.268        0.601        0.229       83.644       19.383        0.054      335.971        6.960      863.385
12/06/2021  11:56:00      -16.962      -20.205       -9.073       28.884       33.257       16.468      834.275     1106.050      271.200        0.149        0.111       26.381       14.311        0.294      336.146        7.251      863.340
12/06/2021  11:57:00       27.928      -47.069       -7.773       23.597       42.468       24.462      556.799     1803.534      598.381        0.301        0.148       54.731       21.998        0.162      336.092        7.162      863.345
12/06/2021  11:58:00       13.229      -40.879      -13.871       18.475       29.094       24.626      341.326      846.440      606.438        0.192        0.090       42.966       18.364        0.183      336.050        7.091      863.380
12/06/2021  11:59:00       10.998      -13.751       -9.969       25.647       33.288       18.812      657.787     1108.105      353.902        0.126        0.106       17.608       16.285        0.855      336.189        7.323      863.394
12/06/2021  12:00:00      -61.971       -7.157       -0.782       43.005       35.813       24.442     1849.470     1282.560      597.429        0.381        0.186       62.383       16.592        0.071      336.084        7.148      863.375
12/06/2021  12:01:00      -55.654       15.062        0.789       27.874       22.723       12.983      776.984      516.327      168.545        0.239        0.073       57.656       10.708        0.034      336.015        7.033      863.293
12/06/2021  12:02:00       -6.802       -1.596       -5.828       12.631       12.466       10.796      159.551      155.406      116.550        0.026        0.022        6.987        7.047        1.017      336.105        7.183      863.229
12/06/2021  12:03:00       -8.894      -34.931       -9.515       24.268       21.989       19.496      588.931      483.513      380.104        0.142        0.073       36.046       12.767        0.125      336.134        7.231      863.205
12/06/2021  12:04:00       11.372       17.054       -1.508       31.519       37.875       11.887      993.442     1434.536      141.294        0.150        0.128       20.498       10.236        0.249      336.143        7.247      863.181
12/06/2021  12:05:00       31.444       58.693      -12.192       22.635       27.243       19.292      512.346      742.172      372.191        0.310        0.081       66.585       15.842        0.057      336.086        7.153      863.147
12/06/2021  12:06:00       52.192       38.963       -3.770       34.610       22.182       14.572     1197.876      492.045      212.358        0.308        0.095       65.131       11.573        0.032      336.080        7.141      863.112
12/06/2021  12:07:00       16.985       29.468       -1.505       28.696       23.481       21.163      823.479      551.345      447.891        0.149        0.091       34.013       22.488        0.437      336.050        7.091      863.072
12/06/2021  12:08:00       21.871       14.731       -7.256       38.211       25.184       18.436     1460.106      634.214      339.891        0.159        0.122       26.369       11.275        0.183      336.159        7.273      863.047
12/06/2021  12:09:00       17.997        0.720      -16.365       22.600       31.354       24.425      510.756      983.093      596.565        0.134        0.105       18.011       18.347        1.038      336.207        7.353      863.045
12/06/2021  12:10:00       53.640       16.580      -12.051       19.074       15.412       11.431      363.802      237.541      130.661        0.201        0.037       56.144        7.005        0.016      335.983        6.978      863.046
12/06/2021  12:11:00       12.940       24.281      -11.707       28.222       16.603       18.213      796.482      275.667      331.702        0.115        0.070       27.514       19.766        0.516      336.058        7.104      863.017
12/06/2021  12:12:00       -0.636        3.049      -20.933       23.359       22.595       22.571      545.630      510.518      509.441        0.101        0.078        3.114       11.814       14.392      336.183        7.312      862.969
12/06/2021  12:13:00       13.592      -54.108      -15.413       31.090       32.973       26.171      966.609     1087.207      684.932        0.304        0.137       55.789       15.611        0.078      336.299        7.508      862.913
12/06/2021  12:14:00       13.685       21.439       -4.126       65.541       61.695       25.579     4295.632     3806.245      654.306        0.471        0.438       25.434       17.658        0.482      336.153        7.262      862.889
12/06/2021  12:15:00        7.041       15.538       -1.875       66.326       52.330       32.010     4399.135     2738.401     1024.642        0.423        0.408       17.059       31.250        3.356      336.189        7.321      862.837
12/06/2021  12:16:00      -20.473      -17.480      -18.116       44.463       39.605       31.502     1976.950     1568.591      992.388        0.279        0.227       26.920       16.167        0.361      336.245        7.416      862.764
12/06/2021  12:17:00      -52.251       -5.650      -13.857       25.016       18.125       22.774      625.794      328.518      518.662        0.221        0.074       52.556       12.306        0.055      336.273        7.462      862.744
12/06/2021  12:18:00       -2.047       21.346      -14.438       69.277       31.839       18.139     4799.259     1013.742      329.029        0.340        0.307       21.443       24.785        1.336      336.275        7.467      862.750
12/06/2021  12:19:00      151.260       59.088      -37.469       52.487       63.106       31.680     2754.915     3982.399     1003.613        1.776        0.387      162.391       13.032        0.006      336.079        7.139      862.731
12/06/2021  12:20:00       80.952       37.835      -29.603       52.271       49.896       26.894     2732.275     2489.600      723.304        0.740        0.297       89.358       20.356        0.052      336.104        7.182      862.696
12/06/2021  12:21:00       35.300        5.702      -20.579       43.466       45.127       29.333     1889.304     2036.406      860.450        0.324        0.239       35.758        4.855        0.018      336.182        7.311      862.672
12/06/2021  12:22:00       14.880      -61.421      -31.112       45.365       40.959       20.939     2057.994     1677.665      438.425        0.457        0.209       63.198       11.341        0.032      336.230        7.392      862.667
12/06/2021  12:23:00       18.543     -103.083      -12.349       30.090       32.246       29.782      905.425     1039.785      886.988        0.698        0.142      104.738       19.015        0.033      336.329        7.557      862.700
12/06/2021  12:24:00       66.103     -115.924      -34.092       29.029       46.559       17.020      842.663     2167.786      289.691        1.113        0.165      133.446       14.552        0.012      336.111        7.195      862.731
12/06/2021  12:25:00       72.579     -113.263      -36.631       31.865       47.764       24.329     1015.404     2281.361      591.893        1.166        0.194      134.522       14.713        0.012      336.118        7.206      862.738
12/06/2021  12:26:00       21.142      -48.673      -17.839       36.668       40.656       24.072     1344.524     1652.905      579.449        0.335        0.179       53.066       16.139        0.092      336.251        7.427      862.730
12/06/2021  12:27:00       34.423      -23.513      -24.089       40.172       34.427       28.546     1613.815     1185.192      814.877        0.297        0.181       41.687       21.597        0.268      336.203        7.347      862.730
12/06/2021  12:28:00       29.903      -19.909       -5.111       42.282       34.674       21.023     1787.726     1202.310      441.972        0.237        0.172       35.924       10.161        0.080      336.299        7.506      862.736
12/06/2021  12:29:00       26.889      -54.294      -27.728       27.746       34.849       20.526      769.837     1214.470      421.305        0.342        0.120       60.588       11.395        0.035      336.316        7.537      862.722
12/06/2021  12:30:00      105.332     -113.800      -30.455       49.906       34.541       23.262     2490.619     1193.049      541.140        1.460        0.211      155.066       18.324        0.014      336.081        7.144      862.659
12/06/2021  12:31:00       88.540      -68.539      -24.872       43.529       57.196       32.572     1894.737     3271.355     1060.933        0.969        0.311      111.969       22.663        0.041      336.181        7.309      862.631
12/06/2021  12:32:00       73.702     -114.409      -33.446       28.526       29.747       14.292      813.731      884.861      204.266        1.077        0.095      136.093       11.778        0.007      336.036        7.068      862.636
12/06/2021  12:33:00      104.095     -103.048      -39.052       28.251       54.779       20.642      798.137     3000.704      426.089        1.360        0.211      146.474       10.827        0.005      336.125        7.215      862.607
12/06/2021  12:34:00       69.155     -168.995      -27.068       40.304       30.748       23.051     1624.401      945.465      531.368        1.859        0.155      182.597       22.254        0.015      336.224        7.380      862.613
12/06/2021  12:35:00       77.843      -96.947      -29.983       27.128       39.103       18.655      735.919     1529.083      348.003        0.948        0.131      124.331       17.564        0.020      336.248        7.422      862.675
12/06/2021  12:36:00       59.284     -113.331      -34.719       19.396       44.265       22.101      376.206     1959.418      488.440        1.019        0.141      127.901       13.755        0.012      336.202        7.345      862.712
12/06/2021  12:37:00       49.012     -107.874      -23.506       54.483       56.522       40.793     2968.353     3194.775     1664.048        1.121        0.391      118.486       34.230        0.083      336.301        7.511      862.684
12/06/2021  12:38:00       34.387      -55.752      -14.835       38.643       74.422       28.261     1493.259     5538.696      798.709        0.617        0.392       65.504       31.322        0.229      336.248        7.422      862.692
12/06/2021  12:39:00       58.039       -3.220      -15.703       43.735       34.601       24.288     1912.780     1197.201      589.914        0.366        0.185       58.128       17.223        0.088      336.148        7.255      862.706
12/06/2021  12:40:00       16.072      -43.193       -8.524       27.824       38.591       28.426      774.150     1489.277      808.031        0.263        0.154       46.087       16.900        0.134      336.239        7.408      862.682
12/06/2021  12:41:00       42.566      -43.529      -15.427       17.892       22.875       18.341      320.112      523.270      336.399        0.256        0.059       60.882       10.769        0.031      336.122        7.212      862.634
12/06/2021  12:42:00       29.345       -7.548      -19.752       27.917       20.148       12.564      779.376      405.940      157.850        0.133        0.067       30.300        4.353        0.021      336.201        7.343      862.594
12/06/2021  12:43:00       38.558       -8.394      -13.867       28.532       16.175       16.541      814.052      261.636      273.619        0.155        0.067       39.462       14.257        0.131      336.154        7.264      862.556
12/06/2021  12:44:00        2.109       -8.818       -4.650       22.742       24.599       17.351      517.196      605.115      301.061        0.076        0.071        9.067       10.359        1.305      336.270        7.457      862.562
12/06/2021  12:45:00      130.730       22.853      -22.030       33.648       30.996       20.521     1132.218      960.732      421.107        1.031        0.126      132.713        7.885        0.004      336.065        7.117      862.569
12/06/2021  12:46:00       55.529      -49.740      -31.839       43.266       77.732       30.263     1871.950     6042.324      915.843        0.770        0.442       74.549       14.030        0.035      336.246        7.417      862.545
12/06/2021  12:47:00        9.814      -68.760      -16.082       46.090       53.978       32.986     2124.288     2913.669     1088.049        0.560        0.306       69.457       27.451        0.156      336.288        7.488      862.573
12/06/2021  12:48:00      -15.116        3.943       13.322       60.643       42.664       25.205     3677.529     1820.179      635.315        0.328        0.307       15.622       12.424        0.633      336.293        7.496      862.564
12/06/2021  12:49:00      112.124       22.523      -24.012       37.907       46.612       28.112     1436.932     2172.712      790.297        0.903        0.220      114.363       23.436        0.042      336.198        7.337      862.499
12/06/2021  12:50:00       56.970       33.150      -10.283       59.894       21.992       19.077     3587.287      483.647      363.932        0.444        0.222       65.913       23.758        0.130      336.174        7.297      862.449
12/06/2021  12:51:00       35.574       10.879      -13.730       48.658       31.598       27.881     2367.622      998.460      777.378        0.286        0.207       37.201       26.967        0.525      336.233        7.396      862.444
12/06/2021  12:52:00       89.913       32.376      -12.161       20.481       28.608       14.332      419.457      818.396      205.401        0.536        0.072       95.564        9.034        0.009      336.125        7.214      862.475
12/06/2021  12:53:00      104.938       53.876      -22.757       26.929       13.496       20.253      725.164      182.131      410.182        0.787        0.066      117.960       13.072        0.012      336.124        7.212      862.445
12/06/2021  12:54:00        3.955       28.201      -16.709       45.195       47.607       24.455     2042.602     2266.432      598.071        0.300        0.245       28.477       23.223        0.665      336.263        7.446      862.441
12/06/2021  12:55:00       19.683      -72.262      -11.024       37.553       35.484       27.739     1410.197     1259.109      769.432        0.458        0.172       74.895       26.780        0.128      336.248        7.420      862.457
12/06/2021  12:56:00       22.454      -36.568      -19.914       25.699       39.345       27.528      660.429     1548.020      757.764        0.260        0.148       42.911       12.578        0.086      336.276        7.469      862.448
12/06/2021  12:57:00       45.296      -30.865      -24.086       41.056       54.126       21.957     1685.627     2929.586      482.095        0.434        0.255       54.812       24.223        0.195      336.310        7.525      862.393
12/06/2021  12:58:00       63.925       39.835       -6.008       33.660       35.337       33.692     1133.025     1248.689     1135.141        0.461        0.176       75.321       21.022        0.078      336.330        7.558      862.337
12/06/2021  12:59:00       47.106       17.006      -15.698       34.020       37.818       31.347     1157.343     1430.199      982.618        0.316        0.179       50.081       17.142        0.117      336.311        7.528      862.306
12/06/2021  13:00:00       34.230       22.022       -1.737       29.780       31.555       20.192      886.871      995.718      407.708        0.197        0.115       40.702       14.537        0.128      336.221        7.379      862.309
12/06/2021  13:01:00       70.071       34.157      -11.756       12.353       11.221        8.317      152.598      125.910       69.177        0.328        0.017       77.953        3.956        0.003      336.136        7.232      862.317
12/06/2021  13:02:00       88.824       52.825      -12.610       26.784       14.440       16.838      717.391      208.509      283.534        0.602        0.060      103.345       10.659        0.011      336.159        7.272      862.277
12/06/2021  13:03:00       95.216       27.764       -9.987       66.423       29.276       21.100     4411.959      857.111      445.206        0.782        0.286       99.182       21.487        0.047      336.245        7.416      862.248
12/06/2021  13:04:00       74.964       -6.644       -3.543       61.529       30.730       23.316     3785.765      944.338      543.642        0.547        0.264       75.258       23.883        0.101      336.285        7.482      862.224
12/06/2021  13:05:00       49.060        4.172       -9.375       29.691       27.988       14.714      881.554      783.314      216.492        0.220        0.094       49.237        8.544        0.030      336.239        7.407      862.238
12/06/2021  13:06:00        5.094      -17.519      -10.213       18.796       34.073       15.277      353.275     1160.949      233.402        0.109        0.087       18.245        6.412        0.124      336.335        7.567      862.246
12/06/2021  13:07:00        9.747      -28.065      -18.010       14.933       11.278       12.467      222.984      127.189      155.436        0.086        0.025       29.710        8.253        0.077      336.318        7.537      862.275
12/06/2021  13:08:00       38.359       17.978      -14.230       19.321       23.543       12.685      373.303      554.262      160.901        0.154        0.054       42.363        7.423        0.031      336.296        7.502      862.251
12/06/2021  13:09:00       54.670       56.029      -18.470       14.930       17.838       14.669      222.912      318.191      215.191        0.361        0.038       78.282       12.322        0.025      336.199        7.340      862.195
12/06/2021  13:10:00       77.647       44.841      -15.771       18.147       14.316       13.847      329.300      204.945      191.738        0.451        0.036       89.665        9.341        0.011      336.193        7.331      862.177
12/06/2021  13:11:00       53.483       -9.762       -6.940       42.038       26.188       23.494     1767.233      685.831      551.987        0.300        0.150       54.367       27.295        0.252      336.324        7.547      862.135
12/06/2021  13:12:00       56.322       11.185       -9.828       45.437       16.945       17.592     2064.558      287.127      309.481        0.303        0.133       57.422       10.404        0.033      336.351        7.594      862.099
12/06/2021  13:13:00       49.718        2.830      -18.549       24.908       26.758       13.274      620.394      716.002      176.207        0.217        0.076       49.798       10.646        0.046      336.383        7.646      862.076
12/06/2021  13:14:00       23.354       22.303      -13.046       22.729       22.936       12.943      516.607      526.079      167.515        0.121        0.061       32.292        6.472        0.040      336.414        7.701      862.046
12/06/2021  13:15:00       32.548      -15.743      -19.008       31.514       47.597       31.198      993.110     2265.492      973.308        0.295        0.212       36.155       21.107        0.341      336.474        7.800      862.016
12/06/2021  13:16:00       65.304        2.021      -12.870       50.463       24.597       27.147     2546.515      604.993      736.978        0.416        0.194       65.335       16.261        0.062      336.371        7.627      862.049
12/06/2021  13:17:00      106.758       25.084       -8.420       23.766       31.493       19.189      564.831      991.780      368.205        0.701        0.096      109.665       10.232        0.009      336.342        7.579      862.069
12/06/2021  13:18:00      132.737       69.287       -8.514       36.333       34.664       24.112     1320.053     1201.586      581.366        1.280        0.155      149.733       14.102        0.009      336.347        7.588      862.065
12/06/2021  13:19:00      148.643       46.384      -20.480       32.499       27.359       24.302     1056.173      748.521      590.572        1.353        0.120      155.712       14.095        0.008      336.371        7.628      862.063
12/06/2021  13:20:00      119.550       50.255      -22.278       38.539       43.049       23.576     1485.274     1853.236      555.809        1.060        0.195      129.683       17.393        0.018      336.458        7.774      862.042
12/06/2021  13:21:00      117.534       29.099      -22.850       44.679       44.347       24.233     1996.203     1966.659      587.220        0.987        0.228      121.082       14.502        0.014      336.463        7.781      862.026
12/06/2021  13:22:00      120.740       43.821      -12.966       38.226       25.732       20.745     1461.215      662.155      430.342        0.961        0.128      128.446       15.871        0.015      336.423        7.715      862.037
12/06/2021  13:23:00       50.431       58.752       -5.280       44.714       51.616       26.852     1999.321     2664.178      721.040        0.570        0.269       77.428       25.299        0.107      336.502        7.848      862.062
12/06/2021  13:24:00       49.985       47.449        0.546       34.919       36.309       24.405     1219.353     1318.333      595.583        0.394        0.157       68.920       20.283        0.087      336.522        7.881      862.053
12/06/2021  13:25:00      119.585       19.947      -15.633       27.214       26.190       23.282      740.609      685.927      542.066        0.846        0.098      121.237       13.524        0.012      336.452        7.762      862.029
12/06/2021  13:26:00       95.106       28.379      -22.194       32.078       33.133       21.473     1029.013     1097.828      461.107        0.647        0.129       99.249       10.519        0.011      336.447        7.755      861.986
12/06/2021  13:27:00       51.536       51.082      -19.828       46.781       32.345       24.694     2188.446     1046.228      609.783        0.475        0.192       72.562       11.175        0.024      336.475        7.800      861.939
12/06/2021  13:28:00       97.520       42.668      -13.514       33.057       18.749       17.360     1092.780      351.521      301.358        0.663        0.087      106.446       11.142        0.011      336.473        7.798      861.930
12/06/2021  13:29:00      120.262       65.977      -27.118       21.020       12.864       13.109      441.833      165.494      171.837        1.017        0.039      137.171       10.894        0.006      336.462        7.779      861.925
12/06/2021  13:30:00      112.682       46.958      -23.025       39.546       22.321       18.055     1563.856      498.242      325.999        0.891        0.119      122.075       18.756        0.024      336.484        7.817      861.894
12/06/2021  13:31:00       64.022       74.286      -17.172       47.666       55.336       30.575     2272.024     3062.037      934.848        0.809        0.313       98.068       19.971        0.041      336.571        7.964      861.869
12/06/2021  13:32:00       87.211       57.751      -12.207       45.490       53.672       28.083     2069.322     2880.689      788.628        0.841        0.287      104.599       20.387        0.038      336.571        7.964      861.843
12/06/2021  13:33:00       59.655       35.588      -27.590       47.857       49.251       31.804     2290.256     2425.638     1011.463        0.566        0.286       69.464       18.906        0.074      336.548        7.923      861.809
12/06/2021  13:34:00       91.307       41.236      -33.915       44.833       33.736       33.178     2010.039     1138.109     1100.769        0.772        0.212      100.186       14.309        0.020      336.545        7.920      861.804
12/06/2021  13:35:00       -0.484       36.071      -11.829       52.537       30.819       32.828     2760.136      949.822     1077.650        0.311        0.239       36.074       26.568        0.542      336.602        8.015      861.828
12/06/2021  13:36:00       -0.006        1.614        1.252       18.095       19.066       12.319      327.432      363.507      151.751        0.042        0.042        1.614       11.547       51.155      336.641        8.081      861.871
12/06/2021  13:37:00       41.775      -33.519      -20.425       23.367       35.542       15.524      546.011     1263.200      241.007        0.267        0.103       53.560       14.487        0.073      336.721        8.215      861.883
12/06/2021  13:38:00       50.325      -29.187      -26.252       27.404       33.918       17.305      750.989     1150.420      299.473        0.314        0.110       58.176       14.852        0.065      336.716        8.205      861.856
12/06/2021  13:39:00       64.285     -111.489      -26.080       26.493       32.053       17.515      701.886     1027.388      306.783        0.964        0.102      128.695       12.989        0.010      336.746        8.256      861.855
12/06/2021  13:40:00       85.705     -117.524      -34.255       18.062       27.881       11.386      326.223      777.366      129.640        1.178        0.062      145.455        7.417        0.003      336.656        8.105      861.843
12/06/2021  13:41:00       95.010     -137.281      -50.066       25.035       26.041       18.521      626.732      678.155      343.045        1.601        0.082      166.952       11.575        0.005      336.649        8.094      861.822
12/06/2021  13:42:00       29.476     -108.434      -14.580       42.745       50.883       35.514     1827.150     2589.085     1261.229        0.926        0.284      112.369       31.811        0.080      336.743        8.251      861.839
12/06/2021  13:43:00       47.485      -64.354      -17.240       50.998       43.727       37.995     2600.766     1912.048     1443.652        0.632        0.298       79.977       13.367        0.028      336.906        8.521      861.866
12/06/2021  13:44:00       57.933      -93.600      -32.246       41.741       45.232       25.520     1742.337     2045.931      651.257        0.880        0.222      110.078       12.716        0.013      336.786        8.322      861.879
12/06/2021  13:45:00       54.620       20.543      -19.151       60.183       43.262       25.949     3622.043     1871.590      673.369        0.497        0.308       58.356       29.751        0.260      336.837        8.406      861.850
12/06/2021  13:46:00       45.664        6.716      -24.088       45.587       74.327       27.626     2078.148     5524.563      763.209        0.554        0.418       46.155        6.489        0.020      336.791        8.331      861.801
12/06/2021  13:47:00       51.739      -92.533      -23.804       29.067       24.425       24.903      844.895      596.565      620.169        0.693        0.103      106.016       22.563        0.045      336.825        8.386      861.842
12/06/2021  13:48:00       53.866     -127.683      -30.269       40.098       46.317       32.431     1607.814     2145.277     1051.761        1.246        0.240      138.580       32.499        0.055      336.787        8.322      861.868
12/06/2021  13:49:00      -29.182      -61.801      -30.216       83.594       58.756       43.430     6987.989     3452.288     1886.150        0.895        0.616       68.344       24.994        0.134      336.819        8.376      861.915
12/06/2021  13:50:00      -21.340      -73.048      -38.450       67.995       49.946       29.281     4623.343     2494.638      857.366        0.762        0.399       76.101       26.805        0.124      336.907        8.523      861.957
12/06/2021  13:51:00        2.590      -95.941      -35.723       94.912       55.427       42.658     9008.263     3072.170     1819.747        1.219        0.695       95.976       40.923        0.182      336.919        8.545      861.927
12/06/2021  13:52:00       40.709      -72.106      -33.525       63.336       77.111       49.908     4011.490     5946.129     2490.850        1.021        0.622       82.804       30.601        0.137      336.905        8.519      861.834
12/06/2021  13:53:00       35.187     -116.131      -32.394       48.326       45.198       28.009     2335.365     2042.823      784.477        1.047        0.258      121.344       18.444        0.023      336.806        8.356      861.867
12/06/2021  13:54:00       20.299      -33.089       -8.736       29.280       48.646       26.953      857.342     2366.481      726.455        0.277        0.198       38.819       23.244        0.359      336.834        8.401      861.904
12/06/2021  13:55:00       11.318      -34.305       -9.144       34.368       42.741       25.773     1181.135     1826.807      664.257        0.253        0.184       36.123       24.933        0.476      336.820        8.377      861.884
12/06/2021  13:56:00       -9.819      -13.124       -3.834       41.916       32.544       30.024     1756.923     1059.142      901.467        0.200        0.186       16.391       13.501        0.679      336.893        8.500      861.871
12/06/2021  13:57:00        2.991      -44.242       -9.446       31.929       31.463       22.399     1019.480      989.940      501.713        0.228        0.126       44.343       16.739        0.142      336.857        8.437      861.883
12/06/2021  13:58:00       29.398      -33.634      -20.273       23.707       29.827       22.084      562.001      889.666      487.692        0.217        0.097       44.671       14.363        0.103      336.880        8.477      861.893
12/06/2021  13:59:00       39.187       -3.275      -21.449       41.738       78.856       31.147     1742.091     6218.307      970.135        0.547        0.447       39.323       12.712        0.104      336.723        8.216      861.886
12/06/2021  14:00:00      -27.066       -3.677      -28.895       48.803       32.479       26.514     2381.741     1054.887      702.981        0.286        0.207       27.315       13.635        0.249      336.730        8.228      861.893
12/06/2021  14:01:00        5.625      -31.091      -15.360       31.450       42.342       21.028      989.095     1792.848      442.162        0.223        0.161       31.596        7.527        0.057      336.781        8.312      861.921
12/06/2021  14:02:00       77.661     -142.426      -36.478       59.444       36.749       27.973     3533.625     1350.454      782.501        1.666        0.283      162.223       30.159        0.035      336.763        8.283      861.922
12/06/2021  14:03:00       60.845      -81.674      -28.480       35.153       44.446       29.473     1235.712     1975.456      868.660        0.763        0.204      101.847       19.350        0.036      336.822        8.380      861.933
12/06/2021  14:04:00        5.718      -75.957      -26.684       32.256       45.976       26.280     1040.470     2113.802      690.655        0.518        0.192       76.172       13.929        0.033      336.740        8.245      861.921
12/06/2021  14:05:00       14.921        3.355       -4.981       37.897       30.840       21.523     1436.162      951.132      463.226        0.155        0.143       15.294        7.887        0.266      336.844        8.417      861.955
12/06/2021  14:06:00      -17.597      -13.796       -5.160       31.841       37.741       20.069     1013.820     1424.371      402.781        0.168        0.142       22.360       16.802        0.565      336.897        8.506      861.907
12/06/2021  14:07:00       68.379      -95.655      -34.614       59.683       38.352       23.159     3562.118     1470.889      536.354        1.030        0.278      117.583       26.832        0.052      336.845        8.418      861.885
12/06/2021  14:08:00      103.390     -166.226      -45.945       34.054       52.226       17.902     1159.665     2727.597      320.483        2.232        0.210      195.756       10.417        0.003      336.690        8.161      861.834
12/06/2021  14:09:00       79.806     -119.029      -46.330       58.201       48.162       25.654     3387.404     2319.532      658.126        1.452        0.318      143.307       15.453        0.012      336.726        8.221      861.828
12/06/2021  14:10:00       13.850      -23.137      -19.316       50.135       24.608       18.550     2513.528      605.543      344.107        0.228        0.173       26.965       12.093        0.201      336.931        8.564      861.850
12/06/2021  14:11:00      -53.385      -30.017      -14.793       27.853       39.657       28.665      775.764     1572.693      821.676        0.357        0.159       61.245       16.940        0.077      337.017        8.708      861.844
12/06/2021  14:12:00        3.724       38.700      -24.412       44.847       53.106       29.714     2011.233     2820.295      882.899        0.391        0.286       38.879       25.591        0.433      336.910        8.528      861.802
12/06/2021  14:13:00       -8.921      -24.870       -9.211       26.204       45.688       17.084      686.657     2087.367      291.865        0.192        0.153       26.421       21.357        0.653      337.011        8.699      861.825
12/06/2021  14:14:00      -80.717      -34.555      -27.283       51.725       50.914       27.942     2675.458     2592.286      780.771        0.725        0.302       87.803        6.727        0.006      337.105        8.854      861.804
12/06/2021  14:15:00      -58.854      -12.327       -5.728       44.683       34.810       28.132     1996.538     1211.743      791.397        0.382        0.200       60.131        9.473        0.025      337.130        8.896      861.791
12/06/2021  14:16:00       30.231      -27.040      -20.393       63.550       43.771       30.169     4038.621     1915.940      910.158        0.446        0.343       40.560       31.102        0.588      337.153        8.934      861.787
12/06/2021  14:17:00       69.677      -32.013      -34.554       52.042       43.739       30.410     2708.395     1913.057      924.771        0.631        0.277       76.679       15.458        0.041      336.929        8.559      861.742
12/06/2021  14:18:00       36.053      -57.796      -11.773       60.827       47.612       44.468     3699.887     2266.885     1977.377        0.636        0.397       68.119       36.335        0.285      336.977        8.641      861.734
12/06/2021  14:19:00       97.864      -63.204      -30.188       56.968       55.327       36.950     3245.326     3061.097     1365.298        1.108        0.384      116.500       29.324        0.063      336.920        8.545      861.706
12/06/2021  14:20:00       18.715      -53.462       -5.627       53.266       46.915       33.635     2837.291     2201.034     1131.315        0.470        0.308       56.643       28.109        0.246      336.976        8.638      861.665
12/06/2021  14:21:00      -51.156        5.775       -4.219       53.107       54.541       37.257     2820.405     2974.727     1388.115        0.492        0.359       51.481       23.784        0.213      337.111        8.865      861.676
12/06/2021  14:22:00      -52.245       -9.863       -3.796       45.419       23.770       26.019     2062.926      565.033      676.972        0.307        0.165       53.168       19.754        0.138      337.118        8.877      861.662
12/06/2021  14:23:00      -25.249       20.385      -18.048       51.502       43.419       12.561     2652.422     1885.194      157.781        0.304        0.235       32.451       15.852        0.239      337.043        8.751      861.611
12/06/2021  14:24:00      -58.703       28.559       -9.470      109.352       59.891       32.022    11957.931     3586.907     1025.388        1.046        0.829       65.281       34.460        0.279      337.438        9.411      861.571
12/06/2021  14:25:00     -218.940      -35.706      -16.986      152.808      128.702       65.806    23350.149    16564.307     4330.365        4.686        2.212      221.833       56.000        0.064      337.497        9.509      861.570
12/06/2021  14:26:00     -304.709       -0.587      -26.413      115.674      119.196       62.131    13380.400    14207.573     3860.290        6.249        1.572      304.710       50.564        0.028      337.589        9.662      861.563
12/06/2021  14:27:00     -187.785       10.695        4.809      154.391      126.444       64.788    23836.603    15988.139     4197.494        3.970        2.201      188.089       64.336        0.117      337.850       10.099      861.541
12/06/2021  14:28:00     -230.729      122.349      -15.513      117.040      111.918       71.675    13698.337    12525.581     5137.235        4.990        1.568      261.161       57.328        0.048      338.021       10.386      861.542
12/06/2021  14:29:00      -70.565       56.278        1.045      121.647       98.321       48.999    14798.076     9667.006     2400.939        1.750        1.343       90.259       29.731        0.108      338.077       10.484      861.536
12/06/2021  14:30:00     -250.069       47.276      -28.157      168.294      193.656       94.746    28322.758    37502.716     8976.844        7.017        3.740      254.499       74.444        0.086      338.056       10.445      861.489
12/06/2021  14:31:00     -226.134       61.537       11.639      238.510      124.662       88.851    56887.205    15540.569     7894.570        6.768        4.016      234.358      117.391        0.251      337.925       10.226      861.454
12/06/2021  14:32:00     -228.061       86.415       -6.550      126.478      167.705       88.302    15996.736    28125.013     7797.255        5.571        2.596      243.884       54.123        0.049      338.019       10.383      861.422
12/06/2021  14:33:00     -252.181       17.438        4.688      262.100      162.947      118.217    68696.593    26551.795    13975.158        8.655        5.461      252.783       98.864        0.153      337.846       10.092      861.395
12/06/2021  14:34:00     -278.824       70.041       -3.953      292.907      196.560      118.663    85794.386    38635.672    14080.913       11.056        6.926      287.486      134.987        0.220      337.820       10.050      861.368
12/06/2021  14:35:00     -263.306       87.485       -6.423      195.656      144.952       94.909    38281.329    21011.039     9007.684        7.265        3.415      277.459       87.080        0.098      337.779        9.981      861.351
12/06/2021  14:36:00     -193.770      -11.401      -12.647      219.898      135.408       91.341    48354.973    18335.374     8343.138        5.642        3.752      194.105      100.394        0.268      337.756        9.944      861.353
12/06/2021  14:37:00     -330.564      135.352      -22.590      196.033      167.140       94.884    38428.815    27935.647     9002.920       10.172        3.768      357.202       88.610        0.062      337.732        9.901      861.346
12/06/2021  14:38:00     -502.884      140.031       -8.160      237.326      197.948      124.798    56323.835    39183.333    15574.455       19.180        5.554      522.016      131.343        0.063      337.649        9.764      861.273
12/06/2021  14:39:00     -396.125       78.148      -28.929      317.988      173.734      109.741   101116.262    30183.562    12043.018       15.357        7.167      403.760      146.698        0.132      337.644        9.755      861.260
12/06/2021  14:40:00     -233.755       56.224        4.514      199.485      162.770      111.129    39794.195    26494.100    12349.614        6.822        3.932      240.422       96.189        0.160      337.684        9.823      861.249
12/06/2021  14:41:00     -459.637      157.986       20.168      314.253      177.955      111.078    98755.144    31667.904    12338.325       18.967        7.138      486.031      115.801        0.057      337.605        9.689      861.247
12/06/2021  14:42:00     -364.339      126.123       -6.137      287.235      172.540      119.685    82504.150    29769.976    14324.605       13.762        6.330      385.552      116.377        0.091      337.582        9.649      861.245
12/06/2021  14:43:00     -458.751       74.189       11.810      287.366      183.136      133.469    82579.366    33538.823    17813.914       17.499        6.697      464.711      137.206        0.087      337.550        9.595      861.253
12/06/2021  14:44:00     -451.893      105.792        4.810      331.938      207.770      127.650   110182.781    43168.201    16294.452       19.250        8.482      464.111      157.018        0.114      337.564        9.620      861.281
12/06/2021  14:45:00     -466.595      100.313      -14.213      257.009      177.017       99.463    66053.811    31335.046     9892.799       16.761        5.364      477.257      119.168        0.062      337.562        9.616      861.324
12/06/2021  14:46:00     -593.599       82.591      -15.934      339.269      212.936      121.739   115103.238    45341.915    14820.483       26.732        8.763      599.317      124.386        0.043      337.556        9.604      861.368
12/06/2021  14:47:00     -502.002      166.786      -17.856      270.827      197.660      134.625    73347.309    39069.319    18123.916       20.532        6.527      528.983      128.531        0.059      337.604        9.686      861.358
12/06/2021  14:48:00     -372.387      177.958       11.696      353.328      231.898      126.512   124840.400    53776.564    16005.355       18.251        9.731      412.725      122.157        0.088      337.601        9.681      861.369
12/06/2021  14:49:00     -364.702      108.777       -0.620      215.803      135.701      101.009    46571.036    18414.735    10202.780       11.000        3.759      380.578       82.045        0.046      337.636        9.740      861.388
12/06/2021  14:50:00     -450.204      186.988      -36.501      261.594      197.127      105.002    68431.265    38859.011    11025.357       17.863        5.916      487.491       97.109        0.040      337.629        9.728      861.440
12/06/2021  14:51:00     -279.820      110.703       -6.786      236.557      179.112       90.407    55959.072    32081.285     8173.408        9.339        4.811      300.923       84.283        0.078      337.644        9.755      861.464
12/06/2021  14:52:00     -482.970       97.302      -21.105      295.243      218.026      116.540    87168.228    47535.537    13581.616       19.570        7.414      492.674      115.926        0.055      337.620        9.715      861.469
12/06/2021  14:53:00     -536.089      132.517      -12.130      269.666      169.025      114.609    72720.019    28569.450    13135.216       20.974        5.721      552.225       99.604        0.033      337.627        9.726      861.470
12/06/2021  14:54:00     -533.597      148.989        5.370      344.455      212.558      123.100   118649.066    45180.980    15153.668       24.294        8.949      554.007      133.887        0.058      337.612        9.699      861.489
12/06/2021  14:55:00     -575.220       76.895      -37.808      277.077      188.071      125.293    76771.619    35370.623    15698.359       23.301        6.392      580.337      120.721        0.043      337.604        9.686      861.477
12/06/2021  14:56:00     -523.012      129.772      -41.573      258.729      207.255      118.780    66940.464    42954.524    14108.792       20.803        6.200      538.871      109.236        0.041      337.597        9.675      861.489
12/06/2021  14:57:00     -489.887      204.985      -33.540      262.402      153.500      117.582    68854.616    23562.108    13825.596       19.467        5.312      531.044       94.539        0.032      337.656        9.775      861.546
12/06/2021  14:58:00     -246.859       49.536      -10.311      276.517      142.775      107.710    76461.536    20384.793    11601.384        8.595        5.422      251.780      119.693        0.226      337.655        9.773      861.537
12/06/2021  14:59:00     -367.726       76.266        3.854      336.418      194.376      111.976   113177.129    37781.879    12538.578       15.225        8.175      375.551      135.540        0.130      337.643        9.753      861.528
12/06/2021  15:00:00     -467.469       41.140      -33.533      238.764      190.403      121.939    57008.390    36253.116    14869.105       16.472        5.407      469.276      117.547        0.063      337.653        9.769      861.549
12/06/2021  15:01:00     -306.191       72.099        9.298      248.075      150.589      112.252    61541.307    22677.108    12600.495        9.791        4.841      314.565      129.700        0.170      337.683        9.821      861.530
12/06/2021  15:02:00     -444.461      136.038      -30.366      277.105      160.335       99.676    76787.037    25707.191     9935.255       16.468        5.621      464.814       79.828        0.029      337.663        9.788      861.553
12/06/2021  15:03:00     -517.621      102.940       -0.762      270.187      180.646      108.991    73000.796    32632.885    11878.993       19.800        5.876      527.758      105.034        0.040      337.624        9.721      861.595
12/06/2021  15:04:00     -506.117      186.213        5.954      262.235      177.342      121.752    68767.042    31450.108    14823.570       20.293        5.752      539.286      109.128        0.041      337.676        9.809      861.625
12/06/2021  15:05:00     -412.278       95.820       -0.217      327.039      173.074      112.320   106954.281    29954.471    12615.803       16.431        7.476      423.267      125.576        0.088      337.678        9.812      861.609
12/06/2021  15:06:00     -338.668      108.081      -12.595      234.320      134.926       92.157    54905.810    18205.145     8492.900       10.405        4.080      355.496       71.477        0.040      337.779        9.981      861.622
12/06/2021  15:07:00     -189.636       70.188        2.786      165.027      110.647       67.357    27233.899    12242.841     4536.994        4.245        2.201      202.208       62.472        0.095      337.737        9.912      861.580
12/06/2021  15:08:00     -488.440       86.209      -25.605      278.368      232.907      133.106    77488.612    54245.500    17717.250       19.803        7.473      495.990      124.127        0.063      337.685        9.823      861.552
12/06/2021  15:09:00     -491.690       78.580      -10.613      276.949      152.644      100.191    76700.527    23300.138    10038.164       17.902        5.502      497.929       96.907        0.038      337.656        9.776      861.537
12/06/2021  15:10:00     -360.589      108.121      -42.254      336.857      199.922      116.936   113472.307    39968.701    13673.930       15.528        8.356      376.450      104.891        0.078      337.683        9.819      861.533
12/06/2021  15:11:00     -542.667       99.154      -12.069      349.524      209.387      147.396   122166.855    43843.101    21725.717       24.607        9.387      551.651      138.175        0.063      337.668        9.795      861.496
12/06/2021  15:12:00     -507.343      119.484        7.447      434.671      256.989      151.211   188939.036    66043.258    22864.890       27.474       13.892      521.223      160.954        0.095      337.657        9.777      861.501
12/06/2021  15:13:00     -625.329      196.234        3.706      294.532      225.945      127.510    86749.366    51051.336    16258.718       29.178        7.703      655.396      131.784        0.040      337.641        9.749      861.498
12/06/2021  15:14:00     -425.249       76.066      -28.055      358.644      213.961      140.791   128625.191    45779.370    19822.160       19.078        9.711      431.998      146.734        0.115      337.668        9.795      861.487
12/06/2021  15:15:00     -441.951       96.072       -8.550      351.686      189.074      149.240   123682.709    35748.899    22272.432       19.313        9.085      452.273      144.022        0.101      337.629        9.730      861.464
12/06/2021  15:16:00     -139.157       12.908      -29.766      218.639      165.636       98.882    47802.820    27435.134     9777.646        5.270        4.251      139.754       59.871        0.184      337.618        9.711      861.424
12/06/2021  15:17:00     -502.732      114.514      -26.573      340.477      228.987      131.121   115924.334    52435.076    17192.818       22.602        9.278      515.609      123.669        0.058      337.582        9.649      861.432
12/06/2021  15:18:00     -406.162      226.928       -0.683      215.063      162.288      104.518    46252.140    26337.256    10923.969       14.997        4.176      465.257       86.596        0.035      337.636        9.741      861.452
12/06/2021  15:19:00     -514.805      171.834      -25.840      233.370      201.814      105.842    54461.663    40729.048    11202.573       20.079        5.320      542.725       96.510        0.032      337.606        9.688      861.443
12/06/2021  15:20:00     -480.800      169.106      -24.759      256.467      169.419      112.938    65775.403    28702.852    12754.933       18.379        5.362      509.672       58.321        0.013      337.634        9.736      861.429
12/06/2021  15:21:00     -549.469      135.418      -38.067      217.452      205.708      113.262    47285.256    42315.796    12828.337       21.205        5.121      565.910       81.324        0.021      337.619        9.712      861.415
12/06/2021  15:22:00     -349.492       95.612      -15.182      315.090      254.496      134.232    99281.437    64768.360    18018.180       15.676        9.103      362.335      142.967        0.156      337.603        9.683      861.413
12/06/2021  15:23:00     -396.743      104.446      -18.940      299.769      160.219      119.071    89861.640    25670.156    14177.881       14.917        6.485      410.261      130.380        0.101      337.600        9.680      861.444
12/06/2021  15:24:00     -562.796      129.945      -23.511      379.845      223.313      121.364   144282.532    49868.492    14729.204       27.149       10.444      577.603      133.612        0.054      337.579        9.645      861.463
12/06/2021  15:25:00     -500.038      163.406      -20.184      259.262      188.702      117.813    67216.837    35608.465    13879.888       19.690        5.835      526.060      104.291        0.039      337.636        9.741      861.496
12/06/2021  15:26:00     -507.538      224.773        2.534      274.171      185.710      109.810    75169.886    34488.298    12058.196       21.490        6.086      555.083      113.624        0.042      337.641        9.751      861.525
12/06/2021  15:27:00     -342.921      126.478       -2.176      272.967      209.319      128.406    74510.871    43814.441    16488.083       13.418        6.741      365.502      100.291        0.075      337.651        9.767      861.527
12/06/2021  15:28:00     -276.760      137.332        7.139      281.831      204.344      108.942    79428.821    41756.348    11868.264       11.426        6.653      308.960       93.842        0.092      337.649        9.764      861.550
12/06/2021  15:29:00     -319.256       98.545      -13.305      262.638      173.872      113.929    68978.857    30231.405    12979.824       11.198        5.610      334.119      111.246        0.111      337.654        9.772      861.554
12/06/2021  15:30:00     -372.945      101.950       -2.519      283.496      181.795      110.373    80370.015    33049.589    12182.274       13.752        6.280      386.628      113.300        0.086      337.651        9.767      861.598
12/06/2021  15:31:00     -544.070      102.485        8.384      330.405      199.181      120.079   109167.664    39673.063    14418.987       23.489        8.163      553.638      141.315        0.065      337.632        9.735      861.586
12/06/2021  15:32:00     -370.286      107.690       13.993      258.599      156.492      101.312    66873.316    24489.600    10264.139       12.525        5.081      385.628      100.830        0.068      337.650        9.767      861.649
12/06/2021  15:33:00     -455.276       70.185      -23.269      278.988      176.011      117.497    77834.173    30979.840    13805.558       16.766        6.131      460.654      112.814        0.060      337.641        9.750      861.671
12/06/2021  15:34:00     -503.721      116.414      -10.187      337.089      194.542      126.856   113629.008    37846.747    16092.488       21.745        8.378      516.998      143.322        0.077      337.679        9.812      861.695
12/06/2021  15:35:00     -343.506      122.762        8.712      275.756      208.275      104.106    76041.485    43378.382    10838.023       13.168        6.513      364.783      117.434        0.104      337.697        9.844      861.693
12/06/2021  15:36:00     -306.274      109.437      -16.197      294.201      188.735      120.631    86554.340    35620.721    14551.861       12.136        6.836      325.239      109.761        0.114      337.655        9.774      861.685
12/06/2021  15:37:00     -436.584       87.790      -42.482      267.605      224.143      128.906    71612.686    50240.211    16616.735       16.927        6.923      445.323      120.148        0.073      337.660        9.782      861.694
12/06/2021  15:38:00     -400.457       56.225      -25.253      184.498      141.304       93.619    34039.475    19966.884     8764.467       11.346        3.139      404.385       89.884        0.049      337.649        9.764      861.715
12/06/2021  15:39:00     -250.596       98.634       -4.619      176.529      148.542       78.690    31162.627    22064.827     6192.189        6.597        2.971      269.308       62.345        0.054      337.698        9.845      861.724
12/06/2021  15:40:00     -241.366      -35.264       -3.562      227.768      164.287      107.423    51878.432    26990.287    11539.668        7.494        4.520      243.929      106.719        0.191      337.672        9.801      861.732
12/06/2021  15:41:00     -308.114       64.944      -42.878      174.597      139.121       99.921    30484.044    19354.685     9984.298        8.040        2.991      314.884       76.677        0.059      337.688        9.829      861.729
12/06/2021  15:42:00     -167.148       37.354       10.539      185.064      104.411       81.721    34248.712    10901.640     6678.255        4.063        2.591      171.271       84.887        0.246      337.689        9.829      861.744
12/06/2021  15:43:00     -242.225       96.899       -6.889      167.843      115.133       81.033    28171.152    13255.692     6566.428        5.804        2.400      260.887       79.175        0.092      337.782        9.985      861.752
12/06/2021  15:44:00     -483.097      100.726      -32.914      225.186      155.487       99.609    50708.589    24176.158     9921.889       16.469        4.240      493.486       95.602        0.038      337.680        9.815      861.753
12/06/2021  15:45:00     -292.794       67.538       13.470      198.256      154.784       90.988    39305.569    23958.209     8278.902        8.099        3.577      300.482       87.181        0.084      337.695        9.841      861.780
12/06/2021  15:46:00     -136.699       93.376        6.639      168.619      103.187       72.753    28432.374    10647.502     5292.929        3.590        2.219      165.546       76.998        0.216      337.774        9.973      861.755
12/06/2021  15:47:00     -294.232       22.337      -23.449      165.595      149.741       86.489    27421.840    22422.414     7480.371        7.246        2.866      295.079       67.064        0.052      337.670        9.798      861.735
12/06/2021  15:48:00     -344.743      -16.400      -31.916      222.097      126.466       70.977    49327.170    15993.771     5037.745        9.523        3.518      345.133       90.123        0.068      337.657        9.777      861.725
12/06/2021  15:49:00     -222.303       59.857       -7.252      176.287      134.533       74.813    31077.083    18099.145     5596.972        5.390        2.739      230.221       73.574        0.102      337.688        9.830      861.745
12/06/2021  15:50:00     -116.497       32.175       -4.909      137.936      100.802       72.325    19026.216    10160.986     5230.944        2.452        1.721      120.858       53.877        0.199      337.691        9.834      861.750
12/06/2021  15:51:00     -225.278        9.646       -4.582      230.252      146.088       87.972    53016.020    21341.745     7739.134        6.647        4.105      225.484       92.562        0.169      337.749        9.929      861.773
12/06/2021  15:52:00      -63.342       51.100      -12.738      283.511      118.566       87.523    80378.272    14057.815     7660.357        5.442        5.105       81.384       79.216        0.947      337.678        9.810      861.803
12/06/2021  15:53:00     -354.594      102.454      -33.467      207.100      122.725       96.049    42890.320    15061.524     9225.406       10.225        3.359      369.098      112.439        0.093      337.716        9.876      861.804
12/06/2021  15:54:00     -411.158      102.950      -33.976      243.327      148.250       96.409    59208.038    21978.088     9294.636       13.563        4.524      423.851       89.805        0.045      337.655        9.773      861.826
12/06/2021  15:55:00     -357.332       54.373      -13.868      215.243      163.300       95.556    46329.608    26666.931     9130.988       10.647        4.106      361.445      109.937        0.093      337.691        9.834      861.807
12/06/2021  15:56:00     -271.433       43.654      -22.045      245.947      138.524       96.157    60490.092    19188.796     9246.158        8.248        4.446      274.921      103.025        0.140      337.632        9.736      861.788
12/06/2021  15:57:00     -335.853      156.595       -3.545      167.750      112.415       84.001    28139.919    12637.030     7056.194        9.257        2.392      370.566       79.342        0.046      337.657        9.776      861.781
12/06/2021  15:58:00     -225.354      103.309       -4.338      151.414      133.822       86.438    22926.236    17908.296     7471.549        5.488        2.415      247.906       77.795        0.098      337.740        9.917      861.769
12/06/2021  15:59:00     -176.238       45.706       -5.032      203.294      112.044       79.027    41328.411    12553.788     6245.270        4.664        3.006      182.068       64.868        0.127      337.646        9.758      861.762
12/06/2021  16:00:00     -180.818       46.838        4.737      117.017      133.949       85.484    13693.026    17942.460     7307.461        3.692        1.947      186.786       74.395        0.159      337.649        9.764      861.758
12/06/2021  16:01:00     -247.393       49.123      -39.345      162.391      147.249       73.096    26370.925    21682.150     5343.082        5.927        2.670      252.223       41.582        0.027      337.644        9.755      861.723
12/06/2021  16:02:00     -168.918       67.162      -15.575      115.483      131.127       63.003    13336.315    17194.294     3969.353        3.389        1.725      181.780       55.969        0.095      337.595        9.674      861.686
12/06/2021  16:03:00     -215.891       71.892       -3.932      170.529      130.369       74.942    29080.112    16996.171     5616.229        5.173        2.585      227.546       66.900        0.086      337.591        9.667      861.651
12/06/2021  16:04:00     -228.223       28.105       16.757      184.637      125.066       95.153    34090.763    15641.445     9054.117        5.596        2.939      229.947      100.848        0.192      337.633        9.736      861.647
12/06/2021  16:05:00     -260.535      117.229      -16.714      153.486      116.889       72.908    23557.859    13663.088     5315.563        6.221        2.127      285.694       76.605        0.072      337.602        9.683      861.641
12/06/2021  16:06:00     -280.622       25.357      -53.850      226.087      152.260       96.922    51115.338    23183.118     9393.807        8.298        4.185      281.765       76.024        0.073      337.603        9.684      861.613
12/06/2021  16:07:00      -55.517       29.649      -12.070      174.660      117.315       83.896    30506.207    13762.716     7038.528        2.770        2.565       62.939       45.740        0.528      337.606        9.692      861.629
12/06/2021  16:08:00      -78.711       27.129      -23.033      127.677       80.283       57.112    16301.381     6445.429     3261.732        1.673        1.300       83.256       34.006        0.167      337.688        9.832      861.640
12/06/2021  16:09:00     -194.235      -23.231        0.757      156.477      105.842       80.611    24484.918    11202.568     6498.161        4.022        2.109      195.619       79.262        0.164      337.637        9.743      861.623
12/06/2021  16:10:00     -231.383       10.266        8.290      211.282      130.806       93.688    44640.046    17110.179     8777.454        6.211        3.526      231.611      105.318        0.207      337.626        9.725      861.622
12/06/2021  16:11:00     -251.195      -12.372      -25.546      149.836      100.111       86.348    22450.922    10022.132     7456.037        5.191        1.996      251.500       78.660        0.098      337.622        9.718      861.599
12/06/2021  16:12:00     -247.788      -28.917       -9.215      138.513       85.374       78.832    19185.834     7288.682     6214.563        4.750        1.634      249.470       78.704        0.100      337.623        9.720      861.605
12/06/2021  16:13:00     -270.961       -7.748       -0.933      186.304       91.136       66.490    34709.248     8305.812     4420.944        6.045        2.372      271.072       79.582        0.086      337.616        9.709      861.585
12/06/2021  16:14:00     -155.092       12.155       -6.250       94.821       77.481       53.453     8991.019     6003.301     2857.187        2.104        0.893      155.568       34.956        0.050      337.613        9.705      861.571
12/06/2021  16:15:00      -78.365       -3.869      -12.741      126.865       56.563       55.914    16094.639     3199.331     3126.346        1.437        1.121       78.461       44.742        0.325      337.614        9.706      861.547
12/06/2021  16:16:00     -413.476      -66.923      -32.428      209.965      140.993       82.371    44085.500    19879.152     6784.943       12.361        3.537      418.857       87.590        0.044      337.590        9.663      861.519
12/06/2021  16:17:00     -224.085       22.484      -22.652      120.472       92.313       82.320    14513.481     8521.622     6776.525        4.052        1.491      225.211       66.420        0.087      337.574        9.636      861.517
12/06/2021  16:18:00     -274.188      -23.322      -19.117      142.586       84.179       57.261    20330.835     7086.128     3278.856        5.339        1.535      275.178       48.789        0.031      337.566        9.623      861.517
12/06/2021  16:19:00     -174.184       74.125        4.877      109.683       94.421       64.524    12030.406     8915.272     4163.282        3.048        1.255      189.301       43.966        0.054      337.622        9.718      861.492
12/06/2021  16:20:00     -271.357      -34.493      -19.896       96.886       77.672       53.622     9386.879     6032.915     2875.309        4.675        0.915      273.541       44.306        0.026      337.572        9.633      861.465
12/06/2021  16:21:00     -115.462        9.090       -8.144       79.270       48.941       52.925     6283.768     2395.268     2801.008        1.248        0.574      115.819       49.326        0.181      337.577        9.643      861.453
12/06/2021  16:22:00     -181.425      -33.653       13.905      210.568      147.077      110.412    44338.785    21631.757    12190.852        5.619        3.908      184.520      126.630        0.471      337.583        9.651      861.433
12/06/2021  16:23:00     -222.260       92.124       -3.717      141.766      126.467       67.185    20097.537    15994.004     4513.780        4.925        2.030      240.596       60.702        0.064      337.600        9.680      861.451
12/06/2021  16:24:00     -272.140       -1.103      -11.378      116.174       83.007       59.667    13496.500     6890.225     3560.133        4.906        1.197      272.142       60.457        0.049      337.576        9.639      861.458
12/06/2021  16:25:00     -228.231       28.475       -5.747      156.361      123.310       84.594    24448.755    15205.427     7156.203        4.986        2.341      230.000       73.920        0.103      337.567        9.625      861.455
12/06/2021  16:26:00     -264.197      -28.269      -27.104       87.134      121.715       56.603     7592.266    14814.557     3203.879        4.847        1.281      265.705       56.321        0.045      337.569        9.626      861.436
12/06/2021  16:27:00     -182.508       13.487      -18.394      136.490      126.290       63.576    18629.578    15949.127     4041.857        3.622        1.931      183.006       55.496        0.092      337.578        9.643      861.423
12/06/2021  16:28:00     -181.247        9.666       -4.135      138.673       71.501       49.775    19230.294     5112.407     2477.582        2.989        1.341      181.505       51.994        0.082      337.577        9.640      861.443
12/06/2021  16:29:00     -283.373      -28.225       -8.441      158.443       99.629       67.473    25104.113     9925.958     4552.583        6.037        1.979      284.775       73.398        0.066      337.595        9.672      861.421
12/06/2021  16:30:00     -142.200       11.974       -2.212      115.519      100.954       59.099    13344.714    10191.682     3492.646        2.369        1.351      142.703       48.242        0.114      337.573        9.637      861.422
12/06/2021  16:31:00     -230.264      -51.039      -19.916      148.085       81.856       69.658    21929.244     6700.323     4852.198        4.475        1.674      235.852       65.556        0.077      337.602        9.685      861.433
12/06/2021  16:32:00     -372.596      -18.781      -28.630      161.763      118.701       77.038    26167.323    14089.956     5934.930        9.309        2.310      373.069       58.587        0.025      337.603        9.686      861.423
12/06/2021  16:33:00     -305.858       -3.109      -11.148      156.656       94.148       75.349    24541.011     8863.915     5677.545        6.638        1.954      305.873       78.018        0.065      337.601        9.682      861.454
12/06/2021  16:34:00     -129.426        8.077       -0.871      117.408      104.022       69.552    13784.622    10820.580     4837.529        2.312        1.472      129.678       73.318        0.320      337.606        9.692      861.471
12/06/2021  16:35:00     -306.459       -8.344       -4.096      156.972       92.867       73.172    24640.183     8624.226     5354.105        6.630        1.931      306.573       74.146        0.058      337.587        9.658      861.475
12/06/2021  16:36:00     -297.368       -2.498      -33.477       99.089      107.004       62.002     9818.643    11449.826     3844.309        5.733        1.256      297.378       48.775        0.027      337.594        9.670      861.474
12/06/2021  16:37:00     -184.589      -27.797       -5.025      121.889       64.822       59.773    14856.897     4201.954     3572.776        2.875        1.132      186.670       53.163        0.081      337.600        9.680      861.498
12/06/2021  16:38:00     -222.970       -0.151      -32.927       85.529       59.959       42.075     7315.154     3595.100     1770.331        3.174        0.634      222.970       37.077        0.028      337.611        9.697      861.548
12/06/2021  16:39:00     -181.092       -8.604      -20.146       90.645       78.700       36.937     8216.531     6193.647     1364.332        2.452        0.789      181.297       20.270        0.013      337.605        9.691      861.560
12/06/2021  16:40:00     -192.063      -30.727      -27.066       92.353       39.295       37.510     8529.138     1544.130     1407.019        2.502        0.574      194.505       32.493        0.028      337.590        9.665      861.576
12/06/2021  16:41:00     -187.329      -47.722      -27.584       92.227       90.128       50.658     8505.731     8123.107     2566.240        2.866        0.960      193.312       39.095        0.041      337.608        9.695      861.567
12/06/2021  16:42:00      -72.446      -11.447       -5.571       74.150       45.783       38.876     5498.265     2096.081     1511.366        0.726        0.455       73.345       33.763        0.212      337.623        9.724      861.569
12/06/2021  16:43:00     -118.600      -91.304      -18.729       65.843       70.891       42.107     4335.268     5025.476     1773.030        1.694        0.557      149.674       40.501        0.073      337.703        9.854      861.560
12/06/2021  16:44:00      -71.719      -76.933      -11.570       87.520      102.110       52.720     7659.674    10426.531     2779.371        1.603        1.043      105.178       39.668        0.142      337.665        9.793      861.544
12/06/2021  16:45:00     -145.488      -67.548       -3.882      118.627      111.360       54.278    14072.352    12400.981     2946.095        2.758        1.471      160.404       64.470        0.162      337.614        9.706      861.535
12/06/2021  16:46:00     -116.862      -23.609      -30.618       90.657       68.267       44.767     8218.699     4660.432     2004.049        1.501        0.744      119.223       35.965        0.091      337.604        9.691      861.515
12/06/2021  16:47:00      -97.391      -88.204      -11.209       75.309       87.965       41.653     5671.479     7737.821     1735.008        1.626        0.757      131.396       37.368        0.081      337.705        9.858      861.514
12/06/2021  16:48:00     -185.200      -79.797      -10.411       72.396       90.835       48.564     5241.218     8250.979     2358.433        2.831        0.793      201.660       39.642        0.039      337.587        9.659      861.528
12/06/2021  16:49:00     -248.241       -8.902      -23.380       78.809       59.244       40.537     6210.859     3509.910     1643.232        3.680        0.568      248.400       33.264        0.018      337.538        9.575      861.542
12/06/2021  16:50:00     -201.200        4.203      -12.054       82.828       66.549       40.780     6860.455     4428.772     1663.000        2.680        0.648      201.244       37.199        0.034      337.523        9.552      861.555
12/06/2021  16:51:00     -151.713       42.158       -2.791       85.083       73.254       44.569     7239.103     5366.203     1986.416        1.969        0.730      157.461       35.718        0.051      337.485        9.487      861.580
12/06/2021  16:52:00     -142.196       14.978      -13.225       60.772       33.914       31.435     3693.212     1150.156      988.172        1.322        0.292      142.982       22.045        0.024      337.488        9.494      861.577
12/06/2021  16:53:00      -95.663       -6.447        1.019       84.407       55.620       42.737     7124.607     3093.529     1826.425        1.062        0.602       95.880       39.346        0.168      337.506        9.526      861.575
12/06/2021  16:54:00     -240.750      -11.484      -27.568       90.432       79.403       47.640     8177.930     6304.770     2269.553        3.780        0.838      241.024       45.451        0.036      337.445        9.418      861.575
12/06/2021  16:55:00     -150.329      -29.233      -14.576       48.631       62.083       27.737     2364.970     3854.249      769.367        1.533        0.349      153.145       24.494        0.026      337.450        9.431      861.563
12/06/2021  16:56:00     -138.744        7.226       -1.986       68.463       62.923       40.044     4687.205     3959.251     1603.536        1.478        0.512      138.932       30.940        0.050      337.449        9.428      861.561
12/06/2021  16:57:00     -123.095      -36.634      -12.920       49.101       59.390       31.047     2410.940     3527.173      963.902        1.178        0.345      128.431       23.847        0.034      337.458        9.445      861.569
12/06/2021  16:58:00     -117.850     -101.523      -18.515       58.483      106.056       42.297     3420.212    11247.917     1789.000        2.049        0.823      155.550       22.534        0.021      337.453        9.435      861.555
12/06/2021  16:59:00     -126.806      -30.384      -14.815       82.145       54.597       35.031     6747.869     2980.877     1227.176        1.409        0.548      130.395       36.517        0.078      337.416        9.373      861.572
12/06/2021  17:00:00     -107.529      -31.247      -11.906       79.759       49.638       37.719     6361.468     2463.952     1422.731        1.146        0.512      111.977       34.054        0.092      337.395        9.339      861.581
12/06/2021  17:01:00     -235.497       -3.572       -5.031      115.548       81.843       67.211    13351.254     6698.352     4517.300        4.003        1.228      235.524       63.582        0.073      337.332        9.231      861.607
12/06/2021  17:02:00     -235.642      -32.102       -7.612      159.834       86.659       80.917    25546.840     7509.801     6547.612        4.810        1.980      237.819       78.202        0.108      337.321        9.214      861.628
12/06/2021  17:03:00     -193.913       -0.117      -14.857      111.382       84.979       72.898    12405.938     7221.433     5314.156        3.138        1.247      193.913       54.749        0.080      337.321        9.214      861.668
12/06/2021  17:04:00     -213.476       11.053      -20.815      112.171       74.534       46.360    12582.302     5555.297     2149.210        3.320        1.014      213.762       48.541        0.052      337.299        9.179      861.694
12/06/2021  17:05:00     -129.442       -2.296      -11.822       74.498       43.287       37.477     5549.994     1873.746     1404.493        1.286        0.441      129.462       35.364        0.075      337.297        9.178      861.719
12/06/2021  17:06:00     -116.616      -40.959      -22.060       86.839       50.506       38.886     7540.987     2550.828     1512.157        1.368        0.580      123.600       46.292        0.140      337.268        9.127      861.714
12/06/2021  17:07:00     -151.107     -110.437      -20.323       87.538       70.779       36.871     7662.905     5009.624     1359.476        2.473        0.702      187.163       34.220        0.033      337.300        9.182      861.704
12/06/2021  17:08:00     -192.466      -51.239      -19.186       97.578       92.879       50.175     9521.414     8626.567     2517.504        3.035        1.033      199.169       34.775        0.030      337.279        9.144      861.691
12/06/2021  17:09:00     -149.380      -14.494      -14.193       46.703       53.714       29.001     2181.216     2885.143      841.069        1.432        0.295      150.082       23.414        0.024      337.243        9.087      861.683
12/06/2021  17:10:00      -52.942       28.802        6.585       57.514       44.322       39.976     3307.915     1964.469     1598.108        0.527        0.344       60.270       34.879        0.335      337.248        9.096      861.678
12/06/2021  17:11:00      -98.336      -34.873       -8.909       59.185       42.551       29.109     3502.903     1810.566      847.311        0.856        0.308      104.336       27.111        0.068      337.262        9.120      861.682
12/06/2021  17:12:00     -130.249      -57.031      -15.215       63.506       90.922       42.101     4032.996     8266.871     1772.536        1.726        0.704      142.187       40.812        0.082      337.241        9.083      861.681
12/06/2021  17:13:00     -195.426     -123.256      -32.244       63.981       72.907       42.490     4093.572     5315.379     1805.374        3.282        0.561      231.049       35.713        0.024      337.288        9.158      861.657
12/06/2021  17:14:00     -176.220      -13.692      -17.764       69.260       52.999       37.575     4796.886     2808.898     1411.912        2.029        0.451      176.751       19.355        0.012      337.227        9.058      861.683
12/06/2021  17:15:00     -178.442      -33.086      -25.486       60.276       71.961       30.706     3633.245     5178.401      942.864        2.167        0.488      181.484       30.175        0.028      337.240        9.081      861.668
12/06/2021  17:16:00      -57.893      -41.965      -15.985       72.241       35.954       29.734     5218.811     1292.672      884.098        0.638        0.370       71.503       24.441        0.117      337.269        9.131      861.661
12/06/2021  17:17:00      -27.289       -6.248       -5.159       45.194       30.451       19.634     2042.535      927.287      385.483        0.208        0.168       27.995       15.760        0.317      337.271        9.134      861.656
12/06/2021  17:18:00     -112.583      -13.791      -18.838       59.352       44.372       29.281     3522.670     1968.887      857.393        0.978        0.317      113.425       14.589        0.017      337.284        9.154      861.658
12/06/2021  17:19:00      -43.397      -17.816       -9.022       59.780       39.051       37.886     3573.675     1524.950     1435.359        0.441        0.327       46.912       29.229        0.388      337.224        9.054      861.648
12/06/2021  17:20:00      -41.108        7.251       -5.676       36.536       30.804       28.389     1334.913      948.858      805.957        0.243        0.154       41.742       19.736        0.224      337.237        9.075      861.639
12/06/2021  17:21:00      -17.676       16.890       -9.904       15.519       18.190       21.898      240.830      330.881      479.513        0.087        0.053       24.448       12.779        0.273      337.188        8.993      861.631
12/06/2021  17:22:00      -36.796      -10.341      -10.578       25.462       19.533       18.148      648.324      381.523      329.338        0.147        0.068       38.221        9.737        0.065      337.257        9.112      861.632
12/06/2021  17:23:00     -145.629      -17.813      -16.564       73.233       41.753       30.909     5363.144     1743.314      955.393        1.493        0.403      146.715       25.404        0.030      337.205        9.023      861.616
12/06/2021  17:24:00     -138.996      -37.600      -13.588       46.775       65.143       32.085     2187.928     4243.650     1029.422        1.419        0.373      143.992       23.927        0.028      337.194        9.004      861.589
12/06/2021  17:25:00      -92.856       -9.219       -7.939       66.049       48.213       33.545     4362.449     2324.448     1125.241        0.829        0.391       93.313       16.196        0.030      337.192        9.000      861.564
12/06/2021  17:26:00      -71.840      -14.945       -2.945       52.075       45.079       25.852     2711.818     2032.112      668.318        0.540        0.271       73.378       24.614        0.113      337.214        9.040      861.563
12/06/2021  17:27:00     -119.779      -22.515      -11.669       48.859       38.690       32.170     2387.183     1496.951     1034.931        0.995        0.246      121.877       20.669        0.029      337.214        9.038      861.561
12/06/2021  17:28:00     -107.883      -80.340      -39.612       64.397       94.971       35.251     4146.936     9019.559     1242.641        1.703        0.720      134.511       30.250        0.051      337.220        9.047      861.553
12/06/2021  17:29:00      -66.649      -84.085      -17.116       52.874       81.607       40.211     2795.625     6659.774     1616.918        1.144        0.554      107.296       30.013        0.078      337.244        9.087      861.559
12/06/2021  17:30:00       19.187     -165.084      -48.603       92.272      126.467       67.715     8514.207    15993.823     4585.374        2.953        1.455      166.195       53.570        0.104      337.281        9.147      861.538
12/06/2021  17:31:00      -63.508      -16.554       -6.110       54.494       57.075       35.770     2969.631     3257.559     1279.515        0.592        0.375       65.630       21.579        0.108      337.170        8.965      861.549
12/06/2021  17:32:00     -115.258      -62.005      -19.068       70.362       83.607       56.339     4950.799     6990.101     3174.122        1.630        0.756      130.878       50.761        0.150      337.189        8.996      861.549
12/06/2021  17:33:00     -158.465      -44.730      -22.990       82.780       54.043       40.844     6852.522     2920.612     1668.259        1.954        0.572      164.657       27.424        0.028      337.169        8.962      861.558
12/06/2021  17:34:00     -105.635      -44.849       -9.817       82.232       63.788       44.344     6762.120     4068.965     1966.369        1.303        0.640      114.761       44.467        0.150      337.173        8.969      861.565
12/06/2021  17:35:00     -156.590      -63.688      -23.448       68.712       69.323       42.249     4721.290     4805.692     1784.968        2.022        0.566      169.046       30.634        0.033      337.174        8.971      861.562
12/06/2021  17:36:00     -167.353      -36.613      -21.872       72.695       66.900       52.075     5284.591     4475.667     2711.815        2.115        0.624      171.311       32.966        0.037      337.166        8.958      861.557
12/06/2021  17:37:00     -121.081      -41.280       -4.264       48.785       89.625       45.341     2379.965     8032.604     2055.803        1.442        0.623      127.925       22.854        0.032      337.147        8.923      861.551
12/06/2021  17:38:00     -155.559      -27.888      -25.179       66.249       59.161       33.906     4388.872     3500.022     1149.595        1.732        0.452      158.039       29.688        0.035      337.120        8.878      861.553
12/06/2021  17:39:00     -155.159      -21.391      -15.648       74.994       60.816       38.670     5624.047     3698.581     1495.355        1.780        0.541      156.627       32.823        0.044      337.108        8.856      861.552
12/06/2021  17:40:00     -188.223      -45.816      -36.728       77.928       50.517       40.559     6072.703     2551.982     1645.067        2.457        0.513      193.719       33.443        0.030      337.092        8.832      861.549
12/06/2021  17:41:00     -185.536      -56.732      -12.635       69.219       63.354       36.979     4791.329     4013.776     1367.436        2.399        0.509      194.016       27.465        0.020      337.077        8.807      861.552
12/06/2021  17:42:00     -199.559      -28.145      -24.598       67.853       58.913       38.923     4604.055     3470.787     1515.006        2.540        0.479      201.534       26.221        0.017      337.047        8.754      861.533
12/06/2021  17:43:00     -216.297       -2.591      -19.625       64.320       52.944       47.632     4137.034     2803.052     2268.793        2.819        0.460      216.312       40.329        0.035      337.002        8.680      861.519
12/06/2021  17:44:00     -182.921      -26.412      -14.704       70.549       54.637       39.643     4977.116     2985.219     1571.581        2.195        0.477      184.818       36.748        0.040      337.000        8.677      861.511
12/06/2021  17:45:00     -140.123      -12.919       -9.766       44.509       49.039       29.042     1981.077     2404.795      843.433        1.256        0.261      140.717       21.595        0.024      336.974        8.634      861.510
12/06/2021  17:46:00     -187.832      -19.809      -14.408       81.729       65.803       35.864     6679.634     4330.055     1286.223        2.409        0.615      188.874       25.056        0.018      336.938        8.572      861.521
12/06/2021  17:47:00     -186.317      -44.227      -15.234       91.448       87.739       44.466     8362.738     7698.071     1977.226        2.747        0.902      191.494       43.107        0.051      336.869        8.458      861.524
12/06/2021  17:48:00      -89.396       13.694       -9.057       83.246       66.866       46.134     6929.858     4471.015     2128.382        1.089        0.676       90.439       32.310        0.128      336.860        8.443      861.540
12/06/2021  17:49:00     -227.303       39.209       -9.438       98.653       76.283       50.492     9732.448     5819.156     2549.485        3.569        0.905      230.660       31.390        0.019      336.817        8.371      861.540
12/06/2021  17:50:00     -234.493        5.643        2.479      117.541       72.525       57.849    13815.890     5259.809     3346.490        3.872        1.121      234.561       65.159        0.077      336.808        8.354      861.542
12/06/2021  17:51:00     -277.869       -9.833      -17.759      132.028       86.336       56.293    17431.349     7453.951     3168.856        5.283        1.403      278.043       66.682        0.058      336.818        8.372      861.549
12/06/2021  17:52:00     -247.626        3.352      -16.140      105.867       97.805       55.587    11207.750     9565.780     3089.938        4.272        1.193      247.649       47.471        0.037      336.815        8.365      861.553
12/06/2021  17:53:00     -256.034      -26.951      -15.225      184.864      104.224       83.126    34174.676    10862.732     6909.922        5.922        2.597      257.449       86.258        0.112      336.792        8.330      861.545
12/06/2021  17:54:00     -250.793      -12.514       -2.195      136.639       93.330       81.059    18670.290     8710.530     6570.579        4.850        1.698      251.105       81.501        0.105      336.783        8.314      861.526
12/06/2021  17:55:00     -226.780      -16.477       -4.952      119.187       99.649       81.369    14205.429     9930.004     6620.893        4.124        1.538      227.378       77.366        0.116      336.753        8.263      861.496
12/06/2021  17:56:00     -253.487      -50.081      -23.975      161.178      105.748       84.655    25978.271    11182.538     7166.503        5.582        2.216      258.387       89.889        0.121      336.762        8.277      861.466
12/06/2021  17:57:00     -202.501      -33.704      -10.200      133.814       92.904       75.124    17906.099     8631.121     5643.598        3.721        1.609      205.286       68.377        0.111      336.756        8.268      861.454
12/06/2021  17:58:00     -156.189       15.873       -3.910      106.010       64.030       55.161    11238.173     4099.790     3042.693        2.152        0.919      156.994       52.807        0.113      336.731        8.228      861.480
12/06/2021  17:59:00     -114.629       29.051       -0.398       72.440       51.292       42.473     5247.487     2630.917     1803.945        1.183        0.484      118.253       40.191        0.116      336.705        8.185      861.544
12/06/2021  18:00:00     -275.436       22.508      -23.280      134.422       88.604       55.268    18069.376     7850.611     3054.501        5.294        1.449      276.354       59.054        0.046      336.738        8.240      861.610
12/06/2021  18:01:00     -344.606        3.343      -10.845      147.082       75.778       70.534    21633.209     5742.249     4975.054        7.561        1.618      344.623       75.780        0.048      336.731        8.227      861.649
12/06/2021  18:02:00     -335.850      -42.677      -13.552      159.944       87.109       72.237    25582.199     7587.987     5218.213        7.659        1.919      338.551       59.041        0.030      336.700        8.175      861.666
12/06/2021  18:03:00     -275.274      -26.810        5.968      169.267      104.597       77.110    28651.453    10940.595     5945.988        6.103        2.277      276.576       76.672        0.077      336.663        8.114      861.657
12/06/2021  18:04:00     -293.243       -1.222        0.095      185.390       84.154       73.289    34369.536     7081.855     5371.245        6.640        2.341      293.246       75.835        0.067      336.677        8.137      861.625
12/06/2021  18:05:00     -313.989      -65.514      -11.412      153.800      111.720       75.048    23654.409    12481.428     5632.144        7.238        2.088      320.751       73.177        0.052      336.693        8.163      861.605
12/06/2021  18:06:00     -369.687       -4.629      -13.844      163.718       89.727       76.951    26803.623     8050.889     5921.444        8.882        2.039      369.716       77.608        0.044      336.675        8.134      861.611
12/06/2021  18:07:00     -359.238       22.394      -16.344      162.162       91.368       65.395    26296.482     8348.022     4276.553        8.436        1.946      359.936       47.702        0.018      336.668        8.123      861.640
12/06/2021  18:08:00     -293.093      -16.750      -34.599      108.421       72.164       58.128    11755.159     5207.657     3378.900        5.386        1.017      293.571       58.199        0.039      336.648        8.089      861.676
12/06/2021  18:09:00     -243.585      -34.171      -20.462      135.817       80.097       65.645    18446.352     6415.512     4309.263        4.504        1.459      245.970       54.640        0.049      336.609        8.024      861.709
12/06/2021  18:10:00     -250.149      -47.336      -21.129      108.237      117.391       56.282    11715.249    13780.665     3167.674        4.696        1.433      254.588       50.261        0.039      336.571        7.961      861.739
12/06/2021  18:11:00     -215.334      -72.382      -17.899       95.115      121.988       75.825     9046.797    14881.185     5749.487        4.080        1.484      227.173       53.502        0.055      336.454        7.764      861.760
12/06/2021  18:12:00     -248.204     -123.096      -36.889       87.207      119.690       60.578     7605.041    14325.706     3669.671        5.185        1.280      277.052       46.718        0.028      336.326        7.548      861.774
12/06/2021  18:13:00     -182.233      -33.136       -5.560      116.399       97.522       68.601    13548.780     9510.554     4706.152        3.105        1.388      185.221       55.736        0.091      336.308        7.519      861.782
12/06/2021  18:14:00     -248.738     -111.586      -24.128      104.272      102.165       63.935    10872.579    10437.724     4087.685        5.015        1.270      272.621       54.448        0.040      336.303        7.512      861.774
12/06/2021  18:15:00     -223.576      -80.181      -15.018       99.323      117.764       58.233     9865.128    13868.380     3391.132        4.188        1.356      237.519       43.260        0.033      336.323        7.544      861.759
12/06/2021  18:16:00     -250.430     -105.091      -28.919       97.779      103.059       50.362     9560.636    10621.165     2536.355        4.865        1.136      271.586       38.933        0.021      336.323        7.544      861.752
12/06/2021  18:17:00     -176.831      -53.827      -27.041       96.714       91.417       48.431     9353.661     8357.047     2345.565        2.747        1.003      184.842       39.636        0.046      336.308        7.522      861.754
12/06/2021  18:18:00     -246.928     -119.073      -17.388       74.214       98.342       51.495     5507.644     9671.178     2651.727        4.664        0.892      274.139       38.626        0.020      336.345        7.580      861.755
12/06/2021  18:19:00     -175.642      -91.644      -13.438       70.216       86.915       60.912     4930.340     7554.133     3710.215        2.781        0.810      198.113       36.693        0.034      336.342        7.575      861.770
12/06/2021  18:20:00     -257.829      -74.966      -27.671       83.562      105.171       53.754     6982.658    11060.891     2889.503        4.689        1.047      268.507       46.998        0.031      336.335        7.564      861.775
12/06/2021  18:21:00     -159.848      -32.818       -9.951       78.277       82.581       46.283     6127.293     6819.583     2142.092        2.091        0.754      163.182       32.793        0.040      336.333        7.562      861.762
12/06/2021  18:22:00     -152.203      -35.585       -7.827       79.016       88.645       50.179     6243.499     7857.937     2517.918        2.055        0.831      156.307       38.975        0.062      336.330        7.557      861.762
12/06/2021  18:23:00     -234.302     -110.666      -31.825       79.345       62.317       44.368     6295.609     3883.424     1968.482        4.015        0.607      259.122       38.826        0.022      336.323        7.543      861.773
12/06/2021  18:24:00     -208.787      -23.078      -20.231       92.321       85.640       53.595     8523.230     7334.285     2872.434        3.163        0.936      210.059       41.007        0.038      336.323        7.544      861.784
12/06/2021  18:25:00     -263.305      -79.320      -32.321       67.183       61.687       44.724     4513.588     3805.307     2000.280        4.349        0.516      274.993       34.787        0.016      336.337        7.567      861.802
12/06/2021  18:26:00     -203.091      -17.524      -23.914       67.485       55.653       39.240     4554.168     3097.228     1539.743        2.566        0.460      203.846       34.508        0.029      336.330        7.559      861.828
12/06/2021  18:27:00     -145.912      -15.414      -27.533       66.633       56.607       30.927     4440.021     3204.341      956.476        1.544        0.430      146.724       21.080        0.021      336.337        7.570      861.868
12/06/2021  18:28:00     -200.753      -62.218      -23.357       97.748       66.184       49.396     9554.588     4380.284     2439.955        3.054        0.819      210.173       50.690        0.058      336.335        7.565      861.896
12/06/2021  18:29:00     -139.355      -35.461      -10.977       59.291       64.450       37.128     3515.468     4153.753     1378.458        1.492        0.452      143.796       22.229        0.024      336.349        7.591      861.929
12/06/2021  18:30:00     -141.580      -30.184      -22.228       72.308       51.447       42.677     5228.405     2646.823     1821.331        1.557        0.485      144.762       34.443        0.057      336.328        7.554      861.942
12/06/2021  18:31:00     -168.014       10.198       -8.774       67.868       62.373       44.529     4606.092     3890.347     1982.809        1.944        0.524      168.323       38.651        0.053      336.299        7.506      861.942
12/06/2021  18:32:00      -67.326      -12.226       -0.981       53.465       46.413       34.999     2858.515     2154.173     1224.949        0.546        0.312       68.427       30.117        0.194      336.296        7.502      861.923
12/06/2021  18:33:00     -136.879       -9.016       -3.512       51.793       50.373       41.007     2682.487     2537.465     1681.548        1.286        0.345      137.176       34.318        0.063      336.292        7.495      861.884
12/06/2021  18:34:00     -100.787      -47.914       -6.661       46.662       70.756       32.359     2177.308     5006.349     1047.085        1.036        0.412      111.597       24.955        0.050      336.295        7.502      861.838
12/06/2021  18:35:00     -158.038        5.644      -10.725       85.396       55.680       38.166     7292.513     3100.308     1456.673        1.848        0.592      158.139       23.980        0.023      336.265        7.447      861.788
12/06/2021  18:36:00     -127.642      -16.569       -6.734       72.387       70.269       37.361     5239.924     4937.737     1395.842        1.409        0.579      128.713       38.615        0.090      336.276        7.468      861.743
12/06/2021  18:37:00     -170.791      -84.811      -25.672       49.603       93.997       44.264     2460.503     8835.350     1959.345        2.514        0.663      190.690       39.761        0.043      336.296        7.501      861.724
12/06/2021  18:38:00     -137.192      -58.191      -20.773       74.272       79.966       49.314     5516.274     6394.558     2431.861        1.849        0.717      149.023       38.506        0.067      336.281        7.475      861.706
12/06/2021  18:39:00     -227.131      -44.329      -27.445       79.954       72.756       45.483     6392.610     5293.466     2068.736        3.403        0.688      231.416       31.813        0.019      336.267        7.451      861.691
12/06/2021  18:40:00     -180.547      -46.820      -26.309       71.951       65.825       42.185     5176.876     4332.962     1779.596        2.338        0.564      186.519       35.546        0.036      336.258        7.436      861.701
12/06/2021  18:41:00     -197.324      -88.982      -19.193       55.564       71.669       42.088     3087.324     5136.406     1771.380        2.861        0.500      216.459       34.723        0.026      336.262        7.442      861.706
12/06/2021  18:42:00     -183.471      -57.431      -24.153       64.185       87.693       43.714     4119.686     7689.975     1910.925        2.563        0.686      192.249       31.088        0.026      336.278        7.469      861.718
12/06/2021  18:43:00     -121.829      -21.141       -3.581       74.510       64.969       56.576     5551.808     4220.949     3200.895        1.414        0.649      123.650       42.572        0.119      336.306        7.517      861.742
12/06/2021  18:44:00     -131.455      -88.905      -11.538       78.955       89.078       43.697     6233.817     7934.976     1909.386        2.070        0.804      158.697       46.293        0.085      336.283        7.478      861.767
12/06/2021  18:45:00     -122.179      -69.737       -7.978       55.100       89.419       44.342     3036.038     7995.765     1966.184        1.642        0.650      140.681       34.302        0.059      336.337        7.571      861.794
12/06/2021  18:46:00      -94.950      -31.121       -2.628       63.524       77.456       43.989     4035.252     5999.496     1934.991        1.098        0.598       99.920       37.796        0.143      336.322        7.545      861.823
12/06/2021  18:47:00     -136.748      -57.722      -10.547       71.359       83.606       41.201     5092.038     6990.006     1697.553        1.796        0.689      148.432       41.902        0.080      336.313        7.529      861.845
12/06/2021  18:48:00     -108.412      -32.327       -5.072       68.339       53.759       34.471     4670.263     2889.991     1188.227        1.078        0.437      113.129       27.449        0.059      336.337        7.571      861.869
12/06/2021  18:49:00     -173.806      -32.375      -13.122       63.819       85.788       43.643     4072.911     7359.564     1904.670        2.238        0.667      176.795       23.688        0.018      336.317        7.536      861.873
12/06/2021  18:50:00     -127.872      -29.306      -17.569       70.173       63.179       34.255     4924.206     3991.597     1173.436        1.380        0.504      131.187       33.907        0.067      336.282        7.479      861.874
12/06/2021  18:51:00     -116.929        4.100        2.787       93.912       51.246       40.961     8819.381     2626.144     1677.840        1.341        0.656      117.001       49.467        0.179      336.295        7.501      861.859
12/06/2021  18:52:00     -148.524      -39.900       -7.371       71.958       72.161       34.178     5177.981     5207.210     1168.110        1.763        0.578      153.790       21.212        0.019      336.276        7.466      861.834
12/06/2021  18:53:00     -141.542      -50.993      -17.962       75.148       61.286       49.191     5647.169     3755.943     2419.749        1.739        0.591      150.447       43.938        0.085      336.277        7.469      861.805
12/06/2021  18:54:00     -120.851      -29.325      -12.655       64.444       48.835       34.516     4152.975     2384.901     1191.349        1.168        0.386      124.358       24.411        0.039      336.291        7.493      861.779
12/06/2021  18:55:00     -135.258      -21.371      -18.534       93.706       69.957       44.499     8780.779     4893.915     1980.154        1.737        0.783      136.936       24.134        0.031      336.298        7.504      861.766
12/06/2021  18:56:00     -110.287      -13.050        3.028       56.616       50.047       36.997     3205.397     2504.673     1368.763        0.971        0.354      111.056       29.492        0.071      336.309        7.524      861.771
12/06/2021  18:57:00     -183.597      -45.963      -21.563       77.983       73.722       44.830     6081.276     5434.866     2009.720        2.490        0.676      189.263       44.125        0.054      336.317        7.534      861.772
12/06/2021  18:58:00     -172.577      -47.847      -21.332       95.223       65.833       44.196     9067.355     4333.927     1953.270        2.394        0.768      179.087       35.582        0.039      336.281        7.476      861.761
12/06/2021  18:59:00     -188.523     -130.746      -26.598       65.893       53.603       34.635     4341.897     2873.298     1199.560        3.088        0.421      229.424       34.724        0.023      336.317        7.534      861.736
12/06/2021  19:00:00     -114.024      -50.499      -17.594       44.470       65.895       33.624     1977.582     4342.194     1130.567        1.165        0.373      124.707       29.889        0.057      336.341        7.577      861.709
12/06/2021  19:01:00     -116.421      -28.239      -13.246       58.283       57.383       39.235     3396.930     3292.755     1539.406        1.138        0.411      119.797       28.699        0.057      336.307        7.522      861.688
12/06/2021  19:02:00      -72.198      -10.971        0.910       68.294       37.704       36.604     4664.122     1421.597     1339.856        0.638        0.371       73.027       35.095        0.231      336.338        7.572      861.655
12/06/2021  19:03:00      -65.690      -22.609       -5.517       68.812       46.602       36.306     4735.032     2171.760     1318.105        0.654        0.411       69.472       27.046        0.152      336.331        7.560      861.638
12/06/2021  19:04:00     -124.691      -67.890      -11.148       78.604       88.671       40.385     6178.561     7862.488     1630.963        1.797        0.784      141.975       26.361        0.034      336.352        7.595      861.602
12/06/2021  19:05:00      -70.079      -19.308      -16.024       58.228       35.964       37.809     3390.505     1293.388     1429.493        0.583        0.306       72.691       33.995        0.219      336.323        7.548      861.579
12/06/2021  19:06:00      -47.891       -7.936      -16.181       65.820       24.719       31.464     4332.238      611.050      989.987        0.427        0.297       48.544       28.468        0.344      336.315        7.535      861.587
12/06/2021  19:07:00     -133.826      -10.625       -8.674       46.732       47.463       34.945     2183.909     2252.711     1221.145        1.188        0.283      134.247       26.424        0.039      336.313        7.531      861.593
12/06/2021  19:08:00     -146.661      -13.253       -5.271       82.681       53.465       35.596     6836.119     2858.476     1267.060        1.634        0.548      147.258       33.394        0.051      336.241        7.408      861.594
12/06/2021  19:09:00      -45.905       -3.879        2.238       51.629       44.573       38.314     2665.579     1986.785     1467.995        0.412        0.306       46.068       19.965        0.188      336.223        7.382      861.590
12/06/2021  19:10:00      -99.851      -34.422      -13.791       53.901       65.186       30.904     2905.353     4249.247      955.064        0.973        0.405      105.618       28.348        0.072      336.201        7.344      861.570
12/06/2021  19:11:00      -94.584       -8.133        2.578       69.350       48.640       36.516     4809.446     2365.803     1333.390        0.876        0.425       94.933       36.738        0.150      336.213        7.365      861.549
12/06/2021  19:12:00     -137.963      -52.368      -21.150       55.398       65.662       31.887     3068.919     4311.509     1016.805        1.531        0.420      147.567       16.114        0.012      336.230        7.390      861.522
12/06/2021  19:13:00     -165.198     -115.767      -21.224       44.341       71.289       35.084     1966.146     5082.173     1230.897        2.471        0.414      201.724       30.672        0.023      336.253        7.428      861.492
12/06/2021  19:14:00     -125.489      -49.318      -16.342       69.381       79.788       35.607     4813.667     6366.119     1267.875        1.544        0.622      134.832       28.343        0.044      336.222        7.378      861.478
12/06/2021  19:15:00     -164.031      -61.879      -16.268       75.960       68.509       35.604     5769.860     4693.533     1267.634        2.136        0.587      175.315       25.082        0.020      336.242        7.411      861.471
12/06/2021  19:16:00     -129.260      -46.230      -21.186       69.162       74.383       39.855     4783.409     5532.773     1588.413        1.560        0.595      137.279       19.268        0.020      336.250        7.425      861.462
12/06/2021  19:17:00     -101.882       -3.268       -3.565       45.877       45.378       27.023     2104.732     2059.142      730.262        0.765        0.245      101.935       21.315        0.044      336.247        7.420      861.453
12/06/2021  19:18:00      -77.919      -35.037      -15.557       46.524       48.529       32.912     2164.480     2355.055     1083.176        0.657        0.280       85.434       22.724        0.071      336.281        7.476      861.442
12/06/2021  19:19:00     -133.199      -45.797      -18.986       59.185       60.147       34.401     3502.874     3617.712     1183.454        1.425        0.415      140.852       23.462        0.028      336.263        7.447      861.429
12/06/2021  19:20:00      -73.453      -22.527       -3.898       67.778       54.301       36.541     4593.830     2948.589     1335.233        0.740        0.444       76.830       31.470        0.168      336.223        7.379      861.414
12/06/2021  19:21:00      -79.315      -12.980        2.630       85.979       45.135       39.532     7392.344     2037.136     1562.757        0.873        0.550       80.370       40.615        0.255      336.225        7.382      861.401
12/06/2021  19:22:00      -92.209      -17.275      -14.877       67.754       46.391       34.964     4590.664     2152.149     1222.485        0.849        0.398       93.814       26.837        0.082      336.166        7.285      861.389
12/06/2021  19:23:00      -33.484        0.008        0.837       36.663       24.890       19.165     1344.168      619.520      367.305        0.173        0.117       33.484       20.226        0.365      336.225        7.381      861.374
12/06/2021  19:24:00      -31.830       -2.373       13.826       45.176       35.650       25.892     2040.893     1270.919      670.403        0.260        0.199       31.918       16.439        0.265      336.251        7.428      861.346
12/06/2021  19:25:00      -62.927      -12.580       -6.515       54.053       29.460       29.006     2921.750      867.882      841.322        0.439        0.232       64.173       20.221        0.099      336.246        7.419      861.322
12/06/2021  19:26:00     -108.985       -5.258       -6.412       49.068       35.032       27.038     2407.709     1227.218      731.063        0.816        0.218      109.112       29.279        0.072      336.186        7.317      861.308
12/06/2021  19:27:00     -140.972        3.512       -2.462       64.092       35.753       28.185     4107.765     1278.266      794.368        1.303        0.309      141.016       26.432        0.035      336.168        7.287      861.286
12/06/2021  19:28:00     -152.426      -41.728      -18.900       70.616       62.429       41.491     4986.617     3897.356     1721.540        1.797        0.530      158.034       41.270        0.068      336.150        7.257      861.261
12/06/2021  19:29:00     -139.397      -11.858      -14.223       50.780       48.582       32.655     2578.612     2360.176     1066.345        1.289        0.300      139.900       26.390        0.036      336.108        7.186      861.239
12/06/2021  19:30:00     -155.452      -75.989      -30.057       51.782       82.057       32.592     2681.403     6733.387     1062.244        2.066        0.524      173.031       28.079        0.026      336.121        7.207      861.211
12/06/2021  19:31:00      -83.199      -60.314      -20.293       68.644       68.995       32.974     4712.054     4760.326     1087.252        1.076        0.528      102.761       38.279        0.139      336.217        7.368      861.199
12/06/2021  19:32:00     -106.742      -43.044      -13.111       69.646       62.511       39.220     4850.499     3907.631     1538.191        1.186        0.515      115.094       32.710        0.081      336.237        7.402      861.209
12/06/2021  19:33:00     -147.709      -77.118      -27.678       62.209       67.581       36.218     3869.982     4567.156     1311.757        1.914        0.487      166.629       30.870        0.034      336.191        7.324      861.233
12/06/2021  19:34:00     -132.799      -61.687      -27.532       66.842       79.074       34.627     4467.919     6252.684     1199.058        1.706        0.596      146.427       32.386        0.049      336.242        7.411      861.250
12/06/2021  19:35:00     -134.949      -54.240      -13.360       47.176       84.949       34.925     2225.535     7216.410     1219.762        1.599        0.533      145.442       22.249        0.023      336.237        7.402      861.259
12/06/2021  19:36:00     -113.333       -9.388      -12.193       70.857       72.864       41.413     5020.758     5309.213     1715.025        1.256        0.602      113.721       32.539        0.082      336.213        7.362      861.263
12/06/2021  19:37:00     -146.436      -22.372      -19.236       51.821       54.313       30.601     2685.460     2949.938      936.425        1.444        0.329      148.135       11.043        0.006      336.214        7.362      861.263
12/06/2021  19:38:00     -102.439       -2.250      -11.735       59.812       57.074       36.240     3577.465     3257.466     1313.328        0.939        0.407      102.464       25.173        0.060      336.215        7.365      861.269
12/06/2021  19:39:00     -203.396      -22.975      -20.328       55.262       48.032       38.750     3053.905     2307.118     1501.540        2.459        0.343      204.690       25.532        0.016      336.232        7.392      861.275
12/06/2021  19:40:00     -161.566      -48.429      -12.857       59.351       84.232       31.370     3522.535     7094.971      984.092        2.011        0.580      168.668       19.879        0.014      336.223        7.377      861.267
12/06/2021  19:41:00     -211.597     -148.340      -25.332       49.487       63.084       31.015     2448.978     3979.581      961.915        3.740        0.370      258.414       22.773        0.008      336.277        7.468      861.249
12/06/2021  19:42:00     -161.714      -94.212      -25.660       72.023       70.657       38.850     5187.339     4992.451     1509.298        2.369        0.584      187.156       32.940        0.031      336.348        7.590      861.236
12/06/2021  19:43:00      -82.087      -22.880       -3.089       79.135       61.525       48.962     6262.361     3785.349     2397.282        0.986        0.622       85.216       43.980        0.266      336.343        7.581      861.215
12/06/2021  19:44:00      -89.714      -57.993       -9.011       76.406       71.484       42.568     5837.924     5110.013     1812.003        1.212        0.638      106.826       34.991        0.107      336.302        7.510      861.182
12/06/2021  19:45:00      -53.073      -29.829        6.292       65.562       51.967       35.457     4298.389     2700.614     1257.190        0.600        0.413       60.881       19.899        0.107      336.324        7.550      861.147
12/06/2021  19:46:00      -41.032      -23.489       -5.702       48.614       37.867       31.821     2363.304     1433.884     1012.575        0.354        0.240       47.280       16.046        0.115      336.351        7.595      861.108
12/06/2021  19:47:00      -31.054      -20.747       -8.993       49.709       36.626       30.717     2471.017     1341.494      943.515        0.311        0.238       37.347       17.471        0.219      336.393        7.664      861.069
12/06/2021  19:48:00      -44.713      -76.774      -26.104       59.526       33.155       34.734     3543.344     1099.271     1206.457        0.721        0.292       88.846       10.862        0.015      336.435        7.734      861.054
12/06/2021  19:49:00      -36.725      -64.388      -22.936       63.269       49.839       42.258     4003.020     2483.938     1785.740        0.715        0.414       74.125       22.711        0.094      336.426        7.720      861.066
12/06/2021  19:50:00      -49.178        1.113       -8.366       39.562       24.335       18.180     1565.117      592.197      330.507        0.249        0.124       49.190        6.007        0.015      336.334        7.566      861.100
12/06/2021  19:51:00      -47.723        4.707      -14.474       30.103       43.689       23.866      906.217     1908.719      569.584        0.295        0.169       47.954       10.931        0.052      336.357        7.604      861.113
12/06/2021  19:52:00      -75.374        0.219       -4.929       42.676       35.354       22.493     1821.202     1249.935      505.941        0.464        0.179       75.374       13.502        0.032      336.368        7.625      861.124
12/06/2021  19:53:00      -43.865      -12.835      -16.922       37.083       27.200       22.868     1375.124      739.855      522.933        0.251        0.132       45.704       19.958        0.191      336.383        7.648      861.141
12/06/2021  19:54:00      -67.472      -34.278       -9.777       55.327       48.298       25.602     3061.051     2332.699      655.455        0.594        0.302       75.680       19.306        0.065      336.423        7.714      861.130
12/06/2021  19:55:00      -80.747        0.882       -4.890       45.574       34.095       26.935     2077.000     1162.503      725.476        0.525        0.198       80.752       23.772        0.087      336.375        7.636      861.113
12/06/2021  19:56:00      -38.690      -30.030      -19.172       27.929       29.451       24.219      780.019      867.340      586.584        0.250        0.112       48.977        5.087        0.011      336.445        7.751      861.099
12/06/2021  19:57:00      -22.202      -49.785      -35.481       34.758       28.349       21.279     1208.096      803.689      452.795        0.335        0.123       54.511       10.628        0.038      336.475        7.803      861.095
12/06/2021  19:58:00      -75.353      -33.528      -19.584       36.983       29.810       24.356     1367.722      888.649      593.194        0.502        0.142       82.476        9.552        0.013      336.463        7.781      861.081
12/06/2021  19:59:00       -5.958      -21.105      -21.094       35.305       39.211       27.405     1246.427     1537.512      751.030        0.223        0.177       21.930       24.696        1.268      336.486        7.818      861.092
12/06/2021  20:00:00      -31.921      -19.561      -12.029       26.950       19.235       21.434      726.317      369.978      459.417        0.155        0.078       37.438       13.217        0.125      336.476        7.803      861.124
12/06/2021  20:01:00      -57.075      -71.461      -23.582       45.404       59.609       32.605     2061.479     3553.201     1063.116        0.780        0.334       91.456       29.461        0.104      336.568        7.959      861.159
12/06/2021  20:02:00      -67.233      -23.627      -14.767       44.972       44.045       29.137     2022.503     1939.934      848.965        0.505        0.241       71.264       23.144        0.105      336.524        7.884      861.183
12/06/2021  20:03:00      -71.344      -13.893       -2.354       57.426       32.453       29.515     3297.717     1053.183      871.158        0.525        0.261       72.684       30.580        0.177      336.489        7.824      861.196
12/06/2021  20:04:00     -110.136      -16.586       -0.615       74.070       42.998       31.835     5486.373     1848.808     1013.484        1.038        0.417      111.378       36.882        0.110      336.469        7.791      861.200
12/06/2021  20:05:00      -97.697       -2.673        1.353       62.049       45.059       33.304     3850.037     2030.356     1109.135        0.827        0.349       97.733       25.344        0.067      336.479        7.806      861.204
12/06/2021  20:06:00      -83.647      -54.095      -14.117       45.666       56.123       29.320     2085.398     3149.828      859.654        0.811        0.305       99.615       24.055        0.058      336.480        7.810      861.209
12/06/2021  20:07:00     -135.875      -28.414      -13.244       98.214       48.073       41.418     9645.957     2311.016     1715.431        1.656        0.684      138.814       37.776        0.074      336.443        7.747      861.210
12/06/2021  20:08:00     -181.620      -25.479      -21.350       58.132       52.628       38.913     3379.382     2769.669     1514.223        2.088        0.383      183.399       32.541        0.031      336.446        7.750      861.221
12/06/2021  20:09:00     -121.339        7.518       -8.294       63.928       60.558       44.400     4086.730     3667.290     1971.325        1.229        0.486      121.571       34.810        0.082      336.474        7.800      861.236
12/06/2021  20:10:00     -178.165      -12.318      -25.084       77.387       61.072       37.218     5988.804     3729.730     1385.143        2.181        0.555      178.591       29.820        0.028      336.454        7.763      861.254
12/06/2021  20:11:00     -221.707      -81.288      -26.388       84.827       54.213       44.997     7195.596     2939.053     2024.752        3.431        0.608      236.139       39.757        0.028      336.563        7.947      861.274
12/06/2021  20:12:00     -133.448        2.643       -7.751      124.337       68.925       47.120    15459.585     4750.634     2220.267        2.015        1.122      133.474       48.630        0.133      336.527        7.889      861.290
12/06/2021  20:13:00     -222.185      -11.945      -10.564       74.553       69.319       41.185     5558.212     4805.106     1696.207        3.084        0.603      222.506       35.471        0.025      336.674        8.131      861.309
12/06/2021  20:14:00     -165.000      -18.759      -12.751       72.914       78.608       45.277     5316.511     6179.193     2050.027        2.064        0.677      166.063       37.672        0.051      336.609        8.025      861.311
12/06/2021  20:15:00     -213.561       11.356      -11.092       79.914       54.561       48.268     6386.237     2976.892     2329.778        2.877        0.585      213.863       42.461        0.039      336.563        7.948      861.324
12/06/2021  20:16:00     -173.290      -18.898      -13.024       77.938       42.629       44.922     6074.373     1817.204     2017.980        2.023        0.495      174.318       36.289        0.043      336.569        7.958      861.336
12/06/2021  20:17:00     -109.599        5.981        1.912      106.195       51.098       43.774    11277.468     2610.983     1916.172        1.393        0.790      109.762       53.576        0.238      336.591        7.996      861.354
12/06/2021  20:18:00      -50.540       -3.929       -1.409       72.845       49.211       37.484     5306.444     2421.679     1405.035        0.585        0.457       50.693       31.862        0.395      336.592        7.998      861.378
12/06/2021  20:19:00     -141.150      -21.347       -5.316       81.199       44.717       42.741     6593.348     1999.608     1826.796        1.541        0.521      142.755       43.270        0.092      336.605        8.020      861.392
12/06/2021  20:20:00     -178.781       -5.408       -0.667       64.668       53.737       39.468     4181.906     2887.702     1557.760        2.031        0.431      178.863       36.897        0.043      336.599        8.009      861.393
12/06/2021  20:21:00     -169.392      -13.335      -21.436       37.840       27.267       26.985     1431.887      743.505      728.190        1.612        0.145      169.916       13.499        0.006      336.614        8.036      861.395
12/06/2021  20:22:00     -146.422      -28.176      -19.452       61.008       43.326       27.158     3722.014     1877.152      737.543        1.447        0.317      149.108       25.986        0.030      336.628        8.059      861.384
12/06/2021  20:23:00     -122.204      -26.010      -21.186       48.802       48.255       27.529     2381.672     2328.591      757.848        1.076        0.273      124.941       28.403        0.052      336.644        8.085      861.368
12/06/2021  20:24:00      -92.435      -52.028      -22.138       49.636       55.195       30.741     2463.774     3046.542      945.029        0.910        0.323      106.072       24.785        0.055      336.660        8.112      861.339
12/06/2021  20:25:00      -97.592      -54.186      -14.325       89.090       37.245       33.107     7936.955     1387.166     1096.093        1.154        0.521      111.626       29.416        0.069      336.673        8.135      861.318
12/06/2021  20:26:00     -129.677      -56.241      -19.580       39.690       48.124       28.980     1575.307     2315.916      839.850        1.255        0.237      141.348       20.718        0.021      336.677        8.143      861.297
12/06/2021  20:27:00     -129.627      -53.963      -11.809       72.599       57.927       29.637     5270.602     3355.574      878.381        1.468        0.475      140.410       31.288        0.050      336.713        8.197      861.271
12/06/2021  20:28:00     -184.131      -23.610      -29.702       61.616       43.224       35.738     3796.494     1868.352     1277.230        2.114        0.347      185.639       25.453        0.019      336.707        8.187      861.261
12/06/2021  20:29:00     -155.860      -15.738       -6.138       67.633       46.600       42.659     4574.169     2171.589     1819.800        1.657        0.428      156.652       24.828        0.025      336.712        8.198      861.252
12/06/2021  20:30:00     -101.176      -59.160      -17.519       36.084       40.653       29.708     1302.036     1652.686      882.573        0.894        0.192      117.203       21.005        0.032      336.721        8.214      861.255
12/06/2021  20:31:00     -129.129      -51.611      -17.736       43.107       63.029       25.721     1858.190     3972.631      661.582        1.307        0.325      139.061       19.213        0.019      336.710        8.194      861.269
12/06/2021  20:32:00     -142.001      -19.889      -16.503       64.230       52.348       37.312     4125.495     2740.340     1392.193        1.454        0.413      143.387       39.812        0.077      336.686        8.156      861.276
12/06/2021  20:33:00     -115.758       -8.175        0.035       56.770       51.406       40.478     3222.802     2642.538     1638.454        1.048        0.375      116.046       29.673        0.065      336.732        8.230      861.280
12/06/2021  20:34:00     -134.016      -51.947      -16.794       33.066       59.056       24.803     1093.372     3487.624      615.180        1.307        0.260      143.731       14.340        0.010      336.698        8.174      861.287
12/06/2021  20:35:00     -216.093      -60.911      -30.296       52.935       60.180       35.351     2802.143     3621.598     1249.698        2.950        0.384      224.513       19.642        0.008      336.674        8.131      861.282
12/06/2021  20:36:00     -140.588       -2.184       -8.458       83.412       41.881       34.915     6957.617     1754.042     1219.030        1.488        0.497      140.605       31.648        0.051      336.690        8.160      861.275
12/06/2021  20:37:00     -113.014      -61.853      -15.903       65.882       87.215       35.674     4340.411     7606.450     1272.623        1.503        0.661      128.833       17.412        0.018      336.675        8.136      861.269
12/06/2021  20:38:00     -115.854       -9.543       -3.785       80.714       53.610       36.812     6514.814     2873.986     1355.120        1.213        0.537      116.246       33.474        0.083      336.645        8.087      861.265
12/06/2021  20:39:00     -127.181      -77.376      -16.830       48.285       69.870       30.039     2331.446     4881.824      902.356        1.528        0.406      148.870       22.913        0.024      336.632        8.065      861.264
12/06/2021  20:40:00      -75.758      -33.277       -3.236       30.033       63.384       25.102      901.996     4017.473      630.134        0.620        0.277       82.744       17.292        0.044      336.618        8.041      861.267
12/06/2021  20:41:00     -114.055      -51.741      -22.813       67.818       73.845       32.636     4599.324     5453.088     1065.122        1.366        0.556      125.242       16.967        0.018      336.605        8.020      861.267
12/06/2021  20:42:00     -121.843      -48.127      -13.032       57.502       59.796       35.136     3306.439     3575.517     1234.513        1.272        0.406      131.004       28.490        0.047      336.597        8.007      861.265
12/06/2021  20:43:00     -130.459      -81.550      -24.937       34.003       59.183       26.638     1156.185     3502.610      709.577        1.483        0.268      153.850       10.608        0.005      336.622        8.048      861.270
12/06/2021  20:44:00      -97.229      -54.890      -14.511       32.952       41.583       25.531     1085.861     1729.113      651.835        0.807        0.173      111.653        6.835        0.004      336.598        8.010      861.278
12/06/2021  20:45:00     -115.785      -50.746       -5.071       41.271       73.873       23.622     1703.286     5457.157      557.977        1.186        0.386      126.417       24.495        0.038      336.562        7.948      861.265
12/06/2021  20:46:00      -49.885      -29.496       -9.217       44.449       47.225       21.486     1975.733     2230.166      461.651        0.405        0.233       57.953       20.894        0.130      336.551        7.929      861.263
12/06/2021  20:47:00      -37.580      -18.137      -28.286       31.571       26.028       17.391      996.712      677.435      302.438        0.226        0.099       41.727        8.409        0.041      336.564        7.952      861.263
12/06/2021  20:48:00      -11.515      -43.317       -7.928       32.510       42.410       25.474     1056.926     1798.603      648.924        0.279        0.175       44.822       21.063        0.221      336.613        8.033      861.262
12/06/2021  20:49:00       -8.651      -39.449      -22.680       41.425       37.600       28.631     1716.030     1413.762      819.741        0.305        0.197       40.387       22.804        0.319      336.558        7.941      861.261
12/06/2021  20:50:00      -28.669       -3.380       -0.207       20.546       29.626       13.992      422.133      877.706      195.789        0.116        0.075       28.868        5.546        0.037      336.533        7.900      861.273
12/06/2021  20:51:00       25.819       42.606      -11.070       15.115       18.729       12.512      228.454      350.792      156.561        0.167        0.037       49.819       10.019        0.040      336.223        7.381      861.280
12/06/2021  20:52:00       19.512        7.765      -10.893       15.462       12.583        8.388      239.078      158.335       70.365        0.051        0.023       21.000        4.920        0.055      336.112        7.194      861.268
12/06/2021  20:53:00       18.367       -8.083       -3.073       33.592       34.186       19.533     1128.392     1168.666      381.551        0.154        0.134       20.067       16.385        0.667      336.324        7.550      861.265
12/06/2021  20:54:00       10.179      -28.028      -17.763       50.784       35.625       27.942     2579.042     1269.141      780.754        0.292        0.231       29.819       27.777        0.868      336.325        7.550      861.261
12/06/2021  20:55:00       47.883     -111.526      -24.325       87.107       96.690       54.305     7587.606     9348.944     2948.997        1.760        0.994      121.371       61.394        0.256      336.315        7.533      861.251
12/06/2021  20:56:00       91.774     -158.401      -35.368       62.378       50.371       39.590     3890.965     2537.214     1567.363        2.138        0.400      183.066       31.466        0.030      336.192        7.326      861.243
12/06/2021  20:57:00       85.108     -113.811      -33.806       59.478       83.272       39.707     3537.630     6934.200     1576.664        1.669        0.602      142.114       43.149        0.092      336.210        7.356      861.223
12/06/2021  20:58:00       47.178     -143.358       -5.452       44.105       72.098       41.262     1945.276     5198.126     1702.529        1.582        0.442      150.922       40.373        0.072      336.104        7.182      861.203
12/06/2021  20:59:00       85.686     -196.701      -38.171       33.308       26.717       22.390     1109.454      713.782      501.314        2.491        0.116      214.554       16.494        0.006      335.979        6.973      861.191
12/06/2021  21:00:00       93.163     -187.167      -36.511       31.263       28.390       20.025      977.348      806.008      400.984        2.361        0.109      209.072       16.010        0.006      335.969        6.956      861.184
12/06/2021  21:01:00       88.905     -148.339      -39.982       31.124       38.606       22.858      968.695     1490.406      522.478        1.724        0.149      172.941       14.228        0.007      336.007        7.019      861.176
12/06/2021  21:02:00       67.971     -116.943      -25.456       33.735       36.524       24.141     1138.076     1334.011      582.774        1.100        0.153      135.262       21.682        0.026      336.105        7.183      861.172
12/06/2021  21:03:00       67.907     -110.831      -24.369       26.790       32.155       23.816      717.723     1033.929      567.217        0.990        0.116      129.980       20.661        0.025      336.094        7.163      861.162
12/06/2021  21:04:00       26.876      -66.119      -13.768       36.212       37.627       26.470     1311.279     1415.821      700.662        0.436        0.171       71.372       17.715        0.062      336.136        7.234      861.141
12/06/2021  21:05:00      -14.329       -2.434       -2.658       24.271       22.924       14.553      589.083      525.500      211.779        0.077        0.066       14.535        7.884        0.294      336.207        7.353      861.125
12/06/2021  21:06:00      -14.719        3.252       -3.662       21.474       19.033       20.031      461.126      362.250      401.255        0.073        0.061       15.074       11.444        0.576      336.181        7.308      861.111
12/06/2021  21:07:00      -44.907      -18.466       -6.932       36.203       30.456       27.992     1310.682      927.559      783.556        0.271        0.151       48.555       23.962        0.244      336.171        7.293      861.100
12/06/2021  21:08:00      -94.297      -29.479      -17.401       28.959       37.381       20.267      838.615     1397.346      410.758        0.635        0.132       98.797        9.172        0.009      336.103        7.178      861.090
12/06/2021  21:09:00      -59.497      -16.719       -3.009       34.960       30.394       17.570     1222.235      923.767      308.705        0.314        0.123       61.802       17.775        0.083      336.185        7.317      861.079
12/06/2021  21:10:00      -37.878       11.281       -8.636       18.472       23.369       10.170      341.226      546.126      103.436        0.131        0.050       39.522        5.471        0.019      336.133        7.231      861.072
12/06/2021  21:11:00      -24.169      -18.414       -4.637       20.507       12.097       15.252      420.527      146.338      232.616        0.087        0.040       30.384        9.068        0.089      336.170        7.289      861.073
12/06/2021  21:12:00      -23.308        6.142      -10.153       14.877       12.285        9.280      221.312      150.924       86.123        0.057        0.023       24.104        8.116        0.113      336.076        7.132      861.079
12/06/2021  21:13:00       -0.892        0.183        0.333       10.590        8.148        6.721      112.140       66.394       45.178        0.011        0.011        0.911        6.625       52.867      336.089        7.156      861.083
12/06/2021  21:14:00      -15.789       23.912       -4.399       18.477       12.570        9.562      341.386      158.016       91.440        0.072        0.030       28.655        6.464        0.051      336.093        7.163      861.092
12/06/2021  21:15:00      -26.451        9.055       -5.408       12.705       16.230        9.569      161.423      263.410       91.561        0.066        0.026       27.958       11.091        0.157      336.075        7.132      861.104
12/06/2021  21:16:00      -14.950       -2.828      -19.929       12.946       13.133       10.969      167.599      172.487      120.321        0.054        0.023       15.215        5.939        0.152      336.124        7.214      861.110
12/06/2021  21:17:00        5.694        6.478      -11.279       24.678       21.971       14.135      608.998      482.726      199.787        0.075        0.065        8.624       12.984        2.267      336.106        7.184      861.122
12/06/2021  21:18:00       45.464       57.767        5.465       28.679       28.469       20.426      822.513      810.464      417.209        0.374        0.103       73.512       17.637        0.058      336.001        7.010      861.126
12/06/2021  21:19:00       85.370       29.150      -20.692       43.013       46.072       25.845     1850.150     2122.627      667.960        0.660        0.232       90.210       13.276        0.022      335.901        6.843      861.128
12/06/2021  21:20:00       81.137       46.072      -17.931       43.226       45.200       26.188     1868.493     2043.077      685.791        0.681        0.230       93.305       15.568        0.028      335.840        6.741      861.129
12/06/2021  21:21:00      140.966       35.457      -30.071       42.486       39.989       26.564     1805.061     1599.136      705.633        1.307        0.205      145.357        9.014        0.004      335.874        6.800      861.123
12/06/2021  21:22:00       62.911       38.533      -15.268       54.547       38.238       28.614     2975.345     1462.146      818.777        0.546        0.263       73.774       24.969        0.115      335.851        6.760      861.130
12/06/2021  21:23:00       52.178       37.090      -15.755       33.474       40.268       29.805     1120.524     1621.523      888.351        0.399        0.182       64.018       22.993        0.129      335.877        6.803      861.131
12/06/2021  21:24:00       57.731       25.703      -21.850       40.378       52.050       29.633     1630.358     2709.212      878.110        0.484        0.261       63.194       16.768        0.070      335.894        6.834      861.135
12/06/2021  21:25:00       23.602       28.738      -10.378       52.660       47.871       29.771     2773.116     2291.638      886.330        0.372        0.298       37.188       24.923        0.449      335.901        6.846      861.128
12/06/2021  21:26:00       40.086       61.236       18.137       45.749       42.693       27.543     2092.958     1822.691      758.624        0.518        0.234       73.189       20.183        0.076      335.897        6.838      861.122
12/06/2021  21:27:00       51.914       49.109        5.270       34.927       33.301       19.736     1219.904     1108.973      389.511        0.393        0.136       71.461       16.055        0.050      335.862        6.777      861.124
12/06/2021  21:28:00       57.785       29.509       -6.374       22.960       33.861       29.662      527.144     1146.573      879.815        0.340        0.128       64.884       18.497        0.081      335.917        6.870      861.132
12/06/2021  21:29:00       46.873       19.777       -9.532       23.239       18.097       11.409      540.068      327.509      130.161        0.184        0.050       50.874        9.172        0.033      335.863        6.778      861.147
12/06/2021  21:30:00       27.874       21.023       -6.280       13.841        9.092        7.250      191.585       82.668       52.569        0.079        0.016       34.913        3.496        0.010      335.839        6.739      861.164
12/06/2021  21:31:00       29.193       13.847      -10.375       11.155       15.573       14.797      124.441      242.533      218.945        0.087        0.029       32.311       11.357        0.124      335.829        6.723      861.171
12/06/2021  21:32:00       43.444       32.143      -11.933       17.105       21.064       13.531      292.576      443.708      183.094        0.199        0.046       54.042       13.253        0.060      335.847        6.753      861.185
12/06/2021  21:33:00       78.520       56.185      -17.295       21.325       10.057       12.070      454.761      101.135      145.683        0.516        0.035       96.551       11.388        0.014      335.814        6.701      861.199
12/06/2021  21:34:00       94.322       24.799      -17.770       23.270       22.331       15.983      541.479      498.690      255.451        0.556        0.065       97.528       11.648        0.014      335.873        6.799      861.215
12/06/2021  21:35:00      136.644       23.791      -22.504       25.007       18.629       15.278      625.356      347.048      233.427        1.047        0.060      138.699        7.222        0.003      335.828        6.722      861.223
12/06/2021  21:36:00       84.653       10.049      -14.747       44.574       30.048       25.120     1986.885      902.869      631.030        0.550        0.176       85.248       18.016        0.045      335.875        6.801      861.228
12/06/2021  21:37:00       27.633        3.939       -8.001       31.990       30.070       23.052     1023.364      904.178      531.400        0.165        0.123       27.912        9.347        0.112      335.899        6.841      861.241
12/06/2021  21:38:00       21.695      -17.847       -5.025       30.041       40.454       17.892      902.450     1636.563      320.132        0.184        0.143       28.092       13.591        0.234      335.889        6.823      861.255
12/06/2021  21:39:00       28.522      -57.329      -19.377       25.020       37.918       29.412      625.995     1437.780      865.074        0.370        0.146       64.032       16.785        0.069      335.896        6.836      861.265
12/06/2021  21:40:00       57.944      -13.109      -10.066       35.005       29.795       21.691     1225.379      887.730      470.493        0.311        0.129       59.408       17.939        0.091      335.831        6.728      861.264
12/06/2021  21:41:00       23.748      -27.072      -15.953       28.030       35.548       25.288      785.657     1263.651      639.499        0.212        0.134       36.012       21.565        0.359      335.798        6.670      861.269
12/06/2021  21:42:00       21.293        1.500      -19.400       17.791       28.424       15.527      316.531      807.916      241.092        0.110        0.068       21.345        5.523        0.067      335.867        6.786      861.281
12/06/2021  21:43:00        0.877        9.148        0.299       14.811       16.779       13.338      219.374      281.525      177.913        0.038        0.034        9.189        9.021        0.964      335.926        6.884      861.288
12/06/2021  21:44:00       74.333       42.082      -13.010       30.400       21.800       17.671      924.172      475.228      312.249        0.459        0.086       85.418       15.709        0.034      335.767        6.617      861.303
12/06/2021  21:45:00       89.648       31.427      -13.723       23.969       17.867       12.668      574.528      319.212      160.469        0.513        0.053       94.997        9.117        0.009      335.742        6.577      861.319
12/06/2021  21:46:00       78.913       23.986      -11.955       18.558       17.075       10.803      344.402      291.539      116.703        0.385        0.038       82.478        7.926        0.009      335.756        6.601      861.330
12/06/2021  21:47:00      119.343       34.579       -7.703       21.477       14.850       12.548      461.270      220.516      157.452        0.817        0.042      124.252        7.370        0.004      335.741        6.577      861.327
12/06/2021  21:48:00       93.669       20.185      -15.573       38.483       21.424       14.881     1480.926      458.980      221.440        0.579        0.108       95.819       14.543        0.023      335.806        6.687      861.333
12/06/2021  21:49:00      105.659       15.775      -13.314       31.835       24.365       12.852     1013.469      593.656      165.164        0.668        0.089      106.831        8.801        0.007      335.781        6.644      861.336
12/06/2021  21:50:00       66.152        7.153      -15.854       34.023       23.451       18.191     1157.552      549.957      330.914        0.336        0.102       66.538       15.582        0.055      335.792        6.662      861.330
12/06/2021  21:51:00       39.521        7.474       -8.488       27.439       19.826       14.714      752.897      393.079      216.501        0.153        0.068       40.221        7.511        0.035      335.815        6.699      861.325
12/06/2021  21:52:00       74.339        7.726       -8.583       53.655       24.956       19.735     2878.843      622.786      389.488        0.477        0.195       74.739       22.396        0.090      335.784        6.649      861.322
12/06/2021  21:53:00      111.781       18.660       -8.527       34.054       23.055       11.711     1159.707      531.538      137.154        0.737        0.091      113.328        9.053        0.006      335.722        6.542      861.314
12/06/2021  21:54:00      100.306       32.449      -18.273       30.475       27.896       17.634      928.752      778.208      310.966        0.673        0.101      105.424       10.465        0.010      335.754        6.596      861.310
12/06/2021  21:55:00      106.784       51.038      -16.227       37.321       28.317       24.300     1392.844      801.846      590.510        0.853        0.139      118.354       17.199        0.021      335.810        6.691      861.313
12/06/2021  21:56:00       92.577       42.325      -21.573       28.722       30.612       21.493      824.950      937.066      461.958        0.653        0.111      101.794       18.383        0.033      335.793        6.660      861.323
12/06/2021  21:57:00       81.939       38.673       -3.190       27.683       17.737       16.445      766.330      314.602      270.439        0.479        0.068       90.606       14.383        0.025      335.712        6.525      861.330
12/06/2021  21:58:00       74.577       41.148       -3.954       32.080       22.701       18.009     1029.154      515.332      324.329        0.457        0.093       85.176       16.023        0.035      335.746        6.587      861.329
12/06/2021  21:59:00       78.076       62.082      -10.471       33.342       26.561       17.852     1111.679      705.491      318.705        0.610        0.107       99.750       16.097        0.026      335.766        6.615      861.331
12/06/2021  22:00:00       61.363       34.654      -12.196       25.379       16.643       13.859      644.097      276.976      192.065        0.311        0.056       70.472        8.578        0.015      335.783        6.643      861.321
12/06/2021  22:01:00       42.816        5.891      -17.429       22.391       13.217       13.828      501.346      174.699      191.212        0.152        0.043       43.220        6.958        0.026      335.862        6.780      861.295
12/06/2021  22:02:00        8.818        3.211       -9.818       12.958       16.285       11.218      167.899      265.201      125.845        0.037        0.028        9.385        7.901        0.709      335.875        6.803      861.260
12/06/2021  22:03:00        2.956        4.712       -4.465       13.138        9.451        7.982      172.598       89.320       63.708        0.019        0.016        5.562        3.956        0.506      335.880        6.808      861.226
12/06/2021  22:04:00        2.935       -0.613       -5.932        5.837        7.876       11.496       34.069       62.036      132.167        0.014        0.011        2.999        3.909        1.699      335.897        6.838      861.202
12/06/2021  22:05:00       17.248       -0.206      -12.377       13.291        6.207        8.064      176.654       38.529       65.022        0.037        0.014       17.249        5.089        0.087      335.849        6.757      861.188
12/06/2021  22:06:00       15.698        3.307       -2.554       23.028       19.886       10.558      530.276      395.461      111.481        0.065        0.052       16.043       15.037        0.878      335.885        6.815      861.169
12/06/2021  22:07:00       75.964       46.667      -13.011       18.656       12.304       11.385      348.053      151.386      129.614        0.437        0.031       89.153        6.827        0.006      335.827        6.719      861.144
12/06/2021  22:08:00       54.820       36.876      -16.689       25.331       26.834       20.165      641.654      720.090      406.632        0.321        0.088       66.068       14.975        0.051      335.868        6.790      861.124
12/06/2021  22:09:00       19.815       12.612       -5.709       22.815       18.671       15.468      520.523      348.622      239.270        0.085        0.055       23.488        8.910        0.144      335.846        6.750      861.110
12/06/2021  22:10:00       31.644      -14.600       -5.768       34.303       23.550       18.266     1176.727      554.620      333.630        0.166        0.103       34.850       18.060        0.269      335.824        6.714      861.087
12/06/2021  22:11:00       35.247       -9.790       -6.735       27.634       23.559       23.860      763.623      555.031      569.323        0.164        0.094       36.581       19.746        0.291      335.801        6.677      861.059
12/06/2021  22:12:00       63.256        0.062      -12.386       30.269       26.996       25.344      916.208      728.800      642.328        0.322        0.114       63.256       20.578        0.106      335.780        6.640      861.031
12/06/2021  22:13:00       64.646      -23.143       -5.213       43.294       28.533       30.252     1874.399      814.135      915.154        0.417        0.180       68.664       27.826        0.164      335.774        6.632      861.009
12/06/2021  22:14:00       46.408       -3.538       -3.649       33.109       27.982       28.306     1096.203      782.985      801.205        0.243        0.134       46.543       24.443        0.276      335.753        6.599      860.992
12/06/2021  22:15:00       16.090        1.302        0.314       26.151       21.638       21.697      683.849      468.221      470.750        0.094        0.081       16.143       13.894        0.741      335.884        6.817      860.987
12/06/2021  22:16:00       56.686        1.374      -28.067       24.110       36.151       16.873      581.280     1306.894      284.701        0.309        0.109       56.703        6.578        0.013      335.905        6.851      860.978
12/06/2021  22:17:00       15.617      -26.448      -16.904       15.791       24.793       20.406      249.355      614.714      416.425        0.125        0.064       30.714        4.715        0.024      335.972        6.960      860.982
12/06/2021  22:18:00        9.170       27.098        0.647       52.201       41.647       15.903     2724.962     1734.498      252.917        0.276        0.236       28.608       16.437        0.330      335.915        6.867      860.995
12/06/2021  22:19:00       58.153       68.154        6.894       37.454       25.091       20.460     1402.788      629.545      418.612        0.526        0.123       89.592       15.557        0.030      335.757        6.604      861.008
12/06/2021  22:20:00       90.607       65.804       -9.613       16.187       15.639       12.972      262.034      244.585      168.262        0.665        0.034      111.981        8.361        0.006      335.765        6.615      861.022
12/06/2021  22:21:00       89.929       56.160      -21.251       20.162       21.497       16.440      406.509      462.101      270.273        0.642        0.057      106.024       12.322        0.014      335.786        6.651      861.031
12/06/2021  22:22:00       70.376       40.665      -15.461       30.329       27.033       18.730      919.824      730.762      350.805        0.442        0.100       81.280        8.423        0.011      335.797        6.670      861.043
12/06/2021  22:23:00       83.981       49.930      -19.931       24.682       26.351       15.821      609.207      694.386      250.317        0.575        0.078       97.702       14.472        0.022      335.790        6.659      861.054
12/06/2021  22:24:00       75.351       59.854      -25.417       21.103       20.010       18.652      445.346      400.410      347.884        0.555        0.060       96.230        9.647        0.010      335.795        6.666      861.063
12/06/2021  22:25:00       62.463       45.971      -18.579       36.987       36.026       23.923     1368.052     1297.873      572.287        0.480        0.162       77.557       20.729        0.071      335.799        6.673      861.071
12/06/2021  22:26:00       65.571       67.482       -8.038       31.905       29.550       27.035     1017.915      873.185      730.867        0.577        0.131       94.093       13.476        0.021      335.749        6.591      861.072
12/06/2021  22:27:00       13.714       64.400       12.247       39.660       40.742       26.467     1572.946     1659.924      700.495        0.421        0.197       65.844       22.519        0.117      335.730        6.557      861.072
12/06/2021  22:28:00        2.027       37.633       -7.838       54.639       61.126       25.568     2985.422     3736.343      653.707        0.443        0.369       37.687       27.840        0.546      335.791        6.658      861.075
12/06/2021  22:29:00       30.982       26.359      -12.390       30.905       42.214       18.498      955.130     1782.004      342.164        0.244        0.154       40.678        8.526        0.044      335.774        6.631      861.080
12/06/2021  22:30:00       13.861       52.740       -1.124       46.047       45.346       24.732     2120.331     2056.301      611.682        0.388        0.239       54.531       12.706        0.054      335.760        6.609      861.099
12/06/2021  22:31:00       -4.628       50.269        8.637       40.157       36.070       31.613     1612.556     1301.070      999.356        0.327        0.196       50.482       28.943        0.329      335.728        6.552      861.113
12/06/2021  22:32:00       55.771       52.460        0.102       40.586       41.643       19.855     1647.205     1734.148      394.221        0.482        0.189       76.567       13.087        0.029      335.735        6.565      861.124
12/06/2021  22:33:00       78.754       51.738       -6.462       26.268       32.482       20.368      689.998     1055.069      414.863        0.554        0.108       94.229       16.927        0.032      335.777        6.637      861.133
12/06/2021  22:34:00       41.260       41.671      -12.154       35.600       24.443       32.029     1267.352      597.438     1025.835        0.324        0.145       58.642       16.006        0.074      335.822        6.710      861.127
12/06/2021  22:35:00      -32.003        8.632       -1.019       35.393       35.660       21.729     1252.700     1271.667      472.142        0.205        0.150       33.147       14.288        0.186      335.823        6.712      861.114
12/06/2021  22:36:00      -41.025       10.217      -14.245       49.246       52.117       24.193     2425.176     2716.193      585.316        0.386        0.286       42.278       22.136        0.274      335.837        6.737      861.104
12/06/2021  22:37:00      -12.658      -19.439        8.548       27.803       40.573       27.482      773.014     1646.205      755.255        0.189        0.159       23.197        6.247        0.073      335.945        6.916      861.093
12/06/2021  22:38:00      -47.321        4.874       -3.437       29.193       34.725       25.250      852.211     1205.833      637.587        0.248        0.135       47.571        8.472        0.032      335.872        6.796      861.075
12/06/2021  22:39:00      -22.656        2.765       -9.649       25.527       20.970       17.755      651.651      439.753      315.230        0.101        0.070       22.824       11.970        0.275      335.806        6.685      861.058
12/06/2021  22:40:00        8.170       30.210       -8.514       50.487       27.504       31.169     2548.959      756.478      971.528        0.266        0.214       31.296       12.093        0.149      335.739        6.574      861.047
12/06/2021  22:41:00        0.656       16.809       -5.985       46.480       34.067       26.854     2160.419     1160.583      721.154        0.218        0.202       16.822       14.786        0.773      335.741        6.576      861.034
12/06/2021  22:42:00       33.309       42.398       14.561       51.359       39.510       26.391     2637.720     1561.067      696.500        0.401        0.245       53.917       26.273        0.237      335.721        6.542      861.021
12/06/2021  22:43:00      -44.391        6.432       -8.033       36.338       36.301       21.149     1320.429     1317.728      447.274        0.258        0.154       44.855       16.925        0.142      335.814        6.697      861.003
12/06/2021  22:44:00      -53.100       -5.447      -21.292       32.720       24.285       30.728     1070.630      589.762      944.211        0.295        0.130       53.379        8.885        0.028      335.821        6.710      860.989
12/06/2021  22:45:00      -24.651        7.259       -6.658       42.486       30.827       24.873     1805.073      950.277      618.643        0.204        0.169       25.698       13.811        0.289      335.839        6.742      860.975
12/06/2021  22:46:00       -5.937       15.306       -9.787       53.018       24.247       28.285     2810.947      587.907      800.056        0.228        0.210       16.417       24.360        2.202      335.782        6.646      860.966
12/06/2021  22:47:00      -46.994        9.453      -14.562       25.723       21.379       19.894      661.683      457.079      395.773        0.201        0.076       47.936        9.498        0.039      335.849        6.757      860.961
12/06/2021  22:48:00      -44.909        3.604       -4.797       25.863       16.715       19.072      668.905      279.382      363.733        0.168        0.066       45.054        7.812        0.030      335.828        6.720      860.957
12/06/2021  22:49:00      -45.872       10.247      -10.140       34.577       25.653       26.193     1195.598      658.065      686.058        0.243        0.127       47.003       14.179        0.091      335.851        6.759      860.944
12/06/2021  22:50:00      -36.535       -6.427        8.960       28.734       25.836       20.038      825.625      667.473      401.516        0.168        0.095       37.096       13.695        0.136      335.884        6.817      860.943
12/06/2021  22:51:00       12.645      -80.145      -13.350       39.384       47.082       32.001     1551.072     2216.719     1024.050        0.578        0.240       81.137       22.827        0.079      335.972        6.963      860.939
12/06/2021  22:52:00       22.510     -114.162      -17.515       27.767       31.326       23.043      771.018      981.294      530.979        0.806        0.114      116.360       17.228        0.022      336.039        7.074      860.939
12/06/2021  22:53:00       16.463      -68.681       -5.685       26.442       24.943       24.841      699.170      622.142      617.065        0.348        0.097       70.627       19.087        0.073      336.001        7.009      860.932
12/06/2021  22:54:00       14.525      -67.780      -10.031       31.236       27.822       18.400      975.674      774.042      338.561        0.350        0.104       69.319       10.394        0.022      335.944        6.915      860.933
12/06/2021  22:55:00       33.947     -108.504      -17.777       21.070       21.456       16.570      443.934      460.348      274.563        0.721        0.059      113.690        6.179        0.003      335.909        6.858      860.932
12/06/2021  22:56:00       32.602      -98.527      -13.540       27.486       38.620       18.925      755.477     1491.484      358.166        0.678        0.130      103.781       17.607        0.029      335.921        6.876      860.930
12/06/2021  22:57:00       31.954     -107.797       -2.163       23.228       45.534       23.322      539.550     2073.378      543.904        0.790        0.158      112.433       25.131        0.050      335.943        6.914      860.919
12/06/2021  22:58:00       25.902      -60.128      -12.492       34.333       38.212       23.580     1178.732     1460.163      556.039        0.382        0.160       65.470       15.061        0.053      335.946        6.921      860.915
12/06/2021  22:59:00       10.251      -26.870       -2.891       37.057       30.528       24.367     1373.252      931.934      593.768        0.187        0.145       28.759       19.057        0.439      335.977        6.971      860.895
12/06/2021  23:00:00       18.666       -1.816       -8.993       22.147       32.496       19.543      490.493     1055.970      381.931        0.118        0.096       18.754       13.608        0.527      335.894        6.832      860.883
12/06/2021  23:01:00       48.817       -9.967       -7.590       40.032       21.704       23.428     1602.537      471.055      548.854        0.258        0.131       49.824       21.737        0.190      335.833        6.732      860.872
12/06/2021  23:02:00       56.356        8.231      -30.619       23.869       38.060       24.577      569.724     1448.568      604.026        0.340        0.131       56.954        8.536        0.022      335.890        6.825      860.869
12/06/2021  23:03:00       51.193        4.460      -12.932       28.785       35.915       23.653      828.559     1289.897      559.474        0.274        0.134       51.387        8.204        0.025      335.843        6.745      860.861
12/06/2021  23:04:00       38.021      -17.877       -2.247       27.408       22.954       17.693      751.210      526.887      313.037        0.168        0.080       42.014       12.055        0.082      335.768        6.619      860.853
12/06/2021  23:05:00       47.267        0.211       -9.592       26.309       30.665       20.333      692.168      940.343      413.427        0.219        0.102       47.267       12.195        0.067      335.771        6.627      860.849
12/06/2021  23:06:00       77.653      -16.160      -10.687       15.920       14.948       15.192      253.436      223.429      230.790        0.356        0.035       79.317        6.133        0.006      335.744        6.583      860.852
12/06/2021  23:07:00       53.386       -4.978       -3.435       19.591       23.994       19.305      383.817      575.701      372.679        0.211        0.067       53.618       11.244        0.044      335.767        6.619      860.842
12/06/2021  23:08:00       43.444       -6.753       -1.767       31.920       22.839       16.771     1018.877      521.607      281.271        0.188        0.091       43.965        7.578        0.030      335.769        6.622      860.837
12/06/2021  23:09:00       52.353      -20.465       -6.286       24.747       17.630       14.242      612.437      310.810      202.847        0.216        0.056       56.211       11.576        0.042      335.751        6.592      860.828
12/06/2021  23:10:00       48.147       -9.789       -3.394       26.883       19.249       14.965      722.709      370.513      223.939        0.187        0.066       49.133       13.494        0.075      335.772        6.628      860.815
12/06/2021  23:11:00       46.289      -18.470       -5.616       20.122       17.830       13.833      404.898      317.900      191.359        0.171        0.046       49.838       10.257        0.042      335.753        6.596      860.808
12/06/2021  23:12:00       26.855      -14.572      -16.617       25.966       33.654       25.887      674.215     1132.601      670.145        0.184        0.124       30.554       14.586        0.228      335.838        6.739      860.804
12/06/2021  23:13:00       25.221      -49.534      -19.340       24.231       33.866       24.042      587.156     1146.880      578.038        0.289        0.116       55.585       11.028        0.039      335.979        6.974      860.802
12/06/2021  23:14:00       46.570      -61.930      -19.701       22.107       30.314       18.453      488.736      918.961      340.529        0.407        0.087       77.486       17.220        0.049      335.844        6.748      860.800
12/06/2021  23:15:00        4.563      -36.006      -16.428       38.784       23.025       16.218     1504.236      530.128      263.038        0.194        0.115       36.294       11.556        0.101      335.817        6.705      860.793
12/06/2021  23:16:00      -11.249       -8.599        4.911       24.150       17.058       20.995      583.199      290.977      440.770        0.077        0.066       14.159       12.962        0.838      335.922        6.879      860.789
12/06/2021  23:17:00      -10.445       -9.080       -5.882       12.585       14.952       14.109      158.384      223.566      199.050        0.040        0.029       13.840       10.378        0.562      335.853        6.762      860.776
12/06/2021  23:18:00       34.493      -27.120       -6.892       29.243       25.350       17.041      855.135      642.645      290.385        0.188        0.089       43.878       14.473        0.109      335.858        6.774      860.759
12/06/2021  23:19:00       17.217      -10.676       -9.800       44.615       29.730       28.204     1990.537      883.877      795.465        0.209        0.183       20.258       17.392        0.737      335.845        6.751      860.736
12/06/2021  23:20:00       56.095      -34.219      -15.345       30.107       64.084       23.316      906.434     4106.719      543.624        0.505        0.278       65.708       12.346        0.035      335.873        6.797      860.717
12/06/2021  23:21:00       72.125      -86.597      -21.491       37.750       40.254       26.575     1425.072     1620.423      706.210        0.846        0.188      112.699       24.512        0.047      335.845        6.752      860.703
12/06/2021  23:22:00       70.108      -60.756      -20.974       32.941       39.239       23.667     1085.134     1539.690      560.142        0.612        0.159       92.771       19.301        0.043      335.824        6.715      860.688
12/06/2021  23:23:00       54.800     -119.614      -21.466       23.656       31.066       20.858      559.586      965.089      435.064        0.987        0.098      131.570       19.781        0.023      335.861        6.778      860.676
12/06/2021  23:24:00       77.432      -60.374      -34.470       32.756       34.668       22.288     1072.977     1201.848      496.751        0.680        0.139       98.187       15.486        0.025      335.978        6.971      860.670
12/06/2021  23:25:00       39.038      -81.063      -23.828       32.221       31.987       20.440     1038.209     1023.192      417.805        0.557        0.124       89.974       11.015        0.015      336.021        7.043      860.669
12/06/2021  23:26:00       45.093      -26.997      -17.278       24.167       18.668       14.630      584.058      348.494      214.033        0.210        0.057       52.556       11.416        0.047      335.886        6.821      860.667
12/06/2021  23:27:00        0.139      -27.144      -10.315       20.246       18.807       11.771      409.898      353.716      138.561        0.087        0.045       27.144       10.871        0.160      335.872        6.794      860.668
12/06/2021  23:28:00       -5.563      -24.505       -5.819       13.343       15.389       10.826      178.033      236.830      117.208        0.060        0.027       25.128        6.286        0.063      335.774        6.630      860.671
12/06/2021  23:29:00        0.157       -4.106       -0.358        9.848       31.175        9.724       96.975      971.892       94.563        0.059        0.058        4.109        6.241        2.307      335.800        6.674      860.668
12/06/2021  23:30:00       31.342       35.474       -9.309       15.963       14.470       10.388      254.827      209.376      107.903        0.145        0.029       47.336        7.687        0.026      335.746        6.584      860.667
12/06/2021  23:31:00       11.647       38.311       -3.336       19.082       18.294       10.536      364.129      334.664      111.014        0.121        0.040       40.042        8.560        0.046      335.736        6.567      860.656
12/06/2021  23:32:00       37.676       41.630       -9.298       11.747       12.259        7.454      137.988      150.284       55.569        0.179        0.017       56.147        3.062        0.003      335.753        6.596      860.645
12/06/2021  23:33:00       20.429       24.109       -6.639       10.603        6.770        8.150      112.428       45.836       66.423        0.063        0.011       31.600        3.907        0.015      335.682        6.477      860.624
12/06/2021  23:34:00        9.687       15.574      -10.403       10.177       11.246        8.772      103.579      126.480       76.949        0.038        0.015       18.341        3.111        0.029      335.676        6.465      860.600
12/06/2021  23:35:00        5.575        9.272      -14.122        8.015       11.042       13.294       64.248      121.922      176.727        0.034        0.018       10.818        7.733        0.511      335.704        6.514      860.578
12/06/2021  23:36:00        4.709      -10.133       -1.411        8.437       14.728        8.822       71.183      216.917       77.834        0.025        0.018       11.174        4.403        0.155      335.804        6.682      860.548
12/06/2021  23:37:00       -5.087      -12.278       -1.024       30.523       13.334       13.993      931.663      177.785      195.793        0.074        0.065       13.290       10.942        0.678      335.859        6.774      860.526
12/06/2021  23:38:00      -45.528       -8.238       -3.848       51.634       38.363       21.219     2666.088     1471.749      450.239        0.337        0.229       46.267       18.231        0.155      335.870        6.791      860.505
12/06/2021  23:39:00      -75.398       -2.669       -2.376       52.494       31.322       23.569     2755.637      981.048      555.491        0.499        0.215       75.445       20.403        0.073      335.893        6.830      860.486
12/06/2021  23:40:00      -98.653      -16.892       -6.041       43.923       39.182       25.899     1929.272     1535.202      670.732        0.709        0.207      100.089       21.530        0.046      335.875        6.800      860.470
12/06/2021  23:41:00      -94.475       -8.398       -4.579       39.962       27.096       27.349     1596.988      734.218      747.990        0.605        0.154       94.848       23.073        0.059      335.838        6.739      860.463
12/06/2021  23:42:00      -59.174       -9.929       -3.651       40.379       37.037       24.491     1630.427     1371.715      599.823        0.361        0.180       60.001       15.992        0.071      335.888        6.822      860.464
12/06/2021  23:43:00      -87.263        3.233       -3.082       45.919       26.616       25.826     2108.561      708.397      666.958        0.556        0.174       87.323       26.048        0.089      335.875        6.802      860.470
12/06/2021  23:44:00     -104.819       10.814        1.975       46.907       31.838       25.763     2200.269     1013.673      663.725        0.749        0.194      105.376       27.738        0.069      335.804        6.681      860.488
12/06/2021  23:45:00      -84.596        2.507       -1.655       63.752       31.423       23.022     4064.332      987.424      530.005        0.637        0.279       84.634       23.570        0.078      335.794        6.664      860.505
12/06/2021  23:46:00      -93.048        9.348       -7.832       29.156       25.822       24.160      850.047      666.771      583.710        0.545        0.105       93.517       21.085        0.051      335.779        6.639      860.523
12/06/2021  23:47:00      -57.069       19.931      -11.184       30.602       29.269       18.940      936.482      856.684      358.730        0.297        0.108       60.449        7.371        0.015      335.787        6.654      860.548
12/06/2021  23:48:00      -68.560        4.250       -4.904       49.716       41.496       28.101     2471.684     1721.948      789.647        0.486        0.249       68.692       18.046        0.069      335.818        6.704      860.563
12/06/2021  23:49:00      -86.217       24.983       -9.641       60.570       28.895       26.196     3668.707      834.944      686.210        0.667        0.259       89.764       25.449        0.080      335.801        6.675      860.579
12/06/2021  23:50:00      -28.564       23.063        8.497       67.534       33.672       24.637     4560.863     1133.805      606.976        0.386        0.315       36.712       22.623        0.380      335.823        6.713      860.580
12/06/2021  23:51:00      -72.168        8.136      -11.875       55.475       29.669       25.810     3077.452      880.242      666.179        0.502        0.231       72.625       26.295        0.131      335.730        6.558      860.580
12/06/2021  23:52:00     -125.782       35.622      -10.020       32.095       27.867       21.374     1030.084      776.587      456.838        0.973        0.113      130.729       15.991        0.015      335.666        6.451      860.569
12/06/2021  23:53:00      -63.914       12.185       -6.202       71.022       30.299       24.688     5044.160      918.052      609.480        0.542        0.329       65.065       17.458        0.072      335.696        6.500      860.555
12/06/2021  23:54:00      -70.695       13.871      -13.822       44.524       31.780       25.098     1982.430     1009.988      629.916        0.450        0.181       72.043       23.182        0.104      335.648        6.419      860.545
12/06/2021  23:55:00     -124.387       42.698      -19.488       29.338       19.637       17.146      860.735      385.596      294.002        0.961        0.077      131.511       12.350        0.009      335.610        6.357      860.545
12/06/2021  23:56:00      -39.469       20.587       -4.035       50.208       28.078       22.763     2520.825      788.358      518.163        0.291        0.191       44.516       20.500        0.212      335.727        6.553      860.538
12/06/2021  23:57:00      -44.971       10.081      -11.466       59.644       35.906       30.329     3557.425     1289.272      919.872        0.401        0.288       46.087       32.509        0.498      335.687        6.486      860.538
12/06/2021  23:58:00      -76.035       27.517      -11.028       25.919       28.144       19.692      671.792      792.063      387.778        0.426        0.093       80.861       11.922        0.022      335.690        6.491      860.532
12/06/2021  23:59:00      -54.177       -2.248      -12.136       46.808       20.324       18.217     2190.946      413.084      331.851        0.301        0.147       54.224       15.327        0.080      335.690        6.493      860.521
12/07/2021  00:00:00      -31.560       -1.552       -4.224       30.946       21.114       19.835      957.669      445.789      393.422        0.141        0.090       31.598       17.023        0.290      335.679        6.471      860.506
12/07/2021  00:01:00      -91.031       33.697      -19.939       13.927       15.720       11.276      193.949      247.126      127.138        0.519        0.028       97.067        7.323        0.006      335.582        6.311      860.482
12/07/2021  00:02:00      -78.287        1.329      -20.725       21.226       20.765       16.706      450.542      431.200      279.097        0.386        0.058       78.299       12.846        0.027      335.624        6.379      860.465
12/07/2021  00:03:00      -84.731       25.931      -15.767       15.677       10.113       12.736      245.773      102.265      162.209        0.431        0.026       88.610        7.927        0.008      335.619        6.374      860.448
12/07/2021  00:04:00      -78.014       15.957      -18.146       17.892       14.511       11.850      320.115      210.579      140.425        0.367        0.034       79.629        7.645        0.009      335.639        6.408      860.431
12/07/2021  00:05:00      -77.281       20.309      -16.050       13.451        9.932        6.689      180.935       98.647       44.738        0.348        0.016       79.905        3.656        0.002      335.595        6.335      860.415
12/07/2021  00:06:00      -35.825        8.181       -5.409       39.855       13.885       19.093     1588.386      192.806      364.539        0.176        0.107       36.747       24.842        0.457      335.666        6.452      860.414
12/07/2021  00:07:00      -10.869        8.226       -2.000       16.181       22.339       20.328      261.835      499.033      413.235        0.068        0.059       13.631       10.039        0.542      335.706        6.518      860.418
12/07/2021  00:08:00      -44.755       29.384      -10.579       22.606       17.029       12.948      511.036      289.993      167.652        0.197        0.048       53.539        7.746        0.021      335.686        6.486      860.414
12/07/2021  00:09:00      -27.774        4.454      -22.906       11.466        5.634        8.767      131.472       31.739       76.858        0.078        0.012       28.128        7.079        0.063      335.645        6.417      860.401
12/07/2021  00:10:00      -33.534       -1.716      -10.812        6.086        8.354        7.358       37.043       69.787       54.144        0.070        0.008       33.578        4.505        0.018      335.656        6.438      860.379
12/07/2021  00:11:00      -15.781        1.258        3.038       13.874       11.900       14.043      192.484      141.602      197.216        0.040        0.027       15.831        9.602        0.368      335.762        6.612      860.343
12/07/2021  00:12:00      -15.775      -16.309       -2.862       16.020       18.693       14.046      256.625      349.439      197.300        0.066        0.040       22.690       10.568        0.217      335.772        6.627      860.312
12/07/2021  00:13:00      -14.962       -1.472        3.239        9.705       20.823       12.521       94.195      433.595      156.764        0.046        0.034       15.034        8.960        0.355      335.811        6.693      860.276
12/07/2021  00:14:00       20.915       34.780        0.107       18.603       17.085       12.062      346.074      291.905      145.501        0.122        0.039       40.584        6.349        0.024      335.699        6.507      860.242
12/07/2021  00:15:00       -3.112        3.022       -3.817       36.257       19.917       14.256     1314.593      396.694      203.224        0.097        0.096        4.338        7.272        2.810      335.723        6.546      860.210
12/07/2021  00:16:00      -21.134       -6.261      -11.109       25.579       39.235       24.268      654.271     1539.373      588.927        0.170        0.139       22.042       15.364        0.486      335.758        6.605      860.179
12/07/2021  00:17:00      -18.324        1.723      -15.562       32.202       25.547       20.328     1036.950      652.628      413.209        0.134        0.105       18.405        8.931        0.235      335.767        6.620      860.159
12/07/2021  00:18:00        7.340       22.513        1.651       39.792       27.410       22.997     1583.426      751.322      528.849        0.171        0.143       23.680       17.447        0.543      335.712        6.525      860.158
12/07/2021  00:19:00       37.732       36.611      -10.678       35.328       26.482       18.617     1248.101      701.314      346.592        0.259        0.115       52.575       15.340        0.085      335.696        6.501      860.170
12/07/2021  00:20:00       39.720       51.391       -4.778       24.544       29.924       17.389      602.426      895.452      302.383        0.302        0.090       64.951       17.240        0.070      335.660        6.441      860.193
12/07/2021  00:21:00        7.029       26.911        5.204       30.329       22.928       20.639      919.871      525.677      425.968        0.134        0.094       27.814       19.685        0.501      335.612        6.361      860.215
12/07/2021  00:22:00      -13.802       -4.351      -11.474       18.460       16.627       15.863      340.786      276.454      251.641        0.060        0.043       14.471        8.993        0.386      335.703        6.514      860.219
12/07/2021  00:23:00      -23.223        6.182       -0.502       25.220       26.916       19.986      636.052      724.452      399.425        0.117        0.088       24.032       13.267        0.305      335.721        6.542      860.215
12/07/2021  00:24:00       30.586       40.159       -1.293       26.317       32.883       19.262      692.568     1081.303      371.006        0.235        0.107       50.480       17.591        0.121      335.662        6.444      860.206
12/07/2021  00:25:00       17.440       15.270       -6.070       23.984       27.143       14.745      575.254      736.755      217.424        0.105        0.076       23.180        8.263        0.127      335.664        6.448      860.192
12/07/2021  00:26:00       67.889       34.353      -15.834       17.610       17.729       14.176      310.122      314.304      200.945        0.343        0.041       76.085       12.527        0.027      335.682        6.477      860.175
12/07/2021  00:27:00       46.692       26.019       -6.053       27.920       33.784       21.434      779.537     1141.349      459.404        0.264        0.119       53.452       17.010        0.101      335.718        6.537      860.165
12/07/2021  00:28:00       34.088       23.996       -6.549       21.462       22.802       13.118      460.614      519.918      172.086        0.147        0.058       41.687       11.463        0.076      335.671        6.458      860.156
12/07/2021  00:29:00       46.734       28.741       -8.629       16.492       12.194       12.545      271.974      148.700      157.378        0.183        0.029       54.864       10.540        0.037      335.606        6.352      860.149
12/07/2021  00:30:00       49.437       33.478      -12.873       19.946       13.315       13.144      397.861      177.299      172.772        0.224        0.037       59.706        6.266        0.011      335.612        6.361      860.131
12/07/2021  00:31:00       41.190       31.267       -2.633       22.340       13.604       12.598      499.059      185.073      158.700        0.176        0.042       51.713        5.606        0.012      335.582        6.311      860.123
12/07/2021  00:32:00       33.708        2.587       -7.636       33.694       34.117       19.872     1135.300     1163.998      394.888        0.195        0.135       33.807       13.022        0.148      335.626        6.383      860.113
12/07/2021  00:33:00       73.018       16.233      -10.287       27.706       17.468       13.873      767.608      305.137      192.469        0.348        0.063       74.801       11.141        0.022      335.624        6.380      860.117
12/07/2021  00:34:00       75.765       30.457      -11.830       18.670       16.000        9.307      348.584      255.985       86.628        0.375        0.035       81.657        9.470        0.013      335.653        6.428      860.116
12/07/2021  00:35:00       68.856       22.826      -15.822       16.153       24.646       12.542      260.905      607.448      157.307        0.327        0.051       72.541       11.808        0.026      335.663        6.446      860.109
12/07/2021  00:36:00       64.672       18.703      -16.788       21.210       17.675       12.607      449.885      312.404      158.929        0.287        0.046       67.322        6.003        0.008      335.649        6.425      860.094
12/07/2021  00:37:00       74.603       16.865      -15.197       22.133       19.913       13.836      489.878      396.541      191.430        0.358        0.054       76.485       10.311        0.018      335.622        6.379      860.075
12/07/2021  00:38:00       50.701       14.074      -16.493       29.185       26.251       16.639      851.758      689.124      276.855        0.243        0.091       52.618       11.395        0.047      335.627        6.385      860.057
12/07/2021  00:39:00       61.022        9.569      -11.371       24.860       29.339       21.990      618.034      860.771      483.549        0.295        0.098       61.768       11.267        0.033      335.611        6.360      860.049
12/07/2021  00:40:00       33.628       -3.287       -2.618       45.223       18.376       16.279     2045.165      337.688      265.013        0.190        0.132       33.789       14.496        0.184      335.606        6.352      860.047
12/07/2021  00:41:00       83.786       25.159      -17.485       30.694       21.572       13.584      942.151      465.337      184.524        0.478        0.080       87.482       12.156        0.019      335.573        6.296      860.051
12/07/2021  00:42:00       48.658       39.617       -7.144       26.722       20.131       21.445      714.077      405.272      459.869        0.278        0.079       62.746       13.542        0.047      335.527        6.222      860.073
12/07/2021  00:43:00       48.238       22.013       -1.283       21.115       15.917       14.765      445.829      253.336      218.017        0.186        0.046       53.023       12.279        0.054      335.502        6.179      860.092
12/07/2021  00:44:00       32.965       14.937       -7.986       17.315       18.006       11.379      299.795      324.214      129.473        0.106        0.038       36.191        7.323        0.041      335.508        6.189      860.114
12/07/2021  00:45:00       10.006       -5.496       -7.270       17.953       18.376       13.280      322.320      337.680      176.356        0.051        0.042       11.415        4.556        0.159      335.588        6.323      860.131
12/07/2021  00:46:00        4.443       -7.759        4.868       13.454       18.036       12.014      181.010      325.315      144.336        0.038        0.033        8.941       10.403        1.354      335.617        6.369      860.143
12/07/2021  00:47:00       17.922      -18.698       -3.036       13.856       10.992       10.087      191.991      120.814      101.749        0.055        0.021       25.901        5.876        0.051      335.637        6.404      860.136
12/07/2021  00:48:00       -6.440        6.443       -3.884        9.992        8.826       10.628       99.845       77.907      112.964        0.019        0.015        9.110        5.454        0.358      335.699        6.507      860.129
12/07/2021  00:49:00       -2.549       11.190       -6.939        8.403        7.278       10.388       70.615       52.964      107.914        0.021        0.012       11.476        6.954        0.367      335.650        6.424      860.119
12/07/2021  00:50:00      -20.645       13.629       -1.271       11.066        8.728        8.562      122.458       76.184       73.301        0.044        0.014       24.738        3.584        0.021      335.629        6.392      860.109
12/07/2021  00:51:00      -21.685        6.753       -8.715       12.905        8.665        9.498      166.551       75.075       90.219        0.046        0.017       22.712        7.674        0.114      335.643        6.412      860.100
12/07/2021  00:52:00       -5.578       11.342      -13.464        9.280       11.110        5.650       86.125      123.429       31.924        0.029        0.012       12.639        4.922        0.152      335.627        6.385      860.106
12/07/2021  00:53:00      -13.930       13.327       -4.939       14.147        9.775        7.479      200.137       95.555       55.938        0.037        0.018       19.279        4.137        0.046      335.607        6.354      860.106
12/07/2021  00:54:00        1.964       23.239       -8.635       29.890       16.961       12.298      893.441      287.692      151.230        0.098        0.067       23.322       11.662        0.250      335.671        6.460      860.111
12/07/2021  00:55:00       23.920       24.708       -7.539       10.241        9.108        5.599      104.875       82.965       31.350        0.073        0.011       34.389        4.827        0.020      335.558        6.272      860.121
12/07/2021  00:56:00       13.323       21.842       -7.357        7.412       10.123        8.214       54.939      102.480       67.473        0.047        0.011       25.585        4.319        0.028      335.613        6.362      860.122
12/07/2021  00:57:00        1.651       22.184        2.005       24.686       16.554       14.548      609.388      274.035      211.640        0.080        0.055       22.245       11.507        0.268      335.696        6.501      860.124
12/07/2021  00:58:00       21.562       32.090        0.088       17.277       18.971       11.551      298.511      359.893      133.434        0.114        0.040       38.661        6.769        0.031      335.716        6.535      860.120
12/07/2021  00:59:00        5.638       25.241       -0.409       25.390       15.792       12.420      644.647      249.403      154.245        0.086        0.052       25.863        8.276        0.102      335.734        6.563      860.117
12/07/2021  01:00:00       16.208       40.827       -4.042       24.675       13.982        7.789      608.838      195.493       60.670        0.141        0.043       43.927        7.554        0.030      335.724        6.547      860.120
12/07/2021  01:01:00       26.585       28.142       -9.042        9.832        7.458        5.584       96.661       55.624       31.184        0.088        0.009       38.714        4.714        0.015      335.648        6.422      860.108
12/07/2021  01:02:00       20.258       33.786       -8.992       14.935        9.237        7.195      223.057       85.315       51.768        0.100        0.018       39.394        4.166        0.011      335.655        6.434      860.103
12/07/2021  01:03:00       25.297       21.257       -7.557       13.812        8.253        8.742      190.770       68.106       76.420        0.074        0.017       33.043        8.120        0.060      335.630        6.392      860.097
12/07/2021  01:04:00       18.553       28.488       -2.010       14.972        7.585        8.963      224.165       57.530       80.327        0.076        0.018       33.997        8.232        0.059      335.638        6.402      860.088
12/07/2021  01:05:00       38.065       40.018       -9.376        8.843        7.576        6.581       78.194       57.395       43.312        0.166        0.009       55.230        4.807        0.008      335.639        6.405      860.075
12/07/2021  01:06:00       24.233       18.767       -4.043       10.026       16.061       12.807      100.513      257.955      164.011        0.074        0.026       30.650        9.566        0.097      335.619        6.373      860.072
12/07/2021  01:07:00       15.415       17.658       -3.713        8.879       10.738        9.402       78.843      115.303       88.390        0.042        0.014       23.440        8.040        0.118      335.597        6.335      860.068
12/07/2021  01:08:00       25.872       20.163       -8.170       12.585       12.995        9.714      158.391      168.877       94.357        0.078        0.021       32.801        9.538        0.085      335.627        6.386      860.059
12/07/2021  01:09:00       32.272       26.634       -5.854       12.394       11.691        8.813      153.610      136.671       77.672        0.108        0.018       41.843        5.022        0.014      335.603        6.347      860.043
12/07/2021  01:10:00       29.273       19.351       -2.759       14.614       15.888       11.187      213.571      252.417      125.158        0.091        0.030       35.091        6.356        0.033      335.609        6.356      860.040
12/07/2021  01:11:00       35.248       20.829       -7.639       13.437        8.695       10.136      180.559       75.597      102.742        0.105        0.018       40.942        8.406        0.042      335.607        6.355      860.036
12/07/2021  01:12:00       22.890       22.377       -8.277       18.479       15.288       10.941      341.455      233.714      119.709        0.089        0.035       32.011        9.102        0.081      335.582        6.312      860.033
12/07/2021  01:13:00       37.811       29.790       -7.782       19.241       12.013       12.511      370.200      144.310      156.518        0.152        0.034       48.137        8.732        0.033      335.524        6.219      860.042
12/07/2021  01:14:00       12.068       14.557       -5.755       13.006       12.305       12.183      169.146      151.409      148.415        0.043        0.023       18.909        7.087        0.140      335.517        6.205      860.041
12/07/2021  01:15:00       25.108       21.885       -4.841       18.251       16.944       11.133      333.092      287.106      123.936        0.094        0.037       33.307        8.474        0.065      335.542        6.248      860.051
12/07/2021  01:16:00       17.909       33.422       -6.467       16.073       16.093       11.193      258.353      258.974      125.294        0.106        0.032       37.917        9.637        0.065      335.573        6.297      860.059
12/07/2021  01:17:00       14.601       33.046       -3.991       12.771        9.466        6.877      163.106       89.596       47.289        0.081        0.015       36.128        3.874        0.011      335.594        6.330      860.048
12/07/2021  01:18:00       35.098       20.442       -7.091        8.010        7.550        6.367       64.163       57.007       40.533        0.093        0.008       40.617        2.518        0.004      335.541        6.247      860.041
12/07/2021  01:19:00       36.472       20.381       -7.822       11.332        8.450        6.710      128.420       71.405       45.027        0.103        0.012       41.780        3.874        0.009      335.561        6.277      860.015
12/07/2021  01:20:00       49.049       22.839      -10.912       12.754       20.629        8.648      162.665      425.536       74.786        0.185        0.033       54.106        7.169        0.018      335.615        6.367      859.993
12/07/2021  01:21:00       28.926       17.159      -14.714       21.435       29.062       12.400      459.453      844.574      153.768        0.140        0.073       33.632        8.337        0.061      335.616        6.367      859.976
12/07/2021  01:22:00       43.748       11.880      -21.844       24.116       21.125       13.857      581.563      446.245      192.004        0.188        0.061       45.333        9.438        0.043      335.595        6.333      859.954
12/07/2021  01:23:00       48.434       27.628      -20.940       21.610       28.482       11.236      466.998      811.206      126.244        0.248        0.070       55.760       10.009        0.032      335.573        6.295      859.935
12/07/2021  01:24:00       33.209       20.152      -12.849       24.625       24.147       16.384      606.410      583.084      268.440        0.157        0.073       38.845       11.182        0.083      335.636        6.400      859.928
12/07/2021  01:25:00       47.791       25.001      -17.561       24.983       20.609       21.208      624.136      424.748      449.787        0.236        0.075       53.935        9.064        0.028      335.610        6.357      859.941
12/07/2021  01:26:00       49.276       29.574      -16.234       21.086       23.283       18.131      444.638      542.100      328.723        0.244        0.066       57.469        9.557        0.028      335.640        6.409      859.951
12/07/2021  01:27:00       48.283       49.996       -2.517       17.646       17.167       12.422      311.378      294.707      154.301        0.280        0.038       69.504       10.193        0.022      335.611        6.359      859.966
12/07/2021  01:28:00       33.336       31.376       -1.813       18.949       17.044       15.029      359.047      290.491      225.884        0.149        0.044       45.779        9.541        0.043      335.566        6.283      859.978
12/07/2021  01:29:00       50.625       36.967      -10.120        8.356        9.171        6.972       69.827       84.109       48.605        0.212        0.010       62.685        1.843        0.001      335.563        6.281      859.994
12/07/2021  01:30:00       49.351       29.850       -7.102       15.663       11.959       10.969      245.327      143.027      120.313        0.194        0.025       57.676        9.130        0.025      335.566        6.286      859.994
12/07/2021  01:31:00       48.716       28.062       -7.071        8.227        6.308        5.221       67.684       39.787       27.257        0.167        0.007       56.220        1.836        0.001      335.555        6.268      859.986
12/07/2021  01:32:00       45.039       18.808       -8.722       16.595       12.871        8.633      275.398      165.656       74.525        0.149        0.026       48.809        7.806        0.026      335.562        6.279      859.988
12/07/2021  01:33:00       28.279       13.556       -7.652       15.696       21.213       12.174      246.362      449.986      148.195        0.094        0.042       31.360        9.398        0.090      335.604        6.349      859.972
12/07/2021  01:34:00       36.694       31.975       10.073       29.560       24.745       18.652      873.810      612.307      347.884        0.215        0.092       48.670       17.912        0.135      335.591        6.326      859.975
12/07/2021  01:35:00       44.852       39.979       -1.003       18.564       12.867       16.223      344.612      165.548      263.183        0.219        0.039       60.083        9.955        0.027      335.566        6.284      859.975
12/07/2021  01:36:00       51.926       38.400       -2.486       16.794        9.285        9.363      282.044       86.213       87.659        0.232        0.023       64.582        8.694        0.018      335.537        6.237      859.991
12/07/2021  01:37:00       28.002       31.507       -3.463       15.880        9.764        7.055      252.188       95.338       49.777        0.109        0.020       42.152        5.722        0.018      335.530        6.225      859.999
12/07/2021  01:38:00       18.634       40.480       -8.147       16.904        9.094        8.254      285.744       82.699       68.125        0.124        0.022       44.563        6.947        0.024      335.543        6.249      860.018
12/07/2021  01:39:00       -3.485       28.929      -11.940       24.698       12.507       11.521      610.010      156.418      132.730        0.095        0.045       29.139        4.425        0.023      335.590        6.326      860.033
12/07/2021  01:40:00      -28.793       19.373      -12.446       33.686       15.201       12.155     1134.750      231.079      147.753        0.144        0.076       34.703       10.473        0.091      335.622        6.377      860.045
12/07/2021  01:41:00      -55.391       22.407      -18.482       20.383       15.968       16.400      415.480      254.972      268.955        0.243        0.047       59.751       11.849        0.039      335.594        6.332      860.048
12/07/2021  01:42:00      -58.858       23.041      -14.431       19.140       18.804       11.989      366.323      353.582      143.738        0.253        0.043       63.207        9.403        0.022      335.600        6.341      860.044
12/07/2021  01:43:00      -57.719       20.924      -17.791       25.246       24.389       15.985      637.356      594.844      255.505        0.279        0.074       61.395        9.929        0.026      335.570        6.292      860.037
12/07/2021  01:44:00      -50.333       22.270      -18.611       21.333       19.346       14.482      455.086      374.270      209.728        0.221        0.052       55.040       10.065        0.033      335.588        6.320      860.033
12/07/2021  01:45:00      -57.261       32.328      -23.766       17.118       19.981       14.543      293.042      399.227      211.494        0.290        0.045       65.757       11.288        0.029      335.553        6.264      860.032
12/07/2021  01:46:00      -64.080       16.721      -19.557       16.441       15.927       12.406      270.306      253.658      153.902        0.272        0.034       66.226        7.327        0.012      335.508        6.188      860.019
12/07/2021  01:47:00      -59.696       29.713      -20.238       20.732       13.543       16.072      429.834      183.417      258.325        0.286        0.044       66.682       15.589        0.055      335.493        6.163      860.018
12/07/2021  01:48:00      -24.965       26.999      -11.788       16.730       18.761       16.392      279.900      351.964      268.708        0.120        0.045       36.772        6.516        0.031      335.599        6.339      860.004
12/07/2021  01:49:00       24.199       33.741       -8.590       28.491       14.303       13.005      811.755      204.588      169.119        0.149        0.059       41.522       10.607        0.065      335.553        6.265      860.001
12/07/2021  01:50:00       45.219       42.927       -8.474       17.828       11.749       10.205      317.840      138.049      104.134        0.226        0.028       62.349        5.534        0.008      335.528        6.223      859.990
12/07/2021  01:51:00       64.551       31.562      -12.319        5.015       10.289        6.568       25.154      105.853       43.133        0.274        0.009       71.854        2.812        0.002      335.512        6.194      859.986
12/07/2021  01:52:00       63.883       28.103       -7.964        8.180        8.992        6.661       66.904       80.858       44.365        0.256        0.010       69.792        3.628        0.003      335.496        6.168      859.982
12/07/2021  01:53:00       71.519       51.779      -10.792        5.493        7.965        5.683       30.176       63.437       32.300        0.402        0.006       88.295        2.886        0.001      335.497        6.169      859.983
12/07/2021  01:54:00       76.604       47.369       -7.517       11.458       10.855       11.439      131.282      117.835      130.852        0.427        0.019       90.067        8.016        0.008      335.470        6.126      859.980
12/07/2021  01:55:00       76.023       49.252       -7.818       11.556       11.982        8.860      133.550      143.564       78.493        0.431        0.018       90.583        6.799        0.006      335.456        6.102      859.977
12/07/2021  01:56:00       78.132       39.070       -8.217       13.412       10.210        6.448      179.877      104.236       41.581        0.401        0.016       87.356        4.240        0.002      335.433        6.064      859.972
12/07/2021  01:57:00       73.572       22.808       -9.369       11.291       12.495        6.865      127.483      156.131       47.126        0.318        0.017       77.026        4.375        0.003      335.418        6.036      859.970
12/07/2021  01:58:00       69.878       16.872       -9.272        8.154        7.721        6.317       66.483       59.618       39.909        0.271        0.008       71.885        4.900        0.005      335.400        6.010      859.970
12/07/2021  01:59:00       75.245       35.542      -23.557       18.465       21.712       13.790      340.944      471.427      190.164        0.424        0.050       83.217        8.703        0.011      335.476        6.135      859.966
12/07/2021  02:00:00       82.928       33.104      -24.798        7.073        9.506        8.699       50.026       90.366       75.678        0.440        0.011       89.291        4.793        0.003      335.411        6.026      859.968
12/07/2021  02:01:00       69.639       12.966      -10.289       10.913        8.917        9.999      119.097       79.518       99.989        0.271        0.015       70.836        7.897        0.012      335.389        5.991      859.981
12/07/2021  02:02:00       47.734       13.849      -15.417       12.017        8.353        8.133      144.402       69.771       66.143        0.149        0.014       49.703        3.628        0.005      335.381        5.976      859.988
12/07/2021  02:03:00       29.733        9.411      -10.106        8.171        8.431        7.075       66.762       71.075       50.060        0.063        0.009       31.187        4.957        0.025      335.391        5.990      860.004
12/07/2021  02:04:00       39.575        5.627       -9.257       12.654        9.869        5.762      160.124       97.391       33.203        0.099        0.015       39.973        2.607        0.004      335.429        6.057      860.012
12/07/2021  02:05:00       46.153        3.774       -7.065       13.667       11.036        9.039      186.779      121.783       81.704        0.129        0.020       46.307        7.924        0.029      335.482        6.148      860.018
12/07/2021  02:06:00       55.367       19.438       -7.303       10.691        9.246        7.084      114.292       85.490       50.189        0.187        0.012       58.680        6.479        0.012      335.478        6.140      860.017
12/07/2021  02:07:00       44.079       13.252       -8.776       13.142       13.194        9.364      172.710      174.092       87.688        0.131        0.022       46.028        6.020        0.017      335.507        6.187      860.016
12/07/2021  02:08:00       40.139        0.221      -11.654       15.918       13.498        6.659      253.378      182.191       44.346        0.111        0.024       40.140        4.683        0.014      335.493        6.165      860.024
12/07/2021  02:09:00       51.032        3.028       -8.720       27.173       14.164       11.019      738.357      200.620      121.425        0.187        0.053       51.122       12.788        0.063      335.512        6.198      860.024
12/07/2021  02:10:00       78.331       41.953      -17.377       16.207       22.232        8.306      262.651      494.266       68.990        0.451        0.041       88.858        8.418        0.009      335.477        6.139      860.024
12/07/2021  02:11:00       83.229       58.214      -25.406       20.774       18.128       17.456      431.552      328.615      304.703        0.601        0.053      101.568        8.155        0.006      335.490        6.158      860.031
12/07/2021  02:12:00       82.775       43.867      -20.789       14.237       16.858       10.861      202.687      284.192      117.951        0.491        0.030       93.680        5.760        0.004      335.438        6.072      860.029
12/07/2021  02:13:00       73.036       20.017      -14.095       12.867       12.933       10.938      165.571      167.274      119.648        0.319        0.023       75.729        6.424        0.007      335.446        6.085      860.025
12/07/2021  02:14:00       65.518       20.529      -14.684       17.443       15.246        7.773      304.276      232.444       60.423        0.276        0.030       68.659        4.096        0.004      335.442        6.079      860.029
12/07/2021  02:15:00       64.966       15.913       -9.138        9.536       11.209        6.059       90.927      125.637       36.714        0.241        0.013       66.886        3.235        0.002      335.412        6.031      860.036
12/07/2021  02:16:00       62.285       18.061      -10.727        6.326        6.701        4.090       40.025       44.901       16.731        0.221        0.005       64.851        1.582        0.001      335.424        6.051      860.040
12/07/2021  02:17:00       29.761       19.261       -9.475       17.106        6.433        5.470      292.605       41.386       29.925        0.086        0.018       35.450        3.141        0.008      335.403        6.013      860.045
12/07/2021  02:18:00       24.322       19.259       -9.634       15.543        7.884        9.805      241.586       62.156       96.138        0.073        0.020       31.023        7.328        0.056      335.435        6.067      860.041
12/07/2021  02:19:00       45.855       26.440       -6.709       17.555       13.988       10.295      308.184      195.653      105.986        0.173        0.030       52.932        9.333        0.031      335.463        6.117      860.035
12/07/2021  02:20:00       46.902       26.268       -8.327       20.281       18.606       12.449      411.317      346.190      154.988        0.194        0.046       53.757       11.741        0.048      335.456        6.105      860.021
12/07/2021  02:21:00       61.350       40.032      -12.017       13.000       13.310       11.215      168.999      177.153      125.777        0.299        0.024       73.256        7.154        0.010      335.458        6.107      860.000
12/07/2021  02:22:00       56.503       41.607      -16.895       20.213       12.223       11.687      408.582      149.397      136.582        0.295        0.035       70.169        8.528        0.015      335.446        6.084      859.982
12/07/2021  02:23:00       33.742       28.774       -5.975       17.893       11.696       12.071      320.174      136.803      145.700        0.130        0.030       44.345        9.005        0.041      335.446        6.082      859.957
12/07/2021  02:24:00       19.028       19.432       -3.650       14.887       15.043       11.821      221.635      226.305      139.747        0.067        0.029       27.197        8.759        0.104      335.456        6.103      859.941
12/07/2021  02:25:00       41.395       32.183      -12.078       17.181       21.439       17.295      295.183      459.639      299.100        0.197        0.053       52.434        9.581        0.033      335.466        6.120      859.930
12/07/2021  02:26:00       33.641       53.196        0.264       19.871       21.658       15.798      394.851      469.050      249.592        0.254        0.056       62.941       11.491        0.033      335.567        6.288      859.926
12/07/2021  02:27:00       28.737       39.866       -2.115       19.163       26.768       17.083      367.209      716.542      291.824        0.190        0.069       49.144        8.220        0.028      335.549        6.258      859.932
12/07/2021  02:28:00      -20.052       35.457      -11.301       25.636       14.233       17.831      657.179      202.566      317.947        0.148        0.059       40.734       11.547        0.080      335.558        6.270      859.933
12/07/2021  02:29:00      -34.275        3.513       -3.818       21.656       13.067       10.217      468.974      170.755      104.394        0.097        0.037       34.454       10.849        0.099      335.614        6.365      859.937
12/07/2021  02:30:00      -31.052        9.333       -7.600       19.847       11.511        8.529      393.899      132.508       72.744        0.085        0.030       32.424        3.541        0.012      335.590        6.326      859.933
12/07/2021  02:31:00      -37.347       11.943       -6.790       23.426       14.545       14.651      548.793      211.549      214.645        0.128        0.049       39.210       14.011        0.128      335.616        6.369      859.923
12/07/2021  02:32:00      -67.969        9.800      -12.516       30.396       12.932       15.168      923.904      167.234      230.077        0.310        0.066       68.672       15.887        0.054      335.638        6.403      859.909
12/07/2021  02:33:00      -72.589       14.859      -12.054       24.350       17.543       15.727      592.916      307.748      247.328        0.339        0.057       74.095       12.457        0.028      335.623        6.380      859.904
12/07/2021  02:34:00      -73.699       28.201      -14.440       21.584       19.074       14.097      465.852      363.804      198.732        0.373        0.051       78.910        7.561        0.009      335.597        6.337      859.899
12/07/2021  02:35:00      -85.724       23.401      -22.199       22.740       14.992       14.841      517.125      224.754      220.258        0.468        0.048       88.861       11.670        0.017      335.564        6.281      859.893
12/07/2021  02:36:00      -87.517       23.784      -16.177       26.460       13.142       13.674      700.107      172.717      186.983        0.477        0.053       90.691       14.747        0.026      335.567        6.287      859.897
12/07/2021  02:37:00      -81.642       24.236      -17.200       13.612       15.883       12.090      185.293      252.268      146.169        0.407        0.029       85.163        8.133        0.009      335.537        6.238      859.903
12/07/2021  02:38:00      -61.608        9.830      -15.919       14.167        9.906        7.663      200.694       98.131       58.727        0.225        0.018       62.387        5.225        0.007      335.479        6.141      859.909
12/07/2021  02:39:00      -13.374        1.102       -4.987       23.338       10.403       11.247      544.675      108.223      126.493        0.049        0.039       13.419       12.736        0.901      335.603        6.349      859.911
12/07/2021  02:40:00      -36.030        3.767      -13.746       35.027       18.572       12.486     1226.920      344.919      155.895        0.161        0.086       36.227        5.653        0.024      335.585        6.316      859.908
12/07/2021  02:41:00       -1.915        3.183       -0.997       32.333       15.225       16.302     1045.436      231.811      265.769        0.078        0.077        3.714       15.143       16.619      335.561        6.277      859.903
12/07/2021  02:42:00      -60.017       18.590      -10.694        8.264        9.167       10.463       68.287       84.043      109.476        0.216        0.013       62.831        5.839        0.009      335.522        6.211      859.899
12/07/2021  02:43:00      -51.841       -0.299      -11.726       11.451       14.665        8.038      131.125      215.057       64.609        0.162        0.021       51.841        4.080        0.006      335.641        6.409      859.894
12/07/2021  02:44:00      -23.358       -5.304       -3.583       14.397       12.127       10.710      207.277      147.070      114.701        0.053        0.023       23.953        4.631        0.037      335.650        6.423      859.884
12/07/2021  02:45:00      -26.563       -0.168       -7.742        9.943       11.787       10.078       98.871      138.924      101.573        0.055        0.017       26.563        5.782        0.047      335.673        6.463      859.880
12/07/2021  02:46:00       -7.062        1.138       -0.491       23.402       14.734        9.870      547.660      217.080       97.415        0.046        0.043        7.153        9.348        1.708      335.638        6.404      859.871
12/07/2021  02:47:00      -36.405       10.485       -7.227       12.020        9.299        8.971      144.470       86.476       80.487        0.090        0.016       37.885        7.331        0.037      335.633        6.393      859.855
12/07/2021  02:48:00       -9.292       -3.310        7.830       10.639       10.490        9.651      113.195      110.031       93.150        0.024        0.016        9.864        7.649        0.601      335.714        6.531      859.851
12/07/2021  02:49:00      -46.985       10.591       -5.608       24.673       17.016       14.791      608.759      289.543      218.780        0.173        0.056       48.164       10.101        0.044      335.687        6.486      859.851
12/07/2021  02:50:00      -34.654       11.625       -8.829       21.933       14.962       12.028      481.068      223.874      144.685        0.113        0.042       36.551       11.679        0.102      335.722        6.545      859.853
12/07/2021  02:51:00      -14.875       31.501       -9.291       26.393       32.361       13.036      696.598     1047.258      169.938        0.161        0.096       34.837        9.186        0.070      335.755        6.600      859.860
12/07/2021  02:52:00      -48.692        5.724       -7.821       23.018       24.470       17.091      529.839      598.771      292.108        0.194        0.071       49.027       12.518        0.065      335.753        6.595      859.866
12/07/2021  02:53:00      -14.627        9.011       -4.972       24.028       11.653       10.205      577.326      135.785      104.139        0.057        0.041       17.180        7.331        0.182      335.746        6.586      859.864
12/07/2021  02:54:00      -10.525       10.335       -4.220       13.185       15.774        9.289      173.838      248.818       86.280        0.037        0.025       14.751        6.248        0.179      335.701        6.509      859.853
12/07/2021  02:55:00       11.695       53.133      -11.880       17.357       25.939       11.901      301.269      672.817      141.623        0.211        0.056       54.405        8.831        0.026      335.741        6.577      859.835
12/07/2021  02:56:00       -9.578       57.138      -11.140       20.735       31.833       19.337      429.920     1013.356      373.909        0.265        0.091       57.935        8.802        0.023      335.828        6.722      859.819
12/07/2021  02:57:00        9.333       65.597       -9.538       30.576       30.888       14.906      934.910      954.049      222.186        0.330        0.106       66.258       14.676        0.049      335.758        6.605      859.808
12/07/2021  02:58:00       54.700       23.070      -10.976       12.177       11.237        7.888      148.275      126.272       62.221        0.199        0.017       59.366        3.839        0.004      335.642        6.410      859.797
12/07/2021  02:59:00       29.376       12.225       -2.775       13.168       12.009       12.165      173.390      144.225      147.980        0.074        0.023       31.819        8.279        0.068      335.659        6.438      859.792
12/07/2021  03:00:00       20.017       -3.119       -7.389       14.036       14.412        9.365      197.007      207.717       87.694        0.048        0.025       20.258        5.397        0.071      335.682        6.477      859.788
12/07/2021  03:01:00       23.969       14.282       -6.526       11.414       18.314        9.760      130.283      335.386       95.260        0.069        0.028       27.902        5.374        0.037      335.656        6.433      859.786
12/07/2021  03:02:00       15.661       14.422        3.833       21.793       20.724       14.912      474.913      429.491      222.381        0.080        0.056       21.291       14.059        0.436      335.680        6.475      859.783
12/07/2021  03:03:00       31.382       67.298      -12.587       27.347       42.394       22.527      747.874     1797.256      507.484        0.436        0.153       74.255       25.020        0.114      335.745        6.582      859.780
12/07/2021  03:04:00       59.025       55.287      -12.381       23.004       34.800       18.575      529.164     1211.009      345.043        0.439        0.104       80.874       12.789        0.025      335.672        6.462      859.781
12/07/2021  03:05:00       17.221       35.031       -3.661       21.883       21.292       14.674      478.863      453.365      215.333        0.134        0.057       39.035        7.664        0.039      335.737        6.568      859.779
12/07/2021  03:06:00       41.733       65.725        0.332       23.973       33.354       18.124      574.682     1112.478      328.496        0.404        0.101       77.855       14.995        0.037      335.734        6.564      859.767
12/07/2021  03:07:00       56.744       39.644      -17.949       25.432       20.741       20.469      646.795      430.184      418.967        0.330        0.075       69.221       11.198        0.026      335.725        6.548      859.769
12/07/2021  03:08:00       62.670       27.640      -32.929       22.063       24.506       18.110      486.788      600.529      327.981        0.360        0.071       68.495        9.177        0.018      335.673        6.464      859.776
12/07/2021  03:09:00       23.466        2.333      -11.481       25.528       21.237       22.779      651.701      450.999      518.877        0.115        0.081       23.582       15.294        0.421      335.710        6.524      859.785
12/07/2021  03:10:00       29.007       27.011      -13.811       35.559       21.280       12.004     1264.477      452.835      144.098        0.181        0.093       39.635        6.491        0.027      335.612        6.362      859.796
12/07/2021  03:11:00       35.507       14.723      -10.716       20.159       20.305       13.162      406.366      412.274      173.246        0.129        0.050       38.439        6.963        0.033      335.643        6.413      859.801
12/07/2021  03:12:00       12.086       14.717       -5.600       19.084       21.050       14.309      364.183      443.091      204.734        0.070        0.051       19.044       11.102        0.340      335.624        6.382      859.811
12/07/2021  03:13:00       18.280        5.682       -4.417       19.814       21.183       18.476      392.590      448.706      341.374        0.078        0.059       19.143       12.009        0.394      335.592        6.328      859.817
12/07/2021  03:14:00       49.820       12.558       -8.580       30.612       22.201       17.335      937.090      492.901      300.512        0.222        0.087       51.379       13.327        0.067      335.574        6.299      859.821
12/07/2021  03:15:00       85.149       26.993       -6.312       18.731       18.771       11.526      350.851      352.335      132.840        0.443        0.042       89.325       11.240        0.016      335.595        6.333      859.820
12/07/2021  03:16:00       80.809       22.731      -10.119       20.336       19.751        9.775      413.562      390.095       95.544        0.402        0.045       83.945        7.433        0.008      335.620        6.374      859.817
12/07/2021  03:17:00       86.712       38.404      -14.020       37.553       26.193       18.118     1410.217      686.082      328.245        0.581        0.121       94.836       16.106        0.029      335.710        6.524      859.813
12/07/2021  03:18:00       47.826       38.758      -13.850       34.094       40.819       30.267     1162.403     1666.198      916.064        0.386        0.187       61.559       25.015        0.165      335.720        6.541      859.806
12/07/2021  03:19:00       41.387       19.813        6.069       42.098       33.205       27.100     1772.219     1102.594      734.414        0.288        0.180       45.885       13.685        0.089      335.624        6.382      859.813
12/07/2021  03:20:00       44.051       18.930      -14.425       30.132       42.658       21.594      907.940     1819.710      466.308        0.285        0.160       47.946       12.029        0.063      335.556        6.270      859.827
12/07/2021  03:21:00       43.343       23.123      -21.534       23.728       30.960       18.470      563.038      958.500      341.142        0.237        0.093       49.125        6.302        0.016      335.570        6.293      859.849
12/07/2021  03:22:00       45.209       52.396      -17.959       35.508       37.418       23.211     1260.834     1400.122      538.769        0.416        0.160       69.204       12.832        0.034      335.507        6.187      859.875
12/07/2021  03:23:00       93.220       39.450      -18.393       37.343       28.370       15.774     1394.484      804.866      248.817        0.652        0.122      101.224       13.043        0.017      335.408        6.020      859.891
12/07/2021  03:24:00       72.188       55.097      -21.354       28.759       30.208       21.304      827.051      912.533      453.847        0.545        0.110       90.812       10.952        0.015      335.435        6.067      859.902
12/07/2021  03:25:00       27.651       36.371      -13.990       39.703       40.277       30.846     1576.344     1622.267      951.452        0.322        0.208       45.689       23.838        0.272      335.513        6.198      859.895
12/07/2021  03:26:00      -24.516        3.181       -8.030       19.941       24.440       19.815      397.655      597.320      392.632        0.103        0.069       24.721       15.552        0.396      335.617        6.369      859.887
12/07/2021  03:27:00      -34.415       -5.443      -16.864       28.222       36.727       16.433      796.460     1348.896      270.046        0.196        0.121       34.842        8.372        0.058      335.623        6.379      859.880
12/07/2021  03:28:00      -33.847       -2.852      -14.068       31.898       25.361       34.918     1017.455      643.166     1219.254        0.212        0.144       33.967       23.543        0.480      335.589        6.322      859.866
12/07/2021  03:29:00      -49.305        9.768        8.497       23.294       36.997       26.023      542.631     1368.807      677.204        0.259        0.129       50.263       17.151        0.116      335.679        6.473      859.867
12/07/2021  03:30:00      -26.610       14.276       -3.111       31.216       32.898       21.869      974.437     1082.276      478.233        0.173        0.127       30.197       17.144        0.322      335.603        6.347      859.883
12/07/2021  03:31:00       22.274       33.079       -6.587       33.755       23.467       23.071     1139.399      550.704      532.251        0.193        0.111       39.879       16.449        0.170      335.500        6.176      859.908
12/07/2021  03:32:00       24.897       18.563        5.306       42.617       26.284       20.392     1816.204      690.853      415.844        0.196        0.146       31.056       16.138        0.270      335.498        6.173      859.929
12/07/2021  03:33:00        8.284       21.471       -3.626       33.872       37.711       18.841     1147.320     1422.082      354.966        0.173        0.146       23.013       16.873        0.538      335.514        6.199      859.952
12/07/2021  03:34:00       75.655       54.300      -14.677       31.263       39.888       20.869      977.348     1591.085      435.517        0.595        0.150       93.124       12.384        0.018      335.533        6.232      859.952
12/07/2021  03:35:00       56.592       27.452      -17.154       29.022       41.007       25.926      842.274     1681.588      672.165        0.372        0.160       62.899       16.009        0.065      335.550        6.258      859.952
12/07/2021  03:36:00       61.560       71.293       -6.532       39.523       41.454       30.550     1562.030     1718.455      933.322        0.656        0.211       94.194       19.837        0.044      335.510        6.192      859.939
12/07/2021  03:37:00       75.788       64.550      -19.606       37.605       33.854       25.100     1414.162     1146.118      630.001        0.674        0.160       99.551       18.519        0.035      335.514        6.199      859.936
12/07/2021  03:38:00       42.951       34.707      -33.030       34.803       55.076       31.273     1211.254     3033.312      977.982        0.468        0.261       55.221       29.806        0.291      335.539        6.240      859.942
12/07/2021  03:39:00       18.455       -8.325      -26.174       19.541       25.295       19.068      381.848      639.855      363.597        0.124        0.069       20.246       10.630        0.276      335.636        6.404      859.968
12/07/2021  03:40:00        5.090      -13.520      -18.110       22.813       22.697       19.652      520.446      515.146      386.183        0.098        0.071       14.446        9.793        0.460      335.684        6.481      860.003
12/07/2021  03:41:00       10.835       15.248      -16.580       15.466       26.210       15.045      239.199      686.977      226.355        0.089        0.058       18.706       10.386        0.308      335.610        6.358      860.048
12/07/2021  03:42:00      -11.582       -9.676       -4.942       11.257       13.578        9.511      126.730      184.369       90.467        0.033        0.020       15.091        5.137        0.116      335.674        6.463      860.088
12/07/2021  03:43:00       -6.292       -2.517       -3.022       15.511       15.270       14.268      240.605      233.185      203.581        0.037        0.034        6.777        8.585        1.605      335.642        6.410      860.108
12/07/2021  03:44:00       35.405       21.018       -4.117       29.990       13.925        7.923      899.382      193.912       62.776        0.143        0.058       41.174       10.899        0.070      335.629        6.389      860.113
12/07/2021  03:45:00       70.603       36.555       -9.565       11.508        5.435        4.571      132.428       29.542       20.890        0.330        0.009       79.505        3.740        0.002      335.662        6.442      860.105
12/07/2021  03:46:00       81.185       23.492      -13.494       11.049        7.792        9.959      122.076       60.710       99.176        0.380        0.014       84.516        4.262        0.003      335.647        6.419      860.079
12/07/2021  03:47:00       51.967       14.719      -13.293       23.531       16.533       13.253      553.727      273.355      175.647        0.205        0.050       54.011        5.779        0.011      335.652        6.426      860.053
12/07/2021  03:48:00       24.224        3.035      -21.289       26.584       26.072       16.737      706.698      679.770      280.125        0.136        0.083       24.413       10.713        0.193      335.688        6.487      860.022
12/07/2021  03:49:00      -31.810      -22.335       -2.423       31.907       14.640       20.996     1018.077      214.327      440.822        0.159        0.084       38.868        9.262        0.057      335.750        6.589      859.992
12/07/2021  03:50:00        8.275      -51.279      -16.036       21.601       25.328       19.536      466.590      641.518      381.668        0.222        0.074       51.942       15.185        0.085      335.805        6.685      859.971
12/07/2021  03:51:00      -10.393      -15.868       -7.105       23.089       26.549       21.863      533.122      704.867      477.978        0.106        0.086       18.969       20.557        1.175      335.815        6.700      859.949
12/07/2021  03:52:00       -2.081      -13.528       -7.965       13.319       13.089       16.181      177.394      171.315      261.837        0.043        0.031       13.687        7.238        0.280      335.786        6.652      859.929
12/07/2021  03:53:00      -19.857       14.313       -0.730       23.876       12.722       11.221      570.077      161.838      125.917        0.073        0.043       24.478        8.193        0.112      335.730        6.558      859.913
12/07/2021  03:54:00      -35.039       -8.735       -3.898       15.523        8.702       10.464      240.951       75.722      109.492        0.087        0.021       36.111        7.058        0.038      335.759        6.607      859.896
12/07/2021  03:55:00      -13.368       -6.524      -13.871       11.532        7.596       11.270      132.983       57.705      127.018        0.037        0.016       14.875        5.257        0.125      335.802        6.678      859.876
12/07/2021  03:56:00      -30.864       -9.222       -8.688       20.113        9.504       16.405      404.553       90.330      269.117        0.094        0.038       32.212       10.434        0.105      335.934        6.898      859.867
12/07/2021  03:57:00      -29.229      -31.681      -10.959       16.535       15.463       15.162      273.406      239.109      229.877        0.136        0.037       43.105       10.580        0.060      335.894        6.831      859.859
12/07/2021  03:58:00      -31.088       -5.844      -10.768       11.003       13.133       11.486      121.056      172.485      131.919        0.077        0.021       31.632        8.292        0.069      335.899        6.841      859.853
12/07/2021  03:59:00      -19.798        2.503       -3.897       11.386        9.698        7.950      129.652       94.052       63.201        0.035        0.014       19.956        4.916        0.061      335.891        6.826      859.855
12/07/2021  04:00:00       -0.637       -4.894      -11.759       13.329        9.360        7.505      177.651       87.608       56.323        0.024        0.016        4.935        6.028        1.492      335.884        6.816      859.856
12/07/2021  04:01:00      -19.155       11.986       -8.006       10.051       12.958       10.067      101.020      167.900      101.338        0.047        0.019       22.596        6.737        0.089      335.879        6.808      859.857
12/07/2021  04:02:00       -4.182       14.310       -0.408       10.678       10.062        5.614      114.011      101.241       31.518        0.023        0.012       14.908        4.961        0.111      335.897        6.838      859.855
12/07/2021  04:03:00      -10.438       -0.895       -2.154       10.287       18.421       10.458      105.815      339.317      109.378        0.033        0.028       10.476        7.426        0.502      335.868        6.788      859.854
12/07/2021  04:04:00       -7.571        2.657      -10.871        8.430        4.404        5.279       71.060       19.394       27.870        0.015        0.006        8.023        2.130        0.070      335.838        6.738      859.852
12/07/2021  04:05:00       -3.375       -6.413       -6.717        5.938       12.486        5.126       35.264      155.896       26.280        0.016        0.011        7.247        2.994        0.171      335.875        6.800      859.853
12/07/2021  04:06:00       -2.716      -21.042       -8.861        5.763       12.008        9.043       33.216      144.204       81.769        0.039        0.013       21.216        5.226        0.061      335.810        6.690      859.856
12/07/2021  04:07:00       -9.151       -4.591       -6.227       18.123       14.187        8.847      328.450      201.271       78.265        0.038        0.030       10.238        4.426        0.187      335.814        6.697      859.861
12/07/2021  04:08:00      -24.787       -9.482       -8.163        8.232        9.044        7.077       67.760       81.786       50.087        0.049        0.010       26.539        3.384        0.016      335.735        6.567      859.861
12/07/2021  04:09:00      -28.803      -16.357       -4.173       11.779        9.352        9.342      138.739       87.455       87.281        0.071        0.016       33.124        6.756        0.042      335.866        6.784      859.867
12/07/2021  04:10:00      -35.962      -13.611      -13.083       14.520        8.515       10.671      210.832       72.497      113.862        0.102        0.020       38.452        5.239        0.019      335.857        6.771      859.868
12/07/2021  04:11:00      -17.373      -20.035       -8.531       10.971        5.715        7.170      120.355       32.659       51.404        0.049        0.010       26.518        3.589        0.018      335.896        6.838      859.866
12/07/2021  04:12:00      -26.566      -17.299      -12.208       11.992        8.932        7.999      143.819       79.789       63.978        0.072        0.014       31.702        2.262        0.005      335.897        6.837      859.867
12/07/2021  04:13:00      -14.357      -13.091       -6.540       11.584       10.668        9.115      134.184      113.809       83.077        0.038        0.017       19.429        7.545        0.151      335.958        6.940      859.870
12/07/2021  04:14:00      -20.815       -9.270       -3.678       12.608       12.969        7.267      158.964      168.203       52.804        0.046        0.019       22.785        6.304        0.077      335.959        6.939      859.873
12/07/2021  04:15:00      -10.270       11.785       -0.933       10.602        7.383        8.833      112.400       54.516       78.014        0.025        0.012       15.632        4.605        0.087      335.891        6.827      859.887
12/07/2021  04:16:00      -10.101       -7.155       -2.911       12.374        6.155        9.884      153.111       37.878       97.693        0.023        0.014       12.378        7.849        0.402      335.948        6.922      859.896
12/07/2021  04:17:00       -9.992       -4.784       -6.594        7.567        8.927        7.746       57.261       79.691       60.000        0.018        0.010       11.078        4.879        0.194      336.055        7.100      859.917
12/07/2021  04:18:00      -11.842       -7.749       -9.847        9.735        9.585        8.922       94.771       91.864       79.604        0.028        0.013       14.152        5.755        0.165      335.932        6.897      859.941
12/07/2021  04:19:00        8.461        2.591       -1.519       13.495        7.941        7.201      182.122       63.056       51.855        0.019        0.015        8.849        3.659        0.171      335.905        6.850      859.959
12/07/2021  04:20:00        6.286        4.797        2.000       13.168        7.454        7.887      173.407       55.556       62.210        0.018        0.015        7.908        6.566        0.689      335.860        6.774      859.978
12/07/2021  04:21:00        3.318       19.538      -12.500        8.000        8.608        7.843       63.993       74.106       61.510        0.037        0.010       19.818        4.314        0.047      335.770        6.623      859.990
12/07/2021  04:22:00        9.270       12.242      -18.796        8.199        7.714       12.558       67.224       59.501      157.695        0.044        0.014       15.356        6.862        0.200      335.734        6.563      859.999
12/07/2021  04:23:00       20.296       10.725       -8.505        6.533        4.501        6.313       42.675       20.260       39.857        0.035        0.005       22.955        3.094        0.018      335.713        6.528      859.989
12/07/2021  04:24:00       -1.596        5.470       -0.678        8.842        7.699        4.113       78.183       59.274       16.917        0.009        0.008        5.698        2.028        0.127      335.739        6.576      859.986
12/07/2021  04:25:00      -29.792      -16.720       -5.699       32.250       19.469       10.264     1040.081      379.052      105.352        0.136        0.076       34.163       12.675        0.138      335.754        6.597      859.976
12/07/2021  04:26:00      -64.081      -13.461      -10.717       19.712       21.394       19.257      388.571      457.695      370.847        0.281        0.061       65.479       12.807        0.038      335.702        6.510      859.975
12/07/2021  04:27:00      -26.176        3.143       -5.137       26.941        9.059       15.001      725.824       82.059      225.033        0.088        0.052       26.364       14.988        0.323      335.724        6.549      859.966
12/07/2021  04:28:00      -59.143      -21.839      -12.691       38.927       22.522       14.325     1515.299      507.222      205.211        0.318        0.111       63.046       13.677        0.047      335.713        6.530      859.960
12/07/2021  04:29:00      -70.825       -9.427      -10.775       33.340       32.635       21.812     1111.563     1065.054      475.775        0.394        0.133       71.450        5.872        0.007      335.671        6.458      859.962
12/07/2021  04:30:00     -110.967      -20.172      -16.291       28.372       22.683       17.845      804.944      514.504      318.447        0.731        0.082      112.785       15.214        0.018      335.633        6.397      859.968
12/07/2021  04:31:00     -117.818       26.651       -1.752       38.565       23.838       24.698     1487.270      568.231      610.000        0.863        0.133      120.795       20.931        0.030      335.596        6.334      859.976
12/07/2021  04:32:00      -95.207       51.618       -8.866       50.124       23.293       21.869     2512.393      542.575      478.265        0.767        0.177      108.299       19.015        0.031      335.505        6.183      859.986
12/07/2021  04:33:00      -73.357       -7.014      -13.766       30.212       33.958       21.078      912.787     1153.151      444.298        0.406        0.126       73.692        8.856        0.014      335.560        6.274      859.999
12/07/2021  04:34:00      -71.006       35.031        2.800       48.124       38.050       23.034     2315.915     1447.807      530.549        0.528        0.215       79.177       16.912        0.046      335.494        6.167      860.011
12/07/2021  04:35:00      -45.742       20.781        4.863       54.246       40.274       20.432     2942.578     1621.958      417.454        0.376        0.249       50.241       17.090        0.116      335.508        6.189      860.028
12/07/2021  04:36:00      -86.867      -13.828       -0.287       47.467       28.922       25.983     2253.163      836.492      675.133        0.575        0.188       87.961       27.299        0.096      335.571        6.293      860.040
12/07/2021  04:37:00     -101.426       -5.968        2.045       78.908       32.015       32.117     6226.406     1024.985     1031.493        0.930        0.414      101.601       37.212        0.134      335.556        6.269      860.055
12/07/2021  04:38:00      -68.403       15.669       -5.117       67.651       34.196       24.192     4576.677     1169.348      585.256        0.564        0.317       70.175       30.596        0.190      335.491        6.162      860.073
12/07/2021  04:39:00      -49.247       19.760       -2.215       24.728       22.405       21.763      611.453      501.968      473.618        0.220        0.079       53.063       13.701        0.067      335.557        6.271      860.089
12/07/2021  04:40:00      -82.666       -3.583       -2.866       62.333       25.698       23.618     3885.356      660.381      557.833        0.598        0.255       82.744       24.385        0.087      335.539        6.242      860.102
12/07/2021  04:41:00     -108.977      -10.999      -12.625       40.033       28.003       23.624     1602.673      784.184      558.106        0.755        0.147      109.530       22.563        0.042      335.540        6.244      860.119
12/07/2021  04:42:00      -71.714       41.845       -5.765       35.348       33.912       16.675     1249.512     1149.995      278.058        0.480        0.134       83.029       17.412        0.044      335.555        6.268      860.133
12/07/2021  04:43:00      -37.902       44.886       -9.278       14.937       19.511       11.787      223.111      380.682      138.944        0.214        0.037       58.748        6.875        0.014      335.511        6.192      860.146
12/07/2021  04:44:00      -72.930       12.824      -15.196       20.553       25.692       16.175      422.413      660.077      261.621        0.353        0.067       74.049       13.210        0.032      335.526        6.218      860.152
12/07/2021  04:45:00      -41.896       -2.645       -7.155       24.949       24.851       17.258      622.453      617.579      297.825        0.168        0.077       41.980       13.511        0.104      335.700        6.507      860.147
12/07/2021  04:46:00      -67.381      -13.329       -2.204       17.491       39.020       15.621      305.940     1522.537      244.014        0.340        0.104       68.686       12.000        0.031      335.616        6.367      860.111
12/07/2021  04:47:00      -37.146        6.328       -5.268       23.091       16.086       12.468      533.183      258.769      155.444        0.120        0.047       37.682        4.818        0.016      335.599        6.341      860.116
12/07/2021  04:48:00      -36.365       27.892       -6.832       17.430       10.270       10.571      303.808      105.473      111.737        0.133        0.026       45.830        9.662        0.044      335.551        6.261      860.127
12/07/2021  04:49:00      -29.774        2.553       -9.256       27.609       16.688       13.336      762.250      278.492      177.848        0.110        0.061       29.884       13.269        0.197      335.614        6.364      860.134
12/07/2021  04:50:00      -54.184       14.395       -8.202       27.477       22.689       11.791      754.996      514.812      139.029        0.231        0.070       56.064        7.635        0.019      335.566        6.285      860.146
12/07/2021  04:51:00      -78.226       22.644       -8.715       36.950       22.359       16.842     1365.304      499.915      283.656        0.443        0.107       81.437       14.767        0.033      335.611        6.359      860.157
12/07/2021  04:52:00     -105.025       20.221       -0.954       39.385       31.707       23.568     1551.178     1005.343      555.452        0.728        0.156      106.954       22.266        0.043      335.584        6.314      860.173
12/07/2021  04:53:00      -79.832       16.194       -0.896       33.425       27.646       19.302     1117.242      764.299      372.552        0.444        0.113       81.458       18.232        0.050      335.608        6.355      860.193
12/07/2021  04:54:00      -91.842       21.695       -3.803       34.571       27.589       19.235     1195.123      761.169      369.988        0.562        0.116       94.370       16.063        0.029      335.595        6.330      860.210
12/07/2021  04:55:00     -109.659       30.055       -1.098       34.580       22.259       18.813     1195.762      495.470      353.921        0.749        0.102      113.703       14.850        0.017      335.587        6.319      860.216
12/07/2021  04:56:00      -77.121       38.694      -11.163       36.082       31.003       18.895     1301.904      961.194      357.033        0.509        0.131       86.283       12.314        0.020      335.611        6.357      860.225
12/07/2021  04:57:00      -51.093       14.581        0.977       36.177       26.361       19.335     1308.743      694.904      373.827        0.260        0.119       53.133       18.550        0.122      335.609        6.357      860.236
12/07/2021  04:58:00      -43.852       18.271       -3.880       45.229       22.782       14.542     2045.662      519.040      211.479        0.252        0.139       47.506       14.372        0.092      335.649        6.424      860.246
12/07/2021  04:59:00      -81.908       35.754        0.305       33.068       21.771       21.468     1093.516      473.994      460.872        0.501        0.101       89.371       20.765        0.054      335.604        6.349      860.255
12/07/2021  05:00:00      -90.120       24.738       -5.430       32.110       22.818       13.581     1031.060      520.640      184.449        0.525        0.087       93.454        9.540        0.010      335.603        6.351      860.265
12/07/2021  05:01:00      -53.501       35.921       -9.515       13.534       15.644       10.251      183.179      244.739      105.080        0.239        0.027       64.441        7.180        0.012      335.624        6.383      860.279
12/07/2021  05:02:00      -53.717       11.989      -10.014       17.661       16.140       12.831      311.896      260.515      164.631        0.193        0.037       55.038        8.885        0.026      335.614        6.364      860.290
12/07/2021  05:03:00      -64.374       24.252      -11.930       18.039       11.886       14.474      325.417      141.281      209.483        0.278        0.034       68.791       11.157        0.026      335.587        6.320      860.314
12/07/2021  05:04:00      -73.398       25.646       -1.237       36.486       22.264       18.014     1331.244      495.675      324.502        0.410        0.108       77.749       16.926        0.047      335.567        6.285      860.323
12/07/2021  05:05:00     -102.221       47.259      -14.041       23.787       14.708       15.519      565.834      216.337      240.852        0.695        0.051      112.616       12.138        0.012      335.592        6.327      860.331
12/07/2021  05:06:00      -75.241       34.583       -5.315       24.212       23.183       19.894      586.222      537.431      395.775        0.420        0.076       82.808       12.777        0.024      335.609        6.357      860.338
12/07/2021  05:07:00     -112.100       40.741       -6.390       24.618       18.028       15.232      606.051      325.005      232.017        0.771        0.058      119.273       12.933        0.012      335.575        6.299      860.346
12/07/2021  05:08:00      -90.715       30.504       -5.351       38.006       25.856       20.803     1444.424      668.528      432.776        0.587        0.127       95.706       19.764        0.043      335.604        6.346      860.351
12/07/2021  05:09:00      -84.667       16.878       -5.221       34.052       25.553       22.217     1159.531      652.933      493.574        0.489        0.115       86.333       14.236        0.027      335.625        6.383      860.353
12/07/2021  05:10:00      -85.237       33.209       -5.965       39.943       19.543       21.256     1595.420      381.939      451.823        0.542        0.121       91.478       20.987        0.053      335.591        6.324      860.362
12/07/2021  05:11:00      -78.153       50.152       -9.487       43.686       24.882       23.207     1908.503      619.092      538.571        0.589        0.153       92.861       21.118        0.052      335.571        6.292      860.362
12/07/2021  05:12:00     -106.295       33.703       -7.875       45.311       27.328       19.687     2053.043      746.804      387.576        0.784        0.159      111.510       23.640        0.045      335.594        6.331      860.357
12/07/2021  05:13:00      -59.279       40.227       -4.472       43.118       23.409       21.018     1859.152      547.985      441.752        0.400        0.142       71.640       21.632        0.091      335.559        6.275      860.351
12/07/2021  05:14:00      -91.827       47.299      -12.174       21.789       20.450       13.806      474.781      418.203      190.603        0.595        0.054      103.293       12.273        0.014      335.528        6.226      860.350
12/07/2021  05:15:00      -86.900       51.271       -8.603       33.661       23.205       19.151     1133.037      538.457      366.746        0.615        0.102      100.897       12.405        0.015      335.528        6.225      860.350
12/07/2021  05:16:00      -80.936       30.619       -3.629       45.270       24.999       24.701     2049.366      624.947      610.149        0.539        0.164       86.534       28.010        0.105      335.547        6.255      860.351
12/07/2021  05:17:00      -97.880       45.360       -5.717       33.611       30.997       24.007     1129.691      960.789      576.320        0.717        0.133      107.880       15.617        0.021      335.583        6.313      860.358
12/07/2021  05:18:00      -43.329       10.510        3.769       33.462       33.381       21.868     1119.725     1114.307      478.224        0.236        0.136       44.585       21.131        0.225      335.630        6.392      860.365
12/07/2021  05:19:00      -64.787       21.050       -6.617       48.275       23.196       15.263     2330.502      538.076      232.947        0.389        0.155       68.121       16.961        0.062      335.637        6.402      860.373
12/07/2021  05:20:00      -57.601       25.983       -5.619       47.839       27.890       20.124     2288.615      777.867      404.960        0.375        0.174       63.190       24.803        0.154      335.600        6.341      860.382
12/07/2021  05:21:00      -48.558       16.768       -9.118       32.880       22.417       20.552     1081.076      502.523      422.400        0.236        0.100       51.372       17.015        0.110      335.633        6.397      860.392
12/07/2021  05:22:00      -79.667        2.021      -10.766       36.195       23.966       18.924     1310.048      574.378      358.120        0.435        0.112       79.693       17.780        0.050      335.621        6.377      860.404
12/07/2021  05:23:00      -67.700       -2.218      -10.157       22.642       35.072       13.131      512.678     1230.013      172.420        0.330        0.096       67.737       11.829        0.030      335.614        6.365      860.420
12/07/2021  05:24:00     -112.572       24.658       -7.780       29.894       34.305       20.014      893.672     1176.857      400.553        0.791        0.124      115.241       15.571        0.018      335.603        6.346      860.432
12/07/2021  05:25:00     -134.029      -26.791      -20.628       37.077       30.836       20.688     1374.735      950.864      428.004        1.093        0.138      136.681       17.714        0.017      335.611        6.359      860.448
12/07/2021  05:26:00      -25.537        4.270       -6.745       47.434       29.549       27.519     2249.939      873.130      757.294        0.230        0.194       25.891       29.546        1.302      335.680        6.474      860.456
12/07/2021  05:27:00      -41.425       29.576       -4.017       58.815       32.840       24.009     3459.179     1078.459      576.414        0.386        0.256       50.899       17.864        0.123      335.654        6.431      860.470
12/07/2021  05:28:00      -84.423       10.346       -8.821       30.416       36.611       22.562      925.161     1340.364      509.036        0.504        0.139       85.055       17.111        0.040      335.647        6.420      860.495
12/07/2021  05:29:00      -26.320      -12.547       -3.467       40.533       34.737       21.062     1642.903     1206.630      443.628        0.208        0.165       29.158       17.201        0.348      335.697        6.503      860.512
12/07/2021  05:30:00      -15.856       15.177       -6.893       13.865       21.296       14.114      192.229      453.512      199.199        0.069        0.042       21.949        6.718        0.094      335.665        6.452      860.530
12/07/2021  05:31:00        3.710        7.411        1.443       12.236       11.348        6.712      149.725      128.788       45.050        0.020        0.016        8.288        5.460        0.434      335.635        6.400      860.544
12/07/2021  05:32:00       -8.601        5.681       -3.335        8.364       10.945        7.411       69.957      119.795       54.918        0.018        0.012       10.307        6.054        0.345      335.682        6.477      860.568
12/07/2021  05:33:00       -9.656       15.002       11.336        9.287       14.062       10.295       86.243      197.751      105.990        0.042        0.019       17.841        8.842        0.246      335.657        6.434      860.586
12/07/2021  05:34:00       -4.040        3.006       -1.409        8.638       19.291       14.029       74.607      372.139      196.801        0.034        0.032        5.036        8.877        3.107      335.670        6.455      860.601
12/07/2021  05:35:00       10.837       12.785        1.908       10.240       10.979       10.182      104.865      120.535      103.667        0.031        0.016       16.760        6.620        0.156      335.651        6.427      860.618
12/07/2021  05:36:00      -11.449       11.253       -5.336       14.494       15.649       11.150      210.076      244.901      124.319        0.043        0.029       16.053        5.655        0.124      335.684        6.478      860.634
12/07/2021  05:37:00      -27.787       43.772       -5.670       13.937       16.673       13.527      194.229      277.987      182.982        0.169        0.033       51.847        4.876        0.009      335.686        6.485      860.652
12/07/2021  05:38:00      -16.021       31.614      -18.566        9.047        9.631        9.541       81.851       92.759       91.029        0.093        0.013       35.441        5.074        0.020      335.681        6.479      860.663
12/07/2021  05:39:00      -13.936       21.430       -9.620        9.984        6.363        5.897       99.685       40.486       34.774        0.046        0.009       25.563        4.360        0.029      335.679        6.477      860.678
12/07/2021  05:40:00      -31.755       25.684       -5.640        8.820       11.053        7.812       77.784      122.166       61.028        0.098        0.013       40.842        6.620        0.026      335.693        6.498      860.687
12/07/2021  05:41:00      -28.101       16.508       -9.428       11.302        8.400        6.138      127.726       70.552       37.670        0.069        0.012       32.591        4.085        0.016      335.690        6.492      860.697
12/07/2021  05:42:00      -24.006        9.983       -8.197       10.540       10.529        6.476      111.091      110.852       41.942        0.050        0.013       25.999        4.766        0.034      335.695        6.500      860.714
12/07/2021  05:43:00      -32.973       14.889       -5.715       17.767        8.216       11.234      315.655       67.496      126.202        0.093        0.025       36.179       11.601        0.103      335.670        6.458      860.729
12/07/2021  05:44:00      -21.497       12.730      -11.632       16.307       11.789        6.824      265.934      138.990       46.568        0.061        0.023       24.984        6.388        0.065      335.663        6.449      860.745
12/07/2021  05:45:00       -1.842        4.487      -10.040        4.479        4.765        3.884       20.064       22.710       15.088        0.009        0.003        4.851        2.586        0.284      335.656        6.437      860.768
12/07/2021  05:46:00       -9.021       17.095       -4.906       12.145        5.875        6.167      147.506       34.510       38.030        0.031        0.011       19.329        4.706        0.059      335.681        6.479      860.793
12/07/2021  05:47:00      -35.213       36.699      -12.740       10.068        7.499        6.940      101.374       56.228       48.166        0.148        0.010       50.860        6.141        0.015      335.667        6.450      860.815
12/07/2021  05:48:00      -40.348       34.687       -9.222        7.752        8.121        5.616       60.088       65.954       31.541        0.154        0.008       53.209        2.593        0.002      335.653        6.429      860.826
12/07/2021  05:49:00      -55.443       23.206      -24.287       11.706       14.263       12.879      137.036      203.433      165.867        0.235        0.025       60.104        9.978        0.028      335.706        6.518      860.827
12/07/2021  05:50:00      -50.346       14.976      -14.498       13.271       16.761       10.888      176.115      280.946      118.551        0.177        0.029       52.526        6.523        0.015      335.695        6.499      860.829
12/07/2021  05:51:00      -41.341       15.229        0.011       25.217       15.034       12.469      635.881      226.008      155.465        0.148        0.051       44.056       11.828        0.072      335.704        6.514      860.829
12/07/2021  05:52:00      -14.330        7.719        2.487       30.161       14.800       17.488      909.702      219.043      305.837        0.085        0.072       16.276       17.339        1.135      335.707        6.520      860.828
12/07/2021  05:53:00      -66.204       18.805       -5.874       34.361       24.905       17.624     1180.666      620.260      310.601        0.344        0.106       68.823       17.706        0.066      335.749        6.589      860.839
12/07/2021  05:54:00      -21.332       -6.091       -6.445       22.023       13.490        9.743      485.005      181.989       94.916        0.065        0.038       22.184        8.981        0.164      335.771        6.626      860.856
12/07/2021  05:55:00      -12.716       11.487       -2.647       14.977       14.318        8.416      224.319      205.012       70.832        0.040        0.025       17.136        7.804        0.207      335.700        6.511      860.879
12/07/2021  05:56:00      -20.796       11.926        5.363       17.216       14.958       11.192      296.386      223.735      125.254        0.062        0.032       23.973        6.734        0.079      335.693        6.497      860.904
12/07/2021  05:57:00       -5.399        2.070       -3.415        6.158        9.770        6.378       37.917       95.460       40.681        0.011        0.009        5.782        4.191        0.525      335.740        6.574      860.921
12/07/2021  05:58:00       -0.254        5.812       -0.822       11.628       10.919       11.540      135.221      119.219      133.175        0.021        0.019        5.817        7.572        1.694      335.750        6.590      860.941
12/07/2021  05:59:00       -4.016      -15.842       -5.534       13.756       14.245       11.220      189.237      202.907      125.880        0.041        0.026       16.343        8.551        0.274      335.800        6.674      860.958
12/07/2021  06:00:00       14.150      -28.948      -15.420       11.041       11.213        7.753      121.913      125.727       60.106        0.079        0.015       32.222        4.454        0.019      335.787        6.652      860.977
12/07/2021  06:01:00        4.559      -14.441       -5.487       12.934        9.638       10.919      167.300       92.886      119.216        0.032        0.019       15.144        7.008        0.214      335.830        6.725      861.002
12/07/2021  06:02:00       11.598      -16.950       -2.317       10.408       16.610       11.157      108.316      275.898      124.471        0.047        0.025       20.539        5.043        0.060      335.832        6.729      861.025
12/07/2021  06:03:00      -52.794        4.289      -13.852       36.055       16.730       13.178     1299.983      279.900      173.654        0.238        0.088       52.968       17.933        0.115      335.757        6.605      861.044
12/07/2021  06:04:00      -32.833      -10.607      -12.504       31.124       21.039       20.270      968.698      442.632      410.878        0.158        0.091       34.504       23.461        0.462      335.805        6.682      861.061
12/07/2021  06:05:00      -22.384       -1.412       -8.209       18.234       14.804        8.959      332.490      219.169       80.272        0.060        0.032       22.429        5.208        0.054      335.828        6.722      861.078
12/07/2021  06:06:00      -25.036       25.464       -0.299       12.493       17.139        9.450      156.082      293.735       89.310        0.091        0.027       35.711        9.527        0.071      335.773        6.631      861.082
12/07/2021  06:07:00      -26.871       24.918       -5.450       15.176       11.142        7.692      230.301      124.154       59.161        0.089        0.021       36.646        5.709        0.024      335.695        6.501      861.088
12/07/2021  06:08:00      -16.041       35.533       -2.311       18.308       16.295        8.291      335.191      265.532       68.742        0.110        0.033       38.986        6.757        0.030      335.726        6.552      861.082
12/07/2021  06:09:00       29.905      -49.980      -27.130       14.933       33.226        9.778      222.980     1103.997       95.602        0.278        0.071       58.243       11.842        0.041      335.738        6.570      861.066
12/07/2021  06:10:00       17.078      -66.388      -23.829       29.590       24.837       21.770      875.571      616.898      473.949        0.362        0.098       68.550       14.258        0.043      335.873        6.796      861.064
12/07/2021  06:11:00       19.829      -35.032       -6.852       17.761       22.545       17.397      315.461      508.297      302.653        0.140        0.056       40.254       13.093        0.106      335.908        6.855      861.059
12/07/2021  06:12:00       -8.554      -20.416      -18.622       24.096       26.852       11.945      580.603      721.004      142.690        0.114        0.072       22.136        5.447        0.061      335.887        6.821      861.061
12/07/2021  06:13:00        2.391       19.497       -1.893        7.359       11.786       11.546       54.157      138.916      133.313        0.036        0.016       19.643        3.714        0.036      335.825        6.714      861.067
12/07/2021  06:14:00       -1.151       -3.075       -5.388       11.454       15.235       15.370      131.188      232.105      236.227        0.032        0.030        3.283        9.607        8.561      335.810        6.692      861.074
12/07/2021  06:15:00       -4.753       12.465       -0.968       10.230        7.858        7.849      104.660       61.743       61.607        0.020        0.011       13.341        5.164        0.150      335.796        6.667      861.086
12/07/2021  06:16:00       -7.704       -8.772       -5.799       10.193       11.047        5.427      103.889      122.043       29.452        0.021        0.013       11.674        3.022        0.067      335.874        6.800      861.102
12/07/2021  06:17:00      -24.723       -4.105       -1.962       18.235       15.241       14.449      332.521      232.273      208.772        0.070        0.039       25.062        3.595        0.021      335.848        6.756      861.122
12/07/2021  06:18:00      -16.627      -19.081        3.772       15.876       26.584       18.113      252.045      706.719      328.094        0.097        0.064       25.309       16.272        0.413      335.838        6.739      861.140
12/07/2021  06:19:00       11.795      -15.879       -6.492       14.868       18.882       17.502      221.060      356.526      306.311        0.066        0.044       19.780        9.494        0.230      335.821        6.710      861.156
12/07/2021  06:20:00        5.210      -10.882       -6.849       12.644       11.327       11.901      159.868      128.306      141.631        0.031        0.021       12.065        5.014        0.173      335.820        6.707      861.169
12/07/2021  06:21:00       10.542      -12.220      -13.246        7.288        6.982        8.431       53.120       48.742       71.083        0.030        0.009       16.139        4.022        0.062      335.787        6.653      861.185
12/07/2021  06:22:00        5.023      -12.331      -13.106        4.115        6.266        6.700       16.932       39.268       44.885        0.023        0.005       13.314        4.874        0.134      335.772        6.629      861.195
12/07/2021  06:23:00      -17.057       21.306       -7.225       25.519       24.191        9.169      651.209      585.191       84.079        0.106        0.066       27.293       12.810        0.220      335.789        6.657      861.206
12/07/2021  06:24:00      -43.526       36.234      -11.616       18.951       17.009       11.039      359.123      289.293      121.870        0.206        0.039       56.634        7.859        0.019      335.824        6.714      861.216
12/07/2021  06:25:00      -63.820       49.443      -14.117       18.420       11.350       12.412      339.286      128.823      154.047        0.367        0.031       80.732        5.290        0.004      335.812        6.694      861.224
12/07/2021  06:26:00      -24.374       63.606      -13.295       25.213       32.246       14.672      635.713     1039.817      215.263        0.335        0.095       68.116        6.673        0.010      335.766        6.619      861.225
12/07/2021  06:27:00        0.394       27.265       -7.423       17.998       31.870       11.931      323.928     1015.674      142.344        0.114        0.074       27.268       11.567        0.180      335.806        6.684      861.222
12/07/2021  06:28:00      -21.962       -0.709       -7.218       24.602       17.034       11.335      605.238      290.168      128.476        0.078        0.051       21.974       11.381        0.268      335.837        6.737      861.236
12/07/2021  06:29:00      -26.751       -2.892       -5.475       21.021       14.648       11.717      441.875      214.573      137.284        0.077        0.040       26.907        8.743        0.106      335.866        6.785      861.258
12/07/2021  06:30:00      -19.468       15.868       -9.095       15.769       14.493       11.092      248.661      210.051      123.040        0.065        0.029       25.115       10.731        0.183      335.805        6.682      861.266
12/07/2021  06:31:00       24.281       39.028       -7.709       22.444       35.371       13.110      503.724     1251.139      171.879        0.205        0.096       45.965       11.927        0.067      335.811        6.694      861.288
12/07/2021  06:32:00       62.205       15.606       -6.016       11.689       11.691        8.899      136.624      136.690       79.196        0.225        0.018       64.133        2.243        0.001      335.724        6.547      861.302
12/07/2021  06:33:00       13.699       16.135       -5.940       18.823       13.266        9.245      354.295      175.991       85.462        0.055        0.031       21.166        8.118        0.147      335.694        6.497      861.307
12/07/2021  06:34:00      -62.895       29.258      -20.101       40.114       19.559       11.111     1609.116      382.561      123.454        0.367        0.106       69.367       11.420        0.027      335.726        6.550      861.311
12/07/2021  06:35:00      -82.511        9.199      -20.390       34.303       20.822       11.847     1176.717      433.567      140.360        0.453        0.088       83.022       10.175        0.015      335.712        6.528      861.305
12/07/2021  06:36:00      -58.292       39.238      -28.019       28.177       37.234       20.736      793.925     1386.396      429.981        0.417        0.131       70.268        9.088        0.017      335.747        6.584      861.305
12/07/2021  06:37:00      -32.774        7.207       -4.894       31.119       22.846       19.132      968.395      521.940      366.036        0.150        0.093       33.557       15.606        0.216      335.776        6.635      861.305
12/07/2021  06:38:00      -60.381        4.875      -15.097       17.030       11.814       11.477      290.021      139.564      131.710        0.223        0.028       60.578        8.175        0.018      335.765        6.616      861.319
12/07/2021  06:39:00      -72.652       31.815      -20.965       18.451       42.852       16.248      340.423     1836.332      263.994        0.458        0.122       79.313        8.704        0.012      335.798        6.671      861.333
12/07/2021  06:40:00      -51.014       50.908      -14.337       29.759       25.494       17.243      885.623      649.958      297.328        0.362        0.092       72.070       15.004        0.043      335.980        6.975      861.351
12/07/2021  06:41:00      -40.239       13.407       -4.669       31.650       14.195       11.306     1001.753      201.492      127.815        0.158        0.067       42.413       12.847        0.092      335.920        6.874      861.365
12/07/2021  06:42:00      -71.632       39.655      -13.395       20.418       20.010       19.707      416.909      400.393      388.362        0.404        0.060       81.876        4.701        0.003      335.786        6.651      861.369
12/07/2021  06:43:00      -36.917       35.908      -12.945       23.532       23.277       10.732      553.778      541.827      115.172        0.202        0.061       51.500        9.240        0.032      335.820        6.706      861.381
12/07/2021  06:44:00       -5.454       48.692       -2.076       21.083       34.449       22.616      444.475     1186.756      511.480        0.227        0.107       48.997       13.348        0.074      335.948        6.921      861.393
12/07/2021  06:45:00      -14.404       52.817      -12.773       37.253       30.879       29.071     1387.792      953.529      845.115        0.317        0.159       54.746       17.778        0.105      335.921        6.877      861.397
12/07/2021  06:46:00      -32.105       28.847       -8.701       22.756       16.467       14.036      517.826      271.148      197.017        0.146        0.049       43.162       12.903        0.089      335.811        6.693      861.408
12/07/2021  06:47:00      -24.260       29.825      -15.055       26.428       19.953       21.882      698.429      398.110      478.841        0.164        0.079       38.446       10.091        0.069      335.828        6.723      861.415
12/07/2021  06:48:00      -13.795       80.321      -14.547       28.218       25.770       20.739      796.237      664.094      430.098        0.437        0.095       81.497        7.636        0.009      335.961        6.943      861.409
12/07/2021  06:49:00       21.635       86.552      -16.706       21.763       31.600       23.205      473.646      998.567      538.461        0.512        0.101       89.215       13.977        0.025      335.933        6.895      861.414
12/07/2021  06:50:00       20.329       88.621      -16.731       32.766       30.753       19.332     1073.607      945.764      373.711        0.547        0.120       90.923       14.695        0.026      335.949        6.923      861.423
12/07/2021  06:51:00       -3.019       38.956      -13.795       21.895       34.540       20.177      479.406     1192.981      407.096        0.190        0.104       39.073       17.696        0.205      335.985        6.982      861.424
12/07/2021  06:52:00       -1.986       -8.486      -23.734       41.508       22.191       19.961     1722.932      492.452      398.431        0.163        0.131        8.715       12.661        2.110      335.872        6.794      861.435
12/07/2021  06:53:00       28.394       31.536       -2.980       25.062       20.275       16.972      628.117      411.077      288.046        0.157        0.066       42.435       17.516        0.170      335.878        6.806      861.438
12/07/2021  06:54:00      -53.944       47.876       -5.267       37.681       26.796       22.058     1419.841      718.002      486.562        0.393        0.131       72.125       21.100        0.086      336.020        7.042      861.452
12/07/2021  06:55:00      -40.590       42.541       -6.840       40.974       38.459       25.551     1678.860     1479.067      652.874        0.366        0.191       58.798       16.422        0.078      335.960        6.942      861.481
12/07/2021  06:56:00       -4.647      113.770      -20.058       25.906       20.233       22.812      671.145      409.366      520.375        0.748        0.080      113.865       15.802        0.019      335.935        6.900      861.513
12/07/2021  06:57:00      -16.975       87.316      -17.473       25.095       33.180       17.049      629.770     1100.945      290.685        0.512        0.101       88.951       13.310        0.022      335.965        6.950      861.537
12/07/2021  06:58:00        9.238       57.674       -8.825       19.681       24.006       12.146      387.326      576.292      147.534        0.230        0.056       58.410       11.238        0.037      335.882        6.813      861.554
12/07/2021  06:59:00       38.305       30.845       -7.483       16.413       13.950       11.264      269.399      194.606      126.867        0.153        0.030       49.180        9.957        0.041      335.810        6.692      861.567
12/07/2021  07:00:00       41.776       49.088       -3.622       28.228       15.859       16.140      796.794      251.513      260.489        0.274        0.065       64.458       14.731        0.052      335.829        6.725      861.567
12/07/2021  07:01:00       37.481       69.462      -14.782       23.897       26.274       20.433      571.085      690.308      417.495        0.406        0.084       78.929       12.731        0.026      335.965        6.951      861.568
12/07/2021  07:02:00       35.220       72.685        2.079       24.999       35.848       24.585      624.945     1285.071      604.414        0.452        0.126       80.768       21.225        0.069      335.918        6.872      861.566
12/07/2021  07:03:00       23.628      105.897      -10.707       43.819       37.648       20.852     1920.101     1417.357      434.816        0.783        0.189      108.501       15.386        0.020      335.988        6.989      861.567
12/07/2021  07:04:00       43.930       96.638      -11.444       47.899       47.227       28.371     2294.277     2230.372      804.914        0.836        0.266      106.154       28.101        0.070      335.939        6.907      861.570
12/07/2021  07:05:00        6.930      112.550      -22.810       35.845       37.006       25.644     1284.876     1369.441      657.617        0.827        0.166      112.763       13.468        0.014      335.983        6.980      861.568
12/07/2021  07:06:00       13.356       99.329      -10.881       33.328       31.127       19.434     1110.724      968.875      377.694        0.631        0.123      100.223       11.535        0.013      336.009        7.023      861.568
12/07/2021  07:07:00      -11.427       98.554      -20.049       26.020       44.088       18.589      677.046     1943.731      345.567        0.661        0.148       99.215       17.973        0.033      336.006        7.019      861.570
12/07/2021  07:08:00      -22.003       85.714       -9.956       37.227       55.469       30.295     1385.854     3076.851      917.805        0.665        0.269       88.493       26.200        0.088      336.071        7.128      861.569
12/07/2021  07:09:00        8.755       65.627      -18.360       31.051       33.322       21.918      964.134     1110.353      480.407        0.364        0.128       66.208       14.435        0.048      335.954        6.932      861.574
12/07/2021  07:10:00       22.580       89.874      -17.348       23.889       24.483       18.411      570.682      599.418      338.973        0.520        0.075       92.667       11.888        0.016      336.011        7.027      861.580
12/07/2021  07:11:00        5.889       86.187      -10.098       32.565       25.138       20.839     1060.510      631.912      434.254        0.485        0.106       86.388       17.897        0.043      336.092        7.162      861.601
12/07/2021  07:12:00      -27.391       50.738      -12.805       31.615       25.344       24.927      999.503      642.338      621.346        0.288        0.113       57.659       10.075        0.031      336.034        7.065      861.612
12/07/2021  07:13:00       -6.401       67.540      -10.217       23.910       24.569       16.311      571.681      603.649      266.046        0.307        0.072       67.843       11.771        0.030      336.008        7.022      861.612
12/07/2021  07:14:00       10.509       99.827      -15.593       31.355       27.766       13.820      983.146      770.968      190.980        0.613        0.097      100.379        9.991        0.010      335.927        6.887      861.618
12/07/2021  07:15:00       12.373       62.951      -15.846       32.316       22.362       20.492     1044.328      500.055      419.940        0.317        0.098       64.155       13.420        0.044      336.037        7.069      861.627
12/07/2021  07:16:00       -3.387       66.796      -17.085       35.594       38.854       23.820     1266.956     1509.640      567.400        0.405        0.167       66.882       13.259        0.039      336.035        7.068      861.634
12/07/2021  07:17:00       -3.221      114.740      -10.968       39.153       34.005       23.889     1532.977     1156.312      570.702        0.828        0.163      114.785       22.412        0.038      335.940        6.910      861.643
12/07/2021  07:18:00       10.875       83.554       -9.073       29.282       25.989       16.680      857.434      675.419      278.210        0.450        0.091       84.258        7.240        0.007      336.012        7.031      861.644
12/07/2021  07:19:00       -2.031       65.113      -23.747       44.794       44.999       22.114     2006.470     2024.917      489.042        0.466        0.226       65.145       20.865        0.103      336.019        7.040      861.650
12/07/2021  07:20:00       24.134       40.643      -12.012       49.475       35.087       20.553     2447.739     1231.086      422.443        0.324        0.205       47.268       11.485        0.059      335.920        6.875      861.652
12/07/2021  07:21:00      -31.176       60.080      -13.969       31.706       21.729       19.531     1005.260      472.131      381.477        0.332        0.093       67.687        8.294        0.015      336.084        7.148      861.648
12/07/2021  07:22:00        1.410       17.214       -5.579       24.748       18.856       19.889      612.452      355.547      395.574        0.085        0.068       17.272       11.096        0.413      335.920        6.875      861.648
12/07/2021  07:23:00       -2.152       59.415       -2.051       22.766       30.782       18.241      518.285      947.505      332.720        0.267        0.090       59.454       10.267        0.030      335.935        6.900      861.640
12/07/2021  07:24:00      -15.314       30.033       -2.133       33.743       22.514       22.490     1138.559      506.886      505.820        0.165        0.108       33.712        5.084        0.023      335.923        6.880      861.629
12/07/2021  07:25:00      -46.455       12.333       -3.084       38.975       24.427       19.608     1519.078      596.654      384.478        0.241        0.125       48.064       18.827        0.153      335.870        6.791      861.628
12/07/2021  07:26:00      -65.510       39.196      -15.102       37.495       37.076       32.243     1405.891     1374.655     1039.610        0.494        0.191       76.341       22.054        0.083      336.004        7.015      861.624
12/07/2021  07:27:00      -36.905        5.319      -18.456       27.344       19.082       22.938      747.692      364.122      526.139        0.168        0.082       37.286       13.612        0.133      335.917        6.868      861.619
12/07/2021  07:28:00      -42.162       20.168      -26.997       25.187       27.551       24.844      634.399      759.036      617.229        0.246        0.101       46.737       12.503        0.072      335.988        6.989      861.618
12/07/2021  07:29:00      -50.611       65.462      -11.845       23.890       31.385       18.933      570.733      985.020      358.469        0.445        0.096       82.745        9.578        0.013      336.164        7.280      861.622
12/07/2021  07:30:00      -32.990       -6.013       -7.911       31.609       37.598       22.485      999.140     1413.604      505.560        0.205        0.146       33.533       16.469        0.241      335.969        6.957      861.632
12/07/2021  07:31:00        8.740       -1.593      -10.356       25.861       40.443       22.169      668.772     1635.649      491.450        0.149        0.140        8.884       18.661        4.412      335.895        6.833      861.642
12/07/2021  07:32:00       16.122      -37.552      -14.920       22.381       26.296       18.482      500.928      691.453      341.586        0.171        0.077       40.866       16.409        0.161      335.959        6.941      861.654
12/07/2021  07:33:00       -2.798       -2.516       -0.166       20.685       21.232       20.241      427.851      450.803      409.708        0.065        0.064        3.762       15.747       17.516      335.907        6.852      861.666
12/07/2021  07:34:00      -57.506       35.459      -14.507       32.466       28.231       24.971     1054.032      796.970      623.550        0.362        0.124       67.559       17.641        0.068      335.830        6.726      861.671
12/07/2021  07:35:00      -15.395       -1.436      -13.770       30.910       19.697       20.882      955.420      387.979      436.069        0.110        0.089       15.462       20.349        1.732      335.827        6.721      861.666
12/07/2021  07:36:00      -53.853       -6.348      -15.504       21.353       25.480       14.358      455.936      649.240      206.159        0.225        0.066       54.226       13.315        0.060      335.881        6.811      861.670
12/07/2021  07:37:00      -72.841      -13.280       -7.504       33.980       21.668       14.618     1154.641      469.500      213.698        0.369        0.092       74.042       15.678        0.045      335.907        6.852      861.671
12/07/2021  07:38:00      -54.052       -9.365      -11.215       28.709       26.996       22.610      824.219      728.758      511.227        0.260        0.103       54.858       16.453        0.090      335.895        6.834      861.672
12/07/2021  07:39:00      -52.242      -19.011        5.891       52.269       25.337       23.931     2732.039      641.966      572.696        0.354        0.197       55.593       23.939        0.185      335.848        6.755      861.674
12/07/2021  07:40:00      -52.336       -5.179       -1.637       25.587       21.241       11.678      654.718      451.171      136.366        0.201        0.062       52.592        7.349        0.020      335.838        6.738      861.677
12/07/2021  07:41:00      -49.310      -25.803       -8.741       36.589       21.842       16.576     1338.779      477.079      274.768        0.263        0.105       55.653       14.413        0.067      335.882        6.812      861.687
12/07/2021  07:42:00      -96.427      -29.003       -8.681       32.574       17.486       17.120     1061.081      305.746      293.088        0.594        0.083      100.694       10.007        0.010      335.866        6.785      861.692
12/07/2021  07:43:00      -96.450      -23.951      -12.678       28.560       23.475       21.542      815.698      551.077      464.068        0.593        0.092       99.380       17.267        0.030      335.854        6.766      861.700
12/07/2021  07:44:00      -83.742       -2.000      -20.514       25.097       10.051       19.765      629.854      101.017      390.637        0.428        0.056       83.766       11.086        0.018      335.832        6.730      861.709
12/07/2021  07:45:00      -46.308       -8.170       -5.846       45.636       26.456       26.485     2082.678      699.946      701.470        0.286        0.174       47.023       22.205        0.223      335.946        6.918      861.706
12/07/2021  07:46:00      -84.801      -15.182       -5.231       53.877       23.055       19.612     2902.683      531.514      384.620        0.563        0.191       86.150       26.000        0.091      335.882        6.813      861.703
12/07/2021  07:47:00      -39.893      -31.874      -11.248       33.379       26.095       21.048     1114.175      680.974      443.009        0.249        0.112       51.063       15.730        0.095      335.925        6.884      861.693
12/07/2021  07:48:00      -78.468      -39.761      -19.957       42.227       27.416       25.748     1783.148      751.642      662.947        0.567        0.160       87.966       15.500        0.031      335.846        6.752      861.698
12/07/2021  07:49:00      -90.319      -30.437      -29.374       40.709       45.683       29.988     1657.205     2086.940      899.281        0.729        0.232       95.309       25.109        0.069      335.841        6.743      861.688
12/07/2021  07:50:00      -76.647        1.539      -13.884       39.059       41.982       24.314     1525.581     1762.492      591.151        0.497        0.194       76.663       12.310        0.026      335.916        6.868      861.682
12/07/2021  07:51:00      -69.870       -6.349       -6.609       44.206       37.863       24.628     1954.146     1433.645      606.546        0.448        0.200       70.158       12.831        0.033      335.946        6.920      861.675
12/07/2021  07:52:00       -8.785      -13.077       -5.662       54.578       32.896       25.435     2978.728     1082.177      646.957        0.249        0.235       15.754       18.190        1.333      335.944        6.915      861.674
12/07/2021  07:53:00      -54.498      -26.890       -4.157       40.253       38.057       22.958     1620.321     1448.305      527.088        0.365        0.180       60.771       19.619        0.104      335.925        6.885      861.685
12/07/2021  07:54:00      -62.679        6.696       -3.116       60.395       34.483       32.018     3647.550     1189.084     1025.142        0.492        0.293       63.036       25.017        0.158      335.903        6.847      861.684
12/07/2021  07:55:00     -115.537      -14.401      -12.392       42.457       35.960       24.631     1802.632     1293.132      606.679        0.871        0.185      116.431        6.441        0.003      335.885        6.818      861.684
12/07/2021  07:56:00      -32.228      -10.627       -7.325       36.933       30.716       20.648     1364.026      943.481      426.334        0.197        0.137       33.935       23.718        0.488      335.915        6.869      861.694
12/07/2021  07:57:00      -33.200      -15.735       -2.434       35.489       35.181       24.082     1259.487     1237.690      579.952        0.222        0.154       36.740       20.866        0.323      335.940        6.909      861.708
12/07/2021  07:58:00     -110.587        1.884       -6.317       79.284       43.866       32.273     6285.977     1924.189     1041.547        1.076        0.463      110.603       27.331        0.061      335.904        6.849      861.712
12/07/2021  07:59:00     -109.805        5.484        3.518       55.234       44.790       34.457     3050.837     2006.149     1187.274        0.917        0.312      109.942       32.357        0.087      335.873        6.798      861.726
12/07/2021  08:00:00     -130.488       -9.211      -14.778       51.172       39.981       31.474     2618.574     1598.461      990.626        1.127        0.260      130.812       23.886        0.033      335.790        6.659      861.739
12/07/2021  08:01:00      -76.873      -15.454       -5.753       60.908       44.554       25.430     3709.780     1985.096      646.699        0.626        0.317       78.411       17.453        0.050      335.877        6.803      861.759
12/07/2021  08:02:00     -106.933       -5.568        0.595       44.316       37.980       25.488     1963.944     1442.460      649.623        0.776        0.203      107.078       21.782        0.041      335.823        6.713      861.771
12/07/2021  08:03:00      -99.788      -39.017      -16.421       40.656       35.273       31.056     1652.876     1244.194      964.468        0.780        0.193      107.145       23.327        0.047      335.795        6.666      861.782
12/07/2021  08:04:00      -90.158      -15.139       -5.906       53.704       48.442       26.140     2884.092     2346.604      683.299        0.715        0.296       91.420       24.572        0.072      335.815        6.700      861.794
12/07/2021  08:05:00      -41.896        5.225        5.431       37.469       29.287       23.359     1403.937      857.701      545.658        0.231        0.140       42.221       19.554        0.214      335.894        6.833      861.811
12/07/2021  08:06:00     -101.261       -6.260       -7.200       38.111       31.302       27.752     1452.483      979.799      770.189        0.677        0.160      101.454       11.219        0.012      335.842        6.745      861.826
12/07/2021  08:07:00      -59.159       -7.718       -2.254       48.800       29.084       25.177     2381.441      845.905      633.900        0.371        0.193       59.661       19.169        0.103      335.898        6.838      861.834
12/07/2021  08:08:00      -37.083      -21.698       -5.024       34.064       33.862       26.481     1160.364     1146.629      701.245        0.244        0.150       42.965       16.297        0.144      335.965        6.950      861.846
12/07/2021  08:09:00      -36.292      -13.661       -2.514       41.146       20.817       23.795     1693.018      433.328      566.211        0.210        0.135       38.778       17.977        0.215      335.931        6.894      861.861
12/07/2021  08:10:00      -69.591      -20.215        2.703       44.005       29.781       22.919     1936.464      886.881      525.262        0.430        0.167       72.467       15.014        0.043      335.906        6.852      861.869
12/07/2021  08:11:00      -24.881       -7.679        8.873       32.285       32.133       14.272     1042.353     1032.509      203.678        0.152        0.114       26.039       12.839        0.243      335.968        6.957      861.880
12/07/2021  08:12:00      -29.053      -26.655        2.737       34.877       18.877       20.764     1216.425      356.340      431.127        0.178        0.100       39.428       19.897        0.255      335.947        6.921      861.893
12/07/2021  08:13:00     -122.057      -10.742       -3.975       37.746       32.540       22.701     1424.796     1058.854      515.343        0.901        0.150      122.529       20.436        0.028      335.867        6.788      861.910
12/07/2021  08:14:00     -104.532       -3.886       -7.451       38.231       30.483       19.990     1461.601      929.197      399.606        0.689        0.140      104.604       13.292        0.016      335.816        6.702      861.927
12/07/2021  08:15:00      -56.017        2.631        8.698       50.017       24.658       16.961     2501.740      608.006      287.682        0.331        0.170       56.079       19.366        0.119      335.921        6.876      861.942
12/07/2021  08:16:00      -20.573      -12.176        6.238       35.725       28.136       19.269     1276.287      791.646      371.285        0.152        0.122       23.907       20.733        0.752      335.914        6.865      861.958
12/07/2021  08:17:00      -49.014       -8.081       -2.050       36.374       26.757       18.197     1323.075      715.950      331.126        0.242        0.119       49.676       14.157        0.081      335.957        6.937      861.961
12/07/2021  08:18:00      -17.495        2.868       -4.255       30.368       26.032       18.630      922.193      677.665      347.080        0.114        0.097       17.728       12.867        0.527      335.973        6.964      861.956
12/07/2021  08:19:00      -20.707       -6.994       -4.985       26.573       19.390       19.316      706.107      375.987      373.114        0.098        0.073       21.856       11.709        0.287      336.028        7.055      861.947
12/07/2021  08:20:00      -79.820      -19.074      -10.064       44.600       21.076       19.804     1989.121      444.188      392.188        0.483        0.141       82.068       15.370        0.035      335.939        6.906      861.930
12/07/2021  08:21:00      -82.251       -0.736       -9.715       23.334       16.961       14.270      544.456      287.659      203.624        0.395        0.052       82.254       12.253        0.022      335.877        6.803      861.923
12/07/2021  08:22:00      -55.579       -7.339       -7.538       18.648       19.090       18.083      347.751      364.439      326.980        0.212        0.052       56.061       12.504        0.050      335.951        6.926      861.916
12/07/2021  08:23:00      -19.446       -3.711       -0.271       28.661       20.783       18.970      821.479      431.914      359.867        0.100        0.081       19.797       12.916        0.426      336.027        7.055      861.921
12/07/2021  08:24:00      -14.840        7.077       -0.092       23.841       23.838       19.242      568.377      568.235      370.271        0.089        0.075       16.441       14.598        0.788      336.002        7.012      861.933
12/07/2021  08:25:00      -25.881       14.020        0.202       18.616       18.195       18.781      346.573      331.065      352.717        0.095        0.052       29.435       10.078        0.117      336.036        7.070      861.943
12/07/2021  08:26:00      -31.996        1.945       -4.659       14.262       20.761       12.939      203.396      431.013      167.410        0.093        0.040       32.055       10.000        0.097      335.937        6.904      861.950
12/07/2021  08:27:00       -9.927      -10.216       -4.668       20.049       20.539       10.700      401.947      421.846      114.486        0.058        0.047       14.245        8.318        0.341      336.042        7.078      861.962
12/07/2021  08:28:00      -11.185       -9.389       -9.516       20.599       15.426       12.459      424.326      237.964      155.223        0.056        0.041       14.603        8.111        0.309      336.064        7.115      861.966
12/07/2021  08:29:00        1.472        8.557       -5.444       15.448       10.514       11.717      238.656      110.552      137.281        0.030        0.024        8.683        5.105        0.346      336.058        7.106      861.978
12/07/2021  08:30:00       13.640       22.361      -13.986       10.882       17.364        9.337      118.411      301.512       87.184        0.069        0.025       26.193        5.529        0.045      336.034        7.064      861.991
12/07/2021  08:31:00       25.187       26.940       -4.806       11.189       11.079       10.884      125.186      122.735      118.471        0.087        0.018       36.880        4.746        0.017      335.963        6.947      861.990
12/07/2021  08:32:00       66.864       16.425       -5.636       31.117       31.814       22.152      968.249     1012.112      490.700        0.362        0.124       68.852       14.591        0.045      335.937        6.904      861.988
12/07/2021  08:33:00       98.051       21.340      -27.854       31.959       34.605       19.135     1021.381     1197.489      366.134        0.671        0.129      100.347       16.426        0.027      335.898        6.839      861.998
12/07/2021  08:34:00      113.150       18.409      -11.510       32.391       22.265       22.194     1049.178      495.737      492.595        0.766        0.102      114.638       19.525        0.029      335.884        6.816      862.006
12/07/2021  08:35:00      117.034       45.405      -17.398       11.415       13.638        8.244      130.300      185.990       67.961        0.822        0.019      125.533        3.513        0.001      335.823        6.717      862.021
12/07/2021  08:36:00       92.018       32.220      -21.208       26.743       37.386       22.041      715.180     1397.748      485.815        0.628        0.130       97.496       10.009        0.011      335.968        6.955      862.034
12/07/2021  08:37:00      131.874       27.527      -13.559       29.891       33.688       20.591      893.478     1134.872      423.992        1.039        0.123      134.716       14.019        0.011      335.937        6.903      862.048
12/07/2021  08:38:00      108.811       56.039      -17.586       15.755       13.430       10.699      248.205      180.352      114.465        0.792        0.027      122.394        4.761        0.002      335.860        6.777      862.052
12/07/2021  08:39:00      109.620       47.984      -29.559       38.907       37.439       23.637     1513.755     1401.659      558.690        0.933        0.174      119.662       20.594        0.030      336.055        7.100      862.046
12/07/2021  08:40:00       66.372       40.879      -40.583       49.156       54.731       25.069     2416.319     2995.530      628.477        0.688        0.302       77.951       12.376        0.025      336.182        7.310      862.026
12/07/2021  08:41:00       66.890       33.130      -21.190       36.811       61.248       30.613     1355.076     3751.294      937.185        0.603        0.302       74.645       22.687        0.092      336.121        7.210      862.033
12/07/2021  08:42:00       43.445       37.992      -19.332       48.969       59.689       34.174     2397.984     3562.812     1167.878        0.542        0.356       57.713       21.358        0.137      336.137        7.236      862.046
12/07/2021  08:43:00       18.684       32.308      -14.985       43.710       44.847       33.951     1910.603     2011.275     1152.670        0.335        0.254       37.321       24.950        0.447      336.142        7.246      862.058
12/07/2021  08:44:00       51.584       47.886      -13.864       32.805       34.173       30.902     1076.165     1167.763      954.916        0.417        0.160       70.385       12.461        0.031      336.094        7.165      862.085
12/07/2021  08:45:00      146.498       25.839      -25.844       38.760       34.183       26.545     1502.365     1168.503      704.655        1.309        0.169      148.759       12.850        0.007      336.052        7.095      862.112
12/07/2021  08:46:00       91.755      -17.175       -9.674       46.406       24.159       17.856     2153.497      583.643      318.819        0.593        0.153       93.349       16.588        0.032      336.018        7.039      862.140
12/07/2021  08:47:00       88.996       19.757      -12.675       41.425       29.962       21.574     1716.047      897.722      465.447        0.577        0.154       91.163       20.456        0.050      336.016        7.035      862.165
12/07/2021  08:48:00      107.271       37.058      -21.433       27.936       26.509       15.325      780.415      702.744      234.863        0.753        0.086      113.492        8.850        0.006      335.976        6.968      862.187
12/07/2021  08:49:00      127.473       29.063       -2.694       47.812       51.532       29.383     2285.957     2655.544      863.389        1.145        0.290      130.744       29.242        0.050      336.075        7.133      862.203
12/07/2021  08:50:00       87.049       21.421      -21.832       74.431       66.767       31.270     5539.901     4457.842      977.816        0.974        0.549       89.646       26.655        0.088      336.213        7.364      862.221
12/07/2021  08:51:00       86.201        7.847      -23.187       74.910       66.065       34.539     5611.546     4364.625     1192.948        0.960        0.558       86.558       33.518        0.150      336.131        7.227      862.250
12/07/2021  08:52:00      123.893       31.557      -17.199       56.765       31.518       16.533     3222.259      993.406      273.345        1.056        0.224      127.849       13.283        0.011      336.044        7.081      862.275
12/07/2021  08:53:00      139.918      -27.537       -6.485       45.304       37.125       27.088     2052.451     1378.285      733.741        1.227        0.208      142.602       20.494        0.021      335.996        7.001      862.295
12/07/2021  08:54:00      104.644       23.964      -16.333       49.755       42.944       34.119     2475.579     1844.213     1164.114        0.864        0.274      107.353       22.699        0.045      336.045        7.083      862.322
12/07/2021  08:55:00       96.267       51.472      -15.374       38.465       37.869       27.816     1479.549     1434.026      773.712        0.792        0.184      109.163       18.790        0.030      336.053        7.095      862.357
12/07/2021  08:56:00       76.768       39.371      -14.919       41.051       42.842       21.756     1685.211     1835.465      473.342        0.583        0.200       86.275       12.245        0.020      336.022        7.045      862.386
12/07/2021  08:57:00       37.879       -7.033      -10.388       33.737       52.011       28.934     1138.166     2705.181      837.171        0.314        0.234       38.527       19.182        0.248      336.273        7.461      862.415
12/07/2021  08:58:00      143.317       25.391      -14.408       49.339       41.018       25.162     2434.300     1682.479      633.107        1.307        0.237      145.549       12.784        0.008      335.990        6.991      862.466
12/07/2021  08:59:00      167.832        0.952      -14.703       49.837       46.163       33.701     2483.756     2131.015     1135.757        1.707        0.288      167.835       32.136        0.037      335.966        6.952      862.499
12/07/2021  09:00:00      142.882        2.547      -11.431       48.588       45.200       33.871     2360.805     2043.027     1147.241        1.305        0.278      142.904       30.846        0.047      335.988        6.989      862.537
12/07/2021  09:01:00      158.379       33.803      -23.566       46.443       39.214       24.932     2156.988     1537.752      621.584        1.555        0.216      161.946       19.137        0.014      336.017        7.036      862.577
12/07/2021  09:02:00      123.293       34.334      -27.475       49.268       44.682       26.203     2427.331     1996.495      686.596        1.112        0.256      127.984       16.217        0.016      336.112        7.196      862.610
12/07/2021  09:03:00      135.090       29.883      -21.425       41.402       35.793       30.319     1714.118     1281.159      919.217        1.176        0.196      138.356        9.031        0.004      335.995        7.000      862.630
12/07/2021  09:04:00      165.251       63.552      -21.272       48.678       42.957       25.625     2369.518     1845.267      656.625        1.833        0.244      177.050       14.374        0.007      335.935        6.899      862.648
12/07/2021  09:05:00      173.741       30.566      -19.919       40.945       44.288       21.658     1676.493     1961.400      469.072        1.781        0.205      176.409       19.981        0.013      335.995        6.999      862.674
12/07/2021  09:06:00      158.469       47.936      -16.252       33.411       32.034       19.038     1116.278     1026.166      362.432        1.509        0.125      165.561       13.655        0.007      335.978        6.972      862.690
12/07/2021  09:07:00      156.672       45.554      -15.693       53.266       39.552       25.910     2837.259     1564.352      671.347        1.597        0.254      163.160        2.148        0.000      336.007        7.021      862.706
12/07/2021  09:08:00      148.772       61.400      -14.139       70.101       46.865       32.539     4914.110     2196.309     1058.792        1.713        0.408      160.945       35.977        0.050      335.992        6.994      862.730
12/07/2021  09:09:00      222.746       58.577      -21.495       45.166       46.453       29.729     2039.927     2157.873      883.825        2.929        0.254      230.320       16.762        0.005      335.971        6.958      862.750
12/07/2021  09:10:00      149.077       51.727      -12.221       65.567       45.420       31.933     4299.086     2063.022     1019.747        1.621        0.369      157.796       26.794        0.029      336.028        7.052      862.770
12/07/2021  09:11:00      122.803       57.084      -24.294       38.489       34.964       29.550     1481.417     1222.508      873.218        1.125        0.179      135.423       14.670        0.012      336.081        7.144      862.791
12/07/2021  09:12:00      113.600       66.006      -14.723       28.528       28.476       17.251      813.839      810.883      297.588        0.970        0.096      131.384        4.502        0.001      336.004        7.015      862.797
12/07/2021  09:13:00       26.940       -9.564      -29.097       44.580       41.403       33.555     1987.396     1714.222     1125.946        0.324        0.241       28.587       12.024        0.177      336.323        7.546      862.796
12/07/2021  09:14:00       42.585      -35.824      -11.844       45.219       49.223       37.871     2044.778     2422.920     1434.199        0.457        0.295       55.649       24.584        0.195      336.358        7.606      862.802
12/07/2021  09:15:00       12.820        5.061      -20.474       62.054       57.142       29.431     3850.719     3265.239      866.174        0.429        0.399       13.783       23.914        3.010      336.222        7.378      862.816
12/07/2021  09:16:00      -16.550       -0.142       -6.248       34.895       37.828       30.392     1217.635     1430.972      923.653        0.194        0.179       16.551       18.480        1.247      336.287        7.488      862.813
12/07/2021  09:17:00       73.055       47.710       -3.496       41.115       43.486       38.529     1690.446     1890.997     1484.494        0.634        0.253       87.255       24.580        0.079      336.116        7.202      862.808
12/07/2021  09:18:00       22.301       18.805      -18.328       58.097       59.072       29.985     3375.214     3489.485      899.085        0.447        0.388       29.171       30.137        1.067      336.151        7.260      862.798
12/07/2021  09:19:00       16.872      -36.091       -6.708       34.606       53.800       33.046     1197.589     2894.446     1092.056        0.341        0.259       39.840       23.045        0.335      336.251        7.425      862.793
12/07/2021  09:20:00       -9.852      -12.297      -14.714       45.825       34.695       29.602     2099.958     1203.734      876.251        0.232        0.209       15.757       17.009        1.165      336.269        7.456      862.798
12/07/2021  09:21:00        9.439      -13.309       -0.548       33.709       52.956       32.875     1136.281     2804.316     1080.795        0.264        0.251       16.317       18.838        1.333      336.321        7.543      862.799
12/07/2021  09:22:00       40.370      -95.117      -28.364       45.016       86.702       41.101     2026.464     7517.238     1689.286        1.136        0.562      103.329       28.721        0.077      336.246        7.418      862.814
12/07/2021  09:23:00      -30.549        0.296      -20.692       35.055       26.783       25.221     1228.847      717.310      636.081        0.197        0.129       30.550       16.217        0.282      336.255        7.433      862.823
12/07/2021  09:24:00      -13.959       -4.899      -12.801       35.748       24.167       29.581     1277.932      584.055      875.048        0.156        0.137       14.793        8.458        0.327      336.284        7.482      862.829
12/07/2021  09:25:00       10.936      -10.953      -31.032       29.610       31.496       28.024      876.729      992.010      785.339        0.193        0.133       15.478       15.977        1.065      336.307        7.520      862.838
12/07/2021  09:26:00       29.843        9.514      -19.549       35.090       44.416       24.610     1231.334     1972.745      605.672        0.259        0.190       31.323       18.868        0.363      336.348        7.590      862.862
12/07/2021  09:27:00      133.043       42.272      -26.451       38.128       37.027       21.530     1453.738     1370.979      463.524        1.174        0.164      139.597        9.491        0.005      336.121        7.211      862.890
12/07/2021  09:28:00      140.985       71.343      -37.928       42.303       39.760       29.160     1789.574     1580.841      850.292        1.531        0.211      158.008       14.694        0.009      336.151        7.259      862.921
12/07/2021  09:29:00      167.763       34.632      -20.637       28.221       26.382       17.797      796.451      696.032      316.726        1.579        0.090      171.300        6.692        0.002      336.030        7.059      862.950
12/07/2021  09:30:00      139.498       36.801      -20.079       30.173       33.690       19.905      910.411     1135.032      396.202        1.183        0.122      144.271        6.686        0.002      336.183        7.312      862.979
12/07/2021  09:31:00      197.038       73.807      -21.458       40.507       35.745       20.011     1640.825     1277.714      400.425        2.402        0.166      210.407        9.032        0.002      336.098        7.168      863.001
12/07/2021  09:32:00      163.695       42.375      -25.986       45.727       47.614       24.089     2090.967     2267.117      580.272        1.710        0.247      169.090       18.966        0.013      336.127        7.218      863.026
12/07/2021  09:33:00      127.760       59.285      -31.931       68.280       44.370       27.511     4662.182     1968.698      756.838        1.412        0.369      140.845       24.247        0.030      336.276        7.467      863.041
12/07/2021  09:34:00      180.204       78.697      -20.787       50.133       33.171       23.588     2513.314     1100.330      556.381        2.163        0.209      196.639       12.236        0.004      336.104        7.179      863.062
12/07/2021  09:35:00      169.906       40.692      -12.903       54.928       44.860       26.968     3017.031     2012.388      727.247        1.822        0.288      174.711       22.656        0.017      336.147        7.252      863.065
12/07/2021  09:36:00      171.854       37.133      -27.641       37.125       33.185       24.981     1378.296     1101.261      624.068        1.739        0.155      175.820       15.095        0.007      336.140        7.240      863.073
12/07/2021  09:37:00       65.990        5.294       -5.453       58.392       71.023       38.426     3409.638     5044.290     1476.522        0.717        0.497       66.202       30.722        0.215      336.358        7.605      863.063
12/07/2021  09:38:00       21.144        4.273      -31.767       48.328       66.301       30.253     2335.633     4395.852      915.241        0.456        0.382       21.572       23.340        1.171      336.417        7.706      863.050
12/07/2021  09:39:00       43.874      -79.003      -35.011       65.778       97.292       37.971     4326.757     9465.693     1441.786        1.231        0.762       90.368       47.158        0.272      336.341        7.577      863.027
12/07/2021  09:40:00       34.945      -67.206      -17.974       54.029       50.185       37.280     2919.126     2518.525     1389.813        0.644        0.341       75.748       36.368        0.231      336.365        7.619      863.003
12/07/2021  09:41:00       -3.802      -10.126       -3.354       35.460       34.952       26.590     1257.379     1221.630      707.047        0.166        0.159       10.816       15.996        2.187      336.411        7.695      862.980
12/07/2021  09:42:00       41.595      -48.032      -25.160       30.759       53.214       26.640      946.105     2831.742      709.671        0.458        0.224       63.539       15.997        0.063      336.453        7.765      862.964
12/07/2021  09:43:00       46.849        7.357       -9.178       53.022       59.656       34.505     2811.381     3558.860     1190.609        0.495        0.378       47.423       26.068        0.302      336.530        7.894      862.939
12/07/2021  09:44:00      -17.863        3.422       -9.801       40.143       38.055       34.678     1611.451     1448.219     1202.543        0.234        0.213       18.188       27.422        2.273      336.565        7.953      862.927
12/07/2021  09:45:00       21.893       12.509      -12.089       49.180       54.156       31.767     2418.642     2932.904     1009.171        0.357        0.318       25.215       27.084        1.154      336.491        7.829      862.918
12/07/2021  09:46:00       48.971       31.059      -10.792       62.617       64.605       42.749     3920.868     4173.746     1827.504        0.670        0.496       57.990       32.444        0.313      336.428        7.723      862.916
12/07/2021  09:47:00      -22.548       -7.091       -0.158       28.897       24.088       26.176      835.024      580.243      685.173        0.133        0.105       23.637       17.296        0.535      336.576        7.971      862.930
12/07/2021  09:48:00      -17.140        2.450       -3.032       38.892       27.472       26.672     1512.565      754.705      711.409        0.164        0.149       17.314       11.795        0.464      336.629        8.060      862.929
12/07/2021  09:49:00       37.112       50.590       -1.853       52.884       48.187       27.043     2796.717     2322.008      731.311        0.489        0.293       62.742       16.444        0.069      336.504        7.851      862.928
12/07/2021  09:50:00       48.585       57.481       -0.693       36.657       40.139       26.208     1343.762     1611.145      686.879        0.465        0.182       75.264       15.182        0.041      336.423        7.715      862.928
12/07/2021  09:51:00      -20.700      -48.877        1.862       50.228       65.217       45.617     2522.867     4253.278     2080.890        0.584        0.443       53.080       33.619        0.401      336.572        7.964      862.922
12/07/2021  09:52:00        8.296      -55.454       -4.455       51.781       49.534       38.574     2681.300     2453.638     1487.976        0.489        0.331       56.072       31.996        0.326      336.566        7.954      862.926
12/07/2021  09:53:00        3.231      -38.757      -20.311       42.982       54.490       33.092     1847.412     2969.132     1095.103        0.392        0.296       38.891       26.123        0.451      336.549        7.927      862.933
12/07/2021  09:54:00       40.788       60.106       -2.995       71.542       57.511       27.933     5118.248     3307.520      780.276        0.724        0.460       72.639       22.586        0.097      336.496        7.838      862.935
12/07/2021  09:55:00      127.790       45.501      -28.936       34.488       28.584       23.632     1189.435      817.068      558.455        1.090        0.128      135.649        8.040        0.004      336.302        7.512      862.948
12/07/2021  09:56:00      119.552       72.425      -17.099       30.250       30.018       17.432      915.037      901.062      303.879        1.097        0.106      139.778       14.001        0.010      336.392        7.663      862.958
12/07/2021  09:57:00      132.067       61.391      -26.404       41.110       30.632       25.171     1690.008      938.346      633.555        1.258        0.163      145.639       14.896        0.010      336.434        7.733      862.987
12/07/2021  09:58:00       79.140       25.170       -8.236       56.698       63.746       40.917     3214.714     4063.577     1674.225        0.796        0.448       83.046       20.947        0.064      336.569        7.959      863.019
12/07/2021  09:59:00       88.626       35.048      -33.689       56.305       59.683       29.391     3170.273     3562.026      863.816        0.891        0.380       95.304       14.618        0.024      336.640        8.077      863.063
12/07/2021  10:00:00       38.783       30.391      -26.619       38.288       58.287       33.952     1465.939     3397.346     1152.767        0.458        0.301       49.272       19.161        0.151      336.645        8.087      863.095
12/07/2021  10:01:00       80.460       34.326      -17.067       61.735       77.659       43.033     3811.245     6030.966     1851.865        0.982        0.585       87.476       35.396        0.164      336.635        8.070      863.120
12/07/2021  10:02:00      122.736       27.593      -19.414       67.289       77.703       38.127     4527.784     6037.807     1453.652        1.411        0.601      125.799       26.178        0.043      336.713        8.198      863.147
12/07/2021  10:03:00       84.984       52.505      -13.344       56.322       26.421       21.727     3172.124      698.095      472.072        0.725        0.217       99.895       23.390        0.055      336.424        7.717      863.187
12/07/2021  10:04:00       38.445       40.179        5.410       38.898       50.885       35.608     1513.063     2589.286     1267.954        0.424        0.269       55.609       18.309        0.108      336.794        8.334      863.207
12/07/2021  10:05:00       91.010       25.173       -5.259       72.772       60.422       26.577     5295.780     3650.794      706.331        0.930        0.483       94.427       27.097        0.082      336.611        8.029      863.240
12/07/2021  10:06:00      171.110       61.531      -35.943       73.967       62.023       28.830     5471.174     3846.835      831.150        2.225        0.507      181.837       35.704        0.039      336.531        7.892      863.260
12/07/2021  10:07:00       88.163     -108.781      -37.650       70.062       77.266       38.557     4908.699     5969.975     1486.672        1.669        0.618      140.022       23.128        0.027      336.657        8.106      863.278
12/07/2021  10:08:00      -21.941       14.842      -11.103       32.475       32.002       22.267     1054.649     1024.116      495.803        0.170        0.129       26.489        9.967        0.142      336.788        8.325      863.316
12/07/2021  10:09:00       57.830       62.859      -13.489       41.243       46.422       34.233     1701.026     2155.041     1171.919        0.625        0.251       85.414       25.928        0.092      336.806        8.355      863.354
12/07/2021  10:10:00      194.623       29.428      -21.878       57.247       38.749       29.143     3277.212     1501.514      849.323        2.242        0.281      196.835       11.399        0.003      336.569        7.958      863.384
12/07/2021  10:11:00      156.155      103.503      -20.169       53.169       31.476       31.783     2826.972      990.737     1010.173        2.017        0.241      187.343       21.260        0.013      336.520        7.877      863.405
12/07/2021  10:12:00      162.363       31.354      -29.754       68.431       60.585       37.238     4682.738     3670.501     1386.655        1.898        0.487      165.362       28.751        0.030      336.791        8.328      863.421
12/07/2021  10:13:00      144.401       56.858      -28.583       35.714       47.800       24.880     1275.466     2284.834      619.036        1.454        0.209      155.192       17.923        0.013      336.618        8.040      863.427
12/07/2021  10:14:00      191.931       19.235      -23.214       70.510       66.501       41.700     4971.657     4422.365     1738.866        2.444        0.557      192.893       22.606        0.014      336.665        8.116      863.410
12/07/2021  10:15:00      132.274        3.108      -13.603       89.962       63.381       41.175     8093.111     4017.202     1695.389        1.575        0.690      132.310       31.593        0.057      336.736        8.237      863.393
12/07/2021  10:16:00      112.432       36.357      -24.375       91.611       52.005       30.602     8392.515     2704.492      936.507        1.329        0.602      118.164       26.016        0.048      336.809        8.358      863.384
12/07/2021  10:17:00      123.683       49.394      -22.404       61.182       39.189       26.729     3743.293     1535.779      714.439        1.212        0.300      133.181       15.507        0.014      336.678        8.140      863.371
12/07/2021  10:18:00      172.545       40.214      -26.908       53.911       44.754       23.376     2906.415     2002.893      546.455        1.878        0.273      177.170        7.561        0.002      336.514        7.867      863.358
12/07/2021  10:19:00      158.389       37.161      -36.113       37.750       33.591       24.354     1425.048     1128.351      593.101        1.546        0.157      162.690       13.593        0.007      336.588        7.991      863.349
12/07/2021  10:20:00      137.286       89.251      -17.172       60.714       34.950       30.016     3686.193     1221.514      900.945        1.646        0.290      163.747       25.757        0.025      336.647        8.088      863.352
12/07/2021  10:21:00      131.564       86.040      -20.254       64.409       34.396       31.381     4148.481     1183.080      984.739        1.572        0.316      157.200       26.700        0.029      336.549        7.926      863.363
12/07/2021  10:22:00       97.159       78.516       -7.849       68.295       38.230       33.574     4664.142     1461.499     1127.239        1.146        0.363      124.919       20.298        0.026      336.698        8.174      863.373
12/07/2021  10:23:00      114.014       60.588       -6.450       47.537       33.949       30.392     2259.768     1152.525      923.648        1.052        0.217      129.113       24.785        0.037      336.632        8.064      863.383
12/07/2021  10:24:00       56.368       84.308      -13.208       37.097       31.274       21.651     1376.183      978.061      468.766        0.664        0.141      101.416       20.459        0.041      336.746        8.255      863.393
12/07/2021  10:25:00       98.718       60.416      -19.453       43.608       37.405       18.183     1901.689     1399.127      330.630        0.870        0.182      115.738       15.814        0.019      336.881        8.480      863.396
12/07/2021  10:26:00      128.993       60.629      -18.720       84.791       42.431       22.883     7189.578     1800.380      523.645        1.509        0.476      142.531       28.168        0.039      336.857        8.439      863.406
12/07/2021  10:27:00      154.025       94.194      -15.952       48.252       38.481       36.184     2328.266     1480.783     1309.247        1.898        0.256      180.544       27.907        0.024      336.672        8.131      863.407
12/07/2021  10:28:00      110.260       62.816       -9.955       53.965       34.051       24.200     2912.254     1159.478      585.648        1.043        0.233      126.898       21.868        0.030      336.746        8.255      863.408
12/07/2021  10:29:00      146.572       50.053      -23.466       39.891       45.096       32.111     1591.282     2033.621     1031.109        1.460        0.233      154.883       10.245        0.004      336.925        8.554      863.401
12/07/2021  10:30:00       57.695       37.551      -15.082       52.595       48.457       28.103     2766.222     2348.124      789.776        0.543        0.295       68.839       24.505        0.127      336.880        8.476      863.408
12/07/2021  10:31:00       -9.466      -33.240       -0.235       37.871       60.907       34.226     1434.245     3709.639     1171.448        0.375        0.316       34.561       16.051        0.216      336.958        8.609      863.402
12/07/2021  10:32:00       74.695       28.174      -13.816       52.126       75.174       38.922     2717.139     5651.181     1514.900        0.822        0.494       79.832       29.500        0.137      337.018        8.709      863.412
12/07/2021  10:33:00      161.158       45.422      -29.491       58.683       55.956       30.219     3443.664     3131.118      913.205        1.820        0.374      167.437       14.570        0.008      336.854        8.433      863.418
12/07/2021  10:34:00       78.142       27.201      -19.941       46.113       43.473       29.606     2126.439     1889.888      876.516        0.607        0.245       82.741       19.743        0.057      336.862        8.449      863.436
12/07/2021  10:35:00       68.234        9.494      -21.863       48.212       45.885       35.437     2324.405     2105.422     1255.766        0.545        0.284       68.891       27.105        0.155      336.823        8.384      863.456
12/07/2021  10:36:00      -14.004      -47.489      -13.288       38.043       28.642       27.286     1447.290      820.366      744.519        0.282        0.151       49.511       24.376        0.242      337.004        8.687      863.479
12/07/2021  10:37:00       28.277      -55.439      -10.379       28.273       50.333       22.474      799.345     2533.451      505.062        0.391        0.192       62.234       21.204        0.116      336.981        8.648      863.494
12/07/2021  10:38:00       96.443       27.802      -24.381       40.401       33.130       24.771     1632.267     1097.626      613.602        0.701        0.167      100.370       16.801        0.028      336.938        8.574      863.519
12/07/2021  10:39:00       71.168        6.670      -26.862       52.590       47.573       25.377     2765.755     2263.226      644.000        0.575        0.284       71.480       13.462        0.035      337.013        8.702      863.524
12/07/2021  10:40:00       61.780       42.949      -13.676       46.568       52.960       35.616     2168.600     2804.774     1268.509        0.604        0.312       75.242       16.427        0.048      337.043        8.751      863.522
12/07/2021  10:41:00      110.684       61.205      -21.477       40.637       51.840       29.941     1651.382     2687.431      896.444        1.085        0.262      126.480       16.883        0.018      336.884        8.487      863.511
12/07/2021  10:42:00       77.616       83.943      -14.008       28.050       32.728       17.792      786.790     1071.138      316.570        0.772        0.109      114.327       11.555        0.010      336.725        8.221      863.508
12/07/2021  10:43:00       83.376       62.992      -22.196       32.642       27.963       22.533     1065.487      781.927      507.717        0.688        0.118      104.496       14.354        0.019      336.883        8.484      863.493
12/07/2021  10:44:00       45.159       59.532       -7.066       37.196       35.230       22.923     1383.506     1241.172      525.449        0.439        0.158       74.723       22.087        0.087      337.014        8.703      863.483
12/07/2021  10:45:00      -16.727       17.974       13.736       45.295       73.817       38.667     2051.647     5448.969     1495.147        0.489        0.450       24.553       19.404        0.625      337.078        8.810      863.472
12/07/2021  10:46:00       62.303       -6.209      -37.955       49.836       50.079       43.453     2483.637     2507.954     1888.167        0.612        0.344       62.611       23.340        0.139      337.028        8.724      863.457
12/07/2021  10:47:00       71.862      -55.715      -34.626       70.565       87.980       43.960     4979.382     7740.416     1932.483        1.206        0.733       90.931       27.657        0.093      336.936        8.572      863.440
12/07/2021  10:48:00       49.449       -1.399      -49.235       57.499       77.263       37.352     3306.081     5969.589     1395.193        0.777        0.534       49.468       23.912        0.234      337.004        8.686      863.430
12/07/2021  10:49:00       15.859        5.688      -13.300       74.180       50.393       30.551     5502.669     2539.435      933.341        0.472        0.449       16.849       33.770        4.017      337.084        8.821      863.425
12/07/2021  10:50:00      126.122       64.733      -14.576       73.752       40.569       34.677     5439.326     1645.856     1202.515        1.430        0.414      141.764       22.306        0.025      336.867        8.457      863.418
12/07/2021  10:51:00      172.374       39.008      -15.549       54.294       54.093       33.731     2947.888     2926.069     1137.762        1.924        0.351      176.732       28.465        0.026      336.836        8.404      863.417
12/07/2021  10:52:00      156.411       59.998      -23.294       73.768       54.508       33.519     5441.687     2971.165     1123.501        1.907        0.477      167.524       26.438        0.025      336.845        8.418      863.417
12/07/2021  10:53:00      184.466       33.731      -20.065       54.479       47.752       34.167     2967.953     2280.233     1167.366        2.099        0.321      187.524       22.648        0.015      336.885        8.485      863.411
12/07/2021  10:54:00      185.512       80.230      -16.984       57.257       55.434       26.982     3278.327     3072.877      728.009        2.411        0.354      202.118       25.946        0.016      336.807        8.355      863.407
12/07/2021  10:55:00      167.727       56.892      -26.290       41.649       37.328       24.077     1734.680     1393.386      579.723        1.788        0.185      177.113       13.563        0.006      336.761        8.279      863.390
12/07/2021  10:56:00      201.859        9.168      -19.945       57.797       46.583       31.028     3340.498     2170.011      962.754        2.385        0.324      202.067       27.336        0.018      336.874        8.467      863.364
12/07/2021  10:57:00      152.654       59.476      -30.839       46.022       38.486       21.157     2118.059     1481.202      447.636        1.592        0.202      163.831       14.928        0.008      336.913        8.533      863.352
12/07/2021  10:58:00      136.597       30.430      -21.892       50.503       53.546       34.148     2550.600     2867.126     1166.102        1.332        0.329      139.946       20.863        0.022      337.035        8.739      863.339
12/07/2021  10:59:00      123.183       37.029      -15.334       52.717       35.394       23.123     2779.120     1252.710      534.681        1.067        0.228      128.628       14.066        0.012      336.877        8.473      863.323
12/07/2021  11:00:00      134.022       76.338      -14.588       30.754       32.128       20.051      945.793     1032.185      402.029        1.319        0.119      154.238       15.295        0.010      336.864        8.451      863.311
12/07/2021  11:01:00       75.973       48.070      -29.214       52.655       55.253       31.716     2772.543     3052.848     1005.907        0.788        0.342       89.903       21.347        0.056      337.170        8.963      863.283
12/07/2021  11:02:00      -11.050      -36.185       -2.866       60.072       61.149       29.440     3608.641     3739.149      866.686        0.483        0.411       37.835       26.814        0.502      337.269        9.129      863.255
12/07/2021  11:03:00      -20.968      -16.599      -13.462       43.292       65.252       40.446     1874.220     4257.800     1635.900        0.433        0.388       26.743        7.812        0.085      337.329        9.230      863.230
12/07/2021  11:04:00       55.021       47.207        7.049       68.814       66.504       34.268     4735.343     4422.831     1174.326        0.782        0.517       72.497       31.770        0.192      337.334        9.239      863.219
12/07/2021  11:05:00       -3.200       24.856       -5.974       62.627       51.419       34.984     3922.164     2643.877     1223.883        0.423        0.389       25.061       16.902        0.455      337.278        9.145      863.224
12/07/2021  11:06:00      113.511       62.951      -23.068       44.939       44.896       26.978     2019.512     2015.677      727.820        1.107        0.238      129.798       17.771        0.019      337.023        8.718      863.234
12/07/2021  11:07:00       22.241       25.928      -13.456       83.259       67.592       40.339     6931.984     4568.745     1627.252        0.724        0.656       34.160       32.105        0.883      337.146        8.923      863.245
12/07/2021  11:08:00      126.516       27.967      -23.001       54.670       60.253       31.132     2988.856     3630.392      969.183        1.245        0.379      129.571       19.419        0.022      337.119        8.879      863.255
12/07/2021  11:09:00       51.815       14.620      -27.806       56.866       74.713       43.482     3233.748     5582.054     1890.703        0.719        0.535       53.838       30.250        0.316      337.313        9.203      863.247
12/07/2021  11:10:00       29.889       50.797      -16.700       36.081       36.687       38.219     1301.844     1345.928     1460.679        0.393        0.205       58.938       13.878        0.055      337.122        8.883      863.243
12/07/2021  11:11:00      168.466        1.612      -18.769      101.219       50.664       35.334    10245.274     2566.826     1248.464        2.140        0.703      168.474       34.773        0.043      336.997        8.673      863.225
12/07/2021  11:12:00      117.928       21.778      -17.749       58.476       64.132       33.026     3419.482     4112.903     1090.713        1.166        0.431      119.922       15.971        0.018      336.978        8.641      863.228
12/07/2021  11:13:00      108.052       67.366      -21.221       43.643       43.546       27.004     1904.668     1896.234      729.216        1.060        0.227      127.331       12.003        0.009      337.068        8.794      863.223
12/07/2021  11:14:00       94.255       92.186      -10.782       67.740       69.803       40.019     4588.769     4872.460     1601.532        1.428        0.553      131.842       39.861        0.091      337.144        8.920      863.206
12/07/2021  11:15:00      169.743       56.610      -20.540       50.023       42.261       27.315     2502.332     1785.958      746.135        1.874        0.252      178.934        7.461        0.002      336.975        8.635      863.213
12/07/2021  11:16:00      173.117       10.321      -14.601      120.714       72.139       43.011    14571.910     5204.095     1849.935        2.595        1.081      173.424       49.475        0.081      337.134        8.901      863.202
12/07/2021  11:17:00       95.428      -30.837      -32.311       60.745       98.455       40.068     3689.906     9693.377     1605.470        1.304        0.749      100.287       23.431        0.055      337.122        8.883      863.197
12/07/2021  11:18:00       43.223       16.186      -21.330       72.068       61.320       34.583     5193.729     3760.172     1196.005        0.637        0.507       46.155       20.803        0.203      337.149        8.929      863.193
12/07/2021  11:19:00       74.369      -13.566      -33.687       61.914       60.914       51.261     3833.297     3710.559     2627.670        0.851        0.509       75.596       43.786        0.335      337.247        9.093      863.171
12/07/2021  11:20:00       34.700      -47.860      -21.591       54.926       79.226       38.846     3016.852     6276.683     1509.000        0.738        0.540       59.116       38.603        0.426      337.075        8.804      863.178
12/07/2021  11:21:00       -0.001       14.047       -2.595       35.069       34.058       24.266     1229.868     1159.921      588.841        0.159        0.149       14.047       15.239        1.177      337.211        9.034      863.189
12/07/2021  11:22:00       11.743        2.285       -5.414       32.294       49.419       28.389     1042.871     2442.264      805.937        0.223        0.215       11.964       25.068        4.391      337.266        9.125      863.186
12/07/2021  11:23:00      102.591       19.338      -11.170       81.306       53.551       38.225     6610.712     2867.758     1461.152        1.098        0.547      104.398       19.198        0.034      337.237        9.075      863.187
12/07/2021  11:24:00      189.637       65.418      -20.783       41.245       48.150       26.652     1701.111     2318.417      710.338        2.270        0.236      200.604        7.041        0.001      336.961        8.610      863.174
12/07/2021  11:25:00      135.577       46.205      -27.635       70.955       60.316       34.983     5034.543     3638.010     1223.777        1.559        0.495      143.234       25.084        0.031      337.185        8.988      863.154
12/07/2021  11:26:00      156.552      -17.386      -17.914       83.938       53.852       43.901     7045.556     2900.043     1927.311        1.850        0.594      157.514       22.637        0.021      337.133        8.901      863.146
12/07/2021  11:27:00      150.579       15.190      -32.087       47.544       53.830       32.980     2260.417     2897.668     1087.681        1.509        0.312      151.343       19.148        0.016      337.020        8.712      863.147
12/07/2021  11:28:00      143.572       58.494      -20.001       93.796       81.860       29.742     8797.723     6701.007      884.597        2.041        0.819      155.030       13.180        0.007      337.027        8.723      863.145
12/07/2021  11:29:00      146.344       79.236      -24.160       61.870       36.262       23.460     3827.923     1314.946      550.378        1.698        0.285      166.418       24.093        0.021      336.942        8.582      863.120
12/07/2021  11:30:00       86.943       80.965       -0.234       60.578       51.606       38.809     3669.751     2663.223     1506.161        1.098        0.392      118.804       25.520        0.046      337.116        8.873      863.102
12/07/2021  11:31:00        4.646      -36.963      -10.821       33.798       41.758       35.317     1142.314     1743.771     1247.281        0.282        0.207       37.253       28.261        0.575      337.378        9.312      863.078
12/07/2021  11:32:00      120.685       28.459      -28.695       85.632       51.713       32.291     7332.876     2674.234     1042.693        1.362        0.552      123.995       29.909        0.058      337.111        8.863      863.076
12/07/2021  11:33:00       95.928       23.400      -16.114       57.306       63.694       32.023     3284.018     4056.963     1025.480        0.919        0.418       98.741       26.545        0.072      337.128        8.893      863.070
12/07/2021  11:34:00        4.320        4.163      -20.123       45.496       36.094       31.483     2069.918     1302.802      991.153        0.240        0.218        5.999       21.781       13.181      337.357        9.276      863.054
12/07/2021  11:35:00       38.737      -94.929      -22.135       42.219       80.353       37.285     1782.456     6456.665     1390.184        1.031        0.481      102.529       25.091        0.060      337.196        9.007      863.017
12/07/2021  11:36:00      102.036       30.295      -19.934       45.221       50.115       22.842     2044.962     2511.550      521.740        0.840        0.254      106.438       12.810        0.014      337.155        8.939      862.991
12/07/2021  11:37:00       68.494       51.013      -10.348       45.943       36.282       15.294     2110.791     1316.386      233.893        0.553        0.183       85.404       10.202        0.014      336.993        8.668      862.987
12/07/2021  11:38:00       35.176      -87.806      -19.325       77.077       78.526       41.850     5940.872     6166.269     1751.392        1.159        0.693       94.589       41.389        0.191      337.229        9.063      862.987
12/07/2021  11:39:00       36.009       -5.534       -0.618       41.404       70.713       32.588     1714.296     5000.292     1062.001        0.455        0.389       36.431       29.882        0.673      337.300        9.181      862.983
12/07/2021  11:40:00       -5.753      -85.009      -23.796       50.526       67.039       32.325     2552.902     4494.233     1044.881        0.796        0.405       85.203       11.551        0.018      337.416        9.376      862.968
12/07/2021  11:41:00       45.023     -155.335      -24.708       45.808       53.513       36.201     2098.403     2863.621     1310.536        1.652        0.314      161.728       31.851        0.039      337.221        9.048      862.951
12/07/2021  11:42:00       66.203      -61.264      -25.424       42.126       50.469       33.834     1774.610     2547.101     1144.749        0.712        0.273       90.200       31.433        0.121      337.173        8.971      862.942
12/07/2021  11:43:00       28.521      -65.569      -23.563       26.796       50.755       24.243      718.044     2576.104      587.732        0.477        0.194       71.503       21.789        0.093      337.336        9.243      862.939
12/07/2021  11:44:00       10.054      -53.897      -12.093       22.766       34.792       24.247      518.290     1210.489      587.903        0.273        0.116       54.827       12.382        0.051      337.485        9.490      862.942
12/07/2021  11:45:00       68.953     -109.825      -24.201       36.350       55.381       33.576     1321.298     3067.092     1127.370        1.146        0.276      129.677       28.977        0.050      337.285        9.157      862.938
12/07/2021  11:46:00       59.635     -127.505      -33.455       47.961       55.846       35.760     2300.266     3118.813     1278.772        1.381        0.335      140.762       24.092        0.029      337.359        9.278      862.918
12/07/2021  11:47:00      -24.951      -15.004       10.791       56.493       42.982       53.336     3191.469     1847.453     2844.767        0.442        0.394       29.115       33.589        1.331      337.548        9.595      862.890
12/07/2021  11:48:00       24.777      -71.405      -33.085       65.426       58.902       39.021     4280.527     3469.461     1522.641        0.804        0.464       75.581       37.728        0.249      337.474        9.473      862.874
12/07/2021  11:49:00       -2.048      -66.723       -0.569       71.705       71.047       44.513     5141.650     5047.745     1981.451        0.831        0.609       66.755       48.498        0.528      337.611        9.702      862.857
12/07/2021  11:50:00       76.851     -195.048      -38.633       47.364       49.099       32.910     2243.312     2410.751     1083.060        2.559        0.287      209.642       28.678        0.019      337.261        9.113      862.843
12/07/2021  11:51:00       82.043     -132.104      -31.875       32.652       56.148       23.084     1066.133     3152.645      532.870        1.497        0.238      155.507       22.967        0.022      337.032        8.731      862.822
12/07/2021  11:52:00       62.696     -169.711      -30.258       34.445       37.705       28.406     1186.462     1421.664      806.923        1.853        0.171      180.921       26.388        0.021      336.966        8.621      862.799
12/07/2021  11:53:00       11.611      -59.331      -19.959       38.226       33.895       31.446     1461.242     1148.851      988.835        0.383        0.180       60.456       30.694        0.258      337.032        8.733      862.785
12/07/2021  11:54:00       51.824      -71.884      -13.206       72.024       98.085       40.919     5187.433     9620.750     1674.376        1.225        0.824       88.617       49.546        0.313      337.356        9.274      862.782
12/07/2021  11:55:00      115.459     -164.793      -47.698       62.217       45.309       33.699     3871.006     2052.873     1135.626        2.491        0.353      201.215       17.092        0.007      337.094        8.832      862.789
12/07/2021  11:56:00      102.685     -216.899      -46.830       36.568       65.157       26.890     1337.232     4245.388      723.070        3.304        0.315      239.978       22.569        0.009      337.143        8.914      862.778
12/07/2021  11:57:00       79.004     -204.267      -42.195       52.451       57.829       39.702     2751.119     3344.190     1576.247        2.871        0.384      219.013       31.581        0.021      337.185        8.985      862.796
12/07/2021  11:58:00       74.721     -191.553      -36.897       38.484       59.701       28.234     1480.999     3564.193      797.136        2.474        0.292      205.610       17.675        0.007      337.080        8.811      862.791
12/07/2021  11:59:00       74.122     -140.448      -48.007       47.945       45.566       33.590     2298.769     2076.256     1128.277        1.651        0.275      158.807       25.757        0.026      337.236        9.074      862.781
12/07/2021  12:00:00       70.840     -217.260      -39.134       39.165       53.279       30.010     1533.933     2838.645      900.593        2.951        0.264      228.517       24.867        0.012      337.129        8.892      862.766
12/07/2021  12:01:00       66.364     -137.706      -23.618       33.852       62.580       34.739     1145.970     3916.223     1206.814        1.510        0.313      152.863       35.371        0.054      337.152        8.933      862.738
12/07/2021  12:02:00       29.166      -49.135      -11.186       41.014       42.052       33.879     1682.110     1768.367     1147.814        0.399        0.230       57.139       20.019        0.123      337.457        9.445      862.716
12/07/2021  12:03:00      105.056     -202.127      -55.660       48.510       70.755       31.857     2353.237     5006.237     1014.893        3.168        0.419      227.798       20.263        0.008      337.198        9.007      862.688
12/07/2021  12:04:00       79.400     -191.320      -43.921       47.303       60.183       24.143     2237.543     3622.043      582.902        2.564        0.322      207.142       14.354        0.005      337.099        8.842      862.689
12/07/2021  12:05:00       74.608     -136.338      -33.472       37.079       44.498       27.987     1374.870     1980.067      783.259        1.471        0.207      155.416       21.221        0.019      337.218        9.045      862.685
12/07/2021  12:06:00      120.321     -210.212      -48.445       53.921       55.776       30.975     2907.505     3110.950      959.479        3.399        0.349      242.212       30.551        0.016      337.104        8.848      862.670
12/07/2021  12:07:00       68.855     -188.245      -40.977       23.482       25.723       17.328      551.390      661.692      300.247        2.168        0.076      200.442        9.135        0.002      337.081        8.814      862.660
12/07/2021  12:08:00       70.985     -159.042      -34.069       56.760       44.516       26.422     3221.723     1981.701      698.112        1.870        0.295      174.164       29.596        0.029      337.136        8.904      862.644
12/07/2021  12:09:00       15.999      -96.797      -12.137       72.778      113.850       28.921     5296.636    12961.848      836.426        1.443        0.955       98.110       37.324        0.145      337.322        9.216      862.641
12/07/2021  12:10:00      137.896       33.029      -35.785       51.026       60.629       38.948     2603.622     3675.920     1516.958        1.459        0.390      141.796       15.491        0.012      337.334        9.239      862.634
12/07/2021  12:11:00      152.795       32.929      -21.340       56.361       45.260       26.057     3176.511     2048.503      678.949        1.539        0.295      156.303       24.464        0.024      337.238        9.077      862.642
12/07/2021  12:12:00      145.667       56.202      -16.851       44.095       42.200       25.674     1944.411     1780.804      659.142        1.452        0.219      156.133       14.269        0.008      337.235        9.073      862.634
12/07/2021  12:13:00       52.104       -0.957      -18.960       52.373       80.448       36.329     2742.891     6471.863     1319.831        0.680        0.527       52.112       32.575        0.391      337.467        9.459      862.625
12/07/2021  12:14:00       47.565       -2.936      -31.924       53.965       40.548       38.483     2912.201     1644.133     1480.911        0.466        0.302       47.655       20.846        0.191      337.608        9.696      862.609
12/07/2021  12:15:00      132.074       62.396      -18.280       36.957       42.457       23.116     1365.855     1802.605      534.328        1.269        0.185      146.071       19.130        0.017      337.252        9.100      862.605
12/07/2021  12:16:00      129.469      107.465      -18.898       55.792       32.301       29.864     3112.720     1043.379      891.869        1.686        0.252      168.259       14.410        0.007      337.172        8.967      862.591
12/07/2021  12:17:00      133.740       81.663      -18.494       24.770       21.885       17.389      613.535      478.939      302.389        1.315        0.070      156.701       10.541        0.005      337.089        8.827      862.580
12/07/2021  12:18:00       78.042       66.797      -10.117       39.487       25.330       30.614     1559.234      641.630      937.191        0.690        0.157      102.725       16.839        0.027      337.119        8.878      862.567
12/07/2021  12:19:00      129.865       94.587      -18.472       40.545       26.326       32.867     1643.936      693.047     1080.267        1.478        0.171      160.660       21.176        0.017      337.105        8.854      862.558
12/07/2021  12:20:00       80.846       81.835      -11.804       30.903       29.723       29.567      955.020      883.463      874.216        0.804        0.136      115.035       24.088        0.044      337.155        8.938      862.553
12/07/2021  12:21:00       91.047       66.357      -24.678       32.564       36.169       19.144     1060.409     1308.177      366.501        0.802        0.137      112.663       11.814        0.011      337.139        8.913      862.548
12/07/2021  12:22:00       68.808       23.108      -16.914       50.597       53.003       29.939     2560.007     2809.276      896.347        0.591        0.313       72.585       24.849        0.117      337.330        9.230      862.549
12/07/2021  12:23:00       82.849      -65.261      -30.161       47.275       62.950       46.466     2234.925     3962.686     2159.094        1.019        0.418      105.466       27.356        0.067      337.326        9.226      862.555
12/07/2021  12:24:00       99.791      -18.745      -23.497       60.989       40.387       31.643     3719.620     1631.129     1001.306        0.861        0.318      101.537       33.427        0.108      337.414        9.371      862.551
12/07/2021  12:25:00       76.552       -8.297       -7.958       54.362       33.482       33.784     2955.233     1121.051     1141.350        0.560        0.261       77.000       26.783        0.121      337.432        9.400      862.556
12/07/2021  12:26:00       80.415      -15.352      -21.510       81.990       62.627       42.081     6722.394     3922.085     1770.775        0.979        0.621       81.868       42.736        0.272      337.548        9.596      862.540
12/07/2021  12:27:00       93.816      -20.764      -25.429       78.651       66.807       47.061     6185.905     4463.238     2214.697        1.137        0.643       96.086       39.966        0.173      337.429        9.397      862.525
12/07/2021  12:28:00      102.535      -24.871       -8.995       64.848       37.492       32.302     4205.254     1405.630     1043.431        0.893        0.333      105.508       30.852        0.086      337.290        9.163      862.531
12/07/2021  12:29:00       76.268       12.026      -13.793       29.760       22.862       18.329      885.684      522.670      335.957        0.395        0.087       77.210       13.284        0.030      337.238        9.079      862.527
12/07/2021  12:30:00      115.988      -20.952      -31.233       69.510       69.079       42.476     4831.675     4771.914     1804.177        1.314        0.570      117.865       32.414        0.076      337.470        9.465      862.490
12/07/2021  12:31:00       79.057        0.271      -22.182       47.365       40.513       28.431     2243.480     1641.330      808.340        0.572        0.235       79.058        9.752        0.015      337.312        9.201      862.496
12/07/2021  12:32:00       37.890      -54.034      -15.504       34.564       38.669       29.924     1194.658     1495.260      895.452        0.409        0.179       65.995       28.986        0.193      337.478        9.479      862.481
12/07/2021  12:33:00       55.100      -88.189      -28.808       61.929       83.555       32.484     3835.177     6981.454     1055.195        1.176        0.594      103.987       39.113        0.141      337.640        9.751      862.481
12/07/2021  12:34:00       39.714      -45.970      -32.241       46.567       81.893       41.119     2168.526     6706.430     1690.760        0.765        0.528       60.749       27.484        0.205      337.814       10.043      862.481
12/07/2021  12:35:00       28.430      -39.473      -26.482       74.262       56.000       41.790     5514.813     3135.997     1746.416        0.673        0.520       48.645       28.218        0.336      337.873       10.142      862.466
12/07/2021  12:36:00       46.702      -11.502       -7.003       60.154       54.002       49.473     3618.516     2916.174     2447.602        0.567        0.449       48.098       33.955        0.498      337.837       10.081      862.461
12/07/2021  12:37:00      104.090      -60.950      -27.886       78.412       97.589       58.782     6148.380     9523.581     3455.347        1.722        0.956      120.622       56.620        0.220      337.605        9.690      862.462
12/07/2021  12:38:00      130.387      -96.964      -43.268       63.465       87.498       46.311     4027.755     7655.866     2144.730        2.105        0.691      162.489       39.634        0.059      337.486        9.492      862.464
12/07/2021  12:39:00       90.244     -256.206      -38.981       58.363       51.494       33.770     3406.229     2651.669     1140.416        4.125        0.360      271.635       33.736        0.015      337.382        9.314      862.473
12/07/2021  12:40:00      110.291     -166.327      -43.669       64.384      100.364       41.442     4145.315    10072.976     1717.431        2.883        0.797      199.571       42.829        0.046      337.408        9.359      862.467
12/07/2021  12:41:00      133.371      -55.360      -25.006       78.074       68.019       39.971     6095.481     4626.623     1597.713        1.690        0.616      144.404       34.246        0.056      337.492        9.500      862.452
12/07/2021  12:42:00      149.312      -21.262      -25.934      117.488       97.235       72.900    13803.370     9454.656     5314.411        2.599        1.429      150.818       65.312        0.188      337.439        9.411      862.435
12/07/2021  12:43:00      154.454      -39.868      -21.677       95.372       95.799       69.642     9095.909     9177.390     4849.992        2.452        1.156      159.516       60.486        0.144      337.408        9.360      862.431
12/07/2021  12:44:00      152.630      -31.404      -19.922       82.612       86.325       56.297     6824.766     7452.018     3169.390        2.106        0.872      155.828       41.660        0.071      337.415        9.372      862.438
12/07/2021  12:45:00      145.247      -31.266      -16.248       83.420       54.424       49.573     6958.886     2961.960     2457.522        1.736        0.619      148.574       42.137        0.080      337.365        9.289      862.445
12/07/2021  12:46:00      139.553      -29.457      -21.162       87.229       44.011       44.773     7608.950     1936.947     2004.648        1.617        0.578      142.628       41.290        0.084      337.417        9.376      862.436
12/07/2021  12:47:00      184.466        8.757      -15.635       86.787       74.825       49.697     7531.993     5598.849     2469.834        2.497        0.780      184.674       35.193        0.036      337.480        9.480      862.422
12/07/2021  12:48:00      187.162       62.337      -27.573       80.956       66.540       47.628     6553.806     4427.568     2268.424        2.646        0.662      197.270       41.639        0.045      337.378        9.309      862.408
12/07/2021  12:49:00       39.424       18.203      -20.720       41.468       29.099       18.060     1719.616      846.755      326.149        0.260        0.145       43.423       16.768        0.149      337.314        9.206      862.398
12/07/2021  12:50:00       78.833        9.759       -3.317       74.901       46.368       44.057     5610.122     2150.016     1941.036        0.801        0.485       79.435       37.313        0.221      337.732        9.906      862.370
12/07/2021  12:51:00       91.925      -39.247      -29.238       66.191       84.455       42.725     4381.189     7132.638     1825.387        1.209        0.667       99.953       26.188        0.069      337.720        9.883      862.352
12/07/2021  12:52:00       89.091      -61.665      -21.860       81.140       57.477       49.246     6583.738     3303.583     2425.126        1.226        0.616      108.350       40.414        0.139      337.740        9.918      862.336
12/07/2021  12:53:00      126.987      -32.451      -32.315       68.013       72.939       46.048     4625.752     5320.103     2120.442        1.514        0.603      131.068       28.267        0.047      337.647        9.762      862.324
12/07/2021  12:54:00       33.836       14.232       -8.442       66.740       53.049       39.431     4454.290     2814.185     1554.764        0.512        0.441       36.707       23.553        0.412      337.892       10.174      862.332
12/07/2021  12:55:00      126.382       10.916      -17.246       68.234       67.410       38.317     4655.841     4544.122     1468.227        1.353        0.533      126.853       28.553        0.051      337.791       10.003      862.330
12/07/2021  12:56:00      137.737       57.005      -19.413       56.224       47.090       29.795     3161.177     2217.490      887.721        1.443        0.313      149.067       19.804        0.018      337.479        9.480      862.333
12/07/2021  12:57:00      121.487       48.416      -14.208       36.158       31.319       25.219     1307.422      980.868      635.983        1.011        0.146      130.779       17.984        0.019      337.542        9.586      862.327
12/07/2021  12:58:00       76.864      -44.277      -23.805       51.659       64.895       36.551     2668.633     4211.324     1335.990        0.832        0.411       88.704       30.796        0.121      337.857       10.114      862.321
12/07/2021  12:59:00       78.766       -5.832      -23.926       91.038      114.866       55.821     8287.828    13194.233     3115.983        1.570        1.230       78.982       45.882        0.337      337.890       10.169      862.281
12/07/2021  13:00:00      116.056     -247.682      -37.749       51.404       71.169       34.477     2642.330     5065.019     1188.634        4.257        0.445      273.524       30.740        0.013      337.601        9.680      862.279
12/07/2021  13:01:00      137.517     -165.385      -52.182       70.144       93.430       44.216     4920.205     8729.141     1955.089        3.229        0.780      215.089       37.207        0.030      337.588        9.661      862.278
12/07/2021  13:02:00       74.248     -105.999      -15.317       67.556       79.936       43.538     4563.840     6389.777     1895.578        1.491        0.642      129.416       46.686        0.130      337.715        9.876      862.257
12/07/2021  13:03:00      104.368     -157.105      -31.487       47.247       65.187       43.858     2232.244     4249.323     1923.554        2.248        0.420      188.612       36.863        0.038      337.406        9.358      862.227
12/07/2021  13:04:00       70.894       29.202      -10.084       48.162       44.643       32.549     2319.622     1992.997     1059.428        0.568        0.269       76.673       31.646        0.170      337.498        9.513      862.196
12/07/2021  13:05:00       24.799      -76.345      -16.574       33.292       34.711       29.653     1108.369     1204.877      879.314        0.495        0.160       80.272       20.811        0.067      337.800       10.018      862.165
12/07/2021  13:06:00       77.222     -115.385      -41.182       51.431       72.587       37.977     2645.124     5268.870     1442.290        1.516        0.468      138.842       28.903        0.043      337.742        9.921      862.141
12/07/2021  13:07:00      134.203      -11.654      -36.876       56.093       55.722       30.969     3146.382     3104.966      959.096        1.336        0.361      134.708       18.701        0.019      337.560        9.615      862.117
12/07/2021  13:08:00       86.415        9.230      -13.296       74.680       62.397       49.950     5577.160     3893.443     2495.015        0.985        0.598       86.907       33.854        0.152      337.642        9.755      862.082
12/07/2021  13:09:00       46.891      -76.083      -33.528       49.485       76.298       32.809     2448.735     5821.357     1076.435        0.923        0.467       89.372       24.974        0.078      337.688        9.831      862.082
12/07/2021  13:10:00       86.223      -94.834      -26.677       52.708       85.975       39.076     2778.146     7391.647     1526.939        1.442        0.585      128.171       43.552        0.115      337.479        9.481      862.066
12/07/2021  13:11:00        2.273      -82.841      -34.077       55.967       47.253       36.881     3132.358     2232.841     1360.231        0.738        0.336       82.873       21.729        0.069      337.783        9.992      862.053
12/07/2021  13:12:00       49.604      -22.411      -23.284       58.932       80.466       36.099     3473.023     6474.838     1303.136        0.738        0.563       54.432       24.816        0.208      337.854       10.110      862.056
12/07/2021  13:13:00       79.642     -123.947      -36.621       53.125       48.781       37.130     2822.288     2379.553     1378.624        1.481        0.329      147.328       31.591        0.046      337.713        9.873      862.052
12/07/2021  13:14:00       84.899      -79.404      -29.718       50.161       75.917       27.391     2516.116     5763.435      750.257        1.171        0.451      116.245       21.284        0.034      337.837       10.082      862.050
12/07/2021  13:15:00       87.099      -70.134      -25.925       51.305       55.525       36.414     2632.216     3083.000     1325.975        1.011        0.352      111.826       32.884        0.086      337.966       10.298      862.048
12/07/2021  13:16:00      101.263      -46.455      -15.746       93.444       94.216       49.165     8731.850     8876.652     2417.202        1.634        1.001      111.410       38.100        0.117      337.805       10.027      862.027
12/07/2021  13:17:00      131.849      -75.864      -17.208      102.166       75.802       60.661    10437.959     5745.937     3679.806        2.165        0.993      152.117       49.594        0.106      337.707        9.861      862.021
12/07/2021  13:18:00       62.203      -58.186      -27.957       63.878       80.599       41.268     4080.397     6496.264     1703.036        1.016        0.614       85.176       44.966        0.279      337.721        9.886      862.045
12/07/2021  13:19:00       18.187      -59.860      -21.231       43.574       75.346       26.549     1898.711     5677.016      704.865        0.632        0.414       62.562       22.300        0.127      337.927       10.233      862.043
12/07/2021  13:20:00       76.610      -30.871      -20.312       69.639       68.150       52.222     4849.531     4644.469     2727.125        0.973        0.611       82.596       42.328        0.263      337.843       10.091      862.028
12/07/2021  13:21:00       -0.971        3.474       -1.767       41.515       35.005       28.608     1723.515     1225.370      818.437        0.189        0.188        3.608       17.973       24.820      337.709        9.866      862.029
12/07/2021  13:22:00       67.284       -7.801       -9.362       86.500       54.083       48.875     7482.324     2925.020     2388.790        0.873        0.640       67.735       37.481        0.306      337.782        9.989      862.008
12/07/2021  13:23:00      171.447      -87.138      -15.351      120.710       94.477       70.690    14570.883     8925.908     4997.012        3.285        1.425      192.321       67.468        0.123      337.729        9.898      861.981
12/07/2021  13:24:00      118.072      -66.090      -32.485       70.376       95.139       35.793     4952.766     9051.344     1281.131        1.732        0.764      135.310       33.069        0.060      337.744        9.923      862.001
12/07/2021  13:25:00      180.790      -11.898      -33.766       85.965       87.840       45.395     7390.018     7715.788     2060.725        2.556        0.858      181.181       31.737        0.031      337.814       10.040      862.005
12/07/2021  13:26:00       86.101      -20.448      -22.043       80.366       75.308       49.817     6458.636     5671.286     2481.695        1.146        0.731       88.496       48.437        0.300      337.907       10.198      862.004
12/07/2021  13:27:00       66.490     -117.120      -23.845       62.977      125.699       36.858     3966.087    15800.163     1358.505        1.991        1.056      134.677       35.192        0.068      337.844       10.092      862.017
12/07/2021  13:28:00      149.835     -154.613      -50.304       70.050       78.797       34.513     4907.006     6209.011     1191.152        3.059        0.615      215.304       30.510        0.020      337.657        9.776      862.014
12/07/2021  13:29:00      110.748      -93.069      -20.269       78.958       88.601       30.423     6234.420     7850.081      925.529        1.817        0.751      144.661       28.907        0.040      337.760        9.950      862.005
12/07/2021  13:30:00      109.369      -30.108      -23.289       89.155       63.080       39.745     7948.630     3979.141     1579.634        1.346        0.675      113.438       44.430        0.153      337.784        9.991      861.989
12/07/2021  13:31:00       66.764       -8.120      -11.742       74.053       68.696       38.504     5483.884     4719.137     1482.545        0.817        0.584       67.256       26.892        0.160      337.828       10.066      861.987
12/07/2021  13:32:00       30.816      -22.131       -9.302       64.815       36.092       33.844     4200.971     1302.666     1145.392        0.409        0.332       37.940       21.655        0.326      337.914       10.209      861.980
12/07/2021  13:33:00       49.294     -134.723      -22.289       82.949      109.350       37.245     6880.480    11957.378     1387.182        2.065        1.011      143.458       48.221        0.113      337.919       10.216      861.977
12/07/2021  13:34:00      157.763     -194.691      -59.196       73.175      106.333       47.207     5354.644    11306.713     2228.515        4.259        0.944      250.587       42.436        0.029      337.634        9.736      861.981
12/07/2021  13:35:00      106.559     -201.504      -38.326       65.705       99.578       48.725     4317.177     9915.707     2374.154        3.501        0.830      227.944       35.466        0.024      337.690        9.829      861.976
12/07/2021  13:36:00      167.530     -233.280      -62.554       59.271       78.599       32.811     3513.013     6177.794     1076.563        4.858        0.538      287.204       27.833        0.009      337.690        9.831      861.987
12/07/2021  13:37:00      174.731     -163.163      -60.814       40.783       43.617       25.387     1663.213     1902.424      644.515        3.253        0.211      239.067       22.139        0.009      337.534        9.569      861.991
12/07/2021  13:38:00       81.669     -187.661      -46.258       62.529       79.949       35.223     3909.881     6391.919     1240.652        2.778        0.577      204.662       23.685        0.013      337.715        9.874      861.989
12/07/2021  13:39:00       92.481     -207.736      -44.584       31.177       46.150       22.211      972.028     2129.848      493.328        2.864        0.180      227.391       11.741        0.003      337.641        9.748      861.984
12/07/2021  13:40:00       12.956      -48.586      -29.960       67.172       53.361       36.147     4512.062     2847.435     1306.619        0.604        0.433       50.284       21.008        0.175      337.792       10.006      861.988
12/07/2021  13:41:00       31.219      -86.051      -23.368       37.468       29.340       27.157     1403.883      860.859      737.512        0.596        0.150       91.539       13.210        0.021      338.011       10.373      861.986
12/07/2021  13:42:00       51.902      -84.378      -22.543       51.502       78.340       35.752     2652.466     6137.136     1278.216        1.019        0.503       99.063       33.106        0.112      338.023       10.393      861.989
12/07/2021  13:43:00       46.457      -94.827      -32.032       73.193       73.329       38.168     5357.219     5377.138     1456.759        1.218        0.610      105.595       25.228        0.057      337.934       10.244      861.990
12/07/2021  13:44:00      143.560     -142.946      -49.710       55.443       73.680       34.850     3073.911     5428.697     1214.543        2.661        0.486      202.591       37.044        0.033      337.654        9.771      861.980
12/07/2021  13:45:00      108.308     -153.270      -43.580       23.956       39.081       15.599      573.866     1527.293      243.338        1.973        0.117      187.676       14.904        0.006      337.586        9.660      861.975
12/07/2021  13:46:00       43.333     -116.865      -34.965       90.183       72.429       37.589     8133.001     5245.985     1412.926        1.577        0.740      124.640       36.506        0.086      337.887       10.163      861.958
12/07/2021  13:47:00       18.652      -96.934      -21.429       62.912       65.842       36.132     3957.879     4335.171     1305.541        0.990        0.480       98.712       37.728        0.146      338.028       10.400      861.934
12/07/2021  13:48:00       65.128     -191.463      -30.095       49.655       74.992       35.407     2465.594     5623.845     1253.677        2.557        0.467      202.237       39.845        0.039      337.863       10.122      861.905
12/07/2021  13:49:00       85.595     -146.732      -38.819       57.701       95.408       43.139     3329.423     9102.693     1860.947        2.233        0.715      169.873       34.194        0.041      337.981       10.320      861.889
12/07/2021  13:50:00       34.765     -142.776      -18.835       45.811       70.589       32.931     2098.609     4982.765     1084.463        1.506        0.408      146.948       32.341        0.048      337.827       10.062      861.882
12/07/2021  13:51:00       67.717       21.497      -18.717       62.905       53.113       32.649     3957.095     2820.966     1065.939        0.662        0.392       71.047       25.334        0.127      337.927       10.232      861.852
12/07/2021  13:52:00      120.100      -25.455      -21.524       70.846       35.097       32.541     5019.112     1231.783     1058.938        1.142        0.365      122.768       34.164        0.077      337.800       10.019      861.837
12/07/2021  13:53:00       77.421      -22.948       -4.610       50.863       38.670       30.984     2587.089     1495.401      960.018        0.579        0.252       80.750       26.930        0.111      337.922       10.223      861.822
12/07/2021  13:54:00       72.316      -33.987       -7.737       70.040       61.236       46.732     4905.638     3749.898     2183.908        0.864        0.542       79.904       34.148        0.183      337.934       10.244      861.804
12/07/2021  13:55:00       25.341       10.424       16.737       66.165       77.329       52.781     4377.816     5979.843     2785.863        0.708        0.657       27.401       46.604        2.893      337.993       10.343      861.784
12/07/2021  13:56:00       42.034      -25.198      -16.843       67.565       72.452       40.092     4565.052     5249.261     1607.401        0.705        0.571       49.008       39.495        0.649      338.050       10.438      861.782
12/07/2021  13:57:00      131.900     -153.550      -39.915      100.464      161.472       69.805    10092.924    26073.216     4872.725        4.180        2.052      202.423       74.162        0.134      337.874       10.140      861.749
12/07/2021  13:58:00      116.731     -119.844      -50.256       95.985      113.093       46.910     9213.149    12790.028     2200.507        2.735        1.210      167.298       45.616        0.074      337.870       10.134      861.764
12/07/2021  13:59:00      161.859     -133.907      -39.038       79.353      103.394       56.637     6296.926    10690.378     3207.726        3.292        1.010      210.070       52.438        0.062      337.881       10.154      861.761
12/07/2021  14:00:00       44.648      -47.138       -0.883      119.901       71.209       58.719    14376.214     5070.721     3447.876        1.355        1.145       64.927       54.782        0.712      338.024       10.393      861.754
12/07/2021  14:01:00       75.470      -59.147      -34.683       91.353       73.605       42.896     8345.301     5417.708     1840.081        1.300        0.780       95.886       33.634        0.123      338.039       10.419      861.744
12/07/2021  14:02:00        5.517        5.323       -7.687       69.484       55.527       38.702     4828.024     3083.282     1497.849        0.476        0.470        7.666       34.317       20.039      338.169       10.638      861.732
12/07/2021  14:03:00      -19.842        8.497      -17.509       60.398       54.465       43.842     3647.858     2966.470     1922.095        0.465        0.427       21.585       30.022        1.934      338.099       10.521      861.731
12/07/2021  14:04:00       65.596     -136.436      -37.769       42.224      141.073       38.852     1782.899    19901.487     1509.494        2.376        1.160      151.386       35.901        0.056      337.966       10.296      861.721
12/07/2021  14:05:00       34.472      -21.477       -4.401       55.572       59.439       34.067     3088.268     3533.052     1160.537        0.472        0.389       40.615       23.042        0.322      338.081       10.491      861.711
12/07/2021  14:06:00       69.896     -116.146      -23.950       69.531       65.744       39.642     4834.528     4322.289     1571.454        1.484        0.536      135.556       27.498        0.041      337.873       10.142      861.690
12/07/2021  14:07:00      118.086     -129.743      -29.389       66.705       77.454       46.624     4449.550     5999.075     2173.777        2.213        0.631      175.435       35.606        0.041      337.859       10.115      861.673
12/07/2021  14:08:00       85.614     -144.518      -33.515       57.567       60.011       40.274     3313.916     3601.291     1622.007        1.894        0.427      167.974       37.637        0.050      337.940       10.253      861.660
12/07/2021  14:09:00      130.584     -244.372      -34.529       69.901       77.401       45.205     4886.138     5990.851     2043.514        4.544        0.646      277.073       36.376        0.017      337.781        9.983      861.649
12/07/2021  14:10:00       83.023     -110.303      -33.544       64.423      143.875       53.223     4150.285    20700.017     2832.704        2.393        1.384      138.057       49.356        0.128      337.912       10.205      861.649
12/07/2021  14:11:00      126.112     -191.629      -44.957       72.934       65.937       43.801     5319.400     4347.663     1918.488        3.311        0.579      229.404       35.671        0.024      337.849       10.096      861.656
12/07/2021  14:12:00       17.022      -96.890      -25.096       95.096      117.173       46.721     9043.207    13729.572     2182.859        1.763        1.248       98.374       58.876        0.358      338.019       10.385      861.663
12/07/2021  14:13:00       28.269      -52.985      -22.639       61.973       46.582       37.283     3840.644     2169.863     1390.029        0.576        0.370       60.054       19.310        0.103      338.166       10.632      861.672
12/07/2021  14:14:00       68.614     -106.527      -28.801       39.934       49.499       28.983     1594.692     2450.120      840.032        1.088        0.244      126.712       13.611        0.012      338.020       10.388      861.661
12/07/2021  14:15:00       83.665     -265.147      -37.379       78.445      105.448       50.027     6153.630    11119.195     2502.720        4.923        0.989      278.034       54.505        0.038      337.966       10.295      861.643
12/07/2021  14:16:00      154.376     -242.574      -65.006       48.676       49.658       23.343     2369.340     2465.891      544.874        4.614        0.269      287.531       14.576        0.003      337.771        9.964      861.624
12/07/2021  14:17:00      135.923     -159.141      -46.041       68.837       57.160       36.163     4738.485     3267.236     1307.733        2.762        0.466      209.287       32.998        0.025      337.906       10.194      861.590
12/07/2021  14:18:00       97.547     -196.266      -38.243       60.643      104.361       38.831     3677.632    10891.284     1507.859        3.278        0.804      219.171       21.765        0.010      337.943       10.256      861.585
12/07/2021  14:19:00       90.268     -178.451      -33.703       76.252       76.691       53.513     5814.360     5881.501     2863.636        2.784        0.728      199.982       50.015        0.063      338.001       10.354      861.571
12/07/2021  14:20:00       52.455     -137.605      -36.239       76.202       74.572       48.708     5806.682     5560.963     2372.487        1.837        0.687      147.264       19.483        0.018      338.180       10.656      861.596
12/07/2021  14:21:00      -77.420     -120.624      -47.384      149.556      109.109       70.172    22367.133    11904.851     4924.051        3.099        1.960      143.332       52.273        0.133      338.095       10.510      861.591
12/07/2021  14:22:00       28.064      -33.434      -22.092       90.938       74.823       51.732     8269.633     5598.461     2676.158        0.947        0.827       43.651       52.905        1.469      338.155       10.615      861.594
12/07/2021  14:23:00        2.838      -50.197      -16.250       47.462       50.853       35.362     2252.664     2586.054     1250.495        0.444        0.304       50.277       28.643        0.325      338.356       10.951      861.592
12/07/2021  14:24:00      165.599     -189.004      -64.989       99.634      109.683       58.309     9926.847    12030.322     3399.978        4.636        1.268      251.288       47.619        0.036      338.028       10.399      861.545
12/07/2021  14:25:00      150.018     -195.738      -57.314      116.912      153.143       72.014    13668.358    23452.743     5186.072        5.320        2.115      246.615       64.086        0.068      337.975       10.311      861.546
12/07/2021  14:26:00      144.392     -156.055      -91.956      108.112      141.965       69.785    11688.134    20153.976     4869.930        4.518        1.836      212.609       57.640        0.073      337.905       10.191      861.516
12/07/2021  14:27:00      149.089     -310.356      -55.474       98.503      101.064       49.677     9702.889    10213.927     2467.834        7.200        1.119      344.309       66.076        0.037      337.880       10.149      861.558
12/07/2021  14:28:00      155.087     -175.072      -59.186       75.790      111.124       47.606     5744.123    12348.437     2266.301        3.928        1.018      233.885       29.374        0.016      337.932       10.238      861.538
12/07/2021  14:29:00       82.342     -185.773      -31.131       88.541       85.922       54.289     7839.557     7382.572     2947.285        3.021        0.908      203.204       45.204        0.049      337.936       10.243      861.530
12/07/2021  14:30:00       48.294     -198.018      -34.269       68.250       84.748       53.355     4658.081     7182.286     2846.788        2.870        0.734      203.822       36.826        0.033      338.012       10.371      861.536
12/07/2021  14:31:00       33.109      -19.617      -27.298       97.142       73.674       44.367     9436.624     5427.826     1968.446        0.953        0.842       38.484       38.372        0.994      338.225       10.732      861.541
12/07/2021  14:32:00       75.774     -150.243      -30.158       85.380       62.295       48.060     7289.750     3880.611     2309.734        2.135        0.674      168.270       34.705        0.043      338.322       10.894      861.557
12/07/2021  14:33:00      101.506     -145.681      -33.735       68.208       76.481       47.872     4652.278     5849.418     2291.739        2.273        0.640      177.557       34.179        0.037      338.184       10.661      861.570
12/07/2021  14:34:00       11.430      -99.935      -49.349       48.431       48.866       31.983     2345.562     2387.865     1022.929        0.915        0.288      100.587       21.681        0.046      338.366       10.968      861.573
12/07/2021  14:35:00       19.087     -119.946      -24.790       58.747       61.306       40.591     3451.203     3758.458     1647.638        1.211        0.443      121.455       32.063        0.070      338.294       10.847      861.576
12/07/2021  14:36:00       92.217     -149.594      -21.380      104.757       90.761       53.294    10973.964     8237.571     2840.264        2.669        1.103      175.733       53.368        0.092      338.094       10.511      861.555
12/07/2021  14:37:00       61.162     -163.949      -45.564      110.772       72.180       49.105    12270.451     5209.953     2411.315        2.629        0.995      174.986       44.768        0.065      338.165       10.628      861.557
12/07/2021  14:38:00       59.146     -225.872      -49.019       89.722       97.381       59.289     8050.021     9482.967     3515.155        3.898        1.052      233.487       36.637        0.025      338.117       10.548      861.565
12/07/2021  14:39:00       78.171     -211.032      -33.162       84.007       87.704       45.441     7057.259     7691.910     2064.884        3.428        0.841      225.045       43.040        0.037      338.064       10.458      861.573
12/07/2021  14:40:00       50.371      -65.389      -35.630       77.373      103.444       59.147     5986.551    10700.610     3498.401        1.413        1.009       82.540       39.709        0.231      338.174       10.645      861.563
12/07/2021  14:41:00      126.484     -158.120      -44.319      105.037      113.488       80.625    11032.842    12879.456     6500.357        3.668        1.521      202.485       74.640        0.136      338.045       10.427      861.560
12/07/2021  14:42:00      119.092     -149.813      -33.456       87.150      120.600       64.266     7595.136    14544.414     4130.177        3.200        1.313      191.382       69.685        0.133      338.023       10.391      861.551
12/07/2021  14:43:00      -29.519     -104.116      -21.917      123.835       93.923       42.857    15335.225     8821.515     1836.697        1.909        1.300      108.219       40.768        0.142      338.155       10.612      861.567
12/07/2021  14:44:00        9.797      -79.853      -22.701       68.130       52.031       35.621     4641.720     2707.176     1268.867        0.780        0.431       80.452       35.493        0.195      338.238       10.754      861.581
12/07/2021  14:45:00       26.324     -107.266      -33.512       62.766       80.795       34.178     3939.633     6527.824     1168.159        1.248        0.582      110.449       24.822        0.051      338.161       10.624      861.584
12/07/2021  14:46:00      128.044     -229.785      -51.456       53.570       75.469       32.389     2869.757     5695.500     1049.048        4.073        0.481      263.052       18.076        0.005      337.828       10.062      861.573
12/07/2021  14:47:00       71.988      -87.345      -32.680       64.766       98.472       39.708     4194.600     9696.689     1576.710        1.467        0.773      113.187       42.547        0.141      338.075       10.479      861.569
12/07/2021  14:48:00      163.653     -181.513      -64.700      111.374      138.770       58.999    12404.175    19257.141     3480.881        4.952        1.757      244.396       57.700        0.056      337.927       10.230      861.552
12/07/2021  14:49:00      206.791     -311.968      -73.530       59.285      135.502       49.164     3514.710    18360.861     2417.057        8.489        1.215      374.281       39.055        0.011      337.781        9.984      861.557
12/07/2021  14:50:00      175.116     -201.541      -61.377       49.998      103.386       36.758     2499.788    10688.615     1351.129        4.479        0.727      266.991       33.849        0.016      337.804       10.021      861.571
12/07/2021  14:51:00      127.459     -214.817      -44.381       67.209       87.298       36.792     4517.080     7620.900     1353.615        3.892        0.675      249.785       22.901        0.008      337.822       10.053      861.595
12/07/2021  14:52:00       76.723      -88.213      -28.333       67.748       59.527       37.183     4589.799     3543.422     1382.564        1.199        0.476      116.910       32.783        0.079      338.056       10.448      861.607
12/07/2021  14:53:00       50.113      -86.405      -30.933       70.636       77.212       33.430     4989.506     5961.764     1117.540        1.150        0.603       99.886       34.919        0.122      338.136       10.584      861.633
12/07/2021  14:54:00       63.350     -147.816      -33.612       46.539      107.394       41.339     2165.840    11533.389     1708.882        2.120        0.770      160.819       41.179        0.066      338.135       10.580      861.650
12/07/2021  14:55:00       52.984     -216.644      -34.050       58.832       74.482       43.886     3461.255     5547.554     1925.989        3.092        0.547      223.029       30.790        0.019      338.230       10.737      861.661
12/07/2021  14:56:00      169.671     -173.304      -44.124       60.193       92.563       31.334     3623.160     8567.906      981.830        3.697        0.659      242.533       41.441        0.029      338.059       10.448      861.675
12/07/2021  14:57:00       20.792       26.448        6.898       68.594       62.199       60.788     4705.092     3868.748     3695.173        0.672        0.613       33.643       22.463        0.446      338.409       11.042      861.669
12/07/2021  14:58:00       15.612      -78.236      -33.921       62.582       61.004       37.348     3916.522     3721.526     1394.883        0.827        0.452       79.778       25.556        0.103      338.504       11.200      861.701
12/07/2021  14:59:00      154.007     -199.014      -60.465      106.237      105.767       56.462    11286.234    11186.690     3188.004        4.632        1.283      251.644       57.313        0.052      338.098       10.515      861.696
12/07/2021  15:00:00      116.024     -165.144      -43.080       88.466       89.721       53.524     7826.294     8049.898     2864.796        3.066        0.937      201.827       44.642        0.049      338.157       10.615      861.715
12/07/2021  15:01:00       78.399     -178.519      -30.631       91.640       74.408       40.888     8397.899     5536.577     1671.861        2.728        0.780      194.976       38.211        0.038      338.176       10.646      861.717
12/07/2021  15:02:00       -3.321      -85.171      -25.165       54.161       70.326       38.227     2933.381     4945.747     1461.336        0.862        0.467       85.236       29.626        0.121      338.415       11.050      861.750
12/07/2021  15:03:00       70.396     -144.422      -40.096      133.390       87.820       83.360    17792.852     7712.353     6948.916        2.993        1.623      160.666       59.036        0.135      338.420       11.056      861.774
12/07/2021  15:04:00       25.338     -114.847       -9.545       82.557       99.038       46.729     6815.655     9808.592     2183.576        1.636        0.940      117.609       49.330        0.176      338.380       10.991      861.797
12/07/2021  15:05:00       32.989      -70.089      -25.404       61.626       70.528       49.718     3797.768     4974.246     2471.890        0.894        0.562       77.464       37.145        0.230      338.460       11.125      861.815
12/07/2021  15:06:00       65.541     -147.028      -42.551      122.727      143.912       71.446    15061.982    20710.653     5104.485        3.429        2.044      160.974       76.928        0.228      338.301       10.857      861.813
12/07/2021  15:07:00      127.426     -200.994      -65.587       57.837      112.524       58.310     3345.077    12661.729     3400.087        4.017        0.970      237.983       40.889        0.030      337.930       10.234      861.814
12/07/2021  15:08:00      102.816     -239.800      -57.959       61.549       66.838       33.588     3788.220     4467.266     1128.180        4.041        0.469      260.912       24.249        0.009      337.868       10.128      861.834
12/07/2021  15:09:00      155.756     -181.949      -64.071       56.129       74.731       38.560     3150.472     5584.763     1486.866        3.584        0.511      239.510       34.146        0.020      338.080       10.484      861.836
12/07/2021  15:10:00      135.280     -138.942      -52.832       78.961       79.504       50.006     6234.887     6320.965     2500.602        2.772        0.753      193.922       39.019        0.040      338.188       10.669      861.833
12/07/2021  15:11:00       68.441     -159.247      -30.297       45.074       36.142       30.655     2031.623     1306.276      939.735        1.762        0.214      173.331       22.633        0.017      338.176       10.650      861.837
12/07/2021  15:12:00       74.165      -41.529      -27.596       71.807      102.691       57.254     5156.205    10545.357     3278.044        1.348        0.949       85.000       36.909        0.189      338.368       10.972      861.826
12/07/2021  15:13:00       93.618     -144.218      -24.072       52.217       75.245       49.484     2726.648     5661.803     2448.650        2.049        0.542      171.939       41.882        0.059      338.369       10.972      861.843
12/07/2021  15:14:00       84.081     -140.917      -24.064       82.142       95.377       56.058     6747.331     9096.859     3142.534        2.324        0.949      164.095       45.286        0.076      338.498       11.190      861.839
12/07/2021  15:15:00       67.759     -173.420      -42.600       66.522       84.342       38.306     4425.177     7113.557     1467.323        2.474        0.650      186.187       33.451        0.032      338.030       10.402      861.856
12/07/2021  15:16:00      125.590     -268.789      -60.092       73.837      106.593       47.509     5451.842    11361.969     2257.078        5.535        0.954      296.682       38.339        0.017      338.127       10.563      861.862
12/07/2021  15:17:00       67.849     -183.283      -59.837      138.893      124.259       46.154    19291.189    15440.233     2130.227        3.931        1.843      195.438       61.477        0.099      338.200       10.689      861.873
12/07/2021  15:18:00       93.876      -86.320      -30.177       68.258       97.199       47.120     4659.102     9447.584     2220.277        1.675        0.816      127.530       46.182        0.131      338.471       11.142      861.914
12/07/2021  15:19:00       74.487     -176.221      -31.950       67.876       60.028       46.004     4607.096     3603.401     2116.368        2.397        0.516      191.316       35.656        0.035      338.296       10.848      861.934
12/07/2021  15:20:00       78.475     -170.243      -33.529       43.473       56.684       24.861     1889.918     3213.048      618.082        2.099        0.286      187.459       23.611        0.016      338.002       10.358      861.941
12/07/2021  15:21:00      120.274     -133.292      -45.989      102.335      114.276       51.414    10472.422    13058.945     2643.415        3.026        1.309      179.534       52.281        0.085      338.159       10.619      861.921
12/07/2021  15:22:00      106.771     -116.795      -44.522       95.679      111.585       57.048     9154.503    12451.302     3254.486        2.594        1.243      158.243       54.606        0.119      338.336       10.916      861.934
12/07/2021  15:23:00      145.642     -208.539      -34.285       72.312      103.524       49.557     5229.076    10717.241     2455.925        4.214        0.920      254.362       41.406        0.026      338.189       10.667      861.970
12/07/2021  15:24:00      157.183     -209.878      -44.583       91.703       84.063       39.727     8409.379     7066.513     1578.198        4.390        0.853      262.213       35.275        0.018      338.053       10.439      861.980
12/07/2021  15:25:00      154.871     -309.215      -59.437      146.496      132.123       68.279    21461.143    17456.398     4662.034        8.335        2.179      345.831       90.815        0.069      338.031       10.404      861.997
12/07/2021  15:26:00       99.430     -228.357      -57.085       86.117      128.869       45.622     7416.172    16607.157     2081.338        4.569        1.305      249.065       30.134        0.015      338.050       10.435      862.042
12/07/2021  15:27:00       40.948     -246.090      -28.855       56.748       69.625       47.066     3220.300     4847.689     2215.163        3.667        0.514      249.473       32.434        0.017      338.159       10.618      862.061
12/07/2021  15:28:00       29.387     -145.312      -12.632       82.953       87.306       49.130     6881.131     7622.253     2413.777        1.952        0.846      148.254       39.830        0.072      338.242       10.758      862.092
12/07/2021  15:29:00       97.008     -254.983      -45.272      112.780      117.843       66.080    12719.303    13886.940     4366.568        5.372        1.549      272.813       59.750        0.048      337.976       10.312      862.088
12/07/2021  15:30:00       64.844     -174.522      -38.747       73.184      126.561       49.013     5355.877    16017.725     2402.286        2.997        1.189      186.180       52.946        0.081      338.073       10.476      862.094
12/07/2021  15:31:00      117.658     -232.612      -46.663       48.283       56.326       32.005     2331.268     3172.633     1024.325        3.833        0.326      260.676       30.220        0.013      337.968       10.296      862.102
12/07/2021  15:32:00       46.859     -112.231      -24.606       38.375       64.992       28.929     1472.660     4223.995      836.903        1.096        0.327      121.620       17.107        0.020      338.098       10.519      862.105
12/07/2021  15:33:00      -46.271      -39.448      -26.889       70.804       42.279       43.060     5013.265     1787.485     1854.156        0.654        0.433       60.804       29.102        0.229      338.331       10.909      862.104
12/07/2021  15:34:00      134.751     -139.394      -43.688       80.291      117.627       52.602     6446.615    13836.142     2766.924        3.127        1.152      193.878       60.855        0.099      338.149       10.603      862.090
12/07/2021  15:35:00      111.190     -195.604      -45.770       74.321      115.920       50.671     5523.558    13437.345     2567.529        3.712        1.076      224.998       36.665        0.027      338.096       10.512      862.070
12/07/2021  15:36:00       57.761     -128.526      -22.536       69.957       65.615       45.779     4893.928     4305.333     2095.755        1.583        0.565      140.908       28.791        0.042      338.202       10.693      862.062
12/07/2021  15:37:00      128.377     -286.855      -60.369       92.841       90.968       56.478     8619.370     8275.205     3189.753        6.124        1.004      314.271       56.002        0.032      337.980       10.319      862.059
12/07/2021  15:38:00       71.513     -192.183      -55.654      101.929      116.429       42.763    10389.465    13555.652     1828.656        3.546        1.289      205.057       30.085        0.022      337.985       10.326      862.049
12/07/2021  15:39:00      -34.272      -42.632      -19.208       54.759       46.506       31.341     2998.602     2162.831      982.276        0.475        0.307       54.700       21.034        0.148      338.291       10.841      862.072
12/07/2021  15:40:00       54.599      -80.090      -28.698       56.988       58.261       40.091     3247.585     3394.337     1607.261        0.923        0.412       96.930       33.417        0.119      338.231       10.743      862.071
12/07/2021  15:41:00       95.084     -196.560      -32.783       64.555      116.572       54.188     4167.370    13589.112     2936.365        3.472        1.035      218.350       55.418        0.064      338.083       10.490      862.055
12/07/2021  15:42:00      123.773     -254.770      -46.771       63.776      116.113       41.813     4067.436    13482.319     1748.336        5.085        0.965      283.245       38.269        0.018      337.968       10.296      862.022
12/07/2021  15:43:00       93.729     -281.294      -45.764       48.866       86.439       24.685     2387.892     7471.630      609.369        5.024        0.523      296.498       20.405        0.005      337.863       10.123      862.011
12/07/2021  15:44:00      102.908      -90.247      -35.267       71.715      117.793       48.269     5143.022    13875.289     2329.868        2.066        1.067      136.874       47.329        0.120      338.012       10.373      862.029
12/07/2021  15:45:00       32.285      -73.491      -34.866       61.365       65.735       35.798     3765.706     4321.072     1281.465        0.851        0.468       80.269       25.266        0.099      338.105       10.531      862.019
12/07/2021  15:46:00       32.305      -44.496      -26.545       52.857       59.685       39.875     2793.879     3562.242     1590.023        0.584        0.397       54.987       25.989        0.223      338.301       10.860      862.040
12/07/2021  15:47:00       90.492     -219.697      -36.486       53.974       58.036       39.228     2913.234     3368.199     1538.841        3.280        0.391      237.604       31.399        0.017      337.990       10.335      862.054
12/07/2021  15:48:00      109.806     -139.938      -39.223       86.048       94.411       53.938     7404.174     8913.369     2909.264        2.620        0.961      177.877       53.552        0.091      338.113       10.539      862.054
12/07/2021  15:49:00        5.413      -60.977      -27.875       65.278       46.099       48.680     4261.198     2125.084     2369.740        0.664        0.438       61.217       41.746        0.465      338.340       10.925      862.047
12/07/2021  15:50:00      105.904     -130.248      -34.959       80.867       81.925       40.446     6539.523     6711.639     1635.843        2.214        0.744      167.870       38.889        0.054      338.131       10.573      862.066
12/07/2021  15:51:00       -3.058      -43.983      -19.088       44.572       42.494       29.719     1986.705     1805.761      883.199        0.349        0.234       44.089       10.645        0.058      338.295       10.849      862.075
12/07/2021  15:52:00       92.105     -103.998      -36.923       99.542      133.244       47.062     9908.575    17754.077     2214.787        2.526        1.494      138.921       44.099        0.101      338.144       10.594      862.077
12/07/2021  15:53:00      114.007     -188.544      -30.629       96.236      113.767       72.152     9261.281    12942.826     5205.939        3.844        1.371      220.333       54.186        0.060      338.035       10.409      862.068
12/07/2021  15:54:00       97.797     -170.648      -48.424       95.750      104.593       66.327     9168.139    10939.602     4399.312        3.276        1.225      196.685       64.450        0.107      337.934       10.242      862.091
12/07/2021  15:55:00       39.208     -109.480      -36.447       76.899       64.573       33.164     5913.427     4169.650     1099.854        1.302        0.559      116.289       42.079        0.131      338.063       10.460      862.087
12/07/2021  15:56:00       22.145     -127.178      -16.111       88.323       81.049       60.688     7800.871     6569.010     3682.985        1.749        0.903      129.091       56.713        0.193      338.132       10.574      862.080
12/07/2021  15:57:00      -19.998      -56.813      -20.977       96.992       46.762       35.625     9407.476     2186.653     1269.142        0.846        0.643       60.230       18.509        0.094      338.114       10.545      862.065
12/07/2021  15:58:00      -10.563     -119.153      -31.430       61.866       57.198       36.203     3827.350     3271.642     1310.631        1.185        0.420      119.620       12.689        0.011      338.082       10.492      862.041
12/07/2021  15:59:00        5.674     -123.719      -14.232      136.440       94.146       59.117    18615.868     8863.459     3494.823        2.325        1.549      123.849       40.157        0.105      338.100       10.521      862.026
12/07/2021  16:00:00       80.479     -189.729      -43.076       92.331      142.292       51.607     8524.975    20246.947     2663.256        3.788        1.572      206.092       41.643        0.041      338.046       10.429      862.019
12/07/2021  16:01:00       -7.736      -29.550       -9.982       50.401       71.156       32.137     2540.227     5063.227     1032.788        0.483        0.432       30.546       31.134        1.039      338.029       10.403      862.001
12/07/2021  16:02:00       14.209      -62.334      -26.867       61.261       66.996       34.441     3752.968     4488.397     1186.176        0.712        0.471       63.933       26.358        0.170      338.102       10.526      862.029
12/07/2021  16:03:00       96.372     -247.805      -55.389      110.463      113.939       58.595    12202.063    12982.092     3433.347        5.118        1.431      265.885       64.558        0.059      337.997       10.346      862.017
12/07/2021  16:04:00       50.132     -107.519      -35.234       55.618       93.163       54.282     3093.340     8679.363     2946.579        1.501        0.736      118.632       40.511        0.117      338.019       10.385      862.000
12/07/2021  16:05:00       52.326      -28.348      -38.775       54.230      102.215       40.190     2940.853    10447.826     1615.203        1.002        0.750       59.512       29.606        0.247      338.004       10.362      862.039
12/07/2021  16:06:00      136.543     -109.842      -44.158       85.572       93.268       49.719     7322.501     8698.941     2472.028        2.557        0.925      175.241       40.379        0.053      337.954       10.274      862.007
12/07/2021  16:07:00      128.748     -246.270      -50.246       58.985      119.182       45.058     3479.220    14204.271     2030.260        4.973        0.986      277.894       26.761        0.009      337.876       10.143      862.023
12/07/2021  16:08:00      122.235     -299.956      -47.899      113.548      103.358       66.802    12893.132    10682.958     4462.453        6.762        1.402      323.906       51.105        0.025      337.820       10.050      862.007
12/07/2021  16:09:00      175.183     -339.675      -72.095      107.354       90.508       59.058    11524.844     8191.680     3487.896        8.723        1.160      382.188       52.358        0.019      337.814       10.036      862.007
12/07/2021  16:10:00      167.303     -286.586      -64.321       72.442       98.991       38.836     5247.879     9799.194     1508.257        6.540        0.828      331.846       26.460        0.006      337.774        9.971      862.014
12/07/2021  16:11:00      194.799     -223.764      -64.817       77.880      119.164       62.578     6065.327    14200.123     3915.963        5.820        1.209      296.677       45.390        0.023      337.776        9.975      862.023
12/07/2021  16:12:00       40.550      -93.592      -27.548       76.946       59.939       41.282     5920.720     3592.739     1704.197        1.119        0.561      101.999       33.873        0.110      337.920       10.221      862.033
12/07/2021  16:13:00       17.259     -234.644      -24.923       65.870       71.027       49.802     4338.854     5044.813     2480.259        3.392        0.593      235.278       28.327        0.014      337.942       10.255      862.044
12/07/2021  16:14:00       70.809     -131.885      -39.739       90.097       72.195       45.195     8117.421     5212.053     2042.584        1.968        0.769      149.692       34.608        0.053      337.868       10.132      862.040
12/07/2021  16:15:00       67.531     -200.940      -21.243       66.470       91.147       49.823     4418.221     8307.781     2482.352        3.030        0.760      211.984       45.532        0.046      337.841       10.085      862.051
12/07/2021  16:16:00       69.603     -138.031      -39.949       66.984       89.583       44.072     4486.865     8025.045     1942.309        1.997        0.723      154.587       34.956        0.051      337.854       10.108      862.057
12/07/2021  16:17:00      120.945     -142.608      -34.839       68.431       76.796       53.186     4682.790     5897.615     2828.716        2.479        0.670      186.989       45.821        0.060      337.787        9.996      862.047
12/07/2021  16:18:00       48.363      -98.953      -27.777       47.183       39.506       31.682     2226.233     1560.699     1003.752        0.885        0.240      110.140       26.115        0.056      337.869       10.136      862.063
12/07/2021  16:19:00       80.839     -113.871      -24.527       58.272       80.470       37.821     3395.610     6475.450     1430.425        1.570        0.565      139.648       42.724        0.094      337.812       10.037      862.060
12/07/2021  16:20:00       19.258      -33.443       -9.943       37.542       43.923       31.685     1409.409     1929.204     1003.923        0.296        0.217       38.591       21.560        0.312      337.842       10.089      862.059
12/07/2021  16:21:00       58.551      -79.887      -28.454       42.996       60.798       31.071     1848.696     3696.346      965.415        0.856        0.326       99.046       15.358        0.024      337.886       10.164      862.078
12/07/2021  16:22:00       91.710     -205.007      -32.160       46.517       53.833       36.603     2163.842     2898.033     1339.803        2.894        0.320      224.586       26.798        0.014      337.794       10.006      862.082
12/07/2021  16:23:00      115.946     -171.672      -34.891       68.123       80.934       42.906     4640.770     6550.244     1840.928        2.858        0.652      207.158       25.272        0.015      337.749        9.931      862.094
12/07/2021  16:24:00       88.390     -143.601      -27.400       66.397       62.259       40.243     4408.521     3876.128     1619.502        1.954        0.495      168.624       26.339        0.024      337.771        9.968      862.108
12/07/2021  16:25:00       74.748     -140.739      -45.839       76.200       68.081       36.670     5806.467     4635.043     1344.673        1.964        0.589      159.358       29.042        0.033      337.784        9.991      862.118
12/07/2021  16:26:00      109.872     -183.269      -39.460       76.054       91.143       43.035     5784.248     8307.012     1851.977        3.158        0.797      213.680       33.333        0.024      337.715        9.875      862.138
12/07/2021  16:27:00      102.207     -131.212      -59.266       83.371       68.101       41.787     6950.803     4637.741     1746.125        2.225        0.667      166.322       38.988        0.055      337.715        9.875      862.152
12/07/2021  16:28:00       65.633      -64.804      -15.412       49.575       58.124       28.073     2457.722     3378.395      788.105        0.768        0.331       92.234       27.966        0.092      337.722        9.889      862.180
12/07/2021  16:29:00       54.004     -105.268      -42.097       59.228       69.614       40.017     3507.904     4846.092     1601.365        1.286        0.498      118.312       36.487        0.095      337.710        9.866      862.196
12/07/2021  16:30:00       26.285      -67.718      -20.785       41.603       43.985       27.368     1730.779     1934.671      748.983        0.506        0.221       72.640       26.847        0.137      337.738        9.914      862.207
12/07/2021  16:31:00       94.865     -115.370      -26.856       49.561       41.065       30.280     2456.276     1686.299      916.879        1.404        0.253      149.364       27.575        0.034      337.717        9.879      862.225
12/07/2021  16:32:00       38.664     -101.495      -22.537       59.818       48.375       29.713     3578.216     2340.136      882.862        0.955        0.340      108.611        9.645        0.008      337.757        9.947      862.236
12/07/2021  16:33:00      119.130     -129.756      -40.662       51.948       67.829       36.603     2698.575     4600.727     1339.808        2.066        0.432      176.150       29.876        0.029      337.643        9.754      862.228
12/07/2021  16:34:00       43.520     -115.762      -17.783       55.343       57.066       35.495     3062.799     3256.482     1259.887        1.159        0.379      123.672       27.353        0.049      337.666        9.793      862.229
12/07/2021  16:35:00       51.172      -67.021      -16.787       59.198       47.300       28.590     3504.436     2237.268      817.398        0.697        0.328       84.323       20.717        0.060      337.689        9.831      862.227
12/07/2021  16:36:00       48.172      -65.090      -22.805       40.365       57.762       27.000     1629.365     3336.413      728.975        0.638        0.285       80.977       20.159        0.062      337.651        9.769      862.238
12/07/2021  16:37:00       65.722     -152.739      -29.404       43.751       40.246       30.552     1914.109     1619.778      933.404        1.649        0.223      166.278       20.674        0.015      337.630        9.734      862.231
12/07/2021  16:38:00      106.915     -185.135      -43.667       46.263       60.084       22.259     2140.257     3610.106      495.475        2.693        0.312      213.789       17.041        0.006      337.573        9.634      862.220
12/07/2021  16:39:00       82.419     -103.820      -33.055       42.642       78.415       33.011     1818.361     6148.853     1089.717        1.386        0.453      132.557       35.375        0.071      337.592        9.669      862.201
12/07/2021  16:40:00       88.407     -102.174      -22.222       54.819       39.356       33.163     3005.125     1548.934     1099.786        1.220        0.283      135.113       30.095        0.050      337.557        9.611      862.180
12/07/2021  16:41:00       68.097     -102.522      -36.323       37.536       41.899       25.071     1408.919     1755.526      628.579        1.013        0.190      123.077       16.842        0.019      337.620        9.717      862.174
12/07/2021  16:42:00       63.112      -54.412      -31.360       30.549       63.617       29.283      933.240     4047.154      857.474        0.688        0.292       83.330       23.158        0.077      337.600        9.683      862.160
12/07/2021  16:43:00       91.315     -116.856      -30.613       52.436       56.588       30.651     2749.514     3202.228      939.477        1.491        0.345      148.303       25.973        0.031      337.600        9.683      862.144
12/07/2021  16:44:00       91.982     -179.199      -37.250       39.594       67.606       24.708     1567.705     4570.599      610.494        2.435        0.337      201.427       29.501        0.021      337.561        9.615      862.120
12/07/2021  16:45:00       91.332     -154.289      -40.841       54.247       57.329       33.859     2942.780     3286.579     1146.402        2.059        0.369      179.295       23.272        0.017      337.566        9.624      862.097
12/07/2021  16:46:00       90.465     -154.281      -38.755       57.008       65.572       32.955     3249.888     4299.715     1086.005        2.106        0.432      178.848       18.933        0.011      337.513        9.536      862.086
12/07/2021  16:47:00      110.862     -210.173      -44.350       50.124       59.732       34.421     2512.393     3567.929     1184.823        3.285        0.363      237.620       30.857        0.017      337.513        9.533      862.072
12/07/2021  16:48:00      119.854     -160.212      -49.352       55.188       86.118       39.586     3045.758     7416.240     1567.042        2.725        0.601      200.082       12.747        0.004      337.498        9.509      862.063
12/07/2021  16:49:00       87.482     -104.418      -37.668       54.664       75.472       40.030     2988.158     5695.975     1602.392        1.513        0.514      136.221       25.559        0.035      337.456        9.441      862.066
12/07/2021  16:50:00       97.940     -156.396      -34.244       70.985       83.758       42.918     5038.932     7015.395     1841.995        2.456        0.695      184.532       39.745        0.046      337.455        9.438      862.080
12/07/2021  16:51:00       88.261     -137.849      -24.369       62.194       71.102       43.317     3868.046     5055.534     1876.322        1.909        0.540      163.684       40.623        0.062      337.461        9.447      862.090
12/07/2021  16:52:00       24.012     -122.044      -35.685       67.186       80.263       29.896     4513.912     6442.166      893.751        1.430        0.592      124.384       30.635        0.061      337.519        9.546      862.104
12/07/2021  16:53:00       76.282     -118.521      -47.138       48.596       77.260       25.813     2361.590     5969.169      666.311        1.554        0.450      140.947       24.685        0.031      337.483        9.486      862.111
12/07/2021  16:54:00       27.308       -5.725      -16.473       48.964       48.570       30.241     2397.497     2359.029      914.499        0.336        0.284       27.902       22.707        0.662      337.442        9.417      862.124
12/07/2021  16:55:00       37.343      -61.089      -23.813       31.399       49.591       33.263      985.874     2459.282     1106.440        0.512        0.228       71.598       20.428        0.081      337.406        9.359      862.142
12/07/2021  16:56:00       90.744      -80.334      -27.338       66.395       53.895       29.770     4408.246     2904.626      886.277        1.182        0.410      121.194       33.061        0.074      337.399        9.348      862.154
12/07/2021  16:57:00       80.100     -195.314      -28.139       48.448       54.302       26.796     2347.162     2948.681      718.048        2.568        0.301      211.101       23.895        0.013      337.430        9.397      862.152
12/07/2021  16:58:00       97.876     -131.290      -36.987       35.518       65.833       24.439     1261.500     4334.048      597.272        1.719        0.310      163.758       22.189        0.018      337.361        9.283      862.166
12/07/2021  16:59:00       83.248      -90.596      -25.343       52.916       60.453       26.332     2800.072     3654.517      693.376        1.146        0.357      123.036       26.879        0.048      337.376        9.310      862.165
12/07/2021  17:00:00       78.237     -130.499      -30.127       37.404       40.283       23.565     1399.031     1622.700      555.298        1.382        0.179      152.155       21.351        0.020      337.321        9.216      862.171
12/07/2021  17:01:00       74.810     -133.728      -39.618       32.689       44.744       24.824     1068.588     2002.023      616.232        1.437        0.184      153.231       15.607        0.010      337.290        9.165      862.159
12/07/2021  17:02:00       62.729     -137.667      -27.551       47.095       67.581       27.623     2217.898     4567.247      763.032        1.560        0.377      151.285       23.410        0.024      337.340        9.248      862.156
12/07/2021  17:03:00      114.502     -172.117      -45.628       48.666       54.688       28.509     2368.388     2990.785      812.752        2.549        0.309      206.725       19.994        0.009      337.290        9.162      862.150
12/07/2021  17:04:00      122.695     -212.032      -51.747       53.007       86.596       35.638     2809.756     7498.866     1270.038        3.713        0.579      244.973       27.797        0.013      337.280        9.146      862.147
12/07/2021  17:05:00      100.492     -177.205      -43.236       44.877       43.684       31.531     2013.907     1908.256      994.207        2.414        0.246      203.716       22.318        0.012      337.252        9.101      862.157
12/07/2021  17:06:00       90.510     -112.956      -32.449       47.436       49.608       27.970     2250.167     2461.003      782.295        1.375        0.275      144.745       25.032        0.030      337.285        9.156      862.169
12/07/2021  17:07:00       83.495     -116.857      -27.664       43.491       52.118       26.849     1891.480     2716.336      720.845        1.336        0.266      143.621       20.937        0.021      337.275        9.140      862.185
12/07/2021  17:08:00      107.219     -168.926      -41.602       38.425       42.754       28.789     1476.483     1827.885      828.816        2.295        0.207      200.079       16.106        0.006      337.238        9.079      862.193
12/07/2021  17:09:00      117.358      -79.822      -35.372       53.119       57.742       47.155     2821.650     3334.098     2223.631        1.489        0.419      141.932       33.728        0.056      337.176        8.973      862.209
12/07/2021  17:10:00       44.825      -52.773      -20.630       58.743       40.808       32.222     3450.768     1665.312     1038.263        0.569        0.308       69.240       17.902        0.067      337.244        9.088      862.234
12/07/2021  17:11:00       25.479      -49.527       -3.563       53.280       33.666       23.278     2838.711     1133.417      541.888        0.381        0.226       55.696       20.128        0.131      337.353        9.271      862.247
12/07/2021  17:12:00       14.571      -38.698      -12.452       24.070       32.856       25.248      579.375     1079.543      637.454        0.208        0.115       41.350       19.590        0.224      337.341        9.251      862.265
12/07/2021  17:13:00       74.129      -85.883      -14.980       59.597       56.776       37.433     3551.766     3223.537     1401.238        1.063        0.409      113.451       25.917        0.052      337.265        9.123      862.281
12/07/2021  17:14:00       23.684      -94.184      -27.901       55.420       41.156       36.662     3071.340     1693.783     1344.093        0.816        0.305       97.116       31.583        0.106      337.230        9.064      862.287
12/07/2021  17:15:00       80.980     -107.521      -31.503       35.788       34.904       22.633     1280.781     1218.267      512.252        1.106        0.151      134.606       12.735        0.009      337.225        9.057      862.306
12/07/2021  17:16:00       60.747      -45.301      -14.847       54.335       48.317       44.277     2952.290     2334.565     1960.440        0.660        0.362       75.778       41.876        0.305      337.143        8.918      862.320
12/07/2021  17:17:00       63.256      -68.423      -26.029       39.655       45.298       34.975     1572.498     2051.945     1223.241        0.710        0.242       93.183       29.540        0.100      337.178        8.977      862.333
12/07/2021  17:18:00       63.012     -102.193      -28.642       28.223       47.151       29.480      796.512     2223.255      869.042        0.956        0.194      120.058       30.057        0.063      337.176        8.974      862.350
12/07/2021  17:19:00       35.956      -77.621      -27.815       39.966       39.104       30.658     1597.249     1529.084      939.931        0.608        0.203       85.545       17.435        0.042      337.208        9.027      862.368
12/07/2021  17:20:00       43.711      -42.245      -20.985       26.571       29.729       21.641      706.014      883.798      468.324        0.310        0.103       60.789       20.066        0.109      337.210        9.033      862.381
12/07/2021  17:21:00       42.847      -69.553      -15.348       33.391       42.348       28.504     1114.992     1793.333      812.460        0.531        0.186       81.691       23.175        0.080      337.164        8.953      862.394
12/07/2021  17:22:00        6.592      -35.204      -25.419       23.966       43.195       14.021      574.348     1865.776      196.575        0.228        0.132       35.816       17.425        0.237      337.187        8.993      862.403
12/07/2021  17:23:00      -18.444        2.706       -7.282       42.925       24.249       23.294     1842.582      587.995      542.587        0.169        0.149       18.641       13.374        0.515      337.265        9.122      862.408
12/07/2021  17:24:00      -31.621      -17.134       -5.201       23.745       16.800       19.690      563.837      282.226      387.699        0.128        0.062       35.964        7.731        0.046      337.316        9.208      862.414
12/07/2021  17:25:00        4.616      -30.411      -12.830       17.196       25.512       15.074      295.687      650.874      227.229        0.114        0.059       30.759        8.083        0.069      337.282        9.152      862.421
12/07/2021  17:26:00       35.716      -74.563      -23.375       42.860       45.810       20.898     1836.957     2098.546      436.723        0.588        0.219       82.676       17.689        0.046      337.235        9.073      862.418
12/07/2021  17:27:00       63.548      -83.043      -26.510       39.691       40.672       24.760     1575.362     1654.232      613.042        0.774        0.192      104.568       17.092        0.027      337.176        8.975      862.414
12/07/2021  17:28:00        9.548      -78.657      -14.696       45.749       41.424       37.023     2092.996     1715.922     1370.695        0.584        0.259       79.235       29.846        0.142      337.187        8.992      862.393
12/07/2021  17:29:00      -29.573      -15.199      -18.651       26.148       20.629       14.178      683.726      425.542      201.005        0.138        0.066       33.250        8.016        0.058      337.173        8.969      862.392
12/07/2021  17:30:00      -17.799        1.580       -1.818       15.458       17.199       10.390      238.950      295.793      107.943        0.048        0.032       17.869        6.788        0.144      337.172        8.968      862.394
12/07/2021  17:31:00      -16.956        3.389      -11.854       22.257       18.612       14.322      495.375      346.418      205.115        0.074        0.052       17.292        7.554        0.191      337.231        9.068      862.395
12/07/2021  17:32:00       38.365      -88.257      -29.649       48.240       47.665       28.873     2327.068     2271.940      833.656        0.779        0.272       96.235       30.597        0.101      337.158        8.944      862.411
12/07/2021  17:33:00       49.508      -64.666      -12.149       38.133       41.679       31.755     1454.162     1737.179     1008.354        0.549        0.210       81.441       28.159        0.120      337.147        8.926      862.427
12/07/2021  17:34:00       30.638      -50.792      -20.439       41.831       31.791       26.749     1749.846     1010.663      715.491        0.371        0.174       59.317       13.652        0.053      337.158        8.945      862.452
12/07/2021  17:35:00       50.139      -97.488      -30.300       28.167       47.182       26.645      793.352     2226.170      709.956        0.833        0.186      109.626       13.879        0.016      337.215        9.041      862.473
12/07/2021  17:36:00       57.916      -76.569      -30.561       25.049       28.100       22.454      627.432      789.586      504.161        0.604        0.096       96.006       12.986        0.018      337.137        8.910      862.492
12/07/2021  17:37:00       57.992      -79.770      -16.912       40.181       34.561       32.186     1614.490     1194.436     1035.959        0.693        0.192       98.622       26.205        0.071      337.196        9.008      862.503
12/07/2021  17:38:00       24.185      -48.097      -10.448       32.309       29.748       27.459     1043.872      884.915      753.981        0.284        0.134       53.835       18.331        0.116      337.154        8.936      862.511
12/07/2021  17:39:00       29.131      -49.128      -13.459       25.790       41.537       20.762      665.107     1725.285      431.080        0.313        0.141       57.115       15.087        0.070      337.110        8.861      862.514
12/07/2021  17:40:00       41.003      -38.731      -15.544       52.690       46.294       32.957     2776.220     2143.104     1086.194        0.471        0.300       56.403       35.488        0.396      337.099        8.844      862.503
12/07/2021  17:41:00       52.577      -48.409       -9.559       51.657       44.303       37.905     2668.421     1962.736     1436.812        0.563        0.303       71.468       34.642        0.235      337.054        8.768      862.497
12/07/2021  17:42:00       53.689      -94.789      -19.711       26.197       26.897       21.890      686.297      723.463      479.172        0.707        0.094      108.938       11.642        0.011      337.221        9.049      862.473
12/07/2021  17:43:00       85.406      -95.178      -33.467       28.568       31.862       22.594      816.156     1015.163      510.511        0.991        0.117      127.879       16.970        0.018      337.122        8.883      862.456
12/07/2021  17:44:00       56.090      -93.412      -14.718       33.608       36.285       24.269     1129.510     1316.595      588.988        0.756        0.152      108.958       16.280        0.022      337.247        9.091      862.436
12/07/2021  17:45:00       69.488     -130.655      -25.918       21.163       35.007       21.960      447.865     1225.489      482.252        1.236        0.108      147.984       14.477        0.010      337.201        9.013      862.413
12/07/2021  17:46:00       55.845     -132.736      -28.685       14.988       17.643       13.215      224.647      311.270      174.626        1.114        0.036      144.005       10.034        0.005      337.135        8.901      862.395
12/07/2021  17:47:00       47.061     -117.323      -32.812       18.554       27.855       16.736      344.252      775.882      280.089        0.923        0.070      126.410        7.196        0.003      337.194        9.002      862.373
12/07/2021  17:48:00       66.051     -105.334      -28.423       18.070       31.864       19.120      326.529     1015.319      365.569        0.899        0.085      124.330       11.267        0.008      337.155        8.938      862.335
12/07/2021  17:49:00       30.230      -90.108      -12.346       20.014       28.926       23.721      400.570      836.702      562.684        0.549        0.090       95.044       17.796        0.035      337.156        8.941      862.301
12/07/2021  17:50:00       45.066      -96.274      -15.440       28.051       25.213       21.595      786.834      635.692      466.364        0.671        0.094      106.300       15.869        0.022      337.167        8.958      862.267
12/07/2021  17:51:00       48.081     -111.276      -26.270       25.930       26.556       21.366      672.382      705.210      456.516        0.861        0.092      121.219       15.532        0.016      337.071        8.799      862.246
12/07/2021  17:52:00       49.032      -80.195      -23.318       24.032       34.109       16.996      577.536     1163.403      288.851        0.570        0.101       93.996       11.050        0.014      337.116        8.874      862.227
12/07/2021  17:53:00       78.464      -81.584      -27.902       36.527       50.707       20.700     1334.192     2571.249      428.498        0.896        0.217      113.193       10.434        0.008      337.025        8.721      862.218
12/07/2021  17:54:00       59.864     -105.161      -19.928       31.217       33.118       25.928      974.499     1096.811      672.265        0.889        0.137      121.007        7.434        0.004      337.156        8.942      862.225
12/07/2021  17:55:00       48.096     -113.744      -18.534       34.216       53.690       33.613     1170.756     2882.572     1129.865        1.039        0.259      123.495       28.266        0.052      337.096        8.841      862.243
12/07/2021  17:56:00       57.224      -63.111      -16.076       34.711       43.734       22.160     1204.874     1912.651      491.074        0.556        0.180       85.191       15.732        0.034      337.054        8.771      862.265
12/07/2021  17:57:00       47.208      -52.906      -12.261       40.280       68.909       34.372     1622.484     4748.454     1181.457        0.636        0.378       70.906       26.431        0.139      337.015        8.706      862.289
12/07/2021  17:58:00       24.493      -46.029       -7.641       55.889       48.031       27.367     3123.594     2306.937      748.936        0.448        0.309       52.140       30.996        0.353      337.074        8.804      862.313
12/07/2021  17:59:00       -3.177      -11.142      -12.165       32.998       29.034       17.869     1088.856      842.978      319.302        0.127        0.113       11.586       14.894        1.653      336.949        8.593      862.332
12/07/2021  18:00:00       -0.297        2.719       -1.831        9.912       25.116        8.966       98.253      630.794       80.382        0.041        0.040        2.736        8.921       10.635      336.732        8.232      862.354
12/07/2021  18:01:00      -48.413       35.628      -14.281       22.703       24.006       13.844      515.407      576.307      191.652        0.255        0.064       60.110        4.842        0.006      336.823        8.383      862.382
12/07/2021  18:02:00      -62.298       -8.823       -9.578       26.486       34.978       23.119      701.530     1223.473      534.471        0.325        0.123       62.920       12.049        0.037      336.928        8.559      862.387
12/07/2021  18:03:00     -101.568       39.373      -20.997       41.289       28.924       20.205     1704.810      836.616      408.246        0.763        0.147      108.932        7.918        0.005      336.494        7.834      862.396
12/07/2021  18:04:00     -129.898       40.025       -9.110       37.673       33.060       24.583     1419.269     1092.932      604.334        1.084        0.156      135.925       19.260        0.020      336.125        7.216      862.407
12/07/2021  18:05:00     -135.063       63.589       -2.030       61.167       37.372       31.249     3741.435     1396.637      976.473        1.420        0.306      149.283       29.919        0.040      336.131        7.226      862.406
12/07/2021  18:06:00     -127.470       54.226      -12.878       48.281       27.876       31.062     2331.025      777.065      964.858        1.171        0.204      138.524       28.080        0.041      336.128        7.222      862.418
12/07/2021  18:07:00     -112.467       41.729      -14.903       52.214       28.600       29.940     2726.326      817.941      896.433        0.953        0.222      119.959       21.026        0.031      336.151        7.260      862.421
12/07/2021  18:08:00     -129.281       46.621      -12.617       38.562       30.596       22.654     1487.006      936.114      513.212        1.099        0.147      137.431       18.420        0.018      336.213        7.364      862.435
12/07/2021  18:09:00     -145.529       50.141      -14.326       51.803       33.984       25.892     2683.577     1154.930      670.389        1.420        0.225      153.924       24.154        0.025      335.950        6.926      862.440
12/07/2021  18:10:00     -154.357       34.419      -10.313       46.221       31.974       26.637     2136.416     1022.344      709.510        1.449        0.193      158.148       26.800        0.029      335.920        6.876      862.444
12/07/2021  18:11:00      -99.259       17.118      -14.028       56.443       45.767       36.075     3185.759     2094.610     1301.397        0.846        0.329      100.724       28.370        0.079      335.927        6.887      862.440
12/07/2021  18:12:00      -99.327       18.552       -7.021       65.570       44.500       25.220     4299.451     1980.273      636.031        0.859        0.346      101.045       27.304        0.073      335.903        6.846      862.437
12/07/2021  18:13:00     -134.998       47.340      -14.498       33.377       32.961       25.593     1114.015     1086.433      654.987        1.177        0.143      143.058       20.974        0.021      335.871        6.792      862.438
12/07/2021  18:14:00     -116.165       27.404       -8.016       23.777       26.179       16.817      565.357      685.362      282.813        0.792        0.077      119.354       11.879        0.010      336.052        7.094      862.434
12/07/2021  18:15:00      -43.072        8.350       -5.386       33.901       32.154       17.711     1149.295     1033.907      313.687        0.222        0.125       43.874       14.714        0.112      336.020        7.042      862.440
12/07/2021  18:16:00     -107.090       38.391      -20.223       15.350       15.431       14.428      235.625      238.121      208.174        0.702        0.034      113.763        2.659        0.001      336.040        7.075      862.438
12/07/2021  18:17:00      -93.708       34.344      -18.949       13.035       18.088       11.441      169.907      327.158      130.888        0.547        0.031       99.803        4.123        0.002      336.021        7.045      862.438
12/07/2021  18:18:00      -86.850       37.069      -17.329       14.698       19.244       12.579      216.025      370.350      158.220        0.498        0.037       94.430        5.632        0.004      336.151        7.261      862.432
12/07/2021  18:19:00      -76.290       23.237      -16.958       17.132       23.019       11.266      293.493      529.863      126.924        0.380        0.048       79.751        9.575        0.014      336.160        7.273      862.434
12/07/2021  18:20:00      -71.946        9.433      -13.585       18.814       27.276       20.180      353.958      743.960      407.221        0.348        0.075       72.562       10.363        0.020      336.035        7.068      862.445
12/07/2021  18:21:00      -69.011       18.814      -15.110       37.166       23.654       18.623     1381.319      559.519      346.818        0.382        0.114       71.529       20.442        0.082      336.014        7.034      862.465
12/07/2021  18:22:00      -78.761        1.102      -14.534       28.673       24.537       19.262      822.137      602.077      371.023        0.411        0.090       78.769       14.834        0.035      335.987        6.987      862.487
12/07/2021  18:23:00     -118.589       28.584      -15.276       28.414       24.225       20.488      807.332      586.860      419.739        0.846        0.091      121.985       16.042        0.017      335.927        6.887      862.511
12/07/2021  18:24:00     -124.790       30.685      -13.295       40.587       32.425       25.623     1647.284     1051.390      656.549        1.002        0.168      128.508       20.331        0.025      335.895        6.834      862.542
12/07/2021  18:25:00     -138.388       29.636      -15.059       33.117       29.841       22.391     1096.705      890.489      501.374        1.137        0.124      141.525       18.802        0.018      335.947        6.920      862.567
12/07/2021  18:26:00     -110.986       32.607      -10.400       38.121       25.366       21.796     1453.222      643.448      475.071        0.803        0.129      115.676       12.830        0.012      335.932        6.894      862.587
12/07/2021  18:27:00     -108.817       26.136       -1.105       41.501       31.619       29.257     1722.332      999.779      855.957        0.805        0.179      111.911       27.170        0.059      335.990        6.991      862.591
12/07/2021  18:28:00     -127.411       40.470      -16.536       36.642       31.749       22.998     1342.625     1007.983      528.928        1.051        0.144      133.684       17.210        0.017      336.080        7.141      862.586
12/07/2021  18:29:00     -115.402       41.094       -8.216       47.536       35.115       27.175     2259.716     1233.087      738.455        0.965        0.212      122.500       21.804        0.032      336.058        7.105      862.583
12/07/2021  18:30:00      -92.350       52.646      -12.208       49.419       41.425       24.109     2442.285     1716.065      581.257        0.809        0.237      106.302       25.526        0.058      336.243        7.415      862.579
12/07/2021  18:31:00      -81.221       27.080      -20.330       32.021       30.538       18.611     1025.368      932.547      346.377        0.502        0.115       85.617       17.919        0.044      335.991        6.996      862.566
12/07/2021  18:32:00      -24.123       28.478      -17.347       40.702       21.396       18.562     1656.635      457.798      344.536        0.208        0.123       37.322       18.547        0.247      335.858        6.771      862.561
12/07/2021  18:33:00      -26.270        6.939      -18.783       41.381       25.701       20.939     1712.358      660.557      438.459        0.195        0.141       27.171       20.442        0.566      335.776        6.633      862.537
12/07/2021  18:34:00      -41.738      -31.290      -15.909       24.479       16.774       14.088      599.229      281.358      198.458        0.203        0.054       52.165        9.875        0.036      335.704        6.515      862.526
12/07/2021  18:35:00      -22.264      -11.985      -12.923       16.683       16.877       13.532      278.336      284.821      183.106        0.078        0.037       25.285        9.249        0.134      335.650        6.425      862.519
12/07/2021  18:36:00      -49.153       18.911      -10.152       18.472        9.248       10.933      341.206       85.526      119.539        0.171        0.027       52.666        6.937        0.017      336.032        7.062      862.517
12/07/2021  18:37:00       -1.864       -4.555       -3.551       13.237        9.851        8.682      175.220       97.044       75.384        0.019        0.017        4.922        6.865        1.946      335.843        6.747      862.520
12/07/2021  18:38:00        5.390        6.654       -3.821        7.824        8.347        7.165       61.211       69.669       51.338        0.014        0.009        8.563        6.317        0.544      335.874        6.800      862.523
12/07/2021  18:39:00      -18.960        7.790      -12.511       13.408        8.225        7.285      179.786       67.649       53.065        0.044        0.015       20.498        4.620        0.051      336.010        7.028      862.533
12/07/2021  18:40:00      -17.090        8.942       -8.300       11.023        9.456        7.857      121.497       89.413       61.739        0.036        0.014       19.288        5.592        0.084      336.201        7.344      862.543
12/07/2021  18:41:00       20.226       19.696      -11.884       13.257       10.354       12.059      175.744      107.215      145.426        0.068        0.021       28.232        9.431        0.112      336.410        7.692      862.558
12/07/2021  18:42:00       14.229       35.286       -5.836       13.508       10.136       12.202      182.478      102.739      148.882        0.096        0.022       38.047        7.463        0.038      336.395        7.669      862.578
12/07/2021  18:43:00       14.187       38.352      -14.038       20.432       14.785       12.557      417.450      218.590      157.670        0.133        0.040       40.892        9.818        0.058      336.475        7.801      862.590
12/07/2021  18:44:00      -20.636       22.586      -10.691       20.660       35.018       11.691      426.823     1226.259      136.690        0.142        0.089       30.594        8.503        0.077      336.172        7.296      862.595
12/07/2021  18:45:00      -43.261        9.159      -17.474        8.552       13.586        9.898       73.130      184.577       97.968        0.131        0.018       44.220        5.613        0.016      335.952        6.928      862.599
12/07/2021  18:46:00      -22.336       29.096      -17.079       15.025       10.736        9.755      225.754      115.252       95.167        0.104        0.022       36.681        8.576        0.055      336.308        7.522      862.611
12/07/2021  18:47:00      -13.507       14.346       -1.979       11.793       20.946        6.835      139.073      438.722       46.721        0.051        0.031       19.704        6.115        0.096      336.298        7.504      862.626
12/07/2021  18:48:00      -23.551      -24.661       -1.989       15.660       10.411        8.481      245.239      108.397       71.920        0.080        0.021       34.100        5.069        0.022      336.055        7.101      862.650
12/07/2021  18:49:00      -48.823       -4.618      -19.077       26.233       13.684       14.916      688.155      187.247      222.475        0.193        0.055       49.041        8.792        0.032      335.940        6.909      862.654
12/07/2021  18:50:00      -44.188       -2.832      -10.051       29.855       20.232       16.475      891.324      409.347      271.428        0.182        0.079       44.279       16.870        0.145      335.677        6.468      862.667
12/07/2021  18:51:00      -94.190       44.649      -19.276       33.134       30.094       20.369     1097.893      905.674      414.894        0.683        0.121      104.236       15.535        0.022      335.580        6.310      862.679
12/07/2021  18:52:00      -89.252       34.478      -16.503       49.743       38.822       17.372     2474.402     1507.109      301.797        0.685        0.214       95.680       12.330        0.017      335.349        5.922      862.688
12/07/2021  18:53:00      -13.952        4.790       -4.894       50.464       33.305       20.491     2546.579     1109.222      419.880        0.216        0.204       14.751       20.246        1.884      335.328        5.888      862.705
12/07/2021  18:54:00      -66.802       31.596      -11.198       49.852       43.680       22.143     2485.267     1907.971      490.319        0.523        0.244       73.897       10.651        0.021      335.247        5.753      862.714
12/07/2021  18:55:00     -110.855       39.450       -5.316       34.320       34.970       25.925     1177.879     1222.871      672.125        0.847        0.154      117.665       18.284        0.024      335.224        5.714      862.743
12/07/2021  18:56:00      -91.091       41.043      -11.817       34.998       34.712       20.119     1224.851     1204.939      404.769        0.648        0.142       99.910       14.250        0.020      335.252        5.761      862.766
12/07/2021  18:57:00      -52.939       15.545      -11.569       34.319       25.486       13.835     1177.795      649.534      191.397        0.260        0.101       55.174       12.464        0.051      335.309        5.857      862.801
12/07/2021  18:58:00      -59.815        2.483        3.864       49.894       30.150       22.477     2489.438      909.009      505.234        0.375        0.195       59.866       20.313        0.115      335.412        6.028      862.820
12/07/2021  18:59:00     -104.533       10.030      -15.233       34.139       32.525       23.272     1165.459     1057.845      541.581        0.701        0.138      105.013       17.013        0.026      335.539        6.241      862.826
12/07/2021  19:00:00     -102.705       21.476      -12.136       35.995       34.047       22.383     1295.612     1159.227      501.013        0.706        0.148      104.927       19.874        0.036      335.478        6.141      862.824
12/07/2021  19:01:00     -112.989       26.980      -13.474       50.126       29.528       30.297     2512.574      871.899      917.899        0.899        0.215      116.165       31.314        0.073      335.405        6.017      862.824
12/07/2021  19:02:00     -102.563       11.411      -14.725       49.490       53.013       25.815     2449.294     2810.429      666.435        0.840        0.296      103.196       19.855        0.037      335.321        5.877      862.833
12/07/2021  19:03:00     -117.667       28.385      -21.445       65.591       35.703       33.726     4302.155     1274.732     1137.425        1.091        0.336      121.042       25.956        0.046      335.254        5.765      862.841
12/07/2021  19:04:00     -146.365       36.732      -27.916       25.487       19.077       16.664      649.572      363.941      277.678        1.242        0.065      150.904        5.337        0.001      335.120        5.545      862.845
12/07/2021  19:05:00      -82.015       20.472      -10.071       32.155       36.232       21.518     1033.962     1312.754      463.040        0.503        0.140       84.531       13.421        0.025      335.225        5.717      862.838
12/07/2021  19:06:00      -81.708       -2.814      -11.040       51.540       32.186       31.137     2656.358     1035.966      969.483        0.573        0.233       81.757       27.154        0.110      335.219        5.707      862.819
12/07/2021  19:07:00       -6.165       -9.963       -3.732       19.013       24.650       18.404      361.509      607.646      338.725        0.073        0.065       11.716       11.589        0.978      335.202        5.679      862.792
12/07/2021  19:08:00       -4.957       10.490      -14.572       24.066       27.129       17.262      579.172      735.970      297.961        0.098        0.081       11.603       14.234        1.505      335.155        5.602      862.772
12/07/2021  19:09:00      -13.592       -8.897       -5.242       20.657       16.240       15.478      426.693      263.735      239.576        0.061        0.047       16.245       10.446        0.414      335.213        5.696      862.754
12/07/2021  19:10:00      -45.244       -4.285      -17.191       17.163       13.660       19.582      294.554      186.598      383.469        0.161        0.043       45.446        9.610        0.045      335.371        5.960      862.726
12/07/2021  19:11:00      -25.032        5.068       -8.205       19.945       20.690       19.237      397.794      428.078      370.075        0.096        0.060       25.540       17.140        0.450      335.241        5.744      862.702
12/07/2021  19:12:00      -31.344      -10.657       -0.446       26.004       25.955       16.855      676.187      673.649      284.077        0.136        0.082       33.106       15.583        0.222      335.240        5.742      862.668
12/07/2021  19:13:00      -53.992       -5.246      -11.142       23.509       21.506       19.027      552.652      462.487      362.017        0.222        0.069       54.246       10.229        0.036      335.267        5.785      862.636
12/07/2021  19:14:00      -35.324      -10.971       -2.724       33.056       29.257       15.165     1092.723      855.994      229.988        0.178        0.109       36.989       14.891        0.162      335.316        5.868      862.620
12/07/2021  19:15:00      -22.466      -20.452      -11.224       23.346        9.858       11.220      545.018       97.176      125.888        0.091        0.038       30.382        3.390        0.012      335.455        6.100      862.609
12/07/2021  19:16:00       12.519      -61.096      -27.835       25.112       24.818       14.636      630.595      615.936      214.226        0.306        0.073       62.366       11.405        0.033      335.536        6.236      862.593
12/07/2021  19:17:00      -15.697       21.242      -15.249       28.700       26.304       15.225      823.665      691.897      231.785        0.134        0.087       26.413       11.231        0.181      335.515        6.201      862.582
12/07/2021  19:18:00      -26.782      -36.841      -11.297       28.770       46.348       23.146      827.728     2148.106      535.722        0.286        0.176       45.547       19.239        0.178      335.521        6.212      862.569
12/07/2021  19:19:00     -109.756      -70.834      -14.599       42.161       35.269       17.969     1777.562     1243.936      322.873        1.031        0.167      130.628       14.258        0.012      335.618        6.372      862.572
12/07/2021  19:20:00     -107.024      -47.196      -15.534       32.548       45.127       26.679     1059.393     2036.431      711.759        0.886        0.190      116.968       17.656        0.023      335.568        6.291      862.569
12/07/2021  19:21:00     -123.636      -50.520       -9.312       55.458       44.444       32.425     3075.559     1975.296     1051.370        1.201        0.305      133.559       20.447        0.023      335.539        6.240      862.565
12/07/2021  19:22:00      -86.401      -26.903      -23.514       50.165       40.015       26.569     2516.513     1601.228      705.898        0.678        0.241       90.493       20.716        0.052      335.472        6.129      862.540
12/07/2021  19:23:00      -60.394       -0.620      -10.218       38.805       32.983       26.928     1505.812     1087.865      725.128        0.353        0.166       60.397       22.675        0.141      335.523        6.213      862.512
12/07/2021  19:24:00      -33.745      -24.600       -9.446       35.808       36.503       22.698     1282.185     1332.455      515.180        0.248        0.156       41.760       13.149        0.099      335.488        6.155      862.488
12/07/2021  19:25:00      -56.439      -15.618       -8.440       39.785       25.985       27.621     1582.852      675.240      762.926        0.326        0.151       58.560       17.175        0.086      335.472        6.129      862.460
12/07/2021  19:26:00      -35.686      -20.812      -11.113       38.335       36.816       31.206     1469.551     1355.402      973.816        0.281        0.190       41.311       19.652        0.226      335.474        6.131      862.436
12/07/2021  19:27:00     -122.123      -10.836      -19.335       54.032       35.605       26.582     2919.424     1267.693      706.592        1.015        0.245      122.603       15.284        0.016      335.358        5.938      862.409
12/07/2021  19:28:00     -132.122        6.961       -1.662       59.257       31.653       30.479     3511.339     1001.900      928.961        1.147        0.272      132.306       29.844        0.051      335.330        5.892      862.397
12/07/2021  19:29:00     -204.415      -16.955       -8.889       94.366       65.671       42.214     8904.848     4312.699     1782.016        2.857        0.750      205.117       35.480        0.030      335.153        5.596      862.402
12/07/2021  19:30:00     -210.273      -18.328      -11.681       69.614       57.039       45.754     4846.159     3253.483     2093.419        2.744        0.510      211.070       38.872        0.034      335.013        5.363      862.423
12/07/2021  19:31:00     -154.307      -10.202      -17.691       80.461       46.920       47.583     6473.920     2201.529     2264.154        1.758        0.547      154.644       42.843        0.077      334.987        5.322      862.457
12/07/2021  19:32:00     -124.458      -11.926      -11.708       68.643       42.397       39.427     4711.910     1797.486     1554.463        1.191        0.403      125.028       36.777        0.087      334.894        5.169      862.495
12/07/2021  19:33:00     -131.895        1.577       -7.965       67.539       56.607       34.778     4561.459     3204.329     1209.536        1.322        0.449      131.905       21.533        0.027      334.885        5.153      862.534
12/07/2021  19:34:00      -83.251        0.480      -12.233       77.434       43.921       38.030     5995.990     1929.073     1446.308        0.822        0.469       83.253       29.692        0.127      334.790        4.996      862.564
12/07/2021  19:35:00      -91.531       14.412      -10.848       78.819       31.288       29.167     6212.444      978.911      850.687        0.837        0.402       92.659       35.361        0.146      334.780        4.978      862.589
12/07/2021  19:36:00     -120.747       65.732      -11.364       37.274       37.691       24.770     1389.323     1420.610      613.546        1.123        0.171      137.479       15.044        0.012      334.712        4.866      862.609
12/07/2021  19:37:00      -97.237       46.914       -2.526       47.678       32.263       25.949     2273.156     1040.886      673.353        0.782        0.199      107.962       22.050        0.042      334.750        4.927      862.621
12/07/2021  19:38:00      -64.163       25.121       -7.590       51.275       33.108       19.131     2629.126     1096.161      366.006        0.445        0.205       68.905       21.890        0.101      334.800        5.014      862.619
12/07/2021  19:39:00      -57.412       15.013      -14.143       38.924       33.319       16.306     1515.086     1110.184      265.884        0.331        0.145       59.342       15.441        0.068      334.840        5.078      862.617
12/07/2021  19:40:00      -48.826       13.628       -8.965       35.071       29.074       13.668     1229.988      845.311      186.824        0.246        0.113       50.692       10.541        0.043      334.941        5.245      862.601
12/07/2021  19:41:00      -89.233        0.839      -14.864       36.781       18.019       11.999     1352.866      324.698      143.981        0.500        0.091       89.237        6.900        0.006      334.937        5.239      862.585
12/07/2021  19:42:00      -52.082       12.783       -8.732       25.702       32.384       17.630      660.602     1048.725      310.801        0.249        0.101       53.627       11.218        0.044      334.850        5.096      862.577
12/07/2021  19:43:00      -52.493        8.081      -17.378       16.480       17.680        7.450      271.594      312.571       55.502        0.188        0.032       53.111        5.255        0.010      334.827        5.056      862.563
12/07/2021  19:44:00       -0.564      -15.536       -5.297       10.447       11.287       11.582      109.135      127.399      134.136        0.032        0.019       15.546        6.510        0.175      334.960        5.277      862.548
12/07/2021  19:45:00      -15.628       -0.649        0.960       13.119       15.979       11.573      172.105      255.320      133.936        0.040        0.028       15.641        7.947        0.258      334.975        5.302      862.529
12/07/2021  19:46:00      -34.908        6.448      -10.650       12.268        8.034        8.073      150.492       64.538       65.169        0.083        0.014       35.498        5.894        0.028      335.013        5.366      862.510
12/07/2021  19:47:00      -15.190       -0.545       -3.563       11.290       11.722        7.666      127.475      137.412       58.772        0.028        0.016       15.200        4.329        0.081      334.971        5.297      862.484
12/07/2021  19:48:00      -54.534       19.316      -18.221       12.481        7.968        8.397      155.770       63.495       70.507        0.198        0.014       57.854        5.569        0.009      334.950        5.262      862.477
12/07/2021  19:49:00      -69.390       35.258      -14.318       21.702       13.983       11.049      470.961      195.532      122.073        0.353        0.039       77.834        8.667        0.012      335.032        5.398      862.473
12/07/2021  19:50:00      -20.025       28.531      -10.660       31.651       15.114       15.612     1001.765      228.423      243.734        0.140        0.074       34.857       14.971        0.184      335.129        5.558      862.481
12/07/2021  19:51:00       12.198       12.375       -4.461       12.083       12.286        7.850      146.007      150.938       61.628        0.034        0.018       17.376        8.817        0.257      335.084        5.485      862.494
12/07/2021  19:52:00       10.999       22.389       -6.885        9.069       10.343        7.077       82.250      106.969       50.082        0.045        0.012       24.945        3.745        0.023      335.062        5.450      862.504
12/07/2021  19:53:00        4.149       19.715       -8.181        7.300        6.782        5.498       53.292       46.002       30.227        0.030        0.006       20.146        2.955        0.022      335.067        5.455      862.511
12/07/2021  19:54:00       14.969       32.137       -8.368        5.208       12.571        5.017       27.124      158.032       25.168        0.077        0.011       35.452        4.008        0.013      335.111        5.528      862.508
12/07/2021  19:55:00       -2.604       75.283      -10.115       11.721       17.412        9.330      137.383      303.173       87.041        0.315        0.026       75.328        7.785        0.011      335.146        5.587      862.495
12/07/2021  19:56:00       11.633       51.799        3.475       16.764       23.674       13.546      281.038      560.442      183.483        0.193        0.051       53.090        5.461        0.011      335.133        5.564      862.499
12/07/2021  19:57:00       31.983       74.917       -8.597       21.983       34.126       23.062      483.240     1164.612      531.875        0.444        0.109       81.458       16.544        0.041      335.228        5.722      862.499
12/07/2021  19:58:00       49.609       71.796       -5.615       31.577       31.954       19.160      997.130     1021.061      367.112        0.502        0.119       87.268       16.836        0.037      335.154        5.600      862.511
12/07/2021  19:59:00       46.476        4.890      -11.356       32.051       45.980       21.982     1027.294     2114.120      483.214        0.297        0.181       46.732       17.916        0.147      335.079        5.475      862.543
12/07/2021  20:00:00       39.589      -23.991      -19.232       26.205       29.140       21.042      686.705      849.142      442.786        0.225        0.099       46.291       19.089        0.170      335.004        5.351      862.559
12/07/2021  20:01:00       21.546       14.849       -4.051       23.241       16.534       12.243      540.121      273.361      149.887        0.083        0.048       26.167       12.721        0.236      334.908        5.191      862.565
12/07/2021  20:02:00       13.678       57.212      -11.228       23.590       25.810       17.493      556.481      666.150      305.989        0.256        0.076       58.824        5.870        0.010      334.984        5.319      862.567
12/07/2021  20:03:00      -18.110       81.478      -14.311       24.091       34.235       24.190      580.380     1172.066      585.173        0.475        0.117       83.466       11.449        0.019      335.148        5.590      862.571
12/07/2021  20:04:00        4.447       24.058       -2.834       23.858       27.271       15.490      569.194      743.690      239.934        0.108        0.078       24.466       10.985        0.202      335.051        5.430      862.584
12/07/2021  20:05:00       40.339      -28.977       -9.585       21.665       33.796       20.167      469.388     1142.140      406.715        0.229        0.101       49.668       18.318        0.136      335.029        5.392      862.600
12/07/2021  20:06:00       25.610      -40.238      -16.753       21.964       21.396       13.332      482.424      457.777      177.753        0.184        0.056       47.697        8.586        0.032      334.932        5.232      862.589
12/07/2021  20:07:00        2.855      -18.706        2.476       10.602       17.879       10.311      112.400      319.643      106.313        0.045        0.027       18.923        7.196        0.145      335.000        5.345      862.567
12/07/2021  20:08:00        9.943      -41.624      -16.988       20.434       29.629       13.585      417.543      877.885      184.544        0.180        0.074       42.795       14.681        0.118      334.953        5.267      862.546
12/07/2021  20:09:00       24.162      -78.001      -25.839       34.054       28.991       28.591     1159.698      840.500      817.459        0.508        0.141       81.658       24.214        0.088      335.074        5.466      862.537
12/07/2021  20:10:00       60.340      -69.023      -19.722       42.272       49.774       25.308     1786.942     2477.458      640.514        0.685        0.245       91.679       16.768        0.033      334.987        5.323      862.532
12/07/2021  20:11:00       54.131      -87.735      -27.180       25.659       43.111       21.809      658.361     1858.553      475.645        0.718        0.150      103.090        7.703        0.006      335.027        5.390      862.521
12/07/2021  20:12:00       23.036      -41.786      -21.643       20.930       32.101       20.057      438.060     1030.506      402.294        0.231        0.094       47.715       21.735        0.207      335.082        5.480      862.519
12/07/2021  20:13:00       77.759     -146.778      -31.835       28.780       27.166       23.062      828.317      738.004      531.876        1.535        0.105      166.103       19.737        0.014      334.873        5.134      862.547
12/07/2021  20:14:00       86.499     -135.294      -41.322       32.623       41.675       21.975     1064.280     1736.777      482.900        1.539        0.164      160.581       15.571        0.009      334.964        5.284      862.562
12/07/2021  20:15:00       60.628      -63.415      -21.417       21.435       47.382       14.228      459.477     2245.097      202.428        0.553        0.145       87.733       15.325        0.031      334.976        5.304      862.559
12/07/2021  20:16:00        0.445       27.537      -15.114       26.105       30.113       19.467      681.450      906.764      378.955        0.148        0.098       27.540        9.628        0.122      335.032        5.396      862.553
12/07/2021  20:17:00       -0.897       27.489       -5.054       23.782       22.351       19.799      565.605      499.553      391.995        0.112        0.073       27.504        9.262        0.113      335.074        5.469      862.566
12/07/2021  20:18:00       -8.748       17.498       -4.889       22.124       15.338       13.268      489.452      235.243      176.040        0.065        0.045       19.563        9.247        0.223      335.000        5.344      862.593
12/07/2021  20:19:00      -34.534      -17.171      -12.406       17.471       11.932       13.645      305.227      142.379      186.194        0.114        0.032       38.567        9.887        0.066      334.883        5.148      862.619
12/07/2021  20:20:00      -44.766       16.361      -16.068       14.139       12.216       13.405      199.903      149.224      179.682        0.153        0.026       47.662        8.825        0.034      334.756        4.939      862.646
12/07/2021  20:21:00      -57.070       10.008      -11.779       40.801       27.113       18.498     1664.704      735.094      342.182        0.312        0.137       57.941       18.719        0.104      334.676        4.804      862.670
12/07/2021  20:22:00      -80.641       41.294       -4.495       53.880       35.919       26.915     2903.078     1290.207      724.423        0.657        0.246       90.599       27.595        0.093      334.608        4.691      862.700
12/07/2021  20:23:00      -97.060       37.879       -9.265       50.579       33.150       25.877     2558.283     1098.925      669.637        0.763        0.216      104.189       26.029        0.062      334.637        4.741      862.724
12/07/2021  20:24:00      -87.502       30.228      -17.540       51.492       37.659       28.184     2651.466     1418.186      794.313        0.687        0.243       92.576       23.341        0.064      334.458        4.441      862.739
12/07/2021  20:25:00      -87.298       12.844       -8.665       45.840       32.062       23.573     2101.349     1027.988      555.671        0.577        0.184       88.238       28.636        0.105      334.487        4.491      862.746
12/07/2021  20:26:00      -47.980       16.728       -0.635       32.076       20.592       15.004     1028.838      424.028      225.116        0.213        0.084       50.813        9.854        0.038      334.512        4.532      862.736
12/07/2021  20:27:00        2.955       -7.670      -10.075        8.431       16.546       15.327       71.083      273.758      234.924        0.037        0.029        8.220        4.601        0.313      334.625        4.720      862.722
12/07/2021  20:28:00       19.330        6.467      -11.957       16.051       19.044        9.327      257.627      362.676       87.001        0.063        0.035       20.383        9.440        0.215      334.735        4.905      862.700
12/07/2021  20:29:00       60.609       14.338      -13.859       10.185       12.601        8.114      103.726      158.779       65.841        0.220        0.016       62.282        2.206        0.001      334.782        4.983      862.684
12/07/2021  20:30:00       69.421       29.765      -12.562       17.086       17.722        8.446      291.944      314.083       71.333        0.327        0.034       75.533        7.856        0.011      334.864        5.119      862.675
12/07/2021  20:31:00       25.288       -1.935      -15.338       25.335       30.019       15.417      641.864      901.113      237.693        0.133        0.089       25.362       14.493        0.327      334.888        5.157      862.671
12/07/2021  20:32:00       17.525        0.776      -12.033       27.632       25.011       19.061      763.526      625.544      363.306        0.110        0.088       17.542       17.945        1.046      334.882        5.149      862.687
12/07/2021  20:33:00       -5.224       -3.582       -2.920       16.326       17.033        9.698      266.541      290.108       94.054        0.035        0.033        6.334        6.679        1.112      334.781        4.979      862.698
12/07/2021  20:34:00       -5.086        0.994       -0.605       16.451       10.653        8.573      270.638      113.485       73.488        0.024        0.023        5.182       10.209        3.881      334.619        4.709      862.722
12/07/2021  20:35:00      -41.104        8.843      -10.297       18.912       13.439       11.002      357.650      180.609      121.039        0.127        0.033       42.045       10.222        0.059      334.628        4.726      862.749
12/07/2021  20:36:00      -35.628       -9.373        0.164       29.273       20.763       16.660      856.884      431.092      277.562        0.146        0.078       36.840       16.424        0.199      334.615        4.703      862.768
12/07/2021  20:37:00      -55.077        0.325      -11.084       28.575       17.930       17.383      816.526      321.502      302.175        0.230        0.072       55.078       12.290        0.050      334.596        4.671      862.796
12/07/2021  20:38:00      -87.836       -3.594       -4.036       29.968       23.305       16.505      898.061      543.100      272.416        0.473        0.086       87.909       15.281        0.030      334.719        4.877      862.819
12/07/2021  20:39:00      -51.958      -12.338        1.606       40.382       30.306       24.029     1630.743      918.445      577.401        0.299        0.156       53.403       12.888        0.058      334.765        4.953      862.822
12/07/2021  20:40:00      -31.434       -8.883       -1.340       45.238       19.270       16.774     2046.441      371.316      281.375        0.188        0.135       32.665       19.410        0.353      334.723        4.884      862.828
12/07/2021  20:41:00      -38.882        2.851       -5.637       30.841       17.818       13.748      951.147      317.492      189.004        0.150        0.073       38.987        7.641        0.038      334.723        4.884      862.821
12/07/2021  20:42:00       -9.468       -4.803       -5.949       26.245       11.575       11.449      688.782      133.977      131.081        0.055        0.048       10.616       14.891        1.967      334.746        4.923      862.810
12/07/2021  20:43:00      -11.187       -9.260       -7.388       21.267       18.608       17.395      452.273      346.252      302.600        0.068        0.055       14.523       10.574        0.530      334.737        4.907      862.795
12/07/2021  20:44:00      -38.850       -1.104        4.567       29.431       29.237       14.987      866.166      854.809      224.618        0.174        0.097       38.866       17.695        0.207      334.648        4.759      862.777
12/07/2021  20:45:00      -32.952        5.516        3.852       33.690       22.812       17.235     1135.005      520.400      297.062        0.154        0.098       33.411       18.496        0.306      334.603        4.683      862.769
12/07/2021  20:46:00      -20.228      -12.601       -0.644       25.366       18.948       11.142      643.448      359.009      124.152        0.085        0.056       23.832       10.349        0.189      334.646        4.754      862.761
12/07/2021  20:47:00      -20.575        8.423        5.744       29.054       21.790       13.697      844.133      474.788      187.621        0.102        0.075       22.232        9.974        0.201      334.653        4.766      862.762
12/07/2021  20:48:00      -32.197        4.058       -0.284       31.138       17.826       16.744      969.606      317.781      280.364        0.131        0.078       32.452       12.014        0.137      334.560        4.612      862.758
12/07/2021  20:49:00      -31.907        6.558       -1.515       37.353       18.246       12.923     1395.231      332.903      167.010        0.148        0.095       32.574       10.122        0.097      334.576        4.637      862.760
12/07/2021  20:50:00      -64.785        7.367        1.992       35.140       32.633       19.906     1234.817     1064.929      396.269        0.348        0.135       65.203       15.135        0.054      334.551        4.595      862.759
12/07/2021  20:51:00      -35.366        6.819       -1.123       39.094       21.160       17.468     1528.309      447.748      305.134        0.179        0.114       36.017       16.259        0.204      334.506        4.521      862.758
12/07/2021  20:52:00      -53.696       -2.640       -2.859       33.901       26.629       16.722     1149.269      709.123      279.617        0.252        0.107       53.761       15.374        0.082      334.444        4.420      862.760
12/07/2021  20:53:00      -83.056       10.248       -5.254       27.832       25.756       17.498      774.615      663.346      306.185        0.439        0.087       83.686       13.139        0.025      334.559        4.610      862.760
12/07/2021  20:54:00      -57.815       -2.435       -1.954       32.296       28.813       19.675     1043.007      830.180      387.086        0.281        0.113       57.866       13.816        0.057      334.561        4.613      862.764
12/07/2021  20:55:00      -69.211       10.685       -4.506       36.061       25.178       19.714     1300.367      633.956      388.630        0.362        0.116       70.031       12.309        0.031      334.657        4.774      862.770
12/07/2021  20:56:00      -47.721        9.683       -4.594       25.188       22.597       16.395      634.449      510.626      268.785        0.190        0.071       48.693        8.832        0.033      334.508        4.526      862.776
12/07/2021  20:57:00      -47.472       22.355       -6.972       27.521       20.489       13.019      757.402      419.784      169.494        0.207        0.067       52.472       14.635        0.078      334.497        4.507      862.787
12/07/2021  20:58:00      -64.943       39.347      -14.573       18.167       15.272       11.708      330.046      233.244      137.088        0.334        0.035       75.933        9.173        0.015      334.595        4.671      862.789
12/07/2021  20:59:00      -68.317       28.577      -17.448       16.105       13.197       10.821      259.364      174.148      117.094        0.317        0.028       74.053        5.732        0.006      334.571        4.630      862.783
12/07/2021  21:00:00      -38.118       16.122      -11.634       16.794       14.255       11.888      282.037      203.207      141.330        0.124        0.031       41.387        5.463        0.017      334.580        4.645      862.777
12/07/2021  21:01:00      -14.003       10.153      -16.162       13.470       13.720       12.163      181.453      188.252      147.933        0.054        0.026       17.296        8.373        0.234      334.569        4.625      862.773
12/07/2021  21:02:00      -23.562       16.181      -15.666       14.070       13.778       11.485      197.967      189.838      131.912        0.079        0.026       28.583        6.431        0.051      334.541        4.579      862.770
12/07/2021  21:03:00      -37.078       11.423      -14.855       16.469       14.248       12.693      271.225      203.002      161.123        0.118        0.032       38.797        2.814        0.005      334.561        4.612      862.775
12/07/2021  21:04:00      -40.564        7.067      -13.967       20.970       15.869       15.143      439.741      251.834      229.316        0.141        0.046       41.175       14.781        0.129      334.426        4.390      862.784
12/07/2021  21:05:00      -37.898       -1.324      -22.500       16.937       19.212       15.896      286.866      369.087      252.687        0.143        0.045       37.921       10.358        0.075      334.365        4.289      862.798
12/07/2021  21:06:00      -25.896        4.007       -5.220       39.729       16.002       19.621     1578.387      256.077      385.001        0.147        0.111       26.204       22.100        0.711      334.367        4.293      862.824
12/07/2021  21:07:00       -7.552        1.966      -13.798       23.172       20.422       19.784      536.949      417.058      391.422        0.080        0.067        7.803       18.155        5.413      334.266        4.124      862.835
12/07/2021  21:08:00       -1.550       -7.322        1.829       14.012       16.575       14.720      196.340      274.737      216.679        0.037        0.034        7.484        7.944        1.127      334.232        4.067      862.847
12/07/2021  21:09:00      -20.353        1.863       -4.189       21.689       17.372       13.388      470.397      301.775      179.249        0.069        0.048       20.438        9.740        0.227      334.263        4.120      862.845
12/07/2021  21:10:00      -24.129        7.008      -10.945       15.839       14.222       12.162      250.879      202.274      147.915        0.068        0.030       25.126        5.881        0.055      334.353        4.268      862.832
12/07/2021  21:11:00      -74.834       27.255      -17.105       19.935       10.157       14.484      397.388      103.173      209.787        0.367        0.036       79.643        4.211        0.003      334.431        4.397      862.817
12/07/2021  21:12:00      -66.641       36.090      -17.827        9.345        7.947        6.484       87.322       63.150       42.045        0.313        0.010       75.786        4.085        0.003      334.459        4.445      862.800
12/07/2021  21:13:00      -44.211       27.396      -15.506       13.711        7.267        9.310      187.983       52.809       86.685        0.164        0.016       52.011        4.485        0.007      334.554        4.600      862.776
12/07/2021  21:14:00      -13.390       17.864       -9.184        7.367        6.640        9.991       54.273       44.093       99.830        0.039        0.010       22.325        4.202        0.035      334.660        4.777      862.759
12/07/2021  21:15:00       -5.562       17.139       -5.508       13.632       11.610        7.884      185.830      134.796       62.163        0.037        0.019       18.019        7.328        0.165      334.976        5.306      862.746
12/07/2021  21:16:00        0.184        5.173       -5.161        5.845        6.398        5.731       34.161       40.941       32.845        0.008        0.005        5.177        4.084        0.622      334.921        5.214      862.733
12/07/2021  21:17:00       -9.866        1.869       -9.612       11.736        7.331        8.712      137.723       53.742       75.906        0.023        0.013       10.042        6.906        0.473      334.993        5.333      862.731
12/07/2021  21:18:00      -11.378        9.815      -12.481       10.065       10.253        7.310      101.305      105.127       53.430        0.032        0.013       15.026        4.991        0.110      335.083        5.481      862.728
12/07/2021  21:19:00      -16.959       -6.587      -17.150       15.419       11.376        8.433      237.732      129.409       71.118        0.053        0.022       18.194        6.006        0.109      334.842        5.081      862.722
12/07/2021  21:20:00      -10.209        3.818       -8.774       11.797       11.617        7.065      139.163      134.955       49.918        0.026        0.016       10.900        2.937        0.073      335.022        5.381      862.734
12/07/2021  21:21:00      -11.923        0.902       -6.777        8.659        5.982        5.465       74.984       35.789       29.865        0.016        0.007       11.957        4.084        0.117      334.924        5.219      862.737
12/07/2021  21:22:00      -15.918       -5.430       -8.118       11.622        8.712        9.501      135.078       75.906       90.272        0.032        0.015       16.819        6.082        0.131      334.802        5.015      862.745
12/07/2021  21:23:00        6.830       -3.390       -0.191       12.128       11.303        8.590      147.089      127.766       73.795        0.020        0.017        7.625        6.045        0.628      334.603        4.683      862.755
12/07/2021  21:24:00      -20.605      -10.369       -3.472       12.886       10.041       11.930      166.036      100.826      142.336        0.048        0.020       23.067        6.791        0.087      334.536        4.571      862.770
12/07/2021  21:25:00      -34.805        6.280       -2.789       15.423       13.163       11.754      237.865      173.264      138.156        0.090        0.027       35.367        8.156        0.053      334.412        4.366      862.787
12/07/2021  21:26:00      -47.096      -10.864        0.577       29.832       18.960       17.696      889.972      359.477      313.145        0.195        0.078       48.332       14.639        0.092      334.446        4.424      862.800
12/07/2021  21:27:00      -38.767       -9.543        2.241       45.406       31.075       24.226     2061.720      965.626      586.882        0.261        0.181       39.924       23.877        0.358      334.333        4.237      862.822
12/07/2021  21:28:00      -81.982       14.955       -9.706       50.571       24.128       18.415     2557.412      582.163      339.107        0.526        0.174       83.335       20.742        0.062      334.225        4.057      862.840
12/07/2021  21:29:00      -45.007       -3.878       -7.246       43.599       29.381       23.518     1900.842      863.243      553.082        0.270        0.166       45.173       20.283        0.202      334.134        3.907      862.847
12/07/2021  21:30:00     -103.967        6.555       -6.268       42.930       35.746       27.909     1842.973     1277.750      778.896        0.739        0.195      104.173       21.611        0.043      334.177        3.976      862.853
12/07/2021  21:31:00     -126.569       10.481       -4.648       45.047       40.968       30.695     2029.207     1678.343      942.155        1.040        0.232      127.002       26.626        0.044      334.121        3.884      862.851
12/07/2021  21:32:00      -99.803       10.480       -5.391       52.388       28.071       27.048     2744.453      787.982      731.594        0.718        0.213      100.351       23.885        0.057      334.072        3.804      862.852
12/07/2021  21:33:00      -93.657       -0.607       -5.583       62.931       25.110       22.136     3960.358      630.524      490.015        0.694        0.254       93.659       23.885        0.065      334.098        3.846      862.851
12/07/2021  21:34:00      -39.730        9.171       -3.871       30.263       19.567       15.128      915.868      382.885      228.857        0.160        0.076       40.775       13.094        0.103      334.144        3.924      862.853
12/07/2021  21:35:00        7.335       -9.146       -5.949       13.755       19.601       15.291      189.207      384.204      233.826        0.049        0.040       11.724       11.089        0.895      334.229        4.062      862.853
12/07/2021  21:36:00      -26.071        1.389      -15.635       17.668       12.941       18.111      312.174      167.474      328.015        0.087        0.040       26.108       10.009        0.147      334.245        4.089      862.855
12/07/2021  21:37:00      -43.991        5.540      -11.114       31.852       20.133       16.584     1014.564      405.319      275.031        0.189        0.085       44.339       12.357        0.078      334.206        4.025      862.852
12/07/2021  21:38:00      -60.184       -1.504       -4.699       36.544       21.806       26.109     1335.464      475.516      681.681        0.307        0.125       60.203       22.874        0.144      334.151        3.933      862.852
12/07/2021  21:39:00     -105.675      -22.269      -17.699       38.830       35.624       29.536     1507.746     1269.103      872.403        0.781        0.182      107.996       21.205        0.039      334.137        3.910      862.853
12/07/2021  21:40:00      -51.330       -8.394       -8.080       51.396       32.891       27.413     2641.520     1081.838      751.473        0.362        0.224       52.012       23.245        0.200      334.076        3.810      862.862
12/07/2021  21:41:00      -36.427        5.781       -5.850       44.728       28.819       30.733     2000.572      830.506      944.544        0.258        0.189       36.883       23.404        0.403      334.007        3.697      862.884
12/07/2021  21:42:00      -79.050       -0.287       -9.733       52.966       39.376       29.029     2805.385     1550.506      842.712        0.577        0.260       79.051       19.091        0.058      334.066        3.793      862.881
12/07/2021  21:43:00     -107.932       22.357       -5.121       49.266       42.421       25.631     2427.123     1799.502      656.964        0.853        0.244      110.223       22.231        0.041      334.012        3.704      862.875
12/07/2021  21:44:00      -94.200        4.805        4.517       51.514       42.041       30.916     2653.690     1767.430      955.782        0.715        0.269       94.323       32.275        0.117      333.950        3.603      862.876
12/07/2021  21:45:00      -82.341       19.336       -4.253       72.107       35.371       30.414     5199.466     1251.126      925.013        0.727        0.369       84.581       35.451        0.176      333.990        3.667      862.873
12/07/2021  21:46:00     -146.507       36.543        0.379       52.185       35.571       30.084     2723.259     1265.280      905.048        1.385        0.245      150.996       25.219        0.028      334.025        3.724      862.884
12/07/2021  21:47:00     -128.685       21.332        2.551       54.924       39.648       29.936     3016.610     1571.982      896.185        1.125        0.274      130.441       29.461        0.051      333.995        3.675      862.896
12/07/2021  21:48:00      -34.859        0.535       -2.685       51.445       32.829       26.117     2646.603     1077.765      682.077        0.281        0.220       34.863       19.251        0.305      333.953        3.607      862.909
12/07/2021  21:49:00      -40.779       17.734       -8.084       56.263       34.358       23.718     3165.472     1180.477      562.532        0.347        0.245       44.468       19.843        0.199      333.953        3.607      862.916
12/07/2021  21:50:00     -134.077       53.826       -7.591       41.368       34.401       27.240     1711.328     1183.427      742.010        1.228        0.182      144.478       20.855        0.021      333.837        3.415      862.922
12/07/2021  21:51:00     -144.585       18.730      -11.054       59.866       41.485       30.655     3583.957     1721.020      939.707        1.381        0.312      145.793       26.810        0.034      333.799        3.350      862.926
12/07/2021  21:52:00      -54.236        3.205      -10.664       79.916       40.792       31.278     6386.580     1663.965      978.286        0.605        0.451       54.330       21.501        0.157      333.747        3.263      862.915
12/07/2021  21:53:00      -10.403       13.609        1.206       27.775       24.960       25.531      771.472      623.016      651.833        0.117        0.102       17.130       16.604        0.940      333.749        3.268      862.902
12/07/2021  21:54:00      -53.196      -12.221       -6.853       41.711       33.260       26.787     1739.795     1106.257      717.535        0.329        0.178       54.582       18.429        0.114      333.788        3.333      862.881
12/07/2021  21:55:00      -59.493        2.461        0.401       45.376       29.801       27.993     2059.016      888.073      783.624        0.364        0.187       59.544       21.000        0.124      333.803        3.357      862.854
12/07/2021  21:56:00      -69.212       22.154       -5.474       27.525       23.568       14.953      757.618      555.459      223.591        0.342        0.077       72.671        8.883        0.015      333.815        3.377      862.825
12/07/2021  21:57:00      -34.441        7.278       -6.660       20.080       20.573       10.000      403.189      423.244       99.999        0.110        0.046       35.202        9.762        0.077      333.803        3.358      862.812
12/07/2021  21:58:00      -46.792        3.481      -10.116       24.608       10.616       14.378      605.574      112.698      206.732        0.161        0.046       46.921       15.390        0.108      333.883        3.491      862.812
12/07/2021  21:59:00      -50.268        3.317      -17.924       32.018       15.972       18.975     1025.183      255.112      360.064        0.225        0.082       50.377       19.212        0.145      333.939        3.583      862.820
12/07/2021  22:00:00      -85.379       17.552      -14.945       21.096       19.326       14.681      445.030      373.495      215.532        0.443        0.052       87.165        4.497        0.003      333.982        3.655      862.844
12/07/2021  22:01:00      -98.774       16.860      -17.652       19.454       19.660       16.866      378.458      386.531      284.463        0.570        0.052      100.203        9.413        0.009      333.968        3.630      862.875
12/07/2021  22:02:00     -117.656        7.281       -9.908       29.661       26.793       17.840      879.797      717.870      318.271        0.795        0.096      117.881        7.253        0.004      333.874        3.475      862.902
12/07/2021  22:03:00      -86.924       13.664        2.647       37.648       30.828       26.907     1417.381      950.385      723.961        0.542        0.155       87.992       19.714        0.050      333.789        3.335      862.933
12/07/2021  22:04:00      -35.321       -8.738       -1.272       45.066       32.612       27.998     2030.978     1063.570      783.878        0.260        0.194       36.386       23.471        0.416      333.797        3.346      862.961
12/07/2021  22:05:00      -47.335       -3.477      -12.527       44.580       31.947       23.653     1987.403     1020.619      559.477        0.299        0.178       47.462       21.281        0.201      333.790        3.337      862.980
12/07/2021  22:06:00      -42.923      -10.790       -7.491       49.342       20.913       23.326     2434.621      437.373      544.117        0.271        0.171       44.259       19.781        0.200      333.752        3.273      862.990
12/07/2021  22:07:00      -56.860        3.221       -0.679       36.594       25.983       22.726     1339.129      675.142      516.458        0.289        0.127       56.951       20.606        0.131      333.724        3.227      862.995
12/07/2021  22:08:00      -61.245        6.401       -6.795       38.034       27.904       21.824     1446.567      778.650      476.288        0.327        0.135       61.578       18.859        0.094      333.697        3.184      862.998
12/07/2021  22:09:00      -36.662        6.972      -12.199       29.116       20.951       17.252      847.730      438.944      297.626        0.156        0.079       37.319        4.510        0.015      333.678        3.150      862.999
12/07/2021  22:10:00      -61.952      -12.687      -16.088       42.222       20.734       24.723     1782.722      429.901      611.242        0.354        0.141       63.238       20.466        0.105      333.648        3.101      863.001
12/07/2021  22:11:00      -71.980        9.118      -11.726       40.611       19.553       17.603     1649.252      382.311      309.880        0.387        0.117       72.555       13.822        0.036      333.635        3.082      862.989
12/07/2021  22:12:00      -80.195       29.286      -10.671       15.766       12.156       11.393      248.561      147.765      129.802        0.396        0.026       85.375        7.505        0.008      333.597        3.018      862.980
12/07/2021  22:13:00      -84.980       36.384      -15.708       19.903       12.369       13.133      396.134      152.987      172.467        0.476        0.036       92.442       11.311        0.015      333.619        3.055      862.967
12/07/2021  22:14:00      -82.813       29.125      -14.597       18.395       14.101       13.125      338.362      198.837      172.263        0.431        0.035       87.786       11.785        0.018      333.620        3.055      862.959
12/07/2021  22:15:00      -93.604       21.637      -17.273       15.707       12.643        9.173      246.716      159.844       84.150        0.501        0.025       96.072        3.133        0.001      333.669        3.137      862.950
12/07/2021  22:16:00      -94.302       17.479      -16.090       21.323       12.895       11.202      454.682      166.270      125.495        0.510        0.037       95.908        4.806        0.003      333.670        3.138      862.943
12/07/2021  22:17:00     -101.390       25.770      -19.065       24.720       13.107       12.758      611.089      171.793      162.777        0.613        0.047      104.614       12.619        0.015      333.667        3.133      862.944
12/07/2021  22:18:00      -95.611       11.930      -20.362       21.035       17.065       14.611      442.462      291.231      213.475        0.532        0.047       96.353       10.020        0.011      333.663        3.126      862.941
12/07/2021  22:19:00      -70.462      -10.463      -15.767       21.223       23.099       16.002      450.407      533.585      256.078        0.328        0.062       71.235        7.679        0.012      333.652        3.110      862.948
12/07/2021  22:20:00      -64.967        4.146      -11.026       23.188       25.346       12.629      537.674      642.402      159.487        0.285        0.067       65.099        5.762        0.008      333.608        3.036      862.949
12/07/2021  22:21:00      -18.446        2.509      -14.670       29.504       16.656       13.227      870.483      277.412      174.949        0.094        0.066       18.616        6.273        0.114      333.603        3.027      862.944
12/07/2021  22:22:00      -62.149        1.094      -14.221       34.936       15.072       16.501     1220.552      227.179      272.268        0.289        0.086       62.159       14.741        0.056      333.692        3.175      862.936
12/07/2021  22:23:00      -93.237       13.261      -11.588       29.575       13.996        9.739      874.685      195.883       94.854        0.508        0.058       94.175        5.882        0.004      333.694        3.178      862.926
12/07/2021  22:24:00      -46.846       -3.394      -13.185       26.161       23.228       23.500      684.396      539.539      552.239        0.208        0.089       46.969       16.476        0.123      333.674        3.144      862.923
12/07/2021  22:25:00      -81.820       -2.049       -8.142       25.105       16.284       18.192      630.274      265.183      330.944        0.400        0.061       81.846       12.785        0.024      333.707        3.199      862.932
12/07/2021  22:26:00      -88.146       21.727      -12.101       35.446       24.234       16.276     1256.447      587.279      264.907        0.525        0.105       90.785       17.692        0.038      333.697        3.183      862.946
12/07/2021  22:27:00      -95.175       26.278      -10.262       28.134       16.566       17.320      791.516      274.419      299.994        0.561        0.068       98.736       12.569        0.016      333.645        3.097      862.962
12/07/2021  22:28:00      -93.711       28.304      -10.015       20.058       18.122       15.645      402.319      328.416      244.774        0.533        0.049       97.892        8.307        0.007      333.636        3.082      862.977
12/07/2021  22:29:00      -91.932       19.010      -13.211       22.740       22.844       12.929      517.087      521.828      167.167        0.510        0.060       93.877       14.037        0.022      333.664        3.128      862.982
12/07/2021  22:30:00      -83.592       11.307      -12.246       19.261       15.059       13.753      370.975      226.778      189.131        0.403        0.039       84.353        9.967        0.014      333.628        3.068      862.976
12/07/2021  22:31:00      -51.679        0.921       -1.683       45.872       19.144       15.051     2104.196      366.474      226.547        0.269        0.135       51.688       16.026        0.096      333.673        3.143      862.966
12/07/2021  22:32:00      -87.840       19.436       -7.879       14.539       14.720       12.438      211.387      216.667      154.710        0.437        0.029       89.964        7.811        0.008      333.594        3.011      862.953
12/07/2021  22:33:00      -64.927        2.520       -0.388       38.346       25.942       21.995     1470.388      672.992      483.764        0.342        0.131       64.976       22.753        0.123      333.573        2.977      862.933
12/07/2021  22:34:00      -12.046       -8.912        4.008       40.703       30.585       26.283     1656.699      935.412      690.794        0.176        0.164       14.984       22.559        2.267      333.594        3.012      862.909
12/07/2021  22:35:00      -64.274       -5.322       -3.931       50.059       34.004       27.356     2505.935     1156.267      748.374        0.429        0.221       64.494       17.144        0.071      333.523        2.894      862.897
12/07/2021  22:36:00      -82.826       -6.381       -7.741       35.450       35.414       24.828     1256.668     1254.163      616.409        0.504        0.156       83.072       22.890        0.076      333.489        2.838      862.897
12/07/2021  22:37:00      -66.648        9.997      -13.086       23.430       29.120       18.692      548.957      847.969      349.401        0.323        0.087       67.394        9.333        0.019      333.506        2.867      862.897
12/07/2021  22:38:00      -69.026       13.570      -11.192       26.732       21.804       17.757      714.600      475.404      315.296        0.329        0.075       70.347       10.689        0.023      333.445        2.762      862.897
12/07/2021  22:39:00      -93.380       11.089      -12.668       19.903       16.905       15.596      396.146      285.793      243.238        0.496        0.046       94.037        9.320        0.010      333.424        2.730      862.895
12/07/2021  22:40:00      -98.665       -3.976       -6.551       27.929       20.730       18.164      780.023      429.752      329.920        0.567        0.077       98.745       14.991        0.023      333.522        2.893      862.879
12/07/2021  22:41:00      -90.975       -2.586       -7.386       61.857       20.879       21.811     3826.282      435.945      475.701        0.654        0.237       91.012       26.491        0.085      333.479        2.819      862.873
12/07/2021  22:42:00     -128.253        4.599      -12.036       30.064       24.102       16.791      903.822      580.892      281.952        0.919        0.088      128.335        5.649        0.002      333.455        2.781      862.869
12/07/2021  22:43:00      -81.972        8.549      -10.054       61.884       36.899       20.614     3829.684     1361.569      424.950        0.625        0.281       82.416       16.326        0.039      333.477        2.817      862.862
12/07/2021  22:44:00      -95.791        9.419       -7.451       48.014       25.706       21.695     2305.343      660.821      470.688        0.638        0.172       96.253       22.926        0.057      333.422        2.726      862.863
12/07/2021  22:45:00      -80.822        1.651      -14.065       30.743       19.903       19.038      945.150      396.111      362.436        0.422        0.085       80.839       11.948        0.022      333.380        2.660      862.859
12/07/2021  22:46:00      -48.809        2.547       -7.426       26.189       16.356       17.948      685.843      267.506      322.121        0.186        0.064       48.876       14.937        0.093      333.470        2.806      862.881
12/07/2021  22:47:00      -13.301        1.222       -8.651       37.496       19.533       18.459     1405.957      381.542      340.731        0.119        0.106       13.357       18.513        1.921      333.484        2.828      862.897
12/07/2021  22:48:00      -35.532       -2.239       -3.185       33.129       21.275       21.207     1097.530      452.625      449.726        0.164        0.100       35.602       19.320        0.294      333.408        2.703      862.901
12/07/2021  22:49:00      -79.258       -4.775      -15.501       41.847       19.943       22.528     1751.130      397.716      507.516        0.460        0.133       79.402       25.371        0.102      333.372        2.645      862.903
12/07/2021  22:50:00      -47.036        4.731       -5.377       30.677       23.652       28.312      941.072      559.420      801.562        0.228        0.115       47.273       21.339        0.204      333.378        2.655      862.894
12/07/2021  22:51:00        2.579       -6.278      -13.626       25.053       19.092       19.665      627.639      364.489      386.710        0.081        0.069        6.787       15.053        4.919      333.323        2.563      862.872
12/07/2021  22:52:00      -19.614      -30.740      -16.340       25.821       29.256       27.694      666.708      855.896      766.955        0.194        0.114       36.464       19.788        0.294      333.296        2.519      862.846
12/07/2021  22:53:00      -32.279       -0.117      -13.382       24.532       41.054       23.285      601.837     1685.405      542.196        0.202        0.141       32.279       20.798        0.415      333.269        2.473      862.826
12/07/2021  22:54:00      -14.262        3.792       -6.078       37.562       21.110       26.016     1410.913      445.638      676.827        0.139        0.127       14.757       14.634        0.983      333.329        2.573      862.803
12/07/2021  22:55:00      -52.101      -11.782      -20.840       32.793       20.556       17.875     1075.392      422.545      319.514        0.255        0.091       53.417       15.029        0.079      333.453        2.779      862.787
12/07/2021  22:56:00      -70.690       -8.076      -18.305       35.167       22.573       23.113     1236.697      509.556      534.232        0.384        0.114       71.150       20.172        0.080      333.362        2.629      862.776
12/07/2021  22:57:00      -66.270      -20.785      -25.508       23.804       21.227       18.515      566.653      450.582      342.796        0.342        0.068       69.453       12.752        0.034      333.307        2.537      862.777
12/07/2021  22:58:00      -32.045        8.545      -12.669       24.228       36.014       15.603      586.987     1296.974      243.440        0.169        0.106       33.165       17.705        0.285      333.309        2.540      862.788
12/07/2021  22:59:00      -60.783       23.565      -15.966       21.294       23.112       18.921      453.445      534.181      357.992        0.292        0.067       65.191        8.395        0.017      333.375        2.651      862.787
12/07/2021  23:00:00      -65.098       10.755      -15.724       30.157       19.862       16.709      909.423      394.506      279.185        0.309        0.079       65.980       18.173        0.076      333.378        2.654      862.773
12/07/2021  23:01:00      -58.130       11.896      -21.791       33.712       26.547       19.495     1136.494      704.722      380.048        0.311        0.111       59.335       15.704        0.070      333.369        2.641      862.754
12/07/2021  23:02:00       14.021       -2.670        4.131       20.455        9.090       14.110      418.420       82.619      199.092        0.046        0.035       14.273       11.984        0.705      333.351        2.612      862.727
12/07/2021  23:03:00        2.583        5.332       -0.773       20.712       15.794       13.704      428.989      249.445      187.811        0.045        0.043        5.924        7.482        1.595      333.290        2.508      862.697
12/07/2021  23:04:00      -11.207      -27.654       -6.587       15.971       24.490       22.583      255.064      599.773      510.006        0.115        0.068       29.838        8.761        0.086      333.284        2.499      862.670
12/07/2021  23:05:00        4.381       15.430       -1.286       16.417       17.469       13.312      269.513      305.180      177.209        0.051        0.038       16.040        6.148        0.147      333.254        2.449      862.647
12/07/2021  23:06:00       18.563        3.668       -8.004       13.476       20.275       16.060      181.595      411.072      257.925        0.064        0.043       18.922       12.355        0.426      333.302        2.528      862.627
12/07/2021  23:07:00       -4.022       -2.625      -15.214       22.295       21.782       22.652      497.060      474.468      513.118        0.087        0.074        4.803       19.928       17.218      333.293        2.515      862.611
12/07/2021  23:08:00      -21.836       20.396       -5.643       26.802       21.225       23.073      718.323      450.503      532.365        0.131        0.085       29.880       14.172        0.225      333.309        2.541      862.590
12/07/2021  23:09:00      -11.160       11.774      -11.194       25.845       19.134       18.990      667.979      366.126      360.614        0.089        0.070       16.223       10.235        0.398      333.281        2.494      862.574
12/07/2021  23:10:00      -44.897       34.454       -4.058       31.291       32.665       20.067      979.116     1067.013      402.690        0.283        0.122       56.594       10.818        0.037      333.240        2.427      862.563
12/07/2021  23:11:00      -47.023       28.308      -11.074       23.568       22.428       20.524      555.445      503.026      421.243        0.231        0.074       54.886        5.095        0.009      333.264        2.465      862.566
12/07/2021  23:12:00      -81.898       45.348      -28.094       30.942       26.167       21.382      957.406      684.732      457.174        0.583        0.105       93.614       13.678        0.021      333.249        2.441      862.571
12/07/2021  23:13:00      -59.982       28.092      -21.455       29.370       36.100       19.370      862.588     1303.192      375.198        0.369        0.127       66.235        3.651        0.003      333.273        2.480      862.573
12/07/2021  23:14:00      -15.762        0.299      -18.202       32.578       43.778       21.366     1061.344     1916.482      456.524        0.201        0.172       15.765       15.058        0.912      333.272        2.479      862.573
12/07/2021  23:15:00      -36.631       -9.914      -11.251       27.863       33.317       22.095      776.321     1110.036      488.197        0.197        0.119       37.949       17.350        0.209      333.243        2.431      862.561
12/07/2021  23:16:00      -52.012       -5.730      -12.748       27.982       27.743       19.216      783.014      769.675      369.262        0.241        0.096       52.326       17.016        0.106      333.294        2.516      862.542
12/07/2021  23:17:00      -87.715       31.909      -10.864       32.314       16.028       16.142     1044.194      256.890      260.571        0.520        0.078       93.339       18.196        0.038      333.268        2.472      862.513
12/07/2021  23:18:00      -89.388       25.300       -8.053       31.180       24.280       16.742      972.193      589.515      280.280        0.527        0.092       92.900       19.252        0.043      333.263        2.464      862.488
12/07/2021  23:19:00      -49.667        4.254       -1.934       23.744       22.561       12.898      563.776      508.991      166.370        0.186        0.062       49.849       11.706        0.055      333.393        2.679      862.477
12/07/2021  23:20:00      -95.295       16.775      -15.336       15.845       13.845       12.412      251.059      191.672      154.052        0.510        0.030       96.760        8.159        0.007      333.400        2.692      862.478
12/07/2021  23:21:00     -105.965       24.433      -18.924       18.460       12.436        9.486      340.783      154.651       89.982        0.638        0.029      108.745        3.763        0.001      333.390        2.675      862.486
12/07/2021  23:22:00     -115.636       18.154      -13.359       35.895       16.801       15.175     1288.419      282.276      230.272        0.784        0.090      117.052       13.010        0.012      333.353        2.613      862.497
12/07/2021  23:23:00      -96.658       12.263      -12.947       35.376       22.819       16.574     1251.434      520.688      274.712        0.585        0.102       97.433        7.396        0.006      333.378        2.653      862.529
12/07/2021  23:24:00     -104.184       11.053      -10.126       38.875       30.596       17.217     1511.259      936.098      296.431        0.691        0.137      104.769        8.396        0.006      333.331        2.577      862.553
12/07/2021  23:25:00     -161.352       56.228      -10.127       24.857       22.948       17.334      617.855      526.589      300.462        1.537        0.072      170.869       12.773        0.006      333.281        2.495      862.560
12/07/2021  23:26:00      -89.745        9.518       -0.372       51.174       32.298       25.608     2618.823     1043.189      655.775        0.623        0.216       90.249       19.918        0.049      333.308        2.539      862.561
12/07/2021  23:27:00        2.191      -10.542       -4.110       35.980       45.320       29.317     1294.585     2053.919      859.503        0.217        0.210       10.767       16.672        2.398      333.260        2.460      862.543
12/07/2021  23:28:00      -66.754       27.048       -4.321       48.127       28.132       20.487     2316.229      791.405      419.718        0.437        0.176       72.025       12.817        0.032      333.231        2.411      862.495
12/07/2021  23:29:00      -58.698       18.309       -0.613       31.995       24.938       20.398     1023.674      621.916      416.067        0.292        0.103       61.487       20.266        0.109      333.204        2.366      862.445
12/07/2021  23:30:00      -44.204      -15.779       -4.133       30.562       19.381       17.118      934.062      375.630      293.030        0.191        0.080       46.935        7.984        0.029      333.420        2.724      862.407
12/07/2021  23:31:00      -31.949      -18.484       -8.076       20.254       15.014       10.265      410.227      225.408      105.374        0.108        0.037       36.911        5.129        0.019      333.502        2.858      862.388
12/07/2021  23:32:00      -41.775       20.334      -11.553       21.125       36.759       21.540      446.278     1351.197      463.950        0.228        0.113       46.461       13.834        0.089      333.457        2.786      862.353
12/07/2021  23:33:00      -72.982       -8.254       -3.405       48.325       26.179       22.072     2335.264      685.357      487.175        0.446        0.175       73.448       21.134        0.083      333.349        2.608      862.323
12/07/2021  23:34:00      -49.448       -4.365       -8.472       31.183       24.304       17.996      972.365      590.693      323.868        0.221        0.094       49.641       15.310        0.095      333.327        2.570      862.317
12/07/2021  23:35:00      -74.013       14.039      -11.335       40.341       15.717       10.432     1627.362      247.014      108.820        0.389        0.099       75.333       12.690        0.028      333.341        2.593      862.319
12/07/2021  23:36:00      -59.513       -1.618       -5.902       43.576       25.898       19.954     1898.859      670.716      398.158        0.327        0.148       59.535       17.266        0.084      333.365        2.634      862.313
12/07/2021  23:37:00      -32.986       -5.673       -0.516       34.131       24.698       25.337     1164.928      609.996      641.988        0.177        0.121       33.470       12.851        0.147      333.314        2.549      862.301
12/07/2021  23:38:00       -8.971       -7.306        1.229       30.053       15.836       14.148      903.153      250.786      200.173        0.074        0.068       11.570       11.927        1.063      333.333        2.581      862.287
12/07/2021  23:39:00      -37.070        6.410       -8.570       21.161       20.178       15.430      447.785      407.132      238.072        0.129        0.055       37.620       12.382        0.108      333.267        2.470      862.277
12/07/2021  23:40:00      -37.834       -1.853       -6.025       32.207       24.401       14.265     1037.288      595.430      203.494        0.165        0.092       37.879        8.759        0.053      333.350        2.608      862.257
12/07/2021  23:41:00      -53.189       -9.024       -4.258       48.351       30.242       19.039     2337.830      914.580      362.489        0.327        0.181       53.949       18.104        0.113      333.334        2.582      862.245
12/07/2021  23:42:00      -24.185       -7.787        1.510       45.024       27.136       25.528     2027.141      736.348      651.697        0.203        0.171       25.408       22.348        0.774      333.276        2.486      862.231
12/07/2021  23:43:00      -59.779        1.564       -1.804       44.543       26.720       24.920     1984.096      713.977      621.029        0.345        0.166       59.800       20.883        0.122      333.284        2.499      862.214
12/07/2021  23:44:00     -117.857       -6.673       -4.293       45.008       36.257       23.662     2025.682     1314.578      559.881        0.893        0.195      118.046       24.354        0.043      333.263        2.465      862.198
12/07/2021  23:45:00     -103.907       -9.871      -13.995       40.540       23.649       19.773     1643.470      559.276      390.974        0.684        0.130      104.375       12.592        0.015      333.321        2.562      862.166
12/07/2021  23:46:00      -93.131        2.240       -8.493       58.286       30.655       18.828     3397.226      939.729      354.512        0.672        0.235       93.158       13.696        0.022      333.355        2.618      862.124
12/07/2021  23:47:00      -43.462       -3.248       -0.148       41.313       25.595       20.995     1706.796      655.118      440.779        0.235        0.140       43.584        9.371        0.046      333.459        2.786      862.085
12/07/2021  23:48:00      -60.166       -5.416        2.319       54.555       39.394       24.776     2976.257     1551.916      613.839        0.440        0.257       60.409       21.846        0.131      333.401        2.692      862.061
12/07/2021  23:49:00      -60.553      -10.789       -3.041       44.414       37.936       30.484     1972.562     1439.126      929.276        0.407        0.217       61.506       19.139        0.097      333.314        2.548      862.048
12/07/2021  23:50:00     -115.753      -18.565        1.045       55.286       33.703       27.774     3056.523     1135.909      771.409        0.935        0.248      117.232       28.215        0.058      333.250        2.442      862.034
12/07/2021  23:51:00      -63.211        5.166       -7.950       41.585       29.152       23.350     1729.284      849.820      545.218        0.360        0.156       63.421       18.426        0.084      333.247        2.436      862.028
12/07/2021  23:52:00     -103.445       11.877       -9.873       37.216       32.922       23.442     1385.060     1083.859      549.525        0.698        0.151      104.125       16.118        0.024      333.256        2.452      862.034
12/07/2021  23:53:00      -47.378       -2.731       -2.797       39.613       36.926       27.268     1569.207     1363.524      743.539        0.297        0.184       47.457       21.792        0.211      333.178        2.323      862.039
12/07/2021  23:54:00     -119.963       22.208       -5.919       54.429       35.923       31.480     2962.559     1290.486      991.007        1.008        0.262      122.001       30.363        0.062      333.048        2.109      862.038
12/07/2021  23:55:00     -139.094        5.541       -6.321       65.151       47.829       34.650     4244.668     2287.647     1200.618        1.357        0.387      139.205       29.703        0.046      332.956        1.956      862.029
12/07/2021  23:56:00      -96.942        3.126       -2.333       68.778       36.523       23.781     4730.465     1333.950      565.554        0.802        0.331       96.992       25.999        0.072      332.943        1.934      862.019
12/07/2021  23:57:00     -118.539       22.171       -8.713       30.367       25.049       18.486      922.161      627.450      341.732        0.825        0.095      120.594       11.738        0.009      332.950        1.947      861.993
12/07/2021  23:58:00      -56.679       18.558       -7.753       27.473       29.291       18.543      754.789      857.958      343.838        0.279        0.098       59.640       16.224        0.074      332.957        1.958      861.960
12/07/2021  23:59:00      -56.463       45.398      -10.703       13.750       11.283       10.964      189.057      127.300      120.203        0.290        0.022       72.450        2.891        0.002      332.972        1.982      861.920
12/08/2021  00:00:00      -41.072       35.619       -5.112       12.129       13.859       11.381      147.101      192.084      129.523        0.173        0.023       54.365        7.783        0.020      333.018        2.060      861.892
12/08/2021  00:01:00      -37.757        9.722       -5.353       26.745       17.403       17.862      715.279      302.880      319.036        0.144        0.067       38.989       11.430        0.086      333.028        2.076      861.883
12/08/2021  00:02:00      -11.166        3.236       -5.232       24.091       21.219       16.800      580.399      450.236      282.225        0.074        0.066       11.625       11.475        0.974      333.106        2.206      861.890
12/08/2021  00:03:00        7.348      -10.181       -5.380       23.546       17.105       18.351      554.419      292.579      336.754        0.068        0.059       12.556       12.256        0.953      333.140        2.260      861.893
12/08/2021  00:04:00       -8.873       -0.800       -1.025       26.132       23.815       18.539      682.905      567.137      343.679        0.084        0.080        8.909       13.784        2.394      333.101        2.197      861.889
12/08/2021  00:05:00      -11.741       17.203        2.514       34.105       22.194       20.324     1163.131      492.565      413.072        0.125        0.103       20.828       16.656        0.640      333.049        2.111      861.885
12/08/2021  00:06:00      -50.697       16.955       -1.812       33.864       13.867       14.735     1146.804      192.289      217.129        0.221        0.078       53.457       15.141        0.080      332.943        1.935      861.882
12/08/2021  00:07:00      -52.442       14.107      -15.791       22.024       21.902       12.536      485.051      479.695      157.148        0.216        0.056       54.306        5.844        0.012      333.044        2.102      861.884
12/08/2021  00:08:00      -56.512       18.632      -13.168       48.885       25.629       15.297     2389.746      656.868      234.009        0.350        0.164       59.504        9.024        0.023      333.009        2.044      861.900
12/08/2021  00:09:00      -55.540        2.444       -7.481       42.237       24.649       20.774     1783.950      607.575      431.578        0.298        0.141       55.593       15.579        0.079      332.984        2.002      861.900
12/08/2021  00:10:00      -93.726       20.070       -5.872       32.805       23.312       17.327     1076.136      543.458      300.218        0.557        0.096       95.851       12.890        0.018      332.970        1.979      861.879
12/08/2021  00:11:00      -71.636       13.734       -3.721       26.885       24.603       15.241      722.780      605.316      232.277        0.345        0.078       72.941       14.920        0.042      333.013        2.050      861.832
12/08/2021  00:12:00      -43.992      -27.083       -7.074       34.754       16.897       12.380     1207.850      285.521      153.260        0.218        0.082       51.660        6.155        0.014      333.108        2.210      861.768
12/08/2021  00:13:00      -96.311      -16.252      -13.656       39.265       19.256       18.490     1541.751      370.788      341.891        0.599        0.113       97.673       14.832        0.023      333.097        2.189      861.706
12/08/2021  00:14:00      -73.185      -29.740      -15.044       24.029       31.731       18.990      577.416     1006.848      360.635        0.421        0.097       78.997       13.567        0.029      333.170        2.311      861.645
12/08/2021  00:15:00      -49.600      -30.621       -8.976       35.618       46.551       27.500     1268.636     2166.951      756.244        0.383        0.210       58.290       20.328        0.122      333.135        2.252      861.592
12/08/2021  00:16:00     -155.399     -117.042      -19.404       50.880       44.179       28.589     2588.735     1951.781      817.324        2.179        0.268      194.544       24.976        0.016      333.008        2.040      861.567
12/08/2021  00:17:00     -107.035      -72.938      -26.708       44.814       64.349       39.198     2008.327     4140.741     1536.477        1.259        0.384      129.524       28.184        0.047      333.021        2.064      861.550
12/08/2021  00:18:00     -102.297        0.461      -11.851       45.856       50.017       25.393     2102.728     2501.682      644.783        0.793        0.262      102.298       16.762        0.027      333.023        2.069      861.542
12/08/2021  00:19:00     -103.032      -20.546      -12.489       41.921       53.687       24.907     1757.349     2882.313      620.347        0.823        0.263      105.060       18.384        0.031      332.996        2.022      861.542
12/08/2021  00:20:00     -110.204        0.299        0.095       44.849       35.265       29.258     2011.403     1243.602      856.037        0.813        0.206      110.204       27.923        0.064      333.008        2.044      861.537
12/08/2021  00:21:00      -40.708      -18.252       -5.375       52.923       31.291       26.183     2800.880      979.119      685.549        0.324        0.223       44.613       25.177        0.318      332.982        2.000      861.532
12/08/2021  00:22:00      -47.923        5.042       -1.920       35.775       31.484       22.547     1279.865      991.221      508.347        0.255        0.139       48.187       19.188        0.159      332.958        1.959      861.520
12/08/2021  00:23:00      -61.602       17.836      -12.977       28.519       31.380       13.564      813.360      984.722      183.993        0.313        0.099       64.132        6.562        0.010      332.958        1.960      861.500
12/08/2021  00:24:00      -60.545        7.377       -8.319       57.724       30.330       18.024     3332.056      919.901      324.872        0.418        0.229       60.992       17.361        0.081      332.948        1.944      861.475
12/08/2021  00:25:00      -17.570      -14.245        6.241       44.724       27.358       27.832     2000.201      748.453      774.628        0.204        0.176       22.620       25.608        1.282      332.885        1.840      861.438
12/08/2021  00:26:00      -90.544       30.165       -7.448       30.742       30.901       21.079      945.081      954.883      444.333        0.575        0.117       95.436       14.257        0.022      332.789        1.681      861.418
12/08/2021  00:27:00      -76.740       24.924        0.514       55.169       39.116       26.680     3043.672     1530.067      711.806        0.590        0.264       80.686       21.225        0.069      332.742        1.604      861.408
12/08/2021  00:28:00     -108.564        7.282       -7.805       45.361       44.027       26.733     2057.596     1938.362      714.677        0.830        0.236      108.808       21.074        0.038      332.714        1.556      861.412
12/08/2021  00:29:00     -137.926       26.559       -0.023       55.129       55.920       37.468     3039.191     3127.024     1403.821        1.365        0.379      140.460       34.203        0.059      332.652        1.454      861.407
12/08/2021  00:30:00     -121.730        7.787       -8.049       56.408       31.800       24.210     3181.810     1011.236      586.105        0.986        0.239      121.979       28.086        0.053      332.659        1.465      861.398
12/08/2021  00:31:00     -121.981        6.540       -9.086       32.785       35.090       21.462     1074.876     1231.338      460.631        0.889        0.138      122.156       16.824        0.019      332.637        1.430      861.386
12/08/2021  00:32:00      -99.795       18.830        1.468       47.255       30.883       27.450     2233.008      953.754      753.496        0.713        0.197      101.556       25.035        0.061      332.639        1.433      861.362
12/08/2021  00:33:00      -16.106       -2.070       -2.712       40.335       27.131       22.992     1626.910      736.106      528.637        0.158        0.145       16.238        6.079        0.140      332.692        1.520      861.327
12/08/2021  00:34:00      -34.814       -0.416       -3.511       32.038       17.364       16.890     1026.413      301.494      285.260        0.142        0.081       34.816       19.272        0.306      332.687        1.511      861.287
12/08/2021  00:35:00      -53.889        6.883       -5.283       21.302       16.997       16.735      453.774      288.889      280.053        0.200        0.051       54.327       14.517        0.071      332.731        1.585      861.249
12/08/2021  00:36:00      -61.282       11.529       -9.937       12.551       13.086       12.509      157.537      171.234      156.473        0.224        0.024       62.357        6.649        0.011      332.757        1.628      861.215
12/08/2021  00:37:00      -72.692       18.227      -18.289       14.650       11.716       10.736      214.637      137.261      115.255        0.321        0.023       74.942        2.983        0.002      332.693        1.521      861.206
12/08/2021  00:38:00      -90.400       21.716       -8.798       21.698       16.929       16.017      470.823      286.598      256.537        0.487        0.051       92.971        9.371        0.010      332.680        1.501      861.174
12/08/2021  00:39:00     -110.748       29.430       -2.336       23.126       17.818       16.472      534.835      317.491      271.315        0.713        0.056      114.592       12.328        0.012      332.629        1.416      861.127
12/08/2021  00:40:00     -119.352       33.550       -1.020       26.951       22.790       16.108      726.369      519.386      259.477        0.844        0.075      123.978       13.478        0.012      332.603        1.373      861.139
12/08/2021  00:41:00     -105.573       30.587       -7.027       44.745       24.795       21.357     2002.130      614.801      456.103        0.760        0.154      109.914       25.057        0.052      332.652        1.453      861.145
12/08/2021  00:42:00      -64.571       24.985        1.594       46.021       26.130       23.105     2117.925      682.764      533.844        0.406        0.167       69.236       21.243        0.094      332.506        1.213      861.139
12/08/2021  00:43:00      -97.002       39.105      -11.858       42.494       35.922       26.860     1805.773     1290.412      721.449        0.745        0.191      104.588       24.867        0.057      332.501        1.203      861.142
12/08/2021  00:44:00      -75.342       15.929      -10.744       36.638       33.395       23.165     1342.349     1115.253      536.634        0.452        0.150       77.008       10.297        0.018      332.524        1.243      861.158
12/08/2021  00:45:00      -77.883       25.037       -0.529       53.110       29.024       27.386     2820.656      842.393      749.984        0.555        0.221       81.809       25.245        0.095      332.427        1.083      861.174
12/08/2021  00:46:00      -76.469       20.384      -10.942       32.113       24.017       22.800     1031.253      576.812      519.821        0.425        0.106       79.139       17.584        0.049      332.400        1.038      861.189
12/08/2021  00:47:00      -84.373       19.157      -22.127       34.117       25.702       27.097     1163.992      660.605      734.236        0.527        0.128       86.520       16.434        0.036      332.466        1.147      861.202
12/08/2021  00:48:00      -58.147       21.159      -14.948       46.409       23.224       22.446     2153.751      539.351      503.818        0.362        0.160       61.878       18.919        0.093      332.529        1.251      861.213
12/08/2021  00:49:00      -53.152       14.438      -16.154       70.686       34.543       29.454     4996.545     1193.214      867.530        0.517        0.353       55.078       29.369        0.284      332.484        1.176      861.216
12/08/2021  00:50:00       -1.533       -0.356       -4.913       23.086       32.014       19.200      532.953     1024.916      368.636        0.098        0.096        1.573       15.645       98.865      332.452        1.125      861.196
12/08/2021  00:51:00       12.299      -33.745        3.774       14.863       25.871       12.901      220.909      669.315      166.439        0.118        0.053       35.916        6.765        0.035      332.550        1.286      861.162
12/08/2021  00:52:00       -8.136      -21.403       -8.519       24.944       16.140       14.452      622.203      260.499      208.850        0.084        0.055       22.897       13.846        0.366      332.519        1.232      861.118
12/08/2021  00:53:00      -51.495      -33.174      -17.273       18.380       13.501       10.927      337.824      182.266      119.404        0.234        0.032       61.256       11.245        0.034      332.598        1.366      861.076
12/08/2021  00:54:00      -12.489       -8.486      -14.770       17.295        8.770        7.903      299.130       76.919       62.455        0.044        0.022       15.100        5.680        0.141      332.957        1.958      861.025
12/08/2021  00:55:00      -27.972       -5.388      -11.372       12.815       12.450       10.538      164.235      155.012      111.040        0.069        0.022       28.486        5.948        0.044      332.844        1.771      860.983
12/08/2021  00:56:00      -27.126      -10.364       -5.352       15.815        9.591       12.327      250.120       91.980      151.950        0.068        0.025       29.038        6.337        0.048      332.810        1.716      860.957
12/08/2021  00:57:00      -21.735       14.188       -1.963       13.987       13.483        9.877      195.632      181.792       97.554        0.058        0.024       25.956        6.822        0.069      332.804        1.705      860.948
12/08/2021  00:58:00      -12.413       -6.635       -6.658       11.903       14.327        9.791      141.686      205.276       95.859        0.034        0.022       14.075        3.191        0.051      332.816        1.728      860.954
12/08/2021  00:59:00       -3.528       -0.235       -3.844       17.444       14.910       11.028      304.296      222.294      121.620        0.034        0.032        3.536        8.565        5.866      332.729        1.581      860.970
12/08/2021  01:00:00       -4.258        7.808       -0.677        7.610        5.973        5.264       57.919       35.673       27.711        0.010        0.006        8.893        2.548        0.082      332.615        1.394      860.970
12/08/2021  01:01:00      -17.256       15.669       -8.741        6.047        6.947        6.508       36.567       48.257       42.351        0.037        0.006       23.308        4.583        0.039      332.661        1.468      860.967
12/08/2021  01:02:00      -29.944       15.102      -10.267       15.149       11.794        8.699      229.504      139.098       75.666        0.084        0.022       33.537        4.328        0.017      332.727        1.580      860.986
12/08/2021  01:03:00      -25.420        4.410       -6.526       24.413       14.038        8.106      595.974      197.078       65.702        0.078        0.043       25.800        6.876        0.071      332.693        1.522      861.016
12/08/2021  01:04:00      -39.063        4.564       -8.744       27.373       20.460       17.861      749.259      418.602      319.022        0.155        0.074       39.329       10.688        0.074      332.665        1.476      861.044
12/08/2021  01:05:00      -42.871        2.360        2.922       37.436       26.337       19.796     1401.475      693.661      391.900        0.217        0.124       42.936       19.912        0.215      332.619        1.400      861.059
12/08/2021  01:06:00      -15.893        0.194        1.065       31.053       25.597       19.863      964.294      655.200      394.533        0.113        0.101       15.894       11.149        0.492      332.466        1.146      861.062
12/08/2021  01:07:00      -56.731       15.280       -1.125       41.261       27.448       19.766     1702.481      753.369      390.703        0.315        0.142       58.753       21.209        0.130      332.445        1.112      861.062
12/08/2021  01:08:00      -46.826        3.614        0.919       55.790       27.746       20.056     3112.542      769.825      402.239        0.324        0.214       46.965       18.551        0.156      332.429        1.086      861.038
12/08/2021  01:09:00      -15.617        5.550       -0.419       18.617       21.596       19.239      346.575      466.394      370.149        0.073        0.059       16.574        8.970        0.293      332.458        1.133      861.014
12/08/2021  01:10:00      -18.830       -0.820        8.408       34.295       23.323       20.058     1176.166      543.945      402.317        0.127        0.106       18.847       18.393        0.952      332.517        1.231      860.989
12/08/2021  01:11:00      -55.023       12.967       -5.383       33.822       22.031       19.255     1143.936      485.359      370.757        0.261        0.100       56.531       13.814        0.060      332.533        1.257      860.977
12/08/2021  01:12:00      -92.809       17.826       -2.915       37.891       20.433       17.060     1435.759      417.499      291.052        0.554        0.107       94.505       19.728        0.044      332.442        1.106      860.966
12/08/2021  01:13:00      -86.009       10.432      -13.007       19.727       11.326        9.247      389.163      128.282       85.516        0.414        0.030       86.639        6.178        0.005      332.487        1.181      860.965
12/08/2021  01:14:00      -36.839        9.268       -5.396       19.545       21.341       13.523      381.988      455.444      182.860        0.125        0.051       37.987       10.388        0.075      332.533        1.259      860.989
12/08/2021  01:15:00      -86.719       32.368      -15.015       23.499       19.441       16.765      552.206      377.950      281.069        0.500        0.061       92.563       11.157        0.015      332.414        1.060      861.027
12/08/2021  01:16:00      -86.026       22.513       -8.761       34.400       20.263       21.018     1183.342      410.608      441.750        0.501        0.102       88.923       17.489        0.039      332.382        1.007      861.061
12/08/2021  01:17:00      -38.448       -0.281      -22.184       33.192       28.714       20.190     1101.738      824.480      407.629        0.215        0.117       38.449       16.536        0.185      332.351        0.955      861.094
12/08/2021  01:18:00        5.187      -14.793      -11.278       17.163       19.948       20.252      294.585      397.911      410.162        0.074        0.055       15.676        9.671        0.381      332.315        0.898      861.113
12/08/2021  01:19:00       -3.424       18.597      -18.514       23.426       27.751       18.193      548.776      770.091      330.983        0.117        0.082       18.910       11.076        0.343      332.308        0.884      861.118
12/08/2021  01:20:00      -12.890       16.120      -13.244       17.309       13.327       21.327      299.603      177.607      454.836        0.077        0.047       20.640       16.257        0.620      332.343        0.942      861.105
12/08/2021  01:21:00        8.270        3.199       -4.390        7.087        9.946       10.979       50.232       98.928      120.538        0.018        0.013        8.867        7.204        0.660      332.384        1.010      861.085
12/08/2021  01:22:00       28.788       -0.888       -7.780       16.208        9.530       11.920      262.706       90.826      142.087        0.069        0.025       28.802        8.233        0.082      332.618        1.399      861.062
12/08/2021  01:23:00       22.768        2.621       -6.668       13.013       10.358       10.352      169.345      107.283      107.171        0.048        0.019       22.919        5.623        0.060      332.572        1.322      861.034
12/08/2021  01:24:00       26.966        5.278      -11.271        8.395        6.056        6.194       70.481       36.675       38.372        0.051        0.007       27.478        2.368        0.007      332.374        0.993      861.030
12/08/2021  01:25:00       28.413       -3.578       -6.748        9.112       10.209        7.613       83.026      104.222       57.961        0.056        0.012       28.637        5.341        0.035      332.426        1.081      861.050
12/08/2021  01:26:00        5.177        0.451       -5.480       19.192       10.995       10.886      368.315      120.895      118.499        0.033        0.030        5.197        5.246        1.019      332.585        1.346      861.071
12/08/2021  01:27:00      -12.082       -7.803        1.750        8.588       10.789        8.521       73.760      116.398       72.608        0.024        0.013       14.382        4.118        0.082      332.585        1.343      861.102
12/08/2021  01:28:00      -20.486        7.101       -6.602       14.508       11.696        8.527      210.468      136.800       72.716        0.047        0.021       21.682        7.946        0.134      332.540        1.270      861.126
12/08/2021  01:29:00      -32.187       17.718       -9.448       14.893       16.261        9.874      221.816      264.406       97.492        0.101        0.029       36.742        4.920        0.018      332.475        1.162      861.145
12/08/2021  01:30:00      -16.314       15.909       -9.849        7.717       10.136        6.230       59.547      102.733       38.817        0.041        0.010       22.787        4.754        0.044      332.445        1.113      861.151
12/08/2021  01:31:00        2.636        7.738       -2.373        9.608        7.317        5.860       92.313       53.541       34.343        0.013        0.009        8.174        4.909        0.361      332.492        1.190      861.157
12/08/2021  01:32:00       25.438        3.787       -3.767       12.530       10.901        8.367      157.000      118.833       70.010        0.051        0.017       25.718        4.703        0.033      332.578        1.331      861.163
12/08/2021  01:33:00        4.222      -18.053       -9.182        8.389       12.422        9.184       70.368      154.312       84.338        0.037        0.015       18.540        4.997        0.073      332.569        1.318      861.172
12/08/2021  01:34:00        3.902      -30.514       -7.840       10.570       11.248       16.341      111.729      126.521      267.021        0.076        0.025       30.762       11.307        0.135      332.594        1.358      861.184
12/08/2021  01:35:00        8.292      -41.365      -12.719       22.552       21.337       20.937      508.585      455.270      438.360        0.167        0.070       42.188       11.558        0.075      332.608        1.382      861.187
12/08/2021  01:36:00       21.326      -50.475      -13.798       16.821       20.719       13.409      282.936      429.287      179.803        0.204        0.045       54.795        5.132        0.009      332.677        1.495      861.200
12/08/2021  01:37:00      -12.714       -6.684      -13.966       12.405       17.195        7.371      153.888      295.671       54.338        0.045        0.025       14.364        3.294        0.053      332.608        1.382      861.228
12/08/2021  01:38:00      -34.265        8.053       -5.753       32.731       20.440       15.291     1071.319      417.791      233.820        0.150        0.086       35.199       13.736        0.152      332.435        1.095      861.249
12/08/2021  01:39:00      -48.320       10.326       -4.496       17.944       17.982       13.515      322.004      323.367      182.660        0.164        0.041       49.411        4.689        0.009      332.430        1.086      861.259
12/08/2021  01:40:00      -10.005       -8.968      -10.232       12.796       17.173       12.473      163.739      294.899      155.569        0.045        0.031       13.436       10.473        0.608      332.563        1.307      861.262
12/08/2021  01:41:00       -4.951      -16.737       -3.643        9.137       11.838        9.491       83.486      140.143       90.079        0.032        0.016       17.454        3.695        0.045      332.624        1.410      861.258
12/08/2021  01:42:00       -4.244       13.488       -6.269       11.734       10.671        9.201      137.694      113.875       84.666        0.029        0.017       14.140        1.807        0.016      332.507        1.213      861.248
12/08/2021  01:43:00        2.950       34.897       -8.713       14.963       13.216        9.817      223.902      174.662       96.376        0.090        0.025       35.022        6.625        0.036      332.485        1.177      861.250
12/08/2021  01:44:00       -5.466       49.704      -10.700       11.406       18.004       10.707      130.106      324.129      114.642        0.159        0.028       50.004        6.856        0.019      332.470        1.152      861.280
12/08/2021  01:45:00      -17.194       49.159       -5.775       14.134       15.119        7.438      199.772      228.584       55.321        0.161        0.024       52.080        6.773        0.017      332.541        1.271      861.328
12/08/2021  01:46:00      -27.776       39.891       -7.506       11.022        9.823        8.648      121.485       96.496       74.792        0.136        0.015       48.609        4.563        0.009      332.533        1.258      861.358
12/08/2021  01:47:00      -39.261       39.061       -4.915       12.932       12.421        7.355      167.231      154.293       54.090        0.173        0.019       55.382        5.967        0.012      332.517        1.231      861.382
12/08/2021  01:48:00      -25.195       46.999       -6.273       21.885       19.338       11.862      478.970      373.953      140.702        0.194        0.050       53.326        9.723        0.033      332.457        1.133      861.393
12/08/2021  01:49:00      -11.545       63.004       -0.323       20.619       22.318       12.426      425.132      498.073      154.412        0.259        0.054       64.054       10.365        0.026      332.478        1.165      861.398
12/08/2021  01:50:00       -9.007       92.303       -4.878       18.910       21.308       15.191      357.599      454.048      230.773        0.483        0.052       92.742       12.283        0.018      332.486        1.179      861.374
12/08/2021  01:51:00        3.923       66.424      -10.896       21.380       16.485       12.963      457.087      271.764      168.041        0.272        0.045       66.540        7.114        0.011      332.524        1.242      861.329
12/08/2021  01:52:00        4.050       20.876       -6.166       19.279       15.904        6.785      371.688      252.949       46.036        0.058        0.034       21.265        6.583        0.096      332.554        1.293      861.278
12/08/2021  01:53:00      -27.516       -1.909      -13.080       19.895       10.205       16.209      395.798      104.142      262.745        0.085        0.038       27.582       13.369        0.235      332.497        1.198      861.253
12/08/2021  01:54:00      -13.869        0.840       -0.354       18.971       15.006       16.600      359.887      225.178      275.564        0.053        0.043       13.895       14.218        1.047      332.336        0.933      861.244
12/08/2021  01:55:00      -18.870       -9.457       -7.610       18.127       10.452        8.278      328.598      109.248       68.525        0.050        0.025       21.107        9.915        0.221      332.416        1.063      861.229
12/08/2021  01:56:00       10.771      -12.723       -6.671        5.055        6.101        7.850       25.548       37.219       61.616        0.022        0.006       16.670        3.645        0.048      332.617        1.396      861.194
12/08/2021  01:57:00       17.553       -6.649       -5.273       15.133       18.415       14.785      229.023      339.110      218.606        0.058        0.039       18.771        7.237        0.149      332.756        1.626      861.153
12/08/2021  01:58:00       18.825      -49.488      -15.719       21.411       46.533       15.923      458.432     2165.321      253.544        0.296        0.144       52.947       17.247        0.106      332.753        1.621      861.116
12/08/2021  01:59:00       34.720      -78.591      -13.070       22.007       25.433       21.249      484.289      646.860      451.506        0.457        0.079       85.918       17.388        0.041      333.031        2.082      861.091
12/08/2021  02:00:00       19.150      -67.747        2.012       23.642       29.389       19.677      558.930      863.741      387.186        0.338        0.090       70.402       18.949        0.072      332.950        1.947      861.059
12/08/2021  02:01:00      -15.191      -38.881      -15.655       27.160       33.843       16.540      737.639     1145.381      273.575        0.207        0.108       41.743       19.690        0.222      332.730        1.583      861.042
12/08/2021  02:02:00      -30.136       14.117       -7.302       15.191       19.660        6.135      230.774      386.535       37.634        0.091        0.033       33.279        5.083        0.023      332.576        1.327      861.045
12/08/2021  02:03:00      -21.206       20.201       -7.645        8.610        6.839        5.614       74.127       46.766       31.513        0.053        0.008       29.288        4.683        0.026      332.604        1.375      861.061
12/08/2021  02:04:00        0.719       31.699       -5.360       12.396        6.676        5.494      153.666       44.563       30.188        0.063        0.011       31.707        2.550        0.006      332.693        1.523      861.068
12/08/2021  02:05:00       14.433       16.669        1.164       18.232       11.639        6.467      332.413      135.472       41.821        0.050        0.025       22.049        4.956        0.051      332.617        1.395      861.067
12/08/2021  02:06:00      -13.494        5.078       -7.272       12.083       11.255        8.967      145.996      126.674       80.416        0.031        0.018       14.418        5.210        0.131      332.637        1.429      861.090
12/08/2021  02:07:00      -22.958       -3.238       -6.337       19.591       14.490       13.081      383.795      209.964      171.105        0.067        0.038       23.185       11.500        0.246      332.674        1.490      861.123
12/08/2021  02:08:00      -47.323       17.194      -13.333       22.711       20.879       10.145      515.784      435.914      102.922        0.188        0.053       50.349        8.375        0.028      332.558        1.299      861.151
12/08/2021  02:09:00      -99.284       33.805      -19.048       31.194       17.946       21.955      973.080      322.072      482.019        0.657        0.089      104.881       19.781        0.036      332.480        1.169      861.188
12/08/2021  02:10:00      -89.247       34.159      -14.719       46.297       31.648       27.160     2143.376     1001.591      737.675        0.661        0.194       95.561       13.758        0.021      332.361        0.973      861.235
12/08/2021  02:11:00      -65.302       31.591      -28.126       45.088       43.656       22.485     2032.957     1905.859      505.571        0.525        0.222       72.542        8.414        0.013      332.361        0.973      861.250
12/08/2021  02:12:00       -6.959        5.621       -9.079       24.897       11.220       21.513      619.862      125.890      462.828        0.069        0.060        8.945       13.516        2.283      332.276        0.832      861.229
12/08/2021  02:13:00      -82.454       31.032      -18.712       23.921       23.624       18.840      572.220      558.106      354.962        0.480        0.074       88.100        5.046        0.003      332.344        0.945      861.209
12/08/2021  02:14:00      -88.523       44.196      -25.549       28.483       23.937       17.334      811.285      572.983      300.474        0.606        0.084       98.943        5.895        0.004      332.376        0.999      861.208
12/08/2021  02:15:00      -16.118       25.114       -8.891       33.251       19.513       13.526     1105.638      380.744      182.962        0.132        0.083       29.842       10.235        0.118      332.451        1.122      861.202
12/08/2021  02:16:00        5.384       40.839       -2.394       17.095       27.952       17.103      292.223      781.341      292.497        0.153        0.068       41.193       16.845        0.167      332.529        1.251      861.196
12/08/2021  02:17:00       16.960       40.934       -7.508       13.251       28.941       11.422      175.602      837.557      130.465        0.158        0.057       44.308       12.321        0.077      332.509        1.218      861.215
12/08/2021  02:18:00        7.091       39.789       -6.222       21.133       19.238       17.118      446.620      370.102      293.022        0.139        0.055       40.416        6.325        0.024      332.576        1.329      861.223
12/08/2021  02:19:00       59.229       15.535       -7.204       16.689       11.652        9.961      278.514      135.774       99.215        0.216        0.026       61.232        5.862        0.009      332.642        1.438      861.206
12/08/2021  02:20:00       72.480       13.096      -11.107        7.808        7.404        8.046       60.962       54.817       64.736        0.286        0.009       73.653        5.823        0.006      332.664        1.475      861.176
12/08/2021  02:21:00       78.287       26.096       -6.147        7.932        9.569        4.696       62.924       91.558       22.057        0.351        0.009       82.522        3.082        0.001      332.567        1.314      861.151
12/08/2021  02:22:00       66.588       16.841      -12.254       20.654       29.404       10.424      426.599      864.614      108.665        0.313        0.070       68.684       12.289        0.032      332.566        1.312      861.127
12/08/2021  02:23:00       85.404       27.015      -20.233       30.354       32.489       22.461      921.353     1055.535      504.513        0.546        0.124       89.575        9.070        0.010      332.789        1.680      861.102
12/08/2021  02:24:00      109.198       38.041      -13.810       15.233       22.664       13.046      232.039      513.671      170.195        0.724        0.046      115.634        7.616        0.004      332.787        1.676      861.084
12/08/2021  02:25:00      112.664        4.745       -7.270       19.243       13.034       13.841      370.307      169.875      191.562        0.675        0.037      112.764       11.887        0.011      332.715        1.557      861.082
12/08/2021  02:26:00       95.312       18.599       -4.902        9.586        8.764        9.875       91.895       76.799       97.519        0.486        0.013       97.109        4.999        0.003      332.627        1.415      861.092
12/08/2021  02:27:00       87.486       19.538      -10.844       17.734       16.903        9.239      314.491      285.705       85.361        0.442        0.034       89.641        6.025        0.005      332.633        1.423      861.102
12/08/2021  02:28:00       50.583       31.160      -19.440       39.321       25.695       17.624     1546.110      660.218      310.616        0.321        0.126       59.410       16.682        0.079      332.744        1.607      861.090
12/08/2021  02:29:00        1.137      -56.675        1.103       33.096       33.032       19.371     1095.315     1091.115      375.236        0.289        0.128       56.687        9.154        0.026      332.903        1.869      861.097
12/08/2021  02:30:00       31.545      -46.883      -13.529       28.518       31.448       14.519      813.262      989.000      210.794        0.269        0.101       56.507        8.660        0.023      332.925        1.905      861.094
12/08/2021  02:31:00       14.830        1.083      -10.189       22.448       28.637       15.869      503.909      820.082      251.826        0.095        0.079       14.870        8.461        0.324      332.787        1.677      861.081
12/08/2021  02:32:00       -9.288       12.001      -17.961       13.640       13.132       13.912      186.062      172.463      193.538        0.055        0.028       15.175        7.763        0.262      332.749        1.613      861.053
12/08/2021  02:33:00      -13.964       16.921       -5.673       11.487        7.501        7.500      131.946       56.262       56.247        0.038        0.012       21.938        6.521        0.088      332.669        1.480      861.022
12/08/2021  02:34:00      -33.449       14.939      -14.503       15.738       13.009       11.587      247.679      169.245      134.251        0.105        0.028       36.633        8.670        0.056      332.662        1.471      861.016
12/08/2021  02:35:00      -13.279        2.147      -10.724       14.787       15.415       11.467      218.653      237.626      131.489        0.044        0.029       13.452        4.564        0.115      332.591        1.354      861.017
12/08/2021  02:36:00        7.686      -27.988       -7.669       10.307       13.922       11.614      106.237      193.834      134.880        0.067        0.022       29.024        7.302        0.063      332.667        1.479      861.016
12/08/2021  02:37:00        8.580      -22.973       -7.195       16.290       17.152       17.018      265.366      294.203      289.612        0.075        0.042       24.523       14.078        0.330      332.741        1.602      860.994
12/08/2021  02:38:00        0.634       11.683       -8.052        7.394       10.615        8.468       54.664      112.689       71.707        0.022        0.012       11.700        4.186        0.128      332.670        1.482      860.936
12/08/2021  02:39:00       33.043       24.151       -7.371       19.202       13.380        9.217      368.709      179.011       84.951        0.118        0.032       40.928        2.584        0.004      332.651        1.454      860.869
12/08/2021  02:40:00       40.195       26.120      -12.312       14.435       18.743        8.116      208.369      351.306       65.875        0.154        0.031       47.936        2.964        0.004      332.607        1.380      860.798
12/08/2021  02:41:00       20.492       -7.744      -11.679       19.081       37.075       16.974      364.076     1374.537      288.113        0.132        0.101       21.906        9.268        0.179      332.659        1.465      860.732
12/08/2021  02:42:00       30.336      -91.939      -18.003       37.083       47.869       30.707     1375.178     2291.474      942.909        0.715        0.230       96.814       25.219        0.068      332.787        1.677      860.635
12/08/2021  02:43:00       53.784     -138.587      -25.162       43.456       55.321       25.774     1888.412     3060.362      664.304        1.417        0.281      148.658       26.985        0.033      332.748        1.612      860.569
12/08/2021  02:44:00       63.724     -152.921      -21.568       34.515       50.283       17.475     1191.277     2528.384      305.384        1.597        0.201      165.667       20.722        0.016      332.775        1.656      860.544
12/08/2021  02:45:00       40.069      -59.396      -23.192       53.575       39.798       25.979     2870.244     1583.916      674.928        0.540        0.256       71.648       24.664        0.119      332.811        1.716      860.571
12/08/2021  02:46:00       38.913      -46.909      -24.174       32.203       45.286       25.561     1037.064     2050.806      653.376        0.402        0.187       60.948       13.430        0.049      332.971        1.982      860.616
12/08/2021  02:47:00       37.473       -8.032      -11.402       37.797       49.086       34.587     1428.595     2409.434     1196.257        0.332        0.252       38.324       24.541        0.410      332.814        1.721      860.667
12/08/2021  02:48:00      -23.494      -11.842       -8.061       22.118       20.426       17.990      489.206      417.235      323.648        0.099        0.062       26.310       16.315        0.385      332.651        1.453      860.724
12/08/2021  02:49:00      -22.342       -1.804       -8.435       19.283       17.528       10.802      371.831      307.219      116.673        0.068        0.040       22.415        7.056        0.099      332.640        1.434      860.771
12/08/2021  02:50:00      -66.003       35.805      -17.287       21.765       15.003       12.123      473.694      225.077      146.978        0.339        0.042       75.090       10.957        0.021      332.555        1.294      860.826
12/08/2021  02:51:00      -56.882       28.867      -10.083       23.168       18.119       13.311      536.748      328.287      177.189        0.261        0.052       63.788       10.187        0.026      332.564        1.310      860.843
12/08/2021  02:52:00       -5.062       -1.980       -4.424       11.135       12.322        9.142      123.995      151.828       83.570        0.020        0.018        5.435        4.393        0.653      332.584        1.341      860.802
12/08/2021  02:53:00      -11.554        4.775       -6.792       17.770       17.254       10.391      315.783      297.689      107.969        0.046        0.036       12.501        6.187        0.245      332.711        1.551      860.767
12/08/2021  02:54:00      -46.611       25.091      -14.744       14.487       14.518       14.119      209.872      210.778      199.357        0.182        0.031       52.936        6.541        0.015      332.618        1.400      860.765
12/08/2021  02:55:00      -56.311       25.359      -11.502       25.513       15.849       13.684      650.934      251.187      187.255        0.252        0.054       61.757        7.996        0.017      332.513        1.224      860.764
12/08/2021  02:56:00      -78.541       39.080      -15.778       19.801       16.795       12.080      392.069      282.077      145.932        0.438        0.041       87.726        8.093        0.009      332.503        1.209      860.771
12/08/2021  02:57:00      -32.389       28.465      -11.110       17.952       11.471        8.861      322.278      131.580       78.520        0.126        0.027       43.120        5.712        0.018      332.477        1.164      860.767
12/08/2021  02:58:00      -17.487        9.826       -7.959       12.246        6.074        6.315      149.967       36.893       39.885        0.035        0.011       20.058        3.109        0.024      332.623        1.407      860.766
12/08/2021  02:59:00      -27.270        5.578      -15.943       28.163       22.787       11.960      793.156      519.270      143.032        0.124        0.073       27.835        9.677        0.121      332.637        1.431      860.798
12/08/2021  03:00:00      -53.617        7.339      -13.558       31.723       25.458       16.378     1006.325      648.112      268.251        0.252        0.096       54.117        9.067        0.028      332.529        1.251      860.817
12/08/2021  03:01:00      -23.749       12.411       -5.014       12.557       11.813       12.186      157.668      139.539      148.496        0.059        0.022       26.796        8.867        0.110      332.510        1.218      860.796
12/08/2021  03:02:00       10.026       30.028       -5.678       19.724       15.349       11.228      389.048      235.578      126.066        0.089        0.038       31.658        9.319        0.087      332.541        1.271      860.798
12/08/2021  03:03:00      -37.729       30.216      -11.307       23.791       16.403       13.232      566.006      269.050      175.088        0.174        0.051       48.337       12.855        0.071      332.560        1.302      860.806
12/08/2021  03:04:00      -23.520       12.726      -14.309       27.436       15.457       10.693      752.714      238.903      114.344        0.101        0.055       26.742        6.190        0.054      332.530        1.252      860.808
12/08/2021  03:05:00       27.916       14.022       -7.153       17.657        8.832        6.488      311.758       78.003       42.099        0.073        0.022       31.240        2.741        0.008      332.520        1.236      860.786
12/08/2021  03:06:00       42.507       31.625       -4.923       14.191       14.107        6.764      201.382      199.020       45.749        0.164        0.022       52.981        6.935        0.017      332.563        1.307      860.774
12/08/2021  03:07:00       60.660       40.414       -5.759       12.769       13.885       10.010      163.036      192.788      100.198        0.290        0.023       72.890        8.710        0.014      332.638        1.432      860.755
12/08/2021  03:08:00       50.151        9.673       -9.111       41.092       25.013       13.858     1688.520      625.653      192.030        0.260        0.125       51.076       13.783        0.073      332.675        1.491      860.686
12/08/2021  03:09:00      -27.349      -17.766      -15.419       30.616       19.060       20.494      937.334      363.289      420.022        0.151        0.086       32.613       10.439        0.102      332.665        1.476      860.647
12/08/2021  03:10:00        5.775      -23.216      -21.463       13.709       18.059       20.179      187.938      326.144      407.209        0.098        0.046       23.923       13.512        0.319      332.737        1.596      860.614
12/08/2021  03:11:00       -2.249      -22.305       -4.217       14.044       18.400       15.274      197.233      338.547      233.294        0.064        0.038       22.418        9.217        0.169      332.929        1.911      860.575
12/08/2021  03:12:00      -19.464        6.748      -11.628       10.391       17.684        6.776      107.968      312.710       45.918        0.051        0.023       20.601        3.440        0.028      332.717        1.562      860.574
12/08/2021  03:13:00      -20.823      -10.318       -6.808       19.518       11.368        8.717      380.949      129.223       75.989        0.059        0.029       23.239        8.911        0.147      332.714        1.556      860.600
12/08/2021  03:14:00       47.761      -37.936      -13.705       47.942       31.488       23.805     2298.442      991.476      566.659        0.388        0.193       60.994       28.527        0.219      332.948        1.944      860.588
12/08/2021  03:15:00       43.111      -55.695      -31.510       39.870       40.022       25.225     1589.597     1601.758      636.307        0.489        0.191       70.430       15.411        0.048      332.988        2.009      860.601
12/08/2021  03:16:00      -43.404       20.880      -26.252       34.609       40.297       12.780     1197.763     1623.839      163.321        0.300        0.149       48.165        9.427        0.038      332.836        1.757      860.683
12/08/2021  03:17:00      -72.545       35.859      -15.548       28.850       25.091       17.136      832.304      629.557      293.650        0.427        0.088       80.924       14.025        0.030      332.535        1.261      860.747
12/08/2021  03:18:00      -65.217       37.297       -7.238       30.130       18.436       14.713      907.797      339.889      216.462        0.358        0.073       75.128       11.163        0.022      332.563        1.307      860.760
12/08/2021  03:19:00      -22.534       40.362      -11.930       23.497       15.522        9.848      552.112      240.921       96.981        0.158        0.045       46.226        5.624        0.015      332.669        1.482      860.737
12/08/2021  03:20:00       -2.637       -0.093       -6.350        8.692       10.396        5.904       75.549      108.072       34.857        0.013        0.011        2.639        4.422        2.809      332.785        1.676      860.700
12/08/2021  03:21:00       -3.169       -6.485       -5.152       13.797       13.970        9.955      190.353      195.156       99.103        0.028        0.024        7.218        7.789        1.164      332.899        1.863      860.689
12/08/2021  03:22:00      -15.484      -15.675        3.620       25.786       25.619       18.716      664.913      656.345      350.282        0.108        0.084       22.034       14.411        0.428      332.851        1.786      860.717
12/08/2021  03:23:00      -74.021       12.090       -8.718       34.327       26.546       19.757     1178.361      704.668      390.336        0.399        0.114       75.002       12.962        0.030      332.846        1.774      860.721
12/08/2021  03:24:00      -22.944       11.951      -13.496       22.376       11.070       10.686      500.670      122.535      114.197        0.079        0.037       25.871        6.519        0.064      332.932        1.917      860.693
12/08/2021  03:25:00       14.527       38.894       -7.035       22.511       21.374       14.898      506.762      456.831      221.964        0.148        0.059       41.519       11.486        0.077      332.835        1.756      860.624
12/08/2021  03:26:00        6.290        5.492        4.838       24.148       18.635       21.958      583.110      347.277      482.139        0.075        0.071        8.350       14.245        2.910      332.853        1.788      860.614
12/08/2021  03:27:00      -29.227       16.637       -6.744       33.124       26.797       18.144     1097.228      718.086      329.196        0.166        0.107       33.630       11.801        0.123      332.825        1.742      860.665
12/08/2021  03:28:00      -75.665       34.481      -15.640       22.749       32.045       16.492      517.501     1026.873      271.997        0.449        0.091       83.151        7.725        0.009      332.520        1.237      860.695
12/08/2021  03:29:00      -59.625       64.403      -11.047       16.769       16.824       11.807      281.185      283.061      139.410        0.426        0.035       87.766        5.411        0.004      332.485        1.177      860.722
12/08/2021  03:30:00      -52.074       45.477      -12.620       22.051       21.999       11.644      486.259      483.956      135.586        0.302        0.055       69.137        7.312        0.011      332.503        1.210      860.732
12/08/2021  03:31:00      -74.606       29.605      -18.001       25.263       19.502       20.005      638.237      380.331      400.219        0.409        0.071       80.266       11.142        0.019      332.569        1.318      860.758
12/08/2021  03:32:00      -48.158       13.616      -13.712       39.954       24.033       19.982     1596.335      577.567      399.271        0.263        0.129       50.046       14.559        0.085      332.468        1.150      860.769
12/08/2021  03:33:00     -105.347       70.068      -16.011       23.269       30.262       16.495      541.435      915.794      272.094        0.900        0.086      126.520       13.565        0.011      332.406        1.047      860.766
12/08/2021  03:34:00      -94.642       81.642      -16.694       28.947       31.553       19.651      837.915      995.605      386.163        0.906        0.111      124.990       16.804        0.018      332.418        1.067      860.736
12/08/2021  03:35:00      -84.019       56.859      -25.838       28.571       28.042       21.236      816.289      786.343      450.960        0.651        0.103      101.450       16.320        0.026      332.411        1.056      860.741
12/08/2021  03:36:00      -95.822       42.754      -37.186       42.315       39.432       24.878     1790.556     1554.875      618.934        0.818        0.198      104.927       17.260        0.027      332.474        1.159      860.757
12/08/2021  03:37:00     -112.749       43.183      -22.755       49.627       53.776       32.976     2462.835     2891.874     1087.389        1.077        0.322      120.736       24.325        0.041      332.431        1.088      860.779
12/08/2021  03:38:00      -23.518       29.897       -1.444       69.405       47.328       43.281     4817.014     2239.986     1873.285        0.519        0.447       38.038       41.529        1.192      332.387        1.015      860.815
12/08/2021  03:39:00     -163.508       63.346      -31.810       77.772       53.624       39.297     6048.450     2875.518     1544.268        2.111        0.523      175.349       34.467        0.039      332.240        0.773      860.813
12/08/2021  03:40:00     -167.581       70.804      -14.551       82.383       40.631       40.842     6786.970     1650.881     1668.088        2.171        0.505      181.925       35.872        0.039      332.225        0.746      860.773
12/08/2021  03:41:00     -115.020       78.279      -15.480       43.151       27.536       24.732     1862.013      758.221      611.661        1.141        0.162      139.130       14.043        0.010      332.438        1.099      860.718
12/08/2021  03:42:00      -89.426       44.496      -21.902       37.104       34.553       20.010     1376.716     1193.878      400.386        0.671        0.149       99.885       13.640        0.019      332.584        1.343      860.686
12/08/2021  03:43:00     -114.532       37.693      -15.157       48.261       38.379       30.274     2329.115     1472.979      916.527        0.974        0.236      120.575       16.281        0.018      332.489        1.185      860.719
12/08/2021  03:44:00      -77.784       13.232      -11.674       62.144       43.772       35.845     3861.833     1915.970     1284.833        0.671        0.353       78.902       29.726        0.142      332.430        1.087      860.757
12/08/2021  03:45:00      -33.758       32.891      -23.041       44.844       44.095       36.634     2010.985     1944.390     1342.056        0.402        0.265       47.132       16.831        0.128      332.421        1.073      860.768
12/08/2021  03:46:00     -111.357       23.916      -18.510       45.292       44.183       24.612     2051.335     1952.104      605.742        0.896        0.230      113.896        9.353        0.007      332.511        1.220      860.777
12/08/2021  03:47:00     -127.142       56.964      -17.842       49.653       35.421       25.996     2465.378     1254.640      675.786        1.206        0.220      139.320       28.704        0.042      332.438        1.102      860.769
12/08/2021  03:48:00     -111.316       61.402      -12.572       38.554       30.851       18.893     1486.382      951.782      356.949        0.956        0.140      127.127       19.701        0.024      332.569        1.316      860.728
12/08/2021  03:49:00      -69.755       21.588        1.539       44.218       24.410       21.807     1955.244      595.853      475.564        0.418        0.151       73.019       22.932        0.099      332.554        1.292      860.699
12/08/2021  03:50:00      -50.145        7.775      -12.286       41.785       26.445       14.156     1746.012      699.352      200.396        0.269        0.132       50.745        9.381        0.034      332.572        1.321      860.699
12/08/2021  03:51:00      -61.799        6.382        0.539       74.703       33.932       29.772     5580.599     1151.393      886.381        0.574        0.381       62.127       26.593        0.183      332.605        1.377      860.714
12/08/2021  03:52:00     -110.880       13.278       -6.839       45.398       29.818       25.770     2060.973      889.098      664.086        0.807        0.181      111.672       24.116        0.047      332.628        1.415      860.712
12/08/2021  03:53:00      -61.195       18.630       -1.290       42.215       26.445       24.079     1782.069      699.341      579.814        0.358        0.153       63.968       21.314        0.111      332.645        1.442      860.704
12/08/2021  03:54:00      -86.849        5.025       -3.819       33.604       26.650       21.230     1129.203      710.231      450.702        0.494        0.115       86.994       15.011        0.030      332.717        1.562      860.693
12/08/2021  03:55:00      -73.247       -2.437       -7.593       34.615       21.585       15.814     1198.206      465.903      250.084        0.367        0.096       73.287       13.956        0.036      332.820        1.732      860.708
12/08/2021  03:56:00      -77.343       -3.982      -10.669       17.352       25.632       15.842      301.106      656.984      250.957        0.366        0.060       77.446        9.087        0.014      332.841        1.767      860.751
12/08/2021  03:57:00      -62.312       -6.189       -5.704       20.402       17.141       14.461      416.258      293.820      209.124        0.244        0.046       62.619        3.524        0.003      332.958        1.961      860.772
12/08/2021  03:58:00      -33.586      -10.989       -7.038       21.116       12.528        9.685      445.871      156.952       93.798        0.100        0.035       35.338        5.950        0.028      332.978        1.991      860.769
12/08/2021  03:59:00      -39.943       12.773       -9.881       17.857       15.159       12.784      318.878      229.786      163.430        0.128        0.036       41.935       12.220        0.085      332.861        1.801      860.770
12/08/2021  04:00:00      -41.755        1.438       -9.442       46.311       23.948       17.464     2144.669      573.507      305.000        0.243        0.151       41.780        9.888        0.056      332.875        1.821      860.794
12/08/2021  04:01:00      -39.700       -8.725        3.961       49.129       41.669       26.630     2413.701     1736.312      709.163        0.326        0.243       40.647       23.029        0.321      332.787        1.678      860.810
12/08/2021  04:02:00      -98.797      -17.311       -9.172       32.624       27.626       22.576     1064.329      763.202      509.657        0.624        0.117      100.302       11.857        0.014      332.732        1.588      860.775
12/08/2021  04:03:00      -27.085      -10.785        2.017       22.574       17.451       20.368      509.565      304.541      414.848        0.104        0.061       29.154       15.966        0.300      332.795        1.690      860.743
12/08/2021  04:04:00      -41.754       -5.483      -14.495       40.970       27.343       17.826     1678.519      747.658      317.759        0.236        0.137       42.112       16.699        0.157      332.862        1.801      860.767
12/08/2021  04:05:00      -24.293       -6.120        8.694       45.034       34.607       26.579     2028.025     1197.639      706.440        0.232        0.197       25.052       19.240        0.590      332.830        1.750      860.828
12/08/2021  04:06:00      -44.653        8.711       -5.954       44.857       29.129       19.808     2012.126      848.506      392.355        0.268        0.163       45.495       19.112        0.176      332.771        1.652      860.850
12/08/2021  04:07:00      -87.328       16.080      -14.028       28.956       21.633       14.398      838.466      467.991      207.301        0.480        0.076       88.796        6.380        0.005      332.726        1.576      860.844
12/08/2021  04:08:00        3.973      -41.948      -17.647       22.178       27.618       16.267      491.845      762.744      264.620        0.180        0.076       42.135       12.146        0.083      332.831        1.750      860.831
12/08/2021  04:09:00        4.106      -59.305      -27.104       22.918       19.424       15.962      525.242      377.281      254.798        0.271        0.058       59.447       10.193        0.029      332.825        1.741      860.823
12/08/2021  04:10:00      -62.763        3.587      -18.659       46.744       29.666       14.080     2184.997      880.059      198.238        0.378        0.163       62.866       16.650        0.070      332.842        1.768      860.815
12/08/2021  04:11:00      -31.462      -13.447       -7.735       44.774       36.695       25.575     2004.722     1346.524      654.068        0.262        0.200       34.215       18.695        0.299      332.786        1.676      860.836
12/08/2021  04:12:00      -27.653       -8.800        2.592       24.618       26.343       26.615      606.024      693.928      708.344        0.143        0.100       29.019        8.092        0.078      332.752        1.620      860.818
12/08/2021  04:13:00      -25.550      -14.084      -10.993       26.007       25.854       22.704      676.373      668.435      515.487        0.142        0.093       29.175       11.721        0.161      332.829        1.747      860.779
12/08/2021  04:14:00      -27.051      -36.068      -15.607       40.086       35.652       22.560     1606.876     1271.068      508.966        0.283        0.169       45.085       20.183        0.200      332.864        1.805      860.778
12/08/2021  04:15:00      -12.214       -8.705       -5.030       32.847       21.491       20.828     1078.945      461.861      433.786        0.111        0.099       14.998       14.927        0.990      332.821        1.733      860.787
12/08/2021  04:16:00      -36.324       44.580       -5.288       18.357       22.503        9.773      336.988      506.390       95.517        0.214        0.047       57.505        8.426        0.021      332.791        1.682      860.792
12/08/2021  04:17:00      -40.737       79.203       -4.582       19.265       16.832        8.524      371.149      283.307       72.653        0.434        0.036       89.065        5.914        0.004      332.700        1.533      860.787
12/08/2021  04:18:00      -38.151       52.656       -8.055       26.394       22.053       14.068      696.667      486.320      197.895        0.284        0.069       65.024       11.053        0.029      332.813        1.720      860.771
12/08/2021  04:19:00      -11.071      -19.606      -11.920       22.977       25.009       16.783      527.937      625.430      281.673        0.104        0.072       22.516        7.998        0.126      332.781        1.667      860.768
12/08/2021  04:20:00       -8.783      -20.611        0.343       27.021       21.184       24.157      730.118      448.759      583.540        0.113        0.088       22.404       12.741        0.323      332.853        1.788      860.772
12/08/2021  04:21:00       10.499      -26.935       -2.774       32.341       39.817       30.693     1045.918     1585.382      942.036        0.221        0.179       28.909       15.685        0.294      332.819        1.731      860.766
12/08/2021  04:22:00      -31.569        1.045      -13.588       23.405       22.357       27.312      547.780      499.844      745.970        0.149        0.090       31.586       16.501        0.273      332.868        1.811      860.793
12/08/2021  04:23:00      -35.302       16.242        0.578       43.119       27.963       22.070     1859.228      781.946      487.063        0.232        0.156       38.860       15.305        0.155      332.752        1.620      860.867
12/08/2021  04:24:00     -122.995       -6.979       -8.562       33.576       27.224       22.170     1127.314      741.153      491.508        0.880        0.118      123.193       17.349        0.020      332.700        1.533      860.897
12/08/2021  04:25:00      -37.824        1.036       -5.562       26.690       27.499       20.899      712.367      756.175      436.751        0.168        0.095       37.838       16.236        0.184      332.716        1.561      860.846
12/08/2021  04:26:00      -30.328        2.538       -6.364       29.347       18.714        9.452      861.248      350.225       89.335        0.113        0.065       30.434        4.898        0.026      332.725        1.574      860.766
12/08/2021  04:27:00      -51.779        2.184      -13.231       23.643       20.186       14.964      558.970      407.483      223.916        0.203        0.060       51.825       15.981        0.095      332.831        1.749      860.728
12/08/2021  04:28:00      -40.421       -7.658       -1.451       36.004       35.777       24.716     1296.259     1279.970      610.863        0.244        0.159       41.140       14.872        0.131      332.759        1.631      860.764
12/08/2021  04:29:00     -108.951      -17.208       -0.731       94.293       53.916       49.091     8891.194     2906.943     2409.931        1.318        0.710      110.301       40.021        0.132      332.577        1.330      860.817
12/08/2021  04:30:00     -151.454        4.922      -14.397       96.247       48.792       44.636     9263.577     2380.670     1992.396        1.840        0.682      151.534       44.016        0.084      332.587        1.344      860.866
12/08/2021  04:31:00      -92.675       12.221      -18.879       61.021       31.061       42.805     3723.597      964.800     1832.307        0.781        0.326       93.477       43.623        0.218      332.542        1.273      860.866
12/08/2021  04:32:00      -78.180       31.897        0.060       49.146       48.610       23.655     2415.324     2362.892      559.572        0.623        0.267       84.437       21.632        0.066      332.496        1.197      860.843
12/08/2021  04:33:00      -30.063        9.724       -6.658       49.845       22.219       16.821     2484.498      493.695      282.940        0.215        0.163       31.596       20.327        0.414      332.580        1.334      860.826
12/08/2021  04:34:00     -158.110      -22.581      -15.037       58.969       30.647       25.364     3477.319      939.269      643.331        1.540        0.253      159.714       25.810        0.026      332.609        1.383      860.864
12/08/2021  04:35:00     -164.421       24.263      -25.079       37.810       56.021       24.117     1429.563     3138.382      581.635        1.670        0.257      166.202       21.603        0.017      332.576        1.328      860.928
12/08/2021  04:36:00     -114.946       99.318      -18.142       54.434       42.519       30.077     2963.028     1807.860      904.630        1.454        0.284      151.910       21.381        0.020      332.466        1.146      860.949
12/08/2021  04:37:00      -30.334       73.673      -12.070       50.740       34.169       26.390     2574.544     1167.546      696.421        0.547        0.222       79.674       17.999        0.051      332.482        1.172      860.872
12/08/2021  04:38:00        6.968       65.521      -15.086       28.492       37.016       18.987      811.820     1370.208      360.514        0.356        0.127       65.890       14.827        0.051      332.653        1.457      860.815
12/08/2021  04:39:00      -40.578      -33.822      -31.399       51.520       38.279       20.706     2654.302     1465.245      428.740        0.416        0.227       52.825       22.592        0.183      332.647        1.447      860.846
12/08/2021  04:40:00      -79.650       -6.788      -12.451       52.392       35.948       28.637     2744.906     1292.237      820.069        0.570        0.243       79.939       25.312        0.100      332.600        1.368      860.870
12/08/2021  04:41:00      -38.196      -18.684      -12.937       54.340       31.931       17.103     2952.829     1019.581      292.529        0.312        0.213       42.521       18.985        0.199      332.578        1.333      860.823
12/08/2021  04:42:00      -18.795       17.565        3.377       24.134       15.765       22.455      582.437      248.540      504.227        0.100        0.067       25.725       15.216        0.350      332.735        1.590      860.748
12/08/2021  04:43:00      -23.244        1.872       -7.924       29.660       16.644       13.652      879.720      277.013      186.384        0.097        0.067       23.319       11.147        0.229      332.803        1.704      860.735
12/08/2021  04:44:00      -19.805       17.273      -11.770       24.846       23.692       19.995      617.302      561.301      399.799        0.120        0.079       26.279       16.116        0.376      332.663        1.473      860.731
12/08/2021  04:45:00       31.039       50.979       -8.270       24.782       24.871       19.941      614.137      618.577      397.663        0.263        0.082       59.685       16.019        0.072      332.623        1.407      860.668
12/08/2021  04:46:00       30.054        6.203      -18.789       23.817       30.812       17.783      567.234      949.349      316.221        0.156        0.092       30.687       16.040        0.273      332.718        1.564      860.640
12/08/2021  04:47:00       -8.145        3.166      -11.442       12.266       20.123       11.961      150.452      404.953      143.070        0.045        0.035        8.739       10.231        1.371      332.716        1.561      860.704
12/08/2021  04:48:00      -21.726      -35.624      -10.203       51.832       37.094       20.734     2686.598     1375.955      429.902        0.317        0.225       41.727       20.514        0.242      332.730        1.584      860.756
12/08/2021  04:49:00      -81.791      -45.594       -7.825       54.987       91.293       42.692     3023.597     8334.467     1822.636        1.100        0.659       93.641       29.046        0.096      332.617        1.396      860.769
12/08/2021  04:50:00      -97.588       10.627       -8.942       84.091       41.104       33.104     7071.336     1689.568     1095.891        0.978        0.493       98.165       36.375        0.137      332.609        1.382      860.774
12/08/2021  04:51:00     -149.604      -13.035       -3.932       42.163       27.195       22.183     1777.754      739.543      492.073        1.279        0.150      150.171       21.835        0.021      332.736        1.592      860.765
12/08/2021  04:52:00      -57.389        6.831       -0.600       49.246       44.535       22.445     2425.176     1983.411      503.779        0.413        0.246       57.795       20.812        0.130      332.784        1.673      860.764
12/08/2021  04:53:00      -67.008      -17.241        0.814       51.596       35.342       25.438     2662.096     1249.029      647.104        0.467        0.228       69.190       26.583        0.148      332.738        1.596      860.734
12/08/2021  04:54:00      -37.969        9.906       -9.162       24.920       24.652       21.929      621.010      607.742      480.890        0.167        0.085       39.240       12.828        0.107      332.791        1.684      860.702
12/08/2021  04:55:00      -13.703       -6.496        1.291       33.544       17.423       16.377     1125.229      303.563      268.199        0.096        0.085       15.165        9.991        0.434      332.793        1.688      860.707
12/08/2021  04:56:00      -22.326       32.900       -0.959       15.030       26.653       10.136      225.906      710.401      102.731        0.131        0.052       39.760        8.353        0.044      332.659        1.467      860.703
12/08/2021  04:57:00        2.659       50.579       -3.077       18.433       22.777       15.994      339.763      518.792      255.799        0.184        0.056       50.649       11.814        0.054      332.678        1.498      860.670
12/08/2021  04:58:00      -30.090       41.245       -8.411       15.412       12.350        8.937      237.545      152.532       79.862        0.157        0.023       51.055        7.034        0.019      332.762        1.636      860.674
12/08/2021  04:59:00      -35.202       20.697       -7.579       14.456       12.809       12.692      208.963      164.078      161.076        0.113        0.027       40.835       10.338        0.064      332.711        1.552      860.701
12/08/2021  05:00:00      -19.643       -2.549      -15.628       13.676       20.329        9.797      187.034      413.250       95.982        0.067        0.035       19.808        9.188        0.215      332.721        1.568      860.717
12/08/2021  05:01:00      -38.387      -43.928      -21.570       25.423       26.387       15.832      646.345      696.291      250.668        0.273        0.080       58.337       13.578        0.054      332.748        1.614      860.730
12/08/2021  05:02:00      -23.671      -59.876      -36.919       40.147       21.294       17.014     1611.780      453.444      289.477        0.393        0.118       64.385       16.268        0.064      332.723        1.571      860.745
12/08/2021  05:03:00      -26.186      -38.997      -24.621       23.153       26.561       22.030      536.041      705.502      485.306        0.227        0.086       46.973       13.695        0.085      332.768        1.645      860.747
12/08/2021  05:04:00       -7.697        4.958       -4.790       17.489       18.106       14.106      305.878      327.840      198.979        0.047        0.042        9.156        9.631        1.107      332.815        1.724      860.731
12/08/2021  05:05:00      -20.096       20.184       -4.538       11.521       14.934        8.354      132.723      223.032       69.784        0.063        0.021       28.482        3.720        0.017      332.845        1.774      860.689
12/08/2021  05:06:00      -19.680       18.490      -14.747       12.858        8.995       11.868      165.321       80.906      140.860        0.067        0.019       27.004        4.138        0.023      332.810        1.717      860.673
12/08/2021  05:07:00       -9.444        9.209      -10.135       11.786        9.906        7.968      138.915       98.121       63.496        0.029        0.015       13.191        5.929        0.202      332.656        1.462      860.648
12/08/2021  05:08:00      -20.458       -9.877       -5.192       18.270       17.177       13.537      333.793      295.036      183.246        0.068        0.041       22.718        6.665        0.086      332.676        1.495      860.626
12/08/2021  05:09:00      -32.282      -18.582       -5.019       78.586       33.132       31.162     6175.722     1097.711      971.046        0.483        0.412       37.248       20.296        0.297      332.730        1.580      860.692
12/08/2021  05:10:00     -106.119       -9.678       -4.564       57.865       52.352       31.968     3348.395     2740.777     1021.927        0.924        0.356      106.560       30.006        0.079      332.678        1.499      860.745
12/08/2021  05:11:00      -32.430        4.853      -12.452       41.259       41.412       22.442     1702.295     1714.929      503.649        0.257        0.196       32.791       20.046        0.374      332.645        1.443      860.702
12/08/2021  05:12:00      -30.096       -2.832      -22.647       47.405       30.517       18.319     2247.211      931.279      335.584        0.247        0.176       30.229       14.693        0.236      332.678        1.497      860.654
12/08/2021  05:13:00      -35.226       11.231       -3.440       56.655       35.960       22.325     3209.771     1293.152      498.410        0.319        0.250       36.973       23.740        0.412      332.626        1.412      860.738
12/08/2021  05:14:00      -72.675       36.472       -2.543       44.960       26.354       17.272     2021.388      694.510      298.314        0.482        0.151       81.314       11.116        0.019      332.452        1.124      860.769
12/08/2021  05:15:00       29.889       52.334       -8.283       42.325       30.496       19.315     1791.407      929.984      373.053        0.340        0.155       60.268       14.480        0.058      332.479        1.168      860.719
12/08/2021  05:16:00       56.646       21.801      -13.383       40.416       25.608       20.317     1633.489      655.783      412.791        0.328        0.135       60.696       19.358        0.102      332.477        1.166      860.669
12/08/2021  05:17:00      -19.221       12.414      -23.505       33.890       45.627       22.036     1148.513     2081.795      485.579        0.240        0.186       22.881       18.208        0.633      332.539        1.268      860.713
12/08/2021  05:18:00       -9.526       -3.057       -7.985       47.082       30.726       18.940     2216.724      944.078      358.714        0.184        0.176       10.005       14.237        2.025      332.587        1.346      860.739
12/08/2021  05:19:00        0.674        2.720       -4.863       11.304        9.444        8.721      127.789       89.190       76.055        0.016        0.015        2.802        2.874        1.052      332.577        1.329      860.709
12/08/2021  05:20:00        0.849        5.422       -8.170       17.629        5.770        7.335      310.799       33.294       53.803        0.025        0.020        5.488        4.834        0.776      332.627        1.413      860.662
12/08/2021  05:21:00      -42.687        8.882       -7.488       41.134       19.232       20.050     1692.034      369.859      401.994        0.221        0.123       43.601       14.196        0.106      332.679        1.498      860.704
12/08/2021  05:22:00      -36.412       20.229      -14.905       31.802       25.330       17.013     1011.337      641.607      289.436        0.195        0.097       41.654       10.954        0.069      332.539        1.270      860.702
12/08/2021  05:23:00      -23.222       55.551       -5.495       16.571       14.256        8.971      274.589      203.247       80.478        0.211        0.028       60.210        4.736        0.006      332.495        1.196      860.640
12/08/2021  05:24:00      -18.284       91.506      -16.002       17.905       23.079       12.802      320.573      532.634      163.880        0.499        0.051       93.315        7.991        0.007      332.698        1.531      860.594
12/08/2021  05:25:00        4.774       32.468      -11.354        9.543       28.798       10.247       91.067      829.310      105.009        0.112        0.051       32.817        8.482        0.067      332.840        1.763      860.584
12/08/2021  05:26:00      -10.050      -23.826      -10.623       14.349       19.068       15.247      205.898      363.598      232.460        0.079        0.040       25.859        6.150        0.057      332.920        1.897      860.597
12/08/2021  05:27:00       -3.340      -16.824      -17.763       13.717       18.817       12.651      188.145      354.082      160.039        0.066        0.035       17.152        8.323        0.235      332.830        1.749      860.615
12/08/2021  05:28:00       -8.114       26.921       -9.980       14.978       10.654        9.709      224.339      113.505       94.273        0.066        0.022       28.117        5.184        0.034      332.686        1.510      860.630
12/08/2021  05:29:00       96.742        1.769      -18.857       48.467       36.675       25.354     2349.021     1345.025      642.811        0.703        0.217       96.758       19.000        0.039      332.626        1.411      860.530
12/08/2021  05:30:00      -30.086       -1.770       -2.639       57.278       33.397       15.833     3280.780     1115.386      250.687        0.278        0.232       30.138        8.035        0.071      332.689        1.516      860.522
12/08/2021  05:31:00       17.732        0.935      -20.002       39.749       35.922       23.357     1579.994     1290.375      545.545        0.207        0.171       17.757       17.229        0.941      332.607        1.379      860.514
12/08/2021  05:32:00       13.382      -88.252      -16.808       52.035       66.130       34.639     2707.622     4373.127     1199.852        0.826        0.414       89.261       23.702        0.071      332.883        1.836      860.472
12/08/2021  05:33:00      -92.008       -4.997       -9.474      151.798       46.032       43.920    23042.737     2118.961     1928.988        1.783        1.355       92.144       45.284        0.242      332.844        1.770      860.624
12/08/2021  05:34:00      -69.190      -25.943      -15.346       90.534       35.367       35.230     8196.370     1250.850     1241.128        0.819        0.534       73.894        8.320        0.013      332.786        1.674      860.659
12/08/2021  05:35:00      -28.753      -24.883       -4.238       34.031       44.010       28.583     1158.102     1936.907      816.985        0.269        0.196       38.024       18.889        0.247      332.904        1.871      860.560
12/08/2021  05:36:00      -21.941      -20.335      -19.308       29.952       33.607       19.788      897.116     1129.424      391.547        0.184        0.121       29.915       16.138        0.291      332.962        1.967      860.632
12/08/2021  05:37:00       22.735        3.468      -13.735       40.491       26.181       25.095     1639.531      685.457      629.766        0.184        0.148       22.998       24.199        1.107      332.903        1.870      860.646
12/08/2021  05:38:00       61.664        7.841      -48.537       56.828       67.474       51.044     3229.448     4552.791     2605.491        0.830        0.519       62.160       36.359        0.342      332.818        1.727      860.543
12/08/2021  05:39:00       32.231       -1.912      -10.915       52.966       45.070       26.707     2805.447     2031.311      713.274        0.335        0.278       32.287       13.536        0.176      332.725        1.575      860.520
12/08/2021  05:40:00       61.916       52.132       -1.244       31.232       36.101       20.382      975.412     1303.292      415.442        0.462        0.135       80.940       19.454        0.058      332.281        0.842      860.531
12/08/2021  05:41:00        2.066        2.685       -0.846       37.064       17.922       19.927     1373.740      321.213      397.088        0.105        0.105        3.388       18.577       30.070      332.372        0.991      860.532
12/08/2021  05:42:00      -42.862        1.744       11.004       78.025       49.897       37.996     6087.888     2489.743     1443.711        0.599        0.501       42.897       34.006        0.628      332.603        1.373      860.627
12/08/2021  05:43:00      -57.798        7.720      -24.258       89.696       36.019       24.376     8045.337     1297.396      594.183        0.696        0.497       58.311       33.598        0.332      332.757        1.627      860.564
12/08/2021  05:44:00       89.198       36.580      -28.675       47.177       51.970       28.487     2225.682     2700.862      811.508        0.793        0.287       96.407       24.033        0.062      332.746        1.610      860.430
12/08/2021  05:45:00       28.429       22.980       -6.726       24.799       27.021       28.152      614.999      730.145      792.553        0.176        0.107       36.555        8.113        0.049      332.659        1.466      860.438
12/08/2021  05:46:00        8.218      -37.809      -16.092       30.312       41.942       21.512      918.834     1759.167      462.749        0.245        0.157       38.692        6.103        0.025      332.695        1.527      860.542
12/08/2021  05:47:00      -82.882      -24.927       -4.969       75.357       42.113       31.083     5678.737     1773.530      966.174        0.797        0.421       86.549       15.226        0.031      332.685        1.509      860.608
12/08/2021  05:48:00     -100.979        2.978      -14.145       46.972       44.643       33.769     2206.360     1992.959     1140.351        0.787        0.267      101.023        9.202        0.008      332.620        1.401      860.586
12/08/2021  05:49:00       -6.846       24.471      -10.249       23.988       31.921       20.362      575.412     1018.947      414.609        0.138        0.100       25.411       13.594        0.286      332.606        1.378      860.526
12/08/2021  05:50:00       -1.907       58.251       -5.707       24.941       21.174       16.700      622.073      448.351      278.892        0.239        0.067       58.282        8.643        0.022      332.625        1.408      860.506
12/08/2021  05:51:00      -52.461       75.382      -10.888       22.203       23.167       10.742      492.968      536.695      115.385        0.485        0.057       91.841       10.225        0.012      332.528        1.249      860.541
12/08/2021  05:52:00      -17.644       43.529       -9.787       23.678       24.959       10.229      560.637      622.963      104.638        0.179        0.064       46.969        7.972        0.029      332.609        1.383      860.574
12/08/2021  05:53:00      -37.012       56.609       -4.561       27.343       20.084       14.276      747.631      403.387      203.806        0.297        0.068       67.635       11.181        0.027      332.484        1.176      860.620
12/08/2021  05:54:00      -19.539       53.208       -3.513       25.443       31.455       10.432      647.334      989.430      108.825        0.249        0.087       56.683       13.508        0.057      332.432        1.089      860.635
12/08/2021  05:55:00       68.615       36.958      -12.885       31.863       25.158       16.856     1015.241      632.946      284.135        0.409        0.097       77.935       14.306        0.034      332.545        1.277      860.587
12/08/2021  05:56:00       40.690       24.716      -10.302       29.678       27.074       18.956      880.762      732.993      359.326        0.217        0.099       47.609       11.897        0.062      332.550        1.285      860.519
12/08/2021  05:57:00        4.574       39.037      -10.628       15.402       13.377       14.354      237.209      178.943      206.035        0.114        0.031       39.304        7.509        0.037      332.522        1.237      860.517
12/08/2021  05:58:00      -15.597       33.434      -19.692       30.517       23.016       13.122      931.267      529.735      172.176        0.169        0.082       36.893       11.260        0.093      332.478        1.167      860.493
12/08/2021  05:59:00       -7.919      -19.795      -15.536       21.984       16.000       12.320      483.292      256.002      151.778        0.079        0.045       21.320        7.642        0.128      332.522        1.241      860.501
12/08/2021  06:00:00       16.050       -3.784      -15.513       29.940       32.392       10.403      896.410     1049.224      108.229        0.128        0.103       16.490       11.419        0.480      332.569        1.317      860.455
12/08/2021  06:01:00       23.494        0.710      -15.717       44.717       19.706       13.715     1999.571      388.318      188.106        0.169        0.129       23.505       14.029        0.356      332.481        1.171      860.430
12/08/2021  06:02:00        3.884      -53.857      -18.777       37.471       19.730       20.381     1404.111      389.271      415.403        0.274        0.110       53.997       13.625        0.064      332.629        1.416      860.470
12/08/2021  06:03:00       70.728     -128.618      -30.134       38.463       44.006       18.709     1479.402     1936.568      350.008        1.311        0.188      146.782       17.396        0.014      332.572        1.322      860.456
12/08/2021  06:04:00       89.139      -98.757      -28.049       22.364       20.338       15.175      500.158      413.643      230.294        0.981        0.057      133.036        7.644        0.003      332.565        1.308      860.410
12/08/2021  06:05:00       72.460      -87.547      -26.585       29.786       30.112       27.157      887.215      906.734      737.524        0.808        0.127      113.643       24.201        0.045      332.678        1.499      860.377
12/08/2021  06:06:00       85.273      -91.467      -36.109       25.483       46.070       18.397      649.369     2122.475      338.441        1.003        0.156      125.051       10.919        0.008      332.633        1.421      860.352
12/08/2021  06:07:00       48.659      -87.257      -33.427       20.747       19.484       16.594      430.440      379.621      275.361        0.609        0.054       99.907       12.079        0.015      332.538        1.266      860.331
12/08/2021  06:08:00       -4.121      -51.422      -24.214       24.877       29.373       25.862      618.863      862.761      668.854        0.270        0.108       51.587       17.519        0.115      332.680        1.502      860.364
12/08/2021  06:09:00       77.912     -116.972      -44.867       28.215       46.785       23.400      796.072     2188.828      547.546        1.265        0.177      140.545       19.378        0.019      332.607        1.378      860.315
12/08/2021  06:10:00       24.963      -92.386      -20.336       45.575       40.393       31.867     2077.117     1631.563     1015.536        0.715        0.236       95.699       18.907        0.039      332.547        1.279      860.283
12/08/2021  06:11:00       -2.814      -11.657       -7.715       25.028       21.017       25.416      626.410      441.710      645.970        0.096        0.086       11.992       11.469        0.915      332.591        1.353      860.329
12/08/2021  06:12:00      -25.102      -12.085       -4.313       27.577       31.318       20.820      760.485      980.829      433.463        0.148        0.109       27.860       13.885        0.248      332.618        1.399      860.320
12/08/2021  06:13:00      -28.242       16.353       -4.180       32.569       15.272       12.742     1060.755      233.237      162.353        0.127        0.073       32.635        7.902        0.059      332.570        1.319      860.269
12/08/2021  06:14:00       74.204       45.686      -12.132       41.421       22.479       11.795     1715.698      505.327      139.133        0.505        0.118       87.140        8.467        0.009      332.493        1.191      860.200
12/08/2021  06:15:00       18.608       38.167      -14.486       48.979       27.173       16.092     2398.939      738.390      258.946        0.270        0.170       42.461       20.970        0.244      332.397        1.033      860.175
12/08/2021  06:16:00       -4.745      -11.736      -21.614       30.852       37.459       25.952      951.829     1403.205      673.499        0.183        0.151       12.659       20.138        2.531      332.613        1.390      860.256
12/08/2021  06:17:00      -12.191        2.763       12.591       34.495       25.807       17.035     1189.903      665.996      290.179        0.123        0.107       12.501       11.890        0.905      332.617        1.396      860.310
12/08/2021  06:18:00        8.181        5.578       -6.932       23.296       23.125       14.062      542.717      534.757      197.747        0.071        0.064        9.902       11.563        1.364      332.686        1.511      860.302
12/08/2021  06:19:00       64.299       23.929       -9.850       35.164       27.037       14.361     1236.513      730.988      206.248        0.349        0.109       68.607       16.640        0.059      332.622        1.404      860.283
12/08/2021  06:20:00      -63.929       37.779      -18.310       43.615       20.300       17.419     1902.262      412.100      303.417        0.423        0.131       74.257       15.496        0.044      332.596        1.361      860.342
12/08/2021  06:21:00      -34.428       66.349       -9.590       28.522       34.897       17.987      813.521     1217.820      323.516        0.402        0.118       74.749       14.053        0.035      332.421        1.071      860.353
12/08/2021  06:22:00      -69.879       51.096      -19.506       39.077       34.209       23.408     1527.007     1170.228      547.916        0.556        0.162       86.567       19.501        0.051      332.564        1.310      860.333
12/08/2021  06:23:00     -129.989       43.598      -20.163       60.034       45.273       34.511     3604.082     2049.680     1191.023        1.302        0.342      137.106       30.629        0.050      332.443        1.109      860.327
12/08/2021  06:24:00     -100.577       60.542      -17.113       47.010       31.195       25.091     2209.909      973.134      629.551        0.894        0.191      117.393       12.491        0.011      332.429        1.086      860.292
12/08/2021  06:25:00      -49.230       27.114       -7.078       35.841       42.244       21.595     1284.566     1784.564      466.333        0.337        0.177       56.203       15.623        0.077      332.560        1.302      860.283
12/08/2021  06:26:00        4.637      -23.587        0.205       32.751       44.116       34.165     1072.653     1946.221     1167.221        0.238        0.209       24.039       17.786        0.547      332.510        1.221      860.341
12/08/2021  06:27:00       12.582      -13.739        3.288       33.968       42.892       25.965     1153.814     1839.713      674.167        0.201        0.183       18.630       17.597        0.892      332.445        1.112      860.356
12/08/2021  06:28:00      -26.385        8.334      -10.892       15.847       19.765       11.116      251.114      390.646      123.555        0.082        0.038       27.669        6.110        0.049      332.379        1.002      860.250
12/08/2021  06:29:00      -26.602       -9.337       -7.941       25.331       26.934       17.505      641.637      725.440      306.414        0.127        0.084       28.193       13.386        0.225      332.488        1.183      860.161
12/08/2021  06:30:00       24.820        1.175       -8.215       28.593       32.778       23.972      817.547     1074.380      574.649        0.158        0.123       24.848       15.229        0.376      332.546        1.277      860.110
12/08/2021  06:31:00      -22.844      -54.926      -11.925       46.735       41.009       30.786     2184.174     1681.756      947.787        0.425        0.241       59.487       16.336        0.075      332.696        1.529      860.009
12/08/2021  06:32:00       64.555     -106.510      -27.784       63.214       75.991       35.676     3996.055     5774.611     1272.744        1.366        0.552      124.546       42.666        0.117      332.602        1.371      859.886
12/08/2021  06:33:00       83.914     -180.457      -28.457       58.056       45.653       41.385     3370.483     2084.239     1712.752        2.379        0.358      199.013       24.084        0.015      332.581        1.333      859.808
12/08/2021  06:34:00       73.795      -87.335      -30.121       60.018       73.327       33.642     3602.208     5376.822     1131.771        1.204        0.506      114.338       29.222        0.065      332.556        1.294      859.786
12/08/2021  06:35:00       96.137      -71.423      -38.033       64.872       58.014       40.002     4208.355     3365.584     1600.144        1.248        0.459      119.765       34.873        0.085      332.550        1.285      859.732
12/08/2021  06:36:00       77.691      -48.720      -31.583       48.894       69.796       32.019     2390.621     4871.484     1025.240        0.885        0.414       91.704       18.722        0.042      332.753        1.619      859.672
12/08/2021  06:37:00       72.209      -14.782       -4.245       59.456       46.009       40.653     3535.025     2116.785     1652.698        0.638        0.365       73.707       40.615        0.304      332.305        0.879      859.683
12/08/2021  06:38:00      100.605        6.419      -14.833       31.011       32.894       24.880      961.666     1082.010      618.998        0.652        0.133      100.810       16.435        0.027      332.106        0.553      859.731
12/08/2021  06:39:00       82.892       38.396       -9.338       26.682       20.610       17.584      711.946      424.791      309.186        0.494        0.072       91.353        8.341        0.008      331.996        0.372      859.763
12/08/2021  06:40:00       46.544       73.705       -7.756       28.430       34.525       16.455      808.276     1192.006      270.760        0.496        0.114       87.171       10.797        0.015      331.963        0.317      859.766
12/08/2021  06:41:00       42.904      140.757      -13.948       22.695       24.688       26.241      515.079      609.504      688.601        1.183        0.091      147.150       16.025        0.012      331.982        0.348      859.763
12/08/2021  06:42:00       32.706      111.851      -13.039       22.125       25.464       20.687      489.516      648.409      427.969        0.766        0.078      116.535       17.579        0.023      332.038        0.441      859.776
12/08/2021  06:43:00       15.331       70.636       -4.607       27.335       25.642       18.870      747.197      657.534      356.086        0.350        0.088       72.280       10.393        0.021      332.112        0.563      859.797
12/08/2021  06:44:00        6.288       37.818      -11.451       24.001       20.139       18.560      576.056      405.567      344.457        0.146        0.066       38.337       12.055        0.099      332.020        0.411      859.778
12/08/2021  06:45:00      -63.983       25.382      -18.957       29.612       19.909       18.322      876.869      396.359      335.681        0.335        0.080       68.834       13.454        0.038      332.096        0.536      859.761
12/08/2021  06:46:00      -86.928       34.261      -20.109       25.968       15.882       14.504      674.357      252.236      210.354        0.514        0.057       93.436        9.232        0.010      332.182        0.678      859.771
12/08/2021  06:47:00      -82.514       27.957       -0.759       72.305       30.264       27.944     5228.060      915.931      780.860        0.726        0.346       87.121       28.289        0.105      332.225        0.748      859.788
12/08/2021  06:48:00     -132.947       30.054      -16.036      107.275       51.440       32.867    11507.836     2646.053     1080.233        1.703        0.762      136.302       38.112        0.078      332.203        0.710      859.793
12/08/2021  06:49:00     -103.165       65.663      -25.291       79.310       53.975       39.366     6290.027     2913.292     1549.688        1.317        0.538      122.289       33.358        0.074      332.158        0.639      859.854
12/08/2021  06:50:00      -52.566       89.308      -18.652       56.519       52.133       28.315     3194.400     2717.889      801.733        0.890        0.336      103.630       32.439        0.098      332.162        0.644      859.920
12/08/2021  06:51:00       44.190      104.349      -14.959       60.952       42.286       26.381     3715.128     1788.121      695.945        0.963        0.310      113.320       23.751        0.044      332.308        0.885      859.948
12/08/2021  06:52:00      157.207       56.433      -19.172       59.895       55.283       40.382     3587.386     3056.257     1630.726        1.827        0.414      167.029       30.371        0.033      332.384        1.010      859.983
12/08/2021  06:53:00      222.045       39.672      -27.581       65.873       49.407       37.832     4339.249     2441.084     1431.292        2.992        0.411      225.561        3.983        0.000      332.184        0.678      860.066
12/08/2021  06:54:00      210.791       42.040      -17.012       42.494       42.776       28.391     1805.726     1829.817      806.045        2.546        0.222      214.942        9.867        0.002      332.109        0.556      860.144
12/08/2021  06:55:00      151.350       20.227      -17.966       56.909       44.897       27.473     3238.651     2015.729      754.789        1.482        0.300      152.695        3.812        0.001      332.175        0.665      860.187
12/08/2021  06:56:00      165.318       25.661       -8.192       59.839       40.400       30.243     3580.765     1632.191      914.650        1.709        0.306      167.298       29.023        0.030      332.159        0.639      860.174
12/08/2021  06:57:00      201.304       76.706      -19.349       81.369       57.853       42.632     6620.957     3346.983     1817.529        2.928        0.589      215.423       42.245        0.038      332.146        0.615      860.142
12/08/2021  06:58:00      146.602       65.195      -14.186       54.257       50.323       31.559     2943.825     2532.386      995.969        1.621        0.324      160.444       19.806        0.015      332.147        0.618      860.123
12/08/2021  06:59:00      169.116       86.095      -15.769       42.858       48.311       31.491     1836.774     2333.915      991.691        2.071        0.258      189.770       22.712        0.014      332.238        0.769      860.113
12/08/2021  07:00:00      149.286       73.245      -16.278       58.244       43.823       29.555     3392.396     1920.493      873.502        1.705        0.309      166.286       25.978        0.024      332.356        0.964      860.089
12/08/2021  07:01:00       89.203       35.692      -13.313       41.094       33.394       24.300     1688.721     1115.146      590.492        0.640        0.170       96.079        8.659        0.008      332.385        1.011      860.084
12/08/2021  07:02:00       84.873       23.654      -20.635       48.344       42.898       26.140     2337.154     1840.222      683.297        0.652        0.243       88.108        7.002        0.006      332.547        1.280      860.084
12/08/2021  07:03:00       74.130       46.634      -18.744       25.724       28.706       25.015      661.731      824.048      625.761        0.507        0.106       87.578       17.416        0.040      332.569        1.318      860.066
12/08/2021  07:04:00       62.083      -10.588      -39.908       49.041       82.020       34.986     2405.050     6727.330     1223.994        0.796        0.518       62.979       19.245        0.093      332.677        1.495      859.990
12/08/2021  07:05:00       63.773       18.104      -28.034       57.056       76.111       38.205     3255.352     5792.864     1459.632        0.784        0.525       66.293       17.728        0.072      332.715        1.558      859.886
12/08/2021  07:06:00       35.106      -30.274      -21.241       43.736       45.322       33.501     1912.817     2054.116     1122.310        0.384        0.254       46.356       25.223        0.296      332.816        1.725      859.840
12/08/2021  07:07:00       37.500      -55.991      -19.076       33.134       46.719       38.168     1097.844     2182.701     1456.786        0.482        0.237       67.388       20.786        0.095      332.882        1.834      859.818
12/08/2021  07:08:00       16.706      -17.120        3.318       33.881       60.058       28.770     1147.912     3606.938      827.701        0.308        0.279       23.921       28.005        1.371      332.712        1.555      859.780
12/08/2021  07:09:00       36.574      -26.545      -27.437       34.098       37.144       21.401     1162.669     1379.666      458.015        0.290        0.150       45.192       14.761        0.107      332.839        1.764      859.742
12/08/2021  07:10:00       59.451        4.698      -18.880       39.167       46.596       26.436     1534.076     2171.189      698.857        0.416        0.220       59.636       10.908        0.033      332.787        1.677      859.712
12/08/2021  07:11:00       19.124      -72.913      -20.290       42.743       44.380       27.328     1826.966     1969.611      746.819        0.532        0.227       75.380       22.659        0.090      332.809        1.714      859.726
12/08/2021  07:12:00       -3.257      -18.681      -18.826       25.698       32.031       12.932      660.400     1025.980      167.229        0.128        0.093       18.963       13.731        0.524      332.724        1.574      859.784
12/08/2021  07:13:00      -14.754       42.603       -6.361       17.047       17.001       12.071      290.604      289.025      145.700        0.140        0.036       45.086        9.327        0.043      332.661        1.468      859.814
12/08/2021  07:14:00      -32.404       55.133      -10.871       35.985       13.147       11.727     1294.946      172.831      137.519        0.291        0.080       63.951        9.740        0.023      332.740        1.600      859.783
12/08/2021  07:15:00       83.344       87.923      -15.242       35.711       28.708       23.042     1275.310      824.134      530.949        0.877        0.132      121.148       20.196        0.028      332.642        1.439      859.728
12/08/2021  07:16:00       79.724       98.964      -12.424       36.700       38.515       31.886     1346.872     1483.436     1016.737        1.007        0.192      127.083       24.207        0.036      332.664        1.474      859.711
12/08/2021  07:17:00       33.198      144.137      -18.254       44.453       34.731       21.895     1976.110     1206.215      479.405        1.294        0.183      147.910       17.605        0.014      332.634        1.424      859.732
12/08/2021  07:18:00      -16.488      132.269      -10.461       28.765       43.710       17.123      827.452     1910.538      293.208        1.045        0.152      133.292       11.175        0.007      332.557        1.296      859.742
12/08/2021  07:19:00       66.841      166.102      -23.282       39.740       38.628       27.050     1579.232     1492.106      731.712        1.820        0.190      179.046       26.818        0.022      332.684        1.506      859.749
12/08/2021  07:20:00       70.623      102.088      -10.242       40.827       45.870       31.399     1666.857     2104.073      985.924        1.013        0.238      124.135       27.431        0.049      332.675        1.492      859.757
12/08/2021  07:21:00       71.529       53.079      -13.896       35.110       29.875       24.078     1232.718      892.508      579.745        0.542        0.135       89.072       16.758        0.035      332.517        1.231      859.779
12/08/2021  07:22:00       41.781       10.381       -5.320       33.972       20.845       17.715     1154.130      434.523      313.820        0.189        0.095       43.051       18.533        0.185      332.484        1.174      859.789
12/08/2021  07:23:00       11.771      -38.994      -30.164       25.884       36.581       29.038      670.006     1338.184      843.228        0.271        0.143       40.732       26.549        0.425      332.667        1.481      859.791
12/08/2021  07:24:00       64.304     -138.632      -28.791       61.095       47.697       38.498     3732.614     2275.007     1482.115        1.583        0.374      152.820       39.143        0.066      332.630        1.417      859.776
12/08/2021  07:25:00       65.530     -138.631      -27.808       47.111       53.988       32.287     2219.465     2914.745     1042.423        1.523        0.309      153.339       21.099        0.019      332.687        1.511      859.828
12/08/2021  07:26:00       49.074     -110.893      -29.292       49.482       50.161       32.737     2448.443     2516.166     1071.708        1.080        0.302      121.266       18.602        0.024      332.777        1.660      859.904
12/08/2021  07:27:00       82.028      -54.647      -35.052       56.952       66.054       44.124     3243.509     4363.065     1946.905        1.025        0.478       98.564       38.892        0.156      332.844        1.771      859.928
12/08/2021  07:28:00       70.683      -88.884      -39.076       40.916       68.519       31.272     1674.107     4694.858      977.919        1.088        0.367      113.563       26.340        0.054      332.733        1.588      859.937
12/08/2021  07:29:00       43.866     -115.461      -21.164       34.064       46.273       30.927     1160.356     2141.154      956.507        0.998        0.213      123.513       19.076        0.024      332.692        1.520      859.946
12/08/2021  07:30:00       -7.838      -29.813      -33.346       35.888       39.725       23.887     1287.967     1578.111      570.592        0.275        0.172       30.826       21.642        0.493      332.813        1.719      859.936
12/08/2021  07:31:00      -74.673       26.275      -12.423       38.846       14.998       16.292     1509.031      224.926      265.417        0.421        0.100       79.161       20.269        0.066      332.792        1.684      859.879
12/08/2021  07:32:00      -39.583       -1.661       -7.359       48.933       30.988       37.881     2394.403      960.262     1434.984        0.321        0.239       39.617       24.207        0.373      332.754        1.623      859.838
12/08/2021  07:33:00      -85.979       -5.690      -11.337       35.263       30.424       19.136     1243.459      925.604      366.182        0.504        0.127       86.167       14.824        0.030      332.755        1.625      859.842
12/08/2021  07:34:00      -51.550       10.918      -12.725       38.107       22.995       12.860     1452.179      528.788      165.369        0.254        0.107       52.693       17.145        0.106      332.697        1.532      859.802
12/08/2021  07:35:00       36.326       -0.537      -31.803       34.078       55.339       41.083     1161.340     3062.402     1687.809        0.412        0.296       36.330       25.230        0.482      333.009        2.043      859.714
12/08/2021  07:36:00       71.238       -8.357      -32.823       48.870       42.570       34.528     2388.308     1812.246     1192.162        0.581        0.270       71.727       15.239        0.045      333.073        2.149      859.698
12/08/2021  07:37:00      -46.878       12.959      -14.988       52.730       35.880       31.844     2780.485     1287.352     1014.067        0.384        0.254       48.636       22.634        0.217      333.031        2.081      859.779
12/08/2021  07:38:00      -11.211      -38.565       -7.801       53.577       43.746       37.798     2870.528     1913.693     1428.716        0.394        0.311       40.161       13.691        0.116      333.048        2.108      859.867
12/08/2021  07:39:00      -28.574       -5.597      -13.396       30.443       36.082       20.884      926.763     1301.898      436.148        0.185        0.133       29.117       10.929        0.141      332.923        1.903      859.907
12/08/2021  07:40:00       88.830      -69.313      -46.712       66.275      103.935       54.400     4392.431    10802.382     2959.314        1.651        0.908      112.672       49.729        0.195      333.060        2.128      859.871
12/08/2021  07:41:00       73.497     -112.167      -39.079       46.065       85.290       45.166     2122.026     7274.391     2039.945        1.547        0.572      134.102       40.496        0.091      332.857        1.793      859.822
12/08/2021  07:42:00       42.573       -1.580      -18.356       58.587       53.812       25.889     3432.469     2895.725      670.255        0.457        0.350       42.602       18.327        0.185      332.926        1.907      859.831
12/08/2021  07:43:00        5.209       -4.129       -1.213       25.592       38.491       21.498      654.958     1481.547      462.156        0.132        0.130        6.647       15.702        5.580      333.023        2.068      859.900
12/08/2021  07:44:00      -31.657       -2.551       -4.792       58.226       30.992       30.592     3390.290      960.525      935.890        0.316        0.264       31.760       18.071        0.324      333.032        2.083      859.950
12/08/2021  07:45:00      -50.824      -22.634       -3.826       54.059       27.140       29.997     2922.361      736.562      899.804        0.383        0.228       55.636       29.342        0.278      332.880        1.830      859.966
12/08/2021  07:46:00      -24.751       -2.514       -8.404       27.408       15.295        9.920      751.176      233.939       98.407        0.089        0.054       24.879        6.304        0.064      332.818        1.726      859.927
12/08/2021  07:47:00      -17.103        9.715      -12.247       26.354        7.324        6.877      694.546       53.639       47.294        0.067        0.040       19.670        8.426        0.183      332.838        1.764      859.894
12/08/2021  07:48:00      -40.609       -5.106       -5.493       50.251       35.879       26.696     2525.176     1287.288      712.684        0.311        0.226       40.928       15.493        0.143      332.975        1.989      859.885
12/08/2021  07:49:00       -8.677      -23.269       13.342       36.341       35.879       25.190     1320.653     1287.302      634.547        0.202        0.162       24.834       16.501        0.442      332.919        1.895      859.884
12/08/2021  07:50:00      -47.388      -24.807       -6.785       38.432       25.833       21.478     1477.047      667.353      461.306        0.276        0.130       53.488       21.913        0.168      332.766        1.641      859.889
12/08/2021  07:51:00      -32.292       27.974       -5.111       18.467       16.486       12.649      341.041      271.787      159.994        0.131        0.039       42.724        8.208        0.037      332.712        1.554      859.905
12/08/2021  07:52:00      -59.278       16.864      -18.355       37.799       23.269       17.414     1428.770      541.428      303.250        0.320        0.114       61.630       16.278        0.070      332.824        1.740      859.923
12/08/2021  07:53:00      -12.142      -20.510        0.844       44.497       34.942       25.203     1980.008     1220.936      635.211        0.220        0.192       23.835       26.083        1.198      332.847        1.777      859.940
12/08/2021  07:54:00      -30.613       20.064        3.076       35.749       31.351       29.110     1277.970      982.909      847.405        0.223        0.155       36.602       19.773        0.292      332.779        1.664      859.954
12/08/2021  07:55:00      -70.892       31.297       -6.063       32.196       30.559       20.631     1036.593      933.827      425.628        0.422        0.120       77.493       15.560        0.040      332.736        1.593      859.968
12/08/2021  07:56:00      -82.892       14.655      -23.125       62.592       41.350       25.895     3917.699     1709.848      670.535        0.696        0.315       84.177       26.364        0.098      332.706        1.543      859.968
12/08/2021  07:57:00      -46.105       -4.740       -5.126       54.963       51.897       31.671     3020.985     2693.340     1003.051        0.444        0.336       46.348       23.347        0.254      332.761        1.635      859.948
12/08/2021  07:58:00     -157.650      -22.547       -9.300       68.602       51.651       35.296     4706.243     2667.832     1245.791        1.703        0.431      159.254       29.224        0.034      332.583        1.338      859.911
12/08/2021  07:59:00     -166.770       39.097      -16.947       49.972       42.168       28.748     2497.246     1778.142      826.447        1.736        0.255      171.291       13.709        0.006      332.526        1.246      859.862
12/08/2021  08:00:00      -82.699       41.179       -8.601       38.164       37.539       19.720     1456.480     1409.142      388.859        0.593        0.163       92.384       10.813        0.014      332.551        1.286      859.795
12/08/2021  08:01:00      -21.087       -4.132       -4.667       29.424       22.362       21.351      865.748      500.049      455.878        0.115        0.091       21.488       17.924        0.696      332.709        1.549      859.709
12/08/2021  08:02:00      -62.208       40.605       -7.749       44.795       29.104       21.081     2006.578      847.051      444.420        0.444        0.165       74.287       19.377        0.068      332.674        1.491      859.660
12/08/2021  08:03:00      -67.741        9.029        2.938       55.419       37.941       21.966     3071.237     1439.534      482.497        0.484        0.250       68.340       22.885        0.112      332.759        1.632      859.624
12/08/2021  08:04:00      -87.608       -5.422       -7.256       69.941       40.330       37.434     4891.794     1626.514     1401.316        0.784        0.396       87.776       36.130        0.169      332.779        1.665      859.586
12/08/2021  08:05:00     -108.563        4.038      -10.621       52.824       37.514       26.208     2790.425     1407.324      686.859        0.840        0.244      108.638       25.281        0.054      332.748        1.613      859.489
12/08/2021  08:06:00      -23.654       43.518       -8.861       31.479       17.798        7.516      990.919      316.773       56.487        0.195        0.068       49.531        3.112        0.004      332.771        1.649      859.341
12/08/2021  08:07:00      -51.867       52.705      -14.760       35.220       17.830       16.664     1240.437      317.918      277.689        0.376        0.092       73.946       19.199        0.067      332.775        1.658      859.280
12/08/2021  08:08:00      -51.506       -9.616      -11.168       36.975       28.777       20.476     1367.171      828.114      419.258        0.274        0.131       52.396       21.078        0.162      332.900        1.864      859.318
12/08/2021  08:09:00      -53.854      -22.291      -13.469       34.677       33.524       22.681     1202.482     1123.863      514.429        0.321        0.142       58.285       18.217        0.098      332.937        1.926      859.363
12/08/2021  08:10:00       -8.255        8.837      -14.184       27.410       45.428       20.754      751.324     2063.662      430.737        0.180        0.162       12.093       10.956        0.821      332.926        1.908      859.343
12/08/2021  08:11:00       12.780      -61.561      -32.130       28.845       57.454       24.791      832.049     3300.973      614.585        0.487        0.237       62.873       17.627        0.079      333.039        2.094      859.306
12/08/2021  08:12:00        6.667      -69.355      -22.064       27.245       23.803       19.589      742.267      566.565      383.723        0.352        0.085       69.675       12.979        0.035      333.087        2.173      859.311
12/08/2021  08:13:00        6.612      -70.970      -13.492       39.047       51.151       26.736     1524.641     2616.420      714.802        0.506        0.243       71.277       19.824        0.077      333.094        2.184      859.348
12/08/2021  08:14:00       67.214     -159.397      -24.193       52.441       86.519       45.067     2750.064     7485.472     2031.015        2.139        0.613      172.989       46.634        0.073      333.032        2.080      859.463
12/08/2021  08:15:00      -11.811      -75.551      -28.826       60.419       90.335       39.672     3650.475     8160.437     1573.828        1.003        0.669       76.468       24.979        0.107      333.078        2.156      859.576
12/08/2021  08:16:00       10.407      -70.557      -15.595       85.299       72.734       36.096     7275.872     5290.176     1302.939        0.960        0.693       71.320       38.352        0.289      333.047        2.105      859.586
12/08/2021  08:17:00      124.546      -72.925      -40.768       56.042       67.756       45.219     3140.732     4590.821     2044.760        1.613        0.489      144.325       31.886        0.049      332.950        1.946      859.511
12/08/2021  08:18:00       86.496     -126.829      -44.693       54.341       65.406       34.860     2952.995     4278.000     1215.225        1.700        0.422      153.516       27.098        0.031      332.843        1.769      859.509
12/08/2021  08:19:00      -17.377       -6.398      -13.036       72.263       53.331       32.680     5222.008     2844.154     1067.984        0.482        0.457       18.518       20.421        1.216      332.915        1.890      859.606
12/08/2021  08:20:00      -38.302       -8.006        0.143       45.236       35.928       23.089     2046.258     1290.824      533.124        0.270        0.194       39.130       21.146        0.292      333.088        2.175      859.641
12/08/2021  08:21:00       71.860      -48.996      -38.276       66.352       74.875       52.381     4402.571     5606.305     2743.803        1.089        0.638       86.974       41.753        0.230      333.043        2.099      859.572
12/08/2021  08:22:00      106.443     -157.214      -46.066       50.418       63.589       34.959     2541.926     4043.534     1222.133        2.299        0.390      189.859       27.635        0.021      332.978        1.991      859.566
12/08/2021  08:23:00       92.537      -76.566      -29.295       61.162       86.447       29.931     3740.829     7473.092      895.886        1.369        0.605      120.106       35.428        0.087      333.131        2.245      859.584
12/08/2021  08:24:00       42.771        5.401      -14.343       60.715       65.811       41.093     3686.262     4331.095     1688.622        0.588        0.485       43.111       20.679        0.230      333.268        2.473      859.596
12/08/2021  08:25:00        0.982      -58.893      -14.106       41.012       32.388       29.171     1681.949     1048.981      850.948        0.362        0.179       58.901       12.088        0.042      333.033        2.085      859.703
12/08/2021  08:26:00       14.418       28.488       -9.715       38.681       37.355       28.296     1496.237     1395.371      800.649        0.240        0.185       31.929       22.702        0.506      333.132        2.247      859.786
12/08/2021  08:27:00       22.954      -14.264      -21.630       44.233       72.044       35.736     1956.580     5190.332     1277.097        0.481        0.421       27.025       23.036        0.727      333.221        2.394      859.758
12/08/2021  08:28:00       52.619      -32.284      -31.072       48.912       72.413       33.694     2392.412     5243.585     1135.265        0.677        0.439       61.733       22.432        0.132      333.279        2.490      859.699
12/08/2021  08:29:00      120.981        7.812      -14.851       46.687       42.331       26.093     2179.679     1791.934      680.826        0.978        0.233      121.232       16.016        0.017      333.012        2.049      859.668
12/08/2021  08:30:00       71.671       21.132      -14.764       27.590       24.001       19.892      761.189      576.051      395.694        0.377        0.087       74.722        5.737        0.006      332.946        1.940      859.696
12/08/2021  08:31:00      109.586       -7.463      -23.904       52.651       44.095       25.020     2772.145     1944.378      625.977        0.899        0.267      109.840       23.761        0.047      333.019        2.062      859.713
12/08/2021  08:32:00       50.595      -40.697      -21.285       68.587       64.295       53.378     4704.145     4133.898     2849.172        0.818        0.584       64.931       42.261        0.424      333.180        2.327      859.670
12/08/2021  08:33:00      146.725      -11.561      -34.989       42.852       45.761       30.809     1836.306     2094.025      949.215        1.388        0.244      147.179       22.659        0.024      332.965        1.972      859.637
12/08/2021  08:34:00       41.224       11.544      -14.614       41.957       44.484       30.351     1760.385     1978.807      921.190        0.335        0.233       42.810       22.897        0.286      333.219        2.392      859.638
12/08/2021  08:35:00      -16.560       -8.596        2.458       17.905       27.475       18.978      320.604      754.853      360.174        0.089        0.072       18.658        9.497        0.259      333.312        2.545      859.708
12/08/2021  08:36:00       11.576       22.958      -12.608       24.084       23.531       14.800      580.063      553.729      219.026        0.109        0.068       25.711        9.857        0.147      333.259        2.457      859.728
12/08/2021  08:37:00       10.130      -33.919      -17.483       28.990       54.549       29.479      840.416     2975.559      868.982        0.312        0.234       35.400       16.398        0.215      333.471        2.808      859.708
12/08/2021  08:38:00       68.592       17.624      -23.010       40.159       38.199       31.884     1612.726     1459.160     1016.619        0.482        0.204       70.820       17.964        0.064      333.321        2.560      859.696
12/08/2021  08:39:00       60.156       24.035      -22.552       35.125       41.341       27.750     1233.799     1709.086      770.035        0.421        0.186       64.780       24.818        0.147      333.252        2.446      859.700
12/08/2021  08:40:00       52.276       49.770      -17.233       37.830       39.118       24.320     1431.081     1530.185      591.482        0.453        0.178       72.179       10.935        0.023      333.209        2.374      859.672
12/08/2021  08:41:00       46.473      -40.162      -29.558       28.323       76.284       24.510      802.216     5819.200      600.722        0.593        0.361       61.422       14.927        0.059      333.270        2.477      859.646
12/08/2021  08:42:00       25.434      -86.584      -24.701       27.667       39.001       22.303      765.484     1521.105      497.438        0.577        0.139       90.242       20.500        0.052      333.476        2.816      859.666
12/08/2021  08:43:00       45.895      -84.020      -25.591       30.598       40.040       20.669      936.227     1603.229      427.215        0.639        0.148       95.738       15.485        0.026      333.276        2.486      859.735
12/08/2021  08:44:00       97.491     -108.849      -37.445       47.651       41.889       21.592     2270.663     1754.676      466.203        1.362        0.225      146.125       24.379        0.028      333.187        2.338      859.741
12/08/2021  08:45:00       41.904      -75.837      -26.782       51.693       62.962       29.612     2672.171     3964.203      876.890        0.787        0.376       86.644       34.540        0.159      333.352        2.611      859.714
12/08/2021  08:46:00       31.443      -54.843      -38.770       40.554       51.182       29.068     1644.603     2619.608      844.970        0.530        0.255       63.218       21.683        0.118      333.426        2.735      859.737
12/08/2021  08:47:00       50.113      -52.651      -35.157       46.076       59.237       33.859     2122.964     3509.007     1146.437        0.665        0.339       72.687       23.935        0.108      333.456        2.784      859.707
12/08/2021  08:48:00       84.575      -13.485      -30.623       63.204       47.824       37.323     3994.687     2287.107     1393.006        0.797        0.384       85.644       29.944        0.122      333.509        2.871      859.692
12/08/2021  08:49:00       49.726       11.787      -11.390       51.418       44.922       29.682     2643.796     2018.009      881.009        0.414        0.277       51.104       26.896        0.277      333.382        2.663      859.654
12/08/2021  08:50:00       52.176      -37.939      -16.446       39.475       42.487       25.706     1558.313     1805.171      660.785        0.423        0.201       64.512       12.643        0.038      333.654        3.110      859.629
12/08/2021  08:51:00        7.050      -12.080      -15.179       21.856       22.979       24.959      477.682      528.017      622.975        0.103        0.081       13.986       14.602        1.090      333.581        2.991      859.642
12/08/2021  08:52:00       77.624       20.286      -14.659       27.027       28.020       17.482      730.457      785.102      305.633        0.424        0.091       80.231       13.195        0.027      333.193        2.349      859.661
12/08/2021  08:53:00       58.108       12.353      -20.250       22.399       20.171       16.181      501.718      406.885      261.832        0.255        0.059       59.407        7.913        0.018      333.205        2.368      859.677
12/08/2021  08:54:00       44.807       21.359      -18.402       21.383       18.711       16.165      457.214      350.107      261.303        0.194        0.053       49.638        8.926        0.032      333.150        2.278      859.700
12/08/2021  08:55:00       24.782       -4.357      -12.739       28.904       37.667       26.824      835.435     1418.821      719.507        0.188        0.149       25.162       15.421        0.376      333.436        2.752      859.669
12/08/2021  08:56:00       30.990      -32.402      -25.134       27.481       35.042       26.427      755.227     1227.944      698.395        0.266        0.134       44.836       16.223        0.131      333.641        3.089      859.618
12/08/2021  08:57:00       49.514      -52.820      -40.412       33.727       41.158       30.549     1137.481     1693.991      933.242        0.532        0.188       72.399       11.696        0.026      333.610        3.038      859.621
12/08/2021  08:58:00       75.328       41.135      -30.319       47.482       40.732       25.515     2254.549     1659.064      651.026        0.642        0.228       85.827       23.984        0.078      333.421        2.726      859.637
12/08/2021  08:59:00       84.229       18.804      -20.371       37.477       28.797       15.659     1404.525      829.292      245.201        0.517        0.124       86.303        5.915        0.005      333.356        2.617      859.614
12/08/2021  09:00:00       41.760       52.915       -2.633       27.373       25.615       24.843      749.259      656.145      617.187        0.329        0.101       67.408       16.055        0.057      333.289        2.507      859.620
12/08/2021  09:01:00       24.778       27.708       -2.867       25.597       27.487       19.790      655.210      755.546      391.648        0.160        0.090       37.171        8.242        0.049      333.366        2.633      859.601
12/08/2021  09:02:00       62.165       -2.755      -10.310       27.294       29.323       13.507      744.951      859.841      182.450        0.288        0.089       62.226        6.627        0.011      333.322        2.561      859.568
12/08/2021  09:03:00       42.831       43.069      -14.844       25.768       17.552       17.047      664.006      308.068      290.596        0.259        0.063       60.741        6.862        0.013      333.315        2.549      859.530
12/08/2021  09:04:00      -75.968       26.107      -24.074       46.106       42.699       27.783     2125.746     1823.198      771.875        0.588        0.236       80.329       19.168        0.057      333.467        2.801      859.578
12/08/2021  09:05:00        0.995      -46.208      -13.796       25.041       28.750       18.645      627.064      826.549      347.620        0.206        0.090       46.219       15.045        0.106      333.512        2.876      859.594
12/08/2021  09:06:00       25.966       31.250      -17.170       29.921       43.055       23.047      895.280     1853.733      531.167        0.261        0.164       40.630       14.191        0.122      333.746        3.263      859.543
12/08/2021  09:07:00       65.753       58.887      -21.237       30.801       27.836       19.885      948.677      774.870      395.430        0.518        0.106       88.268       14.984        0.029      333.669        3.135      859.531
12/08/2021  09:08:00      -32.513       -8.452      -11.025       56.166       34.429       35.325     3154.627     1185.388     1247.857        0.342        0.279       33.594       38.602        1.320      333.769        3.302      859.630
12/08/2021  09:09:00      -39.366       -9.156       11.203       66.647       58.566       36.505     4441.857     3429.960     1332.589        0.548        0.460       40.416       23.893        0.349      333.999        3.682      859.717
12/08/2021  09:10:00      -22.477      -21.880       -4.779       66.061       36.001       27.682     4364.107     1296.083      766.299        0.372        0.321       31.368       22.060        0.495      333.867        3.464      859.698
12/08/2021  09:11:00       41.617        6.726      -32.348       36.952       60.922       35.937     1365.418     3711.471     1291.491        0.459        0.318       42.157       20.248        0.231      334.151        3.935      859.623
12/08/2021  09:12:00       67.794      -93.066      -33.545       44.444       53.890       35.171     1975.289     2904.101     1237.030        1.025        0.306      115.141       16.070        0.019      333.926        3.561      859.644
12/08/2021  09:13:00       25.587      -72.346      -19.387       23.936       54.945       24.437      572.952     3018.972      597.149        0.523        0.209       76.738       14.429        0.035      334.008        3.697      859.713
12/08/2021  09:14:00        8.270       -4.827        0.064       19.858       22.371       13.564      394.329      500.484      183.973        0.059        0.054        9.576       10.136        1.120      334.233        4.070      859.744
12/08/2021  09:15:00      -17.506        3.530       -9.750       22.320       22.869       19.211      498.198      522.987      369.073        0.090        0.070       17.859       10.241        0.329      334.111        3.869      859.682
12/08/2021  09:16:00        1.590        3.975       -4.517       25.863       26.394       19.904      668.887      696.619      396.160        0.090        0.088        4.281       10.798        6.362      334.147        3.927      859.608
12/08/2021  09:17:00       56.247      -61.257      -24.651       31.386       48.570       21.826      985.096     2359.061      476.387        0.567        0.191       83.163       23.093        0.077      334.208        4.029      859.584
12/08/2021  09:18:00       72.644     -121.941      -31.147       37.178       32.507       21.302     1382.223     1056.722      453.779        1.200        0.145      141.939       18.374        0.017      334.113        3.872      859.643
12/08/2021  09:19:00       10.026      -70.373      -30.969       31.208       38.315       24.877      973.911     1468.023      618.883        0.454        0.153       71.083       10.480        0.022      334.320        4.215      859.763
12/08/2021  09:20:00      -28.806      -64.257      -30.095       41.340       45.406       26.953     1708.978     2061.712      726.451        0.518        0.225       70.418       12.466        0.031      334.324        4.220      859.799
12/08/2021  09:21:00      -22.180       -7.406      -11.066       27.159       12.804       23.269      737.596      163.953      541.458        0.106        0.072       23.384       21.746        0.865      334.267        4.126      859.794
12/08/2021  09:22:00      -18.488      -17.137       -5.809       22.631       27.972       20.210      512.143      782.445      408.426        0.119        0.085       25.209       18.219        0.522      334.326        4.225      859.780
12/08/2021  09:23:00       -0.928       -8.651        0.958       13.533       14.882       12.790      183.137      221.485      163.578        0.032        0.028        8.700        5.939        0.466      334.586        4.656      859.761
12/08/2021  09:24:00        3.815       48.314        2.731       25.838       17.080       19.480      667.588      291.726      379.472        0.185        0.067       48.465       11.650        0.058      334.222        4.051      859.706
12/08/2021  09:25:00      -58.618       41.375      -12.670       49.996       22.019       15.376     2499.595      484.831      236.415        0.426        0.161       71.750       18.021        0.063      334.109        3.867      859.712
12/08/2021  09:26:00      -13.875      -29.189       -1.350       43.855       35.786       26.339     1923.219     1280.604      693.762        0.247        0.195       32.319       22.895        0.502      334.378        4.309      859.743
12/08/2021  09:27:00       17.047      -43.588      -11.628       40.924       38.266       31.004     1674.749     1464.306      961.222        0.321        0.205       46.803       14.674        0.098      334.516        4.539      859.658
12/08/2021  09:28:00       25.622       -0.198      -14.404       44.290       50.032       33.047     1961.625     2503.188     1092.095        0.321        0.278       25.623       25.020        0.954      334.592        4.666      859.598
12/08/2021  09:29:00       19.312      -31.476      -25.874       32.271       45.886       24.553     1041.399     2105.531      602.843        0.289        0.187       36.928       10.847        0.086      334.646        4.755      859.575
12/08/2021  09:30:00       -1.911      -65.628      -30.137       48.814       30.328       24.172     2382.821      919.763      584.280        0.455        0.194       65.656       22.296        0.115      334.408        4.360      859.581
12/08/2021  09:31:00       66.732      -29.272      -32.878       57.886       61.022       51.813     3350.826     3723.685     2684.604        0.807        0.488       72.869       36.072        0.245      334.446        4.422      859.558
12/08/2021  09:32:00       68.103       -8.333      -31.972       72.512       67.961       51.200     5257.953     4618.668     2621.479        0.911        0.625       68.611       43.306        0.398      334.210        4.031      859.542
12/08/2021  09:33:00       83.808      -21.528       -9.938       53.988       41.406       28.821     2914.746     1714.438      830.653        0.652        0.273       86.529       25.920        0.090      334.141        3.917      859.589
12/08/2021  09:34:00       73.089       20.984      -20.561       38.977       58.099       29.336     1519.176     3375.514      860.625        0.598        0.288       76.042       18.969        0.062      334.290        4.165      859.611
12/08/2021  09:35:00        8.045        1.293       -5.917       29.663       34.311       30.147      879.905     1177.238      908.854        0.153        0.148        8.148       15.706        3.715      334.325        4.222      859.593
12/08/2021  09:36:00       65.793       53.352      -15.758       76.608       45.726       25.399     5868.820     2090.822      645.109        0.801        0.430       84.706       27.680        0.107      334.187        3.994      859.636
12/08/2021  09:37:00      175.863       59.704      -16.806       37.326       40.064       24.090     1393.262     1605.135      580.337        1.918        0.179      185.721       11.904        0.004      333.985        3.659      859.613
12/08/2021  09:38:00      124.286       28.525      -22.448       50.401       47.291       29.686     2540.264     2236.426      881.257        1.121        0.283      127.518       11.270        0.008      334.065        3.793      859.574
12/08/2021  09:39:00       67.819      -17.882      -10.374       54.736       49.470       31.348     2995.980     2447.296      982.693        0.573        0.321       70.136       26.884        0.147      334.144        3.922      859.583
12/08/2021  09:40:00       63.014      -27.897      -12.130       56.821       57.405       56.899     3228.574     3295.326     3237.546        0.733        0.488       68.913       39.571        0.330      334.286        4.158      859.579
12/08/2021  09:41:00      100.870     -103.250      -31.868       58.935       60.908       35.590     3473.338     3709.800     1266.656        1.515        0.422      144.345       40.422        0.078      334.021        3.718      859.631
12/08/2021  09:42:00      134.723      -77.073      -31.294       26.961       42.168       29.036      726.921     1778.102      843.087        1.421        0.167      155.211       26.113        0.028      333.865        3.461      859.701
12/08/2021  09:43:00      121.927      -19.231      -17.384       41.437       46.659       31.753     1717.057     2177.100     1008.285        1.022        0.245      123.434       22.429        0.033      333.959        3.616      859.692
12/08/2021  09:44:00       51.735      -15.906       -4.110       56.359       26.069       33.226     3176.320      679.573     1103.996        0.395        0.248       54.125       29.001        0.287      334.063        3.789      859.677
12/08/2021  09:45:00       50.133      -47.562      -17.706       31.310       39.676       25.240      980.331     1574.220      637.069        0.414        0.160       69.104       21.261        0.095      334.032        3.738      859.713
12/08/2021  09:46:00       90.084      -47.808      -23.885       49.174       48.176       23.664     2418.041     2320.964      559.965        0.813        0.265      101.984       20.967        0.042      334.059        3.781      859.769
12/08/2021  09:47:00      108.067      -17.164      -20.608       98.223       60.734       54.198     9647.787     3688.650     2937.385        1.433        0.814      109.422       55.399        0.256      334.028        3.728      859.664
12/08/2021  09:48:00       75.192      -52.530      -18.432       74.452       79.005       49.734     5543.172     6241.824     2473.440        1.150        0.713       91.723       40.786        0.198      334.173        3.970      859.636
12/08/2021  09:49:00      106.635      -25.785      -15.083       65.203       63.633       44.694     4251.371     4049.213     1997.523        1.128        0.515      109.708       32.176        0.086      334.116        3.876      859.627
12/08/2021  09:50:00       31.536        4.499      -12.954       45.662       26.069       21.289     2084.989      679.593      453.213        0.220        0.161       31.855        9.200        0.083      334.199        4.014      859.680
12/08/2021  09:51:00       52.100        6.384      -20.974       29.442       37.600       24.652      866.847     1413.775      607.732        0.304        0.144       52.490       13.222        0.063      334.331        4.231      859.672
12/08/2021  09:52:00       72.745       28.239       -1.364       76.416       69.399       31.688     5839.409     4816.154     1004.149        0.887        0.583       78.034       31.823        0.166      334.340        4.248      859.601
12/08/2021  09:53:00       77.752       18.211      -24.879       54.500       48.984       29.243     2970.250     2399.418      855.161        0.661        0.311       79.856       24.928        0.097      334.141        3.916      859.613
12/08/2021  09:54:00       47.458      -40.194       -9.233       63.193       56.630       52.931     3993.385     3206.905     2801.691        0.698        0.500       62.191       44.362        0.509      334.291        4.167      859.580
12/08/2021  09:55:00       87.625     -105.023      -35.967       47.603       79.883       39.437     2266.055     6381.231     1555.309        1.510        0.510      136.777       29.980        0.048      334.248        4.094      859.610
12/08/2021  09:56:00       47.129      -19.492       -9.092       53.021       49.627       26.297     2811.255     2462.827      691.524        0.432        0.298       51.001       29.964        0.345      334.264        4.120      859.598
12/08/2021  09:57:00       62.922       33.398      -19.471       44.095       25.218       22.972     1944.386      635.964      527.709        0.428        0.155       71.236       20.902        0.086      334.198        4.013      859.545
12/08/2021  09:58:00       45.516      -32.386      -11.838       43.083       59.828       34.426     1856.146     3579.428     1185.125        0.494        0.331       55.862       21.233        0.144      334.541        4.581      859.471
12/08/2021  09:59:00       37.915      -29.550      -15.974       28.889       26.325       25.186      834.575      692.999      634.310        0.236        0.108       48.070       21.358        0.197      334.573        4.635      859.523
12/08/2021  10:00:00      121.590       35.851      -21.980       36.366       18.301       18.606     1322.452      334.940      346.178        0.928        0.100      126.765       12.065        0.009      334.386        4.324      859.459
12/08/2021  10:01:00       43.583       -7.400       -2.719       54.799       35.112       25.992     3002.970     1232.829      675.588        0.344        0.246       44.207       28.452        0.414      334.770        4.962      859.400
12/08/2021  10:02:00       58.687      -18.282      -19.382       38.192       47.801       33.122     1458.665     2284.945     1097.068        0.450        0.242       61.468       31.255        0.259      334.815        5.036      859.442
12/08/2021  10:03:00       73.983      -42.929      -51.361       39.158       64.504       31.607     1533.375     4160.764      998.994        0.832        0.335       85.535       12.267        0.021      334.816        5.038      859.430
12/08/2021  10:04:00       -2.317      -21.069      -19.136       52.453       47.792       49.204     2751.299     2284.051     2421.015        0.413        0.373       21.196       38.671        3.329      335.044        5.415      859.380
12/08/2021  10:05:00       59.497     -132.208      -21.625       37.479       64.240       31.147     1404.682     4126.751      970.151        1.399        0.325      144.979       29.596        0.042      334.800        5.012      859.413
12/08/2021  10:06:00       95.722       17.249      -19.016       49.449       51.218       32.351     2445.219     2623.272     1046.596        0.797        0.306       97.264       16.996        0.031      334.798        5.008      859.409
12/08/2021  10:07:00       90.510        2.278       -5.939       50.058       32.224       21.085     2505.814     1038.399      444.561        0.611        0.199       90.539        9.755        0.012      334.640        4.744      859.441
12/08/2021  10:08:00       49.462       33.228      -10.319       43.075       27.732       23.747     1855.478      769.068      563.927        0.342        0.159       59.587        9.908        0.028      334.712        4.865      859.419
12/08/2021  10:09:00       88.735       31.235      -28.399       54.269       44.018       23.772     2945.175     1937.622      565.120        0.755        0.272       94.072       16.661        0.031      334.840        5.079      859.367
12/08/2021  10:10:00       29.519      -25.908      -12.623       20.702       29.600       18.572      428.584      876.187      344.932        0.168        0.082       39.276       14.545        0.137      334.956        5.273      859.374
12/08/2021  10:11:00       46.429     -101.563      -29.671       56.974       64.579       31.106     3245.998     4170.418      967.571        1.087        0.419      111.672       20.354        0.033      335.111        5.529      859.402
12/08/2021  10:12:00       87.417      -86.566      -26.009       51.266       75.650       40.366     2628.199     5722.859     1629.417        1.289        0.499      123.026       36.761        0.089      334.981        5.313      859.407
12/08/2021  10:13:00      138.126     -133.628      -39.011       80.052       82.595       47.375     6408.381     6821.903     2244.428        2.696        0.774      192.185       49.869        0.067      334.797        5.003      859.380
12/08/2021  10:14:00       93.364     -141.691      -38.050       46.881       57.596       38.242     2197.810     3317.242     1462.426        1.861        0.349      169.686       31.875        0.035      334.900        5.178      859.463
12/08/2021  10:15:00       52.791      -84.150      -21.592       56.063       75.081       35.050     3143.026     5637.115     1228.485        1.017        0.500       99.339       28.943        0.085      334.889        5.159      859.473
12/08/2021  10:16:00       80.681     -157.820      -35.981       21.503       38.750       27.789      462.384     1501.544      772.228        1.772        0.137      177.247       20.783        0.014      334.576        4.638      859.475
12/08/2021  10:17:00      101.068     -104.138      -48.728       33.247       67.528       23.208     1105.362     4560.083      538.600        1.482        0.310      145.119       12.486        0.007      334.611        4.697      859.415
12/08/2021  10:18:00       38.729      -35.577      -12.199       33.820       60.952       32.171     1143.790     3715.112     1034.960        0.440        0.295       52.589       28.485        0.293      334.986        5.320      859.392
12/08/2021  10:19:00       74.285       -3.547      -27.963       48.585       35.313       27.482     2360.495     1247.029      755.281        0.534        0.218       74.369       22.786        0.094      334.752        4.932      859.424
12/08/2021  10:20:00      142.581      -24.550      -25.764       70.882       43.914       30.464     5024.303     1928.432      928.040        1.474        0.394      144.680       36.114        0.062      334.692        4.832      859.409
12/08/2021  10:21:00       41.907       -0.083       -4.200       76.572       49.532       46.841     5863.278     2453.468     2194.105        0.614        0.526       41.907       46.141        1.212      334.758        4.942      859.350
12/08/2021  10:22:00      125.857       34.239      -26.599       55.724       52.082       26.525     3105.133     2712.551      703.588        1.212        0.326      130.431       22.091        0.029      334.627        4.724      859.378
12/08/2021  10:23:00       77.425       15.361      -19.274       66.371       41.446       29.586     4405.126     1717.762      875.355        0.680        0.350       78.934       27.095        0.118      334.746        4.921      859.381
12/08/2021  10:24:00       91.358      -18.945      -29.843       79.020       68.115       45.190     6244.142     4639.651     2042.172        1.126        0.646       93.301       30.929        0.110      334.978        5.307      859.336
12/08/2021  10:25:00       99.766       13.976      -31.622       67.410       74.474       49.083     4544.063     5546.357     2409.144        1.182        0.625      100.741       38.902        0.149      335.005        5.352      859.299
12/08/2021  10:26:00       20.439      -38.587      -20.053       57.447       51.638       39.914     3300.176     2666.466     1593.090        0.493        0.378       43.666       28.873        0.437      335.083        5.482      859.333
12/08/2021  10:27:00      -31.951      -20.659      -26.230       35.708       24.557       17.690     1275.062      603.022      312.924        0.216        0.110       38.048       12.741        0.112      335.088        5.489      859.399
12/08/2021  10:28:00       -8.971        9.238      -15.136       44.205       42.539       24.821     1954.063     1809.528      616.087        0.239        0.219       12.877       18.486        2.061      335.109        5.525      859.386
12/08/2021  10:29:00       12.256      -13.852      -15.843       50.222       38.173       18.269     2522.259     1457.167      333.744        0.245        0.216       18.496       18.672        1.019      335.093        5.497      859.374
12/08/2021  10:30:00       74.836      -71.419      -30.516       29.438       38.827       17.623      866.597     1507.543      310.569        0.716        0.134      103.446       15.680        0.023      334.894        5.168      859.385
12/08/2021  10:31:00       79.866     -171.202      -32.190       26.114       47.244       20.112      681.936     2231.968      404.482        2.002        0.166      188.915       16.555        0.008      334.887        5.155      859.370
12/08/2021  10:32:00       77.514      -22.492      -31.944       43.689       88.652       30.523     1908.751     7859.197      931.675        0.912        0.535       80.711       28.177        0.122      335.128        5.555      859.372
12/08/2021  10:33:00       48.748      -45.736      -22.210       71.786       41.383       48.620     5153.179     1712.523     2363.872        0.709        0.461       66.844       40.474        0.367      335.079        5.475      859.279
12/08/2021  10:34:00      104.101       33.598      -15.722       47.184       40.011       29.449     2226.356     1600.847      867.265        0.845        0.235      109.389       25.885        0.056      334.912        5.198      859.296
12/08/2021  10:35:00      142.754       60.817      -35.498       40.894       31.134       24.967     1672.314      969.347      623.351        1.430        0.163      155.169       19.558        0.016      334.888        5.158      859.316
12/08/2021  10:36:00       56.564       -4.137      -31.741       81.058       69.454       54.315     6570.402     4823.855     2950.096        0.928        0.717       56.715       20.755        0.134      335.300        5.840      859.231
12/08/2021  10:37:00      120.085       25.458      -29.199       86.627       77.182       37.882     7504.211     5957.093     1435.013        1.541        0.745      122.754       27.303        0.049      335.146        5.585      859.205
12/08/2021  10:38:00       -3.197        4.919       -3.101       53.871       54.477       46.725     2902.071     2967.773     2183.229        0.405        0.403        5.866       30.968       27.868      335.343        5.914      859.189
12/08/2021  10:39:00       61.111       -7.351      -14.962       82.046       47.482       33.550     6731.473     2254.585     1125.626        0.706        0.506       61.552       18.687        0.092      335.260        5.775      859.188
12/08/2021  10:40:00      192.564       -8.534      -19.260      114.071       74.054       56.375    13012.103     5483.946     3178.177        2.960        1.084      192.753       23.902        0.015      335.198        5.670      859.118
12/08/2021  10:41:00      110.037      -47.141      -26.617       82.814       79.892       60.394     6858.170     6382.786     3647.477        1.596        0.844      119.710       47.325        0.156      335.378        5.971      859.101
12/08/2021  10:42:00      144.677      -55.166      -25.984      105.891       86.391       73.526    11212.870     7463.456     5406.039        2.436        1.204      154.838       57.096        0.136      335.288        5.822      859.088
12/08/2021  10:43:00       96.604      -13.132       -6.353      105.076       80.261       77.718    11040.868     6441.901     6040.162        1.653        1.176       97.493       68.004        0.487      335.358        5.938      859.090
12/08/2021  10:44:00       71.659      -34.522      -18.781       97.344       72.511       55.300     9475.884     5257.861     3058.055        1.223        0.890       79.541       42.590        0.287      335.608        6.354      859.108
12/08/2021  10:45:00      143.586      -65.060      -28.766       95.917       83.160       52.777     9200.100     6915.541     2785.451        2.229        0.945      157.638       45.386        0.083      335.585        6.316      859.106
12/08/2021  10:46:00      141.339      -26.331       -8.472      119.683       74.253       62.931    14323.984     5513.442     3960.257        2.227        1.190      143.771       58.825        0.167      335.520        6.206      859.093
12/08/2021  10:47:00      169.101      -18.035      -27.101       78.920       81.387       59.596     6228.422     6623.865     3551.659        2.303        0.820      170.060       36.686        0.047      335.477        6.135      859.095
12/08/2021  10:48:00       40.240       -0.966       -8.806       69.935       68.213       43.950     4890.876     4653.054     1931.606        0.658        0.574       40.252       39.477        0.962      335.660        6.442      859.038
12/08/2021  10:49:00       57.032        6.104      -16.538       84.626       55.836       26.059     7161.633     3117.612      679.060        0.726        0.548       57.358       19.206        0.112      335.706        6.518      859.092
12/08/2021  10:50:00       75.550     -179.361      -41.347       42.705       61.903       35.167     1823.684     3831.970     1236.733        2.324        0.345      194.623       21.910        0.013      335.743        6.577      859.147
12/08/2021  10:51:00       97.377     -159.476      -42.808       36.129       81.164       30.787     1305.309     6587.648      947.855        2.279        0.442      186.855       20.904        0.013      335.696        6.500      859.135
12/08/2021  10:52:00       96.126     -104.411      -36.123       49.194      118.117       32.732     2420.001    13951.525     1071.386        1.944        0.872      141.922       25.939        0.033      335.758        6.602      859.112
12/08/2021  10:53:00      133.271      -55.868      -24.548       69.424       57.715       43.638     4819.734     3331.016     1904.296        1.577        0.503      144.507       35.744        0.061      335.625        6.382      859.062
12/08/2021  10:54:00       72.372      -24.379      -12.227       43.028       37.217       25.435     1851.398     1385.076      646.937        0.493        0.194       76.367       20.210        0.070      335.766        6.619      859.034
12/08/2021  10:55:00      165.770      -28.786      -32.391      103.087       72.844       59.692    10627.023     5306.260     3563.084        2.442        0.975      168.251       50.527        0.090      335.758        6.602      859.031
12/08/2021  10:56:00      114.073      -40.692      -20.195       97.209       64.766       56.154     9449.527     4194.576     3153.220        1.593        0.840      121.113       52.038        0.185      335.862        6.778      859.049
12/08/2021  10:57:00       36.710      -65.894      -33.286       80.036       86.608       39.658     6405.833     7500.908     1572.723        1.114        0.774       75.430       37.657        0.249      336.232        7.395      859.069
12/08/2021  10:58:00       33.417      -86.384      -42.815       90.536       56.580       50.028     8196.755     3201.288     2502.753        1.215        0.695       92.622       49.707        0.288      336.323        7.548      859.048
12/08/2021  10:59:00       35.800      -90.441      -10.801       55.499       58.467       39.269     3080.101     3418.359     1542.031        0.881        0.402       97.269       29.109        0.090      336.291        7.494      859.074
12/08/2021  11:00:00      110.130     -125.037      -26.843       69.848       67.569       46.342     4878.769     4565.603     2147.609        2.004        0.580      166.622       43.366        0.068      336.200        7.341      859.079
12/08/2021  11:01:00       89.404     -142.187      -36.146       60.886       77.191       48.427     3707.077     5958.459     2345.215        2.076        0.601      167.959       33.819        0.041      336.213        7.363      859.085
12/08/2021  11:02:00       83.359     -203.657      -48.604       60.540       96.872       39.676     3665.131     9384.125     1574.180        3.270        0.731      220.057       39.473        0.032      336.098        7.170      859.093
12/08/2021  11:03:00      142.800     -329.605      -62.046       61.319       74.160       41.069     3760.019     5499.682     1686.680        7.191        0.547      359.209       29.598        0.007      335.796        6.663      859.033
12/08/2021  11:04:00      144.009     -225.702      -41.331      106.573      143.919       66.203    11357.838    20712.618     4382.826        5.491        1.823      267.731       60.909        0.052      335.964        6.946      859.013
12/08/2021  11:05:00       94.091     -174.570      -39.910       65.674      111.977       53.614     4313.101    12538.876     2874.416        3.032        0.986      198.312       49.053        0.061      336.039        7.069      859.017
12/08/2021  11:06:00       92.435     -109.404      -46.504       54.026       98.153       31.505     2918.792     9633.976      992.535        1.811        0.677      143.225       19.109        0.018      336.164        7.280      859.047
12/08/2021  11:07:00        4.727      -17.578      -16.274       76.610       81.270       51.004     5869.124     6604.878     2601.373        0.783        0.754       18.203       18.537        1.037      336.438        7.741      858.993
12/08/2021  11:08:00       73.200     -142.156      -16.088       72.047      114.262       55.928     5190.821    13055.777     3127.941        2.360        1.069      159.896       56.794        0.126      336.173        7.296      859.023
12/08/2021  11:09:00       91.988     -182.129      -16.444       57.005       92.478       51.420     3249.616     8552.189     2643.997        2.817        0.722      204.041       34.907        0.029      336.214        7.363      859.068
12/08/2021  11:10:00       71.278      -87.956      -46.979       89.537       84.627       57.747     8016.913     7161.743     3334.663        1.677        0.926      113.212       39.047        0.119      336.398        7.672      859.006
12/08/2021  11:11:00       70.647      -43.142      -15.915       92.643       83.993       48.609     8582.714     7054.866     2362.860        1.255        0.900       82.778       42.634        0.265      336.349        7.591      858.966
12/08/2021  11:12:00       29.182      -14.617      -22.158       90.483       70.217       40.846     8187.226     4930.493     1668.390        0.817        0.739       32.638       31.894        0.955      336.509        7.859      858.950
12/08/2021  11:13:00       97.021     -242.689      -55.357       63.475       81.349       29.354     4029.015     6617.608      861.685        4.144        0.575      261.364       33.813        0.017      336.385        7.646      858.959
12/08/2021  11:14:00      163.346     -305.718      -61.761       52.821       72.345       37.619     2790.065     5233.837     1415.197        6.670        0.472      346.620       33.388        0.009      336.156        7.266      858.943
12/08/2021  11:15:00      131.692     -227.711      -48.472       65.616       66.674       29.664     4305.405     4445.482      879.959        4.059        0.482      263.050       25.399        0.009      336.344        7.578      858.934
12/08/2021  11:16:00      101.407     -187.607      -41.446       73.309      110.288       52.456     5374.143    12163.541     2751.634        3.374        1.014      213.260       50.068        0.055      336.532        7.893      858.882
12/08/2021  11:17:00       60.274     -179.837      -33.752       63.980       75.372       39.990     4093.466     5680.965     1599.211        2.424        0.569      189.669       34.718        0.034      336.590        7.992      858.901
12/08/2021  11:18:00       27.796      -49.700      -10.151       70.888       90.753       54.721     5025.076     8236.135     2994.342        0.980        0.813       56.945       25.733        0.204      336.663        8.116      858.889
12/08/2021  11:19:00      -20.741     -114.028      -29.910       78.583       80.942       47.418     6175.337     6551.599     2248.503        1.465        0.749      115.899       30.888        0.071      336.725        8.219      858.897
12/08/2021  11:20:00       15.591      -74.211       -3.764       34.364       66.815       38.497     1180.870     4464.305     1481.987        0.644        0.356       75.831       33.099        0.191      337.049        8.761      858.953
12/08/2021  11:21:00       57.342     -127.406      -35.733       51.190       58.932       34.058     2620.403     3472.956     1159.957        1.402        0.363      139.715       29.404        0.044      336.698        8.173      858.917
12/08/2021  11:22:00        0.856        1.626       -7.526       22.741       48.905       21.002      517.161     2391.706      441.092        0.170        0.167        1.837       16.906       84.665      336.919        8.545      858.894
12/08/2021  11:23:00      -44.914       -9.964       -5.157       38.389       29.605       19.052     1473.743      876.454      362.995        0.243        0.136       46.006       18.834        0.168      337.074        8.803      858.900
12/08/2021  11:24:00      -37.228        1.136      -20.354       35.493       20.143       14.266     1259.765      405.734      203.521        0.183        0.093       37.246        7.795        0.044      337.036        8.739      858.916
12/08/2021  11:25:00        4.973      -50.549      -19.677       15.453       46.263       14.196      238.793     2140.231      201.531        0.277        0.129       50.793       13.324        0.069      337.105        8.854      858.946
12/08/2021  11:26:00      -66.879       26.138      -11.148       32.384       22.465       19.907     1048.727      504.666      396.308        0.361        0.097       71.806       16.559        0.053      337.178        8.977      858.968
12/08/2021  11:27:00      -98.589       23.178       -3.918       55.875       46.889       21.516     3122.012     2198.563      462.932        0.803        0.289      101.277       18.291        0.033      337.223        9.052      858.953
12/08/2021  11:28:00      -42.803      -19.087      -17.361       26.923       31.172       29.898      724.861      971.702      893.920        0.254        0.130       46.865       21.423        0.209      337.275        9.140      858.912
12/08/2021  11:29:00      -75.668       -4.602       -5.530       51.907       30.458       18.721     2694.311      927.711      350.484        0.487        0.199       75.808       18.115        0.057      337.275        9.140      858.899
12/08/2021  11:30:00      -43.381       -6.719       -2.271       34.823       27.520       33.815     1212.663      757.369     1143.454        0.252        0.156       43.898       24.070        0.301      337.474        9.474      858.877
12/08/2021  11:31:00       22.295      -56.593      -18.963       53.248       43.440       20.725     2835.397     1887.030      429.507        0.460        0.258       60.826       11.511        0.036      337.245        9.090      858.867
12/08/2021  11:32:00      -51.938      -36.807      -27.432       51.667       44.402       30.746     2669.499     1971.574      945.335        0.519        0.279       63.658       13.771        0.047      337.409        9.363      858.857
12/08/2021  11:33:00      -50.503      -21.486      -15.456       27.339       37.341       21.118      747.405     1394.321      445.972        0.292        0.129       54.883       19.620        0.128      337.445        9.424      858.860
12/08/2021  11:34:00       -1.862      -13.765       -1.016       26.789       24.260       16.954      717.632      588.525      287.451        0.089        0.080       13.890       12.621        0.826      337.838       10.081      858.848
12/08/2021  11:35:00       91.815     -117.171      -49.621       47.693       52.166       22.642     2274.659     2721.315      512.644        1.506        0.275      148.859       18.510        0.015      337.455        9.441      858.804
12/08/2021  11:36:00       17.535      -61.617      -26.454       51.391       58.655       26.863     2641.042     3440.384      721.623        0.580        0.340       64.063       25.264        0.156      337.485        9.491      858.788
12/08/2021  11:37:00      -51.704       13.740      -16.871       54.302       43.821       23.461     2948.714     1920.320      550.420        0.428        0.271       53.499       22.474        0.176      337.741        9.921      858.810
12/08/2021  11:38:00      -36.060      -25.533      -17.107       35.216       31.096       22.940     1240.194      966.987      526.255        0.249        0.137       44.184        9.515        0.046      337.577        9.645      858.806
12/08/2021  11:39:00      -17.362      -22.976      -23.886       68.196       55.473       23.362     4650.719     3077.244      545.783        0.484        0.414       28.798       17.187        0.356      337.479        9.479      858.801
12/08/2021  11:40:00     -134.099        4.405      -29.113       94.664       89.023       55.803     8961.201     7925.070     3113.967        1.942        1.000      134.171       62.699        0.218      337.617        9.711      858.830
12/08/2021  11:41:00     -189.850       -6.596      -27.962      125.382       93.121       59.541    15720.770     8671.562     3545.138        3.240        1.397      189.965       40.461        0.045      338.310       10.872      858.861
12/08/2021  11:42:00     -187.061       33.729       -0.574      127.861      101.410       59.686    16348.362    10283.929     3562.428        3.316        1.510      190.078       38.737        0.042      338.553       11.279      858.795
12/08/2021  11:43:00     -294.322      -55.149      -27.779      213.791      163.350       84.294    45706.746    26683.218     7105.542        8.495        3.975      299.444       74.212        0.061      338.527       11.236      858.791
12/08/2021  11:44:00     -276.804      -59.641      -22.827      219.202      131.702      107.411    48049.435    17345.302    11537.049        7.880        3.847      283.157      111.138        0.154      338.562       11.294      858.754
12/08/2021  11:45:00     -128.382      -15.794        3.644      164.936      109.046       92.506    27203.845    11891.095     8557.276        3.219        2.383      129.350       86.241        0.445      338.763       11.636      858.753
12/08/2021  11:46:00     -407.974      158.683      -14.664      272.376      171.457      100.755    74188.867    29397.455    10151.472       15.277        5.687      437.747       83.655        0.037      338.594       11.349      858.764
12/08/2021  11:47:00     -350.295       98.234      -24.217      224.594      189.237       99.998    50442.251    35810.492     9999.612       11.458        4.813      363.808       96.552        0.070      338.677       11.487      858.767
12/08/2021  11:48:00     -607.860        6.782      -24.928      296.781      171.693      124.345    88078.731    29478.426    15461.573       25.157        6.651      607.898      139.175        0.052      338.452       11.108      858.721
12/08/2021  11:49:00     -318.557       20.206      -14.703      230.472      163.144       91.171    53117.250    26615.812     8312.235        9.506        4.402      319.198       69.759        0.048      338.427       11.069      858.687
12/08/2021  11:50:00     -315.735       65.803      -13.677      240.741      117.926       79.688    57956.445    13906.605     6350.193        9.119        3.911      322.519       82.562        0.066      338.586       11.334      858.689
12/08/2021  11:51:00     -395.104       58.457      -22.541      239.387      143.475       89.715    57306.260    20584.967     8048.747       12.297        4.297      399.405       93.128        0.054      338.601       11.361      858.670
12/08/2021  11:52:00     -353.777       -8.120       -5.768      278.895      155.438      123.085    77782.339    24160.821    15150.019       12.115        5.855      353.870      114.811        0.105      338.485       11.166      858.628
12/08/2021  11:53:00     -433.067       54.940        4.745      289.307      148.467      111.874    83698.253    22042.506    12515.882       15.440        5.913      436.538      132.736        0.092      338.489       11.172      858.644
12/08/2021  11:54:00     -356.816       11.332        1.312      275.366      132.104      110.229    75826.393    17451.487    12150.400       11.642        5.271      356.996      127.262        0.127      338.565       11.300      858.661
12/08/2021  11:55:00     -233.234      -10.963       -6.547      240.686      130.243       96.963    57929.647    16963.189     9401.788        6.941        4.215      233.492       98.708        0.179      338.628       11.405      858.658
12/08/2021  11:56:00     -400.471       26.420      -30.906      206.240      134.384       93.791    42535.019    18058.947     8796.689       11.570        3.470      401.342       91.861        0.052      338.682       11.495      858.654
12/08/2021  11:57:00     -289.195        9.207      -26.694      193.226      145.428       89.943    37336.306    21149.366     8089.716        7.549        3.329      289.341       80.838        0.078      338.762       11.631      858.678
12/08/2021  11:58:00     -468.361      119.318        0.495      244.727      160.406       90.153    59891.355    25730.211     8127.545       16.366        4.687      483.320       96.494        0.040      338.642       11.430      858.672
12/08/2021  11:59:00     -405.317      178.772       11.175      243.261      151.891      113.154    59176.056    23070.861    12803.863       14.569        4.753      442.991      106.791        0.058      338.692       11.513      858.682
12/08/2021  12:00:00     -324.250      156.263       15.783      222.761      185.692      111.606    49622.641    34481.552    12456.006       11.316        4.828      359.939      115.551        0.103      338.724       11.567      858.681
12/08/2021  12:01:00     -461.994       62.884      -38.980      298.442      213.308      127.084    89067.754    45500.453    16150.387       18.479        7.536      466.254      116.720        0.063      338.413       11.044      858.701
12/08/2021  12:02:00     -258.899      146.464       -5.203      238.648      159.211      112.192    56952.746    25348.087    12587.096        9.168        4.744      297.457       89.699        0.091      338.516       11.217      858.702
12/08/2021  12:03:00     -523.674      159.191      -19.818      283.679      180.304      110.029    80473.686    32509.354    12106.445       21.251        6.254      547.336      112.974        0.043      338.412       11.044      858.728
12/08/2021  12:04:00     -328.960       20.187      -36.718      246.608      226.735      125.755    60815.307    51408.565    15814.242       11.898        6.402      329.579      122.045        0.137      338.481       11.158      858.753
12/08/2021  12:05:00     -440.047      100.086      -36.251      312.346      178.995      135.919    97559.785    32039.101    18473.969       17.650        7.404      451.286      122.024        0.073      338.426       11.066      858.761
12/08/2021  12:06:00     -522.701       55.120      -44.799      280.644      225.961      116.762    78761.307    51058.596    13633.316       21.083        7.173      525.599       84.795        0.026      338.404       11.028      858.746
12/08/2021  12:07:00     -265.847       35.998       20.204      224.989      147.432      107.020    50620.116    21736.240    11453.359        7.808        4.190      268.273       97.975        0.133      338.521       11.227      858.774
12/08/2021  12:08:00     -262.283       11.759       18.454      274.472      208.162      119.506    75334.993    43331.597    14281.705       10.109        6.647      262.546      122.865        0.219      338.458       11.119      858.772
12/08/2021  12:09:00     -487.457       44.691      -41.521      299.614      213.917      139.120    89768.647    45760.535    19354.461       19.808        7.744      489.501      120.212        0.060      338.334       10.912      858.788
12/08/2021  12:10:00     -364.079        6.908      -17.018      301.092      189.538      119.579    90656.138    35924.834    14299.140       13.686        7.044      364.145      130.524        0.128      338.348       10.935      858.797
12/08/2021  12:11:00     -593.111       -6.250      -25.848      379.024      190.600      136.979   143659.015    36328.526    18763.314       27.558        9.938      593.144      129.523        0.048      338.198       10.682      858.783
12/08/2021  12:12:00     -228.321       34.697       -7.378      254.290      199.883      133.416    64663.151    39953.380    17799.868        8.788        6.121      230.942      118.606        0.264      338.301       10.855      858.780
12/08/2021  12:13:00     -509.791       97.096      -15.722      340.688      172.336      120.185   116068.574    29699.740    14444.394       21.486        8.011      518.955      129.896        0.063      338.215       10.711      858.776
12/08/2021  12:14:00     -533.948       87.268      -30.142      234.297      159.534      103.786    54895.194    25451.164    10771.442       19.235        4.556      541.032      118.436        0.048      338.243       10.759      858.752
12/08/2021  12:15:00     -193.671       35.132      -13.412      197.147      170.523      103.031    38867.125    29078.250    10615.350        5.873        3.928      196.831       75.268        0.146      338.437       11.086      858.720
12/08/2021  12:16:00     -433.424       -3.506      -26.451      284.658      158.261      103.792    81030.018    25046.430    10772.865       15.269        5.842      433.438      129.377        0.089      338.325       10.897      858.723
12/08/2021  12:17:00     -302.763       87.489      -11.080      266.311      197.650      112.773    70921.550    39065.340    12717.666       11.105        6.135      315.150       98.133        0.097      338.336       10.913      858.724
12/08/2021  12:18:00     -465.416      -12.161      -55.141      337.868      171.385      110.700   114154.798    29372.869    12254.448       18.776        7.789      465.575      118.066        0.064      338.271       10.806      858.696
12/08/2021  12:19:00     -481.429       30.113       -7.050      354.214      201.698      120.099   125467.325    40682.124    14423.875       20.662        9.029      482.369      129.781        0.072      338.282       10.823      858.655
12/08/2021  12:20:00     -540.562       31.821       -3.257      302.146      208.350      120.591    91292.123    43409.812    14542.135       22.121        7.462      541.498      137.910        0.065      338.284       10.827      858.596
12/08/2021  12:21:00     -436.920       32.198       -6.633      251.440      223.275      133.494    63221.990    49851.575    17820.623       16.141        6.545      438.105      119.894        0.075      338.274       10.811      858.599
12/08/2021  12:22:00     -672.682      -41.556      -33.978      310.241      217.086      134.947    96249.527    47126.366    18210.568       30.845        8.079      673.965      139.797        0.043      338.185       10.661      858.565
12/08/2021  12:23:00     -286.315       15.025      -17.723      324.195      204.092      151.575   105102.241    41653.467    22975.099       12.609        8.487      286.709      152.002        0.281      338.325       10.897      858.563
12/08/2021  12:24:00     -404.377       -3.905      -34.061      239.250      151.413      116.452    57240.462    22925.984    13561.152       12.919        4.686      404.396      103.260        0.065      338.297       10.850      858.598
12/08/2021  12:25:00     -235.799       -8.573      -10.632      188.757      159.004       95.719    35629.313    25282.200     9162.188        6.292        3.504      235.955       84.206        0.127      338.368       10.968      858.605
12/08/2021  12:26:00     -448.939       -0.355      -26.120      286.127      184.221      111.803    81868.885    33937.440    12499.961       16.524        6.415      448.939      117.569        0.069      338.363       10.961      858.591
12/08/2021  12:27:00     -428.254       -7.792      -24.729      318.954      155.238      122.134   101731.600    24098.782    14916.760       16.238        7.037      428.325      132.412        0.096      338.381       10.990      858.572
12/08/2021  12:28:00     -690.965       55.095      -21.518      270.487      203.598      113.954    73163.449    41452.299    12985.573       30.424        6.380      693.158      128.168        0.034      338.279       10.819      858.550
12/08/2021  12:29:00     -339.622       38.675      -16.496      253.752      180.911      123.231    64390.109    32728.756    15185.781       11.469        5.615      341.817      111.139        0.106      338.438       11.088      858.586
12/08/2021  12:30:00     -369.780       96.850       -4.304      322.370      197.867      130.303   103922.472    39151.455    16978.909       15.306        8.003      382.253      146.360        0.147      338.358       10.953      858.524
12/08/2021  12:31:00     -375.831      161.708        2.727      235.410      185.735      116.297    55417.917    34497.562    13524.956       13.540        5.172      409.144      116.206        0.081      338.468       11.137      858.518
12/08/2021  12:32:00     -457.217      -36.066      -14.106      330.808      173.975      134.919   109433.875    30267.205    18203.133       18.420        7.895      458.638      143.668        0.098      338.393       11.012      858.501
12/08/2021  12:33:00     -387.113      143.671        8.419      250.676      200.241      121.186    62838.538    40096.470    14686.117       14.407        5.881      412.914      114.380        0.077      338.480       11.156      858.501
12/08/2021  12:34:00     -494.719      -58.890      -29.956      248.108      179.996      141.322    61557.348    32398.643    19971.984       18.150        5.696      498.212      131.311        0.069      338.313       10.876      858.482
12/08/2021  12:35:00     -509.263      -27.815      -14.653      251.961      253.255      128.767    63484.383    64138.139    16580.895       20.224        7.210      510.022      129.668        0.065      338.353       10.943      858.434
12/08/2021  12:36:00     -313.809       50.109       -1.895      309.428      189.622      133.020    95745.480    35956.525    17694.301       12.517        7.470      317.784      126.585        0.159      338.280       10.821      858.408
12/08/2021  12:37:00     -404.226       66.594      -11.906      236.452      204.181      117.430    55909.757    41689.768    13789.717       13.966        5.569      409.674      111.443        0.074      338.270       10.804      858.415
12/08/2021  12:38:00     -391.469      -80.519      -32.246      236.029      220.433      114.125    55709.734    48590.906    13024.426       13.903        5.866      399.664      111.763        0.078      338.278       10.817      858.417
12/08/2021  12:39:00     -538.206       21.031      -44.421      310.686      270.839      136.235    96525.585    73354.000    18559.876       24.023        9.422      538.616      123.774        0.053      338.294       10.844      858.379
12/08/2021  12:40:00     -678.068       37.371      -57.497      293.986      246.867      126.637    86427.873    60943.196    16036.878       31.391        8.170      679.097      132.686        0.038      338.238       10.750      858.387
12/08/2021  12:41:00     -516.911      -96.089      -42.140      278.985      212.981      115.648    77832.589    45360.720    13374.442       20.736        6.828      525.766      114.669        0.048      338.257       10.782      858.357
12/08/2021  12:42:00     -407.142       13.014       -3.525      247.274      188.213      118.890    61144.595    35424.038    14134.798       13.830        5.535      407.350      128.970        0.100      338.397       11.017      858.386
12/08/2021  12:43:00     -398.225       -9.787      -34.401      280.933      167.333      141.603    78923.086    28000.467    20051.532       14.340        6.349      398.346      139.403        0.122      338.340       10.921      858.332
12/08/2021  12:44:00     -317.787      -33.849       -8.630      205.852      128.371       99.699    42375.073    16479.056     9939.843        8.549        3.440      319.585       83.397        0.068      338.432       11.076      858.363
12/08/2021  12:45:00     -536.000       -6.734      -17.399      280.507      205.656      134.306    78684.053    42294.472    18038.190       21.330        6.951      536.043      131.229        0.060      338.290       10.836      858.343
12/08/2021  12:46:00     -513.492       28.001      -19.050      187.651      126.356       85.851    35212.898    15965.854     7370.327       16.167        2.927      514.254       79.711        0.024      338.315       10.879      858.345
12/08/2021  12:47:00     -335.057        5.626      -12.442      208.973      144.739       86.171    43669.767    20949.268     7425.509        9.223        3.602      335.104       90.377        0.073      338.448       11.103      858.365
12/08/2021  12:48:00     -530.460      -74.269      -26.291      355.413      175.645      136.111   126318.548    30851.188    18526.325       23.161        8.785      535.634      158.809        0.088      338.408       11.035      858.334
12/08/2021  12:49:00     -386.018       18.624      -16.471      267.817      175.164      115.249    71725.964    30682.450    13282.401       13.264        5.785      386.467       95.361        0.061      338.516       11.216      858.314
12/08/2021  12:50:00     -404.266      119.564       -1.571      287.599      206.477      117.423    82713.153    42632.880    13788.084       15.841        6.957      421.576      125.494        0.089      338.566       11.299      858.342
12/08/2021  12:51:00     -362.939      146.910        3.336      226.031      173.110      105.134    51089.823    29966.978    11053.153       12.270        4.605      391.545      106.245        0.074      338.531       11.243      858.285
12/08/2021  12:52:00     -270.968       44.466      -26.912      190.917      104.585       91.452    36449.373    10938.029     8363.450        6.593        2.788      274.592       93.398        0.116      338.461       11.125      858.224
12/08/2021  12:53:00     -182.831       24.484       13.990      274.044      122.692       94.018    75100.074    15053.267     8839.439        6.659        4.950      184.464      111.032        0.362      338.687       11.505      858.162
12/08/2021  12:54:00     -388.991        0.855      -10.375      272.314      181.883      119.239    74154.763    33081.365    14218.002       13.642        6.073      388.992      109.507        0.079      338.501       11.193      858.145
12/08/2021  12:55:00     -507.416       18.311       -6.748      308.321      227.314      140.022    95061.946    51671.591    19606.287       21.207        8.317      507.746      132.825        0.068      338.338       10.919      858.126
12/08/2021  12:56:00     -716.577       30.266      -49.509      258.095      179.509      116.274    66613.072    32223.627    13519.542       31.458        5.618      717.216      103.292        0.021      338.255       10.777      858.102
12/08/2021  12:57:00     -515.255       18.911      -25.717      316.054      231.634      133.729    99890.091    53654.478    17883.480       21.894        8.571      515.602      139.395        0.073      338.323       10.893      858.125
12/08/2021  12:58:00     -568.249       -0.135      -24.919      277.600      222.623      141.252    77061.630    49560.801    19952.234       23.502        7.329      568.249      129.755        0.052      338.281       10.823      858.131
12/08/2021  12:59:00     -569.619      -11.397       -6.839      362.086      192.033      121.982   131106.119    36876.796    14879.512       25.372        9.143      569.733      151.085        0.070      338.242       10.757      858.161
12/08/2021  13:00:00     -410.062      -20.918       -3.716      329.600      197.641      133.292   108636.144    39061.825    17766.641       16.700        8.273      410.595      113.622        0.077      338.289       10.836      858.158
12/08/2021  13:01:00     -705.719       23.244        0.301      367.650      206.157      154.875   135166.523    42500.901    23986.142       35.008       10.083      706.102      165.728        0.055      338.230       10.736      858.173
12/08/2021  13:02:00     -610.119       64.954      -39.846      273.733      213.648      119.380    74929.870    45645.367    14251.523       25.641        6.741      613.567      114.466        0.035      338.252       10.773      858.147
12/08/2021  13:03:00     -473.800       11.478      -60.180      338.130      219.281      131.246   114332.167    48084.365    17225.446       20.391        8.982      473.939      140.658        0.088      338.273       10.810      858.177
12/08/2021  13:04:00     -455.310      103.093       -3.494      276.429      197.216      109.610    76413.068    38894.083    12014.391       17.261        6.366      466.835       89.460        0.037      338.317       10.882      858.169
12/08/2021  13:05:00     -539.136       37.859      -26.021      352.474      220.171      125.425   124237.659    48475.374    15731.478       24.058        9.422      540.464      117.107        0.047      338.209       10.701      858.134
12/08/2021  13:06:00     -475.579      -36.325      -26.187      280.899      176.618      119.315    78904.301    31194.030    14236.014       17.623        6.217      476.965      122.334        0.066      338.191       10.670      858.142
12/08/2021  13:07:00     -549.964        1.260      -15.930      288.767      208.392      128.658    83386.260    43427.167    16552.942       22.301        7.168      549.965      141.741        0.066      338.150       10.604      858.131
12/08/2021  13:08:00     -629.714     -169.822      -77.435      285.828      262.142      122.958    81697.577    68718.362    15118.741       29.842        8.277      652.211      131.305        0.041      338.073       10.474      858.094
12/08/2021  13:09:00     -753.971      -18.852      -60.325      306.671      206.571      122.098    94046.903    42671.693    14907.864       36.202        7.581      754.207      102.882        0.019      338.059       10.449      858.094
12/08/2021  13:10:00     -639.194      -29.367      -43.877      305.504      187.086      122.300    93332.879    35001.344    14957.195       27.730        7.165      639.868      115.364        0.033      338.119       10.550      858.098
12/08/2021  13:11:00     -382.449       77.557      -17.653      289.700      175.590      112.995    83925.909    30831.778    12767.973       14.004        6.376      390.234      103.014        0.070      338.183       10.657      858.129
12/08/2021  13:12:00     -644.143      -24.709      -24.457      379.555      258.172      175.842   144061.931    66652.876    30920.563       32.884       12.082      644.617      194.739        0.091      338.022       10.389      858.094
12/08/2021  13:13:00     -788.102      -44.917      -43.214      365.829      195.134      144.684   133830.805    38077.298    20933.585       40.888        9.642      789.381      153.266        0.038      337.970       10.301      858.046
12/08/2021  13:14:00     -580.046      -13.868      -33.176      436.103      239.368      162.362   190185.952    57296.801    26361.302       30.575       13.692      580.212      197.493        0.116      337.944       10.257      858.040
12/08/2021  13:15:00     -595.153      124.546      -27.380      259.073      174.654      117.533    67118.740    30504.051    13813.972       24.093        5.572      608.045      116.809        0.037      337.951       10.269      858.042
12/08/2021  13:16:00     -437.692       52.880      -41.994      265.848      195.451      123.408    70675.186    38200.925    15229.489       16.010        6.205      440.875      125.449        0.081      338.015       10.376      858.019
12/08/2021  13:17:00     -356.695       41.537      -14.846      332.603      181.882      114.014   110624.919    33081.171    12999.127       14.291        7.835      359.105      131.329        0.134      338.032       10.405      858.053
12/08/2021  13:18:00     -577.306       43.576      -33.833      266.188      236.270      128.486    70856.243    55823.646    16508.775       23.973        7.159      578.948      128.313        0.049      338.000       10.351      858.016
12/08/2021  13:19:00     -676.085        6.084      -43.194      302.218      199.090      124.170    91335.712    39636.810    15418.084       30.267        7.320      676.113      129.702        0.037      337.920       10.217      858.014
12/08/2021  13:20:00     -330.383      -51.138      -35.371      444.198      198.511      124.009   197312.130    39406.539    15378.331       18.251       12.605      334.318      128.739        0.148      337.927       10.229      858.010
12/08/2021  13:21:00     -231.509      -15.750       21.718      307.363      141.126      114.589    94472.269    19916.610    13130.625        9.089        6.376      232.044      132.025        0.324      337.964       10.291      858.031
12/08/2021  13:22:00     -363.320      -25.450       -1.862      260.563      136.903      118.365    67892.969    18742.350    14010.365       11.663        5.032      364.210      124.380        0.117      337.943       10.256      858.041
12/08/2021  13:23:00     -620.355      -14.825      -20.389      431.318      244.782      136.837   186035.043    59918.038    18724.320       32.503       13.234      620.532      140.994        0.052      337.823       10.054      858.030
12/08/2021  13:24:00     -345.661      -17.080      -16.416      234.497      189.475      108.932    54988.953    35900.588    11866.217       11.138        5.138      346.083       84.739        0.060      337.830       10.065      858.044
12/08/2021  13:25:00     -545.174      -97.657      -33.768      281.287      217.657      137.918    79122.391    47374.687    19021.388       22.668        7.276      553.851      151.664        0.075      337.691        9.833      858.001
12/08/2021  13:26:00     -188.970       15.629       -2.109      206.733      157.820       90.310    42738.685    24907.093     8155.832        5.587        3.790      189.616       62.251        0.108      337.776        9.978      858.001
12/08/2021  13:27:00     -383.850      -17.514       -7.713      211.598      131.626      102.351    44773.922    17325.507    10475.643       11.013        3.629      384.249       81.228        0.045      337.785        9.990      857.988
12/08/2021  13:28:00     -432.037      -27.873      -30.739      265.158      174.660      137.682    70308.649    30506.026    18956.208       15.405        5.989      432.936      134.552        0.097      337.740        9.915      857.945
12/08/2021  13:29:00     -313.152       78.329        7.024      283.863      193.206      129.721    80578.247    37328.567    16827.519       11.947        6.737      322.800      132.246        0.168      337.810       10.032      857.941
12/08/2021  13:30:00     -514.884        6.239      -23.985      321.512      216.259      128.018   103370.132    46768.139    16388.705       21.609        8.326      514.922      122.347        0.056      337.712        9.869      857.910
12/08/2021  13:31:00     -401.682       35.085      -15.753      245.005      184.938      114.141    60027.408    34201.880    13028.128       13.502        5.363      403.211      112.404        0.078      337.796       10.009      857.897
12/08/2021  13:32:00     -361.915       74.794       -9.534      174.156      156.610       80.534    30330.155    24526.626     6485.795        9.899        3.067      369.563       67.126        0.033      337.845       10.091      857.860
12/08/2021  13:33:00     -348.054       -0.607      -13.403      186.840      160.530       81.257    34909.300    25769.747     6602.760        9.429        3.364      348.054       57.784        0.028      337.831       10.067      857.840
12/08/2021  13:34:00     -391.615       20.884        5.470      280.883      209.641      140.247    78895.462    43949.426    19669.243       14.815        7.126      392.172      157.755        0.162      337.841       10.085      857.802
12/08/2021  13:35:00     -490.778      -13.325      -59.148      213.359      150.994      112.542    45522.246    22799.171    12665.613       16.275        4.049      490.959      119.452        0.059      337.785        9.991      857.767
12/08/2021  13:36:00     -426.860      -54.780      -24.010      227.693      174.623      105.457    51844.201    30493.119    11121.083       13.961        4.673      430.361      100.249        0.054      337.855       10.108      857.735
12/08/2021  13:37:00     -356.945      -22.177      -31.041      221.964      138.514       93.950    49268.153    19186.011     8826.577       10.306        3.864      357.634      106.233        0.088      337.895       10.175      857.715
12/08/2021  13:38:00     -383.260      -40.221       -8.257      234.876      133.051      115.153    55166.763    17702.562    13260.324       11.734        4.306      385.365      122.801        0.102      337.872       10.136      857.686
12/08/2021  13:39:00     -385.687       16.000        2.801      264.349      184.371      114.508    69880.644    33992.811    13112.134       13.298        5.849      386.018      112.307        0.085      337.850       10.098      857.661
12/08/2021  13:40:00     -434.367      -64.632      -42.505      271.956      155.978      132.360    73959.984    24329.133    17519.101       15.521        5.790      439.149      124.759        0.081      337.905       10.191      857.646
12/08/2021  13:41:00     -348.880        2.829       -1.865      302.517      206.761      126.315    91516.320    42750.167    15955.392       13.595        7.511      348.892      142.302        0.166      337.952       10.271      857.661
12/08/2021  13:42:00     -250.458       21.588       -5.654      154.232      139.342       85.962    23787.559    19416.090     7389.528        5.690        2.530      251.387       68.505        0.074      338.171       10.639      857.637
12/08/2021  13:43:00     -673.451      -20.876      -23.894      252.213      148.696      109.922    63611.470    22110.563    12082.847       27.616        4.890      673.774      110.387        0.027      337.976       10.310      857.592
12/08/2021  13:44:00     -489.303       23.329      -21.892      349.768      164.087      135.253   122337.715    26924.620    18293.479       20.397        8.378      489.859      142.486        0.085      337.996       10.344      857.593
12/08/2021  13:45:00     -428.657      -34.164      -23.224      296.706      168.702      135.188    88034.405    28460.412    18275.796       16.009        6.739      430.016      126.864        0.087      337.970       10.301      857.575
12/08/2021  13:46:00     -271.105       10.645        0.389      314.858      144.995      118.984    99135.645    21023.528    14157.275       10.394        6.716      271.314      139.038        0.263      338.098       10.517      857.576
12/08/2021  13:47:00     -250.534       21.245       -6.472      186.990      129.671       86.541    34965.245    16814.445     7489.285        6.125        2.963      251.433       80.528        0.103      338.205       10.695      857.583
12/08/2021  13:48:00     -506.465       17.893      -23.952      335.118      180.493      125.268   112304.210    32577.615    15692.012       20.896        8.029      506.781      116.916        0.053      338.015       10.376      857.548
12/08/2021  13:49:00     -616.517        3.068      -25.636      292.832      199.775      115.572    85750.408    39909.985    13356.785       25.986        6.951      616.524      119.235        0.037      337.899       10.181      857.512
12/08/2021  13:50:00     -438.303       43.699      -24.601      249.511      190.611      115.656    62255.908    36332.415    13376.279       15.327        5.598      440.476      106.910        0.059      337.968       10.297      857.508
12/08/2021  13:51:00     -456.928      -41.931      -26.270      285.331      174.044      132.988    81413.521    30291.477    17685.689       17.029        6.470      458.848      137.438        0.090      338.010       10.368      857.488
12/08/2021  13:52:00     -335.176       68.886      -12.549      294.423      227.143      127.953    86684.708    51594.105    16372.036       13.592        7.733      342.182      124.357        0.132      338.032       10.404      857.457
12/08/2021  13:53:00     -622.626      102.843      -23.024      368.870      212.121      112.381   136065.027    44995.329    12629.494       29.619        9.684      631.062      120.825        0.037      337.959       10.282      857.435
12/08/2021  13:54:00     -481.769       55.345      -12.931      362.171      184.329      116.298   131167.944    33977.218    13525.130       20.697        8.934      484.938      125.561        0.067      337.983       10.323      857.394
12/08/2021  13:55:00     -488.737      104.819      -29.910      286.246      232.717      137.502    81936.881    54157.324    18906.871       20.284        7.750      499.851      120.291        0.058      338.093       10.507      857.434
12/08/2021  13:56:00     -578.959      104.622      -29.909      323.312      188.246      115.405   104530.641    35436.501    13318.383       25.013        7.664      588.336      126.219        0.046      338.027       10.395      857.438
12/08/2021  13:57:00     -489.277      -11.893       -9.684      353.725      179.363      137.773   125121.403    32171.186    18981.495       20.792        8.814      489.421      128.800        0.069      338.095       10.509      857.414
12/08/2021  13:58:00     -475.891      -18.586      -24.142      236.706      205.534      101.460    56029.898    42244.405    10294.108       16.796        5.428      476.254      108.837        0.052      338.120       10.552      857.459
12/08/2021  13:59:00     -444.013      -57.643       -1.529      326.940      176.222      152.742   106889.483    31054.266    23330.215       18.084        8.064      447.739      169.374        0.143      338.161       10.621      857.448
12/08/2021  14:00:00     -229.245      104.044       -4.534      222.908      144.266      103.039    49687.848    20812.644    10617.128        7.224        4.056      251.750       88.485        0.124      338.413       11.044      857.482
12/08/2021  14:01:00     -600.092      125.227      -60.430      420.289      249.812      158.307   176642.499    62406.002    25061.003       32.173       13.205      613.019      140.369        0.052      338.157       10.614      857.459
12/08/2021  14:02:00     -512.529      -44.282      -25.397      349.827      185.620      153.995   122378.913    34454.669    23714.356       22.289        9.027      514.438      168.194        0.107      338.015       10.376      857.426
12/08/2021  14:03:00     -252.394       34.365        1.551      309.901      145.745      116.137    96038.825    21241.571    13487.907        9.780        6.538      254.723      118.569        0.217      338.142       10.589      857.450
12/08/2021  14:04:00     -229.360       79.974      -16.535      230.768      197.846      105.710    53253.689    39143.006    11174.637        8.140        5.179      242.903       98.665        0.165      338.228       10.734      857.477
12/08/2021  14:05:00     -310.317       96.740        6.632      217.112      170.213       95.539    47137.701    28972.417     9127.713        9.545        4.262      325.046       90.932        0.078      338.219       10.718      857.462
12/08/2021  14:06:00     -467.466      120.182      -16.280      234.728      197.822      117.925    55097.428    39133.719    13906.408       17.067        5.407      482.668      108.065        0.050      338.094       10.509      857.414
12/08/2021  14:07:00     -350.491       73.753      -30.316      229.608      170.814      106.920    52719.609    29177.468    11431.802       11.125        4.666      358.167       93.058        0.068      338.111       10.539      857.408
12/08/2021  14:08:00     -448.455      145.275      -28.916      209.791      194.321      128.411    44012.074    37760.802    16489.347       16.064        4.913      471.398      100.163        0.045      338.096       10.511      857.410
12/08/2021  14:09:00     -376.220      137.882        5.478      285.009      180.337      118.916    81229.975    32521.258    14140.941       14.421        6.395      400.690      107.060        0.071      338.147       10.598      857.387
12/08/2021  14:10:00     -381.418       50.822        2.469      282.608      228.171      129.256    79867.551    52061.880    16707.097       14.833        7.432      384.789      136.880        0.127      338.096       10.512      857.382
12/08/2021  14:11:00     -372.566       34.186      -25.253      289.967      174.724      131.434    84080.845    30528.341    17274.774       13.622        6.594      374.131      130.398        0.121      338.082       10.487      857.382
12/08/2021  14:12:00     -457.462        7.600      -39.317      292.422      163.754      123.379    85510.846    26815.530    15222.335       16.919        6.377      457.526      126.381        0.076      338.056       10.446      857.392
12/08/2021  14:13:00     -446.645        4.667      -13.105      376.426      158.973      108.254   141696.396    25272.351    11718.920       18.915        8.934      446.670       95.937        0.046      338.076       10.479      857.415
12/08/2021  14:14:00     -333.229       10.304      -17.738      340.948      160.205      120.916   116245.199    25665.540    14620.644       13.397        7.827      333.388      122.844        0.136      338.055       10.443      857.456
12/08/2021  14:15:00     -761.120       16.948      -67.000      269.644      154.470      132.116    72707.700    23861.025    17454.516       34.903        5.701      761.309      119.296        0.025      338.009       10.365      857.479
12/08/2021  14:16:00     -424.720      113.247      -25.178      287.105      192.894      113.277    82429.074    37208.068    12831.778       16.313        6.623      439.559      110.644        0.063      338.081       10.487      857.459
12/08/2021  14:17:00     -478.407       -1.448       -5.174      286.818      149.722      111.869    82264.728    22416.663    12514.720       17.303        5.860      478.409      121.009        0.064      338.041       10.421      857.468
12/08/2021  14:18:00     -607.034      -10.412      -17.337      285.249      220.074      126.422    81367.208    48432.562    15982.486       25.731        7.289      607.123      102.446        0.028      337.952       10.269      857.463
12/08/2021  14:19:00     -479.760       32.290      -21.052      231.094      212.296      118.545    53404.503    45069.796    14052.962       17.207        5.626      480.846       95.179        0.039      338.010       10.368      857.448
12/08/2021  14:20:00     -553.383        0.476      -34.533      291.227      163.288      118.252    84812.887    26663.124    13983.563       21.642        6.273      553.383      110.333        0.040      337.994       10.342      857.492
12/08/2021  14:21:00     -402.207        6.862      -29.779      232.011      198.495      115.741    53829.061    39400.105    13396.023       13.465        5.331      402.266      109.210        0.074      337.978       10.314      857.469
12/08/2021  14:22:00     -371.947      -43.626      -19.684      281.499      177.050      124.171    79241.790    31346.744    15418.410       13.330        6.300      374.497      118.515        0.100      338.005       10.360      857.469
12/08/2021  14:23:00     -474.107       67.048      -12.849      247.287      158.968      114.109    61150.911    25270.866    13020.785       16.442        4.972      478.824      105.743        0.049      337.992       10.338      857.511
12/08/2021  14:24:00     -334.624       -4.540      -19.807      171.418      138.277       88.015    29383.984    19120.447     7746.690        8.431        2.813      334.655       79.693        0.057      338.059       10.450      857.489
12/08/2021  14:25:00     -217.044       42.101       -8.601      191.771      108.820       71.090    36776.259    11841.890     5053.841        5.130        2.684      221.089       71.895        0.106      338.100       10.519      857.482
12/08/2021  14:26:00     -448.884       39.280      -26.141      242.731      137.923       97.878    58918.457    19022.841     9580.160       14.561        4.376      450.599       94.287        0.044      338.105       10.528      857.500
12/08/2021  14:27:00     -402.503        6.888      -33.615      271.487      197.294      126.367    73705.454    38924.815    15968.495       14.587        6.430      402.562      106.173        0.070      338.033       10.407      857.452
12/08/2021  14:28:00     -536.317      -70.389      -43.949      396.396      182.063      133.134   157129.452    33146.970    17724.676       25.122       10.400      540.917      161.923        0.090      338.002       10.355      857.452
12/08/2021  14:29:00     -529.304       -4.640      -29.602      284.254      205.145      132.586    80800.293    42084.530    17579.057       21.074        7.023      529.325      139.079        0.069      337.996       10.345      857.397
12/08/2021  14:30:00     -497.678      -54.041      -22.309      305.111      173.252      130.417    93092.960    30016.275    17008.655       19.558        7.006      500.603      127.073        0.064      337.958       10.281      857.425
12/08/2021  14:31:00     -591.879      -52.497      -44.892      348.817      235.904      131.269   121672.954    55650.622    17231.445       27.479        9.728      594.202      148.169        0.062      337.966       10.293      857.381
12/08/2021  14:32:00     -319.073       35.322       19.030      299.881      210.955      125.094    89928.633    44502.188    15648.387       12.672        7.504      321.022      126.040        0.154      338.080       10.487      857.370
12/08/2021  14:33:00     -637.657      -43.486      -35.083      377.166      225.317      147.183   142254.058    50767.881    21662.787       31.217       10.734      639.138      161.296        0.064      337.970       10.300      857.366
12/08/2021  14:34:00     -626.782      -16.338      -14.876      438.176      210.412      158.282   191998.634    44273.367    25053.195       32.729       13.066      626.995      171.535        0.075      337.958       10.280      857.345
12/08/2021  14:35:00     -277.679       42.276       -1.320      358.945      177.487      117.199   128841.563    31501.622    13735.719       12.645        8.704      280.878       92.138        0.108      338.081       10.488      857.376
12/08/2021  14:36:00     -486.695       72.032      -12.534      262.441      192.024      120.216    68875.088    36873.098    14451.786       18.119        6.010      491.997      139.532        0.080      338.025       10.393      857.343
12/08/2021  14:37:00     -401.292      -49.907      -25.267      254.317      156.442      129.546    64677.040    24474.092    16782.045       13.503        5.297      404.383      129.895        0.103      338.080       10.485      857.398
12/08/2021  14:38:00     -362.874       40.586      -10.412      348.155      170.353      125.246   121211.880    29020.222    15686.632       14.965        8.296      365.136      132.814        0.132      338.012       10.372      857.404
12/08/2021  14:39:00     -508.813        9.378      -14.658      321.148      211.369      142.630   103135.878    44676.838    20343.347       21.364        8.408      508.899      150.110        0.087      337.884       10.155      857.408
12/08/2021  14:40:00     -656.220      -26.145      -37.858      370.813      232.083      153.535   137502.139    53862.375    23573.104       32.380       10.747      656.740      147.060        0.050      337.890       10.165      857.419
12/08/2021  14:41:00     -539.800       21.361      -45.057      318.584      178.330      137.700   101495.533    31801.729    18961.294       22.304        7.613      540.223      130.574        0.058      337.905       10.191      857.437
12/08/2021  14:42:00     -305.479      -41.447      -26.584      240.460      167.240      104.006    57820.856    27969.138    10817.232        9.616        4.830      308.277      102.551        0.111      337.963       10.290      857.436
12/08/2021  14:43:00     -280.592      -53.896      -22.090      238.776      202.864      105.602    57014.004    41153.759    11151.763        9.570        5.466      285.721      116.879        0.167      337.934       10.241      857.462
12/08/2021  14:44:00     -595.636      -12.442      -20.003      302.876      217.642      135.768    91734.002    47368.061    18432.837       25.641        7.877      595.766      114.480        0.037      337.856       10.108      857.412
12/08/2021  14:45:00     -616.105        0.583      -22.205      328.425      210.839      133.534   107862.738    44453.235    17831.275       27.508        8.507      616.105      144.199        0.055      337.848       10.096      857.452
12/08/2021  14:46:00     -567.001       -4.661      -20.092      329.815      206.402      141.542   108777.951    42601.691    20034.222       24.663        8.571      567.020      133.853        0.056      337.773        9.970      857.450
12/08/2021  14:47:00     -494.924       16.592        0.828      317.282      171.585      129.561   100667.606    29441.269    16786.173       19.603        7.345      495.202      144.637        0.085      337.837       10.077      857.450
12/08/2021  14:48:00     -672.124      -19.248      -39.401      319.839      199.113      139.355   102297.286    39646.168    19419.835       30.749        8.068      672.400      146.866        0.048      337.801       10.017      857.422
12/08/2021  14:49:00     -443.127      -14.510      -15.946      270.476      168.248      120.169    73157.488    28307.525    14440.677       15.634        5.795      443.364      118.691        0.072      337.899       10.181      857.443
12/08/2021  14:50:00     -487.576      -60.230      -34.375      331.223      182.938      125.103   109708.519    33466.237    15650.657       20.065        7.941      491.282      146.731        0.089      337.880       10.149      857.438
12/08/2021  14:51:00     -654.506      -66.861      -42.273      335.264      292.315      138.282   112402.010    85448.264    19121.951       32.576       10.849      657.912      128.639        0.038      337.792       10.001      857.380
12/08/2021  14:52:00     -386.789      141.856       13.777      264.863      243.734      135.560    70152.274    59406.396    18376.485       15.890        7.397      411.981      139.527        0.115      337.882       10.153      857.455
12/08/2021  14:53:00     -437.183       14.232      -22.603      312.364      161.643      111.418    97571.425    26128.415    12413.982       16.395        6.806      437.415      121.126        0.077      337.857       10.111      857.478
12/08/2021  14:54:00     -293.517       65.684      -32.108      223.442      157.632       75.518    49926.168    24847.935     5702.902        8.597        4.024      300.777       85.138        0.080      337.985       10.326      857.508
12/08/2021  14:55:00     -333.965      -45.671      -46.539      202.418      144.244       93.032    40973.125    20806.475     8654.924        9.310        3.522      337.074      111.780        0.110      337.945       10.258      857.504
12/08/2021  14:56:00     -390.101      -47.811      -19.906      228.462      131.986      117.389    52194.740    17420.426    13780.273       11.911        4.170      393.020      130.766        0.111      337.940       10.249      857.502
12/08/2021  14:57:00     -358.059      -13.401       -2.957      279.884      141.706      123.869    78334.960    20080.495    15343.532       12.106        5.688      358.309      122.020        0.116      337.896       10.178      857.465
12/08/2021  14:58:00     -488.378       71.382       -0.127      241.168      157.163      104.092    58162.045    24700.129    10835.098       16.864        4.685      493.567      113.413        0.053      337.912       10.204      857.496
12/08/2021  14:59:00     -123.743        9.429       -5.605      218.934      113.400       88.470    47932.308    12859.669     7826.873        4.201        3.431      124.102       72.020        0.337      338.054       10.443      857.486
12/08/2021  15:00:00     -369.935       24.329       -3.977      300.761      200.399      137.833    90457.125    40159.794    18997.872       14.351        7.481      370.734      143.714        0.150      337.928       10.230      857.477
12/08/2021  15:01:00     -284.452       79.003      -13.371      244.049      187.570      108.866    59559.981    35182.379    11851.886        9.694        5.330      295.219       55.897        0.036      338.017       10.381      857.485
12/08/2021  15:02:00     -427.893      123.746      -18.539      248.086      161.889       83.267    61546.705    26208.149     6933.330       14.670        4.734      445.428       73.950        0.028      337.978       10.314      857.459
12/08/2021  15:03:00     -209.070        7.153       -3.637      230.734       99.072       65.774    53238.096     9815.214     4326.154        5.556        3.369      209.193       60.494        0.084      338.108       10.533      857.469
12/08/2021  15:04:00     -282.929       55.771      -37.725      258.078      148.365      107.979    66604.428    22012.162    11659.453        9.241        5.014      288.374      100.284        0.121      338.096       10.512      857.464
12/08/2021  15:05:00     -321.492      -11.186      -25.034      211.200      161.150       96.602    44605.571    25969.174     9332.000        9.199        3.995      321.687       76.278        0.056      338.034       10.408      857.444
12/08/2021  15:06:00     -364.852       96.082      -10.468      206.761      147.277       85.232    42750.242    21690.376     7264.423       10.707        3.585      377.292       91.210        0.058      338.101       10.520      857.428
12/08/2021  15:07:00     -487.076        1.572      -22.583      267.525      179.246      125.307    71569.682    32129.232    15701.968       17.856        5.970      487.078      115.648        0.056      337.938       10.247      857.406
12/08/2021  15:08:00     -599.754      -11.935      -60.782      215.391      189.902      112.342    46393.332    36062.866    12620.702       22.929        4.754      599.873       70.061        0.014      337.861       10.117      857.406
12/08/2021  15:09:00     -284.017       -0.152       -4.174      336.794      155.097      106.694   113429.940    24054.976    11383.664       11.475        7.443      284.017      110.940        0.153      337.966       10.295      857.430
12/08/2021  15:10:00     -483.657       21.190      -33.016      234.458      167.579      110.722    54970.564    28082.798    12259.459       16.537        4.766      484.121      105.003        0.047      337.929       10.231      857.450
12/08/2021  15:11:00     -333.360       62.096        1.198      292.913      175.835      108.368    85798.149    30917.991    11743.565       12.170        6.423      339.094      110.919        0.107      338.001       10.352      857.459
12/08/2021  15:12:00     -233.114       21.205       -3.661      214.366      153.629      102.088    45952.744    23601.745    10421.933        6.738        3.999      234.076       76.645        0.107      338.078       10.482      857.502
12/08/2021  15:13:00     -324.816      -28.061      -23.614      266.151      176.228      138.359    70836.339    31056.256    19143.137       11.392        6.052      326.026      135.354        0.172      337.926       10.229      857.492
12/08/2021  15:14:00     -417.557       23.076      -20.634      331.816      200.851      126.147   110102.116    40341.270    15912.982       17.080        8.318      418.194      127.971        0.094      337.820       10.049      857.462
12/08/2021  15:15:00     -438.478      -32.152      -30.394      281.263      165.870      115.385    79108.832    27513.021    13313.664       15.706        5.997      439.655      130.471        0.088      337.844       10.088      857.456
12/08/2021  15:16:00     -386.494        8.838      -27.155      321.835      167.003      117.327   103577.503    27890.061    13765.621       14.769        7.262      386.595      138.861        0.129      337.854       10.107      857.427
12/08/2021  15:17:00     -509.229       51.635      -25.005      317.242      169.372      111.879   100642.365    28686.871    12516.943       20.220        7.092      511.840      134.549        0.069      337.859       10.115      857.387
12/08/2021  15:18:00     -421.145       76.332      -19.049      159.905      138.906       92.287    25569.648    19294.873     8516.802       11.846        2.669      428.006       78.781        0.034      337.896       10.175      857.406
12/08/2021  15:19:00     -432.516      -35.231       17.628      361.419      170.690      164.751   130623.343    29134.908    27142.824       18.773        9.345      433.948      179.317        0.171      337.849       10.097      857.325
12/08/2021  15:20:00     -460.063      -10.501       -3.722      275.998      164.430      124.921    76174.857    27037.069    15605.248       16.528        5.941      460.183      133.431        0.084      337.836       10.074      857.331
12/08/2021  15:21:00     -380.419       34.329      -22.917      294.094      165.975      107.676    86491.048    27547.547    11594.221       13.600        6.282      381.965      126.511        0.110      337.933       10.238      857.341
12/08/2021  15:22:00     -471.979      -24.906       -0.499      363.945      200.052      153.928   132456.120    40020.780    23693.727       20.974        9.809      472.635      187.787        0.158      337.817       10.044      857.355
12/08/2021  15:23:00     -381.722       -1.163      -33.013      245.872      147.380      104.321    60453.277    21720.805    10882.944       11.991        4.653      381.724      111.287        0.085      337.840       10.084      857.347
12/08/2021  15:24:00     -502.071      -74.082      -45.428      343.034      185.798      141.690   117672.144    34520.747    20076.174       21.592        8.613      507.507      135.920        0.072      337.807       10.028      857.313
12/08/2021  15:25:00     -412.509      -21.235       -7.726      344.865      183.126      132.818   118931.690    33535.187    17640.715       17.036        8.505      413.056      138.007        0.112      337.778        9.978      857.318
12/08/2021  15:26:00     -361.087       28.667      -11.261      228.227      148.701      109.089    52087.785    22111.865    11900.466       10.870        4.305      362.223      106.900        0.087      337.829       10.065      857.332
12/08/2021  15:27:00     -324.301       34.180       -8.623      300.006      176.761      123.155    90003.685    31244.296    15167.134       12.139        6.821      326.097      142.525        0.191      337.810       10.033      857.345
12/08/2021  15:28:00     -399.291       -5.400      -27.100      282.652      189.958      128.680    79891.929    36083.954    16558.606       14.634        6.627      399.327      128.087        0.103      337.784        9.989      857.349
12/08/2021  15:29:00     -462.571       53.895      -21.921      330.778      171.660      134.573   109414.258    29467.304    18109.895       18.715        7.850      465.700      130.102        0.078      337.774        9.972      857.338
12/08/2021  15:30:00     -529.311       68.011      -27.807      351.146      185.145      122.578   123303.278    34278.487    15025.278       22.906        8.630      533.663      124.091        0.054      337.790        9.999      857.314
12/08/2021  15:31:00     -339.407       76.144       -2.283      320.740      190.098      134.974   102874.458    36137.214    18218.038       13.909        7.861      347.843      134.997        0.151      337.854       10.108      857.316
12/08/2021  15:32:00     -282.097       58.735       -8.594      278.317      186.052      143.199    77460.277    34615.342    20506.034       10.782        6.629      288.146      129.349        0.202      337.850       10.099      857.331
12/08/2021  15:33:00     -401.305      -92.968      -27.773      296.794      171.151      122.672    88086.779    29292.776    15048.305       15.142        6.621      411.933      128.301        0.097      337.823       10.054      857.318
12/08/2021  15:34:00     -379.785      -25.301      -11.903      285.396      186.623      123.080    81450.764    34828.280    15148.576       13.820        6.571      380.627      136.502        0.129      337.839       10.081      857.319
12/08/2021  15:35:00     -631.448       15.323      -24.226      307.515      195.499      121.947    94565.448    38219.807    14871.074       27.358        7.383      631.634      122.981        0.038      337.808       10.030      857.321
12/08/2021  15:36:00     -248.216       16.854      -16.945      243.814      164.183      100.286    59445.368    26956.176    10057.255        7.930        4.823      248.787       84.558        0.116      337.860       10.116      857.344
12/08/2021  15:37:00     -289.246      -36.036      -18.240      277.740      154.451      118.697    77139.605    23854.977    14089.024       10.017        5.754      291.482       99.962        0.118      337.841       10.085      857.322
12/08/2021  15:38:00     -512.382      -21.034      -17.828      346.517      196.073      147.967   120073.766    38444.767    21894.174       22.182        9.021      512.813      163.505        0.102      337.813       10.037      857.299
12/08/2021  15:39:00     -448.908        7.014      -26.344      316.033      159.190      153.121    99876.658    25341.551    23446.050       17.544        7.433      448.963      174.909        0.152      337.812       10.033      857.281
12/08/2021  15:40:00     -399.465      -10.430      -14.443      300.908      200.690      129.975    90545.490    40276.401    16893.490       15.378        7.386      399.601      133.696        0.112      337.817       10.045      857.267
12/08/2021  15:41:00     -389.588       77.963      -25.989      229.993      190.866       91.049    52896.592    36429.875     8289.967       12.806        4.881      397.312       71.811        0.033      337.851       10.100      857.276
12/08/2021  15:42:00     -503.034      -41.925      -43.463      368.341      174.576      136.546   135675.259    30476.721    18644.831       22.071        9.240      504.778      127.943        0.064      337.818       10.045      857.231
12/08/2021  15:43:00     -380.031      -46.090       -9.502      346.771      192.325      157.856   120249.873    36989.012    24918.464       16.436        9.108      382.815      169.922        0.197      337.784        9.988      857.227
12/08/2021  15:44:00     -365.338       46.458       -8.233      204.598      178.934      106.023    41860.524    32017.225    11240.884       11.039        4.256      368.280      107.511        0.085      337.815       10.040      857.249
12/08/2021  15:45:00     -278.825       16.056        7.537      266.960      172.434      129.610    71267.434    29733.487    16798.698        9.791        5.890      279.287      135.003        0.234      337.815       10.040      857.203
12/08/2021  15:46:00     -562.857        8.819      -32.240      335.444      245.780      138.245   112522.721    60407.912    19111.773       25.495        9.602      562.926      142.763        0.064      337.764        9.957      857.206
12/08/2021  15:47:00     -497.407       94.439      -32.536      304.564      179.944      131.013    92759.477    32379.786    17164.415       19.982        7.115      506.293      155.788        0.095      337.788        9.996      857.170
12/08/2021  15:48:00     -407.762       91.898      -13.427      283.859      184.744      117.532    80575.813    34130.263    13813.832       15.168        6.426      417.989      120.097        0.083      337.844       10.089      857.146
12/08/2021  15:49:00     -376.669      -40.400      -43.978      295.494      141.082      135.011    87316.876    19904.176    18227.925       13.542        6.272      378.829      129.337        0.117      337.772        9.970      857.123
12/08/2021  15:50:00     -338.049       15.587       -1.162      351.293      169.509      132.344   123406.810    28733.461    17514.922       14.206        8.483      338.408      152.308        0.203      337.758        9.946      857.102
12/08/2021  15:51:00     -460.808      -19.992      -13.373      356.004      194.712      146.504   126738.499    37912.906    21463.372       19.948        9.306      461.241      158.870        0.119      337.745        9.923      857.089
12/08/2021  15:52:00     -279.500       25.874      -21.497      227.951      152.776      121.704    51961.851    23340.585    14811.948        8.467        4.506      280.695      114.766        0.167      337.751        9.935      857.105
12/08/2021  15:53:00     -329.254       -3.059      -47.229      269.633      204.165      122.748    72701.959    41683.159    15067.102       12.003        6.473      329.268      107.465        0.107      337.736        9.908      857.094
12/08/2021  15:54:00     -196.570        8.150       12.633      266.922      126.422      101.496    71247.490    15982.513    10301.372        6.818        4.877      196.739      109.995        0.313      337.759        9.948      857.100
12/08/2021  15:55:00     -313.856       19.043      -30.086      294.369      182.784      114.292    86653.322    33410.034    13062.647       11.643        6.656      314.433      107.485        0.117      337.755        9.941      857.134
12/08/2021  15:56:00     -267.911      -53.152      -15.549      266.280      140.604      117.206    70904.907    19769.533    13737.229        8.961        5.221      273.132      125.238        0.210      337.737        9.912      857.109
12/08/2021  15:57:00     -270.388      -23.507      -23.306      246.112      170.600      116.963    60571.260    29104.242    13680.283        8.876        5.168      271.407      120.179        0.196      337.773        9.973      857.060
12/08/2021  15:58:00     -334.650       88.145      -27.567      206.414      193.750      100.987    42606.652    37538.876    10198.355       10.542        4.517      346.064      101.217        0.086      337.761        9.950      857.031
12/08/2021  15:59:00     -405.421      147.919      -17.236      282.456      174.622      105.717    79781.235    30492.998    11175.981       15.397        6.073      431.562      123.635        0.082      337.766        9.959      857.007
12/08/2021  16:00:00     -287.055       47.023       -2.376      243.778      133.332       87.384    59427.642    17777.392     7636.020        8.471        4.242      290.881       78.957        0.074      337.777        9.978      857.016
12/08/2021  16:01:00     -166.180      -18.007      -24.987      196.565      121.911      102.422    38637.960    14862.253    10490.202        4.627        3.200      167.153       81.979        0.241      337.738        9.913      857.008
12/08/2021  16:02:00     -423.334      118.852       -1.428      311.429      158.435       95.733    96988.175    25101.493     9164.878       16.227        6.563      439.701      102.439        0.054      337.726        9.892      857.001
12/08/2021  16:03:00     -290.271       72.443        7.665      246.656      150.011      102.994    60839.096    22503.248    10607.751        9.174        4.698      299.174      101.921        0.116      337.733        9.904      856.936
12/08/2021  16:04:00     -325.011       31.608      -15.748      302.252      192.394      122.389    91356.374    37015.641    14979.180       12.509        7.168      326.544      118.952        0.133      337.691        9.832      856.945
12/08/2021  16:05:00     -413.135       85.604      -11.310      240.380      164.915      102.502    57782.532    27197.087    10506.657       13.679        4.774      421.910      101.570        0.058      337.689        9.831      856.924
12/08/2021  16:06:00     -264.724       93.427        9.424      215.087      146.046       87.966    46262.315    21329.408     7738.024        7.710        3.766      280.726       95.691        0.116      337.757        9.944      856.920
12/08/2021  16:07:00     -223.295      -19.423      -18.083      221.820      118.571       93.247    49204.029    14059.052     8695.067        6.125        3.598      224.138       98.826        0.194      337.708        9.863      856.909
12/08/2021  16:08:00     -238.205       41.649       -0.956      187.062      140.915       89.441    34992.219    19857.120     7999.668        6.065        3.142      241.819       89.451        0.137      337.753        9.938      856.853
12/08/2021  16:09:00     -234.354       22.141      -14.157      217.160      149.453       99.255    47158.516    22336.213     9851.502        6.746        3.967      235.398      105.401        0.200      337.704        9.855      856.853
12/08/2021  16:10:00     -541.377      117.406      -23.885      284.195      189.832      114.798    80766.769    36036.095    13178.572       21.869        6.499      553.961      118.384        0.046      337.713        9.870      856.803
12/08/2021  16:11:00     -479.354       56.813      -42.094      305.478      177.930      112.069    93316.898    31658.946    12559.505       18.613        6.877      482.709      115.636        0.057      337.720        9.881      856.751
12/08/2021  16:12:00     -541.766       67.461      -49.103      271.618      208.568      115.401    73776.383    43500.657    13317.461       21.551        6.530      545.950      109.499        0.040      337.705        9.857      856.774
12/08/2021  16:13:00     -415.761       36.183      -18.311      243.635      189.714      102.962    59357.773    35991.454    10601.195       14.021        5.298      417.332       97.120        0.054      337.726        9.892      856.782
12/08/2021  16:14:00     -311.745       22.421       -2.893      241.669      200.358      134.523    58403.936    40143.373    18096.383       10.715        5.832      312.551      132.532        0.180      337.716        9.875      856.775
12/08/2021  16:15:00     -242.832      147.249        2.349      277.838      170.772       92.662    77193.887    29163.239     8586.336        9.778        5.747      283.988       86.486        0.093      337.754        9.941      856.793
12/08/2021  16:16:00     -417.737      163.448        2.767      255.408      176.840       95.566    65233.030    31272.524     9132.835       15.341        5.282      448.575      111.090        0.061      337.751        9.933      856.794
12/08/2021  16:17:00     -396.082      117.664      -12.487      207.748      149.216       89.649    43159.429    22265.385     8036.935       12.216        3.673      413.190       82.667        0.040      337.715        9.874      856.805
12/08/2021  16:18:00     -346.031       78.556      -13.283      249.750      163.112       90.599    62374.821    26605.617     8208.197       11.162        4.859      354.835       81.394        0.053      337.693        9.836      856.799
12/08/2021  16:19:00     -533.129      129.317      -22.131      302.223      201.097      108.983    91338.793    40440.068    11877.318       22.252        7.183      548.589      116.513        0.045      337.673        9.802      856.784
12/08/2021  16:20:00     -213.677        2.103       -7.158      174.289      125.533      101.745    30376.704    15758.508    10352.043        5.109        2.824      213.687       92.130        0.186      337.701        9.851      856.788
12/08/2021  16:21:00     -367.941       66.204      -20.244      242.446      151.611       91.037    58779.865    22985.789     8287.805       11.510        4.503      373.850       96.508        0.067      337.694        9.837      856.777
12/08/2021  16:22:00     -396.621       70.331       -3.237      267.233      181.941      128.292    71413.717    33102.611    16458.933       14.160        6.049      402.808      146.823        0.133      337.689        9.831      856.783
12/08/2021  16:23:00     -382.354       78.568      -13.995      260.692      183.522      117.561    67960.111    33680.387    13820.660       13.399        5.773      390.342      114.168        0.086      337.679        9.813      856.713
12/08/2021  16:24:00     -570.320       74.885      -22.607      271.711      215.783      102.529    73826.882    46562.102    10512.222       23.112        6.545      575.216      105.148        0.033      337.628        9.730      856.713
12/08/2021  16:25:00     -558.766      186.509      -19.056      289.911      188.289      108.221    84048.239    35452.640    11711.706       23.927        6.561      589.071       92.945        0.025      337.646        9.758      856.722
12/08/2021  16:26:00     -441.870       72.649       -8.667      229.271      170.310      107.708    52565.066    29005.378    11601.084       14.687        4.659      447.803      104.335        0.054      337.658        9.779      856.685
12/08/2021  16:27:00     -386.037       -7.598       -4.488      213.668      167.923      103.200    45654.218    28198.049    10650.261       11.679        4.225      386.111      102.354        0.070      337.650        9.764      856.704
12/08/2021  16:28:00     -174.527       30.620      -17.605      291.610      145.491      113.826    85036.411    21167.581    12956.332        7.541        5.958      177.193      108.360        0.374      337.654        9.773      856.713
12/08/2021  16:29:00     -358.442       15.853      -33.290      223.717      162.078       95.574    50049.306    26269.258     9134.455       10.763        4.273      358.793       90.523        0.064      337.649        9.764      856.726
12/08/2021  16:30:00     -207.995       38.743      -10.091      237.304      190.016      110.282    56313.385    36106.203    12162.024        7.470        5.229      211.573       86.654        0.168      337.675        9.807      856.720
12/08/2021  16:31:00     -199.398       36.567      -16.100      176.098      114.946       67.357    31010.533    13212.645     4537.021        4.505        2.438      202.723       70.455        0.121      337.681        9.819      856.722
12/08/2021  16:32:00     -182.613       32.058       -8.881      177.422      153.235       78.379    31478.589    23481.047     6143.242        4.777        3.055      185.405       62.857        0.115      337.664        9.789      856.738
12/08/2021  16:33:00     -445.544      100.050        6.146      251.798      206.366      119.208    63402.042    42586.947    14210.534       16.436        6.010      456.640      120.908        0.070      337.612        9.699      856.704
12/08/2021  16:34:00     -538.610      127.962      -10.059      324.789      226.779      122.111   105487.757    51428.855    14911.083       23.917        8.591      553.602      126.802        0.052      337.614        9.704      856.682
12/08/2021  16:35:00     -323.048       31.894      -34.007      226.610      122.746      107.256    51352.167    15066.561    11503.939        9.221        3.896      324.618       89.497        0.076      337.622        9.719      856.712
12/08/2021  16:36:00     -361.884      115.537        6.587      269.413      148.758      101.495    72583.107    22128.937    10301.289       12.466        5.251      379.880      100.901        0.071      337.617        9.709      856.694
12/08/2021  16:37:00     -412.059      157.259       -9.833      248.276      162.069       99.453    61640.733    26266.489     9890.923       14.619        4.890      441.047      108.211        0.060      337.575        9.638      856.671
12/08/2021  16:38:00     -418.432       89.238      -16.147      217.390      192.377      103.901    47258.273    37009.036    10795.331       13.917        4.753      427.842       93.864        0.048      337.561        9.613      856.648
12/08/2021  16:39:00     -473.720      179.862      -26.296      221.140      179.773      120.684    48902.979    32318.155    14564.593       17.660        4.789      506.716      124.187        0.060      337.597        9.673      856.628
12/08/2021  16:40:00     -480.832      103.681      -30.606      268.137      167.293      109.295    71897.242    27986.788    11945.495       17.734        5.591      491.883      110.904        0.051      337.565        9.621      856.630
12/08/2021  16:41:00     -495.054       49.122      -17.145      214.340      192.552      111.649    45941.691    37076.146    12465.467       17.162        4.774      497.485      115.356        0.054      337.545        9.587      856.624
12/08/2021  16:42:00     -333.924       -9.016      -27.662      311.683      205.363      146.483    97146.257    42173.967    21457.413       13.653        8.039      334.045      145.282        0.189      337.546        9.588      856.604
12/08/2021  16:43:00     -276.155       68.054      -11.182      204.088      158.731       91.759    41651.976    25195.581     8419.698        7.813        3.763      284.417       72.333        0.065      337.641        9.749      856.666
12/08/2021  16:44:00     -361.232       18.594      -10.228      231.528      133.980       99.014    53605.363    17950.540     9803.780       10.613        4.068      361.710      100.228        0.077      337.547        9.592      856.643
12/08/2021  16:45:00     -154.492       28.702        1.073      211.618      190.106      104.582    44782.050    36140.131    10937.399        5.826        4.593      157.136       88.729        0.319      337.589        9.662      856.651
12/08/2021  16:46:00     -253.129       73.385      -43.803      212.067      121.950       98.977    44972.607    14871.700     9796.352        7.050        3.482      263.552       56.129        0.045      337.572        9.633      856.640
12/08/2021  16:47:00     -298.827      116.960       -1.678      182.246      147.130       93.760    33213.634    21647.316     8790.851        8.330        3.183      320.900       91.298        0.081      337.557        9.607      856.641
12/08/2021  16:48:00     -320.581       60.941      -25.264      325.651      165.674      117.145   106048.450    27447.800    13723.011       12.714        7.361      326.322      117.717        0.130      337.539        9.578      856.630
12/08/2021  16:49:00     -381.784       81.092       -5.831      252.701      193.009      110.101    63857.705    37252.423    12122.282       13.278        5.662      390.301       92.688        0.056      337.578        9.644      856.603
12/08/2021  16:50:00     -274.749      107.762      -11.435      183.566      201.884      108.811    33696.391    40757.051    11839.859        8.675        4.315      295.127       82.105        0.077      337.619        9.711      856.612
12/08/2021  16:51:00     -314.597      117.294        5.912      259.379      174.162      112.776    67277.303    30332.455    12718.332       11.153        5.516      335.752      122.243        0.133      337.562        9.617      856.598
12/08/2021  16:52:00     -257.914       27.408      -19.017      207.917      149.559       99.303    43229.399    22367.942     9861.174        7.153        3.773      259.366      100.880        0.151      337.547        9.591      856.589
12/08/2021  16:53:00     -267.685       61.392        7.019      229.569      194.196      113.292    52701.863    37712.049    12835.120        8.934        5.162      274.635      120.350        0.192      337.541        9.581      856.597
12/08/2021  16:54:00     -512.056      193.175       -5.249      297.865      190.144      114.469    88723.785    36154.804    13103.234       21.874        6.899      547.282      115.454        0.045      337.535        9.570      856.574
12/08/2021  16:55:00     -396.909       76.724       -0.283      240.218      166.005      127.541    57704.580    27557.635    16266.701       13.246        5.076      404.256      123.342        0.093      337.528        9.560      856.556
12/08/2021  16:56:00     -461.101      148.731       -5.983      250.703      192.024      116.094    62851.912    36873.067    13477.780       17.397        5.660      484.494      107.071        0.049      337.539        9.579      856.567
12/08/2021  16:57:00     -581.876      211.483      -27.621      255.349      170.526      101.321    65203.114    29079.029    10266.009       24.429        5.227      619.116      101.920        0.027      337.537        9.574      856.601
12/08/2021  16:58:00     -329.852       65.193       -4.783      226.583      138.319       80.130    51339.776    19132.084     6420.816        9.497        3.845      336.232       99.093        0.087      337.526        9.556      856.602
12/08/2021  16:59:00     -423.943       96.728      -10.975      257.823      170.979      111.389    66472.549    29233.973    12407.573       14.864        5.406      434.837      113.265        0.068      337.529        9.560      856.639
12/08/2021  17:00:00     -447.843      138.324       -1.664      294.234      230.631      114.446    86573.358    53190.669    13097.882       18.625        7.643      468.718      124.642        0.071      337.569        9.627      856.667
12/08/2021  17:01:00     -483.904       89.158      -19.448      273.147      173.427      110.321    74609.121    30076.909    12170.755       17.965        5.843      492.049      114.910        0.055      337.535        9.570      856.643
12/08/2021  17:02:00     -590.485      189.529       -7.473      268.122      189.134      115.987    71889.529    35771.807    13453.049       25.286        6.056      620.156      129.474        0.044      337.501        9.515      856.641
12/08/2021  17:03:00     -641.063      124.904      -43.200      245.092      186.769      113.953    60070.296    34882.530    12985.239       26.816        5.397      653.117      111.511        0.029      337.505        9.520      856.623
12/08/2021  17:04:00     -301.369       62.593      -20.472      257.176      127.834       98.215    66139.444    16341.609     9646.130        9.363        4.606      307.801      100.596        0.107      337.572        9.633      856.654
12/08/2021  17:05:00     -218.136        9.806       -5.519      139.884      109.575       74.500    19567.441    12006.632     5550.292        4.241        1.856      218.357       66.479        0.093      337.532        9.567      856.675
12/08/2021  17:06:00     -199.243       58.790      -10.038      181.741      108.647       77.390    33029.659    11804.241     5989.289        4.703        2.541      207.736       60.467        0.085      337.523        9.551      856.678
12/08/2021  17:07:00     -383.603      120.318       -2.623      213.521      154.541      104.523    45591.113    23882.843    10925.018       12.100        4.020      402.030       94.993        0.056      337.537        9.574      856.661
12/08/2021  17:08:00     -425.466       88.172      -10.988      276.438      163.320      114.608    76417.971    26673.527    13134.933       15.255        5.811      434.506      118.666        0.075      337.537        9.573      856.628
12/08/2021  17:09:00     -485.866      167.895       -3.428      192.768      156.793       93.746    37159.431    24584.152     8788.333       16.739        3.527      514.057       89.235        0.030      337.478        9.476      856.634
12/08/2021  17:10:00     -367.677      160.585      -20.668      234.326      197.228       92.624    54908.679    38899.063     8579.249       13.188        5.119      401.215       93.183        0.054      337.554        9.603      856.605
12/08/2021  17:11:00     -473.782      134.600       -6.190      278.867      155.191       96.539    77766.870    24084.296     9319.865       17.688        5.559      492.531       99.546        0.041      337.469        9.460      856.595
12/08/2021  17:12:00     -267.012       81.649      -11.451      148.465      111.400       78.389    22041.785    12409.852     6144.843        5.934        2.030      279.217       64.982        0.054      337.516        9.539      856.599
12/08/2021  17:13:00     -148.333       61.897       -8.244      135.407       94.094       65.002    18335.156     8853.588     4225.233        2.865        1.571      160.729       46.195        0.083      337.596        9.675      856.585
12/08/2021  17:14:00     -483.679      176.165      -16.617      261.317      194.276      122.281    68286.370    37743.240    14952.725       19.310        6.049      514.761      121.264        0.055      337.497        9.507      856.535
12/08/2021  17:15:00     -488.011      156.356        0.759      272.499      147.602      124.545    74255.567    21786.302    15511.556       18.706        5.578      512.447      147.159        0.082      337.495        9.503      856.491
12/08/2021  17:16:00     -481.476      128.004      -14.146      308.938      167.442      108.664    95442.445    28036.970    11807.970       19.182        6.764      498.201       95.956        0.037      337.456        9.439      856.446
12/08/2021  17:17:00     -344.998       56.170      -10.350      243.315      134.638       86.330    59202.057    18127.270     7452.864       10.352        4.239      349.541       85.627        0.060      337.514        9.537      856.427
12/08/2021  17:18:00     -409.348       67.832       -9.798      242.995      155.219       98.607    59046.377    24092.836     9723.406       13.255        4.643      414.930       95.426        0.053      337.460        9.445      856.388
12/08/2021  17:19:00     -542.869      146.881       -1.449      242.618      143.769       96.068    58863.421    20669.565     9229.090       20.251        4.438      562.388       97.326        0.030      337.448        9.425      856.383
12/08/2021  17:20:00     -591.453      175.180       -8.524      247.496      142.171      102.840    61254.190    20212.491    10576.071       23.629        4.602      616.850      108.914        0.031      337.476        9.473      856.352
12/08/2021  17:21:00     -353.293       50.748       -7.146      215.530      138.254       93.638    46453.079    19114.217     8768.126       10.088        3.717      356.920       97.307        0.074      337.469        9.458      856.349
12/08/2021  17:22:00     -428.356      135.477      -15.069      177.179      149.743       81.297    31392.480    22423.069     6609.213       13.124        3.021      449.269       76.383        0.029      337.462        9.449      856.329
12/08/2021  17:23:00     -475.447       96.742       -3.573      290.513      170.218       93.715    84398.003    28974.218     8782.466       17.877        6.108      485.190       78.316        0.026      337.451        9.430      856.303
12/08/2021  17:24:00     -428.898       79.006       10.312      216.163      170.012       85.012    46726.478    28904.179     7227.069       13.656        4.143      436.114       94.258        0.047      337.473        9.467      856.316
12/08/2021  17:25:00     -410.070      117.945       11.667      330.107      219.903       93.614   108970.337    48357.167     8763.523       17.412        8.305      426.695      102.352        0.058      337.501        9.513      856.335
12/08/2021  17:26:00     -390.373      111.565        6.790      206.059      135.866       89.117    42460.302    18459.619     7941.824       11.686        3.443      406.002       92.403        0.052      337.495        9.504      856.393
12/08/2021  17:27:00     -345.068       72.399      -19.198      181.708      115.843       88.475    33017.857    13419.576     7827.754        8.946        2.713      352.581       93.257        0.070      337.478        9.475      856.432
12/08/2021  17:28:00     -287.533       98.356        3.172      276.446      142.073       97.022    76422.133    20184.611     9413.250        9.917        5.301      303.890      111.051        0.134      337.499        9.511      856.421
12/08/2021  17:29:00     -309.327       40.577      -17.744      169.209      139.908       88.032    28631.576    19574.264     7749.550        7.679        2.798      311.977       66.436        0.045      337.524        9.553      856.456
12/08/2021  17:30:00     -389.635      130.865      -17.831      209.974      138.080       90.380    44088.976    19066.004     8168.633       12.028        3.566      411.024       83.842        0.042      337.456        9.439      856.434
12/08/2021  17:31:00     -475.723      114.370       -4.109      259.321      144.744       95.186    67247.480    20950.781     9060.451       16.832        4.863      489.278       59.181        0.015      337.499        9.512      856.479
12/08/2021  17:32:00     -352.157       56.017      -12.159      249.755      147.836      109.038    62377.700    21855.555    11889.255       11.169        4.806      356.584       96.218        0.073      337.500        9.511      856.473
12/08/2021  17:33:00     -283.310       84.284        4.525      157.261      130.790       83.764    24730.959    17105.995     7016.412        6.811        2.443      295.581       64.474        0.048      337.524        9.552      856.513
12/08/2021  17:34:00     -365.528      107.458        1.803      202.684      151.311       97.738    41080.730    22895.080     9552.794       10.933        3.676      380.996       92.136        0.058      337.564        9.619      856.506
12/08/2021  17:35:00     -288.166       47.201      -14.763      217.871      153.736       97.003    47467.787    23634.755     9409.664        8.298        4.026      292.006       67.523        0.053      337.527        9.558      856.486
12/08/2021  17:36:00     -465.000      186.176        4.344      216.367      165.296      104.703    46814.485    27322.861    10962.697       16.799        4.255      500.886       97.776        0.038      337.512        9.533      856.486
12/08/2021  17:37:00     -307.430       87.260      -20.499      296.450      149.413      113.541    87882.413    22324.272    12891.502       11.280        6.155      319.574      109.091        0.117      337.467        9.459      856.475
12/08/2021  17:38:00     -381.393       65.892        0.669      233.246      154.786      102.543    54403.665    23958.611    10514.973       11.932        4.444      387.043      105.210        0.074      337.462        9.447      856.474
12/08/2021  17:39:00     -459.445      120.510      -14.514      236.078      140.067       87.806    55732.991    19618.859     7709.916       15.443        4.153      474.987       79.205        0.028      337.523        9.551      856.456
12/08/2021  17:40:00     -355.258      112.386       -1.229      243.523      175.585       99.819    59303.691    30829.975     9963.877       11.945        5.005      372.610       99.415        0.071      337.512        9.533      856.425
12/08/2021  17:41:00     -404.949      125.705      -12.140      294.658      164.240      111.013    86823.138    26974.924    12323.908       15.300        6.306      424.011      106.039        0.063      337.482        9.482      856.444
12/08/2021  17:42:00     -295.509      118.504      -31.203      221.083      108.591       93.575    48877.728    11792.016     8756.215        8.587        3.471      318.384       56.789        0.032      337.501        9.515      856.473
12/08/2021  17:43:00     -390.907      157.610       -7.490      184.032      158.813       93.145    33867.913    25221.651     8675.986       12.272        3.388      421.484       83.478        0.039      337.541        9.581      856.434
12/08/2021  17:44:00     -388.823      101.215        2.223      227.168      176.336      115.668    51605.361    31094.279    13379.070       12.874        4.804      401.781      104.501        0.068      337.527        9.559      856.409
12/08/2021  17:45:00     -475.335      133.613       -7.016      323.050      169.139      101.448   104361.393    28607.860    10291.778       19.353        7.163      493.757      126.456        0.066      337.451        9.429      856.409
12/08/2021  17:46:00     -337.247      109.091      -10.466      202.059      143.042       98.165    40827.899    20461.135     9636.448        9.832        3.546      354.453       99.378        0.079      337.510        9.529      856.454
12/08/2021  17:47:00     -319.035       92.729        6.736      178.083       99.436       77.926    31713.459     9887.483     6072.529        7.904        2.384      332.238       83.692        0.063      337.559        9.611      856.468
12/08/2021  17:48:00     -307.384      139.163      -15.189      176.629      157.514       87.862    31197.958    24810.688     7719.668        8.889        3.186      337.419       75.508        0.050      337.511        9.531      856.509
12/08/2021  17:49:00     -181.711       75.730       -1.009      203.035      158.709       93.301    41223.350    25188.430     8705.120        5.692        3.756      196.861       86.382        0.193      337.523        9.552      856.508
12/08/2021  17:50:00     -236.970      144.128        1.706      292.668      169.547       90.548    85654.574    28746.327     8198.901        9.974        6.130      277.359       96.551        0.121      337.510        9.530      856.504
12/08/2021  17:51:00     -347.358       78.951      -18.457      246.192      125.010       98.723    60610.645    15627.495     9746.219       10.659        4.299      356.218       86.122        0.058      337.440        9.411      856.463
12/08/2021  17:52:00     -321.589      112.111       10.763      192.668      154.557       94.457    37120.952    23887.865     8922.107        9.300        3.497      340.571       94.653        0.077      337.481        9.482      856.430
12/08/2021  17:53:00     -384.356      139.203       -0.436      214.298      147.325      100.892    45923.453    21704.547    10179.253       12.244        3.890      408.787      111.546        0.074      337.457        9.439      856.413
12/08/2021  17:54:00     -399.389      137.554        7.441      321.377      155.314      106.624   103283.181    24122.403    11368.631       15.861        6.939      422.413      131.264        0.097      337.482        9.481      856.406
12/08/2021  17:55:00     -401.063      106.010      -11.178      231.534      148.846      102.275    53607.807    22155.070    10460.240       12.920        4.311      414.837       75.695        0.033      337.473        9.467      856.407
12/08/2021  17:56:00     -351.467       88.999       -3.705      246.943      146.331       90.328    60981.000    21412.625     8159.067       11.099        4.528      362.560      101.562        0.078      337.449        9.426      856.422
12/08/2021  17:57:00     -304.211       82.268       -1.289      194.444      147.867       88.835    37808.292    21864.656     7891.601        8.343        3.378      315.138      102.464        0.106      337.471        9.464      856.410
12/08/2021  17:58:00     -442.370      142.269       -4.423      243.774      176.376      109.872    59425.954    31108.598    12071.932       15.926        5.130      464.685      105.979        0.052      337.452        9.431      856.397
12/08/2021  17:59:00     -366.997      123.059      -21.776      181.015      132.468       75.064    32766.312    17547.650     5634.596       10.312        2.797      387.079       53.954        0.019      337.506        9.521      856.371
12/08/2021  18:00:00     -449.555      141.030      -18.167      229.642      148.999       92.241    52735.468    22200.686     8508.431       15.287        4.172      471.157       88.196        0.035      337.436        9.405      856.344
12/08/2021  18:01:00     -442.565      116.865      -12.405      315.340      179.864       98.045    99439.173    32350.963     9612.757       17.551        7.070      457.735       94.691        0.043      337.421        9.380      856.314
12/08/2021  18:02:00     -337.228      193.615      -22.686      152.839      144.302       84.219    23359.858    20823.087     7092.810       10.149        2.564      388.857       86.221        0.049      337.498        9.509      856.319
12/08/2021  18:03:00     -166.777       27.693        2.816      201.788      156.659       89.775    40718.448    24542.130     8059.550        5.094        3.666      169.060       89.006        0.277      337.424        9.386      856.284
12/08/2021  18:04:00     -253.158      109.206       -7.476      179.495      139.536       76.687    32218.348    19470.384     5880.944        6.681        2.878      275.708       69.741        0.064      337.474        9.468      856.308
12/08/2021  18:05:00     -543.117       86.243      -19.648      217.584      130.021       93.896    47342.785    16905.520     8816.544       18.792        3.653      549.921       79.624        0.021      337.384        9.318      856.300
12/08/2021  18:06:00     -318.746        8.837       -7.514      241.499      120.123      102.735    58321.956    14429.645    10554.418        9.250        4.165      318.868      102.718        0.104      337.384        9.319      856.296
12/08/2021  18:07:00     -273.840       71.082      -14.981      231.656      135.914       98.866    53664.614    18472.686     9774.417        8.107        4.096      282.915       77.538        0.075      337.411        9.363      856.290
12/08/2021  18:08:00     -414.874       95.335       -9.526      198.689      141.827       98.029    39477.420    20115.031     9609.661       12.524        3.460      425.687       86.597        0.041      337.402        9.348      856.281
12/08/2021  18:09:00     -301.508      104.187       -8.880      196.556      117.094       86.841    38634.420    13711.108     7541.298        8.085        2.994      319.001       64.890        0.041      337.517        9.542      856.257
12/08/2021  18:10:00     -486.881      157.613      -24.349      219.569      164.798       90.724    48210.583    27158.411     8230.808       17.303        4.180      511.756       99.493        0.038      337.415        9.369      856.211
12/08/2021  18:11:00     -437.949      142.839      -30.715      147.465      124.564       71.958    21745.982    15516.213     5177.914       12.779        2.122      460.654       66.315        0.021      337.401        9.346      856.193
12/08/2021  18:12:00     -274.323      107.359        6.566      275.005      173.408      113.185    75627.774    30070.239    12810.913       10.264        5.925      294.583      130.823        0.197      337.415        9.370      856.164
12/08/2021  18:13:00     -365.921      115.313       -6.755      192.499      143.396       88.317    37056.003    20562.555     7799.965       10.632        3.271      383.661       70.319        0.034      337.494        9.503      856.152
12/08/2021  18:14:00     -438.353       95.718      -14.646      290.173      151.064       94.339    84200.386    22820.392     8899.794       15.870        5.796      448.682       99.938        0.050      337.413        9.366      856.128
12/08/2021  18:15:00     -359.330      120.422       -4.311      210.268      148.431       89.005    44212.785    22031.619     7921.825       10.889        3.708      378.971       90.915        0.058      337.418        9.375      856.111
12/08/2021  18:16:00     -417.823      158.245       -7.843      237.697      132.354       89.768    56499.798    17517.572     8058.215       14.086        4.104      446.785       76.332        0.029      337.409        9.358      856.078
12/08/2021  18:17:00     -166.847      -10.477      -15.732      182.422       89.733       98.122    33277.877     8052.071     9627.934        3.957        2.548      167.175       97.566        0.341      337.456        9.439      856.078
12/08/2021  18:18:00     -368.982      100.820      -13.506      151.430      120.084       69.159    22931.143    14420.173     4782.973        9.431        2.107      382.508       62.767        0.027      337.447        9.423      856.096
12/08/2021  18:19:00     -447.918      137.028       -4.519      190.615      164.520      105.252    36334.093    27066.807    11078.054       14.694        3.724      468.410       92.143        0.039      337.415        9.371      856.051
12/08/2021  18:20:00     -308.912      151.829       -5.398      171.299      138.238       88.518    29343.465    19109.764     7835.515        8.739        2.814      344.207       71.983        0.044      337.478        9.475      855.995
12/08/2021  18:21:00     -314.109       57.438      -14.850      191.554      147.683      103.124    36692.988    21810.299    10634.540        8.565        3.457      319.317       91.032        0.081      337.437        9.407      856.014
12/08/2021  18:22:00     -465.260       86.632       -7.847      204.758      147.511      106.699    41925.680    21759.420    11384.685       14.954        3.753      473.256      106.550        0.051      337.423        9.384      855.985
12/08/2021  18:23:00     -296.085       79.363       12.171      194.004      137.251       77.364    37637.582    18837.842     5985.247        7.828        3.123      306.536       84.673        0.076      337.458        9.441      855.972
12/08/2021  18:24:00     -394.786       80.896        7.088      212.950      137.860       91.308    45347.746    19005.396     8337.068       11.756        3.635      402.989       96.063        0.057      337.340        9.244      855.984
12/08/2021  18:25:00     -237.123       69.857       -9.165      183.609      137.491       77.740    33712.324    18903.827     6043.438        5.991        2.933      247.199       83.044        0.113      337.407        9.356      855.982
12/08/2021  18:26:00     -334.265       83.714       10.635      171.691      123.581       85.894    29477.710    15272.327     7377.832        8.548        2.606      344.588       74.845        0.047      337.398        9.341      855.996
12/08/2021  18:27:00     -321.073       81.974      -13.692      174.621      136.137       74.819    30492.570    18533.237     5597.894        8.230        2.731      331.372       66.135        0.040      337.414        9.369      855.985
12/08/2021  18:28:00     -381.951       98.659      -15.973      250.481      150.339       92.586    62740.656    22601.719     8572.209       12.488        4.696      394.487       82.062        0.043      337.393        9.334      855.963
12/08/2021  18:29:00     -335.528       27.601       -3.482      245.300      179.801      102.462    60172.182    32328.268    10498.505       10.816        5.150      336.661      106.235        0.100      337.404        9.353      855.930
12/08/2021  18:30:00     -385.970      102.539       -1.249      170.538      125.858       93.567    29083.089    15840.215     8754.750       10.657        2.684      399.358       80.324        0.040      337.371        9.296      855.904
12/08/2021  18:31:00     -120.983       41.630       11.893      113.359      101.118       56.186    12850.371    10224.919     3156.882        2.137        1.312      127.945       53.848        0.177      337.483        9.486      855.886
12/08/2021  18:32:00     -403.466      109.264        0.924      182.571      159.803       99.278    33332.321    25537.018     9856.142       12.171        3.436      417.999       92.470        0.049      337.427        9.389      855.849
12/08/2021  18:33:00     -476.407      122.895       -6.459      194.962      136.849       84.658    38010.078    18727.703     7166.969       15.300        3.195      492.003       92.865        0.036      337.354        9.269      855.861
12/08/2021  18:34:00     -374.765       61.531      -24.931      168.144      135.517       80.442    28272.424    18364.924     6470.896        9.897        2.655      379.783       68.898        0.033      337.353        9.268      855.893
12/08/2021  18:35:00     -320.503       79.814       -2.156      191.269      157.142       90.344    36583.720    24693.500     8162.014        8.926        3.472      330.292       80.537        0.059      337.379        9.310      855.874
12/08/2021  18:36:00     -378.071      150.226      -12.375      219.356      113.994       93.572    48117.080    12994.725     8755.684       11.775        3.493      406.824       81.109        0.040      337.387        9.322      855.894
12/08/2021  18:37:00     -223.721       52.123        0.693      203.316      153.043       96.341    41337.297    23422.173     9281.492        6.339        3.702      229.713       98.479        0.184      337.348        9.259      855.912
12/08/2021  18:38:00     -187.766       43.771       10.927      159.927      112.585       73.727    25576.516    12675.315     5435.645        4.048        2.184      192.800       63.542        0.109      337.432        9.399      855.909
12/08/2021  18:39:00     -378.893       95.321      -19.887      223.217      118.242       79.631    49825.891    13981.123     6341.099       11.158        3.507      390.699       94.977        0.059      337.396        9.340      855.921
12/08/2021  18:40:00     -256.936       58.847      -19.213      238.562      173.116      104.488    56911.790    29968.990    10917.783        8.381        4.890      263.589      119.453        0.205      337.419        9.376      855.871
12/08/2021  18:41:00     -367.447      122.354       -0.385      196.966      159.276      104.579    38795.481    25368.947    10936.790       11.253        3.755      387.282       98.614        0.065      337.466        9.455      855.878
12/08/2021  18:42:00     -310.665      131.282        1.759      183.206      122.611       87.191    33564.295    15033.373     7602.222        8.496        2.810      337.265       91.729        0.074      337.485        9.487      855.858
12/08/2021  18:43:00     -362.455      108.740       -2.327      179.896      110.040       78.742    32362.500    12108.711     6200.233        9.693        2.534      378.415       81.117        0.046      337.441        9.413      855.856
12/08/2021  18:44:00     -522.128      164.602       -5.482      199.550      154.358      106.698    39820.312    23826.533    11384.540       18.737        3.752      547.459      106.632        0.038      337.360        9.278      855.870
12/08/2021  18:45:00     -311.091      111.107      -15.020      207.297      113.127       80.170    42972.236    12797.646     6427.235        8.576        3.110      330.337       83.635        0.064      337.424        9.384      855.902
12/08/2021  18:46:00     -227.957       76.872        0.425      194.560      113.646       68.685    37853.706    12915.345     4717.659        5.667        2.774      240.570       61.254        0.065      337.469        9.462      855.879
12/08/2021  18:47:00     -323.727       99.332      -11.773      174.764      123.541       84.886    30542.568    15262.475     7205.682        8.390        2.651      338.624       84.889        0.063      337.376        9.304      855.877
12/08/2021  18:48:00     -343.122       95.473      -16.271      174.480       95.936       72.076    30443.356     9203.794     5194.948        8.597        2.242      356.157       85.219        0.057      337.359        9.274      855.874
12/08/2021  18:49:00     -353.214       95.797      -11.311      195.519      108.840       72.362    38227.553    11846.181     5236.313        9.468        2.766      365.975       73.575        0.040      337.370        9.294      855.841
12/08/2021  18:50:00     -322.032       50.297       10.509      170.326      128.384       93.057    29011.004    16482.393     8659.642        8.024        2.708      325.937       85.396        0.069      337.386        9.322      855.861
12/08/2021  18:51:00     -426.116      144.816        0.062      206.594      165.067       91.161    42681.247    27246.970     8310.297       14.038        3.912      450.052       89.480        0.040      337.455        9.437      855.839
12/08/2021  18:52:00     -364.612       62.402       -1.477      224.232      144.910       96.603    50280.166    20998.768     9332.104       10.871        4.031      369.913       96.204        0.068      337.402        9.348      855.812
12/08/2021  18:53:00     -236.725       84.598        6.921      175.868      117.721       72.255    30929.683    13858.164     5220.719        5.662        2.500      251.387       78.603        0.098      337.430        9.396      855.820
12/08/2021  18:54:00     -244.474       19.507      -17.223      198.443      160.275      102.596    39379.581    25688.173    10525.983        6.801        3.780      245.251      106.095        0.187      337.450        9.429      855.811
12/08/2021  18:55:00     -553.078      176.912      -33.306      260.716      203.092       96.604    67972.768    41246.178     9332.314       22.841        5.928      580.683       79.419        0.019      337.489        9.494      855.813
12/08/2021  18:56:00     -246.608       69.482      -17.471      119.000       98.113       61.531    14160.914     9626.252     3786.004        4.676        1.379      256.210       63.899        0.062      337.500        9.512      855.844
12/08/2021  18:57:00     -298.521       97.183       -2.743      151.721      105.719       75.625    23019.286    11176.520     5719.095        6.923        1.996      313.942       74.736        0.057      337.469        9.460      855.824
12/08/2021  18:58:00     -288.781      124.903       10.928      154.641      135.331       83.743    23913.725    18314.422     7012.930        7.417        2.462      314.636       68.970        0.048      337.489        9.493      855.799
12/08/2021  18:59:00     -245.168       93.657      -17.458      196.186      120.620       72.989    38488.999    14549.180     5327.338        6.376        2.918      262.448       63.451        0.058      337.432        9.398      855.752
12/08/2021  19:00:00     -443.785      131.610        4.241      304.635      164.540      101.852    92802.756    27073.312    10373.770       17.224        6.512      462.889      101.590        0.048      337.477        9.473      855.740
12/08/2021  19:01:00     -348.841      138.866        3.595      172.964      112.987       80.615    29916.448    12765.956     6498.774        9.507        2.459      375.465       90.314        0.058      337.498        9.509      855.781
12/08/2021  19:02:00     -453.923      134.519      -16.403      216.053      179.396       87.761    46678.833    32182.991     7702.013       15.547        4.328      473.436       96.708        0.042      337.396        9.338      855.794
12/08/2021  19:03:00     -334.676       84.152       -7.631      257.747      147.266       94.991    66433.261    21687.276     9023.312       10.813        4.857      345.093       91.804        0.071      337.392        9.332      855.831
12/08/2021  19:04:00     -281.200       60.650       -9.990      168.007      121.080       86.667    28226.296    14660.469     7511.213        6.662        2.520      287.666       86.579        0.091      337.394        9.335      855.856
12/08/2021  19:05:00     -293.585      153.031      -28.512      146.650      137.288       63.988    21506.098    18847.864     4094.503        7.743        2.222      331.075       48.718        0.022      337.478        9.476      855.821
12/08/2021  19:06:00     -316.795      183.579      -12.727      159.712      156.129       74.386    25507.801    24376.265     5533.271        9.481        2.771      366.142       64.607        0.031      337.438        9.408      855.792
12/08/2021  19:07:00     -357.055      110.436      -10.853      210.040      140.673       78.526    44116.696    19788.758     6166.255       10.492        3.504      373.744       80.078        0.046      337.405        9.353      855.820
12/08/2021  19:08:00     -283.892       88.713        9.912      234.711      154.661       97.680    55089.123    23919.924     9541.309        8.854        4.428      297.430       98.507        0.110      337.409        9.360      855.831
12/08/2021  19:09:00     -383.899       93.311       -5.993      234.188      170.480      102.047    54844.198    29063.430    10413.675       12.520        4.716      395.076       92.733        0.055      337.392        9.331      855.875
12/08/2021  19:10:00     -423.028      119.591      -26.708      223.339      184.869      104.227    49880.331    34176.541    10863.320       14.443        4.746      439.608      104.378        0.056      337.407        9.357      855.855
12/08/2021  19:11:00     -305.421      147.747        4.165      155.747      131.222       77.550    24257.074    17219.290     6013.957        8.130        2.375      339.281       71.227        0.044      337.413        9.367      855.817
12/08/2021  19:12:00     -476.042      106.351       -8.513      325.515      212.302      125.842   105959.858    45072.058    15836.127       20.240        8.343      487.777      136.980        0.079      337.390        9.328      855.750
12/08/2021  19:13:00     -436.065      110.769      -18.753      227.281      131.411       93.590    51656.659    17268.830     8759.138       14.022        3.884      449.914       89.309        0.039      337.390        9.330      855.765
12/08/2021  19:14:00     -461.888      145.598      -11.414      203.319      147.219       79.577    41338.418    21673.396     6332.565       15.199        3.467      484.292       74.554        0.024      337.432        9.399      855.791
12/08/2021  19:15:00     -237.541        6.769       -7.896      140.916      109.177       78.242    19857.369    11919.724     6121.803        4.721        1.895      237.638       64.934        0.075      337.490        9.496      855.805
12/08/2021  19:16:00     -122.400       38.595        0.355      192.804      122.765       88.137    37173.222    15071.278     7768.100        3.823        3.001      128.341       76.737        0.358      337.394        9.335      855.751
12/08/2021  19:17:00     -300.986       70.625      -12.666      206.537      159.556       86.297    42657.448    25457.993     7447.172        8.564        3.778      309.161       76.242        0.061      337.394        9.336      855.710
12/08/2021  19:18:00     -310.841      133.587       27.076      258.289      121.272       86.734    66712.964    14706.941     7522.772       10.206        4.447      338.331       90.825        0.072      337.382        9.315      855.727
12/08/2021  19:19:00     -218.158       60.434        8.322      187.748      118.006       72.772    35249.205    13925.372     5295.692        5.288        2.724      226.374       63.401        0.078      337.393        9.334      855.717
12/08/2021  19:20:00     -485.213       39.589      -50.136      208.680      147.442       80.685    43547.334    21739.197     6510.020       15.564        3.590      486.825       86.022        0.031      337.382        9.314      855.696
12/08/2021  19:21:00     -282.540       70.709       -0.695      182.812      116.616       90.027    33420.314    13599.382     8104.945        6.997        2.756      291.254       77.755        0.071      337.409        9.360      855.643
12/08/2021  19:22:00     -469.750      171.804      -14.930      257.981      184.371       90.837    66554.106    33992.523     8251.281       17.958        5.440      500.182      101.277        0.041      337.418        9.375      855.627
12/08/2021  19:23:00     -194.055       21.182       11.224      234.012      150.401      109.635    54761.753    22620.357    12019.808        6.380        4.470      195.208      111.354        0.325      337.420        9.379      855.628
12/08/2021  19:24:00     -288.181      -24.930      -25.560      219.415      134.187      106.826    48142.736    18006.252    11411.808        8.093        3.878      289.257      110.629        0.146      337.434        9.400      855.599
12/08/2021  19:25:00     -267.774      -31.780       -7.785      227.855      147.886      123.409    51917.830    21870.293    15229.879        8.088        4.451      269.653      130.639        0.235      337.430        9.397      855.576
12/08/2021  19:26:00     -298.997       65.061      -11.571      211.100      157.411       97.953    44563.307    24778.371     9594.831        8.634        3.947      305.994       81.252        0.071      337.455        9.437      855.618
12/08/2021  19:27:00     -459.699      121.976      -16.167      221.994      180.458      106.684    49281.233    32565.222    11381.475       15.983        4.661      475.607      104.353        0.048      337.431        9.397      855.616
12/08/2021  19:28:00     -380.756       58.890        5.691      269.929      141.357       94.785    72861.810    19981.805     8984.274       12.513        5.091      385.283      108.135        0.079      337.440        9.413      855.604
12/08/2021  19:29:00     -172.697        5.027      -20.262      152.266      132.233       93.887    23185.084    17485.590     8814.782        3.986        2.474      172.770       77.318        0.200      337.436        9.405      855.591
12/08/2021  19:30:00     -232.637       49.151       -6.150      216.226      149.759      109.289    46753.893    22427.718    11944.071        6.883        4.056      237.773      115.780        0.237      337.453        9.435      855.564
12/08/2021  19:31:00     -160.384       73.106       -2.554      211.562      146.330       93.884    44758.552    21412.531     8814.157        5.302        3.749      176.260       79.529        0.204      337.489        9.495      855.565
12/08/2021  19:32:00     -221.729      -27.386        4.288      205.661      144.562      116.508    42296.311    20898.186    13574.035        6.334        3.838      223.414      102.796        0.212      337.426        9.390      855.595
12/08/2021  19:33:00     -317.692       -0.083        9.288      270.190      166.225      127.096    73002.866    27630.628    16153.491       10.888        5.839      317.692      143.770        0.205      337.409        9.361      855.590
12/08/2021  19:34:00     -181.776       53.602        4.047      193.195      148.445       89.315    37324.265    22035.855     7977.204        5.162        3.367      189.515       89.983        0.225      337.435        9.403      855.567
12/08/2021  19:35:00     -364.955       95.417      -26.317      153.160      117.783       74.010    23458.062    13872.806     5477.451        9.289        2.140      377.223       52.123        0.019      337.436        9.403      855.538
12/08/2021  19:36:00     -263.039       62.653       -4.573      229.271      149.170       95.960    52565.321    22251.611     9208.329        7.857        4.201      270.398       95.316        0.124      337.423        9.385      855.508
12/08/2021  19:37:00     -287.463       79.718       14.252      197.439      142.179       94.501    38981.981    20214.937     8930.502        7.865        3.406      298.312       83.635        0.079      337.448        9.426      855.504
12/08/2021  19:38:00     -446.129       85.332      -23.205      262.526      186.107      110.354    68920.021    34635.885    12178.112       16.127        5.787      454.216      113.261        0.062      337.369        9.295      855.517
12/08/2021  19:39:00     -316.284      120.324       17.679      191.551      145.256       91.590    36691.900    21099.400     8388.752        9.049        3.309      338.399       99.920        0.087      337.413        9.368      855.493
12/08/2021  19:40:00     -482.813      114.717      -47.235      290.793      165.192      105.922    84560.495    27288.282    11219.446       18.576        6.153      496.254       76.030        0.023      337.402        9.349      855.502
12/08/2021  19:41:00     -438.526      110.602       -1.676      256.138      163.336       98.557    65606.530    26678.505     9713.477       15.325        5.100      452.259      115.167        0.065      337.365        9.287      855.475
12/08/2021  19:42:00     -564.245       51.022      -19.532      305.398      209.264      122.577    93267.780    43791.243    15025.078       23.669        7.604      566.547      115.063        0.041      337.410        9.362      855.482
12/08/2021  19:43:00     -245.262       30.626       -9.411      239.478      162.281      112.297    57349.777    26335.261    12610.529        7.872        4.815      247.166      112.799        0.208      337.437        9.407      855.517
12/08/2021  19:44:00     -409.564      -27.753      -21.549      245.145      168.835       99.326    60095.845    28505.158     9865.596       13.370        4.923      410.503       90.838        0.049      337.411        9.363      855.541
12/08/2021  19:45:00      -94.922       11.211      -16.003      200.192      112.293       92.934    40076.672    12609.713     8636.645        3.535        3.066       95.581       80.707        0.713      337.404        9.353      855.518
12/08/2021  19:46:00     -349.979      -15.007      -25.171      258.778      142.396      103.072    66965.942    20276.742    10623.741       11.059        4.893      350.301      114.618        0.107      337.364        9.286      855.540
12/08/2021  19:47:00     -328.911       29.460      -13.707      312.278      166.905      113.795    97517.838    27857.193    12949.238       12.376        6.916      330.228      102.981        0.097      337.332        9.231      855.529
12/08/2021  19:48:00     -418.992       50.620      -27.914      311.828      163.634      114.540    97236.483    26776.185    13119.349       15.799        6.857      422.039       96.154        0.052      337.351        9.263      855.528
12/08/2021  19:49:00     -599.186      121.649      -34.772      192.101      162.626      100.360    36902.677    26447.213    10072.198       22.421        3.671      611.410       94.216        0.024      337.315        9.203      855.539
12/08/2021  19:50:00     -264.033       -7.421      -21.458      219.685      150.358      107.279    48261.495    22607.452    11508.781        7.629        4.119      264.137      101.832        0.149      337.356        9.272      855.556
12/08/2021  19:51:00     -190.103       29.041       13.256      265.535      140.954      113.686    70508.858    19868.048    12924.620        7.021        5.165      192.309      108.610        0.319      337.403        9.351      855.564
12/08/2021  19:52:00     -298.800        3.099        7.003      273.610      163.262      130.431    74862.213    26654.354    17012.331       10.391        5.926      298.817      140.209        0.220      337.374        9.302      855.579
12/08/2021  19:53:00     -292.820       34.971       -6.662      249.377      111.982       89.709    62189.033    12540.047     8047.644        8.488        4.139      294.901       86.308        0.086      337.352        9.267      855.611
12/08/2021  19:54:00     -307.396       29.195      -17.776      240.527      104.042       73.376    57853.376    10824.823     5384.063        8.485        3.703      308.779       75.719        0.060      337.344        9.251      855.616
12/08/2021  19:55:00      -83.160       82.537        0.339      172.650      124.230       78.432    29807.886    15433.159     6151.580        3.255        2.570      117.167       62.112        0.281      337.395        9.338      855.626
12/08/2021  19:56:00     -320.339       38.996       -5.595      250.737      140.813       76.280    62869.214    19828.328     5818.700        9.633        4.426      322.703       75.064        0.054      337.355        9.271      855.590
12/08/2021  19:57:00     -597.761      184.957      -30.261      214.083      191.583       90.750    45831.583    36703.855     8235.564       24.159        4.539      625.721       87.300        0.019      337.402        9.348      855.568
12/08/2021  19:58:00     -598.125      127.465      -33.649      225.168      159.403       86.282    50700.575    25409.201     7444.667       22.933        4.178      611.556       87.497        0.020      337.426        9.387      855.594
12/08/2021  19:59:00     -310.521      -20.420      -18.147      253.281      143.195      121.220    64151.257    20504.940    14694.274        9.824        4.968      311.192      116.043        0.139      337.459        9.444      855.599
12/08/2021  20:00:00     -349.589       22.765      -18.943      251.113      151.781       92.854    63057.857    23037.482     8621.807       10.889        4.736      350.329       97.159        0.077      337.460        9.445      855.594
12/08/2021  20:01:00     -246.153      114.160       -7.068      183.828      127.824       77.742    33792.621    16338.957     6043.857        6.491        2.809      271.338       68.790        0.064      337.435        9.405      855.599
12/08/2021  20:02:00     -355.071       66.466      -17.362      199.077      133.877       99.815    39631.600    17923.138     9963.083        9.914        3.376      361.238       92.254        0.065      337.393        9.334      855.601
12/08/2021  20:03:00     -302.884       78.149      -10.813      216.601      137.109       98.733    46915.878    18798.749     9748.278        8.670        3.773      312.804       72.010        0.053      337.391        9.330      855.622
12/08/2021  20:04:00     -381.051      115.302      -29.173      160.129      123.833       81.659    25641.293    15334.711     6668.166       10.349        2.382      398.114       89.225        0.050      337.424        9.385      855.648
12/08/2021  20:05:00     -287.501      115.903        6.548      202.401      115.359       84.769    40966.260    13307.626     7185.706        7.879        3.073      309.984       75.078        0.059      337.499        9.510      855.623
12/08/2021  20:06:00     -418.976       54.772      -27.121      186.483      129.021       89.908    34775.835    16646.407     8083.451       11.938        2.975      422.541       77.166        0.033      337.392        9.332      855.626
12/08/2021  20:07:00     -449.379       92.245       -8.781      195.605      168.700       90.368    38261.244    28459.812     8166.329       14.269        3.744      458.749       73.729        0.026      337.379        9.310      855.631
12/08/2021  20:08:00     -480.122      135.215      -13.515      161.698      131.827       86.099    26146.316    17378.483     7412.967       14.995        2.547      498.799       74.126        0.022      337.357        9.274      855.619
12/08/2021  20:09:00     -340.385      110.929       -1.078      170.081      123.964       87.936    28927.476    15367.118     7732.696        9.009        2.601      358.004       83.721        0.055      337.385        9.320      855.630
12/08/2021  20:10:00     -284.537       63.411       -6.692      152.249       96.988       65.154    23179.678     9406.615     4245.089        6.092        1.842      291.517       50.790        0.030      337.412        9.366      855.614
12/08/2021  20:11:00     -401.070      125.674       -6.838      250.649      149.174      101.247    62824.868    22252.946    10250.862       13.600        4.766      420.299       91.936        0.048      337.391        9.331      855.609
12/08/2021  20:12:00     -341.013       24.929      -16.705      264.622      216.037      103.757    70024.919    46671.803    10765.523       12.230        6.373      341.923       85.697        0.063      337.410        9.362      855.609
12/08/2021  20:13:00     -132.296       57.900        2.605      214.694      144.319       93.823    46093.615    20827.873     8802.681        4.828        3.786      144.411       90.434        0.392      337.419        9.378      855.631
12/08/2021  20:14:00     -411.055      120.070       17.869      237.973      140.509       92.012    56630.951    19742.764     8466.260       13.426        4.242      428.232       93.777        0.048      337.380        9.312      855.651
12/08/2021  20:15:00     -315.255       50.162      -14.647      184.502      128.390       78.099    34041.097    16484.113     6099.531        7.936        2.831      319.221       72.081        0.051      337.432        9.399      855.657
12/08/2021  20:16:00     -414.137      123.192       -0.701      193.832      115.616       79.061    37570.994    13367.015     6250.577       12.193        2.859      432.072       88.261        0.042      337.410        9.361      855.665
12/08/2021  20:17:00     -288.279       75.887        3.561      202.942      112.183       95.689    41185.627    12584.967     9156.365        7.589        3.146      298.100       98.701        0.110      337.397        9.340      855.668
12/08/2021  20:18:00     -264.134       70.793        1.348      157.435      142.131       88.886    24785.726    20201.330     7900.746        6.382        2.644      273.457       75.837        0.077      337.373        9.299      855.708
12/08/2021  20:19:00     -428.071       25.557      -11.128      308.767      153.884      111.446    95337.285    23680.182    12420.315       15.771        6.572      428.833      139.274        0.105      337.371        9.299      855.704
12/08/2021  20:20:00     -305.550       31.908        1.269      253.125      150.541       89.795    64072.179    22662.688     8063.082        9.457        4.740      307.212       85.000        0.077      337.379        9.312      855.725
12/08/2021  20:21:00     -331.061       64.571      -23.457      186.674      146.161       83.199    34847.242    21362.963     6922.079        8.872        3.157      337.299       70.772        0.044      337.436        9.405      855.741
12/08/2021  20:22:00     -215.433       14.764       -3.123      208.763      120.366       80.149    43581.796    14487.898     6423.899        5.555        3.225      215.938       89.687        0.173      337.379        9.311      855.718
12/08/2021  20:23:00     -348.005      129.683       -3.608      187.411      129.515       82.313    35122.945    16774.105     6775.493        9.829        2.934      371.383       77.251        0.043      337.383        9.316      855.693
12/08/2021  20:24:00     -174.342       18.693      -22.789      216.526      120.509       96.683    46883.555    14522.346     9347.532        5.100        3.538      175.341       68.132        0.151      337.382        9.317      855.704
12/08/2021  20:25:00     -179.639        1.755      -11.611      174.079      117.811       77.365    30303.467    13879.491     5985.274        4.128        2.508      179.648       74.315        0.171      337.379        9.313      855.708
12/08/2021  20:26:00     -347.347        9.870      -38.374      207.917      118.147       87.901    43229.649    13958.714     7726.542        9.356        3.246      347.487       71.240        0.042      337.389        9.326      855.700
12/08/2021  20:27:00     -270.615      -26.747       -2.031      251.527      146.631      112.537    63266.067    21500.552    12664.663        8.567        4.872      271.934      105.249        0.150      337.377        9.306      855.666
12/08/2021  20:28:00     -254.700       57.463      -12.085      200.568      154.082      100.795    40227.472    23741.387    10159.608        7.121        3.706      261.101       93.770        0.129      337.386        9.324      855.642
12/08/2021  20:29:00     -338.296       10.445      -35.326      271.560      150.605       95.397    73745.061    22681.898     9100.564       11.064        5.276      338.457       88.041        0.068      337.366        9.288      855.615
12/08/2021  20:30:00     -324.576        9.755       -9.069      239.323      149.614      114.777    57275.714    22384.421    13173.849        9.916        4.642      324.723       86.989        0.072      337.365        9.288      855.597
12/08/2021  20:31:00     -440.131       48.213      -18.444      214.602      204.367      135.178    46053.990    41765.874    18273.152       15.122        5.305      442.764      113.985        0.066      337.367        9.290      855.617
12/08/2021  20:32:00     -244.119       70.578       -6.174      155.797      113.553       78.182    24272.685    12894.247     6112.406        5.394        2.164      254.117       60.037        0.056      337.416        9.372      855.624
12/08/2021  20:33:00     -255.726       30.834      -32.423      255.503      117.097       78.598    65281.775    13711.773     6177.594        7.627        4.259      257.578       72.444        0.079      337.357        9.274      855.635
12/08/2021  20:34:00     -317.432       70.132      -19.381      222.181      186.369      100.140    49364.361    34733.280    10028.064       10.007        4.706      325.087       85.429        0.069      337.337        9.241      855.617
12/08/2021  20:35:00     -458.492       35.974       -9.466      224.310      138.294      122.484    50314.822    19125.332    15002.437       14.801        4.222      459.901      122.295        0.071      337.313        9.200      855.600
12/08/2021  20:36:00     -368.622       27.417       -5.644      263.596      150.173      103.678    69482.702    22551.924    10749.082       11.971        5.139      369.640       98.281        0.071      337.305        9.188      855.582
12/08/2021  20:37:00     -203.928      -53.388        4.717      217.720      146.550       98.285    47401.886    21476.863     9659.929        6.148        3.927      210.801       96.913        0.211      337.322        9.214      855.609
12/08/2021  20:38:00     -207.531       25.116       18.115      306.044      137.557      112.917    93663.140    18921.898    12750.227        8.466        6.267      209.045      129.728        0.385      337.306        9.189      855.629
12/08/2021  20:39:00     -418.841       56.421      -19.214      227.254      147.831      107.701    51644.543    21854.029    11599.602       13.202        4.255      422.624       96.324        0.052      337.325        9.220      855.640
12/08/2021  20:40:00     -417.169        4.148      -15.385      233.110      160.007       94.366    54340.443    25602.305     8904.942       13.155        4.442      417.190       70.702        0.029      337.327        9.224      855.634
12/08/2021  20:41:00     -279.111       52.335      -27.200      180.217      147.629       89.118    32478.033    21794.365     7941.966        7.179        3.111      283.975       69.514        0.060      337.303        9.184      855.631
12/08/2021  20:42:00     -293.591       84.562      -12.689      204.309      157.443       99.938    41742.041    24788.317     9987.627        8.500        3.826      305.527       89.957        0.087      337.296        9.172      855.629
12/08/2021  20:43:00     -207.196      -15.083      -12.275      183.617      131.578      106.988    33715.120    17312.645    11446.337        5.288        3.124      207.745      101.063        0.237      337.272        9.132      855.628
12/08/2021  20:44:00     -252.991       58.019       11.283      224.916      151.405       86.378    50587.325    22923.432     7461.227        7.422        4.049      259.558       94.276        0.132      337.295        9.172      855.612
12/08/2021  20:45:00     -262.434       46.547       -0.995      205.337      141.169       85.021    42163.279    19928.574     7228.595        7.017        3.466      266.530       70.361        0.070      337.269        9.127      855.592
12/08/2021  20:46:00     -229.695      -46.279      -18.461      207.214      122.828       79.130    42937.718    15086.829     6261.480        5.975        3.214      234.311       73.384        0.098      337.272        9.132      855.580
12/08/2021  20:47:00     -482.020       57.644      -28.868      286.600      220.408      131.790    82139.390    48579.672    17368.599       19.227        7.404      485.454      139.568        0.083      337.237        9.073      855.592
12/08/2021  20:48:00     -421.368       16.776      -36.862      235.393      159.945      107.327    55410.054    25582.448    11519.126       13.583        4.626      421.702      102.009        0.059      337.248        9.093      855.622
12/08/2021  20:49:00     -344.168       -9.102      -15.852      237.485      160.735      101.073    56398.943    25835.688    10215.760       10.560        4.623      344.289      111.731        0.105      337.272        9.134      855.634
12/08/2021  20:50:00     -350.850       30.282      -17.362      203.229      156.648       96.942    41301.994    24538.635     9397.698        9.976        3.762      352.155       87.697        0.062      337.246        9.090      855.650
12/08/2021  20:51:00     -383.085       34.889      -15.154      163.195      118.910       80.369    26632.675    14139.539     6459.168        9.771        2.362      384.670       81.018        0.044      337.260        9.111      855.638
12/08/2021  20:52:00     -249.147      120.740       -2.108      219.554      132.997       85.302    48204.047    17688.082     7276.464        7.490        3.658      276.862       85.627        0.096      337.295        9.170      855.635
12/08/2021  20:53:00     -270.875       73.870       -8.715      148.972       86.099       65.404    22192.521     7412.988     4277.733        5.639        1.694      280.767       50.247        0.032      337.316        9.205      855.650
12/08/2021  20:54:00     -356.046      100.980      -16.139      126.363       98.856       63.469    15967.726     9772.473     4028.357        8.349        1.488      370.089       63.906        0.030      337.297        9.172      855.632
12/08/2021  20:55:00     -180.946       42.744       14.193      182.752      100.535       75.159    33398.138    10107.280     5648.899        4.195        2.458      185.926       70.936        0.146      337.296        9.172      855.611
12/08/2021  20:56:00     -354.152      105.296       10.604      208.807      115.968       82.240    43600.284    13448.669     6763.401       10.021        3.191      369.474       92.600        0.063      337.247        9.090      855.603
12/08/2021  20:57:00     -367.286      124.914      -16.922      209.943      139.770       75.644    44075.872    19535.547     5722.037       11.005        3.467      387.946       64.273        0.027      337.287        9.157      855.578
12/08/2021  20:58:00     -258.381       78.628       -2.880      131.062       88.196       70.769    17177.189     7778.526     5008.279        5.145        1.498      270.079       64.904        0.058      337.303        9.183      855.546
12/08/2021  20:59:00     -356.752       37.086      -22.251      224.303      119.217       91.694    50311.805    14212.580     8407.802       10.102        3.647      358.675       97.129        0.073      337.363        9.283      855.533
12/08/2021  21:00:00     -251.043       -8.402      -15.455      220.417      135.140       94.369    48583.757    18262.731     8905.414        6.953        3.788      251.184       93.888        0.140      337.342        9.250      855.525
12/08/2021  21:01:00     -295.209      107.023       -9.039      180.144      129.026       80.832    32451.743    16647.598     6533.775        7.715        2.782      314.010       77.744        0.061      337.393        9.333      855.542
12/08/2021  21:02:00     -293.460       91.860      -20.050      171.450       94.856       66.447    29395.247     8997.588     4415.139        6.888        2.140      307.502       59.236        0.037      337.360        9.277      855.518
12/08/2021  21:03:00     -212.822       15.859       -5.493      138.961       76.873       62.642    19310.161     5909.472     3924.044        3.735        1.457      213.412       53.092        0.062      337.388        9.325      855.478
12/08/2021  21:04:00     -343.984        5.303      -12.204      144.475      110.428       78.746    20873.124    12194.417     6200.863        7.888        1.963      344.025       73.806        0.046      337.362        9.282      855.463
12/08/2021  21:05:00     -179.813      -28.317      -18.714      191.243       72.024       80.303    36573.829     5187.407     6448.532        4.084        2.410      182.029       78.833        0.188      337.347        9.257      855.463
12/08/2021  21:06:00     -244.865       16.437      -24.412      196.775      113.127       83.245    38720.306    12797.759     6929.802        5.963        2.922      245.416       81.210        0.110      337.347        9.257      855.447
12/08/2021  21:07:00     -441.129       15.424      -17.985      216.098      158.535      105.215    46698.435    25133.322    11070.181       13.901        4.145      441.398       95.620        0.047      337.397        9.340      855.429
12/08/2021  21:08:00     -256.162      -26.092      -10.878      188.289      102.676       81.053    35452.625    10542.313     6569.539        5.948        2.628      257.487       87.469        0.115      337.420        9.379      855.418
12/08/2021  21:09:00     -114.398       10.985        6.669      220.139      152.983       99.905    48461.272    23403.730     9980.972        4.753        4.092      114.924      110.518        0.925      337.416        9.372      855.393
12/08/2021  21:10:00     -202.237        3.587      -12.788      165.544      127.213       91.026    27404.737    16183.227     8285.799        4.647        2.594      202.269       79.943        0.156      337.409        9.361      855.386
12/08/2021  21:11:00     -340.494      127.375      -18.626      217.385      113.068       75.327    47256.202    12784.302     5674.105        9.910        3.286      363.539       72.827        0.040      337.400        9.343      855.388
12/08/2021  21:12:00     -178.566        0.613        8.587      143.542      134.786       77.356    20604.423    18167.240     5983.969        3.835        2.238      178.567       71.181        0.159      337.412        9.367      855.393
12/08/2021  21:13:00     -217.563      -11.466      -35.972      203.884      127.181       88.650    41568.857    16175.125     7858.898        5.717        3.280      217.865      104.337        0.229      337.371        9.297      855.380
12/08/2021  21:14:00     -243.360       52.025      -18.521      159.386       99.526       62.151    25403.812     9905.348     3862.775        5.072        1.959      248.859       66.860        0.072      337.355        9.271      855.406
12/08/2021  21:15:00     -263.216       83.972       -5.004      161.617       91.605       75.747    26119.937     8391.496     5737.597        5.830        2.012      276.286       74.318        0.072      337.358        9.277      855.436
12/08/2021  21:16:00     -186.434        9.530       -7.445      174.656      114.167       86.148    30504.557    13034.207     7421.519        4.292        2.548      186.678       70.156        0.141      337.228        9.062      855.440
12/08/2021  21:17:00     -300.223      119.725       -9.411      210.637      132.632       75.774    44368.082    17591.131     5741.731        8.612        3.385      323.215       67.534        0.044      337.234        9.068      855.423
12/08/2021  21:18:00     -242.809       81.450       -4.697      211.868      151.198       83.861    44888.101    22860.980     7032.720        7.018        3.739      256.106       77.484        0.092      337.149        8.927      855.424
12/08/2021  21:19:00     -261.456      105.731        4.616      179.482      147.273       83.329    32213.790    21689.445     6943.653        7.019        3.042      282.026       87.984        0.097      337.227        9.057      855.420
12/08/2021  21:20:00     -307.412      107.000       -8.978      156.508      115.900       68.478    24494.675    13432.818     4689.181        7.432        2.131      325.501       71.548        0.048      337.225        9.054      855.425
12/08/2021  21:21:00     -404.660      139.464       10.264      232.754      131.386       80.869    54174.398    17262.356     6539.736       13.063        3.899      428.019       89.242        0.043      337.165        8.950      855.426
12/08/2021  21:22:00     -254.367      103.669        0.118      132.497      113.651       71.769    17555.587    12916.503     5150.751        5.553        1.781      274.682       61.166        0.050      337.203        9.017      855.438
12/08/2021  21:23:00     -167.276       34.875       -0.158      173.110      123.947       76.233    29966.944    15362.775     5811.425        4.016        2.557      170.873       76.902        0.203      337.148        8.923      855.421
12/08/2021  21:24:00     -264.191       57.468      -15.320      116.354       82.482       55.690    13538.318     6803.290     3101.330        4.838        1.172      270.369       45.792        0.029      337.075        8.799      855.418
12/08/2021  21:25:00     -259.138      103.262       -0.881      191.933      140.489       75.930    36838.338    19737.156     5765.389        7.007        3.117      278.955       59.447        0.045      337.079        8.807      855.378
12/08/2021  21:26:00     -303.677      114.628      -29.015      160.895      121.917       93.909    25887.153    14863.657     8818.845        7.788        2.478      324.591       61.706        0.036      337.095        8.833      855.363
12/08/2021  21:27:00     -283.979       94.144        0.902      166.197      114.167       77.388    27621.604    13034.109     5988.943        6.807        2.332      299.178       75.546        0.064      337.167        8.955      855.364
12/08/2021  21:28:00     -326.601       75.777       -2.834      151.308       99.995       69.906    22893.983     9999.090     4886.883        7.509        1.889      335.276       58.148        0.030      337.139        8.909      855.399
12/08/2021  21:29:00     -227.928       55.896       -5.479      145.887      100.338       64.732    21282.920    10067.778     4190.258        4.532        1.777      234.682       67.852        0.084      337.124        8.883      855.434
12/08/2021  21:30:00     -329.930       13.761      -16.190      202.743      127.129       72.994    41104.677    16161.743     5328.166        8.594        3.130      330.217       72.238        0.048      337.074        8.798      855.452
12/08/2021  21:31:00     -303.189       82.128       -6.428      132.548      107.481       79.871    17568.926    11552.155     6379.357        6.710        1.775      314.116       73.657        0.055      337.081        8.809      855.454
12/08/2021  21:32:00     -270.446      123.567      -17.780      161.869      118.444       83.366    26201.696    14028.941     6949.858        6.794        2.359      297.338       83.663        0.079      337.204        9.017      855.465
12/08/2021  21:33:00     -255.383       64.643       -5.325      137.760       87.803       69.481    18977.867     7709.332     4827.665        5.047        1.576      263.437       71.155        0.073      337.071        8.794      855.445
12/08/2021  21:34:00     -311.917       85.202      -17.324      168.914      101.316       79.501    28531.943    10264.985     6320.405        7.498        2.256      323.345       75.351        0.054      337.079        8.807      855.455
12/08/2021  21:35:00     -185.896       59.515       -4.771      133.853       99.103       61.589    17916.643     9821.439     3793.246        3.482        1.577      195.191       55.256        0.080      337.137        8.907      855.463
12/08/2021  21:36:00     -177.102       21.428        3.085      112.233       86.723       55.260    12596.168     7520.925     3053.698        2.750        1.159      178.393       53.419        0.090      337.103        8.848      855.487
12/08/2021  21:37:00     -159.859       41.288        1.167      199.358      112.453       89.748    39743.440    12645.684     8054.680        4.384        3.022      165.105       82.294        0.248      337.076        8.802      855.476
12/08/2021  21:38:00     -210.205       16.833      -13.382      230.838       96.523       79.315    53286.305     9316.719     6290.930        5.676        3.445      210.877       93.753        0.198      337.055        8.768      855.471
12/08/2021  21:39:00     -256.470       36.722      -15.982      182.002      104.446       72.168    33124.636    10909.013     5208.259        5.830        2.462      259.086       87.351        0.114      337.078        8.805      855.495
12/08/2021  21:40:00     -313.987       86.948       -2.915      144.078      112.617       73.022    20758.348    12682.695     5332.239        7.246        1.939      325.803       55.231        0.029      337.051        8.760      855.450
12/08/2021  21:41:00     -298.827       89.297      -16.130      169.782      116.707       73.745    28825.918    13620.433     5438.338        7.270        2.394      311.884       72.101        0.053      337.050        8.759      855.439
12/08/2021  21:42:00     -246.362       23.011      -14.549      175.661      105.847       75.192    30856.657    11203.554     5653.898        5.457        2.386      247.435       83.649        0.114      337.042        8.744      855.449
12/08/2021  21:43:00     -382.283       53.839      -36.331      235.056      114.778       92.272    55251.361    13174.053     8514.109       11.363        3.847      386.055       95.589        0.061      337.034        8.732      855.454
12/08/2021  21:44:00     -343.021       85.994        3.496      143.608      117.724       66.039    20623.188    13858.994     4361.099        8.195        1.942      353.636       61.124        0.030      337.003        8.682      855.463
12/08/2021  21:45:00     -288.143       50.145       -0.420      126.854       92.160       61.807    16091.930     8493.433     3820.083        5.697        1.420      292.474       60.218        0.042      336.992        8.663      855.469
12/08/2021  21:46:00     -156.782        0.365      -15.908      113.266       85.817       48.973    12829.190     7364.565     2398.403        2.371        1.130      156.782       51.645        0.109      337.019        8.709      855.444
12/08/2021  21:47:00     -216.302       25.614        4.542      181.148       87.061       64.653    32814.685     7579.675     4180.006        4.601        2.229      217.813       69.608        0.102      337.012        8.697      855.397
12/08/2021  21:48:00     -285.317       88.317       -9.671      181.714      101.980       71.305    33020.140    10399.991     5084.413        6.889        2.425      298.673       68.516        0.053      337.027        8.722      855.382
12/08/2021  21:49:00     -174.304       99.044        0.280      213.330      107.504       79.487    45509.618    11557.052     6318.112        5.178        3.169      200.479       85.163        0.180      336.991        8.662      855.361
12/08/2021  21:50:00     -229.960       22.809      -20.751      113.043      101.367       54.082    12778.663    10275.168     2924.855        3.990        1.299      231.088       42.097        0.033      337.069        8.792      855.375
12/08/2021  21:51:00     -197.968      110.828      -19.776      125.888       92.390       56.566    15847.814     8535.868     3199.710        3.972        1.379      226.879       67.807        0.089      337.042        8.747      855.374
12/08/2021  21:52:00     -303.066       51.071      -15.351      141.998       89.947       65.405    20163.396     8090.385     4277.786        6.361        1.627      307.339       61.293        0.040      337.022        8.713      855.381
12/08/2021  21:53:00     -226.830       19.097        4.501      213.724      105.221       79.095    45678.040    11071.419     6256.026        5.741        3.150      227.633       74.392        0.107      336.964        8.617      855.385
12/08/2021  21:54:00     -249.567       82.828      -16.406      206.743      117.391       76.001    42742.501    13780.597     5776.174        6.584        3.115      262.953       82.371        0.098      336.952        8.597      855.393
12/08/2021  21:55:00     -232.465       35.525       -6.886      176.222      116.734       75.996    31054.287    13626.924     5775.375        5.289        2.523      235.164       65.551        0.078      336.947        8.588      855.400
12/08/2021  21:56:00     -194.898       56.064       -2.754      123.487      100.948       64.300    15249.162    10190.470     4134.535        3.535        1.479      202.801       60.567        0.089      337.050        8.761      855.428
12/08/2021  21:57:00     -266.604       92.876       -6.198      130.780       95.713       63.358    17103.355     9161.066     4014.224        5.500        1.514      282.318       53.514        0.036      336.947        8.588      855.446
12/08/2021  21:58:00     -184.725       74.534       -9.979      146.179       87.374       72.073    21368.263     7634.178     5194.468        3.698        1.710      199.195       73.556        0.136      337.007        8.688      855.455
12/08/2021  21:59:00     -217.526       82.843        6.784      171.762       88.966       59.568    29502.021     7915.029     3548.343        4.759        2.048      232.767       77.425        0.111      336.950        8.593      855.464
12/08/2021  22:00:00     -144.495       40.586       -5.559      158.489       92.119       68.491    25118.825     8485.907     4691.074        3.042        1.915      150.087       56.158        0.140      337.009        8.693      855.454
12/08/2021  22:01:00     -227.800       67.350        2.824      160.466       80.344       57.682    25749.323     6455.107     3327.219        4.598        1.777      237.548       64.933        0.075      336.955        8.601      855.457
12/08/2021  22:02:00     -307.739      101.515       -1.349      111.167       83.347       58.202    12358.074     6946.768     3387.444        6.385        1.135      324.050       61.244        0.036      336.921        8.543      855.454
12/08/2021  22:03:00     -218.804       53.280        2.784      119.767       80.557       60.936    14344.110     6489.458     3713.221        3.763        1.227      225.197       59.714        0.070      336.887        8.486      855.472
12/08/2021  22:04:00     -225.709      124.648        0.428      165.811      140.853       76.124    27493.169    19839.452     5794.914        5.979        2.656      257.840       88.984        0.119      336.957        8.603      855.487
12/08/2021  22:05:00     -203.875       50.094        2.668      143.376       83.405       59.021    20556.728     6956.409     3483.452        3.753        1.550      209.939       52.442        0.062      336.947        8.588      855.507
12/08/2021  22:06:00     -165.982       27.963      -21.887      153.400       62.818       64.266    23531.436     3946.129     4130.058        3.020        1.580      168.321       58.761        0.122      336.928        8.556      855.530
12/08/2021  22:07:00     -228.015       52.095        5.869      133.951       75.928       58.860    17942.745     5765.134     3464.482        4.095        1.359      233.891       62.602        0.072      336.892        8.494      855.539
12/08/2021  22:08:00     -211.585       79.034       -1.954      113.102       81.588       57.200    12792.084     6656.668     3271.816        3.687        1.136      225.864       59.450        0.069      336.897        8.506      855.533
12/08/2021  22:09:00     -233.763       74.218      -10.639       86.484       83.572       52.216     7479.487     6984.328     2726.463        3.873        0.860      245.262       42.774        0.030      336.871        8.460      855.532
12/08/2021  22:10:00     -124.501       18.820       -0.541      119.348       91.948       73.337    14243.942     8454.442     5378.297        2.196        1.404      125.916       68.631        0.297      336.943        8.582      855.531
12/08/2021  22:11:00     -201.953       72.004      -24.154       96.922       81.974       59.760     9393.778     6719.693     3571.304        3.312        0.984      214.406       49.889        0.054      336.968        8.622      855.524
12/08/2021  22:12:00      -89.481       22.237      -30.605       78.898       78.603       50.100     6224.963     6178.398     2510.049        1.217        0.746       92.202       48.497        0.277      336.881        8.481      855.506
12/08/2021  22:13:00     -134.984       32.582      -10.197      122.564       89.159       48.042    15022.000     7949.360     2308.027        2.233        1.264      138.860       45.486        0.107      336.884        8.484      855.498
12/08/2021  22:14:00     -217.407       69.518       -8.273      145.335      116.218       70.667    21122.164    13506.653     4993.759        4.589        1.981      228.251       76.380        0.112      336.972        8.631      855.491
12/08/2021  22:15:00     -229.689       27.503       -6.211      155.158      105.026       75.093    24073.955    11030.502     5638.890        4.714        2.037      231.330       81.484        0.124      336.962        8.613      855.471
12/08/2021  22:16:00     -311.079       49.934      -14.175      135.727       88.046       64.126    18421.859     7752.128     4112.096        6.487        1.514      315.061       59.002        0.035      336.874        8.465      855.480
12/08/2021  22:17:00     -251.767       38.348      -27.058      138.132      117.799       67.388    19080.314    13876.615     4541.138        5.154        1.875      254.671       68.549        0.072      336.864        8.449      855.486
12/08/2021  22:18:00     -195.926       92.224      -26.664      124.556       75.616       61.040    15514.279     5717.745     3725.841        3.628        1.248      216.547       54.537        0.063      336.932        8.563      855.480
12/08/2021  22:19:00     -235.914       66.440      -16.389      155.206      108.786       58.782    24088.840    11834.433     3455.375        4.985        1.969      245.091       61.961        0.064      336.886        8.484      855.475
12/08/2021  22:20:00     -249.232       78.193       -6.540      140.907      104.173       71.034    19854.763    10851.933     5045.833        5.201        1.788      261.210       72.319        0.077      336.877        8.471      855.452
12/08/2021  22:21:00     -199.668       70.026       -1.288      136.500      105.465       58.004    18632.134    11122.774     3364.501        3.894        1.656      211.591       53.784        0.065      336.880        8.477      855.446
12/08/2021  22:22:00     -263.703       29.320      -31.954      160.633      100.559       54.601    25803.071    10112.034     2981.256        5.515        1.945      265.328       54.599        0.042      336.839        8.406      855.432
12/08/2021  22:23:00     -145.126       32.507        8.937      115.910       88.512       65.399    13435.153     7834.448     4277.058        2.387        1.277      148.722       51.918        0.122      336.900        8.509      855.439
12/08/2021  22:24:00     -190.201      102.313        1.189      136.564      100.218       69.923    18649.858    10043.599     4889.164        4.011        1.679      215.973       69.044        0.102      336.890        8.493      855.441
12/08/2021  22:25:00     -301.938       77.003       -0.145      113.271       93.813       69.971    12830.226     8800.793     4895.923        6.181        1.326      311.602       62.605        0.040      336.796        8.334      855.411
12/08/2021  22:26:00     -115.039       24.249        4.354      141.862       79.716       69.112    20124.941     6354.594     4776.449        2.254        1.563      117.567       51.199        0.190      336.806        8.353      855.387
12/08/2021  22:27:00     -207.816       82.766      -21.233       99.406       82.068       64.343     9881.615     6735.231     4140.008        3.562        1.038      223.691       52.479        0.055      336.830        8.392      855.373
12/08/2021  22:28:00     -259.766       96.727      -20.235      117.082      106.353       71.694    13708.230    11310.865     5140.087        5.370        1.508      277.190       71.994        0.067      336.762        8.279      855.345
12/08/2021  22:29:00     -123.887       22.846      -11.790      162.328       90.567       73.001    26350.507     8202.456     5329.197        2.794        1.994      125.976       84.443        0.449      336.718        8.207      855.306
12/08/2021  22:30:00     -202.384       58.685      -17.883      147.992      101.562       69.036    21901.748    10314.862     4766.035        4.085        1.849      210.721       72.156        0.117      336.757        8.270      855.264
12/08/2021  22:31:00     -242.348       49.287        0.081      180.146      105.289       73.629    32452.697    11085.800     5421.253        5.505        2.448      247.309       67.798        0.075      336.657        8.104      855.230
12/08/2021  22:32:00     -204.937       72.732        3.453      124.947      100.694       59.882    15611.808    10139.189     3585.797        3.831        1.467      217.461       53.179        0.060      336.745        8.251      855.209
12/08/2021  22:33:00     -295.224       77.492       -6.508      116.929       89.583       64.139    13672.324     8025.192     4113.773        5.950        1.291      305.225       46.864        0.024      336.643        8.080      855.213
12/08/2021  22:34:00     -257.779      113.666      -26.967      114.093       87.016       72.957    13017.238     7571.748     5322.734        5.300        1.296      281.727       48.244        0.029      336.620        8.042      855.213
12/08/2021  22:35:00     -334.657       92.885      -17.277      162.108      112.213       78.948    26279.015    12591.759     6232.784        8.300        2.255      347.308       61.356        0.031      336.592        7.997      855.193
12/08/2021  22:36:00     -151.689       65.363       -3.962      171.462      115.487       73.287    29399.293    13337.178     5370.996        3.769        2.405      165.172       58.008        0.123      336.618        8.041      855.172
12/08/2021  22:37:00     -214.722       85.758       -7.026      137.331       87.170       56.390    18859.694     7598.562     3179.846        4.157        1.482      231.214       63.783        0.076      336.629        8.058      855.187
12/08/2021  22:38:00     -247.559       93.242       -0.742      186.983       98.099       60.476    34962.826     9623.323     3657.390        5.910        2.412      264.537       70.743        0.072      336.590        7.993      855.182
12/08/2021  22:39:00     -291.794       83.992        0.999      158.323      103.928       64.993    25066.286    10801.109     4224.118        6.614        2.005      303.642       75.078        0.061      336.574        7.967      855.198
12/08/2021  22:40:00     -293.702       72.573      -10.646      184.232      107.608       78.336    33941.336    11579.585     6136.474        7.164        2.583      302.535       86.986        0.083      336.588        7.988      855.225
12/08/2021  22:41:00     -386.345       83.971       -0.273      208.840      157.831       82.789    43613.996    24910.707     6853.940       11.583        3.769      395.365       76.729        0.038      336.620        8.042      855.256
12/08/2021  22:42:00     -371.146      124.241      -21.993      173.451      168.607       88.733    30085.093    28428.261     7873.618       11.002        3.319      391.389       90.177        0.053      336.647        8.086      855.291
12/08/2021  22:43:00     -265.856       31.402       -6.610      192.132      124.190       83.927    36914.698    15423.085     7043.801        6.553        2.969      267.704       75.537        0.080      336.642        8.080      855.329
12/08/2021  22:44:00     -313.594       82.031        7.556      156.929       94.029       73.523    24626.568     8841.486     5405.684        7.199        1.944      324.145       69.778        0.046      336.660        8.108      855.357
12/08/2021  22:45:00     -127.539       61.509      -10.327      131.776       99.127       73.488    17364.865     9826.085     5400.464        2.637        1.630      141.596       58.884        0.173      336.721        8.213      855.357
12/08/2021  22:46:00     -195.744       63.577      -34.904      127.704       66.452       66.940    16308.230     4415.883     4480.918        3.439        1.260      205.810       56.880        0.076      336.717        8.205      855.355
12/08/2021  22:47:00     -179.782       55.246       -3.242      155.602       89.305       72.602    24212.073     7975.429     5271.092        3.641        1.873      188.079       78.548        0.174      336.766        8.285      855.341
12/08/2021  22:48:00     -389.043      159.601      -30.854      153.186      169.706       93.029    23465.848    28800.186     8654.386       11.934        3.046      420.508       72.692        0.030      336.787        8.319      855.334
12/08/2021  22:49:00     -342.871       78.095       -0.311      133.998       91.776       49.610    17955.398     8422.834     2461.168        7.624        1.442      351.653       53.530        0.023      336.698        8.172      855.335
12/08/2021  22:50:00     -156.008       18.246      -15.339      122.256       85.353       49.803    14946.465     7285.091     2480.344        2.480        1.236      157.071       30.948        0.039      336.697        8.170      855.322
12/08/2021  22:51:00     -106.591       26.827      -22.488      195.029      147.929       96.037    38036.467    21883.116     9223.024        4.085        3.457      109.915       80.302        0.534      336.731        8.225      855.300
12/08/2021  22:52:00      -47.643        4.035      -24.078      143.513       70.159       60.873    20596.007     4922.310     3705.475        1.604        1.461       47.814       37.302        0.609      336.727        8.223      855.277
12/08/2021  22:53:00     -333.469      136.278       -8.722      169.075      113.777       77.937    28586.479    12945.141     6074.132        8.872        2.380      360.240       70.060        0.038      336.770        8.291      855.276
12/08/2021  22:54:00     -155.907       22.667        7.360      226.064      100.287       73.800    51105.088    10057.550     5446.371        4.573        3.330      157.546       86.222        0.300      336.771        8.295      855.305
12/08/2021  22:55:00      -94.701       26.731      -24.798      129.957       91.638       75.615    16888.884     8397.510     5717.605        2.065        1.550       98.401       59.235        0.362      336.769        8.292      855.296
12/08/2021  22:56:00     -129.698       41.412      -10.079      144.499      163.859      104.401    20879.931    26849.694    10899.469        3.862        2.931      136.149       65.063        0.228      336.765        8.283      855.258
12/08/2021  22:57:00     -417.171       73.219        3.609      227.754      130.035       96.402    51872.070    16909.111     9293.275       12.873        3.904      423.548      101.022        0.057      336.783        8.313      855.240
12/08/2021  22:58:00     -198.120       95.147      -13.885      101.552       92.962       54.005    10312.800     8641.904     2916.520        3.518        1.094      219.783       45.520        0.043      336.840        8.408      855.221
12/08/2021  22:59:00     -226.735       62.495       -3.307      139.593       99.172       64.507    19486.289     9835.024     4161.131        4.440        1.674      235.190       62.459        0.071      336.796        8.336      855.189
12/08/2021  23:00:00     -116.465       38.487      -13.082      139.393       94.954       64.682    19430.278     9016.198     4183.770        2.392        1.632      122.660       39.957        0.106      336.846        8.420      855.162
12/08/2021  23:01:00      -57.252       13.175      -17.115      152.181       80.487       67.449    23159.063     6478.120     4549.346        1.896        1.709       58.749       46.231        0.619      336.763        8.279      855.144
12/08/2021  23:02:00     -257.912       87.359      -19.329      124.895       81.433       58.573    15598.781     6631.393     3430.803        5.009        1.283      272.305       54.493        0.040      336.913        8.529      855.130
12/08/2021  23:03:00     -249.079      114.845      -16.436      144.571      120.384       58.899    20900.857    14492.283     3469.149        5.717        1.943      274.280       69.490        0.064      336.861        8.444      855.106
12/08/2021  23:04:00      -63.504       -1.609       -4.980       88.133       69.358       47.396     7767.446     4810.524     2246.363        0.944        0.741       63.524       37.213        0.343      336.809        8.358      855.111
12/08/2021  23:05:00      -40.631       16.437        4.254       97.719       50.232       48.114     9549.083     2523.290     2314.999        0.816        0.719       43.830       44.179        1.016      336.746        8.255      855.108
12/08/2021  23:06:00     -216.193       44.982       -0.194      237.178       89.200       73.307    56253.220     7956.657     5373.899        5.916        3.479      220.823       43.777        0.039      336.833        8.398      855.115
12/08/2021  23:07:00     -210.084       49.520       11.343      153.178       92.463       65.472    23463.438     8549.380     4286.598        4.150        1.815      215.842       62.568        0.084      336.874        8.466      855.123
12/08/2021  23:08:00     -198.987       18.005       -8.271      185.739       86.955       67.686    34498.850     7561.186     4581.350        4.331        2.332      199.800       68.239        0.117      336.802        8.347      855.158
12/08/2021  23:09:00     -131.372       49.165      -10.215      120.750       85.662       72.838    14580.529     7337.909     5305.352        2.350        1.361      140.271       62.325        0.197      336.848        8.424      855.131
12/08/2021  23:10:00     -341.620       65.207      -19.433      176.668      117.553       66.410    31211.431    13818.639     4410.330        8.538        2.472      347.788       53.208        0.023      336.856        8.436      855.089
12/08/2021  23:11:00     -228.787       34.240      -18.658      145.820       76.935       56.467    21263.606     5919.042     3188.529        4.211        1.519      231.335       52.423        0.051      336.837        8.402      855.079
12/08/2021  23:12:00     -225.517       43.970      -28.474      146.423      103.017       61.841    21439.593    10612.499     3824.294        4.473        1.794      229.763       55.427        0.058      336.838        8.406      855.107
12/08/2021  23:13:00     -206.191       63.637       -2.514      134.203       88.730       63.923    18010.502     7873.101     4086.124        3.826        1.498      215.788       58.803        0.074      336.889        8.491      855.111
12/08/2021  23:14:00     -175.614       53.509        5.077      147.436       96.035       63.296    21737.482     9222.643     4006.334        3.434        1.748      183.586       60.607        0.109      336.910        8.526      855.106
12/08/2021  23:15:00     -137.321       59.950       -5.452       79.945       69.902       46.263     6391.239     4886.228     2140.292        1.795        0.671      149.836       27.891        0.035      336.941        8.577      855.102
12/08/2021  23:16:00     -273.300       52.088       -0.953      105.999       72.175       59.185    11235.847     5209.171     3502.865        4.867        0.997      278.220       52.603        0.036      336.880        8.475      855.137
12/08/2021  23:17:00     -154.345       46.216      -10.540      133.517       82.575       47.072    17826.802     6818.694     2215.733        2.646        1.343      161.116       19.485        0.015      336.927        8.554      855.150
12/08/2021  23:18:00     -220.194       57.447       -9.357      133.381       89.617       65.103    17790.562     8031.143     4238.343        4.096        1.503      227.565       62.503        0.075      336.845        8.419      855.150
12/08/2021  23:19:00     -204.901       19.352      -21.365      153.352      108.215       68.363    23516.815    11710.589     4673.454        4.135        1.995      205.813       54.084        0.069      336.819        8.374      855.147
12/08/2021  23:20:00     -352.255      122.014      -15.698      163.699      149.182       83.141    26797.254    22255.198     6912.438        9.758        2.798      372.788       89.098        0.057      336.861        8.443      855.151
12/08/2021  23:21:00     -206.061       46.804       -9.978      188.163      108.152       92.151    35405.421    11696.921     8491.810        5.016        2.780      211.310      103.506        0.240      336.902        8.513      855.128
12/08/2021  23:22:00     -219.091       61.553        3.172      184.440      130.683       77.382    34018.186    17077.989     5987.941        5.443        2.854      227.574       74.848        0.108      336.860        8.442      855.112
12/08/2021  23:23:00     -208.533       51.459        9.675      182.071      110.472       71.569    33149.994    12203.988     5122.153        4.834        2.524      214.788       83.762        0.152      336.832        8.395      855.060
12/08/2021  23:24:00     -366.377       24.388      -26.082      127.041       94.839       56.246    16139.427     8994.393     3163.632        8.190        1.415      367.188       46.392        0.016      336.843        8.413      855.010
12/08/2021  23:25:00     -180.200       50.087        3.148      100.658      100.455       59.318    10131.962    10091.188     3518.649        2.936        1.187      187.031       58.027        0.096      336.870        8.459      855.015
12/08/2021  23:26:00     -237.861      -64.606      -21.529      157.744      170.596       89.887    24883.306    29103.159     8079.745        6.163        3.103      246.479       72.974        0.088      336.812        8.362      855.028
12/08/2021  23:27:00     -206.159      -28.752      -10.948      168.084      106.673      101.367    28252.118    11379.139    10275.359        4.667        2.495      208.155      101.996        0.240      336.800        8.343      855.037
12/08/2021  23:28:00     -166.181       30.120        5.489      147.566       88.116       67.895    21775.735     7764.456     4609.779        3.135        1.707      168.888       58.739        0.121      336.786        8.319      855.020
12/08/2021  23:29:00      -96.793       15.177      -15.566      132.890      108.683       71.976    17659.790    11812.098     5180.590        2.224        1.733       97.976       27.344        0.078      336.802        8.346      855.012
12/08/2021  23:30:00     -186.836        9.413        8.024      177.016      119.266       84.465    31334.580    14224.262     7134.268        4.387        2.635      187.073       90.938        0.236      336.757        8.271      855.002
12/08/2021  23:31:00     -192.897      -17.486      -17.465      141.297      102.928       79.489    19964.922    10594.149     6318.563        3.734        1.844      193.687       82.293        0.181      336.761        8.277      855.009
12/08/2021  23:32:00     -220.989       86.271      -12.231      108.785       89.898       63.336    11834.281     8081.645     4011.404        4.017        1.196      237.232       56.529        0.057      336.768        8.288      854.999
12/08/2021  23:33:00     -236.606      120.060      -33.813       87.830      100.402       52.756     7714.171    10080.531     2783.147        4.606        1.029      265.324       38.419        0.021      336.707        8.186      854.994
12/08/2021  23:34:00     -220.412       53.359       -5.394      115.096       73.935       47.731    13247.204     5466.330     2278.284        3.622        1.050      226.779       48.402        0.046      336.743        8.248      855.011
12/08/2021  23:35:00     -138.633       20.115       -9.006      102.476       57.028       46.364    10501.342     3252.234     2149.617        1.780        0.795      140.085       42.794        0.093      336.767        8.288      855.031
12/08/2021  23:36:00     -295.935       53.058       -7.136      134.289       79.508       57.352    18033.525     6321.489     3289.307        5.904        1.382      300.654       61.718        0.042      336.646        8.086      855.037
12/08/2021  23:37:00     -188.005       30.631        6.674      153.990      103.898       73.479    23713.041    10794.850     5399.203        3.811        1.995      190.484       59.391        0.097      336.684        8.150      855.044
12/08/2021  23:38:00     -119.883       10.609      -24.892      124.740      101.873       69.644    15560.162    10378.176     4850.334        2.294        1.539      120.352       38.579        0.103      336.664        8.118      855.032
12/08/2021  23:39:00     -138.898       30.648        9.329      165.272      101.830       73.038    27314.868    10369.421     5334.514        3.166        2.151      142.240       49.739        0.122      336.646        8.089      855.000
12/08/2021  23:40:00     -303.970      113.993        2.317      138.069      100.438       62.216    19062.915    10087.791     3870.824        6.920        1.651      324.641       61.124        0.035      336.656        8.100      854.994
12/08/2021  23:41:00     -198.011       71.384        6.182      166.431      110.096       65.581    27699.134    12121.177     4300.901        4.422        2.206      210.485       60.433        0.082      336.673        8.131      854.945
12/08/2021  23:42:00     -299.903       19.350      -22.455      217.100      128.732       91.128    47132.275    16571.906     8304.368        8.140        3.600      300.526       85.587        0.081      336.649        8.092      854.888
12/08/2021  23:43:00     -346.026      106.629      -12.470      208.178      119.037       94.680    43337.919    14169.771     8964.327        9.885        3.324      362.082       97.059        0.072      336.650        8.091      854.856
12/08/2021  23:44:00     -332.510      139.647       -3.198      147.564      117.729       78.479    21775.092    13860.176     6159.023        8.593        2.090      360.644       68.728        0.036      336.611        8.029      854.886
12/08/2021  23:45:00     -338.210       76.852      -22.526      194.102      127.020       70.424    37675.411    16134.194     4959.496        8.977        2.938      346.832       67.818        0.038      336.581        7.978      854.915
12/08/2021  23:46:00     -210.095       26.122      -12.337      181.640       86.097       71.573    32992.939     7412.646     5122.764        4.524        2.276      211.712       74.796        0.125      336.573        7.966      854.932
12/08/2021  23:47:00     -318.307       41.920      -10.883      208.429      126.759       77.458    43442.743    16067.873     5999.704        8.434        3.276      321.055       52.131        0.026      336.625        8.050      854.950
12/08/2021  23:48:00     -511.346       -4.964      -38.740      194.078      156.427       67.705    37666.406    24469.552     4583.998       16.485        3.336      511.370       59.550        0.014      336.625        8.048      854.932
12/08/2021  23:49:00     -221.277       84.821      -16.448      144.961       78.001       57.288    21013.639     6084.197     3281.951        4.340        1.519      236.977       57.576        0.059      336.694        8.167      854.925
12/08/2021  23:50:00     -102.344      -27.066        0.475      141.342       86.086       70.355    19977.459     7410.766     4949.880        2.177        1.617      105.862       70.333        0.441      336.604        8.017      854.930
12/08/2021  23:51:00     -229.774       93.826      -12.977      168.784       97.789       65.958    28488.152     9562.765     4350.471        5.208        2.120      248.192       65.616        0.070      336.635        8.069      854.960
12/08/2021  23:52:00     -258.598       24.390       -8.138      257.486      132.005       93.367    66298.888    17425.411     8717.354        7.997        4.622      259.746       81.510        0.098      336.563        7.947      854.975
12/08/2021  23:53:00     -300.375       73.012       -8.451      214.827      121.058       87.674    46150.829    14654.946     7686.679        8.205        3.425      309.121       89.695        0.084      336.577        7.971      854.977
12/08/2021  23:54:00     -291.272        8.036      -13.471      155.411      119.177       74.333    24152.708    14203.076     5525.393        6.448        2.194      291.383       72.208        0.061      336.594        7.999      854.987
12/08/2021  23:55:00     -210.249       35.799       -0.820      172.733      120.332       89.603    29836.766    14479.877     8028.785        4.891        2.617      213.275       78.922        0.137      336.624        8.048      854.960
12/08/2021  23:56:00     -269.149       71.917      -18.744      138.447       79.761       58.328    19167.510     6361.864     3402.111        5.344        1.447      278.592       56.688        0.041      336.650        8.092      854.948
12/08/2021  23:57:00     -326.340      -27.516      -31.479      160.029      118.106       78.220    25609.423    13949.054     6118.439        7.695        2.284      327.498       61.092        0.035      336.601        8.011      854.934
12/08/2021  23:58:00     -301.137      -38.900      -13.152      178.047      116.881       77.786    31700.800    13661.138     6050.610        7.188        2.571      303.640       74.457        0.060      336.601        8.012      854.903
12/08/2021  23:59:00      -51.650       29.559        1.801       94.583       52.384       51.491     8945.987     2744.051     2651.367        0.894        0.717       59.510       28.831        0.235      336.591        7.998      854.903
12/09/2021  00:00:00     -106.257      -21.821      -23.114       79.139       91.640       44.161     6262.928     8397.836     1950.207        1.445        0.831      108.475       24.213        0.050      336.671        8.129      854.865
12/09/2021  00:01:00     -126.052       30.686       -7.038      109.518       71.666       50.412    11994.279     5136.076     2541.377        1.827        0.984      129.734       47.278        0.133      336.715        8.202      854.845
12/09/2021  00:02:00     -271.411      -14.667       -7.213      124.705      100.637       67.653    15551.357    10127.897     4576.910        5.209        1.513      271.807       65.953        0.059      336.567        7.955      854.825
12/09/2021  00:03:00     -127.968        4.121        0.246      118.158       73.179       58.438    13961.269     5355.144     3414.983        1.956        1.137      128.034       61.279        0.229      336.574        7.968      854.814
12/09/2021  00:04:00     -202.371       74.260      -16.576      113.435       67.837       51.082    12867.449     4601.912     2609.324        3.341        1.004      215.566       39.552        0.034      336.572        7.961      854.793
12/09/2021  00:05:00     -151.661       71.482        8.543       95.432       66.340       57.652     9107.346     4400.998     3323.752        2.250        0.842      167.663       57.336        0.117      336.647        8.090      854.774
12/09/2021  00:06:00     -107.579       16.940      -14.117       50.033       68.970       29.876     2503.253     4756.930      892.596        1.010        0.408      108.905       24.247        0.050      336.730        8.228      854.763
12/09/2021  00:07:00     -115.693       31.197      -22.683       39.524       41.472       27.810     1562.182     1719.898      773.388        0.946        0.203      119.825        8.560        0.005      336.566        7.952      854.737
12/09/2021  00:08:00      -49.250      -30.638      -11.344       29.801       27.368       23.588      888.128      749.019      556.388        0.284        0.110       58.002       13.786        0.056      336.600        8.012      854.715
12/09/2021  00:09:00      -73.164      -30.307       -3.729       20.731       38.152       17.694      429.765     1455.593      313.074        0.424        0.110       79.192       10.439        0.017      336.589        7.995      854.695
12/09/2021  00:10:00       -8.664        1.733       -8.376       25.844       25.363       15.222      667.888      643.305      231.717        0.085        0.077        8.836       10.674        1.459      336.600        8.010      854.666
12/09/2021  00:11:00      -39.503      -10.344      -24.948       42.201       28.788       19.676     1780.933      828.745      387.142        0.264        0.150       40.834       12.169        0.089      336.599        8.010      854.639
12/09/2021  00:12:00     -288.879       63.435      -11.015       79.727       69.422       39.008     6356.414     4819.461     1521.627        5.014        0.635      295.762       33.807        0.013      336.587        7.989      854.599
12/09/2021  00:13:00     -188.007      -34.078      -28.112       65.235       52.408       41.181     4255.632     2746.598     1695.863        2.300        0.435      191.070       29.782        0.024      336.617        8.037      854.544
12/09/2021  00:14:00     -154.091      -72.540      -22.238       77.401       61.138       42.795     5990.929     3737.883     1831.401        2.053        0.578      170.312       39.870        0.055      336.642        8.083      854.523
12/09/2021  00:15:00      -30.749      -71.930      -10.268       33.427       45.509       21.213     1117.344     2071.110      449.972        0.493        0.182       78.227       20.440        0.068      336.678        8.143      854.461
12/09/2021  00:16:00     -200.881      -36.824      -16.411       92.795       74.866       45.171     8610.919     5604.921     2040.388        2.911        0.813      204.229       45.242        0.049      336.637        8.072      854.435
12/09/2021  00:17:00     -219.305       32.479      -11.951       69.595       58.568       38.891     4843.466     3430.208     1512.471        2.954        0.489      221.697       30.235        0.019      336.598        8.007      854.438
12/09/2021  00:18:00     -115.666       17.618       -6.017      110.861       50.165       47.958    12290.085     2516.507     2299.943        1.541        0.855      117.000       48.734        0.173      336.659        8.108      854.407
12/09/2021  00:19:00     -265.085      -43.125      -21.772      158.692       97.419       74.320    25183.223     9490.514     5523.393        5.639        2.010      268.570       76.360        0.081      336.663        8.114      854.396
12/09/2021  00:20:00     -175.952       19.018       -6.409      102.930      102.552       70.744    10594.657    10516.966     5004.655        2.873        1.306      176.977       54.302        0.094      336.700        8.176      854.396
12/09/2021  00:21:00     -164.203       94.447      -17.319       99.583      114.944       56.318     9916.675    13212.137     3171.756        3.124        1.315      189.427       36.868        0.038      336.809        8.358      854.385
12/09/2021  00:22:00     -120.628       28.416       26.904      175.725      107.518       64.421    30879.282    11560.028     4150.072        3.133        2.329      123.930       65.643        0.281      336.700        8.177      854.374
12/09/2021  00:23:00     -200.597       52.825       -6.977       75.433       96.274       40.503     5690.211     9268.689     1640.525        2.984        0.830      207.436       35.764        0.030      336.699        8.173      854.369
12/09/2021  00:24:00     -166.326       14.139      -18.494      109.109       76.814       65.199    11904.824     5900.336     4250.914        2.513        1.103      166.926       63.280        0.144      336.619        8.042      854.348
12/09/2021  00:25:00     -201.845       52.889       -2.248      135.001       89.368       63.339    18225.285     7986.631     4011.805        3.688        1.511      208.659       58.911        0.080      336.650        8.094      854.339
12/09/2021  00:26:00     -110.165       -0.865      -14.990       89.011       67.864       46.155     7922.992     4605.576     2130.243        1.351        0.733      110.168       39.172        0.126      336.638        8.076      854.362
12/09/2021  00:27:00     -187.073       11.765      -10.152       62.938       66.864       32.597     3961.167     4470.730     1062.580        2.236        0.475      187.442       31.982        0.029      336.641        8.079      854.332
12/09/2021  00:28:00     -182.262       42.475       -4.999      109.478       76.184       63.377    11985.327     5804.044     4016.673        2.842        1.090      187.146       54.451        0.085      336.612        8.029      854.344
12/09/2021  00:29:00     -166.559       47.979      -23.654      162.532       95.572       54.109    26416.533     9134.031     2927.739        3.453        1.924      173.332       35.556        0.042      336.663        8.117      854.327
12/09/2021  00:30:00     -191.672       26.600       -0.027      115.830       89.979       51.080    13416.539     8096.148     2609.165        3.078        1.206      193.509       47.203        0.060      336.632        8.063      854.345
12/09/2021  00:31:00      -61.043       17.193       -1.726      103.635       56.872       48.573    10740.221     3234.448     2359.340        1.018        0.817       63.418       44.003        0.481      336.615        8.037      854.343
12/09/2021  00:32:00     -159.238       57.620      -27.209      197.350      100.057       46.982    38946.981    10011.303     2207.347        4.028        2.558      169.342       63.533        0.141      336.608        8.023      854.337
12/09/2021  00:33:00     -172.434       65.857      -21.940      117.798      100.872       47.243    13876.271    10175.226     2231.919        3.041        1.314      184.582       33.349        0.033      336.628        8.059      854.308
12/09/2021  00:34:00     -298.305      140.868      -20.685      169.276      123.706       74.201    28654.425    15303.065     5505.827        7.935        2.473      329.893       84.907        0.066      336.711        8.194      854.316
12/09/2021  00:35:00     -266.537       81.528      -15.442      168.258      115.987       67.395    28310.813    13452.916     4542.089        6.211        2.315      278.727       70.246        0.064      336.637        8.070      854.309
12/09/2021  00:36:00     -198.396       38.745       -5.139      121.215      115.312       72.090    14693.086    13296.759     5196.954        3.703        1.659      202.143       52.583        0.068      336.687        8.154      854.300
12/09/2021  00:37:00     -224.428       66.214      -10.393      170.152      105.748       72.813    28951.568    11182.625     5301.672        5.014        2.272      233.991       52.065        0.050      336.723        8.213      854.274
12/09/2021  00:38:00     -417.176      123.273        4.060      188.273      133.105       83.386    35446.885    17717.058     6953.247       12.467        3.006      435.008       92.175        0.045      336.651        8.094      854.250
12/09/2021  00:39:00     -232.587       46.920       -7.177      195.369      144.303      102.309    38169.131    20823.258    10467.091        6.289        3.473      237.273      111.050        0.219      336.662        8.112      854.194
12/09/2021  00:40:00     -190.148       44.294       -4.579      191.439      105.074       76.994    36648.917    11040.540     5928.082        4.587        2.681      195.239       65.361        0.112      336.637        8.071      854.172
12/09/2021  00:41:00     -193.891       82.288      -12.282      163.093      110.392       70.648    26599.263    12186.402     4991.140        4.414        2.189      210.630       61.117        0.084      336.717        8.205      854.113
12/09/2021  00:42:00     -270.696       25.685        1.739      194.692      157.455       91.635    37905.128    24791.984     8397.023        7.250        3.555      271.912       96.524        0.126      336.676        8.135      854.117
12/09/2021  00:43:00     -158.213       61.812        2.519      232.029      147.617       92.385    53837.305    21790.774     8534.922        5.650        4.208      169.859       82.547        0.236      336.647        8.090      854.094
12/09/2021  00:44:00     -426.113       67.555      -15.282      264.734      160.189      100.967    70084.054    25660.614    10194.244       14.613        5.297      431.435      103.025        0.057      336.644        8.083      854.087
12/09/2021  00:45:00      -40.350       25.561       -0.242       86.945       98.155       64.931     7559.472     9634.397     4215.989        1.184        1.070       47.765       32.444        0.461      336.759        8.277      854.087
12/09/2021  00:46:00      -83.381       65.473       -1.632      162.828      106.083       64.360    26513.100    11253.542     4142.222        2.657        2.095      106.014       81.765        0.595      336.634        8.068      854.090
12/09/2021  00:47:00     -100.342       38.623      -18.927       92.744       58.039       44.120     8601.471     3368.486     1946.546        1.291        0.696      107.519       33.861        0.099      336.717        8.205      854.098
12/09/2021  00:48:00     -117.882       10.873        3.178       96.596       74.249       45.738     9330.707     5512.849     2091.972        1.548        0.847      118.383       43.820        0.137      336.624        8.051      854.101
12/09/2021  00:49:00     -181.057       65.036      -18.788      152.626      118.145       52.364    23294.834    13958.268     2741.995        3.867        2.000      192.383       52.480        0.074      336.615        8.035      854.110
12/09/2021  00:50:00     -246.686       61.325      -22.078      126.686      110.671       61.979    16049.321    12248.139     3841.435        4.861        1.607      254.195       55.629        0.048      336.640        8.078      854.086
12/09/2021  00:51:00     -279.804       67.380       -7.720      182.844       92.872       69.689    33431.922     8625.287     4856.601        6.489        2.346      287.803       54.920        0.036      336.573        7.963      854.077
12/09/2021  00:52:00     -279.108       64.291      -15.754      210.437      162.984       95.952    44283.613    26563.683     9206.715        8.115        4.003      286.417       82.028        0.082      336.524        7.881      854.050
12/09/2021  00:53:00     -257.508      110.096      -16.997      172.799      128.987       77.723    29859.637    16637.673     6040.831        6.562        2.627      280.056       71.716        0.066      336.492        7.826      854.042
12/09/2021  00:54:00     -160.507       61.392      -19.633      163.153      128.324       83.518    26618.782    16466.957     6975.185        3.998        2.503      171.847       47.944        0.078      336.507        7.852      854.036
12/09/2021  00:55:00     -376.668       85.212      -38.380      221.901      171.813       89.360    49240.232    29519.870     7985.226       11.866        4.337      386.186       53.252        0.019      336.425        7.712      854.013
12/09/2021  00:56:00     -198.367       17.897       -0.685      183.464      144.262       90.403    33659.216    20811.413     8172.680        5.115        3.132      199.172       79.123        0.158      336.428        7.719      854.002
12/09/2021  00:57:00     -242.396      120.071      -17.964      226.156      140.844       82.949    51146.577    19837.139     6880.467        7.567        3.893      270.505       97.910        0.131      336.378        7.638      854.013
12/09/2021  00:58:00     -268.319       52.229       -6.109      173.756      131.571       80.716    30191.265    17310.808     6515.110        6.438        2.701      273.355       76.377        0.078      336.323        7.545      854.019
12/09/2021  00:59:00     -253.766       33.416       -7.463      194.973      123.022       88.274    38014.305    15134.444     7792.356        6.324        3.047      255.957       88.334        0.119      336.278        7.469      854.006
12/09/2021  01:00:00     -287.860      123.113        2.388      189.607      142.865       92.456    35950.938    20410.524     8548.085        8.146        3.245      313.081       99.907        0.102      336.313        7.528      854.021
12/09/2021  01:01:00     -295.501       94.462      -33.097      134.051      107.377       69.997    17969.690    11529.855     4899.555        6.586        1.720      310.232       73.331        0.056      336.254        7.429      854.043
12/09/2021  01:02:00     -344.388       89.954      -43.361      168.125      113.593      103.642    28265.853    12903.275    10741.691        9.023        2.596      355.943       53.092        0.022      336.180        7.304      854.038
12/09/2021  01:03:00     -268.045       34.848      -15.259      173.923      107.943       70.140    30249.146    11651.632     4919.635        6.005        2.341      270.301       41.715        0.024      336.152        7.258      854.046
12/09/2021  01:04:00     -100.511       27.710       -8.427      218.073       94.096       59.737    47555.926     8854.060     3568.487        3.545        2.999      104.261       67.638        0.421      336.155        7.265      854.053
12/09/2021  01:05:00     -151.837       28.176      -44.194      247.535      120.928       71.548    61273.630    14623.663     5119.065        5.339        4.051      154.429       82.450        0.285      336.142        7.242      854.044
12/09/2021  01:06:00     -340.818       47.961      -25.496      200.304      135.420       80.400    40121.627    18338.484     6464.108        9.200        3.246      344.176       83.262        0.059      336.093        7.160      854.049
12/09/2021  01:07:00     -375.427      100.274      -24.783      181.904      123.008       70.388    33089.159    15130.970     4954.529       10.238        2.659      388.588       36.657        0.009      336.073        7.127      854.061
12/09/2021  01:08:00     -204.174       73.215      -15.484      210.323      130.249       69.551    44235.820    16964.799     4837.399        5.665        3.302      216.904       49.259        0.052      336.007        7.017      854.062
12/09/2021  01:09:00     -257.530       -3.248       -1.685      189.140      136.023       88.567    35773.845    18502.322     7844.124        6.422        3.106      257.550       72.872        0.080      335.985        6.981      854.043
12/09/2021  01:10:00     -388.139      145.387      -38.938      219.393      153.932       99.886    48133.208    23694.975     9977.169       12.754        4.090      414.474       97.190        0.055      336.002        7.010      854.014
12/09/2021  01:11:00     -265.027      118.924      -31.007      174.723      135.274       69.636    30528.096    18299.171     4849.206        6.950        2.684      290.486       55.758        0.037      335.983        6.978      854.015
12/09/2021  01:12:00     -260.619       63.446       -6.480      161.809      106.561       73.491    26182.202    11355.341     5400.970        5.746        2.147      268.231       58.173        0.047      335.881        6.808      854.014
12/09/2021  01:13:00     -224.756       42.984      -34.036      151.050      106.982       68.087    22816.092    11445.136     4635.780        4.620        1.945      228.829       46.032        0.040      335.866        6.782      854.048
12/09/2021  01:14:00     -198.708       37.241      -18.755      220.727      115.376       85.100    48720.496    13311.674     7242.030        5.524        3.464      202.167       95.723        0.224      335.861        6.775      854.069
12/09/2021  01:15:00     -156.749       27.509      -18.082      201.688      118.146       73.028    40677.987    13958.511     5333.097        4.280        2.998      159.145       80.492        0.256      335.845        6.748      854.087
12/09/2021  01:16:00     -306.820      100.953       -9.607      164.147      109.643       70.751    26944.263    12021.585     5005.714        7.419        2.199      323.002       72.311        0.050      335.826        6.714      854.095
12/09/2021  01:17:00     -311.586      155.131      -25.698      150.175      120.169       60.085    22552.468    14440.700     3610.162        8.120        2.030      348.068       63.597        0.033      335.843        6.743      854.090
12/09/2021  01:18:00     -368.160      212.880      -33.481      165.651      122.614       80.702    27440.111    15034.077     6512.781       11.547        2.449      425.276       66.576        0.025      335.919        6.869      854.079
12/09/2021  01:19:00     -363.357      116.284      -26.479      145.849      118.427       86.061    21272.068    14024.864     7406.448        9.447        2.135      381.511       77.436        0.041      335.887        6.816      854.051
12/09/2021  01:20:00     -317.721       83.172      -15.329      181.027      121.615       86.913    32770.762    14790.259     7553.936        8.160        2.756      328.427       90.424        0.076      335.832        6.727      854.042
12/09/2021  01:21:00     -311.774       91.505      -42.400      153.943      124.999       71.847    23698.434    15624.747     5162.043        7.592        2.224      324.925       66.090        0.041      335.830        6.724      854.054
12/09/2021  01:22:00     -137.684       32.259       -9.920      154.974      105.828       76.048    24016.813    11199.535     5783.313        3.054        2.050      141.413       49.921        0.125      335.825        6.715      854.063
12/09/2021  01:23:00       28.412      -40.286        6.006       72.789       58.625       43.942     5298.289     3436.926     1930.930        0.656        0.533       49.297       28.193        0.327      335.871        6.793      854.082
12/09/2021  01:24:00       17.732       10.929       -8.552       68.466       41.694       42.687     4687.587     1738.405     1822.221        0.438        0.412       20.830       24.862        1.425      335.914        6.865      854.083
12/09/2021  01:25:00        5.559       -1.744      -12.065       49.369       64.949       43.730     2437.282     4218.386     1912.346        0.437        0.428        5.826       27.412       22.139      335.832        6.728      854.070
12/09/2021  01:26:00     -103.443       39.220       -0.309       80.531       54.321       58.535     6485.243     2950.767     3426.370        1.255        0.643      110.628       45.481        0.169      335.860        6.775      854.062
12/09/2021  01:27:00      -74.624       -5.491      -19.962       94.808       45.246       37.882     8988.574     2047.194     1435.037        0.923        0.624       74.826       30.370        0.165      335.782        6.644      854.049
12/09/2021  01:28:00     -124.205        4.685      -12.901      122.986       64.170       55.814    15125.437     4117.772     3115.234        1.898        1.118      124.293       53.212        0.183      335.775        6.633      854.049
12/09/2021  01:29:00     -102.149       70.997        5.450      121.151       78.275       56.372    14677.561     6126.919     3177.777        1.974        1.199      124.398       48.780        0.154      335.772        6.627      854.038
12/09/2021  01:30:00       26.304      -10.597      -12.756       59.815       45.234       51.532     3577.835     2046.101     2655.560        0.462        0.414       28.359       24.880        0.770      335.775        6.633      854.024
12/09/2021  01:31:00      -50.831       16.221       -3.929       87.594       47.000       42.736     7672.672     2208.989     1826.337        0.728        0.585       53.357       43.248        0.657      335.788        6.654      854.007
12/09/2021  01:32:00      -14.914       59.769        6.755       61.462       56.597       40.496     3777.544     3203.254     1639.948        0.623        0.431       61.601       15.835        0.066      335.855        6.766      854.004
12/09/2021  01:33:00      -65.980       23.537      -11.906       90.345       69.674       47.038     8162.213     4854.468     2212.575        1.014        0.761       70.053       46.113        0.433      335.860        6.773      854.019
12/09/2021  01:34:00        1.210       -4.906        7.804       69.011       54.238       44.797     4762.548     2941.786     2006.755        0.490        0.486        5.053       27.931       30.560      335.816        6.701      854.001
12/09/2021  01:35:00       -3.313        7.377       -0.893       46.585       55.362       38.330     2170.118     3064.963     1469.208        0.338        0.335        8.086       31.102       14.794      335.868        6.790      854.018
12/09/2021  01:36:00     -213.387       73.855      -22.586      186.909       90.242       66.963    34935.147     8143.641     4484.089        4.952        2.378      225.807       68.473        0.092      335.812        6.694      854.042
12/09/2021  01:37:00     -187.222       33.427      -30.272      233.457      175.631      118.979    54502.174    30846.387    14156.106        6.828        4.975      190.182       89.820        0.223      335.567        6.283      854.037
12/09/2021  01:38:00      -75.980       36.292      -28.953      177.530      136.237       92.906    31516.993    18560.478     8631.451        3.331        2.935       84.202       73.077        0.753      335.469        6.120      854.072
12/09/2021  01:39:00      -73.525       26.810        0.103      234.726      105.018       89.094    55096.128    11028.883     7937.803        4.008        3.703       78.261       90.491        1.337      335.372        5.960      854.118
12/09/2021  01:40:00     -196.126       29.692       19.618      216.924      130.872       92.538    47055.923    17127.558     8563.194        5.623        3.637      198.361       94.235        0.226      335.193        5.662      854.157
12/09/2021  01:41:00     -168.606       24.708      -32.693      295.648      131.982      109.851    87407.952    17419.158    12067.225        7.348        5.845      170.406      117.225        0.473      335.090        5.492      854.213
12/09/2021  01:42:00     -315.357       87.044      -33.689      203.197      152.241       95.694    41289.146    23177.406     9157.325        9.088        3.681      327.150       75.019        0.053      334.982        5.311      854.233
12/09/2021  01:43:00     -339.811       72.393      -12.629      223.964      172.053      115.202    50159.743    29602.214    13271.504       10.694        4.652      347.436       99.725        0.082      334.915        5.201      854.253
12/09/2021  01:44:00     -423.215      199.055      -38.536      246.677      165.712       86.730    60849.640    27460.559     7522.112       15.801        4.792      467.690       99.099        0.045      334.870        5.126      854.292
12/09/2021  01:45:00     -365.751      113.658      -23.041      182.001      165.067       94.329    33124.407    27247.252     8897.873       10.823        3.463      383.004       89.260        0.054      334.901        5.177      854.315
12/09/2021  01:46:00     -195.746       52.992      -26.999      226.810      144.406       78.996    51442.968    20853.032     6240.382        6.018        3.927      202.792       84.763        0.175      334.856        5.102      854.382
12/09/2021  01:47:00     -305.777       98.707        3.414      269.300      153.478       99.728    72522.654    23555.588     9945.675       10.462        5.301      321.314      109.063        0.115      334.836        5.068      854.414
12/09/2021  01:48:00     -507.221      139.970      -10.888      162.697      148.611       86.575    26470.348    22085.241     7495.169       16.651        2.803      526.179       83.381        0.025      334.765        4.950      854.413
12/09/2021  01:49:00     -319.050       59.466       -8.749      213.245      149.012      103.268    45473.476    22204.551    10664.314        9.186        3.917      324.545       87.814        0.073      334.768        4.955      854.402
12/09/2021  01:50:00     -440.358       96.834       11.077      287.139      162.261      109.030    82448.922    26328.673    11887.450       16.202        6.033      450.879      108.212        0.058      334.663        4.781      854.416
12/09/2021  01:51:00     -337.503      111.433        1.149      255.605      135.057       95.000    65333.749    18240.429     9024.991       10.945        4.630      355.423       97.434        0.075      334.608        4.689      854.411
12/09/2021  01:52:00     -323.020       68.529       -7.004      159.361      112.547       71.161    25395.809    12666.749     5063.842        7.610        2.156      330.209       82.827        0.063      334.567        4.621      854.423
12/09/2021  01:53:00     -156.982       25.860      -14.309      181.482       78.116       79.704    32935.797     6102.167     6352.718        3.545        2.270      159.098       86.102        0.293      334.570        4.627      854.442
12/09/2021  01:54:00     -129.907       16.126      -11.417      174.666       93.375       79.217    30508.321     8718.970     6275.369        3.138        2.275      130.904       79.993        0.373      334.574        4.633      854.456
12/09/2021  01:55:00     -139.050       53.851      -16.301      155.067       97.309       72.293    24045.752     9469.115     5226.271        3.061        1.937      149.113       66.611        0.200      334.621        4.713      854.500
12/09/2021  01:56:00      -60.379       40.008      -11.937      110.379       94.496       69.176    12183.423     8929.562     4785.361        1.564        1.295       72.431       66.896        0.853      334.621        4.712      854.496
12/09/2021  01:57:00      -43.522       -0.576       -8.515      109.208       86.723       56.045    11926.324     7520.958     3141.038        1.227        1.129       43.526       37.903        0.758      334.645        4.753      854.522
12/09/2021  01:58:00      -95.034       21.365       -5.637      132.135       75.186       53.818    17459.545     5652.965     2896.427        1.776        1.300       97.406       49.269        0.256      334.574        4.634      854.534
12/09/2021  01:59:00     -224.029       47.667      -19.920      181.261      132.571       75.106    32855.605    17575.194     5640.970        5.445        2.804      229.044       84.987        0.138      334.578        4.639      854.503
12/09/2021  02:00:00     -167.053       63.681       -0.465      124.131       87.029       57.948    15408.604     7573.992     3357.981        2.915        1.317      178.780       53.475        0.089      334.565        4.618      854.482
12/09/2021  02:01:00     -289.759       64.276       -6.392      166.442       94.742       55.595    27703.070     8975.982     3090.845        6.394        1.988      296.803       56.682        0.036      334.519        4.540      854.466
12/09/2021  02:02:00     -251.823       88.240       -0.071      130.958       80.439       59.058    17149.907     6470.467     3487.890        4.915        1.355      266.836       62.521        0.055      334.585        4.650      854.441
12/09/2021  02:03:00     -228.727       16.057      -19.206       95.225       78.020       62.690     9067.863     6087.094     3930.054        3.601        0.954      229.290       53.404        0.054      334.570        4.626      854.391
12/09/2021  02:04:00     -293.365       80.235       -8.256      106.420       72.410       52.602    11325.136     5243.169     2766.982        5.595        0.967      304.139       40.308        0.018      334.517        4.537      854.358
12/09/2021  02:05:00     -220.991       78.784       -5.704      117.730       67.080       50.150    13860.264     4499.666     2515.048        3.797        1.044      234.614       47.290        0.041      334.559        4.610      854.328
12/09/2021  02:06:00     -259.711      131.080       -3.822      113.666       92.740       57.102    12920.036     8600.796     3260.595        5.471        1.239      290.915       59.399        0.042      334.536        4.569      854.287
12/09/2021  02:07:00     -244.695       54.521       -8.821      132.913       78.762       61.826    17665.910     6203.443     3822.472        4.530        1.385      250.695       68.447        0.075      334.517        4.540      854.266
12/09/2021  02:08:00     -213.297       24.414       -3.065      125.702       81.728       61.116    15800.878     6679.514     3735.135        3.615        1.311      214.690       48.035        0.050      334.523        4.549      854.258
12/09/2021  02:09:00     -187.836       54.146        4.027      109.892       61.822       54.584    12076.269     3821.945     2979.443        2.855        0.944      195.485       54.418        0.077      334.576        4.636      854.244
12/09/2021  02:10:00     -286.072      110.040       -9.152      126.332      101.339       64.416    15959.662    10269.532     4149.424        6.220        1.519      306.506       67.214        0.048      334.553        4.597      854.226
12/09/2021  02:11:00     -227.453       14.133        9.309      165.751       90.299       77.191    27473.316     8153.819     5958.419        4.680        2.079      227.892       73.441        0.104      334.576        4.636      854.212
12/09/2021  02:12:00     -193.822       54.444      -11.301      147.166      102.515       57.610    21657.763    10509.266     3318.927        3.807        1.774      201.324       49.470        0.060      334.649        4.758      854.192
12/09/2021  02:13:00     -281.112       29.501      -11.186      162.049       89.416       67.435    26259.722     7995.138     4547.463        5.940        1.940      282.656       78.171        0.076      334.649        4.757      854.189
12/09/2021  02:14:00     -153.502       73.263       -5.467      196.614       86.614       76.790    38657.148     7502.040     5896.768        4.050        2.603      170.089       68.485        0.162      334.677        4.806      854.217
12/09/2021  02:15:00     -292.278      110.258      -18.321      205.409      116.260       70.242    42192.773    13516.301     4933.953        7.927        3.032      312.383       73.088        0.055      334.699        4.841      854.250
12/09/2021  02:16:00     -246.664       69.589       -6.467      172.950      118.740       74.213    29911.649    14099.259     5507.552        5.761        2.476      256.293       68.462        0.071      334.694        4.833      854.249
12/09/2021  02:17:00     -360.678      142.643       -8.011      130.673      135.729       81.197    17075.313    18422.246     6592.931        9.629        2.105      387.860       57.424        0.022      334.661        4.775      854.259
12/09/2021  02:18:00     -296.955       79.269      -18.409      167.756       98.761       71.105    28142.029     9753.656     5055.852        6.887        2.148      307.353       61.447        0.040      334.623        4.715      854.228
12/09/2021  02:19:00     -324.143       52.654      -27.228      170.109       98.491       67.213    28937.019     9700.498     4517.533        7.586        2.158      328.392       61.009        0.035      334.619        4.707      854.226
12/09/2021  02:20:00     -234.551       26.502      -25.091      156.535      113.728       81.498    24503.171    12934.164     6641.850        5.020        2.204      236.043       68.397        0.084      334.653        4.765      854.245
12/09/2021  02:21:00     -376.881      127.573      -29.709      140.083      125.031       65.639    19623.208    15632.751     4308.539        9.937        1.978      397.887       53.661        0.018      334.648        4.755      854.257
12/09/2021  02:22:00     -120.638       34.661       -7.046      138.050       98.471       79.138    19057.805     9696.625     6262.789        2.540        1.751      125.519       53.278        0.180      334.650        4.758      854.266
12/09/2021  02:23:00      -25.579       19.052       -3.683      104.530       63.335       61.327    10926.475     4011.355     3761.037        0.986        0.935       31.895       43.935        1.897      334.670        4.795      854.271
12/09/2021  02:24:00      -97.276        5.629      -18.653      124.163       93.353       65.876    15416.447     8714.720     4339.690        1.915        1.424       97.439       57.666        0.350      334.622        4.713      854.264
12/09/2021  02:25:00     -121.940       41.086       10.647      174.279       83.892       67.570    30373.012     7037.905     4565.709        2.932        2.099      128.675       67.720        0.277      334.604        4.683      854.257
12/09/2021  02:26:00      -98.633       45.678      -13.414      101.231       84.831       56.103    10247.622     7196.343     3147.567        1.629        1.030      108.697       29.753        0.075      334.595        4.668      854.230
12/09/2021  02:27:00     -132.466        3.400       -5.120      164.727       99.076       64.039    27134.940     9816.149     4100.947        2.931        2.053      132.509       50.986        0.148      334.594        4.666      854.202
12/09/2021  02:28:00     -240.755       76.137       -6.725       93.156       83.348       55.799     8678.126     6946.934     3113.517        4.127        0.937      252.507       48.966        0.038      334.532        4.563      854.197
12/09/2021  02:29:00     -175.381       52.995      -28.276      134.312       75.524       60.015    18039.710     5703.937     3601.745        3.085        1.367      183.213       63.587        0.120      334.575        4.635      854.201
12/09/2021  02:30:00     -293.426       49.854      -27.121      110.478      105.750       63.736    12205.333    11183.112     4062.275        5.838        1.373      297.631       52.017        0.031      334.490        4.493      854.233
12/09/2021  02:31:00     -240.229       49.029      -22.704      159.516      112.339       78.259    25445.448    12620.037     6124.398        5.240        2.209      245.182       57.372        0.055      334.523        4.549      854.272
12/09/2021  02:32:00     -129.189       11.942      -24.404      153.630       97.628       70.256    23602.154     9531.314     4935.962        2.774        1.903      129.740       45.664        0.124      334.481        4.479      854.318
12/09/2021  02:33:00     -195.783       78.042      -11.914      180.778      137.246       75.852    32680.687    18836.526     5753.528        5.091        2.864      210.764       88.170        0.175      334.452        4.431      854.346
12/09/2021  02:34:00     -309.804       70.694      -13.606      166.106       90.381       63.325    27591.105     8168.810     4010.065        7.046        1.988      317.768       44.066        0.019      334.457        4.439      854.394
12/09/2021  02:35:00     -409.324      121.670      -19.104      155.977      131.135       71.381    24328.877    17196.352     5095.290       11.466        2.331      427.024       77.439        0.033      334.442        4.415      854.409
12/09/2021  02:36:00     -288.545      114.122      -32.600      135.518      155.864       67.865    18365.203    24293.521     4605.597        7.230        2.363      310.294       63.936        0.042      334.452        4.431      854.408
12/09/2021  02:37:00     -222.827       39.630       -1.717      229.041      120.118       87.560    52459.886    14428.266     7666.680        6.288        3.728      226.324       75.281        0.111      334.419        4.377      854.397
12/09/2021  02:38:00     -242.819       75.972      -30.141      175.045      117.756       64.785    30640.763    13866.371     4197.063        5.716        2.435      254.426       59.866        0.055      334.378        4.308      854.391
12/09/2021  02:39:00     -327.172       70.836       -7.114      168.599       90.688       75.798    28425.669     8224.305     5745.303        7.724        2.120      334.753       76.642        0.052      334.335        4.237      854.377
12/09/2021  02:40:00     -229.500       51.261       -3.237      151.921      112.291       70.340    23079.845    12609.201     4947.778        4.797        2.032      235.155       67.351        0.082      334.302        4.181      854.363
12/09/2021  02:41:00     -293.908       82.139       -7.206      146.440       97.931       69.753    21444.556     9590.423     4865.447        6.453        1.795      305.170       71.432        0.055      334.269        4.125      854.329
12/09/2021  02:42:00     -207.251       43.438       -2.571      138.109       84.753       53.786    19074.125     7183.144     2892.917        3.699        1.458      211.754       49.386        0.054      334.278        4.141      854.312
12/09/2021  02:43:00     -245.976       88.435      -12.694      128.307       77.784       60.917    16462.578     6050.402     3710.831        4.735        1.311      261.391       62.560        0.057      334.266        4.121      854.307
12/09/2021  02:44:00     -272.780      115.210       -2.901      111.918       81.698       67.942    12525.578     6674.537     4616.065        5.575        1.191      296.112       62.328        0.044      334.236        4.070      854.271
12/09/2021  02:45:00     -182.639       67.635      -14.042      144.776       77.896       67.491    20960.091     6067.820     4555.006        3.485        1.579      194.760       67.223        0.119      334.251        4.099      854.247
12/09/2021  02:46:00     -174.760       20.240      -28.314      131.694       94.534       57.960    17343.305     8936.625     3359.327        3.069        1.482      175.928       38.631        0.048      334.274        4.137      854.225
12/09/2021  02:47:00      -82.685       13.900       -4.940      131.750       93.095       59.252    17358.081     8666.596     3510.796        1.829        1.477       83.845       38.919        0.215      334.294        4.170      854.203
12/09/2021  02:48:00     -151.089       40.750      -11.873      121.664       92.096       58.762    14802.195     8481.677     3453.015        2.568        1.337      156.488       64.480        0.170      334.350        4.262      854.186
12/09/2021  02:49:00     -356.460       89.841       -8.628      166.590       93.572       67.674    27752.068     8755.791     4579.704        8.814        2.054      367.608       81.020        0.049      334.274        4.134      854.177
12/09/2021  02:50:00     -101.809       -6.107       -0.202      131.487       79.234       70.142    17288.795     6278.091     4919.926        1.944        1.424      101.992       58.589        0.330      334.331        4.231      854.169
12/09/2021  02:51:00     -255.254       88.032      -13.985      127.619       77.412       60.985    16286.601     5992.614     3719.207        4.954        1.300      270.008       47.764        0.031      334.293        4.166      854.148
12/09/2021  02:52:00     -180.903       34.258      -18.474      158.997       94.691       66.506    25280.097     8966.455     4423.086        3.645        1.933      184.118       61.189        0.110      334.282        4.149      854.126
12/09/2021  02:53:00     -259.958      112.085        6.077      117.308       84.072       60.955    13761.148     7068.145     3715.472        5.236        1.227      283.092       58.484        0.043      334.276        4.137      854.088
12/09/2021  02:54:00     -235.059       47.847       -9.903      157.103       85.070       60.975    24681.263     7236.856     3717.961        4.663        1.782      239.879       52.356        0.048      334.279        4.143      854.069
12/09/2021  02:55:00     -136.470       21.974       14.280      144.067       78.158       56.691    20755.332     6108.691     3213.864        2.469        1.504      138.228       45.721        0.109      334.302        4.184      854.058
12/09/2021  02:56:00     -272.291      104.114       -3.576      117.981       90.028       59.370    13919.485     8105.129     3524.773        5.527        1.277      291.517       51.622        0.031      334.259        4.110      854.042
12/09/2021  02:57:00     -360.093       94.568       -8.708      172.760      109.620       65.019    29846.101    12016.448     4227.487        9.238        2.305      372.304       71.805        0.037      334.289        4.161      854.017
12/09/2021  02:58:00     -267.800       53.835      -17.450      130.488       79.994       64.835    17027.225     6398.962     4203.555        5.127        1.381      273.158       55.641        0.041      334.272        4.130      854.015
12/09/2021  02:59:00     -193.466       52.581       -4.819       89.271       75.322       49.291     7969.285     5673.447     2429.558        2.814        0.804      200.484       38.892        0.038      334.270        4.127      854.007
12/09/2021  03:00:00     -282.617      102.498       -1.125      103.761       65.866       48.193    10766.444     4338.269     2322.563        5.390        0.871      300.629       46.585        0.024      334.260        4.111      854.001
12/09/2021  03:01:00     -200.344       70.459       -6.213       94.747       84.682       52.657     8976.953     7171.065     2772.764        3.203        0.946      212.372       51.090        0.058      334.265        4.121      854.008
12/09/2021  03:02:00     -177.140       34.916       -9.923      120.315       65.936       47.131    14475.686     4347.556     2221.363        2.687        1.052      180.549       39.175        0.047      334.273        4.133      854.006
12/09/2021  03:03:00     -217.457       55.803      -16.420      107.535       81.313       60.048    11563.670     6611.840     3605.708        3.622        1.089      224.502       57.256        0.065      334.294        4.168      854.008
12/09/2021  03:04:00     -262.044       40.517       -6.378      147.101      104.091       56.759    21638.750    10834.883     3221.568        5.302        1.785      265.158       58.883        0.049      334.294        4.168      854.008
12/09/2021  03:05:00     -213.609       21.775        6.977      119.122       72.052       60.310    14190.157     5191.462     3637.251        3.458        1.151      214.716       57.589        0.072      334.289        4.161      854.023
12/09/2021  03:06:00     -173.194       31.595        8.058      127.161       79.924       52.625    16169.804     6387.918     2769.386        2.819        1.266      176.052       50.005        0.081      334.280        4.146      854.019
12/09/2021  03:07:00     -155.591       30.256      -11.932       93.752       79.315       46.413     8789.490     6290.885     2154.139        2.125        0.862      158.505       42.755        0.073      334.257        4.107      854.013
12/09/2021  03:08:00     -156.702       28.107      -22.358      120.109       84.543       59.843    14426.121     7147.492     3581.192        2.550        1.258      159.203       47.888        0.090      334.270        4.129      853.987
12/09/2021  03:09:00     -250.259       97.921       -8.697      122.282       88.781       58.606    14952.991     7882.041     3434.681        4.928        1.313      268.734       51.430        0.037      334.249        4.093      853.971
12/09/2021  03:10:00     -258.019       66.189       -8.111      142.115      111.805       68.323    20196.745    12500.254     4668.038        5.419        1.868      266.373       60.839        0.052      334.260        4.111      853.953
12/09/2021  03:11:00      -96.095       35.152       -4.436       96.789       81.953       61.120     9368.033     6716.358     3735.598        1.515        0.991      102.322       42.728        0.174      334.282        4.150      853.940
12/09/2021  03:12:00     -228.789       51.224        0.715      127.844      103.656       64.202    16344.215    10744.558     4121.921        4.308        1.561      234.453       56.311        0.058      334.248        4.093      853.933
12/09/2021  03:13:00     -262.887       48.051       -0.351      166.556       98.674       59.176    27740.841     9736.621     3501.803        5.619        2.049      267.243       50.643        0.036      334.225        4.053      853.926
12/09/2021  03:14:00     -236.089       69.405       -4.421      115.832       89.198       60.686    13417.014     7956.219     3682.739        4.281        1.253      246.080       53.400        0.047      334.222        4.048      853.927
12/09/2021  03:15:00     -360.015      106.396      -18.885      157.425       89.294       61.865    24782.619     7973.489     3827.226        8.893        1.829      375.408       42.848        0.013      334.231        4.063      853.918
12/09/2021  03:16:00     -377.372       89.192      -11.910      132.219      100.571       75.402    17481.972    10114.627     5685.395        9.189        1.664      387.769       65.463        0.029      334.218        4.039      853.901
12/09/2021  03:17:00     -230.935      105.753      -20.867      162.595       85.583       74.260    26437.276     7324.502     5514.607        5.211        1.964      253.998       68.937        0.074      334.202        4.016      853.897
12/09/2021  03:18:00     -281.269       83.341        3.809      174.561      118.773       68.988    30471.412    14107.005     4759.282        6.770        2.467      293.356       61.075        0.043      334.191        3.998      853.882
12/09/2021  03:19:00     -391.193      136.906      -13.863      145.021      112.773       69.157    21031.038    12717.843     4782.652       10.524        1.927      414.458       56.806        0.019      334.162        3.948      853.884
12/09/2021  03:20:00     -303.207       73.265       -4.306      174.704       89.743       65.083    30521.402     8053.745     4235.807        7.006        2.141      311.933       77.206        0.061      334.151        3.929      853.878
12/09/2021  03:21:00     -355.341       81.803      -20.405      126.573       98.602       59.797    16020.728     9722.432     3575.667        8.134        1.466      364.635       63.161        0.030      334.133        3.899      853.889
12/09/2021  03:22:00     -298.047       85.493      -10.181      112.384       96.957       66.812    12630.206     9400.577     4463.840        6.136        1.325      310.066       57.668        0.035      334.136        3.906      853.895
12/09/2021  03:23:00     -207.532       68.584       -1.910      117.619      129.277       58.525    13834.196    16712.566     3425.133        4.087        1.699      218.571       54.167        0.061      334.119        3.875      853.907
12/09/2021  03:24:00     -223.026       64.106       -6.771      122.545       83.372       55.045    15017.366     6950.900     3029.955        3.944        1.250      232.056       45.803        0.039      334.099        3.844      853.901
12/09/2021  03:25:00     -366.272      129.117      -16.446      171.871       84.146       56.776    29539.679     7080.554     3223.567        9.546        1.992      388.364       67.534        0.030      334.078        3.809      853.891
12/09/2021  03:26:00     -338.901       77.620       -7.895      113.171       76.708       63.464    12807.602     5884.160     4027.731        7.183        1.136      347.677       61.031        0.031      334.067        3.792      853.892
12/09/2021  03:27:00     -278.731       82.546        1.057      131.707       95.167       57.992    17346.768     9056.830     3363.024        5.713        1.488      290.697       59.921        0.042      334.070        3.796      853.894
12/09/2021  03:28:00     -278.894       96.134        3.294      128.129       78.100       66.519    16417.140     6099.598     4424.756        5.698        1.347      294.998       61.784        0.044      334.097        3.841      853.908
12/09/2021  03:29:00     -221.792       55.495       -4.660      110.230       92.537       49.121    12150.714     8563.021     2412.887        3.771        1.156      228.630       49.451        0.047      334.115        3.871      853.929
12/09/2021  03:30:00     -328.189      114.138      -14.514      108.328       88.448       64.009    11734.870     7823.100     4097.149        7.230        1.183      347.470       47.822        0.019      334.137        3.907      853.938
12/09/2021  03:31:00     -229.471       66.507       -7.511      142.686      102.583       67.689    20359.258    10523.294     4581.864        4.629        1.773      238.914       73.632        0.095      334.141        3.914      853.938
12/09/2021  03:32:00     -167.709       32.721       -5.343      163.955       73.667       59.459    26881.372     5426.877     3535.416        3.253        1.792      170.871       69.889        0.167      334.165        3.955      853.934
12/09/2021  03:33:00     -240.142       46.338       -4.351      138.315       96.379       62.303    19131.128     9288.907     3881.673        4.606        1.615      244.572       63.467        0.067      334.115        3.870      853.918
12/09/2021  03:34:00     -344.504      123.964      -10.312      100.169       80.087       63.063    10033.769     6413.946     3976.961        7.729        1.021      366.128       50.432        0.019      334.127        3.890      853.902
12/09/2021  03:35:00     -232.838       10.292       -0.987      133.112       70.463       61.114    17718.857     4965.050     3734.971        4.036        1.321      233.065       62.531        0.072      334.157        3.940      853.879
12/09/2021  03:36:00     -295.524       47.925       -3.261      100.025       85.079       65.880    10004.965     7238.366     4340.133        5.561        1.079      299.385       52.587        0.031      334.161        3.945      853.891
12/09/2021  03:37:00     -251.295       59.961      -10.748      113.494       76.488       48.015    12880.981     5850.391     2305.432        4.394        1.052      258.349       37.838        0.021      334.168        3.958      853.882
12/09/2021  03:38:00     -252.617       86.643       -9.295      107.095       89.056       59.151    11469.366     7930.970     3498.858        4.715        1.145      267.062       47.883        0.032      334.163        3.950      853.873
12/09/2021  03:39:00     -127.486       38.004       -3.231      107.990       82.821       58.591    11661.748     6859.356     3432.912        1.983        1.098      133.030       56.551        0.181      334.197        4.007      853.859
12/09/2021  03:40:00     -191.875       46.245       -5.581      105.218       93.325       51.289    11070.898     8709.490     2630.544        3.069        1.121      197.369       53.131        0.072      334.175        3.969      853.865
12/09/2021  03:41:00     -357.453       99.634      -15.643      122.001      108.631       80.227    14884.122    11800.705     6436.394        8.553        1.656      371.079       74.197        0.040      334.183        3.984      853.865
12/09/2021  03:42:00     -194.788       56.514      -13.919      130.734       94.169       60.234    17091.453     8867.787     3628.124        3.545        1.479      202.821       63.964        0.099      334.191        3.997      853.862
12/09/2021  03:43:00     -275.972       97.835      -14.193      120.681       76.146       54.974    14563.908     5798.262     3022.121        5.465        1.169      292.800       51.093        0.030      334.184        3.985      853.852
12/09/2021  03:44:00     -207.509       56.374       -9.927      121.977       85.744       54.366    14878.442     7352.045     2955.703        3.576        1.259      215.030       53.226        0.061      334.191        3.998      853.845
12/09/2021  03:45:00     -194.253        2.476      -21.329      122.928       40.331       41.657    15111.318     1626.593     1735.290        2.833        0.924      194.269       50.319        0.067      334.186        3.988      853.846
12/09/2021  03:46:00     -118.523       11.175      -12.074       67.535       51.675       37.134     4561.006     2670.338     1378.912        1.146        0.431      119.049       40.784        0.117      334.226        4.057      853.840
12/09/2021  03:47:00     -144.745       44.356      -12.033       89.101       76.175       44.191     7938.906     5802.603     1952.842        1.938        0.785      151.389       36.769        0.059      334.217        4.041      853.838
12/09/2021  03:48:00     -188.384       81.837        4.977      107.625       78.615       53.927    11583.106     6180.371     2908.128        3.144        1.034      205.392       46.392        0.051      334.142        3.915      853.851
12/09/2021  03:49:00     -154.471      -20.704      -35.108      109.459       89.508       45.935    11981.171     8011.676     2110.068        2.381        1.105      155.852       51.815        0.111      334.185        3.990      853.865
12/09/2021  03:50:00      -83.693       12.501       -8.561      106.771       57.932       39.704    11400.059     3356.075     1576.439        1.178        0.817       84.621       34.377        0.165      334.196        4.008      853.876
12/09/2021  03:51:00      -95.501       22.790       -2.028      104.427       85.583       51.871    10904.927     7324.495     2690.642        1.528        1.046       98.182       47.111        0.230      334.179        3.979      853.885
12/09/2021  03:52:00      -75.340       31.858       -6.871       79.109       67.837       46.513     6258.263     4601.861     2163.469        0.988        0.651       81.799       42.032        0.264      334.182        3.985      853.898
12/09/2021  03:53:00     -159.642       31.536       -1.824       81.327       64.173       42.420     6614.046     4118.141     1799.462        1.951        0.627      162.727       39.823        0.060      334.147        3.926      853.887
12/09/2021  03:54:00     -201.538       76.794       -3.913       90.700       77.548       55.060     8226.572     6013.722     3031.658        3.190        0.864      215.673       47.466        0.048      334.140        3.912      853.882
12/09/2021  03:55:00     -173.406       21.420        8.921       99.479       94.149       57.626     9896.014     8863.999     3320.790        2.634        1.104      174.724       58.631        0.113      334.136        3.905      853.861
12/09/2021  03:56:00     -187.686       40.388        6.106       81.724       58.891       41.323     6678.864     3468.161     1707.590        2.437        0.593      191.982       38.815        0.041      334.093        3.835      853.847
12/09/2021  03:57:00      -92.266       39.361        9.493      126.541       74.688       51.642    16012.704     5578.344     2666.944        1.720        1.213      100.311       66.007        0.433      334.118        3.877      853.841
12/09/2021  03:58:00     -133.183       52.825        4.778      143.764       79.322       49.908    20667.965     6292.045     2490.780        2.500        1.473      143.276       51.353        0.128      334.115        3.872      853.861
12/09/2021  03:59:00     -215.653       57.266       -6.234       74.427       59.261       48.551     5539.389     3511.836     2357.184        3.061        0.570      223.127       41.706        0.035      334.098        3.841      853.867
12/09/2021  04:00:00     -249.773       89.018       -1.142      113.403       86.475       50.712    12860.199     7477.992     2571.673        4.661        1.145      265.162       42.098        0.025      334.088        3.825      853.861
12/09/2021  04:01:00     -328.378       47.082      -19.985      114.191       91.517       59.435    13039.564     8375.378     3532.571        6.769        1.247      331.737       58.566        0.031      334.114        3.869      853.849
12/09/2021  04:02:00     -107.527       22.611       -5.982       96.055       63.809       52.986     9226.494     4071.630     2807.542        1.410        0.805      109.879       32.029        0.085      334.078        3.811      853.837
12/09/2021  04:03:00     -186.845      113.704      -20.835       85.446       97.299       48.049     7300.978     9467.019     2308.749        3.367        0.954      218.723       38.326        0.031      334.045        3.757      853.811
12/09/2021  04:04:00     -169.679       45.950       -7.128      112.519      103.896       57.989    12660.522    10794.369     3362.681        2.888        1.341      175.791       56.214        0.102      334.061        3.781      853.783
12/09/2021  04:05:00     -153.185       85.487        3.708       84.636       81.132       57.334     7163.302     6582.369     3287.225        2.391        0.852      175.424       48.025        0.075      334.022        3.718      853.773
12/09/2021  04:06:00     -215.583       42.051      -15.007      107.235       67.101       44.463    11499.342     4502.527     1976.969        3.322        0.899      219.646       41.287        0.035      334.040        3.747      853.788
12/09/2021  04:07:00     -123.730       14.466       -5.651      124.524       68.239       55.706    15506.264     4656.509     3103.201        1.940        1.163      124.573       62.308        0.250      334.049        3.761      853.793
12/09/2021  04:08:00     -251.905       94.231      -17.748      103.328       80.423       50.757    10676.727     6467.932     2576.271        4.618        0.986      268.953       45.215        0.028      333.992        3.669      853.800
12/09/2021  04:09:00     -241.247       57.790      -10.049       97.314       71.221       42.229     9470.016     5072.494     1783.301        3.898        0.816      248.073       39.790        0.026      333.978        3.643      853.808
12/09/2021  04:10:00     -272.908       65.047      -21.602      127.758       83.243       50.466    16322.150     6929.385     2546.820        5.248        1.290      280.553       43.907        0.024      333.954        3.605      853.813
12/09/2021  04:11:00     -135.477       20.970      -19.670       99.951       55.210       46.003     9990.170     3048.174     2116.285        1.716        0.758      137.091       44.674        0.106      333.980        3.649      853.826
12/09/2021  04:12:00     -147.991       59.522      -16.869      117.857       57.215       47.878    13890.285     3273.582     2292.344        2.259        0.973      159.512       39.366        0.061      333.994        3.672      853.854
12/09/2021  04:13:00     -191.950       59.791      -16.657      117.859       69.058       40.704    13890.784     4768.999     1656.776        3.050        1.016      201.047       45.024        0.050      333.955        3.607      853.871
12/09/2021  04:14:00     -101.109       49.631      -10.513      108.497      101.103       56.770    11771.658    10221.727     3222.880        1.900        1.261      112.633       59.326        0.277      333.976        3.643      853.871
12/09/2021  04:15:00     -210.061      115.421       -4.861      107.479      109.560       55.719    11551.716    12003.383     3104.610        4.206        1.333      239.683       49.295        0.042      333.950        3.599      853.872
12/09/2021  04:16:00     -148.612       27.721       -7.888      104.990       76.286       51.998    11022.897     5819.549     2703.775        2.123        0.977      151.175       48.955        0.105      333.972        3.636      853.869
12/09/2021  04:17:00     -100.649       36.479       -3.258      134.635       80.234       57.631    18126.570     6437.469     3321.329        1.967        1.394      107.056       60.871        0.323      333.955        3.610      853.867
12/09/2021  04:18:00      -60.587        4.607       -3.585       91.208       74.273       56.189     8318.939     5516.477     3157.158        1.035        0.850       60.762       48.610        0.640      333.955        3.610      853.881
12/09/2021  04:19:00     -152.847       65.309      -21.361      130.632       65.894       54.603    17064.838     4341.965     2981.489        2.623        1.219      166.215       55.778        0.113      333.939        3.580      853.898
12/09/2021  04:20:00     -137.108       31.631      -31.389       94.147       47.656       37.832     8863.724     2271.097     1431.225        1.667        0.628      140.710       33.993        0.058      333.907        3.529      853.889
12/09/2021  04:21:00     -169.588       75.164      -20.805      121.652       85.526       50.421    14799.200     7314.660     2542.257        2.974        1.233      185.499       52.855        0.081      333.905        3.524      853.885
12/09/2021  04:22:00     -185.768       67.757      -27.467      132.678       71.549       49.487    17603.427     5119.207     2448.972        3.251        1.259      197.739       49.694        0.063      333.895        3.509      853.876
12/09/2021  04:23:00     -132.748       34.059      -30.328      116.979       92.787       53.358    13684.008     8609.433     2847.058        2.242        1.257      137.047       32.463        0.056      333.881        3.484      853.876
12/09/2021  04:24:00     -123.758       41.509      -22.845       88.322       55.525       38.977     7800.698     3083.046     1519.238        1.498        0.620      130.533       35.109        0.072      333.897        3.511      853.883
12/09/2021  04:25:00     -154.173       27.581      -17.577       87.425       62.149       39.291     7643.100     3862.531     1543.793        1.894        0.652      156.621       36.429        0.054      333.859        3.447      853.897
12/09/2021  04:26:00      -60.048       52.879      -11.323       82.368       79.737       35.377     6784.566     6358.012     1251.505        1.046        0.720       80.013       26.361        0.109      333.849        3.433      853.912
12/09/2021  04:27:00      -49.091      -13.244       -7.995       66.255       61.185       45.558     4389.746     3743.558     2075.517        0.643        0.510       50.846       27.968        0.303      333.835        3.411      853.929
12/09/2021  04:28:00      -35.207       23.789      -13.997       92.539       59.647       40.532     8563.515     3557.764     1642.845        0.788        0.688       42.491       34.152        0.646      333.837        3.414      853.940
12/09/2021  04:29:00      -70.841       41.996      -17.032       70.155       61.306       48.126     4921.737     3758.463     2316.111        0.903        0.550       82.354       31.809        0.149      333.846        3.428      853.956
12/09/2021  04:30:00     -173.637       65.163       -9.634       77.809       75.608       43.850     6054.257     5716.524     1922.843        2.409        0.685      185.462       21.015        0.013      333.766        3.293      853.966
12/09/2021  04:31:00      -26.884        5.726      -10.371       58.019       64.677       40.570     3366.250     4183.090     1645.965        0.503        0.460       27.486       24.931        0.823      333.829        3.401      853.986
12/09/2021  04:32:00     -108.404       43.156      -12.701       90.586       59.935       36.729     8205.875     3592.218     1349.036        1.346        0.657      116.678       35.795        0.094      333.773        3.308      854.007
12/09/2021  04:33:00     -134.051       19.834      -32.057       88.687       55.470       51.686     7865.310     3076.868     2671.475        1.650        0.681      135.511       55.944        0.170      333.750        3.268      854.027
12/09/2021  04:34:00     -140.037       54.407      -27.164       88.133       52.036       39.204     7767.401     2707.763     1536.967        1.766        0.601      150.234       26.608        0.031      333.726        3.228      854.038
12/09/2021  04:35:00       -5.330        2.352       10.454       47.630       45.719       25.786     2268.611     2090.201      664.909        0.258        0.251        5.826        9.648        2.743      333.780        3.320      854.037
12/09/2021  04:36:00     -103.533       71.827      -20.223       71.204       84.518       38.184     5070.052     7143.288     1458.017        1.498        0.684      126.009       33.331        0.070      333.743        3.257      854.042
12/09/2021  04:37:00     -137.928       55.424      -16.224       95.360       95.937       51.662     9093.537     9203.864     2668.976        2.166        1.048      148.647       53.072        0.127      333.671        3.138      854.038
12/09/2021  04:38:00      -45.650       32.481        0.395       95.818       62.619       39.372     9181.135     3921.168     1550.151        0.889        0.733       56.026       43.417        0.601      333.699        3.184      854.034
12/09/2021  04:39:00      -96.097       39.177       -4.458       83.917       80.585       50.774     7042.066     6493.873     2578.020        1.345        0.806      103.776       26.960        0.067      333.677        3.148      854.023
12/09/2021  04:40:00      -72.187       32.098       -0.751       94.573       62.582       45.082     8944.129     3916.548     2032.420        1.056        0.745       79.002       44.500        0.317      333.636        3.080      854.010
12/09/2021  04:41:00     -168.705       81.535      -24.775      110.984       79.375       58.334    12317.396     6300.458     3402.809        2.887        1.101      187.375       50.264        0.072      333.589        3.001      853.994
12/09/2021  04:42:00      -64.701       72.590      -11.191       78.552       69.835       38.532     6170.413     4876.974     1484.693        1.105        0.627       97.240       23.657        0.059      333.571        2.974      853.971
12/09/2021  04:43:00     -170.737      103.126      -15.402       59.977       50.615       38.238     3597.277     2561.897     1462.163        2.382        0.381      199.464       29.948        0.023      333.568        2.967      853.964
12/09/2021  04:44:00      -70.356       83.929      -28.429       60.901       51.781       48.957     3708.950     2681.293     2396.773        1.079        0.439      109.517       34.260        0.098      333.587        3.000      853.964
12/09/2021  04:45:00      -89.861       68.571      -28.777       44.171       57.291       40.172     1951.038     3282.237     1613.768        1.022        0.342      113.035       19.788        0.031      333.549        2.938      853.951
12/09/2021  04:46:00      -80.623       61.123       -9.054       56.577       41.562       42.828     3200.989     1727.410     1834.206        0.854        0.338      101.174       32.402        0.103      333.595        3.014      853.926
12/09/2021  04:47:00      -20.881       51.948      -15.214       45.064       57.213       34.272     2030.734     3273.372     1174.559        0.492        0.324       55.988       23.670        0.179      333.566        2.966      853.932
12/09/2021  04:48:00      -84.319      118.679      -19.985       37.856       54.025       29.959     1433.113     2918.722      897.545        1.342        0.262      145.583       16.917        0.014      333.554        2.947      853.940
12/09/2021  04:49:00      -49.508       38.312      -14.927       44.640       56.526       28.736     1992.733     3195.226      825.773        0.508        0.301       62.601       10.136        0.026      333.639        3.088      853.939
12/09/2021  04:50:00      -92.130       29.096      -24.121       75.235       53.720       30.447     5660.366     2885.850      927.040        0.969        0.474       96.615       19.073        0.039      333.591        3.008      853.942
12/09/2021  04:51:00      -11.266       25.180       -1.233       32.830       30.623       25.483     1077.798      937.794      649.393        0.171        0.133       27.586       19.354        0.492      333.598        3.019      853.935
12/09/2021  04:52:00     -110.142      127.921      -20.624       45.610       49.880       29.081     2080.256     2488.033      845.728        1.717        0.271      168.805       16.749        0.010      333.546        2.931      853.934
12/09/2021  04:53:00      -17.655      150.607      -17.755       54.215       54.444       33.501     2939.216     2964.194     1122.296        1.517        0.351      151.638       17.350        0.013      333.607        3.033      853.925
12/09/2021  04:54:00      -15.421       41.251       -1.961       47.211       43.343       34.453     2228.857     1878.633     1186.983        0.362        0.265       44.040       24.324        0.305      333.640        3.089      853.929
12/09/2021  04:55:00      -48.995       19.303      -18.141       60.347       38.547       30.551     3641.802     1485.907      933.360        0.458        0.303       52.660       22.930        0.190      333.618        3.053      853.928
12/09/2021  04:56:00      -10.982      153.290      -10.681       48.823       84.585       35.715     2383.644     7154.633     1275.555        1.727        0.541      153.683       37.700        0.060      333.602        3.024      853.917
12/09/2021  04:57:00      -42.199      109.476       -5.616       57.248       62.798       29.014     3277.365     3943.545      841.827        1.093        0.403      117.327       20.614        0.031      333.690        3.172      853.914
12/09/2021  04:58:00      -16.940      118.458       -5.128       42.514       81.469       27.617     1807.407     6637.248      762.706        1.177        0.460      119.663       27.578        0.053      333.642        3.092      853.901
12/09/2021  04:59:00      -88.380      102.923      -21.655       63.568       38.136       28.334     4040.930     1454.351      802.840        1.258        0.315      135.662       22.799        0.028      333.615        3.047      853.897
12/09/2021  05:00:00      -58.890      109.995      -14.797       48.548       41.845       24.501     2356.874     1751.010      600.293        1.025        0.235      124.768       14.828        0.014      333.648        3.103      853.905
12/09/2021  05:01:00      -45.974       87.871       -5.416       42.768       32.535       24.069     1829.142     1058.536      579.306        0.667        0.173       99.171       16.811        0.029      333.718        3.216      853.918
12/09/2021  05:02:00       -7.775      133.091      -12.581       28.891       39.062       24.260      834.669     1525.811      588.544        1.044        0.147      133.318       12.787        0.009      333.700        3.186      853.933
12/09/2021  05:03:00      -12.913      148.337       -8.136       62.091       52.048       26.081     3855.261     2708.950      680.241        1.474        0.362      148.898       18.599        0.016      333.703        3.193      853.947
12/09/2021  05:04:00       19.677      117.124      -13.412       43.717       48.354       27.364     1911.218     2338.112      748.780        0.964        0.250      118.766       16.438        0.019      333.782        3.323      853.960
12/09/2021  05:05:00       -4.980      134.378      -16.035       55.399       46.718       31.038     3069.010     2182.542      963.369        1.228        0.311      134.470       23.288        0.030      333.818        3.383      853.970
12/09/2021  05:06:00      -23.874      223.217      -16.639       54.369      109.357       37.996     2955.951    11959.033     1443.730        3.351        0.818      224.490       49.170        0.048      333.735        3.244      853.981
12/09/2021  05:07:00      -77.442      157.978      -15.530       54.990       85.297       30.846     3023.882     7275.625      951.475        2.122        0.563      175.938       20.703        0.014      333.729        3.233      853.983
12/09/2021  05:08:00      -39.474      157.904      -31.062       87.358       62.035       37.549     7631.430     3848.299     1409.937        2.017        0.644      162.764       32.531        0.040      333.727        3.231      853.976
12/09/2021  05:09:00      -52.246       65.463      -14.361       68.043       46.967       33.222     4629.820     2205.919     1103.726        0.758        0.397       83.756       28.512        0.116      333.737        3.248      853.954
12/09/2021  05:10:00      -60.200      105.131       -1.631       73.220       84.661       42.106     5361.226     7167.532     1772.904        1.449        0.715      121.147       33.375        0.076      333.708        3.200      853.945
12/09/2021  05:11:00      -54.031      144.407      -23.593       66.347       55.095       33.353     4401.861     3035.405     1112.438        1.644        0.427      154.184       26.536        0.030      333.771        3.304      853.949
12/09/2021  05:12:00      -18.503      149.021      -19.713       30.126       40.207       21.622      907.579     1616.596      467.509        1.296        0.150      150.166       12.404        0.007      333.696        3.181      853.964
12/09/2021  05:13:00      -25.747      105.612       -7.585       27.416       26.199       17.778      751.635      686.386      316.054        0.681        0.088      108.705       14.483        0.018      333.754        3.277      853.969
12/09/2021  05:14:00       -6.070       71.237       -3.449       29.956       33.458       20.075      897.346     1119.412      402.999        0.377        0.121       71.495       11.793        0.027      333.720        3.222      853.975
12/09/2021  05:15:00       29.328      158.831       29.946       55.329       81.966       55.358     3061.321     6718.459     3064.505        1.991        0.642      161.515       64.454        0.159      333.580        2.987      853.975
12/09/2021  05:16:00       91.883      192.486       63.737       35.360       79.542       34.544     1250.342     6326.900     1193.285        2.916        0.439      213.291       42.435        0.040      333.271        2.474      853.974
12/09/2021  05:17:00       76.405      277.805       63.589       43.264       71.575       34.965     1871.763     5123.042     1222.563        4.764        0.411      288.120       39.509        0.019      333.180        2.322      853.975
12/09/2021  05:18:00       69.936      199.990       74.708       32.567       58.826       37.143     1060.588     3460.513     1379.638        2.818        0.295      211.866       39.243        0.034      333.200        2.357      853.978
12/09/2021  05:19:00       88.583      211.130       77.864       35.125       77.297       34.317     1233.755     5974.796     1177.649        3.343        0.419      228.960       35.710        0.024      333.215        2.377      853.988
12/09/2021  05:20:00       24.825      151.541       15.760       65.155       87.949       42.925     4245.151     7734.984     1842.593        1.882        0.691      153.561       58.425        0.145      333.590        3.005      853.995
12/09/2021  05:21:00       17.690       98.336      -10.496       35.827       37.839       21.372     1283.574     1431.817      456.761        0.663        0.159       99.915       16.855        0.028      333.721        3.222      854.004
12/09/2021  05:22:00       25.429      103.579      -12.427       31.181       30.342       23.808      972.231      920.640      566.812        0.699        0.123      106.655       16.158        0.023      333.728        3.234      854.005
12/09/2021  05:23:00       -1.328       60.772       -6.161       28.947       26.561       24.378      837.921      705.483      594.305        0.293        0.107       60.786       19.146        0.099      333.789        3.335      854.002
12/09/2021  05:24:00       20.644       93.631       -6.631       34.263       37.106       20.384     1173.945     1376.867      415.510        0.610        0.148       95.880       13.800        0.021      333.742        3.257      854.006
12/09/2021  05:25:00        7.595       95.051       -8.101       35.519       26.639       21.506     1261.633      709.619      462.521        0.580        0.122       95.354       16.374        0.029      333.741        3.256      854.008
12/09/2021  05:26:00      -33.559       74.995       -6.535       30.487       30.588       16.032      929.485      935.604      257.020        0.446        0.106       82.161       15.335        0.035      333.741        3.255      854.026
12/09/2021  05:27:00      -25.935      101.987      -11.174       22.853       39.862       15.763      522.243     1588.988      248.484        0.678        0.118      105.233        6.371        0.004      333.670        3.138      854.030
12/09/2021  05:28:00       -8.411       94.048      -13.835       17.723       38.725       20.168      314.117     1499.618      406.765        0.566        0.111       94.423       17.028        0.033      333.657        3.118      854.037
12/09/2021  05:29:00      -17.677       96.230      -11.933       28.245       30.155       17.897      797.794      909.341      320.319        0.587        0.101       97.840       16.055        0.027      333.710        3.204      854.038
12/09/2021  05:30:00      -35.508      103.117      -14.175       26.686       22.701       17.941      712.117      515.351      321.877        0.682        0.077      109.059       10.515        0.009      333.723        3.224      854.053
12/09/2021  05:31:00        2.444       54.542       -7.385       41.437       20.150       18.593     1717.061      406.037      345.685        0.275        0.123       54.597       13.038        0.057      333.742        3.256      854.064
12/09/2021  05:32:00       25.812       18.387       -5.156       23.201       15.583       14.146      538.301      242.843      200.113        0.101        0.049       31.692        6.622        0.044      333.657        3.117      854.077
12/09/2021  05:33:00       76.242       41.117       -9.870       34.008       27.987       18.578     1156.568      783.286      345.159        0.494        0.114       86.623       15.294        0.031      333.587        3.002      854.089
12/09/2021  05:34:00       50.073       25.096       -7.024       44.928       21.068       26.730     2018.491      443.880      714.496        0.318        0.159       56.010       23.430        0.175      333.559        2.954      854.089
12/09/2021  05:35:00       84.211       83.594      -14.735       40.409       47.204       25.670     1632.923     2228.210      658.926        0.941        0.226      118.657       21.337        0.032      333.616        3.049      854.081
12/09/2021  05:36:00       69.777      136.197      -19.867       34.319       52.484       25.469     1177.773     2754.548      648.684        1.420        0.229      153.031       20.706        0.018      333.634        3.078      854.077
12/09/2021  05:37:00       68.021      100.192      -17.695       33.923       48.317       28.153     1150.777     2334.492      792.582        0.963        0.214      121.101       23.912        0.039      333.589        3.002      854.082
12/09/2021  05:38:00       85.505       68.712       -8.559       43.373       29.770       24.400     1881.190      886.266      595.353        0.773        0.168      109.693       17.453        0.025      333.543        2.927      854.089
12/09/2021  05:39:00       79.144       77.033      -17.749       36.519       34.309       25.921     1333.665     1177.102      671.920        0.785        0.159      110.444       15.665        0.020      333.572        2.975      854.094
12/09/2021  05:40:00       39.674       50.626        5.422       32.246       39.516       27.589     1039.829     1561.510      761.135        0.376        0.168       64.319       25.431        0.156      333.662        3.124      854.109
12/09/2021  05:41:00       57.988       76.526      -10.489       37.570       37.281       25.703     1411.501     1389.841      660.670        0.639        0.173       96.015       22.146        0.053      333.578        2.986      854.135
12/09/2021  05:42:00       83.570      112.343       -8.244       44.754       63.285       28.590     2002.930     4005.012      817.386        1.325        0.341      140.018       26.957        0.037      333.573        2.977      854.138
12/09/2021  05:43:00       87.342      176.047      -21.221       52.856       77.681       36.766     2793.738     6034.406     1351.736        2.462        0.509      196.523       35.885        0.033      333.567        2.965      854.139
12/09/2021  05:44:00       85.125      147.894      -25.963       49.628       38.084       34.811     2462.955     1450.406     1211.778        1.746        0.256      170.642       16.953        0.010      333.583        2.994      854.153
12/09/2021  05:45:00      -39.685       96.116       -7.805       53.469       55.900       32.393     2858.893     3124.766     1049.281        0.895        0.352      103.986       29.849        0.082      333.609        3.036      854.173
12/09/2021  05:46:00      -40.607      108.330      -20.649       42.326       41.312       27.874     1791.486     1706.686      776.944        0.904        0.214      115.690       16.120        0.019      333.538        2.919      854.180
12/09/2021  05:47:00      -27.285      144.691      -14.228       42.169       45.577       33.250     1778.192     2077.288     1105.530        1.342        0.248      147.241       17.841        0.015      333.494        2.845      854.173
12/09/2021  05:48:00      -23.102      133.783       -5.435       48.361       55.763       31.667     2338.831     3109.457     1002.826        1.245        0.323      135.763       22.074        0.026      333.549        2.935      854.187
12/09/2021  05:49:00       -0.503      125.873       -8.113       59.156       70.739       44.124     3499.423     5004.065     1946.904        1.318        0.523      125.874       31.021        0.061      333.542        2.925      854.207
12/09/2021  05:50:00      -48.512      110.338      -19.436       98.907       86.350       28.570     9782.546     7456.372      816.269        1.648        0.903      120.532       23.443        0.038      333.511        2.874      854.225
12/09/2021  05:51:00      -41.013      243.023      -21.429       59.651       70.217       31.574     3558.240     4930.376      996.933        3.534        0.474      246.459       23.700        0.009      333.406        2.696      854.238
12/09/2021  05:52:00      -52.484      123.317       -9.226       55.837       53.192       35.695     3117.793     2829.371     1274.168        1.263        0.361      134.021       22.988        0.029      333.494        2.845      854.263
12/09/2021  05:53:00      -55.317      166.482      -21.981       58.570       72.516       29.682     3430.462     5258.533      881.016        2.041        0.479      175.432       28.128        0.026      333.450        2.772      854.294
12/09/2021  05:54:00      -82.745      163.633      -17.487       61.952       53.193       34.076     3838.103     2829.493     1161.173        2.088        0.391      183.365       20.554        0.013      333.451        2.773      854.312
12/09/2021  05:55:00      -59.984      176.128      -16.716       61.322       91.912       43.515     3760.423     8447.750     1893.554        2.450        0.705      186.062       35.382        0.036      333.386        2.664      854.318
12/09/2021  05:56:00       -8.949      197.667       -6.293       65.747       69.437       43.343     4322.621     4821.537     1878.610        2.511        0.551      197.870       41.851        0.045      333.416        2.715      854.314
12/09/2021  05:57:00      -70.875      236.862      -19.870       72.647      128.417       41.375     5277.534    16490.907     1711.883        4.250        1.174      247.239       28.671        0.013      333.388        2.667      854.322
12/09/2021  05:58:00      -55.795      236.961      -24.254       74.407       84.517       40.569     5536.369     7143.088     1645.837        3.709        0.716      243.441       26.287        0.012      333.316        2.549      854.325
12/09/2021  05:59:00       24.000      230.957      -13.943       64.865       77.575       44.516     4207.513     6017.955     1981.639        3.316        0.610      232.201       36.709        0.025      333.316        2.549      854.330
12/09/2021  06:00:00      -39.729      170.986       -6.699       68.808       77.929       39.690     4734.514     6072.934     1575.315        2.162        0.619      175.541       29.547        0.028      333.355        2.613      854.345
12/09/2021  06:01:00        2.085      178.933       -4.991       90.111       68.628       39.893     8120.050     4709.759     1591.445        2.323        0.721      178.945       33.028        0.034      333.347        2.600      854.365
12/09/2021  06:02:00      -57.185      165.155      -16.177       54.582       54.092       28.830     2979.169     2925.993      831.185        1.877        0.337      174.775       18.013        0.011      333.294        2.514      854.402
12/09/2021  06:03:00      -59.373      138.533      -21.326       63.348       79.180       45.556     4012.943     6269.418     2075.331        1.776        0.618      150.720       28.808        0.037      333.231        2.409      854.425
12/09/2021  06:04:00      -39.395      123.381      -19.296       57.533       58.511       29.576     3310.084     3423.501      874.721        1.238        0.380      129.518       24.052        0.034      333.275        2.484      854.443
12/09/2021  06:05:00      -16.573       95.330       -2.613       53.558       48.477       29.887     2868.511     2350.065      893.261        0.774        0.306       96.760       21.550        0.050      333.278        2.488      854.438
12/09/2021  06:06:00       27.840      196.571       -4.733       78.104      100.601       54.580     6100.178    10120.475     2978.979        2.932        0.960      198.533       29.662        0.022      333.166        2.302      854.433
12/09/2021  06:07:00        3.499      165.313       -6.598       66.381       81.962       38.511     4406.458     6717.787     1483.122        1.999        0.630      165.351       19.058        0.013      333.162        2.295      854.453
12/09/2021  06:08:00       46.039      208.329       11.302       73.623      109.406       42.730     5420.396    11969.751     1825.885        3.243        0.961      213.356       49.219        0.053      333.035        2.085      854.460
12/09/2021  06:09:00      151.415      485.349       32.401      113.904      197.237       76.384    12974.019    38902.538     5834.509       15.862        2.886      508.419       44.467        0.008      332.542        1.268      854.459
12/09/2021  06:10:00       93.755      528.417       48.226      101.429      195.936       62.511    10287.852    38390.999     3907.657       17.145        2.629      536.670       39.509        0.005      332.504        1.207      854.467
12/09/2021  06:11:00       59.716      407.331       20.240      151.841      222.134       82.236    23055.840    49343.637     6762.720       12.451        3.958      411.685       46.229        0.013      332.618        1.394      854.470
12/09/2021  06:12:00       28.577      338.399       62.528      118.754      158.402       99.521    14102.446    25091.152     9904.469        8.416        2.455      339.604       88.355        0.068      332.501        1.205      854.471
12/09/2021  06:13:00        3.460      349.989       97.576      104.967      187.093       57.490    11018.046    35003.843     3305.124        9.067        2.466      350.006       87.859        0.063      331.804        0.047      854.475
12/09/2021  06:14:00       81.381      582.554       18.418       63.606      246.186       41.591     4045.784    60607.394     1729.805       20.635        3.319      588.211       83.345        0.020      331.288       -0.791      854.476
12/09/2021  06:15:00      161.034      381.824      126.514      170.636      126.690       56.994    29116.567    16050.386     3248.329       11.806        2.421      414.393       84.491        0.042      331.544       -0.382      854.475
12/09/2021  06:16:00        2.823      357.258       -6.619      154.247      126.032       72.900    23792.045    15883.940     5314.471        8.633        2.250      357.270       61.025        0.029      332.753        1.619      854.472
12/09/2021  06:17:00       38.278      297.114      -21.675      129.949      106.001       63.349    16886.782    11236.153     4013.083        6.117        1.607      299.570       46.145        0.024      332.925        1.900      854.465
12/09/2021  06:18:00       -3.820      322.046      -24.848       89.364       92.344       57.274     7985.879     8527.337     3280.326        6.207        0.990      322.069       40.047        0.015      332.860        1.793      854.454
12/09/2021  06:19:00       30.129      326.667      -19.504      109.646      131.154       61.765    12022.250    17201.298     3814.906        7.051        1.652      328.054       66.512        0.041      332.870        1.810      854.442
12/09/2021  06:20:00       10.802      346.740      -41.645       81.036      104.152       63.502     6566.894    10847.591     4032.449        7.176        1.072      346.908       60.838        0.031      332.819        1.726      854.441
12/09/2021  06:21:00      -11.323      237.393      -14.513      123.103      107.414       46.546    15154.400    11537.683     2166.523        4.277        1.443      237.663       46.200        0.038      332.880        1.828      854.431
12/09/2021  06:22:00       52.486      328.431      -36.004      115.302       95.596       64.030    13294.610     9138.505     4099.892        6.922        1.327      332.599       51.830        0.024      332.868        1.806      854.377
12/09/2021  06:23:00       12.566      336.640      -17.424       88.785      103.455       50.985     7882.817    10703.020     2599.429        6.748        1.059      336.874       47.922        0.020      332.862        1.798      854.384
12/09/2021  06:24:00      -17.373      366.580      -17.673      121.068      125.816       65.571    14657.562    15829.603     4299.599        8.488        1.739      366.991       62.321        0.029      332.884        1.832      854.419
12/09/2021  06:25:00      -26.215      187.576       17.723       93.980      140.489       76.912     8832.235    19737.209     5915.435        3.533        1.724      189.399       89.672        0.224      332.894        1.847      854.462
12/09/2021  06:26:00      -95.000       19.000      108.000        0.000        0.000        0.000        0.000        0.000        0.000        1.052        0.000       96.881        0.000        0.000      332.820        1.720      854.460
12/09/2021  06:27:00      -61.419      292.014       -0.095       77.683      195.682       81.281     6034.663    38291.421     6606.603        6.998        2.547      298.403      122.474        0.168      332.866        1.800      854.502
12/09/2021  06:28:00      -16.566      364.065       40.220       19.743       55.633       48.973      389.767     3095.050     2398.311        7.016        0.294      364.442       14.235        0.002      332.851        1.788      854.494
12/09/2021  06:29:00      -21.000      367.000       66.000        0.000        0.000        0.000        0.000        0.000        0.000        6.974        0.000      367.600        0.000        0.000      332.880        1.840      854.490
12/09/2021  06:30:00      -21.000      367.000       66.000        0.000        0.000        0.000        0.000        0.000        0.000        6.974        0.000      367.600        0.000        0.000      332.880        1.840      854.490
12/09/2021  06:31:00      -21.000      367.000       66.000        0.000        0.000        0.000        0.000        0.000        0.000        6.974        0.000      367.600        0.000        0.000      332.880        1.840      854.490
12/09/2021  06:32:00      -21.000      367.000       66.000        0.000        0.000        0.000        0.000        0.000        0.000        6.974        0.000      367.600        0.000        0.000      332.880        1.840      854.490
12/09/2021  06:33:00      -21.000      367.000       66.000        0.000        0.000        0.000        0.000        0.000        0.000        6.974        0.000      367.600        0.000        0.000      332.880        1.840      854.490
12/09/2021  06:34:00      -21.000      367.000       66.000        0.000        0.000        0.000        0.000        0.000        0.000        6.974        0.000      367.600        0.000        0.000      332.880        1.840      854.490
12/09/2021  06:35:00      -21.000      367.000       66.000        0.000        0.000        0.000        0.000        0.000        0.000        6.974        0.000      367.600        0.000        0.000      332.880        1.840      854.490
12/09/2021  06:36:00      -21.000      367.000       66.000        0.000        0.000        0.000        0.000        0.000        0.000        6.974        0.000      367.600        0.000        0.000      332.880        1.840      854.490
12/09/2021  06:37:00      -21.000      367.000       66.000        0.000        0.000        0.000        0.000        0.000        0.000        6.974        0.000      367.600        0.000        0.000      332.880        1.840      854.490
12/09/2021  06:38:00      -21.000      367.000       66.000        0.000        0.000        0.000        0.000        0.000        0.000        6.974        0.000      367.600        0.000        0.000      332.880        1.840      854.490
12/09/2021  06:39:00      -21.000      367.000       66.000        0.000        0.000        0.000        0.000        0.000        0.000        6.974        0.000      367.600        0.000        0.000      332.880        1.840      854.490
12/09/2021  06:40:00      -21.000      367.000       66.000        0.000        0.000        0.000        0.000        0.000        0.000        6.974        0.000      367.600        0.000        0.000      332.880        1.840      854.490
12/09/2021  06:41:00      -21.000      367.000       66.000        0.000        0.000        0.000        0.000        0.000        0.000        6.974        0.000      367.600        0.000        0.000      332.880        1.840      854.490
12/09/2021  06:42:00      -21.000      367.000       66.000        0.000        0.000        0.000        0.000        0.000        0.000        6.974        0.000      367.600        0.000        0.000      332.880        1.840      854.490
12/09/2021  06:43:00      -21.000      367.000       66.000        0.000        0.000        0.000        0.000        0.000        0.000        6.974        0.000      367.600        0.000        0.000      332.880        1.840      854.490
12/09/2021  06:44:00      -21.000      367.000       66.000        0.000        0.000        0.000        0.000        0.000        0.000        6.974        0.000      367.600        0.000        0.000      332.880        1.840      854.490
12/09/2021  06:45:00      -21.000      367.000       66.000        0.000        0.000        0.000        0.000        0.000        0.000        6.974        0.000      367.600        0.000        0.000      332.880        1.840      854.490
12/09/2021  06:46:00      -21.000      367.000       66.000        0.000        0.000        0.000        0.000        0.000        0.000        6.974        0.000      367.600        0.000        0.000      332.880        1.840      854.490
12/09/2021  06:47:00      -21.000      367.000       66.000        0.000        0.000        0.000        0.000        0.000        0.000        6.974        0.000      367.600        0.000        0.000      332.880        1.840      854.490
12/09/2021  06:48:00      -21.000      367.000       66.000        0.000        0.000        0.000        0.000        0.000        0.000        6.974        0.000      367.600        0.000        0.000      332.880        1.840      854.490
12/09/2021  06:49:00      -21.000      367.000       66.000        0.000        0.000        0.000        0.000        0.000        0.000        6.974        0.000      367.600        0.000        0.000      332.880        1.840      854.490
12/09/2021  06:50:00      -21.000      367.000       66.000        0.000        0.000        0.000        0.000        0.000        0.000        6.974        0.000      367.600        0.000        0.000      332.880        1.840      854.490
12/09/2021  06:51:00      -21.000      367.000       66.000        0.000        0.000        0.000        0.000        0.000        0.000        6.974        0.000      367.600        0.000        0.000      332.880        1.840      854.490
12/09/2021  06:52:00      -21.000      367.000       66.000        0.000        0.000        0.000        0.000        0.000        0.000        6.974        0.000      367.600        0.000        0.000      332.880        1.840      854.490
12/09/2021  06:53:00      -21.000      367.000       66.000        0.000        0.000        0.000        0.000        0.000        0.000        6.974        0.000      367.600        0.000        0.000      332.880        1.840      854.490
12/09/2021  06:54:00      -21.000      367.000       66.000        0.000        0.000        0.000        0.000        0.000        0.000        6.974        0.000      367.600        0.000        0.000      332.880        1.840      854.490
12/09/2021  06:55:00      -21.000      367.000       66.000        0.000        0.000        0.000        0.000        0.000        0.000        6.974        0.000      367.600        0.000        0.000      332.880        1.840      854.490
12/09/2021  06:56:00      -21.000      367.000       66.000        0.000        0.000        0.000        0.000        0.000        0.000        6.974        0.000      367.600        0.000        0.000      332.880        1.840      854.490
12/09/2021  06:57:00      -21.000      367.000       66.000        0.000        0.000        0.000        0.000        0.000        0.000        6.974        0.000      367.600        0.000        0.000      332.880        1.840      854.490
12/09/2021  06:58:00      -21.000      367.000       66.000        0.000        0.000        0.000        0.000        0.000        0.000        6.974        0.000      367.600        0.000        0.000      332.880        1.840      854.490
12/09/2021  06:59:00      -21.000      367.000       66.000        0.000        0.000        0.000        0.000        0.000        0.000        6.974        0.000      367.600        0.000        0.000      332.880        1.840      854.490
12/09/2021  07:00:00      -21.000      367.000       66.000        0.000        0.000        0.000        0.000        0.000        0.000        6.974        0.000      367.600        0.000        0.000      332.880        1.840      854.490
12/09/2021  07:01:00      -21.000      367.000       66.000        0.000        0.000        0.000        0.000        0.000        0.000        6.974        0.000      367.600        0.000        0.000      332.880        1.840      854.490
12/09/2021  07:02:00      -21.000      367.000       66.000        0.000        0.000        0.000        0.000        0.000        0.000        6.974        0.000      367.600        0.000        0.000      332.880        1.840      854.490
12/09/2021  07:03:00      -21.000      367.000       66.000        0.000        0.000        0.000        0.000        0.000        0.000        6.974        0.000      367.600        0.000        0.000      332.880        1.840      854.490
12/09/2021  07:04:00      -21.000      367.000       66.000        0.000        0.000        0.000        0.000        0.000        0.000        6.974        0.000      367.600        0.000        0.000      332.880        1.840      854.490
12/09/2021  07:05:00      -21.000      367.000       66.000        0.000        0.000        0.000        0.000        0.000        0.000        6.974        0.000      367.600        0.000        0.000      332.880        1.840      854.490
12/09/2021  07:06:00      -21.000      367.000       66.000        0.000        0.000        0.000        0.000        0.000        0.000        6.974        0.000      367.600        0.000        0.000      332.880        1.840      854.490
12/09/2021  07:07:00      -21.000      367.000       66.000        0.000        0.000        0.000        0.000        0.000        0.000        6.974        0.000      367.600        0.000        0.000      332.880        1.840      854.490
12/09/2021  07:08:00      -21.000      367.000       66.000        0.000        0.000        0.000        0.000        0.000        0.000        6.974        0.000      367.600        0.000        0.000      332.880        1.840      854.490
12/09/2021  07:09:00      -21.000      367.000       66.000        0.000        0.000        0.000        0.000        0.000        0.000        6.974        0.000      367.600        0.000        0.000      332.880        1.840      854.490
12/09/2021  07:10:00      -21.000      367.000       66.000        0.000        0.000        0.000        0.000        0.000        0.000        6.974        0.000      367.600        0.000        0.000      332.880        1.840      854.490
12/09/2021  07:11:00      -21.000      367.000       66.000        0.000        0.000        0.000        0.000        0.000        0.000        6.974        0.000      367.600        0.000        0.000      332.880        1.840      854.490
12/09/2021  07:12:00      -21.000      367.000       66.000        0.000        0.000        0.000        0.000        0.000        0.000        6.974        0.000      367.600        0.000        0.000      332.880        1.840      854.490
12/09/2021  07:13:00      -21.000      367.000       66.000        0.000        0.000        0.000        0.000        0.000        0.000        6.974        0.000      367.600        0.000        0.000      332.880        1.840      854.490
12/09/2021  07:14:00      -21.000      367.000       66.000        0.000        0.000        0.000        0.000        0.000        0.000        6.974        0.000      367.600        0.000        0.000      332.880        1.840      854.490
12/09/2021  07:15:00      -21.000      367.000       66.000        0.000        0.000        0.000        0.000        0.000        0.000        6.974        0.000      367.600        0.000        0.000      332.880        1.840      854.490
12/09/2021  07:16:00      -21.000      367.000       66.000        0.000        0.000        0.000        0.000        0.000        0.000        6.974        0.000      367.600        0.000        0.000      332.880        1.840      854.490
12/09/2021  07:17:00      -21.000      367.000       66.000        0.000        0.000        0.000        0.000        0.000        0.000        6.974        0.000      367.600        0.000        0.000      332.880        1.840      854.490
12/09/2021  07:18:00      -21.000      367.000       66.000        0.000        0.000        0.000        0.000        0.000        0.000        6.974        0.000      367.600        0.000        0.000      332.880        1.840      854.490
12/09/2021  07:19:00      -21.000      367.000       66.000        0.000        0.000        0.000        0.000        0.000        0.000        6.974        0.000      367.600        0.000        0.000      332.880        1.840      854.490
12/09/2021  07:20:00      -21.000      367.000       66.000        0.000        0.000        0.000        0.000        0.000        0.000        6.974        0.000      367.600        0.000        0.000      332.880        1.840      854.490
12/09/2021  07:21:00      -21.000      367.000       66.000        0.000        0.000        0.000        0.000        0.000        0.000        6.974        0.000      367.600        0.000        0.000      332.880        1.840      854.490
12/09/2021  07:22:00      -21.000      367.000       66.000        0.000        0.000        0.000        0.000        0.000        0.000        6.974        0.000      367.600        0.000        0.000      332.880        1.840      854.490
12/09/2021  07:23:00      -21.000      367.000       66.000        0.000        0.000        0.000        0.000        0.000        0.000        6.974        0.000      367.600        0.000        0.000      332.880        1.840      854.490
12/09/2021  07:24:00      -21.000      367.000       66.000        0.000        0.000        0.000        0.000        0.000        0.000        6.974        0.000      367.600        0.000        0.000      332.880        1.840      854.490
12/09/2021  07:25:00      -21.000      367.000       66.000        0.000        0.000        0.000        0.000        0.000        0.000        6.974        0.000      367.600        0.000        0.000      332.880        1.840      854.490
12/09/2021  07:26:00      -21.000      367.000       66.000        0.000        0.000        0.000        0.000        0.000        0.000        6.974        0.000      367.600        0.000        0.000      332.880        1.840      854.490
12/09/2021  07:27:00      -21.000      367.000       66.000        0.000        0.000        0.000        0.000        0.000        0.000        6.974        0.000      367.600        0.000        0.000      332.880        1.840      854.490
12/09/2021  07:28:00      -21.000      367.000       66.000        0.000        0.000        0.000        0.000        0.000        0.000        6.974        0.000      367.600        0.000        0.000      332.880        1.840      854.490
12/09/2021  07:29:00      -21.000      367.000       66.000        0.000        0.000        0.000        0.000        0.000        0.000        6.974        0.000      367.600        0.000        0.000      332.880        1.840      854.490
12/09/2021  07:30:00      -21.000      367.000       66.000        0.000        0.000        0.000        0.000        0.000        0.000        6.974        0.000      367.600        0.000        0.000      332.880        1.840      854.490
12/09/2021  07:31:00      -21.000      367.000       66.000        0.000        0.000        0.000        0.000        0.000        0.000        6.974        0.000      367.600        0.000        0.000      332.880        1.840      854.490
12/09/2021  07:32:00      -21.000      367.000       66.000        0.000        0.000        0.000        0.000        0.000        0.000        6.974        0.000      367.600        0.000        0.000      332.880        1.840      854.490
12/09/2021  07:33:00      -21.000      367.000       66.000        0.000        0.000        0.000        0.000        0.000        0.000        6.974        0.000      367.600        0.000        0.000      332.880        1.840      854.490
12/09/2021  07:34:00      -21.000      367.000       66.000        0.000        0.000        0.000        0.000        0.000        0.000        6.974        0.000      367.600        0.000        0.000      332.880        1.840      854.490
12/09/2021  07:35:00      -21.000      367.000       66.000        0.000        0.000        0.000        0.000        0.000        0.000        6.974        0.000      367.600        0.000        0.000      332.880        1.840      854.490
12/09/2021  07:36:00      -21.000      367.000       66.000        0.000        0.000        0.000        0.000        0.000        0.000        6.974        0.000      367.600        0.000        0.000      332.880        1.840      854.490
12/09/2021  07:37:00      -21.000      367.000       66.000        0.000        0.000        0.000        0.000        0.000        0.000        6.974        0.000      367.600        0.000        0.000      332.880        1.840      854.490
12/09/2021  07:38:00      -21.000      367.000       66.000        0.000        0.000        0.000        0.000        0.000        0.000        6.974        0.000      367.600        0.000        0.000      332.880        1.840      854.490
12/09/2021  07:39:00      -21.000      367.000       66.000        0.000        0.000        0.000        0.000        0.000        0.000        6.974        0.000      367.600        0.000        0.000      332.880        1.840      854.490
12/09/2021  07:40:00      -21.000      367.000       66.000        0.000        0.000        0.000        0.000        0.000        0.000        6.974        0.000      367.600        0.000        0.000      332.880        1.840      854.490
12/09/2021  07:41:00      -21.000      367.000       66.000        0.000        0.000        0.000        0.000        0.000        0.000        6.974        0.000      367.600        0.000        0.000      332.880        1.840      854.490
12/09/2021  07:42:00      -21.000      367.000       66.000        0.000        0.000        0.000        0.000        0.000        0.000        6.974        0.000      367.600        0.000        0.000      332.880        1.840      854.490
12/09/2021  07:43:00      -21.000      367.000       66.000        0.000        0.000        0.000        0.000        0.000        0.000        6.974        0.000      367.600        0.000        0.000      332.880        1.840      854.490
12/09/2021  07:44:00      -21.000      367.000       66.000        0.000        0.000        0.000        0.000        0.000        0.000        6.974        0.000      367.600        0.000        0.000      332.880        1.840      854.490
12/09/2021  07:45:00      -21.000      367.000       66.000        0.000        0.000        0.000        0.000        0.000        0.000        6.974        0.000      367.600        0.000        0.000      332.880        1.840      854.490
12/09/2021  07:46:00      -21.000      367.000       66.000        0.000        0.000        0.000        0.000        0.000        0.000        6.974        0.000      367.600        0.000        0.000      332.880        1.840      854.490
12/09/2021  07:47:00      -21.000      367.000       66.000        0.000        0.000        0.000        0.000        0.000        0.000        6.974        0.000      367.600        0.000        0.000      332.880        1.840      854.490
12/09/2021  07:48:00      -21.000      367.000       66.000        0.000        0.000        0.000        0.000        0.000        0.000        6.974        0.000      367.600        0.000        0.000      332.880        1.840      854.490
12/09/2021  07:49:00      -21.000      367.000       66.000        0.000        0.000        0.000        0.000        0.000        0.000        6.974        0.000      367.600        0.000        0.000      332.880        1.840      854.490
12/09/2021  07:50:00      -21.000      367.000       66.000        0.000        0.000        0.000        0.000        0.000        0.000        6.974        0.000      367.600        0.000        0.000      332.880        1.840      854.490
12/09/2021  07:51:00      -21.000      367.000       66.000        0.000        0.000        0.000        0.000        0.000        0.000        6.974        0.000      367.600        0.000        0.000      332.880        1.840      854.490
12/09/2021  07:52:00      -21.000      367.000       66.000        0.000        0.000        0.000        0.000        0.000        0.000        6.974        0.000      367.600        0.000        0.000      332.880        1.840      854.490
12/09/2021  07:53:00      -21.000      367.000       66.000        0.000        0.000        0.000        0.000        0.000        0.000        6.974        0.000      367.600        0.000        0.000      332.880        1.840      854.490
12/09/2021  07:54:00      -21.000      367.000       66.000        0.000        0.000        0.000        0.000        0.000        0.000        6.974        0.000      367.600        0.000        0.000      332.880        1.840      854.490
12/09/2021  07:55:00      -21.000      367.000       66.000        0.000        0.000        0.000        0.000        0.000        0.000        6.974        0.000      367.600        0.000        0.000      332.880        1.840      854.490
12/09/2021  07:56:00      -21.000      367.000       66.000        0.000        0.000        0.000        0.000        0.000        0.000        6.974        0.000      367.600        0.000        0.000      332.880        1.840      854.490
12/09/2021  07:57:00      -21.000      367.000       66.000        0.000        0.000        0.000        0.000        0.000        0.000        6.974        0.000      367.600        0.000        0.000      332.880        1.840      854.490
12/09/2021  07:58:00      -21.000      367.000       66.000        0.000        0.000        0.000        0.000        0.000        0.000        6.974        0.000      367.600        0.000        0.000      332.880        1.840      854.490
12/09/2021  07:59:00      -21.000      367.000       66.000        0.000        0.000        0.000        0.000        0.000        0.000        6.974        0.000      367.600        0.000        0.000      332.880        1.840      854.490
12/09/2021  08:00:00      -21.000      367.000       66.000        0.000        0.000        0.000        0.000        0.000        0.000        6.974        0.000      367.600        0.000        0.000      332.880        1.840      854.490
12/09/2021  08:01:00      -21.000      367.000       66.000        0.000        0.000        0.000        0.000        0.000        0.000        6.974        0.000      367.600        0.000        0.000      332.880        1.840      854.490
12/09/2021  08:02:00      -21.000      367.000       66.000        0.000        0.000        0.000        0.000        0.000        0.000        6.974        0.000      367.600        0.000        0.000      332.880        1.840      854.490
12/09/2021  08:03:00      -21.000      367.000       66.000        0.000        0.000        0.000        0.000        0.000        0.000        6.974        0.000      367.600        0.000        0.000      332.880        1.840      854.490
12/09/2021  08:04:00      -21.000      367.000       66.000        0.000        0.000        0.000        0.000        0.000        0.000        6.974        0.000      367.600        0.000        0.000      332.880        1.840      854.490
12/09/2021  08:05:00      -21.000      367.000       66.000        0.000        0.000        0.000        0.000        0.000        0.000        6.974        0.000      367.600        0.000        0.000      332.880        1.840      854.490
12/09/2021  08:06:00      -21.000      367.000       66.000        0.000        0.000        0.000        0.000        0.000        0.000        6.974        0.000      367.600        0.000        0.000      332.880        1.840      854.490
12/09/2021  08:07:00      -21.000      367.000       66.000        0.000        0.000        0.000        0.000        0.000        0.000        6.974        0.000      367.600        0.000        0.000      332.880        1.840      854.490
12/09/2021  08:08:00      -21.000      367.000       66.000        0.000        0.000        0.000        0.000        0.000        0.000        6.974        0.000      367.600        0.000        0.000      332.880        1.840      854.490
12/09/2021  08:09:00      -21.000      367.000       66.000        0.000        0.000        0.000        0.000        0.000        0.000        6.974        0.000      367.600        0.000        0.000      332.880        1.840      854.490
12/09/2021  08:10:00      -21.000      367.000       66.000        0.000        0.000        0.000        0.000        0.000        0.000        6.974        0.000      367.600        0.000        0.000      332.880        1.840      854.490
12/09/2021  08:11:00      -21.000      367.000       66.000        0.000        0.000        0.000        0.000        0.000        0.000        6.974        0.000      367.600        0.000        0.000      332.880        1.840      854.490
12/09/2021  08:12:00      -21.000      367.000       66.000        0.000        0.000        0.000        0.000        0.000        0.000        6.974        0.000      367.600        0.000        0.000      332.880        1.840      854.490
12/09/2021  08:13:00      -21.000      367.000       66.000        0.000        0.000        0.000        0.000        0.000        0.000        6.974        0.000      367.600        0.000        0.000      332.880        1.840      854.490
12/09/2021  08:14:00      -21.000      367.000       66.000        0.000        0.000        0.000        0.000        0.000        0.000        6.974        0.000      367.600        0.000        0.000      332.880        1.840      854.490
12/09/2021  08:15:00      -21.000      367.000       66.000        0.000        0.000        0.000        0.000        0.000        0.000        6.974        0.000      367.600        0.000        0.000      332.880        1.840      854.490
12/09/2021  08:16:00      -21.000      367.000       66.000        0.000        0.000        0.000        0.000        0.000        0.000        6.974        0.000      367.600        0.000        0.000      332.880        1.840      854.490
12/09/2021  08:17:00      -21.000      367.000       66.000        0.000        0.000        0.000        0.000        0.000        0.000        6.974        0.000      367.600        0.000        0.000      332.880        1.840      854.490
12/09/2021  08:18:00      -21.000      367.000       66.000        0.000        0.000        0.000        0.000        0.000        0.000        6.974        0.000      367.600        0.000        0.000      332.880        1.840      854.490
12/09/2021  08:19:00      -21.000      367.000       66.000        0.000        0.000        0.000        0.000        0.000        0.000        6.974        0.000      367.600        0.000        0.000      332.880        1.840      854.490
12/09/2021  08:20:00      -21.000      367.000       66.000        0.000        0.000        0.000        0.000        0.000        0.000        6.974        0.000      367.600        0.000        0.000      332.880        1.840      854.490
12/09/2021  08:21:00      -21.000      367.000       66.000        0.000        0.000        0.000        0.000        0.000        0.000        6.974        0.000      367.600        0.000        0.000      332.880        1.840      854.490
12/09/2021  08:22:00      -21.000      367.000       66.000        0.000        0.000        0.000        0.000        0.000        0.000        6.974        0.000      367.600        0.000        0.000      332.880        1.840      854.490
12/09/2021  08:23:00      -21.000      367.000       66.000        0.000        0.000        0.000        0.000        0.000        0.000        6.974        0.000      367.600        0.000        0.000      332.880        1.840      854.490
12/09/2021  08:24:00      -21.000      367.000       66.000        0.000        0.000        0.000        0.000        0.000        0.000        6.974        0.000      367.600        0.000        0.000      332.880        1.840      854.490
12/09/2021  08:25:00      -21.000      367.000       66.000        0.000        0.000        0.000        0.000        0.000        0.000        6.974        0.000      367.600        0.000        0.000      332.880        1.840      854.490
12/09/2021  08:26:00      -21.000      367.000       66.000        0.000        0.000        0.000        0.000        0.000        0.000        6.974        0.000      367.600        0.000        0.000      332.880        1.840      854.490
12/09/2021  08:27:00      -21.000      367.000       66.000        0.000        0.000        0.000        0.000        0.000        0.000        6.974        0.000      367.600        0.000        0.000      332.880        1.840      854.490
12/09/2021  08:28:00      -21.000      367.000       66.000        0.000        0.000        0.000        0.000        0.000        0.000        6.974        0.000      367.600        0.000        0.000      332.880        1.840      854.490
12/09/2021  08:29:00      -21.000      367.000       66.000        0.000        0.000        0.000        0.000        0.000        0.000        6.974        0.000      367.600        0.000        0.000      332.880        1.840      854.490
12/09/2021  08:30:00      -21.000      367.000       66.000        0.000        0.000        0.000        0.000        0.000        0.000        6.974        0.000      367.600        0.000        0.000      332.880        1.840      854.490
12/09/2021  08:31:00      -21.000      367.000       66.000        0.000        0.000        0.000        0.000        0.000        0.000        6.974        0.000      367.600        0.000        0.000      332.880        1.840      854.490
12/09/2021  08:32:00      -21.000      367.000       66.000        0.000        0.000        0.000        0.000        0.000        0.000        6.974        0.000      367.600        0.000        0.000      332.880        1.840      854.490
12/09/2021  08:33:00      -21.000      367.000       66.000        0.000        0.000        0.000        0.000        0.000        0.000        6.974        0.000      367.600        0.000        0.000      332.880        1.840      854.490
12/09/2021  08:34:00      -21.000      367.000       66.000        0.000        0.000        0.000        0.000        0.000        0.000        6.974        0.000      367.600        0.000        0.000      332.880        1.840      854.490
12/09/2021  08:35:00      -21.000      367.000       66.000        0.000        0.000        0.000        0.000        0.000        0.000        6.974        0.000      367.600        0.000        0.000      332.880        1.840      854.490
12/09/2021  08:36:00      -21.000      367.000       66.000        0.000        0.000        0.000        0.000        0.000        0.000        6.974        0.000      367.600        0.000        0.000      332.880        1.840      854.490
12/09/2021  08:37:00      -21.000      367.000       66.000        0.000        0.000        0.000        0.000        0.000        0.000        6.974        0.000      367.600        0.000        0.000      332.880        1.840      854.490
12/09/2021  08:38:00      -21.000      367.000       66.000        0.000        0.000        0.000        0.000        0.000        0.000        6.974        0.000      367.600        0.000        0.000      332.880        1.840      854.490
12/09/2021  08:39:00      -21.000      367.000       66.000        0.000        0.000        0.000        0.000        0.000        0.000        6.974        0.000      367.600        0.000        0.000      332.880        1.840      854.490
12/09/2021  08:40:00      -19.964      357.934       63.295        6.020       52.675       15.719       36.240     2774.605      247.079        6.779        0.153      358.490       28.863        0.006      332.848        1.787      854.540
12/09/2021  08:41:00      -28.488        6.235      -16.421       67.831       47.666       39.313     4601.094     2272.046     1545.527        0.477        0.421       29.163       34.536        1.402      331.572       -0.326      856.232
12/09/2021  08:42:00     -170.959       41.804      -24.050       99.144       65.212       41.505     9829.557     4252.576     1722.696        2.368        0.790      175.996       34.945        0.039      331.515       -0.422      856.248
12/09/2021  08:43:00       12.749      -24.146       18.753       74.036      121.267       50.556     5481.398    14705.606     2555.950        1.192        1.137       27.305       69.519        6.482      332.239        0.773      856.257
12/09/2021  08:44:00     -108.893       53.057      -10.446       97.555       67.151       35.443     9517.073     4509.192     1256.183        1.503        0.764      121.131       31.865        0.069      332.776        1.658      856.270
12/09/2021  08:45:00      -85.963        9.251      -12.530       80.138       41.764       27.043     6422.047     1744.205      731.307        0.826        0.445       86.459       21.523        0.062      332.831        1.750      856.281
12/09/2021  08:46:00      -23.192       12.881      -20.071       46.205       37.139       23.295     2134.856     1379.274      542.652        0.258        0.203       26.529       20.998        0.627      332.803        1.702      856.293
12/09/2021  08:47:00      -11.659        0.841      -15.777       53.796       55.972       26.058     2893.958     3132.913      679.033        0.354        0.335       11.689       20.891        3.194      332.823        1.738      856.313
12/09/2021  08:48:00     -111.875       36.656      -14.875       58.820       35.621       28.030     3459.825     1268.851      785.657        0.980        0.276      117.727       22.183        0.036      332.739        1.598      856.330
12/09/2021  08:49:00     -127.723       92.949      -25.626       48.213       58.404       23.614     2324.483     3410.986      557.633        1.595        0.315      157.964       18.689        0.014      332.738        1.595      856.353
12/09/2021  08:50:00      -84.591       30.215       -7.827       76.364       43.930       37.925     5831.395     1929.869     1438.295        0.866        0.460       89.825       24.678        0.075      332.786        1.674      856.364
12/09/2021  08:51:00      -91.054      101.147      -16.839       41.775       55.326       39.240     1745.166     3061.007     1539.760        1.257        0.317      136.094       25.448        0.035      332.790        1.681      856.395
12/09/2021  08:52:00      -32.440      133.476      -31.738       99.490       73.270       33.582     9898.208     5368.477     1127.771        1.813        0.820      137.361       22.115        0.026      332.899        1.862      856.409
12/09/2021  08:53:00      -72.986       47.349      -13.034       48.180       51.180       26.406     2321.340     2619.398      697.275        0.669        0.282       86.999       25.747        0.088      332.800        1.699      856.432
12/09/2021  08:54:00       -0.056       16.939       -5.003       48.954       33.385       25.217     2396.503     1114.563      635.880        0.223        0.207       16.939       18.199        1.154      332.801        1.700      856.450
12/09/2021  08:55:00       -7.056       16.955      -16.327       46.804       39.321       21.833     2190.594     1546.145      476.691        0.241        0.211       18.364       14.812        0.651      332.838        1.762      856.466
12/09/2021  08:56:00      -68.039       70.147       -7.842       37.780       43.574       21.901     1427.356     1898.673      479.663        0.671        0.190       97.723        9.630        0.010      332.767        1.645      856.470
12/09/2021  08:57:00      -53.228        9.413      -16.328       43.023       42.833       24.781     1851.017     1834.657      614.112        0.374        0.215       54.054       13.994        0.067      332.876        1.825      856.475
12/09/2021  08:58:00       37.070      -10.094        0.322       23.255       44.152       27.589      540.804     1949.433      761.132        0.236        0.163       38.420       11.775        0.094      332.889        1.846      856.485
12/09/2021  08:59:00      -16.685       31.361       -0.524       56.700       51.432       38.351     3214.905     2645.238     1470.782        0.430        0.367       35.523       33.833        0.907      332.882        1.835      856.505
12/09/2021  09:00:00      -43.564       12.438       -6.015       57.453       43.449       42.930     3300.812     1887.801     1843.017        0.456        0.352       45.305       35.741        0.622      332.842        1.768      856.519
12/09/2021  09:01:00     -102.032       23.090      -15.188       78.361       50.666       39.403     6140.463     2567.076     1552.582        1.072        0.513      104.612       28.233        0.073      332.762        1.636      856.536
12/09/2021  09:02:00     -116.048       37.136      -12.690       66.333       63.599       36.876     4400.122     4044.778     1359.829        1.240        0.490      121.845       31.802        0.068      332.731        1.584      856.552
12/09/2021  09:03:00     -128.844       36.189      -13.377       61.407       38.881       31.185     3770.759     1511.732      972.527        1.217        0.313      133.830       23.157        0.030      332.725        1.573      856.572
12/09/2021  09:04:00      -90.402        7.116        2.604       89.312       60.250       39.631     7976.655     3630.074     1570.592        1.070        0.659       90.682       38.657        0.182      332.697        1.527      856.575
12/09/2021  09:05:00     -198.128       47.871      -14.943       88.427       52.949       38.014     7819.398     2803.624     1445.057        2.692        0.603      203.829       40.752        0.040      332.636        1.425      856.582
12/09/2021  09:06:00     -155.533       39.514      -13.711       60.756       48.066       27.868     3691.231     2310.324      776.632        1.636        0.339      160.473       22.648        0.020      332.618        1.398      856.598
12/09/2021  09:07:00     -202.662       75.701      -16.744       64.922       43.514       30.011     4214.874     1893.471      900.686        2.704        0.350      216.339       21.270        0.010      332.587        1.343      856.613
12/09/2021  09:08:00      -95.830       25.011       -5.672       44.432       35.900       24.396     1974.171     1288.839      595.161        0.685        0.193       99.041       19.805        0.040      332.655        1.459      856.635
12/09/2021  09:09:00      -70.463        5.731        3.001       46.731       36.305       24.414     2183.827     1318.051      596.058        0.455        0.205       70.695       20.090        0.081      332.723        1.572      856.657
12/09/2021  09:10:00     -129.225       34.647      -21.384       72.777       60.110       37.544     5296.468     3613.183     1409.553        1.434        0.516      133.790       28.026        0.044      332.654        1.456      856.677
12/09/2021  09:11:00     -124.080       74.654        3.561       48.944       49.252       29.582     2395.528     2425.788      875.117        1.334        0.285      144.807       27.779        0.037      332.591        1.353      856.696
12/09/2021  09:12:00      -81.253       57.172       -7.137       41.644       34.815       29.298     1734.238     1212.059      858.345        0.686        0.190       99.351       22.516        0.051      332.625        1.411      856.711
12/09/2021  09:13:00      -74.940       -0.208       -3.927      108.346       43.651       30.297    11738.836     1905.406      917.881        1.009        0.728       74.940       33.710        0.202      332.669        1.484      856.739
12/09/2021  09:14:00      -15.641       29.283        9.938       45.203       62.222       28.656     2043.321     3871.633      821.150        0.397        0.337       33.198       18.902        0.324      332.670        1.484      856.765
12/09/2021  09:15:00      -38.134       22.477        0.505       66.245       41.837       28.225     4388.353     1750.328      796.654        0.445        0.347       44.266       28.670        0.420      332.670        1.484      856.777
12/09/2021  09:16:00     -127.582       57.669        9.417       71.219       75.532       37.709     5072.207     5705.060     1421.957        1.594        0.610      140.010       44.791        0.102      332.507        1.215      856.794
12/09/2021  09:17:00     -136.249       54.536        1.853       83.335       61.878       36.252     6944.709     3828.946     1314.236        1.681        0.604      146.759       36.897        0.063      332.616        1.391      856.812
12/09/2021  09:18:00     -127.154       61.307        2.379       69.955       48.276       36.418     4893.726     2330.591     1326.293        1.424        0.428      141.162       36.810        0.068      332.553        1.291      856.831
12/09/2021  09:19:00      -51.335       27.701       -7.519       68.543       37.561       31.559     4698.128     1410.835      995.947        0.528        0.355       58.333       30.214        0.268      332.644        1.441      856.854
12/09/2021  09:20:00     -102.765       50.649       -0.834       67.674       52.432       32.460     4579.756     2749.152     1053.682        1.075        0.419      114.569       12.337        0.012      332.650        1.450      856.889
12/09/2021  09:21:00     -118.276       71.390      -15.770       61.585       46.761       31.884     3792.685     2186.580     1016.610        1.316        0.350      138.151       26.791        0.038      332.596        1.361      856.921
12/09/2021  09:22:00     -173.618       84.179       -0.203       73.732       66.544       38.755     5436.368     4428.069     1501.981        2.430        0.568      192.949       37.995        0.039      332.493        1.188      856.944
12/09/2021  09:23:00      -98.060       24.793       10.726       95.247       63.995       37.534     9071.959     4095.361     1408.831        1.246        0.729      101.145       40.658        0.162      332.603        1.372      856.952
12/09/2021  09:24:00     -164.799       -0.707       -5.719       66.718       48.912       36.057     4451.282     2392.336     1300.092        1.767        0.407      164.800       25.282        0.024      332.602        1.370      856.946
12/09/2021  09:25:00     -188.264        8.540       -5.239       77.560       47.315       44.110     6015.479     2238.751     1945.676        2.287        0.510      188.458       40.183        0.045      332.548        1.281      856.952
12/09/2021  09:26:00     -138.276        1.580      -12.818      119.210       59.555       42.279    14211.023     3546.773     1787.519        1.941        0.977      138.285       55.119        0.159      332.575        1.325      856.969
12/09/2021  09:27:00       29.180        5.606       -0.849       45.059       36.282       41.688     2030.286     1316.374     1737.895        0.298        0.254       29.713       20.263        0.465      332.685        1.508      856.995
12/09/2021  09:28:00      -72.675       18.356       -1.055       96.972       44.282       31.991     9403.642     1960.887     1023.454        0.900        0.619       74.957       25.307        0.114      332.719        1.563      857.006
12/09/2021  09:29:00      -84.434       -3.119       -1.766       99.604       43.586       40.455     9921.048     1899.764     1636.621        1.030        0.673       84.492       36.217        0.184      332.638        1.429      857.016
12/09/2021  09:30:00     -136.673        0.021       -1.487       92.428       49.301       34.246     8542.903     2430.625     1172.790        1.541        0.607      136.673       34.395        0.063      332.532        1.255      857.015
12/09/2021  09:31:00     -125.490       22.180        2.291       61.890       46.271       29.825     3830.355     2141.013      889.559        1.155        0.343      127.435       33.200        0.068      332.544        1.276      857.030
12/09/2021  09:32:00     -137.334       27.801       -5.836       53.169       44.072       30.576     2826.907     1942.351      934.892        1.268        0.285      140.120       22.940        0.027      332.576        1.329      857.044
12/09/2021  09:33:00      -76.087       46.321       -9.145       36.627       42.192       25.621     1341.536     1780.141      656.447        0.590        0.189       89.078       17.702        0.039      332.630        1.417      857.061
12/09/2021  09:34:00      -54.348       35.679       -1.606       44.666       38.096       27.720     1995.024     1451.273      768.393        0.422        0.211       65.013       28.203        0.188      332.708        1.548      857.075
12/09/2021  09:35:00     -126.545       41.026      -17.837       43.275       41.834       22.966     1872.745     1750.104      527.427        1.108        0.208      133.029       16.620        0.016      332.589        1.350      857.086
12/09/2021  09:36:00      -94.055       47.602      -14.923       52.927       46.227       39.968     2801.301     2136.902     1597.446        0.893        0.327      105.415       32.776        0.097      332.701        1.535      857.094
12/09/2021  09:37:00     -101.309       19.658        3.770       54.983       50.991       31.989     3023.159     2600.042     1023.283        0.865        0.332      103.199       29.219        0.080      332.723        1.570      857.104
12/09/2021  09:38:00      -95.973       32.609       -2.316       72.683       54.857       28.583     5282.878     3009.260      816.960        0.969        0.455      101.362       25.421        0.063      332.678        1.497      857.114
12/09/2021  09:39:00     -112.938       60.592       -6.905       47.561       36.092       26.655     2262.003     1302.661      710.506        1.037        0.214      128.165       15.851        0.015      332.669        1.482      857.129
12/09/2021  09:40:00      -52.510       67.829       -5.805       33.083       46.485       22.397     1094.458     2160.840      501.636        0.557        0.188       85.780       17.178        0.040      332.687        1.510      857.140
12/09/2021  09:41:00     -112.466       34.411      -13.871       53.306       51.830       37.032     2841.529     2686.357     1371.375        1.046        0.345      117.613       35.215        0.090      332.741        1.601      857.152
12/09/2021  09:42:00      -87.587       56.055      -23.208       85.782       50.355       33.942     7358.560     2535.639     1152.052        1.120        0.552      103.988       27.309        0.069      332.784        1.671      857.165
12/09/2021  09:43:00     -114.335       15.959       -5.570      101.087       61.954       46.381    10218.490     3838.281     2151.240        1.478        0.810      115.444       37.182        0.104      332.781        1.667      857.171
12/09/2021  09:44:00      -87.952       41.652      -12.529       99.121       56.981       45.152     9825.010     3246.823     2038.728        1.237        0.756       97.317       43.505        0.200      332.754        1.621      857.194
12/09/2021  09:45:00      -21.493       26.996      -15.361       50.771       43.092       21.035     2577.670     1856.946      442.470        0.315        0.244       34.507       17.609        0.260      332.778        1.662      857.215
12/09/2021  09:46:00      -25.561       -4.116       -9.007       51.167       50.856       27.540     2618.047     2586.348      758.456        0.336        0.298       25.891       14.606        0.318      332.902        1.868      857.232
12/09/2021  09:47:00      -86.537      165.669       -2.380       68.405      137.059       39.415     4679.232    18785.207     1553.578        2.997        1.251      186.908       45.472        0.059      332.629        1.413      857.250
12/09/2021  09:48:00     -113.728      144.089      -16.187       77.239       85.663       38.305     5965.880     7338.229     1467.246        2.436        0.739      183.564       32.141        0.031      332.652        1.452      857.260
12/09/2021  09:49:00      -50.328      171.455       -4.400       87.806      118.732       52.111     7709.919    14097.188     2715.566        2.823        1.226      178.689       50.091        0.079      332.655        1.457      857.267
12/09/2021  09:50:00      -74.859       70.149      -15.968       74.425       57.496       45.690     5539.126     3305.811     2087.531        1.085        0.547      102.590       39.158        0.146      332.640        1.435      857.259
12/09/2021  09:51:00     -107.396       41.308      -22.541       97.902       48.053       49.541     9584.763     2309.069     2454.345        1.405        0.717      115.067       46.079        0.160      332.653        1.455      857.267
12/09/2021  09:52:00     -115.547       86.322      -13.166       68.155       66.302       47.506     4645.133     4395.965     2256.856        1.613        0.565      144.231       27.345        0.036      332.623        1.406      857.285
12/09/2021  09:53:00      -74.920      135.245      -14.243       58.826       70.311       35.395     3460.456     4943.688     1252.818        1.688        0.483      154.610       28.812        0.035      332.673        1.488      857.288
12/09/2021  09:54:00      -57.046       93.019      -19.667       60.539       58.601       34.602     3664.926     3434.043     1197.299        1.029        0.415      109.118       32.643        0.089      332.745        1.608      857.297
12/09/2021  09:55:00      -16.068       -8.468      -18.711       26.749       46.466       22.858      715.514     2159.113      522.505        0.204        0.170       18.163        8.817        0.236      332.799        1.698      857.298
12/09/2021  09:56:00      -56.667       19.862      -20.460       44.315       46.925       38.406     1963.812     2201.921     1474.989        0.483        0.282       60.047       28.266        0.222      332.713        1.555      857.287
12/09/2021  09:57:00      -21.256      116.544       -3.473       45.027       77.335       36.904     2027.461     5980.776     1361.888        1.171        0.469      118.466       19.869        0.028      332.656        1.461      857.293
12/09/2021  09:58:00      -46.213       81.333       -9.121       37.646       67.424       30.446     1417.229     4545.951      926.948        0.786        0.345       93.545       22.785        0.059      332.763        1.638      857.305
12/09/2021  09:59:00      -58.508        8.504      -12.219       71.884       57.301       30.775     5167.296     3283.398      947.078        0.652        0.470       59.122       30.876        0.273      332.724        1.573      857.314
12/09/2021  10:00:00      -18.341       -6.857       -8.830       45.948       42.625       33.078     2111.240     1816.886     1094.127        0.274        0.251       19.581       18.530        0.896      332.801        1.700      857.318
12/09/2021  10:01:00       11.776       50.412       -2.243       38.756       50.340       29.473     1502.020     2534.151      868.687        0.379        0.245       51.769       15.725        0.092      332.789        1.680      857.335
12/09/2021  10:02:00      -61.148       35.154      -13.434       50.242       65.835       32.321     2524.261     4334.271     1044.623        0.653        0.395       70.532        9.567        0.018      332.784        1.673      857.341
12/09/2021  10:03:00        6.696        6.095       -7.721       34.496       51.201       27.256     1189.977     2621.520      742.887        0.235        0.228        9.055       23.152        6.538      332.852        1.785      857.353
12/09/2021  10:04:00        5.840       42.222        1.974       41.212       46.984       31.014     1698.460     2207.464      961.895        0.334        0.243       42.624       16.372        0.148      332.923        1.903      857.355
12/09/2021  10:05:00      -55.562      129.884      -23.580       50.078       64.891       29.841     2507.814     4210.836      890.510        1.406        0.380      141.269       15.680        0.012      332.770        1.650      857.373
12/09/2021  10:06:00      -32.203      106.122       -9.127       78.106       60.174       40.967     6100.595     3620.941     1678.286        1.189        0.570      110.900       11.623        0.011      332.862        1.800      857.383
12/09/2021  10:07:00     -113.808       74.329      -30.323       83.685       73.361       48.973     7003.255     5381.809     2398.359        1.709        0.739      135.930       21.571        0.025      332.792        1.685      857.374
12/09/2021  10:08:00      -52.733       37.369      -19.034       71.982       82.365       34.735     5181.378     6783.989     1206.545        0.885        0.659       64.631       29.867        0.214      332.820        1.733      857.379
12/09/2021  10:09:00      -63.928       22.994      -19.657       81.959       60.738       36.337     6717.274     3689.126     1320.359        0.836        0.586       67.937       24.627        0.131      332.902        1.867      857.368
12/09/2021  10:10:00      -35.603       88.656      -11.232       40.251       45.971       26.522     1620.178     2113.300      703.403        0.684        0.222       95.538       20.922        0.048      332.854        1.789      857.373
12/09/2021  10:11:00        0.700       20.858       -2.014       56.500       41.678       32.961     3192.271     1737.091     1086.457        0.323        0.301       20.870       18.817        0.813      332.991        2.014      857.376
12/09/2021  10:12:00       10.214       17.334      -12.202       30.762       48.105       39.763      946.277     2314.063     1581.069        0.270        0.242       20.120       21.087        1.098      332.987        2.007      857.382
12/09/2021  10:13:00        3.493       66.307        1.242       82.147      112.247       45.796     6748.062    12599.452     2097.288        1.292        1.072       66.399       51.977        0.613      333.015        2.052      857.382
12/09/2021  10:14:00        3.485       95.303      -12.202       41.156       37.606       37.887     1693.832     1414.244     1435.454        0.689        0.227       95.367       11.604        0.015      333.042        2.100      857.387
12/09/2021  10:15:00        9.353       94.771       -8.136       47.936       61.740       40.564     2297.823     3811.851     1645.462        0.844        0.388       95.232       18.292        0.037      333.073        2.149      857.384
12/09/2021  10:16:00        6.068      170.729      -10.203       55.757       61.782       37.621     3108.795     3817.000     1415.324        1.881        0.417      170.836       25.625        0.022      332.943        1.935      857.389
12/09/2021  10:17:00      -41.190       71.302       -8.165       45.220       37.923       33.737     2044.818     1438.170     1138.189        0.573        0.231       82.344       20.536        0.062      333.066        2.139      857.392
12/09/2021  10:18:00      -39.151      105.521      -13.547       62.802       75.297       40.802     3944.085     5669.583     1664.791        1.206        0.564      112.550       16.818        0.022      333.040        2.095      857.379
12/09/2021  10:19:00      -43.430      165.928      -19.951       80.387       51.729       38.545     6462.007     2675.905     1485.679        2.022        0.531      171.518       13.295        0.006      332.973        1.984      857.366
12/09/2021  10:20:00      -30.079      138.057       -9.407       67.232       56.347       36.699     4520.172     3174.986     1346.818        1.455        0.452      141.296       19.900        0.020      332.984        2.003      857.361
12/09/2021  10:21:00       -2.188      160.233       -5.627       54.601       54.219       35.830     2981.242     2939.683     1283.791        1.646        0.360      160.248       19.088        0.014      333.029        2.076      857.360
12/09/2021  10:22:00      -77.246       77.128      -18.506       64.226       46.991       32.718     4124.988     2208.128     1070.497        0.983        0.370      109.159       26.689        0.060      333.052        2.116      857.364
12/09/2021  10:23:00      -77.589      104.917      -13.846       55.520       46.241       31.273     3082.510     2138.266      978.011        1.171        0.310      130.490       25.302        0.038      332.962        1.965      857.367
12/09/2021  10:24:00       -3.902       91.128      -15.742       48.917       54.211       36.726     2392.897     2938.813     1348.763        0.762        0.334       91.212       15.201        0.028      333.109        2.210      857.374
12/09/2021  10:25:00       -1.851       95.202      -13.576       42.452       24.658       24.912     1802.161      608.041      620.627        0.614        0.152       95.220       10.923        0.013      333.196        2.353      857.375
12/09/2021  10:26:00       39.589      183.524      -31.779       39.817       66.248       34.493     1585.397     4388.849     1189.796        2.171        0.358      187.745       31.069        0.027      333.021        2.062      857.360
12/09/2021  10:27:00       -9.727      138.810      -12.220       35.040       49.193       30.934     1227.807     2419.975      956.913        1.206        0.230      139.151       23.435        0.028      333.089        2.177      857.345
12/09/2021  10:28:00      -29.401      109.349      -14.374       33.505       23.697       24.230     1122.558      561.555      587.086        0.765        0.114      113.232        8.427        0.006      333.039        2.095      857.346
12/09/2021  10:29:00      -76.864       50.132      -16.866       57.252       50.401       29.495     3277.751     2540.217      869.964        0.770        0.334       91.768       21.801        0.056      333.295        2.518      857.340
12/09/2021  10:30:00      -44.123      102.408      -21.786       48.643       54.125       30.276     2366.186     2929.530      916.627        0.956        0.311      111.509       24.444        0.048      333.136        2.253      857.338
12/09/2021  10:31:00      -32.848      117.793        1.842       37.823       59.045       32.131     1430.596     3486.334     1032.393        1.045        0.297      122.287       25.471        0.043      333.039        2.093      857.329
12/09/2021  10:32:00      -62.450      133.136      -25.274       61.054       54.606       39.551     3727.561     2981.852     1564.285        1.527        0.414      147.055       21.067        0.021      333.025        2.069      857.341
12/09/2021  10:33:00      -60.012       66.952       -9.375       36.173       54.509       23.853     1308.485     2971.250      568.953        0.651        0.242       89.911       13.486        0.022      333.151        2.280      857.342
12/09/2021  10:34:00      -22.060       34.040       -1.642       33.178       38.080       26.266     1100.758     1450.085      689.929        0.244        0.162       40.563       18.830        0.215      333.307        2.536      857.334
12/09/2021  10:35:00       -3.342       -1.509       -2.507       34.950       44.113       32.403     1221.505     1945.961     1049.973        0.212        0.211        3.667       19.801       29.159      333.323        2.564      857.332
12/09/2021  10:36:00      -29.672       10.269      -12.536       58.176       59.727       42.727     3384.493     3567.335     1825.590        0.496        0.439       31.399       26.356        0.705      333.273        2.480      857.326
12/09/2021  10:37:00      -63.294       55.608       -9.668       44.805       43.044       30.493     2007.463     1852.788      929.817        0.599        0.240       84.252       23.997        0.081      333.096        2.188      857.320
12/09/2021  10:38:00      -96.662       21.781      -19.949       55.936       48.157       30.398     3128.851     2319.125      924.028        0.829        0.319       99.086       20.599        0.043      333.110        2.212      857.313
12/09/2021  10:39:00     -106.227      147.422      -14.938       64.056       67.565       39.030     4103.149     4565.062     1523.368        2.171        0.510      181.707       27.604        0.023      333.191        2.344      857.283
12/09/2021  10:40:00      -11.225       41.769       -9.402       75.181       90.259       48.908     5652.119     8146.752     2392.002        0.907        0.810       43.251       33.716        0.608      333.270        2.475      857.259
12/09/2021  10:41:00      -72.105      118.975      -23.559       75.571       64.406       31.124     5710.916     4148.139      968.721        1.537        0.541      139.120       32.003        0.053      333.136        2.254      857.258
12/09/2021  10:42:00      -78.588       76.468      -25.881       69.983       52.950       33.888     4897.617     2803.668     1148.399        1.077        0.442      109.651       25.224        0.053      333.230        2.410      857.253
12/09/2021  10:43:00     -103.879       87.615      -19.954       58.848       47.299       46.413     3463.065     2237.193     2154.128        1.336        0.393      135.894       19.389        0.020      333.257        2.455      857.245
12/09/2021  10:44:00      -23.384       38.315       -0.941       79.599       74.131       47.026     6335.958     5495.360     2211.433        0.803        0.702       44.887       39.510        0.775      333.453        2.778      857.230
12/09/2021  10:45:00      -52.687       52.428       10.066      134.033      124.891       59.670    17964.840    15597.784     3560.472        2.137        1.856       74.328       46.306        0.388      333.371        2.640      857.215
12/09/2021  10:46:00      -53.391       60.458      -14.328       74.273       72.941       53.433     5516.548     5320.344     2855.100        1.020        0.685       80.659       37.883        0.221      333.247        2.437      857.205
12/09/2021  10:47:00      -97.365      157.236      -22.088       73.779      100.513       55.900     5443.275    10102.885     3124.863        2.668        0.934      184.940       32.780        0.031      333.160        2.292      857.187
12/09/2021  10:48:00      -82.414       92.298      -21.837       98.268       69.078       55.898     9656.659     4771.740     3124.603        1.667        0.878      123.738       47.378        0.147      333.228        2.404      857.166
12/09/2021  10:49:00      -31.044      123.020       -9.903       79.694       65.239       49.293     6351.177     4256.154     2429.817        1.461        0.652      126.876       42.851        0.114      333.241        2.426      857.152
12/09/2021  10:50:00      -48.852      136.315       -6.470       66.048       52.092       39.299     4362.342     2713.614     1544.373        1.481        0.431      144.804       25.438        0.031      333.242        2.428      857.131
12/09/2021  10:51:00      -92.591       76.777      -40.127       70.621       55.968       47.172     4987.285     3132.429     2225.181        1.321        0.517      120.283       27.758        0.053      333.123        2.233      857.110
12/09/2021  10:52:00      -16.690      122.751       -7.773       69.725       56.623       36.148     4861.536     3206.168     1306.663        1.239        0.469      123.880       29.015        0.055      333.159        2.293      857.088
12/09/2021  10:53:00      -15.603      107.010       -3.252       62.113       56.694       32.459     3858.014     3214.198     1053.597        0.991        0.406      108.141       16.032        0.022      333.216        2.387      857.065
12/09/2021  10:54:00      -52.641       89.954      -20.192       72.912       54.616       44.694     5316.151     2982.935     1997.520        1.078        0.515      104.225       47.307        0.206      333.366        2.634      857.057
12/09/2021  10:55:00      -21.286      221.969      -40.470      125.567      125.667       69.248    15767.169    15792.264     4795.337        4.385        1.818      222.987       43.016        0.037      333.155        2.283      857.053
12/09/2021  10:56:00     -122.985      244.556      -30.118       91.758       86.755       63.857     8419.525     7526.428     4077.681        4.793        1.001      273.739       42.668        0.024      333.158        2.286      857.039
12/09/2021  10:57:00      -93.742      182.687      -35.723      104.722       81.355       42.777    10966.660     6618.686     1829.847        3.142        0.971      205.335       43.327        0.045      333.270        2.473      857.042
12/09/2021  10:58:00      -10.621      206.790      -12.248       54.548       60.837       52.960     2975.434     3701.143     2804.762        2.625        0.474      207.062       28.060        0.018      333.289        2.505      857.041
12/09/2021  10:59:00      -60.110      149.846      -20.573       69.863       74.299       35.783     4880.888     5520.352     1280.421        1.908        0.584      161.453        9.516        0.003      333.352        2.608      857.043
12/09/2021  11:00:00      -91.742      198.528      -18.200       91.231       74.309       42.499     8323.006     5521.774     1806.197        3.190        0.783      218.700       27.712        0.016      333.353        2.609      857.037
12/09/2021  11:01:00      -90.663      128.651      -20.887       48.006       50.917       32.626     2304.618     2592.590     1064.456        1.558        0.298      157.388       24.380        0.024      333.515        2.881      857.012
12/09/2021  11:02:00      -46.289       46.319      -12.612       92.924       67.949       51.154     8634.891     4617.095     2616.729        1.016        0.793       65.484       36.517        0.311      333.887        3.496      856.986
12/09/2021  11:03:00      -76.967      146.529      -27.074       68.159       68.828       35.544     4645.603     4737.250     1263.354        1.939        0.532      165.514       29.525        0.032      333.594        3.010      856.983
12/09/2021  11:04:00     -175.701      184.481      -26.359      127.760      115.992       73.633    16322.679    13454.047     5421.851        5.039        1.760      254.763       60.321        0.056      333.375        2.647      856.978
12/09/2021  11:05:00       18.454       81.938      -11.085       81.845       62.100       47.418     6698.685     3856.361     2248.498        0.999        0.640       83.991       17.020        0.041      333.687        3.166      856.970
12/09/2021  11:06:00      -35.707       54.685       -5.416       52.038       67.688       37.155     2707.968     4581.709     1380.498        0.648        0.434       65.310       27.066        0.172      333.813        3.374      856.956
12/09/2021  11:07:00     -153.547       43.290      -13.201      135.176      118.873       67.100    18272.497    14130.687     4502.449        3.126        1.845      159.533       52.153        0.107      333.526        2.897      856.974
12/09/2021  11:08:00     -103.029      189.383      -35.306      103.826      114.373       57.201    10779.736    13081.202     3271.993        3.743        1.357      215.594       44.276        0.042      333.354        2.611      856.999
12/09/2021  11:09:00      -95.662      203.473      -15.125      103.562      110.996       62.524    10725.109    12320.038     3909.310        3.886        1.348      224.839       32.770        0.021      333.301        2.524      857.003
12/09/2021  11:10:00      -68.574      222.308      -30.981      105.846       71.525       52.824    11203.272     5115.845     2790.375        3.709        0.955      232.644       27.348        0.014      333.241        2.426      856.985
12/09/2021  11:11:00      -44.748      262.654      -33.193       83.224      105.997       54.357     6926.301    11235.457     2954.678        4.660        1.056      266.439       43.001        0.026      333.104        2.197      856.961
12/09/2021  11:12:00      -33.435      205.980      -14.402       77.178       81.133       51.353     5956.461     6582.527     2637.176        2.946        0.759      208.676       26.221        0.016      333.264        2.463      856.930
12/09/2021  11:13:00        9.336      112.447       -7.091       77.543       79.687       34.652     6012.943     6350.093     1200.788        1.317        0.678      112.834       33.802        0.090      333.398        2.686      856.910
12/09/2021  11:14:00      -48.973      107.729      -26.313       85.895       72.323       41.156     7377.912     5230.557     1693.845        1.450        0.715      118.337       22.718        0.037      333.305        2.533      856.887
12/09/2021  11:15:00        5.888       91.209       -4.616       57.790       53.751       43.590     3339.738     2889.130     1900.131        0.825        0.406       91.399       26.211        0.082      333.497        2.851      856.865
12/09/2021  11:16:00      -29.435       68.914      -20.260       39.741       56.170       27.541     1579.350     3155.090      758.495        0.576        0.275       74.937       13.723        0.034      333.386        2.668      856.855
12/09/2021  11:17:00       -3.450       61.817       -4.927       40.985       45.078       23.489     1679.752     2032.017      551.717        0.406        0.213       61.913       18.809        0.092      333.541        2.924      856.838
12/09/2021  11:18:00      -86.185       64.012      -13.396       64.472       56.908       37.356     4156.647     3238.561     1395.474        1.025        0.440      107.357       31.558        0.086      333.489        2.839      856.833
12/09/2021  11:19:00     -200.508      199.670      -49.570       73.391      115.217       41.565     5386.253    13274.888     1727.679        5.145        1.019      282.969       16.223        0.003      333.237        2.417      856.849
12/09/2021  11:20:00      -57.510      139.278      -29.555       72.030       81.425       41.857     5188.298     6629.978     1752.044        1.857        0.679      150.684       24.637        0.027      333.339        2.590      856.852
12/09/2021  11:21:00      -74.470      156.506      -29.424       73.069       74.108       53.860     5339.131     5491.987     2900.855        2.232        0.687      173.320       34.165        0.039      333.437        2.750      856.846
12/09/2021  11:22:00        0.778      240.025      -10.898      108.487      138.040       53.748    11769.507    19055.084     2888.860        4.572        1.686      240.027       55.473        0.053      333.386        2.665      856.831
12/09/2021  11:23:00      -36.526      117.994      -25.401       82.241      105.261       50.403     6763.632    11079.892     2540.443        1.814        1.019      123.519       29.578        0.057      333.449        2.772      856.818
12/09/2021  11:24:00      -69.658      132.762      -12.602      105.113      122.829       57.209    11048.659    15087.045     3272.814        2.602        1.470      149.926       62.254        0.172      333.437        2.750      856.799
12/09/2021  11:25:00     -106.505      260.086      -33.139      139.188      134.355       77.962    19373.250    18051.280     6078.002        6.179        2.175      281.048       59.877        0.045      333.162        2.294      856.785
12/09/2021  11:26:00     -138.839      216.787      -29.933      132.506      106.704       56.077    17557.962    11385.822     3144.645        4.962        1.604      257.435       41.147        0.026      333.083        2.163      856.768
12/09/2021  11:27:00      -63.714      258.424      -41.953      138.744      169.087       68.398    19249.774    28590.334     4678.266        6.255        2.626      266.163       53.650        0.041      333.128        2.237      856.756
12/09/2021  11:28:00     -238.041      249.096      -36.769      124.213      110.858       65.851    15428.919    12289.390     4336.368        7.605        1.603      344.547       37.147        0.012      333.082        2.160      856.751
12/09/2021  11:29:00      -36.780      109.177      -36.443      114.410      130.643       56.862    13089.629    17067.634     3233.312        2.399        1.670      115.206       61.106        0.281      333.285        2.498      856.732
12/09/2021  11:30:00     -123.117      299.544      -34.443      123.907      161.768       63.773    15352.879    26168.956     4067.027        7.582        2.279      323.859       48.169        0.022      333.161        2.292      856.747
12/09/2021  11:31:00     -105.723      245.592      -29.862       99.074      145.665       71.142     9815.698    21218.162     5061.154        5.423        1.805      267.381       63.862        0.057      333.187        2.334      856.733
12/09/2021  11:32:00      -71.612      218.559      -19.258      121.704       86.550       48.326    14811.843     7490.897     2335.417        3.895        1.232      229.991       41.185        0.032      333.423        2.725      856.726
12/09/2021  11:33:00      -74.172      271.111      -29.779       98.407      155.347       57.392     9683.900    24132.592     3293.844        5.849        1.856      281.075       56.101        0.040      333.195        2.349      856.722
12/09/2021  11:34:00      -93.503      291.582      -32.997       88.214       98.084       61.558     7781.632     9620.565     3789.368        5.802        1.060      306.207       38.682        0.016      333.166        2.300      856.683
12/09/2021  11:35:00      -22.171      255.675      -30.268      108.532      101.292       44.289    11779.088    10260.113     1961.489        4.538        1.200      256.634       25.017        0.010      333.206        2.366      856.675
12/09/2021  11:36:00      -56.308      180.453      -25.575       70.181       86.735       53.037     4925.314     7523.037     2812.895        2.582        0.763      189.035       32.855        0.030      333.377        2.651      856.671
12/09/2021  11:37:00       17.862      269.193      -25.080      120.086      112.249       69.903    14420.590    12599.838     4886.407        5.265        1.595      269.785       60.849        0.051      333.308        2.536      856.674
12/09/2021  11:38:00       10.456      272.224      -30.495       82.973      100.133       59.068     6884.579    10026.555     3489.068        4.777        1.020      272.425       46.656        0.029      333.227        2.400      856.678
12/09/2021  11:39:00       -8.474      353.328      -38.767      142.553      155.973       63.924    20321.281    24327.607     4086.287        8.757        2.437      353.430       54.727        0.024      333.217        2.384      856.666
12/09/2021  11:40:00       18.261      241.570      -30.914       91.129      127.516       58.422     8304.532    16260.267     3413.095        4.381        1.399      242.259       58.312        0.058      333.467        2.799      856.653
12/09/2021  11:41:00      -59.033      168.244      -25.181       93.665      110.682       61.349     8773.092    12250.432     3763.751        2.860        1.239      178.300       45.565        0.065      333.313        2.544      856.655
12/09/2021  11:42:00      -73.491      284.307      -41.992      102.434      156.596       62.880    10492.768    24522.375     3953.835        6.347        1.948      293.652       38.368        0.017      333.211        2.375      856.633
12/09/2021  11:43:00      -70.534      332.743      -35.241       78.488       91.373       43.407     6160.436     8349.047     1884.156        6.666        0.820      340.137       31.420        0.009      333.131        2.242      856.624
12/09/2021  11:44:00      -28.700      275.649      -30.835       84.013      110.209       59.503     7058.142    12146.019     3540.574        5.025        1.137      277.139       55.592        0.040      333.317        2.549      856.625
12/09/2021  11:45:00     -110.981      242.042      -29.412      152.492      112.066       64.536    23253.707    12558.864     4164.849        5.586        1.999      266.272       48.259        0.033      333.297        2.516      856.602
12/09/2021  11:46:00      -79.018      306.492      -35.009      152.675      114.648       64.986    23309.514    13144.121     4223.211        7.103        2.034      316.514       48.998        0.024      333.320        2.554      856.582
12/09/2021  11:47:00      -37.888      317.012      -24.490      100.687      112.698       63.790    10137.824    12700.808     4069.136        6.471        1.345      319.268       60.114        0.035      333.251        2.441      856.556
12/09/2021  11:48:00      -90.204      280.332      -36.498      131.936      147.568       65.928    17407.076    21776.275     4346.523        6.578        2.176      294.487       45.798        0.024      333.234        2.413      856.515
12/09/2021  11:49:00      -32.565      213.530      -12.229      103.114      112.691       61.943    10632.417    12699.247     3836.936        3.698        1.358      215.999       32.198        0.022      333.425        2.729      856.477
12/09/2021  11:50:00      -25.734      104.403       -9.575       46.964       61.330       41.087     2205.640     3761.372     1688.121        0.965        0.383      107.528       28.688        0.071      333.805        3.362      856.449
12/09/2021  11:51:00     -100.031      291.421      -31.617      157.852      160.535       76.530    24917.406    25771.467     5856.903        7.623        2.827      308.111       55.487        0.032      333.411        2.706      856.467
12/09/2021  11:52:00     -127.814      267.526      -26.099       99.793      112.789       53.466     9958.692    12721.298     2858.623        5.706        1.277      296.491       39.376        0.018      333.282        2.492      856.500
12/09/2021  11:53:00      -10.513      364.505      -34.147      102.589      111.416       66.066    10524.461    12413.542     4364.670        8.072        1.365      364.657       53.501        0.022      333.278        2.485      856.507
12/09/2021  11:54:00      -30.423      314.824      -26.065       85.736      145.514       50.584     7350.577    21174.399     2558.694        6.590        1.554      316.291       58.489        0.034      333.439        2.752      856.502
12/09/2021  11:55:00      -59.934      273.396      -19.013      103.084       95.774       63.161    10626.377     9172.578     3989.310        5.124        1.189      279.888       52.488        0.035      333.358        2.616      856.491
12/09/2021  11:56:00      -35.054      278.807      -18.990       79.746      104.320       54.768     6359.489    10882.601     2999.490        4.978        1.012      281.002       48.550        0.030      333.402        2.690      856.471
12/09/2021  11:57:00      -37.311      183.920       -1.236      119.704      117.185       72.885    14329.127    13732.377     5312.255        3.429        1.669      187.667       34.801        0.034      333.717        3.213      856.446
12/09/2021  11:58:00      -74.875      169.210      -27.686      157.441       94.460       72.085    24787.819     8922.655     5196.190        3.695        1.945      185.036       34.156        0.034      333.497        2.848      856.425
12/09/2021  11:59:00      -43.723       49.145      -22.549      104.852       97.358       63.711    10993.952     9478.522     4059.064        1.468        1.227       65.779       45.500        0.478      333.541        2.923      856.402
12/09/2021  12:00:00       16.387      174.993        1.014       83.998      109.786       76.602     7055.595    12052.950     5867.832        2.793        1.249      175.759       67.116        0.146      333.563        2.957      856.396
12/09/2021  12:01:00        8.330      127.819      -10.663       63.671       87.123       45.587     4054.006     7590.457     2078.138        1.512        0.686      128.090       34.378        0.072      333.615        3.045      856.381
12/09/2021  12:02:00      -48.859      120.205      -20.805      129.378      113.088       50.294    16738.665    12788.787     2529.524        2.466        1.603      129.755       20.523        0.025      333.601        3.021      856.371
12/09/2021  12:03:00      -91.535       78.157      -22.101      110.591       89.884       56.520    12230.329     8079.082     3194.469        1.924        1.175      120.363       43.743        0.132      333.494        2.846      856.356
12/09/2021  12:04:00      -47.045      197.484      -31.593       75.817      115.244       55.186     5748.282    13281.132     3045.544        3.214        1.104      203.010       41.280        0.041      333.428        2.736      856.355
12/09/2021  12:05:00      -89.007      115.444      -24.046      111.412      111.438       53.485    12412.548    12418.361     2860.624        2.475        1.385      145.772       43.426        0.089      333.671        3.138      856.329
12/09/2021  12:06:00      -66.613       85.688      -48.621      108.177      121.561       60.935    11702.181    14777.003     3713.080        2.216        1.510      108.535       49.401        0.207      333.576        2.980      856.303
12/09/2021  12:07:00       15.989      107.363      -12.892       45.118       79.778       40.500     2035.601     6364.581     1640.279        1.099        0.502      108.547       28.986        0.071      333.754        3.275      856.296
12/09/2021  12:08:00     -121.163      126.861      -16.307      107.936      107.561       41.803    11650.130    11569.407     1747.489        2.800        1.248      175.426       30.619        0.030      333.361        2.624      856.276
12/09/2021  12:09:00      -29.654       34.395      -10.262      110.082      108.848       66.215    12118.081    11847.979     4384.479        1.525        1.418       45.413       60.116        1.752      333.623        3.057      856.246
12/09/2021  12:10:00       10.664      160.730      -11.679       63.806      109.530       37.748     4071.175    11996.763     1424.939        2.179        0.875      161.083       26.947        0.028      333.511        2.873      856.258
12/09/2021  12:11:00      -80.800      259.181      -26.671      109.572       94.652       43.891    12006.013     8959.091     1926.459        4.865        1.145      271.483       24.190        0.008      333.442        2.758      856.246
12/09/2021  12:12:00     -110.029      263.582      -28.070       74.359      128.524       55.193     5529.231    16518.505     3046.247        5.373        1.255      285.625       39.061        0.019      333.304        2.527      856.246
12/09/2021  12:13:00      -48.458      263.198      -21.722       99.804      113.255       57.695     9960.757    12826.694     3328.744        4.910        1.306      267.621       63.383        0.056      333.383        2.659      856.236
12/09/2021  12:14:00      -60.579      244.433      -15.349       79.357       73.461       49.217     6297.587     5396.463     2422.265        3.888        0.706      251.828       34.390        0.019      333.442        2.757      856.244
12/09/2021  12:15:00       77.998      346.426      -37.207      131.373      130.711       63.813    17258.793    17085.496     4072.069        8.294        1.921      355.098       64.525        0.033      333.349        2.603      856.265
12/09/2021  12:16:00       64.819      308.060      -39.208      121.907      114.081       56.868    14861.300    13014.525     3233.918        6.587        1.555      314.806       53.169        0.029      333.473        2.808      856.257
12/09/2021  12:17:00       75.371      274.685      -30.491       96.063       92.382       59.930     9228.150     8534.468     3591.648        5.170        1.068      284.838       59.807        0.044      333.427        2.731      856.252
12/09/2021  12:18:00       13.500      287.313      -19.662      101.577       75.826       52.626    10317.817     5749.521     2769.480        5.097        0.942      287.630       38.892        0.018      333.520        2.885      856.247
12/09/2021  12:19:00        3.195      303.208      -37.795       96.323      107.668       63.691     9278.094    11592.307     4056.521        5.915        1.246      303.225       57.941        0.037      333.427        2.732      856.238
12/09/2021  12:20:00      -13.422      330.867      -39.438      110.090      128.302       62.534    12119.869    16461.315     3910.507        7.184        1.625      331.139       56.480        0.029      333.338        2.584      856.222
12/09/2021  12:21:00      -43.925      206.028      -29.242      103.424       83.743       45.626    10696.522     7012.827     2081.702        3.251        0.990      210.659       32.255        0.023      333.300        2.523      856.227
12/09/2021  12:22:00      -86.995      179.931      -28.191       91.791      161.832       62.981     8425.628    26189.449     3966.607        3.965        1.929      199.858       45.543        0.052      333.295        2.514      856.214
12/09/2021  12:23:00      -57.593      305.424      -34.621       70.817      108.983       59.848     5015.090    11877.193     3581.820        5.913        1.024      310.807       46.811        0.023      333.155        2.283      856.225
12/09/2021  12:24:00      -91.105      210.966       -8.494       89.866       99.865       59.395     8075.945     9973.111     3527.714        3.722        1.079      229.797       27.361        0.014      333.316        2.548      856.225
12/09/2021  12:25:00      -72.780      218.357      -33.646      112.267      103.618       52.544    12603.985    10736.627     2760.906        4.010        1.305      230.167       50.281        0.048      333.203        2.363      856.212
12/09/2021  12:26:00      -24.381      140.417      -14.333       77.429       83.123       39.992     5995.221     6909.410     1599.328        1.751        0.725      142.518       35.855        0.063      333.369        2.638      856.202
12/09/2021  12:27:00       -7.677      320.876      -33.675       68.991      109.408       44.179     4759.691    11970.008     1951.823        6.141        0.934      320.968       43.083        0.018      333.134        2.247      856.199
12/09/2021  12:28:00       11.583      246.645      -26.296       65.142       63.139       47.587     4243.504     3986.527     2264.504        3.608        0.525      246.917       31.271        0.016      333.188        2.336      856.192
12/09/2021  12:29:00      -26.519      158.152      -16.623       78.155       77.456       48.862     6108.146     5999.471     2387.510        2.024        0.725      160.360       38.720        0.058      333.391        2.673      856.182
12/09/2021  12:30:00       12.711      201.335      -20.945       61.006       72.009       43.602     3721.739     5185.289     1901.115        2.597        0.540      201.735       40.612        0.041      333.391        2.674      856.191
12/09/2021  12:31:00       -7.181      299.533      -35.611       82.178      149.189       52.587     6753.179    22257.502     2765.418        6.140        1.589      299.619       34.484        0.013      333.251        2.442      856.189
12/09/2021  12:32:00       10.566      285.194      -33.449       88.600      119.049       54.530     7849.882    14172.769     2973.495        5.378        1.250      285.390       45.511        0.025      333.217        2.384      856.179
12/09/2021  12:33:00       -8.370      219.056      -24.069       90.092      106.363       48.688     8116.486    11313.147     2370.513        3.521        1.090      219.216       43.116        0.039      333.248        2.437      856.165
12/09/2021  12:34:00      134.957      250.221      -36.656       92.869      114.002       69.787     8624.656    12996.476     4870.225        5.432        1.325      284.295       70.798        0.062      333.184        2.330      856.165
12/09/2021  12:35:00      105.340      268.887      -33.763       77.045      132.532       52.845     5935.928    17564.761     2792.580        5.541        1.315      288.784       59.548        0.043      333.205        2.366      856.150
12/09/2021  12:36:00       97.933      311.840      -38.115       81.807      123.388       48.719     6692.317    15224.692     2373.517        6.628        1.215      326.856       43.343        0.018      333.182        2.325      856.141
12/09/2021  12:37:00       13.811      202.081      -13.625       82.401      120.012       54.718     6789.981    14402.921     2994.064        3.270        1.209      202.553       53.279        0.069      333.431        2.740      856.147
12/09/2021  12:38:00      -99.119      226.418      -26.026       89.189      110.659       60.466     7954.688    12245.439     3656.179        4.281        1.193      247.163       42.024        0.029      333.347        2.600      856.170
12/09/2021  12:39:00      -23.559      243.958      -27.777       78.815       98.971       48.900     6211.866     9795.201     2391.161        3.962        0.920      245.093       38.559        0.025      333.171        2.308      856.193
12/09/2021  12:40:00      -76.009      251.458      -24.934       92.515      111.406       50.856     8559.055    12411.203     2586.372        4.659        1.178      262.695       27.276        0.011      333.230        2.406      856.178
12/09/2021  12:41:00      -71.140      179.000      -19.027      108.430      119.226       73.321    11757.016    14214.957     5375.960        3.440        1.567      192.619       49.613        0.066      333.264        2.462      856.196
12/09/2021  12:42:00      -55.776      294.082      -38.382       87.069      140.414       56.619     7581.092    19715.963     3205.711        6.078        1.525      299.324       49.342        0.027      333.194        2.348      856.219
12/09/2021  12:43:00     -108.999      307.513      -37.064       95.889      126.971       52.651     9194.694    16121.758     2772.127        6.795        1.404      326.259       33.350        0.010      333.119        2.223      856.235
12/09/2021  12:44:00      -14.537      268.309      -26.184       80.245       95.898       66.228     6439.265     9196.458     4386.196        4.645        1.001      268.702       51.164        0.036      333.311        2.538      856.250
12/09/2021  12:45:00      -18.725      147.582      -22.810      101.563       83.709       54.003    10315.109     7007.139     2916.284        2.144        1.012      148.765       32.132        0.047      333.439        2.754      856.277
12/09/2021  12:46:00       62.422      278.212      -36.315       86.409      126.854       50.876     7466.450    16091.832     2588.349        5.438        1.307      285.128       49.267        0.030      333.281        2.491      856.290
12/09/2021  12:47:00       35.712      269.191      -18.775       94.450      112.078       73.857     8920.850    12561.514     5454.892        5.051        1.347      271.550       72.597        0.071      333.259        2.454      856.271
12/09/2021  12:48:00     -104.899      256.848      -38.801      109.507      144.428       40.192    11991.862    20859.411     1615.383        5.647        1.723      277.443       33.287        0.014      333.251        2.441      856.263
12/09/2021  12:49:00      -49.916      261.606      -24.967       88.183      123.083       57.535     7776.264    15149.336     3310.300        4.889        1.312      266.326       37.667        0.020      333.265        2.463      856.255
12/09/2021  12:50:00      -27.505      245.776      -30.918       78.019       73.561       44.830     6086.970     5411.262     2009.771        3.781        0.675      247.311       18.824        0.006      333.363        2.626      856.257
12/09/2021  12:51:00        2.711      308.247      -34.744      142.567      125.632       49.997    20325.337    15783.282     2499.734        6.741        1.930      308.259       46.296        0.023      333.321        2.556      856.247
12/09/2021  12:52:00      -68.319      159.124      -30.271      131.316      129.541       58.375    17243.819    16780.835     3407.583        3.416        1.872      173.171       45.812        0.070      333.445        2.763      856.275
12/09/2021  12:53:00     -124.096      194.542      -34.114      134.408      108.462       56.843    18065.406    11764.060     3231.151        4.373        1.653      230.751       48.084        0.043      333.370        2.639      856.294
12/09/2021  12:54:00       20.197      310.241      -37.863       88.806      102.855       56.059     7886.539    10579.253     3142.650        5.985        1.080      310.897       46.370        0.022      333.297        2.516      856.323
12/09/2021  12:55:00       47.360      246.737      -27.461       90.955      125.946       47.351     8272.803    15862.375     2242.153        4.512        1.319      251.241       53.775        0.046      333.437        2.749      856.330
12/09/2021  12:56:00       95.699      275.849      -27.764       79.990       88.850       53.251     6398.408     7894.391     2835.722        5.157        0.856      291.978       54.475        0.035      333.454        2.776      856.345
12/09/2021  12:57:00     -143.044      119.754      -29.484      163.875       90.016       83.167    26855.159     8102.948     6916.813        3.877        2.094      186.555       72.707        0.152      333.640        3.084      856.378
12/09/2021  12:58:00      -29.076      126.322      -16.047       90.743       74.617       53.032     8234.312     5567.682     2812.353        1.683        0.831      129.625       36.649        0.080      333.824        3.390      856.377
12/09/2021  12:59:00      -52.228       29.198       -9.775       91.973       59.534       63.411     8458.978     3544.315     4020.930        0.985        0.801       59.836       14.607        0.060      333.803        3.358      856.354
12/09/2021  13:00:00      -29.184      106.677      -26.952       84.223       50.006       44.476     7093.488     2500.618     1978.134        1.226        0.579      110.597       24.136        0.048      333.897        3.514      856.372
12/09/2021  13:01:00      -58.252      106.869      -31.452       94.493       87.686       48.164     8928.920     7688.906     2319.751        1.737        0.947      121.714       35.727        0.086      333.753        3.274      856.370
12/09/2021  13:02:00        9.717      126.734       -1.869       92.449      111.622       58.752     8546.730    12459.407     3451.766        2.030        1.223      127.106       65.346        0.264      333.846        3.427      856.362
12/09/2021  13:03:00      -33.188      241.814      -29.951       56.692       84.831       47.332     3213.934     7196.244     2240.296        3.656        0.633      244.081       22.563        0.009      333.530        2.902      856.346
12/09/2021  13:04:00      -51.602      275.990      -31.520       85.507       92.337       57.588     7311.514     8526.107     3316.382        4.949        0.958      280.772       40.677        0.021      333.472        2.806      856.332
12/09/2021  13:05:00      -98.963      278.031      -38.127      100.275      126.827       62.189    10055.143    16085.183     3867.512        5.927        1.500      295.118       53.750        0.033      333.480        2.820      856.314
12/09/2021  13:06:00      -95.283      328.135      -29.083       95.457      101.157       45.652     9112.047    10232.645     2084.126        6.951        1.071      341.689       36.098        0.011      333.318        2.552      856.318
12/09/2021  13:07:00      -59.961      345.666      -33.157       79.616      104.209       56.043     6338.696    10859.443     3140.851        7.226        1.017      350.828       46.317        0.017      333.240        2.422      856.331
12/09/2021  13:08:00      -35.929      204.531      -18.455       57.416      125.522       39.944     3296.546    15755.787     1595.498        3.205        1.032      207.663       40.439        0.038      333.703        3.190      856.334
12/09/2021  13:09:00      -37.840      218.740      -20.890       85.828       82.726       46.446     7366.392     6843.600     2157.272        3.304        0.818      221.989       24.973        0.013      333.706        3.194      856.338
12/09/2021  13:10:00      -20.535      319.555      -29.207       74.980      107.734       49.004     5621.982    11606.630     2401.419        6.151        0.982      320.214       51.010        0.025      333.452        2.772      856.344
12/09/2021  13:11:00       29.771      212.485      -25.053       80.435       94.716       57.451     6469.825     8971.158     3300.667        3.270        0.937      214.561       45.412        0.045      333.633        3.075      856.324
12/09/2021  13:12:00       31.584      302.895      -29.686       90.385       99.798       51.382     8169.500     9959.700     2640.119        5.719        1.038      304.538       37.032        0.015      333.613        3.039      856.364
12/09/2021  13:13:00      -53.285      146.861      -25.964      116.436       89.605       60.636    13557.430     8029.006     3676.736        2.517        1.263      156.229       53.395        0.117      333.657        3.114      856.413
12/09/2021  13:14:00      -19.655       42.989        9.390       82.816       87.784       64.499     6858.497     7705.992     4160.140        1.052        0.936       47.269       42.326        0.802      333.875        3.477      856.413
12/09/2021  13:15:00      -13.365      142.516      -12.684       53.116       77.546       48.198     2821.289     6013.340     2323.052        1.590        0.558      143.141       32.899        0.053      334.014        3.706      856.428
12/09/2021  13:16:00       60.983      189.728      -21.166       81.479       98.950       44.992     6638.756     9791.089     2024.325        2.931        0.923      199.287       48.176        0.058      333.734        3.240      856.428
12/09/2021  13:17:00      -86.785      128.021      -15.546       99.179       66.242       44.934     9836.501     4387.955     2019.088        2.020        0.812      154.664       26.543        0.029      333.979        3.648      856.440
12/09/2021  13:18:00      -34.049      184.187      -24.274      102.371       93.976       44.677    10479.859     8831.412     1996.015        2.849        1.065      187.308       34.828        0.035      333.759        3.282      856.456
12/09/2021  13:19:00      -93.640      229.772      -12.475      117.524      105.234       51.199    13811.930    11074.195     2621.376        4.461        1.375      248.120       40.198        0.026      333.718        3.214      856.447
12/09/2021  13:20:00      -96.271      155.282      -29.850      134.339       82.215       54.751    18047.004     6759.242     2997.690        3.103        1.390      182.703       47.428        0.067      333.793        3.339      856.433
12/09/2021  13:21:00       30.534      150.553      -22.733       76.832       81.710       42.551     5903.209     6676.548     1810.552        1.925        0.720      153.618       33.815        0.048      333.731        3.238      856.403
12/09/2021  13:22:00       53.707      298.097      -27.832       71.621      116.143       53.507     5129.589    13489.153     2863.006        5.700        1.074      302.896       59.891        0.039      333.470        2.803      856.387
12/09/2021  13:23:00      -30.896      214.642      -48.689      128.751      122.893       41.007    16576.869    15102.735     1681.608        4.137        1.668      216.854       31.378        0.021      333.434        2.744      856.366
12/09/2021  13:24:00       43.156      159.558      -17.667       63.602       75.920       39.538     4045.165     5763.820     1563.218        1.950        0.569      165.291       40.825        0.061      333.695        3.178      856.359
12/09/2021  13:25:00       78.791      240.599      -29.109       87.764       89.244       44.237     7702.452     7964.516     1956.874        4.128        0.881      253.172       44.236        0.031      333.765        3.292      856.360
12/09/2021  13:26:00      113.507      304.097      -43.915       75.771       72.338       44.912     5741.315     5232.738     2017.061        6.014        0.650      324.591       46.774        0.021      333.449        2.769      856.371
12/09/2021  13:27:00       26.582      230.555      -27.677       75.842       81.859       48.487     5751.952     6700.874     2351.018        3.471        0.740      232.083       37.036        0.025      333.698        3.180      856.386
12/09/2021  13:28:00      -21.768      141.789      -20.909       66.565       59.364       50.796     4430.901     3524.121     2580.215        1.577        0.527      143.450       27.304        0.036      334.017        3.710      856.405
12/09/2021  13:29:00      128.243      307.728      -39.835       79.057       85.870       55.623     6250.028     7373.696     3093.953        6.472        0.836      333.381       45.514        0.019      333.542        2.922      856.423
12/09/2021  13:30:00       78.110      249.683      -27.995       66.727      100.676       53.474     4452.514    10135.573     2859.509        4.333        0.872      261.616       46.840        0.032      333.571        2.970      856.438
12/09/2021  13:31:00       86.145      182.556      -20.969       69.198       69.438       43.832     4788.343     4821.606     1921.268        2.636        0.577      201.861       41.434        0.042      333.606        3.029      856.455
12/09/2021  13:32:00       -2.777      146.262      -18.190       75.115       65.346       39.640     5642.267     4270.039     1571.353        1.661        0.574      146.288       18.845        0.017      333.860        3.452      856.472
12/09/2021  13:33:00       22.107       93.942      -11.920       46.049       59.611       39.748     2120.511     3553.424     1579.872        0.835        0.363       96.508       40.251        0.174      334.139        3.914      856.472
12/09/2021  13:34:00      -16.271      132.572      -19.588       99.255      113.167       47.633     9851.618    12806.806     2268.889        2.157        1.246      133.566       42.325        0.100      334.022        3.718      856.485
12/09/2021  13:35:00       39.864      254.360      -30.816      130.320      151.339       57.021    16983.218    22903.431     3251.376        5.518        2.157      257.465       57.285        0.050      333.755        3.276      856.493
12/09/2021  13:36:00       36.232      247.996      -18.727       90.143       96.305       51.556     8125.827     9274.636     2657.976        4.161        1.003      250.629       45.884        0.034      333.732        3.237      856.503
12/09/2021  13:37:00       76.745      260.477      -40.536       80.971       90.974       62.636     6556.379     8276.290     3923.223        4.707        0.938      271.548       53.714        0.039      333.758        3.279      856.516
12/09/2021  13:38:00       75.160      331.928      -36.016       90.852      112.774       63.818     8254.084    12717.974     4072.796        7.108        1.252      340.331       61.749        0.033      333.534        2.909      856.540
12/09/2021  13:39:00       21.938      273.725      -31.833      109.787      116.807       47.184    12053.259    13643.816     2226.345        5.217        1.396      274.603       48.486        0.031      333.671        3.136      856.525
12/09/2021  13:40:00       70.215      329.443      -35.605      106.364      113.861       61.153    11313.337    12964.284     3739.724        7.137        1.401      336.842       54.851        0.027      333.591        3.003      856.512
12/09/2021  13:41:00       34.902      246.821      -18.560       81.689       74.324       50.609     6673.122     5524.070     2561.270        3.862        0.738      249.277       41.834        0.028      333.789        3.331      856.487
12/09/2021  13:42:00      -25.327      186.695      -17.244       73.722       75.852       56.500     5434.926     5753.543     3192.243        2.508        0.719      188.405       27.622        0.021      333.920        3.550      856.481
12/09/2021  13:43:00       -4.740      211.409       -4.770       84.590      121.394       71.107     7155.410    14736.610     5056.158        3.584        1.347      211.462       63.472        0.090      333.921        3.550      856.474
12/09/2021  13:44:00      -39.140      219.144       -6.316      111.886      117.859       63.688    12518.585    13890.837     4056.134        4.003        1.523      222.611       55.490        0.062      333.807        3.359      856.460
12/09/2021  13:45:00      -68.318      209.730      -36.722       84.125       90.061       70.656     7077.042     8110.976     4992.284        3.509        1.009      220.576       26.795        0.015      333.684        3.157      856.432
12/09/2021  13:46:00      -39.883      239.536      -29.366      124.652       92.226       54.792    15538.136     8505.569     3002.179        4.343        1.352      242.834       35.466        0.021      333.840        3.414      856.394
12/09/2021  13:47:00      -48.166      190.640      -20.674       87.890       87.218       53.217     7724.656     7607.026     2832.098        2.862        0.908      196.630       40.486        0.042      333.729        3.233      856.367
12/09/2021  13:48:00      -47.644      256.936      -24.149       78.074       89.837       49.261     6095.494     8070.751     2426.623        4.273        0.830      261.316       39.942        0.023      333.542        2.922      856.355
12/09/2021  13:49:00      -60.168      130.385      -19.416       63.634       63.661       42.347     4049.335     4052.675     1793.281        1.544        0.495      143.598       30.470        0.045      333.804        3.360      856.348
12/09/2021  13:50:00     -100.836      191.527      -24.343       94.967       79.023       44.280     9018.800     6244.686     1960.713        3.233        0.861      216.450       28.258        0.017      333.698        3.181      856.335
12/09/2021  13:51:00      -30.633      189.604      -25.380       66.649       65.824       52.012     4442.070     4332.801     2705.259        2.450        0.574      192.063       18.380        0.009      333.684        3.158      856.343
12/09/2021  13:52:00       16.713      143.400      -17.477       93.071       67.496       37.687     8662.181     4555.706     1420.292        1.789        0.732      144.371       27.473        0.036      333.840        3.417      856.357
12/09/2021  13:53:00        1.365      230.714      -29.262       77.617      110.019       51.162     6024.382    12104.168     2617.510        3.741        1.037      230.718       54.912        0.057      333.723        3.224      856.359
12/09/2021  13:54:00       52.018      263.764      -28.846      101.289      147.540       55.669    10259.497    21768.056     3099.059        5.411        1.756      268.844       52.135        0.038      333.649        3.101      856.349
12/09/2021  13:55:00      124.962      382.781      -37.523       73.537      105.211       55.254     5407.686    11069.423     3053.042        9.153        0.977      402.662       60.624        0.023      333.374        2.644      856.365
12/09/2021  13:56:00        2.979      251.117      -20.475       63.900       88.149       40.977     4083.256     7770.239     1679.124        3.851        0.677      251.135       43.640        0.030      333.596        3.013      856.376
12/09/2021  13:57:00      -82.711      211.083      -16.937      114.954       82.147       54.411    13214.502     6748.082     2960.531        3.730        1.146      226.709       41.097        0.033      333.649        3.099      856.400
12/09/2021  13:58:00      -39.709      169.529      -14.153      101.123      124.961       55.565    10225.796    15615.374     3087.507        2.972        1.446      174.117       45.330        0.068      333.714        3.208      856.398
12/09/2021  13:59:00       33.122       21.434      -19.066       49.054       65.781       54.697     2406.270     4327.150     2991.724        0.582        0.486       39.452       41.110        1.086      333.972        3.638      856.383
12/09/2021  14:00:00      -28.457      142.376       -8.662       62.430       92.748       41.300     3897.463     8602.185     1705.676        1.768        0.710      145.192       39.157        0.073      333.874        3.475      856.399
12/09/2021  14:01:00       95.411      303.680      -36.615       78.684       86.912       43.799     6191.112     7553.701     1918.352        5.916        0.783      318.316       43.853        0.019      333.521        2.886      856.403
12/09/2021  14:02:00       89.186      294.175      -37.916       80.576       98.890       61.870     6492.559     9779.170     3827.953        5.801        1.005      307.397       59.866        0.038      333.585        2.992      856.424
12/09/2021  14:03:00       -5.601      353.374      -29.788       66.935      101.471       53.362     4480.348    10296.439     2847.468        7.170        0.881      353.419       53.015        0.023      333.422        2.724      856.448
12/09/2021  14:04:00      -10.240      270.632      -21.867       72.274      100.575       54.731     5223.601    10115.346     2995.495        4.608        0.917      270.825       56.262        0.043      333.462        2.789      856.459
12/09/2021  14:05:00      -11.126      286.959      -28.688       71.188      102.121       49.356     5067.782    10428.612     2436.004        5.061        0.897      287.174       44.994        0.025      333.499        2.850      856.464
12/09/2021  14:06:00      -71.140      146.665      -27.041      103.117      118.451       68.744    10633.123    14030.755     4725.800        2.834        1.469      163.008       48.727        0.089      333.722        3.221      856.454
12/09/2021  14:07:00      -15.946       90.664        8.796       47.275       67.120       45.011     2234.958     4505.051     2026.026        0.866        0.438       92.056       32.224        0.123      333.889        3.500      856.459
12/09/2021  14:08:00      -36.433      184.805      -23.078       81.111      112.844       49.240     6578.944    12733.662     2424.570        2.887        1.087      188.362       32.802        0.030      333.750        3.268      856.481
12/09/2021  14:09:00      -33.895      218.301      -21.613      109.894      103.299       49.715    12076.591    10670.653     2471.534        3.724        1.261      220.917       37.579        0.029      333.691        3.168      856.501
12/09/2021  14:10:00      -37.317      272.323      -25.187       68.995      110.004       55.663     4760.292    12100.923     3098.344        4.807        0.998      274.868       44.340        0.026      333.563        2.956      856.508
12/09/2021  14:11:00      -23.601      123.099      -17.366       71.678       84.334       39.163     5137.697     7112.184     1533.770        1.490        0.689      125.341       28.730        0.053      333.797        3.346      856.498
12/09/2021  14:12:00      -11.867       61.800        8.858       70.221       64.605       32.525     4930.966     4173.760     1057.883        0.710        0.508       62.929       32.608        0.268      334.145        3.924      856.504
12/09/2021  14:13:00       -8.007      162.842      -12.434       65.436       93.464       38.369     4281.814     8735.541     1472.199        2.061        0.724      163.039       39.783        0.060      333.792        3.339      856.528
12/09/2021  14:14:00     -174.789      235.090      -37.856       87.447      104.617       53.343     7647.016    10944.761     2845.498        5.434        1.072      292.948       29.611        0.010      333.715        3.207      856.544
12/09/2021  14:15:00      -44.547      197.656      -19.000       97.372      108.793       46.397     9481.247    11835.987     2152.693        3.244        1.173      202.613       39.352        0.038      333.829        3.398      856.563
12/09/2021  14:16:00      -50.122      342.090      -27.687       80.083      116.615       48.021     6413.259    13599.033     2305.991        7.131        1.116      345.742       47.989        0.019      333.421        2.722      856.573
12/09/2021  14:17:00      -15.452      206.462      -22.544       81.350       82.580       47.440     6617.768     6819.504     2250.585        2.953        0.784      207.039       39.633        0.037      333.680        3.152      856.568
12/09/2021  14:18:00       -6.298      242.481      -41.166      114.363      109.266       61.592    13078.926    11938.956     3793.627        4.467        1.441      242.563       48.773        0.040      333.596        3.012      856.568
12/09/2021  14:19:00       61.060      184.747      -21.317       79.256       66.438       44.091     6281.470     4413.997     1943.994        2.547        0.632      194.576       39.922        0.042      333.722        3.222      856.569
12/09/2021  14:20:00      -74.745       86.835      -23.778       77.530       63.487       50.399     6010.852     4030.639     2540.085        1.313        0.629      114.574       44.427        0.150      334.028        3.730      856.577
12/09/2021  14:21:00       36.542      144.304      -27.428       77.335       81.849       40.789     5980.666     6699.330     1663.718        1.862        0.717      148.859       28.377        0.036      333.661        3.121      856.584
12/09/2021  14:22:00       10.050      126.629        1.874       55.798       67.092       54.843     3113.394     4501.341     3007.709        1.338        0.531      127.027       28.560        0.051      334.070        3.801      856.603
12/09/2021  14:23:00        8.091       59.897       -6.378       47.911       53.394       47.852     2295.446     2850.898     2289.804        0.556        0.372       60.441       30.402        0.253      334.005        3.692      856.622
12/09/2021  14:24:00       46.187      154.939      -19.168       91.957      114.471       49.584     8456.156    13103.537     2458.529        2.526        1.201      161.676       53.055        0.108      333.739        3.250      856.643
12/09/2021  14:25:00       -0.132      234.184      -19.641       91.795       83.825       51.148     8426.352     7026.711     2616.068        3.665        0.903      234.184       37.812        0.026      333.726        3.227      856.654
12/09/2021  14:26:00       16.036      229.459      -28.277       94.491      112.934       51.943     8928.620    12754.002     2698.117        3.904        1.219      230.019       50.721        0.049      333.519        2.884      856.669
12/09/2021  14:27:00      -19.491      203.065      -24.395      106.933       82.821       55.846    11434.728     6859.360     3118.720        3.181        1.071      203.998       28.744        0.020      333.724        3.225      856.681
12/09/2021  14:28:00       47.826      234.253      -28.735       78.390       81.127       43.792     6145.026     6581.630     1917.771        3.631        0.732      239.085       32.891        0.019      333.703        3.189      856.699
12/09/2021  14:29:00      -74.076      247.218      -23.813       76.191       96.800       43.989     5805.020     9370.192     1934.990        4.214        0.856      258.077       23.162        0.008      333.573        2.974      856.715
12/09/2021  14:30:00      -77.328      249.961      -24.195      102.328       86.887       51.341    10471.014     7549.429     2635.860        4.485        1.033      261.649       36.270        0.019      333.563        2.955      856.719
12/09/2021  14:31:00      -57.491      169.731      -10.592      131.311       95.687       65.013    17242.695     9155.916     4226.658        3.142        1.531      179.204       58.893        0.108      333.607        3.031      856.728
12/09/2021  14:32:00     -159.712      229.211      -33.994      101.371      130.695       57.808    10276.147    17081.302     3341.751        5.494        1.535      279.366       46.297        0.027      333.562        2.956      856.737
12/09/2021  14:33:00      -76.617      189.330      -21.175       76.590       95.640       46.705     5866.046     9146.933     2181.350        2.968        0.860      204.245       33.542        0.027      333.709        3.199      856.764
12/09/2021  14:34:00      -57.894      220.771      -28.321      107.916       86.287       57.937    11645.964     7445.437     3356.670        3.767        1.122      228.236       49.589        0.047      333.622        3.054      856.754
12/09/2021  14:35:00      -96.601      215.747      -29.544      124.022      111.693       59.505    15381.444    12475.357     3540.799        4.407        1.570      236.387       48.245        0.042      333.630        3.067      856.761
12/09/2021  14:36:00      -96.024      199.997      -24.421      101.838      108.400       65.541    10370.966    11750.584     4295.672        3.811        1.321      221.854       40.294        0.033      333.714        3.206      856.743
12/09/2021  14:37:00      -67.410       80.725      -15.765       77.339       71.800       59.892     5981.259     5155.215     3587.096        1.301        0.736      105.170       42.857        0.166      333.768        3.299      856.731
12/09/2021  14:38:00      -87.131      144.801      -27.556       76.787       90.626       43.649     5896.244     8213.019     1905.244        2.266        0.801      168.995       17.201        0.010      333.630        3.069      856.722
12/09/2021  14:39:00      -28.822       80.296       -8.137       82.397       60.733       43.097     6789.226     3688.493     1857.328        0.984        0.617       85.312       22.373        0.069      333.721        3.222      856.721
12/09/2021  14:40:00        3.788      135.135      -27.960       77.980       86.019       47.399     6080.949     7399.334     2246.681        1.739        0.786      135.188       27.548        0.042      333.612        3.041      856.723
12/09/2021  14:41:00       14.997      151.350      -21.407       67.496       51.069       39.692     4555.732     2608.091     1575.494        1.616        0.437      152.092       30.374        0.040      333.693        3.175      856.712
12/09/2021  14:42:00      -85.535      172.926      -26.072       69.875       63.356       42.959     4882.557     4013.959     1845.458        2.432        0.537      192.924        5.721        0.001      333.608        3.033      856.700
12/09/2021  14:43:00       -4.695      170.126      -11.677       94.424       78.320       40.380     8915.948     6134.000     1630.560        2.289        0.834      170.191       32.994        0.038      333.642        3.089      856.688
12/09/2021  14:44:00       89.096      250.919      -34.010       72.019      121.814       49.451     5186.699    14838.602     2445.445        4.726        1.124      266.267       57.208        0.046      333.588        2.999      856.687
12/09/2021  14:45:00       24.129      230.263      -10.513      100.574      130.020       45.837    10115.221    16905.262     2101.012        4.141        1.456      231.524       53.008        0.052      333.631        3.070      856.694
12/09/2021  14:46:00       49.450      317.250      -32.843      121.151       99.507       31.600    14677.459     9901.607      998.583        6.487        1.279      321.081       32.929        0.011      333.544        2.924      856.685
12/09/2021  14:47:00      -36.190      149.399      -17.177       75.229       63.015       39.727     5659.374     3970.907     1578.237        1.756        0.560      153.720       27.916        0.033      333.723        3.223      856.683
12/09/2021  14:48:00      -42.877      183.665      -23.277      109.459      141.171       49.590    11981.182    19929.193     2459.209        3.523        1.718      188.603       52.746        0.078      333.615        3.044      856.680
12/09/2021  14:49:00       29.143      218.242      -22.999       80.533       93.103       49.980     6485.528     8668.218     2498.041        3.333        0.883      220.180       37.631        0.029      333.710        3.200      856.691
12/09/2021  14:50:00       20.878      253.418      -33.199      112.138      116.678       58.954    12574.824    13613.699     3475.561        4.771        1.483      254.277       58.047        0.052      333.672        3.138      856.693
12/09/2021  14:51:00       47.011      277.991      -30.906       82.776      107.190       51.328     6851.898    11489.651     2634.576        5.071        1.049      281.938       55.093        0.038      333.617        3.046      856.708
12/09/2021  14:52:00       30.499      223.983      -31.349       87.967       89.147       58.831     7738.184     7947.117     3461.058        3.561        0.957      226.050       51.979        0.053      333.638        3.082      856.694
12/09/2021  14:53:00      -47.158      238.991      -23.400       89.423       89.745       41.991     7996.424     8054.159     1763.260        3.885        0.891      243.599       27.909        0.013      333.760        3.282      856.708
12/09/2021  14:54:00      -47.023      258.133      -23.839       81.998      116.216       41.304     6723.651    13506.224     1706.031        4.567        1.097      262.381       40.326        0.024      333.668        3.132      856.709
12/09/2021  14:55:00      -35.788      245.840      -36.157       52.704       82.990       40.783     2777.713     6887.334     1663.275        3.717        0.566      248.431       21.773        0.008      333.682        3.154      856.724
12/09/2021  14:56:00      -33.730      224.749      -10.650       80.852       97.232       47.281     6537.108     9454.027     2235.504        3.499        0.911      227.266       43.992        0.037      333.672        3.140      856.734
12/09/2021  14:57:00      -90.594      163.791      -27.559      108.768       95.934       62.572    11830.514     9203.287     3915.294        3.037        1.247      187.176       48.114        0.066      333.751        3.268      856.750
12/09/2021  14:58:00      -46.736      185.922      -30.027      153.569       95.318       53.308    23583.374     9085.522     2841.759        3.658        1.776      191.707       22.476        0.014      333.747        3.262      856.754
12/09/2021  14:59:00      -66.381      377.609      -21.730       95.766      181.280       67.466     9171.203    32862.603     4551.670        9.702        2.329      383.399       80.379        0.044      333.647        3.097      856.783
12/09/2021  15:00:00      -10.310      338.729      -33.380       76.445       83.957       48.965     5843.838     7048.754     2397.583        6.562        0.765      338.886       31.988        0.009      333.636        3.077      856.800
12/09/2021  15:01:00      -56.087      261.473      -26.000      131.110      119.696       62.730    17189.943    14327.173     3935.112        5.381        1.773      267.421       50.181        0.035      333.684        3.157      856.829
12/09/2021  15:02:00     -112.207      340.213      -25.594      118.999      103.363       60.302    14160.874    10683.821     3636.307        7.873        1.424      358.239       35.733        0.010      333.672        3.138      856.846
12/09/2021  15:03:00      -57.040      336.426      -27.417      107.227      118.588       53.790    11497.577    14063.140     2893.355        7.282        1.423      341.228       53.583        0.025      333.625        3.058      856.860
12/09/2021  15:04:00      -69.633      346.474      -32.989      100.806      114.677       58.745    10161.807    13150.823     3450.997        7.637        1.338      353.402       32.523        0.008      333.650        3.102      856.864
12/09/2021  15:05:00     -108.740      133.278      -35.076      122.003      116.919       44.898    14884.828    13670.164     2015.847        3.069        1.529      172.010       41.769        0.059      333.677        3.147      856.872
12/09/2021  15:06:00      -49.601      196.872      -53.578       95.245       76.624       59.499     9071.523     5871.302     3540.147        3.128        0.924      203.024       36.210        0.032      333.739        3.248      856.868
12/09/2021  15:07:00     -145.876      169.320      -47.172      130.989       69.618       76.419    17158.115     4846.614     5839.853        4.000        1.392      223.492       64.427        0.083      333.727        3.229      856.862
12/09/2021  15:08:00      -35.431      133.449      -26.032       91.547       61.009       61.750     8380.841     3722.145     3813.024        1.783        0.796      138.072       37.149        0.072      333.814        3.374      856.874
12/09/2021  15:09:00      -55.314      176.551       -5.131      105.116      104.690       61.732    11049.367    10960.004     3810.796        3.003        1.291      185.014       45.388        0.060      333.775        3.309      856.890
12/09/2021  15:10:00      -69.264      176.815      -20.071       74.063       72.532       51.046     5485.309     5260.895     2605.644        2.491        0.668      189.897       43.426        0.052      333.781        3.319      856.915
12/09/2021  15:11:00      -48.938      114.576      -14.797       71.228       66.113       53.791     5073.459     4370.921     2893.423        1.404        0.617      124.589       40.985        0.108      333.777        3.314      856.956
12/09/2021  15:12:00      -70.308      141.300      -27.354       91.031       76.637       57.413     8286.662     5873.199     3296.216        2.155        0.873      157.825       56.657        0.129      333.809        3.365      856.996
12/09/2021  15:13:00      -87.095      302.912      -30.061      118.542      120.393       56.202    14052.172    14494.391     3158.620        6.597        1.585      315.185       42.796        0.018      333.642        3.088      857.048
12/09/2021  15:14:00     -127.292      157.655      -20.530      123.922       96.644       58.489    15356.636     9340.017     3420.965        3.479        1.406      202.629       56.144        0.077      333.661        3.121      857.059
12/09/2021  15:15:00      -60.706       62.563      -19.421       94.626      101.484       56.171     8954.005    10299.066     3155.181        1.519        1.120       87.175       48.042        0.304      333.699        3.185      857.081
12/09/2021  15:16:00     -112.017      112.586      -19.976       79.053      107.818       56.308     6249.411    11624.667     3170.590        2.333        1.052      158.819       48.994        0.095      333.653        3.106      857.098
12/09/2021  15:17:00      -74.986      135.122      -15.325      115.825       71.731       50.216    13415.324     5145.337     2521.687        2.260        1.054      154.534       44.951        0.085      333.720        3.219      857.106
12/09/2021  15:18:00      -38.448       99.624      -15.805       63.871       63.741       47.622     4079.561     4062.948     2267.859        1.103        0.521      106.786       36.466        0.117      333.808        3.366      857.109
12/09/2021  15:19:00      -99.382       32.898      -34.235       56.513       50.146       32.201     3193.749     2514.639     1036.877        0.944        0.337      104.686       22.882        0.048      333.947        3.596      857.117
12/09/2021  15:20:00       -7.107       38.090        2.478       37.576       45.499       21.153     1411.965     2070.133      447.448        0.272        0.196       38.748       16.299        0.177      333.999        3.682      857.126
12/09/2021  15:21:00       31.866      -16.718       -4.424       68.282       53.681       43.811     4662.467     2881.621     1919.389        0.539        0.473       35.985       31.638        0.773      334.074        3.807      857.139
12/09/2021  15:22:00     -123.365       23.856      -22.685      151.739       96.257       54.036    23024.635     9265.381     2919.841        2.575        1.760      125.651       58.581        0.217      333.862        3.453      857.156
12/09/2021  15:23:00      -82.059       32.386        3.296      107.481       69.883       56.177    11552.227     4883.622     3155.850        1.369        0.980       88.219       53.086        0.362      333.790        3.335      857.160
12/09/2021  15:24:00     -100.086       22.987       -3.084       90.112       65.027       41.942     8120.155     4228.488     1759.102        1.233        0.705      102.692       44.926        0.191      333.844        3.424      857.172
12/09/2021  15:25:00     -105.764       32.298      -10.823      142.596       87.775       58.683    20333.664     7704.520     3443.675        2.191        1.574      110.586       64.269        0.338      333.874        3.473      857.187
12/09/2021  15:26:00      -62.791       84.426      -17.383       80.037       94.186       35.867     6405.844     8870.912     1286.440        1.396        0.828      105.216       26.401        0.063      333.890        3.501      857.205
12/09/2021  15:27:00      -42.902       48.142       -7.314       56.820       65.444       37.958     3228.481     4282.912     1440.781        0.658        0.448       64.485       17.758        0.076      334.114        3.873      857.222
12/09/2021  15:28:00     -118.794       42.037      -19.188      128.093       78.063       59.671    16407.916     6093.807     3560.597        2.115        1.303      126.012       43.221        0.118      333.992        3.670      857.236
12/09/2021  15:29:00      -35.916       75.402       -7.135       47.964       62.068       42.780     2300.518     3852.494     1830.166        0.750        0.399       83.519       32.790        0.154      334.189        3.996      857.253
12/09/2021  15:30:00       16.087       49.093        0.727       34.134       54.247       34.831     1165.136     2942.756     1213.208        0.399        0.266       51.661       21.163        0.168      334.183        3.986      857.273
12/09/2021  15:31:00     -113.191       56.749      -15.430      110.020       87.090       60.085    12104.363     7584.585     3610.224        1.978        1.165      126.620       50.203        0.157      334.029        3.731      857.275
12/09/2021  15:32:00     -153.612       50.900      -12.243      131.594       97.050       71.402    17317.000     9418.641     5098.198        2.908        1.592      161.825       43.765        0.073      333.937        3.576      857.297
12/09/2021  15:33:00      -36.760      101.519       -4.147       78.628      100.609       51.387     6182.324    10122.206     2640.664        1.531        0.947      107.969       38.924        0.130      333.979        3.649      857.327
12/09/2021  15:34:00      -76.563      192.263      -26.882      136.439       91.047       50.125    18615.675     8289.519     2512.534        3.648        1.471      206.947       56.140        0.074      333.984        3.654      857.363
12/09/2021  15:35:00     -131.631      291.443      -43.722       98.467      118.957       56.820     9695.844    14150.699     3228.565        6.562        1.354      319.790       20.201        0.004      333.669        3.133      857.403
12/09/2021  15:36:00       30.940      257.280      -23.131       90.938      100.300       52.941     8269.660    10060.033     2802.780        4.440        1.057      259.133       50.116        0.037      333.705        3.193      857.427
12/09/2021  15:37:00      -27.697      385.076      -38.729      113.381      140.746       69.877    12855.275    19809.491     4882.848        9.404        1.877      386.071       64.003        0.027      333.451        2.771      857.458
12/09/2021  15:38:00      -20.276      291.956      -19.307      107.701      112.577       63.953    11599.449    12673.505     4089.932        5.719        1.418      292.659       61.413        0.044      333.426        2.729      857.470
12/09/2021  15:39:00      -36.041      292.464      -32.640       90.019      100.763       60.159     8103.496    10153.270     3619.063        5.488        1.094      294.676       46.858        0.025      333.415        2.712      857.464
12/09/2021  15:40:00       27.857      230.187      -29.024      108.310       87.403       47.105    11731.120     7639.293     2218.840        3.809        1.079      231.867       40.545        0.031      333.490        2.837      857.494
12/09/2021  15:41:00      -46.585      236.257      -12.464      109.938       93.829       54.217    12086.435     8803.836     2939.520        4.098        1.191      240.806       36.837        0.023      333.475        2.811      857.494
12/09/2021  15:42:00     -129.872      220.092      -36.349      119.019      142.318       66.805    14165.459    20254.361     4462.957        5.275        1.944      255.552       45.635        0.032      333.414        2.710      857.494
12/09/2021  15:43:00     -106.369      232.173      -23.207      112.704       73.098       62.824    12702.214     5343.322     3946.815        4.387        1.100      255.379       46.035        0.032      333.349        2.604      857.521
12/09/2021  15:44:00      -71.559      133.977      -30.221       90.622      113.497       52.184     8212.382    12881.513     2723.171        2.390        1.191      151.890       22.648        0.022      333.386        2.664      857.528
12/09/2021  15:45:00        0.993      267.004      -25.329       95.504       85.555       51.999     9120.929     7319.598     2703.869        4.554        0.957      267.006       34.136        0.016      333.259        2.453      857.515
12/09/2021  15:46:00        9.035      186.028      -21.071       93.441       69.301       39.810     8731.195     4802.574     1584.862        2.512        0.756      186.247       34.149        0.034      333.312        2.542      857.495
12/09/2021  15:47:00      -24.220      151.582      -25.545       67.754       79.812       30.816     4590.669     6369.994      949.625        1.806        0.596      153.505       20.431        0.018      333.260        2.458      857.483
12/09/2021  15:48:00      -31.992       91.906      -12.704       63.650       52.090       32.714     4051.365     2713.317     1070.210        0.873        0.392       97.315       15.296        0.025      333.487        2.835      857.483
12/09/2021  15:49:00       16.467      132.821      -16.128       75.644      103.556       44.037     5721.998    10723.795     1939.259        1.828        0.919      133.838       40.584        0.092      333.332        2.577      857.491
12/09/2021  15:50:00      -55.920      185.388      -12.133       68.833       81.464       45.930     4737.921     6636.393     2109.591        2.556        0.674      193.639       32.027        0.027      333.348        2.604      857.494
12/09/2021  15:51:00      -17.621      192.070      -26.679       59.071       69.544       40.135     3489.406     4836.316     1610.840        2.392        0.497      192.876       18.927        0.010      333.218        2.388      857.515
12/09/2021  15:52:00      -79.192      224.945      -23.694       68.755      103.232       46.913     4727.255    10656.763     2200.801        3.751        0.879      238.477       26.417        0.012      333.145        2.267      857.537
12/09/2021  15:53:00      -12.144      176.989      -25.991       71.797       76.460       46.276     5154.828     5846.118     2141.513        2.264        0.657      177.405       18.988        0.011      333.159        2.289      857.532
12/09/2021  15:54:00      -25.116      190.707      -10.656       60.962      101.089       42.533     3716.400    10219.009     1809.028        2.643        0.787      192.354       42.163        0.048      333.143        2.264      857.537
12/09/2021  15:55:00      -24.069      232.579      -27.122       41.695       63.349       35.176     1738.462     4013.067     1237.351        3.120        0.349      233.821       22.221        0.009      333.086        2.169      857.539
12/09/2021  15:56:00      -49.259      211.448      -25.547       62.494       71.189       37.593     3905.550     5067.834     1413.209        2.909        0.519      217.110       25.980        0.014      333.116        2.217      857.540
12/09/2021  15:57:00       39.185      265.189      -23.559       97.161      141.264       54.005     9440.199    19955.382     2916.556        5.236        1.616      268.068       63.301        0.056      333.087        2.171      857.530
12/09/2021  15:58:00      -24.380      112.621      -12.258       54.981       81.790       36.930     3022.879     6689.643     1363.831        1.225        0.554      115.229       41.036        0.127      333.168        2.307      857.522
12/09/2021  15:59:00      -14.479      129.125      -12.957       72.233       56.492       46.860     5217.592     3191.334     2195.860        1.383        0.530      129.934       16.049        0.015      333.218        2.390      857.508
12/09/2021  16:00:00      -25.407      110.617      -20.401       55.196       65.675       41.212     3046.580     4313.214     1698.457        1.118        0.453      113.497       17.098        0.023      333.295        2.517      857.493
12/09/2021  16:01:00     -103.889      200.500      -19.037       74.257       68.328       42.675     5514.138     4668.655     1821.151        3.168        0.600      225.817       13.479        0.004      333.236        2.416      857.485
12/09/2021  16:02:00      -66.021      128.107      -25.083       63.388       77.119       29.770     4017.987     5947.283      886.268        1.612        0.543      144.119       21.412        0.022      333.210        2.374      857.485
12/09/2021  16:03:00      -81.463      127.676      -44.941      104.328       89.849       56.263    10884.331     8072.893     3165.542        2.354        1.106      151.451       49.686        0.108      333.086        2.170      857.496
12/09/2021  16:04:00      -83.362      180.116      -39.194       84.493      129.607       53.148     7139.034    16798.087     2824.702        3.384        1.338      198.472       40.623        0.042      333.077        2.153      857.501
12/09/2021  16:05:00      -98.104      186.725      -17.434       94.379       99.195       59.937     8907.355     9839.610     3592.390        3.356        1.117      210.928       56.067        0.071      333.049        2.108      857.511
12/09/2021  16:06:00     -128.467      195.108      -36.900       82.229      106.974       41.882     6761.563    11443.443     1754.071        3.794        0.998      233.604       10.431        0.002      333.049        2.107      857.523
12/09/2021  16:07:00     -111.814      119.142      -43.195       79.384       71.522       55.982     6301.780     5115.376     3134.032        2.155        0.728      163.393       29.300        0.032      333.045        2.103      857.528
12/09/2021  16:08:00     -114.772      164.764      -39.185      105.264      107.747       64.827    11080.599    11609.475     4202.581        3.437        1.345      200.798       42.520        0.045      333.075        2.150      857.535
12/09/2021  16:09:00      -79.848      186.518      -33.414      130.321       95.980       63.301    16983.675     9212.256     4007.026        3.624        1.510      202.891       35.336        0.030      332.980        1.993      857.542
12/09/2021  16:10:00      -97.099      192.089      -38.608      132.282       89.745       69.300    17498.426     8054.203     4802.487        3.908        1.518      215.235       24.775        0.013      332.937        1.921      857.543
12/09/2021  16:11:00      -72.860      201.637       -8.527      134.183      129.358       74.647    18005.204    16733.440     5572.214        4.317        2.016      214.397       69.387        0.105      332.933        1.916      857.550
12/09/2021  16:12:00      -96.915      186.932      -27.396      118.564       78.913       44.881    14057.385     6227.277     2014.283        3.369        1.115      210.561       38.547        0.034      332.932        1.914      857.569
12/09/2021  16:13:00     -118.300       81.442      -13.406       98.491       84.082       49.518     9700.471     7069.800     2452.046        2.001        0.961      143.623       24.016        0.028      332.985        2.003      857.583
12/09/2021  16:14:00      -93.329       83.083      -20.575       92.977      125.589       57.545     8644.805    15772.631     3311.377        2.188        1.386      124.952       51.796        0.172      333.025        2.069      857.608
12/09/2021  16:15:00     -117.433      190.482      -36.197       93.158       72.276       54.609     8678.449     5223.761     2982.182        3.413        0.844      223.772       35.176        0.025      332.952        1.947      857.622
12/09/2021  16:16:00     -125.806      184.155      -42.556      109.927      118.927       56.144    12083.957    14143.736     3152.171        4.046        1.469      223.025       36.890        0.027      332.957        1.954      857.637
12/09/2021  16:17:00      -23.944       87.706      -26.074       87.879       66.081       52.820     7722.668     4366.634     2789.991        1.191        0.744       90.916       44.812        0.243      332.977        1.990      857.646
12/09/2021  16:18:00      -96.330      187.732      -41.018      105.919       83.657       57.929    11218.824     6998.464     3355.739        3.389        1.079      211.004       50.884        0.058      332.978        1.990      857.669
12/09/2021  16:19:00      -75.077      164.901      -32.820       76.536       69.003       55.767     5857.759     4761.364     3110.006        2.382        0.686      181.187       33.056        0.033      332.988        2.007      857.693
12/09/2021  16:20:00      -97.239      121.940      -35.058       59.224       81.111       51.981     3507.426     6579.034     2701.990        1.917        0.639      155.964       32.365        0.043      332.989        2.009      857.702
12/09/2021  16:21:00      -65.319      100.791      -25.173      106.365       68.113       39.885    11313.515     4639.364     1590.852        1.630        0.877      120.106       37.057        0.095      332.993        2.015      857.709
12/09/2021  16:22:00      -33.283      117.595        3.136       56.743       69.408       47.190     3219.750     4817.489     2226.907        1.260        0.513      122.214       13.755        0.013      332.970        1.980      857.720
12/09/2021  16:23:00      -67.265      135.741      -14.966       58.518       65.258       55.941     3424.353     4258.567     3129.391        1.699        0.541      151.493       34.605        0.052      333.027        2.073      857.736
12/09/2021  16:24:00      -64.260      115.443      -17.959       50.368       53.450       37.799     2536.917     2856.948     1428.752        1.230        0.341      132.123       19.564        0.022      332.997        2.024      857.748
12/09/2021  16:25:00       -2.669       30.242        0.684       60.017       73.313       48.931     3602.070     5374.724     2394.227        0.614        0.569       30.360       27.663        0.830      332.918        1.893      857.760
12/09/2021  16:26:00     -107.188       79.666      -41.745       96.501       70.552       43.557     9312.536     4977.599     1897.252        1.788        0.809      133.551       25.328        0.036      332.904        1.869      857.785
12/09/2021  16:27:00     -102.515      134.916      -31.690      103.843       55.457       52.499    10783.370     3075.475     2756.182        2.316        0.831      169.445       42.003        0.061      332.881        1.831      857.798
12/09/2021  16:28:00      -82.200       84.373      -48.327       64.708       86.416       49.236     4187.074     7467.805     2424.148        1.514        0.704      117.795       38.691        0.108      332.918        1.893      857.819
12/09/2021  16:29:00      -71.829      135.585      -34.702       77.940       71.391       54.888     6074.682     5096.721     3012.640        1.946        0.709      153.436       34.759        0.051      332.897        1.858      857.833
12/09/2021  16:30:00      -82.524      173.541      -40.013      103.070       87.659       46.769    10623.459     7684.059     2187.321        2.951        1.025      192.163       26.070        0.018      332.873        1.817      857.846
12/09/2021  16:31:00      -34.586      180.102      -30.246       58.711       48.746       38.598     3447.020     2376.139     1489.830        2.093        0.366      183.393       25.552        0.019      332.855        1.788      857.855
12/09/2021  16:32:00      -22.026      164.345      -17.341       62.562       66.355       36.790     3913.963     4402.992     1353.536        1.873        0.484      165.815       36.375        0.048      332.868        1.810      857.868
12/09/2021  16:33:00       -6.135      172.794      -16.643       73.003       88.613       45.365     5329.450     7852.288     2057.976        2.270        0.762      172.903       36.415        0.044      332.854        1.787      857.881
12/09/2021  16:34:00        4.969      209.845      -19.083       72.753       89.707       41.895     5292.972     8047.278     1755.169        2.976        0.755      209.904       18.834        0.008      332.824        1.735      857.882
12/09/2021  16:35:00      -63.580      168.050      -22.284       57.550       85.528       51.277     3311.973     7315.025     2629.350        2.302        0.663      179.676       37.334        0.043      332.873        1.818      857.889
12/09/2021  16:36:00      -32.214      156.156      -16.439       71.886       81.166       38.217     5167.659     6587.848     1460.520        1.945        0.661      159.444       23.484        0.022      332.827        1.741      857.886
12/09/2021  16:37:00      -18.981      203.154      -17.887       67.253       65.839       36.665     4522.989     4334.828     1344.345        2.608        0.510      204.039       30.714        0.023      332.819        1.727      857.876
12/09/2021  16:38:00      -29.772      168.996      -14.670       63.046       74.021       40.864     3974.784     5479.080     1669.850        2.039        0.556      171.598       42.365        0.061      332.786        1.675      857.870
12/09/2021  16:39:00      -16.431      136.655      -15.812       51.603       57.847       32.757     2662.824     3346.324     1072.992        1.314        0.354      137.639       20.197        0.022      332.784        1.672      857.866
12/09/2021  16:40:00      -12.503      143.716      -22.676       68.385       96.235       37.533     4676.501     9261.271     1408.752        1.833        0.767      144.259       26.014        0.033      332.851        1.782      857.869
12/09/2021  16:41:00      -53.178      162.690      -19.917       79.916       66.724       42.677     6386.557     4452.079     1821.305        2.117        0.633      171.160       31.043        0.033      332.827        1.740      857.886
12/09/2021  16:42:00      -39.945      135.293      -16.231       48.134       54.989       30.099     2316.859     3023.815      905.957        1.320        0.312      141.066       27.893        0.039      332.848        1.779      857.905
12/09/2021  16:43:00        4.759      162.935      -18.371       43.868       73.704       32.217     1924.420     5432.337     1037.934        1.765        0.420      163.004       30.816        0.036      332.831        1.749      857.898
12/09/2021  16:44:00       16.719      197.583      -20.021       65.904       63.946       42.339     4343.301     4089.041     1792.578        2.497        0.511      198.289       38.380        0.037      332.764        1.635      857.902
12/09/2021  16:45:00      -65.288      173.596      -18.938       74.158       62.488       43.670     5499.438     3904.791     1907.060        2.303        0.566      185.467       32.575        0.031      332.776        1.658      857.912
12/09/2021  16:46:00       -9.744      150.932      -11.856       60.417       46.297       32.660     3650.223     2143.439     1066.678        1.494        0.343      151.247       25.514        0.028      332.783        1.669      857.922
12/09/2021  16:47:00      -52.332      186.262      -26.096       67.805       51.829       41.825     4597.486     2686.279     1749.295        2.357        0.452      193.474       27.645        0.020      332.791        1.681      857.936
12/09/2021  16:48:00      -21.676      187.258      -20.677       58.279       87.554       35.127     3396.423     7665.680     1233.877        2.413        0.615      188.509       33.085        0.031      332.754        1.621      857.962
12/09/2021  16:49:00      -58.923      134.313      -18.886       56.609       52.272       34.396     3204.569     2732.345     1183.078        1.449        0.356      146.670       30.051        0.042      332.779        1.664      857.990
12/09/2021  16:50:00      -63.890      197.721      -27.872       77.067       77.998       44.276     5939.394     6083.653     1960.358        2.897        0.699      207.787       27.681        0.018      332.759        1.630      858.005
12/09/2021  16:51:00      -55.797      243.861      -26.309       66.947       67.279       38.720     4481.966     4526.446     1499.263        3.689        0.525      250.163       10.953        0.002      332.731        1.581      858.020
12/09/2021  16:52:00      -54.623      217.776      -32.079       70.586       90.904       51.843     4982.404     8263.545     2687.721        3.368        0.797      224.522       39.180        0.030      332.737        1.592      858.032
12/09/2021  16:53:00      -60.077      231.398      -34.219       67.395       78.077       38.193     4542.105     6095.958     1458.680        3.521        0.605      239.070       24.664        0.011      332.799        1.694      858.038
12/09/2021  16:54:00      -55.336      184.838      -28.075       65.603       48.430       36.846     4303.778     2345.488     1357.625        2.301        0.400      192.943       23.007        0.014      332.809        1.712      858.048
12/09/2021  16:55:00      -23.445      157.547      -26.577       37.455       46.485       28.472     1402.841     2160.819      810.633        1.522        0.219      159.282       16.794        0.011      332.797        1.693      858.055
12/09/2021  16:56:00      -39.573      197.243      -20.276       66.204       53.362       38.514     4382.998     2847.523     1483.313        2.480        0.436      201.173       33.737        0.028      332.764        1.635      858.064
12/09/2021  16:57:00      -29.640      193.316      -25.784       53.773       53.820       33.824     2891.552     2896.584     1144.064        2.292        0.347      195.575       21.967        0.013      332.779        1.662      858.068
12/09/2021  16:58:00      -28.358      180.837      -24.992       41.453       56.380       32.747     1718.370     3178.707     1072.362        2.005        0.298      183.047       20.441        0.012      332.762        1.634      858.062
12/09/2021  16:59:00      -54.274      291.526      -28.897       70.731       99.808       40.520     5002.895     9961.556     1641.907        5.268        0.830      296.535       35.853        0.015      332.695        1.520      858.002
12/09/2021  17:00:00      -23.172      197.245      -25.516       51.576       48.423       27.456     2660.094     2344.830      753.818        2.293        0.288      198.601       15.491        0.006      332.735        1.589      857.993
12/09/2021  17:01:00      -55.159      202.218      -28.993       54.935       57.667       34.202     3017.822     3325.529     1169.795        2.614        0.376      209.605       12.123        0.003      332.723        1.569      858.017
12/09/2021  17:02:00      -49.576      193.653      -19.388       53.028       59.698       35.875     2812.000     3563.896     1287.017        2.400        0.383      199.898       31.976        0.026      332.738        1.595      858.013
12/09/2021  17:03:00      -43.446      153.028      -21.469       44.660       40.430       31.154     1994.545     1634.596      970.553        1.518        0.230      159.076       20.290        0.016      332.724        1.572      858.025
12/09/2021  17:04:00      -20.087      145.827      -12.723       48.456       51.892       28.427     2348.016     2692.746      808.095        1.384        0.292      147.204       24.548        0.028      332.725        1.575      858.029
12/09/2021  17:05:00      -13.126      130.658      -10.404       61.410       64.524       37.592     3771.244     4163.318     1413.134        1.335        0.467      131.316       39.725        0.092      332.790        1.681      858.035
12/09/2021  17:06:00      -49.620      189.004      -21.224       79.765       75.329       37.389     6362.439     5674.521     1397.928        2.603        0.672      195.409       28.350        0.021      332.706        1.542      858.038
12/09/2021  17:07:00      -84.494      198.576      -21.432       53.356       67.038       31.623     2846.850     4494.108     1000.039        2.768        0.417      215.804       18.423        0.007      332.710        1.546      858.039
12/09/2021  17:08:00      -57.759      183.390      -22.706       58.535       55.539       37.050     3426.309     3084.593     1372.673        2.268        0.394      192.270       25.640        0.018      332.709        1.547      858.043
12/09/2021  17:09:00      -30.758      181.891      -14.191       58.108       56.582       36.787     3376.561     3201.488     1353.263        2.108        0.397      184.474       28.972        0.025      332.675        1.490      858.054
12/09/2021  17:10:00      -11.879      188.927      -23.118       42.449       56.208       31.466     1801.899     3159.354      990.118        2.116        0.298      189.300       25.797        0.019      332.654        1.455      858.065
12/09/2021  17:11:00      -63.487      247.575      -26.612       60.071       57.076       41.367     3608.565     3257.621     1711.214        3.730        0.429      255.586       28.440        0.012      332.599        1.361      858.066
12/09/2021  17:12:00      -47.374      206.705      -19.844       52.680       39.132       26.800     2775.163     1531.316      718.213        2.519        0.251      212.064       21.344        0.010      332.622        1.403      858.061
12/09/2021  17:13:00      -31.890      200.841      -31.308       60.639       76.350       38.791     3677.118     5829.359     1504.707        2.667        0.551      203.357       25.088        0.015      332.606        1.374      858.074
12/09/2021  17:14:00      -48.895      211.711      -18.467       60.419       68.020       43.808     3650.494     4626.753     1919.128        2.887        0.510      217.284       33.998        0.024      332.620        1.399      858.080
12/09/2021  17:15:00      -66.992      159.244      -13.502       55.589       53.808       33.299     3090.187     2895.323     1108.807        1.856        0.355      172.761       28.718        0.028      332.652        1.452      858.084
12/09/2021  17:16:00      -59.536      159.475      -13.092       42.643       47.585       28.010     1818.426     2264.378      784.539        1.701        0.243      170.226       20.436        0.014      332.647        1.445      858.080
12/09/2021  17:17:00      -14.143      111.504      -11.005       80.746       59.694       32.850     6519.844     3563.362     1079.108        1.196        0.558      112.398       23.201        0.043      332.591        1.352      858.074
12/09/2021  17:18:00       -5.642      197.447       -8.664       71.597       77.264       41.831     5126.091     5969.703     1749.857        2.597        0.642      197.527       35.617        0.033      332.552        1.286      858.060
12/09/2021  17:19:00      -36.408      131.680      -20.016       49.136       57.747       27.979     2414.375     3334.760      782.841        1.280        0.327      136.620       24.405        0.032      332.605        1.375      858.055
12/09/2021  17:20:00      -23.250      128.865      -15.153       71.430       70.918       32.779     5102.243     5029.404     1074.468        1.429        0.560      130.945       23.322        0.032      332.586        1.344      858.054
12/09/2021  17:21:00      -51.079      139.505      -14.029       52.554       51.431       29.988     2761.951     2645.189      899.282        1.429        0.315      148.562       11.713        0.006      332.669        1.483      858.056
12/09/2021  17:22:00      -33.116      194.690      -17.941       66.411       56.946       33.191     4410.406     3242.866     1101.650        2.404        0.438      197.487       30.215        0.023      332.556        1.293      858.056
12/09/2021  17:23:00      -53.434      178.463      -14.379       65.698       62.837       35.783     4316.237     3948.449     1280.414        2.223        0.477      186.291       30.232        0.026      332.608        1.379      858.069
12/09/2021  17:24:00      -55.128      167.025      -17.896       54.461       49.355       31.732     2966.046     2435.883     1006.911        1.883        0.320      175.887       22.162        0.016      332.603        1.371      858.078
12/09/2021  17:25:00      -58.896      173.213      -24.472       58.915       50.997       32.030     3470.944     2600.673     1025.912        2.058        0.355      182.952       22.852        0.016      332.586        1.344      858.087
12/09/2021  17:26:00      -68.026       91.292      -20.422       54.054       75.684       43.890     2921.804     5728.068     1926.357        1.198        0.529      113.850       27.568        0.059      332.575        1.327      858.083
12/09/2021  17:27:00      -53.229      193.737      -14.911       60.124       69.166       40.777     3614.925     4784.001     1662.802        2.532        0.503      200.916       32.144        0.026      332.559        1.297      858.074
12/09/2021  17:28:00      -36.991      156.558      -10.765       49.733       66.690       33.266     2473.382     4447.607     1106.633        1.701        0.401      160.869       29.547        0.034      332.531        1.253      858.067
12/09/2021  17:29:00      -76.042      219.443      -30.848       71.230      106.828       50.099     5073.725    11412.153     2509.869        3.694        0.950      232.244       51.484        0.049      332.572        1.320      858.069
12/09/2021  17:30:00      -61.693      252.494      -25.841       59.980       82.637       39.438     3597.568     6828.793     1555.330        4.010        0.599      259.921       35.541        0.019      332.585        1.338      858.073
12/09/2021  17:31:00      -45.395      234.923      -29.022       48.271       45.315       28.063     2330.105     2053.421      787.509        3.163        0.259      239.269       16.654        0.005      332.554        1.287      858.087
12/09/2021  17:32:00      -70.239      205.387      -27.709       67.284       80.362       38.467     4527.141     6458.050     1479.706        3.017        0.623      217.065       30.147        0.019      332.569        1.312      858.093
12/09/2021  17:33:00      -86.397      218.122      -14.252       61.832       61.295       42.576     3823.138     3757.130     1812.751        3.232        0.470      234.610       23.525        0.010      332.599        1.361      858.090
12/09/2021  17:34:00      -65.529      233.431      -23.262       67.369       76.353       36.867     4538.612     5829.739     1359.195        3.552        0.586      242.454       30.695        0.016      332.597        1.359      858.078
12/09/2021  17:35:00      -76.838      168.869      -15.811       53.538       63.742       36.718     2866.301     4063.060     1348.215        2.147        0.414      185.528       20.898        0.013      332.638        1.428      858.060
12/09/2021  17:36:00      -75.000      199.348      -31.297       61.934       62.302       33.705     3835.767     3881.553     1136.036        2.760        0.443      212.990       16.538        0.006      332.595        1.356      858.061
12/09/2021  17:37:00      -73.981      180.190      -16.037       66.251       72.726       39.957     4389.159     5289.014     1596.545        2.473        0.564      194.786       29.191        0.022      332.620        1.398      858.055
12/09/2021  17:38:00      -57.379      175.549      -16.741       52.061       76.274       35.493     2710.335     5817.793     1259.742        2.209        0.489      184.689       25.360        0.019      332.641        1.434      858.059
12/09/2021  17:39:00      -38.774      211.613      -22.827       75.703      102.764       40.611     5730.910    10560.374     1649.279        3.237        0.897      215.136       27.084        0.016      332.569        1.314      858.077
12/09/2021  17:40:00     -109.090      122.943       -9.499       99.915       45.092       38.003     9982.982     2033.321     1444.241        2.028        0.673      164.364       27.067        0.027      332.550        1.284      858.091
12/09/2021  17:41:00      -70.583      139.497       -9.488       59.142       70.793       36.554     3497.772     5011.634     1336.197        1.719        0.492      156.338       29.698        0.036      332.620        1.401      858.090
12/09/2021  17:42:00      -66.425      264.981      -37.321       54.274       81.062       39.982     2945.713     6571.031     1598.542        4.357        0.556      273.180       30.586        0.013      332.581        1.333      858.092
12/09/2021  17:43:00      -91.543      173.652      -22.237       92.970       77.205       38.754     8643.402     5960.606     1501.884        2.756        0.805      196.304       35.749        0.033      332.588        1.344      858.091
12/09/2021  17:44:00      -24.910      143.514      -10.029       56.752       69.351       38.309     3220.839     4809.586     1467.609        1.541        0.475      145.660       30.192        0.043      332.569        1.315      858.106
12/09/2021  17:45:00      -61.949      235.649      -16.025       46.705       78.289       39.691     2181.359     6129.103     1575.344        3.475        0.494      243.656       34.853        0.020      332.572        1.317      858.123
12/09/2021  17:46:00      -52.392      157.050      -22.023       43.483       73.121       31.939     1890.786     5346.712     1020.090        1.807        0.413      165.559       12.333        0.006      332.625        1.408      858.147
12/09/2021  17:47:00      -59.180      256.577      -29.975       81.337       63.794       39.060     6615.737     4069.650     1525.713        4.122        0.611      263.313       20.638        0.006      332.597        1.357      858.150
12/09/2021  17:48:00      -77.541      197.685      -19.617       51.464       73.634       38.237     2648.537     5422.024     1462.030        2.750        0.477      212.349       26.900        0.016      332.625        1.407      858.154
12/09/2021  17:49:00      -66.082      193.344       -6.738       61.374       60.680       40.947     3766.727     3682.093     1676.628        2.546        0.456      204.325       25.835        0.016      332.682        1.501      858.164
12/09/2021  17:50:00      -77.940      230.615      -31.022       72.542       91.405       38.458     5262.294     8354.899     1478.999        3.766        0.755      243.429       27.843        0.013      332.638        1.428      858.174
12/09/2021  17:51:00      -71.847      206.105      -16.731       75.600       87.307       44.900     5715.354     7622.532     2016.014        3.163        0.768      218.269       39.807        0.033      332.621        1.398      858.186
12/09/2021  17:52:00      -49.663      276.288      -25.408       70.560       74.783       45.741     4978.692     5592.525     2092.216        4.605        0.633      280.716       35.186        0.016      332.597        1.358      858.189
12/09/2021  17:53:00      -78.165      245.147      -20.286       56.642       78.171       40.994     3208.298     6110.741     1680.481        3.881        0.550      257.307       35.213        0.019      332.645        1.439      858.188
12/09/2021  17:54:00      -42.131      139.008      -11.251       54.871       48.628       34.185     3010.822     2364.659     1168.628        1.388        0.327      145.253       29.820        0.042      332.629        1.414      858.181
12/09/2021  17:55:00      -55.389      216.781      -26.916       61.260       86.877       38.710     3752.804     7547.589     1498.445        3.179        0.640      223.745       26.538        0.014      332.598        1.361      858.184
12/09/2021  17:56:00      -78.378      204.770      -17.209       59.434       82.753       33.727     3532.409     6848.130     1137.487        2.994        0.576      219.258       36.769        0.028      332.613        1.387      858.188
12/09/2021  17:57:00      -60.151      194.296      -19.871       73.074       69.710       48.339     5339.743     4859.495     2336.687        2.715        0.627      203.394       45.066        0.049      332.624        1.404      858.190
12/09/2021  17:58:00      -26.862      230.715      -25.168       64.864       75.229       36.256     4207.338     5659.412     1314.485        3.288        0.559      232.273       29.242        0.016      332.643        1.435      858.187
12/09/2021  17:59:00      -35.359      214.043       -9.982       80.235       67.433       43.515     6437.596     4547.226     1893.571        3.002        0.644      216.943       32.906        0.023      332.647        1.442      858.191
12/09/2021  18:00:00      -32.264      115.573       -8.401       58.818       69.706       44.028     3459.574     4858.886     1938.459        1.236        0.513      119.992       32.979        0.076      332.611        1.385      858.190
12/09/2021  18:01:00      -18.166      280.717      -30.179       66.251       66.462       43.182     4389.204     4417.177     1864.709        4.535        0.534      281.304       34.915        0.015      332.581        1.332      858.199
12/09/2021  18:02:00      -59.221      150.706      -12.339       72.464       65.423       37.478     5250.980     4280.157     1404.618        1.865        0.547      161.924       26.216        0.026      332.629        1.414      858.192
12/09/2021  18:03:00       12.981      201.383      -16.290       48.952       63.242       39.460     2396.301     3999.552     1557.081        2.447        0.398      201.801       35.746        0.031      332.594        1.354      858.184
12/09/2021  18:04:00      -20.857      186.545      -15.904       51.193       67.141       38.185     2620.764     4507.907     1458.071        2.204        0.429      187.707       38.045        0.041      332.598        1.363      858.194
12/09/2021  18:05:00       -9.186      233.346      -25.086       51.127       71.401       34.865     2613.951     5098.102     1215.564        3.204        0.446      233.526       36.708        0.025      332.501        1.202      858.205
12/09/2021  18:06:00      -36.987      186.333      -25.457       41.526       66.688       32.673     1724.447     4447.275     1067.495        2.199        0.362      189.968       18.959        0.010      332.480        1.167      858.222
12/09/2021  18:07:00        4.036      217.873      -19.584       54.678       62.773       27.556     2989.632     3940.497      759.353        2.778        0.384      217.910       28.728        0.017      332.481        1.170      858.237
12/09/2021  18:08:00       -8.751      232.614      -20.378       54.764       78.949       34.614     2999.072     6233.013     1198.139        3.251        0.522      232.779       38.365        0.027      332.491        1.186      858.253
12/09/2021  18:09:00       -2.100      176.752      -11.428       59.226       67.234       32.059     3507.751     4520.376     1027.764        2.021        0.453      176.764       31.844        0.032      332.527        1.246      858.269
12/09/2021  18:10:00      -18.711      128.568       -7.880       52.408       50.044       37.571     2746.549     2504.443     1411.552        1.180        0.333      129.922       28.277        0.047      332.486        1.178      858.281
12/09/2021  18:11:00       -8.742      217.101      -20.876       61.509       65.468       37.341     3783.400     4286.079     1394.343        2.855        0.473      217.277       32.328        0.022      332.481        1.168      858.295
12/09/2021  18:12:00      -22.620      115.671       -9.665       79.733       90.735       46.875     6357.272     8232.777     2197.255        1.538        0.839      117.862       20.176        0.029      332.471        1.155      858.315
12/09/2021  18:13:00      -26.078      136.903      -20.177       46.979       64.239       37.998     2207.053     4126.672     1443.844        1.380        0.389      139.365       19.248        0.019      332.505        1.210      858.333
12/09/2021  18:14:00       -0.481      179.363      -10.031       58.232       52.620       33.373     3390.987     2768.862     1113.776        1.977        0.364      179.363       27.002        0.023      332.458        1.132      858.350
12/09/2021  18:15:00       23.236      172.000      -10.711       49.676       86.129       36.819     2467.679     7418.149     1355.650        2.074        0.562      173.562       36.743        0.045      332.428        1.082      858.365
12/09/2021  18:16:00       -1.293      213.958      -23.231       76.351       64.581       45.616     5829.434     4170.743     2080.797        2.920        0.604      213.962       41.882        0.038      332.482        1.169      858.388
12/09/2021  18:17:00       -5.405      198.371      -22.172       63.407       84.626       43.417     4020.385     7161.528     1885.066        2.647        0.653      198.444       34.630        0.030      332.436        1.094      858.407
12/09/2021  18:18:00      -36.718      152.077      -19.902       47.511       81.021       30.861     2257.306     6564.411      952.413        1.732        0.489      156.447       31.427        0.040      332.392        1.024      858.425
12/09/2021  18:19:00      -51.462      147.524      -10.512       31.229       62.135       25.830      975.247     3860.719      667.199        1.501        0.275      156.242       13.851        0.008      332.433        1.091      858.452
12/09/2021  18:20:00      -82.875      117.125      -15.050       60.296       65.417       35.892     3635.592     4279.333     1288.238        1.501        0.460      143.480       35.522        0.061      332.435        1.094      858.472
12/09/2021  18:21:00      -23.850       94.169      -10.982       49.462       71.197       30.164     2446.534     5068.990      909.868        0.899        0.421       97.142       20.084        0.043      332.368        0.983      858.481
12/09/2021  18:22:00      -19.824       27.121       -1.690       47.869       33.386       27.832     2291.450     1114.650      774.598        0.266        0.209       33.593        8.046        0.057      332.384        1.012      858.500
12/09/2021  18:23:00      -86.252        5.314       -8.951       53.376       43.324       33.359     2849.046     1876.979     1112.844        0.669        0.292       86.416       28.669        0.110      332.324        0.912      858.507
12/09/2021  18:24:00      -43.593       21.292       -9.047       37.155       48.281       28.273     1380.469     2331.084      799.351        0.347        0.226       48.515       19.003        0.153      332.329        0.920      858.524
12/09/2021  18:25:00      -69.902        7.189       -2.219       64.105       36.831       32.558     4109.490     1356.541     1059.995        0.573        0.326       70.270       30.730        0.191      332.281        0.841      858.543
12/09/2021  18:26:00      -22.684      -14.049       -8.201       52.385       33.579       28.210     2744.158     1127.521      795.813        0.272        0.233       26.682       26.010        0.950      332.209        0.724      858.567
12/09/2021  18:27:00      -45.677       25.730       -0.383       44.586       40.362       30.545     1987.938     1629.053      932.992        0.365        0.227       52.426       23.026        0.193      332.158        0.636      858.603
12/09/2021  18:28:00      -87.186       -2.907       -6.017       49.686       38.033       36.483     2468.658     1446.485     1331.043        0.645        0.262       87.235       22.436        0.066      332.108        0.555      858.636
12/09/2021  18:29:00      -80.545       10.824      -14.552       71.709       41.003       37.120     5142.168     1681.262     1377.912        0.751        0.410       81.269       37.569        0.214      332.080        0.510      858.666
12/09/2021  18:30:00      -80.621        5.298      -20.092       52.597       44.840       27.922     2766.392     2010.615      779.657        0.624        0.278       80.795       25.593        0.100      332.051        0.462      858.697
12/09/2021  18:31:00      -62.340       -0.263       -4.688       74.944       32.812       27.750     5616.607     1076.601      770.080        0.568        0.373       62.341       34.205        0.301      332.079        0.507      858.728
12/09/2021  18:32:00        2.810        1.175       -4.960       31.957       29.350       18.561     1021.274      861.448      344.498        0.113        0.111        3.046       13.304       19.077      332.098        0.538      858.723
12/09/2021  18:33:00        1.269       10.827        1.832       40.389       37.436       29.905     1631.255     1401.490      894.306        0.202        0.196       10.901       28.121        6.655      332.077        0.504      858.725
12/09/2021  18:34:00      -22.711        3.194      -15.905       24.120       45.794       32.836      581.774     2097.091     1078.209        0.227        0.188       22.934       26.534        1.339      332.075        0.501      858.738
12/09/2021  18:35:00       -1.025       22.855      -12.391       48.321       35.344       32.993     2334.896     1249.217     1088.517        0.267        0.234       22.878       23.301        1.037      332.108        0.554      858.746
12/09/2021  18:36:00      -92.204       41.242      -18.356       47.725       49.387       25.341     2277.631     2439.121      642.147        0.795        0.268      101.007       17.448        0.030      332.044        0.451      858.765
12/09/2021  18:37:00      -79.430       21.507      -11.015       38.129       34.308       18.762     1453.828     1177.063      352.019        0.494        0.149       82.290       13.222        0.026      332.075        0.501      858.784
12/09/2021  18:38:00     -107.251       34.551       -9.203       43.321       42.261       28.195     1876.720     1786.009      794.936        0.862        0.223      112.679       27.022        0.058      332.056        0.471      858.799
12/09/2021  18:39:00      -83.122       71.952      -22.384       48.706       37.365       23.474     2372.249     1396.127      551.037        0.845        0.216      109.937       18.162        0.027      332.026        0.421      858.816
12/09/2021  18:40:00      -79.441       24.103      -16.120       30.619       41.693       22.729      937.525     1738.326      516.601        0.517        0.160       83.017       19.908        0.058      332.058        0.473      858.832
12/09/2021  18:41:00      -71.244       40.524      -23.688       40.689       31.227       21.391     1655.568      975.110      457.556        0.518        0.154       81.963       13.576        0.027      332.020        0.412      858.858
12/09/2021  18:42:00      -48.318       18.930      -17.837       44.104       28.220       20.139     1945.164      796.355      405.590        0.308        0.157       51.894       16.536        0.102      332.073        0.499      858.870
12/09/2021  18:43:00      -54.655       23.901       -7.982       28.024       30.653       26.062      785.372      939.577      679.249        0.301        0.120       59.652       14.045        0.055      332.121        0.577      858.888
12/09/2021  18:44:00      -65.278       12.635       -4.820       37.049       40.127       23.980     1372.609     1610.146      575.055        0.400        0.178       66.489       21.727        0.107      332.149        0.623      858.900
12/09/2021  18:45:00      -80.261       54.632      -13.906       33.398       30.112       21.358     1115.427      906.719      456.158        0.605        0.124       97.090       10.010        0.011      332.093        0.531      858.917
12/09/2021  18:46:00      -75.154       21.766      -17.834       31.641       21.556       19.973     1001.156      464.643      398.903        0.415        0.093       78.243       14.893        0.036      332.108        0.556      858.943
12/09/2021  18:47:00      -78.447        6.023       -4.320       56.485       36.517       33.345     3190.596     1333.501     1111.882        0.592        0.282       78.678       32.608        0.172      332.164        0.648      858.962
12/09/2021  18:48:00      -55.768       20.667       -5.914       30.894       34.394       16.555      954.414     1182.941      274.063        0.299        0.121       59.474       11.482        0.037      332.145        0.617      858.983
12/09/2021  18:49:00       -1.139       14.755       -0.415       21.155       39.634       13.317      447.525     1570.837      177.336        0.121        0.110       14.799       16.431        1.233      332.200        0.708      858.999
12/09/2021  18:50:00      -16.503       40.193      -11.493       16.070       23.480       16.047      258.239      551.303      257.501        0.154        0.053       43.449       10.349        0.057      332.181        0.676      859.019
12/09/2021  18:51:00      -35.400       17.432      -12.547       32.451       42.802       23.930     1053.068     1831.998      572.636        0.259        0.173       39.459       15.981        0.164      332.152        0.629      859.033
12/09/2021  18:52:00      -13.625       29.677       -2.845       16.408       29.436       13.729      269.219      866.452      188.495        0.120        0.066       32.655       13.337        0.167      332.123        0.580      859.058
12/09/2021  18:53:00      -36.167       50.973      -15.872       23.181       25.597       19.260      537.361      655.202      370.943        0.286        0.078       62.500        9.641        0.024      332.159        0.640      859.084
12/09/2021  18:54:00       -2.678       73.214      -11.045       36.972       29.866       18.443     1366.927      891.978      340.126        0.404        0.130       73.263        9.423        0.017      332.090        0.527      859.088
12/09/2021  18:55:00       91.752       61.936      -17.474       38.070       18.112       16.815     1449.340      328.041      282.756        0.731        0.103      110.700       17.386        0.025      332.037        0.440      859.079
12/09/2021  18:56:00       67.868       50.784      -12.154       17.346       13.996       14.858      300.877      195.884      220.768        0.403        0.036       84.765        5.551        0.004      332.005        0.386      859.067
12/09/2021  18:57:00       31.815       52.758       -3.250       30.701       25.992       14.834      942.551      675.576      220.051        0.282        0.092       61.609       15.879        0.066      331.878        0.180      859.069
12/09/2021  18:58:00       37.260       54.476       -7.214       38.417       20.671       19.188     1475.894      427.288      368.172        0.334        0.114       66.000       17.261        0.068      331.926        0.257      859.071
12/09/2021  18:59:00      118.381       61.309      -14.169       11.582       14.518       10.000      134.146      210.759      100.009        0.921        0.022      133.315        1.289        0.000      331.932        0.263      859.084
12/09/2021  19:00:00      141.229       50.991      -15.102       14.455       12.779        8.568      208.947      163.314       73.408        1.161        0.022      150.153        3.982        0.001      331.917        0.243      859.092
12/09/2021  19:01:00      119.579       46.874      -12.242       23.051       18.578       12.176      531.346      345.127      148.260        0.884        0.051      128.438       10.976        0.007      331.859        0.147      859.104
12/09/2021  19:02:00       99.699       49.230      -10.598       25.349       20.352        9.918      642.561      414.197       98.361        0.682        0.058      111.191       10.825        0.009      331.822        0.087      859.102
12/09/2021  19:03:00       84.643       30.654      -13.923       36.839       15.628       12.209     1357.105      244.233      149.064        0.502        0.088       90.023        5.930        0.004      331.862        0.151      859.095
12/09/2021  19:04:00        5.465       70.624      -10.906       13.599       20.526       10.831      184.925      421.297      117.305        0.293        0.036       70.835        4.708        0.004      331.901        0.216      859.097
12/09/2021  19:05:00       14.972       35.044       -3.122       27.006       13.762        8.153      729.318      189.387       66.463        0.122        0.049       38.109        5.866        0.024      331.888        0.194      859.084
12/09/2021  19:06:00       69.741       61.574      -11.234       39.019       23.379       20.281     1522.450      546.588      411.326        0.563        0.124       93.033       21.586        0.054      331.940        0.279      859.085
12/09/2021  19:07:00       12.232       73.055      -13.963       23.115       23.305       16.086      534.290      543.116      258.758        0.351        0.067       74.072        6.605        0.008      332.052        0.464      859.098
12/09/2021  19:08:00      -42.042      126.282      -20.175       31.994       27.014       19.597     1023.588      729.752      384.042        1.013        0.107      133.097       10.277        0.006      332.001        0.381      859.115
12/09/2021  19:09:00      -51.736       59.579      -10.576       38.657       29.910       13.124     1494.352      894.636      172.243        0.445        0.128       78.907       13.424        0.029      331.949        0.292      859.142
12/09/2021  19:10:00      -44.863       70.252      -10.810       27.183       14.271       14.356      738.924      203.664      206.090        0.411        0.057       83.355        8.276        0.010      331.979        0.345      859.158
12/09/2021  19:11:00      -57.852       53.900      -12.025       20.397       23.271       18.739      416.042      541.540      351.162        0.385        0.065       79.070       12.705        0.026      332.000        0.377      859.167
12/09/2021  19:12:00      -58.128       43.053       -6.978       24.475       21.516       16.216      599.041      462.923      262.954        0.330        0.066       72.335       15.691        0.047      331.947        0.292      859.181
12/09/2021  19:13:00      -52.675       35.063      -18.862       36.317       22.859       19.587     1318.912      522.527      383.661        0.329        0.111       63.277       19.167        0.092      331.979        0.343      859.186
12/09/2021  19:14:00      -71.209       36.939      -20.151       30.584       21.315       16.147      935.353      454.325      260.732        0.425        0.083       80.220       16.653        0.043      331.970        0.329      859.191
12/09/2021  19:15:00      -55.610       56.080      -23.313       37.009       36.382       17.064     1369.644     1323.653      291.179        0.488        0.149       78.977        9.249        0.014      331.976        0.339      859.198
12/09/2021  19:16:00      -38.832       71.039       -8.390       40.492       36.095       22.152     1639.610     1302.818      490.715        0.503        0.172       80.960        9.159        0.013      331.948        0.294      859.213
12/09/2021  19:17:00      -30.222      111.133      -13.031       29.113       41.689       22.945      847.552     1737.985      526.477        0.827        0.156      115.169       10.429        0.008      332.006        0.388      859.237
12/09/2021  19:18:00      -41.012      156.369      -13.904       30.265       50.950       19.547      915.945     2595.857      382.066        1.511        0.195      161.658       18.368        0.013      331.946        0.290      859.258
12/09/2021  19:19:00      -55.532      134.805       -8.601       35.660       31.934       22.626     1271.655     1019.771      511.943        1.207        0.140      145.795       15.180        0.011      332.006        0.389      859.284
12/09/2021  19:20:00      -33.827       95.584       -7.552       33.417       37.839       20.801     1116.729     1431.816      432.688        0.666        0.149      101.393       13.411        0.017      332.025        0.420      859.310
12/09/2021  19:21:00      -20.277      125.117      -10.888       32.144       29.639       20.905     1033.215      878.444      437.011        0.927        0.117      126.749       17.950        0.020      332.017        0.406      859.327
12/09/2021  19:22:00      -20.038      102.965       -9.061       34.140       36.201       22.926     1165.539     1310.492      525.612        0.704        0.150      104.897       20.170        0.037      331.847        0.128      859.353
12/09/2021  19:23:00      -35.841       60.580      -17.375       41.045       26.778       20.288     1684.725      717.061      411.587        0.403        0.141       70.388       13.395        0.036      331.858        0.145      859.357
12/09/2021  19:24:00      -70.363       90.237      -16.459       27.401       32.579       19.541      750.804     1061.409      381.854        0.778        0.110      114.427       16.583        0.021      331.949        0.294      859.348
12/09/2021  19:25:00      -68.835       47.269      -14.916       22.349       22.342       15.778      499.497      499.178      248.955        0.422        0.062       83.502       11.933        0.020      331.857        0.142      859.336
12/09/2021  19:26:00      -52.180        8.848      -16.454       61.281       34.972       21.286     3755.404     1223.019      453.083        0.425        0.272       52.925       30.051        0.322      331.881        0.184      859.327
12/09/2021  19:27:00      -48.545       35.672      -10.728       26.246       20.079       17.190      688.866      403.173      295.513        0.257        0.069       60.241       12.017        0.040      331.875        0.172      859.333
12/09/2021  19:28:00       -3.995        1.913       -3.072       21.253       30.729       13.972      451.696      944.250      195.211        0.081        0.080        4.429        9.520        4.620      331.850        0.131      859.358
12/09/2021  19:29:00      -43.993       35.190       -9.456       30.404       22.224       15.679      924.407      493.918      245.818        0.246        0.083       56.336        9.792        0.030      331.888        0.195      859.397
12/09/2021  19:30:00      -52.693       45.483      -12.867       40.315       24.005       20.761     1625.289      576.217      431.011        0.382        0.132       69.608       15.041        0.047      331.920        0.247      859.431
12/09/2021  19:31:00      -14.988       98.362      -16.503       31.690       45.332       14.667     1004.258     2055.014      215.111        0.672        0.164       99.498       10.134        0.010      331.915        0.238      859.455
12/09/2021  19:32:00       27.223      110.487       -1.943       40.306       48.514       29.583     1624.596     2353.636      875.163        0.890        0.243      113.791       27.554        0.059      331.926        0.256      859.468
12/09/2021  19:33:00       11.843      105.651      -27.700       57.446       62.315       34.523     3300.067     3883.105     1191.867        1.022        0.419      106.313       24.966        0.055      331.911        0.232      859.483
12/09/2021  19:34:00      -19.484      170.614      -15.577       53.235       67.791       32.448     2834.001     4595.608     1052.842        1.911        0.424      171.723       26.321        0.023      331.949        0.294      859.486
12/09/2021  19:35:00      -20.180      198.224      -19.423       86.607       81.861       31.901     7500.776     6701.172     1017.662        2.765        0.761      199.248       33.941        0.029      332.014        0.399      859.495
12/09/2021  19:36:00      -35.696      106.426      -18.251       66.340       43.150       33.344     4401.013     1861.883     1111.828        1.015        0.369      112.253       16.698        0.022      332.049        0.459      859.516
12/09/2021  19:37:00       -2.324      143.866      -14.729       57.905       48.758       32.016     3352.990     2377.379     1025.010        1.384        0.338      143.884       23.594        0.027      332.135        0.600      859.521
12/09/2021  19:38:00      -17.821      122.791       -5.223       62.661       61.817       31.852     3926.446     3821.377     1014.535        1.209        0.438      124.077       21.929        0.031      332.089        0.524      859.537
12/09/2021  19:39:00      -63.363      145.084      -14.903       44.013       48.264       31.739     1937.134     2329.384     1007.370        1.528        0.264      158.316       19.286        0.015      332.219        0.739      859.536
12/09/2021  19:40:00      -41.825      171.241      -19.533       46.684       50.966       35.183     2179.441     2597.517     1237.874        1.873        0.301      176.275       27.553        0.024      332.222        0.743      859.525
12/09/2021  19:41:00      -56.811      179.697      -20.756       58.903       43.200       32.032     3469.563     1866.221     1026.059        2.115        0.318      188.464       19.743        0.011      332.230        0.755      859.519
12/09/2021  19:42:00      -37.330      223.285      -19.280       40.444       50.955       29.377     1635.734     2596.448      862.994        2.836        0.255      226.384       18.455        0.007      332.224        0.744      859.513
12/09/2021  19:43:00      -38.029      198.964      -15.599       49.501       51.356       36.708     2450.337     2637.425     1347.496        2.385        0.322      202.566       25.079        0.015      332.240        0.772      859.502
12/09/2021  19:44:00      -12.327      195.061       -8.339       39.836       59.526       31.986     1586.900     3543.395     1023.091        2.221        0.308      195.450       22.774        0.014      332.195        0.699      859.495
12/09/2021  19:45:00      -22.461      235.603      -22.287       48.642       67.702       39.787     2366.049     4583.571     1583.033        3.252        0.427      236.672       35.719        0.023      332.300        0.869      859.490
12/09/2021  19:46:00      -25.623      213.608      -18.706       50.650       55.085       32.561     2565.373     3034.337     1060.208        2.665        0.333      215.139       22.969        0.011      332.276        0.831      859.493
12/09/2021  19:47:00      -25.399      117.916      -11.758       32.287       51.786       26.088     1042.453     2681.814      680.560        0.955        0.220      120.621       14.254        0.014      332.296        0.864      859.498
12/09/2021  19:48:00      -42.193      188.795      -23.311       59.669       60.110       28.361     3560.416     3613.160      804.328        2.297        0.399      193.452       23.999        0.015      332.287        0.851      859.516
12/09/2021  19:49:00      -36.008      201.943       -8.329       48.468       66.260       40.835     2349.160     4390.410     1667.511        2.528        0.420      205.129       37.698        0.034      332.246        0.782      859.539
12/09/2021  19:50:00      -51.384      161.382      -24.969       51.979       50.735       42.510     2701.861     2574.084     1807.090        1.819        0.354      169.365       25.250        0.022      332.312        0.891      859.540
12/09/2021  19:51:00      -37.482      235.580      -26.514       50.234       61.020       29.800     2523.483     3723.486      888.020        3.237        0.357      238.544       25.579        0.011      332.255        0.796      859.548
12/09/2021  19:52:00      -35.640      231.819      -19.622       60.295       71.016       38.322     3635.467     5043.339     1468.595        3.277        0.507      234.543       34.579        0.022      332.252        0.791      859.561
12/09/2021  19:53:00      -62.367      233.278      -19.146       54.753       72.689       30.344     2997.868     5283.671      920.730        3.394        0.460      241.471       21.434        0.008      332.228        0.751      859.573
12/09/2021  19:54:00      -56.179      226.238      -22.672       84.439       71.427       37.157     7129.991     5101.768     1380.640        3.423        0.681      233.109       26.961        0.013      332.219        0.735      859.581
12/09/2021  19:55:00       -5.713      212.440      -18.267       53.411       56.588       35.159     2852.784     3202.179     1236.176        2.639        0.365      212.516       31.633        0.022      332.203        0.710      859.582
12/09/2021  19:56:00      -21.382      188.849      -18.872       62.234       80.219       35.001     3873.069     6435.157     1225.077        2.400        0.577      190.056       37.020        0.038      332.252        0.792      859.584
12/09/2021  19:57:00      -53.717      174.475      -20.414       57.882       43.653       31.748     3350.295     1905.614     1007.918        2.000        0.313      182.557       17.838        0.010      332.206        0.716      859.587
12/09/2021  19:58:00      -24.047      204.380      -28.855       52.935       74.950       36.382     2802.113     5617.487     1323.639        2.646        0.487      205.790       31.211        0.023      332.214        0.728      859.593
12/09/2021  19:59:00      -46.093      212.799      -20.476       58.720       60.116       31.938     3448.007     3613.980     1020.067        2.795        0.404      217.733       32.870        0.023      332.219        0.737      859.603
12/09/2021  20:00:00      -53.631      149.021      -26.263       64.589       74.013       40.711     4171.699     5477.990     1657.420        1.854        0.565      158.378       35.497        0.050      332.222        0.743      859.612
12/09/2021  20:01:00      -20.915      155.080      -15.420       68.333       80.531       43.143     4669.334     6485.168     1861.352        1.887        0.651      156.484       46.050        0.087      332.164        0.647      859.617
12/09/2021  20:02:00        5.117      144.867      -13.377       62.782       66.733       38.347     3941.638     4453.238     1470.494        1.553        0.493      144.957       36.503        0.063      332.151        0.626      859.618
12/09/2021  20:03:00       34.198      226.644      -24.457       64.751       58.950       36.855     4192.730     3475.048     1358.267        3.108        0.451      229.209       29.222        0.016      332.143        0.612      859.614
12/09/2021  20:04:00       42.200      241.631      -24.254       57.165       69.676       39.147     3267.803     4854.705     1532.482        3.520        0.483      245.288       35.885        0.021      332.100        0.539      859.624
12/09/2021  20:05:00       15.571      211.540      -10.693       65.766       68.725       37.079     4325.142     4723.171     1374.853        2.776        0.521      212.112       38.295        0.033      332.063        0.482      859.638
12/09/2021  20:06:00       15.820      188.441      -16.093       72.379       64.077       35.566     5238.700     4105.872     1264.975        2.331        0.530      189.104       33.675        0.032      332.040        0.442      859.656
12/09/2021  20:07:00        3.324      264.021      -18.482       72.018       96.498       43.654     5186.558     9311.871     1905.629        4.323        0.820      264.042       46.535        0.031      332.074        0.498      859.659
12/09/2021  20:08:00      -31.295      274.360      -29.206       55.335       81.747       32.936     3061.925     6682.645     1084.769        4.397        0.541      276.139       29.228        0.011      332.092        0.526      859.669
12/09/2021  20:09:00      -12.061      244.132      -23.222       84.134       89.925       39.902     7078.451     8086.480     1592.155        3.852        0.838      244.430       40.836        0.028      332.117        0.570      859.670
12/09/2021  20:10:00      -52.541      224.150      -32.951       72.475       74.118       41.318     5252.662     5493.505     1707.202        3.327        0.623      230.226       19.731        0.007      332.130        0.590      859.673
12/09/2021  20:11:00      -30.566      177.587      -14.000       77.760       86.888       40.239     6046.585     7549.461     1619.171        2.394        0.761      180.198       32.203        0.032      332.133        0.595      859.671
12/09/2021  20:12:00      -35.573      172.238      -20.482       72.647       69.956       47.632     5277.630     4893.883     2268.801        2.189        0.622      175.873       17.548        0.010      332.159        0.637      859.674
12/09/2021  20:13:00      -43.361      124.274      -16.798       53.117       54.578       35.102     2821.367     2978.741     1232.118        1.232        0.352      131.621       19.088        0.021      332.160        0.640      859.684
12/09/2021  20:14:00      -54.887      160.711      -18.420       70.532       99.582       42.013     4974.780     9916.671     1765.097        2.292        0.833      169.825       38.192        0.051      332.082        0.511      859.685
12/09/2021  20:15:00      -42.208       85.961      -13.381       51.967       57.368       29.323     2700.562     3291.067      859.844        0.810        0.343       95.765       16.040        0.028      332.081        0.511      859.682
12/09/2021  20:16:00      -38.340       92.753      -21.250       47.925       62.710       37.185     2296.813     3932.531     1382.716        0.907        0.381      100.364       25.299        0.064      332.089        0.524      859.687
12/09/2021  20:17:00      -45.043       62.200      -10.166       52.603       55.129       32.935     2767.105     3039.153     1084.705        0.644        0.345       76.797       18.105        0.056      332.048        0.457      859.701
12/09/2021  20:18:00     -103.222       62.787      -17.529       61.220       58.078       37.778     3747.858     3373.057     1427.208        1.172        0.427      120.818       25.681        0.045      332.006        0.388      859.725
12/09/2021  20:19:00      -72.407      126.681      -28.185      101.746       66.731       49.610    10352.153     4453.085     2461.136        1.967        0.863      145.914       43.984        0.091      331.996        0.370      859.737
12/09/2021  20:20:00     -114.850      193.271      -31.957       89.420       77.547       47.074     7995.926     6013.545     2215.998        3.389        0.811      224.820       28.912        0.017      331.998        0.373      859.746
12/09/2021  20:21:00      -22.817       90.372      -20.206       62.701       75.150       51.309     3931.420     5647.512     2632.563        1.065        0.611       93.208       27.488        0.087      331.989        0.360      859.753
12/09/2021  20:22:00      -37.861       42.176      -20.885       53.844       53.187       42.631     2899.145     2828.837     1817.394        0.560        0.377       56.677       30.900        0.297      332.011        0.396      859.749
12/09/2021  20:23:00      -17.882       85.851       -7.849       51.245       94.520       36.289     2626.042     8933.991     1316.881        1.031        0.644       87.694       21.948        0.063      331.958        0.309      859.752
12/09/2021  20:24:00      -50.501       87.315      -23.717       82.812       56.066       39.590     6857.785     3143.363     1567.380        1.115        0.578      100.867       23.816        0.056      331.951        0.296      859.761
12/09/2021  20:25:00        1.553       89.336        1.100       31.516       57.625       30.229      993.244     3320.609      913.821        0.661        0.261       89.350       19.407        0.047      331.937        0.273      859.770
12/09/2021  20:26:00      -73.189      114.872      -38.985       96.031       69.341       50.800     9222.032     4808.169     2580.630        1.834        0.831      136.207       41.505        0.093      331.991        0.361      859.773
12/09/2021  20:27:00      -79.293      188.171      -36.858       91.816       73.121       48.713     8430.170     5346.727     2372.972        2.960        0.807      204.195       27.728        0.018      331.964        0.317      859.768
12/09/2021  20:28:00      -59.559      169.135      -30.967       68.815       76.173       40.106     4735.452     5802.279     1608.452        2.263        0.607      179.315       13.527        0.006      331.966        0.321      859.788
12/09/2021  20:29:00      -11.396      114.254      -28.673       47.361       52.928       32.312     2243.033     2801.343     1044.087        1.005        0.304      114.821       15.061        0.017      331.943        0.284      859.802
12/09/2021  20:30:00      -30.683      123.561      -14.234       55.587       90.900       41.022     3089.921     8262.803     1682.838        1.472        0.652      127.314       32.900        0.067      331.953        0.300      859.810
12/09/2021  20:31:00      -22.747      162.317       -7.908       60.309       72.533       43.977     3637.168     5261.086     1934.015        1.888        0.542      163.903       32.601        0.040      331.914        0.237      859.827
12/09/2021  20:32:00       46.127       56.576       -6.279       52.668       94.170       43.926     2773.898     8867.903     1929.510        0.947        0.679       72.997       15.419        0.045      331.937        0.274      859.829
12/09/2021  20:33:00       37.220      -31.211       -7.533       26.058       40.410       27.760      679.045     1632.937      770.619        0.275        0.154       48.574       21.017        0.187      331.972        0.332      859.851
12/09/2021  20:34:00      -32.114        2.043      -13.435       56.383       44.225       26.212     3179.047     1955.840      687.088        0.352        0.291       32.179       14.255        0.196      331.863        0.154      859.880
12/09/2021  20:35:00        2.058       37.722       -1.253       55.530       41.446       31.785     3083.527     1717.744     1010.257        0.362        0.291       37.778       30.198        0.639      331.806        0.060      859.899
12/09/2021  20:36:00      -30.846       -3.266        7.427       76.295       35.168       33.468     5820.990     1236.757     1120.110        0.460        0.409       31.019       30.731        0.982      331.746       -0.039      859.897
12/09/2021  20:37:00     -113.949       -0.560      -10.917      122.526       91.520       48.751    15012.736     8375.997     2376.647        1.943        1.288      113.950       48.061        0.178      331.771        0.001      859.932
12/09/2021  20:38:00       -6.724        5.301        0.196       35.733       52.148       28.528     1276.839     2719.452      813.835        0.244        0.241        8.562       21.356        6.221      331.792        0.037      859.951
12/09/2021  20:39:00      -28.968       22.669       -0.345       40.838       32.146       17.133     1667.781     1033.373      293.543        0.217        0.150       36.783       12.041        0.107      331.728       -0.069      859.979
12/09/2021  20:40:00      -18.866      -30.572       -6.866       40.604       60.070       25.227     1648.710     3608.405      636.396        0.361        0.295       35.925       20.539        0.327      331.765       -0.007      860.000
12/09/2021  20:41:00      -40.042       14.954      -15.882       77.417       56.416       34.329     5993.451     3182.731     1178.474        0.622        0.518       42.743        8.589        0.040      331.796        0.042      859.998
12/09/2021  20:42:00      -49.802       44.489      -15.778       64.130       49.637       32.578     4112.604     2463.838     1061.327        0.617        0.382       66.779       18.356        0.076      331.778        0.012      859.986
12/09/2021  20:43:00      -52.445      120.356       -2.792       93.692      103.646       49.921     8778.273    10742.547     2492.128        1.962        1.101      131.286       33.172        0.064      331.753       -0.030      859.998
12/09/2021  20:44:00      -47.133      168.729      -19.367       64.246      102.271       47.809     4127.603    10459.438     2285.655        2.397        0.844      175.189       29.417        0.028      331.800        0.049      860.007
12/09/2021  20:45:00      -54.801       75.371      -10.740       77.586       64.044       38.258     6019.595     4101.687     1463.664        1.019        0.579       93.188       38.692        0.172      331.748       -0.038      860.001
12/09/2021  20:46:00      -47.423       95.752      -14.149       85.996       91.447       58.619     7395.305     8362.484     3436.209        1.540        0.960      106.852       40.492        0.144      331.750       -0.034      860.000
12/09/2021  20:47:00      -76.941      106.218      -24.994       68.597       62.454       34.095     4705.512     3900.551     1162.503        1.380        0.488      131.157       27.520        0.044      331.816        0.076      860.001
12/09/2021  20:48:00       -5.596       -1.704       -4.123       73.761       63.684       53.580     5440.754     4055.676     2870.797        0.621        0.618        5.849       33.217       32.251      331.799        0.049      859.993
12/09/2021  20:49:00      -58.462       97.017        7.267      100.023       82.813       55.412    10004.548     6857.933     3070.494        1.640        0.997      113.270       54.274        0.230      331.704       -0.110      860.000
12/09/2021  20:50:00      -38.855       59.803       -1.292       84.301       64.353       44.547     7106.701     4141.355     1984.454        0.916        0.662       71.317       30.556        0.184      331.654       -0.191      860.007
12/09/2021  20:51:00      -88.054      116.260      -17.351       80.345       77.228       49.860     6455.362     5964.221     2486.001        1.824        0.745      145.842       48.582        0.111      331.678       -0.153      860.032
12/09/2021  20:52:00      -25.676      117.433      -23.934       50.144       61.512       45.473     2514.460     3783.746     2067.752        1.169        0.418      120.207       23.577        0.038      331.725       -0.075      860.035
12/09/2021  20:53:00      -56.479      152.888      -22.549       84.684       72.765       47.862     7171.456     5294.712     2290.795        2.091        0.738      162.986       29.938        0.034      331.710       -0.100      860.035
12/09/2021  20:54:00      -98.816      111.728      -42.742       86.651       97.273       58.094     7508.420     9462.090     3374.900        2.221        1.017      149.157       44.634        0.090      331.692       -0.131      860.025
12/09/2021  20:55:00      -44.326      133.018      -12.468      108.188      121.047       53.710    11704.541    14652.322     2884.743        2.452        1.462      140.209       27.804        0.039      331.659       -0.185      860.024
12/09/2021  20:56:00     -139.240      267.576      -35.036      116.711      125.919       57.734    13621.542    15855.525     3333.177        6.251        1.641      301.637       37.965        0.016      331.637       -0.223      860.026
12/09/2021  20:57:00     -113.769      247.150      -47.475      104.092      121.446       62.261    10835.100    14749.116     3876.422        5.287        1.473      272.079       48.088        0.031      331.638       -0.221      860.022
12/09/2021  20:58:00      -88.177      150.425      -26.782      123.665      101.587       56.236    15293.087    10319.912     3162.459        2.994        1.439      174.364       43.739        0.063      331.617       -0.254      860.019
12/09/2021  20:59:00      -57.161      159.045      -22.735       75.489      110.055       54.554     5698.561    12112.127     2976.184        2.493        1.039      169.005       41.978        0.062      331.613       -0.260      860.010
12/09/2021  21:00:00     -135.336      193.851      -22.380      104.275      132.739       71.019    10873.232    17619.626     5043.634        4.496        1.677      236.419       40.838        0.030      331.603       -0.279      860.005
12/09/2021  21:01:00     -174.260      343.240      -27.955       90.175      108.844       56.476     8131.488    11846.960     3189.499        8.606        1.158      384.942       43.229        0.013      331.553       -0.361      860.035
12/09/2021  21:02:00      -96.074      274.693      -28.542      102.616      105.306       55.732    10530.058    11089.333     3106.042        5.511        1.236      291.009       27.567        0.009      331.530       -0.399      860.058
12/09/2021  21:03:00      -62.499      351.564      -35.557       93.754       94.178       59.865     8789.782     8869.528     3583.872        7.500        1.062      357.076       49.993        0.020      331.477       -0.486      860.067
12/09/2021  21:04:00      -96.341      362.167      -37.184      103.301      111.750       59.672    10671.010    12488.031     3560.784        8.427        1.336      374.762       48.541        0.017      331.495       -0.458      860.080
12/09/2021  21:05:00     -113.044      274.201      -45.884      129.550       86.767       65.217    16783.323     7528.479     4253.233        5.931        1.428      296.589       37.413        0.016      331.499       -0.451      860.107
12/09/2021  21:06:00      -40.364      329.893      -28.834      106.011      104.545       60.471    11238.253    10929.618     3656.779        6.855        1.291      332.353       42.882        0.017      331.477       -0.487      860.119
12/09/2021  21:07:00      -66.150      300.388      -29.363      124.025      105.160       65.456    15382.154    11058.568     4284.519        6.309        1.536      307.585       37.790        0.015      331.486       -0.472      860.128
12/09/2021  21:08:00      -86.461      363.837      -31.187      113.172       89.714       59.357    12807.922     8048.685     3523.220        8.260        1.219      373.970       45.618        0.015      331.439       -0.550      860.134
12/09/2021  21:09:00     -121.021      254.857      -18.752       97.895       91.648       57.850     9583.514     8399.437     3346.618        5.064        1.066      282.132       42.546        0.023      331.427       -0.569      860.153
12/09/2021  21:10:00     -108.110      320.107      -13.488      108.158       73.315       51.995    11698.117     5375.039     2703.513        6.705        0.989      337.871       26.813        0.006      331.390       -0.630      860.153
12/09/2021  21:11:00      -61.801      286.596      -34.307       82.054       99.846       54.430     6732.796     9969.241     2962.601        5.340        0.983      293.183       42.837        0.021      331.384       -0.639      860.160
12/09/2021  21:12:00      -67.388      358.278      -33.577      120.855      143.756       63.998    14605.814    20665.913     4095.721        8.669        1.968      364.561       59.149        0.026      331.383       -0.639      860.193
12/09/2021  21:13:00      -64.073      323.084      -29.118      113.270      122.769       54.915    12830.046    15072.347     3015.686        7.012        1.546      329.376       38.583        0.014      331.400       -0.613      860.212
12/09/2021  21:14:00      -87.364      249.544      -28.878      142.995      120.955       78.610    20447.522    14630.225     6179.463        5.599        2.063      264.395       47.194        0.032      331.413       -0.592      860.215
12/09/2021  21:15:00      -64.955      279.245      -32.782       88.864      146.780       47.238     7896.755    21544.379     2231.450        5.747        1.584      286.700       26.941        0.009      331.388       -0.632      860.230
12/09/2021  21:16:00      -82.408      284.473      -33.068       82.494      141.549       51.206     6805.260    20036.232     2622.017        5.913        1.473      296.168       47.253        0.025      331.381       -0.644      860.254
12/09/2021  21:17:00      -96.393      216.827      -28.978      132.677      102.122       68.620    17603.229    10428.845     4708.682        4.494        1.637      237.287       49.115        0.043      331.393       -0.623      860.267
12/09/2021  21:18:00      -92.350      281.462      -35.675       98.148       93.031       57.450     9633.103     8654.697     3300.486        5.530        1.079      296.225       26.098        0.008      331.347       -0.700      860.298
12/09/2021  21:19:00      -99.695      342.644      -40.513       88.256      113.627       50.737     7789.171    12910.986     2574.290        7.613        1.164      356.853       21.267        0.004      331.347       -0.700      860.314
12/09/2021  21:20:00      -19.612      289.284      -31.249       70.707       88.972       44.041     4999.506     7916.020     1939.622        4.995        0.743      289.948       33.771        0.014      331.309       -0.762      860.321
12/09/2021  21:21:00      -53.233      239.477      -21.182      102.863      121.282       54.490    10580.893    14709.444     2969.212        4.444        1.413      245.322       43.398        0.031      331.328       -0.730      860.311
12/09/2021  21:22:00      -76.860      193.501      -26.258      100.814      105.171       44.907    10163.410    11060.847     2016.600        3.364        1.162      208.207       34.625        0.028      331.303       -0.771      860.312
12/09/2021  21:23:00      -53.106      239.871      -29.384       87.350       93.084       46.447     7630.024     8664.700     2157.308        3.983        0.923      245.679       25.675        0.011      331.344       -0.705      860.317
12/09/2021  21:24:00      -79.101      162.170      -16.769       81.493       82.410       45.535     6641.039     6791.396     2073.422        2.417        0.775      180.433       32.011        0.031      331.299       -0.777      860.306
12/09/2021  21:25:00      -73.249      196.897      -24.167       89.179      121.872       48.152     7952.854    14852.696     2318.581        3.492        1.256      210.081       48.498        0.053      331.286       -0.798      860.291
12/09/2021  21:26:00      -88.946      195.671      -20.166       75.567       90.826       46.652     5710.424     8249.444     2176.403        3.137        0.807      214.938       35.929        0.028      331.305       -0.768      860.327
12/09/2021  21:27:00      -23.547      227.725      -32.588       74.861      117.348       46.203     5604.207    13770.558     2134.749        3.749        1.075      228.939       29.616        0.017      331.300       -0.775      860.346
12/09/2021  21:28:00      -39.250      144.217      -28.934       51.552       71.997       34.927     2657.633     5183.554     1219.917        1.612        0.453      149.463       18.360        0.015      331.327       -0.729      860.361
12/09/2021  21:29:00      -22.045      214.166      -25.188       92.555       92.299       59.904     8566.412     8519.159     3588.463        3.383        1.034      215.298       38.907        0.033      331.297       -0.780      860.409
12/09/2021  21:30:00      -38.987      183.052       -8.185       91.699      115.870       48.124     8408.640    13425.755     2315.919        2.962        1.208      187.158       39.800        0.045      331.318       -0.747      860.444
12/09/2021  21:31:00      -61.922      131.169      -25.679       79.574       79.236       45.771     6332.070     6278.274     2095.002        1.820        0.735      145.050       17.776        0.015      331.330       -0.726      860.470
12/09/2021  21:32:00      -39.784      114.151       -7.242       62.289       65.474       35.767     3879.943     4286.905     1279.259        1.205        0.472      120.885       20.524        0.029      331.296       -0.778      860.484
12/09/2021  21:33:00      -35.875      122.262      -13.709      106.813       96.693       45.988    11409.068     9349.553     2114.937        1.964        1.144      127.417       43.753        0.118      331.325       -0.734      860.517
12/09/2021  21:34:00        1.568       57.731       -1.216       56.668       61.936       27.233     3211.214     3836.085      741.632        0.556        0.389       57.752       16.661        0.083      331.331       -0.722      860.547
12/09/2021  21:35:00        7.653       79.503      -11.793       91.258       60.672       49.230     8327.976     3681.050     2423.550        1.047        0.722       79.871       43.867        0.302      331.316       -0.748      860.560
12/09/2021  21:36:00       27.865       69.349      -15.042       61.074       63.512       40.006     3730.039     4033.827     1600.457        0.759        0.468       74.738       20.791        0.077      331.324       -0.736      860.567
12/09/2021  21:37:00     -112.025      138.414      -19.971       73.929       99.985       47.777     5465.545     9996.995     2282.674        2.492        0.887      178.068       49.129        0.076      331.297       -0.781      860.561
12/09/2021  21:38:00      -46.332      173.418      -31.129       56.230       51.311       41.848     3161.820     2632.810     1751.213        2.037        0.377      179.501       15.807        0.008      331.282       -0.803      860.553
12/09/2021  21:39:00      -15.728       39.572       -3.193       57.269       55.216       32.860     3279.788     3048.764     1079.774        0.461        0.370       42.583       33.668        0.625      331.272       -0.818      860.521
12/09/2021  21:40:00      -73.664      116.791      -36.134       77.846       93.361       52.082     6060.050     8716.269     2712.554        1.893        0.874      138.082       29.025        0.044      331.291       -0.789      860.502
12/09/2021  21:41:00      -25.428       19.142      -10.456       68.890       36.239       24.668     4745.806     1313.295      608.504        0.389        0.333       31.828       21.313        0.448      331.292       -0.785      860.485
12/09/2021  21:42:00      -18.495      -15.568        2.533       30.328       19.563       21.639      919.799      382.706      468.250        0.118        0.089       24.175       10.903        0.203      331.353       -0.685      860.479
12/09/2021  21:43:00       35.874      -22.858      -17.051       36.270       44.746       20.539     1315.510     2002.164      421.861        0.292        0.187       42.538       21.658        0.259      331.307       -0.761      860.487
12/09/2021  21:44:00        4.490        0.424      -12.523       19.550       41.618       22.222      382.221     1732.026      493.801        0.139        0.130        4.509       23.409       26.948      331.288       -0.792      860.505
12/09/2021  21:45:00      -17.657       57.247       -8.425       47.390       33.549       30.102     2245.794     1125.566      906.151        0.397        0.214       59.908       19.173        0.102      331.264       -0.832      860.521
12/09/2021  21:46:00     -133.735      139.032      -21.624       63.462       76.642       45.122     4027.374     5873.926     2036.022        2.481        0.597      192.912       31.165        0.026      331.177       -0.978      860.531
12/09/2021  21:47:00      -69.013       27.011      -14.377       83.749       79.140       39.594     7013.815     6263.091     1567.688        1.027        0.742       74.110       36.706        0.245      331.169       -0.989      860.532
12/09/2021  21:48:00      -36.124       37.062      -23.096       72.994       68.600       35.638     5328.166     4705.959     1270.048        0.726        0.565       51.754       19.274        0.139      331.214       -0.914      860.529
12/09/2021  21:49:00      -29.022       31.455       -6.281       52.371       71.893       35.149     2742.695     5168.532     1235.436        0.551        0.457       42.799       26.617        0.387      331.127       -1.059      860.529
12/09/2021  21:50:00      -55.110        3.096       -3.638       64.153       38.419       47.826     4115.554     1476.002     2287.360        0.547        0.394       55.197       40.536        0.539      331.102       -1.099      860.546
12/09/2021  21:51:00      -28.682       12.038       -3.978       52.832       35.905       33.452     2791.267     1289.195     1119.022        0.309        0.260       31.106       36.177        1.353      331.040       -1.201      860.565
12/09/2021  21:52:00      -33.548       13.064      -11.441       40.988       28.366       24.012     1679.976      804.632      576.598        0.224        0.153       36.002       20.987        0.340      331.088       -1.122      860.574
12/09/2021  21:53:00     -119.810       84.883      -15.488       71.882       45.535       29.998     5167.018     2073.446      899.909        1.497        0.407      146.831       24.054        0.027      331.008       -1.256      860.587
12/09/2021  21:54:00      -95.407       16.424      -17.774       63.526       39.789       31.977     4035.495     1583.143     1022.512        0.816        0.332       96.810       20.390        0.044      331.010       -1.251      860.594
12/09/2021  21:55:00     -117.676       -3.169       -9.502       35.700       28.275       21.241     1274.496      799.471      451.175        0.824        0.126      117.719       20.674        0.031      331.035       -1.210      860.572
12/09/2021  21:56:00     -104.989       25.958      -10.418       36.508       33.060       25.275     1332.802     1092.980      638.844        0.743        0.153      108.150       17.800        0.027      331.002       -1.266      860.545
12/09/2021  21:57:00      -76.226       11.556      -18.295       40.386       51.327       26.193     1631.030     2634.446      686.050        0.561        0.248       77.097       22.828        0.088      330.974       -1.309      860.521
12/09/2021  21:58:00       23.873       20.927      -10.609       26.696       27.565       21.022      712.685      759.808      441.915        0.152        0.096       31.747       11.643        0.135      330.948       -1.353      860.505
12/09/2021  21:59:00      -35.039       30.827      -14.881       26.176       32.276       23.119      685.197     1041.709      534.488        0.233        0.113       46.670       18.282        0.153      330.923       -1.392      860.497
12/09/2021  22:00:00      -64.826       35.501      -12.914       31.083       30.569       16.241      966.146      934.478      263.767        0.390        0.108       73.911       14.571        0.039      330.948       -1.353      860.497
12/09/2021  22:01:00       10.266       69.942      -21.343       38.378       42.105       29.994     1472.834     1772.837      899.646        0.480        0.207       70.691        9.649        0.019      331.059       -1.171      860.516
12/09/2021  22:02:00       19.760       35.287       -0.696       35.775       41.674       21.641     1279.831     1736.745      468.340        0.256        0.174       40.443       21.330        0.278      331.100       -1.103      860.537
12/09/2021  22:03:00       17.897       79.551      -11.750       33.242       45.966       22.598     1105.039     2112.859      510.684        0.526        0.186       81.539       17.850        0.048      331.100       -1.102      860.563
12/09/2021  22:04:00      -43.516      141.406      -27.270       51.617       61.302       33.186     2664.329     3757.957     1101.343        1.508        0.376      147.950       19.836        0.018      331.103       -1.099      860.593
12/09/2021  22:05:00       32.592      127.666      -13.567       46.347       92.282       30.266     2148.081     8516.047      916.060        1.456        0.579      131.760       34.885        0.070      331.069       -1.155      860.629
12/09/2021  22:06:00       29.810      173.871      -23.319       55.140       73.308       41.002     3040.452     5374.020     1681.170        2.088        0.505      176.408       45.519        0.067      331.064       -1.164      860.660
12/09/2021  22:07:00        5.210      176.342      -20.464       43.452       47.904       28.549     1888.050     2294.829      815.054        1.827        0.250      176.419       19.558        0.012      331.055       -1.179      860.689
12/09/2021  22:08:00       18.893      142.523      -23.482       49.705       50.163       35.741     2470.609     2516.291     1277.433        1.374        0.313      143.770       26.365        0.034      331.129       -1.056      860.712
12/09/2021  22:09:00       -9.394       79.447      -23.094       30.532       28.545       23.459      932.199      814.807      550.340        0.461        0.115       80.000       11.976        0.022      331.079       -1.137      860.736
12/09/2021  22:10:00      -71.585       73.678      -18.180       40.281       39.487       30.318     1622.591     1559.255      919.152        0.749        0.205      102.727       18.773        0.033      331.019       -1.236      860.748
12/09/2021  22:11:00      -69.641       90.149      -20.352       43.604       49.288       36.086     1901.327     2429.336     1302.221        0.951        0.282      113.915       11.606        0.010      330.999       -1.269      860.755
12/09/2021  22:12:00      -56.630       95.828       -8.223       38.596       39.590       27.222     1489.666     1567.360      741.035        0.813        0.190      111.311       10.832        0.009      331.042       -1.199      860.761
12/09/2021  22:13:00      -41.258       91.680       -6.829       28.554       60.109       30.401      815.350     3613.062      924.250        0.775        0.268      100.536       17.996        0.032      331.050       -1.186      860.755
12/09/2021  22:14:00      -58.652       47.305       -3.327       45.966       39.866       20.444     2112.870     1589.269      417.947        0.490        0.206       75.351        9.176        0.015      330.973       -1.312      860.747
12/09/2021  22:15:00      -63.603       28.883      -19.443       62.909       38.481       28.712     3957.550     1480.810      824.396        0.576        0.313       69.854       17.357        0.062      330.866       -1.487      860.730
12/09/2021  22:16:00      -34.979        7.599       -8.765       55.987       44.874       36.523     3134.533     2013.669     1333.960        0.392        0.324       35.795       26.382        0.543      330.829       -1.546      860.726
12/09/2021  22:17:00       -8.720       26.868        3.409       43.532       28.813       29.692     1895.012      830.173      881.605        0.221        0.180       28.247       11.864        0.176      330.800       -1.594      860.731
12/09/2021  22:18:00      -77.762       38.128      -15.196       31.992       45.632       22.661     1023.488     2082.306      513.515        0.567        0.181       86.606        9.051        0.011      330.849       -1.514      860.748
12/09/2021  22:19:00       -0.330        0.683       -4.914       32.212       28.908       21.577     1037.642      835.687      465.563        0.118        0.117        0.758       14.496      365.400      330.857       -1.500      860.762
12/09/2021  22:20:00      -33.835       39.852       -9.762       52.340       33.231       21.549     2739.443     1104.308      464.351        0.357        0.215       52.278       10.537        0.041      330.817       -1.567      860.779
12/09/2021  22:21:00      -74.846       44.752      -18.152       23.511       23.552       17.236      552.746      554.714      297.063        0.467        0.070       87.205       15.216        0.030      330.730       -1.709      860.805
12/09/2021  22:22:00      -83.101       22.395       -9.715       30.654       22.348       19.313      939.682      499.445      372.978        0.466        0.091       86.066        9.984        0.013      330.699       -1.760      860.834
12/09/2021  22:23:00      -42.053        2.548       -4.287       39.865       29.060       23.328     1589.189      844.475      544.188        0.239        0.149       42.130       14.785        0.123      330.658       -1.826      860.851
12/09/2021  22:24:00      -33.957        2.651        3.127       36.047       28.760       17.467     1299.389      827.153      305.082        0.180        0.122       34.060       14.903        0.191      330.669       -1.810      860.866
12/09/2021  22:25:00      -28.453       -2.839       -0.904       34.493       28.837       25.346     1189.778      831.563      642.415        0.174        0.133       28.595       17.001        0.353      330.615       -1.900      860.872
12/09/2021  22:26:00      -76.870        3.643      -20.968       43.718       33.224       25.113     1911.289     1103.803      630.678        0.500        0.182       76.956       16.359        0.045      330.560       -1.989      860.882
12/09/2021  22:27:00      -32.300        8.315      -19.506       36.252       33.718       27.022     1314.172     1136.888      730.177        0.234        0.159       33.353       18.173        0.297      330.506       -2.079      860.882
12/09/2021  22:28:00      -11.393       -2.351       -5.959       38.969       19.382       28.091     1518.591      375.673      789.085        0.143        0.134       11.633       21.441        3.397      330.492       -2.103      860.875
12/09/2021  22:29:00      -90.165       32.038      -18.743       30.177       24.137       24.145      910.677      582.590      582.990        0.579        0.104       95.688       16.427        0.029      330.433       -2.197      860.866
12/09/2021  22:30:00      -57.042       32.632      -18.715       31.771       26.161       19.816     1009.402      684.415      392.658        0.338        0.104       65.716       16.799        0.065      330.486       -2.109      860.856
12/09/2021  22:31:00      -36.370       13.698      -10.254       26.092       26.777       16.508      680.766      717.026      272.531        0.164        0.084       38.864       13.907        0.128      330.459       -2.156      860.846
12/09/2021  22:32:00      -35.199       21.291      -16.093       27.607       24.806       20.868      762.140      615.336      435.480        0.188        0.091       41.137       14.566        0.125      330.473       -2.131      860.830
12/09/2021  22:33:00        3.999        0.835       -3.328       19.556       21.964       18.633      382.455      482.403      347.186        0.062        0.061        4.086        9.233        5.107      330.491       -2.104      860.823
12/09/2021  22:34:00       13.438        4.822       -8.729       10.108       10.878       10.292      102.179      118.330      105.918        0.030        0.016       14.277        4.020        0.079      330.541       -2.021      860.812
12/09/2021  22:35:00      -46.706        2.482       -9.903       36.746       20.431       18.992     1350.294      417.412      360.697        0.221        0.106       46.772       18.671        0.159      330.557       -1.993      860.805
12/09/2021  22:36:00      -11.903       -3.892      -10.339       22.607       12.039       17.588      511.064      144.935      309.344        0.061        0.048       12.523       11.741        0.879      330.593       -1.935      860.803
12/09/2021  22:37:00       -9.182        0.613       -3.502       14.939       11.307       12.165      223.181      127.850      147.984        0.030        0.025        9.202        8.579        0.869      330.634       -1.867      860.806
12/09/2021  22:38:00      -27.289       23.698      -10.823       17.083       16.692       10.171      291.820      278.639      103.441        0.105        0.034       36.142        9.105        0.063      330.716       -1.734      860.825
12/09/2021  22:39:00       15.736      -15.910       -8.522       25.748       34.390       22.588      662.980     1182.695      510.221        0.146        0.118       22.378       21.161        0.894      330.774       -1.637      860.853
12/09/2021  22:40:00       -4.788      -12.569       -2.899        7.281       14.358       11.546       53.016      206.151      133.320        0.029        0.020       13.450        5.441        0.164      330.838       -1.534      860.891
12/09/2021  22:41:00        2.438        4.476       -4.169       11.392       21.887       15.538      129.767      479.053      241.424        0.045        0.043        5.097       13.132        6.637      330.674       -1.801      860.921
12/09/2021  22:42:00      -15.631       11.625       -2.085       41.939       21.981       24.954     1758.860      483.152      622.722        0.162        0.143       19.480       14.691        0.569      330.612       -1.905      860.940
12/09/2021  22:43:00      -51.579        0.846       -3.073       29.651       23.332       15.368      879.154      544.374      236.163        0.216        0.083       51.586       14.928        0.084      330.629       -1.877      860.956
12/09/2021  22:44:00      -29.339      -15.328      -13.053       27.984       27.712       17.428      783.105      767.979      303.736        0.156        0.093       33.102       16.714        0.255      330.729       -1.711      860.957
12/09/2021  22:45:00      -49.895       12.864      -12.115       39.992       30.150       16.963     1599.398      909.032      287.736        0.280        0.140       51.527       13.151        0.065      330.681       -1.791      860.966
12/09/2021  22:46:00      -49.831       17.434       -9.184       54.207       36.202       24.448     2938.358     1310.610      597.708        0.386        0.242       52.793       15.788        0.089      330.633       -1.870      860.988
12/09/2021  22:47:00      -50.082       15.055        2.275       66.359       35.838       26.751     4403.582     1284.374      715.630        0.457        0.320       52.296       20.967        0.161      330.452       -2.165      861.007
12/09/2021  22:48:00      -28.321        1.734       -7.942       50.435       35.941       28.944     2543.684     1291.743      837.741        0.277        0.234       28.374       14.841        0.274      330.422       -2.215      861.028
12/09/2021  22:49:00      -12.025        5.412       -7.717       46.626       32.720       28.871     2173.962     1070.588      833.516        0.216        0.204       13.187       20.084        2.320      330.456       -2.159      861.056
12/09/2021  22:50:00      -70.011       33.216      -33.799       52.276       27.672       26.166     2732.768      765.718      684.651        0.566        0.209       77.490       17.416        0.051      330.401       -2.250      861.079
12/09/2021  22:51:00      -28.454       39.590      -13.055       40.836       15.232       24.460     1667.550      232.019      598.273        0.252        0.125       48.754       11.078        0.052      330.466       -2.144      861.093
12/09/2021  22:52:00       15.794       42.840      -11.785       24.255       20.942       17.491      588.315      438.583      305.927        0.178        0.067       45.659        5.733        0.016      330.521       -2.055      861.118
12/09/2021  22:53:00        6.946      121.963      -16.592       28.964       32.376       21.233      838.909     1048.225      450.835        0.877        0.117      122.161       18.737        0.024      330.547       -2.010      861.151
12/09/2021  22:54:00       42.914      121.851      -12.862       42.533       47.464       23.336     1809.059     2252.848      544.554        1.073        0.230      129.187       15.266        0.014      330.569       -1.975      861.179
12/09/2021  22:55:00       66.146      112.180      -15.488       30.568       64.765       22.715      934.414     4194.458      515.963        1.142        0.282      130.229       28.740        0.049      330.459       -2.154      861.197
12/09/2021  22:56:00        0.430      138.095       -6.375       44.504       57.203       24.015     1980.624     3272.164      576.727        1.247        0.291      138.096       24.886        0.032      330.506       -2.078      861.221
12/09/2021  22:57:00       10.275      107.985      -18.734       63.193       57.695       32.899     3993.389     3328.714     1082.334        1.026        0.420      108.472       19.475        0.032      330.638       -1.862      861.233
12/09/2021  22:58:00       33.214      159.808       -8.865       43.718       44.927       28.942     1911.252     2018.471      837.635        1.574        0.238      163.223       28.506        0.031      330.688       -1.779      861.252
12/09/2021  22:59:00        0.635      135.048      -14.995       55.472       52.141       27.508     3077.194     2718.655      756.711        1.251        0.328      135.050       17.166        0.016      330.737       -1.699      861.261
12/09/2021  23:00:00      -30.768      104.094      -16.496       28.595       52.811       25.042      817.682     2788.957      627.080        0.814        0.212      108.546       17.576        0.026      330.780       -1.628      861.271
12/09/2021  23:01:00      -45.151      105.448      -20.970       33.906       57.402       29.073     1149.604     3295.017      845.259        0.944        0.264      114.708       28.714        0.063      330.765       -1.653      861.276
12/09/2021  23:02:00      -69.074       79.047      -23.897       44.246       27.151       23.296     1957.713      737.201      542.701        0.741        0.162      104.974       13.087        0.016      330.684       -1.785      861.278
12/09/2021  23:03:00      -26.199       77.453      -14.262       38.812       38.622       29.943     1506.399     1491.632      896.570        0.539        0.195       81.764       18.554        0.051      330.711       -1.741      861.258
12/09/2021  23:04:00      -36.899       60.310      -15.559       29.771       30.825       19.448      886.329      950.161      378.223        0.373        0.111       70.702        5.154        0.005      330.808       -1.581      861.234
12/09/2021  23:05:00      -54.346      143.465      -20.732       38.809       48.074       20.397     1506.145     2311.132      416.044        1.410        0.212      153.413       12.791        0.007      330.971       -1.316      861.215
12/09/2021  23:06:00      -38.463      122.125      -16.382       35.868       62.901       22.498     1286.531     3956.527      506.140        1.120        0.287      128.038       18.123        0.020      331.073       -1.148      861.196
12/09/2021  23:07:00      -33.972       86.286      -19.643       34.791       38.423       25.081     1210.426     1476.307      629.035        0.615        0.166       92.733       12.895        0.019      330.933       -1.377      861.198
12/09/2021  23:08:00      -40.652      152.496      -14.682       33.513       66.588       24.353     1123.114     4434.026      593.050        1.564        0.308      157.821       28.523        0.033      330.934       -1.376      861.213
12/09/2021  23:09:00      -32.791      171.371       -6.346       41.466       57.392       25.941     1719.432     3293.785      672.929        1.808        0.284      174.480       26.317        0.023      330.935       -1.375      861.223
12/09/2021  23:10:00      -59.033       81.672      -13.079       37.053       53.562       23.303     1372.900     2868.879      543.020        0.755        0.239      100.773        6.038        0.004      330.885       -1.456      861.217
12/09/2021  23:11:00      -66.281       51.049      -14.277       27.359       25.763       25.120      748.519      663.753      631.038        0.462        0.102       83.661       18.945        0.051      330.897       -1.436      861.210
12/09/2021  23:12:00      -30.897       51.496      -13.323       27.391       26.364       20.048      750.242      695.084      401.903        0.282        0.092       60.054       12.596        0.044      330.907       -1.420      861.208
12/09/2021  23:13:00       22.369       26.860        7.404       35.832       23.763       25.480     1283.932      564.671      649.231        0.189        0.125       34.955       21.991        0.396      330.976       -1.306      861.212
12/09/2021  23:14:00        4.437       37.226      -10.066       54.318       35.655       29.290     2950.412     1271.283      857.905        0.329        0.254       37.490       12.403        0.109      330.920       -1.399      861.232
12/09/2021  23:15:00       -6.202       32.733       -6.800       53.112       44.126       26.028     2820.874     1947.087      677.464        0.330        0.272       33.315       13.863        0.173      330.934       -1.375      861.247
12/09/2021  23:16:00      -42.645       98.234      -19.892       60.569       55.242       29.292     3668.648     3051.695      858.036        0.972        0.379      107.091       18.654        0.030      331.006       -1.259      861.264
12/09/2021  23:17:00       54.401      171.944      -22.109       43.475       65.375       32.499     1890.107     4273.929     1056.207        2.012        0.361      180.344       22.581        0.016      330.992       -1.283      861.273
12/09/2021  23:18:00      109.836       66.564      -10.052       70.882       56.831       33.443     5024.294     3229.813     1118.411        1.298        0.469      128.432       25.472        0.039      330.867       -1.485      861.287
12/09/2021  23:19:00      265.670       50.437      -11.273       76.555       52.443       36.809     5860.712     2750.224     1354.905        4.161        0.498      270.415       40.151        0.022      330.649       -1.847      861.285
12/09/2021  23:20:00      179.289       53.895      -17.475       64.308       53.610       28.196     4135.496     2874.029      795.038        2.158        0.390      187.214       27.867        0.022      330.501       -2.087      861.286
12/09/2021  23:21:00      169.267        8.981      -12.218       58.184       47.042       27.165     3385.424     2212.939      737.942        1.761        0.317      169.505       15.139        0.008      330.451       -2.168      861.295
12/09/2021  23:22:00      190.582       45.187      -18.626       63.977       46.274       29.779     4093.000     2141.260      886.785        2.291        0.356      195.866       21.244        0.012      330.449       -2.173      861.311
12/09/2021  23:23:00      127.942       57.942      -22.424       49.176       34.198       26.273     2418.304     1169.515      690.291        1.225        0.214      140.451       13.481        0.009      330.599       -1.925      861.314
12/09/2021  23:24:00      246.367       73.213      -29.616       73.476       57.957       31.490     5398.704     3358.997      991.630        3.834        0.487      257.015       21.871        0.007      330.840       -1.533      861.318
12/09/2021  23:25:00      105.428       23.112      -15.077       61.845       46.840       36.450     3824.786     2194.016     1328.610        0.961        0.367      107.931       27.808        0.066      330.818       -1.567      861.327
12/09/2021  23:26:00      140.093        2.001      -22.787       41.234       34.788       29.241     1700.278     1210.202      855.045        1.196        0.188      140.108       13.189        0.009      330.719       -1.728      861.326
12/09/2021  23:27:00      120.489       42.247      -15.954       47.229       42.549       28.509     2230.616     1810.417      812.785        1.070        0.243      127.681       14.946        0.014      330.872       -1.476      861.323
12/09/2021  23:28:00       19.628       27.225      -18.975       61.293       31.292       25.415     3756.797      979.162      645.945        0.343        0.269       33.563       18.784        0.313      330.650       -1.843      861.349
12/09/2021  23:29:00       61.005       49.909       -8.430       30.931       26.780       15.522      956.720      717.190      240.934        0.410        0.096       78.819       10.183        0.017      330.526       -2.044      861.387
12/09/2021  23:30:00       59.834       82.450      -21.180       29.036       40.026       20.612      843.101     1602.049      424.860        0.685        0.144      101.873        8.732        0.007      330.783       -1.622      861.401
12/09/2021  23:31:00      101.345       17.768      -18.250       23.901       24.627       13.722      571.255      606.488      188.305        0.614        0.068      102.891        7.841        0.006      330.764       -1.654      861.415
12/09/2021  23:32:00       57.850       -1.543       -9.648       20.925       26.172       11.142      437.863      684.978      124.136        0.234        0.062       57.871        3.248        0.003      330.742       -1.689      861.434
12/09/2021  23:33:00       52.349       10.250      -21.594       21.085       21.349       18.293      444.592      455.767      334.646        0.227        0.062       53.343        3.307        0.004      330.769       -1.646      861.437
12/09/2021  23:34:00       34.829       45.104      -16.452       16.461       19.522       12.186      270.972      381.095      148.490        0.216        0.040       56.986       10.263        0.032      330.706       -1.750      861.440
12/09/2021  23:35:00      -16.232        1.624      -19.878       27.431       25.636       21.458      752.458      657.222      460.428        0.127        0.094       16.313       16.024        0.965      330.807       -1.584      861.452
12/09/2021  23:36:00       -6.678      -50.245      -15.424       29.521       44.612       19.571      871.513     1990.265      383.020        0.303        0.162       50.687       10.500        0.043      330.790       -1.611      861.469
12/09/2021  23:37:00       28.876      -42.038      -17.840       26.231       49.998       19.271      688.053     2499.780      371.373        0.324        0.178       51.000       14.342        0.079      330.793       -1.608      861.482
12/09/2021  23:38:00       26.757      -16.934       -9.249       37.169       63.136       29.694     1381.543     3986.211      881.735        0.367        0.312       31.666       37.202        1.380      330.863       -1.492      861.499
12/09/2021  23:39:00       -7.745       38.624       -4.626       46.830       17.050       15.479     2193.011      290.712      239.588        0.215        0.136       39.393       12.415        0.099      330.758       -1.664      861.523
12/09/2021  23:40:00      -53.050       15.934      -17.612       45.825       29.283       19.999     2099.946      857.489      399.955        0.337        0.168       55.391       19.204        0.120      330.676       -1.798      861.537
12/09/2021  23:41:00      -31.065      -12.147      -11.250       32.250       28.447       17.761     1040.058      809.212      315.457        0.170        0.108       33.355       10.086        0.091      330.725       -1.718      861.544
12/09/2021  23:42:00      -47.648       10.178        2.348       76.449       41.025       24.246     5844.465     1683.079      587.886        0.525        0.406       48.723       13.504        0.077      330.656       -1.832      861.543
12/09/2021  23:43:00     -120.876       31.032        0.040       88.153       39.640       27.719     7770.964     1571.333      768.350        1.284        0.506      124.795       24.557        0.039      330.616       -1.900      861.543
12/09/2021  23:44:00      -49.381       10.109      -10.647       57.452       42.916       37.679     3300.738     1841.813     1419.672        0.461        0.328       50.405       30.607        0.369      330.555       -1.998      861.538
12/09/2021  23:45:00     -206.248       17.692      -13.630       59.937       39.527       31.357     3592.406     1562.421      983.252        2.459        0.307      207.005       18.956        0.008      330.432       -2.202      861.527
12/09/2021  23:46:00     -162.985       46.152      -11.134       54.868       57.920       32.307     3010.540     3354.742     1043.714        1.811        0.370      169.394       30.671        0.033      330.425       -2.210      861.524
12/09/2021  23:47:00      -20.482      -20.057      -11.290       74.801       74.504       41.572     5595.156     5550.812     1728.257        0.691        0.644       28.667       35.909        1.569      330.469       -2.139      861.512
12/09/2021  23:48:00     -160.204       17.122      -10.879      117.453       53.236       40.003    13795.223     2834.092     1600.275        2.215        0.911      161.117       17.103        0.011      330.380       -2.287      861.498
12/09/2021  23:49:00      -81.169        7.918        0.393       83.534       49.460       42.621     6977.859     2446.288     1816.567        0.894        0.562       81.555       39.036        0.229      330.305       -2.408      861.484
12/09/2021  23:50:00      -67.148       18.983        1.869      123.456       52.444       38.029    15241.392     2750.361     1446.204        1.215        0.972       69.779       45.050        0.417      330.330       -2.368      861.472
12/09/2021  23:51:00      -99.209       -3.285       -7.628       85.203       46.744       39.174     7259.575     2185.014     1534.626        1.044        0.549       99.263       29.097        0.086      330.310       -2.399      861.469
12/09/2021  23:52:00      -91.900        1.922       -1.072       80.289       42.159       37.236     6446.262     1777.355     1386.513        0.903        0.481       91.920       24.046        0.068      330.284       -2.441      861.467
12/09/2021  23:53:00      -80.413       25.993        6.230       89.918       48.148       45.070     8085.169     2318.277     2031.331        0.981        0.622       84.509       45.193        0.286      330.269       -2.466      861.468
12/09/2021  23:54:00     -169.414       25.550       -9.471       66.838       50.682       31.152     4467.375     2568.686      970.434        1.872        0.400      171.330       15.885        0.009      330.233       -2.528      861.462
12/09/2021  23:55:00     -154.932       36.834      -10.370       52.866       34.789       26.280     2794.857     1210.292      690.651        1.508        0.235      159.250       22.914        0.021      330.174       -2.622      861.457
12/09/2021  23:56:00      -72.557        5.942       -2.321       85.704       53.846       43.466     7345.175     2899.368     1889.274        0.872        0.607       72.800       42.297        0.338      330.167       -2.634      861.450
12/09/2021  23:57:00     -139.588      -18.098      -13.013       76.898       44.555       32.692     5913.350     1985.186     1068.747        1.447        0.448      140.757       26.687        0.036      330.059       -2.812      861.444
12/09/2021  23:58:00      -66.847       39.057      -14.497       63.510       36.771       28.222     4033.537     1352.113      796.487        0.619        0.309       77.421       21.123        0.074      330.039       -2.844      861.450
12/09/2021  23:59:00      -16.985       37.170       -4.242       56.909       29.548       38.099     3238.584      873.065     1451.529        0.362        0.278       40.866       33.609        0.676      330.076       -2.782      861.452
12/10/2021  00:00:00      -58.408       32.610       -0.775       67.468       39.081       33.923     4551.865     1527.338     1150.765        0.585        0.361       66.894       30.137        0.203      330.062       -2.806      861.454
12/10/2021  00:01:00     -176.617       56.025      -20.189       48.760       47.438       28.346     2377.574     2250.365      803.499        2.008        0.272      185.290       22.880        0.015      330.011       -2.890      861.474
12/10/2021  00:02:00     -164.277       65.650      -15.689       70.645       45.948       34.041     4990.756     2111.240     1158.760        1.990        0.413      176.910       29.253        0.027      329.984       -2.935      861.485
12/10/2021  00:03:00      -86.166      -12.117       -7.449       70.607       53.637       37.323     4985.402     2876.938     1393.006        0.844        0.463       87.014       32.447        0.139      330.017       -2.880      861.494
12/10/2021  00:04:00        3.462        9.650        0.742       37.667       28.073       27.188     1418.836      788.078      739.200        0.153        0.147       10.252       11.956        1.360      330.026       -2.863      861.500
12/10/2021  00:05:00      -92.583       24.441       -2.880       75.152       42.221       30.703     5647.841     1782.638      942.651        0.877        0.419       95.754       20.549        0.046      329.942       -3.001      861.506
12/10/2021  00:06:00     -149.241       51.450      -11.991       54.512       30.553       25.330     2971.588      933.508      641.589        1.480        0.227      157.860        8.493        0.003      329.940       -3.005      861.507
12/10/2021  00:07:00     -112.530       20.085      -13.264       37.105       28.061       23.276     1376.753      787.437      541.787        0.797        0.135      114.308       15.276        0.018      329.984       -2.933      861.508
12/10/2021  00:08:00      -47.532       51.287      -10.099       41.015       31.850       20.653     1682.248     1014.401      426.558        0.406        0.156       69.926       20.133        0.083      329.967       -2.961      861.504
12/10/2021  00:09:00      -40.058       26.374       -8.568       48.995       40.466       38.118     2400.491     1637.488     1452.996        0.393        0.275       47.961       25.588        0.285      330.183       -2.607      861.509
12/10/2021  00:10:00      -39.890       43.985      -11.227       52.752       39.253       26.519     2782.728     1540.781      703.277        0.434        0.251       59.380       22.557        0.144      330.149       -2.663      861.518
12/10/2021  00:11:00      -53.445       74.283      -11.649       51.297       62.350       30.112     2631.342     3887.467      906.705        0.797        0.371       91.511       32.726        0.128      330.244       -2.508      861.529
12/10/2021  00:12:00      -29.544      119.410      -23.472       52.133       67.070       38.734     2717.868     4498.355     1500.352        1.220        0.436      123.011       32.116        0.068      330.391       -2.266      861.527
12/10/2021  00:13:00       -1.048       84.730       -7.910       36.184       62.339       27.783     1309.265     3886.095      771.913        0.660        0.298       84.736       26.582        0.098      330.328       -2.368      861.509
12/10/2021  00:14:00       -8.015       89.716      -11.789       28.060       46.579       22.233      787.371     2169.629      494.296        0.585        0.173       90.073       20.938        0.054      330.383       -2.277      861.510
12/10/2021  00:15:00      -13.967      107.547      -16.296       38.709       55.494       22.455     1498.395     3079.582      504.242        0.855        0.254      108.450       24.861        0.053      330.435       -2.195      861.525
12/10/2021  00:16:00       -8.361       54.470       -7.886       42.021       19.805       17.732     1765.793      392.244      314.432        0.279        0.124       55.108        6.503        0.014      330.389       -2.269      861.528
12/10/2021  00:17:00       38.385       34.459      -18.643       26.405       26.053       19.098      697.200      678.755      364.728        0.237        0.087       51.583       11.526        0.050      330.416       -2.224      861.553
12/10/2021  00:18:00       36.505       30.223       -3.120       29.646       25.589       15.611      878.882      654.776      243.704        0.202        0.089       47.392       12.602        0.071      330.333       -2.360      861.591
12/10/2021  00:19:00       14.678       11.249       -6.619       19.724       22.570       15.268      389.033      509.390      233.122        0.076        0.057       18.493       10.079        0.297      330.267       -2.470      861.620
12/10/2021  00:20:00       30.785       10.603       -8.998       23.554       10.847       17.550      554.805      117.658      308.018        0.106        0.049       32.560        7.998        0.060      330.221       -2.544      861.645
12/10/2021  00:21:00       52.089        9.949      -26.723       42.359       34.815       27.489     1794.283     1212.104      755.650        0.364        0.188       53.031       14.703        0.077      330.260       -2.480      861.672
12/10/2021  00:22:00       -5.668       23.352       -5.797       16.464       24.678       18.395      271.063      609.020      338.361        0.091        0.061       24.030        7.987        0.110      330.389       -2.269      861.686
12/10/2021  00:23:00       -2.606       -0.332       -2.136       12.633       12.479       12.434      159.589      155.730      154.612        0.024        0.023        2.627        6.978        7.057      330.212       -2.560      861.695
12/10/2021  00:24:00       14.733      -41.588      -26.152       17.062       25.710       15.980      291.127      661.019      255.359        0.192        0.060       44.121       15.248        0.119      330.261       -2.478      861.713
12/10/2021  00:25:00      -39.244       -2.837      -12.606       35.220       25.274       19.417     1240.460      638.773      377.008        0.198        0.113       39.346        9.555        0.059      330.244       -2.507      861.716
12/10/2021  00:26:00      -37.858      -11.336       -5.041       41.209       26.580       20.816     1698.170      706.523      433.304        0.221        0.142       39.519       17.874        0.205      330.249       -2.498      861.720
12/10/2021  00:27:00      -98.397      -38.074      -16.251       69.928       36.473       23.134     4889.908     1330.287      535.176        0.907        0.338      105.507       14.504        0.019      330.161       -2.644      861.711
12/10/2021  00:28:00     -144.628      -24.597       -6.826       56.763       37.013       32.790     3221.996     1369.964     1075.159        1.362        0.283      146.704       32.459        0.049      330.163       -2.642      861.709
12/10/2021  00:29:00     -128.372       12.305       -6.014       62.040       44.124       35.232     3848.990     1946.936     1241.295        1.185        0.352      128.960       26.554        0.042      330.065       -2.802      861.694
12/10/2021  00:30:00     -167.789       -9.514      -23.169       60.974       43.458       28.011     3717.828     1888.621      784.608        1.758        0.320      168.059       25.020        0.022      330.136       -2.686      861.687
12/10/2021  00:31:00     -180.454       -7.527      -14.843       65.378       44.336       35.620     4274.344     1965.714     1268.752        2.017        0.375      180.611       33.207        0.034      330.157       -2.651      861.691
12/10/2021  00:32:00     -157.304      -14.281      -15.588       83.288       40.662       31.765     6936.961     1653.393     1009.045        1.739        0.480      157.951       31.476        0.040      330.115       -2.720      861.710
12/10/2021  00:33:00     -151.515      -26.564      -13.261       54.467       42.263       32.537     2966.671     1786.178     1058.658        1.482        0.291      153.826       29.006        0.036      330.116       -2.721      861.733
12/10/2021  00:34:00     -115.432        5.808      -14.197       35.599       22.646       17.983     1267.254      512.846      323.381        0.783        0.105      115.578       11.580        0.010      330.201       -2.579      861.755
12/10/2021  00:35:00     -122.183        8.316       -2.322       77.294       44.526       29.476     5974.428     1982.582      868.826        1.191        0.441      122.466       32.455        0.070      330.127       -2.699      861.768
12/10/2021  00:36:00     -126.410       -7.644       -4.153       56.201       30.150       27.351     3158.541      909.023      748.076        1.043        0.241      126.641       28.494        0.051      330.100       -2.745      861.781
12/10/2021  00:37:00     -137.184       31.885       -8.678       37.271       30.621       25.023     1389.134      937.669      626.129        1.143        0.148      140.841       19.869        0.020      330.094       -2.755      861.791
12/10/2021  00:38:00     -124.944       25.941       -1.958       52.639       34.633       23.129     2770.887     1199.431      534.941        1.040        0.225      127.609       23.245        0.033      330.054       -2.818      861.802
12/10/2021  00:39:00     -113.617       34.172       -8.759       43.783       28.218       29.932     1916.961      796.239      895.910        0.888        0.180      118.645       24.876        0.044      330.041       -2.839      861.810
12/10/2021  00:40:00     -141.225       34.751      -13.870       21.147       22.333       19.450      447.189      498.776      378.299        1.133        0.066      145.438       12.274        0.007      330.084       -2.768      861.832
12/10/2021  00:41:00      -89.601       17.096      -11.558       45.454       35.573       26.441     2066.028     1265.466      699.125        0.624        0.202       91.217       18.901        0.043      330.020       -2.875      861.853
12/10/2021  00:42:00     -154.734       21.778      -19.594       61.870       46.966       29.746     3827.883     2205.810      884.830        1.586        0.346      156.259       13.015        0.007      330.027       -2.864      861.865
12/10/2021  00:43:00      -46.615       21.899       12.580       79.158       42.848       32.334     6265.994     1835.943     1045.513        0.598        0.457       51.503       23.523        0.209      329.967       -2.960      861.875
12/10/2021  00:44:00      -46.973       15.192       -3.703       62.336       43.815       33.735     3885.715     1919.780     1138.047        0.470        0.347       49.369       32.529        0.434      330.031       -2.856      861.882
12/10/2021  00:45:00      -49.701       14.891       -6.899       79.861       41.178       37.555     6377.832     1695.626     1410.386        0.611        0.474       51.883       35.509        0.468      330.020       -2.876      861.886
12/10/2021  00:46:00     -119.406       36.019       -1.328       69.559       54.128       36.776     4838.502     2929.841     1352.444        1.234        0.456      124.720       34.373        0.076      329.987       -2.927      861.893
12/10/2021  00:47:00     -137.654       50.525       -2.299       68.242       44.298       39.707     4656.952     1962.331     1576.683        1.485        0.410      146.633       31.987        0.048      330.024       -2.868      861.896
12/10/2021  00:48:00     -146.686       43.378       -2.936       76.065       47.080       39.375     5785.903     2216.527     1550.411        1.648        0.478      152.965       38.863        0.065      329.999       -2.909      861.901
12/10/2021  00:49:00     -112.644        5.310       -0.699       82.744       53.553       38.305     6846.631     2867.889     1467.246        1.195        0.559      112.769       34.147        0.092      330.000       -2.907      861.900
12/10/2021  00:50:00     -134.697       13.958        4.023       94.686       74.094       43.628     8965.461     5489.970     1903.392        1.735        0.818      135.418       38.646        0.081      330.048       -2.830      861.902
12/10/2021  00:51:00     -126.173       11.391       -8.477       92.219       67.181       42.482     8504.426     4513.286     1804.756        1.547        0.741      126.686       42.012        0.110      329.950       -2.989      861.916
12/10/2021  00:52:00      -58.666       22.518      -15.168       66.872       64.405       46.828     4471.809     4148.010     2192.840        0.749        0.541       62.839       37.233        0.351      329.942       -3.001      861.934
12/10/2021  00:53:00      -47.118        3.111      -20.840       67.402       42.198       33.129     4542.977     1780.639     1097.501        0.504        0.371       47.220       30.718        0.423      330.057       -2.813      861.946
12/10/2021  00:54:00      -90.191       13.395       -1.435       72.899       52.583       37.521     5314.246     2764.986     1407.804        0.890        0.474       91.180       30.812        0.114      329.991       -2.922      861.954
12/10/2021  00:55:00     -127.231       39.046      -16.890       61.878       51.389       37.605     3828.861     2640.862     1414.144        1.294        0.394      133.087       28.112        0.045      329.980       -2.940      861.953
12/10/2021  00:56:00     -129.325       43.155      -14.815       56.683       41.645       27.490     3212.912     1734.284      755.686        1.225        0.285      136.335       20.846        0.023      329.966       -2.963      861.956
12/10/2021  00:57:00      -68.794       43.770      -10.135       49.408       38.674       26.953     2441.172     1495.676      726.466        0.571        0.233       81.538       19.454        0.057      330.005       -2.900      861.969
12/10/2021  00:58:00     -100.611       31.826      -14.174       39.790       31.708       20.384     1583.217     1005.406      415.523        0.717        0.150      105.525       17.642        0.028      330.058       -2.813      861.989
12/10/2021  00:59:00     -111.255       23.921      -11.481       56.630       37.400       25.004     3206.945     1398.747      625.197        0.916        0.262      113.798       23.933        0.044      330.011       -2.890      862.010
12/10/2021  01:00:00     -113.162       46.883      -15.387       36.131       41.859       23.034     1305.426     1752.171      530.565        0.941        0.179      122.489       14.042        0.013      329.972       -2.952      862.022
12/10/2021  01:01:00     -153.050       50.695       -9.201       48.918       38.480       34.418     2392.960     1480.682     1184.584        1.557        0.253      161.228       28.886        0.032      329.952       -2.986      862.027
12/10/2021  01:02:00     -171.840       45.117       -0.054       55.894       44.010       32.098     3124.089     1936.890     1030.294        1.883        0.305      177.664       29.251        0.027      329.936       -3.013      862.033
12/10/2021  01:03:00      -72.640        8.753       -9.256       65.202       40.125       36.913     4251.344     1610.026     1362.539        0.633        0.361       73.166       24.902        0.116      329.920       -3.037      862.029
12/10/2021  01:04:00      -48.548       -3.856       -2.864       74.349       57.144       43.512     5527.786     3265.417     1893.337        0.653        0.534       48.701       44.408        0.831      329.932       -3.017      862.036
12/10/2021  01:05:00      -43.766       27.829        2.821       70.805       52.193       32.361     5013.277     2724.079     1047.265        0.574        0.439       51.864       31.139        0.360      329.921       -3.036      862.028
12/10/2021  01:06:00     -109.361       32.370       -2.325       80.467       52.180       38.989     6474.941     2722.748     1520.106        1.186        0.536      114.051       35.318        0.096      329.904       -3.065      862.019
12/10/2021  01:07:00     -125.152       26.940        1.492       76.998       46.707       41.099     5928.639     2181.584     1689.132        1.309        0.490      128.018       34.431        0.072      330.016       -2.883      861.999
12/10/2021  01:08:00     -186.641       78.737       -7.855       69.249       57.100       33.519     4795.385     3260.397     1123.551        2.514        0.459      202.569       36.112        0.032      329.982       -2.938      861.992
12/10/2021  01:09:00     -181.919       57.707        1.749       83.916       50.650       41.316     7041.903     2565.425     1707.038        2.387        0.566      190.853       43.579        0.052      330.006       -2.900      861.971
12/10/2021  01:10:00      -99.549       26.391       -1.072       78.831       44.495       40.250     6214.344     1979.802     1620.089        1.021        0.491      102.988       40.741        0.156      330.040       -2.840      861.957
12/10/2021  01:11:00     -116.559       68.853      -15.829       44.234       34.836       26.172     1956.671     1213.517      684.974        1.122        0.193      135.376       10.493        0.006      330.039       -2.841      861.962
12/10/2021  01:12:00     -109.192        2.522      -13.142       71.585       46.952       36.353     5124.365     2204.515     1321.563        1.037        0.433      109.221       28.737        0.069      329.970       -2.956      861.958
12/10/2021  01:13:00     -115.555       50.324      -16.047       47.111       29.370       30.865     2219.455      862.625      952.677        1.009        0.202      126.038       16.898        0.018      329.908       -3.059      861.953
12/10/2021  01:14:00     -206.962       60.407      -12.600       66.847       53.103       39.445     4468.548     2819.879     1555.917        2.774        0.442      215.597       36.441        0.029      330.001       -2.907      861.951
12/10/2021  01:15:00     -139.993       40.311      -18.479       52.083       54.402       31.893     2712.671     2959.571     1017.159        1.413        0.334      145.682       32.382        0.049      330.052       -2.822      861.943
12/10/2021  01:16:00      -81.328       39.525      -24.285       44.718       44.236       33.128     1999.740     1956.817     1097.478        0.691        0.253       90.424       31.078        0.118      330.005       -2.900      861.934
12/10/2021  01:17:00     -145.278       75.976      -20.991       40.638       42.843       26.637     1651.457     1835.552      709.544        1.576        0.210      163.945       17.726        0.012      329.934       -3.016      861.933
12/10/2021  01:18:00      -98.776       33.473      -22.762       56.316       23.610       20.376     3171.517      557.412      415.189        0.777        0.207      104.293        8.163        0.006      329.941       -3.005      861.951
12/10/2021  01:19:00      -21.352        4.665      -10.545       37.534       29.778       20.726     1408.824      886.733      429.560        0.166        0.136       21.856       18.840        0.743      330.020       -2.873      861.979
12/10/2021  01:20:00       26.450      -40.143      -18.130       19.170       24.900       16.213      367.495      619.994      262.871        0.194        0.063       48.074       11.012        0.052      330.032       -2.855      862.001
12/10/2021  01:21:00       -3.172      -23.441       -8.012       27.073       24.223       25.597      732.935      586.730      655.218        0.130        0.099       23.655       21.503        0.826      330.112       -2.725      862.022
12/10/2021  01:22:00       -9.344      -15.266      -33.684       31.059       19.264       20.099      964.635      371.096      403.984        0.160        0.087       17.898        9.148        0.261      330.139       -2.682      862.028
12/10/2021  01:23:00        3.106      -43.265      -17.343       28.204       23.345       19.379      795.465      545.005      375.533        0.195        0.086       43.376        5.949        0.019      330.244       -2.506      862.032
12/10/2021  01:24:00       16.669        1.003       -6.882       23.717       23.953       12.398      562.500      573.760      153.721        0.081        0.064       16.699        7.014        0.176      330.110       -2.727      862.038
12/10/2021  01:25:00        8.459        5.216       -6.089       16.485       16.594       13.503      271.748      275.347      182.318        0.043        0.036        9.937        9.597        0.933      330.038       -2.844      862.048
12/10/2021  01:26:00       -3.674       29.023      -20.510       18.589       15.236       14.860      345.567      232.144      220.830        0.104        0.040       29.255       11.438        0.153      330.023       -2.870      862.070
12/10/2021  01:27:00        2.090        9.860       -4.490       12.765       14.264       10.720      162.950      203.463      114.918        0.030        0.024       10.079        7.571        0.564      329.826       -3.191      862.086
12/10/2021  01:28:00       33.463       20.130      -18.283       11.881        7.752       12.910      141.158       60.095      166.680        0.111        0.018       39.051        8.152        0.044      329.817       -3.207      862.098
12/10/2021  01:29:00       32.243        0.974      -13.740       11.240       15.615       10.489      126.329      243.815      110.018        0.085        0.024       32.257        6.548        0.041      329.831       -3.185      862.105
12/10/2021  01:30:00        0.895      -16.719       -6.862        8.080       16.179        7.877       65.282      261.748       62.045        0.036        0.019       16.743        6.922        0.171      329.877       -3.108      862.123
12/10/2021  01:31:00       26.578      -27.392       -9.702       19.043       18.046       14.110      362.625      325.673      199.081        0.122        0.044       38.167        9.352        0.060      329.905       -3.061      862.129
12/10/2021  01:32:00        5.841       -3.360       -6.760       18.398       23.388       19.454      338.472      547.016      378.446        0.068        0.063        6.739       13.638        4.096      329.872       -3.116      862.146
12/10/2021  01:33:00        7.531       21.655      -17.135       20.833       21.169       18.805      434.019      448.139      353.627        0.103        0.062       22.928        7.838        0.117      329.859       -3.138      862.171
12/10/2021  01:34:00       39.603       26.033       -9.430       22.572       12.558       10.996      509.516      157.706      120.903        0.156        0.039       47.393        8.956        0.036      329.794       -3.244      862.193
12/10/2021  01:35:00       49.678       17.988      -16.348       13.065       10.018        9.520      170.682      100.362       90.621        0.171        0.018       52.834        2.956        0.003      329.759       -3.301      862.199
12/10/2021  01:36:00       54.796       14.342       -6.618       15.421       12.481        9.926      237.819      155.769       98.517        0.187        0.025       56.642        1.428        0.001      329.764       -3.294      862.195
12/10/2021  01:37:00       56.450       12.553       -5.295       23.358       17.447       15.389      545.612      304.383      236.806        0.223        0.054       57.829       11.115        0.037      329.775       -3.276      862.200
12/10/2021  01:38:00       56.853       -0.542       -7.120       33.883       27.365       21.582     1148.077      748.839      465.762        0.282        0.118       56.855       19.542        0.118      329.858       -3.140      862.210
12/10/2021  01:39:00       46.210        0.203      -13.163       27.708       25.676       20.243      767.752      659.258      409.759        0.207        0.092       46.210       10.421        0.051      329.844       -3.163      862.214
12/10/2021  01:40:00       56.112       -9.982       -8.278       35.205       23.048       16.663     1239.393      531.200      277.649        0.268        0.102       56.993       10.618        0.035      329.793       -3.246      862.218
12/10/2021  01:41:00       44.343       37.195      -29.130       36.268       28.039       20.790     1315.359      786.172      432.236        0.337        0.127       57.877       12.616        0.048      329.910       -3.054      862.220
12/10/2021  01:42:00       74.579       33.796      -16.784       28.225       26.313       17.369      796.661      692.389      301.674        0.439        0.090       81.879       11.086        0.018      329.871       -3.118      862.211
12/10/2021  01:43:00       98.074       32.157      -14.046        8.431       10.374        6.129       71.084      107.623       37.566        0.553        0.011      103.212        4.752        0.002      330.023       -2.867      862.199
12/10/2021  01:44:00       94.152       26.108      -10.253       18.698       16.069       10.160      349.622      258.216      103.216        0.518        0.036       97.705        6.028        0.004      329.980       -2.940      862.182
12/10/2021  01:45:00       61.708        8.098      -12.254       25.122       23.677       19.157      631.115      560.588      366.978        0.279        0.078       62.237       12.681        0.042      329.965       -2.964      862.175
12/10/2021  01:46:00       -0.929       13.459       -8.482       20.011       13.352       11.023      400.438      178.278      121.516        0.048        0.035       13.491        8.183        0.368      329.831       -3.185      862.173
12/10/2021  01:47:00      -55.712       17.511      -10.576       20.639       19.890       13.362      425.982      395.611      178.553        0.226        0.050       58.399        7.869        0.018      329.833       -3.180      862.171
12/10/2021  01:48:00      -70.766      -14.860       -8.467       30.015       27.211       19.654      900.913      740.425      386.272        0.366        0.101       72.310       14.951        0.043      329.853       -3.147      862.169
12/10/2021  01:49:00      -39.630        7.620       -8.234       22.393       17.469       15.226      501.451      305.177      231.841        0.137        0.052       40.356        8.320        0.043      329.987       -2.928      862.158
12/10/2021  01:50:00       -9.536      -17.774       -4.679       17.855       18.388       13.875      318.788      338.130      192.515        0.064        0.042       20.170       11.176        0.307      330.111       -2.727      862.147
12/10/2021  01:51:00       -2.595       -5.909       -5.297       14.803       13.943       14.922      219.131      194.407      222.662        0.035        0.032        6.454        9.261        2.059      330.095       -2.753      862.130
12/10/2021  01:52:00      -50.373       -5.386        0.392       40.972       25.173       20.526     1678.723      633.681      421.330        0.265        0.137       50.660       23.049        0.207      330.091       -2.759      862.119
12/10/2021  01:53:00      -46.146       -9.433       -9.063       42.245       27.885       19.482     1784.599      777.562      379.557        0.262        0.147       47.101       11.665        0.061      330.235       -2.522      862.114
12/10/2021  01:54:00      -80.607        7.563      -11.797       34.281       32.053       27.279     1175.182     1027.370      744.166        0.482        0.147       80.961       16.595        0.042      330.286       -2.437      862.123
12/10/2021  01:55:00      -46.178      -21.737       -3.997       39.089       26.951       19.499     1527.955      726.380      380.216        0.263        0.132       51.038       18.870        0.137      330.273       -2.459      862.127
12/10/2021  01:56:00      -37.598       -0.793       -4.553       19.097       18.479       12.315      364.694      341.487      151.663        0.115        0.043       37.607        6.578        0.031      330.172       -2.626      862.121
12/10/2021  01:57:00      -19.382       -7.015       -8.829       26.115       21.372       14.869      681.980      456.771      221.078        0.093        0.068       20.612        8.463        0.169      330.162       -2.641      862.120
12/10/2021  01:58:00      -13.891      -54.859      -21.653       28.034       22.127       14.433      785.912      489.598      208.307        0.258        0.074       56.590        9.969        0.031      330.191       -2.594      862.119
12/10/2021  01:59:00      -34.716      -25.864      -22.166       33.972       37.467       20.318     1154.108     1403.793      412.829        0.267        0.149       43.292       21.262        0.241      330.169       -2.631      862.130
12/10/2021  02:00:00        7.132        4.810       -6.574       23.610       21.097       18.452      557.416      445.104      340.478        0.073        0.067        8.602       14.257        2.747      330.134       -2.688      862.151
12/10/2021  02:01:00       -9.287       -2.231      -10.805       16.484       18.559       16.331      271.712      344.447      266.700        0.055        0.044        9.551       10.868        1.295      330.116       -2.718      862.164
12/10/2021  02:02:00        0.114      -25.786      -19.530       22.111       15.767       18.764      488.905      248.613      352.076        0.107        0.054       25.786       10.269        0.159      330.188       -2.600      862.178
12/10/2021  02:03:00      -59.517      -22.601       -8.163       53.403       30.690       28.309     2851.834      941.894      801.410        0.436        0.230       63.664       15.577        0.060      330.182       -2.610      862.191
12/10/2021  02:04:00      -60.480       -1.484        4.938       32.211       38.644       22.536     1037.529     1493.355      507.867        0.336        0.152       60.498       18.148        0.090      330.150       -2.663      862.203
12/10/2021  02:05:00      -80.161        5.699       -9.310       50.831       38.599       23.776     2583.748     1489.907      565.287        0.559        0.232       80.364       19.354        0.058      330.054       -2.820      862.211
12/10/2021  02:06:00      -49.099        5.676      -10.058       47.224       36.415       23.489     2230.149     1326.049      551.724        0.333        0.205       49.426       12.893        0.068      329.848       -3.156      862.218
12/10/2021  02:07:00      -65.534       39.513      -17.014       31.928       21.365       17.105     1019.408      456.479      292.581        0.396        0.088       76.525        6.648        0.008      329.866       -3.127      862.240
12/10/2021  02:08:00      -68.982       47.939      -12.540       11.667       14.822       12.151      136.124      219.684      147.640        0.386        0.025       84.004        7.237        0.007      329.882       -3.100      862.260
12/10/2021  02:09:00      -70.730       31.125      -14.683       20.683       27.450       15.298      427.790      753.486      234.032        0.380        0.071       77.275        9.376        0.015      329.830       -3.186      862.278
12/10/2021  02:10:00      -39.259        5.928      -21.669       47.748       17.843       16.874     2279.909      318.377      284.723        0.246        0.144       39.704        7.308        0.034      329.778       -3.272      862.291
12/10/2021  02:11:00       -1.542       -6.671       -8.169       41.982       27.060       24.083     1762.482      732.269      579.979        0.159        0.154        6.847       21.760       10.100      329.798       -3.238      862.301
12/10/2021  02:12:00        2.985       -5.493       -1.830       18.737       25.319       17.428      351.090      641.050      303.724        0.067        0.065        6.252       11.204        3.211      329.710       -3.382      862.306
12/10/2021  02:13:00      -32.175       -9.538      -11.446       49.905       33.035       24.527     2490.555     1091.293      601.592        0.272        0.209       33.559       22.001        0.430      329.642       -3.493      862.303
12/10/2021  02:14:00     -103.320       40.111      -13.882       34.299       23.493       18.512     1176.420      551.903      342.705        0.727        0.104      110.833       15.182        0.019      329.525       -3.685      862.307
12/10/2021  02:15:00      -87.630       23.652      -10.178       35.561       33.651       17.836     1264.575     1132.368      318.121        0.553        0.136       90.766       15.172        0.028      329.538       -3.665      862.311
12/10/2021  02:16:00     -103.992       30.312      -14.222       26.704       18.822       14.574      713.124      354.275      212.401        0.661        0.064      108.320        9.140        0.007      329.489       -3.743      862.319
12/10/2021  02:17:00     -116.154       30.049      -10.796       23.122       20.001       18.441      534.647      400.049      340.065        0.789        0.064      119.978       13.504        0.013      329.542       -3.656      862.330
12/10/2021  02:18:00      -98.687       21.702       -9.329       35.299       21.887       22.549     1246.047      479.055      508.472        0.626        0.112      101.045       21.868        0.047      329.473       -3.772      862.335
12/10/2021  02:19:00     -109.372       33.791      -13.826       30.092       22.673       15.743      905.544      514.070      247.840        0.748        0.083      114.473       12.146        0.011      329.477       -3.764      862.335
12/10/2021  02:20:00      -68.192       14.355      -10.766       45.726       22.401       19.284     2090.888      501.787      371.876        0.397        0.148       69.686       18.491        0.070      329.554       -3.637      862.336
12/10/2021  02:21:00      -87.828       17.489       -4.993       36.075       28.247       16.619     1301.401      797.883      276.190        0.521        0.119       89.553       18.381        0.042      329.568       -3.614      862.330
12/10/2021  02:22:00      -83.750       16.153       -2.809       30.304       20.552       15.228      918.328      422.370      231.883        0.443        0.079       85.293       10.481        0.015      329.589       -3.579      862.332
12/10/2021  02:23:00      -79.364       35.815       -4.751       26.432       23.087       17.380      698.629      533.032      302.067        0.457        0.077       87.071       16.440        0.036      329.486       -3.747      862.338
12/10/2021  02:24:00     -102.717       28.265       -1.985       24.990       16.726       19.906      624.522      279.769      396.238        0.633        0.065      106.535       12.304        0.013      329.574       -3.604      862.341
12/10/2021  02:25:00      -66.661       24.099      -10.511       19.181       14.790       12.122      367.924      218.750      146.943        0.293        0.037       70.884        6.904        0.009      329.658       -3.466      862.334
12/10/2021  02:26:00      -48.944       -0.039      -13.724       29.285       26.093       16.082      857.637      680.829      258.640        0.219        0.090       48.944       11.323        0.054      329.614       -3.537      862.330
12/10/2021  02:27:00      -95.175       30.519      -14.396       34.386       25.900       16.288     1182.412      670.814      265.311        0.616        0.106       99.948       18.194        0.033      329.614       -3.538      862.328
12/10/2021  02:28:00      -75.401       32.827      -15.377       45.819       28.563       21.417     2099.376      815.834      458.679        0.519        0.169       82.237       23.753        0.083      329.521       -3.691      862.336
12/10/2021  02:29:00      -87.462       40.673       -6.391       37.796       32.332       20.577     1428.535     1045.387      423.419        0.612        0.145       96.456        8.978        0.009      329.476       -3.765      862.346
12/10/2021  02:30:00      -39.296       18.268      -10.020       63.273       27.083       27.307     4003.454      733.493      745.668        0.373        0.274       43.334       27.356        0.399      329.408       -3.876      862.355
12/10/2021  02:31:00      -40.160        5.749      -19.358       47.127       30.902       17.206     2220.962      954.957      296.053        0.275        0.174       40.570       10.372        0.065      329.412       -3.869      862.367
12/10/2021  02:32:00     -121.546       47.520       -5.572       76.254       40.328       26.945     5814.744     1626.313      726.046        1.261        0.408      130.505       25.094        0.037      329.266       -4.107      862.388
12/10/2021  02:33:00     -167.568       63.901      -12.384       40.094       28.247       28.365     1607.537      797.883      804.583        1.776        0.161      179.338       23.466        0.017      329.163       -4.276      862.405
12/10/2021  02:34:00      -62.017        9.760      -12.105       77.549       41.735       21.730     6013.787     1741.769      472.172        0.616        0.411       62.780       22.385        0.127      329.149       -4.299      862.420
12/10/2021  02:35:00       -4.708      -13.270       -1.337       38.597       24.475       24.116     1489.736      599.023      581.579        0.143        0.134       14.081       16.992        1.456      329.191       -4.230      862.439
12/10/2021  02:36:00     -114.771       26.634       -2.761       36.392       28.376       18.368     1324.402      805.207      337.398        0.818        0.123      117.821       17.854        0.023      329.244       -4.142      862.440
12/10/2021  02:37:00     -109.992       40.213       -7.752       26.630       21.404       20.117      709.136      458.127      404.687        0.767        0.079      117.112       17.839        0.023      329.251       -4.131      862.443
12/10/2021  02:38:00     -114.769       12.781       -7.964       56.333       30.938       23.354     3173.364      957.139      545.394        0.904        0.234      115.478       21.770        0.036      329.300       -4.052      862.444
12/10/2021  02:39:00      -96.786       23.800       -2.734       42.523       26.021       21.758     1808.193      677.103      473.429        0.645        0.148       99.669       21.151        0.045      329.219       -4.185      862.443
12/10/2021  02:40:00      -89.565       34.186       -8.651       35.578       27.538       17.701     1265.819      758.364      313.323        0.580        0.117       95.867       16.772        0.031      329.141       -4.312      862.437
12/10/2021  02:41:00      -99.258       28.623      -11.610       29.857       22.274       21.551      891.457      496.139      464.439        0.633        0.093      103.302       16.760        0.026      329.169       -4.266      862.438
12/10/2021  02:42:00      -91.002       37.093       -2.881       35.191       18.759       16.117     1238.422      351.885      259.746        0.576        0.093       98.271       17.647        0.032      329.142       -4.310      862.443
12/10/2021  02:43:00      -94.124       53.892       -4.258       42.819       21.087       21.581     1833.429      444.673      465.744        0.726        0.137      108.460       21.249        0.038      329.128       -4.333      862.433
12/10/2021  02:44:00     -106.004       49.600       -7.057       48.676       31.824       25.429     2369.385     1012.773      646.641        0.889        0.201      117.034       26.099        0.050      329.118       -4.351      862.435
12/10/2021  02:45:00     -118.263       79.844      -19.542       36.579       45.252       23.001     1337.994     2047.705      529.068        1.233        0.196      142.693       17.749        0.015      329.100       -4.380      862.429
12/10/2021  02:46:00     -126.292       72.695      -24.299       47.936       36.661       27.438     2297.897     1344.027      752.844        1.311        0.220      145.720       20.974        0.021      329.084       -4.405      862.432
12/10/2021  02:47:00     -128.511       63.052      -25.536       48.857       37.987       29.062     2386.983     1443.040      844.572        1.291        0.234      143.145       22.810        0.025      329.129       -4.332      862.438
12/10/2021  02:48:00      -95.421       39.205       -6.322       49.954       36.345       31.811     2495.433     1320.954     1011.912        0.775        0.241      103.161       26.451        0.066      329.111       -4.360      862.442
12/10/2021  02:49:00      -84.196       73.928      -17.865       49.082       40.528       30.932     2409.028     1642.548      956.790        0.894        0.250      112.047       21.752        0.038      329.310       -4.036      862.445
12/10/2021  02:50:00      -76.348       77.494       -8.646       40.536       52.815       23.043     1643.137     2789.431      530.992        0.844        0.248      108.786       23.924        0.048      329.314       -4.029      862.447
12/10/2021  02:51:00      -89.142       66.293       -9.928       33.425       28.518       27.371     1117.203      813.250      749.154        0.756        0.134      111.091       21.201        0.036      329.353       -3.964      862.445
12/10/2021  02:52:00      -91.656       67.194      -20.232       25.117       28.555       19.684      630.880      815.406      387.443        0.758        0.092      113.648       13.436        0.014      329.396       -3.895      862.439
12/10/2021  02:53:00      -56.017       46.989       -8.227       28.227       22.556       15.672      796.762      508.751      245.620        0.348        0.078       73.115       10.617        0.021      329.389       -3.906      862.434
12/10/2021  02:54:00      -60.349       63.457       -4.995       18.907       25.820       16.248      357.466      666.657      264.003        0.449        0.064       87.571       11.354        0.017      329.448       -3.811      862.436
12/10/2021  02:55:00      -39.255       23.897      -12.889       18.137       21.851       14.899      328.966      477.486      221.980        0.165        0.051       45.957        9.845        0.046      329.426       -3.848      862.451
12/10/2021  02:56:00      -14.462      -19.117       -7.936       13.109       19.427       12.353      171.855      377.414      152.587        0.067        0.035       23.971        8.903        0.138      329.529       -3.677      862.470
12/10/2021  02:57:00       -9.375       -5.089       -9.116       14.390        8.814       12.678      207.082       77.689      160.729        0.032        0.022       10.668       11.903        1.245      329.582       -3.592      862.484
12/10/2021  02:58:00       -4.483      -10.003      -11.635        9.685       11.793        9.067       93.790      139.078       82.203        0.029        0.016       10.962        6.802        0.385      329.582       -3.591      862.503
12/10/2021  02:59:00      -25.223      -12.697       -7.787       21.489       19.971       10.527      461.793      398.850      110.817        0.091        0.049       28.239        8.896        0.099      329.467       -3.781      862.511
12/10/2021  03:00:00       27.794       22.894       -3.991       37.145       36.555       22.939     1379.749     1336.280      526.218        0.228        0.162       36.009        6.977        0.038      329.215       -4.191      862.513
12/10/2021  03:01:00       33.967      -20.601      -13.821       56.885       66.360       39.047     3235.868     4403.712     1524.702        0.547        0.458       39.726       28.748        0.524      329.385       -3.912      862.494
12/10/2021  03:02:00      101.446      -23.639      -42.038       55.055       62.410       43.223     3031.029     3895.070     1868.218        1.070        0.440      104.164       26.960        0.067      329.421       -3.855      862.482
12/10/2021  03:03:00       56.496      -26.165      -22.021       40.103       48.056       40.104     1608.289     2309.372     1608.344        0.494        0.276       62.261       23.202        0.139      329.324       -4.013      862.469
12/10/2021  03:04:00       43.380      -54.114      -26.902       39.983       38.092       23.718     1598.639     1451.003      562.554        0.457        0.181       69.355       10.502        0.023      329.594       -3.573      862.454
12/10/2021  03:05:00      -22.527      -17.810       -8.863       28.317       22.616       17.252      801.845      511.479      297.629        0.126        0.081       28.717        9.510        0.110      329.496       -3.731      862.434
12/10/2021  03:06:00      -12.500      -38.272        1.549       57.360       32.097       22.481     3290.186     1030.233      505.384        0.322        0.241       40.262       22.659        0.317      329.326       -4.009      862.411
12/10/2021  03:07:00       33.514      -55.371      -22.476       26.212       24.707       16.888      687.087      610.454      285.195        0.314        0.079       64.723       12.315        0.036      329.285       -4.076      862.395
12/10/2021  03:08:00      -15.041      -11.498      -10.379       27.010       35.572       10.981      729.557     1265.358      120.577        0.129        0.106       18.932       10.359        0.299      329.342       -3.984      862.399
12/10/2021  03:09:00      -22.715       22.291        0.142       23.207       20.663       16.947      538.548      426.943      287.211        0.113        0.063       31.825       17.145        0.290      329.163       -4.277      862.401
12/10/2021  03:10:00      -70.011       20.752       -7.567       31.923       19.585       20.361     1019.066      383.576      414.563        0.360        0.091       73.022       14.899        0.042      329.113       -4.359      862.403
12/10/2021  03:11:00     -100.225       18.213       -6.719       20.585       26.064       16.251      423.743      679.334      264.099        0.589        0.068      101.867       11.645        0.013      329.159       -4.281      862.404
12/10/2021  03:12:00      -46.902       -2.142       -3.838       40.646       26.725       19.344     1652.073      714.214      374.178        0.248        0.137       46.951       18.619        0.157      329.212       -4.195      862.403
12/10/2021  03:13:00       -5.601      -20.116        2.091       18.486       25.747       17.907      341.732      662.890      320.656        0.088        0.066       20.881       12.349        0.350      329.332       -4.000      862.398
12/10/2021  03:14:00      -24.235      -11.079      -14.250       23.394       26.617       19.688      547.273      708.444      387.627        0.128        0.082       26.647       11.642        0.191      329.356       -3.962      862.404
12/10/2021  03:15:00       -3.311       -3.229       -4.832       16.084       20.508       14.405      258.695      420.578      207.497        0.047        0.044        4.625        7.101        2.357      329.316       -4.026      862.418
12/10/2021  03:16:00        2.658      -19.433       -5.802       14.203       23.677       12.409      201.723      560.616      153.994        0.067        0.046       19.614       13.953        0.506      329.402       -3.886      862.427
12/10/2021  03:17:00       31.284      -61.749      -18.663       35.916       31.589       19.294     1289.959      997.838      372.276        0.390        0.133       69.222       15.964        0.053      329.414       -3.865      862.432
12/10/2021  03:18:00      -35.712      -37.481      -14.165       29.810       23.731       17.885      888.624      563.179      319.855        0.233        0.089       51.770        8.557        0.027      329.459       -3.793      862.434
12/10/2021  03:19:00      -34.777       -7.736       -5.859       19.431       15.887       15.964      377.581      252.410      254.856        0.109        0.044       35.627        8.578        0.058      329.399       -3.892      862.436
12/10/2021  03:20:00      -46.953      -33.781      -13.933       19.365       26.380       21.324      374.991      695.915      454.696        0.253        0.076       57.842       14.041        0.059      329.346       -3.976      862.447
12/10/2021  03:21:00      -43.625      -70.625      -39.322       27.764       29.324       20.211      770.817      859.908      408.474        0.524        0.102       83.012       10.568        0.016      329.420       -3.856      862.461
12/10/2021  03:22:00      -36.619      -19.423      -19.176       25.541       25.466       16.808      652.327      648.541      282.496        0.183        0.079       41.451       12.652        0.093      329.306       -4.042      862.476
12/10/2021  03:23:00       -7.031       11.519       -4.599       14.988       11.732       10.539      224.642      137.631      111.078        0.034        0.024       13.495        8.915        0.436      329.328       -4.005      862.487
12/10/2021  03:24:00        5.253       42.076       -4.730       18.233       14.321       12.478      332.432      205.100      155.707        0.126        0.035       42.403        8.220        0.038      329.316       -4.027      862.511
12/10/2021  03:25:00       13.966       32.204       -6.497       15.114       16.375       14.021      228.440      268.128      196.582        0.098        0.035       35.102        4.909        0.020      329.245       -4.141      862.527
12/10/2021  03:26:00        9.181       22.256       -2.683       15.146       15.666        9.327      229.399      245.431       86.989        0.057        0.028       24.075        9.823        0.166      329.206       -4.205      862.532
12/10/2021  03:27:00       17.050       -2.329      -10.918       18.556       14.898       11.004      344.327      221.954      121.081        0.055        0.034       17.208        7.705        0.200      329.275       -4.094      862.518
12/10/2021  03:28:00        3.304      -16.644       -5.423       21.559       19.770       17.602      464.798      390.861      309.823        0.074        0.058       16.969        7.918        0.218      329.263       -4.112      862.502
12/10/2021  03:29:00      -18.566       -9.950       -4.900       29.847       23.277       20.874      890.848      541.836      435.716        0.117        0.093       21.064        9.520        0.204      329.292       -4.066      862.492
12/10/2021  03:30:00      -25.981       -5.919      -10.581       17.909       17.718       16.338      320.738      313.929      266.943        0.086        0.045       26.647        9.589        0.130      329.297       -4.056      862.491
12/10/2021  03:31:00       20.134       12.223       -3.910       28.810       21.072       22.011      829.996      444.040      484.472        0.116        0.088       23.554        8.786        0.139      329.309       -4.039      862.506
12/10/2021  03:32:00       -5.284       21.674        0.266       26.064       20.969       13.061      679.349      439.686      170.587        0.089        0.064       22.309        5.766        0.067      329.246       -4.140      862.537
12/10/2021  03:33:00       18.495       20.693       -7.609       16.891       10.636        9.286      285.314      113.116       86.235        0.066        0.024       27.754        7.332        0.070      329.145       -4.305      862.568
12/10/2021  03:34:00       -3.646       15.259       -0.543        8.355        8.051        7.008       69.811       64.812       49.106        0.022        0.009       15.689        5.491        0.122      329.096       -4.386      862.596
12/10/2021  03:35:00      -22.715       15.909      -11.964       11.493        8.829       11.583      132.081       77.944      134.164        0.063        0.017       27.733        6.696        0.058      329.146       -4.304      862.621
12/10/2021  03:36:00       -5.726       24.484       -8.069       10.208       19.317       13.204      104.206      373.130      174.357        0.067        0.033       25.144        5.571        0.049      329.148       -4.301      862.631
12/10/2021  03:37:00       -8.541       28.889       -5.466       11.489       19.858       10.876      131.999      394.357      118.286        0.079        0.032       30.125        6.591        0.048      329.117       -4.351      862.637
12/10/2021  03:38:00        0.598       21.673      -11.785       17.897       11.016       11.700      320.300      121.363      136.895        0.059        0.029       21.682        8.620        0.158      329.047       -4.465      862.643
12/10/2021  03:39:00      -26.192       28.334       -6.957       18.419       18.214       11.459      339.249      331.757      131.315        0.117        0.040       38.586        7.336        0.036      329.019       -4.512      862.647
12/10/2021  03:40:00      -36.159      -18.787      -14.503       27.039       19.577       11.741      731.124      383.257      137.859        0.156        0.063       40.749        8.133        0.040      329.069       -4.429      862.661
12/10/2021  03:41:00      -32.272      -20.464      -18.327       27.531       37.090       18.237      757.967     1375.631      332.589        0.213        0.123       38.213       17.041        0.199      329.024       -4.503      862.671
12/10/2021  03:42:00      -29.607       -2.309      -20.170       31.695       25.249       19.214     1004.594      637.537      369.164        0.165        0.101       29.697       10.161        0.117      329.066       -4.435      862.682
12/10/2021  03:43:00      -22.658        0.135       -3.515       22.506       19.877        9.527      506.524      395.090       90.771        0.076        0.050       22.659        8.338        0.135      329.000       -4.542      862.699
12/10/2021  03:44:00       -8.656      -18.822      -10.497       12.749       14.684       10.850      162.538      215.609      117.726        0.052        0.025       20.717        7.675        0.137      329.116       -4.353      862.721
12/10/2021  03:45:00      -16.329      -23.447      -19.051       22.889       19.925       18.331      523.889      397.008      336.034        0.122        0.063       28.572       10.302        0.130      329.095       -4.388      862.734
12/10/2021  03:46:00      -14.278      -39.540      -25.639       24.205       33.513       20.866      585.863     1123.114      435.385        0.228        0.107       42.039       13.737        0.107      329.052       -4.459      862.751
12/10/2021  03:47:00      -17.604      -44.003      -30.342       23.719       21.857       19.706      562.602      477.739      388.344        0.230        0.071       47.394       13.628        0.083      329.045       -4.468      862.766
12/10/2021  03:48:00       -7.156      -29.165      -13.127       23.012       19.861       15.117      529.556      394.472      228.537        0.111        0.058       30.030       10.035        0.112      329.084       -4.406      862.775
12/10/2021  03:49:00       -6.501      -27.507      -18.117       21.238       18.137       13.883      451.072      328.952      192.724        0.105        0.049       28.264        7.773        0.076      329.093       -4.389      862.787
12/10/2021  03:50:00        8.097      -25.006      -12.930       12.660       16.022       10.940      160.264      256.711      119.679        0.070        0.027       26.284        6.375        0.059      329.073       -4.423      862.800
12/10/2021  03:51:00        2.010        9.694       -5.705       26.596       14.228       11.926      707.338      202.425      142.231        0.059        0.053        9.900        7.710        0.607      328.926       -4.663      862.812
12/10/2021  03:52:00      -56.539       11.031      -10.042       25.296       24.732       16.557      639.867      611.654      274.125        0.247        0.076       57.605       13.103        0.052      328.962       -4.604      862.827
12/10/2021  03:53:00      -31.106       18.255       -7.168       17.409       18.512       11.426      303.073      342.707      130.545        0.106        0.039       36.067       11.232        0.097      329.001       -4.540      862.823
12/10/2021  03:54:00      -35.434       26.525       -8.783       14.905       20.379       14.107      222.162      415.289      199.010        0.144        0.042       44.262       11.315        0.065      328.919       -4.674      862.819
12/10/2021  03:55:00      -51.912       11.139      -11.558       34.765       19.976       18.357     1208.603      399.025      336.983        0.245        0.097       53.093        9.770        0.034      328.859       -4.771      862.819
12/10/2021  03:56:00      -62.276        4.420      -12.731       44.356       24.951       16.776     1967.416      622.560      281.445        0.347        0.144       62.432       20.027        0.103      328.795       -4.877      862.813
12/10/2021  03:57:00      -80.199       32.921       -6.573       34.835       22.843       18.019     1213.452      521.806      324.688        0.481        0.103       86.693       16.177        0.035      328.738       -4.971      862.811
12/10/2021  03:58:00     -100.913       41.523      -11.359       22.907       28.394       19.350      524.713      806.204      374.424        0.687        0.085      109.122       12.505        0.013      328.661       -5.095      862.816
12/10/2021  03:59:00     -104.196       31.845      -10.402       29.224       29.160       24.124      854.068      850.279      581.973        0.713        0.114      108.954       17.164        0.025      328.676       -5.070      862.823
12/10/2021  04:00:00      -93.125       22.480        0.006       43.675       29.999       25.445     1907.540      899.962      647.425        0.632        0.173       95.800       24.926        0.068      328.737       -4.971      862.840
12/10/2021  04:01:00      -89.135       24.213       -2.943       27.351       26.069       22.342      748.091      679.582      499.160        0.523        0.096       92.365       15.472        0.028      328.726       -4.989      862.860
12/10/2021  04:02:00      -93.183       34.733       -6.685       31.098       28.121       24.345      967.064      790.798      592.683        0.614        0.118       99.446       18.952        0.036      328.581       -5.227      862.870
12/10/2021  04:03:00      -90.674       40.531       -6.531       41.822       27.367       25.234     1749.083      748.950      636.735        0.652        0.157       99.320       20.154        0.041      328.527       -5.314      862.877
12/10/2021  04:04:00     -100.404       46.300       -7.394       41.661       27.333       25.095     1735.667      747.102      629.738        0.770        0.156      110.565       25.490        0.053      328.507       -5.346      862.883
12/10/2021  04:05:00     -100.389       34.730      -10.639       43.650       30.719       26.661     1905.355      943.638      710.821        0.748        0.178      106.227       23.942        0.051      328.538       -5.297      862.890
12/10/2021  04:06:00     -103.494       27.597       -8.330       24.249       30.285       16.177      588.012      917.177      261.705        0.665        0.088      107.110        8.692        0.007      328.637       -5.134      862.893
12/10/2021  04:07:00      -90.490       30.593       -0.494       41.452       35.153       20.895     1718.279     1235.732      436.596        0.626        0.170       95.521       21.570        0.051      328.537       -5.297      862.883
12/10/2021  04:08:00     -114.558       25.067       -5.716       23.404       24.961       18.051      547.752      623.055      325.840        0.764        0.075      117.269       14.758        0.016      328.605       -5.185      862.868
12/10/2021  04:09:00      -96.696       19.057        0.610       38.228       28.056       21.825     1461.344      787.138      476.324        0.622        0.136       98.556       18.637        0.036      328.614       -5.172      862.863
12/10/2021  04:10:00      -98.946       20.954        3.386       41.860       33.052       24.379     1752.235     1092.427      594.329        0.684        0.172      101.140       20.929        0.043      328.536       -5.301      862.867
12/10/2021  04:11:00     -103.924       22.995       -2.796       39.176       39.193       26.656     1534.728     1536.100      710.519        0.756        0.189      106.437       24.992        0.055      328.599       -5.197      862.873
12/10/2021  04:12:00     -138.570       33.909       -6.125       59.027       43.813       28.044     3484.191     1919.592      786.493        1.329        0.310      142.658       27.195        0.036      328.563       -5.255      862.879
12/10/2021  04:13:00     -138.193       20.018       -2.894       48.177       40.446       30.909     2321.040     1635.876      955.346        1.221        0.246      139.635       25.117        0.032      328.490       -5.373      862.876
12/10/2021  04:14:00      -79.491       19.415       -5.321       48.957       39.233       29.992     2396.769     1539.238      899.532        0.578        0.242       81.828       24.574        0.090      328.460       -5.424      862.876
12/10/2021  04:15:00     -135.533       42.658      -14.188       39.657       34.413       27.700     1572.696     1184.265      767.306        1.196        0.176      142.088       20.259        0.020      328.434       -5.466      862.864
12/10/2021  04:16:00     -111.122       11.660        0.733       57.912       37.318       29.281     3353.851     1392.659      857.378        0.904        0.280      111.732       20.458        0.034      328.417       -5.494      862.860
12/10/2021  04:17:00      -42.134        4.731        4.461       41.221       44.197       27.431     1699.176     1953.398      752.485        0.311        0.220       42.399       23.570        0.309      328.421       -5.487      862.865
12/10/2021  04:18:00      -94.126        7.844       -6.369       86.302       32.915       26.210     7448.082     1083.386      686.965        0.909        0.461       94.453       30.497        0.104      328.412       -5.502      862.870
12/10/2021  04:19:00     -153.914        2.764       -6.277       59.695       31.352       34.432     3563.444      982.973     1185.538        1.473        0.287      153.939       36.735        0.057      328.471       -5.406      862.867
12/10/2021  04:20:00     -193.009       28.517      -13.966       32.048       29.578       25.548     1027.095      874.873      652.696        2.041        0.128      195.104       14.207        0.005      328.423       -5.485      862.854
12/10/2021  04:21:00     -141.290       20.043       -6.447       51.539       31.704       27.383     2656.238     1005.175      749.819        1.241        0.221      142.705       27.174        0.036      328.447       -5.444      862.838
12/10/2021  04:22:00     -147.725       14.619       -6.520       38.643       32.695       25.297     1493.284     1068.945      639.926        1.264        0.160      148.447       18.897        0.016      328.369       -5.571      862.829
12/10/2021  04:23:00      -92.791       -0.481       -5.347       37.125       36.930       20.800     1378.231     1363.798      432.646        0.591        0.159       92.793       14.478        0.024      328.453       -5.436      862.835
12/10/2021  04:24:00     -100.259        0.564       -2.886       51.864       39.645       25.744     2689.867     1571.763      662.753        0.749        0.246      100.261       19.463        0.038      328.429       -5.472      862.852
12/10/2021  04:25:00      -59.181       -8.045       -1.769       58.030       33.185       29.922     3367.500     1101.212      895.354        0.447        0.268       59.726       30.951        0.269      328.401       -5.520      862.877
12/10/2021  04:26:00      -50.572        6.238        0.767       48.752       22.908       20.864     2376.797      524.762      435.324        0.297        0.167       50.956       18.860        0.137      328.357       -5.590      862.897
12/10/2021  04:27:00      -98.275       -2.539       -3.399       49.289       35.998       25.545     2429.372     1295.824      652.530        0.703        0.219       98.308       28.636        0.085      328.462       -5.420      862.920
12/10/2021  04:28:00     -105.246       24.653        2.088       33.597       30.108       25.845     1128.743      906.517      667.968        0.720        0.135      108.094       20.625        0.036      328.475       -5.400      862.937
12/10/2021  04:29:00      -83.974       -6.884       -3.654       38.345       33.152       23.627     1470.312     1099.032      558.251        0.512        0.156       84.256       24.651        0.086      328.564       -5.253      862.932
12/10/2021  04:30:00      -85.964      -11.469       -8.671       51.232       29.003       20.033     2624.724      841.170      401.324        0.573        0.193       86.726       18.783        0.047      328.587       -5.215      862.930
12/10/2021  04:31:00      -69.865       -9.029       -7.719       35.270       30.855       21.623     1243.947      952.062      467.541        0.384        0.133       70.446       17.490        0.062      328.607       -5.183      862.919
12/10/2021  04:32:00     -125.053      -21.358      -17.526       24.277       28.223       19.201      589.354      796.514      368.669        0.908        0.088      126.864        9.668        0.006      328.618       -5.167      862.905
12/10/2021  04:33:00     -109.708       -7.819      -14.602       44.002       23.316       20.636     1936.191      543.649      425.825        0.761        0.145      109.986       21.372        0.038      328.554       -5.269      862.897
12/10/2021  04:34:00      -51.148       12.608       -0.243       39.955       31.257       20.664     1596.405      977.000      427.003        0.289        0.150       52.679       19.525        0.137      328.570       -5.244      862.889
12/10/2021  04:35:00      -41.976        3.881      -10.973       41.031       24.052       23.005     1683.503      578.489      529.213        0.234        0.140       42.155       22.801        0.293      328.550       -5.276      862.875
12/10/2021  04:36:00     -101.287       19.842       -7.722       31.164       28.220       18.039      971.197      796.386      325.403        0.640        0.105      103.213       11.512        0.012      328.562       -5.257      862.865
12/10/2021  04:37:00     -108.612       20.471       -0.628       42.739       28.256       21.451     1826.632      798.391      460.129        0.765        0.154      110.525       18.827        0.029      328.502       -5.356      862.850
12/10/2021  04:38:00      -90.607       14.801       -8.481       37.823       25.023       18.904     1430.611      626.146      357.360        0.546        0.121       91.808        6.384        0.005      328.497       -5.363      862.842
12/10/2021  04:39:00      -96.022       13.783       -1.201       34.506       24.509       21.896     1190.683      600.672      479.447        0.584        0.114       97.006       18.665        0.037      328.508       -5.344      862.838
12/10/2021  04:40:00      -47.079       10.446        3.909       41.240       25.599       23.312     1700.748      655.303      543.468        0.262        0.145       48.224       18.949        0.154      328.610       -5.180      862.837
12/10/2021  04:41:00      -79.848       -4.434      -16.133       35.170       25.696       16.145     1236.959      660.282      260.661        0.441        0.108       79.971        7.941        0.010      328.590       -5.210      862.855
12/10/2021  04:42:00      -22.496       -9.633       -8.490       23.145       21.575       15.318      535.676      465.487      234.633        0.095        0.062       24.472        8.825        0.130      328.603       -5.191      862.868
12/10/2021  04:43:00      -35.613      -13.466       -1.216       32.155       22.826       18.075     1033.973      521.023      326.708        0.167        0.094       38.074       15.357        0.163      328.639       -5.131      862.880
12/10/2021  04:44:00     -107.270      -21.979      -21.371       19.396       16.652       18.387      376.206      277.276      338.072        0.672        0.050      109.499       12.690        0.013      328.532       -5.307      862.895
12/10/2021  04:45:00      -31.710        2.471       -6.352       36.455       19.346       18.118     1328.944      374.284      328.263        0.154        0.102       31.806       19.806        0.388      328.558       -5.264      862.895
12/10/2021  04:46:00      -43.492       -5.877       -1.182       32.912       17.898       18.981     1083.182      320.342      360.272        0.185        0.088       43.888       18.133        0.171      328.554       -5.271      862.902
12/10/2021  04:47:00      -62.342       18.949      -10.749       32.333       24.539       13.048     1045.445      602.142      170.248        0.309        0.091       65.158        5.693        0.008      328.536       -5.298      862.912
12/10/2021  04:48:00      -72.984       11.330      -12.360       34.767       20.160       20.110     1208.740      406.407      404.410        0.381        0.101       73.858       19.563        0.070      328.462       -5.421      862.917
12/10/2021  04:49:00      -72.481       -6.406       -1.651       35.464       28.348       21.468     1257.675      803.585      460.873        0.391        0.126       72.764       15.210        0.044      328.605       -5.186      862.932
12/10/2021  04:50:00      -60.341       -2.231        0.279       47.837       27.450       22.080     2288.385      753.504      487.523        0.359        0.176       60.382       17.644        0.085      328.557       -5.264      862.953
12/10/2021  04:51:00      -64.592       18.354        4.018       44.628       29.538       23.671     1991.657      872.467      560.331        0.397        0.171       67.149       19.905        0.088      328.560       -5.259      862.973
12/10/2021  04:52:00     -110.523       32.229      -10.680       34.470       26.015       19.662     1188.210      676.788      386.608        0.781        0.113      115.127       18.775        0.027      328.548       -5.279      862.990
12/10/2021  04:53:00      -90.430       11.645       -9.310       49.129       33.605       24.183     2413.682     1129.324      584.826        0.626        0.206       91.176       23.587        0.067      328.543       -5.288      863.012
12/10/2021  04:54:00      -98.810       28.149       -9.679       41.954       35.535       20.312     1760.104     1262.707      412.579        0.704        0.172      102.741       20.605        0.040      328.548       -5.281      863.036
12/10/2021  04:55:00      -83.946       20.750       -9.727       31.307       27.547       19.673      980.131      758.825      387.045        0.485        0.106       86.473       14.074        0.026      328.498       -5.362      863.047
12/10/2021  04:56:00     -106.741       18.015       -8.256       39.586       26.182       28.916     1567.082      685.498      836.106        0.744        0.154      108.251       16.243        0.023      328.533       -5.304      863.049
12/10/2021  04:57:00      -63.662        6.377       -2.457       58.116       31.125       21.145     3377.476      968.781      447.110        0.445        0.240       63.981       21.767        0.116      328.584       -5.221      863.036
12/10/2021  04:58:00      -85.455      -19.880      -11.476       47.070       31.390       21.626     2215.590      985.358      467.669        0.575        0.183       87.737       14.432        0.027      328.673       -5.076      863.027
12/10/2021  04:59:00      -90.483        1.550       -5.582       34.279       25.348       21.376     1175.064      642.517      456.930        0.525        0.114       90.497       17.967        0.039      328.626       -5.153      863.025
12/10/2021  05:00:00     -104.672      -28.508      -17.045       44.319       33.541       27.289     1964.165     1125.014      744.685        0.795        0.192      108.485       21.575        0.040      328.620       -5.162      863.050
12/10/2021  05:01:00      -71.679       -7.528       -6.566       44.859       33.622       28.207     2012.310     1130.420      795.657        0.459        0.197       72.073       24.233        0.113      328.652       -5.110      863.080
12/10/2021  05:02:00      -65.646      -24.009       -9.206       35.455       49.140       29.351     1257.053     2414.753      861.476        0.475        0.227       69.899       22.704        0.106      328.643       -5.125      863.108
12/10/2021  05:03:00      -52.994      -40.492      -16.736       40.324       25.654       25.806     1625.987      658.118      665.930        0.384        0.148       66.693       20.033        0.090      328.702       -5.029      863.120
12/10/2021  05:04:00      -34.347       -1.107       -6.704       28.896       29.185       23.698      834.957      851.768      561.611        0.174        0.112       34.365       11.282        0.108      328.715       -5.007      863.126
12/10/2021  05:05:00      -16.931      -11.851      -13.439       27.650       34.841       23.562      764.539     1213.877      555.179        0.157        0.127       20.666       19.604        0.900      328.752       -4.947      863.122
12/10/2021  05:06:00      -29.812        6.290       -1.080       27.604       31.017       18.576      762.007      962.060      345.060        0.150        0.103       30.468        9.975        0.107      328.693       -5.044      863.121
12/10/2021  05:07:00      -24.322       -1.440      -12.600       27.171       26.744       22.691      738.237      715.230      514.891        0.136        0.098       24.365       13.909        0.326      328.706       -5.022      863.130
12/10/2021  05:08:00      -22.933      -19.008       -8.134       47.826       28.459       20.035     2287.304      809.935      401.397        0.223        0.175       29.787       10.708        0.129      328.718       -5.004      863.136
12/10/2021  05:09:00     -103.898      -13.323      -16.171       32.010       32.742       19.283     1024.631     1072.065      371.833        0.685        0.123      104.748       13.163        0.016      328.653       -5.108      863.135
12/10/2021  05:10:00      -66.701        8.201       -4.174       40.675       37.224       22.423     1654.417     1385.590      502.773        0.404        0.177       67.204       16.774        0.062      328.627       -5.150      863.145
12/10/2021  05:11:00      -85.450      -30.874       -6.316       51.353       30.826       26.834     2637.136      950.212      720.040        0.630        0.215       90.856       25.486        0.079      328.623       -5.158      863.149
12/10/2021  05:12:00      -71.168       10.769        4.921       40.727       33.085       21.467     1658.656     1094.622      460.825        0.421        0.161       71.978       17.193        0.057      328.536       -5.301      863.153
12/10/2021  05:13:00      -70.465       -7.585      -15.241       26.126       21.144       21.852      682.582      447.083      477.508        0.343        0.080       70.872       12.078        0.029      328.608       -5.182      863.166
12/10/2021  05:14:00      -37.912        7.183       -9.696       34.027       23.551       18.020     1157.855      554.661      324.714        0.181        0.102       38.586        8.464        0.048      328.595       -5.204      863.178
12/10/2021  05:15:00      -39.494        7.000       -2.535       29.934       30.119       14.936      896.066      907.135      223.093        0.182        0.101       40.109       16.684        0.173      328.536       -5.300      863.188
12/10/2021  05:16:00      -72.808       54.022       -6.669       31.284       18.707       16.711      978.698      349.956      279.263        0.494        0.080       90.660       11.656        0.017      328.411       -5.503      863.207
12/10/2021  05:17:00     -105.048       39.485      -15.517       28.026       17.576       17.871      785.453      308.908      319.390        0.712        0.071      112.224       11.954        0.011      328.421       -5.488      863.224
12/10/2021  05:18:00     -130.975       39.120      -16.104       31.647       26.369       22.293     1001.528      695.319      496.959        1.057        0.110      136.692       11.530        0.007      328.394       -5.530      863.235
12/10/2021  05:19:00     -122.091       29.746       -8.972       48.932       29.838       26.447     2394.374      890.282      699.422        0.993        0.199      125.662       14.511        0.013      328.353       -5.598      863.244
12/10/2021  05:20:00      -95.229       27.160        3.144       43.760       32.937       19.670     1914.974     1084.843      386.918        0.660        0.169       99.026       17.264        0.030      328.272       -5.729      863.255
12/10/2021  05:21:00     -100.372       25.500       -6.960       39.990       31.301       19.857     1599.224      979.780      394.288        0.687        0.149      103.560       18.372        0.031      328.257       -5.755      863.272
12/10/2021  05:22:00      -89.707       21.899       -8.502       60.986       34.802       28.852     3719.335     1211.179      832.411        0.718        0.288       92.341       28.368        0.094      328.228       -5.802      863.293
12/10/2021  05:23:00      -91.216       15.678        0.100       71.519       42.772       32.701     5114.969     1829.451     1069.361        0.829        0.401       92.553       39.067        0.178      328.209       -5.834      863.324
12/10/2021  05:24:00     -115.579       14.594      -12.726       36.818       32.949       21.294     1355.581     1085.656      453.447        0.831        0.145      116.496       16.612        0.020      328.259       -5.751      863.345
12/10/2021  05:25:00     -136.527       19.340      -16.451       38.071       32.684       22.148     1449.388     1068.243      490.540        1.115        0.150      137.890       19.492        0.020      328.253       -5.764      863.351
12/10/2021  05:26:00     -143.670       34.842      -15.531       36.643       29.585       19.372     1342.706      875.244      375.293        1.234        0.130      147.834       12.497        0.007      328.278       -5.721      863.374
12/10/2021  05:27:00     -118.721       32.677       -5.488       50.449       25.070       18.497     2545.136      628.492      342.139        0.935        0.176      123.136       23.050        0.035      328.268       -5.737      863.380
12/10/2021  05:28:00     -149.551        6.032      -21.309       25.619       32.449       18.881      656.349     1052.926      356.480        1.246        0.103      149.673        8.586        0.003      328.325       -5.644      863.394
12/10/2021  05:29:00      -84.314       12.060      -15.327       31.764       30.816       25.380     1008.980      949.622      644.143        0.505        0.130       85.172       21.986        0.067      328.340       -5.619      863.411
12/10/2021  05:30:00      -58.440       15.300       -7.135       39.386       14.477       15.207     1551.255      209.593      231.264        0.285        0.100       60.409       15.027        0.062      328.307       -5.673      863.417
12/10/2021  05:31:00      -52.914        4.519      -10.799       37.326       18.187       18.655     1393.257      330.749      348.014        0.250        0.104       53.107       15.339        0.083      328.310       -5.668      863.425
12/10/2021  05:32:00      -42.054       11.151      -18.113       19.719       15.535       13.903      388.851      241.322      193.283        0.152        0.041       43.507        8.785        0.041      328.369       -5.572      863.432
12/10/2021  05:33:00      -19.067       12.207      -10.828       16.673       12.790       10.978      277.976      163.582      120.527        0.060        0.028       22.640        7.459        0.109      328.330       -5.636      863.447
12/10/2021  05:34:00      -29.215       25.420      -10.644       19.804       14.818        8.786      392.204      219.560       77.202        0.115        0.034       38.726        5.741        0.022      328.341       -5.617      863.455
12/10/2021  05:35:00      -24.073        3.611      -10.935       11.951       14.331        8.576      142.826      205.385       73.544        0.057        0.021       24.342        5.273        0.047      328.410       -5.504      863.464
12/10/2021  05:36:00       -3.055        3.091       -4.211        9.912       17.492        7.917       98.253      305.965       62.676        0.025        0.023        4.346        6.514        2.247      328.420       -5.488      863.479
12/10/2021  05:37:00      -18.895       -2.609       -4.755       19.399       17.812       10.413      376.333      317.254      108.430        0.059        0.040       19.074       12.218        0.410      328.338       -5.623      863.503
12/10/2021  05:38:00      -15.664       -3.451      -12.011       18.998       14.781       14.475      360.912      218.483      209.520        0.060        0.039       16.040        7.895        0.242      328.432       -5.470      863.520
12/10/2021  05:39:00      -36.889      -21.299       -8.389       49.270       18.635       14.461     2427.508      347.254      209.131        0.243        0.149       42.596        3.904        0.008      328.481       -5.389      863.534
12/10/2021  05:40:00      -48.401      -37.374      -27.832       44.157       37.586       22.702     1949.837     1412.697      515.369        0.420        0.194       61.151       19.541        0.102      328.395       -5.529      863.538
12/10/2021  05:41:00      -36.105       -3.550      -13.689       28.370       22.211       18.024      804.832      493.313      324.871        0.156        0.081       36.279        7.880        0.047      328.452       -5.435      863.556
12/10/2021  05:42:00      -56.879      -20.904      -17.315       26.940       36.387       21.533      725.781     1323.990      463.656        0.324        0.126       60.599       20.332        0.113      328.472       -5.405      863.575
12/10/2021  05:43:00      -50.738      -16.128      -24.297       37.450       27.382       32.178     1402.520      749.762     1035.405        0.331        0.159       53.240       22.137        0.173      328.448       -5.443      863.582
12/10/2021  05:44:00      -59.445      -19.573      -25.250       32.259       45.123       24.614     1040.613     2036.117      605.871        0.412        0.184       62.584       15.474        0.061      328.469       -5.408      863.576
12/10/2021  05:45:00      -51.964      -26.180      -13.039       26.973       21.892       17.421      727.561      479.265      303.485        0.253        0.076       58.186       11.034        0.036      328.550       -5.277      863.586
12/10/2021  05:46:00      -26.074      -19.642      -20.569       29.012       18.361       17.701      841.694      337.132      313.317        0.149        0.075       32.644        7.738        0.056      328.553       -5.273      863.597
12/10/2021  05:47:00      -87.862      -24.387      -18.223       46.112       29.103       28.912     2126.285      846.963      835.902        0.623        0.190       91.184       17.942        0.039      328.433       -5.468      863.608
12/10/2021  05:48:00      -58.150      -36.607      -20.991       37.474       35.833       22.035     1404.301     1284.014      485.553        0.417        0.159       68.713       14.075        0.042      328.429       -5.474      863.617
12/10/2021  05:49:00      -22.389      -10.687       -6.131       41.103       25.231       17.741     1689.429      636.590      314.726        0.165        0.132       24.809       16.579        0.447      328.430       -5.474      863.625
12/10/2021  05:50:00      -61.896      -50.755      -25.321       34.753       29.324       22.719     1207.761      859.892      516.143        0.482        0.129       80.045       16.377        0.042      328.415       -5.495      863.634
12/10/2021  05:51:00      -34.539      -14.889      -22.725       35.685       23.710       23.169     1273.437      562.155      536.788        0.215        0.119       37.612       18.063        0.231      328.346       -5.606      863.656
12/10/2021  05:52:00      -19.675      -16.035      -19.033       25.536       15.646       19.090      652.108      244.805      364.427        0.113        0.063       25.381       17.107        0.454      328.421       -5.487      863.670
12/10/2021  05:53:00      -48.532      -23.819      -11.494       23.531       27.684       16.529      553.715      766.405      273.211        0.232        0.080       54.062       14.210        0.069      328.429       -5.474      863.684
12/10/2021  05:54:00       -4.105      -68.128      -33.374       31.641       36.640       20.811     1001.134     1342.466      433.089        0.427        0.139       68.251       14.925        0.048      328.413       -5.500      863.708
12/10/2021  05:55:00      -31.107       -5.030      -22.178       19.017       21.371       18.605      361.665      456.714      346.160        0.132        0.058       31.511       13.630        0.187      328.492       -5.372      863.737
12/10/2021  05:56:00      -32.066      -18.733      -14.988       36.723       18.566       15.244     1348.565      344.709      232.390        0.176        0.096       37.137       12.769        0.118      328.468       -5.411      863.762
12/10/2021  05:57:00       -3.932      -13.682      -16.301       13.054       14.214       12.106      170.413      202.024      146.552        0.049        0.026       14.236        7.137        0.251      328.455       -5.433      863.788
12/10/2021  05:58:00      -13.097      -19.854      -11.810       19.416       25.830       22.492      376.990      667.187      505.900        0.113        0.078       23.785       17.785        0.559      328.533       -5.304      863.796
12/10/2021  05:59:00      -16.194      -10.864      -12.062       20.115       18.996       18.310      404.622      360.846      335.264        0.081        0.055       19.500        9.792        0.252      328.536       -5.299      863.798
12/10/2021  06:00:00       -9.258        6.849       -4.912       15.984       14.499       11.144      255.484      210.222      124.192        0.037        0.029       11.516        5.181        0.202      328.344       -5.612      863.809
12/10/2021  06:01:00       14.252       28.130       -8.056       17.598       19.851        9.088      309.696      394.074       82.595        0.092        0.039       31.534        4.720        0.022      328.045       -6.098      863.814
12/10/2021  06:02:00       29.965       41.212       -9.298       17.239        9.975       10.846      297.189       99.492      117.628        0.160        0.026       50.955        3.156        0.004      328.038       -6.112      863.820
12/10/2021  06:03:00       45.295       51.012      -14.540       13.591        9.586        9.438      184.706       91.895       89.075        0.262        0.018       68.219        5.824        0.007      328.061       -6.075      863.834
12/10/2021  06:04:00       56.242       59.000      -11.485       14.252       19.882        9.606      203.115      395.312       92.269        0.373        0.035       81.511        9.052        0.012      328.189       -5.866      863.846
12/10/2021  06:05:00       38.627       33.971       -7.629       16.262       11.867        9.558      264.437      140.831       91.365        0.160        0.025       51.440        7.888        0.024      328.130       -5.962      863.845
12/10/2021  06:06:00       23.093       36.966       -5.035       11.966       16.109        8.473      143.180      259.489       71.786        0.120        0.024       43.586        6.560        0.023      328.199       -5.850      863.838
12/10/2021  06:07:00       27.442       22.112       -6.851        8.818       11.940       11.546       77.751      142.563      133.318        0.082        0.018       35.242        7.459        0.045      328.110       -5.994      863.846
12/10/2021  06:08:00       10.399       13.178        0.931       14.003       10.235        8.403      196.088      104.755       70.616        0.033        0.019       16.787        5.760        0.118      328.060       -6.074      863.849
12/10/2021  06:09:00       44.520       26.079       -7.485       13.774       14.352        9.867      189.733      205.968       97.356        0.161        0.025       51.596        6.868        0.018      328.060       -6.075      863.871
12/10/2021  06:10:00       36.593       41.065       -6.400       16.066       17.276       11.112      258.121      298.456      123.487        0.187        0.034       55.003        7.069        0.017      328.076       -6.049      863.901
12/10/2021  06:11:00       17.092       34.715       -3.843       13.605       12.639        8.668      185.107      159.734       75.141        0.097        0.021       38.694        4.419        0.013      328.079       -6.046      863.942
12/10/2021  06:12:00       23.801       24.068       -0.528       18.598       12.360        9.113      345.891      152.764       83.051        0.086        0.029       33.849        5.174        0.023      328.014       -6.149      863.976
12/10/2021  06:13:00       27.390       27.721      -10.870       22.003       13.931       10.663      484.125      194.075      113.707        0.121        0.040       38.970        7.443        0.036      328.045       -6.100      864.004
12/10/2021  06:14:00       51.445       33.908       -4.824       19.365       10.135        8.932      375.004      102.726       79.780        0.219        0.028       61.614        6.141        0.010      328.115       -5.985      864.027
12/10/2021  06:15:00       60.450       41.138       -3.936       11.032        7.682        6.007      121.702       59.017       36.081        0.279        0.011       73.120        1.515        0.000      328.147       -5.932      864.036
12/10/2021  06:16:00       47.833       29.150       -6.303       11.926        9.024        5.622      142.222       81.434       31.612        0.172        0.013       56.016        5.168        0.009      328.158       -5.914      864.050
12/10/2021  06:17:00        7.788       22.985       -3.591       10.389        8.054        9.883      107.925       64.869       97.682        0.044        0.014       24.269        6.794        0.078      328.143       -5.940      864.048
12/10/2021  06:18:00      -34.052       24.660      -11.659       21.397       21.112       10.827      457.840      445.710      117.218        0.146        0.051       42.044        7.086        0.028      328.161       -5.910      864.062
12/10/2021  06:19:00      -63.592       19.893      -10.380       16.493       13.203       11.811      272.006      174.326      139.493        0.257        0.029       66.631        6.882        0.011      328.074       -6.052      864.070
12/10/2021  06:20:00      -63.661       23.647      -13.256        7.892        8.847        8.500       62.281       78.265       72.256        0.250        0.011       67.911        3.533        0.003      328.149       -5.930      864.080
12/10/2021  06:21:00      -65.500       22.805      -13.681       19.178       14.587       13.890      367.801      212.777      192.925        0.289        0.039       69.357       14.145        0.042      328.224       -5.807      864.089
12/10/2021  06:22:00      -73.629       23.794      -16.321       15.047       13.278       12.306      226.401      176.300      151.449        0.340        0.028       77.378        6.031        0.006      328.192       -5.860      864.101
12/10/2021  06:23:00      -49.085       16.300      -12.924       23.989       20.531       15.668      575.465      421.529      245.473        0.204        0.062       51.720        9.221        0.032      328.114       -5.987      864.114
12/10/2021  06:24:00      -58.778        2.616      -13.509       36.640       22.402       14.591     1342.488      501.848      212.884        0.285        0.103       58.837       16.344        0.077      328.121       -5.975      864.140
12/10/2021  06:25:00      -47.830       16.925        7.828       32.581       23.238       20.198     1061.520      540.009      407.955        0.232        0.100       50.736       19.752        0.152      328.168       -5.900      864.163
12/10/2021  06:26:00      -73.978       16.264       -6.526       50.296       22.413       15.873     2529.727      502.359      251.963        0.453        0.164       75.744       19.411        0.066      328.112       -5.991      864.186
12/10/2021  06:27:00      -89.631        8.377       -9.727       40.837       21.040       17.142     1667.637      442.673      293.840        0.530        0.120       90.022       19.685        0.048      328.087       -6.032      864.197
12/10/2021  06:28:00      -59.393       18.962       -4.841       26.853       15.071       15.153      721.108      227.120      229.603        0.254        0.059       62.346        7.895        0.016      328.083       -6.038      864.212
12/10/2021  06:29:00      -73.975        7.598       -8.607       35.835       16.469       14.020     1284.172      271.216      196.566        0.368        0.088       74.364       12.244        0.027      328.179       -5.881      864.212
12/10/2021  06:30:00      -91.628       18.490       -1.981       34.594       24.242       18.900     1196.749      587.676      357.211        0.544        0.107       93.475       19.056        0.042      328.176       -5.885      864.207
12/10/2021  06:31:00      -90.551       18.339       -2.537       50.431       22.665       19.911     2543.278      513.680      396.439        0.600        0.173       92.389       19.065        0.043      328.151       -5.926      864.205
12/10/2021  06:32:00     -117.038       13.687      -11.925       31.023       22.480       18.052      962.449      505.330      325.892        0.791        0.090      117.835       12.606        0.011      328.145       -5.935      864.207
12/10/2021  06:33:00      -86.299        9.042       -6.709       35.825       25.228       18.318     1283.446      636.446      335.552        0.491        0.113       86.772       17.944        0.043      328.168       -5.899      864.214
12/10/2021  06:34:00     -102.312       17.681       -5.304       34.784       20.623       19.668     1209.935      425.294      386.838        0.641        0.101      103.829       17.735        0.029      328.135       -5.953      864.222
12/10/2021  06:35:00     -113.438       16.009       -2.631       30.866       32.024       22.536      952.685     1025.548      507.849        0.781        0.124      114.562       19.276        0.028      328.060       -6.074      864.228
12/10/2021  06:36:00     -102.201       26.583       -2.824       37.535       23.927       19.834     1408.907      572.512      393.392        0.677        0.119      105.602       19.822        0.035      328.099       -6.013      864.246
12/10/2021  06:37:00      -55.394       17.979        1.422       34.749       25.860       21.082     1207.493      668.758      444.430        0.286        0.116       58.238       17.082        0.086      328.113       -5.989      864.271
12/10/2021  06:38:00      -73.905       27.926      -15.250       26.074       19.758       15.393      679.853      390.393      236.930        0.389        0.065       79.005        9.277        0.014      328.077       -6.049      864.299
12/10/2021  06:39:00      -53.335       36.673       -1.922       31.826       27.284       15.218     1012.866      744.406      231.576        0.309        0.099       64.726       13.012        0.040      328.016       -6.146      864.334
12/10/2021  06:40:00      -66.687       29.170       -5.292       19.843       25.670       14.394      393.733      658.961      207.191        0.329        0.063       72.788       11.008        0.023      328.008       -6.160      864.359
12/10/2021  06:41:00      -62.546       22.207       -4.579       34.556       17.537       15.581     1194.100      307.546      242.756        0.308        0.087       66.372       17.617        0.070      328.021       -6.139      864.371
12/10/2021  06:42:00      -63.892       14.304       -7.421       31.059       15.471       14.270      964.679      239.360      203.629        0.287        0.070       65.474       15.009        0.053      328.162       -5.909      864.370
12/10/2021  06:43:00      -12.569        1.245       -4.633       19.326       13.474       12.553      373.489      181.557      157.576        0.045        0.036       12.630        6.897        0.298      328.222       -5.811      864.365
12/10/2021  06:44:00       -7.480        7.001       -8.305       16.382       15.838       10.494      268.375      250.845      110.121        0.040        0.031       10.246        5.626        0.302      328.240       -5.782      864.369
12/10/2021  06:45:00      -40.969       13.346      -20.572       23.520       15.742       13.401      553.183      247.799      179.584        0.163        0.049       43.087        7.355        0.029      328.219       -5.816      864.377
12/10/2021  06:46:00      -32.611        8.180       -3.456       22.108       19.080       12.024      488.750      364.045      144.565        0.107        0.050       33.621        9.784        0.085      328.219       -5.816      864.387
12/10/2021  06:47:00      -57.759       16.605       -5.855       26.067       22.063       12.050      679.512      486.794      145.194        0.248        0.066       60.098        4.080        0.005      328.151       -5.927      864.394
12/10/2021  06:48:00      -87.823       17.260      -18.463       15.484       15.937       12.914      239.755      253.976      166.767        0.451        0.033       89.504        9.609        0.012      327.991       -6.187      864.392
12/10/2021  06:49:00      -96.321       29.830      -14.772       11.147        9.838       10.113      124.247       96.786      102.273        0.535        0.016      100.834        4.265        0.002      327.905       -6.326      864.388
12/10/2021  06:50:00      -76.789       27.278       -8.127       20.098       17.858       16.279      403.934      318.917      265.008        0.385        0.049       81.490       11.124        0.019      327.933       -6.281      864.388
12/10/2021  06:51:00      -28.325        5.601       -4.541       30.724       17.741       18.712      943.962      314.741      350.123        0.123        0.080       28.873       17.362        0.362      327.960       -6.236      864.390
12/10/2021  06:52:00      -26.342       -3.468       -5.512       35.116       20.146       16.302     1233.110      405.863      265.740        0.132        0.095       26.570       16.998        0.409      328.003       -6.168      864.403
12/10/2021  06:53:00        8.760        6.384       -7.563       11.252       10.841        9.845      126.602      117.531       96.932        0.026        0.017       10.839        7.404        0.467      328.016       -6.146      864.421
12/10/2021  06:54:00      -10.376       20.100       -4.441       13.361        7.379        8.372      178.528       54.455       70.090        0.042        0.015       22.620        3.091        0.019      327.935       -6.276      864.441
12/10/2021  06:55:00       49.169       43.072       -5.324       22.869       10.590        7.675      522.982      112.155       58.907        0.250        0.035       65.366        6.358        0.009      328.126       -5.967      864.462
12/10/2021  06:56:00       61.289       45.631       -9.151       12.196       11.313        9.842      148.739      127.990       96.861        0.315        0.019       76.410        7.152        0.009      328.076       -6.049      864.466
12/10/2021  06:57:00       59.006       59.991      -11.738       17.417        9.929        8.628      303.355       98.592       74.442        0.385        0.024       84.147        3.556        0.002      327.993       -6.183      864.464
12/10/2021  06:58:00       40.472       60.421       -9.668       14.213       10.687        9.525      202.024      114.212       90.726        0.289        0.020       72.724        7.364        0.010      328.088       -6.031      864.455
12/10/2021  06:59:00       34.010       39.915       -7.900       18.673       19.012       11.776      348.665      361.450      138.677        0.183        0.042       52.440        9.523        0.033      328.111       -5.994      864.434
12/10/2021  07:00:00       27.498       19.519      -10.517       10.624       15.708        9.628      112.859      246.754       92.703        0.085        0.023       33.721        7.431        0.049      328.107       -5.998      864.415
12/10/2021  07:01:00       18.592       32.293       -4.988        7.799        8.284        5.034       60.830       68.623       25.342        0.078        0.008       37.263        4.357        0.014      328.203       -5.841      864.384
12/10/2021  07:02:00       -4.170       22.167       -4.104       10.395        8.510        5.907      108.051       72.427       34.890        0.037        0.011       22.556        4.475        0.039      328.216       -5.820      864.357
12/10/2021  07:03:00      -23.161       23.343      -11.024       16.055       13.517        9.008      257.772      182.703       81.151        0.086        0.026       32.883        6.079        0.034      328.061       -6.073      864.342
12/10/2021  07:04:00      -37.473       15.371      -11.647       10.878       10.238        7.611      118.328      104.823       57.928        0.103        0.014       40.502        2.608        0.004      327.974       -6.214      864.334
12/10/2021  07:05:00      -48.814       15.343      -14.760       16.572       11.062       11.566      274.623      122.363      133.775        0.168        0.027       51.168        3.065        0.004      327.939       -6.271      864.354
12/10/2021  07:06:00      -35.167        7.705       -5.528       18.245       20.211       11.590      332.897      408.483      134.337        0.110        0.044       36.001        8.834        0.060      328.079       -6.044      864.385
12/10/2021  07:07:00      -45.384       21.609      -12.553       20.398       17.742       18.734      416.072      314.787      350.951        0.188        0.054       50.266       15.149        0.091      328.077       -6.048      864.419
12/10/2021  07:08:00      -60.608       40.910      -12.402       11.272       14.454       14.071      127.057      208.922      197.980        0.302        0.027       73.123        6.023        0.007      327.986       -6.195      864.436
12/10/2021  07:09:00      -80.437       30.463      -29.198       27.446       20.237       13.588      753.267      409.537      184.627        0.480        0.067       86.012        8.485        0.010      327.944       -6.264      864.440
12/10/2021  07:10:00      -83.019       29.270      -26.779       34.777       34.856       23.120     1209.415     1214.934      534.524        0.571        0.148       88.028       17.638        0.040      327.885       -6.360      864.436
12/10/2021  07:11:00      -47.732       15.573      -10.732       24.085       26.673       19.953      580.092      711.451      398.103        0.216        0.084       50.208       10.078        0.040      327.910       -6.318      864.447
12/10/2021  07:12:00      -30.760       -3.854       -9.372       28.689       26.984       18.430      823.036      728.160      339.679        0.147        0.095       31.000       11.038        0.127      327.964       -6.230      864.475
12/10/2021  07:13:00      -31.401        1.517      -11.048       33.628       24.872       17.744     1130.823      618.605      314.847        0.159        0.103       31.438       20.320        0.418      328.049       -6.095      864.494
12/10/2021  07:14:00      -14.423       -3.094      -11.978       19.714       25.950       16.815      388.660      673.403      282.736        0.085        0.067       14.751       13.965        0.896      328.104       -6.003      864.501
12/10/2021  07:15:00      -41.190        3.383       -4.407       44.244       14.979       16.043     1957.492      224.366      257.377        0.208        0.122       41.329       15.009        0.132      328.020       -6.139      864.498
12/10/2021  07:16:00      -81.151       16.633      -17.283       33.273       24.922       19.616     1107.064      621.109      384.786        0.464        0.106       82.838       13.039        0.025      327.964       -6.231      864.481
12/10/2021  07:17:00      -57.489        2.583      -15.824       32.055       24.801       20.562     1027.516      615.106      422.784        0.281        0.103       57.547       13.651        0.056      327.991       -6.187      864.477
12/10/2021  07:18:00       -0.274       11.102       -9.832       34.568       19.759       17.557     1194.920      390.405      308.246        0.106        0.095       11.105        8.882        0.640      327.908       -6.322      864.471
12/10/2021  07:19:00      -62.184       20.982      -21.785       42.396       34.008       21.413     1797.422     1156.514      458.532        0.410        0.171       65.629       18.105        0.076      327.976       -6.210      864.477
12/10/2021  07:20:00      -25.599      -10.420       -2.000       41.551       25.645       20.183     1726.469      657.666      407.362        0.178        0.140       27.638       22.385        0.656      327.990       -6.189      864.491
12/10/2021  07:21:00      -26.213       15.435        1.075       27.533       22.912       21.178      758.060      524.974      448.515        0.133        0.087       30.420       18.984        0.389      327.967       -6.225      864.507
12/10/2021  07:22:00      -96.612       26.495       -6.672       73.291       18.322       20.835     5371.541      335.706      434.092        0.811        0.307      100.179       31.280        0.097      327.958       -6.241      864.525
12/10/2021  07:23:00     -116.599       19.375       -6.941       33.224       23.935       22.837     1103.808      572.876      521.518        0.811        0.110      118.198       20.308        0.030      328.025       -6.133      864.540
12/10/2021  07:24:00      -47.320        8.808        0.276       36.870       32.201       22.846     1359.374     1036.929      521.919        0.262        0.146       48.133       15.794        0.108      328.047       -6.096      864.551
12/10/2021  07:25:00      -91.740       17.523       -0.343       71.709       35.775       22.288     5142.251     1279.839      496.769        0.782        0.346       93.399       18.507        0.039      327.983       -6.200      864.554
12/10/2021  07:26:00      -67.505       14.886       -7.094       51.736       29.044       21.899     2676.651      843.557      479.584        0.441        0.200       69.127        7.819        0.013      328.015       -6.148      864.556
12/10/2021  07:27:00      -51.140       18.686       -7.249       32.656       19.304       19.051     1066.418      372.656      362.935        0.241        0.090       54.447       18.267        0.113      328.081       -6.041      864.558
12/10/2021  07:28:00      -60.101       26.371      -17.171       20.178        9.181       10.892      407.149       84.282      118.644        0.261        0.031       65.633        6.611        0.010      328.058       -6.078      864.568
12/10/2021  07:29:00      -41.973       26.784      -15.968       17.001       13.303       12.025      289.019      176.969      144.606        0.167        0.031       49.791        8.599        0.030      328.170       -5.894      864.574
12/10/2021  07:30:00      -59.503       22.376      -19.656       13.062       16.881       13.187      170.604      284.965      173.887        0.253        0.031       63.571        9.266        0.021      328.212       -5.827      864.573
12/10/2021  07:31:00      -81.429       14.203      -20.304       19.867       16.917       13.009      394.682      286.201      169.232        0.405        0.043       82.658        6.704        0.007      328.253       -5.761      864.568
12/10/2021  07:32:00      -87.945       16.149      -20.113       17.116       15.730       11.992      292.943      247.418      143.816        0.454        0.034       89.415        4.802        0.003      328.281       -5.715      864.550
12/10/2021  07:33:00      -87.588       24.482      -12.892       11.303       11.771       11.102      127.754      138.552      123.259        0.441        0.019       90.945        6.060        0.004      328.252       -5.763      864.549
12/10/2021  07:34:00      -56.052       15.392       -9.856       30.287       15.364       12.825      917.296      236.043      164.483        0.240        0.066       58.127       13.280        0.052      328.323       -5.646      864.555
12/10/2021  07:35:00      -50.426        5.450       -3.183       31.710       18.470       13.462     1005.546      341.138      181.231        0.206        0.076       50.720       12.188        0.058      328.428       -5.475      864.580
12/10/2021  07:36:00      -83.971       13.638      -10.708       20.278       18.584       13.099      411.216      345.349      171.593        0.414        0.046       85.072        9.887        0.014      328.431       -5.469      864.615
12/10/2021  07:37:00      -82.571       32.562       -4.205       27.278       21.611       20.704      744.067      467.035      428.654        0.477        0.082       88.760       17.246        0.038      328.361       -5.584      864.654
12/10/2021  07:38:00      -87.870       14.357       -6.161       43.284       29.204       18.584     1873.544      852.852      345.361        0.552        0.154       89.035       10.848        0.015      328.310       -5.667      864.700
12/10/2021  07:39:00     -107.220       20.899       -8.442       24.408       24.993       17.557      595.773      624.645      308.245        0.677        0.076      109.238       13.874        0.016      328.262       -5.745      864.732
12/10/2021  07:40:00      -84.746       35.583        5.126       38.785       26.799       21.991     1504.238      718.206      483.616        0.559        0.135       91.913       23.034        0.063      328.172       -5.892      864.749
12/10/2021  07:41:00      -93.774       31.968       -6.187       40.103       24.621       22.699     1608.222      606.186      515.245        0.629        0.136       99.073       20.088        0.041      328.177       -5.883      864.746
12/10/2021  07:42:00      -90.363       37.524       -6.475       36.302       39.025       18.505     1317.871     1522.950      342.441        0.640        0.159       97.844       15.582        0.025      328.223       -5.811      864.720
12/10/2021  07:43:00      -93.011       36.495      -10.451       33.342       30.402       15.687     1111.660      924.303      246.092        0.619        0.114       99.915       13.325        0.018      328.278       -5.720      864.698
12/10/2021  07:44:00      -72.236       32.251       -9.410       23.538       25.894       19.521      554.028      670.491      381.075        0.398        0.080       79.108       14.085        0.032      328.311       -5.666      864.683
12/10/2021  07:45:00      -53.128       -1.882      -14.790       43.966       24.278       25.359     1932.972      589.442      643.064        0.310        0.158       53.162       29.032        0.298      328.383       -5.548      864.681
12/10/2021  07:46:00      -52.777       20.687       -3.519       32.937       18.854       16.503     1084.836      355.474      272.354        0.247        0.086       56.686       19.446        0.118      328.376       -5.560      864.697
12/10/2021  07:47:00      -22.438        3.281       -3.102       22.641       19.100       17.664      512.629      364.797      312.008        0.086        0.059       22.677       16.339        0.519      328.428       -5.476      864.711
12/10/2021  07:48:00      -67.770        3.502      -15.036       24.659       16.907       15.261      608.057      285.842      232.898        0.298        0.056       67.861       12.531        0.034      328.457       -5.428      864.734
12/10/2021  07:49:00      -64.670        5.346       -3.818       24.423       16.739       19.054      596.489      280.188      363.047        0.273        0.062       64.891       13.647        0.044      328.523       -5.320      864.750
12/10/2021  07:50:00      -14.239        1.378       -8.522       18.836       14.743       17.207      354.811      217.341      296.088        0.057        0.043       14.306       11.622        0.660      328.649       -5.115      864.760
12/10/2021  07:51:00      -24.847       -0.124      -12.561       21.944       24.367       12.108      481.532      593.746      146.596        0.100        0.061       24.848        3.368        0.018      328.646       -5.120      864.769
12/10/2021  07:52:00      -22.706       20.223       -7.454       15.519       22.114        8.418      240.829      489.012       70.858        0.089        0.040       30.406        7.191        0.056      328.564       -5.254      864.791
12/10/2021  07:53:00      -23.858       16.071        0.349       19.536       23.024       14.862      381.637      530.112      220.890        0.098        0.057       28.766        7.715        0.072      328.741       -4.964      864.813
12/10/2021  07:54:00        2.885       28.579       -5.471       23.303       16.301       14.630      543.031      265.731      214.023        0.094        0.051       28.724        7.288        0.064      328.698       -5.037      864.839
12/10/2021  07:55:00      -30.166       16.332       -0.468       29.445       19.865       15.472      866.991      394.600      239.382        0.134        0.075       34.303       12.527        0.133      328.729       -4.985      864.862
12/10/2021  07:56:00      -13.236       -4.418       -2.758       18.117       13.321        9.783      328.213      177.459       95.702        0.040        0.030       13.954        7.756        0.309      328.767       -4.923      864.877
12/10/2021  07:57:00      -25.293        7.099      -10.001       13.470       18.117       13.855      181.449      328.234      191.963        0.075        0.035       26.270        5.081        0.037      328.750       -4.950      864.883
12/10/2021  07:58:00       -6.008       -8.452       -5.419       15.816       17.746       11.621      250.144      314.903      135.037        0.042        0.035       10.370        7.674        0.548      328.871       -4.752      864.895
12/10/2021  07:59:00       -7.800        2.117       -5.182        8.698       10.978        9.704       75.651      120.527       94.162        0.019        0.015        8.082        5.682        0.494      328.906       -4.696      864.903
12/10/2021  08:00:00      -14.181      -19.799      -13.177       17.991       15.602       12.222      323.681      243.407      149.367        0.074        0.036       24.354        6.628        0.074      329.032       -4.490      864.905
12/10/2021  08:01:00      -51.132      -26.618      -15.222       25.660       25.559       15.106      658.437      653.252      228.186        0.255        0.077       57.646       12.398        0.046      328.941       -4.639      864.913
12/10/2021  08:02:00      -14.302       -8.795       -4.220       37.556       28.472       22.532     1410.452      810.677      507.673        0.151        0.136       16.790       13.193        0.617      328.938       -4.642      864.924
12/10/2021  08:03:00      -32.842        7.096       -3.560       42.467       31.153       20.158     1803.472      970.539      406.362        0.216        0.159       33.600       14.508        0.186      328.876       -4.745      864.932
12/10/2021  08:04:00       -4.273        4.316      -28.967       25.399       26.460       18.702      645.100      700.140      349.769        0.129        0.085        6.074       15.944        6.891      328.926       -4.663      864.944
12/10/2021  08:05:00      -26.599       -9.860      -27.729       24.786       29.337       17.501      614.357      860.656      306.272        0.168        0.089       28.368       12.250        0.186      328.953       -4.619      864.965
12/10/2021  08:06:00      -45.191        4.344      -20.917       32.511       26.535       17.502     1056.947      704.107      306.318        0.228        0.103       45.399       10.209        0.051      328.872       -4.751      864.999
12/10/2021  08:07:00      -35.094       -2.143      -16.120       28.549       26.118       15.003      815.026      682.133      225.097        0.161        0.086       35.160       15.296        0.189      328.872       -4.752      865.027
12/10/2021  08:08:00      -43.195      -13.301      -15.046       34.255       22.377       18.597     1173.434      500.742      345.850        0.214        0.101       45.197       13.134        0.084      328.969       -4.594      865.055
12/10/2021  08:09:00      -44.222      -19.678      -14.892       48.537       25.496       25.748     2355.862      650.037      662.943        0.312        0.183       48.402       26.066        0.290      328.975       -4.583      865.081
12/10/2021  08:10:00      -97.168      -15.185      -16.817       43.922       27.325       26.188     1929.155      746.640      685.821        0.666        0.168       98.347       14.238        0.021      328.869       -4.755      865.099
12/10/2021  08:11:00     -133.765      -12.989       -2.704       42.432       25.637       27.090     1800.506      657.236      733.887        1.063        0.160      134.394       27.380        0.042      328.798       -4.873      865.108
12/10/2021  08:12:00      -70.269        0.556       -1.004       56.671       32.471       23.379     3211.640     1054.337      546.582        0.487        0.241       70.271       26.181        0.139      328.921       -4.672      865.096
12/10/2021  08:13:00      -99.487        3.800       -7.649       63.259       24.094       27.998     4001.647      580.538      783.894        0.767        0.268       99.559       33.842        0.116      328.913       -4.684      865.075
12/10/2021  08:14:00      -85.951      -10.972       -3.167       52.039       26.641       23.994     2708.082      709.720      575.724        0.576        0.200       86.648       22.815        0.069      328.994       -4.552      865.065
12/10/2021  08:15:00     -114.124      -10.373       -7.619       36.689       34.279       32.733     1346.079     1175.077     1071.423        0.839        0.180      114.595       22.501        0.039      328.897       -4.709      865.076
12/10/2021  08:16:00      -12.180      -15.870        3.321       36.193       41.850       22.480     1309.909     1751.451      505.370        0.199        0.178       20.005       15.130        0.572      328.993       -4.554      865.109
12/10/2021  08:17:00      -39.335      -11.324      -14.925       34.814       38.974       29.470     1212.008     1518.965      868.505        0.275        0.180       40.932       24.459        0.357      329.010       -4.525      865.125
12/10/2021  08:18:00      -49.962      -28.521       -6.906       41.308       41.614       22.132     1706.361     1731.740      489.825        0.364        0.196       57.529       17.760        0.095      328.982       -4.572      865.132
12/10/2021  08:19:00      -63.034      -18.020      -21.337       35.542       34.661       22.314     1263.231     1201.402      497.907        0.386        0.148       65.559       10.007        0.023      328.945       -4.632      865.139
12/10/2021  08:20:00      -33.311       -3.625      -18.858       52.026       26.756       28.599     2706.727      715.903      817.922        0.286        0.212       33.507       18.647        0.310      329.037       -4.482      865.143
12/10/2021  08:21:00       -8.473      -26.077      -11.333       35.168       44.761       30.190     1236.823     2003.587      911.417        0.252        0.208       27.419       25.626        0.873      329.156       -4.288      865.168
12/10/2021  08:22:00      -21.035        0.425      -11.525       29.401       27.951       24.525      864.411      781.258      601.479        0.141        0.112       21.039       18.994        0.815      329.220       -4.183      865.187
12/10/2021  08:23:00       -6.287      -18.842      -11.608       26.801       27.394       30.841      718.270      750.414      951.145        0.147        0.121       19.864       11.857        0.356      329.218       -4.186      865.205
12/10/2021  08:24:00      -29.609      -22.175      -18.751       47.943       41.494       33.759     2298.508     1721.738     1139.643        0.344        0.258       36.992       29.698        0.645      329.126       -4.337      865.224
12/10/2021  08:25:00      -15.295        0.327       -4.095       41.708       30.517       21.232     1739.522      931.288      450.805        0.169        0.156       15.298       17.155        1.258      329.133       -4.326      865.251
12/10/2021  08:26:00      -55.595       -2.762       -5.312       48.988       34.326       25.053     2399.848     1178.277      627.629        0.367        0.210       55.663       19.826        0.127      329.075       -4.420      865.279
12/10/2021  08:27:00      -23.653       -1.748      -10.096       35.651       22.209       20.564     1270.984      493.254      422.893        0.143        0.109       23.718       12.935        0.297      329.137       -4.319      865.313
12/10/2021  08:28:00      -73.730      -21.490      -18.038       47.465       45.284       29.095     2252.968     2050.638      846.543        0.569        0.258       76.798       26.208        0.116      328.980       -4.574      865.350
12/10/2021  08:29:00      -81.114      -10.078       -3.155       60.189       44.839       33.763     3622.705     2010.573     1139.927        0.673        0.339       81.738       34.771        0.181      329.041       -4.476      865.379
12/10/2021  08:30:00      -77.163       -1.032        1.028       58.107       29.450       25.177     3376.441      867.317      633.902        0.542        0.244       77.170       29.013        0.141      329.065       -4.436      865.403
12/10/2021  08:31:00      -64.373       -1.234       -8.960       37.620       33.086       20.795     1415.256     1094.705      432.440        0.358        0.147       64.385       16.157        0.063      329.072       -4.424      865.415
12/10/2021  08:32:00     -121.299      -17.840      -13.528       62.166       33.545       29.029     3864.551     1125.292      842.708        1.052        0.292      122.604       16.307        0.018      329.039       -4.478      865.436
12/10/2021  08:33:00       -4.070       -5.060        4.722       43.021       36.864       32.894     1850.839     1358.960     1082.017        0.218        0.215        6.494       17.294        7.092      329.271       -4.099      865.461
12/10/2021  08:34:00      -62.669      -14.341        6.118       39.215       37.987       23.313     1537.801     1442.990      543.499        0.385        0.176       64.289       21.732        0.114      329.109       -4.365      865.500
12/10/2021  08:35:00      -47.275        8.119       -9.419       51.362       25.921       20.556     2638.049      671.907      422.553        0.306        0.187       47.967       22.155        0.213      329.100       -4.379      865.530
12/10/2021  08:36:00       -9.748      -10.575      -16.479       20.083       21.405       20.248      403.345      458.181      409.992        0.087        0.064       14.382       14.654        1.038      329.216       -4.190      865.544
12/10/2021  08:37:00      -27.899      -15.520       -6.711       37.492       32.745       24.496     1405.634     1072.230      600.036        0.207        0.154       31.925       11.926        0.140      329.260       -4.117      865.553
12/10/2021  08:38:00      -30.645       -3.584      -12.480       46.748       25.130       22.127     2185.372      631.519      489.601        0.221        0.165       30.854       19.812        0.412      329.169       -4.267      865.554
12/10/2021  08:39:00      -13.322      -11.995      -12.173       24.136       33.238       22.271      582.525     1104.748      495.984        0.133        0.109       17.926       12.758        0.507      329.325       -4.012      865.560
12/10/2021  08:40:00        4.563       -4.427      -12.143       27.625       29.395       15.100      763.143      864.038      228.004        0.102        0.093        6.358        8.686        1.866      329.341       -3.985      865.562
12/10/2021  08:41:00      -29.585      -19.623      -11.457       45.585       30.508       30.611     2078.005      930.767      937.044        0.267        0.197       35.501       19.529        0.303      329.252       -4.131      865.572
12/10/2021  08:42:00      -23.943       -6.376       -5.857       32.484       32.597       21.397     1055.233     1062.589      457.851        0.161        0.129       24.777       13.550        0.299      329.420       -3.857      865.575
12/10/2021  08:43:00      -14.500       12.962      -14.847       42.473       31.682       19.464     1803.984     1003.750      378.838        0.189        0.159       19.449       10.322        0.282      329.393       -3.899      865.568
12/10/2021  08:44:00      -48.723       14.958       -3.513       29.771       20.914       26.754      886.287      437.402      715.756        0.232        0.102       50.967       14.421        0.080      329.225       -4.175      865.561
12/10/2021  08:45:00      -41.474      -12.284      -12.982       42.346       23.197       21.314     1793.200      538.117      454.283        0.241        0.139       43.255        5.442        0.016      329.423       -3.851      865.545
12/10/2021  08:46:00      -39.376       -4.428       -3.553       32.490       37.776       17.437     1055.619     1427.018      304.041        0.218        0.139       39.624       11.834        0.089      329.365       -3.945      865.554
12/10/2021  08:47:00      -11.036       14.566       -3.922       12.209       10.163       13.095      149.049      103.277      171.468        0.039        0.021       18.274        5.440        0.089      329.438       -3.827      865.570
12/10/2021  08:48:00      -15.395       36.842        3.033       15.913       13.977       11.116      253.215      195.359      123.569        0.109        0.029       39.929        7.023        0.031      329.455       -3.798      865.599
12/10/2021  08:49:00      -15.601       30.369       -8.961       28.776       15.869       18.423      828.040      251.836      339.399        0.133        0.071       34.142       12.407        0.132      329.454       -3.800      865.621
12/10/2021  08:50:00      -17.275       17.043      -15.977       15.453       18.483       17.327      238.805      341.633      300.232        0.086        0.044       24.267        7.610        0.098      329.481       -3.758      865.642
12/10/2021  08:51:00      -27.466       19.968      -10.228       13.240       12.438       11.278      175.292      154.703      127.201        0.086        0.023       33.957        7.291        0.046      329.453       -3.801      865.666
12/10/2021  08:52:00      -24.534       16.873      -14.742       13.903       13.443        9.973      193.285      180.709       99.452        0.079        0.024       29.776        6.940        0.054      329.525       -3.686      865.681
12/10/2021  08:53:00      -13.101        7.953       -6.876       12.969       18.169        7.692      168.197      330.100       59.171        0.042        0.028       15.326        6.106        0.159      329.574       -3.605      865.691
12/10/2021  08:54:00      -21.595        5.482      -11.159       22.776        7.800       10.877      518.734       60.838      118.317        0.066        0.035       22.280       10.169        0.208      329.586       -3.585      865.688
12/10/2021  08:55:00       -9.631      -18.201      -16.560       24.948       27.851       19.337      622.378      775.672      373.934        0.123        0.089       20.592       13.547        0.433      329.646       -3.487      865.688
12/10/2021  08:56:00      -17.357       10.087      -31.116       47.696       40.905       22.387     2274.935     1673.248      501.168        0.291        0.222       20.075       18.540        0.853      329.650       -3.480      865.670
12/10/2021  08:57:00      -15.340        1.244      -26.254       29.069       21.901       28.212      845.026      479.640      795.905        0.152        0.106       15.391       11.643        0.572      329.933       -3.017      865.676
12/10/2021  08:58:00      -24.454      -31.111      -12.700       26.340       28.260       25.745      693.807      798.607      662.810        0.194        0.108       39.572       11.288        0.081      329.940       -3.004      865.698
12/10/2021  08:59:00       -3.898       29.806       -4.476       17.257       16.955       13.889      297.796      287.463      192.891        0.085        0.039       30.059        9.109        0.092      329.727       -3.355      865.717
12/10/2021  09:00:00      -13.535       17.483      -12.337       23.925       22.324       13.658      572.418      498.383      186.543        0.095        0.063       22.110        9.376        0.180      329.677       -3.436      865.736
12/10/2021  09:01:00       -5.780        8.941      -11.399       13.480       17.012        9.678      181.712      289.398       93.665        0.040        0.028       10.647        8.274        0.604      329.655       -3.472      865.747
12/10/2021  09:02:00      -13.774       12.015       -5.159       23.409       18.931       11.086      547.975      358.387      122.896        0.069        0.051       18.278        7.778        0.181      329.731       -3.347      865.784
12/10/2021  09:03:00      -19.964       39.519      -18.278       12.648       13.182        9.012      159.970      173.755       81.220        0.135        0.021       44.275        6.958        0.025      329.546       -3.651      865.824
12/10/2021  09:04:00      -24.549       40.559        1.010       13.822       11.661        9.895      191.056      135.981       97.907        0.134        0.021       47.409        5.888        0.015      329.569       -3.613      865.859
12/10/2021  09:05:00      -29.301       36.017       -4.293       24.893       19.637       11.929      619.664      385.615      142.303        0.166        0.057       46.430       10.669        0.053      329.595       -3.569      865.884
12/10/2021  09:06:00      -61.711       -4.280       -6.781       52.911       23.039       18.234     2799.539      530.796      332.474        0.377        0.183       61.859       20.128        0.106      329.706       -3.389      865.904
12/10/2021  09:07:00      -53.853      -17.074       -6.970       58.462       26.864       29.934     3417.784      721.680      896.066        0.414        0.252       56.495       33.002        0.341      329.728       -3.354      865.920
12/10/2021  09:08:00      -94.020       25.522       -7.167       26.830       18.487       14.875      719.842      341.766      221.275        0.541        0.064       97.423       12.380        0.016      329.543       -3.657      865.935
12/10/2021  09:09:00      -65.418       17.146       -8.531       15.535       11.771       11.230      241.344      138.559      126.123        0.258        0.025       67.628        6.158        0.008      329.560       -3.627      865.940
12/10/2021  09:10:00      -12.828        3.927       -1.422       21.874       18.080       11.218      478.490      326.898      125.849        0.056        0.047       13.416        7.542        0.316      329.853       -3.146      865.938
12/10/2021  09:11:00      -20.795       10.661       -8.024       31.642       22.148       16.258     1001.245      490.542      264.327        0.118        0.088       23.369        6.129        0.069      329.873       -3.115      865.927
12/10/2021  09:12:00      -52.810       -4.011      -13.737       19.010       23.143       16.946      361.391      535.612      287.158        0.209        0.059       52.962       11.684        0.049      329.754       -3.310      865.935
12/10/2021  09:13:00      -12.163       20.794       -3.270       15.885       15.816       10.922      252.324      250.143      119.294        0.061        0.031       24.089        5.903        0.060      329.799       -3.236      865.962
12/10/2021  09:14:00      -12.150       11.071       -1.343       17.505       10.533        9.391      306.428      110.950       88.199        0.039        0.025       16.438        7.064        0.185      329.852       -3.149      866.004
12/10/2021  09:15:00       28.472       13.554      -16.866       35.243       46.120       21.959     1242.098     2127.041      482.194        0.256        0.193       31.533       15.641        0.246      330.051       -2.823      866.041
12/10/2021  09:16:00       40.721       44.995      -17.900       19.168       23.097       17.981      367.398      533.466      323.311        0.261        0.061       60.686        7.313        0.015      329.744       -3.326      866.058
12/10/2021  09:17:00      -14.485       -9.310      -25.546       34.191       27.469       19.110     1168.996      754.540      365.185        0.162        0.114       17.219       10.902        0.401      330.101       -2.742      866.060
12/10/2021  09:18:00       -8.130        8.895       -7.309       42.864       28.257       40.690     1837.362      798.439     1655.700        0.224        0.215       12.051       35.489        8.672      330.135       -2.686      866.068
12/10/2021  09:19:00       -7.526       43.275       -2.026       44.104       31.079       27.482     1945.191      965.933      755.267        0.280        0.183       43.925       21.220        0.233      329.943       -3.000      866.076
12/10/2021  09:20:00       -9.101       13.064        3.555       32.163       18.181       14.951     1034.490      330.537      223.537        0.093        0.079       15.922        6.842        0.185      330.222       -2.544      866.091
12/10/2021  09:21:00      -37.838       59.158        4.687       30.713       25.168       25.822      943.284      633.417      666.775        0.360        0.112       70.224       16.291        0.054      330.015       -2.882      866.106
12/10/2021  09:22:00      -27.730       48.014        5.154       28.155       31.949       19.809      792.722     1020.723      392.384        0.265        0.110       55.447        9.426        0.029      329.949       -2.991      866.125
12/10/2021  09:23:00      -56.284       43.209       -8.316       24.466       20.210       15.972      598.584      408.430      255.089        0.318        0.063       70.957       10.090        0.020      329.841       -3.168      866.144
12/10/2021  09:24:00      -15.082       22.409      -13.639       20.110       17.991       13.283      404.419      323.663      176.436        0.091        0.045       27.011        8.090        0.090      329.993       -2.918      866.171
12/10/2021  09:25:00       36.556       34.924      -13.319       17.773       18.176       17.945      315.884      330.370      322.036        0.185        0.048       50.557       13.571        0.072      329.916       -3.044      866.185
12/10/2021  09:26:00      -27.436       17.694      -15.969       25.387       14.773       11.417      644.500      218.237      130.346        0.116        0.050       32.647        6.652        0.042      329.914       -3.048      866.206
12/10/2021  09:27:00      -52.168       22.627       -8.553       15.324       21.538       13.571      234.816      463.869      184.184        0.209        0.044       56.864        8.403        0.022      329.850       -3.155      866.212
12/10/2021  09:28:00      -35.062        9.206       -8.469       16.650       20.260       14.285      277.238      410.486      204.051        0.114        0.045       36.251        7.920        0.048      330.007       -2.896      866.222
12/10/2021  09:29:00      -46.428       -9.328       -7.317       22.401       13.051       15.026      501.825      170.340      225.787        0.160        0.045       47.356       11.322        0.057      330.110       -2.727      866.240
12/10/2021  09:30:00      -19.915       14.850      -13.262       18.021       14.964       14.223      324.754      223.931      202.303        0.077        0.038       24.842       11.063        0.198      330.045       -2.834      866.266
12/10/2021  09:31:00      -11.863        5.915        2.328       19.735       15.819       15.248      389.475      250.227      232.511        0.053        0.044       13.256       12.234        0.852      330.390       -2.268      866.305
12/10/2021  09:32:00      -21.576       23.813       -8.295       31.074       16.205       14.720      965.584      262.618      216.689        0.127        0.072       32.134        4.045        0.016      330.115       -2.720      866.330
12/10/2021  09:33:00      -22.783       18.791      -16.700       32.366       24.551       19.351     1047.560      602.737      374.447        0.159        0.101       29.533       16.964        0.330      330.261       -2.478      866.344
12/10/2021  09:34:00       -1.406        5.604      -15.046       14.426       14.590       17.493      208.101      212.855      305.994        0.049        0.036        5.777        6.883        1.419      330.311       -2.399      866.367
12/10/2021  09:35:00       -5.198       17.950       -5.957       12.567       16.631       11.847      157.938      276.602      140.352        0.048        0.029       18.688        7.739        0.172      330.268       -2.468      866.378
12/10/2021  09:36:00      -12.640       33.824       -8.908       17.712       23.523       17.092      313.711      553.335      292.125        0.127        0.058       36.109       13.295        0.136      330.401       -2.249      866.387
12/10/2021  09:37:00       64.378       62.807       -6.104       40.762       38.833       25.929     1661.574     1508.029      672.298        0.598        0.192       89.941       19.203        0.046      330.396       -2.258      866.386
12/10/2021  09:38:00       91.860       62.208      -22.659       32.812       32.100       22.201     1076.650     1030.418      492.875        0.771        0.130      110.942       20.974        0.036      330.068       -2.796      866.379
12/10/2021  09:39:00       69.552       37.748      -29.183       20.059       24.929       18.549      402.361      621.477      344.062        0.424        0.068       79.135       11.704        0.022      329.954       -2.982      866.385
12/10/2021  09:40:00       10.026       45.692      -18.889       18.994       15.682       25.590      360.771      245.927      654.873        0.190        0.063       46.779       14.209        0.092      330.170       -2.627      866.376
12/10/2021  09:41:00       31.525       26.299       -9.480       25.256       27.076       23.137      637.846      733.107      535.306        0.184        0.095       41.054       15.342        0.140      330.511       -2.070      866.385
12/10/2021  09:42:00       51.093       38.611        0.832       52.230       43.997       21.044     2727.933     1935.729      442.869        0.460        0.255       64.041       21.266        0.110      330.568       -1.977      866.402
12/10/2021  09:43:00       85.291       12.284      -21.686       40.442       80.431       22.385     1635.584     6469.084      501.101        0.825        0.430       86.171       30.541        0.126      330.479       -2.121      866.423
12/10/2021  09:44:00       30.737      -32.439      -10.693       43.103       63.826       33.250     1857.829     4073.699     1105.536        0.457        0.352       44.689       31.707        0.503      330.556       -1.995      866.444
12/10/2021  09:45:00       95.662      -65.240      -34.516       45.570       44.706       28.996     2076.644     1998.670      840.740        0.976        0.246      115.791       19.876        0.029      330.370       -2.301      866.455
12/10/2021  09:46:00       29.538       29.111        9.221       45.182       48.489       35.958     2041.454     2351.184     1292.952        0.374        0.284       41.473       21.775        0.276      330.618       -1.893      866.468
12/10/2021  09:47:00       63.336       -4.471      -25.172       41.322       62.526       28.511     1707.547     3909.497      812.862        0.555        0.321       63.493       25.351        0.159      330.464       -2.146      866.461
12/10/2021  09:48:00       86.726       50.232      -18.183       24.571       27.164       21.617      603.732      737.909      467.275        0.609        0.090      100.223        9.719        0.009      330.213       -2.558      866.468
12/10/2021  09:49:00       23.477       73.495       -9.259       27.447       23.954       19.003      753.346      573.814      361.124        0.386        0.084       77.153       12.422        0.026      330.490       -2.103      866.460
12/10/2021  09:50:00       16.590       10.873      -13.723       34.659       35.492       19.987     1201.277     1259.679      399.475        0.172        0.143       19.835        9.497        0.229      330.732       -1.706      866.463
12/10/2021  09:51:00       45.060       27.097      -11.581       27.275       37.969       24.774      743.924     1441.643      613.767        0.285        0.140       52.580       16.294        0.096      330.590       -1.939      866.473
12/10/2021  09:52:00       52.825       27.774      -21.170       15.991       20.366       14.191      255.705      414.773      201.381        0.244        0.044       59.682        6.640        0.012      330.186       -2.604      866.464
12/10/2021  09:53:00       36.226       23.371      -10.198       23.028       15.324       13.601      530.281      234.835      184.976        0.146        0.048       43.111       12.007        0.078      330.442       -2.181      866.429
12/10/2021  09:54:00      117.787       56.034      -18.173       45.817       44.673       28.661     2099.222     1995.692      821.461        1.113        0.246      130.436       13.735        0.011      330.629       -1.876      866.376
12/10/2021  09:55:00      136.548       41.239      -30.772       58.678       45.697       29.360     3443.070     2088.258      861.994        1.384        0.320      142.640       16.757        0.014      330.302       -2.411      866.325
12/10/2021  09:56:00       76.057      -61.927      -44.389       74.529       77.542       26.955     5554.623     6012.728      726.553        1.194        0.615       98.080       23.200        0.056      330.589       -1.941      866.275
12/10/2021  09:57:00       17.076       -3.007       -0.472       49.363       61.110       48.262     2436.721     3734.485     2329.222        0.440        0.425       17.339       29.451        2.885      330.865       -1.487      866.246
12/10/2021  09:58:00       60.850       26.402       -4.669       55.049       60.670       37.655     3030.435     3680.868     1417.862        0.627        0.406       66.330       28.808        0.189      330.718       -1.730      866.234
12/10/2021  09:59:00      117.579       53.821      -24.914       49.358       55.113       30.409     2436.188     3037.413      924.728        1.187        0.320      129.312       13.521        0.011      330.700       -1.759      866.222
12/10/2021  10:00:00      169.207       36.806      -23.090       63.389       57.974       33.939     4018.154     3360.942     1151.859        1.952        0.427      173.164       33.286        0.037      330.471       -2.137      866.223
12/10/2021  10:01:00      141.524       36.888      -25.386       87.554       62.233       39.278     7665.664     3872.948     1542.743        1.756        0.654      146.253       30.784        0.044      330.701       -1.760      866.201
12/10/2021  10:02:00       75.095       33.139      -29.503       44.547       39.124       27.835     1984.418     1530.714      774.761        0.595        0.214       82.082       24.062        0.086      330.769       -1.645      866.200
12/10/2021  10:03:00       90.672       19.646      -19.188       38.565       74.763       32.711     1487.289     5589.573     1070.007        0.856        0.407       92.775       27.037        0.085      330.858       -1.501      866.191
12/10/2021  10:04:00       38.561      -68.477      -15.304       47.098       54.182       40.057     2218.265     2935.695     1604.591        0.658        0.338       78.588       31.778        0.164      331.093       -1.114      866.208
12/10/2021  10:05:00       76.125       26.682      -13.425       57.166       71.376       41.168     3267.975     5094.576     1694.810        0.837        0.503       80.665       31.601        0.153      330.852       -1.510      866.243
12/10/2021  10:06:00       85.669      -46.452      -41.170       62.488       86.474       34.734     3904.769     7477.812     1206.472        1.189        0.629       97.452       25.340        0.068      330.820       -1.563      866.271
12/10/2021  10:07:00      102.179      -45.493      -28.465       67.575       47.752       41.578     4566.333     2280.300     1728.763        1.095        0.429      111.849       31.527        0.079      330.740       -1.694      866.303
12/10/2021  10:08:00       55.391      -34.614      -13.958       46.325       50.132       42.196     2146.030     2513.225     1780.535        0.545        0.322       65.317       28.736        0.194      330.874       -1.473      866.321
12/10/2021  10:09:00       23.058      -26.412      -11.523       31.158       58.583       34.946      970.835     3431.944     1221.238        0.349        0.281       35.061       26.875        0.588      331.194       -0.949      866.331
12/10/2021  10:10:00       83.875       35.434      -15.055       76.842       60.539       30.536     5904.672     3664.926      932.441        0.951        0.525       91.053       23.339        0.066      330.946       -1.355      866.309
12/10/2021  10:11:00       41.648       12.408      -14.026       45.876       61.330       35.609     2104.625     3761.360     1268.026        0.461        0.357       43.457       19.506        0.201      331.180       -0.971      866.299
12/10/2021  10:12:00       71.033        9.058      -22.131       58.831       41.449       31.468     3461.063     1718.035      990.253        0.589        0.308       71.608       14.553        0.041      331.039       -1.204      866.294
12/10/2021  10:13:00       31.244        9.392      -12.776       54.706       61.042       48.538     2992.745     3726.157     2355.891        0.515        0.454       32.625       32.071        0.966      331.112       -1.082      866.278
12/10/2021  10:14:00       72.942      -10.787      -15.964       60.267       58.459       39.262     3632.157     3417.419     1541.498        0.714        0.430       73.735       32.320        0.192      330.864       -1.491      866.272
12/10/2021  10:15:00       71.304        9.643      -26.813       60.225       77.884       35.418     3627.092     6065.879     1254.430        0.842        0.547       71.953       19.504        0.073      331.099       -1.104      866.252
12/10/2021  10:16:00       62.341       18.954      -27.140       69.958       63.118       25.740     4894.135     3983.863      662.544        0.726        0.477       65.159       24.628        0.143      330.893       -1.443      866.231
12/10/2021  10:17:00       94.248      -25.214      -22.902       50.686       68.994       43.802     2569.096     4760.155     1918.588        0.964        0.462       97.562       29.526        0.092      330.955       -1.341      866.193
12/10/2021  10:18:00      116.835      -57.652      -22.462       80.282       57.404       37.384     6445.254     3295.218     1397.599        1.431        0.557      130.285       25.086        0.037      330.683       -1.787      866.164
12/10/2021  10:19:00       75.899        4.125      -12.127       70.632       55.410       57.871     4988.821     3070.235     3349.050        0.866        0.570       76.011       45.335        0.356      330.982       -1.296      866.140
12/10/2021  10:20:00       90.098      -19.835      -21.254       59.998       57.976       42.326     3599.810     3361.163     1791.449        0.886        0.438       92.255       31.906        0.120      330.871       -1.479      866.125
12/10/2021  10:21:00      101.884      -53.478      -24.370       53.801       41.548       36.431     2894.544     1726.275     1327.195        0.989        0.297      115.066       31.702        0.076      330.754       -1.670      866.133
12/10/2021  10:22:00       76.642      -42.465      -33.491       50.835       48.498       32.855     2584.200     2352.077     1079.442        0.741        0.301       87.620       20.231        0.053      330.951       -1.347      866.137
12/10/2021  10:23:00      104.026      -16.439      -36.400       72.438       49.505       46.285     5247.286     2450.731     2142.297        1.113        0.492      105.317       38.660        0.135      331.100       -1.102      866.152
12/10/2021  10:24:00      108.114      -23.411      -28.917       66.001       45.459       37.051     4356.172     2066.488     1372.792        1.043        0.390      110.620       31.794        0.083      330.745       -1.685      866.177
12/10/2021  10:25:00       95.040        3.273      -17.671       59.478       61.649       34.295     3537.595     3800.618     1176.161        0.893        0.426       95.096       28.202        0.088      330.838       -1.533      866.176
12/10/2021  10:26:00      123.573      -34.672      -25.429       78.593       53.720       51.458     6176.911     2885.796     2647.959        1.441        0.586      128.345       44.548        0.120      330.982       -1.296      866.154
12/10/2021  10:27:00      110.661      -52.704      -12.838       62.807       41.458       42.507     3944.736     1718.733     1806.824        1.133        0.374      122.571       42.296        0.119      330.697       -1.765      866.134
12/10/2021  10:28:00      115.510      -40.435      -21.514       47.916       39.763       26.342     2295.935     1581.062      693.879        1.000        0.229      122.382       18.267        0.022      330.709       -1.744      866.107
12/10/2021  10:29:00       89.555       -9.667      -16.946       44.155       44.169       30.969     1949.629     1950.858      959.107        0.663        0.243       90.076       23.938        0.071      330.969       -1.317      866.086
12/10/2021  10:30:00       93.030      -23.218      -12.270       50.546       35.376       35.206     2554.879     1251.457     1239.460        0.719        0.252       95.884       27.357        0.081      330.895       -1.439      866.082
12/10/2021  10:31:00       42.004      -39.420      -15.582       40.782       66.571       36.582     1663.133     4431.693     1338.237        0.550        0.372       57.605       21.770        0.143      331.210       -0.922      866.086
12/10/2021  10:32:00       31.152       12.476      -27.949       41.962       63.869       27.807     1760.802     4079.279      773.207        0.426        0.331       33.557       25.727        0.588      331.259       -0.840      866.087
12/10/2021  10:33:00      111.697       39.659      -25.357       57.648       68.680       34.900     3323.240     4716.907     1217.996        1.197        0.463      118.529       21.029        0.031      331.213       -0.916      866.100
12/10/2021  10:34:00       45.298       39.326       -5.784       47.785       47.226       31.418     2283.400     2230.322      987.118        0.457        0.275       59.988       21.417        0.127      331.272       -0.820      866.112
12/10/2021  10:35:00      115.107       68.841      -22.303       39.405       50.301       27.016     1552.730     2530.153      729.882        1.165        0.241      134.122       19.055        0.020      330.863       -1.492      866.103
12/10/2021  10:36:00       51.672       76.207      -21.973       35.182       67.062       36.218     1237.760     4497.314     1311.735        0.800        0.352       92.073       28.951        0.099      330.992       -1.280      866.094
12/10/2021  10:37:00      114.426       46.176      -24.040       49.694       33.131       20.497     2469.540     1097.656      420.125        0.989        0.199      123.392       21.059        0.029      330.976       -1.306      866.073
12/10/2021  10:38:00       81.579      -10.665      -26.165       48.136       77.038       29.376     2317.050     5934.870      862.975        0.828        0.456       82.274       15.120        0.034      331.367       -0.664      866.053
12/10/2021  10:39:00       61.171      -30.636      -28.970       63.231       54.053       37.154     3998.168     2921.688     1380.420        0.691        0.415       68.414       16.730        0.060      331.528       -0.399      866.032
12/10/2021  10:40:00       37.903      -15.500      -25.406       47.431       57.019       27.649     2249.673     3251.137      764.442        0.429        0.313       40.950       17.405        0.181      331.402       -0.606      866.026
12/10/2021  10:41:00       84.119      -32.070      -36.344       51.123       54.310       37.115     2613.554     2949.537     1377.550        0.818        0.347       90.024       28.227        0.098      331.136       -1.044      866.029
12/10/2021  10:42:00      107.436       28.673      -24.455       37.713       74.708       32.639     1422.247     5581.332     1065.279        1.051        0.403      111.196       18.898        0.029      331.075       -1.143      866.034
12/10/2021  10:43:00      109.219       45.804      -29.344       42.912       36.578       24.975     1841.472     1337.950      623.726        0.934        0.190      118.434        7.910        0.004      331.132       -1.051      866.056
12/10/2021  10:44:00       40.968       13.470       -5.976       48.532       63.544       39.882     2355.335     4037.863     1590.606        0.494        0.399       43.125       20.908        0.235      331.592       -0.293      866.092
12/10/2021  10:45:00      107.954       50.999      -22.069       66.789       80.411       43.386     4460.809     6465.958     1882.329        1.377        0.640      119.394       22.689        0.036      331.441       -0.542      866.130
12/10/2021  10:46:00       95.287      -14.256      -26.262       47.871       75.483       28.322     2291.595     5697.742      802.133        0.938        0.440       96.347       29.669        0.095      331.036       -1.207      866.140
12/10/2021  10:47:00      104.779      -33.208      -32.452       36.270       58.062       28.683     1315.508     3371.216      822.700        0.932        0.275      109.915       25.018        0.052      330.897       -1.436      866.127
12/10/2021  10:48:00       30.755       47.838      -11.354       38.650       37.329       30.990     1493.788     1393.470      960.395        0.360        0.192       56.871       17.775        0.098      331.089       -1.120      866.091
12/10/2021  10:49:00       48.758        8.585      -30.324       44.822       48.483       25.792     2008.989     2350.555      665.225        0.420        0.251       49.508       15.787        0.102      331.454       -0.520      866.061
12/10/2021  10:50:00       34.143     -100.528      -33.909       64.121       52.670       33.955     4111.440     2774.088     1152.925        1.023        0.402      106.168       24.728        0.054      331.469       -0.496      866.040
12/10/2021  10:51:00       32.293      -12.386      -23.334       38.535       32.102       19.497     1484.967     1030.513      380.136        0.232        0.145       34.587       21.128        0.373      331.075       -1.144      866.022
12/10/2021  10:52:00       59.697       50.418      -22.644       36.874       29.685       25.374     1359.722      881.171      643.835        0.475        0.144       78.139       13.324        0.029      331.318       -0.745      865.993
12/10/2021  10:53:00       81.717       68.400      -20.461       35.094       25.933       25.585     1231.571      672.511      654.583        0.717        0.128      106.566       18.473        0.030      331.107       -1.090      865.975
12/10/2021  10:54:00       67.981       67.837      -28.056       26.420       26.703       25.310      698.024      713.074      640.599        0.603        0.103       96.037       13.183        0.019      331.187       -0.960      865.966
12/10/2021  10:55:00       52.973       58.274      -15.937       31.506       29.647       21.289      992.652      878.924      453.209        0.439        0.116       78.752       13.278        0.028      331.316       -0.749      865.950
12/10/2021  10:56:00       77.841       38.420      -23.508       16.809       29.881       18.709      282.541      892.859      350.019        0.481        0.076       86.806        9.359        0.012      331.106       -1.092      865.945
12/10/2021  10:57:00       49.246      -10.558      -30.136       31.269       23.918       23.229      977.738      572.077      539.591        0.277        0.104       50.365       13.355        0.070      331.406       -0.600      865.950
12/10/2021  10:58:00       17.356       34.901       -8.080       22.400       29.679       18.078      501.738      880.816      326.802        0.165        0.085       38.978       10.462        0.072      331.748       -0.037      865.973
12/10/2021  10:59:00       -2.601       51.067        0.410       43.729       24.257       20.830     1912.221      588.418      433.869        0.277        0.147       51.133       12.620        0.061      331.689       -0.134      865.980
12/10/2021  11:00:00      -54.493       36.720      -11.592       22.077       34.573       18.345      487.389     1195.320      336.538        0.324        0.101       65.711       10.677        0.026      331.428       -0.562      865.974
12/10/2021  11:01:00       -0.882       23.101      -11.532       31.807       41.112       21.508     1011.663     1690.214      462.583        0.192        0.158       23.118       16.022        0.480      331.685       -0.140      865.951
12/10/2021  11:02:00      -20.985       42.667      -11.903       35.173       32.312       19.053     1237.172     1044.039      363.034        0.252        0.132       47.548        9.871        0.043      331.715       -0.090      865.927
12/10/2021  11:03:00      -32.857       15.807       -6.823       24.624       20.773       16.532      606.330      431.509      273.319        0.134        0.066       36.462        7.012        0.037      331.523       -0.408      865.912
12/10/2021  11:04:00      -41.987       -6.037       -0.543       36.514       21.209       20.283     1333.294      449.833      411.405        0.200        0.110       42.419       17.870        0.177      331.720       -0.083      865.921
12/10/2021  11:05:00      -28.153        5.626      -11.014       43.099       26.716       21.122     1857.540      713.752      446.125        0.198        0.151       28.710       12.911        0.202      331.662       -0.177      865.938
12/10/2021  11:06:00      -28.732       31.806      -17.811       35.228       28.202       20.403     1241.013      795.328      416.291        0.230        0.123       42.862        5.136        0.014      331.729       -0.069      865.948
12/10/2021  11:07:00      -79.529       -1.004      -18.162       54.903       29.334       23.079     3014.385      860.508      532.624        0.553        0.220       79.535        9.602        0.015      331.345       -0.700      865.966
12/10/2021  11:08:00      -10.221      -32.951       -9.552       35.596       46.083       22.557     1267.054     2123.617      508.821        0.259        0.195       34.500       22.424        0.422      331.558       -0.350      865.963
12/10/2021  11:09:00      -10.348       -0.892      -10.827       26.167       22.672       20.662      684.714      513.999      426.931        0.093        0.081       10.387        9.551        0.846      331.755       -0.024      865.959
12/10/2021  11:10:00       12.299      -62.016      -27.722       81.048       61.597       34.687     6568.813     3794.154     1203.201        0.816        0.578       63.224       18.458        0.085      331.535       -0.388      865.962
12/10/2021  11:11:00       71.372      -76.428      -19.495       50.242       71.758       39.132     2524.229     5149.163     1531.332        1.026        0.460      104.571       37.448        0.128      331.489       -0.462      865.955
12/10/2021  11:12:00       28.533      -10.578       -4.373       51.857       72.171       38.676     2689.154     5208.707     1495.852        0.517        0.470       30.430       27.114        0.794      331.883        0.186      865.954
12/10/2021  11:13:00       59.906      -33.451      -15.394       64.662       37.781       36.951     4181.158     1427.419     1365.393        0.596        0.349       68.613       30.678        0.200      331.830        0.099      865.933
12/10/2021  11:14:00       50.493      -22.121      -34.591       31.295       44.367       28.968      979.386     1968.424      839.134        0.401        0.189       55.126        9.706        0.031      331.686       -0.138      865.893
12/10/2021  11:15:00       82.666      -80.907      -14.630       79.152       70.649       44.761     6265.117     4991.212     2003.571        1.342        0.663      115.671       46.562        0.162      331.717       -0.089      865.854
12/10/2021  11:16:00      161.173      -94.080      -31.475       38.805       37.347       30.913     1505.854     1394.779      955.611        1.984        0.193      186.622       23.498        0.016      331.181       -0.972      865.840
12/10/2021  11:17:00       99.308        4.144      -16.759       66.788       49.801       30.755     4460.643     2480.160      945.862        0.902        0.394       99.395       21.040        0.045      331.442       -0.540      865.831
12/10/2021  11:18:00      126.532      -49.986      -20.281       95.365       52.740       51.867     9094.424     2781.504     2690.194        1.674        0.728      136.047       51.762        0.145      331.634       -0.226      865.809
12/10/2021  11:19:00      125.076      -57.352      -27.115       33.443       32.818       29.516     1118.405     1077.006      871.186        1.137        0.153      137.598       19.937        0.021      331.271       -0.821      865.794
12/10/2021  11:20:00       77.459        1.565      -21.505       28.355       25.130       19.977      804.009      631.530      399.082        0.415        0.092       77.475        1.698        0.000      331.166       -0.995      865.801
12/10/2021  11:21:00       50.471       37.838      -12.273       24.112       21.815       28.493      581.407      475.890      811.854        0.300        0.093       63.079       15.243        0.058      331.502       -0.442      865.810
12/10/2021  11:22:00       80.639       70.658      -31.724       49.276       26.558       18.067     2428.094      705.320      326.431        0.798        0.173      107.216        8.858        0.007      331.362       -0.672      865.828
12/10/2021  11:23:00       41.620      -39.216      -33.716       50.292       43.793       35.012     2529.274     1917.818     1225.860        0.504        0.284       57.185       24.979        0.191      331.748       -0.036      865.841
12/10/2021  11:24:00       23.994       14.004       -6.553       56.986       37.001       29.957     3247.454     1369.056      897.451        0.316        0.276       27.782       14.068        0.256      331.586       -0.302      865.842
12/10/2021  11:25:00      115.110       23.882      -10.403       61.899       40.591       33.667     3831.482     1647.644     1133.476        1.027        0.331      117.561       29.354        0.062      331.407       -0.599      865.828
12/10/2021  11:26:00      136.093       50.811      -29.633       46.031       41.798       26.856     2118.898     1747.081      721.263        1.328        0.229      145.269       17.126        0.014      331.529       -0.398      865.813
12/10/2021  11:27:00       48.799       67.138       -5.855       60.313       44.604       33.590     3637.600     1989.500     1128.290        0.684        0.338       82.999       35.526        0.183      331.641       -0.212      865.809
12/10/2021  11:28:00       81.750       59.314      -11.677       74.878       46.246       41.034     5606.754     2138.706     1683.805        0.988        0.471      101.001       45.754        0.205      331.926        0.256      865.775
12/10/2021  11:29:00       53.950       -5.611       -8.739       51.719       69.754       43.310     2674.861     4865.557     1875.724        0.622        0.471       54.241       31.125        0.329      332.156        0.635      865.764
12/10/2021  11:30:00      177.954       47.642      -31.181       36.473       37.351       24.337     1330.304     1395.118      592.283        1.911        0.166      184.221       10.481        0.003      331.389       -0.629      865.786
12/10/2021  11:31:00      197.225       16.931      -14.718       62.615       47.665       32.819     3920.693     2271.941     1077.117        2.333        0.363      197.951       27.586        0.019      331.464       -0.506      865.805
12/10/2021  11:32:00       63.073      -15.445      -41.864       58.409       99.087       45.914     3411.587     9818.184     2108.113        1.065        0.767       64.937       47.824        0.542      332.010        0.394      865.834
12/10/2021  11:33:00       83.531      -82.667      -45.388       39.146       48.426       25.587     1532.405     2345.102      654.687        1.020        0.227      117.521       17.896        0.023      331.611       -0.262      865.853
12/10/2021  11:34:00       91.578       24.551      -18.594       54.626       31.785       24.703     2983.954     1010.286      610.219        0.697        0.230       94.812       23.792        0.063      331.753       -0.027      865.852
12/10/2021  11:35:00       77.073       29.422      -20.634       29.872       49.504       25.960      892.345     2450.645      673.936        0.562        0.201       82.498        4.576        0.003      331.566       -0.336      865.840
12/10/2021  11:36:00       76.583     -154.703      -39.969       39.582       51.131       26.533     1566.755     2614.368      704.016        1.814        0.244      172.621       21.406        0.015      331.543       -0.375      865.808
12/10/2021  11:37:00       32.668      -39.635      -22.541       44.699       47.444       31.779     1997.961     2250.911     1009.907        0.420        0.263       51.363       28.493        0.308      331.763       -0.011      865.767
12/10/2021  11:38:00       -8.869      -66.564      -23.963       65.511       51.435       26.593     4291.643     2645.508      707.184        0.636        0.382       67.152       27.002        0.162      331.923        0.251      865.714
12/10/2021  11:39:00       97.861      -26.354      -32.625       66.801      107.781       40.169     4462.331    11616.694     1613.511        1.451        0.885      101.348       35.313        0.121      331.862        0.148      865.692
12/10/2021  11:40:00      102.860       -7.822      -15.497       64.519       59.829       40.057     4162.734     3579.532     1604.578        1.011        0.467      103.157       38.457        0.139      331.600       -0.280      865.697
12/10/2021  11:41:00       47.601       39.284      -17.270       37.076       54.174       26.605     1374.624     2934.873      707.808        0.456        0.251       61.718       13.721        0.049      331.918        0.243      865.710
12/10/2021  11:42:00       68.123      -62.388      -32.518       53.372       50.824       34.942     2848.601     2583.066     1220.921        0.812        0.333       92.374       25.987        0.079      331.964        0.319      865.717
12/10/2021  11:43:00       73.191      -58.733      -27.277       31.884       46.933       24.173     1016.604     2202.662      584.314        0.668        0.190       93.843       17.801        0.036      331.620       -0.246      865.705
12/10/2021  11:44:00       43.922        7.694      -26.312       50.044       54.259       37.527     2504.434     2944.037     1408.265        0.477        0.343       44.591       31.491        0.499      331.827        0.095      865.684
12/10/2021  11:45:00       -1.206       16.646       -5.751       28.558       31.608       18.433      815.580      999.049      339.783        0.123        0.108       16.689       11.236        0.453      331.892        0.200      865.645
12/10/2021  11:46:00       58.875      -48.608      -19.807       38.422       78.026       35.357     1476.237     6088.059     1250.089        0.752        0.441       76.348       20.761        0.074      331.813        0.069      865.609
12/10/2021  11:47:00      156.635       31.791      -26.152       72.178       57.126       34.903     5209.661     3263.375     1218.248        1.796        0.485      159.828       25.483        0.025      331.760       -0.018      865.588
12/10/2021  11:48:00      150.953       32.037      -29.157       59.271       62.892       38.921     3513.104     3955.458     1514.851        1.682        0.449      154.316       17.195        0.012      331.901        0.215      865.558
12/10/2021  11:49:00      114.747        2.382      -44.316       74.200       78.054       53.917     5505.647     6092.370     2907.096        1.482        0.725      114.772       33.313        0.084      332.238        0.768      865.548
12/10/2021  11:50:00       81.268       -9.476      -17.372      105.515       83.917       69.674    11133.391     7041.999     4854.473        1.501        1.151       81.819       58.454        0.510      331.757       -0.024      865.552
12/10/2021  11:51:00       94.937       -8.036      -28.433       57.873       69.429       48.075     3349.300     4820.430     2311.171        1.018        0.524       95.276       34.499        0.131      331.850        0.131      865.540
12/10/2021  11:52:00       91.752       -0.271       -5.897       74.494       65.222       43.380     5549.391     4253.903     1881.834        1.007        0.584       91.752       36.614        0.159      331.974        0.336      865.535
12/10/2021  11:53:00      158.856      -64.999      -28.344       97.791       77.345       64.356     9563.156     5982.254     4141.640        2.497        0.984      171.639       62.062        0.131      331.769       -0.005      865.535
12/10/2021  11:54:00      106.654       -5.394       -9.350       44.253       46.297       29.904     1958.346     2143.373      894.221        0.824        0.250      106.791       30.173        0.080      331.590       -0.298      865.565
12/10/2021  11:55:00       54.898        8.469      -15.062       36.407       17.749       13.106     1325.483      315.031      171.777        0.256        0.091       55.548       10.598        0.036      331.514       -0.423      865.591
12/10/2021  11:56:00       30.062      -63.404      -14.890       42.623       64.445       26.116     1816.709     4153.104      682.061        0.590        0.333       70.170       31.949        0.207      331.923        0.252      865.619
12/10/2021  11:57:00       11.217      -14.496      -13.752       18.238       25.042       20.410      332.617      627.121      416.563        0.095        0.069       18.329       13.535        0.545      331.837        0.110      865.640
12/10/2021  11:58:00       47.942      -14.949      -11.676       27.990       51.898       27.142      783.424     2693.434      736.704        0.344        0.211       50.219        9.854        0.039      332.171        0.660      865.651
12/10/2021  11:59:00       69.241     -196.617      -38.906       52.591       55.760       34.338     2765.865     3109.123     1179.105        2.601        0.353      208.452       25.952        0.015      332.153        0.629      865.652
12/10/2021  12:00:00       58.241      -96.380      -38.111       78.007       74.202       42.270     6085.116     5505.917     1786.791        1.375        0.669      112.610       42.835        0.145      332.324        0.913      865.656
12/10/2021  12:01:00       38.792     -112.183      -21.964       35.807       43.053       23.307     1282.117     1853.531      543.235        0.912        0.184      118.701       19.232        0.026      331.691       -0.131      865.655
12/10/2021  12:02:00      108.900       -1.565      -34.264       83.205       77.212       35.468     6923.075     5961.721     1258.013        1.359        0.707      108.912       27.193        0.062      332.056        0.471      865.644
12/10/2021  12:03:00      145.824      -86.700      -34.267       72.717       60.848       31.510     5287.730     3702.496      992.888        1.997        0.499      169.652       20.692        0.015      331.872        0.167      865.605
12/10/2021  12:04:00      118.549      -24.019      -16.886       53.580       53.476       34.423     2870.855     2859.696     1184.923        1.091        0.346      120.957       25.853        0.046      331.832        0.101      865.578
12/10/2021  12:05:00       92.126      -22.344      -12.279       54.805       48.007       29.898     3003.550     2304.680      893.903        0.767        0.310       94.797       23.070        0.059      331.873        0.170      865.555
12/10/2021  12:06:00      127.712       25.736      -17.530       58.677       31.763       27.491     3442.977     1008.900      755.776        1.124        0.260      130.280       26.203        0.040      331.795        0.041      865.546
12/10/2021  12:07:00       81.870       22.496       -7.082       56.553       31.536       23.282     3198.204      994.509      542.035        0.600        0.237       84.904       21.815        0.066      332.020        0.410      865.542
12/10/2021  12:08:00       28.100      -36.027      -20.742       29.881       64.798       33.414      892.868     4198.732     1116.511        0.436        0.310       45.689       21.975        0.231      332.377        1.000      865.569
12/10/2021  12:09:00       74.575     -135.043      -20.037       58.194       65.053       38.648     3386.574     4231.835     1493.650        1.665        0.456      154.267       29.425        0.036      332.112        0.562      865.570
12/10/2021  12:10:00       90.552     -113.064      -24.348       61.159       69.085       43.600     3740.396     4772.707     1900.992        1.599        0.521      144.856       45.121        0.097      332.186        0.684      865.561
12/10/2021  12:11:00       78.336     -161.753      -42.303       51.184       45.367       31.232     2619.849     2058.195      975.417        1.987        0.283      179.724       31.146        0.030      331.942        0.282      865.541
12/10/2021  12:12:00       67.662     -103.182      -32.780       56.141       76.319       35.938     3151.849     5824.637     1291.572        1.328        0.513      123.388       34.510        0.078      332.197        0.703      865.531
12/10/2021  12:13:00       71.647     -191.056      -41.941       41.064       55.908       29.734     1686.282     3125.667      884.112        2.454        0.285      204.048       19.112        0.009      331.878        0.175      865.506
12/10/2021  12:14:00       11.989      -34.267      -20.683       35.183       43.190       26.470     1237.860     1865.386      700.642        0.277        0.190       36.304       26.771        0.544      332.237        0.767      865.469
12/10/2021  12:15:00       63.029     -144.518      -27.350       40.622       41.113       23.561     1650.168     1690.245      555.107        1.475        0.195      157.665       17.031        0.012      332.005        0.387      865.438
12/10/2021  12:16:00       89.808     -120.384      -39.257       38.407       51.590       33.043     1475.074     2661.493     1091.831        1.466        0.261      150.192       27.619        0.034      332.056        0.470      865.406
12/10/2021  12:17:00       99.194        6.064      -16.417       75.283       59.224       47.723     5667.551     3507.441     2277.472        1.080        0.573       99.379       32.776        0.109      332.237        0.768      865.387
12/10/2021  12:18:00       19.837      -45.294      -17.056       71.851       51.965       26.639     5162.624     2700.366      709.637        0.565        0.429       49.447       24.161        0.239      332.371        0.991      865.370
12/10/2021  12:19:00      101.485     -121.368      -36.636       53.792       47.042       34.565     2893.625     2212.944     1194.717        1.634        0.315      158.207       29.670        0.035      332.151        0.626      865.379
12/10/2021  12:20:00       35.611     -108.327      -26.828       45.949       51.785       28.300     2111.320     2681.697      800.869        0.966        0.280      114.030       19.960        0.031      332.124        0.582      865.373
12/10/2021  12:21:00       61.491      -19.162      -16.478       38.200       45.715       25.772     1459.204     2089.846      664.203        0.432        0.211       64.407       20.015        0.097      332.130        0.593      865.348
12/10/2021  12:22:00       43.300       -0.334      -32.072       51.717       43.263       28.364     2674.610     1871.684      804.531        0.413        0.268       43.302       21.894        0.256      332.592        1.356      865.325
12/10/2021  12:23:00       53.932     -148.031      -29.635       60.486       94.276       36.945     3658.530     8888.049     1364.928        1.980        0.696      157.550       35.764        0.052      332.555        1.293      865.320
12/10/2021  12:24:00      112.121     -142.950      -43.825       53.132       72.345       40.422     2823.014     5233.836     1633.903        2.231        0.485      181.675       37.305        0.042      332.501        1.203      865.325
12/10/2021  12:25:00       89.797     -107.701      -31.905       48.633       89.768       35.630     2365.175     8058.361     1269.493        1.618        0.585      140.224       19.686        0.020      332.639        1.432      865.326
12/10/2021  12:26:00       23.984      -63.355      -38.175       75.632       77.158       33.323     5720.145     5953.366     1110.395        0.941        0.639       67.743       25.669        0.144      332.680        1.499      865.317
12/10/2021  12:27:00       79.710     -140.129      -34.426       61.948       47.606       39.261     3837.538     2266.352     1541.428        1.741        0.382      161.213       36.426        0.051      332.266        0.817      865.295
12/10/2021  12:28:00       87.389     -118.691      -37.784       66.051       78.632       40.681     4362.780     6183.014     1654.916        1.767        0.610      147.392       45.176        0.094      332.280        0.838      865.251
12/10/2021  12:29:00       56.944      -47.751      -28.966       71.497       35.704       31.440     5111.751     1274.805      988.471        0.687        0.369       74.315       28.426        0.146      332.267        0.818      865.229
12/10/2021  12:30:00        6.189      -13.011      -20.304       60.793       56.439       29.372     3695.800     3185.374      862.699        0.418        0.387       14.408       16.938        1.382      332.416        1.065      865.231
12/10/2021  12:31:00       -7.757       -4.355       12.534       49.388       48.796       44.425     2439.127     2381.017     1973.608        0.351        0.340        8.896       27.245        9.380      332.849        1.779      865.249
12/10/2021  12:32:00        3.450      -18.110       -9.270       79.777       71.857       25.400     6364.330     5163.469      645.167        0.630        0.609       18.436       28.981        2.471      332.712        1.553      865.268
12/10/2021  12:33:00       86.606       40.110      -19.961       31.591       37.836       25.219      997.986     1431.573      635.981        0.629        0.153       95.443       20.681        0.047      332.173        0.662      865.273
12/10/2021  12:34:00      151.205      -50.848       -4.219      109.831       76.763       56.545    12062.813     5892.516     3197.318        2.331        1.058      159.525       62.877        0.155      332.296        0.863      865.275
12/10/2021  12:35:00      143.299      -17.148       -6.850      133.184       88.339       73.786    17737.971     7803.729     5444.394        2.593        1.549      144.321       70.852        0.241      332.426        1.079      865.259
12/10/2021  12:36:00       55.514      -96.977      -23.991      110.677      115.719       51.602    12249.300    13390.859     2662.727        2.068        1.415      111.742       71.276        0.407      332.451        1.121      865.254
12/10/2021  12:37:00       93.426     -283.761      -44.363       48.530       66.392       31.197     2355.163     4407.945      973.281        4.948        0.387      298.745       32.127        0.012      332.014        0.396      865.244
12/10/2021  12:38:00       48.423      -30.126      -14.772       62.463       87.121       43.954     3901.651     7590.004     1931.942        0.844        0.671       57.030       28.935        0.257      332.521        1.237      865.231
12/10/2021  12:39:00       86.180      -18.503      -13.183       85.157       59.460       44.980     7251.725     3535.484     2023.159        1.037        0.641       88.144       39.571        0.202      332.406        1.047      865.231
12/10/2021  12:40:00      105.525      -47.762      -26.079       68.248       47.244       40.520     4657.757     2231.974     1641.831        1.131        0.427      115.830       40.428        0.122      332.176        0.669      865.221
12/10/2021  12:41:00       95.876      -24.157      -16.233      103.752       55.284       51.901    10764.571     3056.360     2693.685        1.327        0.826       98.872       51.347        0.270      332.274        0.828      865.201
12/10/2021  12:42:00      127.222      -21.172      -35.973      121.003       86.470       69.359    14641.782     7477.076     4810.632        2.242        1.346      128.972       52.135        0.163      332.339        0.935      865.180
12/10/2021  12:43:00      176.657      -92.864      -50.961      116.275      125.347       81.782    13519.971    15711.782     6688.217        3.917        1.796      199.578       71.398        0.128      332.270        0.822      865.141
12/10/2021  12:44:00      119.440     -206.999      -48.565       71.357       90.177       38.450     5091.766     8131.868     1478.369        3.708        0.735      238.986       39.346        0.027      332.029        0.424      865.143
12/10/2021  12:45:00      102.523     -153.481      -44.533       87.430      122.857       48.767     7643.921    15093.883     2378.200        3.058        1.256      184.573       48.348        0.069      332.239        0.770      865.142
12/10/2021  12:46:00      106.026     -160.514      -42.633       40.864       69.017       30.827     1669.895     4763.410      950.316        2.310        0.369      192.370       28.461        0.022      332.148        0.619      865.143
12/10/2021  12:47:00      128.470     -226.882      -50.350       91.538       75.779       44.823     8379.248     5742.390     2009.118        4.332        0.807      260.730       41.306        0.025      332.416        1.062      865.140
12/10/2021  12:48:00      110.006      -72.536      -32.154       97.372      116.537       48.352     9481.394    13580.822     2337.880        2.189        1.270      131.768       41.332        0.098      332.504        1.208      865.144
12/10/2021  12:49:00      221.683      -56.625      -27.527      142.018       96.296       76.532    20169.066     9273.002     5857.221        4.420        1.765      228.801       54.238        0.056      332.451        1.118      865.113
12/10/2021  12:50:00      117.288      -66.106      -17.320      120.753       88.379       74.496    14581.331     7810.809     5549.609        2.318        1.397      134.635       67.989        0.255      332.657        1.460      865.083
12/10/2021  12:51:00       83.107      -22.054      -23.115       88.126       71.624       44.536     7766.199     5129.958     1983.417        1.140        0.744       85.983       33.305        0.150      332.534        1.259      865.058
12/10/2021  12:52:00        5.366      -33.369        6.274       70.797       52.311       37.462     5012.196     2736.493     1403.405        0.517        0.458       33.798       22.616        0.448      333.044        2.102      865.029
12/10/2021  12:53:00      159.977        6.561      -47.805      105.564       89.931       61.159    11143.718     8087.610     3740.461        2.544        1.149      160.111       29.899        0.035      332.382        1.007      865.005
12/10/2021  12:54:00      104.651      -84.784      -33.037       63.550       71.719       44.155     4038.645     5143.666     1949.675        1.518        0.557      134.685       29.888        0.049      332.216        0.734      864.980
12/10/2021  12:55:00      183.017       -8.341      -56.594      118.476      101.689       60.649    14036.595    10340.645     3678.257        3.241        1.403      183.207       37.021        0.041      332.382        1.006      864.953
12/10/2021  12:56:00      167.781      -11.178      -28.788       55.335       56.121       25.397     3062.013     3149.617      645.008        1.798        0.343      168.153       19.055        0.013      331.905        0.220      864.953
12/10/2021  12:57:00       73.764      -15.460      -14.734       56.179       55.674       22.900     3156.025     3099.564      524.395        0.634        0.339       75.367       20.626        0.075      332.296        0.865      864.921
12/10/2021  12:58:00      246.365      -72.966      -37.476       92.844       79.828       50.385     8620.100     6372.443     2538.683        4.247        0.877      256.943       33.984        0.017      332.257        0.799      864.891
12/10/2021  12:59:00      173.938      -34.458      -34.848      117.739       89.044       48.608    13862.574     7928.917     2362.694        2.840        1.208      177.318       45.599        0.066      332.611        1.386      864.871
12/10/2021  13:00:00      179.017      -32.341      -26.216       84.408       82.979       50.266     7124.646     6885.566     2526.679        2.516        0.827      181.915       31.977        0.031      332.632        1.419      864.871
12/10/2021  13:01:00       96.124       -5.332       -6.494       92.065       76.147       66.162     8475.882     5798.372     4377.408        1.398        0.933       96.272       53.308        0.307      332.558        1.299      864.856
12/10/2021  13:02:00       96.028      -15.996      -23.109       68.329       77.733       48.376     4668.834     6042.469     2340.213        1.153        0.653       97.352       33.431        0.118      332.603        1.374      864.845
12/10/2021  13:03:00      101.858      -17.594      -23.334       47.576       37.115       26.378     2263.449     1377.488      695.780        0.778        0.217      103.366        9.928        0.009      332.151        0.627      864.835
12/10/2021  13:04:00       80.861       14.303       -9.683       72.439       48.570       27.338     5247.355     2359.069      747.349        0.759        0.418       82.116       25.711        0.098      332.397        1.032      864.822
12/10/2021  13:05:00       82.620      -25.582      -24.566       62.700       73.932       53.287     3931.324     5465.966     2839.516        1.016        0.612       86.490       39.083        0.204      332.594        1.358      864.834
12/10/2021  13:06:00      159.774      -79.057      -36.755       97.183       89.248       55.706     9444.573     7965.210     3103.146        2.682        1.026      178.264       48.205        0.073      332.362        0.971      864.841
12/10/2021  13:07:00      179.408      -65.268      -22.430      120.539       80.899       58.090    14529.705     6544.586     3374.483        3.070        1.222      190.912       55.885        0.086      332.272        0.824      864.839
12/10/2021  13:08:00       93.334      -28.709      -12.735      116.678      100.980       80.443    13613.804    10196.997     6471.048        1.998        1.514       97.650       62.890        0.415      332.621        1.401      864.855
12/10/2021  13:09:00      204.038      -37.261      -26.977      118.890       89.237       79.554    14134.752     7963.207     6328.856        3.608        1.421      207.413       72.169        0.121      332.399        1.033      864.888
12/10/2021  13:10:00      137.506      -40.821       -5.584      108.535       73.078       68.847    11779.755     5340.377     4739.885        2.123        1.093      143.437       53.248        0.138      332.609        1.380      864.916
12/10/2021  13:11:00       51.974        5.476      -13.331       80.928       75.130       51.202     6549.360     5644.534     2621.654        0.886        0.741       52.261       34.472        0.435      332.858        1.794      864.939
12/10/2021  13:12:00       17.251      -16.840      -26.649       42.298       43.882       28.606     1789.110     1925.599      818.297        0.291        0.227       24.108       21.755        0.814      333.057        2.123      864.962
12/10/2021  13:13:00       71.148       35.847      -15.354       85.559       65.544       29.313     7320.280     4296.077      859.249        0.953        0.624       79.668       30.462        0.146      332.570        1.321      864.963
12/10/2021  13:14:00      115.163       22.457       -5.808       65.706       65.899       39.048     4317.229     4342.716     1524.722        1.199        0.509      117.332       20.320        0.030      332.620        1.401      864.984
12/10/2021  13:15:00      124.446       12.315      -21.005       66.969       48.878       39.359     4484.909     2389.047     1549.117        1.225        0.421      125.054        4.969        0.002      332.605        1.376      865.029
12/10/2021  13:16:00       63.912        6.916      -11.212       49.576       44.209       32.883     2457.809     1954.463     1081.282        0.487        0.275       64.285       18.967        0.087      332.713        1.555      865.057
12/10/2021  13:17:00       89.975       -1.811      -19.106       71.668       56.589       41.591     5136.243     3202.290     1729.811        0.926        0.503       89.993       35.452        0.155      332.749        1.615      865.080
12/10/2021  13:18:00       46.132     -139.597      -22.293       71.737       64.548       49.982     5146.176     4166.394     2498.238        1.696        0.591      147.022       40.103        0.074      332.805        1.707      865.094
12/10/2021  13:19:00       32.863     -217.698      -37.711       74.231       79.957       43.752     5510.172     6393.129     1914.223        3.185        0.691      220.165       18.976        0.007      332.678        1.494      865.126
12/10/2021  13:20:00       91.460     -214.302      -43.192       42.244       80.412       41.498     1784.550     6466.017     1722.087        3.306        0.499      233.003       25.988        0.012      332.712        1.549      865.154
12/10/2021  13:21:00       73.285     -271.521      -35.370       58.825       56.593       41.546     3460.364     3202.742     1726.060        4.437        0.419      281.237       32.837        0.014      332.639        1.428      865.212
12/10/2021  13:22:00       48.366     -178.430      -40.751       50.484       62.779       33.181     2548.627     3941.250     1100.982        2.171        0.380      184.869       14.450        0.006      332.714        1.553      865.256
12/10/2021  13:23:00       69.955      -35.369      -10.867       36.959       59.522       27.569     1366.000     3542.859      760.045        0.596        0.283       78.388       24.937        0.101      332.584        1.342      865.259
12/10/2021  13:24:00       67.395      -13.405      -31.595       35.578       58.942       33.883     1265.766     3474.172     1148.057        0.580        0.294       68.715       30.652        0.199      332.775        1.657      865.244
12/10/2021  13:25:00      151.130     -196.142      -52.751      110.359       67.530       43.035    12179.156     4560.270     1852.050        4.134        0.930      247.613       38.536        0.024      332.458        1.131      865.228
12/10/2021  13:26:00      122.326     -268.841      -59.342       65.466       78.547       48.172     4285.778     6169.606     2320.496        5.177        0.639      295.363       36.657        0.015      332.460        1.133      865.204
12/10/2021  13:27:00       43.858     -223.916      -41.081       62.322       87.725       42.901     3884.018     7695.602     1840.491        3.358        0.671      228.171       27.143        0.014      332.536        1.260      865.172
12/10/2021  13:28:00      100.583     -283.425      -40.756       64.262       63.367       41.570     4129.585     4015.393     1728.059        5.099        0.494      300.743       36.376        0.015      332.495        1.189      865.121
12/10/2021  13:29:00       78.248     -215.446      -40.051       68.294       66.123       46.843     4664.087     4372.284     2194.233        3.269        0.562      229.215       38.169        0.028      332.582        1.335      865.079
12/10/2021  13:30:00      100.618     -198.149      -41.615       49.763       62.075       26.777     2476.322     3853.313      716.990        2.908        0.352      222.232       23.338        0.011      332.433        1.089      865.058
12/10/2021  13:31:00       75.097     -131.060      -32.636       27.079       50.060       27.619      733.271     2506.038      762.811        1.394        0.200      151.051       25.103        0.028      332.419        1.068      865.038
12/10/2021  13:32:00      104.719     -210.327      -49.266       61.327       62.789       29.384     3760.960     3942.513      863.412        3.310        0.428      234.954       28.236        0.014      332.563        1.305      865.019
12/10/2021  13:33:00      119.275     -159.463      -39.666       71.892       52.875       27.308     5168.528     2795.747      745.753        2.497        0.436      199.135       30.726        0.024      332.569        1.314      864.994
12/10/2021  13:34:00      124.505     -169.343      -43.070       57.611       65.772       33.945     3318.983     4325.969     1152.263        2.741        0.440      210.187       34.090        0.026      332.825        1.737      864.992
12/10/2021  13:35:00       68.606     -170.417      -32.454       47.974       84.350       42.735     2301.552     7114.909     1826.276        2.302        0.562      183.708       37.920        0.043      332.847        1.774      864.996
12/10/2021  13:36:00        3.289      -11.882       -8.411       47.276       33.126       24.127     2235.045     1097.312      582.128        0.207        0.196       12.328       16.644        1.823      333.058        2.124      864.990
12/10/2021  13:37:00       49.813        9.679      -13.720       31.173       37.247       31.605      971.747     1387.369      998.889        0.306        0.168       50.745       15.496        0.093      333.024        2.069      864.976
12/10/2021  13:38:00       70.799       12.004       -9.512       84.122       94.271       57.214     7076.518     8886.956     3273.430        1.224        0.962       71.810       38.679        0.290      332.900        1.864      864.971
12/10/2021  13:39:00      143.546      -51.369      -21.166      107.145       86.855       67.722    11479.978     7543.813     4586.320        2.365        1.181      152.461       48.629        0.102      332.729        1.579      865.042
12/10/2021  13:40:00      163.088      -17.923      -10.757      106.572       91.331       69.131    11357.562     8341.405     4779.031        2.575        1.224      164.070       54.692        0.111      332.828        1.742      865.055
12/10/2021  13:41:00      143.442      -42.864      -12.435      124.263       72.558       52.105    15441.396     5264.716     2714.937        2.299        1.171      149.709       51.942        0.120      332.761        1.632      865.074
12/10/2021  13:42:00      190.145      -24.543      -43.006       64.816       83.939       43.987     4201.146     7045.687     1934.834        2.589        0.659      191.722       30.893        0.026      332.684        1.503      865.076
12/10/2021  13:43:00      107.712      -25.745      -10.591       60.452       55.827       40.780     3654.439     3116.625     1663.020        1.040        0.422      110.746       31.632        0.082      332.788        1.679      865.085
12/10/2021  13:44:00       83.666      -83.761      -22.268       48.333       96.166       32.081     2336.044     9247.931     1029.169        1.356        0.631      118.388       28.666        0.059      332.818        1.728      865.085
12/10/2021  13:45:00       82.888     -132.819      -36.362       58.194       66.602       37.589     3386.537     4435.794     1412.944        1.753        0.462      156.561       34.202        0.048      332.667        1.477      865.075
12/10/2021  13:46:00       66.755     -163.121      -24.682       54.972       91.022       51.717     3021.964     8284.920     2674.663        2.283        0.699      176.252       43.897        0.062      332.863        1.800      865.070
12/10/2021  13:47:00      127.450      -89.586      -31.115       64.575      133.755       35.911     4169.976    17890.518     1289.572        2.429        1.168      155.785       15.328        0.010      332.751        1.616      865.071
12/10/2021  13:48:00       73.687      -22.559      -21.957       73.874       86.793       32.067     5457.438     7533.082     1028.323        1.022        0.701       77.063       20.759        0.073      332.725        1.574      865.066
12/10/2021  13:49:00       89.317     -167.353      -42.299       45.464       42.277       35.306     2066.948     1787.383     1246.518        2.144        0.255      189.696       25.751        0.018      332.710        1.547      865.100
12/10/2021  13:50:00       79.587      -74.476      -23.946       36.184       61.261       28.358     1309.304     3752.894      804.182        0.916        0.293      108.999       31.135        0.082      332.712        1.554      865.140
12/10/2021  13:51:00       15.928       33.030      -10.337       54.967       24.518       18.088     3021.413      601.108      327.178        0.270        0.197       36.670       15.452        0.178      332.814        1.722      865.142
12/10/2021  13:52:00        9.884      -23.990      -14.731       40.235       32.344       23.699     1618.861     1046.136      561.624        0.206        0.161       25.947       12.279        0.224      332.971        1.982      865.100
12/10/2021  13:53:00       49.280     -129.337      -33.441       46.838      101.653       41.266     2193.758    10333.252     1702.867        1.725        0.711      138.408       33.361        0.058      333.007        2.039      865.063
12/10/2021  13:54:00       48.995      -80.945      -20.016       50.267       66.938       47.965     2526.806     4480.676     2300.661        0.933        0.465       94.618       27.516        0.085      332.925        1.905      865.039
12/10/2021  13:55:00      116.043      -33.906      -22.514      108.953       81.590       74.583    11870.708     6656.942     5562.554        1.960        1.205      120.895       55.628        0.212      332.885        1.839      865.003
12/10/2021  13:56:00      152.349      -11.913      -19.455      119.401       83.877       69.087    14256.544     7035.294     4773.007        2.489        1.303      152.814       56.233        0.135      332.825        1.739      865.004
12/10/2021  13:57:00      120.348      -19.023      -17.157      112.324       87.722       77.697    12616.730     7695.199     6036.762        2.074        1.317      121.842       71.545        0.345      332.801        1.699      864.981
12/10/2021  13:58:00      122.419      -60.124       -8.249      100.680       88.955       61.833    10136.411     7912.916     3823.362        2.027        1.094      136.386       53.850        0.156      332.984        2.002      864.977
12/10/2021  13:59:00      152.285      -47.913      -43.783       80.774       80.518       56.486     6524.371     6483.079     3190.636        2.180        0.810      159.645       36.745        0.053      332.764        1.637      864.990
12/10/2021  14:00:00      129.751      -49.994      -22.421       94.202       85.901       61.906     8873.924     7378.907     3832.291        1.996        1.004      139.049       50.216        0.130      332.978        1.992      864.991
12/10/2021  14:01:00      124.617      -45.223      -25.683       99.270       88.309       66.309     9854.586     7798.490     4396.907        2.014        1.102      132.569       46.371        0.122      333.170        2.307      864.999
12/10/2021  14:02:00       67.228      -12.826        0.542       79.430       79.972       69.503     6309.082     6395.458     4830.694        1.111        0.877       68.440       60.316        0.777      332.950        1.946      865.025
12/10/2021  14:03:00      134.198       12.715       -0.030       72.685       80.356       40.431     5283.089     6457.092     1634.640        1.577        0.669      134.799       33.146        0.060      332.915        1.889      865.055
12/10/2021  14:04:00      192.800       53.883      -17.791       64.308       44.747       25.939     4135.533     2002.302      672.837        2.360        0.341      200.188       22.221        0.012      332.738        1.592      865.059
12/10/2021  14:05:00       95.081      -49.469      -31.725       69.894       72.265       37.087     4885.206     5222.256     1375.478        1.199        0.574      107.180       38.282        0.128      332.956        1.956      865.065
12/10/2021  14:06:00       29.650      -12.293      -25.523       33.292       34.593       16.581     1108.365     1196.690      274.943        0.213        0.129       32.097       21.292        0.440      332.686        1.510      865.061
12/10/2021  14:07:00       96.359       89.187      -13.256       59.954       39.129       20.475     3594.524     1531.041      419.216        1.148        0.277      131.299       18.341        0.020      332.688        1.513      865.053
12/10/2021  14:08:00       70.997       42.567       -3.687       54.504       37.777       24.641     2970.668     1427.079      607.195        0.593        0.250       82.780       20.028        0.059      332.784        1.673      865.048
12/10/2021  14:09:00       97.265       -3.758       -1.392       50.610       49.582       32.539     2561.348     2458.409     1058.758        0.778        0.304       97.338       20.274        0.043      333.054        2.119      865.051
12/10/2021  14:10:00      154.041       -1.968      -32.317      103.245       84.406       50.693    10659.543     7124.421     2569.798        2.256        1.018      154.054       30.254        0.039      333.098        2.190      865.060
12/10/2021  14:11:00       51.364     -168.178      -44.125       43.646       80.307       24.448     1904.993     6449.291      597.686        2.091        0.448      175.847       24.131        0.019      332.914        1.885      865.073
12/10/2021  14:12:00       52.499      -91.467      -26.275       38.522       65.175       34.659     1483.917     4247.796     1201.234        0.937        0.347      105.463       23.466        0.050      333.002        2.032      865.078
12/10/2021  14:13:00      130.426      -69.778      -22.835      108.757       57.711       43.739    11828.034     3330.587     1913.106        1.973        0.854      147.918       51.275        0.120      332.908        1.877      865.092
12/10/2021  14:14:00       81.685     -176.000      -37.835       52.774       64.323       37.918     2785.144     4137.446     1437.793        2.372        0.418      194.032       34.350        0.031      332.944        1.935      865.096
12/10/2021  14:15:00       79.486      -10.502      -13.920       80.325       68.963       40.977     6452.091     4755.899     1679.150        0.975        0.644       80.177       34.194        0.182      333.234        2.417      865.097
12/10/2021  14:16:00      154.821       66.624      -24.845       62.127       66.462       33.343     3859.775     4417.173     1111.785        1.921        0.469      168.548       28.540        0.029      332.781        1.666      865.104
12/10/2021  14:17:00      161.934       94.552      -24.404       90.926       47.101       32.979     8267.578     2218.527     1087.639        2.366        0.579      187.518       31.874        0.029      332.856        1.789      865.082
12/10/2021  14:18:00      117.240       16.313       -4.760       70.928       60.812       40.712     5030.850     3698.119     1657.490        1.221        0.519      118.369       32.016        0.073      333.094        2.185      865.084
12/10/2021  14:19:00      135.380       39.478      -19.978      114.447       80.153       49.429    13098.115     6424.572     2443.273        2.112        1.098      141.019       51.503        0.133      333.185        2.332      865.081
12/10/2021  14:20:00       60.599      -25.927       -7.001       85.099       74.210       53.625     7241.877     5507.156     2875.589        1.001        0.781       65.912       45.776        0.482      333.535        2.915      865.078
12/10/2021  14:21:00      129.162     -123.412      -42.024       77.495       77.016       42.146     6005.509     5931.484     1776.282        2.369        0.686      178.643       44.383        0.062      333.005        2.035      865.080
12/10/2021  14:22:00      119.490      -81.035      -26.591      100.635       95.748       44.345    10127.428     9167.701     1966.450        2.140        1.063      144.377       35.322        0.060      332.924        1.902      865.044
12/10/2021  14:23:00      136.730      -22.906      -33.678       98.253      103.627       58.981     9653.571    10738.570     3478.746        2.211        1.194      138.635       11.241        0.007      333.140        2.260      865.016
12/10/2021  14:24:00      163.036      -89.178      -35.377      109.835      108.423       60.189    12063.680    11755.455     3622.731        3.161        1.372      185.832       49.442        0.071      333.086        2.169      864.992
12/10/2021  14:25:00      163.439     -150.883      -44.062       88.331       67.844       44.705     7802.437     4602.860     1998.516        3.291        0.720      222.436       35.664        0.026      332.975        1.985      864.994
12/10/2021  14:26:00      201.525     -127.591      -35.153       92.216       75.590       52.674     8503.844     5713.809     2774.567        3.756        0.850      238.520       47.835        0.040      332.929        1.908      864.978
12/10/2021  14:27:00      141.638      -46.458      -31.290       89.219       79.973       46.977     7959.954     6395.647     2206.856        1.988        0.828      149.063       39.864        0.072      332.997        2.024      864.962
12/10/2021  14:28:00      130.791     -101.726      -29.964       61.299       68.443       42.358     3757.586     4684.449     1794.195        1.929        0.512      165.694       40.753        0.060      332.880        1.830      864.948
12/10/2021  14:29:00       92.596     -158.168      -39.553       41.052       47.177       26.218     1685.249     2225.698      687.378        1.988        0.230      183.278       15.387        0.007      332.901        1.864      864.921
12/10/2021  14:30:00      140.202       31.251      -27.195       63.287       71.006       32.723     4005.276     5041.891     1070.800        1.574        0.506      143.642       14.524        0.010      332.940        1.928      864.903
12/10/2021  14:31:00      108.050      -32.931       -9.216       73.016       34.157       35.363     5331.409     1166.694     1250.545        1.030        0.387      112.957       37.059        0.108      332.871        1.816      864.895
12/10/2021  14:32:00      104.926       26.715       -6.944       45.652       37.158       26.568     2084.113     1380.708      705.861        0.797        0.209      108.274       19.306        0.032      332.977        1.992      864.892
12/10/2021  14:33:00      121.861      -17.151       -9.420      115.233       81.138       67.947    13278.630     6583.447     4616.770        1.985        1.224      123.062       58.057        0.223      333.115        2.218      864.893
12/10/2021  14:34:00      200.960      -24.410      -18.540      124.751      104.097       72.918    15562.889    10836.198     5316.994        3.651        1.586      202.438       68.044        0.113      332.936        1.921      864.883
12/10/2021  14:35:00      135.674      -70.748      -14.112      116.008       84.367       79.698    13457.956     7117.768     6351.812        2.526        1.346      153.012       63.830        0.174      332.971        1.979      864.890
12/10/2021  14:36:00      208.209       30.627      -22.935       95.514      107.828       49.710     9122.844    11626.926     2471.039        3.401        1.161      210.450       21.128        0.010      332.976        1.987      864.903
12/10/2021  14:37:00      156.907       -8.501       -6.398       96.842       80.057       51.680     9378.379     6409.180     2670.812        2.159        0.923      157.137       47.305        0.091      333.091        2.176      864.925
12/10/2021  14:38:00      147.521      -53.704      -14.967       95.113       59.460       41.316     9046.504     3535.507     1707.007        1.958        0.714      156.993       39.079        0.062      333.121        2.230      864.938
12/10/2021  14:39:00      138.791      -74.996      -29.040       75.664       82.927       55.516     5725.079     6876.813     3081.998        2.070        0.784      157.757       45.974        0.085      333.143        2.264      864.930
12/10/2021  14:40:00      148.894      -33.738      -30.066      127.162       82.845       73.643    16170.242     6863.253     5423.344        2.633        1.423      152.668       66.014        0.187      333.184        2.330      864.909
12/10/2021  14:41:00       52.712      -76.330      -18.580       84.209       72.611       43.763     7091.209     5272.330     1915.217        1.161        0.714       92.762       33.267        0.129      333.278        2.488      864.895
12/10/2021  14:42:00      138.997     -160.332      -39.149       89.173       91.522       56.466     7951.893     8376.309     3188.424        3.303        0.976      212.194       45.462        0.046      333.275        2.480      864.882
12/10/2021  14:43:00      112.774      -26.368      -19.639      115.272       86.207       58.764    13287.638     7431.666     3453.172        1.898        1.209      115.816       53.035        0.210      333.297        2.519      864.869
12/10/2021  14:44:00      166.937      -20.135      -17.114       88.803       50.234       42.499     7886.035     2523.488     1806.199        2.039        0.611      168.147       41.319        0.060      332.963        1.965      864.867
12/10/2021  14:45:00       79.752      -32.111      -12.577      128.585       60.027       45.310    16534.001     3603.189     2052.983        1.487        1.110       85.974       29.863        0.121      333.257        2.452      864.849
12/10/2021  14:46:00       49.032     -132.416      -26.615       66.406      120.447       45.552     4409.692    14507.395     2074.972        2.082        1.050      141.203       47.673        0.114      333.276        2.484      864.856
12/10/2021  14:47:00      104.390     -228.635      -42.377       62.008       76.965       29.229     3844.974     5923.676      854.312        3.779        0.531      251.339       24.671        0.010      333.007        2.037      864.870
12/10/2021  14:48:00       26.002      -64.180       -4.655       33.924       48.085       33.327     1150.818     2312.173     1110.686        0.469        0.229       69.247       18.982        0.075      333.404        2.696      864.881
12/10/2021  14:49:00       93.676      -73.679      -19.173       65.457       88.102       38.063     4284.635     7762.013     1448.774        1.403        0.675      119.179       32.483        0.074      333.244        2.433      864.897
12/10/2021  14:50:00       93.932      -50.201      -24.600      100.605       75.903       52.204    10121.368     5761.300     2725.303        1.527        0.930      106.505       47.789        0.201      333.173        2.315      864.889
12/10/2021  14:51:00       81.700      -27.610      -13.379       88.547       46.329       45.540     7840.589     2146.367     2073.868        0.984        0.603       86.240       38.386        0.198      333.050        2.111      864.904
12/10/2021  14:52:00      118.364       25.150      -11.438       64.339       58.149       36.150     4139.525     3381.312     1306.826        1.180        0.441      121.006       28.482        0.055      333.122        2.230      864.923
12/10/2021  14:53:00      136.037       13.393       -4.108       67.025       45.832       37.935     4492.397     2100.564     1439.100        1.337        0.402      136.694       38.695        0.080      332.999        2.027      864.933
12/10/2021  14:54:00      112.499      -20.396      -10.525       90.284       77.829       67.246     8151.272     6057.392     4522.064        1.595        0.937      114.333       42.618        0.139      333.185        2.335      864.943
12/10/2021  14:55:00      117.771      -18.318      -18.081       84.033       80.115       45.286     7061.574     6418.488     2050.851        1.503        0.777      119.187       39.948        0.112      333.323        2.562      864.972
12/10/2021  14:56:00      203.880      -22.721      -15.777      136.750       82.823       62.272    18700.550     6859.587     3877.766        3.588        1.472      205.142       65.636        0.102      333.070        2.143      864.985
12/10/2021  14:57:00      162.024       -8.046       -9.702      142.135       81.627       65.379    20202.301     6662.964     4274.436        2.877        1.557      162.224       64.614        0.159      333.139        2.258      864.995
12/10/2021  14:58:00      144.427      -36.867      -24.237       80.663       72.121       62.150     6506.493     5201.482     3862.648        1.919        0.779      149.058       49.790        0.112      333.121        2.227      865.017
12/10/2021  14:59:00      172.506      -27.377      -14.385       96.345       72.917       61.168     9282.306     5316.881     3741.503        2.452        0.917      174.665       38.889        0.050      333.081        2.160      865.030
12/10/2021  15:00:00       68.737      -37.974      -27.187       74.910       73.313       51.200     5611.557     5374.743     2621.431        1.025        0.680       78.529       45.619        0.337      333.208        2.371      865.056
12/10/2021  15:01:00      114.164      -31.082       -8.411       72.537       76.793       40.082     5261.572     5897.224     1606.605        1.342        0.638      118.320       37.701        0.102      333.138        2.256      865.079
12/10/2021  15:02:00      113.772     -176.574      -42.859       52.785       63.583       33.330     2786.301     4042.813     1110.879        2.695        0.397      210.053       25.954        0.015      333.107        2.203      865.091
12/10/2021  15:03:00      126.310        6.686      -25.282      108.099       74.568       42.679    11685.311     5560.320     1821.493        1.785        0.953      126.486       44.926        0.126      333.128        2.239      865.107
12/10/2021  15:04:00      115.797      -39.167      -25.837      100.273       60.140       48.401    10054.622     3616.792     2342.668        1.581        0.801      122.242       48.784        0.159      333.104        2.200      865.125
12/10/2021  15:05:00       86.221      -48.695      -33.589       41.306       50.617       22.677     1706.164     2562.095      514.227        0.786        0.239       99.021       11.634        0.014      332.987        2.008      865.151
12/10/2021  15:06:00      147.772       30.864      -19.468       78.277       68.322       38.093     6127.263     4667.892     1451.094        1.770        0.612      150.960        9.753        0.004      333.128        2.240      865.169
12/10/2021  15:07:00      139.115      -24.545      -13.945       87.334       59.336       53.664     7627.307     3520.753     2879.875        1.709        0.701      141.264       45.452        0.104      333.116        2.220      865.201
12/10/2021  15:08:00      122.708      -22.375      -31.028       67.481       61.657       32.962     4553.711     3801.600     1086.463        1.298        0.472      124.731       20.435        0.027      333.083        2.166      865.212
12/10/2021  15:09:00       38.399       21.161      -14.928       51.687       47.227       41.151     2671.563     2230.405     1693.399        0.437        0.330       43.844       26.813        0.374      333.265        2.467      865.202
12/10/2021  15:10:00       83.233       27.700      -11.009       56.647       69.750       40.541     3208.928     4865.020     1643.549        0.877        0.486       87.721       21.449        0.060      333.282        2.496      865.183
12/10/2021  15:11:00       79.659       41.693      -18.374       39.141       35.940       18.752     1532.022     1291.650      351.647        0.580        0.159       89.911       11.619        0.017      333.030        2.080      865.151
12/10/2021  15:12:00       33.956        0.561      -16.467       23.286       35.417       17.847      542.229     1254.335      318.509        0.177        0.106       33.960       18.379        0.293      333.200        2.360      865.116
12/10/2021  15:13:00       71.806      -21.901      -10.782       39.526       36.052       24.408     1562.267     1299.722      595.763        0.460        0.173       75.071       20.626        0.075      333.083        2.166      865.092
12/10/2021  15:14:00       38.077      -32.179       -7.004       54.804       31.802       31.593     3003.444     1011.392      998.095        0.377        0.251       49.853       29.654        0.354      333.149        2.276      865.062
12/10/2021  15:15:00       46.086       21.692       -9.697       49.504       64.628       39.133     2450.676     4176.840     1531.430        0.542        0.408       50.935       28.975        0.324      333.206        2.369      865.051
12/10/2021  15:16:00       98.697        0.547      -38.138       70.230       78.858       40.736     4932.191     6218.583     1659.426        1.200        0.641       98.699       26.553        0.072      333.093        2.183      865.049
12/10/2021  15:17:00      141.874      -44.363      -16.379       61.716       38.664       31.293     3808.897     1494.898      979.270        1.432        0.314      148.648       23.155        0.024      333.040        2.096      865.049
12/10/2021  15:18:00      108.076      -11.286      -10.101       80.558       52.033       48.606     6489.590     2707.401     2362.495        1.173        0.578      108.664       42.077        0.150      333.085        2.169      865.052
12/10/2021  15:19:00       41.725      -25.520      -10.657       53.420       51.006       49.769     2853.681     2601.618     2476.927        0.522        0.397       48.911       25.362        0.269      333.264        2.465      865.056
12/10/2021  15:20:00       97.634       13.135      -10.813       54.773       73.206       28.883     3000.073     5359.189      834.209        0.951        0.460       98.513       20.118        0.042      333.188        2.341      865.080
12/10/2021  15:21:00      102.480      -17.177      -15.795       39.476       39.888       26.541     1558.344     1591.019      704.399        0.745        0.193      103.910       15.046        0.021      333.099        2.193      865.104
12/10/2021  15:22:00       72.228      -99.364      -34.146       55.773       70.578       31.788     3110.636     4981.265     1010.465        1.268        0.455      122.842       12.387        0.010      333.153        2.280      865.135
12/10/2021  15:23:00       19.263       -1.628      -31.602       59.100       67.183       31.716     3492.785     4513.585     1005.930        0.519        0.451       19.332       26.919        1.939      333.445        2.766      865.140
12/10/2021  15:24:00       12.736      -49.540      -21.104       45.850       52.690       37.492     2102.180     2776.184     1405.673        0.467        0.314       51.151       33.658        0.433      333.550        2.939      865.154
12/10/2021  15:25:00       74.162     -118.551      -30.867       43.686       74.153       35.230     1908.459     5498.696     1241.119        1.458        0.432      139.836       34.130        0.060      333.249        2.439      865.167
12/10/2021  15:26:00      -16.212       -0.831      -21.219       50.188       43.007       26.170     2518.844     1849.603      684.869        0.288        0.253       16.234       15.862        0.955      333.561        2.958      865.181
12/10/2021  15:27:00      -20.899      -49.240      -14.966       73.540       76.475       39.016     5408.178     5848.452     1522.275        0.793        0.639       53.492       29.436        0.303      333.640        3.086      865.191
12/10/2021  15:28:00       30.027     -145.195      -28.928       49.363       76.205       34.800     2436.707     5807.226     1211.045        1.614        0.473      148.267       22.366        0.023      333.399        2.688      865.217
12/10/2021  15:29:00       -1.683      -57.173      -30.530       72.917       51.588       41.747     5316.894     2661.345     1742.811        0.696        0.486       57.198       38.689        0.458      333.472        2.811      865.240
12/10/2021  15:30:00      117.407      -68.773      -28.240       70.376       70.261       44.044     4952.821     4936.571     1939.884        1.557        0.591      136.067       35.284        0.067      333.320        2.558      865.252
12/10/2021  15:31:00        4.826      -67.100      -29.899       54.273       43.825       26.919     2945.584     1920.646      724.613        0.550        0.280       67.273        6.101        0.008      333.451        2.774      865.279
12/10/2021  15:32:00       89.720     -145.783      -26.265       65.434       73.829       45.392     4281.658     5450.795     2060.440        2.089        0.590      171.179       45.371        0.070      333.234        2.415      865.316
12/10/2021  15:33:00       65.185      -33.085      -28.792       83.057       93.218       44.093     6898.465     8689.558     1944.219        1.185        0.877       73.100       41.807        0.327      333.312        2.544      865.353
12/10/2021  15:34:00      130.899      -41.745      -22.936       78.247       50.422       39.211     6122.643     2542.346     1537.537        1.480        0.510      137.395       37.236        0.073      333.183        2.332      865.397
12/10/2021  15:35:00       34.889        2.963       -4.964       35.152       43.746       18.812     1235.692     1913.753      353.883        0.238        0.175       35.015       11.385        0.106      333.181        2.329      865.437
12/10/2021  15:36:00        2.714       -7.675       -6.825       21.134       23.858       14.728      446.663      569.194      216.919        0.067        0.062        8.141        8.066        0.982      333.409        2.704      865.459
12/10/2021  15:37:00       42.748       46.132        2.000       30.735       20.457       21.980      944.662      418.503      483.100        0.290        0.092       62.893       11.049        0.031      333.117        2.223      865.470
12/10/2021  15:38:00       75.087       37.759      -12.149       41.924       31.521       21.116     1757.645      993.586      445.905        0.520        0.160       84.046       10.230        0.015      333.124        2.235      865.479
12/10/2021  15:39:00       25.612        0.073       -2.420       32.764       40.338       23.912     1073.460     1627.192      571.781        0.197        0.164       25.612       16.482        0.414      333.293        2.514      865.485
12/10/2021  15:40:00       10.331      -11.548      -12.830       24.387       27.849       14.953      594.718      775.573      223.597        0.100        0.080       15.495       15.253        0.969      333.430        2.740      865.493
12/10/2021  15:41:00       91.289      -52.680      -15.656       76.446       58.191       37.394     5843.933     3386.163     1398.332        1.099        0.531      105.398       39.299        0.139      333.270        2.476      865.493
12/10/2021  15:42:00       88.397      -86.435      -33.229       54.227       63.330       24.535     2940.559     4010.735      601.987        1.197        0.378      123.633       21.393        0.030      333.077        2.156      865.490
12/10/2021  15:43:00       40.661      -44.931       -3.079       47.491       35.386       29.029     2255.412     1252.154      842.663        0.402        0.218       60.598       30.572        0.255      333.193        2.349      865.496
12/10/2021  15:44:00       86.069       -7.550       -8.646       47.489       45.424       24.926     2255.165     2063.384      621.309        0.624        0.247       86.400       19.711        0.052      333.062        2.133      865.513
12/10/2021  15:45:00      149.095        4.593       -9.090       50.584       41.338       30.033     2558.692     1708.833      901.983        1.375        0.258      149.165       23.999        0.026      332.970        1.980      865.510
12/10/2021  15:46:00      101.935      -44.019      -19.198       76.216       84.148       53.219     5808.932     7080.915     2832.212        1.421        0.786      111.034       38.657        0.121      333.023        2.067      865.487
12/10/2021  15:47:00      107.220       -7.012      -22.955       81.806       67.735       48.715     6692.218     4587.994     2373.118        1.286        0.683      107.450       32.340        0.091      333.113        2.215      865.456
12/10/2021  15:48:00      152.762       19.752       -1.479      112.765       78.309       60.783    12715.910     6132.233     3694.623        2.313        1.127      154.033       61.579        0.160      333.034        2.084      865.425
12/10/2021  15:49:00      215.023       18.996      -13.488       93.001       76.948       46.379     8649.138     5920.980     2151.046        3.175        0.836      215.861       38.762        0.032      332.932        1.914      865.394
12/10/2021  15:50:00      121.982       25.257       -4.448       78.700       57.103       37.521     6193.764     3260.723     1407.801        1.320        0.543      124.570       33.764        0.073      332.976        1.989      865.374
12/10/2021  15:51:00       94.138       10.435       -2.410       86.616       96.972       48.003     7502.416     9403.526     2304.262        1.409        0.961       94.714       28.035        0.088      333.027        2.074      865.339
12/10/2021  15:52:00       75.491      -18.169       -3.652       89.047       61.808       64.116     7929.370     3820.283     4110.847        1.095        0.793       77.647       56.086        0.522      333.109        2.209      865.367
12/10/2021  15:53:00      110.913       -2.224      -19.690       81.853       88.851       53.229     6699.976     7894.503     2833.287        1.506        0.871      110.935       38.260        0.119      333.068        2.141      865.392
12/10/2021  15:54:00      134.023      -17.749      -17.987       78.922       64.599       45.287     6228.642     4173.015     2050.885        1.552        0.623      135.193       38.886        0.083      333.041        2.096      865.418
12/10/2021  15:55:00      100.960      -34.581       -7.904      107.241       73.496       46.964    11500.588     5401.642     2205.636        1.528        0.955      106.718       47.143        0.195      333.018        2.059      865.411
12/10/2021  15:56:00       94.848       -7.324      -17.652       88.086       65.767       59.996     7759.186     4325.329     3599.512        1.252        0.784       95.130       45.272        0.226      333.126        2.238      865.408
12/10/2021  15:57:00      139.110      -44.835      -52.326       78.540       85.161       59.703     6168.510     7252.354     3564.429        2.054        0.849      146.157       41.988        0.083      333.154        2.282      865.423
12/10/2021  15:58:00      147.127      -68.664      -15.451       82.532       74.134       46.920     6811.490     5495.897     2201.444        2.055        0.725      162.361       45.060        0.077      333.076        2.153      865.419
12/10/2021  15:59:00      132.248      -40.996      -21.877       90.599       72.801       39.569     8208.254     5299.984     1565.735        1.736        0.754      138.456       29.803        0.046      333.008        2.041      865.400
12/10/2021  16:00:00      130.611      -16.226      -20.235      102.483       87.627       55.869    10502.829     7678.555     3121.301        1.951        1.065      131.615       46.440        0.125      332.955        1.953      865.382
12/10/2021  16:01:00      125.558      -70.183      -42.131       62.049      101.949       50.541     3850.069    10393.669     2554.409        1.963        0.840      143.842       32.186        0.050      332.959        1.959      865.377
12/10/2021  16:02:00      104.930        4.577       -8.927       76.876       67.706       39.105     5909.908     4584.103     1529.189        1.156        0.601      105.029       34.857        0.110      332.891        1.848      865.356
12/10/2021  16:03:00      144.985      -17.354      -17.876      109.858       58.807       39.358    12068.800     3458.299     1549.048        1.936        0.854      146.020       45.815        0.098      332.918        1.891      865.358
12/10/2021  16:04:00      179.778      -25.893       -8.437      120.195       80.249       69.626    14446.785     6439.969     4847.712        2.939        1.287      181.633       65.894        0.132      332.899        1.860      865.350
12/10/2021  16:05:00      154.526      -69.382      -28.847      118.448       89.049       69.904    14029.912     7929.719     4886.535        2.818        1.342      169.387       53.164        0.099      332.857        1.789      865.345
12/10/2021  16:06:00      218.041     -114.133      -26.567      109.055       82.744       61.277    11893.012     6846.643     3754.871        4.188        1.125      246.106       52.479        0.045      332.887        1.839      865.346
12/10/2021  16:07:00      115.940        9.754       -5.422       86.753       87.405       61.679     7526.026     7639.585     3804.339        1.626        0.948      116.349       45.080        0.150      332.944        1.935      865.335
12/10/2021  16:08:00      144.250      -34.900      -23.483      105.277      103.328       74.996    11083.276    10676.763     5624.439        2.498        1.369      148.411       55.704        0.141      332.896        1.856      865.331
12/10/2021  16:09:00      161.212      -58.709      -30.906      105.483       89.433       59.234    11126.574     7998.278     3508.701        2.651        1.132      171.570       45.851        0.071      332.846        1.772      865.330
12/10/2021  16:10:00       80.795      -56.654      -23.703      102.943       94.733       60.303    10597.360     8974.411     3636.502        1.675        1.160       98.679       49.382        0.250      332.927        1.907      865.342
12/10/2021  16:11:00       65.378      -26.937      -14.426       59.532       69.203       40.436     3544.003     4789.069     1635.060        0.759        0.498       70.710       31.558        0.199      332.909        1.878      865.359
12/10/2021  16:12:00       29.945      -19.503      -17.307       54.064       59.058       50.007     2922.878     3487.815     2500.693        0.524        0.446       35.736       35.370        0.980      332.945        1.937      865.353
12/10/2021  16:13:00       33.616       -9.030      -17.064       46.003       76.217       41.064     2116.246     5809.100     1686.266        0.556        0.481       34.808       37.461        1.158      332.951        1.949      865.347
12/10/2021  16:14:00       98.270      -36.874      -19.189       56.736       55.902       45.618     3218.947     3125.085     2080.960        0.990        0.421      104.960       33.302        0.101      332.897        1.859      865.338
12/10/2021  16:15:00      109.933       -6.543        6.457      102.466       73.488       59.147    10499.197     5400.421     3498.421        1.578        0.970      110.127       57.015        0.268      332.774        1.655      865.319
12/10/2021  16:16:00      166.868      -37.669      -28.700       93.029       74.667       53.376     8654.448     5575.102     2848.972        2.358        0.854      171.067       30.342        0.031      332.761        1.632      865.296
12/10/2021  16:17:00      114.622      -69.642      -20.186       91.649       70.629       60.937     8399.610     4988.504     3713.342        1.775        0.855      134.121       57.623        0.185      332.787        1.674      865.281
12/10/2021  16:18:00       86.447      -26.752      -17.672       42.162       60.857       41.362     1777.673     3703.614     1710.852        0.785        0.360       90.492       31.732        0.123      332.747        1.610      865.286
12/10/2021  16:19:00       93.782      -20.974       -7.797       52.431       50.933       38.057     2748.965     2594.177     1448.327        0.804        0.340       96.099       34.894        0.132      332.665        1.476      865.283
12/10/2021  16:20:00       94.086       14.537      -24.370       95.714       87.290       51.340     9161.233     7619.516     2635.758        1.453        0.971       95.203       41.190        0.187      332.615        1.392      865.278
12/10/2021  16:21:00       76.954      -19.206       -3.934      111.575       96.794       85.784    12448.872     9369.106     7358.885        1.774        1.459       79.314       74.145        0.874      332.654        1.457      865.260
12/10/2021  16:22:00      151.391      -53.032      -19.327      116.612       78.931       62.360    13598.431     6230.168     3888.747        2.491        1.186      160.411       53.858        0.113      332.675        1.488      865.275
12/10/2021  16:23:00      112.996      -24.576      -16.745       96.499       66.873       54.658     9312.086     4471.941     2987.522        1.521        0.839      115.638       45.527        0.155      332.696        1.526      865.287
12/10/2021  16:24:00       81.226      -36.982      -10.176       80.821       83.161       40.542     6532.038     6915.806     1643.673        1.158        0.755       89.248       42.104        0.223      332.734        1.589      865.307
12/10/2021  16:25:00      101.740      -11.565      -29.146       67.912       59.410       39.369     4612.075     3529.508     1549.882        1.051        0.485      102.395       17.042        0.028      332.652        1.454      865.323
12/10/2021  16:26:00      132.144      -56.583      -10.574       77.099       55.354       43.828     5944.325     3064.066     1920.882        1.585        0.546      143.748       38.885        0.073      332.642        1.437      865.332
12/10/2021  16:27:00       74.049        4.732       -8.808       47.509       49.586       33.505     2257.074     2458.786     1122.606        0.571        0.292       74.200       15.253        0.042      332.682        1.504      865.335
12/10/2021  16:28:00      156.924      -75.122      -22.175       76.655       50.057       43.912     5876.020     2505.669     1928.248        2.053        0.515      173.978       32.919        0.036      332.632        1.419      865.318
12/10/2021  16:29:00       82.882      -26.969      -16.596       83.033       47.268       28.112     6894.557     2234.265      790.278        0.889        0.496       87.159       13.172        0.023      332.612        1.388      865.313
12/10/2021  16:30:00       64.249      -96.383      -24.674       48.537       62.682       26.479     2355.871     3929.010      701.114        1.050        0.349      115.834       18.924        0.027      332.763        1.639      865.322
12/10/2021  16:31:00       51.591      -90.396      -43.056       42.269       61.820       28.631     1786.673     3821.656      819.744        0.956        0.321      104.082       18.557        0.032      332.817        1.728      865.337
12/10/2021  16:32:00       84.629     -125.275      -30.508       65.372       45.899       29.598     4273.460     2106.760      876.043        1.552        0.363      151.182       16.711        0.012      332.697        1.527      865.340
12/10/2021  16:33:00       81.764      -17.766      -13.656       63.909       49.454       35.237     4084.297     2445.691     1241.657        0.748        0.389       83.672       20.603        0.061      332.650        1.449      865.337
12/10/2021  16:34:00      137.606      -37.759      -12.762       88.884       45.953       35.245     7900.394     2111.699     1242.178        1.589        0.563      142.693       28.500        0.040      332.574        1.324      865.336
12/10/2021  16:35:00      103.261      -48.191       -8.269       79.361       61.942       45.363     6298.127     3836.781     2057.783        1.262        0.610      113.953       34.242        0.090      332.639        1.432      865.343
12/10/2021  16:36:00      147.696      -27.323      -29.791       47.258       78.320       33.124     2233.277     6134.029     1097.203        1.645        0.473      150.202       16.054        0.011      332.561        1.303      865.356
12/10/2021  16:37:00      215.920      -36.622      -23.530      113.908      104.856       64.208    12974.968    10994.706     4122.677        3.830        1.405      219.003       59.499        0.074      332.553        1.287      865.355
12/10/2021  16:38:00      153.814      -31.625      -26.882      126.705       89.955       63.803    16054.214     8091.941     4070.884        2.679        1.411      157.032       63.518        0.164      332.523        1.239      865.361
12/10/2021  16:39:00      199.574      -89.615      -39.999      114.051       97.618       61.751    13007.591     9529.286     3813.128        3.790        1.318      218.771       53.951        0.061      332.578        1.328      865.377
12/10/2021  16:40:00      133.501      -69.053      -19.890      103.127       80.778       54.128    10635.192     6525.137     2929.881        2.153        1.005      150.302       49.658        0.109      332.639        1.430      865.399
12/10/2021  16:41:00      151.596      -41.968      -26.136       89.465       65.708       53.958     8003.993     4317.565     2911.449        2.033        0.762      157.298       42.692        0.074      332.591        1.351      865.410
12/10/2021  16:42:00      115.778      -44.668      -24.007       83.736       73.913       55.247     7011.766     5463.152     3052.257        1.575        0.776      124.096       45.409        0.134      332.615        1.392      865.407
12/10/2021  16:43:00       41.387      -10.462       -2.552       53.007       56.014       47.970     2809.729     3137.552     2301.104        0.504        0.412       42.689       23.414        0.301      332.612        1.390      865.407
12/10/2021  16:44:00       21.299      -43.465      -12.161       44.241       74.871       29.040     1957.229     5605.626      843.351        0.545        0.420       48.403       35.763        0.546      332.703        1.539      865.408
12/10/2021  16:45:00       78.916     -211.439      -38.746       39.206       49.116       33.525     1537.131     2412.430     1123.925        2.875        0.254      225.686       24.754        0.012      332.702        1.533      865.413
12/10/2021  16:46:00       36.401      -95.426      -23.173       47.809       49.956       29.375     2285.729     2495.615      862.911        0.831        0.282      102.133       20.242        0.039      332.731        1.584      865.409
12/10/2021  16:47:00       42.196        5.659      -24.132       62.751       47.333       34.758     3937.710     2240.390     1208.144        0.489        0.369       42.574       27.155        0.407      332.714        1.557      865.391
12/10/2021  16:48:00       41.056       10.287       11.849       54.198       60.227       34.921     2937.418     3627.315     1219.447        0.486        0.389       42.325       30.476        0.518      332.582        1.339      865.374
12/10/2021  16:49:00       76.933       -3.788      -21.688       49.836       72.751       36.703     2483.676     5292.730     1347.087        0.776        0.456       77.026       27.204        0.125      332.555        1.293      865.364
12/10/2021  16:50:00       92.972      -38.304      -16.092       73.646       55.581       40.489     5423.785     3089.262     1639.324        1.026        0.508      100.553       32.006        0.101      332.525        1.244      865.356
12/10/2021  16:51:00      178.326      -58.998      -13.535       96.852       72.165       60.475     9380.317     5207.736     3657.239        2.685        0.912      187.833       55.792        0.088      332.442        1.104      865.358
12/10/2021  16:52:00      141.607      -55.819      -15.175       92.321       72.519       46.550     8523.128     5259.077     2166.882        1.967        0.797      152.211       44.389        0.085      332.409        1.050      865.366
12/10/2021  16:53:00      144.683      -20.236      -19.202       81.916       72.596       55.540     6710.292     5270.194     3084.702        1.839        0.753      146.092       42.599        0.085      332.438        1.099      865.362
12/10/2021  16:54:00      181.832      -53.645      -17.269       72.233       56.025       39.879     5217.644     3138.847     1590.320        2.309        0.497      189.580       30.489        0.026      332.423        1.073      865.282
12/10/2021  16:55:00       45.025       21.725       10.656       71.764       54.279       48.888     5150.085     2946.202     2390.016        0.655        0.524       49.993       37.185        0.553      332.424        1.077      865.260
12/10/2021  16:56:00       68.797      -27.971       -7.816       71.062       60.702       47.713     5049.808     3684.785     2276.526        0.829        0.551       74.265       36.716        0.244      332.488        1.182      865.240
12/10/2021  16:57:00       89.661      -10.878      -29.309       60.494       64.362       37.022     3659.506     4142.449     1370.595        0.909        0.459       90.319       31.483        0.122      332.548        1.282      865.231
12/10/2021  16:58:00       82.331      -20.191      -16.211       66.895       57.702       40.348     4474.915     3329.511     1627.966        0.844        0.472       84.770       22.850        0.073      332.424        1.076      865.240
12/10/2021  16:59:00       82.714       10.780        1.163       95.360       68.614       43.202     9093.607     4707.926     1866.387        1.131        0.783       83.413       35.972        0.186      332.465        1.143      865.258
12/10/2021  17:00:00       47.278      -20.343      -11.603       54.585       52.904       39.942     2979.492     2798.873     1595.371        0.508        0.369       51.469       24.714        0.231      332.512        1.222      865.286
12/10/2021  17:01:00       34.478      -22.126       -5.354       63.749       53.029       29.798     4063.934     2812.113      887.938        0.473        0.388       40.967       25.300        0.381      332.522        1.239      865.317
12/10/2021  17:02:00       41.695      -11.963        0.619       51.837       53.686       38.763     2687.111     2882.182     1502.587        0.448        0.354       43.377       26.426        0.371      332.468        1.150      865.340
12/10/2021  17:03:00      104.569      -36.351      -30.471       87.450       62.417       41.010     7647.506     3895.913     1681.792        1.320        0.661      110.707       38.294        0.120      332.437        1.097      865.349
12/10/2021  17:04:00       81.169       -8.538       -7.486       84.403       50.635       43.861     7123.945     2563.945     1923.785        0.916        0.581       81.617       41.762        0.262      332.431        1.089      865.358
12/10/2021  17:05:00       68.823      -23.878      -19.134       52.742       53.693       36.292     2781.694     2882.965     1317.109        0.633        0.349       72.847       30.890        0.180      332.498        1.201      865.353
12/10/2021  17:06:00       63.777      -17.532      -19.530       45.490       60.420       28.199     2069.303     3650.577      795.208        0.563        0.326       66.143       19.394        0.086      332.545        1.277      865.361
12/10/2021  17:07:00       87.948       -8.326       -6.141       62.403       35.275       29.442     3894.117     1244.355      866.828        0.692        0.300       88.342       26.420        0.089      332.369        0.986      865.386
12/10/2021  17:08:00       62.886      -37.573      -14.190       68.262       66.035       38.735     4659.671     4360.594     1500.393        0.804        0.526       73.256       40.954        0.313      332.383        1.010      865.422
12/10/2021  17:09:00       90.931      -36.859       -3.679       70.391       60.988       43.642     4954.876     3719.592     1904.611        1.011        0.529       98.118       33.638        0.118      332.361        0.974      865.462
12/10/2021  17:10:00      129.834      -29.076      -22.448       76.540       48.280       45.515     5858.382     2330.934     2071.632        1.423        0.513      133.049       34.787        0.068      332.290        0.854      865.520
12/10/2021  17:11:00       92.985      -14.840       -0.885       74.104       51.139       42.286     5491.374     2615.150     1788.071        0.938        0.495       94.161       39.245        0.174      332.268        0.819      865.563
12/10/2021  17:12:00       83.237      -27.258       -3.698       60.701       41.091       42.748     3684.668     1688.452     1827.361        0.744        0.360       87.587       43.032        0.241      332.235        0.765      865.588
12/10/2021  17:13:00      105.703       -8.471      -15.620       40.816       36.484       26.426     1665.963     1331.082      698.348        0.759        0.185      106.042       11.921        0.013      332.205        0.714      865.608
12/10/2021  17:14:00      123.808      -20.901      -13.911       65.762       46.298       38.956     4324.690     2143.499     1517.601        1.197        0.399      125.560       27.956        0.050      332.244        0.779      865.617
12/10/2021  17:15:00       76.444       -7.150       -8.960       63.034       49.821       45.114     3973.232     2482.158     2035.252        0.723        0.425       76.778       35.295        0.211      332.369        0.987      865.621
12/10/2021  17:16:00      123.692      -45.168      -19.309       51.508       44.287       36.083     2653.036     1961.294     1301.957        1.181        0.296      131.680       28.746        0.048      332.324        0.912      865.627
12/10/2021  17:17:00       69.626      -16.104      -13.521       46.652       30.768       26.979     2176.451      946.660      727.892        0.457        0.193       71.464       22.127        0.096      332.229        0.755      865.629
12/10/2021  17:18:00       50.309       -2.992       -1.475       42.484       47.097       30.430     1804.896     2218.154      925.983        0.374        0.247       50.398       24.800        0.242      332.218        0.738      865.626
12/10/2021  17:19:00       42.387       -1.340       -4.623       58.012       32.735       25.219     3365.438     1071.610      636.017        0.345        0.254       42.408       22.530        0.282      332.195        0.698      865.622
12/10/2021  17:20:00       29.457       -3.616        4.501       41.166       34.359       29.249     1694.617     1180.525      855.483        0.232        0.187       29.679       19.583        0.435      332.262        0.809      865.616
12/10/2021  17:21:00       60.564      -11.135       -7.675       54.963       33.284       24.907     3020.970     1107.816      620.345        0.430        0.237       61.579       26.923        0.191      332.229        0.755      865.604
12/10/2021  17:22:00       50.419        2.470       -3.957       39.885       37.967       29.948     1590.794     1441.484      896.883        0.325        0.196       50.479       19.791        0.154      332.211        0.725      865.592
12/10/2021  17:23:00       49.666      -23.042       -6.520       50.971       40.368       32.989     2598.088     1629.548     1088.273        0.418        0.266       54.751       25.679        0.220      332.273        0.829      865.589
12/10/2021  17:24:00       42.506      -17.452      -15.187       37.398       39.842       26.974     1398.605     1587.400      727.590        0.303        0.186       45.949       18.669        0.165      332.304        0.879      865.593
12/10/2021  17:25:00       30.270      -27.490      -27.223       38.645       48.860       26.328     1493.398     2387.257      693.179        0.349        0.229       40.889       16.109        0.155      332.426        1.080      865.594
12/10/2021  17:26:00       48.851       -8.431      -14.198       38.262       29.618       22.167     1464.003      877.254      491.366        0.275        0.142       49.573       14.271        0.083      332.298        0.868      865.586
12/10/2021  17:27:00       20.668       -7.995        1.037       46.356       26.191       28.329     2148.898      685.944      802.504        0.206        0.182       22.160       25.756        1.351      332.248        0.787      865.584
12/10/2021  17:28:00       58.078      -20.035       -2.752       57.522       31.747       32.875     3308.794     1007.870     1080.786        0.459        0.270       61.437       30.477        0.246      332.171        0.658      865.591
12/10/2021  17:29:00       14.439       -8.957        7.726       45.113       34.450       30.295     2035.164     1186.776      917.773        0.224        0.207       16.991       23.133        1.854      332.155        0.633      865.587
12/10/2021  17:30:00       50.772       -5.053        0.417       66.137       41.551       36.104     4374.089     1726.499     1303.493        0.500        0.370       51.023       40.806        0.640      332.184        0.680      865.580
12/10/2021  17:31:00       87.831      -23.725       -5.846       59.835       41.604       36.253     3580.272     1730.864     1314.281        0.747        0.331       90.979       23.603        0.067      332.096        0.535      865.578
12/10/2021  17:32:00       77.167      -12.759      -20.997       58.405       46.388       30.484     3411.145     2151.875      929.275        0.652        0.325       78.215       25.296        0.105      332.135        0.599      865.576
12/10/2021  17:33:00       51.194       -7.560       -0.124       47.831       47.638       35.992     2287.831     2269.411     1295.413        0.426        0.293       51.749       31.439        0.369      332.113        0.563      865.567
12/10/2021  17:34:00       54.512        7.410      -10.200       45.261       47.221       32.798     2048.517     2229.850     1075.696        0.424        0.268       55.013       20.223        0.135      332.241        0.774      865.567
12/10/2021  17:35:00       51.691      -16.497       -1.204       50.138       48.603       36.903     2513.840     2362.230     1361.813        0.459        0.312       54.259       32.128        0.351      332.247        0.786      865.574
12/10/2021  17:36:00      106.647      -31.497       -5.728       30.469       34.880       19.297      928.390     1216.596      372.361        0.746        0.126      111.201       11.482        0.011      332.152        0.629      865.584
12/10/2021  17:37:00      116.355      -41.953      -15.402       49.466       47.728       25.976     2446.851     2277.952      674.747        1.047        0.270      123.687       22.278        0.032      332.126        0.586      865.589
12/10/2021  17:38:00      107.369      -23.582      -16.583       51.202       39.879       29.675     2621.685     1590.326      880.602        0.872        0.255      109.928       28.780        0.069      332.125        0.584      865.603
12/10/2021  17:39:00      100.507      -13.641       -7.956       37.511       39.727       22.491     1407.049     1578.252      505.836        0.692        0.175      101.429       18.076        0.032      332.043        0.449      865.620
12/10/2021  17:40:00      117.160      -18.676      -12.111       39.908       26.020       20.439     1592.612      677.064      417.740        0.845        0.134      118.639        9.809        0.007      332.138        0.605      865.635
12/10/2021  17:41:00      132.262      -16.232      -10.227       30.206       36.443       16.720      912.399     1328.099      279.568        1.019        0.126      133.255       12.736        0.009      332.143        0.613      865.649
12/10/2021  17:42:00      105.564       -2.621       -3.465       38.973       23.729       20.640     1518.892      563.073      426.007        0.683        0.125      105.597       14.380        0.019      332.021        0.413      865.662
12/10/2021  17:43:00       25.831       20.025      -14.505       33.486       36.431       26.190     1121.302     1327.182      685.923        0.221        0.157       32.685       20.737        0.403      332.039        0.442      865.670
12/10/2021  17:44:00       63.718       31.979       -7.130       39.429       40.203       34.256     1554.642     1616.281     1173.476        0.474        0.217       71.292       17.891        0.063      332.031        0.429      865.688
12/10/2021  17:45:00       41.383       10.631        2.858       34.278       34.526       21.450     1174.975     1192.051      460.116        0.233        0.141       42.727       10.287        0.058      332.031        0.429      865.708
12/10/2021  17:46:00       76.537      -19.941      -13.601       44.927       36.799       19.631     2018.456     1354.147      385.395        0.510        0.188       79.092       14.836        0.035      332.037        0.439      865.721
12/10/2021  17:47:00       84.186        9.388       -5.692       52.294       39.148       20.770     2734.636     1532.536      431.390        0.595        0.235       84.708       18.162        0.046      332.014        0.402      865.744
12/10/2021  17:48:00       66.022        2.918       -7.944       46.387       26.489       22.997     2151.787      701.678      528.883        0.391        0.169       66.087       24.536        0.138      331.975        0.336      865.754
12/10/2021  17:49:00       34.679        0.461        1.605       38.255       25.831       25.713     1463.468      667.236      661.177        0.200        0.140       34.682       18.495        0.284      331.930        0.264      865.757
12/10/2021  17:50:00       91.792        9.212      -14.672       32.000       25.955       18.494     1023.974      673.681      342.021        0.538        0.102       92.253       14.450        0.025      331.916        0.241      865.757
12/10/2021  17:51:00      101.396       16.305      -18.119       26.426       22.899       14.783      698.326      524.344      218.550        0.616        0.072      102.699       10.817        0.011      331.911        0.233      865.754
12/10/2021  17:52:00      114.533       23.290      -15.618       21.700       17.129       13.742      470.889      293.409      188.852        0.743        0.048      116.877        5.433        0.002      331.888        0.194      865.752
12/10/2021  17:53:00      117.694       51.038      -21.575       24.395       30.449       18.828      595.133      927.134      354.508        0.940        0.094      128.284        9.927        0.006      331.941        0.282      865.755
12/10/2021  17:54:00      112.538       58.826      -17.090       19.125       20.499       13.371      365.760      420.195      178.783        0.869        0.048      126.985        7.025        0.003      331.813        0.071      865.759
12/10/2021  17:55:00       98.436       15.989      -17.828       31.899       39.113       18.931     1017.570     1529.840      358.389        0.658        0.145       99.726        9.114        0.008      331.818        0.079      865.762
12/10/2021  17:56:00       70.871       14.038      -10.558       36.306       30.785       21.684     1318.100      947.692      470.201        0.403        0.137       72.248       20.105        0.077      331.751       -0.030      865.759
12/10/2021  17:57:00       95.757       21.143      -12.938       24.578       21.697       14.978      604.095      470.753      224.351        0.554        0.065       98.063       11.635        0.014      331.730       -0.068      865.768
12/10/2021  17:58:00       87.936        8.316       -5.304       30.964       23.841       17.350      958.761      568.414      301.018        0.483        0.091       88.328       14.352        0.026      331.719       -0.083      865.776
12/10/2021  17:59:00       65.212        4.921      -11.607       37.152       27.635       22.209     1380.252      763.671      493.224        0.352        0.132       65.398       16.384        0.063      331.729       -0.068      865.787
12/10/2021  18:00:00      130.067       14.363      -11.899       44.172       23.385       20.593     1951.122      546.857      424.080        1.009        0.146      130.858       11.434        0.008      331.726       -0.071      865.798
12/10/2021  18:01:00      138.390       31.765      -13.436       37.868       30.170       25.751     1433.990      910.230      663.118        1.167        0.150      141.989       15.562        0.012      331.734       -0.059      865.803
12/10/2021  18:02:00       99.659       28.772      -12.906       29.342       33.206       14.472      860.946     1102.637      209.432        0.655        0.109      103.729       13.942        0.018      331.691       -0.130      865.807
12/10/2021  18:03:00      150.662       58.913      -19.102       23.752       24.700       20.315      564.159      610.070      412.680        1.406        0.079      161.770        9.999        0.004      331.740       -0.050      865.808
12/10/2021  18:04:00      122.707       31.555      -25.552       42.849       29.705       28.316     1836.069      882.372      801.811        1.011        0.176      126.699       16.967        0.018      331.798        0.047      865.807
12/10/2021  18:05:00       75.115       11.172      -22.725       44.531       50.672       33.519     1983.031     2567.604     1123.502        0.598        0.284       75.941       23.487        0.096      331.831        0.101      865.808
12/10/2021  18:06:00      128.648       24.805      -14.253       30.423       24.929       17.778      925.534      621.460      316.067        0.962        0.093      131.018       14.808        0.013      331.724       -0.076      865.811
12/10/2021  18:07:00      112.191       17.082      -15.677       44.433       41.425       19.551     1974.250     1716.057      382.250        0.860        0.204      113.484       18.154        0.026      331.718       -0.086      865.807
12/10/2021  18:08:00      162.826       15.255      -10.768       42.271       46.834       28.336     1786.857     2193.417      802.919        1.582        0.239      163.539       20.738        0.016      331.729       -0.068      865.810
12/10/2021  18:09:00      162.643       25.123      -14.539       42.771       48.456       27.456     1829.367     2347.998      753.833        1.611        0.247      164.572       21.554        0.017      331.749       -0.036      865.813
12/10/2021  18:10:00       96.416        3.791       -6.600       55.512       33.890       30.306     3081.570     1148.514      918.453        0.725        0.257       96.491       25.091        0.068      331.695       -0.122      865.815
12/10/2021  18:11:00       96.355       -3.313       -8.692       29.854       26.466       20.058      891.233      700.470      402.321        0.568        0.100       96.412       11.345        0.014      331.683       -0.145      865.811
12/10/2021  18:12:00      106.524      -14.902       -1.404       49.998       25.887       20.654     2499.785      670.134      426.588        0.758        0.180      107.562       23.290        0.047      331.668       -0.168      865.795
12/10/2021  18:13:00      100.807       20.097      -13.202       22.220       22.986       18.001      493.726      528.343      324.054        0.604        0.067      102.791       12.434        0.015      331.589       -0.297      865.772
12/10/2021  18:14:00       84.517       31.323      -10.455       34.894       34.870       22.639     1217.577     1215.934      512.535        0.559        0.147       90.135       18.057        0.040      331.666       -0.172      865.751
12/10/2021  18:15:00       81.778       48.725      -19.148       24.849       18.014       16.732      617.488      324.506      279.970        0.532        0.061       95.193        9.011        0.009      331.619       -0.250      865.730
12/10/2021  18:16:00      110.102       30.070      -18.968       23.476       17.158       14.534      551.131      294.406      211.250        0.722        0.053      114.135        9.581        0.007      331.700       -0.117      865.710
12/10/2021  18:17:00       89.462       29.721       -9.416       26.839       20.234       18.244      720.339      409.430      332.854        0.522        0.073       94.270       12.842        0.019      331.622       -0.245      865.708
12/10/2021  18:18:00      122.691       37.131       -8.262       26.040       16.528       17.113      678.086      273.171      292.846        0.887        0.062      128.187       11.401        0.008      331.625       -0.238      865.715
12/10/2021  18:19:00       89.152       18.629       -5.578       27.950       27.877       14.222      781.199      777.111      202.256        0.504        0.088       91.078        9.056        0.010      331.644       -0.207      865.734
12/10/2021  18:20:00      118.072       26.262      -14.083       18.960       23.204       13.875      359.499      538.414      192.520        0.796        0.055      120.957        6.647        0.003      331.619       -0.249      865.741
12/10/2021  18:21:00       87.273       16.591       -8.318       25.101       21.545       18.239      630.053      464.168      332.660        0.469        0.071       88.836       13.222        0.022      331.557       -0.352      865.743
12/10/2021  18:22:00      106.539       23.278       -6.012       29.273       20.176       15.073      856.900      407.057      227.191        0.671        0.075      109.053       10.995        0.010      331.573       -0.325      865.735
12/10/2021  18:23:00       99.295       43.519      -14.063       28.554       23.332       15.453      815.345      544.405      238.782        0.677        0.080      108.413       10.477        0.009      331.557       -0.352      865.728
12/10/2021  18:24:00       92.986       52.801      -20.795       26.044       16.599       14.561      678.296      275.510      212.019        0.652        0.058      106.932       15.341        0.021      331.591       -0.294      865.711
12/10/2021  18:25:00       86.362       51.658      -22.854       14.340       17.190       10.987      205.632      295.502      120.720        0.564        0.031      100.633        7.636        0.006      331.597       -0.285      865.695
12/10/2021  18:26:00       81.755       43.490      -23.678       21.714       21.635       14.936      471.480      468.076      223.098        0.515        0.058       92.602        7.626        0.007      331.608       -0.267      865.687
12/10/2021  18:27:00       81.621       27.251      -10.664       26.001       25.957       12.730      676.075      673.766      162.056        0.451        0.076       86.050       11.169        0.017      331.594       -0.291      865.689
12/10/2021  18:28:00       99.340       32.389       -9.922       20.481       18.265       13.178      419.452      333.620      173.655        0.597        0.046      104.487        9.090        0.008      331.574       -0.322      865.691
12/10/2021  18:29:00       84.683       20.505      -14.037       37.961       27.466       20.744     1441.025      754.393      430.319        0.521        0.131       87.130       21.044        0.058      331.589       -0.298      865.688
12/10/2021  18:30:00       78.280       13.345       -7.750       39.290       29.070       16.199     1543.697      845.086      262.394        0.451        0.133       79.409       17.375        0.048      331.586       -0.304      865.689
12/10/2021  18:31:00       92.806       36.883      -16.422       22.115       24.989       18.352      489.054      624.428      336.805        0.585        0.073       99.867       11.693        0.014      331.511       -0.428      865.692
12/10/2021  18:32:00       83.113       19.262       -9.866       20.684       18.320       15.097      427.811      335.618      227.920        0.418        0.050       85.316        6.797        0.006      331.468       -0.497      865.694
12/10/2021  18:33:00      107.633       26.640      -10.763       23.325       21.107       11.640      544.038      445.506      135.485        0.677        0.056      110.881        7.129        0.004      331.527       -0.400      865.701
12/10/2021  18:34:00       77.798       18.857      -12.508       15.087       23.698       14.173      227.627      561.574      200.888        0.378        0.050       80.051        6.953        0.008      331.518       -0.417      865.699
12/10/2021  18:35:00       88.323       47.786      -17.435       11.248       11.995        8.813      126.518      143.877       77.672        0.537        0.017      100.421        6.034        0.004      331.521       -0.413      865.694
12/10/2021  18:36:00       85.997       41.278      -22.084       22.344       15.305       12.542      499.234      234.228      157.303        0.524        0.045       95.391       10.474        0.012      331.507       -0.434      865.685
12/10/2021  18:37:00       88.205       23.323       -5.809       24.210       21.647       16.272      586.139      468.583      264.770        0.484        0.066       91.236       15.351        0.028      331.477       -0.483      865.676
12/10/2021  18:38:00       89.546       12.910       -6.923       29.957       26.331       13.752      897.396      693.314      189.110        0.501        0.089       90.472       12.067        0.018      331.519       -0.414      865.674
12/10/2021  18:39:00       82.395       18.269      -10.899       18.125       15.542       12.855      328.520      241.558      165.254        0.399        0.037       84.396       12.385        0.022      331.446       -0.535      865.676
12/10/2021  18:40:00       71.564       21.550      -13.192       13.144       15.987        9.611      172.759      255.596       92.377        0.314        0.026       74.739        4.935        0.004      331.440       -0.543      865.686
12/10/2021  18:41:00       80.233       14.752       -7.903       17.953       15.413        9.023      322.307      237.560       81.416        0.368        0.032       81.578        7.581        0.009      331.430       -0.560      865.703
12/10/2021  18:42:00       50.629       11.282       -5.218       17.638       20.301       13.273      311.105      412.124      176.174        0.181        0.045       51.871        3.642        0.005      331.461       -0.510      865.711
12/10/2021  18:43:00       67.910       24.971       -6.294       29.084       20.749       16.279      845.857      430.512      265.021        0.341        0.077       72.356       15.180        0.044      331.478       -0.483      865.714
12/10/2021  18:44:00       82.835       31.405       -7.090       13.452       19.161       11.407      180.943      367.138      130.130        0.429        0.034       88.589        6.196        0.005      331.500       -0.446      865.714
12/10/2021  18:45:00       89.123       57.657      -15.878       17.655       17.898       12.358      311.682      320.337      152.722        0.615        0.039      106.147        6.478        0.004      331.489       -0.464      865.719
12/10/2021  18:46:00       90.470       49.229      -20.571       18.307       13.068       12.204      335.145      170.768      148.946        0.584        0.033      102.996        7.470        0.005      331.526       -0.403      865.728
12/10/2021  18:47:00       78.195       24.186      -10.955       20.592       21.646       14.903      424.036      468.560      222.088        0.397        0.056       81.850        9.507        0.013      331.493       -0.458      865.724
12/10/2021  18:48:00       84.053       12.189       -6.990       15.552       17.862        8.804      241.869      319.058       77.502        0.395        0.032       84.932        6.611        0.006      331.488       -0.464      865.727
12/10/2021  18:49:00       77.634       19.896       -6.013       20.645       19.675       14.834      426.234      387.109      220.037        0.375        0.052       80.143       10.674        0.018      331.461       -0.510      865.721
12/10/2021  18:50:00       83.401       35.357      -10.061       11.388       16.124        8.118      129.693      259.992       65.907        0.438        0.023       90.586        5.418        0.004      331.457       -0.516      865.719
12/10/2021  18:51:00       78.756       16.946       -6.815       26.365       23.216       13.551      695.093      538.972      183.622        0.398        0.071       80.559        9.820        0.015      331.479       -0.480      865.722
12/10/2021  18:52:00       85.380       19.500       -8.786       17.146       15.521        9.841      293.979      240.887       96.853        0.419        0.032       87.578        7.793        0.008      331.473       -0.488      865.728
12/10/2021  18:53:00       96.298       30.331      -14.833       16.750       13.864       11.079      280.578      192.213      122.736        0.550        0.030      100.961        7.485        0.005      331.471       -0.493      865.732
12/10/2021  18:54:00       83.331       36.871      -18.280       20.912       21.901       16.468      437.314      479.655      271.193        0.491        0.059       91.124        9.815        0.012      331.525       -0.403      865.730
12/10/2021  18:55:00       89.068       39.759      -20.729       17.625       16.229       13.100      310.652      263.396      171.616        0.534        0.037       97.539        8.439        0.007      331.498       -0.448      865.738
12/10/2021  18:56:00       85.179       39.973      -21.969       17.118       22.966       10.821      293.021      527.421      117.101        0.514        0.047       94.092        9.697        0.011      331.504       -0.439      865.738
12/10/2021  18:57:00       49.526       11.939       -8.936       24.284       19.322        9.077      589.693      373.321       82.386        0.186        0.052       50.945        5.842        0.013      331.487       -0.468      865.732
12/10/2021  18:58:00       74.932       32.916       -6.412       14.404        9.468        8.076      207.477       89.651       65.216        0.355        0.018       81.843        2.998        0.001      331.431       -0.561      865.726
12/10/2021  18:59:00       74.348       31.915       -8.548       11.323       13.624        8.663      128.201      185.601       75.056        0.350        0.019       80.909        3.241        0.002      331.439       -0.547      865.720
12/10/2021  19:00:00       76.080       31.762       -5.308       16.138       17.196       11.572      260.433      295.712      133.902        0.376        0.035       82.444        5.349        0.004      331.376       -0.648      865.718
12/10/2021  19:01:00       85.219       26.792       -5.327       14.876        9.878       10.411      221.284       97.582      108.382        0.422        0.021       89.331        4.678        0.003      331.391       -0.624      865.709
12/10/2021  19:02:00       69.470       24.080       -7.212       14.161       11.780       11.308      200.530      138.759      127.871        0.296        0.023       73.526        4.182        0.003      331.395       -0.616      865.702
12/10/2021  19:03:00       70.317       18.763       -5.953       16.718       11.797        9.525      279.478      139.176       90.733        0.292        0.025       72.777        7.152        0.010      331.390       -0.626      865.695
12/10/2021  19:04:00       61.462       47.872      -15.906       13.741       11.663       12.548      188.820      136.025      157.456        0.340        0.024       77.906        6.257        0.006      331.420       -0.577      865.679
12/10/2021  19:05:00       66.672       47.601      -17.832       17.498       10.866       16.509      306.192      118.072      272.551        0.386        0.035       81.921        8.389        0.010      331.448       -0.532      865.684
12/10/2021  19:06:00       72.836       19.246      -17.014       12.027       15.217        7.926      144.640      231.557       62.822        0.320        0.022       75.335        6.888        0.008      331.419       -0.579      865.676
12/10/2021  19:07:00       50.937       21.411      -12.440       14.409       14.219        8.479      207.607      202.184       71.887        0.184        0.024       55.254        7.319        0.018      331.366       -0.665      865.677
12/10/2021  19:08:00       36.118       22.291       -5.933       16.954       17.137       10.686      287.435      293.660      114.198        0.127        0.035       42.443       10.885        0.066      331.364       -0.669      865.678
12/10/2021  19:09:00       15.631        4.262       -3.854       12.999       10.166        7.567      168.982      103.356       57.258        0.030        0.016       16.202        4.611        0.081      331.292       -0.786      865.681
12/10/2021  19:10:00       30.851       33.067       -7.758       15.062       21.687       12.900      226.857      470.315      166.408        0.148        0.043       45.224        4.543        0.010      331.380       -0.643      865.689
12/10/2021  19:11:00       30.618       34.939       -9.125       14.806       10.556       12.892      219.213      111.436      166.203        0.137        0.025       46.457       10.145        0.048      331.408       -0.596      865.691
12/10/2021  19:12:00       37.727       23.087      -11.063       19.906       16.606       12.141      396.235      275.756      147.402        0.145        0.041       44.231       10.957        0.061      331.402       -0.608      865.682
12/10/2021  19:13:00       33.278        0.821      -10.540       12.194       15.253        7.823      148.683      232.656       61.197        0.083        0.022       33.288        4.784        0.021      331.457       -0.515      865.677
12/10/2021  19:14:00       42.810       42.526       -8.790       14.720       11.277        6.339      216.690      127.180       40.179        0.205        0.019       60.342        4.629        0.006      331.370       -0.659      865.672
12/10/2021  19:15:00       66.387       44.431      -14.650       22.553       10.462       10.495      508.652      109.452      110.143        0.366        0.036       79.883        8.788        0.012      331.361       -0.674      865.669
12/10/2021  19:16:00       62.405       25.272       -7.402       23.396       16.774       12.914      547.378      281.360      166.780        0.279        0.050       67.328       14.586        0.047      331.328       -0.727      865.674
12/10/2021  19:17:00       45.481       27.821       -8.513       18.213       14.639       12.240      331.705      214.307      149.821        0.181        0.035       53.316        9.018        0.029      331.282       -0.802      865.675
12/10/2021  19:18:00       41.456       25.269       -4.472       24.078       16.029       12.498      579.774      256.945      156.211        0.168        0.050       48.551        5.950        0.015      331.295       -0.782      865.668
12/10/2021  19:19:00       52.182       27.598      -12.493       12.406       15.247       10.254      153.918      232.467      105.142        0.207        0.025       59.030        9.034        0.023      331.396       -0.615      865.674
12/10/2021  19:20:00       47.831       21.548       -8.996        9.376       10.669        8.357       87.909      113.836       69.841        0.155        0.014       52.461        5.684        0.012      331.374       -0.653      865.668
12/10/2021  19:21:00       74.997       25.289      -11.462       18.221       16.407       10.031      332.001      269.197      100.620        0.355        0.035       79.146        8.227        0.011      331.344       -0.703      865.662
12/10/2021  19:22:00       62.477       23.911       -8.891       13.908       12.260       10.125      193.442      150.301      102.514        0.250        0.022       66.896        5.360        0.006      331.310       -0.756      865.653
12/10/2021  19:23:00       93.640       45.332      -14.417       17.456       15.238       12.721      304.697      232.207      161.817        0.586        0.035      104.036       11.689        0.013      331.308       -0.763      865.644
12/10/2021  19:24:00       91.196       49.634      -18.387       13.756       10.987       10.248      189.219      120.718      105.024        0.577        0.021      103.828        4.999        0.002      331.325       -0.732      865.635
12/10/2021  19:25:00       83.534       49.341      -12.187       17.899       14.035       14.943      320.357      196.983      223.304        0.515        0.037       97.018       10.133        0.011      331.279       -0.807      865.627
12/10/2021  19:26:00       74.879       32.188       -7.409       29.612       22.352       13.313      876.871      499.622      177.245        0.413        0.078       81.504       11.277        0.019      331.231       -0.886      865.630
12/10/2021  19:27:00       58.769       22.179      -10.137       27.155       19.054       11.831      737.377      363.043      139.964        0.264        0.062       62.815        7.000        0.012      331.235       -0.880      865.626
12/10/2021  19:28:00       69.419       28.052       -8.232       24.095       21.149       17.119      580.551      447.295      293.077        0.350        0.066       74.873       11.024        0.022      331.175       -0.978      865.620
12/10/2021  19:29:00       63.736       12.554       -8.213       18.569       24.591       16.893      344.814      604.698      285.388        0.276        0.062       64.961       13.267        0.042      331.214       -0.915      865.613
12/10/2021  19:30:00       99.474       23.655      -10.606       15.808       17.719       10.658      249.893      313.977      113.589        0.562        0.034      102.248        6.431        0.004      331.231       -0.886      865.605
12/10/2021  19:31:00       68.535       22.337       -7.440       22.408       12.767       12.040      502.103      162.988      144.962        0.303        0.041       72.084        8.692        0.015      331.186       -0.960      865.615
12/10/2021  19:32:00       24.779       20.356       -0.281       20.615       14.495       12.044      424.986      210.112      145.048        0.090        0.039       32.069        6.652        0.043      331.142       -1.032      865.631
12/10/2021  19:33:00       29.000       28.309       -6.117       15.016       16.959       13.696      225.474      287.596      187.584        0.119        0.035       40.527       10.559        0.068      331.196       -0.943      865.658
12/10/2021  19:34:00       45.659       59.672      -14.413       15.555       18.829       11.612      241.948      354.518      134.828        0.329        0.037       75.137        3.992        0.003      331.219       -0.905      865.685
12/10/2021  19:35:00       36.627       38.767       -9.643       18.657       23.614       13.614      348.088      557.609      185.333        0.201        0.055       53.333       10.492        0.039      331.139       -1.036      865.697
12/10/2021  19:36:00       43.648       29.272       -5.866       18.236       18.616       16.508      332.553      346.546      272.508        0.187        0.048       52.555       10.963        0.044      331.105       -1.095      865.692
12/10/2021  19:37:00       39.553       26.068       -7.415       22.840       16.305       12.509      521.649      265.857      156.479        0.162        0.047       47.371        9.068        0.037      331.076       -1.142      865.695
12/10/2021  19:38:00       27.392        6.796       -3.144       22.689       11.966       10.705      514.771      143.190      114.600        0.079        0.039       28.222        6.363        0.051      331.061       -1.166      865.695
12/10/2021  19:39:00       46.927       21.952       -5.195       15.601       14.889        9.903      243.400      221.675       98.077        0.164        0.028       51.808        6.855        0.018      331.126       -1.060      865.708
12/10/2021  19:40:00       34.724       15.337       -0.997       23.044       14.682       14.505      531.015      215.553      210.396        0.120        0.048       37.960       11.929        0.099      331.065       -1.160      865.724
12/10/2021  19:41:00       30.354       10.796       -4.594       19.298       13.124       11.442      372.402      172.228      130.917        0.087        0.034       32.217       11.696        0.132      331.034       -1.209      865.727
12/10/2021  19:42:00       47.836       17.620      -10.790       17.798       17.046       12.401      316.786      290.581      153.797        0.174        0.038       50.978       10.093        0.039      331.129       -1.054      865.721
12/10/2021  19:43:00       59.008       50.204      -15.922       10.777       12.032       11.568      116.151      144.758      133.826        0.333        0.020       77.475        7.109        0.008      331.136       -1.042      865.705
12/10/2021  19:44:00       51.840       34.220      -15.026       31.666       17.345       22.509     1002.748      300.848      506.672        0.295        0.091       62.117       23.706        0.146      331.101       -1.100      865.678
12/10/2021  19:45:00       59.437       32.434      -11.813       17.342       16.033       16.480      300.734      257.052      271.600        0.278        0.041       67.711        9.833        0.021      331.066       -1.158      865.645
12/10/2021  19:46:00       58.908       31.794      -14.274       15.244       16.540       10.163      232.394      273.567      103.286        0.265        0.030       66.940        4.923        0.005      331.060       -1.170      865.626
12/10/2021  19:47:00       71.434       27.335      -10.516       16.327       21.529        9.909      266.564      463.498       98.190        0.339        0.041       76.486        5.055        0.004      331.030       -1.219      865.613
12/10/2021  19:48:00       75.499       28.729      -15.609       26.807       20.615       12.195      718.622      424.997      148.717        0.403        0.065       80.781        7.724        0.009      331.002       -1.264      865.617
12/10/2021  19:49:00       59.830        8.979      -12.095       26.475       25.703       18.825      700.938      660.651      354.398        0.276        0.086       60.500        9.387        0.024      331.028       -1.223      865.609
12/10/2021  19:50:00       44.625        4.675       -2.573       39.913       27.917       18.560     1593.035      779.385      344.466        0.237        0.136       44.869       13.220        0.087      330.947       -1.354      865.608
12/10/2021  19:51:00       95.988       25.563      -11.515       32.169       27.402       18.570     1034.865      750.848      344.855        0.606        0.107       99.333       15.866        0.026      330.951       -1.349      865.600
12/10/2021  19:52:00       84.489       11.146       -2.040       47.694       21.522       20.289     2274.732      463.191      411.661        0.521        0.157       85.221       25.025        0.086      330.967       -1.322      865.592
12/10/2021  19:53:00      127.114       46.422      -26.870       32.213       28.429       17.119     1037.667      808.212      293.059        1.059        0.107      135.325       10.372        0.006      331.066       -1.159      865.590
12/10/2021  19:54:00      103.444       46.038      -18.676       38.498       33.198       24.876     1482.060     1102.108      618.792        0.819        0.160      113.227       13.036        0.013      331.088       -1.123      865.576
12/10/2021  19:55:00       61.790       -1.505      -13.362       38.866       42.948       26.600     1510.598     1844.561      707.566        0.403        0.203       61.809       16.905        0.075      330.998       -1.270      865.567
12/10/2021  19:56:00       66.610        9.460      -14.411       41.138       21.930       18.561     1692.360      480.912      344.493        0.363        0.126       67.279        7.244        0.012      330.989       -1.286      865.567
12/10/2021  19:57:00       49.672      -17.959       -3.852       40.285       25.972       22.809     1622.902      674.569      520.232        0.281        0.141       52.819       22.717        0.185      330.878       -1.468      865.575
12/10/2021  19:58:00       86.326       32.842       -9.374       38.990       26.755       14.528     1520.221      715.847      211.068        0.553        0.122       92.362       15.004        0.026      330.835       -1.539      865.611
12/10/2021  19:59:00      119.297       61.329       -8.712       17.426       15.168       13.197      303.671      230.062      174.151        0.939        0.035      134.138        8.955        0.004      331.056       -1.174      865.646
12/10/2021  20:00:00       97.150       56.637       -7.604       33.311       18.227       13.855     1109.630      332.205      191.956        0.717        0.082      112.454        9.825        0.008      331.041       -1.200      865.690
12/10/2021  20:01:00       82.560       55.300       -9.604       23.807       18.918       16.858      566.765      357.898      284.197        0.559        0.060       99.369       11.991        0.015      331.035       -1.211      865.734
12/10/2021  20:02:00       61.828       55.607      -14.907       43.606       27.135       18.623     1901.462      736.323      346.798        0.506        0.149       83.156       17.409        0.044      331.022       -1.232      865.774
12/10/2021  20:03:00       86.461       65.140      -13.192       29.268       21.722       14.462      856.596      471.840      209.143        0.671        0.077      108.253       12.498        0.013      331.006       -1.259      865.794
12/10/2021  20:04:00       95.765       47.565      -18.898       20.179       20.714       11.049      407.196      429.058      122.079        0.637        0.048      106.927        8.501        0.006      331.036       -1.207      865.793
12/10/2021  20:05:00       95.895       55.601      -17.227       20.968       20.989       16.020      439.672      440.535      256.636        0.686        0.057      110.848       10.466        0.009      331.017       -1.239      865.780
12/10/2021  20:06:00       42.292       33.481       -8.963       24.209       14.756       11.813      586.058      217.749      139.546        0.197        0.047       53.941        8.242        0.023      330.953       -1.346      865.773
12/10/2021  20:07:00       30.175       32.089       -4.132       18.434       19.966       14.776      339.822      398.651      218.328        0.146        0.048       44.048       11.225        0.065      330.936       -1.373      865.774
12/10/2021  20:08:00       42.607       35.603       -5.156       18.610       20.715       14.854      346.320      429.095      220.630        0.205        0.050       55.524       12.232        0.049      330.974       -1.309      865.791
12/10/2021  20:09:00       40.693       76.528       -2.524       25.012       27.443       14.838      625.609      753.116      220.173        0.456        0.080       86.674       15.156        0.031      331.112       -1.083      865.822
12/10/2021  20:10:00       64.007       81.750      -11.403       25.522       19.799       15.398      651.371      392.018      237.089        0.610        0.064      103.827       10.170        0.010      331.107       -1.091      865.868
12/10/2021  20:11:00       48.298       68.201       -5.764       26.172       17.956       13.325      684.995      322.419      177.565        0.410        0.059       83.571       11.476        0.019      331.107       -1.092      865.921
12/10/2021  20:12:00       49.830       80.789      -12.173       25.441       21.446       13.485      647.249      459.929      181.844        0.522        0.064       94.920       11.333        0.014      331.108       -1.089      865.962
12/10/2021  20:13:00       39.670       55.028       -6.119       34.812       27.137       19.383     1211.899      736.434      375.716        0.348        0.116       67.837       16.368        0.058      330.979       -1.304      865.984
12/10/2021  20:14:00       79.414       58.508      -10.544       27.953       28.671       21.345      781.350      822.014      455.628        0.595        0.103       98.639       21.369        0.047      330.995       -1.275      865.985
12/10/2021  20:15:00       31.586       38.774       -6.565       22.406       26.405       17.881      502.009      697.218      319.739        0.203        0.076       50.011        8.172        0.027      330.966       -1.323      865.981
12/10/2021  20:16:00       44.058       32.553        0.095       35.392       21.707       18.896     1252.575      471.185      357.040        0.254        0.104       54.780       16.838        0.094      330.939       -1.368      865.972
12/10/2021  20:17:00       49.558       43.560       -4.760       27.909       32.133       18.832      778.907     1032.500      354.644        0.327        0.108       65.981       20.241        0.094      330.990       -1.284      865.963
12/10/2021  20:18:00       56.029       46.013       -7.719       18.673       24.062       15.891      348.676      578.969      252.528        0.325        0.059       72.501        7.967        0.012      330.974       -1.310      865.962
12/10/2021  20:19:00       74.023       35.579       -9.087       19.286       15.619       11.910      371.935      243.948      141.853        0.379        0.038       82.130        7.523        0.008      330.959       -1.335      865.969
12/10/2021  20:20:00       41.014       32.116       -4.313       27.342       17.208       12.050      747.609      296.099      145.209        0.196        0.059       52.092        7.279        0.020      330.930       -1.381      865.969
12/10/2021  20:21:00       36.164       44.027       -4.769       23.359       22.336       13.109      545.639      498.885      171.842        0.224        0.061       56.975       10.283        0.033      330.927       -1.387      865.974
12/10/2021  20:22:00       55.341       42.752      -10.395       25.134       16.957       13.009      631.706      287.541      169.239        0.304        0.054       69.931       13.025        0.035      330.909       -1.416      865.994
12/10/2021  20:23:00       65.207       50.217       -9.588       35.808       19.845       14.832     1282.202      393.830      219.978        0.438        0.095       82.303       15.559        0.036      330.868       -1.485      866.004
12/10/2021  20:24:00       91.996       56.940      -15.069       32.455       18.731       20.508     1053.356      350.841      420.594        0.688        0.091      108.192        9.862        0.008      330.881       -1.462      866.006
12/10/2021  20:25:00       87.924       53.278      -12.739       29.193       19.024       18.652      852.231      361.903      347.885        0.615        0.078      102.806       11.127        0.012      330.901       -1.430      866.002
12/10/2021  20:26:00       96.685       53.862      -10.506       29.835       16.837       14.055      890.155      283.490      197.529        0.687        0.069      110.676        9.654        0.008      330.869       -1.481      865.973
12/10/2021  20:27:00       92.384       41.061       -9.228       22.677       29.241       16.253      514.239      855.046      264.158        0.597        0.082      101.098       13.736        0.018      330.855       -1.504      865.938
12/10/2021  20:28:00       88.226       24.998      -13.216       28.640       20.909       15.526      820.221      437.190      241.050        0.504        0.075       91.699        8.056        0.008      330.813       -1.572      865.905
12/10/2021  20:29:00      116.792       26.459      -14.790       18.260       18.331       15.949      333.436      336.020      254.369        0.774        0.046      119.751       10.266        0.007      330.834       -1.538      865.882
12/10/2021  20:30:00      102.636       21.819       -7.983       26.995       21.571       14.196      728.748      465.305      201.537        0.623        0.070      104.929        9.635        0.008      330.820       -1.562      865.862
12/10/2021  20:31:00       84.229       21.971       -9.898       35.358       25.181       17.243     1250.170      634.095      297.313        0.493        0.109       87.047       11.197        0.017      330.793       -1.607      865.863
12/10/2021  20:32:00      101.152       57.603      -12.681       32.327       18.383       15.671     1045.009      337.924      245.590        0.767        0.081      116.404       12.700        0.012      330.816       -1.567      865.881
12/10/2021  20:33:00       99.911       54.855      -16.452       26.543       19.931       17.837      704.548      397.246      318.172        0.734        0.071      113.979       15.132        0.018      330.843       -1.523      865.905
12/10/2021  20:34:00       84.329       52.703      -27.098       23.112       14.023       14.776      534.179      196.634      218.319        0.579        0.047       99.443       10.547        0.011      330.839       -1.531      865.940
12/10/2021  20:35:00       93.987       30.169      -24.571       24.987       32.021       19.313      624.368     1025.332      372.993        0.618        0.101       98.710       15.332        0.024      330.865       -1.489      865.973
12/10/2021  20:36:00      124.610       54.431      -14.576       26.075       24.135       13.692      679.922      582.517      187.484        1.008        0.072      135.979        9.692        0.005      330.835       -1.537      865.997
12/10/2021  20:37:00       91.382       40.328      -11.993       25.643       20.053       17.151      657.575      402.132      294.148        0.574        0.068       99.886       13.574        0.018      330.834       -1.539      866.027
12/10/2021  20:38:00       75.491       48.344      -12.345       22.345       19.574       17.657      499.285      383.132      311.768        0.469        0.060       89.644       10.633        0.014      330.795       -1.602      866.051
12/10/2021  20:39:00       36.422       21.684       -3.083       16.046       28.018       18.528      257.486      785.001      343.303        0.160        0.069       42.388       10.692        0.064      330.730       -1.711      866.064
12/10/2021  20:40:00       91.869       35.167       -3.392       36.378       27.951       15.958     1323.343      781.244      254.659        0.602        0.118       98.370        9.465        0.009      330.790       -1.610      866.070
12/10/2021  20:41:00      126.044       50.648       -9.478       25.930       15.826       15.427      672.382      250.449      237.994        0.985        0.058      135.840       10.274        0.006      330.879       -1.466      866.068
12/10/2021  20:42:00       90.209       24.428       -9.341       30.845       19.402       16.365      951.385      376.451      267.809        0.521        0.080       93.459       13.399        0.021      330.818       -1.566      866.052
12/10/2021  20:43:00      113.629       59.226      -23.553       20.594       26.581       18.473      424.133      706.550      341.264        0.922        0.074      128.138        5.244        0.002      330.864       -1.489      866.028
12/10/2021  20:44:00       91.665       36.842      -22.422       43.248       31.374       25.971     1870.412      984.322      674.509        0.690        0.176       98.792       10.382        0.011      330.882       -1.461      865.996
12/10/2021  20:45:00      108.835       21.727      -12.995       29.102       23.091       17.538      846.907      533.177      307.580        0.709        0.084      110.982       15.491        0.019      330.804       -1.588      865.972
12/10/2021  20:46:00       87.942       12.813      -10.140       33.523       26.403       17.854     1123.764      697.118      318.756        0.507        0.107       88.871       15.060        0.029      330.773       -1.639      865.963
12/10/2021  20:47:00       72.427        7.569       -9.131       31.839       16.367       16.636     1013.747      267.891      276.742        0.347        0.078       72.821       15.681        0.046      330.750       -1.677      865.977
12/10/2021  20:48:00       69.865        7.957       -6.130       24.002       16.254       14.713      576.119      264.178      216.466        0.302        0.053       70.316       10.128        0.021      330.712       -1.738      865.993
12/10/2021  20:49:00       66.763       17.305       -9.290       14.552       20.115       10.521      211.754      404.621      110.699        0.278        0.036       68.970        5.003        0.005      330.744       -1.686      866.019
12/10/2021  20:50:00       66.396       15.411       -8.563       17.632       13.324        9.908      310.886      177.525       98.162        0.265        0.029       68.161        8.743        0.016      330.756       -1.667      866.048
12/10/2021  20:51:00       45.963       16.359       -1.933       18.509       13.674        8.649      342.588      186.970       74.797        0.149        0.030       48.787        5.187        0.011      330.778       -1.630      866.076
12/10/2021  20:52:00       64.991       24.200      -11.549       13.918       12.726        8.435      193.723      161.959       71.148        0.268        0.021       69.351        4.157        0.004      330.882       -1.461      866.105
12/10/2021  20:53:00       46.750       44.764       -3.441       10.276       14.013       12.249      105.587      196.363      150.034        0.233        0.023       64.725        7.823        0.015      330.869       -1.481      866.125
12/10/2021  20:54:00       29.384       35.093       -7.837       10.486        8.128        8.996      109.952       66.059       80.925        0.121        0.013       45.770        5.851        0.016      330.846       -1.519      866.158
12/10/2021  20:55:00       23.837       30.700      -10.733        9.067       16.429        6.343       82.215      269.905       40.236        0.101        0.020       38.867        4.028        0.011      330.868       -1.484      866.199
12/10/2021  20:56:00       24.536       26.550       -8.259       11.188       15.079        9.624      125.178      227.361       92.630        0.091        0.022       36.152        7.945        0.048      330.849       -1.514      866.230
12/10/2021  20:57:00       26.450       51.077       -3.139       20.907       19.458       11.502      437.087      378.621      132.294        0.213        0.047       57.519        8.761        0.023      330.897       -1.436      866.252
12/10/2021  20:58:00       -2.101       27.913       -6.415       32.703       16.911       14.173     1069.470      285.975      200.873        0.119        0.078       27.992       12.085        0.186      330.850       -1.513      866.267
12/10/2021  20:59:00      -22.319        8.036       -7.819       22.794       16.814       12.387      519.551      282.700      153.444        0.079        0.048       23.721       11.790        0.247      330.621       -1.891      866.291
12/10/2021  21:00:00      -13.713       11.390       -0.486       16.051       13.785       15.349      257.624      190.020      235.581        0.050        0.034       17.826        4.394        0.061      330.511       -2.070      866.300
12/10/2021  21:01:00        9.281       10.194       -9.593       13.229        9.086        8.998      174.995       82.548       80.972        0.031        0.017       13.785        7.313        0.281      330.578       -1.959      866.313
12/10/2021  21:02:00       18.045        8.132       -6.092       15.741        9.056        9.715      247.788       82.012       94.375        0.043        0.021       19.793        6.385        0.104      330.653       -1.836      866.312
12/10/2021  21:03:00       14.310       14.675       -4.710       21.886       16.384       12.647      479.004      268.434      159.947        0.067        0.045       20.497        4.367        0.045      330.732       -1.707      866.295
12/10/2021  21:04:00       49.291       42.404      -13.302       15.159       16.287       16.707      229.799      265.274      279.112        0.259        0.039       65.021       10.893        0.028      330.846       -1.520      866.270
12/10/2021  21:05:00       32.921       32.981       -3.113       15.772       11.556        9.887      248.746      133.534       97.759        0.133        0.024       46.599        8.283        0.032      330.743       -1.688      866.253
12/10/2021  21:06:00       31.413       30.182       -1.065       23.284       17.612       10.324      542.148      310.168      106.588        0.143        0.048       43.563        5.124        0.014      330.734       -1.703      866.246
12/10/2021  21:07:00       16.633       24.729        0.478       19.804       17.303        7.999      392.206      299.380       63.978        0.082        0.038       29.802        6.477        0.047      330.662       -1.821      866.231
12/10/2021  21:08:00       27.818       54.663       -9.299       21.484       16.430       10.446      461.565      269.961      109.110        0.234        0.042       61.334        9.676        0.025      330.771       -1.644      866.234
12/10/2021  21:09:00       29.679       58.710       -2.689       25.073       21.380       13.662      628.652      457.100      186.658        0.280        0.064       65.785       12.005        0.033      330.780       -1.627      866.250
12/10/2021  21:10:00        2.495       53.753       -0.514       21.180       25.002       15.107      448.612      625.091      228.231        0.210        0.065       53.811       10.783        0.040      330.745       -1.687      866.269
12/10/2021  21:11:00        2.634       39.812       -4.698       15.173       18.882       12.647      230.224      356.535      159.950        0.118        0.037       39.899       11.513        0.083      330.697       -1.764      866.276
12/10/2021  21:12:00       31.835       45.592       -6.364       20.119       17.577       11.465      404.787      308.943      131.440        0.199        0.042       55.606        7.563        0.018      330.810       -1.578      866.261
12/10/2021  21:13:00       47.986       49.497       -4.862       18.893       15.464       11.185      356.963      239.137      125.103        0.275        0.036       68.939        9.927        0.021      330.778       -1.631      866.235
12/10/2021  21:14:00       53.274       50.902       -9.721       23.925       16.698       14.017      572.416      278.829      196.467        0.329        0.052       73.683       11.932        0.026      330.750       -1.676      866.212
12/10/2021  21:15:00       61.219       39.126      -12.104       14.086       15.573       11.494      198.420      242.508      132.122        0.300        0.029       72.653        9.345        0.017      330.725       -1.716      866.200
12/10/2021  21:16:00       50.911       29.601       -7.848       17.840       14.015        8.586      318.275      196.433       73.726        0.206        0.029       58.891        8.916        0.023      330.679       -1.792      866.187
12/10/2021  21:17:00       58.393       33.666       -7.147       20.976       15.317       10.696      439.991      234.618      114.404        0.269        0.039       67.403       12.440        0.034      330.703       -1.752      866.158
12/10/2021  21:18:00       58.619       48.667       -4.626       24.863       19.388       12.584      618.147      375.876      158.360        0.349        0.058       76.188       12.852        0.028      330.704       -1.751      866.142
12/10/2021  21:19:00       67.236       50.436      -12.695       21.506       23.424       16.678      462.501      548.663      278.150        0.426        0.064       84.050       15.007        0.032      330.584       -1.949      866.126
12/10/2021  21:20:00       53.199       63.531      -10.648       24.565       18.847       15.185      603.417      355.193      230.578        0.408        0.059       82.863       14.344        0.030      330.595       -1.933      866.141
12/10/2021  21:21:00       61.084       69.316      -15.159       19.094       21.033       14.306      364.586      442.405      204.669        0.489        0.051       92.390        7.193        0.006      330.598       -1.926      866.160
12/10/2021  21:22:00       58.752       43.734       -5.251       17.779       19.563       10.971      316.087      382.714      120.370        0.311        0.041       73.243        9.597        0.017      330.594       -1.934      866.178
12/10/2021  21:23:00       57.748       60.406      -13.692       21.708       17.365       12.213      471.234      301.549      149.157        0.405        0.046       83.569        8.350        0.010      330.615       -1.899      866.177
12/10/2021  21:24:00       58.321       56.570      -12.808       22.932       16.546       16.318      525.861      273.755      266.269        0.392        0.053       81.250       10.717        0.017      330.584       -1.949      866.171
12/10/2021  21:25:00       63.497       66.534      -15.422       16.945       23.101       17.467      287.141      533.679      305.107        0.491        0.056       91.971       15.297        0.028      330.634       -1.866      866.176
12/10/2021  21:26:00       57.751       58.345      -13.182       23.237       20.169       17.914      539.974      406.781      320.913        0.409        0.063       82.093       11.526        0.020      330.640       -1.858      866.185
12/10/2021  21:27:00       81.561       55.601       -8.189       23.456       19.520       16.089      550.173      381.029      258.854        0.550        0.060       98.710       10.689        0.012      330.640       -1.858      866.195
12/10/2021  21:28:00       77.927       52.708      -14.261       25.007       17.046       13.800      625.332      290.552      190.431        0.508        0.055       94.079        8.932        0.009      330.613       -1.902      866.192
12/10/2021  21:29:00       89.105       50.735      -15.621       17.584       15.808       14.158      309.182      249.908      200.453        0.576        0.038      102.537        9.504        0.009      330.614       -1.899      866.178
12/10/2021  21:30:00       90.462       39.248      -10.572       16.402       18.561        9.437      269.019      344.506       89.064        0.527        0.035       98.609        7.012        0.005      330.624       -1.884      866.149
12/10/2021  21:31:00       89.653       41.876      -13.226       27.627       14.583        9.880      763.260      212.652       97.609        0.552        0.054       98.951        6.919        0.005      330.656       -1.832      866.132
12/10/2021  21:32:00       88.044       41.272      -12.825       20.671       13.614        9.344      427.284      185.347       87.314        0.516        0.035       97.238        7.135        0.005      330.660       -1.826      866.136
12/10/2021  21:33:00       68.982       40.874      -14.972       19.149        9.505       10.573      366.674       90.345      111.779        0.361        0.028       80.182        6.728        0.007      330.674       -1.803      866.157
12/10/2021  21:34:00       73.373       55.997      -22.650       14.262       13.467       12.370      203.412      181.373      153.019        0.478        0.027       92.300        7.309        0.006      330.671       -1.806      866.169
12/10/2021  21:35:00       62.208       36.222      -17.996       19.236       18.328       20.002      370.017      335.929      400.078        0.331        0.055       71.985        8.158        0.013      330.731       -1.709      866.148
12/10/2021  21:36:00       74.686       21.467       -8.127       19.163       17.888        9.904      367.225      319.988       98.079        0.344        0.039       77.710        4.789        0.004      330.634       -1.868      866.111
12/10/2021  21:37:00       92.754       19.796       -8.435       34.899       16.973       17.131     1217.962      288.094      293.473        0.543        0.090       94.843       20.807        0.048      330.659       -1.826      866.086
12/10/2021  21:38:00       75.908       14.193      -14.837       21.534       20.984       11.001      463.734      440.324      121.020        0.360        0.051       77.224        6.383        0.007      330.651       -1.838      866.073
12/10/2021  21:39:00       45.624        3.238       -5.077       20.695       16.578       13.307      428.290      274.843      177.066        0.150        0.044       45.739        8.961        0.038      330.598       -1.928      866.072
12/10/2021  21:40:00       46.605       13.876      -13.248       14.823       13.738        9.650      219.736      188.729       93.118        0.152        0.025       48.627        5.822        0.014      330.612       -1.902      866.055
12/10/2021  21:41:00       61.048       12.175      -17.182       13.161       13.169        9.612      173.216      173.417       92.389        0.230        0.022       62.251        5.362        0.007      330.655       -1.833      866.028
12/10/2021  21:42:00       59.039       11.031      -10.583       19.529       16.195       13.129      381.371      262.278      172.374        0.227        0.041       60.061        9.278        0.024      330.658       -1.827      866.007
12/10/2021  21:43:00       31.642        7.033      -10.849       22.595       25.847       13.674      510.529      668.058      186.974        0.127        0.068       32.414       10.064        0.096      330.678       -1.796      866.004
12/10/2021  21:44:00      -20.912      -32.227      -14.194       29.881       33.762       15.150      892.852     1139.877      229.535        0.197        0.113       38.417        9.656        0.063      330.766       -1.651      865.995
12/10/2021  21:45:00       -8.738      -45.007      -17.802       24.469       22.466       13.605      598.745      504.714      185.100        0.185        0.064       45.848        9.597        0.044      330.721       -1.725      865.985
12/10/2021  21:46:00      -20.898       -6.046       -3.352       20.044       19.024       16.190      401.766      361.901      262.115        0.075        0.051       21.755       10.064        0.214      330.672       -1.805      865.962
12/10/2021  21:47:00      -13.369       17.602       -7.731       25.080       18.166        9.268      629.007      330.012       85.889        0.080        0.052       22.103        8.056        0.133      330.552       -2.004      865.933
12/10/2021  21:48:00        8.387       24.496      -11.830        8.262       18.920       10.192       68.262      357.978      103.881        0.067        0.027       25.892       10.250        0.157      330.559       -1.993      865.906
12/10/2021  21:49:00       -6.033      -12.324      -13.752       22.831       23.625       18.798      521.272      558.121      353.357        0.090        0.072       13.721       12.418        0.819      330.572       -1.970      865.893
12/10/2021  21:50:00      -18.498       25.583       -2.932       19.625       16.283       17.064      385.129      265.133      291.195        0.097        0.047       31.570       10.202        0.104      330.576       -1.963      865.907
12/10/2021  21:51:00        3.615        8.981       -2.306       17.759       20.625       21.055      315.386      425.391      443.314        0.064        0.059        9.681       17.144        3.136      330.416       -2.225      865.940
12/10/2021  21:52:00      -44.500       18.470       -7.213       42.118       16.774       13.779     1773.937      281.355      189.847        0.231        0.112       48.181       21.814        0.205      330.333       -2.362      865.968
12/10/2021  21:53:00      -83.842       31.426      -15.739       29.827       22.639       16.553      889.649      512.543      274.011        0.497        0.084       89.538       11.454        0.016      330.308       -2.402      866.000
12/10/2021  21:54:00      -92.467       30.202       -9.406       31.360       24.304       16.821      983.443      590.663      282.939        0.570        0.093       97.275       15.285        0.025      330.181       -2.611      866.027
12/10/2021  21:55:00     -116.401       40.001      -10.145       31.552       17.255       16.050      995.524      297.736      257.614        0.840        0.078      123.082       14.383        0.014      330.177       -2.618      866.039
12/10/2021  21:56:00      -80.315        7.034       -9.453       34.239       22.695       18.443     1172.342      515.068      340.128        0.431        0.101       80.622       13.914        0.030      330.212       -2.560      866.054
12/10/2021  21:57:00      -84.017       18.741       -7.694       33.013       17.674       19.542     1089.850      312.388      381.879        0.463        0.089       86.081       17.579        0.042      330.161       -2.642      866.059
12/10/2021  21:58:00      -31.628       -6.631      -13.584       36.990       26.102       17.226     1368.261      681.307      296.739        0.179        0.117       32.316       16.896        0.273      330.162       -2.643      866.059
12/10/2021  21:59:00      -88.355       14.650      -13.298       36.057       24.409       20.651     1300.102      595.790      426.455        0.526        0.116       89.561       10.444        0.014      330.121       -2.709      866.055
12/10/2021  22:00:00      -95.815       22.486       -8.825       52.329       26.720       16.620     2738.346      713.966      276.218        0.675        0.186       98.419        9.478        0.009      330.079       -2.778      866.048
12/10/2021  22:01:00     -121.033       27.969      -17.381       15.927       11.664       10.848      253.668      136.039      117.675        0.812        0.025      124.222        7.273        0.003      330.082       -2.772      866.051
12/10/2021  22:02:00      -87.966       18.815      -17.341       30.425       21.645       20.831      925.672      468.503      433.949        0.511        0.091       89.955       16.821        0.035      330.087       -2.766      866.050
12/10/2021  22:03:00      -88.535       38.802      -14.409       18.954       17.329       13.069      359.253      300.307      170.805        0.519        0.042       96.665       10.857        0.013      330.047       -2.832      866.057
12/10/2021  22:04:00      -66.784       25.937      -18.107       26.150       17.474       15.864      683.809      305.356      251.652        0.335        0.062       71.644        4.758        0.004      330.068       -2.796      866.067
12/10/2021  22:05:00      -43.849        3.477      -11.048       32.495       18.284       14.665     1055.897      334.309      215.076        0.183        0.080       43.987       13.421        0.093      330.091       -2.759      866.072
12/10/2021  22:06:00      -75.100       24.824      -13.821       30.744       22.281       12.342      945.194      496.446      152.330        0.402        0.080       79.096        5.948        0.006      330.052       -2.822      866.074
12/10/2021  22:07:00      -66.955       27.044      -13.346       24.974       18.653       12.590      623.700      347.949      158.514        0.326        0.057       72.211       11.434        0.025      330.063       -2.802      866.074
12/10/2021  22:08:00      -66.324       23.869      -11.315       22.256       18.806       12.976      495.343      353.673      168.378        0.306        0.051       70.488       12.304        0.030      329.981       -2.937      866.079
12/10/2021  22:09:00      -41.300       25.852       -6.923       21.259       14.436       11.456      451.953      208.389      131.246        0.161        0.040       48.723        6.894        0.020      329.970       -2.956      866.089
12/10/2021  22:10:00      -41.720       27.259       -8.053       16.406       14.198       12.188      269.169      201.595      148.559        0.158        0.031       49.836        3.298        0.004      330.084       -2.771      866.091
12/10/2021  22:11:00      -52.747       25.700       -1.190       33.859       17.206       13.687     1146.420      296.031      187.340        0.254        0.081       58.675       14.935        0.065      330.026       -2.865      866.088
12/10/2021  22:12:00       -6.300       20.659      -19.942       20.875       14.358       11.809      435.785      206.147      139.445        0.082        0.039       21.599        8.466        0.154      329.991       -2.921      866.081
12/10/2021  22:13:00       32.146       36.887      -15.561       25.616       12.375       12.608      656.194      153.139      158.964        0.180        0.048       48.929        9.646        0.039      330.417       -2.225      866.060
12/10/2021  22:14:00       47.171       42.603       -6.576       20.861       13.515       10.413      435.169      182.654      108.426        0.240        0.036       63.562       10.026        0.025      330.420       -2.219      866.032
12/10/2021  22:15:00       38.930       62.453       -7.514       24.098       17.207       11.448      580.708      296.081      131.056        0.324        0.050       73.592       11.382        0.024      330.428       -2.205      866.015
12/10/2021  22:16:00       18.698       68.441       -6.627       18.719       22.089       15.331      350.396      487.944      235.033        0.308        0.054       70.949       12.174        0.029      330.500       -2.087      866.014
12/10/2021  22:17:00       23.208       61.194       -3.729       28.425       16.769       20.611      807.963      281.202      424.802        0.291        0.076       65.447       14.143        0.047      330.413       -2.229      866.021
12/10/2021  22:18:00       41.503       64.010       -9.015       24.050       27.175       17.155      578.412      738.500      294.294        0.376        0.081       76.287       17.021        0.050      330.462       -2.151      866.033
12/10/2021  22:19:00       37.028       34.347       -6.354       22.528       21.066       16.344      507.510      443.777      267.118        0.190        0.061       50.506       10.087        0.040      330.412       -2.232      866.032
12/10/2021  22:20:00       54.573       45.865       -8.886       24.540       20.333       13.247      602.232      413.413      175.470        0.318        0.060       71.287       12.193        0.029      330.393       -2.262      866.017
12/10/2021  22:21:00       50.353       54.071       -7.412       24.162       20.185       16.164      583.826      407.418      261.283        0.338        0.063       73.885       15.816        0.046      330.399       -2.254      866.010
12/10/2021  22:22:00       51.757       56.811       -8.390       17.066       17.857       14.529      291.242      318.872      211.082        0.340        0.041       76.853       12.183        0.025      330.409       -2.237      865.996
12/10/2021  22:23:00       52.642       51.320      -10.261       20.151       13.756       16.875      406.062      189.231      284.772        0.319        0.044       73.518       12.673        0.030      330.346       -2.341      865.991
12/10/2021  22:24:00       47.409       54.138      -10.337       30.116       18.090       14.689      906.979      327.241      215.753        0.337        0.072       71.962       14.381        0.040      330.387       -2.273      865.978
12/10/2021  22:25:00       52.356       52.436       -9.839       17.117       13.033       11.489      292.980      169.870      131.989        0.309        0.030       74.100        8.789        0.014      330.416       -2.226      865.967
12/10/2021  22:26:00       57.265       42.990       -9.369       13.335       12.918        8.906      177.820      166.871       79.325        0.282        0.021       71.606        5.522        0.006      330.454       -2.165      865.946
12/10/2021  22:27:00       50.966       42.427       -7.611       17.358       13.418       11.462      301.299      180.037      131.377        0.253        0.031       66.314       12.021        0.033      330.421       -2.218      865.935
12/10/2021  22:28:00       37.834       53.764       -6.916       16.210       20.613       10.839      262.749      424.902      117.492        0.259        0.040       65.742        8.451        0.017      330.444       -2.179      865.924
12/10/2021  22:29:00       33.699       46.756       -6.444       16.565       15.820        8.341      274.387      250.270       69.570        0.198        0.030       57.634        7.804        0.018      330.416       -2.223      865.924
12/10/2021  22:30:00       43.336       53.546       -9.236       12.030       14.217        9.118      144.711      202.124       83.139        0.263        0.021       68.885        7.165        0.011      330.440       -2.185      865.912
12/10/2021  22:31:00       40.866       65.449      -11.467       15.980       16.755       10.455      255.362      280.745      109.309        0.337        0.032       77.160        5.423        0.005      330.445       -2.176      865.897
12/10/2021  22:32:00       25.047       69.455       -2.804       24.242       21.886       17.977      587.655      479.002      323.176        0.342        0.069       73.833       14.909        0.041      330.558       -1.992      865.896
12/10/2021  22:33:00       28.506       53.893       -5.456       27.667       21.828       16.579      765.465      476.442      274.879        0.263        0.076       60.968       15.961        0.069      330.464       -2.145      865.909
12/10/2021  22:34:00       36.209       45.924       -9.096       20.072       13.599       13.461      402.890      184.928      181.200        0.214        0.038       58.482       11.357        0.038      330.464       -2.147      865.923
12/10/2021  22:35:00       15.289       40.448       -7.340       20.096       12.515        9.784      403.848      156.621       95.734        0.129        0.033       43.241        8.242        0.036      330.302       -2.412      865.936
12/10/2021  22:36:00      -14.044       24.638       -2.080       38.657       11.943       14.948     1494.386      142.626      223.434        0.133        0.093       28.359       10.969        0.150      330.114       -2.720      865.944
12/10/2021  22:37:00      -28.671       19.664      -10.884       12.401        9.748        8.885      153.786       95.028       78.948        0.083        0.016       34.766        6.429        0.034      329.890       -3.086      865.943
12/10/2021  22:38:00      -28.166        9.059      -14.587       17.540       13.594        9.979      307.657      184.807       99.585        0.084        0.030       29.587        5.301        0.032      329.948       -2.991      865.948
12/10/2021  22:39:00       -2.679       -2.014       -4.303       12.685       11.337        8.544      160.914      128.534       72.994        0.020        0.018        3.352        5.120        2.333      329.861       -3.134      865.961
12/10/2021  22:40:00      -25.853       14.230      -16.557       21.149       16.826       18.491      447.267      283.117      341.915        0.111        0.054       29.511       13.133        0.198      329.916       -3.044      865.994
12/10/2021  22:41:00      -18.816        0.784       -6.377       39.647       19.188       18.470     1571.911      368.188      341.158        0.134        0.114       18.833       22.482        1.425      329.909       -3.057      866.017
12/10/2021  22:42:00      -85.515       27.862      -11.456       23.300       19.667       16.322      542.906      386.802      266.396        0.471        0.060       89.939        3.728        0.002      329.815       -3.211      866.022
12/10/2021  22:43:00      -67.301       21.090      -16.905       25.977       18.622       12.769      674.818      346.797      163.054        0.322        0.059       70.528        5.785        0.007      329.894       -3.082      866.022
12/10/2021  22:44:00      -37.116        3.871      -14.864       34.303       27.535       24.471     1176.726      758.173      598.811        0.207        0.127       37.317       20.836        0.312      329.863       -3.131      866.013
12/10/2021  22:45:00      -70.552       20.460       -7.893       53.257       22.314       15.790     2836.361      497.934      249.328        0.452        0.179       73.459       16.382        0.050      329.754       -3.310      865.993
12/10/2021  22:46:00      -98.251       20.127       -2.699       46.940       26.630       21.252     2203.335      709.167      451.627        0.671        0.168      100.291       24.229        0.058      329.752       -3.313      865.986
12/10/2021  22:47:00      -59.811       13.335       -1.222       53.870       21.442       22.933     2901.937      459.776      525.927        0.382        0.194       61.280       22.129        0.130      329.802       -3.230      865.980
12/10/2021  22:48:00      -92.945       16.622      -12.753       34.431       32.733       27.343     1185.505     1071.454      747.627        0.604        0.150       94.419       22.800        0.058      329.677       -3.434      865.962
12/10/2021  22:49:00      -34.806       -0.583      -15.093       44.038       37.379       22.360     1939.388     1397.204      499.974        0.264        0.192       34.811       25.184        0.523      329.744       -3.326      865.941
12/10/2021  22:50:00      -83.416       39.199      -13.512       21.649       20.929       15.876      468.675      438.019      252.040        0.492        0.058       92.167       12.662        0.019      329.665       -3.456      865.921
12/10/2021  22:51:00      -40.208        9.977       -8.049       20.596       19.156       12.264      424.178      366.960      150.401        0.136        0.047       41.427        3.911        0.009      329.713       -3.378      865.913
12/10/2021  22:52:00      -24.549       13.588       -6.177       24.033       20.530       16.149      577.586      421.483      260.799        0.104        0.063       28.059       11.522        0.169      329.793       -3.249      865.901
12/10/2021  22:53:00      -58.637       41.442      -17.157       14.242       13.257       11.448      202.843      175.738      131.057        0.298        0.025       71.804        5.704        0.006      329.769       -3.287      865.879
12/10/2021  22:54:00      -33.645       18.703       -9.601       19.152       12.586       11.323      366.809      158.407      128.204        0.111        0.033       38.494        3.614        0.009      329.757       -3.305      865.845
12/10/2021  22:55:00      -47.276       15.931      -13.458       21.467       18.500       14.303      460.815      342.240      204.586        0.184        0.050       49.888       13.102        0.069      329.790       -3.251      865.810
12/10/2021  22:56:00       -7.329        2.758       -4.422       16.987        8.303        9.076      288.558       68.945       82.371        0.026        0.022        7.831        6.576        0.705      329.716       -3.371      865.778
12/10/2021  22:57:00       -8.550       -0.174       -8.562       12.352       21.390       12.079      152.569      457.542      145.892        0.045        0.038        8.552        4.979        0.339      329.798       -3.237      865.747
12/10/2021  22:58:00        2.201        5.636       -1.126       10.349       13.768       11.664      107.092      189.571      136.051        0.024        0.022        6.050        8.478        1.963      329.672       -3.443      865.716
12/10/2021  22:59:00       -0.469        7.188       -8.121        3.732       10.315        6.290       13.931      106.394       39.559        0.014        0.008        7.204        3.965        0.303      329.807       -3.223      865.687
12/10/2021  23:00:00       -6.859       -3.556       -2.758       16.542       32.885       12.953      273.638     1081.428      167.769        0.079        0.076        7.726       14.089        3.325      330.038       -2.844      865.660
12/10/2021  23:01:00       -6.028      -28.127      -10.067       21.643       16.770       16.092      468.405      281.230      258.959        0.097        0.050       28.766       12.075        0.176      330.166       -2.636      865.662
12/10/2021  23:02:00      -31.203       -5.089      -11.616       18.071       15.208       11.487      326.554      231.268      131.941        0.091        0.034       31.615        8.478        0.072      330.031       -2.857      865.691
12/10/2021  23:03:00      -17.844        1.965       -5.478       15.590       15.734       12.363      243.057      247.544      152.853        0.050        0.032       17.952        7.386        0.169      329.911       -3.052      865.720
12/10/2021  23:04:00      -36.753        0.970       -8.516       27.687       22.376       16.095      766.548      500.693      259.055        0.147        0.076       36.765        7.710        0.044      329.925       -3.031      865.723
12/10/2021  23:05:00      -52.769       -4.164       -3.390       31.847       20.119       11.749     1014.209      404.790      138.044        0.218        0.078       52.933       12.932        0.060      329.986       -2.930      865.707
12/10/2021  23:06:00      -39.737      -31.527      -14.980       23.761       13.149       13.663      564.586      172.888      186.672        0.186        0.046       50.725        9.044        0.032      330.048       -2.830      865.656
12/10/2021  23:07:00      -18.784      -13.384      -15.509       25.089       12.625        9.688      629.452      159.392       93.865        0.083        0.044       23.064        3.652        0.025      330.116       -2.718      865.621
12/10/2021  23:08:00      -37.197      -17.361        1.575       33.073       22.248       18.557     1093.845      494.976      344.357        0.181        0.097       41.049       16.895        0.169      330.087       -2.764      865.621
12/10/2021  23:09:00      -15.817       -2.553       -0.014       33.529       24.029       19.523     1124.203      577.402      381.165        0.117        0.104       16.021       10.589        0.437      330.060       -2.810      865.635
12/10/2021  23:10:00      -38.315       -8.328        6.668       39.888       29.837       21.025     1591.088      890.262      442.038        0.225        0.146       39.210        8.707        0.049      329.949       -2.991      865.647
12/10/2021  23:11:00      -79.144       36.374      -10.354       42.311       25.039       18.806     1790.254      626.972      353.675        0.523        0.139       87.103       20.242        0.054      329.823       -3.198      865.639
12/10/2021  23:12:00     -125.371       30.341       -6.814       33.473       36.631       22.785     1120.454     1341.820      519.142        0.983        0.149      128.990       12.398        0.009      329.712       -3.378      865.620
12/10/2021  23:13:00     -112.073       23.705      -10.299       49.779       43.422       25.019     2477.920     1885.490      625.975        0.911        0.249      114.552       18.327        0.026      329.751       -3.315      865.611
12/10/2021  23:14:00      -97.303       -2.041        0.541       47.889       38.031       29.275     2293.392     1446.323      857.015        0.703        0.230       97.324       24.334        0.063      329.737       -3.337      865.613
12/10/2021  23:15:00     -133.915       19.013       -1.951       87.929       39.586       31.442     7731.541     1567.086      988.605        1.429        0.514      135.258       30.993        0.053      329.634       -3.508      865.625
12/10/2021  23:16:00     -149.608       68.922       -7.042       46.686       31.806       32.474     2179.539     1011.606     1054.579        1.571        0.212      164.720       27.605        0.028      329.494       -3.737      865.619
12/10/2021  23:17:00     -107.343       45.972       -2.391       43.382       41.674       30.234     1882.013     1736.696      914.092        0.909        0.227      116.773       24.385        0.044      329.446       -3.814      865.603
12/10/2021  23:18:00     -122.268       36.789      -13.176       51.089       42.427       26.531     2610.109     1800.054      703.902        1.079        0.256      127.683       18.209        0.020      329.470       -3.776      865.594
12/10/2021  23:19:00     -120.180       35.585      -15.613       30.861       42.331       19.033      952.373     1791.934      362.257        0.953        0.155      125.337        3.774        0.001      329.468       -3.779      865.599
12/10/2021  23:20:00      -92.900       38.353       -7.844       37.441       46.066       18.834     1401.863     2122.050      354.722        0.702        0.194      100.505       18.032        0.032      329.448       -3.810      865.618
12/10/2021  23:21:00     -133.690       38.358       -3.594       37.061       31.215       27.084     1373.507      974.360      733.543        1.122        0.154      139.084       21.716        0.024      329.406       -3.880      865.640
12/10/2021  23:22:00      -27.011       -7.012        5.375       38.846       34.144       25.385     1508.991     1165.844      644.395        0.206        0.166       27.906       18.165        0.424      329.431       -3.839      865.641
12/10/2021  23:23:00      -45.683       26.236       -3.701       42.812       33.918       22.019     1832.834     1150.437      484.844        0.313        0.173       52.681       21.031        0.159      329.469       -3.777      865.632
12/10/2021  23:24:00      -92.969       31.140      -17.076       17.890       14.687       14.014      320.062      215.710      196.381        0.532        0.037       98.046        1.714        0.000      329.432       -3.836      865.620
12/10/2021  23:25:00      -72.731        2.555      -18.008       43.259       22.541       24.890     1871.329      508.076      619.510        0.431        0.150       72.776       26.971        0.137      329.524       -3.686      865.611
12/10/2021  23:26:00      -90.099       21.762      -17.306       45.015       24.084       17.013     2026.353      580.038      289.430        0.589        0.145       92.690        8.201        0.008      329.570       -3.612      865.601
12/10/2021  23:27:00      -81.440       30.209      -11.093       27.568       29.704       14.967      760.003      882.346      224.001        0.477        0.093       86.863        8.791        0.010      329.531       -3.674      865.605
12/10/2021  23:28:00      -97.001       51.473      -24.806       25.489       24.026       20.346      649.709      577.269      413.966        0.716        0.082      109.812       12.483        0.013      329.541       -3.659      865.607
12/10/2021  23:29:00     -124.618       58.120      -10.217       33.718       28.120       21.971     1136.910      790.741      482.716        1.071        0.121      137.504       13.509        0.010      329.495       -3.734      865.610
12/10/2021  23:30:00     -102.872       46.935      -19.847       34.367       34.153       23.105     1181.116     1166.424      533.841        0.803        0.144      113.073       19.776        0.031      329.480       -3.760      865.609
12/10/2021  23:31:00     -102.329       35.001      -23.344       31.766       31.937       17.184     1009.087     1019.964      295.305        0.728        0.116      108.149        8.337        0.006      329.541       -3.658      865.618
12/10/2021  23:32:00      -45.604       -1.798      -16.907       52.814       29.468       25.138     2789.301      868.392      631.899        0.333        0.214       45.640       27.274        0.357      329.560       -3.628      865.624
12/10/2021  23:33:00        8.680       14.368      -10.161       15.498       19.909       23.423      240.179      396.360      548.616        0.078        0.059       16.786        7.187        0.183      329.518       -3.696      865.617
12/10/2021  23:34:00        3.694        9.734      -12.618        9.021       18.650       12.885       81.379      347.823      166.031        0.043        0.030       10.411       10.828        1.082      329.587       -3.583      865.607
12/10/2021  23:35:00        6.686        1.081      -21.402       10.659       14.201        8.434      113.608      201.676       71.131        0.045        0.019        6.773        6.666        0.969      329.635       -3.504      865.595
12/10/2021  23:36:00        7.689        2.523      -13.780        8.102       12.400       11.602       65.639      153.755      134.609        0.030        0.018        8.093        8.619        1.134      329.645       -3.488      865.580
12/10/2021  23:37:00       35.256       19.230       -3.362       20.423        9.339        9.236      417.106       87.210       85.302        0.111        0.029       40.160        7.591        0.036      329.817       -3.208      865.574
12/10/2021  23:38:00       -8.422        9.136      -14.673        7.762       13.459        7.144       60.250      181.148       51.041        0.033        0.015       12.426        6.582        0.281      329.697       -3.402      865.585
12/10/2021  23:39:00      -31.401       14.567      -14.807       29.523       14.786       15.854      871.624      218.639      251.353        0.138        0.067       34.615        5.363        0.024      329.713       -3.379      865.600
12/10/2021  23:40:00      -90.993       32.732      -18.292       10.650       11.581       10.315      113.431      134.118      106.396        0.502        0.018       96.702        3.186        0.001      329.558       -3.633      865.620
12/10/2021  23:41:00      -90.639       21.641      -12.420       20.266       14.798       11.016      410.716      218.982      121.352        0.479        0.038       93.186        7.724        0.007      329.579       -3.597      865.640
12/10/2021  23:42:00      -52.970       11.778      -11.018       31.328       16.235       14.211      981.413      263.585      201.946        0.226        0.072       54.264       11.635        0.046      329.630       -3.512      865.652
12/10/2021  23:43:00      -29.415        1.736       -5.661       38.069       22.664       11.945     1449.259      513.639      142.695        0.150        0.105       29.466       16.921        0.330      329.618       -3.534      865.634
12/10/2021  23:44:00       -2.600       12.763      -10.453       10.564       10.036        9.917      111.603      100.725       98.348        0.029        0.016       13.025        7.940        0.372      329.562       -3.625      865.600
12/10/2021  23:45:00        0.572       16.664      -11.685       11.592        7.739        9.116      134.366       59.890       83.096        0.035        0.014       16.674        2.316        0.019      329.666       -3.454      865.557
12/10/2021  23:46:00       28.289        7.237       -4.460       15.222       19.527       12.521      231.697      381.306      156.786        0.082        0.038       29.200        8.928        0.093      329.999       -2.909      865.541
12/10/2021  23:47:00       29.545        6.620       -1.109       14.923       11.890        9.141      222.696      141.368       83.558        0.068        0.022       30.277        8.387        0.077      329.930       -3.022      865.529
12/10/2021  23:48:00      -19.570       10.841      -10.909       31.900       10.320       16.012     1017.613      106.501      256.400        0.100        0.069       22.373       18.056        0.651      329.735       -3.341      865.518
12/10/2021  23:49:00      -56.843       15.045       -8.142       20.855       26.088       15.124      434.935      680.565      228.725        0.243        0.067       58.801        8.312        0.020      329.631       -3.511      865.518
12/10/2021  23:50:00       -4.831        6.129      -10.170       23.967       20.675       15.673      574.431      427.455      245.632        0.071        0.062        7.804        8.996        1.329      329.564       -3.622      865.528
12/10/2021  23:51:00      -18.877        5.287      -14.347       21.497       23.517       19.799      462.137      553.038      392.006        0.100        0.070       19.603       11.877        0.367      329.563       -3.623      865.525
12/10/2021  23:52:00        5.075      -24.416       -7.522       18.415       19.650       15.066      339.126      386.131      226.975        0.082        0.048       24.938        8.477        0.116      329.594       -3.571      865.503
12/10/2021  23:53:00       17.872       25.093       -6.329       13.436       14.396        9.616      180.513      207.247       92.466        0.073        0.024       30.806        3.909        0.016      329.589       -3.580      865.474
12/10/2021  23:54:00      -34.096       30.938       -7.028       13.012       10.068       13.459      169.303      101.357      181.153        0.131        0.023       46.040        8.858        0.037      329.620       -3.529      865.461
12/10/2021  23:55:00      -32.776        7.153      -13.199       18.573       34.041       16.773      344.974     1158.759      281.318        0.154        0.089       33.547        8.124        0.059      329.639       -3.498      865.439
12/10/2021  23:56:00       -7.283       11.392        0.617       21.540       18.191       14.528      463.979      330.903      211.062        0.059        0.050       13.521       11.383        0.709      329.576       -3.600      865.407
12/10/2021  23:57:00      -48.008        3.835       -4.300       28.586       22.220       14.329      817.159      493.719      205.319        0.193        0.076       48.161       13.126        0.074      329.571       -3.610      865.378
12/10/2021  23:58:00      -54.079       -9.557       -9.855       34.800       17.489       17.886     1211.021      305.864      319.903        0.247        0.092       54.917       16.791        0.093      329.563       -3.622      865.351
12/10/2021  23:59:00      -65.508        8.347      -13.264       24.476       10.615        8.200      599.086      112.683       67.239        0.266        0.039       66.038        3.068        0.002      329.577       -3.600      865.336
12/11/2021  00:00:00      -30.130       10.892      -15.244       15.845        8.837        8.479      251.074       78.101       71.898        0.083        0.020       32.038        3.963        0.015      329.650       -3.480      865.326
12/11/2021  00:01:00      -40.882       21.946       -9.987       15.017       15.401       10.203      225.512      237.184      104.104        0.141        0.028       46.400        9.316        0.040      329.644       -3.490      865.340
12/11/2021  00:02:00       -3.253       15.277       -4.242       13.851       11.351       15.364      191.853      128.852      236.040        0.041        0.028       15.619        5.150        0.109      329.596       -3.569      865.350
12/11/2021  00:03:00      -11.786       17.829       -5.932       16.953        7.148        7.960      287.409       51.093       63.367        0.045        0.020       21.373        7.863        0.135      329.660       -3.463      865.357
12/11/2021  00:04:00      -25.236       24.682       -1.826       10.568       16.675       10.201      111.688      278.040      104.056        0.087        0.025       35.299        8.031        0.052      329.779       -3.270      865.364
12/11/2021  00:05:00      -37.721       27.158       -9.595       11.369       16.458        9.947      129.261      270.881       98.953        0.138        0.025       46.480        8.297        0.032      329.689       -3.416      865.372
12/11/2021  00:06:00      -53.005       14.470      -13.671       24.001       18.515       12.755      576.029      342.807      162.690        0.214        0.054       54.944        7.133        0.017      329.632       -3.510      865.382
12/11/2021  00:07:00      -81.354       20.550       -7.190       26.752       17.859       16.694      715.646      318.934      278.703        0.420        0.066       83.909       14.410        0.029      329.600       -3.561      865.409
12/11/2021  00:08:00      -21.363        6.016       -7.151       42.261       21.794       19.720     1785.964      474.976      388.887        0.160        0.132       22.194       16.342        0.542      329.531       -3.674      865.439
12/11/2021  00:09:00      -87.666       18.872       -9.339       45.138       35.114       24.129     2037.438     1232.993      582.195        0.599        0.193       89.674       21.922        0.060      329.475       -3.766      865.450
12/11/2021  00:10:00      -21.938        2.170       -4.702       24.184       23.243       16.044      584.855      540.238      257.410        0.095        0.069       22.045       13.347        0.367      329.449       -3.809      865.433
12/11/2021  00:11:00      -31.348        7.541       -5.749       27.714       15.814       14.851      768.091      250.084      220.563        0.116        0.062       32.242       13.199        0.168      329.499       -3.727      865.424
12/11/2021  00:12:00      -17.851       13.842        0.265       22.144       29.412       15.897      490.376      865.088      252.702        0.106        0.080       22.589       11.973        0.281      329.487       -3.746      865.427
12/11/2021  00:13:00      -44.489        0.621      -10.196       41.513       24.403       17.634     1723.320      595.509      310.950        0.236        0.131       44.493       13.292        0.089      329.504       -3.720      865.432
12/11/2021  00:14:00      -74.798       18.414      -10.976       33.668       25.769       14.485     1133.517      664.030      209.821        0.403        0.100       77.031        7.250        0.009      329.449       -3.808      865.445
12/11/2021  00:15:00      -77.567       26.439      -10.083       33.844       23.002       16.009     1145.390      529.081      256.281        0.437        0.097       81.949       12.155        0.022      329.434       -3.832      865.452
12/11/2021  00:16:00     -107.640       20.568       -5.703       60.442       29.862       24.337     3653.176      891.746      592.290        0.859        0.257      109.588       24.882        0.052      329.370       -3.937      865.477
12/11/2021  00:17:00     -124.237        8.192       -7.339       54.375       36.107       24.356     2956.628     1303.699      593.199        1.020        0.243      124.507       26.386        0.045      329.289       -4.069      865.509
12/11/2021  00:18:00      -93.479      -13.148       -1.681       34.939       36.426       31.884     1220.764     1326.878     1016.617        0.624        0.178       94.400       23.972        0.064      329.226       -4.173      865.524
12/11/2021  00:19:00      -86.640       18.001      -14.242       25.936       20.191       16.545      672.691      407.695      273.742        0.469        0.068       88.490        9.968        0.013      329.248       -4.138      865.501
12/11/2021  00:20:00      -45.624       22.417       -9.816       25.739       16.394       12.300      662.484      268.759      151.301        0.188        0.054       50.833        4.316        0.007      329.405       -3.882      865.482
12/11/2021  00:21:00      -56.824       11.057      -12.472       25.739       15.410       13.523      662.516      237.454      182.876        0.229        0.054       57.890       13.560        0.055      329.365       -3.947      865.483
12/11/2021  00:22:00      -38.651       24.031      -10.997       16.972        8.934        9.701      288.049       79.819       94.107        0.133        0.023       45.513        5.871        0.017      329.379       -3.923      865.457
12/11/2021  00:23:00        6.786       38.914       -8.164       22.585        6.329        7.668      510.101       40.061       58.799        0.112        0.030       39.501        9.997        0.064      329.485       -3.750      865.395
12/11/2021  00:24:00       37.398       34.607       -9.265       14.329        6.123        5.476      205.331       37.495       29.988        0.148        0.014       50.953        3.607        0.005      330.024       -2.868      865.364
12/11/2021  00:25:00       -3.083       12.293       -9.241        9.481       11.146        7.135       89.893      124.244       50.913        0.026        0.013       12.673        6.818        0.289      329.864       -3.129      865.353
12/11/2021  00:26:00      -20.772       12.036       -5.956       14.654       17.175       15.163      214.727      294.978      229.928        0.068        0.037       24.007        8.524        0.126      329.547       -3.649      865.335
12/11/2021  00:27:00      -23.143       21.340       -2.382       14.266        9.661        5.923      203.525       93.329       35.076        0.066        0.017       31.480        5.830        0.034      329.558       -3.631      865.294
12/11/2021  00:28:00      -37.163       15.774       -8.522        9.206        8.608        6.462       84.749       74.100       41.756        0.095        0.010       40.372        4.852        0.014      329.567       -3.615      865.282
12/11/2021  00:29:00      -28.601       11.245       -9.011       10.984        8.163        7.408      120.659       66.635       54.879        0.063        0.012       30.732        4.173        0.018      329.582       -3.589      865.280
12/11/2021  00:30:00      -41.965       30.086       -7.332       23.282       10.647        8.665      542.064      113.366       75.080        0.173        0.037       51.635        9.852        0.036      329.532       -3.673      865.262
12/11/2021  00:31:00      -49.411        7.586      -18.379       40.270       21.639       13.304     1621.640      468.250      177.008        0.255        0.113       49.990       13.077        0.068      329.515       -3.702      865.271
12/11/2021  00:32:00      -35.341       -3.001      -11.280       42.562       19.125       20.254     1811.544      365.749      410.217        0.199        0.129       35.468       20.171        0.323      329.422       -3.854      865.313
12/11/2021  00:33:00       -6.733       12.837       -3.617       19.862       20.469       12.241      394.518      418.998      149.840        0.059        0.048       14.496        6.459        0.199      329.362       -3.950      865.338
12/11/2021  00:34:00      -78.032       53.153       -7.232       40.749       18.759       18.953     1660.506      351.900      359.223        0.567        0.119       94.415       19.085        0.041      329.329       -4.006      865.341
12/11/2021  00:35:00      -65.047       18.136       -2.941       70.995       27.091       27.466     5040.322      733.912      754.401        0.555        0.326       67.528       35.410        0.275      329.303       -4.047      865.358
12/11/2021  00:36:00       13.568      -26.067       -4.126       28.296       27.449       25.529      800.651      753.458      651.740        0.154        0.110       29.387       14.993        0.260      329.388       -3.907      865.393
12/11/2021  00:37:00      -50.219       -8.620      -12.164       81.787       40.644       24.688     6689.146     1651.926      609.473        0.585        0.448       50.953       19.088        0.140      329.417       -3.861      865.417
12/11/2021  00:38:00      -86.002       24.446       -8.622       56.918       27.808       29.990     3239.654      773.302      899.425        0.649        0.246       89.409       34.963        0.153      329.132       -4.325      865.405
12/11/2021  00:39:00      -59.924       23.427       -5.898       33.729       26.923       15.525     1137.674      724.875      241.024        0.314        0.105       64.340        8.402        0.017      329.070       -4.428      865.367
12/11/2021  00:40:00      -19.188       20.876       -5.136       23.441       16.760       11.068      549.493      280.904      122.496        0.089        0.048       28.354        9.919        0.122      329.122       -4.343      865.335
12/11/2021  00:41:00        7.178       26.052       -8.850       16.406       18.664        8.174      269.160      348.361       66.821        0.075        0.034       27.023        9.180        0.115      329.424       -3.849      865.341
12/11/2021  00:42:00        4.645        7.687       -7.771       22.332       10.391       11.473      498.740      107.967      131.623        0.044        0.037        8.982        7.698        0.735      329.295       -4.060      865.374
12/11/2021  00:43:00      -48.306       11.266       -5.945       32.014       29.692       18.698     1024.877      881.599      349.631        0.238        0.113       49.602       12.815        0.067      329.274       -4.095      865.404
12/11/2021  00:44:00      -72.724       44.282      -12.235       28.018       23.771       16.075      785.000      565.064      258.392        0.450        0.080       85.145       12.791        0.023      329.384       -3.916      865.426
12/11/2021  00:45:00      -92.424       36.054      -14.553       27.168       23.138       17.113      738.076      535.351      292.849        0.581        0.078       99.208       14.418        0.021      329.432       -3.837      865.441
12/11/2021  00:46:00     -102.202       31.251      -13.144       34.837       28.730       20.651     1213.628      825.432      426.463        0.703        0.123      106.873       16.448        0.024      329.292       -4.065      865.450
12/11/2021  00:47:00      -77.790       27.526      -11.079       34.909       28.068       17.328     1218.605      787.813      300.248        0.462        0.115       82.516       14.615        0.031      329.278       -4.088      865.450
12/11/2021  00:48:00      -96.326       41.021      -17.125       24.528       22.937       15.576      601.600      526.115      242.612        0.631        0.069      104.697       11.292        0.012      329.468       -3.778      865.453
12/11/2021  00:49:00      -84.353       17.024      -15.840       41.873       26.904       21.862     1753.326      723.812      477.941        0.531        0.148       86.053        8.420        0.010      329.391       -3.904      865.461
12/11/2021  00:50:00      -33.618        3.798      -12.569       26.691       23.102       16.259      712.389      533.685      264.361        0.141        0.076       33.832        4.455        0.017      329.386       -3.911      865.464
12/11/2021  00:51:00      -97.916       31.562      -25.611       32.769       22.863       20.471     1073.834      522.738      419.077        0.663        0.101      102.877       21.102        0.042      329.391       -3.904      865.468
12/11/2021  00:52:00     -119.123       48.939      -24.608       30.929       22.029       19.070      956.628      485.284      363.649        0.950        0.090      128.784       15.089        0.014      329.298       -4.055      865.481
12/11/2021  00:53:00     -124.058       83.447      -22.058       40.805       32.352       23.818     1665.053     1046.666      567.312        1.306        0.164      149.512       22.471        0.023      329.387       -3.911      865.518
12/11/2021  00:54:00      -85.538       72.085      -14.928       32.287       37.523       22.379     1042.438     1407.951      500.802        0.784        0.148      111.862       14.190        0.016      329.399       -3.890      865.546
12/11/2021  00:55:00      -91.558       90.445      -18.166       56.630       69.221       28.687     3206.962     4791.500      822.939        1.286        0.441      128.698       27.822        0.047      329.610       -3.546      865.547
12/11/2021  00:56:00      -51.265      135.859      -22.060       52.069       55.790       23.569     2711.139     3112.539      555.509        1.397        0.319      145.210       19.803        0.019      329.705       -3.390      865.524
12/11/2021  00:57:00      -69.568       81.050      -15.298       36.911       28.172       19.630     1362.422      793.647      385.342        0.709        0.127      106.812       12.396        0.013      329.689       -3.415      865.497
12/11/2021  00:58:00      -38.370       62.583      -11.736       27.476       40.367       24.909      754.936     1629.476      620.446        0.427        0.150       73.409       11.112        0.023      329.741       -3.332      865.495
12/11/2021  00:59:00      -73.801       46.187      -12.318       34.527       45.478       26.013     1192.104     2068.249      676.654        0.583        0.197       87.063       19.916        0.052      329.764       -3.294      865.511
12/11/2021  01:00:00      -82.721       35.484      -28.113       39.887       44.855       27.901     1590.962     2011.999      778.485        0.664        0.219       90.011       14.321        0.025      329.762       -3.296      865.528
12/11/2021  01:01:00      -16.243      100.324       -9.537       29.750       63.381       19.409      885.084     4017.115      376.698        0.785        0.264      101.630       20.450        0.040      329.872       -3.117      865.524
12/11/2021  01:02:00      -65.062       79.724       -8.625       45.963       42.581       23.534     2112.618     1813.134      553.840        0.757        0.224      102.903       20.339        0.039      329.959       -2.975      865.533
12/11/2021  01:03:00      -29.402       71.057       -6.014       55.924       47.158       31.855     3127.517     2223.836     1014.744        0.616        0.318       76.900       18.780        0.060      329.952       -2.986      865.540
12/11/2021  01:04:00      -13.541       63.805       -9.916       48.504       44.833       35.402     2352.679     2009.955     1253.329        0.498        0.281       65.226       21.102        0.105      329.985       -2.931      865.544
12/11/2021  01:05:00      -54.737       98.133      -17.148       39.383       35.791       25.092     1551.037     1281.009      629.590        0.819        0.173      112.367       15.215        0.018      329.904       -3.065      865.545
12/11/2021  01:06:00      -36.249       51.842      -15.657       28.162       30.249       29.570      793.113      915.011      874.375        0.341        0.129       63.258       11.171        0.031      329.902       -3.067      865.548
12/11/2021  01:07:00      -67.462       41.485      -29.551       26.873       22.926       24.003      722.147      525.607      576.148        0.448        0.091       79.197       16.323        0.042      329.911       -3.052      865.551
12/11/2021  01:08:00      -67.655       17.757      -12.429       33.189       32.817       26.952     1101.478     1076.936      726.397        0.398        0.145       69.947       11.662        0.028      329.870       -3.121      865.555
12/11/2021  01:09:00      -21.470       37.200      -11.635       37.847       39.581       28.738     1432.429     1566.690      825.898        0.290        0.191       42.951       15.845        0.136      329.917       -3.044      865.562
12/11/2021  01:10:00       -5.986      124.286      -11.941       49.078       46.441       31.077     2408.641     2156.782      965.785        1.058        0.277      124.430       24.427        0.039      329.966       -2.962      865.565
12/11/2021  01:11:00        1.767      152.802      -15.176       49.841       40.707       26.750     2484.116     1657.050      715.550        1.422        0.243      152.812       20.471        0.018      330.038       -2.844      865.584
12/11/2021  01:12:00        0.249       62.448       -5.508       25.996       25.874       20.818      675.816      669.471      433.379        0.285        0.089       62.448       13.965        0.050      330.070       -2.792      865.608
12/11/2021  01:13:00        2.613       62.667      -11.386       40.749       49.869       26.480     1660.453     2486.879      701.204        0.446        0.242       62.722       19.264        0.094      330.037       -2.847      865.635
12/11/2021  01:14:00       -1.165       34.825       -6.616       29.621       21.517       16.157      877.404      462.998      261.061        0.143        0.080       34.845       15.405        0.195      330.038       -2.846      865.642
12/11/2021  01:15:00       42.739       28.862      -17.230       27.286       28.243       27.519      744.524      797.657      757.305        0.263        0.115       51.572       17.540        0.116      330.027       -2.863      865.648
12/11/2021  01:16:00       40.617        7.719      -11.542       19.074       22.786       13.644      363.805      519.220      186.169        0.146        0.053       41.344        3.612        0.008      329.976       -2.946      865.648
12/11/2021  01:17:00       21.115       -2.294      -11.553       21.342       15.175       15.911      455.463      230.272      253.147        0.076        0.047       21.240       13.948        0.431      329.968       -2.958      865.644
12/11/2021  01:18:00       36.623       -6.373      -22.562       19.742       27.372       14.455      389.731      749.216      208.959        0.162        0.067       37.173        9.420        0.064      329.875       -3.110      865.628
12/11/2021  01:19:00       49.966       14.114      -16.393       23.560       27.710       17.257      555.077      767.851      297.801        0.229        0.081       51.921        7.069        0.019      329.816       -3.208      865.600
12/11/2021  01:20:00       47.407       14.851       -7.286       45.376       30.345       19.852     2058.978      920.815      394.083        0.295        0.169       49.678       19.446        0.153      329.858       -3.140      865.577
12/11/2021  01:21:00       76.673       28.363       -7.538       35.901       21.308       14.441     1288.899      454.045      208.547        0.435        0.098       81.751       11.941        0.021      329.813       -3.214      865.541
12/11/2021  01:22:00       85.241       44.601      -17.247       28.166       21.722       15.876      793.304      471.845      252.032        0.553        0.076       96.205       12.381        0.017      329.792       -3.248      865.505
12/11/2021  01:23:00       90.663       51.309      -29.345       33.319       20.019       17.872     1110.130      400.745      319.421        0.677        0.092      104.175       14.184        0.019      329.902       -3.069      865.484
12/11/2021  01:24:00       81.215       59.056      -12.953       42.561       23.022       16.485     1811.458      530.015      271.742        0.643        0.131      100.417       14.831        0.022      329.883       -3.098      865.491
12/11/2021  01:25:00       47.973       40.257      -10.853       21.993       17.410       15.137      483.711      303.117      229.142        0.253        0.051       62.626       14.471        0.053      329.842       -3.167      865.499
12/11/2021  01:26:00       67.917       48.679      -12.791       13.076        9.888       10.023      170.993       97.771      100.467        0.376        0.018       83.560        5.822        0.005      329.869       -3.121      865.485
12/11/2021  01:27:00       77.881       39.305       -8.755       10.868       15.145        8.843      118.103      229.378       78.201        0.406        0.021       87.237        5.152        0.003      329.832       -3.182      865.463
12/11/2021  01:28:00       90.233       21.873      -15.321       17.337       22.233       11.182      300.578      494.287      125.047        0.489        0.046       92.847        6.478        0.005      329.792       -3.251      865.433
12/11/2021  01:29:00       86.630       24.330      -24.075       25.809       25.261       15.853      666.100      638.136      251.309        0.512        0.078       89.982        8.652        0.009      329.828       -3.192      865.401
12/11/2021  01:30:00       74.286       44.064      -29.064       19.097       22.974       16.733      364.710      527.782      280.010        0.474        0.059       86.372       10.820        0.016      329.956       -2.978      865.382
12/11/2021  01:31:00       85.357       58.886      -25.680       20.405       28.760       16.609      416.361      827.153      275.844        0.647        0.076      103.698       15.180        0.021      330.001       -2.905      865.354
12/11/2021  01:32:00       42.267       13.456      -19.313       31.981       21.281       14.427     1022.809      452.891      208.144        0.201        0.084       44.357       11.518        0.067      330.031       -2.857      865.329
12/11/2021  01:33:00        8.309       32.686       -6.441       23.513       20.687       15.153      552.843      427.970      229.612        0.119        0.061       33.726       11.700        0.120      329.951       -2.986      865.315
12/11/2021  01:34:00       20.765       14.417      -11.417       22.106       21.922       18.288      488.661      480.587      334.439        0.104        0.065       25.280       15.588        0.380      329.962       -2.968      865.307
12/11/2021  01:35:00       19.379       -3.031      -19.940       20.490       37.644       20.063      419.851     1417.094      402.509        0.151        0.112       19.615       13.631        0.483      330.031       -2.857      865.305
12/11/2021  01:36:00       42.731      -60.821      -19.765       23.270       21.521       22.976      541.508      463.168      527.915        0.372        0.077       74.332       18.987        0.065      330.014       -2.883      865.299
12/11/2021  01:37:00        5.023      -59.806      -10.784       18.946       25.174       19.990      358.948      633.718      399.604        0.256        0.070       60.017       17.889        0.089      330.102       -2.740      865.279
12/11/2021  01:38:00       10.852      -38.639      -12.288       19.765       19.804       14.525      390.662      392.204      210.986        0.138        0.050       40.134        4.947        0.015      330.098       -2.747      865.266
12/11/2021  01:39:00        4.589      -41.677      -23.741       13.319       18.570       11.185      177.406      344.836      125.115        0.148        0.032       41.929        9.890        0.056      330.034       -2.852      865.269
12/11/2021  01:40:00      -12.906      -28.132      -17.921       21.136       24.524       11.998      446.743      601.445      143.942        0.124        0.060       30.951        9.825        0.101      330.044       -2.836      865.277
12/11/2021  01:41:00      -28.916        9.607       -6.930       16.061       10.032       12.686      257.962      100.633      160.935        0.075        0.026       30.471        6.747        0.049      329.897       -3.077      865.281
12/11/2021  01:42:00      -27.802       13.360      -14.507       14.376       14.350       16.447      206.659      205.923      270.513        0.092        0.034       30.846       10.511        0.116      329.874       -3.114      865.270
12/11/2021  01:43:00       -6.654        1.880      -12.415       13.150       15.081       17.109      172.918      227.431      292.731        0.045        0.035        6.914       11.506        2.769      329.910       -3.053      865.256
12/11/2021  01:44:00       10.364        3.483      -13.759       12.499       12.242       12.085      156.218      149.859      146.049        0.038        0.023       10.934        4.006        0.134      329.892       -3.083      865.244
12/11/2021  01:45:00       12.740        6.094      -15.622       19.904       12.390       14.114      396.166      153.512      199.212        0.060        0.037       14.123        9.929        0.494      329.859       -3.136      865.223
12/11/2021  01:46:00        1.152        2.068      -12.986       12.072       14.538       12.531      145.736      211.345      157.026        0.034        0.026        2.367        8.235       12.106      329.875       -3.111      865.195
12/11/2021  01:47:00        3.319       11.302       -9.191       12.213       10.878       10.429      149.147      118.322      108.769        0.030        0.019       11.780        6.990        0.352      329.772       -3.283      865.197
12/11/2021  01:48:00        8.472       12.963       -4.262       11.417       12.105        9.855      130.348      146.538       97.122        0.032        0.019       15.486        7.861        0.258      329.805       -3.227      865.220
12/11/2021  01:49:00       43.703       23.278       -8.606       14.935        9.705        8.709      223.063       94.195       75.850        0.146        0.020       49.516        8.029        0.026      329.818       -3.205      865.230
12/11/2021  01:50:00       13.590       16.487        0.547       15.208       20.126       14.926      231.276      405.044      222.777        0.066        0.043       21.366       13.156        0.379      329.815       -3.210      865.241
12/11/2021  01:51:00       15.014       49.590        0.827       30.967       17.334       15.505      958.927      300.485      240.414        0.209        0.075       51.813        6.636        0.016      329.791       -3.250      865.230
12/11/2021  01:52:00      -12.296       45.601       -8.511       14.829       12.980       14.818      219.888      168.473      219.574        0.146        0.030       47.230        8.517        0.033      329.693       -3.410      865.230
12/11/2021  01:53:00      -10.238        4.496      -10.675       13.600       13.495       13.750      184.962      182.108      189.058        0.040        0.028       11.181        9.870        0.779      329.656       -3.469      865.234
12/11/2021  01:54:00       -8.480       -5.420       -9.604       12.738       20.801       12.282      162.247      432.700      150.851        0.047        0.037       10.064        6.203        0.380      329.733       -3.344      865.240
12/11/2021  01:55:00      -30.845      -43.924       -5.254       28.239       28.996       20.008      797.452      840.787      400.330        0.247        0.102       53.672       10.682        0.040      329.911       -3.051      865.245
12/11/2021  01:56:00      -46.974      -47.830        9.796       31.862       41.022       27.056     1015.168     1682.842      732.029        0.401        0.172       67.039       15.973        0.057      330.001       -2.907      865.233
12/11/2021  01:57:00      -55.003       -6.128        2.261       28.795       36.554       24.388      829.153     1336.216      594.771        0.291        0.138       55.343        8.926        0.026      329.790       -3.252      865.214
12/11/2021  01:58:00      -44.468       38.695       -5.638       42.884       20.319       13.539     1839.049      412.848      183.305        0.297        0.122       58.947       11.268        0.037      329.665       -3.453      865.202
12/11/2021  01:59:00       -6.144       -8.098       -9.146       24.083       30.617       22.457      579.974      937.411      504.326        0.110        0.101       10.165       20.074        3.900      329.677       -3.435      865.193
12/11/2021  02:00:00      -14.760        1.623      -13.214       21.926       21.940       18.777      480.769      481.350      352.574        0.085        0.066       14.849       10.286        0.480      329.654       -3.473      865.162
12/11/2021  02:01:00      -24.152        5.060      -20.490       13.855       15.465       13.134      191.965      239.170      172.501        0.082        0.030       24.676       10.431        0.179      329.675       -3.438      865.144
12/11/2021  02:02:00      -21.753       -5.158      -19.045       15.147       10.833       13.319      229.442      117.350      177.395        0.069        0.026       22.356        8.327        0.139      329.718       -3.369      865.136
12/11/2021  02:03:00       11.721      -22.357      -19.615       26.783       30.923       20.639      717.354      956.262      425.964        0.156        0.105       25.243        8.314        0.108      329.944       -2.999      865.123
12/11/2021  02:04:00       52.453       54.390       -7.708       40.654       36.722       27.769     1652.784     1348.521      771.116        0.477        0.189       75.562       11.333        0.022      329.767       -3.290      865.103
12/11/2021  02:05:00       99.943       -5.415      -14.585       56.270       25.558       21.055     3166.335      653.201      443.310        0.725        0.213      100.090       14.897        0.022      329.690       -3.415      865.084
12/11/2021  02:06:00      126.362        2.335      -15.621       28.406       23.475       16.389      806.914      551.077      268.611        0.892        0.081      126.384       12.247        0.009      329.563       -3.622      865.073
12/11/2021  02:07:00       97.314        4.191      -16.136       49.786       42.040       25.152     2478.682     1767.320      632.609        0.731        0.244       97.404       22.739        0.054      329.702       -3.397      865.069
12/11/2021  02:08:00      112.427       18.766      -25.451       48.675       55.870       21.546     2369.287     3121.449      464.248        0.980        0.298      113.983       13.204        0.013      329.692       -3.412      865.072
12/11/2021  02:09:00       86.220       -8.081      -20.163       47.942       50.540       22.543     2298.422     2554.281      508.186        0.663        0.268       86.598       19.130        0.049      329.697       -3.403      865.072
12/11/2021  02:10:00      123.388       36.201      -14.935       20.458       28.419       20.001      418.529      807.660      400.052        0.919        0.081      128.589       10.201        0.006      329.484       -3.752      865.075
12/11/2021  02:11:00      139.557        1.929      -16.349       33.186       30.841       18.232     1101.343      951.187      332.422        1.107        0.119      139.570       17.577        0.016      329.507       -3.716      865.066
12/11/2021  02:12:00       96.487        4.825      -16.342       25.839       22.660       14.048      667.658      513.483      197.333        0.549        0.069       96.608        9.368        0.009      329.476       -3.765      865.062
12/11/2021  02:13:00       55.626       48.652      -14.870       16.368       14.088       13.707      267.897      198.482      187.878        0.317        0.033       73.900        9.243        0.016      329.414       -3.867      865.065
12/11/2021  02:14:00       68.643       52.400      -12.919       21.992       12.926       12.256      483.647      167.085      150.200        0.421        0.040       86.358        7.465        0.007      329.432       -3.837      865.071
12/11/2021  02:15:00       97.017       34.926      -23.014       18.446       26.520       12.420      340.265      703.309      154.266        0.618        0.060      103.112        8.282        0.006      329.477       -3.763      865.082
12/11/2021  02:16:00       78.028       21.085       -6.883       18.415       18.033        9.793      339.110      325.175       95.896        0.367        0.038       80.827        8.275        0.010      329.442       -3.821      865.091
12/11/2021  02:17:00       65.311       38.421       -7.353       15.285       14.883       11.266      233.632      221.495      126.930        0.319        0.029       75.774        9.198        0.015      329.419       -3.859      865.092
12/11/2021  02:18:00       81.999       48.470      -14.775       16.156       12.186       10.938      261.028      148.505      119.629        0.491        0.026       95.253        6.120        0.004      329.393       -3.900      865.078
12/11/2021  02:19:00       87.503       39.674      -16.759       22.523       19.212       18.429      507.277      369.108      339.615        0.536        0.061       96.077       12.217        0.016      329.529       -3.679      865.059
12/11/2021  02:20:00       96.742       46.427      -14.386       13.918       15.477       10.787      193.711      239.532      116.362        0.614        0.027      107.306        6.415        0.004      329.406       -3.879      865.042
12/11/2021  02:21:00       96.135       45.861       -7.300       22.638       20.006       11.703      512.468      400.239      136.957        0.622        0.052      106.514       11.976        0.013      329.357       -3.961      865.027
12/11/2021  02:22:00       82.564       38.975       -9.007       17.632       14.682       11.199      310.872      215.568      125.414        0.453        0.033       91.301        9.641        0.011      329.354       -3.966      865.025
12/11/2021  02:23:00       44.789       52.534      -10.280       19.251       19.347       13.730      370.614      374.289      188.524        0.290        0.047       69.035        7.454        0.012      329.331       -4.001      865.031
12/11/2021  02:24:00       42.822       54.908       -9.632       20.243       13.850       12.563      409.766      191.809      157.841        0.285        0.038       69.632        9.473        0.019      329.362       -3.951      865.068
12/11/2021  02:25:00       41.450       58.617       -9.284       18.632       17.675       14.360      347.142      312.396      206.212        0.305        0.043       71.792        9.103        0.016      329.351       -3.970      865.087
12/11/2021  02:26:00       47.430       67.649       -5.121       21.013       21.259       15.208      441.556      451.960      231.271        0.399        0.056       82.620       13.110        0.025      329.359       -3.956      865.122
12/11/2021  02:27:00       27.130       61.049       -1.848       23.452       28.636       16.108      549.992      820.032      259.468        0.305        0.081       66.806       13.093        0.038      329.486       -3.748      865.155
12/11/2021  02:28:00       41.714       49.616       -4.888       22.930       20.310       14.605      525.768      412.478      213.312        0.269        0.058       64.822       12.953        0.040      329.476       -3.764      865.184
12/11/2021  02:29:00       66.171       48.715      -12.308       14.953       14.622       11.380      223.595      213.812      129.512        0.373        0.028       82.169        8.704        0.011      329.453       -3.803      865.184
12/11/2021  02:30:00       90.719       48.541      -12.905        6.111       10.320        5.479       37.348      106.511       30.023        0.546        0.009      102.889        4.489        0.002      329.497       -3.731      865.176
12/11/2021  02:31:00       65.559       32.131      -11.783       10.659        7.853        5.793      113.615       61.674       33.560        0.284        0.010       73.009        3.434        0.002      329.489       -3.742      865.175
12/11/2021  02:32:00       40.187       24.231      -10.826        6.812        7.880        6.934       46.399       62.098       48.075        0.124        0.008       46.927        3.073        0.004      329.492       -3.741      865.188
12/11/2021  02:33:00       60.864       23.635      -13.830       11.294       10.085        7.143      127.557      101.707       51.021        0.237        0.014       65.292        4.683        0.005      329.532       -3.676      865.192
12/11/2021  02:34:00       53.894       11.435      -25.577       31.280       43.925       19.014      978.460     1929.378      361.529        0.348        0.163       55.093       14.814        0.072      329.617       -3.533      865.180
12/11/2021  02:35:00       35.346       11.444      -22.238       36.112       46.298       23.241     1304.057     2143.484      540.124        0.293        0.199       37.153       18.675        0.253      329.682       -3.428      865.154
12/11/2021  02:36:00       63.102       40.402       -8.985       22.679       24.592       16.984      514.333      604.758      288.447        0.355        0.070       74.928        6.380        0.007      329.600       -3.561      865.127
12/11/2021  02:37:00       41.825       22.761       -7.588        9.204        8.721        5.988       84.710       76.051       35.850        0.126        0.010       47.617        2.564        0.003      329.531       -3.675      865.131
12/11/2021  02:38:00       41.307       19.970       -6.399       10.003        8.045        4.829      100.068       64.722       23.321        0.117        0.009       45.881        4.031        0.008      329.562       -3.626      865.145
12/11/2021  02:39:00       42.678       15.690      -10.995       21.538        9.167        7.756      463.874       84.029       60.154        0.140        0.030       45.471        6.193        0.019      329.581       -3.593      865.138
12/11/2021  02:40:00       55.366       11.802      -11.979       12.858       14.724       11.446      165.336      216.803      131.018        0.193        0.026       56.609        7.324        0.017      329.681       -3.429      865.119
12/11/2021  02:41:00       45.631        9.516      -10.867       13.802       14.782       11.059      190.505      218.515      122.300        0.141        0.027       46.613       10.100        0.047      329.643       -3.489      865.126
12/11/2021  02:42:00       39.815       16.812      -10.918       12.722       18.800        9.688      161.855      353.437       93.863        0.130        0.030       43.219        4.272        0.010      329.688       -3.418      865.158
12/11/2021  02:43:00       32.155       26.509      -17.178       22.996       26.357       13.050      528.821      694.684      170.309        0.171        0.070       41.673        9.527        0.052      329.729       -3.349      865.187
12/11/2021  02:44:00      -36.351       -4.299      -27.814       35.949       21.902       15.163     1292.304      479.694      229.923        0.206        0.100       36.604        9.205        0.063      329.731       -3.348      865.186
12/11/2021  02:45:00      -40.517      -11.712      -11.760       20.016       20.712       17.533      400.629      428.978      307.415        0.153        0.057       42.176        8.519        0.041      329.744       -3.327      865.171
12/11/2021  02:46:00       -3.158      -19.198      -12.285       19.796       28.031       12.027      391.880      785.736      144.639        0.093        0.066       19.456        7.468        0.147      329.822       -3.200      865.166
12/11/2021  02:47:00       14.769        5.769      -13.195       20.595       19.489       12.885      424.157      379.831      166.031        0.070        0.049       15.856        7.943        0.251      329.783       -3.263      865.166
12/11/2021  02:48:00        5.724        0.701      -19.254       18.857       17.419       13.133      355.594      303.421      172.488        0.062        0.042        5.767        9.560        2.748      329.807       -3.225      865.176
12/11/2021  02:49:00       17.619      -28.548       -9.587       27.484       33.918       26.512      755.378     1150.463      702.868        0.191        0.130       33.547       22.587        0.453      329.823       -3.198      865.188
12/11/2021  02:50:00       -1.659       -6.509       11.397       17.508       26.592       15.976      306.518      707.138      255.238        0.072        0.063        6.717       12.659        3.551      329.765       -3.293      865.195
12/11/2021  02:51:00       27.101       35.797       -4.760       21.506       15.089       13.257      462.528      227.684      175.742        0.145        0.043       44.899        8.445        0.035      329.593       -3.573      865.187
12/11/2021  02:52:00       55.132       42.497        0.320       22.295       14.302       18.407      497.062      204.538      338.802        0.294        0.052       69.610       11.439        0.027      329.515       -3.703      865.188
12/11/2021  02:53:00       43.843       17.068       -9.303        9.333       12.358        5.929       87.100      152.720       35.157        0.129        0.014       47.048        4.481        0.009      329.523       -3.689      865.201
12/11/2021  02:54:00       34.559       23.223       -7.765       19.260       14.684        7.853      370.950      215.617       61.665        0.122        0.032       41.637        4.226        0.010      329.510       -3.708      865.212
12/11/2021  02:55:00       46.065       46.260      -11.486        9.017       12.879        9.577       81.313      165.856       91.722        0.237        0.017       65.284        3.550        0.003      329.536       -3.668      865.208
12/11/2021  02:56:00       18.328       21.788       -3.594       15.921       16.357        7.860      253.486      267.543       61.777        0.070        0.029       28.471        8.762        0.095      329.565       -3.618      865.203
12/11/2021  02:57:00      -34.031       30.501       -9.791       19.328       16.051        9.689      373.583      257.628       93.874        0.145        0.036       45.699        4.967        0.012      329.656       -3.469      865.205
12/11/2021  02:58:00      -41.889       11.030      -12.748       24.806       21.609       15.152      615.327      466.931      229.569        0.168        0.066       43.317        9.386        0.047      329.646       -3.487      865.221
12/11/2021  02:59:00      -79.644       24.513      -12.158       31.537       23.778       15.974      994.552      565.402      255.178        0.445        0.091       83.331       11.806        0.020      329.585       -3.587      865.237
12/11/2021  03:00:00      -63.409       38.056       -9.072       23.652       18.231       15.755      559.412      332.374      248.225        0.335        0.057       73.952       11.057        0.022      329.535       -3.667      865.234
12/11/2021  03:01:00      -61.522       33.505       -9.407       13.532       15.223       13.166      183.123      231.736      173.336        0.279        0.029       70.054        9.720        0.019      329.539       -3.663      865.220
12/11/2021  03:02:00      -71.294       30.264      -13.878       17.164       14.170       14.268      294.620      200.778      203.563        0.345        0.035       77.452       11.928        0.024      329.620       -3.528      865.217
12/11/2021  03:03:00      -95.209       33.397      -20.119       15.233       13.200       16.478      232.049      174.248      271.508        0.563        0.034      100.897       10.505        0.011      329.619       -3.531      865.218
12/11/2021  03:04:00     -102.463       26.618       -3.890       25.447       18.487       16.879      647.533      341.783      284.891        0.625        0.064      105.864       14.583        0.019      329.556       -3.634      865.218
12/11/2021  03:05:00      -99.151       39.955      -13.377       23.176       15.696       11.357      537.146      246.379      128.990        0.626        0.046      106.899       10.379        0.009      329.501       -3.724      865.210
12/11/2021  03:06:00      -87.831       20.931       -8.644       32.898       23.928       20.961     1082.251      572.564      439.380        0.516        0.105       90.291       20.241        0.050      329.543       -3.655      865.206
12/11/2021  03:07:00      -75.646        7.850       -1.562       27.175       25.573       18.786      738.475      653.961      352.906        0.377        0.087       76.052        6.458        0.007      329.482       -3.756      865.186
12/11/2021  03:08:00      -86.004       13.802       -8.148       24.127       16.020       15.205      582.134      256.654      231.179        0.436        0.053       87.105        7.036        0.007      329.518       -3.697      865.159
12/11/2021  03:09:00      -74.600       19.899      -11.618       19.093       21.641       13.905      364.526      468.328      193.339        0.356        0.051       77.209       11.697        0.023      329.535       -3.668      865.137
12/11/2021  03:10:00      -63.885       18.492      -10.139       23.861       17.729       16.164      569.348      314.306      261.285        0.284        0.057       66.508       13.332        0.040      329.613       -3.540      865.116
12/11/2021  03:11:00      -53.668        8.905      -11.332       15.981       13.807       10.453      255.402      190.641      109.265        0.182        0.028       54.402        7.955        0.021      329.649       -3.482      865.082
12/11/2021  03:12:00      -64.410       13.747       -7.938       10.986       13.970       12.509      120.690      195.164      156.472        0.244        0.024       65.860        7.217        0.012      329.679       -3.431      865.052
12/11/2021  03:13:00      -60.197       20.595       -6.092       22.924       17.488       15.644      525.514      305.823      244.732        0.258        0.054       63.623       10.772        0.029      329.727       -3.353      865.033
12/11/2021  03:14:00      -75.739        9.709      -11.835       13.981       16.548       10.090      195.475      273.841      101.818        0.327        0.029       76.359        8.527        0.012      329.675       -3.438      865.007
12/11/2021  03:15:00      -20.703      -14.404       -6.526       27.955       21.372       13.687      781.456      456.745      187.326        0.105        0.071       25.221       11.755        0.217      329.841       -3.169      864.974
12/11/2021  03:16:00       -4.891       -8.515       -4.454       16.254       19.966       12.052      264.193      398.654      145.263        0.046        0.040        9.819        6.106        0.387      329.825       -3.195      864.939
12/11/2021  03:17:00      -17.069        2.020       -7.411       28.492       21.272       17.804      811.805      452.508      316.978        0.097        0.079       17.188       15.958        0.862      329.832       -3.182      864.917
12/11/2021  03:18:00      -11.440        3.417       -3.369       15.154       11.556       12.205      229.629      133.540      148.959        0.033        0.026       11.939        8.013        0.450      329.768       -3.287      864.901
12/11/2021  03:19:00      -15.332        2.300      -12.599       14.079       16.454       11.248      198.229      270.746      126.512        0.050        0.030       15.504        5.660        0.133      329.739       -3.334      864.862
12/11/2021  03:20:00       -3.643       23.185       -2.105       15.330        7.105        7.808      235.007       50.477       60.969        0.045        0.017       23.470        6.442        0.075      329.708       -3.386      864.820
12/11/2021  03:21:00      -10.222       22.750       -9.188       14.008       12.208        9.996      196.228      149.036       99.910        0.058        0.022       24.941        8.021        0.103      329.734       -3.343      864.791
12/11/2021  03:22:00       -6.802       20.734      -11.354       14.557        8.101       10.941      211.904       65.632      119.695        0.050        0.020       21.821        3.652        0.028      329.708       -3.385      864.749
12/11/2021  03:23:00       32.495       25.324      -10.626       21.056       11.053        9.980      443.336      122.175       99.610        0.124        0.033       41.197       12.043        0.085      329.697       -3.404      864.725
12/11/2021  03:24:00       45.006       37.295       -6.629       27.038       19.877       13.883      731.061      395.100      192.734        0.239        0.066       58.451        9.776        0.028      329.658       -3.467      864.742
12/11/2021  03:25:00       15.922       18.893        3.653       25.294       26.329       21.787      639.780      693.207      474.672        0.122        0.090       24.707       14.380        0.339      329.747       -3.322      864.774
12/11/2021  03:26:00       35.886       19.747      -16.236       29.598       36.861       23.772      876.050     1358.713      565.097        0.237        0.140       40.961       13.098        0.102      329.770       -3.283      864.773
12/11/2021  03:27:00      106.846       -1.009      -23.419       73.556       32.013       27.188     5410.515     1024.839      739.173        0.957        0.359      106.851       32.531        0.093      329.706       -3.389      864.752
12/11/2021  03:28:00      174.949        2.479      -34.793       32.311       30.439       18.661     1043.973      926.537      348.235        1.707        0.116      174.966        5.896        0.001      329.639       -3.500      864.741
12/11/2021  03:29:00       96.389        2.295      -16.478       38.169       26.803       19.831     1456.848      718.388      393.250        0.607        0.128       96.416       12.233        0.016      329.528       -3.678      864.745
12/11/2021  03:30:00      109.061       19.631      -10.700       22.437       17.572       14.343      503.416      308.785      205.722        0.671        0.051      110.814       10.146        0.008      329.461       -3.790      864.753
12/11/2021  03:31:00      109.653       29.048      -14.321       20.126       17.291        9.721      405.075      298.964       94.490        0.694        0.040      113.435        5.084        0.002      329.457       -3.796      864.739
12/11/2021  03:32:00      112.443       16.400      -10.939       24.058       25.295       14.425      578.774      639.827      208.079        0.723        0.071      113.633       12.373        0.012      329.488       -3.745      864.714
12/11/2021  03:33:00      108.498       -0.254       -7.951       37.502       29.226       18.346     1406.388      854.151      336.566        0.722        0.130      108.498       17.614        0.026      329.530       -3.678      864.698
12/11/2021  03:34:00       51.610        3.958        3.799       32.658       30.410       17.336     1066.530      924.740      300.543        0.249        0.115       51.762       14.874        0.083      329.488       -3.746      864.710
12/11/2021  03:35:00       62.860       53.785       -8.208       24.087       19.593       15.671      580.184      383.903      245.576        0.406        0.060       82.730        2.209        0.001      329.412       -3.871      864.745
12/11/2021  03:36:00       57.796       48.785      -10.170       26.512       16.067       14.381      702.910      258.158      206.818        0.350        0.058       75.633        8.465        0.013      329.358       -3.958      864.771
12/11/2021  03:37:00       79.105       30.940      -12.776       11.848       11.461       10.935      140.378      131.359      119.585        0.388        0.020       84.941        3.468        0.002      329.412       -3.869      864.744
12/11/2021  03:38:00      101.918       31.982      -15.186       18.889       20.432       11.501      356.803      417.474      132.269        0.627        0.045      106.818        7.838        0.005      329.409       -3.876      864.696
12/11/2021  03:39:00       28.826        2.883        3.993       49.706       39.692       32.468     2470.672     1575.480     1054.157        0.298        0.255       28.970       11.810        0.166      329.555       -3.634      864.672
12/11/2021  03:40:00       48.662        6.675       -0.031       39.114       24.613       19.448     1529.944      605.808      378.223        0.246        0.126       49.118       17.724        0.130      329.531       -3.675      864.680
12/11/2021  03:41:00       87.680       28.264      -12.215       15.081       17.172       11.702      227.426      294.880      136.932        0.465        0.033       92.123        6.046        0.004      329.364       -3.948      864.672
12/11/2021  03:42:00       79.274       20.546      -18.213       18.222       12.644       10.262      332.048      159.882      105.300        0.382        0.030       81.893        5.753        0.005      329.394       -3.899      864.637
12/11/2021  03:43:00       70.438       24.782       -7.918       15.049        9.929        7.006      226.463       98.583       49.088        0.301        0.019       74.671        6.090        0.007      329.402       -3.886      864.620
12/11/2021  03:44:00       71.734       29.172      -14.993        8.928       15.347       10.207       79.703      235.532      104.187        0.332        0.021       77.439        3.882        0.003      329.473       -3.771      864.609
12/11/2021  03:45:00       81.420       54.976       -1.683       33.141       29.025       23.815     1098.303      842.456      567.141        0.608        0.125       98.242       11.607        0.014      329.541       -3.659      864.577
12/11/2021  03:46:00       55.844       32.220      -23.833       39.520       48.847       35.487     1561.825     2385.981     1259.338        0.496        0.260       64.472       18.148        0.079      329.702       -3.395      864.529
12/11/2021  03:47:00       69.092       -1.196      -20.022       40.832       52.828       28.571     1667.286     2790.810      816.287        0.522        0.264       69.103       19.085        0.076      329.665       -3.455      864.515
12/11/2021  03:48:00       76.653       -5.780      -11.249       25.622       35.089       26.152      656.480     1231.247      683.921        0.430        0.129       76.871        9.457        0.015      329.625       -3.520      864.527
12/11/2021  03:49:00       45.756      -12.037      -10.127       36.501       26.935       26.259     1332.297      725.493      689.549        0.254        0.137       47.313       20.739        0.192      329.573       -3.606      864.549
12/11/2021  03:50:00       81.436      -17.665      -14.747       34.160       36.222       18.184     1166.894     1312.046      330.654        0.498        0.140       83.330       13.748        0.027      329.585       -3.587      864.534
12/11/2021  03:51:00       25.487      -29.275      -29.465       53.324       52.527       24.754     2843.501     2759.087      612.775        0.429        0.311       38.816       20.899        0.290      329.776       -3.273      864.520
12/11/2021  03:52:00      -38.478       -6.915        7.449       43.038       43.341       35.500     1852.271     1878.454     1260.223        0.329        0.250       39.095       19.324        0.244      330.102       -2.740      864.513
12/11/2021  03:53:00       66.807       53.160      -19.334       55.464       37.200       24.441     3076.242     1383.873      597.371        0.636        0.253       85.376       16.648        0.038      329.526       -3.684      864.548
12/11/2021  03:54:00       79.561       61.668      -11.688       47.378       25.078       21.799     2244.691      628.913      475.195        0.681        0.167      100.662       21.021        0.044      329.422       -3.852      864.613
12/11/2021  03:55:00      101.576       78.513      -11.842       29.722       29.450       24.944      883.396      867.310      622.184        0.950        0.119      128.382       18.402        0.021      329.497       -3.732      864.700
12/11/2021  03:56:00       97.077       61.685      -20.394        7.634        9.727        6.695       58.273       94.617       44.822        0.692        0.010      115.018        5.251        0.002      329.423       -3.851      864.754
12/11/2021  03:57:00       61.623       47.308      -12.789       17.125        9.898        8.371      293.280       97.977       70.071        0.333        0.023       77.688        4.111        0.003      329.413       -3.869      864.790
12/11/2021  03:58:00       43.541       42.971      -16.190        8.673       12.001        9.474       75.220      144.020       89.766        0.216        0.015       61.175        6.952        0.013      329.437       -3.829      864.807
12/11/2021  03:59:00       42.309       29.992      -12.557        8.196        9.368        8.494       67.182       87.757       72.143        0.154        0.011       51.861        6.224        0.014      329.444       -3.815      864.794
12/11/2021  04:00:00       43.230       27.821      -11.640       12.460       13.857        7.829      155.243      192.008       61.288        0.159        0.020       51.409        5.206        0.010      329.428       -3.841      864.749
12/11/2021  04:01:00       97.203       20.718      -15.801       14.647       20.223       11.526      214.548      408.952      132.838        0.544        0.038       99.386        8.224        0.007      329.452       -3.804      864.684
12/11/2021  04:02:00       92.356       16.625       -8.827       20.123       15.181       15.784      404.916      230.455      249.143        0.488        0.044       93.841       12.207        0.017      329.427       -3.847      864.651
12/11/2021  04:03:00       93.159       26.739      -15.122       17.108       15.836       13.482      292.699      250.778      181.773        0.517        0.036       96.920       11.834        0.015      329.396       -3.895      864.654
12/11/2021  04:04:00       92.272        6.914      -15.544       24.813       22.968       14.289      615.694      527.547      204.179        0.508        0.067       92.531       13.062        0.020      329.421       -3.854      864.657
12/11/2021  04:05:00       96.624       45.981      -24.799       33.882       29.996       13.050     1147.968      899.766      170.307        0.714        0.111      107.006       10.989        0.011      329.440       -3.825      864.644
12/11/2021  04:06:00       89.754       47.850      -28.251       19.357       16.316       16.930      374.694      266.215      286.626        0.604        0.046      101.712        9.720        0.009      329.448       -3.813      864.615
12/11/2021  04:07:00       74.991       21.849      -20.004        8.857        8.994       10.756       78.438       80.895      115.687        0.339        0.014       78.109        3.394        0.002      329.381       -3.921      864.588
12/11/2021  04:08:00       61.790       12.376      -24.519        8.751       10.962       10.640       76.585      120.159      113.201        0.244        0.015       63.017        5.492        0.008      329.385       -3.915      864.557
12/11/2021  04:09:00       33.769       27.836      -23.010       30.107       27.159       14.930      906.408      737.588      222.919        0.216        0.093       43.763       11.077        0.064      329.460       -3.791      864.559
12/11/2021  04:10:00       40.718       23.709      -12.489       27.783       37.934       25.268      771.883     1438.995      638.462        0.261        0.142       47.118       13.681        0.084      329.507       -3.714      864.566
12/11/2021  04:11:00       62.311       38.804      -19.819       24.901       14.702       12.470      620.070      216.141      155.496        0.339        0.050       73.406        6.449        0.008      329.422       -3.852      864.555
12/11/2021  04:12:00       22.572       19.918       -4.878        8.536       13.406        7.067       72.866      179.713       49.946        0.062        0.015       30.104        4.243        0.020      329.397       -3.894      864.526
12/11/2021  04:13:00       15.984       33.667       -1.301       22.277       18.762       13.675      496.268      352.020      187.006        0.121        0.052       37.269       13.322        0.128      329.469       -3.776      864.501
12/11/2021  04:14:00       23.963       11.244       -7.898       11.334        8.364        7.394      128.457       69.954       54.673        0.051        0.013       26.470        5.076        0.037      329.430       -3.843      864.507
12/11/2021  04:15:00        6.291       -9.399       -7.431       14.083       22.375       13.377      198.331      500.662      178.946        0.053        0.044       11.310        8.568        0.574      329.551       -3.641      864.550
12/11/2021  04:16:00       -0.833      -60.674      -40.515       28.387       23.500       18.015      805.837      552.260      324.525        0.350        0.084       60.680       10.669        0.031      329.570       -3.611      864.560
12/11/2021  04:17:00      -22.547      -13.365      -16.838       28.749       16.030       14.330      826.497      256.945      205.340        0.113        0.064       26.210       10.361        0.156      329.585       -3.585      864.519
12/11/2021  04:18:00        3.828       15.771       -4.409       26.882       10.989        9.111      722.655      120.751       83.003        0.060        0.046       16.229        8.504        0.275      329.530       -3.676      864.483
12/11/2021  04:19:00      -19.838       -1.228      -13.347       21.225       39.466       11.255      450.519     1557.578      126.686        0.135        0.107       19.876       15.353        0.597      329.638       -3.499      864.505
12/11/2021  04:20:00      -16.228       -5.912      -14.571       15.178       15.430       12.079      230.374      238.077      145.902        0.056        0.031       17.271        9.089        0.277      329.688       -3.416      864.532
12/11/2021  04:21:00      -18.070        2.105       -5.681       18.483       25.328       14.983      341.609      641.486      224.478        0.079        0.060       18.192       10.716        0.347      329.682       -3.427      864.530
12/11/2021  04:22:00       -2.037      -15.153       -8.934       17.016       24.520       11.107      289.545      601.247      123.358        0.066        0.051       15.289        3.922        0.066      329.785       -3.260      864.536
12/11/2021  04:23:00       11.107      -18.514       -9.813       12.932       12.611       10.531      167.229      159.027      110.906        0.050        0.022       21.590        2.459        0.013      329.781       -3.265      864.552
12/11/2021  04:24:00       -1.582      -21.915       -2.725       14.596       28.947       15.963      213.033      837.906      254.808        0.090        0.065       21.972        5.878        0.072      329.837       -3.177      864.569
12/11/2021  04:25:00      -34.248      -29.133       -1.179       31.266       23.031       17.435      977.541      530.408      303.995        0.192        0.091       44.963       15.300        0.116      329.819       -3.204      864.569
12/11/2021  04:26:00      -34.438       10.991       -8.792       19.687       13.310       12.897      387.598      177.167      166.336        0.106        0.037       36.149        9.003        0.062      329.680       -3.432      864.545
12/11/2021  04:27:00        3.838       18.396       -1.026       16.664        8.097       10.505      277.699       65.566      110.347        0.040        0.023       18.792        6.133        0.107      329.650       -3.479      864.527
12/11/2021  04:28:00      -11.905       12.890       -2.224       23.769       13.262       11.786      564.984      175.878      138.899        0.060        0.044       17.547        6.866        0.153      329.674       -3.440      864.543
12/11/2021  04:29:00       42.423       28.068      -11.385       57.845       35.376       18.887     3346.032     1251.453      356.721        0.383        0.248       50.868        7.301        0.021      329.697       -3.403      864.532
12/11/2021  04:30:00      140.110       24.675      -14.604       25.669       26.678       17.576      658.921      711.705      308.900        1.107        0.084      142.267       11.570        0.007      329.461       -3.791      864.495
12/11/2021  04:31:00       77.729       15.340       -3.000       43.196       24.756       21.945     1865.878      612.864      481.578        0.462        0.148       79.228       24.313        0.094      329.495       -3.734      864.487
12/11/2021  04:32:00       84.358       18.586      -11.372       20.935       20.833       11.473      438.277      434.008      131.640        0.430        0.050       86.381        6.523        0.006      329.471       -3.775      864.499
12/11/2021  04:33:00       77.730       33.053      -16.509        8.740       14.898        9.950       76.391      221.949       98.996        0.390        0.020       84.466        3.904        0.002      329.460       -3.791      864.492
12/11/2021  04:34:00       66.832       36.669      -17.898       11.247       10.353        9.633      126.493      107.192       92.792        0.323        0.016       76.231        4.895        0.004      329.532       -3.673      864.462
12/11/2021  04:35:00       46.295       37.072      -13.821       13.280        7.856       10.016      176.359       61.717      100.329        0.202        0.017       59.309        9.965        0.028      329.537       -3.667      864.441
12/11/2021  04:36:00       17.077       32.275       -6.358        9.302        6.064        4.884       86.524       36.777       23.856        0.076        0.007       36.514        1.532        0.002      329.545       -3.653      864.438
12/11/2021  04:37:00       13.178       29.704      -13.164       10.749       11.093        9.686      115.533      123.062       93.820        0.078        0.017       32.496        8.272        0.065      329.646       -3.486      864.463
12/11/2021  04:38:00       15.089       32.714      -13.476       11.739       11.003        8.331      137.813      121.066       69.413        0.090        0.016       36.026        7.899        0.048      329.643       -3.491      864.488
12/11/2021  04:39:00       -3.734       40.434       -0.561       21.127       15.932       12.734      446.364      253.826      162.155        0.126        0.043       40.606       10.673        0.069      329.693       -3.411      864.502
12/11/2021  04:40:00      -14.910       31.699        0.541       12.297       16.008       13.550      151.208      256.261      183.604        0.091        0.030       35.031       11.952        0.116      329.663       -3.457      864.495
12/11/2021  04:41:00       -8.354       49.518       -6.914       15.668       20.620       10.723      245.478      425.203      114.974        0.168        0.039       50.218        5.939        0.014      329.694       -3.408      864.493
12/11/2021  04:42:00       -4.679       65.073       -7.825       14.920       22.376       14.596      222.620      500.698      213.036        0.263        0.047       65.241       10.272        0.025      329.679       -3.432      864.499
12/11/2021  04:43:00      -18.952       23.954      -10.760       22.204       17.870       15.181      493.014      319.341      230.467        0.105        0.052       30.545       11.560        0.143      329.719       -3.368      864.500
12/11/2021  04:44:00      -19.954        7.723       -3.315       18.721       29.375       10.856      350.476      862.889      117.848        0.090        0.067       21.396        5.172        0.058      329.712       -3.379      864.506
12/11/2021  04:45:00        1.391       -1.970      -10.324       17.994       10.961        9.018      323.777      120.133       81.317        0.032        0.026        2.412        5.045        4.377      329.701       -3.394      864.507
12/11/2021  04:46:00      -33.497       10.332       -6.109       30.835       21.741       15.045      950.795      472.692      226.338        0.146        0.082       35.054        6.655        0.036      329.769       -3.286      864.507
12/11/2021  04:47:00      -61.851       22.879       -8.566       35.035       25.127       17.893     1227.453      631.375      320.170        0.330        0.109       65.947        7.153        0.012      329.806       -3.225      864.510
12/11/2021  04:48:00        9.044        2.000      -13.930       15.842       19.290       13.284      250.985      372.117      176.466        0.054        0.040        9.263        4.124        0.198      329.824       -3.196      864.486
12/11/2021  04:49:00       -6.890       23.852      -24.024       12.829       16.798       15.037      164.573      282.167      226.097        0.093        0.034       24.827       11.600        0.218      329.717       -3.370      864.451
12/11/2021  04:50:00      -18.483       36.531      -10.754       11.936       10.585       10.824      142.467      112.045      117.169        0.108        0.019       40.941        7.967        0.038      329.694       -3.408      864.415
12/11/2021  04:51:00      -17.726       31.052       -7.193       15.821       26.639        9.942      250.300      709.661       98.847        0.119        0.053       35.755        6.813        0.036      329.766       -3.290      864.406
12/11/2021  04:52:00      -55.026       26.201      -17.545       29.443       20.944       16.181      866.908      438.665      261.832        0.279        0.078       60.946        9.628        0.025      329.802       -3.232      864.442
12/11/2021  04:53:00       -5.824       -9.947       -6.517       15.643       24.085       14.986      244.701      580.086      224.566        0.061        0.052       11.527        8.249        0.512      329.835       -3.177      864.471
12/11/2021  04:54:00      -26.980       17.455       -3.267       14.503       10.907       14.719      210.340      118.957      216.655        0.079        0.027       32.134       11.970        0.139      329.739       -3.336      864.458
12/11/2021  04:55:00      -49.846       25.176       -8.067       22.048       16.520       13.446      486.119      272.927      180.805        0.206        0.047       55.843       11.176        0.040      329.798       -3.238      864.440
12/11/2021  04:56:00      -60.784       25.544      -14.269       20.789       16.486       13.983      432.173      271.792      195.517        0.272        0.045       65.933       11.566        0.031      329.815       -3.210      864.394
12/11/2021  04:57:00      -13.701      -15.969       -3.790       23.263       20.185       12.713      541.168      407.440      161.620        0.078        0.056       21.041       12.517        0.354      329.789       -3.255      864.344
12/11/2021  04:58:00      -19.542      -42.201      -12.808       20.627       39.011       23.532      425.484     1521.843      553.748        0.241        0.125       46.506       13.955        0.090      329.905       -3.062      864.333
12/11/2021  04:59:00       -5.895      -35.952      -21.970       24.607       35.869       14.909      605.496     1286.600      222.278        0.196        0.106       36.432        5.288        0.021      329.923       -3.033      864.319
12/11/2021  05:00:00      -13.576        4.490       -4.885       16.681       14.666       15.716      278.265      215.094      246.993        0.048        0.037       14.300        9.134        0.408      329.850       -3.153      864.319
12/11/2021  05:01:00      -42.905      -18.861       -5.208       38.331       23.977       19.424     1469.247      574.895      377.291        0.232        0.121       46.867        9.373        0.040      329.827       -3.192      864.366
12/11/2021  05:02:00      -73.994      -32.342      -18.282       21.788       14.642       13.525      474.717      214.379      182.926        0.386        0.044       80.753        5.367        0.004      329.756       -3.306      864.419
12/11/2021  05:03:00      -39.016        7.259      -13.958       18.405       15.738       11.591      338.750      247.680      134.363        0.125        0.036       39.685        7.646        0.037      329.853       -3.149      864.427
12/11/2021  05:04:00      -57.577       26.866      -11.579       26.900       14.942       15.429      723.618      223.266      238.067        0.268        0.059       63.537       11.975        0.036      329.803       -3.230      864.405
12/11/2021  05:05:00      -24.072       21.712      -13.494       18.908       17.446       11.038      357.520      304.372      121.847        0.101        0.039       32.418        7.864        0.059      329.739       -3.334      864.357
12/11/2021  05:06:00       23.337       12.832      -15.320       23.328       23.184       15.541      544.174      537.480      241.527        0.113        0.066       26.632       11.961        0.202      329.789       -3.253      864.321
12/11/2021  05:07:00      -14.326      -49.247      -10.653       55.018       60.265       29.099     3027.025     3631.864      846.765        0.512        0.375       51.288       20.931        0.167      329.960       -2.972      864.317
12/11/2021  05:08:00       27.123      -74.284      -32.225       37.419       43.542       21.225     1400.196     1895.945      450.488        0.552        0.187       79.081       12.218        0.024      329.934       -3.015      864.319
12/11/2021  05:09:00        7.194       -7.656       -7.473       16.914       15.108       12.987      286.080      228.260      168.654        0.042        0.034       10.506       10.078        0.920      329.938       -3.009      864.317
12/11/2021  05:10:00      -15.829      -29.256       -5.543       37.713       23.754       21.041     1422.282      564.236      442.730        0.178        0.121       33.264        6.190        0.035      329.905       -3.061      864.338
12/11/2021  05:11:00      -38.454      -30.352      -28.172       23.995       36.565       18.097      575.780     1336.988      327.515        0.272        0.112       48.989       10.233        0.044      329.854       -3.147      864.379
12/11/2021  05:12:00       -7.232       17.035       -6.985       18.963       23.794       11.197      359.588      566.177      125.384        0.072        0.053       18.506        9.726        0.276      329.859       -3.138      864.380
12/11/2021  05:13:00        1.310       51.018       -2.314       19.574       28.119       14.700      383.148      790.682      216.088        0.200        0.069       51.035        8.482        0.028      329.843       -3.166      864.329
12/11/2021  05:14:00       50.672       31.367      -12.775       29.391       38.378       22.627      863.844     1472.858      511.993        0.328        0.142       59.595       17.798        0.089      329.758       -3.304      864.289
12/11/2021  05:15:00       30.390       20.476      -10.408       25.196       20.456       15.515      634.823      418.461      240.730        0.137        0.065       36.644        9.989        0.074      329.633       -3.508      864.321
12/11/2021  05:16:00       -0.393       38.411       -7.317       15.930        9.217        8.991      253.772       84.956       80.836        0.097        0.021       38.413        2.764        0.005      329.575       -3.601      864.383
12/11/2021  05:17:00        9.724       50.838       -8.774       20.531       12.735       10.299      421.535      162.177      106.072        0.172        0.034       51.759        5.559        0.012      329.673       -3.442      864.412
12/11/2021  05:18:00       62.504       48.372      -14.440       30.279       24.605       13.793      916.806      605.395      190.242        0.408        0.086       79.036       12.161        0.024      329.620       -3.530      864.395
12/11/2021  05:19:00       52.867       10.056      -18.367       40.694       32.474       20.914     1656.004     1054.558      437.398        0.319        0.157       53.815        7.192        0.018      329.640       -3.496      864.359
12/11/2021  05:20:00       38.351       -6.834      -11.061       32.245       44.709       33.416     1039.742     1998.880     1116.638        0.290        0.208       38.955       21.069        0.293      329.628       -3.514      864.347
12/11/2021  05:21:00       51.501       37.146      -19.413       41.652       39.991       23.463     1734.879     1599.278      550.510        0.415        0.194       63.499       10.913        0.030      329.526       -3.683      864.359
12/11/2021  05:22:00      110.239       36.491      -12.008       18.023       20.703       11.358      324.826      428.609      129.014        0.726        0.044      116.122        6.897        0.004      329.433       -3.835      864.395
12/11/2021  05:23:00       69.411       48.818       -8.637       19.491       12.201       11.801      379.907      148.855      139.275        0.397        0.033       84.859        8.647        0.010      329.315       -4.026      864.432
12/11/2021  05:24:00       43.512       49.443       -7.925       18.690       12.385       11.189      349.321      153.388      125.192        0.251        0.031       65.862        6.901        0.011      329.307       -4.041      864.468
12/11/2021  05:25:00       97.851       42.229      -16.392       14.396       13.470        9.468      207.231      181.454       89.649        0.605        0.024      106.574        8.356        0.006      329.336       -3.993      864.458
12/11/2021  05:26:00       42.597       10.501       -8.758       41.749       20.579       18.630     1743.019      423.478      347.070        0.226        0.126       43.872       10.842        0.061      329.412       -3.872      864.492
12/11/2021  05:27:00       -6.510       28.037       -2.382       15.802       18.804       17.803      249.708      353.575      316.956        0.088        0.046       28.783       11.515        0.160      329.452       -3.805      864.594
12/11/2021  05:28:00       41.574       52.039      -10.383       48.315       15.558       11.885     2334.369      242.039      141.251        0.363        0.136       66.607       15.874        0.057      329.480       -3.758      864.588
12/11/2021  05:29:00       79.435       -9.777      -16.296       59.449       38.931       28.433     3534.176     1515.585      808.411        0.626        0.293       80.035       23.264        0.084      329.585       -3.587      864.458
12/11/2021  05:30:00       80.465        0.343      -22.098       55.027       48.635       32.778     3028.020     2365.409     1074.383        0.671        0.323       80.465       23.351        0.084      329.791       -3.248      864.408
12/11/2021  05:31:00       82.073       61.299       -8.096       32.307       19.866       13.885     1043.721      394.659      192.798        0.609        0.082      102.438       10.974        0.011      329.467       -3.781      864.427
12/11/2021  05:32:00       49.654       47.277       -3.304       23.609       14.424       10.802      557.403      208.050      116.675        0.280        0.044       68.561        8.855        0.017      329.448       -3.810      864.439
12/11/2021  05:33:00        6.391       63.701       -8.051       22.976       20.033       14.639      527.907      401.336      214.290        0.265        0.057       64.021       10.752        0.028      329.537       -3.664      864.461
12/11/2021  05:34:00      -22.472        6.745       -7.232       28.927       32.097       19.197      836.754     1030.189      368.515        0.142        0.112       23.462       17.298        0.544      329.565       -3.619      864.519
12/11/2021  05:35:00       -0.478       10.336      -14.973       16.564       14.921       14.092      274.353      222.627      198.591        0.051        0.035       10.347        7.099        0.471      329.621       -3.525      864.560
12/11/2021  05:36:00       -1.171       28.093       -4.598       19.404       19.766       12.076      376.519      390.683      145.834        0.086        0.046       28.117        4.845        0.030      329.579       -3.596      864.537
12/11/2021  05:37:00      -58.947       40.890      -17.218       42.425       21.550       16.350     1799.892      464.409      267.337        0.399        0.127       71.741        9.047        0.016      329.654       -3.472      864.582
12/11/2021  05:38:00       -5.507      -21.582       -6.858       35.232       36.459       18.104     1241.317     1329.235      327.746        0.172        0.145       22.274       10.131        0.207      329.679       -3.432      864.675
12/11/2021  05:39:00        5.705        8.764      -10.147       26.254       50.820       24.542      689.283     2582.722      602.286        0.204        0.194       10.457       28.828        7.600      329.776       -3.274      864.606
12/11/2021  05:40:00       66.898      -23.531      -14.336       35.684       45.559       22.701     1273.375     2075.586      515.330        0.455        0.193       70.916       18.579        0.069      329.883       -3.098      864.497
12/11/2021  05:41:00       12.492       -1.463       -5.317       21.465        9.476        6.115      460.735       89.797       37.398        0.039        0.029       12.578        4.409        0.123      329.703       -3.393      864.525
12/11/2021  05:42:00        0.978       -3.911      -11.775        8.979        8.264        6.268       80.624       68.292       39.291        0.017        0.009        4.031        6.042        2.246      329.610       -3.544      864.570
12/11/2021  05:43:00      -41.924       12.267      -11.748       21.959       22.103       12.693      482.207      488.564      161.101        0.159        0.057       43.682        3.536        0.007      329.768       -3.288      864.612
12/11/2021  05:44:00      -33.707       -0.052       -8.243       30.498       28.172       15.743      930.126      793.661      247.842        0.159        0.099       33.707        8.506        0.064      329.737       -3.338      864.648
12/11/2021  05:45:00       24.949      -13.497      -24.453       24.345       40.266       23.988      592.678     1621.336      575.409        0.210        0.139       28.366       10.575        0.139      329.825       -3.194      864.614
12/11/2021  05:46:00       61.196     -121.299      -25.113       34.588       41.697       31.872     1196.309     1738.647     1015.827        1.152        0.198      135.862       27.667        0.041      329.810       -3.218      864.613
12/11/2021  05:47:00       50.295     -107.900      -26.241       54.547       43.126       23.589     2975.331     1859.868      556.448        1.013        0.270      119.046       24.481        0.042      329.846       -3.159      864.628
12/11/2021  05:48:00       88.167      -31.674      -35.800       46.979       56.668       38.325     2206.995     3211.293     1468.779        0.847        0.344       93.684       23.445        0.063      329.871       -3.119      864.556
12/11/2021  05:49:00       56.916      -60.063      -28.447       46.736       43.164       31.747     2184.219     1863.141     1007.873        0.635        0.253       82.747       28.759        0.121      329.765       -3.293      864.498
12/11/2021  05:50:00       -3.691      -11.171       -9.481       18.653       27.277       17.813      347.951      744.061      317.291        0.082        0.070       11.765        7.817        0.441      329.829       -3.188      864.536
12/11/2021  05:51:00      -25.872        6.897       -7.678       28.944       15.900       13.049      837.738      252.800      170.268        0.102        0.063       26.775       15.260        0.325      329.715       -3.374      864.566
12/11/2021  05:52:00      -11.231       21.944      -21.629       18.523       13.935       18.821      343.086      194.186      354.239        0.098        0.045       24.651       15.347        0.388      329.720       -3.366      864.553
12/11/2021  05:53:00       -8.957       12.995        2.010       32.854       22.973       19.170     1079.415      527.770      367.494        0.111        0.099       15.783        8.980        0.324      329.714       -3.375      864.481
12/11/2021  05:54:00      -34.334      -54.228       -5.634       46.853       42.588       44.552     2195.243     1813.776     1984.836        0.507        0.300       64.183       26.775        0.174      330.044       -2.835      864.456
12/11/2021  05:55:00      -41.060      -43.101      -27.501       31.723       33.582       22.466     1006.324     1127.760      504.705        0.347        0.132       59.529       17.901        0.090      329.854       -3.147      864.480
12/11/2021  05:56:00      -14.427       -2.442       -8.816       37.594       21.625       24.424     1413.297      467.648      596.520        0.138        0.124       14.632       19.400        1.758      329.697       -3.404      864.489
12/11/2021  05:57:00      -28.656       40.671        8.139       26.147       24.832       22.507      683.671      616.631      506.571        0.217        0.090       49.753       10.691        0.046      329.713       -3.378      864.454
12/11/2021  05:58:00        2.481      -22.450      -23.900       43.249       37.836       24.332     1870.434     1431.539      592.068        0.249        0.195       22.587       22.804        1.019      329.856       -3.143      864.412
12/11/2021  05:59:00       90.980     -107.892      -42.733       54.613       60.446       35.801     2982.567     3653.681     1281.715        1.483        0.396      141.131       30.499        0.047      329.980       -2.940      864.354
12/11/2021  06:00:00      129.923     -136.922      -43.161       43.622       48.019       31.083     1902.865     2305.865      966.174        2.133        0.259      188.753       24.414        0.017      329.752       -3.314      864.283
12/11/2021  06:01:00       77.218      -92.581      -50.033       36.352       36.872       23.652     1321.472     1359.510      559.407        1.014        0.162      120.557       15.444        0.016      329.878       -3.107      864.240
12/11/2021  06:02:00       35.864      -25.399      -21.386       22.750       37.993       22.019      517.547     1443.493      484.814        0.242        0.122       43.947       10.933        0.062      329.934       -3.014      864.206
12/11/2021  06:03:00      -18.294       32.542      -14.926       29.423       20.150       16.460      865.695      406.042      270.927        0.158        0.077       37.332        5.706        0.023      329.753       -3.312      864.217
12/11/2021  06:04:00      -21.954      -19.437      -10.811       30.283       47.940       18.770      917.048     2298.274      352.326        0.227        0.178       29.322       15.769        0.289      329.682       -3.426      864.284
12/11/2021  06:05:00       -2.511       -1.739       -8.412       24.581       13.405       13.661      604.216      179.685      186.630        0.053        0.049        3.054       11.574       14.363      329.700       -3.398      864.341
12/11/2021  06:06:00      -47.840      -32.263      -17.694       51.782       32.541       26.327     2681.403     1058.908      693.111        0.404        0.222       57.703       15.039        0.068      329.809       -3.221      864.356
12/11/2021  06:07:00      -43.725      -10.220       -5.894       33.363       29.955       25.382     1113.116      897.282      644.222        0.235        0.133       44.903       16.201        0.130      329.765       -3.293      864.336
12/11/2021  06:08:00      -35.992      -38.519      -35.275       35.959       33.724       21.232     1293.082     1137.324      450.797        0.345        0.144       52.718       14.738        0.078      329.709       -3.383      864.318
12/11/2021  06:09:00      -45.679      -32.926      -28.519       36.561       33.163       22.791     1336.721     1099.768      519.442        0.347        0.148       56.309       18.180        0.104      329.732       -3.346      864.352
12/11/2021  06:10:00      -27.754      -27.492      -25.264       41.312       40.960       26.233     1706.662     1677.719      688.157        0.312        0.204       39.065       18.130        0.215      329.711       -3.380      864.367
12/11/2021  06:11:00      -23.877      -23.325       -7.652       38.546       33.547       22.585     1485.766     1125.385      510.094        0.215        0.156       33.380        7.355        0.049      329.652       -3.477      864.339
12/11/2021  06:12:00      -41.919       -4.551        2.713       53.677       40.502       22.821     2881.228     1640.426      520.776        0.341        0.252       42.166       15.015        0.127      329.504       -3.718      864.310
12/11/2021  06:13:00      -83.438       -2.909       -2.467       55.842       46.307       30.196     3118.286     2144.361      911.790        0.657        0.309       83.489       21.856        0.069      329.433       -3.836      864.296
12/11/2021  06:14:00     -126.061       19.753       -1.644       39.775       25.268       18.733     1582.012      638.491      350.927        0.943        0.129      127.599       16.953        0.018      329.304       -4.045      864.274
12/11/2021  06:15:00     -101.480        6.560      -12.459       43.819       26.973       22.168     1920.130      727.570      491.419        0.682        0.157      101.692       19.200        0.036      329.350       -3.971      864.280
12/11/2021  06:16:00      -66.094      -35.960       -1.267       68.558       51.394       31.364     4700.217     2641.320      983.671        0.699        0.416       75.243       36.246        0.232      329.427       -3.845      864.327
12/11/2021  06:17:00      -71.223      -23.632       -6.789       51.193       49.355       38.840     2620.691     2435.891     1508.525        0.612        0.328       75.042       29.375        0.153      329.357       -3.959      864.349
12/11/2021  06:18:00      -48.843      -30.141      -20.799       43.559       55.464       31.517     1897.376     3076.211      993.317        0.485        0.298       57.395       23.269        0.164      329.279       -4.086      864.327
12/11/2021  06:19:00     -116.918        9.081       -8.762       49.001       30.743       26.915     2401.111      945.134      724.430        0.895        0.204      117.270       23.494        0.040      329.152       -4.293      864.279
12/11/2021  06:20:00     -100.974        0.190       -9.067       40.258       37.602       25.944     1620.711     1413.934      673.079        0.699        0.185      100.974       16.045        0.025      329.145       -4.305      864.237
12/11/2021  06:21:00      -91.530      -21.325       -9.082       60.816       43.451       32.011     3698.631     1887.967     1024.736        0.776        0.331       93.981       32.220        0.118      329.224       -4.177      864.214
12/11/2021  06:22:00     -115.695        3.304       -7.917       70.614       47.650       32.472     4986.285     2270.562     1054.419        1.088        0.416      115.742       22.569        0.038      329.094       -4.388      864.188
12/11/2021  06:23:00      -99.199      -18.630      -20.182       45.382       38.289       22.208     2059.499     1466.081      493.199        0.731        0.201      100.934       20.908        0.043      329.218       -4.188      864.141
12/11/2021  06:24:00      -63.576       -3.086      -21.628       20.856       18.724       21.931      434.972      350.605      480.947        0.289        0.063       63.651       12.003        0.036      329.211       -4.200      864.147
12/11/2021  06:25:00      -12.464       24.163       -5.215       21.583       23.921       19.837      465.829      572.235      393.513        0.110        0.072       27.188       11.521        0.180      329.266       -4.107      864.210
12/11/2021  06:26:00      -11.353        5.062        0.694       10.695       25.177        9.386      114.379      633.901       88.105        0.050        0.042       12.430        4.485        0.130      329.209       -4.201      864.217
12/11/2021  06:27:00      -19.645       11.658        0.120       24.002       26.475       13.556      576.111      700.943      183.768        0.099        0.073       22.844        8.186        0.128      329.183       -4.245      864.198
12/11/2021  06:28:00      -54.840      -16.974       -7.850       42.557       26.912       20.816     1811.080      724.246      433.312        0.316        0.148       57.407       12.811        0.050      329.405       -3.881      864.225
12/11/2021  06:29:00      -92.990       -5.102       -2.981       58.228       26.881       28.686     3390.475      722.582      822.887        0.681        0.247       93.130       25.236        0.073      329.347       -3.977      864.225
12/11/2021  06:30:00     -121.636        5.438       -7.866       59.628       36.629       30.656     3555.460     1341.702      939.796        1.036        0.292      121.758       24.545        0.041      329.259       -4.121      864.180
12/11/2021  06:31:00     -136.789       -5.474       -3.905       45.019       42.955       27.323     2026.675     1845.150      746.530        1.169        0.231      136.899       27.204        0.039      329.209       -4.201      864.159
12/11/2021  06:32:00     -127.740        6.000      -12.354       35.239       23.643       22.444     1241.809      558.979      503.750        0.940        0.115      127.881       19.164        0.022      329.181       -4.246      864.178
12/11/2021  06:33:00      -85.281       25.972      -15.695       15.867       25.590       13.761      251.771      654.849      189.355        0.464        0.055       89.148       11.077        0.015      329.219       -4.185      864.179
12/11/2021  06:34:00      -67.037       47.423      -12.553       17.526       23.611       15.397      307.165      557.477      237.079        0.400        0.055       82.115       10.274        0.016      329.219       -4.184      864.181
12/11/2021  06:35:00      -96.847       24.716      -16.799       20.417       22.587       15.201      416.850      510.184      231.069        0.572        0.058       99.951        8.853        0.008      329.315       -4.028      864.206
12/11/2021  06:36:00     -115.584       26.427      -24.725       36.192       31.926       23.439     1309.878     1019.274      549.410        0.877        0.144      118.567        9.798        0.007      329.280       -4.085      864.233
12/11/2021  06:37:00      -73.335       -4.721      -10.110       58.370       38.224       27.205     3407.030     1461.074      740.087        0.555        0.280       73.486       20.858        0.081      329.302       -4.049      864.223
12/11/2021  06:38:00     -111.994       17.434      -12.897       18.915       17.392       15.461      357.767      302.465      239.046        0.696        0.045      113.343       13.481        0.014      329.210       -4.201      864.206
12/11/2021  06:39:00      -84.413       15.406      -10.183       29.335       23.597       19.226      860.565      556.838      369.650        0.463        0.089       85.808       11.541        0.018      329.259       -4.119      864.220
12/11/2021  06:40:00      -70.993       17.764       -9.438       36.200       27.907       22.752     1310.417      778.806      517.670        0.403        0.130       73.182       10.729        0.021      329.212       -4.196      864.279
12/11/2021  06:41:00      -98.644       31.150      -14.216       35.885       34.957       25.759     1287.754     1222.024      663.517        0.704        0.159      103.445       15.273        0.022      329.179       -4.249      864.342
12/11/2021  06:42:00      -61.158       15.469       -2.732       50.865       28.520       24.132     2587.272      813.415      582.348        0.398        0.199       63.084       19.475        0.095      329.110       -4.363      864.407
12/11/2021  06:43:00      -26.321      -20.409      -10.703       29.498       30.885       22.408      870.120      953.862      502.104        0.177        0.116       33.307       15.173        0.208      329.236       -4.157      864.465
12/11/2021  06:44:00      -43.525       24.960      -13.283       17.634       17.273       12.180      310.954      298.350      148.357        0.173        0.038       50.174        9.394        0.035      329.183       -4.244      864.470
12/11/2021  06:45:00      -14.998       27.472       -8.311       11.664        9.406        9.137      136.039       88.476       83.477        0.068        0.015       31.300        5.570        0.032      329.216       -4.188      864.435
12/11/2021  06:46:00      -25.334       58.193       -5.375       13.510       13.665       10.556      182.514      186.740      111.420        0.227        0.024       63.468        5.051        0.006      329.223       -4.178      864.399
12/11/2021  06:47:00      -28.064       82.753       -7.989       22.154       20.670       14.077      490.802      427.245      198.151        0.441        0.056       87.382        9.128        0.011      329.274       -4.096      864.439
12/11/2021  06:48:00       -9.927       24.904      -14.180       15.108       27.125       16.084      228.265      735.756      258.705        0.107        0.061       26.809       14.797        0.305      329.282       -4.079      864.530
12/11/2021  06:49:00      -27.400      -34.158      -29.024       31.356       27.536       17.889      983.204      758.242      320.032        0.241        0.103       43.790       10.217        0.054      329.334       -3.996      864.613
12/11/2021  06:50:00       -8.920      -10.468       -9.772       22.623       24.942       21.210      511.791      622.120      449.854        0.093        0.079       13.753       19.154        1.940      329.360       -3.955      864.642
12/11/2021  06:51:00      -25.637       18.763       -9.687       26.292       15.638       12.090      691.248      244.536      146.163        0.109        0.054       31.769        7.256        0.052      329.335       -3.996      864.601
12/11/2021  06:52:00      -57.922       37.481       -9.465       12.077       14.894       10.768      145.852      221.824      115.955        0.267        0.024       68.991        7.278        0.011      329.375       -3.930      864.558
12/11/2021  06:53:00      -84.340       33.958      -26.933       16.683       17.713       13.435      278.320      313.766      180.496        0.488        0.039       90.919       12.000        0.017      329.351       -3.969      864.584
12/11/2021  06:54:00      -44.459        1.832       -9.511       46.851       20.100       19.633     2194.978      404.008      385.453        0.253        0.149       44.497       26.650        0.359      329.334       -3.996      864.636
12/11/2021  06:55:00      -19.609        9.456       -8.086       16.397       14.716        9.524      268.848      216.550       90.709        0.056        0.029       21.770        4.789        0.048      329.414       -3.866      864.653
12/11/2021  06:56:00      -26.355       14.868      -12.554       22.278       17.010       10.123      496.299      289.353      102.480        0.098        0.044       30.259        8.552        0.080      329.403       -3.885      864.638
12/11/2021  06:57:00      -17.760       28.726       -3.736       12.607       10.373        5.787      158.946      107.608       33.484        0.073        0.015       33.773        5.644        0.028      329.360       -3.953      864.615
12/11/2021  06:58:00       -2.835       16.080       -4.741       10.127       10.895       10.130      102.549      118.704      102.623        0.031        0.016       16.328        4.458        0.075      329.410       -3.873      864.637
12/11/2021  06:59:00      -14.563      -25.019       -8.616       29.387       34.308       18.279      863.615     1177.019      334.107        0.164        0.119       28.949       11.908        0.169      329.507       -3.714      864.685
12/11/2021  07:00:00      -30.797      -11.688      -16.555       35.856       39.243       28.327     1285.651     1540.011      802.427        0.249        0.181       32.940       30.004        0.830      329.631       -3.511      864.693
12/11/2021  07:01:00       -0.909        4.663       -5.806       17.398       14.850       11.568      302.688      220.531      133.820        0.036        0.033        4.751        7.826        2.713      329.394       -3.899      864.653
12/11/2021  07:02:00      -36.421       30.646       -5.477       18.380       16.260        9.062      337.830      264.377       82.126        0.149        0.034       47.599        7.156        0.023      329.386       -3.913      864.620
12/11/2021  07:03:00      -65.315       57.854      -14.557       12.077        9.975        6.942      145.845       99.494       48.197        0.406        0.015       87.253        4.742        0.003      329.400       -3.890      864.596
12/11/2021  07:04:00      -44.858       66.421      -12.157       25.990       22.340       10.268      675.489      499.094      105.439        0.393        0.064       80.150        9.890        0.015      329.388       -3.909      864.593
12/11/2021  07:05:00      -21.042       51.540       -7.076       16.835       29.966       13.650      283.434      897.986      186.309        0.226        0.068       55.670       11.215        0.041      329.340       -3.987      864.611
12/11/2021  07:06:00       -8.662       40.729       -6.845       21.773       31.107       17.579      474.056      967.673      309.006        0.177        0.088       41.640       12.246        0.086      329.370       -3.938      864.604
12/11/2021  07:07:00        7.608       57.491       -5.336       20.579       18.349       15.195      423.505      336.696      230.874        0.219        0.050       57.992        8.162        0.020      329.446       -3.814      864.594
12/11/2021  07:08:00       31.960       38.589       -9.249       30.347       20.529       15.208      920.959      421.443      231.297        0.208        0.079       50.105       14.066        0.079      329.349       -3.972      864.573
12/11/2021  07:09:00       39.800       70.738       -7.513       27.684       29.857       19.233      766.414      891.423      369.899        0.434        0.101       81.166       15.417        0.036      329.347       -3.976      864.538
12/11/2021  07:10:00       13.603       56.145       -9.151       24.322       32.656       16.847      591.536     1066.400      283.837        0.268        0.097       57.770       15.111        0.068      329.437       -3.829      864.506
12/11/2021  07:11:00      -41.671       17.514      -12.407       20.513       14.889       13.391      420.787      221.676      179.327        0.151        0.041       45.201        8.981        0.039      329.381       -3.920      864.500
12/11/2021  07:12:00      -40.725      -20.550      -11.665       22.467       18.926       14.442      504.781      358.211      208.562        0.164        0.054       45.616       12.994        0.081      329.380       -3.923      864.498
12/11/2021  07:13:00      -29.459        2.348       -8.498       24.857       19.367       15.740      617.865      375.100      247.750        0.109        0.062       29.552       12.532        0.180      329.344       -3.981      864.487
12/11/2021  07:14:00      -46.903        3.371      -10.007       19.813       18.176       12.181      392.551      330.368      148.383        0.159        0.044       47.024        8.197        0.030      329.476       -3.766      864.477
12/11/2021  07:15:00      -21.013      -15.352       -6.603       11.513       13.836       10.165      132.559      191.435      103.320        0.057        0.021       26.024        5.062        0.038      329.538       -3.663      864.460
12/11/2021  07:16:00       -5.511        6.140       -0.052       10.118       12.535        6.136      102.367      157.133       37.649        0.018        0.015        8.251        4.126        0.250      329.608       -3.549      864.424
12/11/2021  07:17:00      -32.749       16.156       -7.823        9.875       16.671        7.354       97.525      277.913       54.077        0.091        0.021       36.518        3.600        0.010      329.544       -3.654      864.396
12/11/2021  07:18:00      -11.916      -14.988       -3.806       17.501       12.434       15.162      306.285      154.614      229.892        0.054        0.035       19.147       12.675        0.438      329.565       -3.618      864.406
12/11/2021  07:19:00      -20.212      -12.197       -8.479       10.769       11.682        8.282      115.981      136.468       68.593        0.048        0.016       23.607        2.577        0.012      329.670       -3.448      864.421
12/11/2021  07:20:00      -13.179       -5.563        0.098       10.699       10.940       11.529      114.473      119.690      132.908        0.029        0.018       14.305        7.281        0.259      329.663       -3.459      864.433
12/11/2021  07:21:00      -29.620       15.584       -9.057       15.380       11.384        7.221      236.542      129.590       52.145        0.081        0.021       33.469        5.631        0.028      329.532       -3.675      864.453
12/11/2021  07:22:00      -27.985        3.352       -7.032        8.689       14.181        8.674       75.506      201.098       75.231        0.060        0.018       28.185        6.469        0.053      329.527       -3.681      864.462
12/11/2021  07:23:00      -14.172       26.136       -6.972       25.858       15.551        9.604      668.659      241.821       92.237        0.097        0.050       29.732        9.765        0.108      329.483       -3.755      864.450
12/11/2021  07:24:00       23.028       38.511       -7.875       13.064       13.931       11.311      170.658      194.082      127.930        0.128        0.025       44.871        8.280        0.034      329.474       -3.769      864.412
12/11/2021  07:25:00       33.171       25.818       -6.216       12.505       10.725        8.988      156.379      115.027       80.788        0.108        0.018       42.034        4.406        0.011      329.527       -3.681      864.413
12/11/2021  07:26:00       19.447       40.971       -2.870       34.906       31.485       16.005     1218.419      991.290      256.148        0.226        0.123       45.352       15.067        0.110      329.511       -3.707      864.438
12/11/2021  07:27:00       35.414       32.176       -9.733       64.049       33.387       27.922     4102.301     1114.722      779.618        0.419        0.300       47.849       17.001        0.126      329.456       -3.798      864.435
12/11/2021  07:28:00       99.498       46.770      -17.093       18.956       21.127       13.715      359.312      446.329      188.089        0.669        0.050      109.942        9.209        0.007      329.235       -4.157      864.407
12/11/2021  07:29:00       79.926       49.815      -19.123       16.745       16.871       13.341      280.402      284.635      177.988        0.499        0.037       94.179        7.743        0.007      329.182       -4.246      864.388
12/11/2021  07:30:00       56.972       36.787      -10.683       25.287       14.090       17.334      639.421      198.522      300.459        0.293        0.057       67.816        8.656        0.016      329.099       -4.378      864.389
12/11/2021  07:31:00       40.399       35.985       -4.538       20.300       14.358       11.141      412.100      206.154      124.122        0.184        0.037       54.102        9.571        0.031      329.137       -4.319      864.406
12/11/2021  07:32:00       62.619       40.137       -6.152       23.518       15.193       12.498      553.081      230.830      156.210        0.325        0.047       74.378       11.312        0.023      329.222       -4.180      864.410
12/11/2021  07:33:00       95.156       38.785      -16.972       19.520       21.300       12.545      381.041      453.691      157.366        0.592        0.050      102.757        5.772        0.003      329.281       -4.083      864.406
12/11/2021  07:34:00       60.797        2.765      -12.897       36.501       37.666       20.208     1332.302     1418.737      408.370        0.351        0.158       60.860       13.557        0.050      329.355       -3.963      864.423
12/11/2021  07:35:00       15.734      -25.369      -13.841       19.521       32.436       20.540      381.072     1052.065      421.897        0.147        0.093       29.852        9.353        0.098      329.507       -3.714      864.452
12/11/2021  07:36:00       46.231       10.574      -17.639       24.718       21.153       18.804      610.967      447.454      353.607        0.199        0.071       47.424        8.958        0.036      329.400       -3.888      864.467
12/11/2021  07:37:00       60.714       24.318      -13.979       24.979       30.192       17.279      623.963      911.547      298.561        0.315        0.092       65.402        8.381        0.016      329.400       -3.888      864.439
12/11/2021  07:38:00       42.962       14.225       -8.955       44.939       52.707       36.830     2019.484     2777.993     1356.477        0.414        0.308       45.256       26.247        0.336      329.479       -3.760      864.400
12/11/2021  07:39:00       56.943      -12.770      -18.077       41.106       41.973       40.216     1689.686     1761.698     1617.333        0.440        0.253       58.358       22.646        0.151      329.554       -3.637      864.410
12/11/2021  07:40:00       79.667       37.573      -22.755       34.664       62.866       24.677     1201.593     3952.079      608.971        0.702        0.288       88.083       19.713        0.050      329.520       -3.693      864.445
12/11/2021  07:41:00       83.819       28.932      -17.382       51.084       39.813       22.540     2609.586     1585.085      508.056        0.643        0.235       88.672       20.366        0.053      329.325       -4.013      864.445
12/11/2021  07:42:00       62.073       -6.972      -12.804       32.067       29.566       22.812     1028.266      874.176      520.404        0.324        0.121       62.463       16.187        0.067      329.389       -3.907      864.455
12/11/2021  07:43:00       95.896       52.034      -21.760       31.472       33.317       16.495      990.496     1110.025      272.094        0.737        0.119      109.103       11.603        0.011      329.290       -4.069      864.488
12/11/2021  07:44:00       87.815        8.770      -19.429       34.205       23.930       18.012     1169.950      572.639      324.421        0.512        0.103       88.252       16.653        0.036      329.297       -4.056      864.488
12/11/2021  07:45:00       75.159       -1.831       -8.453       42.372       44.994       20.650     1795.383     2024.441      426.436        0.498        0.212       75.181       17.050        0.051      329.357       -3.959      864.471
12/11/2021  07:46:00       54.651       -2.469      -10.186       38.964       32.261       28.064     1518.162     1040.765      787.568        0.322        0.167       54.706       23.410        0.183      329.534       -3.670      864.456
12/11/2021  07:47:00       24.797      -13.307      -13.916       48.421       29.279       29.333     2344.575      857.278      860.411        0.252        0.203       28.142       15.118        0.289      329.597       -3.566      864.431
12/11/2021  07:48:00       56.286      -34.570      -42.337       42.679       55.418       39.257     1821.501     3071.161     1541.097        0.629        0.322       66.054       28.756        0.190      329.825       -3.191      864.419
12/11/2021  07:49:00       90.657      -22.594      -35.238       43.352       55.147       31.582     1879.353     3041.199      997.410        0.794        0.296       93.430       12.845        0.019      329.656       -3.470      864.450
12/11/2021  07:50:00       54.358      -12.701      -34.199       36.607       52.559       20.751     1340.100     2762.414      430.600        0.441        0.227       55.822       10.024        0.032      329.506       -3.716      864.469
12/11/2021  07:51:00       45.400      -10.181      -29.402       31.760       34.519       26.455     1008.680     1191.559      699.847        0.296        0.145       46.527       18.640        0.160      329.578       -3.599      864.445
12/11/2021  07:52:00       53.672       37.241      -19.570       34.180       51.926       35.746     1168.251     2696.352     1277.786        0.490        0.257       65.326       17.307        0.070      329.617       -3.535      864.438
12/11/2021  07:53:00       67.198       35.658      -24.966       44.273       65.803       35.677     1960.055     4330.101     1272.828        0.699        0.378       76.073       27.621        0.132      329.681       -3.430      864.472
12/11/2021  07:54:00       65.422       38.641      -32.336       34.662       52.682       32.890     1201.468     2775.360     1081.762        0.594        0.253       75.981       22.114        0.085      329.500       -3.726      864.519
12/11/2021  07:55:00       90.250       68.715       -6.536       45.648       39.139       30.904     2083.763     1531.858      955.045        0.874        0.229      113.432       12.758        0.013      329.423       -3.851      864.561
12/11/2021  07:56:00      -15.226        1.407       -5.584       38.277       38.665       29.797     1465.160     1494.975      887.887        0.206        0.192       15.290       18.421        1.451      329.585       -3.584      864.607
12/11/2021  07:57:00       17.729     -114.158      -30.289       42.297       68.692       37.920     1789.076     4718.610     1437.908        1.110        0.397      115.526       35.954        0.097      329.793       -3.245      864.635
12/11/2021  07:58:00       23.629     -145.048      -27.170       37.127       45.332       20.237     1378.412     2055.029      409.544        1.309        0.192      146.960        6.763        0.002      329.609       -3.547      864.635
12/11/2021  07:59:00       36.598     -112.554       -8.022       45.434       70.314       40.534     2064.245     4944.003     1643.001        1.136        0.433      118.355       34.993        0.087      329.923       -3.034      864.617
12/11/2021  08:00:00      -41.145       -5.538       -7.584       47.759       45.593       25.560     2280.923     2078.761      653.332        0.340        0.251       41.516       14.855        0.128      329.764       -3.293      864.593
12/11/2021  08:01:00       63.639       27.091      -24.122       43.174       42.728       26.540     1864.003     1825.671      704.383        0.488        0.220       69.165       15.475        0.050      329.627       -3.518      864.583
12/11/2021  08:02:00       68.424       60.679      -11.808       53.398       55.576       37.242     2851.305     3088.724     1386.944        0.791        0.366       91.453       31.684        0.120      329.574       -3.604      864.586
12/11/2021  08:03:00       84.515       51.340      -10.160       44.519       28.397       26.735     1981.944      806.370      714.758        0.669        0.175       98.887       23.086        0.055      329.470       -3.775      864.619
12/11/2021  08:04:00       60.725       80.291       -2.340       49.917       37.558       34.455     2491.663     1410.580     1187.133        0.761        0.254      100.668       20.975        0.043      329.497       -3.729      864.635
12/11/2021  08:05:00       69.051       60.112       -4.902       32.086       43.002       28.679     1029.516     1849.129      822.512        0.605        0.185       91.550       25.899        0.080      329.545       -3.652      864.621
12/11/2021  08:06:00       87.843       37.303       -9.703       36.297       26.019       18.996     1317.480      677.014      360.838        0.578        0.118       95.436        9.870        0.011      329.503       -3.720      864.617
12/11/2021  08:07:00      124.859       66.257      -23.188       11.463       14.721       11.188      131.397      216.703      125.169        1.050        0.024      141.350        3.463        0.001      329.417       -3.863      864.571
12/11/2021  08:08:00      125.876       72.999      -27.065       21.875       22.039       17.123      478.507      485.700      293.203        1.158        0.063      145.511        7.952        0.003      329.502       -3.721      864.507
12/11/2021  08:09:00       60.627       46.150       -9.026       33.523       20.294       13.861     1123.803      411.853      192.125        0.381        0.086       76.194       11.233        0.022      329.498       -3.729      864.498
12/11/2021  08:10:00       45.421       37.507       -5.631       36.606       21.075       14.542     1340.011      444.158      211.480        0.275        0.100       58.905       10.895        0.034      329.572       -3.608      864.527
12/11/2021  08:11:00       48.996       26.355      -15.114       25.356       16.479       16.355      642.918      271.555      267.472        0.225        0.059       55.634        9.402        0.029      329.559       -3.630      864.529
12/11/2021  08:12:00       15.486       35.492       -7.744       12.849       17.103       14.260      165.086      292.502      203.343        0.111        0.033       38.724        6.610        0.029      329.477       -3.764      864.558
12/11/2021  08:13:00       -6.579       46.950       -6.531       18.845       19.919        9.648      355.137      396.779       93.093        0.157        0.042       47.409        7.141        0.023      329.576       -3.600      864.575
12/11/2021  08:14:00      -65.391       76.381       -9.788       23.899       16.569       14.731      571.181      274.539      217.014        0.563        0.053      100.548       13.125        0.017      329.549       -3.645      864.547
12/11/2021  08:15:00      -37.699       59.795       -7.609       18.869       18.791       11.840      356.024      353.095      140.174        0.295        0.042       70.687        6.169        0.008      329.571       -3.609      864.514
12/11/2021  08:16:00      -10.578       29.324      -14.213       20.635       12.917       13.692      425.792      166.846      187.468        0.098        0.039       31.174       13.657        0.192      329.667       -3.450      864.493
12/11/2021  08:17:00        9.550       33.758        4.656       27.965       26.386       19.376      782.069      696.208      375.430        0.155        0.093       35.083       17.971        0.262      329.754       -3.311      864.472
12/11/2021  08:18:00       27.415       36.094      -10.969       20.124       20.510       14.509      404.962      420.651      210.510        0.161        0.052       45.325       12.359        0.074      329.753       -3.312      864.470
12/11/2021  08:19:00       11.823       12.594      -14.232       28.231       27.469       13.777      796.981      754.555      189.813        0.112        0.087       17.274       12.685        0.539      329.828       -3.189      864.477
12/11/2021  08:20:00       -6.823       31.251      -10.133       18.047       15.974       16.421      325.692      255.177      269.659        0.099        0.043       31.987       11.908        0.139      329.788       -3.254      864.512
12/11/2021  08:21:00        0.463        4.914      -13.663       14.772       24.549       23.243      218.209      602.672      540.238        0.079        0.068        4.935       11.359        5.296      329.864       -3.130      864.550
12/11/2021  08:22:00        2.582        4.934      -12.909       16.132       12.178       11.937      260.253      148.305      142.495        0.037        0.028        5.569        8.131        2.132      329.873       -3.115      864.555
12/11/2021  08:23:00       -2.991      -10.806       -2.592       21.583       17.756       14.509      465.811      315.265      210.506        0.056        0.050       11.213       13.671        1.487      329.990       -2.922      864.543
12/11/2021  08:24:00       -5.658       -5.366       -0.441       18.523       13.575       15.473      343.119      184.268      239.403        0.041        0.038        7.798        9.525        1.492      330.023       -2.869      864.528
12/11/2021  08:25:00       -9.426        9.512       -9.055       14.964       16.894        8.769      223.923      285.398       76.896        0.042        0.029       13.391        6.917        0.267      329.962       -2.969      864.513
12/11/2021  08:26:00      -18.367       17.025       -4.570       25.126       12.381       11.297      631.311      153.296      127.619        0.078        0.046       25.044        6.347        0.064      329.890       -3.087      864.510
12/11/2021  08:27:00       12.084       33.981      -10.895       18.634       14.447       14.019      347.244      208.723      196.539        0.109        0.038       36.066        6.558        0.033      329.824       -3.198      864.540
12/11/2021  08:28:00       42.643      -47.545      -16.623       39.176       48.987       25.871     1534.739     2399.755      669.317        0.448        0.230       63.867       16.434        0.066      329.936       -3.012      864.565
12/11/2021  08:29:00      -20.877      -66.630      -16.381       59.734       50.815       27.873     3568.207     2582.210      776.904        0.603        0.346       69.824        9.551        0.019      329.994       -2.916      864.562
12/11/2021  08:30:00      -54.480       -5.966      -17.601       38.555       22.835       21.782     1486.484      521.455      474.476        0.290        0.124       54.805       15.331        0.078      330.025       -2.867      864.565
12/11/2021  08:31:00        2.321        0.821      -12.282       18.005       15.034       11.709      324.192      226.021      137.100        0.042        0.034        2.462        6.989        8.062      330.063       -2.806      864.558
12/11/2021  08:32:00      -18.621      -28.125       -3.476       26.465       23.226       18.583      700.399      539.460      345.328        0.137        0.079       33.731       10.903        0.104      330.119       -2.713      864.545
12/11/2021  08:33:00        2.350        7.043      -12.683       50.786       23.069       15.176     2579.252      532.193      230.318        0.178        0.167        7.424       16.105        4.705      330.133       -2.690      864.534
12/11/2021  08:34:00       34.708       39.292       -9.300       26.749       18.587       16.682      715.487      345.469      278.287        0.209        0.067       52.426       17.222        0.108      329.954       -2.984      864.539
12/11/2021  08:35:00       21.626       50.311       -4.542       20.127       26.761       16.099      405.093      716.147      259.167        0.220        0.069       54.762       14.211        0.067      329.994       -2.918      864.539
12/11/2021  08:36:00        1.884       51.881       -3.799       21.656       15.527       12.030      468.994      241.093      144.728        0.178        0.043       51.915       11.773        0.051      329.960       -2.974      864.532
12/11/2021  08:37:00        7.056       20.200      -11.198       16.827       16.952       13.307      283.146      287.382      177.064        0.067        0.037       21.397       11.822        0.305      329.938       -3.006      864.537
12/11/2021  08:38:00       58.945       38.340      -11.415       38.973       21.461       17.455     1518.912      460.570      304.681        0.368        0.114       70.317       15.901        0.051      329.907       -3.059      864.549
12/11/2021  08:39:00       34.385       17.436      -16.492       39.615       35.082       16.993     1569.321     1230.725      288.753        0.242        0.154       38.553       12.978        0.113      329.930       -3.022      864.552
12/11/2021  08:40:00       67.153        4.986      -30.599       58.340       46.975       31.866     3403.525     2206.687     1015.455        0.605        0.331       67.338       26.159        0.151      330.096       -2.751      864.511
12/11/2021  08:41:00       85.927       -7.022      -15.684       67.717       39.862       35.579     4585.622     1588.980     1265.876        0.756        0.372       86.213       33.408        0.150      329.967       -2.961      864.463
12/11/2021  08:42:00       54.605      -82.653      -19.132       43.911       70.014       30.747     1928.148     4901.950      945.407        0.898        0.389       99.061       34.292        0.120      330.039       -2.844      864.475
12/11/2021  08:43:00       81.877      -18.741      -19.897       47.816       60.148       38.953     2286.376     3617.828     1517.364        0.743        0.371       83.995       29.051        0.120      330.092       -2.756      864.508
12/11/2021  08:44:00       74.478      -13.113      -29.154       66.789       41.280       40.722     4460.769     1704.026     1658.250        0.719        0.391       75.623       27.989        0.137      330.020       -2.875      864.503
12/11/2021  08:45:00       49.490        3.884      -12.713       49.367       56.719       47.407     2437.117     3217.083     2247.424        0.526        0.395       49.642       35.186        0.502      330.057       -2.814      864.491
12/11/2021  08:46:00       85.408      -20.086      -17.631       55.336       49.363       37.110     3062.048     2436.697     1377.159        0.744        0.344       87.739       26.774        0.093      330.101       -2.741      864.495
12/11/2021  08:47:00       87.886      -32.648      -16.330       45.907       51.817       28.836     2107.422     2684.985      831.501        0.734        0.281       93.754       10.293        0.012      330.037       -2.846      864.521
12/11/2021  08:48:00       70.514      -55.259      -30.559       38.604       62.981       34.166     1490.270     3966.644     1167.311        0.779        0.331       89.587       23.591        0.069      329.963       -2.968      864.539
12/11/2021  08:49:00       35.049      -18.096      -10.953       44.109       54.999       36.947     1945.623     3024.855     1365.065        0.400        0.317       39.444       22.281        0.319      330.034       -2.852      864.545
12/11/2021  08:50:00       81.319       14.471      -20.828       63.051       50.369       27.252     3975.443     2537.011      742.691        0.725        0.363       82.596       23.844        0.083      330.078       -2.779      864.531
12/11/2021  08:51:00       52.694       22.453      -27.226       38.774       43.335       26.792     1503.452     1877.899      717.819        0.406        0.205       57.278       23.312        0.166      330.144       -2.671      864.536
12/11/2021  08:52:00      134.810       61.965      -26.939       51.449       32.730       20.936     2647.022     1071.269      438.322        1.345        0.208      148.369       13.621        0.008      329.848       -3.156      864.519
12/11/2021  08:53:00      180.192       18.838      -17.837       26.400       25.082       14.425      696.971      629.103      208.088        1.734        0.077      181.174        9.018        0.002      329.822       -3.199      864.474
12/11/2021  08:54:00      142.802       36.972      -23.401       24.517       27.612       17.332      601.098      762.429      300.406        1.199        0.083      147.510        9.134        0.004      329.797       -3.241      864.473
12/11/2021  08:55:00      160.228       36.705      -30.074       15.776       20.311       16.154      248.877      412.548      260.963        1.442        0.046      164.378        8.891        0.003      329.785       -3.259      864.453
12/11/2021  08:56:00      117.415       25.376      -26.919       26.514       33.077       15.310      702.967     1094.093      234.410        0.859        0.102      120.126        8.767        0.005      329.850       -3.154      864.432
12/11/2021  08:57:00      103.982       43.302      -27.492       39.433       36.140       24.792     1554.957     1306.105      614.642        0.846        0.174      112.638       19.769        0.031      329.891       -3.086      864.432
12/11/2021  08:58:00       84.811       48.161      -25.316       33.309       26.665       22.341     1109.493      711.003      499.125        0.624        0.116       97.532        3.834        0.002      329.924       -3.032      864.468
12/11/2021  08:59:00       74.512       78.445      -12.502       37.095       39.890       33.768     1376.003     1591.245     1140.263        0.798        0.205      108.192       26.948        0.062      329.943       -3.000      864.506
12/11/2021  09:00:00      109.886       58.131      -22.443       23.530       20.120       16.489      553.645      404.824      271.893        0.859        0.062      124.315       16.226        0.017      329.818       -3.207      864.510
12/11/2021  09:01:00      128.766       56.256      -21.967       43.624       54.958       26.437     1903.051     3020.384      698.900        1.292        0.281      140.518       17.070        0.015      329.937       -3.010      864.469
12/11/2021  09:02:00      105.982       60.627      -18.983       35.775       26.333       22.256     1279.854      693.447      495.343        0.887        0.123      122.098        9.954        0.007      329.926       -3.027      864.461
12/11/2021  09:03:00       78.969       71.591      -12.319       15.949       16.442       13.818      254.369      270.324      190.942        0.611        0.036      106.589        9.003        0.007      329.878       -3.106      864.495
12/11/2021  09:04:00       10.205       15.908      -17.530       51.080       57.998       23.134     2609.132     3363.743      535.191        0.359        0.325       18.900       12.648        0.448      330.175       -2.621      864.541
12/11/2021  09:05:00      -37.942      -38.801       -6.177       58.168       44.901       37.675     3383.538     2016.130     1419.401        0.490        0.341       54.269       37.144        0.468      330.487       -2.108      864.555
12/11/2021  09:06:00       53.766        9.211      -30.412       62.980       36.311       31.571     3966.521     1318.454      996.720        0.509        0.314       54.549        8.391        0.024      330.204       -2.573      864.507
12/11/2021  09:07:00       73.232      -23.683      -31.169       59.279       57.213       36.347     3514.044     3273.289     1321.140        0.750        0.405       76.966       26.598        0.119      330.414       -2.229      864.449
12/11/2021  09:08:00       98.310       60.884      -15.694       41.141       31.632       20.486     1692.547     1000.592      419.682        0.836        0.156      115.636       16.532        0.020      330.086       -2.766      864.469
12/11/2021  09:09:00       51.111       49.861       -8.098       47.670       36.747       18.389     2272.408     1350.364      338.139        0.456        0.198       71.403       18.962        0.071      330.071       -2.790      864.483
12/11/2021  09:10:00      100.124       67.364      -17.505       42.014       22.749       19.344     1765.200      517.495      374.188        0.876        0.133      120.676       15.013        0.015      329.998       -2.909      864.475
12/11/2021  09:11:00       68.430       12.194      -37.001       40.839       69.833       26.378     1667.862     4876.679      695.773        0.672        0.362       69.508       25.754        0.137      330.411       -2.232      864.453
12/11/2021  09:12:00       66.730       44.094      -27.602       43.740       51.712       31.919     1913.175     2674.146     1018.800        0.638        0.280       79.983       21.483        0.072      330.378       -2.288      864.414
12/11/2021  09:13:00       83.830      -14.649      -30.482       41.237       54.536       31.068     1700.522     2974.175      965.245        0.690        0.282       85.101       17.881        0.044      330.461       -2.151      864.390
12/11/2021  09:14:00       53.836      -49.061      -17.249       72.691       42.375       41.492     5283.918     1795.604     1721.591        0.720        0.440       72.838       33.736        0.215      330.618       -1.893      864.389
12/11/2021  09:15:00       97.132       -7.971      -20.874       49.495       45.371       34.833     2449.783     2058.549     1213.319        0.783        0.286       97.459       18.553        0.036      330.283       -2.443      864.358
12/11/2021  09:16:00       58.760        4.425      -19.256       49.869       61.251       33.840     2486.936     3751.716     1145.169        0.561        0.369       58.926       22.386        0.144      330.365       -2.308      864.295
12/11/2021  09:17:00       65.764       36.624      -10.033       26.825       34.277       22.395      719.590     1174.895      501.541        0.408        0.120       75.274        8.695        0.013      330.259       -2.482      864.292
12/11/2021  09:18:00       65.908       18.239      -20.453       33.423       32.798       19.078     1117.092     1075.686      363.975        0.383        0.128       68.385       15.882        0.054      330.189       -2.597      864.297
12/11/2021  09:19:00       18.679      -35.070      -30.227       31.816       46.221       24.968     1012.247     2136.417      623.393        0.313        0.189       39.735       19.236        0.234      330.395       -2.260      864.306
12/11/2021  09:20:00       19.500     -107.233      -30.077       27.517       34.761       22.282      757.179     1208.312      496.500        0.762        0.123      108.992       14.595        0.018      330.322       -2.379      864.287
12/11/2021  09:21:00       24.230      -77.294      -22.130       27.086       32.271       27.614      733.655     1041.403      762.531        0.479        0.127       81.002       19.062        0.055      330.339       -2.352      864.240
12/11/2021  09:22:00      -10.174        7.915        0.933       24.608       42.400       18.219      605.569     1797.727      331.914        0.145        0.137       12.890       13.464        1.091      330.539       -2.024      864.189
12/11/2021  09:23:00      -21.189        7.926        0.041       39.098       19.539       19.165     1528.680      381.771      367.289        0.139        0.114       22.623       13.247        0.343      330.503       -2.083      864.178
12/11/2021  09:24:00      -39.868      -12.211      -22.480       29.133       23.970       20.589      848.741      574.537      423.920        0.205        0.092       41.696       10.747        0.066      330.507       -2.075      864.219
12/11/2021  09:25:00      -26.362      -24.515      -21.860       26.435       27.039       26.241      698.788      731.097      688.615        0.195        0.106       35.999       13.287        0.136      330.584       -1.950      864.244
12/11/2021  09:26:00      -15.460      -12.214      -18.063       45.049       42.736       20.305     2029.423     1826.341      412.310        0.249        0.213       19.703       13.654        0.480      330.504       -2.082      864.213
12/11/2021  09:27:00      -20.684       28.429      -11.029       23.025       19.297       16.559      530.171      372.382      274.203        0.127        0.059       35.157       13.051        0.138      330.332       -2.361      864.149
12/11/2021  09:28:00      -37.105      -12.768       -2.918       21.368       30.765       21.810      456.609      946.502      475.673        0.171        0.094       39.241       16.477        0.176      330.434       -2.196      864.106
12/11/2021  09:29:00      -64.039      -66.508      -25.519       39.899       33.566       21.844     1591.925     1126.704      477.146        0.619        0.160       92.327       15.287        0.027      330.492       -2.101      864.124
12/11/2021  09:30:00        9.901      -83.340      -25.687       60.475       60.631       30.132     3657.194     3676.162      907.965        0.797        0.412       83.926       32.727        0.152      330.651       -1.839      864.157
12/11/2021  09:31:00        3.867       10.809      -16.713       51.921       39.258       16.017     2695.740     1541.162      256.532        0.245        0.225       11.480        8.744        0.580      330.557       -1.994      864.172
12/11/2021  09:32:00       68.463       -5.417      -16.105       44.530       38.898       27.749     1982.914     1513.023      769.989        0.462        0.213       68.677       17.581        0.066      330.391       -2.266      864.152
12/11/2021  09:33:00       32.386       60.198       -3.472       32.000       22.681       23.206     1024.016      514.411      538.515        0.338        0.104       68.357       20.743        0.092      330.279       -2.449      864.132
12/11/2021  09:34:00      -21.561       16.902      -14.002       18.488       24.602       15.384      341.788      605.239      236.666        0.106        0.059       27.396       10.273        0.141      330.441       -2.185      864.135
12/11/2021  09:35:00       20.435       -2.788       -5.967       16.940       25.992        9.987      286.969      675.591       99.747        0.076        0.053       20.624        8.090        0.154      330.401       -2.250      864.142
12/11/2021  09:36:00      -18.834       -6.561      -12.113       41.654       15.293       17.811     1735.039      233.880      317.225        0.141        0.114       19.944       17.459        0.766      330.386       -2.275      864.129
12/11/2021  09:37:00      -65.883       35.942       -9.843       23.186       23.255       13.263      537.589      540.805      175.917        0.349        0.063       75.049       11.381        0.023      330.352       -2.328      864.097
12/11/2021  09:38:00      -89.136       50.912      -17.457       27.446       37.093       17.057      753.266     1375.869      290.949        0.663        0.121      102.651       11.287        0.012      330.489       -2.105      864.050
12/11/2021  09:39:00      -63.148       50.240      -18.652       27.138       34.350       14.702      736.486     1179.914      216.162        0.450        0.107       80.696       11.257        0.019      330.491       -2.102      864.034
12/11/2021  09:40:00      -33.898        2.762       -7.033       24.401       41.099       22.223      595.407     1689.127      493.852        0.199        0.139       34.010       22.500        0.438      330.589       -1.942      864.051
12/11/2021  09:41:00      -26.527       46.452       -6.402       22.475       19.511       11.336      505.132      380.680      128.504        0.196        0.051       53.493        4.220        0.006      330.427       -2.208      864.062
12/11/2021  09:42:00      -50.042       -3.393       -2.351       46.661       43.479       26.281     2177.276     1890.386      690.709        0.364        0.238       50.157       16.899        0.114      330.627       -1.879      864.059
12/11/2021  09:43:00      -30.257       10.643        2.066       63.525       33.091       32.706     4035.411     1095.004     1069.698        0.362        0.310       32.075       20.482        0.408      330.719       -1.728      864.052
12/11/2021  09:44:00      -81.047       55.563      -16.042       55.462       49.817       22.157     3076.073     2481.732      490.942        0.798        0.302       98.265       24.156        0.060      330.514       -2.064      864.023
12/11/2021  09:45:00      -31.269        6.099      -10.517       18.958       30.939       22.884      359.417      957.223      523.694        0.148        0.092       31.858       18.330        0.331      330.619       -1.892      864.030
12/11/2021  09:46:00      -14.686      -13.563        2.459       24.370       19.779       19.498      593.919      391.192      380.172        0.089        0.068       19.990       16.061        0.645      330.669       -1.810      864.088
12/11/2021  09:47:00      -64.433        9.446      -10.381       27.696       25.505       19.501      767.051      650.501      380.277        0.307        0.090       65.121       11.818        0.033      330.648       -1.845      864.129
12/11/2021  09:48:00      -40.739       -1.876        7.534       37.360       46.378       29.228     1395.767     2150.898      854.294        0.306        0.220       40.783       22.808        0.313      330.807       -1.584      864.135
12/11/2021  09:49:00      -43.600      -51.824      -14.810       30.798       20.362       14.976      948.524      414.595      224.279        0.320        0.079       67.725        7.200        0.011      330.497       -2.093      864.112
12/11/2021  09:50:00       -9.431      -23.073      -23.916       14.154       22.972       14.367      200.334      527.692      206.420        0.106        0.047       24.926       11.724        0.221      330.607       -1.911      864.050
12/11/2021  09:51:00      -16.362       61.148       -4.688       22.597       24.883       14.518      510.630      619.182      210.769        0.268        0.067       63.299       15.534        0.060      330.608       -1.909      864.000
12/11/2021  09:52:00      -51.376       35.388      -26.107       23.080       22.570       17.446      532.681      509.411      304.376        0.296        0.067       62.384       12.062        0.037      330.658       -1.827      864.010
12/11/2021  09:53:00      -29.264       -3.593      -12.653       22.324       31.521       12.860      498.361      993.583      165.385        0.134        0.083       29.483        9.213        0.098      330.815       -1.570      864.042
12/11/2021  09:54:00      -17.966      -66.698      -13.736       34.139       25.182       21.331     1165.486      634.120      455.017        0.361        0.113       69.076       14.719        0.045      330.759       -1.663      864.020
12/11/2021  09:55:00      -74.196      -36.490      -21.403       17.048       29.320       11.605      290.644      859.637      134.686        0.429        0.064       82.683        7.333        0.008      330.488       -2.107      863.974
12/11/2021  09:56:00      -69.137       17.113       -8.736       23.069       30.590       20.727      532.169      935.763      429.627        0.352        0.095       71.224       10.800        0.023      330.625       -1.882      863.967
12/11/2021  09:57:00     -106.301       -1.893      -17.981       40.756       31.444       26.668     1661.020      988.711      711.168        0.749        0.168      106.318       18.594        0.031      330.611       -1.906      863.949
12/11/2021  09:58:00      -36.216       37.370       -1.694       20.300       30.221       12.016      412.074      913.330      144.376        0.209        0.073       52.040       12.993        0.062      330.638       -1.862      863.875
12/11/2021  09:59:00      -96.481       71.849      -21.936       30.813       19.956       20.341      949.420      398.247      413.762        0.836        0.088      120.295       16.935        0.020      330.585       -1.949      863.821
12/11/2021  10:00:00      -77.911       52.688        0.394       46.906       35.401       22.685     2200.145     1253.205      514.626        0.641        0.198       94.054       24.132        0.066      330.648       -1.844      863.814
12/11/2021  10:01:00      -87.076        6.856       -5.054       44.501       36.236       18.392     1980.315     1313.044      338.250        0.564        0.182       87.346       20.672        0.056      330.751       -1.675      863.814
12/11/2021  10:02:00     -113.590       -3.444      -26.081       22.122       14.102       16.904      489.392      198.871      285.729        0.728        0.049      113.642        5.621        0.002      330.594       -1.934      863.810
12/11/2021  10:03:00     -127.234        7.505      -27.001       34.726       22.995       18.152     1205.923      528.763      329.494        0.952        0.103      127.456       13.252        0.011      330.588       -1.943      863.797
12/11/2021  10:04:00     -120.357       51.254      -14.985       39.439       30.091       25.580     1555.438      905.494      654.312        1.023        0.156      130.816       17.198        0.017      330.684       -1.785      863.785
12/11/2021  10:05:00     -124.199       36.067      -12.207       54.624       28.258       25.895     2983.776      798.517      670.567        1.066        0.223      129.330       31.784        0.060      330.639       -1.860      863.763
12/11/2021  10:06:00     -107.726       53.601      -17.937       34.440       21.264       22.440     1186.135      452.166      503.564        0.847        0.107      120.325       18.015        0.022      330.687       -1.780      863.706
12/11/2021  10:07:00      -80.277       42.495      -10.184       61.582       52.299       28.509     3792.297     2735.196      812.757        0.785        0.367       90.831       22.839        0.063      330.810       -1.577      863.645
12/11/2021  10:08:00      -55.413       -2.278      -21.744       48.187       23.776       22.328     2322.016      565.321      498.549        0.347        0.169       55.460       22.316        0.162      330.837       -1.535      863.645
12/11/2021  10:09:00       -5.290       44.766        0.218       29.310       32.975       18.835      859.074     1087.359      354.762        0.217        0.115       45.077       12.057        0.072      330.907       -1.418      863.665
12/11/2021  10:10:00       19.085      154.082      -11.794       41.730       49.484       24.640     1741.421     2448.679      607.107        1.452        0.240      155.260       21.982        0.020      330.843       -1.524      863.657
12/11/2021  10:11:00      -33.277      139.216      -14.271       41.655       44.585       22.267     1735.141     1987.791      495.817        1.245        0.211      143.138       16.759        0.014      330.834       -1.538      863.659
12/11/2021  10:12:00      -22.986      124.584       -9.808       23.849       52.519       28.762      568.757     2758.281      827.243        1.015        0.208      126.686       26.165        0.043      330.893       -1.442      863.670
12/11/2021  10:13:00      -13.219       70.278       -0.512       27.730       47.912       27.369      768.967     2295.513      749.039        0.446        0.191       71.511       25.718        0.129      330.959       -1.336      863.679
12/11/2021  10:14:00       15.094      100.445       -5.548       46.830       59.826       32.024     2193.033     3579.178     1025.533        0.857        0.340      101.573       34.147        0.113      331.003       -1.263      863.663
12/11/2021  10:15:00       46.854       61.497      -10.865       43.067       37.047       26.248     1854.779     1372.498      688.952        0.501        0.196       77.312       17.303        0.050      331.024       -1.228      863.620
12/11/2021  10:16:00       35.623       29.621       -8.722       33.537       22.783       19.514     1124.710      519.058      380.790        0.212        0.101       46.330       17.448        0.142      331.036       -1.208      863.604
12/11/2021  10:17:00       42.971       50.578       -6.125       25.330       54.392       19.176      641.627     2958.440      367.725        0.420        0.198       66.367       12.548        0.036      331.075       -1.144      863.608
12/11/2021  10:18:00       42.351       88.814       -7.204       37.649       58.934       28.849     1417.444     3473.196      832.281        0.773        0.286       98.395       26.412        0.072      330.930       -1.381      863.596
12/11/2021  10:19:00       47.386       80.386      -14.764       43.772       39.011       31.003     1915.988     1521.851      961.169        0.666        0.220       93.313       28.844        0.096      330.871       -1.477      863.559
12/11/2021  10:20:00        3.671      100.779      -10.178       22.269       44.553       20.282      495.889     1984.968      411.359        0.658        0.145      100.846       20.651        0.042      330.902       -1.428      863.528
12/11/2021  10:21:00      -28.921       97.860      -21.711       19.085       25.210       20.521      364.230      635.564      421.131        0.615        0.071      102.044        9.345        0.008      330.984       -1.294      863.514
12/11/2021  10:22:00      -21.324       81.098      -18.460       34.188       30.176       17.204     1168.813      910.611      295.977        0.487        0.119       83.854       13.074        0.024      331.119       -1.071      863.505
12/11/2021  10:23:00      -55.359       39.879      -10.787       40.777       35.885       23.721     1662.794     1287.709      562.689        0.414        0.176       68.227       15.989        0.055      331.258       -0.842      863.496
12/11/2021  10:24:00       -1.733       29.045      -18.868       44.847       21.373       22.588     2011.213      456.826      510.240        0.209        0.149       29.096       16.965        0.340      331.085       -1.126      863.473
12/11/2021  10:25:00       59.735       13.119      -16.717       20.236       19.953       15.710      409.489      398.129      246.797        0.254        0.053       61.158        9.333        0.023      331.097       -1.109      863.436
12/11/2021  10:26:00       22.259       23.727      -10.406       12.842       18.170       13.494      164.906      330.159      182.083        0.092        0.034       32.534        6.815        0.044      331.109       -1.088      863.426
12/11/2021  10:27:00       46.424       58.910       -7.357       29.557       30.313       19.586      873.624      918.907      383.602        0.393        0.109       75.003       15.369        0.042      331.285       -0.799      863.396
12/11/2021  10:28:00       84.814       51.669      -12.010       32.582       21.933       18.161     1061.610      481.072      329.837        0.594        0.094       99.313       16.276        0.027      331.141       -1.035      863.355
12/11/2021  10:29:00       94.394       72.035      -21.708       39.782       25.037       20.750     1582.585      626.859      430.564        0.860        0.132      118.740       14.393        0.015      331.216       -0.913      863.328
12/11/2021  10:30:00      109.154       46.875      -23.569       42.393       33.126       24.475     1797.158     1097.303      599.014        0.908        0.175      118.794       13.331        0.013      331.223       -0.900      863.320
12/11/2021  10:31:00       46.895       17.712      -13.902       43.067       48.129       33.652     1854.764     2316.371     1132.471        0.400        0.265       50.129       22.854        0.208      331.411       -0.590      863.289
12/11/2021  10:32:00       33.297        5.159      -19.405       37.599       52.232       30.637     1413.689     2728.208      938.647        0.330        0.254       33.694       14.752        0.192      331.632       -0.229      863.273
12/11/2021  10:33:00       28.134       20.579       -2.331       37.706       42.911       18.375     1421.737     1841.324      337.622        0.241        0.180       34.858       22.563        0.419      331.409       -0.596      863.262
12/11/2021  10:34:00       50.721       47.974       -9.532       42.156       37.260       32.001     1777.092     1388.328     1024.053        0.458        0.209       69.815       23.941        0.118      331.435       -0.552      863.234
12/11/2021  10:35:00       68.267      -18.393      -15.352       51.611       43.229       28.508     2663.746     1868.736      812.703        0.529        0.267       70.701       24.150        0.117      331.371       -0.657      863.220
12/11/2021  10:36:00       41.583       -7.715      -13.948       55.404       35.324       29.490     3069.593     1247.756      869.687        0.358        0.259       42.292       23.107        0.299      331.340       -0.708      863.217
12/11/2021  10:37:00       22.390      -31.575      -25.914       35.767       41.389       24.698     1279.287     1713.011      609.996        0.289        0.180       38.708       16.520        0.182      331.595       -0.289      863.194
12/11/2021  10:38:00        6.159        3.706      -20.115       30.921       44.022       22.986      956.105     1937.931      528.372        0.194        0.171        7.188       19.852        7.627      331.542       -0.374      863.198
12/11/2021  10:39:00       41.512       29.596      -17.619       11.654       12.838        7.305      135.811      164.826       53.369        0.163        0.018       50.982        6.621        0.017      331.219       -0.906      863.205
12/11/2021  10:40:00       25.795       31.323      -17.565       17.555        8.630       11.106      308.193       74.469      123.347        0.123        0.025       40.577        1.900        0.002      331.294       -0.784      863.199
12/11/2021  10:41:00        6.097       26.626       -5.208       11.640       20.408       11.364      135.489      416.466      129.133        0.073        0.034       27.315        7.543        0.076      331.427       -0.566      863.180
12/11/2021  10:42:00      -39.043      -36.916      -17.240       42.586       29.333       20.887     1813.587      860.450      436.246        0.315        0.156       53.732       24.194        0.203      331.615       -0.255      863.145
12/11/2021  10:43:00      -40.671      -25.352      -17.872       45.919       32.082       32.239     2108.596     1029.244     1039.363        0.340        0.209       47.926       31.930        0.444      331.668       -0.169      863.136
12/11/2021  10:44:00       -0.781      -34.274      -11.332       25.268       30.775       21.777      638.454      947.091      474.226        0.168        0.103       34.283       15.157        0.195      331.755       -0.024      863.128
12/11/2021  10:45:00      -15.297       -2.901        5.852       20.024       32.771       20.111      400.971     1073.965      404.448        0.108        0.094       15.570       13.338        0.734      331.889        0.196      863.106
12/11/2021  10:46:00      -45.636       19.999      -16.562       30.364       23.356       16.809      921.964      545.523      282.533        0.225        0.088       49.826        8.232        0.027      331.640       -0.214      863.072
12/11/2021  10:47:00      -22.802       26.524      -13.885       19.853       17.076       16.008      394.128      291.588      256.242        0.118        0.047       34.979       13.672        0.153      331.764       -0.010      863.063
12/11/2021  10:48:00      -36.369       25.351       -3.367       19.643       19.360       12.355      385.831      374.816      152.649        0.144        0.046       44.333        2.579        0.003      331.771        0.001      863.065
12/11/2021  10:49:00      -12.751       52.184        2.739       35.523       21.555       15.314     1261.851      464.606      234.529        0.243        0.098       53.719       19.257        0.129      331.828        0.096      863.037
12/11/2021  10:50:00      -28.361       27.136       -5.991       16.733       18.050       16.998      279.999      325.805      288.931        0.124        0.045       39.252       13.263        0.114      331.883        0.185      863.026
12/11/2021  10:51:00      -43.154       37.628      -12.991       23.608       19.010       18.742      557.324      361.384      351.256        0.236        0.063       57.255       14.355        0.063      331.842        0.118      863.027
12/11/2021  10:52:00      -29.964        4.864      -10.174       19.716       25.533       15.294      388.732      651.935      233.912        0.115        0.064       30.356       10.798        0.127      331.844        0.123      862.997
12/11/2021  10:53:00      -11.737       18.194      -10.678       12.968       33.133       12.651      168.176     1097.782      160.050        0.100        0.071       21.652        6.970        0.104      331.902        0.218      862.951
12/11/2021  10:54:00        4.281        9.791       -3.557       29.475       33.097       18.772      868.800     1095.433      352.402        0.122        0.116       10.686        7.925        0.550      332.045        0.452      862.956
12/11/2021  10:55:00       18.615      -20.452      -25.819       48.236       46.588       38.934     2326.759     2170.405     1515.823        0.372        0.301       27.656       29.473        1.136      332.107        0.554      862.957
12/11/2021  10:56:00        6.327      -22.663      -16.833       97.148       64.736       36.715     9437.743     4190.719     1348.012        0.790        0.749       23.529       40.671        2.988      332.135        0.601      862.933
12/11/2021  10:57:00       75.701      -49.421      -27.192       49.653       62.778       40.274     2465.451     3941.077     1621.989        0.847        0.401       90.405       23.206        0.066      332.313        0.895      862.938
12/11/2021  10:58:00       77.569      -54.292      -23.774       48.175       45.245       26.494     2320.812     2047.115      701.920        0.730        0.253       94.681       12.388        0.017      332.251        0.793      862.977
12/11/2021  10:59:00       13.479       30.879      -10.653       47.850       79.466       33.811     2289.597     6314.923     1143.181        0.550        0.487       33.693       33.979        1.017      332.094        0.533      862.990
12/11/2021  11:00:00       83.572        3.543      -33.473       73.537       73.009       35.141     5407.703     5330.378     1234.903        1.004        0.599       83.647       24.841        0.088      332.014        0.400      862.991
12/11/2021  11:01:00       52.550       22.227      -20.541       58.990       80.826       42.791     3479.779     6532.851     1831.054        0.776        0.592       57.058       26.671        0.218      331.966        0.322      862.966
12/11/2021  11:02:00      125.665       38.754      -34.142       52.306       68.629       38.574     2735.880     4709.891     1487.928        1.369        0.447      131.505        4.493        0.001      332.000        0.378      862.900
12/11/2021  11:03:00      129.513       13.144      -18.535       82.040       65.192       39.897     6730.536     4249.997     1591.758        1.493        0.629      130.178       20.563        0.025      331.926        0.256      862.844
12/11/2021  11:04:00       71.509       -1.066      -26.156       57.578       75.936       38.185     3315.204     5766.282     1458.106        0.817        0.527       71.517       24.946        0.122      332.032        0.431      862.837
12/11/2021  11:05:00       68.110       27.912       -0.406       68.529       44.443       28.886     4696.275     1975.173      834.394        0.646        0.375       73.608       33.868        0.212      331.941        0.282      862.826
12/11/2021  11:06:00        3.873      -69.123      -24.397       44.425       60.397       25.015     1973.590     3647.771      625.728        0.582        0.312       69.232       25.220        0.133      331.926        0.258      862.849
12/11/2021  11:07:00       61.346     -104.866      -29.691       44.222       57.289       25.812     1955.546     3282.024      666.236        1.077        0.295      121.491       13.112        0.012      331.789        0.032      862.861
12/11/2021  11:08:00       13.918       60.485       -0.332       22.796       40.846       22.745      519.678     1668.370      517.349        0.328        0.135       62.065       17.184        0.077      331.835        0.109      862.837
12/11/2021  11:09:00       16.318       37.972       -5.782       14.737       25.036       17.481      217.183      626.817      305.575        0.145        0.057       41.330       13.056        0.100      331.820        0.083      862.853
12/11/2021  11:10:00       34.729       31.302      -15.913       28.602       32.595       29.102      818.079     1062.461      846.900        0.258        0.136       46.754       14.095        0.091      332.038        0.440      862.851
12/11/2021  11:11:00      132.009       62.428      -11.757       32.755       36.687       21.711     1072.875     1345.900      471.362        1.218        0.145      146.026       15.742        0.012      331.803        0.054      862.775
12/11/2021  11:12:00      115.877       53.036      -15.750       33.921       32.281       21.444     1150.636     1042.065      459.834        0.957        0.133      127.437       16.009        0.016      331.819        0.080      862.690
12/11/2021  11:13:00       93.878       51.518       -8.461       43.604       39.368       30.898     1901.351     1549.861      954.686        0.797        0.220      107.085       16.073        0.023      331.969        0.327      862.661
12/11/2021  11:14:00       61.433       67.734       -5.530       75.469       36.402       34.803     5695.609     1325.069     1211.249        0.831        0.412       91.444       19.033        0.043      332.000        0.380      862.679
12/11/2021  11:15:00       79.526       59.961       -6.750       25.141       16.237       16.151      632.088      263.634      260.862        0.556        0.058       99.598        4.014        0.002      331.781        0.019      862.668
12/11/2021  11:16:00      104.169       88.904      -16.580       37.849       28.802       20.392     1432.509      829.528      415.813        1.085        0.134      136.949       16.001        0.014      331.734       -0.059      862.673
12/11/2021  11:17:00      100.715       35.994      -20.088       21.955       14.533       10.377      482.037      211.199      107.679        0.632        0.040      106.954        6.861        0.004      331.666       -0.171      862.701
12/11/2021  11:18:00       64.456      -15.040      -32.315       42.235       49.799       29.952     1783.755     2479.895      897.094        0.529        0.258       66.187       25.758        0.151      331.841        0.119      862.711
12/11/2021  11:19:00       91.118       42.254      -20.462       47.787       39.246       24.979     2283.583     1540.233      623.957        0.748        0.222      100.438       20.639        0.042      331.965        0.321      862.694
12/11/2021  11:20:00       86.271       69.363      -16.430       32.149       31.461       26.130     1033.527      989.794      682.803        0.761        0.135      110.697       19.442        0.031      332.001        0.379      862.654
12/11/2021  11:21:00       11.254        9.836      -34.104       42.256       41.441       26.839     1785.572     1717.322      720.354        0.280        0.211       14.947       17.256        1.333      332.304        0.879      862.624
12/11/2021  11:22:00       63.745       26.272      -26.887       43.149       41.202       29.607     1861.849     1697.621      876.566        0.496        0.222       68.947        9.994        0.021      332.024        0.417      862.611
12/11/2021  11:23:00      120.068       49.047      -25.113       28.516       32.108       18.591      813.181     1030.932      345.617        0.982        0.109      129.700       15.059        0.013      331.805        0.057      862.584
12/11/2021  11:24:00      152.909       61.776      -28.055       39.028       20.913       22.103     1523.188      437.355      488.564        1.522        0.122      164.916        5.732        0.001      331.836        0.109      862.521
12/11/2021  11:25:00       77.814       37.380      -17.704       32.561       29.676       24.327     1060.243      880.693      591.788        0.515        0.127       86.326       12.436        0.021      332.189        0.691      862.470
12/11/2021  11:26:00       53.043       15.433      -17.526       39.045       39.821       23.984     1524.525     1585.745      575.216        0.352        0.184       55.243       11.091        0.040      332.249        0.789      862.459
12/11/2021  11:27:00      -39.353        3.688      -23.563       46.450       26.007       17.866     2157.612      676.360      319.199        0.263        0.158       39.526       10.726        0.074      332.379        1.002      862.468
12/11/2021  11:28:00       14.546      -13.339      -19.838       66.869       65.379       38.010     4471.451     4274.446     1444.760        0.549        0.510       19.737       21.432        1.179      332.402        1.042      862.433
12/11/2021  11:29:00       89.120       72.474      -29.329       26.888       24.439       22.209      722.952      597.253      493.229        0.793        0.091      114.869        3.474        0.001      331.933        0.267      862.393
12/11/2021  11:30:00       81.895       61.713      -23.623       19.402       17.946       16.204      376.450      322.049      262.568        0.602        0.048      102.544        8.371        0.007      331.956        0.305      862.390
12/11/2021  11:31:00       57.266       92.631      -26.851       19.199       12.468       18.484      368.610      155.453      341.644        0.672        0.043      108.903       13.307        0.015      331.916        0.241      862.398
12/11/2021  11:32:00        2.319       39.231      -19.891       11.270       25.977       17.189      127.007      674.816      295.474        0.152        0.055       39.300        9.370        0.057      332.132        0.595      862.413
12/11/2021  11:33:00      -40.222       64.277       -8.873       23.191       33.058       18.220      537.807     1092.856      331.984        0.390        0.098       75.825       10.065        0.018      332.120        0.576      862.413
12/11/2021  11:34:00        1.875       34.312       -2.706       24.078       25.069       18.498      579.768      628.439      342.185        0.137        0.078       34.363       13.980        0.166      332.389        1.018      862.382
12/11/2021  11:35:00       31.744       29.058       -6.144       30.388       27.069       17.329      923.436      732.729      300.280        0.192        0.098       43.036       12.890        0.090      332.316        0.897      862.360
12/11/2021  11:36:00       75.453       46.483      -20.203       33.449       27.249       22.014     1118.856      742.487      484.638        0.530        0.117       88.622       10.671        0.014      332.276        0.832      862.364
12/11/2021  11:37:00      109.378       59.068      -18.224       19.826       22.636       16.838      393.061      512.400      283.509        0.849        0.059      124.309        5.945        0.002      332.149        0.626      862.374
12/11/2021  11:38:00      121.149       71.266      -19.317       28.363       21.320       17.550      804.453      454.530      307.997        1.085        0.078      140.556        8.700        0.004      332.285        0.847      862.343
12/11/2021  11:39:00       90.142       16.247      -24.145       75.560       60.078       34.622     5709.246     3609.314     1198.681        0.974        0.526       91.595       32.376        0.125      332.592        1.354      862.317
12/11/2021  11:40:00       87.732       41.352      -17.552       57.767       55.151       27.625     3337.054     3041.673      763.140        0.843        0.357       96.989       15.108        0.024      332.515        1.228      862.327
12/11/2021  11:41:00       97.552       59.931      -12.126       29.609       24.059       25.969      876.665      578.844      674.376        0.769        0.106      114.490       15.468        0.018      332.374        0.994      862.342
12/11/2021  11:42:00       63.304       46.069      -20.487       43.468       24.212       14.959     1889.440      586.205      223.761        0.462        0.135       78.293       13.676        0.031      332.454        1.127      862.349
12/11/2021  11:43:00       19.374        6.430       -5.897       36.849       24.812       16.615     1357.875      615.638      276.044        0.135        0.112       20.413       19.349        0.898      332.597        1.363      862.325
12/11/2021  11:44:00       44.878      -42.655       -8.323       38.545       32.151       32.578     1485.714     1033.670     1061.358        0.374        0.179       61.915       23.189        0.140      332.742        1.603      862.318
12/11/2021  11:45:00       27.554      -49.869      -26.146       38.046       46.432       28.471     1447.522     2155.973      810.619        0.417        0.221       56.975       15.669        0.076      332.652        1.455      862.322
12/11/2021  11:46:00      -16.518       -0.933      -19.801       42.617       37.188       18.258     1816.172     1382.913      333.344        0.210        0.177       16.544       16.535        0.999      332.840        1.765      862.316
12/11/2021  11:47:00      -16.801        1.143       -9.013       49.405       47.306       19.956     2440.903     2237.899      398.228        0.272        0.254       16.840        8.392        0.248      332.745        1.610      862.321
12/11/2021  11:48:00       20.749       29.213       -4.706       55.054       31.330       26.208     3030.929      981.554      686.875        0.300        0.235       35.832       28.571        0.636      332.777        1.661      862.320
12/11/2021  11:49:00      -22.621      -34.166       -7.602       27.083       26.889       26.524      733.498      723.002      703.506        0.195        0.108       40.976       12.478        0.093      333.015        2.055      862.316
12/11/2021  11:50:00       51.836       47.456       -1.342       39.772       41.861       27.171     1581.835     1752.303      738.261        0.451        0.204       70.279       11.660        0.028      332.855        1.790      862.322
12/11/2021  11:51:00       48.061       50.455        0.823       60.470       39.584       27.866     3656.655     1566.922      776.532        0.543        0.300       69.682       22.199        0.101      332.810        1.716      862.347
12/11/2021  11:52:00       89.421       24.611      -27.424       34.591       25.403       19.546     1196.528      645.337      382.029        0.579        0.111       92.745        7.105        0.006      332.732        1.586      862.363
12/11/2021  11:53:00       70.173       42.881      -13.491       43.953       51.710       29.756     1931.909     2673.931      885.390        0.622        0.275       82.238       18.693        0.052      332.751        1.618      862.351
12/11/2021  11:54:00       48.671       46.989      -16.299       37.478       44.969       27.736     1404.628     2022.179      769.278        0.452        0.210       67.652       13.364        0.039      332.846        1.776      862.311
12/11/2021  11:55:00       55.131       88.886       -1.117       46.124       38.234       30.763     2127.417     1461.824      946.340        0.774        0.227      104.595       28.210        0.073      332.885        1.839      862.267
12/11/2021  11:56:00      -62.353      -12.770      -18.961       27.875       24.426       25.713      777.036      596.634      661.161        0.322        0.102       63.648       16.046        0.064      333.111        2.214      862.259
12/11/2021  11:57:00       20.733       18.496      -23.713       60.285       58.777       24.438     3634.275     3454.735      597.228        0.451        0.384       27.784       10.961        0.156      333.096        2.188      862.221
12/11/2021  11:58:00       23.112      -97.984      -21.109       37.950       69.297       41.200     1440.214     4802.119     1697.405        0.926        0.397      100.673       30.384        0.091      333.053        2.116      862.147
12/11/2021  11:59:00       83.491       62.460      -10.761       51.783       46.792       24.964     2681.504     2189.457      623.220        0.824        0.275      104.269       12.211        0.014      332.800        1.699      862.071
12/11/2021  12:00:00       88.894       66.421       -7.694       36.841       32.674       18.506     1357.243     1067.581      342.460        0.757        0.138      110.968       10.300        0.009      332.845        1.774      862.034
12/11/2021  12:01:00       28.393       35.502       -3.717       40.706       48.240       25.854     1656.955     2327.107      668.444        0.337        0.233       45.459        9.995        0.048      333.025        2.071      862.092
12/11/2021  12:02:00       34.791       39.559       -3.203       59.096       45.158       24.698     3492.299     2039.280      610.003        0.446        0.307       52.681       16.402        0.097      333.132        2.248      862.131
12/11/2021  12:03:00       51.014       64.081       -9.891       42.428       41.721       32.297     1800.098     1740.682     1043.098        0.569        0.229       81.907       22.154        0.073      333.063        2.134      862.181
12/11/2021  12:04:00       61.664       33.552      -16.650       43.901       53.245       31.723     1927.299     2835.075     1006.328        0.549        0.288       70.202       18.639        0.070      333.095        2.187      862.213
12/11/2021  12:05:00       75.602       22.971      -35.176       55.525       62.934       29.779     3082.970     3960.629      886.801        0.770        0.397       79.014       14.048        0.032      333.042        2.100      862.228
12/11/2021  12:06:00       50.179      -11.119      -26.623       63.064       62.890       34.894     3977.041     3955.213     1217.619        0.625        0.457       51.397       27.010        0.276      333.154        2.284      862.190
12/11/2021  12:07:00       97.404      -24.292      -25.578       48.002       49.385       41.004     2304.157     2438.831     1681.333        0.858        0.321      100.387       14.356        0.020      333.104        2.200      862.193
12/11/2021  12:08:00       31.619      -84.624      -38.901       59.299       59.584       31.568     3516.357     3550.242      996.516        0.887        0.403       90.338       25.196        0.078      333.221        2.395      862.220
12/11/2021  12:09:00       21.771       18.471      -18.266       48.260       45.770       28.295     2328.993     2094.861      800.596        0.319        0.261       28.550       23.207        0.661      333.210        2.376      862.270
12/11/2021  12:10:00      110.315       64.791      -12.827       30.097       32.995       18.799      905.812     1088.686      353.395        0.944        0.117      127.934       19.085        0.022      332.740        1.600      862.286
12/11/2021  12:11:00       37.842       24.079      -10.346       19.146       17.787       15.539      366.557      316.385      241.475        0.152        0.046       44.853        5.108        0.013      332.773        1.653      862.265
12/11/2021  12:12:00        7.832       -0.991      -10.341       12.023       17.981       14.631      144.563      323.326      214.060        0.043        0.034        7.894       11.087        1.972      332.964        1.969      862.223
12/11/2021  12:13:00       21.252       -4.018       -8.745       32.794       17.032       20.183     1075.473      290.104      407.348        0.116        0.089       21.629       15.196        0.494      333.004        2.037      862.183
12/11/2021  12:14:00       97.410       26.997      -21.707       21.373       14.865       14.826      456.811      220.980      219.816        0.579        0.045      101.082        7.123        0.005      332.827        1.742      862.129
12/11/2021  12:15:00       16.060       21.543       -0.848       45.064       31.738       25.776     2030.771     1007.304      664.383        0.221        0.185       26.870       16.319        0.369      333.077        2.156      862.084
12/11/2021  12:16:00      -13.065      -21.495        0.821       47.847       44.635       31.686     2289.313     1992.299     1003.991        0.296        0.264       25.154       15.506        0.380      333.480        2.824      862.090
12/11/2021  12:17:00      -17.766       12.923       -4.056       39.529       37.783       22.956     1562.514     1427.529      526.970        0.201        0.176       21.969        5.833        0.070      333.496        2.850      862.070
12/11/2021  12:18:00       60.310       13.521       -9.663       48.756       43.915       29.410     2377.126     1928.507      864.948        0.454        0.259       61.807       12.022        0.038      333.240        2.425      862.029
12/11/2021  12:19:00       84.408       48.526      -27.241       38.122       42.428       27.322     1453.262     1800.129      746.489        0.711        0.200       97.363       18.088        0.035      333.291        2.510      862.004
12/11/2021  12:20:00       88.596       50.595      -18.961       33.385       28.276       20.781     1114.560      799.527      431.850        0.656        0.117      102.025       10.224        0.010      333.296        2.517      861.947
12/11/2021  12:21:00       35.361        4.947       -7.561       36.167       29.589       19.242     1308.021      875.524      370.241        0.194        0.128       35.705       19.694        0.304      333.413        2.711      861.908
12/11/2021  12:22:00      -36.895       14.616       -3.802       36.286       31.738       21.364     1316.663     1007.305      456.442        0.218        0.139       39.685       11.330        0.082      333.670        3.137      861.909
12/11/2021  12:23:00       15.728      -18.208        2.919       33.434       28.941       26.760     1117.827      837.559      716.080        0.163        0.134       24.060       15.219        0.400      333.839        3.417      861.952
12/11/2021  12:24:00      -47.332       -1.001       -1.551       47.310       49.000       29.247     2238.199     2401.035      855.390        0.387        0.275       47.342       27.698        0.342      333.676        3.147      861.972
12/11/2021  12:25:00      -19.444        0.752       -4.133       25.624       28.264       20.392      656.584      798.864      415.850        0.113        0.094       19.459       13.042        0.449      333.737        3.248      861.964
12/11/2021  12:26:00       11.404      -36.392      -30.946       20.008       21.069       12.443      400.308      443.895      154.832        0.171        0.050       38.137        5.296        0.019      333.544        2.928      861.920
12/11/2021  12:27:00       46.961       31.861      -16.954       46.763       60.021       39.933     2186.802     3602.465     1594.636        0.544        0.369       56.749       17.442        0.094      333.757        3.281      861.868
12/11/2021  12:28:00       48.732       31.449        6.540       50.828       56.481       33.571     2583.467     3190.137     1127.027        0.515        0.345       57.998       15.179        0.068      333.840        3.419      861.848
12/11/2021  12:29:00       -0.190       30.417      -12.662       52.890       38.782       26.591     2797.346     1504.010      707.101        0.305        0.250       30.417       17.089        0.316      333.945        3.593      861.819
12/11/2021  12:30:00      -28.740       29.928      -20.131       30.399       30.883       17.073      924.102      953.760      291.492        0.215        0.108       41.493        9.910        0.057      334.048        3.765      861.845
12/11/2021  12:31:00       24.771       32.860       -7.212       25.669       49.584       22.442      658.874     2458.563      503.652        0.268        0.181       41.151       23.758        0.333      334.003        3.688      861.869
12/11/2021  12:32:00      -22.422      -29.478      -12.206       22.219       21.764       18.365      493.666      473.669      337.255        0.141        0.065       37.036        9.724        0.069      334.119        3.881      861.829
12/11/2021  12:33:00       25.683      -78.101      -25.988       52.063       61.356       38.386     2710.541     3764.517     1473.472        0.769        0.397       82.216       31.565        0.147      333.957        3.612      861.794
12/11/2021  12:34:00       72.940     -149.723      -29.507       21.850       36.614       16.612      477.432     1340.587      275.957        1.535        0.105      166.544       11.014        0.004      333.656        3.113      861.765
12/11/2021  12:35:00       91.883     -132.154      -40.172       29.590       33.199       17.755      875.564     1102.144      315.253        1.491        0.115      160.957       15.203        0.009      333.634        3.078      861.711
12/11/2021  12:36:00       96.835      -47.437      -32.979       35.574       53.834       27.757     1265.543     2898.064      770.425        0.882        0.247      107.830       21.603        0.040      333.832        3.406      861.699
12/11/2021  12:37:00       55.408        5.657      -12.110       57.720       52.204       43.029     3331.604     2725.264     1851.489        0.558        0.395       55.696       31.716        0.324      333.791        3.338      861.696
12/11/2021  12:38:00       40.131        5.296      -10.868       50.039       53.656       30.734     2503.928     2879.005      944.584        0.404        0.316       40.479       23.373        0.333      333.852        3.441      861.688
12/11/2021  12:39:00       32.695       -6.764      -18.190       30.489       45.616       31.520      929.579     2080.800      993.516        0.272        0.200       33.387       10.581        0.100      333.998        3.682      861.673
12/11/2021  12:40:00       48.150      -10.418      -15.549       47.208       55.840       40.252     2228.555     3118.112     1620.213        0.482        0.348       49.264       29.913        0.369      333.946        3.594      861.659
12/11/2021  12:41:00       71.509       -2.515      -12.667       43.193       50.437       32.438     1865.649     2543.875     1052.205        0.537        0.273       71.553       28.412        0.158      333.978        3.650      861.621
12/11/2021  12:42:00       88.476       -0.074      -19.442       40.064       58.193       23.963     1605.153     3386.430      574.224        0.688        0.278       88.476       14.128        0.025      333.839        3.416      861.581
12/11/2021  12:43:00       86.666      -11.989       -8.375       47.650       29.387       35.695     2270.521      863.582     1274.131        0.607        0.220       87.491       30.382        0.121      333.910        3.535      861.532
12/11/2021  12:44:00       34.696        3.968       -9.219       49.663       38.314       27.095     2466.459     1467.970      734.123        0.299        0.233       34.922       17.912        0.263      334.129        3.898      861.470
12/11/2021  12:45:00      -24.725      -24.800      -15.108       42.926       34.858       29.063     1842.632     1215.049      844.634        0.268        0.195       35.019       17.133        0.239      334.274        4.139      861.446
12/11/2021  12:46:00       16.467     -129.083      -13.815       55.410       51.679       31.856     3070.236     2670.704     1014.826        1.194        0.338      130.129       23.244        0.032      334.166        3.958      861.437
12/11/2021  12:47:00       65.340     -139.588      -37.983       35.326       31.930       35.844     1247.918     1019.504     1284.806        1.437        0.178      154.124       23.139        0.023      333.975        3.643      861.414
12/11/2021  12:48:00       54.795     -146.698      -46.848       34.267       35.382       30.866     1174.243     1251.866      952.692        1.505        0.169      156.598       18.092        0.013      334.108        3.862      861.387
12/11/2021  12:49:00       20.756      -72.646      -28.726       32.524       49.560       26.022     1057.794     2456.221      677.157        0.536        0.210       75.553       22.680        0.090      334.303        4.185      861.373
12/11/2021  12:50:00       56.475     -124.043      -24.691       44.548       62.461       31.146     1984.515     3901.325      970.074        1.302        0.343      136.294       31.908        0.055      334.320        4.213      861.364
12/11/2021  12:51:00       88.728     -143.731      -41.139       44.403       44.265       25.518     1971.608     1959.419      651.147        1.740        0.229      168.912       18.300        0.012      333.958        3.614      861.346
12/11/2021  12:52:00       25.902     -120.364      -23.650       43.120       40.542       25.792     1859.362     1643.646      665.227        0.994        0.208      123.120       31.900        0.067      334.094        3.840      861.313
12/11/2021  12:53:00       -0.994      -40.618      -35.526       19.087       31.206       21.175      364.301      973.839      448.373        0.235        0.089       40.631       15.765        0.151      334.189        3.997      861.302
12/11/2021  12:54:00        3.060        3.206       -3.278       15.267       22.641       14.040      233.077      512.612      197.109        0.049        0.047        4.432        8.476        3.658      334.374        4.302      861.310
12/11/2021  12:55:00       26.134      -47.556      -16.569       50.740       50.446       25.443     2574.579     2544.846      647.365        0.449        0.288       54.264       26.275        0.234      334.243        4.087      861.291
12/11/2021  12:56:00       55.085     -122.933      -37.369       36.310       28.906       24.915     1318.409      835.556      620.746        1.116        0.139      134.711       22.139        0.027      334.112        3.870      861.252
12/11/2021  12:57:00       70.046     -140.483      -39.370       38.639       58.324       33.089     1492.955     3401.662     1094.881        1.609        0.299      156.977       25.317        0.026      334.225        4.056      861.201
12/11/2021  12:58:00       70.541     -162.732      -34.101       22.303       30.549       19.280      497.440      933.261      371.723        1.721        0.090      177.364       15.877        0.008      333.857        3.447      861.187
12/11/2021  12:59:00       34.136      -56.155      -11.405       26.023       33.236       23.364      677.194     1104.619      545.884        0.339        0.116       65.716       22.439        0.117      334.157        3.944      861.172
12/11/2021  13:00:00        4.761      -20.957       -8.686       20.799       24.697       19.353      432.617      609.939      374.522        0.098        0.071       21.491       12.428        0.334      334.348        4.261      861.128
12/11/2021  13:01:00       26.510      -42.181      -24.681       30.016       26.251       29.471      900.933      689.115      868.515        0.277        0.123       49.820       21.357        0.184      334.251        4.099      861.105
12/11/2021  13:02:00       23.712      -83.450      -12.692       25.283       25.576       22.650      639.227      654.121      513.028        0.475        0.090       86.753       16.917        0.038      334.245        4.090      861.119
12/11/2021  13:03:00      -11.393      -16.215      -14.850       26.775       23.184       20.666      716.890      537.512      427.088        0.115        0.084       19.817       13.266        0.448      334.414        4.369      861.139
12/11/2021  13:04:00       51.660      -77.714      -29.133       37.219       86.253       35.089     1385.245     7439.601     1231.221        0.980        0.503       93.318       38.190        0.167      334.309        4.197      861.183
12/11/2021  13:05:00      111.732     -113.414      -36.704       49.962       65.344       29.312     2496.164     4269.852      859.183        1.716        0.381      159.207       29.465        0.034      334.142        3.918      861.199
12/11/2021  13:06:00      104.032     -126.200      -41.504       59.728       93.469       37.541     3567.386     8736.456     1409.341        2.109        0.686      163.552       35.785        0.048      334.210        4.030      861.200
12/11/2021  13:07:00       63.426     -213.532      -27.297       55.812       75.881       40.524     3114.987     5757.953     1642.222        3.044        0.526      222.753       41.997        0.036      333.933        3.567      861.171
12/11/2021  13:08:00      130.485     -208.535      -58.001       43.547       62.030       25.870     1896.379     3847.660      669.255        3.514        0.321      245.994       23.917        0.009      334.004        3.685      861.131
12/11/2021  13:09:00      136.568     -165.518      -48.701       42.463       61.573       26.750     1803.103     3791.186      715.585        2.736        0.315      214.586       31.075        0.021      333.904        3.521      861.116
12/11/2021  13:10:00       84.026     -144.914      -35.016       36.282       60.053       22.128     1316.358     3606.384      489.665        1.735        0.271      167.513       10.116        0.004      334.029        3.732      861.126
12/11/2021  13:11:00       80.881     -124.056      -33.471       25.266       33.568       23.407      638.362     1126.818      547.865        1.268        0.116      148.093       20.747        0.020      333.973        3.639      861.097
12/11/2021  13:12:00       25.963      -66.305      -21.152       25.630       39.035       27.285      656.905     1523.745      744.473        0.422        0.146       71.207       13.457        0.036      334.047        3.761      861.068
12/11/2021  13:13:00       39.645       -4.299      -24.237       43.419       55.172       33.656     1885.245     3043.931     1132.759        0.412        0.303       39.877       11.343        0.081      334.238        4.078      861.051
12/11/2021  13:14:00       67.151      -42.641      -18.324       62.162       44.018       33.848     3864.146     1937.551     1145.721        0.680        0.347       79.546       31.997        0.162      334.169        3.963      861.036
12/11/2021  13:15:00       82.176        3.931      -11.675       88.372       32.330       23.763     7809.606     1045.248      564.678        0.816        0.471       82.270       30.431        0.137      334.095        3.842      861.032
12/11/2021  13:16:00      149.974      -18.117      -24.472       65.958       44.991       27.276     4350.434     2024.153      743.998        1.527        0.356      151.064       26.521        0.031      333.922        3.556      861.003
12/11/2021  13:17:00       60.938      -15.950      -28.138       65.896       58.390       39.825     4342.342     3409.335     1586.025        0.705        0.467       62.991       25.494        0.164      334.192        4.001      860.959
12/11/2021  13:18:00      -34.752      -14.669      -26.429       24.823       31.435       20.518      616.167      988.145      420.981        0.207        0.101       37.721        3.940        0.011      334.248        4.095      860.963
12/11/2021  13:19:00       -5.000        0.299      -16.285       32.108       47.480       23.118     1030.902     2254.352      534.462        0.205        0.191        5.009       10.107        4.072      334.199        4.013      860.989
12/11/2021  13:20:00       46.110      -88.157      -33.246       41.201       29.864       29.753     1697.486      891.879      885.219        0.724        0.174       99.488       12.612        0.016      334.117        3.878      861.008
12/11/2021  13:21:00       62.563      -64.731      -36.612       45.762       56.831       34.977     2094.180     3229.798     1223.369        0.799        0.327       90.023       29.954        0.111      334.230        4.066      860.980
12/11/2021  13:22:00       77.774      -62.894      -46.581       56.607       78.168       44.596     3204.374     6110.169     1988.815        1.174        0.565      100.022       22.501        0.051      334.312        4.200      860.893
12/11/2021  13:23:00        4.023      -41.363      -28.262       72.849       44.588       40.448     5306.971     1988.057     1636.070        0.573        0.447       41.558        8.984        0.047      334.387        4.325      860.876
12/11/2021  13:24:00       84.468     -173.842      -41.890       50.995       52.138       28.083     2600.469     2718.382      788.656        2.261        0.305      193.277       21.622        0.013      333.989        3.664      860.907
12/11/2021  13:25:00      118.644     -240.286      -49.950       34.797       35.940       16.953     1210.864     1291.666      287.396        3.855        0.139      267.981        7.744        0.001      333.751        3.264      860.923
12/11/2021  13:26:00      142.732     -170.275      -49.964       44.127       42.058       34.733     1947.195     1768.869     1206.366        2.839        0.246      222.184       34.597        0.024      333.803        3.352      860.897
12/11/2021  13:27:00       62.594     -131.692      -49.546       52.543       77.931       34.758     2760.722     6073.250     1208.129        1.688        0.502      145.811       29.348        0.041      334.126        3.891      860.834
12/11/2021  13:28:00       65.900      -85.961      -25.039       65.822       73.409       43.158     4332.487     5388.945     1862.587        1.197        0.579      108.315       33.297        0.094      334.341        4.250      860.783
12/11/2021  13:29:00       34.308      -21.039      -15.795       73.325       43.112       46.196     5376.494     1858.621     2134.043        0.562        0.468       40.245       31.761        0.623      334.296        4.174      860.804
12/11/2021  13:30:00       18.010     -114.741      -23.101       62.605       66.824       40.378     3919.410     4465.451     1630.394        1.202        0.501      116.146       39.759        0.117      334.224        4.056      860.821
12/11/2021  13:31:00       87.946      -65.045      -19.222       44.216       34.220       32.968     1955.070     1171.028     1086.897        0.827        0.211      109.386       24.139        0.049      334.168        3.964      860.805
12/11/2021  13:32:00       35.273        9.128      -23.036       42.896       51.501       30.840     1840.030     2652.401      951.132        0.365        0.272       36.435       13.467        0.137      334.204        4.022      860.761
12/11/2021  13:33:00       19.492       -2.562      -20.438       46.265       42.824       35.025     2140.477     1833.876     1226.738        0.300        0.260       19.660       18.949        0.929      334.285        4.158      860.736
12/11/2021  13:34:00       64.775       -0.243      -15.398       46.599       55.096       40.011     2171.441     3035.561     1600.898        0.562        0.340       64.775       21.505        0.110      334.172        3.970      860.690
12/11/2021  13:35:00      124.055       10.903      -11.685       53.540       45.142       27.859     2866.516     2037.782      776.124        1.066        0.284      124.533       20.969        0.028      334.038        3.746      860.646
12/11/2021  13:36:00      129.976       61.320      -19.447       35.522       29.534       23.281     1261.838      872.250      542.002        1.185        0.134      143.715       10.321        0.005      333.884        3.492      860.621
12/11/2021  13:37:00       28.599       34.751        4.117       38.505       20.430       18.320     1482.650      417.369      335.612        0.214        0.112       45.006       20.143        0.200      334.001        3.687      860.639
12/11/2021  13:38:00       43.696     -103.025      -18.458       46.788       52.370       36.455     2189.109     2742.627     1328.983        0.956        0.313      111.909       38.365        0.118      334.083        3.821      860.661
12/11/2021  13:39:00       98.603     -104.840      -49.287       56.850       74.043       38.843     3231.881     5482.409     1508.747        1.668        0.511      143.923       28.360        0.039      334.304        4.187      860.646
12/11/2021  13:40:00       40.139      -83.475      -18.247       63.735       92.042       55.101     4062.142     8471.784     3036.104        1.224        0.779       92.624       55.893        0.364      334.288        4.162      860.635
12/11/2021  13:41:00       91.955     -221.891      -32.969       35.178       53.659       28.985     1237.459     2879.244      840.115        3.187        0.248      240.191       23.785        0.010      333.911        3.532      860.656
12/11/2021  13:42:00       77.217     -149.631      -37.715       31.300       45.140       26.146      979.688     2037.657      683.605        1.674        0.185      168.381       19.035        0.013      333.964        3.624      860.657
12/11/2021  13:43:00        4.427      -96.743      -11.704       47.859       32.059       21.394     2290.525     1027.808      457.712        0.665        0.189       96.845       20.966        0.047      334.156        3.942      860.685
12/11/2021  13:44:00       33.168       20.274      -12.721       35.135       45.137       28.220     1234.463     2037.317      796.378        0.287        0.203       38.873       25.006        0.414      334.349        4.262      860.668
12/11/2021  13:45:00      -10.482       30.580      -12.556       53.346       41.746       27.485     2845.809     1742.702      755.408        0.327        0.267       32.327       27.313        0.714      334.297        4.178      860.604
12/11/2021  13:46:00       94.635       23.299      -12.037       47.211       32.933       23.545     2228.860     1084.587      554.362        0.675        0.193       97.461       15.171        0.024      334.047        3.763      860.588
12/11/2021  13:47:00       61.810       63.032      -21.333       32.484       15.629       15.475     1055.233      244.270      239.465        0.489        0.077       88.281        7.672        0.008      333.989        3.665      860.589
12/11/2021  13:48:00       12.254       56.584       -3.535       17.218       19.483       17.811      296.476      379.597      317.240        0.218        0.050       57.896        5.639        0.009      334.082        3.821      860.592
12/11/2021  13:49:00       23.320       42.297       -4.281       28.309       21.326       18.975      801.400      454.779      360.042        0.198        0.081       48.300       13.218        0.075      334.154        3.938      860.589
12/11/2021  13:50:00       33.747       24.108      -15.980       33.108       33.131       24.363     1096.160     1097.655      593.577        0.238        0.139       41.474       19.816        0.228      334.322        4.218      860.528
12/11/2021  13:51:00      133.003        7.243      -20.341       26.568       40.755       24.383      705.841     1661.011      594.536        1.056        0.148      133.200       15.452        0.013      334.116        3.875      860.456
12/11/2021  13:52:00      113.700       20.745      -17.457       28.604       30.575       20.152      818.188      934.808      406.115        0.791        0.108      115.577       15.710        0.018      334.103        3.856      860.434
12/11/2021  13:53:00       86.425       45.786      -29.504       36.411       43.368       30.308     1325.797     1880.824      918.550        0.728        0.206       97.804       21.386        0.048      334.091        3.834      860.416
12/11/2021  13:54:00       68.709       -9.537      -44.309       45.012       69.656       30.164     2026.060     4852.010      909.843        0.728        0.389       69.368       24.056        0.120      334.462        4.450      860.402
12/11/2021  13:55:00       35.238      -58.696      -20.794       53.392       58.978       37.572     2850.758     3478.440     1411.677        0.643        0.387       68.462       21.837        0.102      334.550        4.596      860.400
12/11/2021  13:56:00       31.242      -98.751      -39.533       49.435       68.367       31.713     2443.836     4674.047     1005.696        1.021        0.406      103.575       29.140        0.079      334.461        4.446      860.377
12/11/2021  13:57:00       47.262        9.256      -19.312       55.751       68.057       34.867     3108.162     4631.758     1215.721        0.582        0.448       48.160       24.967        0.269      334.460        4.446      860.319
12/11/2021  13:58:00       39.428      -55.598      -40.284       72.964       61.287       37.422     5323.789     3756.073     1400.402        0.837        0.524       68.159       26.314        0.149      334.403        4.353      860.288
12/11/2021  13:59:00       42.292     -121.510      -37.724       63.024       40.954       27.056     3971.982     1677.223      732.047        1.218        0.319      128.660       28.071        0.048      334.345        4.256      860.253
12/11/2021  14:00:00       41.392      -86.934      -23.956       25.516       22.656       20.309      651.066      513.294      412.441        0.571        0.079       96.285        8.795        0.008      334.186        3.993      860.234
12/11/2021  14:01:00       -9.451      -39.186      -13.764       36.216       44.652       24.336     1311.621     1993.777      592.243        0.286        0.195       40.309       24.697        0.375      334.388        4.327      860.242
12/11/2021  14:02:00       13.460       -3.295      -10.304       40.643       45.846       31.605     1651.856     2101.855      998.896        0.252        0.238       13.858       17.498        1.594      334.552        4.598      860.223
12/11/2021  14:03:00      131.164       -1.007      -30.426       76.180       65.518       42.659     5803.456     4292.547     1819.761        1.502        0.596      131.168       34.955        0.071      334.414        4.369      860.154
12/11/2021  14:04:00      109.364      -53.318      -41.148       73.861       73.529       44.343     5455.469     5406.579     1966.282        1.466        0.641      121.669       16.299        0.018      334.407        4.358      860.158
12/11/2021  14:05:00       94.762      -48.561      -28.624       64.475       54.871       37.362     4156.994     3010.878     1395.913        1.036        0.428      106.480       19.138        0.032      334.444        4.419      860.156
12/11/2021  14:06:00       93.288      -56.527      -33.995       47.857       48.683       34.061     2290.320     2370.039     1160.185        0.944        0.291      109.078       19.186        0.031      334.567        4.623      860.136
12/11/2021  14:07:00       81.996      -89.148      -36.409       53.898       71.505       36.874     2904.998     5112.993     1359.706        1.269        0.469      121.123       15.568        0.017      334.489        4.493      860.088
12/11/2021  14:08:00       71.636      -41.493      -36.107       48.516       70.935       32.364     2353.813     5031.817     1047.432        0.829        0.422       82.785       22.981        0.077      334.587        4.657      860.050
12/11/2021  14:09:00       46.282      -87.967      -34.247       50.424       59.884       35.881     2542.560     3586.150     1287.420        0.923        0.371       99.400       27.269        0.075      334.557        4.608      860.021
12/11/2021  14:10:00       -2.520      -73.097      -23.359       54.924       59.665       35.582     3016.696     3559.865     1266.051        0.687        0.392       73.140       29.178        0.159      334.560        4.612      860.014
12/11/2021  14:11:00       27.090      -37.362      -11.719       54.798       59.342       33.100     3002.769     3521.447     1095.596        0.494        0.381       46.150       37.598        0.664      334.528        4.560      860.036
12/11/2021  14:12:00       -4.640        9.066       -2.423       43.306       33.723       20.700     1875.376     1137.270      428.484        0.177        0.172       10.184       12.563        1.522      334.565        4.620      860.048
12/11/2021  14:13:00       25.788      -24.187      -34.763       41.518       57.916       28.007     1723.779     3354.298      784.420        0.416        0.293       35.356       23.570        0.444      334.551        4.596      860.028
12/11/2021  14:14:00       57.850       -1.667      -25.407       45.947       75.758       37.712     2111.105     5739.276     1422.167        0.663        0.464       57.874       15.923        0.076      334.573        4.634      860.009
12/11/2021  14:15:00       93.095       23.533      -33.324       52.797       70.542       43.451     2787.536     4976.192     1888.032        0.999        0.483       96.023       30.243        0.099      334.500        4.512      859.984
12/11/2021  14:16:00       14.613      -67.430      -20.476       68.901       49.035       44.822     4747.286     2404.453     2008.997        0.717        0.458       68.995       32.911        0.228      334.629        4.727      859.981
12/11/2021  14:17:00      -25.078      -30.582      -12.661       40.067       57.639       26.333     1605.347     3322.269      693.441        0.367        0.281       39.549        9.920        0.063      334.629        4.727      860.044
12/11/2021  14:18:00       -6.153       12.311        4.189       20.011       36.317       14.516      400.423     1318.917      210.701        0.107        0.097       13.763        9.801        0.507      334.533        4.567      860.087
12/11/2021  14:19:00       -5.427      -61.070      -21.266       42.897       55.345       35.556     1840.153     3063.030     1264.208        0.519        0.308       61.311       22.043        0.129      334.756        4.937      860.084
12/11/2021  14:20:00      128.064       29.377      -10.327       88.768       63.064       38.196     7879.744     3977.112     1458.964        1.534        0.666      131.391       39.519        0.090      334.440        4.413      860.060
12/11/2021  14:21:00       93.651       18.330      -10.200       73.477       81.153       44.016     5398.802     6585.836     1937.379        1.156        0.696       95.428       37.378        0.153      334.524        4.552      860.027
12/11/2021  14:22:00       56.908       21.268      -26.434       53.267       51.328       33.066     2837.364     2634.521     1093.346        0.548        0.328       60.752       23.234        0.146      334.512        4.534      860.000
12/11/2021  14:23:00       74.166       43.494      -13.395       53.141       20.802       17.224     2823.920      432.738      296.670        0.556        0.178       85.978       15.251        0.031      334.428        4.393      860.001
12/11/2021  14:24:00      147.239       71.922      -20.286       63.324       31.520       19.138     4009.906      993.507      366.252        1.632        0.268      163.866       17.750        0.012      334.318        4.211      860.002
12/11/2021  14:25:00      158.738       27.744      -21.820       50.115       54.558       29.416     2511.480     2976.535      865.274        1.640        0.318      161.144       26.103        0.026      334.476        4.473      859.972
12/11/2021  14:26:00       58.835       18.262      -18.927       41.561       63.319       34.297     1727.282     4009.341     1176.269        0.553        0.346       61.604       26.256        0.182      334.520        4.544      859.968
12/11/2021  14:27:00       41.345      -71.990      -35.736       46.766       70.086       30.830     2187.031     4912.016      950.493        0.811        0.402       83.018       21.506        0.067      334.639        4.743      859.975
12/11/2021  14:28:00       53.964       24.972      -25.964       51.203       72.614       56.435     2621.709     5272.824     3184.964        0.764        0.554       59.462       45.956        0.597      334.528        4.559      859.938
12/11/2021  14:29:00       98.653      -86.394      -29.678       74.436       77.008       50.341     5540.662     5930.225     2534.182        1.604        0.700      131.134       47.883        0.133      334.563        4.616      859.895
12/11/2021  14:30:00       31.757      -43.051      -26.719       53.802       71.158       44.045     2894.649     5063.500     1939.930        0.674        0.495       53.496       27.348        0.261      334.569        4.626      859.872
12/11/2021  14:31:00       65.509       13.156      -25.528       43.810       63.329       35.202     1919.290     4010.543     1239.162        0.614        0.358       66.817       16.760        0.063      334.452        4.433      859.863
12/11/2021  14:32:00      103.748       46.697      -18.103       23.396       39.552       14.128      547.363     1564.391      199.603        0.779        0.116      113.773        8.029        0.005      334.282        4.150      859.842
12/11/2021  14:33:00       86.667       27.943      -18.108       20.975       15.588       13.428      439.934      242.993      180.312        0.474        0.043       91.060        8.033        0.008      334.306        4.192      859.854
12/11/2021  14:34:00       13.429       54.977      -16.685       36.696       19.229       15.133     1346.622      369.764      229.004        0.271        0.097       56.594       10.609        0.035      334.347        4.259      859.869
12/11/2021  14:35:00       72.861       44.815      -12.595       23.809       13.660       15.633      566.878      186.589      244.394        0.424        0.050       85.540       11.511        0.018      334.362        4.284      859.839
12/11/2021  14:36:00       65.490       22.715      -19.334       25.463       17.263       13.235      648.382      298.004      175.162        0.315        0.056       69.318        5.324        0.006      334.365        4.290      859.817
12/11/2021  14:37:00       13.049       30.074       -7.382       32.208       27.142       18.825     1037.378      736.686      354.397        0.163        0.106       32.783       13.476        0.169      334.414        4.369      859.834
12/11/2021  14:38:00      -12.511       16.665      -16.675       41.864       36.802       21.829     1752.630     1354.422      476.488        0.215        0.179       20.839       17.282        0.688      334.579        4.643      859.807
12/11/2021  14:39:00       -7.820       18.147      -13.917       42.480       26.539       20.312     1804.588      704.328      412.576        0.175        0.146       19.760       13.467        0.464      334.588        4.659      859.803
12/11/2021  14:40:00       82.851       42.658      -16.340       14.384       17.270       14.784      206.894      298.255      218.578        0.484        0.036       93.188       10.099        0.012      334.429        4.397      859.773
12/11/2021  14:41:00       47.934       34.496       -1.843       28.943       16.510       10.768      837.714      272.572      115.941        0.236        0.061       59.056       11.338        0.037      334.489        4.494      859.716
12/11/2021  14:42:00       16.760       62.850       -7.555       17.097       16.669       13.186      292.315      277.871      173.865        0.252        0.037       65.047        7.943        0.015      334.697        4.840      859.726
12/11/2021  14:43:00       29.305       88.616      -14.795       25.185       28.241       12.749      634.293      797.571      162.540        0.526        0.080       93.336        6.917        0.005      334.652        4.765      859.713
12/11/2021  14:44:00       20.639       79.696       -7.325       28.538       40.337       20.013      814.431     1627.080      400.538        0.484        0.142       82.325       17.473        0.045      334.814        5.035      859.666
12/11/2021  14:45:00       72.499       26.791      -12.052       28.133       15.800       13.518      791.491      249.649      182.747        0.367        0.061       77.291       14.303        0.034      334.607        4.689      859.662
12/11/2021  14:46:00        9.442        8.694      -30.592       34.279       28.890       23.694     1175.039      834.609      561.392        0.184        0.129       12.835       14.284        1.238      334.746        4.922      859.702
12/11/2021  14:47:00       44.269       37.969       -5.246       33.845       25.946       20.926     1145.477      673.220      437.899        0.284        0.113       58.321       16.214        0.077      334.694        4.835      859.736
12/11/2021  14:48:00       62.338       62.088       -4.241       31.266       28.657       22.143      977.588      821.241      490.292        0.502        0.114       87.982       14.641        0.028      334.647        4.756      859.778
12/11/2021  14:49:00       87.608       59.380       -9.405       33.339       37.311       26.517     1111.496     1392.099      703.142        0.725        0.160      105.835       12.918        0.015      334.667        4.789      859.792
12/11/2021  14:50:00       97.803       42.898      -27.601       35.347       41.831       26.283     1249.381     1749.812      690.777        0.793        0.184      106.797       19.974        0.035      334.648        4.758      859.767
12/11/2021  14:51:00      111.151       20.195      -18.634       15.282       13.223       10.573      233.550      174.839      111.794        0.681        0.026      112.971        8.892        0.006      334.537        4.574      859.738
12/11/2021  14:52:00       87.511       -9.657      -18.205       41.237       32.397       23.198     1700.488     1049.593      538.161        0.568        0.164       88.042       23.399        0.071      334.607        4.690      859.724
12/11/2021  14:53:00       62.835       40.442      -28.695       38.995       41.210       20.166     1520.631     1698.262      406.664        0.502        0.181       74.725       15.837        0.045      334.713        4.868      859.754
12/11/2021  14:54:00       13.744       32.366      -15.730       28.774       22.656       14.645      827.929      513.305      214.490        0.152        0.078       35.163       11.200        0.101      334.738        4.910      859.819
12/11/2021  14:55:00       67.625       55.649       -7.000       19.100       20.094        7.760      364.803      403.776       60.210        0.427        0.041       87.579        3.727        0.002      334.604        4.684      859.856
12/11/2021  14:56:00       71.509       40.076      -18.841       39.751       31.619       12.411     1580.177      999.764      154.033        0.490        0.137       81.973        8.966        0.012      334.732        4.900      859.846
12/11/2021  14:57:00       54.636       43.189      -21.680       31.350       31.968       17.023      982.847     1021.958      289.792        0.381        0.115       69.645       10.937        0.025      334.750        4.929      859.852
12/11/2021  14:58:00       80.993       66.950       -8.510       34.320       51.289       23.348     1177.855     2630.583      545.128        0.773        0.218      105.082       18.970        0.033      334.700        4.846      859.864
12/11/2021  14:59:00      119.245       79.202      -20.983       39.154       30.093       24.698     1533.026      905.613      610.003        1.199        0.152      143.152       15.581        0.012      334.734        4.903      859.852
12/11/2021  15:00:00      154.842       36.566      -21.595       18.865       29.706       14.389      355.902      882.465      207.036        1.361        0.072      159.101        7.923        0.002      334.624        4.718      859.836
12/11/2021  15:01:00      158.308       38.866      -15.236       41.299       38.342       21.842     1705.571     1470.077      477.060        1.523        0.183      163.010       16.913        0.011      334.636        4.738      859.856
12/11/2021  15:02:00      146.175       33.513      -16.667       27.105       22.404       19.165      734.668      501.923      367.281        1.219        0.080      149.968       10.337        0.005      334.649        4.759      859.884
12/11/2021  15:03:00       78.831       41.916      -11.706       26.462       14.278       17.143      700.218      203.866      293.884        0.465        0.060       89.282       13.331        0.022      334.688        4.825      859.905
12/11/2021  15:04:00       30.799       44.882      -16.094       16.158       13.529       13.759      261.074      183.023      189.304        0.193        0.032       54.433        3.639        0.004      334.725        4.888      859.904
12/11/2021  15:05:00       66.716       30.816       -8.036       42.757       23.875       11.883     1828.136      570.004      141.201        0.400        0.127       73.489       14.482        0.039      334.757        4.939      859.861
12/11/2021  15:06:00      101.176       71.154      -22.689       34.487       47.061       31.521     1189.351     2214.706      993.563        1.011        0.220      123.691       24.199        0.038      334.818        5.043      859.828
12/11/2021  15:07:00      115.470       40.765      -21.609       34.451       40.651       17.864     1186.873     1652.543      319.122        0.931        0.158      122.454       16.477        0.018      334.820        5.047      859.814
12/11/2021  15:08:00       77.847       29.526      -21.042       50.444       30.868       18.050     2544.589      952.825      325.798        0.560        0.191       83.258       21.322        0.066      334.849        5.092      859.840
12/11/2021  15:09:00       50.375       47.066      -18.321       12.904       12.971       16.262      166.514      168.250      264.458        0.284        0.030       68.941        5.864        0.007      334.832        5.063      859.851
12/11/2021  15:10:00       75.642       48.377      -25.374       38.976       44.137       23.736     1519.100     1948.092      563.378        0.637        0.202       89.789       13.150        0.021      334.926        5.222      859.813
12/11/2021  15:11:00      -33.553       10.716      -21.017       37.212       25.368       26.782     1384.752      643.550      717.274        0.221        0.137       35.223        4.961        0.020      335.027        5.390      859.765
12/11/2021  15:12:00      -37.318        0.086      -22.277       27.296       19.904       18.118      745.073      396.172      328.280        0.168        0.073       37.319       12.829        0.118      335.091        5.496      859.761
12/11/2021  15:13:00       18.856       32.259      -14.590       50.150       38.693       21.694     2515.016     1497.113      470.630        0.305        0.224       37.366       13.753        0.135      335.051        5.429      859.755
12/11/2021  15:14:00       84.918       47.860      -20.399       42.774       41.290       24.401     1829.582     1704.882      595.413        0.702        0.206       97.476       21.587        0.049      334.911        5.199      859.724
12/11/2021  15:15:00       93.582       30.600      -23.061       58.550       36.607       28.680     3428.071     1340.068      822.545        0.791        0.280       98.458       17.460        0.031      334.901        5.179      859.667
12/11/2021  15:16:00      152.644       37.033      -17.805       34.147       18.987       19.750     1165.994      360.515      390.071        1.345        0.096      157.072       14.768        0.009      334.849        5.094      859.624
12/11/2021  15:17:00       84.304       50.680      -10.898       38.304       20.240       18.858     1467.228      409.664      355.642        0.601        0.112       98.365       17.112        0.030      334.914        5.201      859.592
12/11/2021  15:18:00       30.175       33.547      -15.589       27.164       17.465       15.099      737.869      305.012      227.983        0.177        0.064       45.121       11.943        0.070      334.923        5.218      859.555
12/11/2021  15:19:00       25.993      -85.473      -30.121       39.915       48.542       18.210     1593.234     2356.337      331.619        0.658        0.214       89.338       15.303        0.029      335.092        5.499      859.584
12/11/2021  15:20:00       97.687     -139.824      -35.263       38.090       46.975       20.032     1450.816     2206.691      401.297        1.720        0.203      170.568       17.455        0.010      335.018        5.373      859.593
12/11/2021  15:21:00       53.556     -137.354      -31.749       25.418       27.749       20.417      646.092      770.031      416.873        1.229        0.092      147.426       10.764        0.005      335.075        5.469      859.560
12/11/2021  15:22:00       10.951      -43.676       -8.938       17.433       37.211       15.868      303.923     1384.667      251.789        0.202        0.097       45.028       16.625        0.136      335.111        5.529      859.540
12/11/2021  15:23:00       17.078      -17.814      -15.229       20.671       21.984       13.260      427.299      483.280      175.840        0.096        0.054       24.677        8.360        0.115      335.145        5.586      859.542
12/11/2021  15:24:00       37.929      -18.593      -20.789       36.481       88.734       36.140     1330.841     7873.807     1306.092        0.636        0.526       42.241       28.699        0.462      335.096        5.504      859.544
12/11/2021  15:25:00       45.089      -49.609      -38.515       52.844       56.010       43.604     2792.492     3137.174     1901.277        0.690        0.392       67.038       30.729        0.210      335.172        5.628      859.533
12/11/2021  15:26:00      101.759      -13.793      -22.556       63.456       62.206       44.724     4026.698     3869.597     2000.226        1.047        0.495      102.689       27.996        0.074      335.039        5.409      859.513
12/11/2021  15:27:00       43.702      -38.388      -10.573       56.521       48.543       32.774     3194.637     2356.452     1074.124        0.506        0.331       58.168       24.686        0.180      335.082        5.481      859.539
12/11/2021  15:28:00       -6.826      -92.664      -13.110       36.527       39.862       29.333     1334.202     1588.985      860.437        0.629        0.189       92.915       17.880        0.037      335.153        5.598      859.572
12/11/2021  15:29:00      -18.858      -40.452       -8.772       34.080       32.414       13.734     1161.480     1050.655      188.625        0.223        0.120       44.632       11.864        0.071      335.286        5.817      859.552
12/11/2021  15:30:00       35.082      -28.233      -17.266       44.036       39.372       27.856     1939.151     1550.157      775.930        0.329        0.213       45.031       17.974        0.159      335.166        5.619      859.552
12/11/2021  15:31:00       50.052       22.512       -4.454       23.074       31.725       17.011      532.387     1006.505      289.358        0.243        0.091       54.881        3.825        0.005      335.059        5.442      859.563
12/11/2021  15:32:00       47.251       31.763      -12.615       28.061       27.699       25.465      787.418      767.226      648.478        0.280        0.110       56.935       14.724        0.067      335.035        5.403      859.574
12/11/2021  15:33:00        9.324      -12.977      -16.481       11.220       24.996       11.959      125.895      624.811      143.029        0.071        0.045       15.980       10.518        0.433      335.191        5.661      859.632
12/11/2021  15:34:00       54.034      -82.858      -35.178       44.409       39.784       27.031     1972.181     1582.771      730.675        0.765        0.214       98.920       17.363        0.031      335.150        5.592      859.628
12/11/2021  15:35:00       84.079     -107.078      -44.028       43.156       61.833       45.252     1862.424     3823.357     2047.759        1.410        0.387      136.144       31.767        0.054      335.146        5.586      859.572
12/11/2021  15:36:00       56.547     -121.124      -18.426       44.449       67.571       36.490     1975.670     4565.824     1331.518        1.304        0.394      133.673       30.092        0.051      335.151        5.594      859.559
12/11/2021  15:37:00       60.783     -143.356      -35.027       47.487       63.370       40.284     2255.031     4015.748     1622.783        1.668        0.395      155.710       28.044        0.032      335.148        5.588      859.535
12/11/2021  15:38:00       84.315     -152.941      -22.500       57.278       94.830       46.358     3280.782     8992.689     2149.035        2.271        0.721      174.642       49.231        0.079      335.089        5.488      859.506
12/11/2021  15:39:00       87.842     -161.516      -23.890       48.808       76.775       35.521     2382.253     5894.378     1261.717        2.195        0.477      183.858       21.513        0.014      335.090        5.493      859.494
12/11/2021  15:40:00      119.689     -163.049      -49.193       51.536       47.583       35.925     2655.972     2264.182     1290.620        2.477        0.311      202.263       28.646        0.020      335.067        5.455      859.481
12/11/2021  15:41:00      100.811     -140.287      -40.138       63.965       60.653       37.921     4091.461     3678.821     1437.982        2.033        0.460      172.753       32.716        0.036      335.081        5.476      859.469
12/11/2021  15:42:00      -38.716      -29.199      -15.867       49.432       73.708       25.683     2443.565     5432.819      659.623        0.557        0.427       48.493       12.028        0.062      335.141        5.578      859.483
12/11/2021  15:43:00      123.294       58.620      -14.357       94.531       36.950       28.413     8936.164     1365.332      807.273        1.497        0.555      136.520       28.017        0.042      335.005        5.351      859.460
12/11/2021  15:44:00      212.108      -19.005      -21.469       94.890       68.619       55.940     9004.189     4708.571     3129.247        3.132        0.842      212.957       41.566        0.038      334.873        5.130      859.384
12/11/2021  15:45:00      210.861       53.121      -27.059       66.994       67.562       38.036     4488.244     4564.593     1446.751        2.926        0.525      217.449       25.181        0.013      334.774        4.966      859.377
12/11/2021  15:46:00      141.429       -3.276      -35.324       94.889       65.275       43.558     9003.991     4260.853     1897.287        1.821        0.758      141.467       27.539        0.038      334.859        5.110      859.414
12/11/2021  15:47:00       36.306       -9.975      -43.259       46.755       42.181       34.331     2185.990     1779.226     1178.615        0.422        0.257       37.652       11.395        0.092      335.020        5.377      859.418
12/11/2021  15:48:00       90.106       17.592       -7.516       74.005       46.298       33.933     5476.780     2143.459     1151.456        0.863        0.439       91.807       29.548        0.104      335.007        5.354      859.403
12/11/2021  15:49:00      104.067       44.588      -10.363       61.861       46.498       26.274     3826.742     2162.022      690.311        0.980        0.334      113.217       24.970        0.049      334.861        5.113      859.412
12/11/2021  15:50:00       23.109       41.293       -5.445       21.199       25.744       19.178      449.394      662.767      367.780        0.187        0.074       47.319        9.550        0.041      334.847        5.091      859.430
12/11/2021  15:51:00       13.049       47.847      -12.036       30.288       22.536       22.669      917.351      507.872      513.878        0.227        0.097       49.595       10.669        0.046      334.919        5.210      859.415
12/11/2021  15:52:00       87.719       76.442      -22.360       69.868       44.372       17.257     4881.576     1968.909      297.788        1.059        0.357      116.353       14.558        0.016      334.955        5.270      859.400
12/11/2021  15:53:00      116.930       -6.944      -31.850       82.161       64.427       50.364     6750.464     4150.810     2536.490        1.408        0.672      117.136       18.729        0.026      334.922        5.215      859.367
12/11/2021  15:54:00        3.151      -60.024      -11.350       65.098       90.018       45.708     4237.685     8103.297     2089.197        0.908        0.722       60.107       39.591        0.434      335.049        5.425      859.375
12/11/2021  15:55:00      -23.866      -44.771      -13.501       50.434       49.743       25.164     2543.634     2474.413      633.208        0.420        0.283       50.735       22.910        0.204      335.054        5.433      859.393
12/11/2021  15:56:00      112.572       56.168      -27.969       75.735       45.031       26.014     5735.717     2027.797      676.724        1.252        0.422      125.807       18.292        0.021      334.896        5.172      859.360
12/11/2021  15:57:00      131.306        4.515      -15.421       72.613       62.479       43.547     5272.643     3903.569     1896.307        1.428        0.554      131.383       30.740        0.055      334.911        5.196      859.327
12/11/2021  15:58:00       57.867       50.215      -25.326       55.437       55.672       36.067     3073.226     3099.371     1300.833        0.699        0.374       76.617       25.471        0.111      334.892        5.165      859.348
12/11/2021  15:59:00      -15.080        7.569      -14.056       52.351       39.402       15.895     2740.648     1552.534      252.666        0.251        0.227       16.873       14.284        0.717      334.947        5.256      859.409
12/11/2021  16:00:00       53.947       33.665      -10.123       36.959       43.456       25.489     1365.942     1888.453      649.674        0.402        0.195       63.590       18.445        0.084      334.809        5.029      859.426
12/11/2021  16:01:00       83.876       73.336       -4.210       32.276       39.205       25.339     1041.763     1537.023      642.082        0.783        0.161      111.416       17.656        0.025      334.795        5.005      859.419
12/11/2021  16:02:00      118.951       52.544      -20.166       41.100       17.198       14.957     1689.193      295.761      223.706        0.976        0.110      130.039       17.857        0.019      334.808        5.027      859.435
12/11/2021  16:03:00      119.631       59.565      -36.383       58.812       80.298       36.805     3458.874     6447.841     1354.641        1.522        0.563      133.640       35.140        0.069      334.888        5.158      859.402
12/11/2021  16:04:00       34.605      -64.408      -32.917       47.874       55.819       32.005     2291.940     3115.713     1024.345        0.643        0.322       73.116       23.979        0.108      334.970        5.293      859.389
12/11/2021  16:05:00        6.476      -14.693      -16.558       39.430       29.121       21.587     1554.719      848.059      466.004        0.170        0.143       16.056       10.877        0.459      335.002        5.348      859.390
12/11/2021  16:06:00       23.632        8.474       -6.847       47.637       35.964       28.105     2269.249     1293.379      789.899        0.251        0.218       25.106       14.045        0.313      334.906        5.189      859.326
12/11/2021  16:07:00       -6.095      -36.019      -32.722       38.225       43.834       26.406     1461.170     1921.400      697.258        0.324        0.204       36.531       20.423        0.313      334.968        5.293      859.346
12/11/2021  16:08:00      -14.361      -82.851        0.384       39.224       45.911       25.019     1538.519     2107.782      625.960        0.567        0.214       84.086       17.274        0.042      335.003        5.348      859.406
12/11/2021  16:09:00      -22.283       -9.187       -8.439       21.684       20.555       13.847      470.190      422.510      191.750        0.087        0.054       24.102       10.277        0.182      335.026        5.386      859.417
12/11/2021  16:10:00        5.441      -30.559       -5.479       24.174       21.874       22.150      584.378      478.462      490.631        0.127        0.078       31.040       15.316        0.243      334.942        5.249      859.408
12/11/2021  16:11:00      -24.093       36.383      -14.396       29.413       31.249       27.858      865.146      976.491      776.090        0.236        0.131       43.637        9.288        0.045      334.883        5.152      859.386
12/11/2021  16:12:00      -16.587      -19.428      -12.775       34.575       46.056       23.988     1195.460     2121.135      575.435        0.235        0.195       25.545       21.521        0.710      334.840        5.079      859.389
12/11/2021  16:13:00       11.521      -34.469        3.309       34.505       26.574       23.591     1190.582      706.168      556.515        0.189        0.123       36.343        9.519        0.069      334.981        5.315      859.418
12/11/2021  16:14:00       11.866      -54.816       -1.122       40.634       38.444       21.571     1651.096     1477.913      465.301        0.337        0.180       56.086       15.060        0.072      335.103        5.517      859.457
12/11/2021  16:15:00       92.265     -121.481      -46.148       66.552       95.598       42.320     4429.196     9138.949     1790.990        2.038        0.768      152.546       36.559        0.057      335.006        5.352      859.405
12/11/2021  16:16:00      179.726     -181.756      -54.786       48.228       66.632       42.091     2325.954     4439.821     1771.684        3.844        0.427      255.611       40.032        0.025      334.877        5.133      859.300
12/11/2021  16:17:00      103.456     -220.364      -37.077       61.397       61.308       46.359     3769.537     3758.686     2149.112        3.516        0.484      243.441       42.526        0.031      334.860        5.106      859.329
12/11/2021  16:18:00       99.945     -158.294      -39.974       57.420       52.892       34.028     3297.080     2797.516     1157.880        2.195        0.363      187.206       34.728        0.034      334.919        5.209      859.425
12/11/2021  16:19:00      168.664     -185.356      -48.321       77.221      106.244       56.947     5963.058    11287.751     3242.924        4.281        1.025      250.608       51.360        0.042      334.943        5.243      859.353
12/11/2021  16:20:00       96.636      -99.185      -48.215       87.528      115.519       54.596     7661.139    13344.725     2980.683        2.274        1.199      138.479       43.865        0.100      334.881        5.145      859.209
12/11/2021  16:21:00       26.770      -24.358      -14.477       59.144       45.576       39.987     3498.003     2077.207     1598.994        0.435        0.359       36.193       30.248        0.698      334.932        5.232      859.175
12/11/2021  16:22:00      -21.914       39.395       -6.602       36.926       65.637       28.770     1363.522     4308.267      827.689        0.429        0.325       45.080       16.394        0.132      334.924        5.218      859.204
12/11/2021  16:23:00      -55.437       57.042      -19.814       52.227       46.427       24.323     2727.661     2155.492      591.609        0.610        0.274       79.543       22.352        0.079      334.788        4.992      859.244
12/11/2021  16:24:00      -42.518       19.718       -5.128       41.611       27.887       22.577     1731.485      777.669      509.723        0.262        0.151       46.867       17.873        0.145      334.913        5.198      859.297
12/11/2021  16:25:00      -18.125       20.881      -14.387       29.189       20.615       13.587      852.026      424.997      184.599        0.122        0.073       27.650        9.805        0.126      334.840        5.080      859.325
12/11/2021  16:26:00       30.316      -44.796      -12.755       50.716       70.844       26.642     2572.100     5018.802      709.810        0.569        0.415       54.090       27.658        0.261      334.793        4.999      859.295
12/11/2021  16:27:00       89.081     -114.865      -45.476       56.875       74.525       39.824     3234.748     5553.928     1585.938        1.678        0.519      145.359       24.727        0.029      334.926        5.222      859.207
12/11/2021  16:28:00      188.461     -194.726      -77.848       67.745       91.975       46.294     4589.404     8459.392     2143.095        4.734        0.760      270.991       26.813        0.010      334.845        5.082      859.147
12/11/2021  16:29:00       79.231     -131.064      -34.615       88.874      118.447       70.634     7898.637    14029.773     4989.177        2.578        1.346      153.151       53.032        0.120      334.838        5.074      859.074
12/11/2021  16:30:00     -106.438      -16.071      -23.872       97.306      122.713       33.794     9468.405    15058.567     1142.003        1.891        1.283      107.645       17.725        0.027      334.815        5.037      859.110
12/11/2021  16:31:00     -185.180       84.033      -29.214       93.455       67.975       41.165     8733.827     4620.572     1694.525        2.862        0.752      203.355       29.536        0.021      334.808        5.023      859.166
12/11/2021  16:32:00      -79.388       12.865      -18.888      100.635       58.258       52.099    10127.420     3393.963     2714.285        1.153        0.812       80.424       47.607        0.350      334.689        4.826      859.219
12/11/2021  16:33:00      -22.410       13.608      -18.026       72.074       38.347       26.870     5194.668     1470.461      722.003        0.420        0.369       26.218       31.504        1.444      334.750        4.928      859.217
12/11/2021  16:34:00       97.399        7.821      -27.382       63.444       42.491       30.834     4025.198     1805.501      950.765        0.854        0.339       97.713       24.989        0.065      334.755        4.937      859.123
12/11/2021  16:35:00       41.545       47.031      -10.273       60.315       40.303       33.549     3637.956     1624.352     1125.523        0.521        0.319       62.753       26.650        0.180      334.793        5.000      859.031
12/11/2021  16:36:00       23.766        8.828       -7.718       34.759       23.622       15.783     1208.210      558.008      249.114        0.136        0.101       25.353       14.095        0.309      334.783        4.983      859.107
12/11/2021  16:37:00       25.008       35.396      -11.273       39.552       38.340       20.046     1564.333     1469.993      401.831        0.272        0.172       43.340       19.406        0.200      334.833        5.067      859.169
12/11/2021  16:38:00       61.692       26.495      -31.013       42.713       51.252       30.563     1824.406     2626.746      934.078        0.543        0.269       67.141       16.015        0.057      334.889        5.161      859.189
12/11/2021  16:39:00       67.779        9.414      -21.279       48.672       57.664       39.577     2368.966     3325.110     1566.366        0.620        0.363       68.430       21.771        0.101      334.872        5.132      859.168
12/11/2021  16:40:00       65.930       27.118       -9.796       41.475       41.266       31.345     1720.208     1702.849      982.504        0.479        0.220       71.289       19.519        0.075      334.674        4.802      859.202
12/11/2021  16:41:00       45.264       59.933        3.984       52.431       27.954       22.154     2749.028      781.442      490.792        0.484        0.201       75.106       19.521        0.068      334.630        4.727      859.226
12/11/2021  16:42:00        6.987        7.587       -3.555       22.752       23.085       20.177      517.675      532.905      407.093        0.079        0.073       10.314       12.210        1.401      334.628        4.724      859.207
12/11/2021  16:43:00      -19.763       30.011      -16.449       21.862       21.956       16.273      477.953      482.086      264.826        0.139        0.061       35.934       11.070        0.095      334.651        4.764      859.190
12/11/2021  16:44:00      -32.097       44.200      -21.291       24.986       21.483       20.013      624.278      461.537      400.516        0.246        0.074       54.624       11.183        0.042      334.672        4.798      859.152
12/11/2021  16:45:00       13.013       65.527      -10.906       27.059       28.187       18.381      732.179      794.510      337.846        0.322        0.093       66.807        6.844        0.010      334.700        4.845      859.128
12/11/2021  16:46:00       31.539       42.824       -3.143       36.059       25.365       21.029     1300.271      643.366      442.230        0.261        0.119       53.184        4.042        0.006      334.621        4.712      859.100
12/11/2021  16:47:00      -29.576        4.038       -6.436       27.474       27.012       24.451      754.846      729.671      597.857        0.151        0.104       29.850       15.887        0.283      334.677        4.807      859.075
12/11/2021  16:48:00        4.581      -59.698       -3.159       31.673       55.607       28.735     1003.209     3092.141      825.711        0.426        0.246       59.874       22.777        0.145      334.802        5.017      859.058
12/11/2021  16:49:00       21.152      -70.960      -19.491       34.454       52.400       27.142     1187.051     2745.758      736.676        0.527        0.233       74.045       19.763        0.071      334.846        5.090      859.068
12/11/2021  16:50:00       78.639      -13.799      -38.778       45.468       88.704       37.185     2067.329     7868.357     1382.691        0.960        0.566       79.841       32.647        0.167      334.698        4.842      859.060
12/11/2021  16:51:00      159.626     -121.417      -48.535       80.179       75.914       50.130     6428.704     5762.891     2513.028        2.864        0.735      200.556       39.175        0.038      334.643        4.748      859.046
12/11/2021  16:52:00       90.507      -54.647      -32.433       80.386       88.197       54.473     6461.858     7778.769     2967.345        1.472        0.860      105.725       46.439        0.193      334.594        4.666      859.052
12/11/2021  16:53:00      150.397      -25.167      -38.888      105.337       77.685       61.703    11095.979     6034.907     3807.245        2.285        1.047      152.488       35.928        0.056      334.592        4.664      859.028
12/11/2021  16:54:00       63.958        0.898       -8.847       76.296       87.683       66.147     5821.112     7688.360     4375.399        1.102        0.894       63.965       44.829        0.491      334.575        4.637      858.957
12/11/2021  16:55:00      102.538       -0.169       -6.707       69.608       56.693       38.209     4845.298     3214.057     1459.938        1.004        0.476      102.538       22.488        0.048      334.560        4.610      858.956
12/11/2021  16:56:00       15.427       -3.788      -14.144       52.434       32.738       21.689     2749.346     1071.792      470.414        0.237        0.215       15.885        8.004        0.254      334.507        4.522      859.002
12/11/2021  16:57:00        1.246        1.869      -15.339       33.264       60.825       38.087     1106.518     3699.700     1450.640        0.325        0.313        2.247       37.185      273.956      334.497        4.507      859.002
12/11/2021  16:58:00       53.924     -109.769      -27.532       50.101       65.867       47.186     2510.105     4338.495     2226.511        1.239        0.454      122.299       30.523        0.062      334.642        4.749      858.995
12/11/2021  16:59:00       22.051      -61.113      -20.093       83.366       53.629       41.487     6949.916     2876.059     1721.186        0.808        0.577       64.970       37.362        0.331      334.637        4.739      858.992
12/11/2021  17:00:00      -60.775      -33.864       -6.420       35.528       65.880       31.504     1262.220     4340.180      992.474        0.574        0.330       69.573       18.693        0.072      334.536        4.573      859.008
12/11/2021  17:01:00      -33.977       39.331      -20.883       26.045       24.784       14.870      678.329      614.255      221.105        0.233        0.076       51.975       11.636        0.050      334.433        4.402      859.006
12/11/2021  17:02:00        2.595       32.273       -1.384       28.135       17.714       15.337      791.574      313.803      235.239        0.120        0.067       32.378        8.124        0.063      334.380        4.315      858.977
12/11/2021  17:03:00       53.553       41.738        0.829       40.506       33.910       17.673     1640.708     1149.919      312.341        0.386        0.155       67.897        8.034        0.014      334.345        4.256      858.987
12/11/2021  17:04:00       99.549       73.974      -10.384       48.993       53.910       23.096     2400.270     2906.257      533.405        1.066        0.292      124.025       11.918        0.009      334.353        4.270      858.992
12/11/2021  17:05:00      120.220       26.898      -23.718       42.382       33.925       20.621     1796.250     1150.894      425.230        0.955        0.169      123.192       16.479        0.018      334.312        4.201      858.993
12/11/2021  17:06:00      108.590       22.195      -16.493       60.394       33.997       22.975     3647.470     1155.770      527.869        0.894        0.267      110.835       22.194        0.040      334.322        4.217      859.013
12/11/2021  17:07:00       99.138       13.031      -17.288       73.913       60.182       40.106     5463.070     3621.840     1608.463        1.049        0.535       99.991       26.713        0.071      334.425        4.389      858.988
12/11/2021  17:08:00      120.879       35.773      -24.082       68.485       47.440       32.962     4690.157     2250.518     1086.526        1.225        0.401      126.061       18.649        0.022      334.277        4.143      858.957
12/11/2021  17:09:00      110.954       33.206      -16.803       50.432       46.828       28.279     2543.434     2192.905      799.695        0.961        0.277      115.817       11.488        0.010      334.149        3.930      858.976
12/11/2021  17:10:00      132.731       35.084      -15.056       33.157       30.484       19.468     1099.389      929.273      378.999        1.074        0.120      137.290        9.955        0.005      334.127        3.894      859.022
12/11/2021  17:11:00      116.340       37.377      -18.626       24.907       16.608       16.404      620.353      275.810      269.105        0.822        0.058      122.196        9.894        0.007      334.145        3.923      859.037
12/11/2021  17:12:00       87.484        2.660      -19.076       37.151       34.600       22.319     1380.211     1197.163      498.129        0.555        0.154       87.525       20.248        0.054      334.218        4.045      859.038
12/11/2021  17:13:00       63.515       14.247      -25.363       52.236       82.644       40.417     2728.634     6830.112     1633.550        0.803        0.560       65.093       23.372        0.129      334.223        4.051      859.015
12/11/2021  17:14:00       81.158       41.940      -29.125       49.743       64.929       40.619     2474.348     4215.742     1649.869        0.877        0.417       91.354       19.805        0.047      334.170        3.965      858.958
12/11/2021  17:15:00       85.887        2.476      -38.942       61.538       62.457       46.004     3786.884     3900.866     2116.367        0.935        0.490       85.922       25.122        0.085      334.229        4.063      858.904
12/11/2021  17:16:00       69.133       28.466      -35.417       46.609       71.037       37.515     2172.374     5046.196     1407.407        0.773        0.431       74.764       25.906        0.120      334.189        3.997      858.890
12/11/2021  17:17:00      101.477       65.757      -25.524       57.025       62.422       38.940     3251.835     3896.486     1516.313        1.197        0.433      120.920        8.841        0.005      334.230        4.063      858.900
12/11/2021  17:18:00      133.428       51.841      -24.109       39.259       41.517       36.387     1541.288     1723.637     1324.037        1.283        0.229      143.145       16.606        0.013      334.278        4.144      858.895
12/11/2021  17:19:00      157.359       22.201      -27.893       63.474       42.162       28.260     4028.910     1777.616      798.631        1.632        0.330      158.918       26.696        0.028      334.182        3.984      858.900
12/11/2021  17:20:00      222.131       18.026      -32.752       24.371       26.474       19.863      593.945      700.860      394.541        2.621        0.084      222.862       13.080        0.003      334.128        3.891      858.922
12/11/2021  17:21:00      119.431        8.398      -20.835       67.138       44.803       31.541     4507.504     2007.335      994.860        1.114        0.375      119.726       22.126        0.034      334.100        3.849      858.935
12/11/2021  17:22:00       58.761        9.136      -13.124       38.180       38.029       28.184     1457.733     1446.217      794.355        0.370        0.185       59.467       17.685        0.088      334.157        3.944      858.910
12/11/2021  17:23:00      118.229       27.703      -11.328       43.928       28.897       25.273     1929.672      835.027      638.742        0.914        0.170      121.432       18.562        0.023      334.100        3.851      858.873
12/11/2021  17:24:00       79.216       71.521       -5.322       45.428       24.739       23.639     2063.696      612.022      558.790        0.733        0.162      106.726       21.313        0.040      334.113        3.871      858.833
12/11/2021  17:25:00      108.841       57.886      -14.000       46.320       23.130       21.335     2145.516      534.980      455.197        0.926        0.157      123.277       19.164        0.024      334.176        3.976      858.804
12/11/2021  17:26:00      112.217       34.312       -8.540       53.042       45.337       28.749     2813.485     2055.470      826.518        0.977        0.285      117.346       28.822        0.060      334.211        4.032      858.806
12/11/2021  17:27:00       88.824       42.257      -31.637       41.237       60.394       28.212     1700.505     3647.403      795.932        0.841        0.307       98.363        6.952        0.005      334.265        4.124      858.839
12/11/2021  17:28:00       11.952      -52.710      -15.102       47.126       64.957       52.062     2220.865     4219.424     2710.423        0.615        0.458       54.048       23.660        0.192      334.354        4.270      858.882
12/11/2021  17:29:00       72.188     -152.649      -29.964       40.930       39.466       34.277     1675.302     1557.570     1174.938        1.691        0.220      168.857       24.213        0.021      334.377        4.311      858.941
12/11/2021  17:30:00       74.398     -197.625      -24.683       40.612       39.029       28.848     1649.360     1523.295      832.189        2.460        0.200      211.165       24.593        0.014      334.228        4.058      859.012
12/11/2021  17:31:00       71.336     -163.821      -37.409       40.946       42.417       25.976     1676.601     1799.174      674.744        1.874        0.208      178.679       21.311        0.014      334.260        4.113      859.058
12/11/2021  17:32:00       82.503     -121.500      -26.392       34.444       56.671       22.950     1186.365     3211.639      526.707        1.359        0.246      146.864       10.350        0.005      334.272        4.136      859.061
12/11/2021  17:33:00       74.344      -27.531      -39.965       43.114       68.909       36.605     1858.827     4748.402     1339.925        0.791        0.397       79.278       21.646        0.075      334.254        4.104      859.022
12/11/2021  17:34:00       65.784      -15.901      -41.324       38.075       53.404       27.831     1449.694     2851.992      774.543        0.568        0.254       67.678       17.496        0.067      334.212        4.035      858.989
12/11/2021  17:35:00       69.728       52.118      -25.214       45.207       54.781       38.012     2043.675     3001.009     1444.879        0.735        0.324       87.053       21.505        0.061      334.093        3.837      858.943
12/11/2021  17:36:00       64.834       19.467      -28.350       45.851       57.754       40.105     2102.359     3335.519     1608.387        0.621        0.352       67.693       21.849        0.104      334.147        3.928      858.888
12/11/2021  17:37:00       45.270       35.601        4.343       39.586       45.600       36.765     1567.067     2079.343     1351.664        0.417        0.250       57.592       25.980        0.203      334.099        3.847      858.865
12/11/2021  17:38:00       74.981       12.211      -30.866       41.958       51.328       35.145     1760.492     2634.594     1235.183        0.618        0.282       75.969       20.704        0.074      334.012        3.705      858.876
12/11/2021  17:39:00       61.357      -38.786      -16.090       50.172       60.331       39.166     2517.274     3639.828     1533.941        0.661        0.385       72.589       31.675        0.190      334.012        3.705      858.903
12/11/2021  17:40:00      122.295      -40.258      -20.459       76.182       61.591       54.850     5803.708     3793.488     3008.479        1.480        0.630      128.751       48.376        0.141      334.007        3.695      858.914
12/11/2021  17:41:00       77.190        8.106      -17.492       74.261       57.802       44.565     5514.656     3341.061     1986.059        0.858        0.542       77.614       29.991        0.149      334.025        3.725      858.909
12/11/2021  17:42:00      151.175        5.556      -12.783       75.433       56.921       38.455     5690.148     3240.011     1478.799        1.673        0.520      151.277       24.096        0.025      333.911        3.536      858.889
12/11/2021  17:43:00      159.595       19.453      -23.240       47.142       39.071       35.311     2222.374     1526.519     1246.881        1.569        0.250      160.776       21.349        0.018      333.872        3.472      858.884
12/11/2021  17:44:00      160.516       37.160      -16.352       50.053       32.475       27.920     2505.262     1054.651      779.503        1.588        0.217      164.762       12.084        0.005      333.824        3.391      858.879
12/11/2021  17:45:00      155.138       20.529      -17.763       60.451       62.593       41.568     3654.310     3917.893     1727.905        1.705        0.465      156.491       27.017        0.030      333.892        3.503      858.872
12/11/2021  17:46:00      132.057       39.171      -26.892       67.339       56.571       39.838     4534.558     3200.238     1587.090        1.451        0.466      137.744       25.247        0.034      333.824        3.392      858.889
12/11/2021  17:47:00       16.965       -4.929      -14.698       79.756       49.017       36.014     6361.069     2402.682     1297.028        0.529        0.503       17.667       16.890        0.914      333.913        3.540      858.912
12/11/2021  17:48:00      -72.083      -51.249        4.356       49.032       53.279       44.733     2404.171     2838.678     2001.030        0.754        0.362       88.445       17.582        0.040      333.973        3.640      858.938
12/11/2021  17:49:00      -31.494      -24.925      -16.565       51.567       44.180       30.148     2659.113     1951.854      908.893        0.370        0.276       40.163       25.497        0.403      333.957        3.615      858.967
12/11/2021  17:50:00      -13.083       -0.429       -7.785       24.759       26.629       21.224      613.022      709.094      450.459        0.100        0.089       13.090       13.517        1.066      333.939        3.583      858.998
12/11/2021  17:51:00       27.792       30.616        0.983       50.708       26.395       16.643     2571.276      696.698      276.994        0.263        0.177       41.349       14.254        0.119      333.867        3.464      859.012
12/11/2021  17:52:00      101.393       79.023      -12.863       41.253       42.163       20.481     1701.779     1777.727      419.456        1.029        0.195      128.550       12.876        0.010      333.786        3.327      859.000
12/11/2021  17:53:00      112.544       78.372      -24.596       32.050       51.999       30.677     1027.193     2703.941      941.095        1.204        0.234      137.144       16.664        0.015      333.806        3.361      858.991
12/11/2021  17:54:00       32.347      -49.950      -28.291       34.219       59.762       33.437     1170.950     3571.500     1118.001        0.510        0.293       59.509       20.089        0.114      334.001        3.686      858.999
12/11/2021  17:55:00      114.517       18.278      -27.388       43.184       25.086       24.733     1864.824      629.321      611.717        0.865        0.155      115.967        7.662        0.004      333.780        3.320      859.014
12/11/2021  17:56:00       66.930       26.968      -24.337       43.220       52.415       37.630     1867.998     2747.374     1415.989        0.591        0.302       72.159       16.070        0.050      333.795        3.344      859.032
12/11/2021  17:57:00       60.194       23.448      -30.704       40.780       50.379       31.738     1663.029     2538.060     1007.275        0.516        0.260       64.599       17.457        0.073      333.841        3.419      859.030
12/11/2021  17:58:00       87.177       94.126       -2.604       47.527       45.178       34.180     2258.834     2041.061     1168.302        1.097        0.273      128.294       23.742        0.034      333.748        3.267      858.994
12/11/2021  17:59:00       77.815       10.687      -20.281       46.307       51.112       30.217     2144.335     2612.437      913.049        0.612        0.283       78.545       19.389        0.061      333.708        3.200      858.933
12/11/2021  18:00:00      160.579       36.057      -10.467       42.987       38.016       28.705     1847.892     1445.186      823.965        1.566        0.206      164.578       16.876        0.011      333.590        3.005      858.871
12/11/2021  18:01:00      193.784      104.274      -13.494       33.467       29.522       20.703     1120.022      871.544      428.616        2.551        0.121      220.057       15.632        0.005      333.604        3.026      858.846
12/11/2021  18:02:00       83.014       76.434       -7.062       47.938       39.294       27.568     2298.080     1543.982      759.990        0.869        0.230      112.843       28.484        0.064      333.612        3.043      858.883
12/11/2021  18:03:00       28.971       69.983       -7.585       39.006       30.926       21.572     1521.476      956.432      465.333        0.437        0.147       75.743        8.934        0.014      333.713        3.208      858.948
12/11/2021  18:04:00      -29.963       33.982      -14.020       30.373       24.336       20.092      922.525      592.263      403.696        0.208        0.096       45.305       14.189        0.098      333.690        3.172      859.003
12/11/2021  18:05:00      -58.617       36.567      -23.284       25.989       23.698       13.401      675.417      561.612      179.595        0.337        0.071       69.088        6.517        0.009      333.589        3.004      859.041
12/11/2021  18:06:00      -79.814       30.429      -18.282       39.991       28.651       21.514     1599.258      820.904      462.846        0.526        0.144       85.418       20.573        0.058      333.662        3.124      859.050
12/11/2021  18:07:00      -74.636       49.421      -21.487       23.862       16.585       13.497      569.385      275.049      182.165        0.475        0.051       89.515        5.096        0.003      333.722        3.224      859.041
12/11/2021  18:08:00      -70.800       46.728      -19.118       29.986       22.817       14.038      899.163      520.599      197.073        0.459        0.081       84.830        9.186        0.012      333.721        3.221      859.058
12/11/2021  18:09:00      -91.950       50.878      -14.725       34.955       23.266       18.280     1221.845      541.298      334.152        0.668        0.105      105.087       14.287        0.018      333.737        3.248      859.089
12/11/2021  18:10:00      -83.384       76.873      -23.975       25.252       23.026       15.143      637.653      530.213      229.315        0.742        0.070      113.412       12.064        0.011      333.778        3.315      859.102
12/11/2021  18:11:00      -56.512       64.264      -13.297       29.022       28.008       15.354      842.290      784.425      235.745        0.468        0.093       85.578       14.674        0.029      333.806        3.363      859.089
12/11/2021  18:12:00      -33.049       84.960       -9.548       23.120       29.523       20.223      534.539      871.634      408.983        0.511        0.091       91.162        9.998        0.012      333.990        3.669      859.092
12/11/2021  18:13:00      -13.236       -2.011       -0.748       15.039       17.856       14.504      226.162      318.848      210.355        0.047        0.038       13.388       10.172        0.577      334.028        3.732      859.110
12/11/2021  18:14:00        9.287      -40.570      -25.570       22.076       18.435       14.604      487.337      339.834      213.271        0.171        0.052       41.619        6.328        0.023      333.947        3.597      859.153
12/11/2021  18:15:00       13.470       -4.749      -22.145       24.680       37.992       18.359      609.119     1443.419      337.050        0.154        0.119       14.282       21.631        2.294      333.942        3.588      859.166
12/11/2021  18:16:00       67.000       43.206      -14.656       54.269       38.829       16.451     2945.132     1507.730      270.649        0.565        0.236       79.723       11.326        0.020      333.896        3.511      859.132
12/11/2021  18:17:00       95.149       63.474      -15.107       29.486       16.575       14.379      869.433      274.740      206.751        0.733        0.068      114.378       10.583        0.009      333.861        3.454      859.103
12/11/2021  18:18:00       72.164       82.084       -9.744       32.188       22.313       13.257     1036.092      497.850      175.759        0.687        0.085      109.295        8.009        0.005      333.921        3.554      859.095
12/11/2021  18:19:00        3.912      104.992      -10.136       31.455       35.705       22.742      989.408     1274.832      517.215        0.696        0.139      105.065       17.581        0.028      334.032        3.738      859.102
12/11/2021  18:20:00      -23.387       43.740       -5.636       29.227       28.966       27.117      854.244      839.051      735.325        0.246        0.121       49.600       17.956        0.131      333.902        3.522      859.100
12/11/2021  18:21:00      -14.504       92.705      -15.264       24.929       29.733       19.898      621.447      884.030      395.939        0.547        0.095       93.833       14.569        0.024      334.024        3.723      859.097
12/11/2021  18:22:00        4.190       83.833      -17.532       19.714       22.549       16.639      388.643      508.469      276.862        0.426        0.059       83.937       10.641        0.016      334.071        3.801      859.092
12/11/2021  18:23:00      -56.321       25.801      -18.627       32.840       30.028       19.443     1078.495      901.682      378.017        0.327        0.118       61.949       11.598        0.035      333.848        3.433      859.108
12/11/2021  18:24:00      -95.828       33.084      -13.993       41.738       29.579       25.239     1742.024      874.920      637.011        0.686        0.163      101.378       15.894        0.025      333.703        3.192      859.119
12/11/2021  18:25:00     -110.176       57.948      -11.489       31.062       24.395       20.069      964.847      595.096      402.766        0.880        0.098      124.485       16.571        0.018      333.738        3.250      859.098
12/11/2021  18:26:00     -119.494       42.854       -4.733       42.513       33.256       22.023     1807.382     1105.964      485.004        0.977        0.170      126.946       20.154        0.025      333.777        3.315      859.090
12/11/2021  18:27:00     -132.668       26.407       -8.797       35.687       39.981       20.711     1273.562     1598.486      428.937        1.084        0.165      135.271       16.975        0.016      333.776        3.313      859.084
12/11/2021  18:28:00     -134.008       24.829        2.575       85.680       64.154       37.695     7341.030     4115.729     1420.918        1.573        0.644      136.289       41.399        0.092      333.678        3.149      859.054
12/11/2021  18:29:00     -127.306       21.072       -4.452      104.098       35.687       32.705    10836.317     1273.560     1069.586        1.492        0.659      129.038       41.359        0.103      333.694        3.177      859.037
12/11/2021  18:30:00     -104.665       14.402      -12.848       68.424       53.932       33.887     4681.890     2908.687     1148.299        1.003        0.437      105.651       28.841        0.075      333.726        3.231      859.035
12/11/2021  18:31:00     -160.574       51.309      -28.305       36.970       31.277       27.499     1366.750      978.229      756.180        1.616        0.155      168.572       16.824        0.010      333.786        3.328      859.045
12/11/2021  18:32:00     -152.406       44.335      -26.716       57.189       50.167       35.882     3270.537     2516.701     1287.506        1.649        0.354      158.724       28.722        0.033      333.712        3.205      859.045
12/11/2021  18:33:00     -159.248      138.312      -25.525       43.534       46.288       37.262     1895.229     2142.545     1388.454        2.528        0.271      210.927       25.445        0.015      333.747        3.263      859.028
12/11/2021  18:34:00     -119.765       55.166      -21.065       70.431       38.551       32.673     4960.511     1486.160     1067.507        1.267        0.376      131.859       29.247        0.049      333.839        3.416      859.011
12/11/2021  18:35:00      -91.896       35.885      -16.130       59.785       38.029       32.312     3574.252     1446.187     1044.060        0.803        0.303       98.654       32.036        0.105      333.840        3.420      859.018
12/11/2021  18:36:00      -91.977       45.821      -19.759       41.587       28.355       26.374     1729.472      804.017      695.584        0.709        0.161      102.759       12.573        0.015      333.810        3.369      859.045
12/11/2021  18:37:00      -17.349       14.914      -10.344       31.652       22.490       27.210     1001.842      505.792      740.375        0.144        0.112       22.878       19.418        0.720      333.677        3.149      859.065
12/11/2021  18:38:00       12.554      -36.994        6.946       31.774       48.356       28.658     1009.575     2338.299      821.308        0.287        0.208       39.066       16.991        0.189      333.700        3.188      859.091
12/11/2021  18:39:00      -22.393       29.988      -29.132       33.068       41.381       21.333     1093.495     1712.390      455.118        0.275        0.163       37.426       14.727        0.155      333.753        3.275      859.055
12/11/2021  18:40:00      -16.319       -2.425       -9.753       41.508       26.883       23.384     1722.899      722.717      546.816        0.168        0.150       16.499       20.825        1.593      333.648        3.102      859.050
12/11/2021  18:41:00       -7.050      -16.876        2.304       29.952       39.309       26.569      897.147     1545.190      705.932        0.174        0.157       18.290       20.593        1.268      333.610        3.040      859.084
12/11/2021  18:42:00      -24.494       -3.346       -7.503       39.652       27.414       23.323     1572.311      751.531      543.968        0.177        0.143       24.722       19.108        0.597      333.607        3.033      859.102
12/11/2021  18:43:00      -45.733       -8.657       -9.331       33.708       20.226       20.321     1136.258      409.091      412.945        0.211        0.098       46.546       17.932        0.148      333.795        3.344      859.113
12/11/2021  18:44:00      -76.943       67.401      -10.534       22.309       23.502       11.695      497.684      552.337      136.762        0.588        0.059      102.289       11.384        0.012      333.904        3.525      859.123
12/11/2021  18:45:00      -35.884       71.156       -7.558       17.079       19.013        9.572      291.686      361.496       91.622        0.358        0.037       79.692        5.505        0.005      334.116        3.877      859.091
12/11/2021  18:46:00      -40.382       65.700      -11.834       14.838       15.685       11.820      220.161      246.027      139.710        0.335        0.030       77.118        7.853        0.010      334.131        3.903      859.001
12/11/2021  18:47:00      -39.872       22.046       -9.062       18.200       13.078       10.526      331.238      171.030      110.807        0.139        0.031       45.561        5.368        0.014      334.028        3.732      858.977
12/11/2021  18:48:00      -62.369       57.988       -7.821       16.270       21.103       14.431      264.723      445.320      208.256        0.412        0.046       85.161        7.241        0.007      333.880        3.486      858.979
12/11/2021  18:49:00      -62.281       87.485      -14.507       42.601       28.214       16.308     1814.847      796.036      265.949        0.731        0.144      107.390        7.285        0.005      333.949        3.600      858.976
12/11/2021  18:50:00      -78.142       57.018      -25.315       63.296       28.712       19.799     4006.365      824.369      391.987        0.761        0.261       96.733       25.953        0.072      333.955        3.609      858.985
12/11/2021  18:51:00     -139.448       43.678      -24.940       39.059       20.308       15.023     1525.587      412.435      225.702        1.207        0.108      146.129       17.004        0.014      333.801        3.353      859.027
12/11/2021  18:52:00      -62.625       26.256      -21.454       21.061       23.201       19.475      443.579      538.300      379.294        0.322        0.068       67.906       12.321        0.033      333.770        3.303      859.025
12/11/2021  18:53:00      -53.687       53.818       -8.959       19.124       17.833       11.740      365.736      318.004      137.822        0.334        0.041       76.017        6.469        0.007      333.894        3.510      858.982
12/11/2021  18:54:00      -16.831        2.100      -13.928       29.690       18.098       21.843      881.490      327.521      477.129        0.108        0.084       16.962       14.337        0.714      333.904        3.525      858.995
12/11/2021  18:55:00      -53.037       28.805       -6.043       44.011       36.606       25.157     1937.011     1339.983      632.874        0.379        0.195       60.354       25.704        0.181      333.885        3.494      859.015
12/11/2021  18:56:00      -73.063       28.495      -14.150       38.156       27.273       29.273     1455.883      743.839      856.938        0.470        0.153       78.423       26.090        0.111      334.254        4.104      858.963
12/11/2021  18:57:00      -59.370       14.163       -8.140       60.906       25.774       21.821     3709.594      664.279      476.165        0.432        0.243       61.036       19.884        0.106      333.850        3.437      858.968
12/11/2021  18:58:00      -53.166        4.530       -7.897       17.459       13.472       11.552      304.815      181.497      133.438        0.176        0.031       53.358        5.272        0.010      333.961        3.620      858.958
12/11/2021  18:59:00      -70.459       11.958       -9.677       26.388       18.251       13.417      696.312      333.097      180.009        0.321        0.060       71.466        6.338        0.008      334.131        3.903      858.957
12/11/2021  19:00:00      -95.006        0.439      -15.457       24.375       23.957       10.405      594.160      573.934      108.262        0.527        0.064       95.007        7.822        0.007      334.169        3.964      858.952
12/11/2021  19:01:00      -50.953      -15.941      -11.187       12.755       17.343       10.711      162.703      300.773      114.727        0.178        0.029       53.388       10.456        0.038      334.276        4.141      858.919
12/11/2021  19:02:00      -88.549      -26.343      -12.030       51.737       53.184       24.494     2676.745     2828.566      599.955        0.739        0.305       92.385       24.503        0.070      334.679        4.811      858.955
12/11/2021  19:03:00     -107.846      -16.086      -13.212       58.267       33.484       31.826     3395.062     1121.148     1012.870        0.880        0.276      109.039       31.734        0.085      333.999        3.681      859.008
12/11/2021  19:04:00      -91.599      -40.856       -3.883       46.370       32.916       15.820     2150.189     1083.478      250.271        0.678        0.174      100.297       18.020        0.032      334.414        4.368      858.990
12/11/2021  19:05:00      -47.198      -13.161       -4.874       26.139       20.668       15.780      683.272      427.163      249.000        0.189        0.068       48.999       10.110        0.043      334.427        4.393      858.903
12/11/2021  19:06:00      -70.265        3.363      -11.975       16.748       40.040       15.479      280.481     1603.196      239.604        0.361        0.106       70.345        7.249        0.011      334.646        4.755      858.842
12/11/2021  19:07:00      -92.058       53.436      -25.873       31.811       30.436       12.009     1011.951      926.367      144.224        0.704        0.104      106.443       15.007        0.020      334.156        3.942      858.812
12/11/2021  19:08:00      -49.727       -0.623       -7.441       41.830       32.404       30.812     1749.736     1050.037      949.392        0.314        0.187       49.731       14.838        0.089      333.845        3.428      858.847
12/11/2021  19:09:00      -36.415       -0.521       -5.715       55.531       37.709       36.410     3083.665     1421.969     1325.715        0.359        0.292       36.419       26.069        0.512      333.898        3.517      858.866
12/11/2021  19:10:00     -132.820        3.535       -1.593       50.139       45.537       39.175     2513.948     2073.597     1534.655        1.189        0.306      132.867       32.680        0.060      334.435        4.404      858.848
12/11/2021  19:11:00     -131.960        2.901       -8.227       42.088       43.912       28.534     1771.394     1928.277      814.208        1.100        0.226      131.992       20.556        0.024      334.468        4.459      858.842
12/11/2021  19:12:00     -104.505       11.235      -11.173       36.780       42.179       23.411     1352.738     1779.078      548.089        0.743        0.184      105.107       19.847        0.036      334.335        4.238      858.833
12/11/2021  19:13:00     -138.096        0.128       -8.790       43.952       34.338       31.265     1931.822     1179.064      977.510        1.162        0.204      138.096       17.255        0.016      334.617        4.706      858.821
12/11/2021  19:14:00     -163.268      -17.004      -11.605       54.823       49.782       29.336     3005.597     2478.223      860.580        1.671        0.317      164.151       16.977        0.011      334.828        5.057      858.847
12/11/2021  19:15:00     -145.906       17.505      -15.822       49.466       32.787       22.276     2446.848     1074.995      496.220        1.293        0.201      146.952       11.521        0.006      334.803        5.018      858.843
12/11/2021  19:16:00     -179.940      -14.720      -10.266       96.177       35.892       41.651     9250.031     1288.208     1734.778        2.248        0.614      180.541       48.289        0.072      334.857        5.107      858.834
12/11/2021  19:17:00     -169.520       17.902        6.865      114.633       83.344       60.848    13140.725     6946.266     3702.532        2.644        1.189      170.463       52.674        0.095      335.138        5.571      858.820
12/11/2021  19:18:00     -276.613      -20.332       -7.880      126.109       93.239       64.809    15903.444     8693.522     4200.259        5.289        1.440      277.359       67.466        0.059      335.258        5.768      858.846
12/11/2021  19:19:00     -255.815      -78.874      -13.252      121.965      114.758       65.376    14875.384    13169.503     4274.018        5.207        1.616      267.699       72.287        0.073      335.320        5.872      858.866
12/11/2021  19:20:00     -260.315      -29.470       -9.733      168.538      108.841       83.029    28405.195    11846.419     6893.845        5.793        2.357      261.978       91.527        0.122      335.452        6.093      858.834
12/11/2021  19:21:00     -224.589      -18.458      -17.653      141.883       78.981       56.358    20130.869     6238.048     3176.234        4.031        1.477      225.346       53.353        0.056      335.525        6.213      858.731
12/11/2021  19:22:00      -82.155       -7.956      -14.606       92.645       59.683       56.438     8583.102     3562.049     3185.273        1.118        0.767       82.539       49.806        0.364      335.327        5.885      858.708
12/11/2021  19:23:00      -90.955      -12.329        0.951       94.103       61.352       59.249     8855.365     3764.096     3510.437        1.227        0.806       91.787       48.860        0.283      335.336        5.900      858.793
12/11/2021  19:24:00     -195.809        1.605        6.659      115.686       63.166       50.076    13383.205     3989.994     2507.654        2.913        0.994      195.815       50.452        0.066      335.444        6.078      858.756
12/11/2021  19:25:00     -228.235      -26.250      -16.285       90.018       57.515       50.219     8103.198     3308.012     2521.917        3.349        0.697      229.740       49.026        0.046      335.460        6.104      858.655
12/11/2021  19:26:00     -164.975       39.411       -1.831      104.807       72.820       47.694    10984.566     5302.698     2274.700        2.366        0.928      169.617       41.855        0.061      335.348        5.920      858.621
12/11/2021  19:27:00      -53.576       33.574        3.970       95.865       54.666       41.036     9190.035     2988.320     1683.939        0.894        0.693       63.226       33.899        0.287      335.284        5.813      858.607
12/11/2021  19:28:00     -127.396      -22.584      -11.400       75.893       54.369       33.243     5759.770     2955.941     1105.129        1.334        0.491      129.382       28.484        0.048      335.301        5.843      858.582
12/11/2021  19:29:00     -122.939      -15.635      -18.534       28.480       41.631       25.022      811.130     1733.137      626.089        0.944        0.159      123.929       15.787        0.016      335.350        5.924      858.552
12/11/2021  19:30:00      -94.942       23.840       -7.725       71.349       40.547       20.643     5090.663     1644.048      426.118        0.840        0.358       97.889       23.760        0.059      335.206        5.685      858.541
12/11/2021  19:31:00      -81.724      -23.698       -5.094       60.922       27.329       22.091     3711.524      746.872      488.031        0.611        0.247       85.090       26.031        0.094      335.309        5.857      858.561
12/11/2021  19:32:00     -122.465      -17.349       -5.860       44.801       26.717       31.147     2007.102      713.782      970.151        0.951        0.185      123.688       25.738        0.043      335.385        5.983      858.591
12/11/2021  19:33:00     -110.595       -8.834       -6.654       41.137       28.224       17.595     1692.294      796.601      309.596        0.758        0.140      110.948       12.965        0.014      335.341        5.910      858.628
12/11/2021  19:34:00     -104.287      -66.903      -14.067       63.894       73.934       37.606     4082.429     5466.310     1414.212        1.325        0.548      123.902       33.931        0.075      335.361        5.943      858.674
12/11/2021  19:35:00      -35.350      -16.378        0.991       50.462       44.764       29.287     2546.417     2003.838      857.738        0.346        0.270       38.959       14.469        0.138      335.216        5.701      858.704
12/11/2021  19:36:00      126.793     -111.901      -40.275       70.740       81.922       40.295     5004.151     6711.280     1623.696        2.178        0.667      169.111       44.030        0.068      334.661        4.778      858.709
12/11/2021  19:37:00      169.474     -181.300      -60.399       48.445       82.036       32.272     2346.954     6729.825     1041.489        3.768        0.506      248.176       25.147        0.010      334.239        4.077      858.674
12/11/2021  19:38:00      119.354      -91.734      -42.929       67.106      124.024       44.989     4503.244    15381.994     2024.041        2.320        1.095      150.534       23.107        0.024      334.000        3.683      858.636
12/11/2021  19:39:00      144.602      -33.685      -26.563       68.185       73.757       33.390     4649.175     5440.076     1114.917        1.698        0.560      148.474       29.787        0.040      333.905        3.525      858.618
12/11/2021  19:40:00      115.787      -16.131      -10.933       73.743       49.830       41.649     5438.094     2483.014     1734.678        1.172        0.483      116.906       32.967        0.080      333.813        3.373      858.591
12/11/2021  19:41:00       30.801      -20.143       -1.035       69.808       33.816       37.482     4873.097     1143.515     1404.934        0.439        0.371       36.803       38.149        1.074      333.766        3.296      858.594
12/11/2021  19:42:00       31.090       -5.296       -1.851       36.174       29.452       24.887     1308.593      867.420      619.341        0.190        0.140       31.538       16.631        0.278      333.692        3.173      858.645
12/11/2021  19:43:00      -22.398       -6.292       -1.400       16.246       18.783       12.835      263.919      352.792      164.743        0.066        0.039       23.265        7.254        0.097      333.676        3.147      858.711
12/11/2021  19:44:00       50.233       66.996        0.655       38.185       26.518       16.395     1458.083      703.216      268.809        0.472        0.122       83.737        8.684        0.011      333.720        3.218      858.693
12/11/2021  19:45:00      117.413       87.791      -20.039       19.273       17.424       22.213      371.447      303.585      493.422        1.153        0.058      146.605       10.491        0.005      333.650        3.104      858.602
12/11/2021  19:46:00      142.439       83.875       -8.850       29.691       16.665       17.603      881.554      277.738      309.871        1.444        0.073      165.300       15.430        0.009      333.583        2.996      858.539
12/11/2021  19:47:00      148.010       37.744      -23.144       32.824       32.531       14.621     1077.425     1058.249      213.771        1.311        0.117      152.746       10.937        0.005      333.607        3.033      858.551
12/11/2021  19:48:00       79.349       52.603       -5.696       33.506       16.950       17.572     1122.635      287.302      308.790        0.541        0.086       95.202       12.515        0.017      333.516        2.883      858.600
12/11/2021  19:49:00       12.978       77.690       -6.145       29.329       32.434       21.233      860.207     1051.979      450.842        0.430        0.118       78.767       16.302        0.043      333.707        3.199      858.618
12/11/2021  19:50:00     -104.957       28.191      -26.160       42.414       29.701       18.615     1798.944      882.152      346.526        0.776        0.151      108.677       15.538        0.020      333.480        2.822      858.634
12/11/2021  19:51:00      -46.349        7.739      -12.617       29.996       31.865       22.654      899.771     1015.396      513.203        0.240        0.121       46.991       17.450        0.138      333.486        2.833      858.659
12/11/2021  19:52:00       17.784       34.205       -6.679       36.988       16.796       13.321     1368.102      282.094      177.453        0.168        0.091       38.552       13.233        0.118      333.911        3.536      858.620
12/11/2021  19:53:00       69.215       26.789       -3.053       35.970       27.555       16.605     1293.858      759.292      275.733        0.392        0.116       74.218       10.973        0.022      333.735        3.245      858.534
12/11/2021  19:54:00      120.125       25.771      -10.384       46.539       36.541       26.806     2165.913     1335.209      718.582        0.971        0.211      122.858       17.257        0.020      333.663        3.128      858.450
12/11/2021  19:55:00       53.644       55.325       -9.817       62.562       26.550       23.000     3913.980      704.876      528.984        0.559        0.257       77.062       24.318        0.100      333.587        3.000      858.458
12/11/2021  19:56:00       -2.527       83.164      -13.956       42.738       38.529       23.670     1826.555     1484.521      560.275        0.549        0.194       83.202       14.888        0.032      333.751        3.272      858.541
12/11/2021  19:57:00      -31.132       51.253      -14.481       24.792       30.650       14.870      614.646      939.449      221.129        0.279        0.089       59.967        9.483        0.025      333.604        3.028      858.574
12/11/2021  19:58:00       52.836       85.178      -14.580       44.729       24.739       18.542     2000.721      612.043      343.820        0.661        0.148      100.234        9.525        0.009      333.996        3.676      858.544
12/11/2021  19:59:00      108.624       64.724      -16.554       27.363       27.017       16.647      748.711      729.904      277.134        0.901        0.088      126.445       14.869        0.014      333.950        3.601      858.518
12/11/2021  20:00:00      117.221       43.059      -11.604       40.708       22.853       17.645     1657.115      522.257      311.362        0.911        0.125      124.879       17.683        0.020      333.930        3.568      858.526
12/11/2021  20:01:00       90.544       65.872      -13.729       30.010       19.569       19.880      900.620      382.950      395.208        0.720        0.084      111.970       10.834        0.009      334.003        3.689      858.533
12/11/2021  20:02:00       55.621       97.598      -10.668       33.952       35.097       20.988     1152.720     1231.771      440.506        0.778        0.141      112.334       19.155        0.029      334.191        3.999      858.526
12/11/2021  20:03:00      -48.127       29.433       -9.028       28.729       19.911       19.902      825.349      396.457      396.109        0.244        0.081       56.414       18.008        0.102      333.695        3.178      858.532
12/11/2021  20:04:00      -66.317       45.910      -16.059       17.574       16.589       11.570      308.843      275.206      133.870        0.374        0.036       80.658        5.027        0.004      333.711        3.205      858.534
12/11/2021  20:05:00      -68.056       67.405      -11.477       23.253       26.383       15.555      540.701      696.076      241.972        0.539        0.074       95.787       12.425        0.017      333.821        3.388      858.523
12/11/2021  20:06:00      -53.245       33.336      -13.019       31.879       42.163       13.778     1016.262     1777.720      189.844        0.355        0.149       62.820       14.489        0.053      333.961        3.620      858.533
12/11/2021  20:07:00      -60.250        9.026       -8.363       60.050       32.284       17.794     3606.057     1042.280      316.630        0.437        0.248       60.923       20.623        0.115      334.089        3.830      858.564
12/11/2021  20:08:00      -36.261       -7.144      -13.320       21.594       30.409        8.163      466.307      924.709       66.634        0.150        0.073       36.958       13.787        0.139      334.156        3.943      858.599
12/11/2021  20:09:00      -76.167        7.797      -10.190       32.888       36.409       20.272     1081.613     1325.647      410.945        0.439        0.141       76.565       18.779        0.060      334.717        4.873      858.596
12/11/2021  20:10:00      -35.282        4.981      -12.362       34.334       33.636       21.760     1178.855     1131.361      473.503        0.210        0.139       35.631       18.637        0.274      334.637        4.741      858.534
12/11/2021  20:11:00       11.761        0.551      -26.315       38.254       25.611       24.840     1463.332      655.927      617.031        0.178        0.137       11.773       15.039        1.632      334.414        4.370      858.433
12/11/2021  20:12:00       61.837       35.354       -9.253       17.817       23.325       10.476      317.463      544.037      109.743        0.307        0.049       71.230        7.598        0.011      333.930        3.567      858.387
12/11/2021  20:13:00       49.215       -1.445      -12.134       18.959       25.620       17.352      359.428      656.399      301.082        0.194        0.066       49.236       12.175        0.061      333.777        3.315      858.426
12/11/2021  20:14:00       60.097       37.950      -30.499       44.216       56.975       30.445     1955.077     3246.158      926.920        0.605        0.306       71.076       21.587        0.092      333.525        2.898      858.474
12/11/2021  20:15:00       40.885       18.630       -6.977       62.888       42.009       25.676     3954.838     1764.750      659.238        0.422        0.319       44.930        7.950        0.031      333.548        2.937      858.469
12/11/2021  20:16:00      100.239       24.992      -12.232       47.490       26.995       23.757     2255.315      728.737      564.391        0.718        0.177      103.307       16.580        0.026      333.905        3.526      858.439
12/11/2021  20:17:00       49.193       51.903       -5.642       22.273       14.600       13.646      496.093      213.151      186.211        0.302        0.045       71.512        6.954        0.009      334.007        3.698      858.464
12/11/2021  20:18:00       23.177       44.571       -6.953       18.485       11.376        6.919      341.687      129.406       47.873        0.155        0.026       50.237        2.457        0.002      334.212        4.033      858.540
12/11/2021  20:19:00      -52.124       -0.286       -8.675       14.528       14.855        9.498      211.054      220.668       90.215        0.166        0.026       52.125        9.049        0.030      333.687        3.166      858.630
12/11/2021  20:20:00      -39.645      -13.753      -20.977       17.235       16.089        7.544      297.037      258.861       56.910        0.141        0.031       41.963        3.628        0.007      333.961        3.621      858.653
12/11/2021  20:21:00       95.088       65.481      -18.841       46.062       24.522       12.859     2121.696      601.352      165.364        0.829        0.144      115.453        2.648        0.001      334.192        4.002      858.535
12/11/2021  20:22:00       93.849      115.441      -20.222       45.093       50.230       24.772     2033.360     2523.033      613.666        1.386        0.259      148.776       16.676        0.013      334.190        4.000      858.330
12/11/2021  20:23:00      -42.340       30.319      -11.838       61.542       78.369       39.462     3787.396     6141.709     1557.286        0.717        0.574       52.076       24.969        0.230      335.153        5.600      858.316
12/11/2021  20:24:00      -71.443       -5.854       -5.132       72.260       45.309       35.180     5221.568     2052.912     1237.659        0.684        0.426       71.683       34.629        0.233      334.321        4.216      858.412
12/11/2021  20:25:00     -106.944       13.095       -7.857       69.722       39.495       29.105     4861.223     1559.893      847.109        0.947        0.363      107.743       21.324        0.039      334.186        3.991      858.394
12/11/2021  20:26:00     -110.071       21.885       -8.744       64.208       41.889       34.415     4122.679     1754.666     1184.418        0.987        0.353      112.225       27.436        0.060      334.732        4.898      858.284
12/11/2021  20:27:00      -73.700       16.897        2.071       60.620       48.452       31.315     3674.738     2347.633      980.644        0.636        0.350       75.612       24.884        0.108      334.507        4.525      858.340
12/11/2021  20:28:00      -94.509       19.333       -4.764       69.384       40.554       37.118     4814.161     1644.667     1377.762        0.858        0.392       96.466       36.881        0.146      334.337        4.242      858.435
12/11/2021  20:29:00     -107.034      -30.219       -8.010       63.267       38.919       29.562     4002.696     1514.717      873.922        0.941        0.320      111.218       18.971        0.029      334.668        4.792      858.429
12/11/2021  20:30:00       93.699     -126.143      -47.371       43.291       44.317       24.964     1874.082     1963.991      623.183        1.570        0.223      157.136       20.867        0.018      334.348        4.259      858.379
12/11/2021  20:31:00       85.116     -111.776      -47.446       23.670       48.412       18.435      560.283     2343.691      339.852        1.262        0.162      140.494       18.536        0.017      334.158        3.946      858.308
12/11/2021  20:32:00       40.859      -52.903      -17.712       28.270       53.234       21.663      799.177     2833.848      469.302        0.444        0.205       66.845       23.785        0.127      334.192        4.003      858.259
12/11/2021  20:33:00       53.834       50.265      -11.314       30.078       18.351       12.570      904.680      336.754      158.004        0.348        0.070       73.652       10.997        0.022      334.226        4.060      858.209
12/11/2021  20:34:00       62.392       49.904      -17.093       14.456       19.690       14.678      208.976      387.678      215.443        0.374        0.041       79.895        2.432        0.001      333.937        3.580      858.187
12/11/2021  20:35:00       -2.055        7.288       -5.604       17.614        9.565        6.607      310.238       91.493       43.646        0.027        0.022        7.572        6.341        0.701      333.886        3.495      858.224
12/11/2021  20:36:00      -53.582       38.179      -12.056       15.571       18.677       11.592      242.444      348.847      134.380        0.260        0.036       65.792        6.668        0.010      333.816        3.379      858.196
12/11/2021  20:37:00      -16.423       24.100       -9.352       18.861       14.334       12.034      355.733      205.464      144.807        0.082        0.035       29.164       11.348        0.151      333.828        3.399      858.188
12/11/2021  20:38:00      -15.806      -33.513       -4.511       22.940       17.533       13.789      526.235      307.422      190.127        0.121        0.051       37.053       12.437        0.113      333.810        3.369      858.248
12/11/2021  20:39:00      -44.389       -4.483       -9.154       18.676       14.599       13.156      348.802      213.124      173.070        0.140        0.037       44.614       12.026        0.073      333.922        3.556      858.285
12/11/2021  20:40:00      -21.082        9.901        2.283       11.211        9.414        7.288      125.694       88.615       53.115        0.041        0.013       23.291        7.071        0.092      334.136        3.910      858.269
12/11/2021  20:41:00        2.861        1.179       -4.238        7.124        9.259        5.610       50.750       85.721       31.476        0.010        0.008        3.094        5.036        2.650      333.962        3.621      858.277
12/11/2021  20:42:00       -2.474       -7.994      -11.514       14.743        5.849        7.551      217.361       34.210       57.023        0.026        0.015        8.368        7.017        0.703      334.137        3.913      858.288
12/11/2021  20:43:00      -34.677       -3.009       -5.088       20.663       11.011       11.350      426.980      121.245      128.829        0.096        0.034       34.808        9.862        0.080      333.799        3.351      858.309
12/11/2021  20:44:00      -27.287      -12.509       -1.452       24.439       17.964       15.655      597.246      322.720      245.074        0.103        0.058       30.018       11.144        0.138      333.656        3.115      858.334
12/11/2021  20:45:00      -42.462       13.170      -12.810       17.462       18.647       13.309      304.931      347.716      177.126        0.149        0.041       44.458        6.587        0.022      333.903        3.523      858.310
12/11/2021  20:46:00      -93.510       17.735      -15.132       31.783       23.753       18.261     1010.178      564.201      333.481        0.560        0.095       95.177        5.618        0.003      333.743        3.259      858.270
12/11/2021  20:47:00      -78.738       14.943       -2.904       33.696       24.862       19.058     1135.429      618.139      363.208        0.427        0.106       80.143       19.016        0.056      333.555        2.947      858.263
12/11/2021  20:48:00      -28.774       -0.321       -4.563       30.913       18.108       13.812      955.629      327.917      190.777        0.116        0.074       28.775        6.601        0.053      333.454        2.780      858.239
12/11/2021  20:49:00       12.466        5.965       -8.521       19.716       18.021       22.429      388.719      324.765      503.082        0.074        0.061       13.819       17.239        1.556      333.726        3.230      858.163
12/11/2021  20:50:00        8.326       13.861      -18.840       30.821       40.259       35.232      949.964     1620.802     1241.326        0.221        0.191       16.169       22.863        1.999      333.615        3.045      858.140
12/11/2021  20:51:00      -27.995       22.275      -16.305       16.165       27.960       14.468      261.306      781.745      209.337        0.140        0.063       35.776        5.125        0.021      333.708        3.201      858.168
12/11/2021  20:52:00       -9.929       -4.909      -18.459        9.818       10.382        7.009       96.385      107.778       49.124        0.036        0.013       11.076        4.969        0.201      333.974        3.642      858.179
12/11/2021  20:53:00      -10.650       -9.898       -7.799       11.922        9.558       11.137      142.143       91.361      124.044        0.031        0.018       14.539        6.158        0.179      334.176        3.976      858.187
12/11/2021  20:54:00      -25.409       -3.563      -11.829       14.260        9.048        7.129      203.350       81.860       50.818        0.057        0.017       25.658        6.652        0.067      333.907        3.530      858.190
12/11/2021  20:55:00      -18.937        1.429       -6.848       15.203       12.985       11.251      231.129      168.607      126.575        0.047        0.026       18.991        8.574        0.204      333.559        2.953      858.193
12/11/2021  20:56:00      -11.343        8.779       -7.481       13.961       11.246       10.141      194.901      126.482      102.835        0.034        0.021       14.344        5.202        0.132      333.611        3.039      858.184
12/11/2021  20:57:00      -50.490        7.122      -14.485       15.504       10.595        8.410      240.377      112.253       70.731        0.162        0.021       50.990        6.478        0.016      333.589        3.004      858.176
12/11/2021  20:58:00      -17.431      -12.430       -5.201       19.677       13.868        8.760      387.185      192.326       76.732        0.057        0.033       21.409       10.342        0.233      333.437        2.751      858.170
12/11/2021  20:59:00      -56.548       -7.411       -4.602       35.295       20.250       17.786     1245.757      410.073      316.343        0.262        0.099       57.031       12.383        0.047      333.594        3.013      858.197
12/11/2021  21:00:00      -69.648       27.504      -14.124       14.651       21.129       12.190      214.644      446.436      148.599        0.331        0.040       74.882        9.383        0.016      333.696        3.180      858.181
12/11/2021  21:01:00      -15.998       56.179       -7.042       27.083       12.698        8.428      733.514      161.251       71.024        0.221        0.048       58.412       10.367        0.031      333.731        3.239      858.083
12/11/2021  21:02:00       11.246       68.276       -4.001       32.456       17.083        9.879     1053.379      291.838       97.586        0.312        0.072       69.196       10.855        0.025      334.124        3.890      858.027
12/11/2021  21:03:00      -72.633       69.140      -15.314       26.256       23.329       14.449      689.361      544.228      208.774        0.587        0.072      100.279        9.571        0.009      333.789        3.335      858.090
12/11/2021  21:04:00      -79.412       -0.884       -9.000       54.548       19.952       22.318     2975.499      398.085      498.071        0.513        0.194       79.417       23.576        0.088      333.191        2.345      858.143
12/11/2021  21:05:00      -71.983       41.365      -18.403       33.028       23.099       16.317     1090.874      533.565      266.261        0.456        0.095       83.021       10.912        0.017      333.366        2.635      858.124
12/11/2021  21:06:00      -50.133       59.204       -7.121       25.874       20.081       13.483      669.473      403.253      181.783        0.366        0.063       77.579       13.802        0.032      333.477        2.818      858.090
12/11/2021  21:07:00      -51.623       12.271      -15.580       20.294       19.544       15.435      411.847      381.955      238.238        0.204        0.052       53.062        9.112        0.029      333.380        2.657      858.116
12/11/2021  21:08:00      -38.681        1.828       -8.683       33.379       20.722       16.450     1114.180      429.412      270.608        0.169        0.091       38.724        9.493        0.060      333.263        2.464      858.160
12/11/2021  21:09:00        9.882      -12.054       -7.512       32.389       22.037       12.787     1049.056      485.644      163.500        0.100        0.085       15.587        5.774        0.137      333.452        2.777      858.131
12/11/2021  21:10:00       94.565       11.850      -22.290       32.082       32.123       17.940     1029.224     1031.872      321.858        0.598        0.119       95.305        8.363        0.008      333.626        3.066      858.022
12/11/2021  21:11:00       68.873      -21.565      -15.831       62.524       43.092       33.676     3909.218     1856.920     1134.101        0.618        0.345       72.171       23.082        0.102      333.187        2.339      857.945
12/11/2021  21:12:00       33.303        0.436      -10.389       36.938       48.265       27.045     1364.450     2329.536      731.423        0.282        0.221       33.306       13.455        0.163      332.871        1.818      858.004
12/11/2021  21:13:00       70.581       36.131      -17.861       36.665       22.726       21.499     1344.353      516.487      462.187        0.446        0.116       79.291        9.674        0.015      332.457        1.131      858.091
12/11/2021  21:14:00       73.991       62.753      -16.217       45.247       27.292       22.036     2047.252      744.841      485.589        0.648        0.164       97.019       26.639        0.075      332.397        1.032      858.079
12/11/2021  21:15:00       55.485      122.606      -12.557       27.058       41.646       20.696      732.124     1734.381      428.345        1.058        0.145      134.577       15.482        0.013      332.615        1.393      857.998
12/11/2021  21:16:00       31.817      124.923      -17.475       29.901       47.493       18.461      894.065     2255.569      340.818        1.021        0.175      128.911       19.620        0.023      332.814        1.722      857.967
12/11/2021  21:17:00        0.529        1.651       -3.905       17.299       23.035       13.784      299.242      530.600      190.003        0.052        0.051        1.733        6.636       14.658      332.749        1.614      857.977
12/11/2021  21:18:00      -16.333      -33.146       -8.496       29.630       19.203       16.781      877.911      368.761      281.601        0.148        0.076       36.952        6.501        0.031      332.867        1.811      858.043
12/11/2021  21:19:00       -4.417        4.140        4.643       24.511       23.504       24.000      600.774      552.454      575.990        0.089        0.086        6.054       21.785       12.948      332.864        1.806      858.147
12/11/2021  21:20:00        2.396       -5.844       -6.339       22.824       27.834       14.742      520.936      774.734      217.314        0.080        0.076        6.316       14.339        5.154      332.937        1.925      858.174
12/11/2021  21:21:00       34.788        8.593      -17.943       28.925       16.338       14.398      836.648      266.929      207.288        0.146        0.066       35.833       11.993        0.112      332.849        1.779      858.118
12/11/2021  21:22:00       58.721       14.891      -26.281       34.032       54.118       29.411     1158.207     2928.743      864.997        0.466        0.248       60.579       13.708        0.051      332.780        1.667      858.055
12/11/2021  21:23:00       77.920        1.120      -14.630       60.430       51.426       34.618     3651.821     2644.656     1198.432        0.689        0.375       77.928       17.549        0.051      332.927        1.909      857.968
12/11/2021  21:24:00      122.197       26.289      -11.584       58.058       44.977       31.754     3370.709     2022.966     1008.347        1.108        0.320      124.993       19.078        0.023      332.947        1.942      857.935
12/11/2021  21:25:00       -0.410        7.073      -17.433       62.738       22.782       16.169     3936.093      519.012      261.452        0.253        0.236        7.085       16.135        5.187      333.016        2.055      858.030
12/11/2021  21:26:00     -113.349       58.054      -18.132       28.675       22.417       16.526      822.262      502.508      273.117        0.907        0.080      127.351       11.498        0.008      332.639        1.432      858.091
12/11/2021  21:27:00     -107.485       33.926      -12.596       28.985       21.033       17.450      840.122      442.395      304.499        0.722        0.079      112.712       15.672        0.019      332.715        1.559      858.067
12/11/2021  21:28:00      -82.915       24.747       -7.784       20.195       18.694       12.171      407.824      349.453      148.125        0.423        0.045       86.530       11.321        0.017      332.908        1.878      858.044
12/11/2021  21:29:00      -68.370       -1.253       -8.153        6.703        6.164        6.165       44.926       37.998       38.009        0.243        0.006       68.381        4.381        0.004      333.477        2.817      858.037
12/11/2021  21:30:00      -51.523        9.246      -12.603       13.590        5.476        7.846      184.686       29.989       61.567        0.159        0.014       52.346        8.106        0.024      333.484        2.829      858.015
12/11/2021  21:31:00      -69.197       26.113      -12.687       15.155       12.028        8.992      229.660      144.673       80.858        0.304        0.023       73.960        3.825        0.003      333.212        2.379      857.986
12/11/2021  21:32:00      -94.181       44.161      -11.805       21.363       13.863       11.143      456.386      192.189      124.169        0.587        0.039      104.020        7.710        0.005      333.078        2.159      857.968
12/11/2021  21:33:00     -110.760       32.543      -13.101       41.835       20.459       20.653     1750.156      418.590      426.532        0.805        0.130      115.442       17.123        0.022      332.983        2.003      857.976
12/11/2021  21:34:00      -50.864        6.939      -10.068       46.068       38.886       23.767     2122.226     1512.144      564.874        0.347        0.210       51.335       19.934        0.151      332.829        1.747      857.961
12/11/2021  21:35:00      -11.309       99.656      -10.029       26.886       35.658       20.243      722.833     1271.485      409.793        0.628        0.120      100.295       15.119        0.023      333.764        3.292      857.859
12/11/2021  21:36:00      -16.499       56.896      -16.385       21.694       59.743       13.587      470.644     3569.216      184.620        0.400        0.211       59.240       13.126        0.049      333.583        2.993      857.787
12/11/2021  21:37:00      -42.447       -8.667      -19.474       40.091       30.954       22.997     1607.287      958.163      528.871        0.267        0.155       43.323       16.325        0.142      333.071        2.147      857.843
12/11/2021  21:38:00      -32.804      -10.493       -9.584       33.382       34.910       34.341     1114.364     1218.693     1179.300        0.239        0.176       34.441       21.994        0.408      332.798        1.696      857.922
12/11/2021  21:39:00      -36.053      -14.312       -7.276       33.504       30.662       24.487     1122.537      940.175      599.632        0.211        0.133       38.790       17.348        0.200      332.690        1.517      857.949
12/11/2021  21:40:00       19.349      -23.357      -27.959       30.430       28.251       21.887      925.971      798.126      479.040        0.195        0.110       30.331       20.069        0.438      332.971        1.981      857.869
12/11/2021  21:41:00       65.590       17.553      -22.660       27.659       27.987       19.041      765.018      783.271      362.572        0.352        0.096       67.898       15.401        0.051      333.052        2.116      857.701
12/11/2021  21:42:00       42.416       13.024        0.531       42.780       30.498       25.740     1830.137      930.113      662.545        0.270        0.171       44.370       24.230        0.298      333.054        2.118      857.612
12/11/2021  21:43:00       18.186       16.985       -9.570       16.226       15.302       11.208      263.295      234.149      125.616        0.067        0.031       24.884        5.729        0.053      333.105        2.203      857.640
12/11/2021  21:44:00      -78.148      -12.456      -20.664       28.342       17.706       19.585      803.250      313.492      383.579        0.409        0.075       79.135       16.867        0.045      333.094        2.186      857.710
12/11/2021  21:45:00     -117.359       -8.464       -2.944       44.188       31.075       28.808     1952.621      965.660      829.916        0.880        0.187      117.664       25.252        0.046      332.948        1.944      857.808
12/11/2021  21:46:00     -111.605        5.165      -15.521       28.116       17.046       10.594      790.489      290.561      112.223        0.696        0.060      111.725        8.833        0.006      333.361        2.626      857.854
12/11/2021  21:47:00      -35.604       27.970      -10.731       24.908       10.174        7.791      620.423      103.520       60.707        0.147        0.039       45.277        7.513        0.028      333.433        2.745      857.774
12/11/2021  21:48:00       48.849       -4.580       -8.397       16.178       28.616        7.264      261.737      818.851       52.772        0.181        0.057       49.064        8.663        0.031      333.677        3.149      857.678
12/11/2021  21:49:00       52.913      -27.303      -13.544       12.319       15.457       11.676      151.761      238.925      136.328        0.213        0.026       59.542        9.871        0.027      333.472        2.809      857.672
12/11/2021  21:50:00       41.079       -8.557       -5.672       17.049        8.902       10.602      290.678       79.244      112.409        0.114        0.024       41.961        6.732        0.026      333.622        3.058      857.667
12/11/2021  21:51:00      -71.895       13.086      -19.268       33.045       25.894       14.407     1091.999      670.487      207.565        0.384        0.099       73.076       14.677        0.040      333.280        2.493      857.687
12/11/2021  21:52:00     -108.114       26.275      -17.828       22.860       23.688       11.878      522.586      561.139      141.092        0.696        0.061      111.261        8.178        0.005      332.964        1.971      857.745
12/11/2021  21:53:00     -115.410       42.249      -11.038       19.482       23.693       15.071      379.529      561.341      227.135        0.820        0.058      122.900       11.031        0.008      333.021        2.065      857.749
12/11/2021  21:54:00      -86.288       55.053      -14.376       19.613       16.322       12.096      384.684      266.413      146.316        0.574        0.040      102.354        5.993        0.003      333.220        2.394      857.657
12/11/2021  21:55:00       40.150      117.527      -18.624       51.788       43.578       20.498     2681.983     1899.006      420.176        1.039        0.250      124.196       14.128        0.013      333.781        3.322      857.516
12/11/2021  21:56:00       71.362      153.990      -17.625       39.420       33.399       24.800     1553.970     1115.479      615.022        1.620        0.164      169.722       19.455        0.013      333.858        3.449      857.414
12/11/2021  21:57:00       17.407       23.342       -0.665       27.178       36.553       29.870      738.643     1336.106      892.210        0.191        0.148       29.118       19.038        0.427      333.354        2.614      857.513
12/11/2021  21:58:00      -18.459      -21.635       -4.568       49.816       25.276       19.484     2481.675      638.900      379.621        0.216        0.175       28.439       14.955        0.277      333.350        2.609      857.587
12/11/2021  21:59:00      -94.123      -24.040      -19.499       33.555       30.520       21.627     1125.917      931.485      467.714        0.617        0.126       97.144       11.910        0.015      333.438        2.754      857.664
12/11/2021  22:00:00      -45.202      -19.745      -11.077       49.226       22.650       18.790     2423.172      513.025      353.046        0.292        0.164       49.326       12.895        0.068      333.861        3.454      857.729
12/11/2021  22:01:00       78.351      -75.957      -35.850       35.165       45.577       28.791     1236.594     2077.305      828.934        0.867        0.207      109.125       19.541        0.032      333.232        2.412      857.696
12/11/2021  22:02:00       50.440      -72.454      -29.198       29.718       34.616       22.275      883.142     1198.247      496.187        0.561        0.129       88.283       18.198        0.042      333.520        2.889      857.599
12/11/2021  22:03:00       16.652      -33.353      -11.619       13.021       24.950       14.962      169.534      622.489      223.875        0.127        0.051       37.279        4.893        0.017      333.525        2.898      857.504
12/11/2021  22:04:00       -9.515      -13.966        0.343        9.739        7.548        5.897       94.844       56.978       34.773        0.024        0.009       16.899        3.644        0.046      333.357        2.619      857.529
12/11/2021  22:05:00        3.485        3.286       -3.329        9.338        8.436        5.319       87.198       71.171       28.291        0.011        0.009        4.790        3.441        0.516      333.218        2.390      857.538
12/11/2021  22:06:00      -20.352       14.618      -10.126       22.864        8.952        5.149      522.753       80.137       26.510        0.068        0.031       25.058        2.025        0.007      333.145        2.269      857.544
12/11/2021  22:07:00     -100.005        6.988      -25.516       28.923       30.313       18.811      836.520      918.857      353.859        0.640        0.105      100.249       13.056        0.017      333.009        2.043      857.593
12/11/2021  22:08:00     -127.213       19.413        3.121       83.122       35.942       28.025     6909.200     1291.854      785.403        1.278        0.449      128.686       25.887        0.040      332.873        1.818      857.646
12/11/2021  22:09:00      -93.064       53.414       -5.654       36.255       22.661       18.803     1314.434      513.512      353.540        0.686        0.109      107.303       17.093        0.025      332.971        1.982      857.614
12/11/2021  22:10:00     -109.023       27.029      -25.770       15.137       13.775        8.870      229.139      189.738       78.677        0.689        0.025      112.324        2.594        0.001      333.279        2.488      857.549
12/11/2021  22:11:00     -120.219        7.505      -17.897       29.590       14.355       16.988      875.570      206.056      288.596        0.810        0.069      120.453       10.638        0.008      333.221        2.395      857.572
12/11/2021  22:12:00      -12.162       -3.152       -0.195       41.193       32.397       32.310     1696.839     1049.556     1043.957        0.197        0.190       12.564       24.088        3.676      333.067        2.139      857.641
12/11/2021  22:13:00      -97.303       27.752       -5.552       50.174       43.531       27.527     2517.462     1894.982      757.716        0.772        0.259      101.184       13.014        0.017      333.000        2.029      857.667
12/11/2021  22:14:00      -96.240      100.216      -20.094       39.064       51.819       17.156     1526.024     2685.180      294.321        1.211        0.225      138.944        4.948        0.001      332.913        1.885      857.593
12/11/2021  22:15:00     -105.487      151.238      -14.687       43.497       43.275       25.799     1892.000     1872.686      665.590        1.932        0.222      184.392       19.156        0.011      333.553        2.943      857.548
12/11/2021  22:16:00      -63.832       96.480      -14.936       38.117       37.739       23.158     1452.874     1424.214      536.277        0.851        0.171      115.685       14.094        0.015      333.841        3.421      857.529
12/11/2021  22:17:00      -19.159      125.412      -14.004       24.416       42.798       17.335      596.150     1831.675      300.516        0.951        0.136      126.867       12.569        0.010      333.952        3.605      857.462
12/11/2021  22:18:00      -30.236       32.897      -18.699       33.603       44.295       27.253     1129.170     1962.008      742.710        0.309        0.192       44.681       19.094        0.183      333.696        3.183      857.478
12/11/2021  22:19:00      -57.392        6.012      -11.365       23.610       24.360       21.396      557.424      593.421      457.794        0.253        0.080       57.706       12.903        0.050      332.978        1.992      857.539
12/11/2021  22:20:00      -56.229       31.211      -13.973       21.022       23.060       15.617      441.941      531.743      243.903        0.277        0.061       64.310        9.747        0.023      332.966        1.973      857.536
12/11/2021  22:21:00       29.597       79.347       -8.209       28.041       27.881       15.016      786.319      777.330      225.486        0.451        0.089       84.688        8.704        0.011      334.296        4.175      857.478
12/11/2021  22:22:00       17.199       45.032       -7.430       24.896       21.866       16.253      619.828      478.139      264.170        0.187        0.068       48.204       10.994        0.052      334.261        4.114      857.504
12/11/2021  22:23:00      -52.582       18.458      -21.339       30.637       23.064       17.726      938.637      531.950      314.196        0.267        0.089       55.728       15.084        0.073      333.550        2.939      857.577
12/11/2021  22:24:00      -74.825       23.830      -20.839       21.959       22.397       15.438      482.185      501.608      238.329        0.391        0.061       78.528       10.317        0.017      333.091        2.178      857.571
12/11/2021  22:25:00       -5.102       83.958       -9.683       46.752       49.916       14.293     2185.796     2491.623      204.291        0.602        0.244       84.113        8.374        0.010      334.060        3.784      857.496
12/11/2021  22:26:00       50.464      169.043      -20.432       23.357       19.844       17.816      545.554      393.779      317.425        1.640        0.063      176.414       10.065        0.003      334.801        5.014      857.454
12/11/2021  22:27:00      -26.699       40.303      -15.873       30.428       53.352       19.111      925.856     2846.489      365.234        0.336        0.207       48.344       12.119        0.063      333.856        3.446      857.514
12/11/2021  22:28:00      -39.882       26.766      -11.602       20.102       22.332       14.762      404.087      498.722      217.902        0.178        0.056       48.031       12.760        0.071      333.405        2.699      857.542
12/11/2021  22:29:00      -78.407       52.106      -18.519       34.088       26.963       20.621     1161.991      726.990      425.231        0.576        0.116       94.142       19.373        0.042      333.113        2.217      857.496
12/11/2021  22:30:00     -110.068       59.235      -18.760       65.841       44.079       33.112     4335.023     1942.965     1096.389        1.167        0.369      124.995       26.846        0.046      333.123        2.232      857.448
12/11/2021  22:31:00      -68.028       14.054      -23.166       37.589       33.966       25.571     1412.920     1153.684      653.861        0.429        0.161       69.465       19.771        0.081      333.151        2.280      857.464
12/11/2021  22:32:00      -63.949       12.050      -17.876       34.703       24.704       21.686     1204.331      610.311      470.280        0.342        0.114       65.075       16.889        0.067      333.237        2.422      857.462
12/11/2021  22:33:00     -132.652       99.423      -27.538       30.390       50.618       19.550      923.561     2562.165      382.183        1.605        0.193      165.775       11.501        0.005      333.582        2.994      857.464
12/11/2021  22:34:00      -88.302       58.937      -21.277       26.827       29.617       19.095      719.705      877.163      364.601        0.684        0.098      106.164       11.597        0.012      334.003        3.689      857.462
12/11/2021  22:35:00       -6.030      -11.382       -5.252       66.213       42.339       31.888     4384.199     1792.589     1016.858        0.369        0.360       12.881       27.414        4.529      333.355        2.618      857.471
12/11/2021  22:36:00     -107.261        7.206       -5.300       34.147       30.762       20.387     1166.002      946.331      415.648        0.706        0.126      107.502       12.572        0.014      333.267        2.470      857.476
12/11/2021  22:37:00     -104.272       42.407      -13.452       11.569       22.808        9.328      133.832      520.219       87.016        0.680        0.037      112.565        7.743        0.005      333.765        3.295      857.450
12/11/2021  22:38:00     -114.677       52.995      -23.021       33.141       33.441       16.748     1098.311     1118.269      280.499        0.949        0.125      126.330       20.297        0.026      333.950        3.601      857.418
12/11/2021  22:39:00      -95.352        6.737       -1.819       40.054       34.749       23.713     1604.357     1207.506      562.288        0.626        0.169       95.590       16.030        0.028      333.246        2.436      857.466
12/11/2021  22:40:00     -133.176       13.302        1.565       72.241       40.036       30.261     5218.691     1602.849      915.758        1.282        0.387      133.839       32.500        0.059      334.059        3.780      857.476
12/11/2021  22:41:00      -95.362       29.339       -8.288       20.212       26.173       13.752      408.514      685.005      189.118        0.565        0.064       99.773        7.410        0.006      333.993        3.673      857.399
12/11/2021  22:42:00      -81.824       21.984       -0.027       43.464       30.215       21.074     1889.133      912.949      444.134        0.521        0.162       84.726       23.862        0.079      334.287        4.160      857.365
12/11/2021  22:43:00      -96.354       13.529       -6.940       30.581       23.393       20.262      935.169      547.245      410.538        0.570        0.095       97.299       12.050        0.015      333.809        3.369      857.417
12/11/2021  22:44:00      -94.061       64.930      -14.293       26.835       19.534       12.797      720.096      381.561      163.758        0.727        0.063      114.295       13.610        0.014      334.205        4.023      857.401
12/11/2021  22:45:00      -93.038       23.930      -14.085       27.850       19.414       18.308      775.637      376.908      335.178        0.546        0.074       96.066       15.763        0.027      333.981        3.652      857.388
12/11/2021  22:46:00      -77.581       41.248      -12.786       26.605       20.755       12.384      707.842      430.786      153.365        0.459        0.065       87.865       13.403        0.023      333.870        3.470      857.410
12/11/2021  22:47:00      -76.056       48.157       -9.770       18.004       22.391       10.190      324.126      501.344      103.836        0.456        0.046       90.020        8.006        0.008      333.867        3.464      857.418
12/11/2021  22:48:00      -84.092       38.446      -12.836       22.353       21.780       20.266      499.666      474.370      410.729        0.505        0.069       92.464       17.109        0.034      333.614        3.045      857.404
12/11/2021  22:49:00     -113.210       37.832      -19.167       37.939       24.280       21.528     1439.354      589.510      463.452        0.855        0.125      119.364       14.641        0.015      333.329        2.573      857.355
12/11/2021  22:50:00     -127.049       37.503      -28.907       48.728       47.155       29.614     2374.424     2223.593      876.972        1.193        0.274      132.468       19.613        0.022      333.362        2.627      857.422
12/11/2021  22:51:00      -70.630       43.736      -18.535       52.182       33.693       25.156     2722.996     1135.216      632.830        0.587        0.225       83.075       23.918        0.083      333.710        3.204      857.439
12/11/2021  22:52:00       -1.628       79.568       -9.570       30.393       41.120       22.110      923.751     1690.854      488.852        0.476        0.155       79.584       16.632        0.044      334.323        4.219      857.338
12/11/2021  22:53:00      -80.507        8.784      -16.898       38.382       31.008       20.351     1473.176      961.518      414.173        0.485        0.142       80.985       14.394        0.032      333.718        3.217      857.302
12/11/2021  22:54:00      -43.882        1.315       -1.693       61.841       44.089       34.379     3824.296     1943.868     1181.915        0.444        0.348       43.902       34.060        0.602      333.464        2.796      857.323
12/11/2021  22:55:00      -70.578       -3.514        0.665       37.544       35.462       25.631     1409.584     1257.524      656.938        0.416        0.166       70.665       16.585        0.055      333.651        3.107      857.267
12/11/2021  22:56:00     -118.431       24.595      -11.499       19.257       20.207       15.252      370.833      408.341      232.636        0.789        0.051      120.958        9.256        0.006      333.594        3.012      857.243
12/11/2021  22:57:00      -41.497        8.515       -5.310       40.528       24.828       18.876     1642.557      616.421      356.315        0.222        0.131       42.362       21.410        0.255      333.364        2.631      857.243
12/11/2021  22:58:00        4.559      -47.688      -14.576       12.196       20.715       11.968      148.741      429.095      143.244        0.161        0.036       47.905        9.208        0.037      333.713        3.208      857.241
12/11/2021  22:59:00       53.121     -100.394      -36.962       43.110       26.182       12.505     1858.501      685.478      156.371        0.848        0.135      113.582       17.642        0.024      333.803        3.357      857.232
12/11/2021  23:00:00       50.965      -36.195      -16.358       32.674       40.992       20.825     1067.599     1680.303      433.692        0.368        0.159       62.510       21.768        0.121      333.754        3.277      857.179
12/11/2021  23:01:00     -124.923        7.170      -24.152       81.348       38.679       36.617     6617.422     1496.037     1340.774        1.285        0.473      125.129       18.656        0.022      333.702        3.188      857.182
12/11/2021  23:02:00     -128.993       14.134        9.545       87.465       46.444       36.857     7650.086     2157.089     1358.429        1.405        0.558      129.765       38.779        0.089      333.500        2.855      857.255
12/11/2021  23:03:00      -59.078        6.608        7.442       82.047       50.781       44.355     6731.760     2578.713     1967.358        0.743        0.564       59.446       41.740        0.493      333.470        2.806      857.366
12/11/2021  23:04:00     -154.467        7.460       -3.782       63.783       48.806       39.835     4068.300     2382.030     1586.788        1.598        0.402      154.647       30.389        0.039      333.608        3.034      857.372
12/11/2021  23:05:00      -89.465       83.744      -13.849       41.244       38.766       15.237     1701.101     1502.781      232.154        0.932        0.172      122.544       12.281        0.010      333.664        3.128      857.192
12/11/2021  23:06:00       -1.631       62.616       -7.087       25.088       24.805       19.278      629.405      615.292      371.642        0.279        0.081       62.637       11.419        0.033      333.839        3.416      857.044
12/11/2021  23:07:00      -30.236      -19.982       -7.830       17.495       38.431       12.312      306.075     1476.913      151.595        0.165        0.097       36.242       11.029        0.093      333.825        3.394      857.097
12/11/2021  23:08:00      -60.728       12.924      -12.700       34.156       24.576       23.338     1166.626      603.961      544.640        0.317        0.116       62.088       19.499        0.099      333.488        2.837      857.169
12/11/2021  23:09:00      -40.871       -6.215       -7.069       34.044       29.427       15.451     1159.005      865.951      238.730        0.201        0.113       41.341        5.402        0.017      333.943        3.590      857.192
12/11/2021  23:10:00       -2.715      -37.737       -1.110       27.001       17.034       10.994      729.053      290.148      120.861        0.129        0.057       37.835        2.241        0.004      334.110        3.868      857.168
12/11/2021  23:11:00       26.267      -19.885      -15.463       16.514       27.326       14.078      272.704      746.706      198.191        0.127        0.061       32.945        7.774        0.056      333.748        3.267      857.201
12/11/2021  23:12:00        9.426      -26.857      -12.963       14.130       28.762       17.308      199.649      827.224      299.558        0.115        0.066       28.463       11.958        0.177      333.946        3.595      857.225
12/11/2021  23:13:00       16.834       -2.921      -16.445       16.857       16.965       21.411      284.150      287.823      458.436        0.080        0.052       17.085       12.506        0.536      333.791        3.338      857.149
12/11/2021  23:14:00       70.572      -16.877      -13.366       14.360       24.102       13.166      206.196      580.894      173.335        0.320        0.048       72.562       11.061        0.023      333.947        3.598      857.111
12/11/2021  23:15:00       67.959       -0.146      -10.604       24.071       17.826       12.473      579.417      317.776      155.571        0.289        0.053       67.959       10.640        0.025      334.014        3.707      857.147
12/11/2021  23:16:00       79.259       -8.096      -11.644       34.015       17.531       13.287     1157.050      307.338      176.546        0.406        0.082       79.671       10.452        0.017      334.124        3.889      857.116
12/11/2021  23:17:00       76.964      -15.932      -13.475       36.276       23.651       16.254     1315.931      559.367      264.179        0.425        0.107       78.595       15.695        0.040      333.978        3.649      857.144
12/11/2021  23:18:00       61.856        1.593       -8.887       34.751       23.927       24.426     1207.658      572.519      596.625        0.314        0.119       61.877       21.301        0.119      333.700        3.187      857.078
12/11/2021  23:19:00       30.868        2.033       -6.496       44.237       22.378       21.611     1956.874      500.760      467.026        0.196        0.146       30.935       23.738        0.589      333.599        3.021      857.119
12/11/2021  23:20:00       47.821        6.245       -2.752       30.069       23.398       14.686      904.174      547.474      215.690        0.200        0.083       48.227       11.784        0.060      333.804        3.359      857.158
12/11/2021  23:21:00       12.278       29.898       -2.846       39.964       32.424       15.309     1597.133     1051.317      234.361        0.197        0.144       32.321       14.544        0.202      333.810        3.369      857.105
12/11/2021  23:22:00       62.664       24.305      -13.300       53.006       19.004       17.186     2809.598      361.151      295.344        0.408        0.173       67.212       23.976        0.127      333.967        3.629      857.064
12/11/2021  23:23:00       84.538      -28.729      -11.572       17.317       18.836        7.252      299.894      354.807       52.595        0.441        0.035       89.286        7.953        0.008      334.367        4.292      857.048
12/11/2021  23:24:00       76.094      -28.299      -21.044       34.937       31.991       31.176     1220.560     1023.399      971.965        0.512        0.161       81.186       19.490        0.058      333.873        3.474      857.011
12/11/2021  23:25:00       80.501      -47.846      -39.108       55.173       67.707       41.417     3044.114     4584.234     1715.376        0.982        0.467       93.646       32.830        0.123      333.731        3.238      857.006
12/11/2021  23:26:00      134.909      -82.987      -37.718       73.056       70.565       37.453     5337.161     4979.473     1402.757        1.911        0.586      158.390       42.261        0.071      333.905        3.524      857.017
12/11/2021  23:27:00       51.192      -53.286      -23.987       76.188       32.880       22.374     5804.668     1081.066      500.610        0.671        0.369       73.892       11.881        0.026      333.684        3.160      857.066
12/11/2021  23:28:00      -75.253       31.093      -20.252       34.922       25.836       19.870     1219.575      667.500      394.803        0.466        0.114       81.423       16.145        0.039      333.378        2.656      857.120
12/11/2021  23:29:00      -90.959       30.309      -15.762       57.483       37.527       32.479     3304.328     1408.290     1054.907        0.760        0.288       95.876       24.385        0.065      333.247        2.437      857.147
12/11/2021  23:30:00      -26.941       -9.759      -10.920       30.373       25.369       18.569      922.532      643.571      344.805        0.143        0.096       28.654       10.814        0.142      333.370        2.642      857.127
12/11/2021  23:31:00      -25.218      -12.909       -7.955       27.327       22.666       14.878      746.771      513.746      221.365        0.117        0.074       28.330       11.207        0.157      333.848        3.434      857.084
12/11/2021  23:32:00       20.078       -1.748      -10.383       19.493       35.193       25.534      379.960     1238.544      651.977        0.139        0.114       20.154       14.000        0.483      333.586        3.000      857.090
12/11/2021  23:33:00       12.154      -36.190       -5.853       35.751       26.269       24.152     1278.162      690.039      583.311        0.202        0.128       38.176       20.275        0.282      333.680        3.156      857.157
12/11/2021  23:34:00       68.182      -65.870      -19.766       40.426       34.939       33.466     1634.251     1220.737     1119.948        0.668        0.199       94.803       25.889        0.075      334.133        3.904      857.127
12/11/2021  23:35:00       53.725      -59.387      -16.324       43.829       40.855       21.554     1920.977     1669.101      464.588        0.537        0.203       80.082       17.902        0.050      334.143        3.921      857.079
12/11/2021  23:36:00       44.281      -77.993       -4.180       39.732       51.027       28.853     1578.645     2603.722      832.496        0.654        0.251       89.687       28.456        0.101      334.150        3.931      857.146
12/11/2021  23:37:00       85.451      -49.571      -24.253       63.523       64.390       47.916     4035.207     4146.132     2295.908        1.041        0.524       98.788       41.460        0.176      334.155        3.940      857.117
12/11/2021  23:38:00       31.955      -19.855      -22.347       27.094       23.393       24.676      734.081      547.240      608.899        0.190        0.095       37.621       15.753        0.175      334.277        4.144      856.989
12/11/2021  23:39:00      -86.999       19.338      -21.741       21.549       21.488       20.918      464.366      461.739      437.549        0.489        0.068       89.123       13.548        0.023      334.034        3.741      857.015
12/11/2021  23:40:00     -142.033       88.507      -15.033       80.393       67.701       32.078     6463.083     4583.391     1028.984        2.015        0.604      167.353       31.834        0.036      333.875        3.475      857.076
12/11/2021  23:41:00     -237.978      176.365      -27.074      167.125      184.998       79.497    27930.929    34224.237     6319.723        7.846        3.424      296.206       59.226        0.040      334.759        4.940      856.985
12/11/2021  23:42:00     -176.465       16.383       -5.848      127.259      130.311       52.156    16194.734    16980.936     2720.250        3.366        1.795      177.224       39.845        0.051      334.568        4.624      856.926
12/11/2021  23:43:00      -50.249       -4.024      -21.803       50.831       24.320       25.790     2583.779      591.468      665.132        0.343        0.192       50.410        4.891        0.009      334.492        4.500      856.887
12/11/2021  23:44:00     -133.638      -32.980      -10.608       62.824      130.922       44.084     3946.878    17140.563     1943.415        2.104        1.152      137.648       39.942        0.084      334.996        5.336      856.850
12/11/2021  23:45:00     -114.278       26.639      -19.318       41.771       74.306       33.479     1744.791     5521.399     1120.849        1.126        0.419      117.342       22.412        0.036      335.084        5.482      856.823
12/11/2021  23:46:00      -71.133       -1.107      -10.308       57.742       49.581       29.954     3334.159     2458.314      897.263        0.593        0.334       71.141       29.119        0.168      334.826        5.054      856.868
12/11/2021  23:47:00      -39.325        4.084      -23.527       66.949       68.819       37.889     4482.179     4736.121     1435.590        0.638        0.533       39.536       26.602        0.453      334.738        4.909      856.879
12/11/2021  23:48:00       62.802       -6.222      -28.181       52.021       89.501       33.221     2706.190     8010.412     1103.649        0.830        0.591       63.109       20.239        0.103      334.324        4.221      856.792
12/11/2021  23:49:00       -3.163      -50.326      -22.389       47.844       46.100       24.061     2289.075     2125.219      578.937        0.402        0.250       50.425        7.519        0.022      334.705        4.854      856.807
12/11/2021  23:50:00        3.110      -71.350      -19.164       38.156       52.544       18.797     1455.908     2760.913      353.315        0.502        0.229       71.417       16.380        0.053      334.646        4.755      856.841
12/11/2021  23:51:00       84.097      -83.281      -31.866       43.683       63.828       25.372     1908.193     4074.053      643.763        1.082        0.331      118.356       25.313        0.046      334.671        4.797      856.842
12/11/2021  23:52:00       82.990       39.575      -19.221       49.387       33.532       28.131     2439.107     1124.420      791.373        0.659        0.218       91.943       19.539        0.045      334.666        4.789      856.769
12/11/2021  23:53:00       18.482       22.100      -12.582       42.774       56.865       41.125     1829.603     3233.588     1691.287        0.387        0.338       28.809       38.693        1.804      334.651        4.764      856.779
12/11/2021  23:54:00       50.034       18.412      -27.288       49.726       43.638       21.875     2472.710     1904.238      478.516        0.422        0.243       53.314       12.195        0.052      334.474        4.470      856.723
12/11/2021  23:55:00       53.345       45.125      -16.818       54.737       50.448       30.177     2996.183     2544.960      910.632        0.581        0.323       69.871       22.494        0.104      334.850        5.096      856.663
12/11/2021  23:56:00       -7.211       -0.976      -10.239       49.115       34.642       21.082     2412.296     1200.056      444.438        0.211        0.203        7.277       13.323        3.352      334.859        5.111      856.650
12/11/2021  23:57:00       25.703      -51.168      -27.665       80.811       73.399       41.883     6530.341     5387.349     1754.159        0.886        0.684       57.260       25.973        0.206      335.008        5.357      856.699
12/11/2021  23:58:00      -68.380       -3.602      -12.852       47.434       41.726       40.552     2250.016     1741.025     1644.491        0.524        0.282       68.475       20.187        0.087      335.223        5.714      856.713
12/11/2021  23:59:00        4.950       29.025       -0.079       63.620       50.874       38.469     4047.487     2588.159     1479.849        0.449        0.406       29.444       33.597        1.302      334.964        5.284      856.672
12/12/2021  00:00:00     -149.168      -60.456      -25.208      144.975      114.142       73.283    21017.871    13028.494     5370.434        3.297        1.971      160.954       61.637        0.147      335.305        5.848      856.678
12/12/2021  00:01:00     -176.195       -3.921       -7.832      128.837      124.659       68.281    16599.065    15539.801     4662.258        3.395        1.840      176.239       65.239        0.137      335.185        5.648      856.653
12/12/2021  00:02:00     -167.190      -11.715      -31.280      111.724       92.001       42.984    12482.283     8464.253     1847.584        2.593        1.140      167.600       28.213        0.028      335.381        5.976      856.642
12/12/2021  00:03:00      -96.051      -60.690      -28.034      116.565       83.036       45.184    13587.360     6894.963     2041.558        1.811        1.126      113.618       33.780        0.088      335.264        5.782      856.753
12/12/2021  00:04:00     -166.912     -177.606      -50.923      127.089      103.315       59.858    16151.629    10674.017     3582.974        4.620        1.520      243.728       43.777        0.032      335.284        5.814      856.820
12/12/2021  00:05:00     -180.744       61.956       12.938      207.738      169.918       95.892    43154.933    28872.245     9195.255        5.893        4.061      191.068       80.055        0.176      335.331        5.892      856.728
12/12/2021  00:06:00     -162.677      -45.113      -14.461      157.548      122.070       68.395    24821.311    14901.116     4677.894        3.655        2.220      168.817       17.032        0.010      335.362        5.942      856.727
12/12/2021  00:07:00      -80.676     -155.211      -46.449      137.154      109.816       49.851    18811.260    12059.517     2485.110        3.305        1.668      174.926       42.561        0.059      335.454        6.096      856.795
12/12/2021  00:08:00     -112.433        2.971       -2.789       97.401       74.915       57.062     9486.999     5612.283     3256.060        1.550        0.918      112.472       49.692        0.195      335.322        5.878      856.793
12/12/2021  00:09:00      -81.122      -47.766        1.717       94.078       87.945       58.260     8850.752     7734.408     3394.244        1.442        0.999       94.140       37.726        0.161      335.325        5.884      856.795
12/12/2021  00:10:00     -266.581      -67.869      -39.190      137.134      145.880       67.024    18805.659    21281.096     4492.201        6.089        2.229      275.085       67.789        0.061      335.450        6.090      856.778
12/12/2021  00:11:00     -131.918      -71.693      -29.623       69.980       83.615       42.564     4897.135     6991.491     1811.685        1.856        0.685      150.141       29.544        0.039      335.353        5.928      856.760
12/12/2021  00:12:00     -264.354       36.292      -11.166      152.280       86.916       62.373    23189.157     7554.326     3890.448        5.297        1.732      266.833       69.388        0.068      335.327        5.884      856.775
12/12/2021  00:13:00     -233.320      -27.356      -20.007      240.246      113.013       91.217    57718.334    12771.888     8320.581        6.718        3.941      234.919      102.170        0.189      335.296        5.831      856.717
12/12/2021  00:14:00     -112.111       40.246      -19.783      152.471      134.006       82.044    23247.333    17957.739     6731.269        3.125        2.397      119.115       44.874        0.142      335.205        5.683      856.695
12/12/2021  00:15:00     -205.791       -6.149      -19.535      169.777      118.458       80.428    28824.215    14032.409     6468.689        4.604        2.466      205.883       77.126        0.140      335.250        5.756      856.737
12/12/2021  00:16:00      -87.170        9.538      -21.709      206.568      109.701       53.609    42670.486    12034.369     2873.933        3.286        2.879       87.690       26.868        0.094      335.215        5.699      856.702
12/12/2021  00:17:00     -389.622      -11.346      -17.081      247.303      139.352      105.697    61159.021    19419.036    11171.939       12.197        4.587      389.787      119.912        0.095      335.191        5.658      856.661
12/12/2021  00:18:00     -349.218       11.409      -31.560      181.965      120.506       81.265    33111.198    14521.680     6604.034        8.865        2.712      349.405       75.917        0.047      335.176        5.634      856.667
12/12/2021  00:19:00     -254.710      -14.171      -20.052      132.620      154.157       65.002    17588.115    23764.241     4225.291        5.552        2.279      255.104       57.233        0.050      335.215        5.698      856.667
12/12/2021  00:20:00     -209.487      -47.136      -22.841      146.617      115.268       58.933    21496.479    13286.618     3473.077        4.244        1.913      214.724       50.619        0.056      335.356        5.932      856.760
12/12/2021  00:21:00     -209.555     -213.350      -34.503      198.404      250.882       81.548    39364.173    62941.797     6650.095        9.977        5.448      299.051       77.107        0.066      335.642        6.409      856.742
12/12/2021  00:22:00      180.237     -140.562      -41.294       99.079      130.499       67.821     9816.709    17029.907     4599.718        4.269        1.572      228.567       59.186        0.067      334.522        4.548      856.780
12/12/2021  00:23:00       79.662      -63.994       -9.635       77.861       54.825       34.550     6062.287     3005.761     1193.724        1.040        0.513      102.183       17.679        0.030      334.519        4.543      856.834
12/12/2021  00:24:00       55.527      -14.550      -21.118       56.721       75.117       26.387     3217.290     5642.499      696.286        0.665        0.478       57.402       26.706        0.216      334.684        4.817      856.858
12/12/2021  00:25:00      -39.288      119.471      -15.944      121.886       99.862       62.916    14856.236     9972.360     3958.362        2.242        1.439      125.765       20.256        0.026      335.016        5.368      856.804
12/12/2021  00:26:00     -411.513      -10.630      -36.218      289.096      131.923       97.896    83576.647    17403.680     9583.642       14.065        5.528      411.650       94.349        0.053      335.431        6.059      856.696
12/12/2021  00:27:00     -374.186      -27.819      -19.668      186.220      103.609       83.550    34677.865    10734.798     6980.570        9.677        2.620      375.218       86.951        0.054      335.550        6.256      856.774
12/12/2021  00:28:00     -327.032        2.126      -14.061      180.110      124.562       91.702    32439.550    15515.609     8409.282        8.175        2.818      327.039       77.869        0.057      335.598        6.336      856.725
12/12/2021  00:29:00     -283.695       -8.858       -6.913      261.983      133.826       90.131    68634.885    17909.455     8123.541        8.762        4.733      283.833      101.360        0.128      335.565        6.283      856.607
12/12/2021  00:30:00     -191.605       -8.076       -4.658      290.044      158.805      102.711    84125.285    25218.941    10549.491        7.832        5.995      191.775      108.961        0.323      335.494        6.163      856.557
12/12/2021  00:31:00     -568.767      -59.730      -39.678      282.446      182.503      130.736    79775.583    33307.347    17092.015       22.938        6.509      571.894      140.086        0.060      335.526        6.215      856.615
12/12/2021  00:32:00     -328.546       -1.268       -5.149      308.930      190.871      127.895    95438.053    36431.890    16357.126       12.807        7.411      328.548      134.982        0.169      335.409        6.021      856.636
12/12/2021  00:33:00     -294.895       45.679       -6.973      220.130      176.586      103.118    48457.412    31182.726    10633.249        8.967        4.514      298.412      101.364        0.115      335.360        5.938      856.547
12/12/2021  00:34:00     -589.875      -65.758      -41.714      307.396      218.855      135.392    94492.003    47897.503    18331.100       25.734        8.036      593.529      109.361        0.034      335.351        5.925      856.546
12/12/2021  00:35:00     -322.887      -10.985      -20.669      277.385      190.432      136.001    76942.269    36264.162    18496.271       11.823        6.585      323.074      123.735        0.147      335.304        5.847      856.488
12/12/2021  00:36:00     -515.048     -146.319      -10.832      311.247      270.353      137.247    96874.721    73090.683    18836.816       23.777        9.440      535.428      145.142        0.073      335.403        6.010      856.387
12/12/2021  00:37:00     -300.945     -112.982      -22.381      248.424      192.883      121.993    61714.411    37203.910    14882.284       10.880        5.690      321.454      131.129        0.166      335.648        6.419      856.261
12/12/2021  00:38:00     -376.058     -169.784      -39.289      177.438      190.335      112.909    31484.212    36227.558    12748.416       12.611        4.023      412.609       95.511        0.054      335.538        6.235      856.399
12/12/2021  00:39:00     -430.600     -153.778      -41.506      176.657      215.083      118.645    31207.728    46260.695    14076.655       15.115        4.577      457.235       86.847        0.036      335.529        6.219      856.441
12/12/2021  00:40:00     -389.286      -36.498      -52.697      167.833      157.931       93.732    28167.903    24942.133     8785.664       10.876        3.095      390.993       55.262        0.020      335.561        6.274      856.421
12/12/2021  00:41:00     -455.206      -64.487      -40.268      188.845      159.795       96.427    35662.274    25534.290     9298.183       14.173        3.525      459.752       78.382        0.029      335.647        6.417      856.451
12/12/2021  00:42:00     -346.491       31.886      -14.796      222.182      144.791      112.831    49364.700    20964.393    12730.798       10.216        4.153      347.955      115.163        0.110      335.597        6.333      856.326
12/12/2021  00:43:00     -557.239       18.985      -13.510      305.731      187.696      132.500    93471.733    35229.764    17556.192       22.863        7.313      557.562      132.791        0.057      335.512        6.193      856.380
12/12/2021  00:44:00     -539.147       -0.773       -8.867      294.207      217.668      136.704    86557.898    47379.285    18688.065       22.166        7.631      539.148      136.859        0.064      335.380        5.972      856.373
12/12/2021  00:45:00     -638.205        9.041      -21.626      298.140      253.279      140.325    88887.385    64150.325    19691.212       29.026        8.636      638.269      135.910        0.045      335.341        5.906      856.306
12/12/2021  00:46:00     -607.999      -69.699      -49.472      363.544      235.391      147.002   132164.592    55408.712    21609.718       29.304       10.459      611.981      153.775        0.063      335.314        5.862      856.330
12/12/2021  00:47:00     -512.446       22.539       -7.851      317.772      169.750      124.750   100978.756    28815.080    15562.575       20.424        7.268      512.942      128.958        0.063      335.237        5.735      856.297
12/12/2021  00:48:00     -561.221      -51.091      -14.827      296.158      182.986      159.731    87709.383    33483.697    25514.122       23.223        7.335      563.541      168.700        0.090      335.273        5.794      856.368
12/12/2021  00:49:00     -338.919     -118.322      -33.390      237.434      172.757      104.591    56374.937    29844.872    10939.365       11.355        4.858      358.979      111.642        0.097      335.274        5.797      856.407
12/12/2021  00:50:00     -597.432      -91.006      -54.065      369.827      238.727      139.943   136771.693    56990.726    19584.182       29.070       10.667      604.323      150.338        0.062      335.349        5.920      856.430
12/12/2021  00:51:00     -469.670      -98.619      -30.950      175.413      196.993       90.366    30769.570    38806.100     8166.019       15.449        3.887      479.912       64.077        0.018      335.297        5.833      856.358
12/12/2021  00:52:00     -407.192       95.839       -7.408      240.162      208.300      130.539    57677.721    43389.063    17040.524       14.655        5.905      418.319      120.612        0.083      335.149        5.589      856.431
12/12/2021  00:53:00     -570.346        4.958      -42.623      260.844      173.417      108.279    68039.400    30073.380    11724.305       21.847        5.492      570.368       94.604        0.028      335.169        5.622      856.385
12/12/2021  00:54:00     -458.092       -1.917      -29.442      274.567      204.393      130.972    75386.806    41776.607    17153.559       17.249        6.716      458.096      123.329        0.072      335.196        5.667      856.365
12/12/2021  00:55:00     -644.936      -30.442      -57.872      280.013      220.305      122.512    78407.507    48534.453    15009.081       28.106        7.098      645.654      120.603        0.035      335.238        5.735      856.360
12/12/2021  00:56:00     -507.547      -44.259      -37.797      349.701      188.869      159.585   122290.542    35671.349    25467.360       22.218        9.171      509.473      180.947        0.126      335.216        5.700      856.306
12/12/2021  00:57:00     -613.805       25.732      -38.659      412.280      235.036      148.678   169974.441    55241.820    22105.181       31.307       12.366      614.344      149.168        0.059      335.223        5.711      856.296
12/12/2021  00:58:00     -422.886       -6.684      -25.364      355.478      197.461      143.365   126364.952    38990.667    20553.540       18.268        9.295      422.939      146.840        0.121      335.208        5.686      856.320
12/12/2021  00:59:00     -593.593        8.761        9.372      341.433      229.726      150.298   116576.495    52774.257    22589.509       27.219        9.597      593.658      160.189        0.073      335.174        5.629      856.353
12/12/2021  01:00:00     -319.052      -14.144        5.527      186.228      164.839       94.827    34680.935    27171.925     8992.066        8.642        3.542      319.366       95.534        0.089      335.121        5.543      856.342
12/12/2021  01:01:00     -315.047        5.035      -34.212      399.309      199.901      158.836   159447.349    39960.598    25228.790       16.250       11.232      315.087      136.546        0.188      335.011        5.361      856.230
12/12/2021  01:02:00     -724.048       27.835      -36.262      319.287      209.507      128.545   101943.942    43893.332    16523.787       34.432        8.118      724.583      118.790        0.027      335.113        5.530      856.231
12/12/2021  01:03:00     -500.147       95.439        4.425      354.888      202.960      154.343   125945.242    41192.559    23821.851       22.508        9.548      509.171      158.751        0.097      335.150        5.590      856.334
12/12/2021  01:04:00     -496.927      -44.627      -33.168      243.009      236.479      117.380    59053.134    55922.505    13778.035       18.937        6.438      498.927      124.673        0.062      335.092        5.495      856.324
12/12/2021  01:05:00     -628.626       22.638      -50.642      294.819      193.050      129.560    86918.504    37268.323    16785.802       26.958        7.049      629.034      117.131        0.035      335.128        5.555      856.349
12/12/2021  01:06:00     -421.951     -130.875      -30.076      276.740      185.926      145.762    76585.052    34568.541    21246.525       16.421        6.620      441.781      150.829        0.117      335.033        5.396      856.335
12/12/2021  01:07:00     -684.134      -91.394      -44.632      377.162      285.219      144.187   142251.110    81350.109    20789.776       36.134       12.220      690.211      143.872        0.043      334.970        5.291      856.355
12/12/2021  01:08:00     -554.815       -6.988      -28.961      308.811      178.140      121.443    95364.458    31733.965    14748.283       22.525        7.092      554.859      123.034        0.049      334.948        5.257      856.360
12/12/2021  01:09:00     -356.978        5.780       -3.538      291.134      196.440      128.564    84758.746    38588.744    16528.824       13.365        6.994      357.024      105.985        0.088      334.897        5.170      856.441
12/12/2021  01:10:00     -544.010       -6.327      -36.082      352.332      217.713      134.434   124138.045    47398.930    18072.544       24.341        9.480      544.046      141.152        0.067      334.842        5.080      856.411
12/12/2021  01:11:00     -344.501       -9.500      -20.220      346.148      211.008      147.540   119818.778    44524.290    21768.196       15.261        9.306      344.632      162.313        0.222      334.878        5.138      856.379
12/12/2021  01:12:00     -706.919      134.754        1.407      368.443      266.378      136.367   135750.575    70957.349    18595.863       37.156       11.265      719.648      138.612        0.037      335.024        5.381      856.341
12/12/2021  01:13:00     -573.752        8.488        1.594      294.836      250.771      147.481    86928.130    62886.310    21750.618       25.038        8.578      573.815      144.438        0.063      335.104        5.515      856.358
12/12/2021  01:14:00     -568.021       -2.039      -41.378      357.783      243.935      157.258   128008.993    59504.125    24730.094       26.826       10.612      568.024      145.943        0.066      334.991        5.327      856.333
12/12/2021  01:15:00     -493.641       83.157      -29.880      352.014      237.672      145.993   123914.176    56487.933    21313.970       22.657       10.086      500.596      137.921        0.076      334.934        5.230      856.344
12/12/2021  01:16:00     -627.226       92.136      -21.099      273.943      210.064      126.293    75045.031    44126.883    15949.854       26.871        6.756      633.957      121.756        0.037      334.862        5.112      856.420
12/12/2021  01:17:00     -516.906       45.962      -37.146      300.856      230.959      123.901    90514.245    53341.904    15351.515       21.492        7.960      518.945      141.277        0.074      334.776        4.968      856.366
12/12/2021  01:18:00     -500.936      -33.415      -25.686      324.428      198.175      131.864   105253.739    39273.274    17388.111       20.728        8.096      502.049      121.433        0.059      334.878        5.139      856.351
12/12/2021  01:19:00     -434.437       48.237      -23.585      304.786      194.443      129.412    92894.669    37808.007    16747.364       16.951        7.373      437.107      131.962        0.091      334.958        5.271      856.290
12/12/2021  01:20:00     -547.457      -12.999      -16.727      367.291      207.860      154.866   134902.389    43205.966    23983.562       25.109       10.105      547.612      144.430        0.070      334.973        5.297      856.313
12/12/2021  01:21:00     -668.408       -8.085      -21.825      332.100      203.901      147.549   110290.371    41575.532    21770.843       31.044        8.682      668.457      134.748        0.041      335.003        5.347      856.377
12/12/2021  01:22:00     -785.649      -33.491      -59.057      285.337      220.080      132.922    81417.193    48435.193    17668.315       38.466        7.376      786.362      132.615        0.028      334.913        5.196      856.403
12/12/2021  01:23:00     -609.242       -6.725      -46.361      498.345      272.229      177.235   248348.000    74108.602    31412.104       36.355       17.693      609.279      189.685        0.097      334.944        5.248      856.385
12/12/2021  01:24:00     -712.102       30.761      -14.361      385.484      262.782      147.669   148598.296    69054.422    21806.263       37.381       11.973      712.766      160.894        0.051      334.941        5.244      856.312
12/12/2021  01:25:00     -520.869       25.632      -10.987      358.546      205.473      136.079   128555.359    42219.072    18517.541       23.065        9.465      521.499      152.784        0.086      334.869        5.124      856.432
12/12/2021  01:26:00     -572.300       84.377      -37.328      367.551      240.942      152.276   135094.037    58053.015    23188.092       27.615       10.817      578.487      154.494        0.071      334.828        5.055      856.380
12/12/2021  01:27:00     -620.511      110.429       -6.866      353.924      269.380      166.062   125262.349    72565.538    27576.603       31.130       11.270      630.261      168.522        0.071      334.774        4.964      856.371
12/12/2021  01:28:00     -449.996      -10.444      -20.696      351.189      230.156      148.629   123333.609    52971.787    22090.488       20.068        9.920      450.118      136.523        0.092      334.794        4.999      856.392
12/12/2021  01:29:00     -553.114      124.199      -38.199      394.170      249.431      162.476   155369.843    62215.912    26398.403       28.336       12.199      566.887      144.684        0.065      334.719        4.873      856.469
12/12/2021  01:30:00     -660.334        8.989      -38.237      344.768      233.564      142.649   118864.877    54552.251    20348.761       31.564        9.688      660.395      137.870        0.044      334.662        4.778      856.540
12/12/2021  01:31:00     -437.566        8.102      -14.409      341.078      183.891      127.740   116334.039    33816.049    16317.606       17.907        8.323      437.641      145.536        0.111      334.614        4.699      856.416
12/12/2021  01:32:00     -685.568      124.189      -12.232      456.446      204.211      141.899   208343.360    41701.985    20135.363       37.783       13.509      696.725      162.338        0.054      334.571        4.627      856.387
12/12/2021  01:33:00     -365.255       58.747      -12.959      288.154      247.103      144.562    83032.917    61060.063    20898.030       15.098        8.250      369.949      124.617        0.113      334.673        4.798      856.346
12/12/2021  01:34:00     -363.473        9.627      -28.660      381.217      241.315      156.773   145326.422    58232.838    24577.634       18.054       11.407      363.600      165.342        0.207      334.698        4.839      856.340
12/12/2021  01:35:00     -561.724        4.206      -20.788      239.410      182.160      116.770    57317.085    33182.194    13635.275       21.004        5.207      561.740      119.564        0.045      334.702        4.846      856.355
12/12/2021  01:36:00     -645.241        0.309      -34.595      395.854      169.547      144.589   156700.171    28746.279    20905.930       31.190       10.318      645.241      158.251        0.060      334.739        4.907      856.384
12/12/2021  01:37:00     -597.549       11.596      -27.572      326.110      220.291      154.865   106347.873    48528.182    23983.043       26.838        8.943      597.662      145.043        0.059      334.736        4.901      856.490
12/12/2021  01:38:00     -347.183      -65.713      -21.669      258.165      170.173      108.983    66649.244    28958.702    11877.316       11.638        5.374      353.347      109.304        0.096      334.718        4.874      856.451
12/12/2021  01:39:00     -488.100       15.043      -41.769      245.079      225.696      121.827    60063.697    50938.743    14841.874       18.301        6.292      488.332      108.636        0.049      334.664        4.782      856.318
12/12/2021  01:40:00     -682.430      -24.577      -31.565      342.795      221.568      150.299   117508.124    49092.342    22589.669       32.822        9.460      682.872      165.339        0.059      334.600        4.676      856.339
12/12/2021  01:41:00     -503.224      -41.140      -38.959      188.371      173.739      114.539    35483.636    30185.240    13119.221       16.760        3.939      504.903      104.375        0.043      334.540        4.575      856.390
12/12/2021  01:42:00     -525.146        8.124      -37.689      274.748      182.759      132.596    75486.557    33400.783    17581.659       20.184        6.323      525.209      127.876        0.059      334.612        4.696      856.259
12/12/2021  01:43:00     -446.549     -137.018      -33.783      323.876      263.426      142.641   104895.648    69393.271    20346.533       20.694        9.732      467.097      129.658        0.077      334.920        5.207      856.296
12/12/2021  01:44:00     -329.437       -3.403      -24.417      197.994      139.748      113.091    39201.775    19529.376    12789.471        9.032        3.576      329.455       99.178        0.091      334.886        5.152      856.400
12/12/2021  01:45:00     -320.366      -31.017      -12.252      251.484      124.076      101.549    63244.406    15394.854    10312.118        9.633        4.448      321.864       85.059        0.070      334.755        4.935      856.549
12/12/2021  01:46:00     -504.490      -15.638      -18.405      334.950      236.081      124.222   112191.756    55734.352    15431.196       21.919        9.168      504.732      121.952        0.058      334.583        4.646      856.623
12/12/2021  01:47:00     -635.927     -115.662      -32.342      272.645      256.381      145.973    74335.441    65731.343    21308.077       29.007        8.069      646.359      109.347        0.029      334.524        4.548      856.493
12/12/2021  01:48:00     -530.994       33.704        3.472      265.097      152.200      117.693    70276.664    23164.884    13851.569       19.518        5.365      532.063      136.653        0.066      334.469        4.458      856.566
12/12/2021  01:49:00     -488.844      -99.489      -38.242      225.825      185.709      114.218    50997.035    34487.975    13045.773       17.441        4.927      498.865      109.001        0.048      334.544        4.583      856.585
12/12/2021  01:50:00     -490.056      -32.213      -20.905      347.232      223.146      178.110   120569.938    49794.056    31722.999       22.182       10.104      491.114      189.104        0.148      334.492        4.497      856.514
12/12/2021  01:51:00     -321.035       73.646        8.953      304.486      269.806      135.467    92711.799    72795.394    18351.419       14.618        9.193      329.374      128.453        0.152      334.440        4.412      856.602
12/12/2021  01:52:00     -461.890       26.653      -24.032      287.994      221.276      132.131    82940.289    48963.246    17458.659       18.197        7.468      462.658      124.330        0.072      334.426        4.388      856.674
12/12/2021  01:53:00     -296.698       58.028       10.438      266.661      173.581      114.062    71108.188    30130.526    13010.100       10.286        5.712      302.319      129.501        0.183      334.458        4.442      856.533
12/12/2021  01:54:00     -422.258      -53.959      -21.298      241.124      237.576      112.167    58140.570    56442.410    12581.374       15.439        6.358      425.691      106.344        0.062      334.665        4.784      856.625
12/12/2021  01:55:00     -410.166      -71.721      -41.889      247.070      162.933      108.380    61043.709    26547.316    11746.136       13.722        4.967      416.389      113.574        0.074      334.788        4.989      856.710
12/12/2021  01:56:00     -351.434     -143.885      -32.750      156.821      200.968       72.445    24592.820    40388.298     5248.257       10.774        3.511      379.748       72.167        0.036      334.769        4.957      856.765
12/12/2021  01:57:00     -286.314     -161.653      -28.305      216.654      195.902       99.953    46939.073    38377.599     9990.523       10.209        4.765      328.797       79.263        0.058      334.688        4.823      856.797
12/12/2021  01:58:00     -338.979      -85.283      -20.671      208.516      159.977       98.474    43478.788    25592.751     9697.040       10.067        3.938      349.542       79.900        0.052      334.613        4.697      856.754
12/12/2021  01:59:00     -307.349       71.396       -5.124      236.591      186.639      106.546    55975.398    34834.031    11352.156       10.086        5.108      315.533      107.016        0.115      334.680        4.809      856.650
12/12/2021  02:00:00     -235.307      -74.103      -31.362      203.044      153.497       75.651    41226.691    23561.438     5723.122        6.616        3.526      246.700       90.663        0.135      334.712        4.863      856.699
12/12/2021  02:01:00     -208.588      -31.882      -23.555      197.046       80.015       57.857    38826.977     6402.421     3347.426        4.682        2.429      211.010       66.268        0.099      334.798        5.007      856.807
12/12/2021  02:02:00     -160.196       18.726      -17.606      157.551      111.762       60.855    24822.286    12490.791     3703.366        3.366        2.051      161.287       64.900        0.162      334.688        4.824      856.800
12/12/2021  02:03:00     -225.502       10.679      -10.702      138.964      119.084       75.270    19310.877    14181.079     5665.595        4.511        1.958      225.755       72.489        0.103      334.623        4.717      856.834
12/12/2021  02:04:00      -83.925       17.376       -1.348      112.048       90.035       56.440    12554.690     8106.278     3185.421        1.559        1.192       85.705       35.782        0.174      334.576        4.639      856.841
12/12/2021  02:05:00     -103.041       10.280      -23.232       87.858       73.405       67.875     7719.085     5388.302     4606.982        1.449        0.886      103.553       43.763        0.179      334.563        4.615      856.793
12/12/2021  02:06:00     -450.738      -81.636      -47.601      297.113      160.778       94.383    88275.844    25849.557     8908.076       16.754        6.152      458.071      120.852        0.070      334.577        4.637      856.787
12/12/2021  02:07:00     -396.654        4.024      -15.604      150.664      124.954       80.423    22699.603    15613.583     6467.782       10.118        2.239      396.675       70.713        0.032      334.588        4.654      856.769
12/12/2021  02:08:00     -691.651       20.723      -40.281      382.049      273.799      134.943   145961.580    74965.930    18209.610       35.974       11.957      691.962      154.030        0.050      334.810        5.026      856.581
12/12/2021  02:09:00     -477.864      -89.469      -43.483      274.532      188.003      112.267    75367.547    35345.054    12603.847       18.076        6.166      486.167      116.740        0.058      334.960        5.276      856.704
12/12/2021  02:10:00     -378.176      -50.771      -29.737      151.333      137.583       87.182    22901.577    18928.992     7600.695        9.795        2.472      381.569       81.837        0.046      334.771        4.960      856.698
12/12/2021  02:11:00     -210.806      -22.630       -4.672      145.685      115.358       68.198    21224.111    13307.439     4650.957        4.207        1.959      212.017       62.702        0.087      334.785        4.985      856.640
12/12/2021  02:12:00     -323.299      -39.344      -27.160      145.178      147.091       75.080    21076.791    21635.803     5637.001        7.757        2.417      325.684       43.425        0.018      335.017        5.369      856.689
12/12/2021  02:13:00     -172.506      -39.141       -1.877      160.834      133.131       77.103    25867.419    17723.779     5944.903        4.041        2.477      176.890       75.792        0.184      334.975        5.300      856.707
12/12/2021  02:14:00      -85.639      -32.331      -30.888       86.525       73.510       55.001     7486.612     5403.725     3025.079        1.262        0.796       91.538       45.800        0.250      335.081        5.477      856.727
12/12/2021  02:15:00      -22.325      -57.614      -23.424       80.089       91.805       42.629     6414.208     8428.141     1817.269        1.051        0.833       61.788       43.562        0.497      335.064        5.449      856.784
12/12/2021  02:16:00       -2.110      -70.131      -15.174       40.545       53.875       28.245     1643.900     2902.475      797.787        0.525        0.267       70.163       19.966        0.081      335.046        5.420      856.819
12/12/2021  02:17:00      -12.484       60.172       -8.211       81.307       56.180       30.041     6610.804     3156.244      902.467        0.725        0.533       61.453       34.875        0.322      335.025        5.385      856.853
12/12/2021  02:18:00       -6.435      -69.329      -11.489      108.025      135.058       37.352    11669.317    18240.539     1395.186        1.814        1.565       69.627       39.637        0.324      335.087        5.488      856.792
12/12/2021  02:19:00     -246.695      -21.282      -10.974      195.441      160.613       97.942    38197.047    25796.571     9592.699        6.750        3.679      247.611       97.108        0.154      335.027        5.386      856.822
12/12/2021  02:20:00     -294.703      -11.172      -28.324      246.978      268.550       98.249    60998.277    72118.951     9652.795       11.525        7.139      294.914      106.064        0.129      334.913        5.196      856.807
12/12/2021  02:21:00     -374.327      -10.521      -26.304      221.560      131.980      101.093    49088.949    17418.673    10219.829       10.881        3.836      374.475       90.629        0.059      334.700        4.842      856.808
12/12/2021  02:22:00     -444.610       20.803      -21.252      278.210      163.825      110.169    77400.749    26838.689    12137.271       15.745        5.819      445.096      102.844        0.053      334.682        4.811      856.836
12/12/2021  02:23:00     -339.239       12.047       -5.376      332.595      171.802      109.078   110619.488    29515.858    11898.097       13.362        7.602      339.453      122.086        0.129      334.724        4.883      856.801
12/12/2021  02:24:00     -193.800        6.635       -5.002      254.674      134.291      112.824    64858.916    18034.181    12729.296        6.661        4.781      193.914      114.825        0.351      334.758        4.939      856.773
12/12/2021  02:25:00     -407.981     -120.620      -61.357      167.959      129.581       92.197    28210.277    16791.137     8500.280       11.912        2.675      425.438       71.720        0.028      334.769        4.958      856.722
12/12/2021  02:26:00     -300.325     -146.164      -45.477      116.963      145.341       66.707    13680.370    21123.961     4449.849        7.643        1.963      334.005       53.774        0.026      334.836        5.067      856.665
12/12/2021  02:27:00     -121.911      -49.720      -12.387      110.501      109.201       66.575    12210.551    11924.939     4432.230        2.302        1.428      131.660       36.708        0.078      334.764        4.950      856.583
12/12/2021  02:28:00     -250.674       13.073      -18.167      174.604      150.923       62.682    30486.459    22777.838     3929.093        6.026        2.860      251.015       41.295        0.027      334.659        4.773      856.456
12/12/2021  02:29:00     -309.684       72.765       10.903      163.180       93.852       73.670    26627.720     8808.248     5427.204        7.108        2.043      318.118       70.999        0.050      334.831        5.061      856.305
12/12/2021  02:30:00     -194.148       27.204      -19.940      126.998       79.975       47.282    16128.569     6396.064     2235.630        3.179        1.238      196.044       48.927        0.062      334.797        5.004      856.316
12/12/2021  02:31:00     -179.517      -78.238      -27.612      147.132       93.933       62.895    21647.952     8823.348     3955.821        3.676        1.721      195.825       53.659        0.075      334.991        5.329      856.223
12/12/2021  02:32:00     -149.595      -57.086      -11.222      108.159      122.805       63.246    11698.469    15081.027     4000.091        2.827        1.539      160.117       66.701        0.174      335.154        5.599      856.216
12/12/2021  02:33:00     -213.901      -49.687       -9.578      152.004      107.969       67.345    23105.324    11657.259     4535.367        4.380        1.965      219.596       62.434        0.081      335.080        5.475      856.249
12/12/2021  02:34:00      -56.215      -47.355      -24.097       77.217       54.753       41.192     5962.512     2997.891     1696.778        0.832        0.533       73.502       31.306        0.181      335.055        5.434      856.366
12/12/2021  02:35:00      -79.093       31.221       -7.469      133.058       45.827       26.503    17704.402     2100.099      702.405        1.389        1.025       85.032       16.414        0.037      334.953        5.265      856.432
12/12/2021  02:36:00     -209.104       -1.199      -30.775       65.105       91.561       45.054     4238.671     8383.508     2029.887        2.966        0.733      209.107       39.573        0.036      334.929        5.222      856.484
12/12/2021  02:37:00     -114.314        6.304      -13.546       75.117       50.699       48.124     5642.634     2570.344     2315.951        1.191        0.526      114.488       40.638        0.126      334.886        5.156      856.525
12/12/2021  02:38:00     -216.641       40.516      -12.093      158.355      128.045       71.134    25076.439    16395.461     5060.116        4.762        2.327      220.397       37.532        0.029      334.895        5.169      856.490
12/12/2021  02:39:00     -295.899     -240.848      -29.741      120.255      134.293       69.038    14461.206    18034.532     4766.254        9.185        1.863      381.529       54.327        0.020      335.015        5.365      856.486
12/12/2021  02:40:00     -297.750      -56.031      -33.367      190.339      125.685       91.403    36229.061    15796.658     8354.528        7.663        3.019      302.976       99.777        0.108      334.864        5.116      856.433
12/12/2021  02:41:00     -152.032       59.598        1.106      105.760      103.771       62.254    11185.219    10768.509     3875.578        2.624        1.291      163.296       47.685        0.085      334.802        5.013      856.465
12/12/2021  02:42:00      -97.586       -2.053       -0.178      119.853       76.878       54.220    14364.739     5910.181     2939.838        1.637        1.161       97.608       46.827        0.230      334.793        4.999      856.466
12/12/2021  02:43:00     -262.757       57.765      -18.013      103.056       95.647       67.829    10620.488     9148.301     4600.836        4.853        1.218      269.032       57.807        0.046      334.841        5.077      856.487
12/12/2021  02:44:00     -370.180       21.523      -32.867      189.126      124.303       92.710    35768.462    15451.336     8595.157        9.918        2.991      370.806       87.493        0.056      334.764        4.949      856.410
12/12/2021  02:45:00     -268.065       -7.266      -13.005      193.075      100.916       69.950    37277.862    10184.116     4892.963        6.221        2.618      268.164       75.746        0.080      334.731        4.895      856.328
12/12/2021  02:46:00     -148.269       -4.257       -7.467      137.782       90.897       71.007    18983.937     8262.304     5041.958        2.717        1.614      148.330       71.832        0.235      334.733        4.899      856.335
12/12/2021  02:47:00     -189.399       27.687       -6.241      113.766       73.365       53.141    12942.621     5382.416     2823.915        2.891        1.057      191.412       50.765        0.070      334.770        4.960      856.448
12/12/2021  02:48:00      -91.649      -46.009      -16.182       62.849      100.668       52.823     3950.041    10134.131     2790.232        1.382        0.844      102.549       47.364        0.213      334.874        5.133      856.471
12/12/2021  02:49:00     -125.004      -74.405      -18.321       80.084       86.183       51.155     6413.396     7427.470     2616.876        1.897        0.823      145.472       39.859        0.075      334.963        5.282      856.489
12/12/2021  02:50:00     -166.237      -97.478      -29.798      106.507      114.049       58.089    11343.641    13007.117     3374.285        3.287        1.386      192.708       45.431        0.056      334.996        5.336      856.541
12/12/2021  02:51:00      -75.733     -200.829      -60.085      165.523      244.712       85.633    27397.793    59883.750     7332.983        7.213        4.731      214.634       89.015        0.172      335.043        5.413      856.462
12/12/2021  02:52:00     -399.354      -86.203      -36.452      178.531      163.176       93.242    31873.470    26626.261     8694.036       11.771        3.360      408.552       78.969        0.037      335.104        5.515      856.493
12/12/2021  02:53:00     -441.419      -99.333      -52.287      160.929      152.553       74.725    25898.182    23272.518     5583.856       13.109        2.738      452.457       75.027        0.027      335.169        5.622      856.448
12/12/2021  02:54:00     -216.386      -19.462      -30.964      106.397       82.270       56.203    11320.282     6768.377     3158.795        3.470        1.062      217.259       45.876        0.045      335.173        5.629      856.432
12/12/2021  02:55:00     -378.091       87.685       -5.648      168.271      131.802       84.847    28315.067    17371.750     7199.023       10.177        2.644      388.125       71.321        0.034      335.078        5.470      856.459
12/12/2021  02:56:00     -342.532      -54.642      -10.640      206.728      145.700       96.569    42736.410    21228.405     9325.663        9.685        3.665      346.863       96.932        0.078      335.141        5.576      856.385
12/12/2021  02:57:00     -174.836     -131.010      -40.792      130.348      119.079       64.687    16990.718    14179.766     4184.421        4.237        1.768      218.475       34.999        0.026      335.182        5.645      856.482
12/12/2021  02:58:00     -139.932     -222.357      -46.140      216.768      154.578       97.226    46988.317    23894.504     9452.898        7.573        4.017      262.723       61.830        0.055      335.127        5.552      856.470
12/12/2021  02:59:00     -567.886     -117.831      -74.440      230.865      210.262      116.857    53298.558    44210.071    13655.470       22.652        5.558      579.981       65.399        0.013      335.140        5.575      856.444
12/12/2021  03:00:00     -231.847     -273.262      -72.805      261.112      224.447      101.530    68179.263    50376.519    10308.352       13.127        6.443      358.365       71.521        0.040      335.219        5.706      856.439
12/12/2021  03:01:00     -441.862     -161.558      -38.462      291.381      275.860      119.244    84902.617    76098.535    14219.110       19.899        8.761      470.471      109.892        0.055      335.195        5.665      856.408
12/12/2021  03:02:00     -312.327      -67.249      -27.608      210.850      180.186      109.784    44457.742    32466.877    12052.489        9.589        4.449      319.485       72.215        0.051      335.184        5.645      856.464
12/12/2021  03:03:00       -9.811     -217.172      -60.127      154.513      145.254       74.466    23874.140    21098.715     5545.152        5.069        2.526      217.394       71.716        0.109      335.262        5.774      856.389
12/12/2021  03:04:00     -142.192       -7.156      -14.191      134.388       96.065       53.694    18060.240     9228.478     2883.015        2.532        1.509      142.372       45.565        0.102      335.147        5.588      856.464
12/12/2021  03:05:00     -282.111      -82.917      -33.592      143.248      120.303       53.058    20520.092    14472.847     2815.197        6.269        1.890      294.044       52.185        0.031      335.154        5.597      856.548
12/12/2021  03:06:00     -221.984     -103.274      -22.720      149.049      176.525       92.824    22215.557    31160.972     8616.347        6.121        3.100      244.832       57.121        0.054      335.140        5.574      856.527
12/12/2021  03:07:00     -381.453      -61.320      -13.067      254.048      124.969      107.559    64540.530    15617.152    11568.966       12.057        4.586      386.350      102.914        0.071      335.102        5.512      856.578
12/12/2021  03:08:00     -207.703      -31.351       -0.537      150.027      111.991       85.729    22507.979    12541.981     7349.482        4.325        2.120      210.056       69.791        0.110      335.122        5.545      856.586
12/12/2021  03:09:00     -321.404     -155.635      -37.026      184.026      201.326       85.032    33865.522    40532.078     7230.434       10.525        4.081      357.103      103.115        0.083      335.121        5.543      856.600
12/12/2021  03:10:00     -377.094     -108.462      -54.355      165.851      164.613       76.267    27506.697    27097.471     5816.650       10.866        3.021      392.382       65.326        0.028      335.111        5.527      856.562
12/12/2021  03:11:00     -186.320      -55.273       -4.860      129.131      105.930       58.744    16674.768    11221.249     3450.833        3.456        1.567      194.346       48.586        0.062      335.097        5.504      856.578
12/12/2021  03:12:00     -206.770      -25.781      -11.010      165.425       83.266       57.796    27365.550     6933.154     3340.422        4.058        1.882      208.371       54.280        0.068      335.039        5.408      856.635
12/12/2021  03:13:00     -106.150      -87.120       -0.980      106.347      147.461       55.097    11309.672    21744.840     3035.694        2.747        1.805      137.324       31.395        0.052      335.040        5.411      856.641
12/12/2021  03:14:00     -405.157      -53.264      -20.195      266.076      185.854       96.641    70796.401    34541.785     9339.533       14.102        5.734      408.643      105.931        0.067      334.820        5.041      856.711
12/12/2021  03:15:00     -225.825       13.298      -20.272      274.462      159.562      107.748    75329.537    25459.958    11609.708        8.197        5.620      226.216      119.141        0.277      334.642        4.746      856.568
12/12/2021  03:16:00     -339.496       20.291      -27.029      155.098      115.119       87.392    24055.358    13252.445     7637.336        8.066        2.247      340.102       85.919        0.064      334.681        4.812      856.560
12/12/2021  03:17:00     -254.919      -12.207       -1.224      211.788      146.856       94.444    44853.983    21566.717     8919.637        7.022        3.767      255.211      103.791        0.165      334.763        4.948      856.547
12/12/2021  03:18:00     -455.707       20.192      -23.144      261.986      186.895       92.409    68636.507    34929.858     8539.399       16.034        5.605      456.154      102.649        0.051      334.572        4.629      856.526
12/12/2021  03:19:00     -307.050       43.071       15.083      193.826      143.386       95.153    37568.696    20559.584     9054.092        8.176        3.359      310.056       93.337        0.091      334.503        4.516      856.510
12/12/2021  03:20:00     -389.370     -147.694      -42.592      182.108      165.044       79.386    33163.173    27239.574     6302.159       12.096        3.335      416.440       60.229        0.021      334.606        4.684      856.573
12/12/2021  03:21:00     -195.440      -53.806      -22.183      110.364       94.185       54.535    12180.189     8870.771     2974.074        3.280        1.201      202.712       52.043        0.066      334.530        4.559      856.573
12/12/2021  03:22:00     -170.046      -92.398      -16.243       73.854      104.971       40.156     5454.354    11018.902     1612.537        2.790        0.904      193.528       26.509        0.019      334.559        4.607      856.551
12/12/2021  03:23:00     -192.454       54.333       -9.344      129.884       68.213       47.411    16869.945     4653.040     2247.768        3.192        1.189      199.977       42.379        0.045      334.508        4.523      856.498
12/12/2021  03:24:00     -150.380      -16.416      -16.564      112.797      156.514       54.721    12723.116    24496.757     2994.379        3.168        2.011      151.273       47.596        0.099      334.534        4.567      856.448
12/12/2021  03:25:00     -276.905      -80.349      -20.220      174.872      169.773       83.301    30580.160    28822.826     6939.096        7.493        3.317      288.327       70.155        0.059      334.481        4.479      856.433
12/12/2021  03:26:00     -225.208      -17.398      -14.581      132.184       96.044       63.556    17472.618     9224.414     4039.304        4.098        1.537      225.879       61.833        0.075      334.484        4.485      856.467
12/12/2021  03:27:00     -206.735       54.510        8.186      134.549       97.074       66.861    18103.437     9423.305     4470.361        3.888        1.600      213.800       69.908        0.107      334.467        4.456      856.502
12/12/2021  03:28:00     -322.435        9.344       -9.905      213.557      154.239       84.320    45606.475    23789.577     7109.900        9.031        3.825      322.571       88.422        0.075      334.611        4.695      856.566
12/12/2021  03:29:00     -145.658       27.307       -3.171      146.657      117.467       74.414    21508.287    13798.537     5537.432        3.140        2.042      148.195       70.872        0.229      334.601        4.678      856.577
12/12/2021  03:30:00     -292.623      -24.821      -17.170      116.947       79.678       62.760    13676.551     6348.555     3938.831        5.525        1.198      293.674       61.412        0.044      334.729        4.890      856.644
12/12/2021  03:31:00      -90.769      -50.275       -7.803      113.987       79.074       51.181    12993.120     6252.628     2619.478        1.634        1.093      103.763       59.563        0.330      334.815        5.035      856.641
12/12/2021  03:32:00      -39.707      -41.112      -21.903       53.390       42.305       31.235     2850.478     1789.681      975.648        0.468        0.281       57.156       21.170        0.137      334.811        5.030      856.634
12/12/2021  03:33:00      -82.634     -149.089      -41.724      114.961       84.002       53.846    13216.129     7056.347     2899.440        2.698        1.159      170.458       43.094        0.064      335.045        5.417      856.716
12/12/2021  03:34:00        0.702     -139.240      -11.660       81.982      158.599       75.748     6721.025    25153.684     5737.714        2.856        1.881      139.241       89.746        0.415      335.018        5.373      856.675
12/12/2021  03:35:00      -55.686      -38.295      -14.712       94.034       71.045       62.123     8842.412     5047.342     3859.279        1.126        0.887       67.583       43.817        0.420      335.008        5.358      856.655
12/12/2021  03:36:00     -202.375      -95.622      -15.700      128.912       93.512       65.405    16618.225     8744.418     4277.752        3.999        1.482      223.829       45.869        0.042      334.936        5.235      856.645
12/12/2021  03:37:00     -175.308        9.990      -29.240       70.245       79.488       45.127     4934.323     6318.316     2036.453        2.249        0.664      175.592       24.948        0.020      334.877        5.137      856.644
12/12/2021  03:38:00     -194.183      -59.719      -40.938       93.679      134.515       73.445     8775.835    18094.219     5394.188        3.760        1.613      203.159       61.077        0.090      334.868        5.122      856.610
12/12/2021  03:39:00     -175.424       -4.216      -21.444      112.566       80.497       57.067    12671.137     6479.782     3256.682        2.683        1.120      175.475       51.012        0.085      334.824        5.050      856.610
12/12/2021  03:40:00     -231.732        8.588       10.638      158.627      158.789       82.822    25162.600    25213.996     6859.492        5.555        2.862      231.891       80.106        0.119      334.733        4.898      856.580
12/12/2021  03:41:00     -352.311      -77.364      -37.713      160.039      150.424       73.532    25612.331    22627.308     5407.008        9.258        2.682      360.705       73.978        0.042      334.680        4.810      856.525
12/12/2021  03:42:00     -214.937      -23.130       -2.961      131.818      110.784       67.215    17375.911    12273.050     4517.905        4.045        1.708      216.178       60.531        0.078      334.641        4.746      856.511
12/12/2021  03:43:00     -369.183       62.339       -3.347      204.892      163.970      106.302    41980.594    26886.006    11300.044       11.017        4.008      374.409      103.195        0.076      334.693        4.831      856.518
12/12/2021  03:44:00     -293.973      -62.413      -34.387      156.821      127.249       85.167    24592.746    16192.307     7253.485        6.976        2.402      300.525       73.772        0.060      334.781        4.978      856.603
12/12/2021  03:45:00     -196.922      -51.883      -18.797      118.033       97.656       68.420    13931.858     9536.709     4681.231        3.498        1.407      203.642       61.379        0.091      334.922        5.211      856.651
12/12/2021  03:46:00     -167.711       15.584      -21.945       96.182      121.170       52.960     9251.060    14682.171     2804.769        2.779        1.337      168.434       29.615        0.031      334.804        5.016      856.657
12/12/2021  03:47:00     -136.756       -1.964       -9.509       74.769       64.706       44.847     5590.450     4186.931     2011.287        1.529        0.589      136.770       34.071        0.062      334.676        4.805      856.720
12/12/2021  03:48:00     -129.038      -16.455      -21.479       54.373       60.716       33.709     2956.420     3686.402     1136.310        1.258        0.389      130.083       30.511        0.055      334.769        4.960      856.715
12/12/2021  03:49:00     -152.902       15.068      -19.521       88.984       61.308       34.584     7918.103     3758.653     1196.086        1.843        0.644      153.642       30.355        0.039      334.786        4.989      856.698
12/12/2021  03:50:00      -53.471      -25.262       -5.904       49.019       44.697       30.892     2402.829     1997.846      954.290        0.444        0.268       59.138       28.141        0.226      334.784        4.985      856.684
12/12/2021  03:51:00      -38.573      -17.248       -3.054       62.725       27.385       30.933     3934.471      749.923      956.853        0.372        0.282       42.254       30.985        0.538      334.696        4.839      856.639
12/12/2021  03:52:00     -120.285       17.955       -0.490       87.443       55.781       41.540     7646.337     3111.495     1725.546        1.363        0.624      121.617       36.389        0.090      334.710        4.860      856.627
12/12/2021  03:53:00      -54.582      -60.490      -13.290       65.252       52.208       36.925     4257.889     2725.696     1363.429        0.758        0.417       81.476       31.555        0.150      334.753        4.934      856.681
12/12/2021  03:54:00      -28.953      -10.032      -12.261       57.040       48.645       27.085     3253.574     2366.361      733.586        0.372        0.318       30.642       13.658        0.199      334.700        4.846      856.658
12/12/2021  03:55:00      -21.357       -6.801       -3.699       23.116       21.525       14.756      534.357      463.322      217.737        0.087        0.061       22.414       10.943        0.238      334.727        4.890      856.652
12/12/2021  03:56:00      -62.309       65.586      -18.679       55.235       41.779       26.623     3050.866     1745.460      708.775        0.702        0.275       90.465       20.391        0.051      334.828        5.058      856.719
12/12/2021  03:57:00      -31.122      -47.780      -16.075      126.972       90.703       51.919    16121.807     8227.089     2695.565        1.527        1.352       57.022       37.155        0.425      334.872        5.131      856.742
12/12/2021  03:58:00     -145.827       10.204      -11.671      145.082       76.729       61.316    21048.923     5887.323     3759.692        2.610        1.535      146.183       34.867        0.057      334.779        4.975      856.678
12/12/2021  03:59:00     -191.452       22.430        0.081      113.736      100.139       66.142    12935.967    10027.834     4374.801        3.224        1.367      192.762       60.459        0.098      334.787        4.989      856.664
12/12/2021  04:00:00     -182.334      -15.927      -19.093      146.055      133.961       56.954    21332.087    17945.534     3243.734        3.818        2.126      183.028       41.418        0.051      334.847        5.089      856.731
12/12/2021  04:01:00     -246.053       23.223       -3.047      114.462       98.476       54.779    13101.511     9697.527     3000.706        4.344        1.290      247.147       48.370        0.038      334.676        4.803      856.734
12/12/2021  04:02:00     -224.911       13.047      -32.079      137.311      149.242       51.878    18854.329    22273.307     2691.331        4.779        2.191      225.289       23.807        0.011      334.548        4.590      856.592
12/12/2021  04:03:00     -178.346       51.121       -4.203      184.721       79.930       61.811    34122.012     6388.850     3820.606        3.938        2.217      185.528       75.565        0.166      334.404        4.353      856.517
12/12/2021  04:04:00     -133.109      -14.396       -5.143      146.843      119.181       82.985    21562.834    14204.073     6886.588        3.029        2.133      133.885       63.016        0.222      334.461        4.447      856.439
12/12/2021  04:05:00     -167.172      -26.392       -2.101      130.363       83.433       59.124    16994.455     6961.021     3495.639        2.804        1.373      169.242       58.094        0.118      334.452        4.434      856.402
12/12/2021  04:06:00     -210.745      -42.853      -24.497      105.987       72.132       51.140    11233.176     5202.979     2615.281        3.295        0.953      215.058       36.513        0.029      334.429        4.394      856.315
12/12/2021  04:07:00      -78.634      -21.695      -10.942       44.138       53.928       25.163     1948.190     2908.216      633.156        0.613        0.274       81.572       17.375        0.045      334.692        4.832      856.321
12/12/2021  04:08:00        9.000       41.199      -11.827       73.988       51.160       23.073     5474.262     2617.376      532.342        0.527        0.431       42.170       18.948        0.202      334.543        4.583      856.270
12/12/2021  04:09:00       55.160      -38.723      -21.575       42.458       64.196       35.677     1802.711     4121.092     1272.863        0.610        0.360       67.396       35.427        0.276      334.479        4.478      856.242
12/12/2021  04:10:00      -16.111      -62.840       -8.134       56.281       32.021       35.345     3167.591     1025.350     1249.244        0.486        0.272       64.873       17.931        0.076      334.638        4.742      856.235
12/12/2021  04:11:00      -32.800       -3.962       -5.659       56.801       52.257       42.676     3226.378     2730.838     1821.243        0.445        0.389       33.038       17.303        0.274      334.554        4.602      856.270
12/12/2021  04:12:00      -67.644      -84.048      -17.606       89.094       87.787       53.159     7937.813     7706.474     2825.845        1.521        0.924      107.888       33.951        0.099      334.804        5.018      856.299
12/12/2021  04:13:00     -150.516      -68.605      -31.736      171.547      107.349       57.363    29428.351    11523.755     3290.564        3.630        2.212      165.413       46.672        0.080      334.820        5.042      856.249
12/12/2021  04:14:00     -112.334       -2.690       -5.983      122.174       85.428       58.444    14926.462     7298.001     3415.677        1.915        1.282      112.366       46.473        0.171      334.585        4.651      856.301
12/12/2021  04:15:00     -166.480      -13.976       -8.952      158.790       76.830       60.229    25214.157     5902.896     3627.546        3.136        1.737      167.065       44.419        0.071      334.708        4.857      856.269
12/12/2021  04:16:00     -182.717      -21.907       -6.913      114.320       62.528       45.917    13069.096     3909.722     2108.325        2.650        0.954      184.026       43.325        0.055      334.805        5.018      856.180
12/12/2021  04:17:00      -85.958      -11.316       -1.874      122.189       61.733       47.136    14930.184     3810.909     2221.820        1.424        1.048       86.700       12.355        0.020      334.730        4.894      856.156
12/12/2021  04:18:00     -107.582      -19.512       -5.795       90.414       62.994       38.368     8174.731     3968.227     1472.115        1.280        0.681      109.337       41.739        0.146      334.718        4.873      856.185
12/12/2021  04:19:00     -193.399      -46.342      -16.461      163.535       83.275       78.369    26743.606     6934.683     6141.676        3.981        1.991      198.874       56.050        0.079      334.666        4.787      856.138
12/12/2021  04:20:00      -36.712      -63.878      -30.311      108.524      124.586       49.379    11777.532    15521.696     2438.309        1.804        1.487       73.676       52.527        0.508      334.753        4.931      856.090
12/12/2021  04:21:00     -256.318       41.275      -10.060      170.533       80.391       67.786    29081.510     6462.724     4594.948        5.381        2.007      259.620       80.053        0.095      334.643        4.747      856.119
12/12/2021  04:22:00     -100.281      -33.029        0.495       69.742       74.620       49.314     4863.916     5568.079     2431.849        1.200        0.643      105.581       34.291        0.105      334.687        4.822      856.199
12/12/2021  04:23:00     -218.900       38.460      -17.011       75.959       54.877       41.952     5769.730     3011.526     1759.977        3.011        0.527      222.253       41.689        0.035      334.655        4.768      856.286
12/12/2021  04:24:00     -158.729       29.271       -8.972      108.053       71.503       53.067    11675.424     5112.640     2816.130        2.286        0.980      161.406       51.174        0.101      334.518        4.540      856.316
12/12/2021  04:25:00     -180.465      132.835      -24.493       76.694       89.580       41.199     5882.006     8024.646     1697.357        3.321        0.780      224.082       34.498        0.024      334.442        4.416      856.259
12/12/2021  04:26:00     -106.144       38.862      -16.640       93.002       55.794       49.113     8649.344     3113.014     2412.134        1.361        0.709      113.035       42.184        0.139      334.367        4.292      856.263
12/12/2021  04:27:00       -5.910      -11.300       -0.993       75.226       48.134       39.697     5659.011     2316.854     1575.867        0.486        0.478       12.753       35.835        7.896      334.315        4.206      856.222
12/12/2021  04:28:00      -82.988        2.210       -0.115       75.300       45.223       33.576     5670.116     2045.077     1127.371        0.787        0.442       83.018       33.949        0.167      334.293        4.171      856.202
12/12/2021  04:29:00      -96.728       81.848        2.107       50.769       49.574       36.429     2577.448     2457.609     1327.039        1.121        0.318      126.710       31.610        0.062      334.284        4.154      856.096
12/12/2021  04:30:00      -82.306       17.812      -10.804       55.325       21.691       19.535     3060.875      470.505      381.602        0.556        0.196       84.212       26.042        0.096      334.231        4.067      855.998
12/12/2021  04:31:00     -122.995       -8.604      -13.040      127.492       80.034       41.341    16254.233     6405.390     1709.041        1.987        1.218      123.296       27.491        0.050      334.417        4.373      855.974
12/12/2021  04:32:00      -15.125      -25.075      -10.286       32.986       32.580       25.779     1088.109     1061.453      664.556        0.189        0.141       29.283        8.449        0.083      334.491        4.496      855.986
12/12/2021  04:33:00     -116.188      -17.166       -8.729       53.016       54.071       35.310     2810.710     2923.622     1246.807        1.042        0.349      117.449       23.902        0.041      334.421        4.382      856.053
12/12/2021  04:34:00      -79.730        0.225      -16.467       74.378       56.979       43.414     5532.033     3246.565     1884.808        0.864        0.533       79.730       38.590        0.234      334.461        4.447      856.068
12/12/2021  04:35:00     -100.064       18.857      -17.609       55.932       69.392       34.621     3128.337     4815.248     1198.594        0.991        0.457      101.826       25.196        0.061      334.423        4.384      856.070
12/12/2021  04:36:00     -185.739      104.425      -26.688       64.756       70.194       36.065     4193.323     4927.129     1300.689        2.827        0.521      213.081       34.983        0.027      334.355        4.270      856.075
12/12/2021  04:37:00     -123.052       -2.515       -5.083       99.158       58.379       49.325     9832.312     3408.120     2432.939        1.542        0.784      123.078       50.133        0.166      334.287        4.157      856.137
12/12/2021  04:38:00     -208.953       19.288      -15.483      100.866       67.576       47.471    10173.918     4566.551     2253.453        3.063        0.850      209.841       43.107        0.042      334.285        4.154      856.123
12/12/2021  04:39:00     -111.362       25.489       -8.794       72.549       46.193       37.046     5263.286     2133.828     1372.383        1.095        0.438      114.242       34.514        0.091      334.219        4.046      856.078
12/12/2021  04:40:00      -54.329      -18.537      -23.823       51.574       45.754       42.672     2659.843     2093.399     1820.867        0.522        0.329       57.404       19.835        0.119      334.312        4.200      855.980
12/12/2021  04:41:00      -29.804      -51.587      -36.893       42.696       38.951       30.653     1822.955     1517.207      939.623        0.459        0.214       59.578       26.312        0.195      334.319        4.214      855.815
12/12/2021  04:42:00     -148.195      -37.082      -37.554       98.590       44.443       46.135     9720.078     1975.145     2128.472        1.928        0.691      152.764       21.405        0.020      334.323        4.218      855.851
12/12/2021  04:43:00     -112.699       -8.646        2.168       98.421       53.326       48.994     9686.738     2843.669     2400.383        1.385        0.747      113.030       49.505        0.192      334.245        4.088      855.973
12/12/2021  04:44:00     -144.782      -22.379      -22.324      101.553       62.146       43.723    10313.072     3862.121     1911.701        1.902        0.804      146.501       41.510        0.080      334.322        4.217      855.951
12/12/2021  04:45:00     -190.708      -27.793      -19.359      104.976       82.222       64.048    11020.040     6760.499     4102.098        2.970        1.094      192.723       61.301        0.101      334.455        4.437      856.008
12/12/2021  04:46:00     -139.384      -13.935      -13.060      101.328       63.873       32.084    10267.398     4079.712     1029.408        1.758        0.769      140.079       36.627        0.068      334.447        4.423      856.032
12/12/2021  04:47:00     -144.596      -57.854      -10.208       73.669       58.772       39.107     5427.154     3454.151     1529.390        1.738        0.521      155.740       37.313        0.057      334.538        4.574      856.079
12/12/2021  04:48:00     -126.571      -64.059      -23.553       71.179       57.015       44.027     5066.513     3250.730     1938.348        1.547        0.513      141.858       44.770        0.100      334.549        4.591      856.022
12/12/2021  04:49:00     -169.372      -86.946      -20.854       84.797       77.602       49.783     7190.594     6022.026     2478.378        2.618        0.785      190.385       42.427        0.050      334.513        4.533      856.094
12/12/2021  04:50:00     -303.976      -75.618      -18.850      209.052      127.752       84.039    43702.630    16320.525     7062.556        8.277        3.354      313.240       90.292        0.083      334.465        4.452      856.175
12/12/2021  04:51:00     -348.301      -65.141      -43.980      135.940       81.570       64.590    18479.671     6653.729     4171.900        7.839        1.465      354.340       43.198        0.015      334.406        4.355      856.123
12/12/2021  04:52:00     -201.238       76.503        3.698      126.069       70.379       58.304    15893.286     4953.184     3399.379        3.530        1.212      215.289       48.610        0.051      334.328        4.227      855.956
12/12/2021  04:53:00     -333.035       10.257       -0.283      113.487       84.014       60.272    12879.335     7058.296     3632.748        6.729        1.179      333.193       51.985        0.024      334.465        4.455      855.917
12/12/2021  04:54:00     -297.592      -51.801      -30.318      104.581       83.971       52.265    10937.209     7051.053     2731.647        5.644        1.036      302.067       42.138        0.019      334.499        4.507      856.016
12/12/2021  04:55:00     -239.399       22.512       -1.784      157.752      107.453       79.608    24885.838    11546.054     6337.421        5.029        2.138      240.455       81.170        0.114      334.442        4.415      856.102
12/12/2021  04:56:00     -222.096       21.036       -9.158      133.379      123.719       55.489    17789.958    15306.480     3079.020        4.301        1.809      223.090       53.900        0.058      334.460        4.444      856.116
12/12/2021  04:57:00     -255.143       14.131      -13.425      109.288       76.018       49.732    11943.862     5778.710     2473.321        4.283        1.010      255.534       60.294        0.056      334.417        4.374      856.065
12/12/2021  04:58:00     -202.707      -29.649      -18.477      124.300       85.623       55.990    15450.441     7331.328     3134.908        3.411        1.296      204.864       53.848        0.069      334.397        4.342      855.963
12/12/2021  04:59:00     -266.310       10.360       -2.103      131.380      100.852       70.580    17260.621    10171.127     4981.569        5.172        1.621      266.511       70.873        0.071      334.340        4.246      856.017
12/12/2021  05:00:00     -314.984      -21.852      -32.719      242.369      116.447       92.281    58742.938    13559.886     8515.868        9.078        4.041      315.742      104.921        0.110      334.308        4.191      856.007
12/12/2021  05:01:00     -254.947       -0.974      -25.019      190.275      121.489       63.809    36204.603    14759.582     4071.545        6.032        2.752      254.949       71.229        0.078      334.462        4.447      855.859
12/12/2021  05:02:00     -193.281       38.546       -5.383      143.029       67.335       55.816    20457.363     4534.011     3115.436        3.348        1.405      197.087       59.786        0.092      334.503        4.516      855.773
12/12/2021  05:03:00     -157.876       21.938        3.152      174.906      107.955       83.277    30592.194    11654.309     6935.059        3.729        2.459      159.393       79.701        0.250      334.530        4.560      855.742
12/12/2021  05:04:00     -208.380       38.626       -3.632      171.104      124.869       76.226    29276.718    15592.269     5810.468        4.779        2.534      211.930       71.879        0.115      334.466        4.455      855.784
12/12/2021  05:05:00     -244.719       82.281        0.221      216.902      138.618       69.071    47046.580    19215.074     4770.806        6.883        3.552      258.182       70.369        0.074      334.439        4.410      855.783
12/12/2021  05:06:00     -203.664       28.130        0.426      178.508      118.243       80.998    31865.035    13981.447     6560.673        4.733        2.620      205.597       68.128        0.110      334.397        4.341      855.733
12/12/2021  05:07:00     -122.027       23.361       -0.591       96.659       66.876       44.158     9342.955     4472.356     1949.972        1.560        0.788      124.243       36.374        0.086      334.413        4.369      855.608
12/12/2021  05:08:00     -251.472       17.307        9.189      161.723       75.752       50.665    26154.370     5738.362     2566.892        4.903        1.723      252.067       53.663        0.045      334.418        4.376      855.667
12/12/2021  05:09:00     -252.178       47.600        0.676      207.069      108.286       83.742    42877.762    11725.816     7012.762        6.373        3.081      256.631       97.217        0.144      334.439        4.411      855.885
12/12/2021  05:10:00     -192.637        6.895      -16.874      148.615      106.229       71.770    22086.509    11284.580     5150.967        3.797        1.926      192.760       68.486        0.126      334.420        4.379      855.942
12/12/2021  05:11:00     -222.552       40.201        2.278      169.213       98.862       72.989    28632.997     9773.675     5327.417        4.743        2.187      226.154       75.641        0.112      334.424        4.385      855.918
12/12/2021  05:12:00     -113.143        9.546       -3.642       87.885       87.944       56.807     7723.859     7734.142     3226.982        1.579        0.934      113.545       47.188        0.173      334.457        4.441      855.905
12/12/2021  05:13:00      -95.033      -24.128       -5.770       69.313       90.576       45.243     4804.290     8203.934     2046.968        1.235        0.753       98.049       34.582        0.124      334.506        4.522      855.876
12/12/2021  05:14:00     -162.293      -19.891       -6.683      144.080       90.500       62.493    20758.907     8190.204     3905.396        2.981        1.643      163.508       61.216        0.140      334.484        4.483      855.973
12/12/2021  05:15:00     -189.525       -7.601        5.660      155.687       92.118       68.454    24238.499     8485.679     4685.923        3.670        1.871      189.677       60.676        0.102      334.435        4.404      856.059
12/12/2021  05:16:00     -278.689      -23.574      -17.274      158.296      115.539       79.013    25057.721    13349.332     6243.072        6.158        2.233      279.684       70.414        0.063      334.481        4.480      856.046
12/12/2021  05:17:00     -287.524      -36.259      -18.595      218.946      123.269       92.344    47937.515    15195.227     8527.386        7.798        3.583      289.801       86.478        0.089      334.395        4.337      856.086
12/12/2021  05:18:00     -303.645       23.444      -30.062      139.664       92.092       61.263    19506.170     8480.914     3753.106        6.269        1.587      304.548       58.158        0.036      334.401        4.347      856.135
12/12/2021  05:19:00     -192.941       65.793      -18.299      132.502       87.549       61.524    17556.814     7664.765     3785.190        3.544        1.450      203.850       57.193        0.079      334.353        4.268      856.192
12/12/2021  05:20:00     -340.007       86.914       16.985      189.254      109.430       84.609    35816.914    11974.994     7158.618        8.919        2.748      350.940       87.564        0.062      334.343        4.249      856.151
12/12/2021  05:21:00     -351.093       36.257        1.169      187.273      110.972       73.720    35071.190    12314.828     5434.574        8.869        2.641      352.960       81.193        0.053      334.504        4.518      856.212
12/12/2021  05:22:00     -406.900      128.755       -4.647      193.835      137.577       82.359    37572.065    18927.444     6783.041       12.271        3.164      426.785       78.726        0.034      334.533        4.563      856.214
12/12/2021  05:23:00     -242.093       41.217      -26.585      149.259      103.632       76.767    22278.249    10739.684     5893.136        4.996        1.946      245.576       59.096        0.058      334.471        4.462      856.129
12/12/2021  05:24:00     -120.770       21.830       16.283      152.326       93.977       74.261    23203.268     8831.770     5514.692        2.643        1.877      122.727       72.208        0.346      334.416        4.374      856.165
12/12/2021  05:25:00     -332.715       21.189      -31.640      144.864       95.509       64.232    20985.520     9121.953     4125.691        7.319        1.712      333.389       64.438        0.037      334.425        4.386      856.260
12/12/2021  05:26:00     -133.492      -14.408      -17.346      112.383      110.673       56.004    12629.845    12248.444     3136.416        2.317        1.401      134.267       45.744        0.116      334.349        4.260      856.230
12/12/2021  05:27:00     -161.774       74.293        0.777      122.212      107.989       62.980    14935.825    11661.660     3966.467        3.112        1.528      178.017       57.030        0.103      334.279        4.144      856.053
12/12/2021  05:28:00     -168.478       -8.313      -21.960      138.999       51.255       48.445    19320.607     2627.028     2346.950        2.661        1.215      168.682       51.285        0.092      334.307        4.191      855.960
12/12/2021  05:29:00     -185.748       -7.794       -9.175      176.262       89.112       74.700    31068.466     7940.993     5580.063        3.961        2.229      185.912       76.891        0.171      334.238        4.074      856.013
12/12/2021  05:30:00     -225.369        0.738      -13.374      172.100      109.627       86.196    29618.378    12018.047     7429.793        5.001        2.453      225.370       85.298        0.143      334.289        4.161      855.986
12/12/2021  05:31:00     -177.811       51.315      -20.458      159.407      146.751       74.744    25410.548    21535.757     5586.701        4.359        2.627      185.068       68.499        0.137      334.265        4.121      855.972
12/12/2021  05:32:00     -387.741       82.212      -26.078      193.483       97.202       76.046    37435.833     9448.264     5783.030       10.521        2.633      396.360       41.446        0.011      334.395        4.335      856.012
12/12/2021  05:33:00     -236.035       25.145       -9.576      119.980       94.219       52.659    14395.185     8877.295     2772.971        4.124        1.302      237.370       54.843        0.053      334.379        4.309      856.070
12/12/2021  05:34:00     -159.985       10.157      -12.681      113.654       65.175       53.338    12917.245     4247.816     2844.932        2.293        1.000      160.307       54.785        0.117      334.370        4.296      856.115
12/12/2021  05:35:00     -209.098       45.546      -17.004      166.102       90.467       63.308    27590.028     8184.300     4007.919        4.293        1.989      214.001       60.137        0.079      334.292        4.167      856.136
12/12/2021  05:36:00     -335.378       68.221      -20.267      218.684      101.685       78.492    47822.609    10339.745     6161.042        9.092        3.216      342.247       92.454        0.073      334.357        4.274      856.149
12/12/2021  05:37:00     -447.795       53.923      -28.491      139.343      129.201       72.894    19416.427    16692.981     5313.470       12.282        2.071      451.030       58.029        0.017      334.315        4.201      856.223
12/12/2021  05:38:00     -406.817      -55.552      -27.863      134.937      179.080       77.694    18207.953    32069.497     6036.311       11.283        2.816      410.593       67.410        0.027      334.408        4.359      856.209
12/12/2021  05:39:00     -215.489      -59.821      -21.349      100.175      152.193       68.903    10035.109    23162.804     4747.588        4.420        1.897      223.638       52.366        0.055      334.444        4.419      856.086
12/12/2021  05:40:00      -92.626      -30.846      -10.893       51.112       58.224       33.790     2612.433     3390.031     1141.774        0.840        0.357       97.628       28.766        0.087      334.508        4.527      856.054
12/12/2021  05:41:00     -219.092        9.657      -12.594      203.452       98.477       79.722    41392.610     9697.675     6355.640        5.284        2.872      219.305       83.817        0.146      334.374        4.304      856.094
12/12/2021  05:42:00     -463.255       46.984       -9.082      314.688      112.536       95.528    99028.809    12664.332     9125.568       16.883        6.041      465.631      100.571        0.047      334.251        4.096      856.131
12/12/2021  05:43:00     -180.247       29.589        7.444      169.792      111.335       89.639    28829.169    12395.432     8035.221        4.133        2.463      182.659       87.165        0.228      334.291        4.164      856.077
12/12/2021  05:44:00     -279.403       -8.137      -16.492      196.567       98.620       81.856    38638.638     9725.978     6700.341        6.672        2.753      279.522       83.808        0.090      334.280        4.146      856.080
12/12/2021  05:45:00     -267.775      105.803       -2.001      213.207      151.109       82.020    45457.290    22833.920     6727.261        7.895        3.751      287.920       97.418        0.114      334.203        4.017      856.075
12/12/2021  05:46:00     -426.901       13.230      -15.605      181.679      131.104       82.649    33007.315    17188.299     6830.904       11.983        2.851      427.106       61.025        0.020      334.243        4.084      855.884
12/12/2021  05:47:00     -456.851       42.789      -30.483      175.063      144.442       84.098    30647.042    20863.507     7072.558       13.502        2.929      458.851       67.333        0.022      334.210        4.028      855.922
12/12/2021  05:48:00     -441.258       -3.064      -28.135      197.225      178.978       97.183    38897.636    32033.220     9444.538       13.793        4.019      441.269      100.712        0.052      334.113        3.868      855.993
12/12/2021  05:49:00     -390.463      -51.196      -31.271      150.066      176.068       68.734    22519.810    31000.054     4724.334       10.714        2.912      393.805       48.257        0.015      334.182        3.982      855.884
12/12/2021  05:50:00     -232.225      -13.475      -12.504      100.862       75.787       60.245    10173.180     5743.703     3629.465        3.690        0.977      232.615       48.587        0.044      334.234        4.067      855.896
12/12/2021  05:51:00     -251.863       20.952      -23.746      131.952      117.604       53.804    17411.394    13830.773     2894.868        4.928        1.707      252.733       36.137        0.020      334.224        4.051      855.945
12/12/2021  05:52:00     -310.441       32.634      -11.785      223.283      134.397       94.599    49855.253    18062.667     8948.923        8.721        3.843      312.152       86.694        0.077      334.189        3.994      855.935
12/12/2021  05:53:00     -208.210      101.251       -3.166      124.071       81.181       65.368    15393.690     6590.329     4272.968        3.993        1.313      231.524       55.680        0.058      334.130        3.895      855.879
12/12/2021  05:54:00     -239.989        9.882        1.671      136.456       78.368       64.640    18620.308     6141.480     4178.342        4.331        1.447      240.192       69.024        0.083      334.125        3.886      855.713
12/12/2021  05:55:00     -300.321       31.361      -10.949      152.926       87.029       60.790    23386.361     7574.081     3695.369        6.297        1.733      301.954       62.158        0.042      334.158        3.941      855.840
12/12/2021  05:56:00     -406.286      -11.499      -28.039      161.352      112.290       80.923    26034.505    12609.049     6548.488       10.558        2.260      406.449       74.290        0.033      334.172        3.964      855.914
12/12/2021  05:57:00     -329.922       30.083      -26.346      178.848      120.599       85.276    31986.719    14544.208     7272.021        8.212        2.690      331.291       73.810        0.050      334.134        3.901      855.887
12/12/2021  05:58:00     -326.645       28.666      -24.192      185.019      136.553       72.715    34231.997    18646.790     5287.407        8.312        2.908      327.900       76.547        0.054      334.154        3.935      855.868
12/12/2021  05:59:00     -199.690        7.642       -9.499      166.317      112.504       71.922    27661.206    12657.124     5172.734        4.275        2.275      199.836       83.102        0.173      334.170        3.963      855.737
12/12/2021  06:00:00     -217.915       52.226       -0.360      153.508      107.516       70.624    23564.819    11559.659     4987.722        4.516        2.006      224.086       73.135        0.107      334.171        3.963      855.701
12/12/2021  06:01:00     -275.500      -40.343       -0.815      218.463      107.362       84.866    47726.112    11526.611     7202.302        7.198        3.323      278.438       96.458        0.120      334.160        3.944      855.947
12/12/2021  06:02:00     -206.418        9.641       -8.534      218.797      124.465      102.766    47872.296    15491.584    10560.800        5.834        3.696      206.643       97.522        0.223      334.118        3.877      856.030
12/12/2021  06:03:00     -324.932       61.138      -27.418      248.351      156.072       91.589    61678.305    24358.385     8388.596       10.223        4.721      330.634      110.851        0.112      334.124        3.886      855.976
12/12/2021  06:04:00     -305.540       62.763      -24.481      213.887      113.989       81.112    45747.701    12993.430     6579.086        8.159        3.266      311.920       87.866        0.079      334.344        4.251      855.881
12/12/2021  06:05:00      -47.981       77.315      -26.056       81.159       64.506       40.006     6586.770     4160.988     1600.502        1.065        0.617       90.993       24.503        0.073      334.539        4.575      855.756
12/12/2021  06:06:00      -89.573        2.523      -15.328       82.284       69.707       48.840     6770.635     4859.031     2385.320        1.114        0.701       89.609       43.162        0.232      334.515        4.537      855.874
12/12/2021  06:07:00     -408.424       -4.038        3.007      189.120      109.732       82.247    35766.425    12041.178     6764.505       11.069        2.729      408.444       85.106        0.043      334.427        4.389      856.112
12/12/2021  06:08:00     -419.550      -32.526      -25.672      183.919      115.621       76.247    33826.322    13368.122     5813.550       11.536        2.650      420.809       72.067        0.029      334.372        4.299      856.228
12/12/2021  06:09:00     -350.033      -39.745      -34.942      163.580      107.059       74.507    26758.326    11461.562     5551.291        8.454        2.189      352.283       64.696        0.034      334.292        4.164      856.237
12/12/2021  06:10:00     -197.524       55.935      -14.782      125.921       94.115       63.806    15856.069     8857.720     4071.144        3.557        1.439      205.291       62.603        0.093      334.201        4.013      856.158
12/12/2021  06:11:00     -208.278       35.423      -17.454      163.690       89.832       60.924    26794.468     8069.872     3711.713        4.175        1.929      211.269       57.719        0.075      334.203        4.018      855.996
12/12/2021  06:12:00     -369.923       83.060       -8.937      221.070      144.685       88.501    48871.770    20933.834     7832.503       11.072        3.882      379.133       79.771        0.044      334.217        4.041      856.007
12/12/2021  06:13:00     -352.676       32.713      -15.811      210.669      182.490       98.145    44381.494    33302.694     9632.470       10.649        4.366      354.190       98.220        0.077      334.234        4.069      856.194
12/12/2021  06:14:00     -361.216       13.587      -17.667      233.252      138.703       80.782    54406.269    19238.525     6525.753       10.556        4.009      361.472       89.835        0.062      334.211        4.031      856.191
12/12/2021  06:15:00     -238.056       39.108      -27.359      141.224      123.053       64.390    19944.229    15142.076     4146.121        4.908        1.962      241.247       61.144        0.064      334.220        4.045      856.070
12/12/2021  06:16:00     -263.061       -2.299      -27.406      157.094      109.281       74.409    24678.511    11942.430     5536.745        5.605        2.108      263.071       69.081        0.069      334.179        3.977      856.055
12/12/2021  06:17:00     -273.910        1.012      -22.048      216.078       93.005       92.228    46689.635     8649.997     8506.078        6.967        3.192      273.912       97.903        0.128      334.186        3.991      856.217
12/12/2021  06:18:00     -246.736       -1.974       -4.281      164.186       94.236       68.235    26956.967     8880.482     4656.000        5.069        2.025      246.744       78.129        0.100      334.268        4.124      856.278
12/12/2021  06:19:00     -204.847      -46.824      -12.879       93.176       79.649       53.363     8681.803     6343.923     2847.613        3.109        0.894      210.130       36.551        0.030      334.315        4.203      856.244
12/12/2021  06:20:00     -124.800       -8.176      -21.760      141.971       76.820       53.865    20155.791     5901.356     2901.399        2.253        1.448      125.068       47.145        0.142      334.221        4.049      856.103
12/12/2021  06:21:00     -127.216      -13.361      -24.776      129.795       82.375       68.779    16846.758     6785.561     4730.518        2.266        1.418      127.916       55.376        0.187      334.194        4.003      856.020
12/12/2021  06:22:00     -173.521       31.284        2.190      202.700       90.344       81.832    41087.325     8162.065     6696.458        4.351        2.797      176.318       93.951        0.284      334.201        4.013      856.180
12/12/2021  06:23:00     -322.120      -18.933       -8.557      181.140      127.010       87.733    32811.870    16131.493     7697.013        8.041        2.832      322.676       84.871        0.069      334.264        4.117      856.270
12/12/2021  06:24:00     -166.850      -31.798       -5.351      104.543       94.176       60.294    10929.288     8869.158     3635.344        2.615        1.172      169.853       53.524        0.099      334.316        4.206      856.160
12/12/2021  06:25:00     -287.634      -11.674      -19.914      210.818      103.717       73.899    44444.219    10757.119     5461.102        7.195        3.033      287.871       65.403        0.052      334.279        4.144      856.093
12/12/2021  06:26:00     -332.288       -3.190      -16.119      188.216      122.231       76.969    35425.081    14940.535     5924.201        8.348        2.814      332.303       80.833        0.059      334.321        4.213      856.146
12/12/2021  06:27:00     -214.781      -14.972      -23.597      124.078       86.437       83.278    15395.301     7471.321     6935.225        3.835        1.490      215.302       63.920        0.088      334.291        4.163      856.136
12/12/2021  06:28:00     -228.452      -20.704      -17.393      124.766       97.438       65.455    15566.595     9494.207     4284.401        4.113        1.467      229.388       55.134        0.058      334.280        4.145      856.061
12/12/2021  06:29:00     -160.836      -14.528       -9.057      116.903       75.542       57.867    13666.235     5706.605     3348.578        2.444        1.136      161.491       56.237        0.121      334.252        4.100      855.979
12/12/2021  06:30:00     -128.736      -15.946      -18.196      126.613       93.292       64.277    16030.775     8703.482     4131.523        2.301        1.443      129.719       52.236        0.162      334.230        4.061      856.053
12/12/2021  06:31:00     -302.814      -18.469      -10.061      114.811       96.032       65.955    13181.542     9222.111     4350.046        5.944        1.338      303.376       53.231        0.031      334.292        4.166      856.123
12/12/2021  06:32:00     -309.274      -41.665      -15.901      177.345      100.489      100.307    31451.117    10098.105    10061.442        7.462        2.581      312.068      103.360        0.110      334.219        4.042      856.162
12/12/2021  06:33:00     -382.224      -38.435      -17.442      186.829      111.377       82.987    34905.153    12404.750     6886.776       10.103        2.710      384.151       87.541        0.052      334.232        4.067      856.213
12/12/2021  06:34:00     -183.048       -1.217      -18.417      104.244      100.274       49.593    10866.834    10054.783     2459.502        2.861        1.169      183.052       40.893        0.050      334.357        4.275      856.089
12/12/2021  06:35:00     -233.383      -15.463      -42.292      111.240       66.610       48.062    12374.342     4436.901     2309.965        3.780        0.956      233.894       30.990        0.018      334.586        4.653      855.847
12/12/2021  06:36:00     -177.129       -2.127       -3.612      164.797      101.373       71.111    27158.047    10276.501     5056.800        3.693        2.125      177.141       59.407        0.112      334.588        4.655      856.027
12/12/2021  06:37:00     -343.766      -10.486      -17.819      116.106      108.025       63.185    13480.657    11669.304     3992.301        7.387        1.457      343.926       54.538        0.025      334.497        4.505      856.209
12/12/2021  06:38:00     -157.807       33.799       -5.776      109.227      104.350       56.614    11930.582    10888.829     3205.092        2.605        1.301      161.386       55.610        0.119      334.486        4.487      856.074
12/12/2021  06:39:00     -182.777      -70.197      -15.982      139.205      113.471       60.228    19378.120    12875.733     3627.377        3.723        1.794      195.794       76.570        0.153      334.463        4.451      855.936
12/12/2021  06:40:00     -385.504      -17.577      -26.971      117.712       80.428       59.169    13856.179     6468.705     3500.946        8.673        1.191      385.905       43.413        0.013      334.493        4.498      856.012
12/12/2021  06:41:00     -202.217       70.155      -13.869       90.148       71.718       45.769     8126.653     5143.441     2094.832        3.068        0.768      214.041       37.782        0.031      334.443        4.416      855.987
12/12/2021  06:42:00     -166.418       57.074      -16.355      155.511       96.606       51.242    24183.659     9332.688     2625.697        3.367        1.807      175.933       32.900        0.035      334.433        4.402      855.958
12/12/2021  06:43:00     -156.208       16.936       14.094      160.372       93.092       73.357    25719.027     8666.100     5381.253        3.232        1.988      157.124       65.623        0.174      334.378        4.309      856.087
12/12/2021  06:44:00     -210.224      -71.291      -21.597      164.568      136.962       73.027    27082.645    18758.677     5332.951        5.045        2.559      221.983       63.097        0.081      334.390        4.330      856.162
12/12/2021  06:45:00     -349.709      -18.111      -16.103      192.333      174.254       82.374    36991.804    30364.415     6785.474        9.850        3.707      350.178       80.921        0.053      334.406        4.356      856.168
12/12/2021  06:46:00     -360.536      -55.626      -35.846      163.857      128.579       87.790    26849.061    16532.452     7707.114        9.272        2.554      364.802       69.486        0.036      334.459        4.441      856.198
12/12/2021  06:47:00     -362.907       44.341      -24.721      283.815      115.235       89.582    80550.943    13279.025     8024.990       11.805        5.093      365.606       99.129        0.074      334.411        4.365      856.129
12/12/2021  06:48:00     -259.368       78.536       -0.296      142.272      109.265       67.824    20241.401    11938.908     4600.098        5.510        1.839      270.998       66.540        0.060      334.384        4.320      856.009
12/12/2021  06:49:00     -347.640       40.794      -20.347      181.575      104.868       74.158    32969.365    10997.266     5499.465        8.619        2.473      350.025       65.930        0.035      334.427        4.389      856.002
12/12/2021  06:50:00     -393.470      -46.541      -33.346      166.059      152.462       79.204    27575.712    23244.701     6273.247       10.758        2.855      396.213       71.313        0.032      334.556        4.602      856.076
12/12/2021  06:51:00     -334.743     -140.761      -34.564      159.716      139.848       73.820    25509.245    19557.522     5449.409        9.178        2.526      363.134       72.586        0.040      334.531        4.560      856.204
12/12/2021  06:52:00     -265.094        2.434       -7.520      155.635       97.217       69.288    24222.114     9451.124     4800.865        5.440        1.924      265.105       56.701        0.046      334.441        4.413      856.239
12/12/2021  06:53:00     -214.920     -177.583      -21.135       73.245       87.790       47.813     5364.817     7707.014     2286.068        4.676        0.768      278.795       33.519        0.014      334.482        4.481      856.094
12/12/2021  06:54:00     -216.521      -12.999      -15.568       98.275       88.397       54.561     9657.991     7813.977     2976.863        3.387        1.022      216.911       46.449        0.046      334.462        4.448      855.988
12/12/2021  06:55:00     -244.811      -31.412      -26.674       87.126       63.806       44.780     7590.914     4071.230     2005.246        3.765        0.683      246.818       40.565        0.027      334.468        4.457      855.982
12/12/2021  06:56:00     -269.228        2.553       -6.088      152.855       95.509       81.681    23364.702     9121.962     6671.733        5.584        1.958      269.241       79.711        0.088      334.434        4.402      856.125
12/12/2021  06:57:00     -296.224      -18.107       -6.972      218.222      128.975       99.377    47620.965    16634.471     9875.813        8.111        3.707      296.777      104.769        0.125      334.515        4.535      856.235
12/12/2021  06:58:00     -219.885       50.142        8.159      238.395      124.436       90.964    56832.092    15484.274     8274.514        6.575        4.030      225.530      104.796        0.216      334.615        4.702      856.192
12/12/2021  06:59:00     -227.670      -69.112      -33.464       89.038      102.895       52.132     7927.803    10587.375     2717.723        3.948        1.062      237.929       29.836        0.016      334.665        4.784      855.959
12/12/2021  07:00:00     -160.549       23.068      -21.413      139.325       73.681       41.923    19411.555     5428.946     1757.558        2.668        1.330      162.197       32.981        0.041      334.565        4.619      855.966
12/12/2021  07:01:00     -164.697        4.140        5.983      165.875      102.833       79.557    27514.617    10574.705     6329.302        3.579        2.221      164.749       81.062        0.242      334.510        4.528      856.238
12/12/2021  07:02:00     -470.095       -5.727      -38.331      275.589      150.208      101.318    75949.195    22562.412    10265.276       16.561        5.439      470.130       96.891        0.042      334.538        4.572      856.232
12/12/2021  07:03:00     -386.492       35.973      -10.566      186.776      109.022       67.430    34885.126    11885.763     4546.774       10.104        2.566      388.162       71.588        0.034      334.548        4.588      856.069
12/12/2021  07:04:00     -317.288       77.770        2.363      172.160      107.725       76.056    29639.088    11604.575     5784.503        7.687        2.351      326.680       81.099        0.062      334.559        4.607      855.923
12/12/2021  07:05:00     -317.890       66.586       -3.888      110.555       93.640       60.534    12222.298     8768.474     3664.319        6.507        1.233      324.789       55.247        0.029      334.501        4.512      855.923
12/12/2021  07:06:00     -259.803        5.662      -10.167      119.413      106.699       61.187    14259.530    11384.777     3743.807        4.851        1.469      259.864       54.853        0.045      334.523        4.547      856.094
12/12/2021  07:07:00     -456.235      -86.944      -56.571      203.606      136.868       85.197    41455.350    18732.923     7258.465       14.317        3.372      464.446       90.726        0.038      334.550        4.592      856.114
12/12/2021  07:08:00     -271.041       47.693       -9.047      156.888      107.411       80.662    24613.788    11537.168     6506.411        5.923        2.133      275.205       79.980        0.084      334.444        4.419      856.084
12/12/2021  07:09:00     -270.296       -4.770       -9.647      170.729      112.004       81.859    29148.286    12544.988     6700.901        6.078        2.420      270.339       83.810        0.096      334.431        4.395      856.060
12/12/2021  07:10:00     -286.514       -9.491      -19.109      180.619      104.976       78.197    32623.130    11019.890     6114.800        6.614        2.488      286.671       72.036        0.063      334.523        4.549      855.998
12/12/2021  07:11:00     -195.458      -41.863      -13.155       99.296       94.335       60.158     9859.634     8899.028     3619.004        3.125        1.119      199.891       54.798        0.075      334.560        4.610      855.829
12/12/2021  07:12:00     -270.842       16.990        2.548      187.459      126.625       84.448    35141.026    16034.017     7131.393        6.597        2.915      271.375       79.685        0.086      334.641        4.745      855.929
12/12/2021  07:13:00     -215.975       68.224       11.649      197.988      143.434       85.214    39199.114    20573.358     7261.501        5.922        3.352      226.494       69.426        0.094      334.525        4.552      856.053
12/12/2021  07:14:00     -173.467       46.793       -2.714      141.343      118.779       82.101    19977.776    14108.548     6740.510        3.655        2.041      179.667       59.497        0.110      334.500        4.510      856.124
12/12/2021  07:15:00     -309.118       29.090      -25.769      125.236       77.576       56.341    15683.991     6018.012     3174.341        6.097        1.244      310.484       61.358        0.039      334.600        4.675      856.015
12/12/2021  07:16:00     -226.689       19.667        0.424      118.332      109.071       70.751    14002.431    11896.524     5005.759        4.133        1.545      227.540       54.810        0.058      334.652        4.762      855.852
12/12/2021  07:17:00     -246.148      -14.342      -24.896      171.526      133.491       87.231    29421.241    17819.802     7609.220        5.812        2.743      246.565       61.663        0.063      334.605        4.683      856.106
12/12/2021  07:18:00     -376.660      -48.119      -13.688      210.867      111.170       89.306    44465.072    12358.777     7975.580       10.458        3.240      379.721       95.046        0.063      334.579        4.641      856.205
12/12/2021  07:19:00     -299.214      -43.361      -23.609      130.390      124.392       70.964    17001.450    15473.407     5035.938        6.473        1.876      302.340       72.281        0.057      334.544        4.583      856.138
12/12/2021  07:20:00     -358.727      -28.739      -25.294      122.338      115.424       71.119    14966.643    13322.772     5057.857        8.174        1.667      359.876       62.296        0.030      334.726        4.886      856.025
12/12/2021  07:21:00     -234.018     -125.418      -28.452       88.302      115.643       55.242     7797.254    13373.392     3051.705        4.776        1.211      265.507       51.649        0.038      334.743        4.913      856.082
12/12/2021  07:22:00     -317.051      -27.199       -9.004      195.340       89.363       75.054    38157.772     7985.718     5633.149        7.655        2.589      318.216       84.693        0.071      334.668        4.789      856.155
12/12/2021  07:23:00     -326.107       -0.554       -7.399      135.323       97.794       67.971    18312.401     9563.722     4620.107        6.944        1.625      326.108       60.047        0.034      334.593        4.664      856.151
12/12/2021  07:24:00     -309.598       17.623       -9.686      124.564       76.543       70.668    15516.104     5858.816     4993.903        6.131        1.318      310.099       57.844        0.035      334.613        4.697      856.104
12/12/2021  07:25:00     -199.529       -8.552       10.877      177.082       90.144       77.050    31358.019     8125.855     5936.775        4.270        2.271      199.712       74.754        0.140      334.554        4.598      856.090
12/12/2021  07:26:00     -215.941       -1.752      -10.978      145.580       93.494       50.048    21193.645     8741.063     2504.756        3.959        1.622      215.948       57.084        0.070      334.621        4.710      856.011
12/12/2021  07:27:00     -203.799       11.764       -1.244      167.708      110.122       75.794    28126.117    12126.803     5744.772        4.383        2.300      204.139       63.422        0.097      334.578        4.638      855.897
12/12/2021  07:28:00     -434.418      -37.235      -39.504      140.307      120.497       63.088    19686.036    14519.434     3980.111       11.492        1.909      436.011       66.224        0.023      334.711        4.860      856.061
12/12/2021  07:29:00     -346.562        8.503      -10.539      178.271      126.975       78.760    31780.467    16122.586     6203.149        8.719        2.705      346.666       62.465        0.032      334.695        4.833      856.202
12/12/2021  07:30:00     -272.128       42.638        6.739      178.888      154.389       88.221    32000.912    23835.955     7782.917        6.976        3.181      275.448       84.035        0.093      334.692        4.829      856.245
12/12/2021  07:31:00     -230.309       44.262        0.813      190.913      125.893       77.111    36447.642    15849.055     5946.051        5.661        2.912      234.524       81.602        0.121      334.714        4.866      856.225
12/12/2021  07:32:00     -243.272      -44.754      -18.916       93.074      114.262       52.161     8662.835    13055.823     2720.753        4.299        1.222      247.354       35.784        0.021      334.835        5.067      856.120
12/12/2021  07:33:00     -161.765      -81.239      -22.951       80.633       83.677       46.627     6501.609     7001.863     2174.076        2.448        0.784      181.018       37.224        0.042      334.866        5.119      856.030
12/12/2021  07:34:00     -289.568      -34.040      -12.185      203.178      110.173       67.844    41281.447    12138.120     4602.815        7.158        2.901      291.562       83.741        0.082      334.846        5.085      856.135
12/12/2021  07:35:00     -384.750       37.198      -24.797      255.549      186.909       99.849    65305.249    34934.897     9969.843       13.010        5.510      386.544       84.727        0.048      334.743        4.914      856.163
12/12/2021  07:36:00     -199.172      -62.008      -15.052      124.960      128.826       83.369    15615.001    16596.111     6950.375        4.144        1.958      208.601       81.213        0.152      334.758        4.940      856.137
12/12/2021  07:37:00     -201.040        2.001      -23.707       65.453       63.857       36.760     4284.035     4077.692     1351.327        2.535        0.486      201.050       27.931        0.019      334.781        4.979      855.982
12/12/2021  07:38:00     -159.172      -13.403       -3.709       91.885       65.303       46.529     8442.791     4264.419     2164.939        2.020        0.744      159.735       38.609        0.058      334.806        5.022      856.086
12/12/2021  07:39:00     -341.994      -38.847      -23.049      126.015       91.863       64.556    15879.718     8438.728     4167.446        7.374        1.424      344.193       58.618        0.029      334.809        5.024      856.286
12/12/2021  07:40:00     -381.221      -56.708      -39.801      197.914      121.226       97.134    39169.943    14695.632     9435.027       10.670        3.165      385.415       88.726        0.053      334.842        5.078      856.280
12/12/2021  07:41:00      -80.092      -57.656      -16.012      125.852       67.808       40.605    15838.755     4597.885     1648.731        1.604        1.104       98.686       27.161        0.076      334.887        5.155      856.123
12/12/2021  07:42:00      -54.446      -24.861      -24.782       74.470       51.030       38.422     5545.777     2604.081     1476.241        0.691        0.481       59.853       23.377        0.153      334.936        5.238      855.878
12/12/2021  07:43:00     -171.833      -10.094       -5.542      144.516       80.889       49.640    20884.844     6543.048     2464.106        2.977        1.495      172.129       64.890        0.142      334.904        5.184      855.976
12/12/2021  07:44:00     -337.937      -62.854      -20.701      165.519      120.495       82.586    27396.673    14519.000     6820.404        8.365        2.437      343.733       77.899        0.051      334.943        5.245      856.185
12/12/2021  07:45:00     -468.360      -43.852      -25.020      203.999      120.106       93.066    41615.506    14425.446     8661.249       14.329        3.235      470.408       90.688        0.037      334.818        5.037      856.180
12/12/2021  07:46:00     -365.109       76.376      -26.845      188.475      107.211       61.664    35522.708    11494.195     3802.466        9.533        2.541      373.012       47.384        0.016      334.776        4.968      856.106
12/12/2021  07:47:00     -273.781      -34.138      -12.563      109.495       95.893       66.335    11989.053     9195.454     4400.308        5.093        1.279      275.901       42.329        0.024      334.781        4.978      855.930
12/12/2021  07:48:00     -206.327      -29.918      -11.858      144.484       88.274       49.340    20875.701     7792.269     2434.462        3.735        1.555      208.485       51.872        0.062      334.785        4.986      855.986
12/12/2021  07:49:00     -315.182      -64.572      -33.301      174.230      140.348       77.064    30356.082    19697.544     5938.859        8.030        2.800      321.729       72.617        0.051      334.863        5.112      856.081
12/12/2021  07:50:00      -59.052     -114.372      -39.687       99.161       87.472       51.194     9832.860     7651.429     2620.874        1.912        1.005      128.717       31.478        0.060      335.006        5.354      856.001
12/12/2021  07:51:00      -44.630      -42.416      -12.678       75.765       63.550       37.938     5740.267     4038.656     1439.270        0.758        0.561       61.571       28.341        0.212      335.000        5.344      856.019
12/12/2021  07:52:00     -277.442      -26.134      -21.099      103.740      104.572       61.193    10761.947    10935.293     3744.570        5.177        1.272      278.670       43.753        0.025      334.924        5.215      856.133
12/12/2021  07:53:00     -211.589      -59.510      -18.392       96.313      102.834       44.119     9276.182    10574.903     1946.480        3.522        1.090      219.799       33.782        0.024      334.922        5.211      856.147
12/12/2021  07:54:00     -200.457      -76.489      -36.992       81.043       79.480       38.693     6567.916     6317.013     1497.116        3.089        0.719      214.555       28.855        0.018      334.899        5.172      856.075
12/12/2021  07:55:00     -260.519       25.641      -16.936      164.006      105.126       68.835    26898.088    11051.524     4738.272        5.574        2.134      261.778       66.003        0.064      334.854        5.100      856.128
12/12/2021  07:56:00     -303.142       -9.610       -0.512      167.085       79.236       63.535    27917.259     6278.318     4036.703        6.510        1.912      303.294       66.945        0.049      334.910        5.191      856.182
12/12/2021  07:57:00     -280.827       40.238      -23.645      183.568      126.837       70.514    33697.068    16087.520     4972.249        6.789        2.738      283.695       72.403        0.065      334.878        5.139      856.145
12/12/2021  07:58:00     -174.542       -2.292      -28.856       99.342       91.299       51.144     9868.873     8335.580     2615.752        2.606        1.041      174.557       50.096        0.082      334.978        5.305      856.140
12/12/2021  07:59:00     -274.038      -50.758       -7.091      153.455       86.374       67.934    23548.399     7460.463     4615.042        5.667        1.781      278.700       75.521        0.073      335.075        5.465      856.171
12/12/2021  08:00:00     -198.780     -165.129      -29.992       84.709      120.887       48.650     7175.577    14613.732     2366.825        4.591        1.208      258.420       34.450        0.018      335.116        5.536      856.145
12/12/2021  08:01:00     -190.658      -71.570      -27.094      104.508       93.171       52.019    10921.969     8680.904     2706.003        3.225        1.115      203.649       46.024        0.051      335.013        5.363      856.193
12/12/2021  08:02:00     -128.243      -16.806       -4.274      109.608       76.447       37.825    12013.842     5844.151     1430.700        1.801        0.964      129.340       24.737        0.037      335.009        5.360      856.135
12/12/2021  08:03:00     -118.669       32.266      -14.316       39.470       42.508       26.904     1557.887     1806.904      723.805        0.971        0.204      122.978       20.061        0.027      334.977        5.308      855.981
12/12/2021  08:04:00     -162.695       -5.533      -16.525      108.409       75.253       45.552    11752.412     5662.961     2074.978        2.313        0.975      162.790       46.030        0.080      335.018        5.373      856.058
12/12/2021  08:05:00     -278.973      -24.587      -19.317      112.487      104.843       60.477    12653.371    10992.056     3657.466        5.305        1.365      280.055       47.772        0.029      335.000        5.341      856.190
12/12/2021  08:06:00     -270.919      -32.933      -25.545      118.109      100.046       55.054    13949.735    10009.159     3030.987        5.106        1.349      272.913       61.103        0.050      334.971        5.294      856.259
12/12/2021  08:07:00     -258.013       21.756      -11.993      122.910       82.668       54.923    15106.972     6833.967     3016.509        4.607        1.248      258.928       51.391        0.039      334.954        5.264      856.287
12/12/2021  08:08:00     -354.826       12.419        0.442      192.066      116.167       85.864    36889.509    13494.851     7372.602        9.190        2.888      355.043       85.703        0.058      334.923        5.214      856.241
12/12/2021  08:09:00     -152.720        4.033       -2.858      118.848       64.303       42.671    14124.838     4134.848     1820.840        2.171        1.004      152.774       54.956        0.129      334.907        5.189      856.149
12/12/2021  08:10:00      -50.889      -79.380       -7.099       52.719       49.352       35.962     2779.243     2435.579     1293.269        0.772        0.325       94.292       17.829        0.036      335.037        5.405      855.990
12/12/2021  08:11:00      -91.102      -31.421      -23.699      102.688       81.037       55.684    10544.834     6566.996     3100.728        1.503        1.011       96.369       31.945        0.110      335.141        5.578      855.991
12/12/2021  08:12:00     -368.048      -26.148      -12.005      180.359      126.688       82.132    32529.369    16049.960     6745.687        9.580        2.766      368.975       73.937        0.040      335.093        5.498      856.293
12/12/2021  08:13:00     -348.104     -122.495      -39.898      135.515      106.572       60.809    18364.374    11357.590     3697.786        8.559        1.671      369.027       30.473        0.007      334.960        5.274      856.293
12/12/2021  08:14:00     -194.806       16.242       -6.803       89.184       65.725       47.207     7953.844     4319.762     2228.466        2.638        0.725      195.482       45.355        0.054      334.918        5.204      856.157
12/12/2021  08:15:00     -108.501      -19.012       -6.563      106.238       59.704       48.399    11286.407     3564.593     2342.498        1.468        0.860      110.154       44.284        0.162      334.936        5.237      856.166
12/12/2021  08:16:00     -257.696      -53.113       -2.816      226.392      185.764       84.148    51253.302    34508.256     7080.802        8.102        4.642      263.113      112.513        0.183      335.031        5.394      856.282
12/12/2021  08:17:00     -311.353     -102.415      -22.607      196.565      194.332       82.127    38637.895    37764.875     6744.816        9.553        4.157      327.764       81.137        0.061      335.033        5.396      856.372
12/12/2021  08:18:00     -284.637      -32.346      -19.285      130.654       85.430       58.045    17070.407     7298.270     3369.261        5.508        1.387      286.469       61.834        0.047      335.012        5.362      856.282
12/12/2021  08:19:00     -140.707      -25.768       -8.353      100.457       63.123       48.642    10091.591     3984.498     2366.065        1.848        0.822      143.047       52.598        0.135      334.949        5.258      856.147
12/12/2021  08:20:00     -190.246       21.600       -7.715      112.038      106.063       52.267    12552.544    11249.303     2731.815        3.162        1.327      191.469       48.559        0.064      334.881        5.143      856.050
12/12/2021  08:21:00     -279.682       17.232      -11.643      198.987       94.887       67.272    39595.707     9003.471     4525.487        6.588        2.656      280.212       54.851        0.038      334.829        5.057      856.125
12/12/2021  08:22:00     -189.128       24.086        1.233      201.478      102.906       80.003    40593.579    10589.585     6400.558        4.696        2.879      190.656       68.958        0.131      334.798        5.008      856.257
12/12/2021  08:23:00     -430.329       62.202      -10.440      143.674      100.526       73.501    20642.315    10105.462     5402.461       11.265        1.808      434.801       71.932        0.027      334.814        5.032      856.314
12/12/2021  08:24:00     -229.461       36.502      -34.194      100.006       73.997       51.037    10001.276     5475.624     2604.765        3.661        0.904      232.346       41.062        0.031      334.869        5.125      856.273
12/12/2021  08:25:00     -239.015       13.880      -18.798      125.673       94.841       58.848    15793.707     8994.908     3463.138        4.296        1.413      239.418       47.882        0.040      334.844        5.082      856.255
12/12/2021  08:26:00     -318.305       15.045       -8.109      103.779       83.196       54.427    10770.081     6921.517     2962.313        6.113        1.033      318.661       45.259        0.020      334.880        5.141      856.255
12/12/2021  08:27:00     -188.643      -38.288      -23.301       96.878       81.456       45.530     9385.404     6635.030     2072.992        2.784        0.905      192.490       44.858        0.054      334.949        5.255      856.209
12/12/2021  08:28:00     -153.123       71.141       -3.140       67.304       63.352       38.114     4529.823     4013.527     1452.677        1.925        0.500      168.842       33.587        0.040      334.991        5.326      856.148
12/12/2021  08:29:00     -285.029       13.892      -16.482      155.581       85.928       63.913    24205.316     7383.679     4084.827        5.868        1.784      285.367       63.371        0.049      335.003        5.346      856.152
12/12/2021  08:30:00     -178.314      -36.707      -15.174      198.209      119.356       82.935    39286.851    14245.886     6878.221        4.688        3.021      182.053       88.778        0.238      334.980        5.308      856.160
12/12/2021  08:31:00     -317.225      -29.958      -39.190      123.658       98.599       53.872    15291.273     9721.789     2902.244        6.549        1.396      318.637       51.033        0.026      334.986        5.319      856.122
12/12/2021  08:32:00     -299.591      -15.600      -10.906      131.648       98.137       80.745    17331.177     9630.796     6519.802        6.179        1.674      299.997       81.086        0.073      334.999        5.339      856.121
12/12/2021  08:33:00     -324.670       43.242       -1.460      185.955      130.914       95.976    34579.170    17138.357     9211.393        8.409        3.046      327.537       98.859        0.091      334.995        5.335      856.106
12/12/2021  08:34:00     -324.785       -3.096      -21.429      170.859      113.557       71.614    29192.860    12895.183     5128.618        7.658        2.361      324.800       67.436        0.043      335.143        5.579      855.994
12/12/2021  08:35:00     -226.602       19.661       -1.704      179.533       82.200       60.811    32232.084     6756.897     3697.944        4.720        2.134      227.453       66.057        0.084      335.205        5.682      856.021
12/12/2021  08:36:00     -200.557      -62.443      -32.767       70.460       73.941       41.073     4964.625     5467.204     1686.980        2.866        0.606      210.053       32.931        0.025      335.214        5.695      856.055
12/12/2021  08:37:00     -262.437       14.003      -15.829      122.144       70.591       49.984    14919.229     4983.048     2498.360        4.586        1.120      262.811       37.404        0.020      335.183        5.645      856.043
12/12/2021  08:38:00     -431.682      -44.583      -39.501      130.283       92.948       70.107    16973.627     8639.353     4914.987       11.021        1.526      433.978       69.768        0.026      335.167        5.620      856.123
12/12/2021  08:39:00     -214.938      -37.127      -19.097      130.386       98.964       77.801    17000.456     9793.778     6053.062        4.039        1.642      218.121       72.234        0.110      335.160        5.607      856.194
12/12/2021  08:40:00     -162.514      -17.774      -13.061       76.833       69.454       44.868     5903.381     4823.909     2013.172        1.982        0.637      163.483       41.888        0.066      335.172        5.628      856.058
12/12/2021  08:41:00     -229.464      -15.028      -29.293       83.378       70.956       40.223     6951.858     5034.720     1617.907        3.367        0.680      229.956       27.888        0.015      335.287        5.817      856.017
12/12/2021  08:42:00     -189.787      -10.938        2.531      173.005       84.687       72.441    29930.792     7171.806     5247.766        3.924        2.118      190.102       77.508        0.166      335.360        5.939      856.091
12/12/2021  08:43:00     -256.863      -25.452      -28.581      158.628       86.771       73.541    25162.720     7529.154     5408.234        5.276        1.905      258.121       54.837        0.045      335.338        5.902      856.249
12/12/2021  08:44:00     -249.339      -84.771      -24.271      114.338      130.330       66.312    13073.195    16985.817     4397.329        5.219        1.723      263.355       35.976        0.019      335.350        5.923      856.331
12/12/2021  08:45:00     -305.050      -78.870      -18.470      155.576      157.132       81.175    24203.951    24690.563     6589.401        7.754        2.774      315.081       75.560        0.058      335.415        6.030      856.234
12/12/2021  08:46:00       74.210     -177.035      -42.049      135.528      183.309       62.167    18367.710    33602.368     3864.730        4.722        2.792      191.959       90.923        0.224      335.539        6.238      856.044
12/12/2021  08:47:00      -88.162      -91.567      -19.690      138.371      113.109       67.886    19146.396    12793.629     4608.496        2.654        1.827      127.110       51.134        0.162      335.548        6.252      856.037
12/12/2021  08:48:00     -218.059     -101.486      -10.868      119.341      115.357       55.895    14242.293    13307.233     3124.287        4.431        1.534      240.518       48.997        0.041      335.442        6.076      856.206
12/12/2021  08:49:00     -294.992     -176.888      -50.142      151.305      144.105       58.408    22893.218    20766.290     3411.453        8.394        2.354      343.962       56.413        0.027      335.496        6.166      856.212
12/12/2021  08:50:00     -289.699      -16.184      -14.060      109.954       80.608       56.731    12089.807     6497.699     3218.371        5.309        1.090      290.151       43.048        0.022      335.486        6.151      856.096
12/12/2021  08:51:00     -214.506       26.934      -12.345      123.592       88.081       55.691    15274.884     7758.207     3101.436        3.651        1.307      216.190       44.838        0.043      335.432        6.060      856.061
12/12/2021  08:52:00     -184.165      -56.539       -8.463      120.674      113.192       69.507    14562.300    12812.349     4831.279        3.469        1.610      192.648       49.255        0.065      335.557        6.268      856.150
12/12/2021  08:53:00     -195.904     -126.367      -31.709       66.436       75.687       52.718     4413.772     5728.474     2779.152        3.413        0.646      233.124       48.264        0.043      335.619        6.368      856.209
12/12/2021  08:54:00     -229.234      -97.350      -28.098      138.655       85.591       58.479    19225.115     7325.757     3419.843        4.639        1.499      249.048       54.351        0.048      335.614        6.361      856.203
12/12/2021  08:55:00      -95.588     -168.260      -22.133      104.374      121.900       66.398    10893.916    14859.644     4408.709        3.404        1.508      193.516       49.580        0.066      335.701        6.507      856.232
12/12/2021  08:56:00      -70.196      -36.725      -30.176       70.685       85.066       38.971     4996.361     7236.154     1518.707        1.047        0.688       79.223       29.643        0.140      335.644        6.415      856.127
12/12/2021  08:57:00      -58.284     -123.820      -37.143      102.636       87.016       53.702    10534.237     7571.843     2883.911        2.055        1.049      136.852       39.791        0.085      335.804        6.680      856.114
12/12/2021  08:58:00      -50.909     -120.119      -29.680       84.771      128.933       53.954     7186.098    16623.686     2910.985        2.231        1.336      130.462       62.279        0.228      335.906        6.850      856.181
12/12/2021  08:59:00     -159.218        9.414      -20.192      102.355       55.315       41.169    10476.501     3059.703     1694.889        2.054        0.762      159.496       33.420        0.044      335.716        6.531      856.172
12/12/2021  09:00:00     -197.604      -33.636      -14.649       93.856      131.915       76.240     8808.996    17401.644     5812.572        3.620        1.601      200.446       52.998        0.070      335.666        6.447      856.135
12/12/2021  09:01:00     -179.168      -52.386      -20.255      172.042      104.688       76.335    29598.300    10959.637     5826.968        4.081        2.319      186.670       68.716        0.136      335.730        6.556      856.036
12/12/2021  09:02:00       30.905     -177.340      -39.214      100.750      102.966       60.193    10150.562    10601.970     3623.163        2.915        1.219      180.013       49.401        0.075      335.800        6.673      856.005
12/12/2021  09:03:00      -91.939      -68.694      -15.316      109.239       97.779       65.963    11933.249     9560.636     4351.078        1.962        1.292      114.768       31.297        0.074      335.814        6.697      856.207
12/12/2021  09:04:00      -85.279      -84.757      -14.926       60.708      113.276       43.073     3685.437    12831.509     1855.280        1.652        0.919      120.234       38.047        0.100      335.748        6.587      856.216
12/12/2021  09:05:00     -184.583      -90.914      -36.722      101.093       79.755       39.103    10219.782     6360.911     1529.017        3.089        0.905      205.758       31.063        0.023      335.766        6.616      856.090
12/12/2021  09:06:00     -121.567      -77.339      -31.146      108.934       79.267       51.249    11866.602     6283.264     2626.460        2.125        1.039      144.083       43.459        0.091      335.846        6.751      856.018
12/12/2021  09:07:00     -132.833      -42.460      -26.899       82.046       91.403       51.419     6731.487     8354.583     2643.898        1.895        0.886      139.454       35.471        0.065      335.720        6.541      856.072
12/12/2021  09:08:00     -123.063      -12.306       -6.580       69.040       54.937       37.934     4766.525     3018.053     1439.011        1.228        0.461      123.676       32.610        0.070      335.780        6.641      856.197
12/12/2021  09:09:00     -151.727       30.035       -4.278      124.978       76.126       51.615    15619.383     5795.156     2664.074        2.401        1.204      154.671       56.867        0.135      335.672        6.458      856.241
12/12/2021  09:10:00     -253.815      -79.875      -25.055      105.225      122.587       56.625    11072.339    15027.472     3206.337        5.036        1.465      266.086       43.337        0.027      335.673        6.460      856.275
12/12/2021  09:11:00     -192.900      -30.765      -21.817       77.341       73.510       37.843     5981.653     5403.745     1432.121        2.572        0.641      195.338       21.771        0.012      335.668        6.454      856.362
12/12/2021  09:12:00     -142.654       -6.900       -5.610       79.253       56.387       39.482     6281.100     3179.544     1558.791        1.572        0.551      142.821       32.102        0.051      335.668        6.452      856.389
12/12/2021  09:13:00      -83.012       39.008      -15.006       49.361       67.018       33.721     2436.501     4491.353     1137.134        0.835        0.403       91.721       28.858        0.099      335.645        6.415      856.306
12/12/2021  09:14:00      -76.018       30.916      -10.347       40.191       48.025       26.952     1615.299     2306.437      726.409        0.574        0.232       82.064       20.548        0.063      335.693        6.495      856.188
12/12/2021  09:15:00     -124.502      -14.289       -7.490       72.417       43.162       36.691     5244.172     1862.929     1346.228        1.211        0.423      125.320       34.750        0.077      335.667        6.451      856.156
12/12/2021  09:16:00     -164.171        0.767      -12.221       92.413       70.799       47.452     8540.242     5012.552     2251.705        2.145        0.790      164.173       34.237        0.043      335.660        6.437      856.211
12/12/2021  09:17:00     -230.206      -12.351       -0.662      131.427       78.574       62.545    17273.126     6173.819     3911.919        4.025        1.368      230.537       53.679        0.054      335.641        6.406      856.313
12/12/2021  09:18:00     -191.415       73.880       -5.730      105.247       91.928       64.154    11076.853     8450.711     4115.739        3.288        1.182      205.178       62.949        0.094      335.688        6.484      856.303
12/12/2021  09:19:00      -78.513       18.557        2.287       85.408       50.445       34.200     7294.592     2544.655     1169.658        0.876        0.550       80.677       32.108        0.158      335.646        6.415      856.117
12/12/2021  09:20:00     -123.592      -37.471      -18.490       73.795       75.644       48.544     5445.721     5722.043     2356.501        1.527        0.676      129.147       40.138        0.097      335.625        6.384      855.988
12/12/2021  09:21:00     -143.782       24.430      -14.055      147.030       60.188       64.896    21617.834     3622.570     4211.504        2.545        1.473      145.842       64.004        0.193      335.608        6.353      855.986
12/12/2021  09:22:00     -431.109       92.585       -0.071      174.021      120.047       75.375    30283.186    14411.196     5681.331       12.239        2.519      440.939       66.523        0.023      335.610        6.354      856.035
12/12/2021  09:23:00     -296.602       54.419        4.041      163.207      111.115       79.710    26636.367    12346.476     6353.640        6.814        2.267      301.553       77.869        0.067      335.609        6.354      856.096
12/12/2021  09:24:00      -99.597       69.727       -7.558       97.332       70.484       60.551     9473.429     4967.984     3666.416        1.647        0.905      121.579       44.347        0.133      335.741        6.576      856.057
12/12/2021  09:25:00      -32.467      -94.697      -30.636      100.840      128.763       65.088    10168.680    16580.036     4236.459        2.097        1.549      100.108       19.242        0.037      335.697        6.501      856.021
12/12/2021  09:26:00      116.144      -49.732      -82.375       85.046      110.394       55.710     7232.789    12186.757     3103.655        2.263        1.126      126.344       41.517        0.108      335.670        6.455      855.931
12/12/2021  09:27:00       25.791     -106.756      -69.618       86.925       88.203       51.810     7556.026     7779.768     2684.235        1.746        0.901      109.828       14.830        0.018      335.778        6.636      856.005
12/12/2021  09:28:00       40.268     -137.475      -42.492       84.771      102.087       55.771     7186.188    10421.708     3110.361        2.152        1.036      143.251       35.644        0.062      335.921        6.875      856.138
12/12/2021  09:29:00      -22.548      -47.703      -24.321       96.666       49.497       40.527     9344.239     2449.905     1642.455        0.840        0.672       52.764       25.929        0.241      335.894        6.833      856.133
12/12/2021  09:30:00      -79.333       87.687      -17.263       78.031       87.303       28.891     6088.823     7621.846      834.668        1.441        0.727      118.249       19.650        0.028      335.903        6.847      856.068
12/12/2021  09:31:00       19.133     -113.523      -40.149       91.558      110.567       54.572     8382.900    12225.162     2978.091        1.922        1.179      115.124       34.398        0.089      335.873        6.797      856.096
12/12/2021  09:32:00     -123.277      -20.478       -7.058       75.285       50.025       35.480     5667.763     2502.473     1258.832        1.255        0.471      124.967       33.343        0.071      335.801        6.676      856.151
12/12/2021  09:33:00     -124.837      -18.178       -4.610       99.163       64.064       44.126     9833.398     4104.224     1947.115        1.591        0.794      126.153       40.000        0.101      335.816        6.699      856.220
12/12/2021  09:34:00     -112.162        5.606      -17.730       48.946       53.985       26.506     2395.690     2914.394      702.569        0.947        0.301      112.302       30.257        0.073      335.757        6.604      856.228
12/12/2021  09:35:00       -9.903       37.208      -13.630       44.633       28.164       19.968     1992.144      793.185      398.719        0.243        0.159       38.503       20.114        0.273      335.858        6.772      856.176
12/12/2021  09:36:00       12.977       36.950      -19.007      104.335       32.989       24.147    10885.703     1088.292      583.078        0.722        0.628       39.163       23.260        0.353      335.839        6.740      856.104
12/12/2021  09:37:00       82.839       22.861      -25.149       76.489       57.459       36.235     5850.512     3301.498     1312.969        0.924        0.523       85.935       22.089        0.066      335.778        6.636      855.935
12/12/2021  09:38:00       11.975      -11.287      -15.622       37.285       27.518       22.546     1390.186      757.256      508.300        0.158        0.133       16.456       10.218        0.386      335.879        6.808      855.988
12/12/2021  09:39:00      -15.039        5.837      -25.111       42.669       66.026       29.206     1820.659     4359.452      852.998        0.396        0.352       16.132       24.555        2.317      335.885        6.818      856.139
12/12/2021  09:40:00      -13.559      -56.248       -6.521       33.494       55.590       30.219     1121.877     3090.223      913.180        0.426        0.256       57.859       24.474        0.179      335.907        6.854      856.165
12/12/2021  09:41:00      -10.060      -75.170      -27.100       75.038       52.366       25.918     5630.637     2742.218      671.738        0.776        0.452       75.840       26.363        0.121      335.993        6.997      856.108
12/12/2021  09:42:00        1.509       -8.439      -15.752       31.122       29.945       31.176      968.558      896.702      971.954        0.158        0.142        8.573       23.013        7.207      336.026        7.050      856.039
12/12/2021  09:43:00     -253.755      -35.798      -22.698      110.546       55.912       38.545    12220.436     3126.172     1485.756        4.151        0.842      256.268       48.643        0.036      335.926        6.883      855.997
12/12/2021  09:44:00     -109.042     -160.779      -27.771       98.341       53.466       30.543     9670.939     2858.603      932.872        2.598        0.673      194.268       17.338        0.008      336.042        7.075      856.037
12/12/2021  09:45:00      -33.464      -80.686      -33.909       86.427       75.005       46.125     7469.678     5625.763     2127.536        1.200        0.761       87.351       42.367        0.235      336.008        7.020      855.983
12/12/2021  09:46:00      -46.351      -61.580       -7.957       54.739       58.637       34.409     2996.401     3438.332     1183.994        0.681        0.381       77.074       35.772        0.215      336.047        7.085      855.929
12/12/2021  09:47:00      -60.062       -6.911      -14.644       49.656       48.728       28.700     2465.684     2374.420      823.685        0.477        0.283       60.459       21.911        0.131      336.022        7.047      855.972
12/12/2021  09:48:00      -62.961      -17.558      -10.134       74.069       63.839       47.344     5486.241     4075.391     2241.451        0.809        0.590       65.363       41.104        0.395      336.001        7.011      855.993
12/12/2021  09:49:00      -50.205        4.870        9.827       67.198       45.514       37.146     4515.613     2071.551     1379.843        0.530        0.398       50.440        8.901        0.031      336.054        7.098      855.999
12/12/2021  09:50:00      -96.665       -8.748       -8.457       58.441       39.518       29.547     3415.344     1561.689      873.007        0.767        0.293       97.061       18.222        0.035      335.988        6.989      855.965
12/12/2021  09:51:00      -87.300       33.469      -19.626       32.571       17.599       22.786     1060.900      309.727      519.184        0.551        0.094       93.496       13.889        0.022      335.939        6.909      855.887
12/12/2021  09:52:00      -37.156       63.128      -11.532       47.844       35.734       25.455     2289.095     1276.929      647.961        0.486        0.211       73.251       20.945        0.082      336.125        7.218      855.848
12/12/2021  09:53:00      -29.769      -24.480       -6.006       17.372       44.175       16.868      301.785     1951.407      284.528        0.203        0.127       38.542        7.087        0.034      336.081        7.144      855.912
12/12/2021  09:54:00      -48.892      -19.537       -7.534       87.268       59.707       29.795     7615.718     3564.948      887.761        0.745        0.603       52.651       36.341        0.476      335.996        7.001      855.965
12/12/2021  09:55:00     -250.112      -51.352      -27.057      111.747       80.845       48.810    12487.414     6535.951     2382.372        4.366        1.070      255.329       44.680        0.031      335.956        6.932      855.993
12/12/2021  09:56:00      -49.414      -15.740        2.502      100.462       52.512       49.541    10092.668     2757.554     2454.358        0.900        0.765       51.860       19.375        0.140      336.014        7.033      855.837
12/12/2021  09:57:00       82.673       -4.025      -24.402      117.283       85.053       46.487    13755.378     7234.091     2161.064        1.529        1.158       82.771       36.986        0.200      336.032        7.061      855.623
12/12/2021  09:58:00       72.503      -95.099      -39.369       60.077       57.502       38.173     3609.292     3306.473     1457.143        1.211        0.419      119.585       24.869        0.043      336.199        7.339      855.584
12/12/2021  09:59:00      -15.208      -54.040      -31.099       62.662       64.131       38.793     3926.581     4112.725     1504.911        0.683        0.477       56.139       33.768        0.362      336.188        7.320      855.817
12/12/2021  10:00:00       41.017     -167.581      -19.772      136.171      195.309       59.885    18542.559    38145.435     3586.238        4.520        3.014      172.528       64.316        0.139      336.359        7.605      855.873
12/12/2021  10:01:00      179.311     -187.257      -55.804      122.986      134.869       71.255    15125.660    18189.647     5077.342        5.436        1.920      259.263       54.055        0.043      336.212        7.359      855.694
12/12/2021  10:02:00       13.658     -116.218      -18.095       83.134      111.452       60.153     6911.336    12421.485     3618.443        1.848        1.148      117.017       60.336        0.266      336.312        7.527      855.652
12/12/2021  10:03:00     -108.307     -106.678      -12.362      126.591      108.407       45.445    16025.288    11752.128     2065.204        2.655        1.492      152.021       62.655        0.170      336.280        7.473      855.620
12/12/2021  10:04:00      -74.972        0.971       -2.964       84.500       83.967       53.810     7140.226     7050.388     2895.559        1.136        0.854       74.978       45.409        0.367      336.264        7.446      855.748
12/12/2021  10:05:00     -140.468       52.914      -21.290       76.194       82.776       48.901     5805.464     6851.933     2391.284        1.901        0.752      150.104       46.442        0.096      336.401        7.676      855.772
12/12/2021  10:06:00      -88.972      -42.510      -15.790       89.807       85.789       38.359     8065.225     7359.761     1471.399        1.343        0.845       98.606       34.882        0.125      336.299        7.505      855.680
12/12/2021  10:07:00     -126.702       38.239      -19.298       67.871       62.888       46.631     4606.497     3954.949     2174.461        1.431        0.537      132.347       35.026        0.070      336.228        7.387      855.684
12/12/2021  10:08:00     -100.530       66.018      -18.640       66.450       52.966       38.464     4415.565     2805.443     1479.455        1.175        0.435      120.268       18.991        0.025      336.477        7.803      855.728
12/12/2021  10:09:00     -229.017      -18.643      -21.105      111.666      120.830       57.330    12469.397    14599.862     3286.703        4.179        1.518      229.775       44.886        0.038      336.271        7.458      855.800
12/12/2021  10:10:00     -188.883       17.130       -3.283      124.990       58.535       54.289    15622.383     3426.369     2947.337        2.898        1.100      189.658       45.980        0.059      336.284        7.480      855.805
12/12/2021  10:11:00      -78.795      -18.804      -27.777      133.653       85.902       60.931    17863.064     7379.150     3712.590        1.814        1.448       81.007       49.558        0.374      336.302        7.509      855.730
12/12/2021  10:12:00      -91.907     -143.431      -41.711      164.433      121.410       76.883    27038.134    14740.343     5910.985        3.922        2.384      170.351       30.408        0.032      336.360        7.606      855.640
12/12/2021  10:13:00     -129.314      -66.555      -30.317      138.715       75.659       59.004    19241.853     5724.231     3481.509        2.525        1.422      145.436       59.155        0.165      336.351        7.593      855.630
12/12/2021  10:14:00      -68.707     -138.820      -37.852      118.734      107.164       56.561    14097.697    11484.021     3199.150        2.710        1.439      154.893       40.488        0.068      336.421        7.708      855.674
12/12/2021  10:15:00     -208.217       -3.742      -24.017      113.142       97.929       46.261    12801.171     9590.044     2140.080        3.423        1.227      208.251       36.036        0.030      336.370        7.624      855.661
12/12/2021  10:16:00      -74.133       -1.304      -15.697       88.058       72.509       37.152     7754.125     5257.564     1380.277        1.007        0.720       74.145       23.660        0.102      336.444        7.750      855.679
12/12/2021  10:17:00      -26.864      -24.502      -23.195       63.324       70.459       41.517     4009.866     4964.404     1723.700        0.628        0.535       36.359       23.770        0.427      336.548        7.924      855.643
12/12/2021  10:18:00       55.414       18.926      -14.726      107.250       57.513       44.150    11502.573     3307.708     1949.235        1.020        0.838       58.557       44.540        0.579      336.569        7.959      855.490
12/12/2021  10:19:00        1.256        9.143       -5.993       32.693       53.941       20.029     1068.815     2909.602      401.160        0.225        0.219        9.229       17.322        3.523      336.693        8.167      855.436
12/12/2021  10:20:00      -13.952      -61.096      -36.911       57.240       51.045       23.294     3276.374     2605.572      542.621        0.586        0.321       62.669       15.263        0.059      336.681        8.148      855.500
12/12/2021  10:21:00        5.851     -194.713      -38.802      136.378      132.831       56.270    18598.932    17644.166     3166.299        3.942        1.970      194.801       34.398        0.031      336.527        7.887      855.617
12/12/2021  10:22:00       14.364      -60.411       -7.404      109.573       90.487       65.957    12006.321     8187.966     4350.303        1.422        1.227       62.095       47.071        0.575      336.580        7.978      855.634
12/12/2021  10:23:00      -43.007      -11.662      -13.715       42.977       42.745       34.531     1847.032     1827.147     1192.364        0.352        0.243       44.561       20.883        0.220      336.635        8.071      855.673
12/12/2021  10:24:00     -131.230       46.070      -18.724       76.130       47.253       40.154     5795.788     2232.869     1612.361        1.467        0.482      139.082       28.291        0.041      336.819        8.376      855.671
12/12/2021  10:25:00      -63.958        3.713      -18.957       32.341       77.220       35.245     1045.942     5962.975     1242.229        0.636        0.413       64.066       28.511        0.198      336.742        8.250      855.710
12/12/2021  10:26:00      -93.751      139.656      -19.603       74.428       48.358       31.427     5539.590     2338.486      987.635        1.877        0.443      168.205       27.222        0.026      336.571        7.961      855.683
12/12/2021  10:27:00      -19.018      194.445      -12.229       70.745       63.527       26.503     5004.795     4035.654      702.389        2.403        0.487      195.373       24.405        0.016      336.618        8.039      855.638
12/12/2021  10:28:00      128.652      101.011      -17.548       57.811       42.321       34.330     3342.085     1791.032     1178.563        1.669        0.316      163.569       32.221        0.039      336.560        7.944      855.670
12/12/2021  10:29:00      124.782      116.742      -22.460       53.203       51.526       36.554     2830.535     2654.880     1336.226        1.826        0.341      170.878       18.476        0.012      336.612        8.032      855.650
12/12/2021  10:30:00      122.654       31.718      -19.193       84.033       73.239       48.200     7061.583     5363.992     2323.218        1.558        0.737      126.688       40.425        0.102      336.637        8.074      855.643
12/12/2021  10:31:00       71.222      -42.010      -23.017       61.208       56.617       44.680     3746.375     3205.451     1996.337        0.816        0.447       82.689       41.714        0.254      336.686        8.154      855.667
12/12/2021  10:32:00      182.813       52.021      -27.774       58.782       52.450       24.246     3455.373     2750.969      587.866        2.184        0.340      190.071       10.078        0.003      336.606        8.020      855.758
12/12/2021  10:33:00      178.890       12.557      -16.303       66.938       60.916       49.585     4480.745     3710.812     2458.651        2.154        0.533      179.330       40.277        0.050      336.591        7.995      855.819
12/12/2021  10:34:00       84.269      -52.373      -27.503       52.681       96.885       44.096     2775.331     9386.660     1944.436        1.235        0.705       99.218       47.105        0.225      336.658        8.108      855.822
12/12/2021  10:35:00       -9.603      134.780      -19.193       47.917       30.852       24.730     2296.086      951.873      611.563        1.124        0.193      135.122       14.642        0.012      336.643        8.083      855.750
12/12/2021  10:36:00     -107.424      133.591      -31.324       86.808      102.342       44.552     7535.592    10473.953     1984.846        2.518        1.000      171.425       36.483        0.045      336.805        8.351      855.643
12/12/2021  10:37:00     -125.007       64.424      -22.341       71.422       59.245       36.988     5101.131     3509.974     1368.088        1.513        0.499      140.632       39.510        0.079      336.726        8.222      855.640
12/12/2021  10:38:00       45.300      -83.066      -20.025       79.753      152.026       41.935     6360.534    23111.975     1758.568        2.029        1.562       94.615       57.477        0.369      336.784        8.317      855.645
12/12/2021  10:39:00      186.661      -85.849      -45.504       96.989      105.516       50.929     9406.941    11133.547     2593.726        3.370        1.157      205.456       35.656        0.030      336.678        8.139      855.551
12/12/2021  10:40:00      119.163     -200.166      -48.976      147.866      146.410       81.683    21864.283    21435.788     6672.055        5.331        2.499      232.951       95.399        0.168      336.729        8.225      855.477
12/12/2021  10:41:00     -122.739      -49.882       -6.705      139.868       97.455       62.950    19563.021     9497.519     3962.682        2.530        1.651      132.488       23.961        0.033      336.824        8.382      855.618
12/12/2021  10:42:00      -91.131      -14.011       -2.928      187.818       85.738       70.496    35275.477     7350.944     4969.657        2.804        2.380       92.201       80.286        0.758      336.787        8.321      855.689
12/12/2021  10:43:00     -164.558      -11.712      -23.728       97.298       95.622       62.892     9466.832     9143.532     3955.366        2.517        1.128      164.974       55.369        0.113      336.774        8.299      855.698
12/12/2021  10:44:00        8.676       -5.694      -32.505       48.426       50.951       26.764     2345.037     2595.987      716.327        0.341        0.283       10.378       24.498        5.573      336.759        8.277      855.679
12/12/2021  10:45:00       38.306       98.372      -12.350       38.100       31.565       21.572     1451.623      996.375      465.345        0.710        0.146      105.567       16.574        0.025      336.837        8.407      855.627
12/12/2021  10:46:00       -4.748       82.236      -19.541       64.696       57.208       28.479     4185.570     3272.782      811.034        0.772        0.413       82.373       24.557        0.089      336.870        8.463      855.563
12/12/2021  10:47:00       -6.850       13.653      -18.485       33.772       41.753       32.514     1140.536     1743.318     1057.178        0.226        0.197       15.275       25.075        2.695      336.857        8.440      855.547
12/12/2021  10:48:00      -68.187       73.654      -11.727       46.521       56.747       33.027     2164.169     3220.166     1090.801        0.834        0.324      100.372       26.983        0.072      336.983        8.649      855.539
12/12/2021  10:49:00       -7.605       20.182        1.104       21.847       39.674       27.456      477.306     1574.050      753.826        0.164        0.140       21.567       11.382        0.279      336.986        8.655      855.574
12/12/2021  10:50:00      -21.337       80.982       -5.680       42.407       65.619       26.966     1798.367     4305.849      727.183        0.694        0.342       83.745       27.445        0.107      336.894        8.502      855.565
12/12/2021  10:51:00       11.046      189.143      -24.134       44.623       45.209       24.619     1991.206     2043.809      606.089        2.056        0.232      189.465       11.846        0.004      336.774        8.298      855.454
12/12/2021  10:52:00       90.715      114.626      -24.282       62.509       57.710       40.062     3907.407     3330.478     1604.950        1.540        0.442      146.179       22.093        0.023      336.837        8.406      855.362
12/12/2021  10:53:00      102.756      132.026      -23.499       61.226       49.368       37.424     3748.595     2437.155     1400.572        1.806        0.379      167.302       30.975        0.034      336.818        8.373      855.280
12/12/2021  10:54:00       -2.473      168.560      -28.432       58.966       44.869       27.890     3477.019     2013.236      777.842        1.775        0.313      168.578       24.833        0.022      336.962        8.615      855.211
12/12/2021  10:55:00       -0.023      110.210       -9.880       56.032       53.421       41.360     3139.541     2853.816     1710.618        0.997        0.385      110.210       26.241        0.057      336.989        8.660      855.220
12/12/2021  10:56:00       64.364       51.915      -17.773       39.081       60.148       29.453     1527.303     3617.773      867.466        0.658        0.301       82.692       13.503        0.027      336.835        8.402      855.326
12/12/2021  10:57:00       13.097      -15.374      -13.626       20.473       35.211       26.346      419.149     1239.793      694.118        0.147        0.118       20.197       24.453        1.466      336.842        8.414      855.366
12/12/2021  10:58:00       27.681       71.357      -10.506       27.732       23.663       27.917      769.083      559.954      779.336        0.404        0.105       76.538       15.588        0.041      336.864        8.451      855.354
12/12/2021  10:59:00       43.618       15.950      -10.266       34.009       47.401       23.620     1156.628     2246.873      557.923        0.311        0.198       46.443       14.785        0.101      336.895        8.502      855.335
12/12/2021  11:00:00      109.452       51.532      -30.240       36.565       45.242       21.701     1336.982     2046.829      470.946        0.970        0.193      120.977       16.875        0.019      336.877        8.472      855.274
12/12/2021  11:01:00       73.767       49.442      -11.264       46.860       34.505       24.346     2195.906     1190.583      592.721        0.600        0.199       88.804       12.983        0.021      336.944        8.585      855.228
12/12/2021  11:02:00       60.317       72.663      -11.110       37.464       32.304       18.350     1403.520     1043.571      336.735        0.591        0.139       94.435       10.089        0.011      336.855        8.437      855.213
12/12/2021  11:03:00      -38.347      103.812      -17.537       39.001       49.572       19.209     1521.087     2457.394      369.003        0.845        0.217      110.668       14.013        0.016      336.918        8.542      855.194
12/12/2021  11:04:00      -28.517       41.784       -6.198       39.063       25.777       26.681     1525.885      664.468      711.885        0.275        0.145       50.588        7.751        0.023      336.939        8.577      855.164
12/12/2021  11:05:00      -10.921       40.877      -22.177       25.583       31.224       19.845      654.493      974.954      393.816        0.215        0.101       42.311       13.477        0.101      337.014        8.701      855.138
12/12/2021  11:06:00      -13.269       29.402       -6.331       33.546       24.681       14.888     1125.339      609.175      221.652        0.152        0.098       32.257        6.861        0.045      337.091        8.832      855.148
12/12/2021  11:07:00       16.250       -3.350      -10.799       35.529       63.950       19.498     1262.284     4089.613      380.188        0.306        0.287       16.591       13.808        0.693      336.971        8.629      855.180
12/12/2021  11:08:00       74.444      118.996      -19.194       32.379       62.723       21.034     1048.427     3934.170      442.409        1.275        0.271      140.363        8.894        0.004      336.910        8.527      855.100
12/12/2021  11:09:00      -46.902     -110.494      -24.702       95.843       77.707       46.714     9185.842     6038.412     2182.229        1.621        0.870      120.036       33.812        0.079      336.994        8.668      855.094
12/12/2021  11:10:00      140.165     -265.087      -47.096      142.408      151.340       78.591    20280.042    22903.828     6176.593        7.074        2.468      299.863       85.652        0.082      337.074        8.799      854.944
12/12/2021  11:11:00       53.697     -190.176      -36.416       59.734      129.984       50.985     3568.141    16895.892     2599.458        3.172        1.153      197.612       42.314        0.046      337.059        8.775      854.954
12/12/2021  11:12:00      -43.217       -4.141      -25.822       70.595       50.371       33.582     4983.713     2537.252     1127.719        0.560        0.432       43.415       29.091        0.449      337.073        8.802      855.023
12/12/2021  11:13:00      123.380     -214.465      -34.292      105.688      123.986       57.000    11169.896    15372.497     3248.972        4.609        1.490      247.423       68.662        0.077      337.062        8.779      855.079
12/12/2021  11:14:00       22.567     -105.305      -28.708      121.758       83.187       48.760    14824.902     6920.080     2377.526        1.827        1.206      107.696       27.125        0.063      337.067        8.789      855.049
12/12/2021  11:15:00      -21.843      -28.173      -25.125       84.619       59.410       47.831     7160.330     3529.539     2287.800        0.744        0.649       35.649       41.168        1.334      337.131        8.898      855.081
12/12/2021  11:16:00       24.745     -115.859      -36.483       97.539       99.350       44.948     9513.793     9870.325     2020.343        1.838        1.070      118.472       43.064        0.132      337.214        9.037      855.091
12/12/2021  11:17:00       74.745     -137.117      -20.735       73.855      100.944       72.909     5454.534    10189.638     5315.680        2.288        1.048      156.166       48.046        0.095      337.151        8.930      855.061
12/12/2021  11:18:00       60.310     -154.732      -31.690       88.510       80.559       57.449     7834.031     6489.791     3300.369        2.310        0.881      166.071       44.794        0.073      337.143        8.917      855.020
12/12/2021  11:19:00       45.809      -78.753      -28.327       47.253       52.623       33.931     2232.856     2769.185     1151.304        0.763        0.308       91.107       12.858        0.020      337.144        8.920      854.975
12/12/2021  11:20:00      -97.832      -30.492      -13.829       78.395       39.928       36.577     6145.769     1594.249     1337.843        0.988        0.454      102.474       13.033        0.016      337.254        9.106      855.000
12/12/2021  11:21:00      -44.753        0.318       -2.695       53.511       38.634       37.297     2863.481     1492.603     1391.085        0.388        0.287       44.755       37.679        0.709      337.289        9.164      854.986
12/12/2021  11:22:00      -46.326        3.701       -6.159       74.703       41.930       35.603     5580.490     1758.096     1267.609        0.540        0.430       46.474       21.524        0.214      337.193        9.004      854.940
12/12/2021  11:23:00      -38.698        9.611      -14.745       50.416       30.683       17.457     2541.769      941.440      304.761        0.280        0.189       39.874       12.205        0.094      337.144        8.920      854.918
12/12/2021  11:24:00       -2.169       33.528        1.824       22.399       21.665       20.196      501.735      469.390      407.892        0.126        0.069       33.598       10.497        0.098      337.290        9.166      854.896
12/12/2021  11:25:00       32.549       16.473       -7.330       54.353       42.441       27.144     2954.275     1801.205      736.790        0.344        0.275       36.480       26.664        0.534      337.229        9.064      854.835
12/12/2021  11:26:00      -18.498       24.549      -20.119       26.668       43.579       22.358      711.162     1899.114      499.902        0.223        0.156       30.738       21.620        0.495      337.316        9.210      854.827
12/12/2021  11:27:00       -8.274      -18.489       -9.958       36.449       87.717       27.635     1328.505     7694.274      763.717        0.515        0.489       20.256       20.839        1.058      337.279        9.147      854.836
12/12/2021  11:28:00       22.120       -1.751        3.293       33.252       76.622       31.557     1105.713     5870.927      995.818        0.424        0.399       22.189       36.003        2.633      337.354        9.272      854.806
12/12/2021  11:29:00      -37.262      -88.501      -30.447       72.491       90.263       30.050     5254.927     8147.336      903.021        1.222        0.715       96.025       32.306        0.113      337.390        9.329      854.814
12/12/2021  11:30:00       65.870     -120.077      -29.719       68.953       73.218       32.760     4754.524     5360.942     1073.196        1.541        0.559      136.957       33.255        0.059      337.309        9.194      854.840
12/12/2021  11:31:00       76.373     -136.469      -46.740       42.003       72.932       35.553     1764.289     5319.124     1264.040        1.749        0.417      156.386       22.965        0.022      337.285        9.156      854.864
12/12/2021  11:32:00       78.722      -73.120      -30.257       73.112       71.845       49.457     5345.338     5161.757     2446.009        1.270        0.648      107.441       36.932        0.118      337.315        9.206      854.830
12/12/2021  11:33:00       30.534     -101.910      -15.884       46.405       70.253       40.632     2153.402     4935.517     1650.962        1.015        0.437      106.386       41.937        0.155      337.481        9.484      854.768
12/12/2021  11:34:00       55.968      -72.579      -19.213       85.983       73.522       50.879     7393.031     5405.482     2588.632        1.208        0.769       91.652       51.659        0.318      337.533        9.572      854.755
12/12/2021  11:35:00       45.173     -215.455      -35.756       68.112       95.817       36.414     4639.246     9180.836     1325.956        3.244        0.757      220.139       28.628        0.017      337.377        9.307      854.754
12/12/2021  11:36:00       93.713     -169.514      -45.515       81.767      109.200       51.332     6685.779    11924.716     2635.014        3.041        1.062      193.693       39.590        0.042      337.360        9.278      854.726
12/12/2021  11:37:00       50.601     -154.650      -25.564       74.854       74.350       53.311     5603.078     5527.970     2842.116        2.055        0.699      162.718       45.982        0.080      337.482        9.485      854.792
12/12/2021  11:38:00      108.502     -240.468      -44.261       87.109       97.663       46.598     7587.944     9538.157     2171.331        4.542        0.965      263.813       40.241        0.023      337.352        9.263      854.804
12/12/2021  11:39:00      113.000     -361.160      -60.287      145.993      159.681       77.195    21314.032    25498.132     5959.093        9.980        2.639      378.424       74.497        0.039      337.353        9.267      854.672
12/12/2021  11:40:00      159.140     -267.973      -68.359      117.422      153.119       68.303    13787.966    23445.303     4665.241        7.185        2.095      311.665       53.097        0.029      337.355        9.269      854.587
12/12/2021  11:41:00       40.292     -141.317      -23.909      105.948      126.087       56.605    11225.081    15897.931     3204.079        2.624        1.516      146.948       61.055        0.173      337.467        9.459      854.616
12/12/2021  11:42:00       87.277     -296.388      -37.092      104.962      154.050       64.618    11017.024    23731.260     4175.458        6.787        1.946      308.971       71.851        0.054      337.370        9.296      854.575
12/12/2021  11:43:00      180.124     -207.172      -67.915      134.657      181.450       72.497    18132.579    32924.016     5255.801        6.813        2.816      274.527       80.925        0.087      337.451        9.433      854.473
12/12/2021  11:44:00       74.868     -227.782      -68.481      192.052      199.384       68.411    36883.793    39753.800     4680.034        7.173        4.066      239.771      103.334        0.186      337.608        9.694      854.438
12/12/2021  11:45:00      241.388     -341.092      -73.313       89.941      115.830       61.408     8089.313    13416.482     3770.951       10.263        1.264      417.866       49.195        0.014      337.275        9.135      854.479
12/12/2021  11:46:00      110.049      -92.364      -45.555       73.118      171.596       49.876     5346.248    29445.289     2487.583        2.999        1.864      143.672       46.479        0.105      337.527        9.559      854.401
12/12/2021  11:47:00      252.104     -364.636      -88.306      138.838      191.962       90.277    19276.056    36849.539     8149.987       13.428        3.214      443.301      111.979        0.064      337.407        9.358      854.311
12/12/2021  11:48:00       56.119     -219.996      -70.581      112.413      109.155       56.243    12636.710    11914.842     3163.297        4.212        1.386      227.041       39.664        0.031      337.517        9.541      854.414
12/12/2021  11:49:00       70.224      -91.435      -37.531      139.109      138.944       60.717    19351.238    19305.343     3686.613        2.851        2.117      115.290       70.198        0.371      337.740        9.917      854.496
12/12/2021  11:50:00      284.934     -381.028      -86.429      116.919      145.937       75.528    13670.123    21297.463     5704.434       13.725        2.034      475.783       74.236        0.024      337.268        9.124      854.377
12/12/2021  11:51:00      153.812     -288.967      -50.922      118.072      109.144       72.393    13940.885    11912.490     5240.775        7.042        1.555      327.353       69.525        0.045      337.320        9.210      854.313
12/12/2021  11:52:00       31.109      -72.346      -17.695       54.898       89.727       40.748     3013.755     8050.910     1660.383        0.962        0.636       78.751       42.560        0.292      337.466        9.458      854.301
12/12/2021  11:53:00      -62.863       43.369      -18.388       37.179       53.043       26.547     1382.245     2813.566      704.723        0.553        0.245       76.372        9.115        0.014      337.924       10.226      854.280
12/12/2021  11:54:00       12.990       -0.701       -3.995       43.296       34.720       21.374     1874.544     1205.512      456.842        0.186        0.177       13.009       14.232        1.197      338.007       10.367      854.272
12/12/2021  11:55:00       38.420      -75.783      -22.476       68.707      148.120       39.867     4720.686    21939.587     1589.370        1.798        1.412       84.966       58.822        0.479      337.781        9.986      854.293
12/12/2021  11:56:00      145.452     -331.417      -78.737       73.812      117.538       44.001     5448.191    13815.282     1936.105        7.919        1.060      361.930       39.232        0.012      337.404        9.353      854.315
12/12/2021  11:57:00       -2.938      -93.205      -21.597       63.449       79.880       38.145     4025.825     6380.891     1455.023        1.051        0.593       93.251       29.769        0.102      337.820       10.052      854.307
12/12/2021  11:58:00       29.939     -113.540      -14.589       34.790       51.176       33.256     1210.371     2618.934     1105.970        0.947        0.247      117.421       20.828        0.031      337.869       10.135      854.296
12/12/2021  11:59:00       57.165      -28.036       -9.328       59.648       57.223       33.637     3557.912     3274.478     1131.468        0.605        0.398       63.670       25.488        0.160      337.872       10.139      854.340
12/12/2021  12:00:00       -4.331      -18.994      -22.687       43.240       48.607       28.166     1869.734     2362.622      793.344        0.296        0.251       19.482       24.374        1.565      337.995       10.346      854.386
12/12/2021  12:01:00      107.350     -101.057      -16.243       77.138       95.155       44.251     5950.317     9054.546     1958.144        1.948        0.848      147.433       41.462        0.079      337.904       10.192      854.380
12/12/2021  12:02:00     -113.646      -87.565      -26.318       87.019      112.202       56.189     7572.277    12589.279     3157.167        2.229        1.166      143.468       43.202        0.091      337.972       10.306      854.405
12/12/2021  12:03:00      -23.491      -21.793      -15.548       71.372       80.822       45.893     5093.944     6532.149     2106.144        0.750        0.687       32.043       42.878        1.791      337.767        9.962      854.395
12/12/2021  12:04:00      -74.639      -43.414      -34.991       53.687       61.908       27.810     2882.278     3832.558      773.420        0.808        0.374       86.347       23.054        0.071      337.747        9.931      854.369
12/12/2021  12:05:00     -131.354       -9.476      -31.921       96.252       78.453       52.784     9264.440     6154.878     2786.169        1.828        0.910      131.695       40.622        0.095      337.833       10.072      854.435
12/12/2021  12:06:00      -94.167      -67.376      -12.659       87.811       71.621       49.501     7710.841     5129.542     2450.307        1.443        0.765      115.789       33.919        0.086      337.788        9.998      854.450
12/12/2021  12:07:00       17.770      -81.001      -37.893       54.686       48.929       33.626     2990.546     2394.088     1130.706        0.741        0.326       82.928       14.988        0.033      337.989       10.338      854.374
12/12/2021  12:08:00      161.998     -185.721      -72.331       99.574      142.840       51.080     9915.022    20403.400     2609.189        4.944        1.646      246.446       59.046        0.057      337.721        9.884      854.243
12/12/2021  12:09:00      225.847     -262.149      -82.636       75.454      125.842       60.449     5693.272    15836.098     3654.093        7.587        1.259      346.018       41.700        0.015      337.613        9.701      854.152
12/12/2021  12:10:00      153.997     -147.947      -45.616       90.427       92.397       54.895     8176.989     8537.238     3013.496        3.370        0.986      213.550       45.384        0.045      337.615        9.706      854.094
12/12/2021  12:11:00      133.744     -214.921      -47.147       84.137      114.040       56.161     7079.105    13005.132     3154.015        4.477        1.162      253.138       44.140        0.030      337.637        9.742      854.147
12/12/2021  12:12:00       74.032     -281.126      -40.802       51.979      101.651       44.774     2701.840    10332.848     2004.722        5.061        0.752      290.710       46.219        0.025      337.555        9.605      854.261
12/12/2021  12:13:00       99.633     -287.202      -49.204       58.978       75.270       43.548     3478.394     5665.499     1896.442        5.293        0.552      303.992       29.412        0.009      337.547        9.591      854.322
12/12/2021  12:14:00      124.538       18.067      -41.411       62.021      108.519       43.993     3846.563    11776.334     1935.362        1.755        0.878      125.842       34.346        0.074      337.716        9.877      854.233
12/12/2021  12:15:00      126.924     -196.535      -37.290       81.629      163.777       57.192     6663.364    26822.843     3270.873        4.643        1.838      233.957       48.101        0.042      337.601        9.683      854.143
12/12/2021  12:16:00      194.055     -317.651      -72.545       98.326      130.293       73.093     9668.024    16976.198     5342.561        8.790        1.599      372.236       57.071        0.024      337.558        9.610      854.161
12/12/2021  12:17:00       18.266     -124.762      -13.447       81.117      106.207       56.764     6580.023    11279.977     3222.150        1.858        1.054      126.092       47.318        0.141      337.805       10.026      854.209
12/12/2021  12:18:00       28.359     -131.193      -50.941      120.764      103.293       60.724    14583.963    10669.514     3687.433        2.477        1.447      134.223       46.244        0.119      337.894       10.174      854.260
12/12/2021  12:19:00      -10.392      -50.415      -11.112       81.473       65.563       46.080     6637.811     4298.478     2123.375        0.791        0.653       51.475       34.217        0.442      337.865       10.128      854.309
12/12/2021  12:20:00      -18.162      -44.693      -22.348       58.045       53.923       48.241     3369.273     2907.736     2327.227        0.571        0.430       48.243       41.132        0.727      338.091       10.507      854.303
12/12/2021  12:21:00      111.277      -81.520      -38.227       60.233       88.881       48.499     3628.063     7899.803     2352.147        1.718        0.694      137.942       39.903        0.084      337.956       10.279      854.230
12/12/2021  12:22:00       99.360     -138.300      -49.431       68.946       66.249       30.843     4753.616     4388.879      951.283        2.077        0.505      170.292       27.204        0.026      337.538        9.578      854.197
12/12/2021  12:23:00       97.153     -117.062      -34.754       61.919       78.587       40.498     3833.994     6175.950     1640.060        1.800        0.583      152.126       35.965        0.056      337.513        9.536      854.165
12/12/2021  12:24:00       93.119      -23.533      -41.555      113.244       86.321       46.842    12824.309     7451.378     2194.203        1.671        1.123       96.046       32.183        0.112      337.613        9.703      854.133
12/12/2021  12:25:00       31.135     -117.643      -29.548       64.698       57.179       41.779     4185.831     3269.423     1745.520        1.244        0.460      121.693       28.944        0.057      337.673        9.804      854.181
12/12/2021  12:26:00       37.718      -74.606      -37.659      104.884       81.086       43.348    11000.620     6574.860     1879.075        1.393        0.973       83.598       54.010        0.417      337.630        9.732      854.174
12/12/2021  12:27:00      101.291     -164.980      -35.602       88.064      123.550       55.690     7755.252    15264.508     3101.413        3.243        1.306      193.593       62.111        0.103      337.495        9.505      854.128
12/12/2021  12:28:00       -1.979      -58.827      -10.106       61.637       80.313       45.438     3799.105     6450.132     2064.593        0.794        0.616       58.860       29.439        0.250      337.719        9.882      854.125
12/12/2021  12:29:00      -12.750      -55.352       -7.676       88.083       69.398       51.467     7758.553     4816.107     2648.841        0.925        0.761       56.802       45.941        0.654      337.648        9.762      854.162
12/12/2021  12:30:00       48.718      -84.573      -28.594       41.757       64.226       36.526     1743.616     4125.014     1334.161        0.877        0.360       97.601       16.228        0.028      337.657        9.779      854.143
12/12/2021  12:31:00      124.137     -134.322      -32.720       78.350       71.037       52.441     6138.738     5046.232     2750.021        2.423        0.697      182.900       49.488        0.073      337.596        9.675      854.108
12/12/2021  12:32:00       64.362      -59.937      -21.902       45.308       50.256       37.983     2052.777     2525.655     1442.696        0.712        0.301       87.948       36.932        0.176      337.488        9.495      854.054
12/12/2021  12:33:00       51.682     -133.101      -35.630       50.766       86.993       40.968     2577.217     7567.714     1678.371        1.674        0.591      142.782       28.453        0.040      337.580        9.648      854.003
12/12/2021  12:34:00      103.972     -183.586      -52.896      105.636       95.170       59.849    11159.028     9057.260     3581.939        3.555        1.190      210.984       30.932        0.021      337.799       10.013      853.985
12/12/2021  12:35:00      111.442     -182.488      -42.920       70.098       97.871       52.866     4913.739     9578.801     2794.814        3.242        0.864      213.825       45.469        0.045      337.869       10.132      853.954
12/12/2021  12:36:00      222.393     -376.842      -88.049       73.523      175.954       50.963     5405.652    30959.776     2597.259       11.908        1.948      437.571       56.505        0.017      337.574        9.636      853.907
12/12/2021  12:37:00      158.741     -295.639      -80.406      128.483      108.576       73.295    16507.819    11788.659     5372.160        7.636        1.683      335.561       54.971        0.027      337.760        9.947      853.899
12/12/2021  12:38:00      122.384     -185.276      -64.381      133.752      141.210       70.107    17889.624    19940.291     4914.940        4.809        2.137      222.047       65.969        0.088      337.813       10.038      853.861
12/12/2021  12:39:00      194.872     -271.530      -72.791       87.169      125.107       63.848     7598.373    15651.668     4076.600        7.216        1.366      334.221       49.644        0.022      337.703        9.853      853.828
12/12/2021  12:40:00      176.458     -129.787      -52.999      104.321      152.583       64.666    10882.778    23281.495     4181.749        4.456        1.917      219.048       57.122        0.068      337.703        9.854      853.815
12/12/2021  12:41:00        5.446      -69.473      -33.098       79.325       87.924       44.241     6292.457     7730.644     1957.299        1.096        0.799       69.686       41.488        0.354      337.928       10.233      853.831
12/12/2021  12:42:00       70.031     -173.535      -31.814       64.583       56.549       29.084     4170.968     3197.734      845.874        2.212        0.411      187.133       25.191        0.018      337.656        9.776      853.870
12/12/2021  12:43:00      121.271     -172.631      -40.285       49.882       66.853       30.959     2488.235     4469.344      958.458        2.702        0.396      210.969       26.995        0.016      337.793       10.004      853.880
12/12/2021  12:44:00       53.507     -132.096      -43.224      109.317      116.421       36.204    11950.199    13553.959     1310.722        2.449        1.341      142.521       41.147        0.083      338.048       10.431      853.818
12/12/2021  12:45:00       70.438     -118.642      -22.272       79.432      102.156       51.389     6309.452    10435.856     2640.823        1.946        0.969      137.977       59.330        0.185      338.111       10.539      853.810
12/12/2021  12:46:00       75.236      -64.628      -31.749       64.153      111.754       56.922     4115.558    12488.924     3240.078        1.534        0.992       99.183       55.283        0.311      338.023       10.392      853.764
12/12/2021  12:47:00       58.379     -141.227      -47.802       87.923      128.695       48.413     7730.530    16562.360     2343.807        2.613        1.332      152.817       37.103        0.059      337.878       10.149      853.766
12/12/2021  12:48:00      148.787     -230.995      -53.295       89.431      118.902       54.529     7997.901    14137.678     2973.425        5.172        1.255      274.766       58.740        0.046      337.835       10.074      853.789
12/12/2021  12:49:00       87.744     -187.056      -49.237       54.490      100.356       29.858     2969.213    10071.287      891.485        2.952        0.697      206.613       18.232        0.008      337.639        9.745      853.783
12/12/2021  12:50:00       -3.190        9.435      -17.902       63.242       64.814       33.095     3999.488     4200.918     1095.308        0.486        0.465        9.959       20.048        4.052      338.136       10.584      853.805
12/12/2021  12:51:00      -37.563      -84.424      -21.404       55.558       66.422       27.314     3086.745     4411.940      746.075        0.862        0.412       92.403       30.908        0.112      338.018       10.385      853.789
12/12/2021  12:52:00       78.017     -138.784      -24.479       41.523       82.218       47.830     1724.173     6759.769     2287.701        1.836        0.539      159.210       39.710        0.062      337.973       10.307      853.766
12/12/2021  12:53:00       81.102     -326.549      -59.702      173.239      233.417       72.564    30011.589    54483.463     5265.605       10.325        4.488      336.469       82.137        0.060      337.966       10.296      853.736
12/12/2021  12:54:00      289.862     -446.131     -118.821      123.466      145.832       74.107    15243.856    21267.060     5491.814       16.958        2.100      532.027       58.964        0.012      337.627        9.724      853.705
12/12/2021  12:55:00      136.735     -296.871      -79.156      109.510      160.717       77.795    11992.544    25829.930     6051.997        7.848        2.194      326.847       53.503        0.027      337.704        9.855      853.731
12/12/2021  12:56:00       75.520     -306.873      -39.935       89.142      102.006       72.449     7946.283    10405.156     5248.852        6.253        1.180      316.029       58.171        0.034      337.866       10.127      853.755
12/12/2021  12:57:00       49.635     -170.701      -49.072      115.823      167.606       81.094    13415.071    28091.851     6576.189        4.104        2.404      177.771       66.673        0.141      338.039       10.416      853.720
12/12/2021  12:58:00      200.765     -275.210      -85.026      121.816      164.796       74.972    14839.112    27157.701     5620.867        8.544        2.381      340.657       72.162        0.045      337.726        9.892      853.665
12/12/2021  12:59:00      -36.399     -235.568      -51.081      179.807      107.017       70.046    32330.402    11452.555     4906.469        5.405        2.434      238.364       50.784        0.045      337.919       10.214      853.683
12/12/2021  13:00:00       61.993     -175.643      -74.869      163.391      156.415       69.649    26696.473    24465.603     4850.942        4.815        2.801      186.263       78.869        0.179      337.858       10.114      853.709
12/12/2021  13:01:00      154.302     -445.558      -82.324      125.808      172.717       62.206    15827.698    29831.089     3869.535       13.931        2.476      471.520       39.613        0.007      337.695        9.840      853.675
12/12/2021  13:02:00      170.076     -297.226      -85.851      121.877      163.582       74.189    14854.029    26758.944     5504.025        8.587        2.356      342.446       50.440        0.022      337.689        9.829      853.647
12/12/2021  13:03:00       88.685     -423.017      -47.421      120.477      176.391       61.406    14514.638    31113.910     3770.749       11.922        2.470      432.213       64.331        0.022      337.640        9.747      853.654
12/12/2021  13:04:00      239.748     -379.381      -88.239      127.666      167.484       76.787    16298.511    28050.910     5896.167       12.971        2.512      448.786       80.564        0.032      337.443        9.417      853.718
12/12/2021  13:05:00      163.279     -261.131      -83.370      117.282      165.513       70.694    13755.178    27394.505     4997.582        7.397        2.307      307.977       58.432        0.036      337.666        9.791      853.629
12/12/2021  13:06:00      289.648     -346.637      -83.747      171.936      164.998       87.393    29562.071    27224.471     7637.460       13.773        3.221      451.723       92.776        0.042      337.574        9.637      853.516
12/12/2021  13:07:00      197.021     -324.258      -79.459      148.160      163.980       75.867    21951.323    26889.586     5755.786       10.243        2.730      379.421       66.777        0.031      337.596        9.673      853.520
12/12/2021  13:08:00      159.564     -443.517      -74.136      105.096      122.625       66.950    11045.204    15036.874     4482.258       12.911        1.528      471.347       46.789        0.010      337.508        9.527      853.468
12/12/2021  13:09:00       82.596     -275.745      -43.220       89.413      119.931       50.512     7994.709    14383.510     2551.495        5.482        1.246      287.850       54.694        0.036      337.538        9.576      853.496
12/12/2021  13:10:00      107.916     -304.181      -60.492       69.361      120.953       52.777     4810.967    14629.659     2785.364        6.502        1.111      322.757       37.257        0.013      337.489        9.492      853.542
12/12/2021  13:11:00      127.470     -220.733      -62.870      104.758      152.855       63.261    10974.138    23364.758     4001.945        5.363        1.917      254.896       58.789        0.053      337.732        9.900      853.604
12/12/2021  13:12:00       93.851     -176.188      -61.852       82.168      147.800       57.862     6751.603    21844.849     3347.991        3.780        1.597      199.625       44.581        0.050      337.696        9.842      853.636
12/12/2021  13:13:00       42.473     -114.534      -22.268      111.900       85.349       65.001    12521.510     7284.427     4225.114        1.972        1.202      122.155       45.202        0.137      338.048       10.433      853.589
12/12/2021  13:14:00      171.118     -258.467      -68.469      104.315      132.794       62.182    10881.538    17634.352     3866.644        6.657        1.619      309.978       63.816        0.042      337.852       10.104      853.589
12/12/2021  13:15:00      261.466     -256.734      -87.766      120.980      156.548       75.521    14636.217    24507.360     5703.428        9.341        2.242      366.438       78.205        0.046      337.779        9.981      853.516
12/12/2021  13:16:00      129.964     -169.188      -51.495      115.415      100.586       58.869    13320.639    10117.628     3465.615        3.753        1.345      213.343       61.213        0.082      337.741        9.919      853.483
12/12/2021  13:17:00       -8.937      -47.110      -28.952       58.115       71.749       30.761     3377.309     5147.917      946.234        0.630        0.474       47.950       17.709        0.136      338.030       10.404      853.528
12/12/2021  13:18:00      -38.443      -25.940      -25.652       75.487       51.996       34.704     5698.330     2703.601     1204.340        0.621        0.480       46.376       21.505        0.215      338.364       10.965      853.590
12/12/2021  13:19:00      -26.433     -111.746      -37.960       89.964      103.540       50.707     8093.600    10720.434     2571.216        1.800        1.069      114.830       43.304        0.142      338.323       10.894      853.578
12/12/2021  13:20:00       67.491      -58.128      -20.538      104.173       67.587       40.356    10852.056     4568.001     1628.608        1.270        0.852       89.072       52.778        0.351      338.555       11.284      853.552
12/12/2021  13:21:00      -85.294      -38.128      -25.400       73.186       86.292       62.664     5356.192     7446.355     3926.721        1.305        0.836       93.428       41.815        0.200      338.464       11.134      853.572
12/12/2021  13:22:00      -30.257      -22.465        0.674       93.950       85.752       49.888     8826.690     7353.486     2488.797        1.004        0.933       37.685       42.491        1.271      338.377       10.986      853.572
12/12/2021  13:23:00      -14.857       15.574      -21.383       60.549       37.955       35.216     3666.133     1440.547     1240.194        0.363        0.317       21.524       23.145        1.156      338.246       10.767      853.596
12/12/2021  13:24:00      -84.503      -40.230      -18.886       63.848       74.117       47.125     4076.517     5493.323     2220.725        1.045        0.590       93.590       26.341        0.079      338.099       10.520      853.589
12/12/2021  13:25:00      -32.872      -41.622      -31.925       97.301       47.175       33.059     9467.517     2225.449     1092.882        0.831        0.639       53.037       25.151        0.225      338.134       10.580      853.543
12/12/2021  13:26:00      -35.472      -66.921      -12.648       43.083       45.562       48.663     1856.175     2075.901     2368.050        0.610        0.315       75.741       39.008        0.265      338.233       10.746      853.525
12/12/2021  13:27:00      -36.932       11.072       -5.702       56.059       52.589       37.281     3142.631     2765.640     1389.850        0.441        0.365       38.556       25.330        0.432      338.431       11.079      853.549
12/12/2021  13:28:00     -116.081     -206.507      -21.093      121.537      154.631       60.105    14771.274    23910.832     3612.552        4.942        2.115      236.897       54.247        0.052      338.206       10.697      853.539
12/12/2021  13:29:00       49.224     -169.412      -42.080      131.413      105.683       49.558    17269.330    11168.801     2456.023        3.189        1.545      176.418       58.606        0.110      338.052       10.440      853.576
12/12/2021  13:30:00      111.506     -161.086      -47.127      112.110      145.522       82.482    12568.594    21176.651     6803.363        4.057        2.027      195.914       54.346        0.077      338.045       10.427      853.543
12/12/2021  13:31:00       21.582      -67.112      -62.856      122.524      104.838       51.111    15012.123    10990.974     2612.308        1.876        1.431       70.496       44.214        0.393      338.274       10.812      853.472
12/12/2021  13:32:00       72.801     -159.016      -53.212       90.094       85.523       58.796     8116.853     7314.220     3456.992        2.615        0.944      174.888       47.321        0.073      338.059       10.451      853.437
12/12/2021  13:33:00     -128.861      -68.236      -27.856      106.127      103.974       51.907    11262.963    10810.670     2694.296        2.340        1.238      145.813       21.482        0.022      338.303       10.862      853.516
12/12/2021  13:34:00     -245.099     -146.954      -32.401      173.178      114.886       66.046    29990.456    13198.774     4362.035        6.513        2.378      285.778       64.600        0.051      338.312       10.874      853.443
12/12/2021  13:35:00     -126.599       -2.246      -21.304       79.875       56.680       46.293     6380.034     3212.619     2143.075        1.411        0.587      126.619       41.512        0.107      338.485       11.166      853.475
12/12/2021  13:36:00      172.874     -241.369      -53.554      140.980      215.011       72.034    19875.441    46229.723     5188.962        8.114        3.565      296.891      106.079        0.128      338.273       10.811      853.431
12/12/2021  13:37:00      121.579     -293.790      -62.318      104.770       94.503       54.368    10976.770     8930.762     2955.934        6.392        1.143      317.953       53.674        0.028      337.789        9.998      853.447
12/12/2021  13:38:00       10.254      -41.451      -13.032       65.195      108.122       41.131     4250.335    11690.389     1691.752        0.981        0.882       42.701       36.446        0.728      338.208       10.702      853.525
12/12/2021  13:39:00       18.237     -122.404      -25.045       66.413       61.799       33.156     4410.702     3819.168     1099.347        1.263        0.466      123.755       23.022        0.035      338.200       10.688      853.478
12/12/2021  13:40:00      -12.199     -160.121      -57.583      121.414       79.025       74.289    14741.309     6244.970     5518.854        2.780        1.325      160.585       24.551        0.023      338.364       10.963      853.446
12/12/2021  13:41:00      -39.239      -37.253      -23.398       99.313       89.962       45.553     9862.973     8093.142     2075.093        1.175        1.002       54.106       17.368        0.103      338.647       11.440      853.456
12/12/2021  13:42:00      -86.918      -53.363      -22.278      119.629       57.030       53.028    14311.183     3252.380     2812.009        1.563        1.019      101.992       34.447        0.114      338.284       10.830      853.501
12/12/2021  13:43:00      122.171     -166.415      -88.027       95.313      171.867       81.825     9084.648    29538.337     6695.262        4.784        2.266      206.445       75.652        0.134      338.543       11.262      853.464
12/12/2021  13:44:00      287.886     -400.546     -112.311      109.426      142.089       63.948    11974.074    20189.395     4089.395       14.608        1.813      493.270       67.366        0.019      338.132       10.571      853.425
12/12/2021  13:45:00      112.230     -304.294      -54.811       68.019      111.481       52.466     4626.526    12427.933     2752.641        6.400        0.990      324.331       47.246        0.021      338.050       10.434      853.489
12/12/2021  13:46:00      161.190     -418.163      -94.554      153.988      183.082       72.056    23712.263    33519.138     5192.132       13.609        3.121      448.154       39.826        0.008      337.851       10.102      853.544
12/12/2021  13:47:00       80.165     -131.684      -71.354      157.162      155.462       90.195    24699.900    24168.473     8135.225        4.292        2.850      154.167       82.572        0.287      338.118       10.550      853.541
12/12/2021  13:48:00      308.625     -343.911     -102.934      132.501      195.975       92.188    17556.438    38406.181     8498.649       14.428        3.223      462.086       73.155        0.025      337.706        9.859      853.362
12/12/2021  13:49:00       99.240     -220.441      -49.303      115.971      150.776       56.308    13449.163    22733.464     3170.634        5.011        1.968      241.749       54.418        0.051      337.860       10.117      853.305
12/12/2021  13:50:00      143.822     -272.917     -107.867      137.503      160.597       60.574    18906.961    25791.404     3669.211        7.758        2.418      308.494       40.402        0.017      337.800       10.015      853.432
12/12/2021  13:51:00       58.374      -86.871      -58.572      103.334      136.517       74.751    10677.819    18637.001     5587.670        2.464        1.745      104.662       49.521        0.224      338.053       10.441      853.370
12/12/2021  13:52:00       65.163     -111.211      -52.950      132.348      135.814       73.733    17515.971    18445.429     5436.518        3.040        2.070      128.896       58.818        0.208      338.057       10.448      853.371
12/12/2021  13:53:00      109.981     -165.254      -66.061       84.654      117.418       51.176     7166.222    13786.885     2619.003        3.367        1.179      198.506       41.297        0.043      337.911       10.203      853.304
12/12/2021  13:54:00       91.151     -314.706      -38.007       95.014      101.906       57.175     9027.610    10384.804     3268.999        6.573        1.134      327.640       31.899        0.009      337.997       10.345      853.329
12/12/2021  13:55:00      -51.905     -118.686      -37.180      135.891      107.547       56.012    18466.374    11566.451     3137.351        2.566        1.659      129.540       49.665        0.147      338.156       10.614      853.397
12/12/2021  13:56:00      147.758     -174.843      -59.025       88.643      116.205       67.042     7857.556    13503.571     4494.612        4.087        1.293      228.916       63.817        0.078      338.130       10.568      853.360
12/12/2021  13:57:00       62.118     -176.769      -63.993      181.457      145.590       94.526    32926.781    21196.504     8935.156        5.112        3.153      187.366       96.633        0.266      338.161       10.622      853.351
12/12/2021  13:58:00       38.301     -230.834      -52.522      167.632      165.774       73.540    28100.431    27480.887     5408.156        5.924        3.049      233.990       80.155        0.117      338.094       10.508      853.352
12/12/2021  13:59:00      156.693     -316.576      -81.646       95.596      149.692       56.811     9138.604    22407.759     3227.481        8.310        1.739      353.232       56.701        0.026      337.981       10.319      853.244
12/12/2021  14:00:00      104.861     -191.617      -41.366       95.823       90.309       52.140     9182.008     8155.717     2718.606        3.474        1.003      218.433       40.099        0.034      338.123       10.558      853.246
12/12/2021  14:01:00      123.841     -231.769      -48.796      111.176      139.584       53.263    12360.090    19483.572     2836.976        5.305        1.734      262.780       60.039        0.052      338.046       10.429      853.219
12/12/2021  14:02:00       85.485     -112.352      -23.371       69.223       80.283       50.641     4791.875     6445.328     2564.464        1.714        0.690      141.176       52.777        0.140      338.341       10.925      853.225
12/12/2021  14:03:00       -5.035      -77.365        3.962       87.000       71.369       52.266     7568.997     5093.592     2731.765        1.071        0.770       77.529       42.983        0.307      338.499       11.190      853.286
12/12/2021  14:04:00       -9.071      -26.423      -28.935       46.069       55.591       39.535     2122.352     3090.343     1563.027        0.420        0.339       27.937       26.482        0.899      338.629       11.409      853.308
12/12/2021  14:05:00       59.333      -62.790      -42.911       70.261       91.720       39.262     4936.662     8412.618     1541.521        1.209        0.745       86.388       40.418        0.219      338.381       10.992      853.282
12/12/2021  14:06:00      120.513     -151.923      -61.615      105.877      138.358       58.662    11209.980    19142.998     3441.268        3.759        1.690      193.918       60.661        0.098      338.238       10.750      853.220
12/12/2021  14:07:00       50.444     -215.030      -42.717       90.826      130.991       48.441     8249.321    17158.707     2346.505        3.918        1.388      220.868       28.157        0.016      338.081       10.488      853.118
12/12/2021  14:08:00      123.996     -182.922      -39.315       96.658       84.461       49.187     9342.852     7133.592     2419.339        3.464        0.945      220.988       50.008        0.051      338.164       10.625      853.117
12/12/2021  14:09:00      137.309     -193.191      -55.338       81.826      158.361       66.777     6695.434    25078.127     4459.184        4.773        1.812      237.016       33.285        0.020      338.153       10.609      853.044
12/12/2021  14:10:00      -35.955      -62.909      -14.830       91.808       62.984       46.295     8428.669     3967.040     2143.254        1.000        0.727       72.459       29.624        0.167      338.501       11.196      853.023
12/12/2021  14:11:00     -291.639      -44.360      -16.332      275.036      129.713       97.277    75644.578    16825.344     9462.841        9.459        5.097      294.993       92.095        0.097      338.531       11.242      853.169
12/12/2021  14:12:00     -262.668      -94.736      -37.730      121.555      130.654       81.820    14775.664    17070.525     6694.579        5.896        1.927      279.230       52.941        0.036      338.498       11.186      853.342
12/12/2021  14:13:00      133.720     -365.079      -97.198      165.712      161.312      100.057    27460.430    26021.673    10011.459       11.204        3.175      388.797      111.151        0.082      338.210       10.703      853.368
12/12/2021  14:14:00      217.416     -382.843     -120.616      155.039      150.773       90.128    24037.079    22732.642     8123.033       13.163        2.745      440.271       76.787        0.030      337.779        9.980      853.349
12/12/2021  14:15:00      257.129     -168.839     -109.019      183.585      225.592       91.048    33703.624    50891.610     8289.788        9.968        4.644      307.607       83.243        0.073      337.731        9.902      853.263
12/12/2021  14:16:00      -73.661       34.806       -9.320      101.793       96.589       61.454    10361.780     9329.359     3776.588        1.509        1.173       81.470       49.871        0.375      338.450       11.108      853.337
12/12/2021  14:17:00     -150.785      -12.716      -14.005      214.849       88.223       64.256    46160.174     7783.260     4128.824        4.057        2.904      151.320       63.398        0.176      338.266       10.798      853.435
12/12/2021  14:18:00     -444.268      187.403      -66.271      287.458      186.310      123.735    82632.260    34711.507    15310.335       18.475        6.633      482.176      118.667        0.061      338.144       10.593      853.215
12/12/2021  14:19:00     -391.727       84.946      -31.917      260.440      189.954       93.989    67829.202    36082.705     8833.841       13.719        5.637      400.831       99.552        0.062      338.029       10.401      853.217
12/12/2021  14:20:00     -223.837       10.354       -9.965      133.453      113.727       74.383    17809.644    12933.887     5532.766        4.329        1.814      224.076       69.741        0.097      338.104       10.525      853.237
12/12/2021  14:21:00      -95.120        5.477      -13.874       81.331       85.909       54.550     6614.793     7380.353     2975.751        1.312        0.849       95.278       25.672        0.073      338.249       10.772      853.342
12/12/2021  14:22:00     -110.280      -95.963      -12.304      105.440      141.591       74.870    11117.500    20047.890     5605.476        2.914        1.839      146.187       52.512        0.129      338.151       10.604      853.386
12/12/2021  14:23:00     -141.277       46.861      -11.700       98.364       95.198       65.203     9675.457     9062.655     4251.426        2.264        1.149      148.846       50.815        0.117      338.191       10.674      853.410
12/12/2021  14:24:00     -258.960       48.106      -29.944      147.137      116.790       71.365    21649.191    13639.832     5092.922        5.532        2.019      263.391       51.615        0.038      337.938       10.247      853.285
12/12/2021  14:25:00     -268.511       55.999        0.511      202.911      104.043       77.223    41172.779    10824.887     5963.406        6.659        2.898      274.288       88.693        0.105      338.086       10.495      853.204
12/12/2021  14:26:00     -325.511       93.532        1.232      202.122      134.421       94.783    40853.254    18069.021     8983.809        9.129        3.395      338.683       92.585        0.075      338.105       10.528      853.185
12/12/2021  14:27:00     -313.150       19.220        5.725      216.666      135.557       91.447    46944.082    18375.634     8362.594        8.606        3.684      313.739       90.603        0.083      338.157       10.616      853.173
12/12/2021  14:28:00     -443.573       24.207       -7.032      196.326      137.641       84.239    38543.863    18945.074     7096.172       13.098        3.229      444.233       83.977        0.036      337.831       10.067      853.179
12/12/2021  14:29:00     -166.205      -48.986       -5.496      145.822      116.994       69.478    21264.104    13687.541     4827.128        3.491        1.989      173.274       61.423        0.126      337.903       10.189      853.258
12/12/2021  14:30:00     -176.885     -123.218      -24.312      125.861       97.809       56.762    15840.925     9566.649     3221.939        3.784        1.431      215.571       53.455        0.061      337.945       10.260      853.322
12/12/2021  14:31:00     -217.268     -100.908      -22.848      137.617      109.539       60.367    18938.446    11998.703     3644.170        4.624        1.729      239.558       55.834        0.054      337.859       10.115      853.369
12/12/2021  14:32:00     -220.793      -64.649       -8.127      104.461      124.291       63.394    10912.197    15448.232     4018.797        4.168        1.519      230.063       57.909        0.063      337.920       10.218      853.383
12/12/2021  14:33:00     -241.795      -76.692      -15.713      133.983      119.152       75.481    17951.554    14197.141     5697.415        5.121        1.892      253.666       70.379        0.077      337.966       10.295      853.389
12/12/2021  14:34:00     -205.076     -114.380      -31.050       89.106       62.900       54.418     7939.881     3956.427     2961.367        3.548        0.743      234.817       25.502        0.012      337.876       10.145      853.429
12/12/2021  14:35:00      -68.997      -57.934      -30.666       74.361       65.298       35.259     5529.527     4263.893     1243.218        1.004        0.552       90.094       35.067        0.151      338.025       10.396      853.344
12/12/2021  14:36:00      -36.772      -15.421      -13.455       69.233      100.551       46.618     4793.197    10110.576     2173.220        0.942        0.854       39.875       41.206        1.068      338.237       10.751      853.222
12/12/2021  14:37:00      -14.824      -98.317      -34.971       83.767       52.520       46.537     7016.969     2758.357     2165.674        1.152        0.597       99.429       17.643        0.031      338.083       10.492      853.151
12/12/2021  14:38:00      -33.167      -63.799      -35.635       45.922       73.224       33.799     2108.864     5361.798     1142.366        0.753        0.431       71.905       24.351        0.115      338.074       10.478      853.134
12/12/2021  14:39:00     -245.031      -13.798       -3.497      228.096      108.947       72.388    52027.767    11869.412     5240.061        6.468        3.457      245.419       48.241        0.039      338.009       10.366      853.187
12/12/2021  14:40:00     -151.735      -62.827      -12.827      167.891      132.514       85.773    28187.496    17559.865     7357.084        4.011        2.655      164.228       73.950        0.203      337.954       10.275      853.208
12/12/2021  14:41:00      129.932     -325.701      -51.734      112.309      135.808       72.913    12613.254    18443.871     5316.261        8.100        1.819      350.662       62.552        0.032      337.940       10.251      853.236
12/12/2021  14:42:00       24.840      -77.971      -34.830      101.003       76.832       55.959    10201.666     5903.183     3131.402        1.357        0.962       81.832       25.696        0.099      338.119       10.554      853.255
12/12/2021  14:43:00       97.398     -198.935      -45.074       96.364      136.914       53.561     9286.117    18745.356     2868.796        4.099        1.545      221.499       20.409        0.008      338.116       10.546      853.227
12/12/2021  14:44:00      -73.494      -94.942      -28.414      170.440      171.793       61.516    29049.960    29512.887     3784.226        3.877        3.117      120.063       56.695        0.223      337.998       10.349      853.165
12/12/2021  14:45:00      107.589     -269.282      -54.359       87.071      141.313       56.496     7581.359    19969.248     3191.806        5.889        1.537      289.980       39.424        0.018      337.753        9.937      853.084
12/12/2021  14:46:00       91.628     -361.554      -55.015      109.062      120.704       60.292    11894.497    14569.432     3635.181        8.612        1.505      372.984       43.248        0.013      337.726        9.891      853.002
12/12/2021  14:47:00       84.724     -284.062      -60.397      102.557      148.761       65.975    10517.879    22129.785     4352.644        6.425        1.850      296.428       57.356        0.037      337.726        9.892      853.014
12/12/2021  14:48:00      -75.447     -118.128      -24.551      132.006      105.474       67.870    17425.470    11124.739     4606.290        2.670        1.658      140.166       23.303        0.028      337.955       10.276      852.995
12/12/2021  14:49:00      -15.645      -56.513       -9.787      100.839      126.311       69.667    10168.464    15954.503     4853.429        1.725        1.549       58.638       66.909        1.302      337.976       10.313      853.008
12/12/2021  14:50:00      -44.862     -228.125      -53.134      205.417      140.586       80.095    42196.049    19764.529     6415.160        6.261        3.419      232.494       73.863        0.101      337.747        9.926      853.034
12/12/2021  14:51:00       44.362     -159.418      -68.197       66.875       73.602       52.271     4472.305     5417.182     2732.226        2.233        0.631      165.475       39.341        0.057      337.844       10.091      853.004
12/12/2021  14:52:00      -21.350      -24.700      -16.399      128.464      100.746       52.724    16503.113    10149.750     2779.781        1.538        1.472       32.648       55.941        2.936      338.066       10.465      852.965
12/12/2021  14:53:00       67.245      -54.899      -38.586       60.106       60.048       37.619     3612.741     3605.807     1415.205        0.883        0.432       86.808       27.512        0.100      338.006       10.363      852.916
12/12/2021  14:54:00      -25.410      -51.575      -29.371      138.286      114.804       59.276    19123.051    13180.056     3513.689        1.999        1.791       57.495       54.799        0.908      337.963       10.290      852.887
12/12/2021  14:55:00       71.826     -172.881      -36.312       98.034      115.248       56.000     9610.629    13282.129     3136.053        3.119        1.301      187.208       53.846        0.083      337.916       10.213      852.842
12/12/2021  14:56:00       27.858     -308.917      -21.281      139.269      140.080       80.155    19395.772    19622.445     6424.873        7.104        2.272      310.170       54.052        0.030      337.940       10.251      852.901
12/12/2021  14:57:00      130.982     -188.517      -78.537       95.520      128.610       60.749     9124.100    16540.451     3690.397        4.410        1.468      229.553       37.231        0.026      337.918       10.214      852.924
12/12/2021  14:58:00       33.030     -218.488      -29.957      152.147      182.053       75.881    23148.753    33143.208     5757.905        5.588        3.102      220.970       62.538        0.080      337.869       10.133      852.980
12/12/2021  14:59:00      -58.429      -42.060      -34.769       74.212       95.380       43.462     5507.457     9097.433     1888.931        1.144        0.825       71.993       25.224        0.123      337.875       10.144      852.931
12/12/2021  15:00:00       46.970     -132.788      -34.304       66.361      121.472       40.418     4403.764    14755.504     1633.631        2.090        1.040      140.850       15.506        0.012      337.905       10.193      852.891
12/12/2021  15:01:00       11.119     -179.434      -22.998       94.754      108.941       58.307     8978.401    11868.162     3399.702        2.854        1.212      179.778       46.796        0.068      337.771        9.967      852.877
12/12/2021  15:02:00       29.115     -182.907      -33.776      133.845      115.111       60.881    17914.352    13250.594     3706.552        3.515        1.744      185.210       70.547        0.145      337.777        9.978      852.887
12/12/2021  15:03:00       45.856      -49.321      -32.449       84.231       78.024       48.276     7094.938     6087.753     2330.570        1.055        0.776       67.345       41.542        0.381      337.922       10.223      852.890
12/12/2021  15:04:00     -129.774       -1.463      -42.636       97.351      120.023       48.399     9477.309    14405.494     2342.503        2.244        1.311      129.782       41.600        0.103      338.017       10.380      852.805
12/12/2021  15:05:00      -48.177     -207.804      -47.227      150.141      154.962       86.704    22542.170    24013.375     7517.630        5.089        2.704      213.315       67.372        0.100      337.728        9.895      852.845
12/12/2021  15:06:00       96.323     -129.620      -60.003      106.360      141.457       73.910    11312.470    20010.197     5462.631        3.323        1.839      161.491       45.543        0.080      337.686        9.824      852.828
12/12/2021  15:07:00     -145.158     -210.947      -45.873      141.017      141.853       82.599    19885.882    20122.362     6822.646        5.724        2.342      256.065       62.310        0.059      337.615        9.705      852.787
12/12/2021  15:08:00     -134.389      -75.389      -20.106      113.707      109.620       61.112    12929.196    12016.555     3734.661        2.641        1.434      154.090       53.192        0.119      337.705        9.858      852.668
12/12/2021  15:09:00     -146.141     -261.153      -46.132      115.387      140.379       63.204    13314.153    19706.211     3994.730        6.434        1.851      299.262       53.585        0.032      337.561        9.615      852.676
12/12/2021  15:10:00       40.402     -215.806      -30.467      136.179      153.230       74.435    18544.704    23479.468     5540.585        4.834        2.378      219.555       64.285        0.086      337.594        9.670      852.599
12/12/2021  15:11:00      187.260     -199.290      -73.108      108.446      139.103       87.146    11760.606    19349.749     7594.495        5.941        1.935      273.464       58.483        0.046      337.619        9.713      852.474
12/12/2021  15:12:00      126.197     -246.098      -65.658      175.402      159.103       74.577    30765.809    25313.902     5561.714        7.121        3.082      276.569       68.085        0.061      337.586        9.657      852.405
12/12/2021  15:13:00       77.750     -193.475      -19.202      144.680      201.426       88.197    20932.275    40572.392     7778.732        5.655        3.464      208.513       88.887        0.182      337.595        9.672      852.339
12/12/2021  15:14:00      249.583     -418.260      -82.701      165.460      284.825       81.424    27377.012    81125.262     6629.803       17.958        5.757      487.066       98.805        0.041      337.432        9.398      852.291
12/12/2021  15:15:00      102.003     -398.125      -54.563      158.679      159.874       83.764    25179.154    25559.775     7016.440       11.481        2.888      410.984       70.692        0.030      337.535        9.571      852.357
12/12/2021  15:16:00      131.000     -356.192      -61.938      230.495      166.349       93.537    53127.929    27672.030     8749.146       11.869        4.477      379.518       95.523        0.063      337.543        9.584      852.413
12/12/2021  15:17:00       37.247     -200.530      -50.162      132.816      106.063       74.958    17640.034    11249.265     5618.628        3.931        1.725      203.960       64.160        0.099      337.645        9.756      852.431
12/12/2021  15:18:00      163.009     -312.644      -82.119      161.853      262.832       94.405    26196.256    69080.683     8912.321       11.761        5.209      352.588      109.214        0.096      337.580        9.646      852.320
12/12/2021  15:19:00      103.043     -143.274      -62.483      107.816      112.925       67.374    11624.190    12752.091     4539.302        3.198        1.446      176.480       41.144        0.054      337.535        9.571      852.280
12/12/2021  15:20:00      119.820     -172.060      -50.384      128.447      138.186       71.636    16498.532    19095.257     5131.730        4.361        2.036      209.670       63.468        0.092      337.630        9.731      852.276
12/12/2021  15:21:00       38.993      -74.519      -40.171      124.887      113.184       63.207    15596.867    12810.574     3995.173        2.054        1.620       84.104       53.267        0.401      337.733        9.906      852.338
12/12/2021  15:22:00      119.203     -446.918      -71.664      110.068      191.407       62.411    12114.967    36636.792     3895.156       13.585        2.632      462.542       61.996        0.018      337.497        9.507      852.335
12/12/2021  15:23:00      127.249     -460.668      -72.084      153.084      181.618       68.285    23434.721    32985.191     4662.815       14.733        3.054      477.920       62.252        0.017      337.442        9.416      852.308
12/12/2021  15:24:00       91.761     -228.593      -46.119      109.500      111.550       61.655    11990.274    12443.335     3801.286        4.551        1.412      246.323       48.245        0.038      337.574        9.638      852.389
12/12/2021  15:25:00        9.530     -244.495      -34.180      135.389      129.907       71.585    18330.126    16875.925     5124.375        5.068        2.017      244.680       58.734        0.058      337.631        9.732      852.387
12/12/2021  15:26:00       95.367     -283.813      -64.115      147.992      114.893       74.521    21901.678    13200.452     5553.319        6.720        2.033      299.407       54.824        0.034      337.546        9.588      852.390
12/12/2021  15:27:00       55.652     -257.683      -47.851       99.283      134.959       76.975     9857.146    18214.016     5925.163        5.289        1.700      263.625       59.606        0.051      337.626        9.723      852.422
12/12/2021  15:28:00     -125.233     -140.109      -31.961       78.346      103.543       61.141     6138.120    10721.156     3738.239        2.846        1.030      187.920       38.894        0.043      337.606        9.691      852.469
12/12/2021  15:29:00      -64.363     -132.567      -47.599      140.110      168.059       75.100    19630.785    28243.908     5640.031        3.874        2.676      147.366       49.248        0.112      337.708        9.864      852.494
12/12/2021  15:30:00      -26.440       -7.799       -7.953       60.383       58.331       25.095     3646.077     3402.459      629.766        0.425        0.384       27.566       17.216        0.390      337.855       10.112      852.520
12/12/2021  15:31:00       78.314     -111.380      -57.443      172.657      196.607       62.454    29810.493    38654.466     3900.523        4.709        3.618      136.157       67.527        0.246      337.691        9.833      852.481
12/12/2021  15:32:00       60.101      -97.449      -46.107      154.355      159.067       68.703    23825.453    25302.400     4720.152        3.453        2.692      114.492       60.971        0.284      337.679        9.813      852.497
12/12/2021  15:33:00      113.411     -355.890      -76.130      172.688      256.942       85.134    29820.990    66019.227     7247.778       12.418        5.154      373.523       50.168        0.018      337.479        9.478      852.438
12/12/2021  15:34:00      210.602     -339.341      -69.887      212.561      244.769      119.725    45181.997    59912.105    14333.991       14.189        5.971      399.381      142.490        0.127      337.432        9.399      852.413
12/12/2021  15:35:00      141.357     -210.558      -46.515      174.144      170.649       74.422    30326.171    29121.035     5538.593        6.572        3.249      253.607      103.532        0.167      337.470        9.464      852.477
12/12/2021  15:36:00       83.153     -139.947      -32.064      126.970      126.954       68.726    16121.289    16117.253     4723.281        3.224        1.848      162.787       69.189        0.181      337.548        9.594      852.459
12/12/2021  15:37:00      206.307     -289.816      -51.199      166.477      200.450       94.809    27714.457    40180.306     8988.833       10.302        3.844      355.747      102.184        0.083      337.462        9.448      852.346
12/12/2021  15:38:00       28.434     -235.574      -48.290      138.280      192.695       73.874    19121.475    37131.453     5457.441        6.016        3.086      237.283       67.878        0.082      337.571        9.633      852.356
12/12/2021  15:39:00      201.577     -326.213      -84.075      118.477      191.554       75.970    14036.890    36692.992     5771.457       10.530        2.825      383.469       56.654        0.022      337.436        9.406      852.356
12/12/2021  15:40:00      165.794     -177.235      -70.088      186.319      191.919       84.172    34714.861    36832.985     7084.898        7.121        3.932      242.693       92.504        0.145      337.416        9.373      852.358
12/12/2021  15:41:00       82.077     -209.213      -56.667      147.445      131.157       66.664    21740.023    17202.050     4444.111        4.854        2.169      224.737       63.513        0.080      337.546        9.590      852.393
12/12/2021  15:42:00       78.799     -313.720      -38.527      158.439      154.856       64.536    25102.968    23980.246     4164.940        7.967        2.662      323.465       63.839        0.039      337.545        9.588      852.365
12/12/2021  15:43:00      130.445     -231.622      -50.573      135.105      134.969       93.929    18253.240    18216.549     8822.718        5.925        2.265      265.828       78.131        0.086      337.506        9.522      852.378
12/12/2021  15:44:00      176.292     -328.098      -82.233      162.601      196.001       99.458    26439.116    38416.233     9891.913       11.010        3.737      372.461       87.219        0.055      337.471        9.465      852.316
12/12/2021  15:45:00      244.072     -401.338      -99.988      137.891      198.044       89.780    19013.868    39221.572     8060.459       14.846        3.315      469.727       68.301        0.021      337.439        9.408      852.249
12/12/2021  15:46:00       76.768     -255.508      -67.321       93.937      122.202       67.037     8824.184    14933.376     4493.955        5.198        1.413      266.792       50.240        0.035      337.489        9.495      852.212
12/12/2021  15:47:00      184.885     -301.494      -60.328      115.969      184.353       69.764    13448.734    33985.887     4866.987        9.050        2.615      353.668       66.424        0.035      337.510        9.530      852.248
12/12/2021  15:48:00      258.462     -368.030      -80.191      162.921      206.956      103.413    26543.373    42830.763    10694.172       14.436        4.003      449.721      109.126        0.059      337.439        9.411      852.188
12/12/2021  15:49:00      203.121     -546.495      -84.129      166.465      229.728       83.138    27710.473    52775.121     6912.004       21.718        4.370      583.022       71.372        0.015      337.368        9.290      852.126
12/12/2021  15:50:00      205.953     -415.596      -70.601      141.786      174.312       77.590    20103.326    30384.686     6020.161       13.830        2.825      463.829       86.734        0.035      337.374        9.300      852.041
12/12/2021  15:51:00      172.650     -266.498      -55.676      151.024      223.421       97.225    22808.310    49916.818     9452.620        9.304        4.109      317.536       81.078        0.065      337.370        9.294      852.049
12/12/2021  15:52:00       57.600     -216.528      -63.099      139.774      191.729       73.283    19536.787    36759.825     5370.326        5.791        3.083      224.058       33.850        0.023      337.454        9.436      852.127
12/12/2021  15:53:00       66.183     -287.079      -36.723       95.037      133.424       63.839     9032.029    17801.959     4075.418        5.952        1.545      294.609       63.264        0.046      337.507        9.523      852.249
12/12/2021  15:54:00       47.223     -201.897      -39.304       81.376      125.684       51.463     6621.987    15796.582     2648.435        3.480        1.253      207.346       45.685        0.049      337.531        9.567      852.351
12/12/2021  15:55:00       22.389     -129.032      -33.963       72.073      128.640       49.927     5194.576    16548.197     2492.710        2.127        1.212      130.960       35.687        0.074      337.552        9.602      852.408
12/12/2021  15:56:00       34.366     -164.047      -48.252       90.198      109.623       42.977     8135.636    12017.156     1846.988        2.621        1.100      167.608       29.404        0.031      337.557        9.609      852.468
12/12/2021  15:57:00      -80.724      -19.723       -3.601       64.679       54.347       29.001     4183.355     2953.559      841.071        0.745        0.399       83.098       20.781        0.063      337.643        9.756      852.519
12/12/2021  15:58:00       15.140      -44.098      -16.301       56.663       71.801       43.452     3210.682     5155.412     1888.053        0.634        0.513       46.624       40.126        0.741      337.597        9.676      852.584
12/12/2021  15:59:00      -79.201      -13.815      -10.415       59.338       39.578       38.216     3520.958     1566.426     1460.445        0.656        0.327       80.397       29.197        0.132      337.595        9.675      852.634
12/12/2021  16:00:00      -66.076      -13.969      -24.985       76.324       75.026       51.152     5825.429     5628.918     2616.522        0.963        0.704       67.537       31.724        0.221      337.547        9.593      852.632
12/12/2021  16:01:00       21.221     -104.435      -26.829       95.788      102.188       41.125     9175.255    10442.326     1691.263        1.669        1.065      106.569       50.508        0.225      337.494        9.504      852.650
12/12/2021  16:02:00       40.115        6.192       -1.376       67.140       57.726       37.077     4507.722     3332.294     1374.730        0.543        0.461       40.590        8.778        0.047      337.394        9.338      852.596
12/12/2021  16:03:00      128.802     -183.106      -28.937      114.398       97.531       68.827    13086.884     9512.301     4737.177        3.914        1.367      223.870       61.549        0.076      337.409        9.360      852.572
12/12/2021  16:04:00      -15.840      -35.411      -20.734       34.927       50.429       31.044     1219.892     2543.109      963.721        0.333        0.236       38.793       14.969        0.149      337.481        9.482      852.640
12/12/2021  16:05:00     -122.959      -74.381      -31.545      131.414      105.617       46.175    17269.595    11154.883     2132.098        2.610        1.528      143.706       40.516        0.079      337.470        9.463      852.682
12/12/2021  16:06:00       -1.603      -66.474      -36.552       62.700       46.490       36.707     3931.281     2161.282     1347.435        0.660        0.372       66.493       24.455        0.135      337.500        9.514      852.689
12/12/2021  16:07:00      -62.874      -54.546      -16.630       56.906       60.044       48.237     3238.344     3605.290     2326.799        0.819        0.459       83.237        7.225        0.008      337.583        9.655      852.724
12/12/2021  16:08:00      -35.938      -50.944      -47.924       98.803      132.177       56.852     9761.993    17470.716     3232.124        1.832        1.523       62.345       41.694        0.447      337.448        9.425      852.720
12/12/2021  16:09:00       -8.895       31.843       -4.894       42.899       54.230       36.222     1840.318     2940.893     1312.048        0.360        0.305       33.062       21.987        0.442      337.527        9.560      852.682
12/12/2021  16:10:00      -39.844       93.119       -5.805       90.402       51.171       31.873     8172.440     2618.456     1015.886        1.105        0.590      101.285       19.023        0.035      337.502        9.519      852.657
12/12/2021  16:11:00      -97.178       26.551      -19.824      130.314       66.788       49.851    16981.679     4460.652     2485.169        1.723        1.196      100.740       64.078        0.405      337.467        9.459      852.697
12/12/2021  16:12:00     -194.116       46.515      -39.340      170.588       93.258       57.120    29100.357     8697.130     3262.657        4.122        2.053      199.611       71.636        0.129      337.427        9.391      852.704
12/12/2021  16:13:00      -16.755      -36.048       -1.546       74.541       83.484       53.178     5556.319     6969.499     2827.887        0.847        0.768       39.752       43.796        1.214      337.398        9.344      852.694
12/12/2021  16:14:00        0.530       60.325        2.160       61.168      102.105       45.490     3741.560    10425.487     2069.320        0.994        0.812       60.327       26.528        0.193      337.471        9.466      852.773
12/12/2021  16:15:00      -55.221       12.545      -15.057      138.804      120.953       91.099    19266.584    14629.589     8299.001        2.281        2.110       56.628       61.424        1.177      337.490        9.498      852.890
12/12/2021  16:16:00     -261.263      143.402      -26.270      221.181      156.551       88.331    48921.078    24508.252     7802.308        8.536        4.062      298.031       78.069        0.069      337.289        9.161      853.036
12/12/2021  16:17:00     -196.927       99.362      -11.000      188.397      144.539       77.649    35493.244    20891.601     6029.335        5.558        3.121      220.575       57.964        0.069      337.312        9.199      853.152
12/12/2021  16:18:00     -298.173       52.350      -13.721      176.659       96.879       74.660    31208.545     9385.612     5574.124        6.899        2.308      302.734       70.004        0.053      337.247        9.089      853.213
12/12/2021  16:19:00     -193.002       41.914       -4.421      187.390      124.381       78.625    35115.173    15470.635     6181.846        4.789        2.838      197.501       68.550        0.120      337.192        8.999      853.255
12/12/2021  16:20:00     -313.860      101.148      -34.394      194.628      133.601       67.166    37880.227    17849.095     4511.253        8.507        3.012      329.757       71.000        0.046      337.116        8.870      853.309
12/12/2021  16:21:00     -218.197       82.635      -22.151      145.691      105.292       61.947    21225.859    11086.302     3837.448        4.553        1.807      233.320       52.047        0.050      337.222        9.049      853.320
12/12/2021  16:22:00     -224.241       68.092      -30.701      140.312      120.119       70.133    19687.587    14428.563     4918.655        4.744        1.952      234.352       51.184        0.048      337.198        9.010      853.269
12/12/2021  16:23:00     -301.217      101.604      -26.505      180.265      102.102       70.990    32495.579    10424.756     5039.518        7.485        2.398      317.892       54.017        0.029      337.176        8.971      853.244
12/12/2021  16:24:00     -296.424       64.277       -0.627      244.885      111.608       73.907    59968.706    12456.272     5462.299        8.493        3.894      303.313       73.220        0.058      337.074        8.800      853.258
12/12/2021  16:25:00     -395.793      157.866       -7.003      174.869      140.182       85.123    30579.295    19651.126     7245.962       11.954        2.874      426.115       82.805        0.038      337.082        8.812      853.266
12/12/2021  16:26:00     -247.224       20.264        8.744      223.361      161.841       99.209    49890.002    26192.517     9842.427        7.375        4.296      248.053       98.122        0.156      337.014        8.699      853.279
12/12/2021  16:27:00     -314.856      -41.685      -24.043      152.908      109.456       85.811    23380.904    11980.522     7363.446        7.208        2.136      317.603       77.692        0.060      336.914        8.532      853.383
12/12/2021  16:28:00     -186.827       13.500      -11.273      117.325       62.964       54.929    13765.041     3964.510     3017.155        2.798        1.037      187.314       58.377        0.097      336.925        8.552      853.423
12/12/2021  16:29:00     -110.502      -98.497      -17.795      129.992       93.920       51.564    16898.012     8820.878     2658.814        2.530        1.419      148.028       35.045        0.056      336.983        8.649      853.474
12/12/2021  16:30:00        0.853     -151.259      -50.832       98.480       82.732       56.561     9698.292     6844.517     3199.113        2.260        0.987      151.262       36.212        0.057      337.112        8.863      853.499
12/12/2021  16:31:00      -23.575      -39.668      -30.768       50.304      103.112       36.982     2530.509    10632.000     1367.670        0.880        0.727       46.144       46.865        1.031      337.041        8.748      853.530
12/12/2021  16:32:00       53.404      -43.789      -22.672       82.597       98.773       42.429     6822.299     9756.039     1800.209        1.183        0.919       69.061       57.221        0.687      336.938        8.574      853.529
12/12/2021  16:33:00       21.714      -61.834      -42.161       81.998       71.731       46.991     6723.718     5145.322     2208.197        1.007        0.704       65.536       34.906        0.284      337.048        8.759      853.506
12/12/2021  16:34:00        0.381      -22.759      -28.878       46.961       42.511       36.298     2205.343     1807.199     1317.571        0.334        0.267       22.763       22.678        0.993      336.976        8.638      853.522
12/12/2021  16:35:00      -11.449      -48.463      -32.626       28.376       37.533       20.435      805.190     1408.762      417.581        0.309        0.132       49.797       19.250        0.149      336.970        8.628      853.530
12/12/2021  16:36:00       66.834     -138.267      -37.483       34.051       26.792       21.395     1159.470      717.797      457.737        1.366        0.117      153.573       13.049        0.007      336.890        8.495      853.482
12/12/2021  16:37:00       10.871      -79.528      -34.104       63.447       54.717       24.657     4025.559     2993.934      607.960        0.762        0.381       80.268       20.303        0.064      336.915        8.537      853.469
12/12/2021  16:38:00      -33.607      -10.483       -2.691       69.176       53.367       34.935     4785.360     2848.047     1220.461        0.505        0.443       35.204       25.893        0.541      336.959        8.610      853.444
12/12/2021  16:39:00       -0.446      -24.535      -13.800       24.316       24.968       23.770      591.245      623.422      565.015        0.129        0.089       24.540       15.865        0.418      336.950        8.595      853.412
12/12/2021  16:40:00       -0.976      -30.421      -32.633       30.652       23.264       20.646      939.531      541.196      426.273        0.195        0.095       30.437       17.783        0.341      336.965        8.619      853.418
12/12/2021  16:41:00        8.687       -9.304       -8.614       19.188       19.554       16.732      368.180      382.372      279.955        0.063        0.052       12.729        9.661        0.576      336.944        8.585      853.461
12/12/2021  16:42:00      -21.641       -6.208      -15.147       37.808       37.029       25.887     1429.438     1371.133      670.124        0.210        0.174       22.514       14.493        0.414      336.906        8.520      853.487
12/12/2021  16:43:00      -62.434       -2.000       -0.856       39.901       34.478       21.805     1592.090     1188.755      475.463        0.358        0.163       62.466       19.136        0.094      336.875        8.469      853.490
12/12/2021  16:44:00      -32.706       17.185       -0.302       32.024       24.980       16.858     1025.513      623.994      284.196        0.165        0.097       36.946       10.084        0.074      336.740        8.245      853.478
12/12/2021  16:45:00      -92.856      -72.378       -6.304       62.342       59.532       27.113     3886.508     3544.004      735.127        1.103        0.408      117.732       24.227        0.042      336.798        8.340      853.467
12/12/2021  16:46:00      -88.463      -69.337      -26.311       59.489       52.117       24.009     3538.986     2716.190      576.421        1.008        0.342      112.398       14.420        0.016      336.802        8.346      853.475
12/12/2021  16:47:00      -76.539     -123.714      -23.186       78.372       98.163       39.130     6142.133     9635.917     1531.169        1.950        0.865      145.476       35.279        0.059      336.782        8.314      853.482
12/12/2021  16:48:00      149.083     -374.427      -81.724      152.275      144.052       64.119    23187.553    20750.886     4111.285       10.857        2.402      403.016       63.974        0.025      336.650        8.091      853.399
12/12/2021  16:49:00      -93.625      -56.437      -50.089      113.666      134.257       67.260    12919.920    18024.895     4523.859        2.496        1.773      109.320       57.084        0.273      336.718        8.206      853.267
12/12/2021  16:50:00       12.857      -16.277      -20.944       76.831       64.944       47.580     5902.963     4217.701     2263.851        0.662        0.619       20.742       31.933        2.370      336.633        8.066      853.261
12/12/2021  16:51:00       84.905      -83.287      -25.579       44.930       72.051       22.150     2018.681     5191.418      490.602        1.125        0.385      118.935       20.235        0.029      336.566        7.956      853.203
12/12/2021  16:52:00      -51.228       27.443      -12.378       87.656       48.171       29.373     7683.540     2320.479      862.758        0.720        0.543       58.115       37.160        0.409      336.666        8.121      853.216
12/12/2021  16:53:00      -82.049       32.707      -12.656       72.896       53.699       36.542     5313.805     2883.571     1335.350        0.875        0.477       88.328       20.673        0.055      336.811        8.364      853.218
12/12/2021  16:54:00     -132.871       51.339       -5.061      107.584       75.054       42.365    11574.420     5633.135     1794.788        1.966        0.950      142.444       33.459        0.055      336.757        8.272      853.295
12/12/2021  16:55:00     -143.764       94.583      -26.946       61.715       62.795       40.248     3808.743     3943.159     1619.890        1.985        0.469      172.087       26.891        0.024      336.712        8.197      853.337
12/12/2021  16:56:00     -126.834       75.490      -34.952       82.083       50.022       38.283     6737.628     2502.243     1465.555        1.685        0.535      147.599       33.647        0.052      336.701        8.179      853.315
12/12/2021  16:57:00      -87.960       72.876      -16.206       81.549       55.647       38.993     6650.263     3096.616     1520.458        1.229        0.563      114.227       25.342        0.049      336.486        7.819      853.284
12/12/2021  16:58:00     -219.977      109.656      -38.732      117.631       81.432       56.661    13837.053     6631.195     3210.413        4.279        1.184      245.793       44.897        0.033      336.543        7.914      853.275
12/12/2021  16:59:00     -113.953       36.753      -20.589      142.736       82.964       60.903    20373.652     6882.988     3709.140        2.286        1.548      119.734       21.378        0.032      336.339        7.572      853.263
12/12/2021  17:00:00      -56.256       30.086       17.979      118.267       85.190       63.663    13987.122     7257.399     4053.031        1.484        1.265       63.795       54.778        0.737      336.290        7.492      853.242
12/12/2021  17:01:00     -125.772       17.762       -7.458      191.471       62.920       58.050    36661.042     3958.969     3369.832        3.008        2.199      127.020       82.464        0.421      336.249        7.422      853.200
12/12/2021  17:02:00     -207.477       38.216      -23.562      176.729      101.880       58.071    31233.039    10379.469     3372.270        4.502        2.249      210.967       63.469        0.091      336.219        7.371      853.219
12/12/2021  17:03:00     -233.948       63.610      -19.574       92.565       57.980       44.372     8568.279     3361.637     1968.912        3.653        0.695      242.442       34.803        0.021      336.225        7.380      853.210
12/12/2021  17:04:00      -63.572       11.151      -15.001       99.052      119.969       57.700     9811.243    14392.539     3329.280        1.596        1.377       64.543       38.719        0.360      336.211        7.359      853.171
12/12/2021  17:05:00     -100.735       16.569       -6.796      109.015       86.212       52.611    11884.378     7432.454     2767.901        1.627        1.104      102.089       35.459        0.121      336.266        7.450      853.188
12/12/2021  17:06:00     -187.601       15.630      -14.673      166.488       99.634       72.103    27718.090     9926.973     5198.860        3.924        2.142      188.251       59.967        0.101      336.182        7.311      853.239
12/12/2021  17:07:00     -332.773       35.232      -13.760       93.082       89.447       52.426     8664.294     8000.781     2748.435        6.579        0.971      334.633       41.740        0.016      336.140        7.238      853.311
12/12/2021  17:08:00     -247.112       37.445       -6.193      130.647       93.470       60.565    17068.648     8736.569     3668.098        4.598        1.474      249.933       65.717        0.069      336.187        7.317      853.372
12/12/2021  17:09:00     -227.092      -17.804      -11.575       79.639       65.104       40.556     6342.371     4238.565     1644.764        3.212        0.611      227.789       34.200        0.023      336.120        7.205      853.441
12/12/2021  17:10:00     -238.213       23.247      -12.725       85.587       69.659       48.030     7325.067     4852.308     2306.885        3.596        0.724      239.345       41.095        0.029      336.154        7.261      853.448
12/12/2021  17:11:00     -228.849        8.791      -27.177      100.330       68.172       58.064    10066.053     4647.355     3371.388        3.563        0.904      229.017       47.992        0.044      336.204        7.345      853.419
12/12/2021  17:12:00     -227.987       -6.152      -31.180       82.667       57.033       44.317     6833.901     3252.777     1963.957        3.252        0.603      228.070       31.164        0.019      336.221        7.375      853.391
12/12/2021  17:13:00     -250.244       33.476      -10.928       67.958       81.918       39.896     4618.233     6710.639     1591.701        3.839        0.646      252.473       31.958        0.016      336.262        7.443      853.367
12/12/2021  17:14:00     -213.557      -12.519       -2.394      144.659       91.433       66.582    20926.114     8359.981     4433.116        3.974        1.686      213.923       67.367        0.099      336.339        7.572      853.382
12/12/2021  17:15:00     -224.393      -22.663       -9.159      146.066       70.289       77.155    21335.205     4940.552     5952.915        4.158        1.611      225.535       77.372        0.118      336.465        7.782      853.411
12/12/2021  17:16:00     -295.139      -34.307      -27.881       85.870      104.279       53.849     7373.646    10874.146     2899.767        5.510        1.057      297.126       31.693        0.011      336.464        7.778      853.422
12/12/2021  17:17:00     -192.846       42.351      -11.344       89.280       56.021       48.353     7970.867     3138.386     2337.976        2.628        0.672      197.442       33.176        0.028      336.493        7.829      853.384
12/12/2021  17:18:00     -199.663       97.484      -13.041       90.264       52.788       37.815     8147.519     2786.563     1429.964        3.095        0.618      222.190       27.247        0.015      336.470        7.789      853.337
12/12/2021  17:19:00      -22.077      -16.813      -12.960       59.304       66.732       33.177     3516.975     4453.199     1100.733        0.500        0.454       27.750       37.013        1.779      336.494        7.832      853.270
12/12/2021  17:20:00       -5.519        5.789      -14.462       67.595       52.775       36.125     4569.032     2785.198     1305.044        0.446        0.433        7.999       20.261        6.416      336.488        7.824      853.175
12/12/2021  17:21:00      -72.180      -10.812       -7.736       69.791       48.377       43.017     4870.759     2340.299     1850.423        0.722        0.453       72.985       34.193        0.219      336.514        7.869      853.127
12/12/2021  17:22:00     -225.058      -84.508      -41.873       78.325       69.865       40.347     6134.764     4881.094     1627.909        3.609        0.632      240.401       34.238        0.020      336.338        7.568      853.058
12/12/2021  17:23:00     -149.237      -31.768      -31.264       55.471       57.613       30.121     3077.053     3319.277      907.270        1.578        0.365      152.581       20.687        0.018      336.389        7.658      853.067
12/12/2021  17:24:00     -155.123      -18.865      -16.809       90.528       58.028       47.764     8195.362     3367.257     2281.433        1.927        0.692      156.266       49.898        0.102      336.415        7.698      853.113
12/12/2021  17:25:00     -170.438      -12.146      -12.156       89.307       57.006       55.047     7975.725     3249.734     3030.147        2.180        0.713      170.870       52.965        0.096      336.409        7.689      853.147
12/12/2021  17:26:00     -325.663       80.461      -18.049      108.137       79.970       55.380    11693.507     6395.269     3066.985        6.700        1.058      335.456       50.339        0.023      336.336        7.564      853.108
12/12/2021  17:27:00     -208.185       29.877       -9.503       89.245       77.464       35.162     7964.606     6000.609     1236.388        2.976        0.760      210.318       29.747        0.020      336.318        7.536      853.050
12/12/2021  17:28:00     -137.562      -92.915      -25.706       55.375       57.829       38.570     3066.377     3344.231     1487.663        1.806        0.395      166.001       22.117        0.018      336.334        7.565      853.048
12/12/2021  17:29:00     -107.489      -59.824      -20.627       59.248       53.852       33.665     3510.315     2900.012     1133.324        1.155        0.377      123.015       30.642        0.062      336.322        7.546      853.048
12/12/2021  17:30:00      -12.126       20.025      -21.653       32.580       35.414       17.618     1061.482     1254.174      310.399        0.182        0.131       23.411       15.016        0.411      336.324        7.549      853.003
12/12/2021  17:31:00       -1.190       74.945      -11.676       32.989       22.687       22.055     1088.299      514.680      486.435        0.392        0.104       74.954       15.256        0.041      336.412        7.697      852.951
12/12/2021  17:32:00       38.173       20.980      -15.273       44.581       28.545       22.016     1987.450      814.808      484.694        0.271        0.164       43.559       20.518        0.222      336.468        7.789      852.870
12/12/2021  17:33:00       93.542        6.227      -27.397       78.190       56.963       50.211     6113.644     3244.829     2521.099        1.071        0.594       93.749       20.909        0.050      336.347        7.587      852.723
12/12/2021  17:34:00       70.585       -7.277      -20.606       65.986       61.318       37.120     4354.159     3759.856     1377.868        0.747        0.475       70.959       33.239        0.219      336.277        7.472      852.588
12/12/2021  17:35:00       73.743      -33.926      -32.749       69.365       99.558       38.288     4811.466     9911.753     1465.988        1.192        0.809       81.173       38.596        0.226      336.241        7.410      852.531
12/12/2021  17:36:00      141.934      -85.768      -35.949       80.047       77.381       50.862     6407.500     5987.847     2586.992        2.189        0.749      165.836       49.986        0.091      336.445        7.750      852.537
12/12/2021  17:37:00       63.055      -30.063      -20.413       56.964       60.057       35.292     3244.872     3606.845     1245.558        0.670        0.405       69.855       32.412        0.215      336.477        7.805      852.562
12/12/2021  17:38:00      -10.724     -114.382       -9.881       77.001       67.620       43.526     5929.193     4572.405     1894.492        1.284        0.620      114.883       38.172        0.110      336.608        8.024      852.592
12/12/2021  17:39:00       -0.156      -49.896      -13.051       46.290       32.912       23.189     2142.755     1083.174      537.745        0.321        0.188       49.896       14.452        0.084      336.686        8.156      852.677
12/12/2021  17:40:00       20.582      -32.661       -6.167       51.664       48.572       24.996     2669.199     2359.242      624.812        0.359        0.283       38.605       18.864        0.239      336.673        8.134      852.704
12/12/2021  17:41:00       45.788      -34.945      -12.568       73.171       68.369       45.714     5353.939     4674.277     2089.781        0.779        0.606       57.599       35.178        0.373      336.564        7.951      852.682
12/12/2021  17:42:00      -79.935      -51.823      -41.472       55.777       57.330       31.474     3111.102     3286.676      990.609        0.909        0.369       95.264       27.082        0.081      336.607        8.024      852.656
12/12/2021  17:43:00      -96.709       -0.984       -6.888       73.204       45.438       34.586     5358.781     2064.577     1196.202        0.901        0.431       96.714       21.285        0.048      336.549        7.926      852.639
12/12/2021  17:44:00       -9.839      -24.438        8.616       33.399       40.692       26.826     1115.481     1655.869      719.612        0.213        0.175       26.344       14.959        0.322      336.613        8.035      852.610
12/12/2021  17:45:00      -63.219        4.739       -9.838       68.658       38.293       24.388     4713.908     1466.333      594.777        0.544        0.339       63.397       17.214        0.074      336.553        7.932      852.584
12/12/2021  17:46:00     -184.726       70.880      -14.695       42.817       37.639       25.594     1833.264     1416.683      655.046        2.163        0.195      197.858       15.834        0.006      336.545        7.917      852.575
12/12/2021  17:47:00     -170.373       32.037       -6.290       99.707       58.225       38.059     9941.531     3390.139     1448.500        2.243        0.739      173.358       47.015        0.074      336.499        7.840      852.638
12/12/2021  17:48:00      -99.834       44.946      -15.217       87.077       67.223       37.269     7582.347     4518.922     1388.978        1.285        0.675      109.485       34.827        0.101      336.448        7.756      852.739
12/12/2021  17:49:00     -151.143       36.166      -23.227       62.590       44.311       36.594     3917.519     1963.484     1339.154        1.595        0.361      155.409       35.882        0.053      336.418        7.707      852.776
12/12/2021  17:50:00      -34.880       35.705       -3.183       49.256       37.041       21.190     2426.193     1372.057      449.010        0.337        0.212       49.914       19.531        0.153      336.397        7.672      852.712
12/12/2021  17:51:00      -25.874      113.155      -14.573       43.350       53.623       28.998     1879.207     2875.449      840.887        0.964        0.280      116.075       13.946        0.014      336.331        7.559      852.709
12/12/2021  17:52:00      -79.149       58.410      -26.638       27.168       44.435       23.471      738.083     1974.428      550.910        0.682        0.163       98.368        9.466        0.009      336.596        8.004      852.758
12/12/2021  17:53:00      -45.150       33.281      -16.934       43.759       38.399       25.053     1914.890     1474.475      627.630        0.372        0.201       56.090       13.796        0.060      336.369        7.624      852.827
12/12/2021  17:54:00      -93.990       19.486      -13.194       39.025       30.220       23.717     1522.986      913.260      562.482        0.619        0.150       95.989       20.768        0.047      336.419        7.708      852.874
12/12/2021  17:55:00     -108.178       50.977      -29.300       23.796       26.375       20.979      566.261      695.662      440.119        0.843        0.085      119.587        9.619        0.006      336.523        7.882      852.883
12/12/2021  17:56:00      -19.802       59.714       -8.454       32.433       30.234       21.451     1051.890      914.065      460.147        0.323        0.121       62.912       14.393        0.052      336.365        7.618      852.888
12/12/2021  17:57:00      -61.141       18.084      -22.195       71.827       56.297       36.822     5159.057     3169.340     1355.863        0.712        0.484       63.759       30.963        0.236      336.412        7.696      852.906
12/12/2021  17:58:00      -56.320       31.246      -10.935       53.733       39.899       37.991     2887.259     1591.968     1443.340        0.509        0.296       64.407       31.892        0.245      336.325        7.550      852.932
12/12/2021  17:59:00      -72.026       50.832      -24.564       50.794       38.505       20.927     2580.027     1482.630      437.956        0.644        0.225       88.157       13.266        0.023      336.316        7.536      852.961
12/12/2021  18:00:00      -47.351      -11.827       -1.314       44.203       32.822       23.423     1953.928     1077.297      548.642        0.298        0.179       48.806       20.622        0.179      336.232        7.394      852.994
12/12/2021  18:01:00      -81.436       -3.173        0.959       81.779       49.481       43.092     6687.795     2448.385     1856.931        0.882        0.550       81.498       40.570        0.248      336.291        7.493      853.020
12/12/2021  18:02:00     -146.602       71.706       -9.237       54.611       63.155       39.206     2982.342     3988.517     1537.129        1.761        0.425      163.199       29.101        0.032      336.256        7.434      852.963
12/12/2021  18:03:00      -52.875       34.170      -12.082      123.708       84.505       55.727    15303.573     7141.098     3105.473        1.483        1.278       62.955       27.722        0.194      336.357        7.603      852.854
12/12/2021  18:04:00     -189.359       79.155       -7.092      112.035       84.239       44.124    12551.926     7096.249     1946.962        3.188        1.080      205.238       32.180        0.025      336.360        7.605      852.815
12/12/2021  18:05:00      -76.509      -16.032      -15.662       60.957       62.990       39.460     3715.737     3967.718     1557.084        0.780        0.462       78.171       18.971        0.059      336.354        7.600      852.888
12/12/2021  18:06:00      -10.235      -18.081       -2.819       45.361       33.306       26.180     2057.641     1109.292      685.368        0.215        0.193       20.777       22.745        1.198      336.334        7.565      852.986
12/12/2021  18:07:00      -80.716       60.914      -18.551       68.055       73.727       30.599     4631.438     5435.700      936.288        1.078        0.550      101.122       30.198        0.089      336.419        7.707      853.044
12/12/2021  18:08:00     -118.597       44.094       -6.057       64.202       70.864       44.835     4121.917     5021.705     2010.194        1.360        0.558      126.529       41.841        0.109      336.369        7.624      853.099
12/12/2021  18:09:00     -137.653       30.542      -21.129      141.172       64.495       40.090    19929.601     4159.653     1607.206        2.301        1.285      141.001       40.129        0.081      336.385        7.649      853.166
12/12/2021  18:10:00     -252.990       97.781      -37.459       75.571       54.150       40.232     5711.006     2932.220     1618.621        4.261        0.513      271.229       33.647        0.015      336.135        7.228      853.213
12/12/2021  18:11:00     -130.613       91.074      -27.300       67.305       67.000       51.518     4529.977     4488.943     2654.117        1.888        0.584      159.230       25.942        0.027      336.235        7.398      853.235
12/12/2021  18:12:00      -51.668       33.222      -29.426       40.944       60.455       33.893     1676.426     3654.754     1148.757        0.556        0.324       61.427       14.803        0.058      336.236        7.401      853.241
12/12/2021  18:13:00     -100.724     -104.452      -21.513       55.381       79.102       37.475     3067.051     6257.186     1404.382        1.612        0.536      145.105       29.736        0.042      336.277        7.469      853.336
12/12/2021  18:14:00       21.093     -113.361      -44.378       81.699       58.129       50.462     6674.725     3378.948     2546.370        1.393        0.630      115.306       28.679        0.062      336.452        7.762      853.440
12/12/2021  18:15:00       14.798      -39.574      -46.671      105.871      109.201       47.729    11208.598    11924.955     2278.046        1.468        1.271       42.250       38.009        0.809      336.391        7.660      853.436
12/12/2021  18:16:00       26.146        6.512      -13.196       90.771       35.187       32.535     8239.391     1238.096     1058.532        0.572        0.527       26.945       26.721        0.983      336.382        7.647      853.328
12/12/2021  18:17:00       49.639       19.795      -22.309      121.672      124.107       44.431    14804.018    15402.532     1974.116        1.776        1.609       53.440       34.287        0.412      336.412        7.695      853.283
12/12/2021  18:18:00     -178.802       59.050      -34.460      182.493      138.686       63.084    33303.611    19233.734     3979.563        4.657        2.826      188.300       46.395        0.061      336.506        7.852      853.206
12/12/2021  18:19:00     -149.908       39.483       -4.352      201.072      140.814       84.382    40430.138    19828.473     7120.303        4.570        3.369      155.020       77.452        0.250      336.630        8.061      853.193
12/12/2021  18:20:00     -131.686       59.634       14.216      135.298      114.290      100.758    18305.460    13062.116    10152.241        3.130        2.076      144.559       88.234        0.373      336.672        8.130      853.304
12/12/2021  18:21:00     -143.661      115.639      -16.992      135.901      107.016       52.484    18469.081    11452.346     2754.532        3.348        1.634      184.420       36.264        0.039      336.904        8.515      853.339
12/12/2021  18:22:00      -89.048       14.315      -16.778       53.247       98.814       29.330     2835.288     9764.302      860.244        1.094        0.673       90.191       24.117        0.072      336.941        8.580      853.277
12/12/2021  18:23:00      -68.595       26.471      -17.898       74.326       56.665       40.487     5524.377     3210.930     1639.158        0.805        0.519       73.526       33.353        0.206      336.695        8.170      853.188
12/12/2021  18:24:00      -46.999       17.988       -3.497       23.231       23.241       15.935      539.681      540.153      253.939        0.194        0.067       50.324        8.906        0.031      336.678        8.142      853.080
12/12/2021  18:25:00      -84.872       44.581      -12.099       66.959       42.236       32.439     4483.472     1783.859     1052.270        0.833        0.366       95.868       30.141        0.099      336.734        8.234      853.043
12/12/2021  18:26:00     -136.191       54.644        3.593       98.873       61.823       43.073     9775.895     3822.116     1855.255        1.850        0.773      146.744       26.552        0.033      336.829        8.393      853.003
12/12/2021  18:27:00     -250.257      116.400        2.886      126.941       94.238       63.653    16114.063     8880.750     4051.656        5.261        1.452      276.003       63.686        0.053      336.632        8.062      852.948
12/12/2021  18:28:00     -298.290       63.532        7.168      161.341       99.443       65.948    26030.798     9888.858     4349.172        6.666        2.013      304.980       66.805        0.048      336.508        7.854      852.978
12/12/2021  18:29:00     -204.673       21.123       -5.413      159.923       83.877       62.372    25575.446     7035.297     3890.260        3.943        1.825      205.760       49.297        0.057      336.513        7.863      853.044
12/12/2021  18:30:00       -6.226      -39.680      -28.154       54.514       80.533       64.502     2971.809     6485.615     4160.474        0.801        0.681       40.166       27.432        0.466      336.516        7.871      853.016
12/12/2021  18:31:00     -106.475       -4.790      -27.803       54.701       51.595       39.096     2992.227     2662.005     1528.504        0.966        0.359      106.583       18.797        0.031      336.656        8.106      852.946
12/12/2021  18:32:00       15.713      -17.172      -17.103       68.163       67.364       26.341     4646.254     4537.956      693.830        0.535        0.494       23.276       14.898        0.410      336.669        8.129      852.972
12/12/2021  18:33:00      -32.410      121.081      -18.218       58.408       52.737       29.573     3411.532     2781.192      874.573        1.155        0.353      125.344       21.069        0.028      336.710        8.196      853.026
12/12/2021  18:34:00       -3.533       -2.353       -9.117       50.279       53.082       30.518     2527.960     2817.743      931.351        0.319        0.314        4.245       25.342       35.641      336.547        7.923      853.137
12/12/2021  18:35:00      -26.445       18.071       -0.721       67.354       56.148       35.734     4536.526     3152.600     1276.897        0.499        0.448       32.029       30.908        0.931      336.466        7.786      853.203
12/12/2021  18:36:00      -25.866       22.992       -1.321       94.879      117.426       52.829     9001.977    13788.925     2790.953        1.339        1.279       34.608       51.981        2.256      336.337        7.570      853.225
12/12/2021  18:37:00       94.623     -107.481      -54.934       54.436       73.263       46.913     2963.233     5367.454     2200.787        1.703        0.527      143.198       27.199        0.036      336.212        7.361      853.282
12/12/2021  18:38:00       15.290      -79.218      -24.371       64.701       72.970       37.645     4186.282     5324.631     1417.170        0.901        0.546       80.680       44.822        0.309      336.299        7.507      853.347
12/12/2021  18:39:00       53.497        2.949      -39.262       43.580       59.334       33.532     1899.249     3520.545     1124.365        0.548        0.327       53.578       21.178        0.156      336.246        7.419      853.358
12/12/2021  18:40:00       56.786       10.410      -26.997       35.090       47.871       21.373     1231.341     2291.603      456.784        0.402        0.199       57.733       15.757        0.074      336.310        7.526      853.334
12/12/2021  18:41:00       18.510       -5.931       -3.970       52.357       46.179       26.481     2741.291     2132.529      701.221        0.298        0.279       19.438       14.273        0.539      336.171        7.293      853.347
12/12/2021  18:42:00      -83.749        0.166        1.085       48.756       44.904       28.374     2377.137     2016.332      805.091        0.611        0.260       83.750       21.547        0.066      336.101        7.175      853.345
12/12/2021  18:43:00      -42.819      -66.110      -20.386       50.618       42.764       25.261     2562.175     1828.791      638.120        0.582        0.251       78.765       18.344        0.054      336.174        7.299      853.257
12/12/2021  18:44:00      -43.305      -10.038        1.004       39.230       31.081       25.969     1538.954      965.999      674.381        0.258        0.159       44.453        6.585        0.022      336.121        7.210      853.142
12/12/2021  18:45:00      -61.102       32.125        2.176       50.055       21.139       18.945     2505.546      446.861      358.917        0.404        0.166       69.032       19.859        0.083      336.228        7.388      853.092
12/12/2021  18:46:00     -110.480       46.411      -26.336       51.877       47.660       29.951     2691.248     2271.469      897.059        1.046        0.293      119.832       19.413        0.026      336.193        7.330      853.123
12/12/2021  18:47:00     -206.664        2.102      -37.302      126.336       90.332       58.633    15960.772     8159.937     3437.852        3.583        1.378      206.675       51.488        0.062      335.993        6.993      853.169
12/12/2021  18:48:00     -225.924      -58.274      -26.976      114.468       78.771       67.252    13102.817     6204.846     4522.797        3.949        1.192      233.319       64.985        0.078      335.891        6.825      853.163
12/12/2021  18:49:00     -132.440      -35.357      -12.874      109.916       57.415       57.618    12081.458     3296.494     3319.858        1.882        0.935      137.078       58.921        0.185      335.894        6.829      853.155
12/12/2021  18:50:00     -300.293      -11.928       -1.147      138.909       83.143       64.121    19295.822     6912.684     4111.513        6.031        1.516      300.530       64.169        0.046      335.882        6.809      853.128
12/12/2021  18:51:00     -209.419       51.631       -5.678      155.706       88.469       65.806    24244.439     7826.809     4330.425        4.147        1.820      215.690       60.406        0.078      335.897        6.834      853.004
12/12/2021  18:52:00     -109.991       37.801       -7.754      172.891      110.102       83.122    29891.333    12122.460     6909.243        3.125        2.446      116.306       78.208        0.452      335.864        6.781      852.906
12/12/2021  18:53:00     -138.138       14.728      -44.533      191.671      137.484       91.052    36737.731    18901.790     8290.443        4.259        3.196      138.921       77.004        0.307      335.844        6.747      852.853
12/12/2021  18:54:00     -271.562       21.347      -25.997      140.807       93.141       69.808    19826.669     8675.268     4873.153        5.412        1.669      272.399       57.846        0.045      335.795        6.664      852.924
12/12/2021  18:55:00     -164.752       48.954      -13.851      136.525       83.852       57.113    18639.026     7031.204     3261.899        2.933        1.447      171.872       54.766        0.102      335.784        6.647      852.997
12/12/2021  18:56:00      -99.714      -17.382      -12.874       83.997       50.710       39.337     7055.421     2571.514     1547.438        1.079        0.559      101.217       34.696        0.118      335.792        6.662      853.037
12/12/2021  18:57:00      -24.726      -27.913        3.061       45.672       58.835       33.189     2085.970     3461.558     1101.488        0.402        0.332       37.289       29.428        0.623      335.861        6.777      853.035
12/12/2021  18:58:00        4.782       13.844      -20.808       38.454       39.912       21.566     1478.679     1592.991      465.082        0.209        0.177       14.647       17.051        1.355      335.910        6.860      853.035
12/12/2021  18:59:00       12.736       27.280        2.493       51.655       46.291       34.484     2668.277     2142.839     1189.172        0.346        0.300       30.107       19.750        0.430      335.917        6.871      852.995
12/12/2021  19:00:00        2.714      -42.328      -33.059       52.098       46.649       21.027     2714.224     2176.092      442.123        0.411        0.267       42.415       14.623        0.119      335.979        6.975      853.011
12/12/2021  19:01:00       28.700      -98.524      -17.951       50.038       44.529       43.076     2503.803     1982.839     1855.554        0.860        0.317      102.619       37.563        0.134      335.909        6.858      853.104
12/12/2021  19:02:00       94.798     -105.948      -30.318       38.480       61.972       29.903     1480.730     3840.526      894.185        1.367        0.311      142.168       20.642        0.021      335.905        6.851      853.167
12/12/2021  19:03:00       53.054       24.920      -24.441       77.787       52.309       48.185     6050.825     2736.185     2321.825        0.757        0.555       58.615       32.598        0.309      336.023        7.046      853.122
12/12/2021  19:04:00      158.056        0.322       -9.923      117.526       75.779       61.889    13812.417     5742.489     3830.196        2.423        1.169      158.056       61.846        0.153      335.991        6.991      852.965
12/12/2021  19:05:00      114.727       24.433      -13.376       83.862       75.964       51.615     7032.873     5770.599     2664.152        1.470        0.773      117.299       39.113        0.111      335.985        6.984      852.843
12/12/2021  19:06:00       -0.873       44.808      -10.846       59.443       35.163       24.497     3533.415     1236.444      600.113        0.375        0.268       44.817       23.062        0.265      335.994        6.998      852.980
12/12/2021  19:07:00      -24.793       46.536        2.934       44.041       48.809       37.584     1939.566     2382.314     1412.591        0.426        0.287       52.729       27.261        0.267      336.011        7.028      853.136
12/12/2021  19:08:00      -27.411       -6.701       -9.174       79.866       63.811       26.660     6378.543     4071.881      710.749        0.602        0.558       28.218       32.167        1.299      335.878        6.805      853.121
12/12/2021  19:09:00       99.732      187.360      -17.479       76.198       57.543       38.653     5806.132     3311.182     1494.021        2.798        0.531      212.251       40.457        0.036      335.891        6.823      852.937
12/12/2021  19:10:00      152.747      208.627      -21.083       77.271       84.049       48.382     5970.878     7064.207     2340.776        4.134        0.769      258.567       47.523        0.034      335.826        6.716      852.736
12/12/2021  19:11:00       33.823      163.861      -17.686       61.687       92.956       38.593     3805.229     8640.815     1489.432        2.112        0.697      167.315       15.242        0.008      335.944        6.915      852.787
12/12/2021  19:12:00      -44.214      -25.137      -18.012       74.647       81.515       60.511     5572.242     6644.626     3661.627        0.939        0.794       50.860       37.123        0.533      335.903        6.846      853.037
12/12/2021  19:13:00      -84.963      139.748      -13.149      132.663      117.016       56.270    17599.407    13692.627     3166.306        3.068        1.723      163.549       63.274        0.150      335.989        6.989      853.257
12/12/2021  19:14:00      -38.374      120.440      -23.340       56.826       91.077       44.178     3229.158     8295.005     1951.731        1.500        0.674      126.406       27.963        0.049      335.872        6.794      853.194
12/12/2021  19:15:00       19.931      245.782      -25.739       79.608       85.365       40.386     6337.499     7287.256     1631.065        3.836        0.763      246.589       31.207        0.016      335.873        6.795      852.971
12/12/2021  19:16:00      -11.452       35.770      -16.086       47.101       83.038       36.470     2218.462     6895.351     1330.034        0.605        0.522       37.558       26.812        0.510      335.895        6.835      852.936
12/12/2021  19:17:00      -95.210       -1.160      -12.064       75.436       60.929       38.177     5690.539     3712.400     1457.519        1.003        0.543       95.217       22.566        0.056      335.958        6.939      853.220
12/12/2021  19:18:00      -16.552      -41.854      -24.791       52.094       55.383       32.584     2713.773     3067.268     1061.716        0.474        0.342       45.008       11.735        0.068      335.958        6.940      853.402
12/12/2021  19:19:00       24.803        5.931      -24.027       33.405       68.439       24.336     1115.876     4683.867      592.254        0.381        0.320       25.502        8.850        0.120      335.980        6.976      853.406
12/12/2021  19:20:00       45.315      -31.401      -17.342       68.336       78.800       52.711     4669.759     6209.426     2778.501        0.850        0.683       55.132       35.805        0.422      336.037        7.070      853.250
12/12/2021  19:21:00       -0.107      -33.015      -31.973       49.473       51.147       32.111     2447.597     2615.990     1031.111        0.410        0.305       33.016       24.033        0.530      336.060        7.108      853.250
12/12/2021  19:22:00      -65.085       14.273       -1.394       79.512       45.967       35.495     6322.201     2112.936     1259.871        0.707        0.485       66.632       34.948        0.275      336.142        7.242      853.382
12/12/2021  19:23:00      -70.745      -44.088      -10.719       77.525       75.777       36.352     6010.119     5742.191     1321.432        1.007        0.654       83.359       29.998        0.130      336.101        7.175      853.480
12/12/2021  19:24:00     -130.957      -49.944      -17.107       60.555       39.705       31.996     3666.942     1576.509     1023.734        1.310        0.313      140.158       33.437        0.057      336.029        7.057      853.440
12/12/2021  19:25:00      -46.856       10.556       -4.985       26.977       26.007       19.022      727.774      676.373      361.829        0.205        0.088       48.030       16.471        0.118      336.012        7.028      853.409
12/12/2021  19:26:00      -15.477       23.997      -11.757       28.753       22.093       20.418      826.709      488.118      416.898        0.134        0.087       28.555        8.593        0.091      336.078        7.138      853.365
12/12/2021  19:27:00       25.346       52.276      -21.654       57.856       57.029       35.311     3347.297     3252.283     1246.882        0.584        0.392       58.097       29.661        0.261      336.075        7.133      853.284
12/12/2021  19:28:00       61.337      -41.349      -32.804       41.445       63.469       33.954     1717.656     4028.354     1152.902        0.672        0.345       73.973       16.858        0.052      336.094        7.165      853.137
12/12/2021  19:29:00       44.294      -38.670      -29.757       40.750       59.044       38.535     1660.599     3486.172     1484.950        0.549        0.332       58.799       25.651        0.190      336.082        7.145      853.087
12/12/2021  19:30:00       85.428       12.229      -18.718       57.851       49.127       33.780     3346.730     2413.482     1141.108        0.735        0.345       86.299       19.824        0.053      336.031        7.059      853.125
12/12/2021  19:31:00       22.751      -23.001       -3.654       56.015       33.765       22.944     3137.661     1140.043      526.421        0.293        0.240       32.352       12.077        0.139      336.111        7.193      853.135
12/12/2021  19:32:00      104.153       59.208      -20.460       26.111       32.126       15.860      681.767     1032.097      251.544        0.837        0.098      119.806       15.136        0.016      336.077        7.139      853.142
12/12/2021  19:33:00       92.929       88.789      -18.049       41.174       32.802       27.714     1695.331     1075.974      768.050        1.019        0.177      128.527       19.232        0.022      335.979        6.974      853.114
12/12/2021  19:34:00       38.067      157.747      -14.440       61.478       40.455       31.607     3779.571     1636.613      998.978        1.648        0.321      162.275       24.560        0.023      336.195        7.334      853.084
12/12/2021  19:35:00       49.764       70.799       -3.318       28.241       46.747       21.733      797.560     2185.238      472.333        0.548        0.173       86.539       16.471        0.036      336.108        7.188      853.121
12/12/2021  19:36:00       46.330       58.372      -21.469       28.601       29.654       17.350      817.989      879.376      301.023        0.401        0.100       74.523        4.321        0.003      336.103        7.180      853.182
12/12/2021  19:37:00       62.006        9.093      -17.723       17.444       12.257       14.335      304.306      150.237      205.491        0.245        0.033       62.669        6.990        0.012      336.037        7.071      853.200
12/12/2021  19:38:00       31.349       -7.450       -9.565       24.340       19.102       14.673      592.424      364.887      215.293        0.115        0.059       32.222       10.346        0.103      336.060        7.107      853.209
12/12/2021  19:39:00      -24.997      -36.833      -17.395       18.063       17.462       16.312      326.264      304.924      266.079        0.159        0.045       44.514        7.617        0.029      336.175        7.299      853.222
12/12/2021  19:40:00      -48.942      -32.145      -16.900       26.108       22.330       15.735      681.639      498.638      247.598        0.257        0.071       58.555       11.891        0.041      336.299        7.506      853.223
12/12/2021  19:41:00     -131.142      -35.308      -13.938       96.364       52.933       28.878     9286.082     2801.952      833.964        1.578        0.646      135.812       33.163        0.060      336.237        7.402      853.249
12/12/2021  19:42:00     -146.241      -18.737       -8.745       78.357       47.733       52.155     6139.828     2278.426     2720.166        1.647        0.557      147.437       47.544        0.104      336.218        7.371      853.272
12/12/2021  19:43:00     -162.706       27.860       -8.099       64.641       52.456       37.421     4178.439     2751.651     1400.358        1.782        0.417      165.074       33.280        0.041      336.170        7.291      853.248
12/12/2021  19:44:00     -201.467       40.502        1.423       88.415       86.991       50.309     7817.197     7567.442     2530.969        3.007        0.896      205.498       44.544        0.047      336.170        7.288      853.193
12/12/2021  19:45:00     -112.976       23.391        4.888      113.585       51.308       39.695    12901.463     2632.502     1575.657        1.522        0.855      115.372       37.654        0.107      336.214        7.362      853.199
12/12/2021  19:46:00      -99.235      -14.576      -16.626       74.679       44.573       47.303     5577.001     1986.779     2237.611        1.007        0.490      100.300       31.743        0.100      336.248        7.422      853.224
12/12/2021  19:47:00       14.176       62.490      -17.245       52.762       60.511       19.618     2783.833     3661.606      384.866        0.562        0.342       64.078       19.689        0.094      336.170        7.289      853.160
12/12/2021  19:48:00       16.784       53.207      -15.431       56.611       51.777       25.918     3204.792     2680.816      671.718        0.495        0.328       55.792        7.572        0.018      336.222        7.379      853.039
12/12/2021  19:49:00      -33.899       -2.953       -8.558       32.803       48.642       26.305     1076.017     2366.050      691.972        0.268        0.207       34.027       27.424        0.650      336.244        7.414      853.096
12/12/2021  19:50:00        8.796      -18.165       -3.207       30.508       26.189       22.318      930.753      685.873      498.081        0.127        0.106       20.182       17.339        0.738      336.343        7.580      853.242
12/12/2021  19:51:00      -29.201       -2.311      -18.183       62.240       50.811       21.658     3873.802     2581.803      469.087        0.406        0.346       29.293       21.607        0.544      336.260        7.440      853.287
12/12/2021  19:52:00     -133.110       64.797      -17.660       53.288       41.353       28.038     2839.572     1710.089      786.135        1.378        0.267      148.043       23.609        0.025      336.250        7.424      853.223
12/12/2021  19:53:00        8.137      132.687      -15.630       67.597       77.571       26.817     4569.334     6017.295      719.174        1.461        0.565      132.936       26.239        0.039      336.244        7.414      853.148
12/12/2021  19:54:00      -35.195      157.707      -20.214       67.995       72.622       41.596     4623.383     5273.997     1730.228        1.907        0.581      161.586       27.761        0.030      336.321        7.543      853.198
12/12/2021  19:55:00      -89.400       80.862      -52.184       50.142       53.041       35.916     2514.256     2813.362     1289.984        1.193        0.331      120.545       20.761        0.030      336.275        7.467      853.328
12/12/2021  19:56:00       15.279       72.693       -3.504       49.177       55.354       38.822     2418.348     3064.058     1507.159        0.626        0.349       74.282       17.765        0.057      336.150        7.257      853.376
12/12/2021  19:57:00       -5.449      126.756      -19.089       60.578       34.229       22.625     3669.681     1171.644      511.896        1.091        0.268      126.873       15.040        0.014      336.176        7.303      853.225
12/12/2021  19:58:00        5.474      100.245      -17.642       84.144       61.827       36.085     7080.175     3822.617     1302.108        1.130        0.610      100.394       32.627        0.106      336.185        7.316      853.103
12/12/2021  19:59:00     -139.197       71.843      -21.988      110.147       85.623       47.408    12132.307     7331.292     2247.489        2.336        1.086      156.644       34.359        0.048      336.248        7.420      853.148
12/12/2021  20:00:00     -134.188       12.190      -21.649      176.297      113.388       59.725    31080.647    12856.860     3567.081        3.306        2.375      134.740       79.643        0.349      336.182        7.310      853.261
12/12/2021  20:01:00     -141.860      100.633      -32.180      107.165       79.518       54.877    11484.340     6323.175     3011.469        2.605        1.041      173.929       48.273        0.077      336.353        7.595      853.266
12/12/2021  20:02:00      -31.702       38.145       -1.187       81.747       64.274       38.695     6682.559     4131.172     1497.312        0.738        0.616       49.599       30.772        0.385      336.248        7.420      853.128
12/12/2021  20:03:00      -95.315      118.737      -22.952       38.324       72.557       45.994     1468.764     5264.526     2115.456        1.628        0.442      152.261       11.169        0.005      336.482        7.814      853.029
12/12/2021  20:04:00      -94.561       46.751      -15.142       71.538       47.962       37.319     5117.732     2300.358     1392.695        1.008        0.441      105.486       33.811        0.103      336.534        7.900      853.131
12/12/2021  20:05:00     -190.721       17.803       -9.190      103.121       69.824       52.935    10633.934     4875.326     2802.129        2.754        0.916      191.551       48.208        0.063      336.253        7.428      853.247
12/12/2021  20:06:00     -182.624       52.028      -15.573       88.129       67.358       45.725     7766.723     4537.159     2090.816        2.535        0.720      189.891       39.086        0.042      336.082        7.144      853.281
12/12/2021  20:07:00     -144.098       46.904      -20.990       57.210       46.696       35.987     3272.972     2180.552     1295.037        1.508        0.337      151.539       25.366        0.028      336.076        7.133      853.252
12/12/2021  20:08:00       -6.165       27.137      -13.737       45.348       36.881       43.457     2056.486     1360.242     1888.515        0.313        0.265       27.829       32.178        1.337      336.069        7.121      853.306
12/12/2021  20:09:00      -65.499       23.237        0.052      117.326       66.240       54.694    13765.442     4387.766     2991.455        1.298        1.057       69.499       49.860        0.515      336.059        7.106      853.414
12/12/2021  20:10:00     -191.100       60.987      -10.221       82.821       54.582       46.234     6859.339     2979.148     2137.617        2.616        0.599      200.596       49.574        0.061      336.080        7.138      853.455
12/12/2021  20:11:00     -162.632       42.769      -14.238       86.453       66.913       44.819     7474.062     4477.381     2008.731        2.122        0.698      168.162       35.326        0.044      335.985        6.981      853.432
12/12/2021  20:12:00     -167.094       79.222       -5.847       65.026       65.813       42.793     4228.435     4331.317     1831.265        2.231        0.520      184.923       39.546        0.046      336.036        7.067      853.367
12/12/2021  20:13:00      -63.469        6.332        5.861       76.504       51.799       43.756     5852.809     2683.177     1914.567        0.727        0.523       63.784       42.479        0.444      335.945        6.918      853.371
12/12/2021  20:14:00     -145.178      -16.260        0.656      112.810       60.932       60.659    12726.091     3712.658     3679.560        2.073        1.006      146.086       57.488        0.155      335.956        6.935      853.470
12/12/2021  20:15:00      -70.325       -5.474        7.759      106.140       55.712       55.832    11265.640     3103.856     3117.260        1.126        0.874       70.537       61.964        0.772      335.951        6.926      853.542
12/12/2021  20:16:00     -154.683       -7.795      -28.336       94.972       43.328       50.446     9019.693     1877.301     2544.764        1.911        0.672      154.879       55.850        0.130      335.957        6.936      853.554
12/12/2021  20:17:00     -165.634       67.300      -12.224       69.410       51.229       36.345     4817.728     2624.384     1320.940        2.044        0.438      178.785       39.629        0.049      335.970        6.957      853.540
12/12/2021  20:18:00      -84.193       52.111       10.808       89.337       64.136       43.173     7981.180     4113.442     1863.882        1.194        0.698       99.015       47.190        0.227      336.054        7.095      853.551
12/12/2021  20:19:00      -31.120       36.727       -1.360       31.763       33.302       22.264     1008.882     1109.021      495.684        0.247        0.131       48.139       16.118        0.112      336.205        7.350      853.546
12/12/2021  20:20:00     -102.468       31.560       -7.370       61.626       50.143       36.120     3797.802     2514.280     1304.689        0.958        0.381      107.219       22.896        0.046      336.069        7.123      853.518
12/12/2021  20:21:00     -157.759      -17.173       -5.231      100.502       45.707       36.966    10100.585     2089.145     1366.507        1.938        0.678      158.691       35.269        0.049      336.212        7.359      853.527
12/12/2021  20:22:00      -48.786      -18.463       -1.735       84.390       56.574       50.866     7121.658     3200.633     2587.317        0.781        0.645       52.163       20.519        0.155      336.102        7.178      853.527
12/12/2021  20:23:00     -189.299       11.572       -4.507      166.303       88.265       69.742    27656.719     7790.760     4863.933        3.814        2.016      189.652       63.596        0.112      335.937        6.902      853.501
12/12/2021  20:24:00     -113.354       21.794      -29.816       96.811       80.777       51.559     9372.439     6524.989     2658.348        1.638        0.928      115.430       53.512        0.215      335.879        6.807      853.461
12/12/2021  20:25:00      -48.152       33.956       -3.301       39.484       31.428       21.124     1558.978      987.701      446.238        0.324        0.150       58.921       21.487        0.133      336.118        7.205      853.431
12/12/2021  20:26:00     -125.693       47.911       -8.493       39.016       44.496       25.829     1522.262     1979.889      667.158        1.117        0.208      134.514       22.345        0.028      336.110        7.190      853.422
12/12/2021  20:27:00      -47.579       63.907       -5.484       38.657       34.874       28.679     1494.392     1216.214      822.484        0.495        0.177       79.674       24.407        0.094      336.129        7.223      853.377
12/12/2021  20:28:00      -36.742       44.467       -1.384       29.756       26.015       21.379      885.398      676.758      457.080        0.267        0.101       57.683       14.000        0.059      336.394        7.667      853.352
12/12/2021  20:29:00      -92.899       91.874      -12.530       40.992       48.772       27.482     1680.379     2378.750      755.253        1.102        0.241      130.656       23.668        0.033      336.275        7.468      853.310
12/12/2021  20:30:00     -100.714       59.525       -8.804       64.123       51.776       33.212     4111.777     2680.803     1103.061        1.083        0.395      116.989       21.802        0.035      336.114        7.198      853.233
12/12/2021  20:31:00      -41.292      126.029      -17.068       31.094       27.255       19.545      966.867      742.843      381.992        0.999        0.105      132.621        8.206        0.004      336.142        7.245      853.149
12/12/2021  20:32:00      -22.125       93.919      -17.616       32.626       27.994       18.311     1064.426      783.664      335.289        0.590        0.109       96.490       13.292        0.019      336.139        7.240      853.097
12/12/2021  20:33:00        3.019       58.633       -5.350       30.096       44.830       20.540      905.757     2009.763      421.896        0.341        0.167       58.710       19.674        0.112      336.064        7.116      853.111
12/12/2021  20:34:00       -9.745       29.788       -3.946       31.032       25.120       19.994      963.001      631.034      399.745        0.150        0.100       31.342       12.177        0.151      336.054        7.097      853.160
12/12/2021  20:35:00        4.077      -24.330        5.013       29.313       31.980       23.095      859.226     1022.723      533.373        0.152        0.121       24.669       18.094        0.538      336.107        7.186      853.273
12/12/2021  20:36:00        9.532        1.972      -14.605       34.922       24.397       23.735     1219.536      595.223      563.357        0.134        0.119        9.734       14.880        2.337      336.082        7.143      853.387
12/12/2021  20:37:00     -109.230       22.548       -9.301       96.638       53.298       39.183     9338.962     2840.684     1535.310        1.312        0.686      111.533       28.919        0.067      335.977        6.971      853.470
12/12/2021  20:38:00     -186.981       46.382       -7.645       93.056       57.530       39.380     8659.484     3309.738     1550.797        2.534        0.676      192.648       31.131        0.026      336.008        7.019      853.535
12/12/2021  20:39:00     -135.715       29.844       -0.471       84.997       55.542       36.148     7224.480     3084.955     1306.654        1.546        0.581      138.958       27.119        0.038      336.047        7.084      853.532
12/12/2021  20:40:00       82.359      -58.282      -13.581       58.896       59.440       32.452     3468.683     3533.128     1053.130        0.921        0.403      100.895       20.618        0.042      336.123        7.213      853.465
12/12/2021  20:41:00      -37.598       46.779      -10.638       51.984       49.917       25.101     2702.359     2491.665      630.083        0.477        0.291       60.016       23.045        0.147      336.237        7.402      853.392
12/12/2021  20:42:00      -74.779       -2.547       -8.734       85.484       46.557       35.174     7307.537     2167.518     1237.195        0.819        0.536       74.822       32.190        0.185      336.184        7.315      853.514
12/12/2021  20:43:00     -113.556        6.606       -4.136       62.735       45.964       41.005     3935.709     2112.681     1681.396        1.034        0.386      113.748       33.679        0.088      336.117        7.203      853.658
12/12/2021  20:44:00      -61.275       27.830        2.320       50.716       61.839       32.067     2572.077     3824.073     1028.277        0.598        0.371       67.299       32.613        0.235      336.123        7.214      853.699
12/12/2021  20:45:00      -73.322        1.761      -12.778       69.036       37.015       31.170     4765.922     1370.096      971.588        0.632        0.355       73.343       34.087        0.216      336.126        7.218      853.678
12/12/2021  20:46:00     -116.311        9.744       -7.200       81.367       45.647       37.795     6620.616     2083.656     1428.491        1.190        0.507      116.718       24.118        0.043      336.094        7.163      853.732
12/12/2021  20:47:00     -135.703       -1.086       -0.985      111.637       64.400       52.200    12462.768     4147.372     2724.815        1.887        0.967      135.707       57.310        0.178      336.056        7.098      853.869
12/12/2021  20:48:00     -135.087       -9.598       -8.068       73.696       49.491       43.666     5431.109     2449.338     1906.748        1.409        0.489      135.427       36.985        0.075      336.016        7.035      853.876
12/12/2021  20:49:00      -47.483       23.456       -6.668       22.655       22.631       18.600      513.238      512.159      345.942        0.211        0.069       52.961       13.727        0.067      336.065        7.115      853.802
12/12/2021  20:50:00      -77.760       18.987      -10.444       62.769       40.726       35.655     3940.000     1658.590     1271.286        0.669        0.343       80.044       24.975        0.097      336.118        7.204      853.903
12/12/2021  20:51:00     -100.862        0.398       16.307       98.319       49.867       44.596     9666.550     2486.696     1988.785        1.229        0.707      100.862       45.301        0.202      335.995        7.001      853.998
12/12/2021  20:52:00      -40.647       55.644       -5.952       50.174       62.883       28.290     2517.452     3954.241      800.329        0.603        0.364       68.909       26.690        0.150      336.032        7.062      853.813
12/12/2021  20:53:00       -0.194       22.751      -11.218       34.103       30.203       22.832     1162.997      912.216      521.308        0.162        0.130       22.752       14.485        0.405      336.089        7.156      853.679
12/12/2021  20:54:00       55.037        3.409      -38.259       37.571       30.773       21.689     1411.583      946.972      470.432        0.367        0.141       55.143       20.422        0.137      335.988        6.989      853.694
12/12/2021  20:55:00       78.456       66.296      -28.926       34.601       35.903       30.970     1197.212     1289.038      959.137        0.742        0.172      102.715       22.293        0.047      335.956        6.940      853.659
12/12/2021  20:56:00       83.093      156.307      -30.226       38.270       41.799       30.042     1464.594     1747.176      902.496        1.818        0.206      177.021       20.406        0.013      336.048        7.088      853.592
12/12/2021  20:57:00       50.481       58.885      -24.760       50.738       46.457       41.350     2574.360     2158.288     1709.852        0.653        0.322       77.561       30.525        0.155      335.963        6.950      853.520
12/12/2021  20:58:00      140.929       21.022      -20.288       57.537       52.526       40.259     3310.465     2758.986     1620.753        1.420        0.385      142.488       21.166        0.022      336.000        7.007      853.482
12/12/2021  20:59:00      110.043       28.247      -24.348       78.668       76.384       50.130     6188.627     5834.460     2513.055        1.402        0.727      113.611       35.520        0.098      336.017        7.036      853.353
12/12/2021  21:00:00      170.959       30.699      -14.978       77.741       56.926       32.607     6043.587     3240.567     1063.236        2.037        0.517      173.693       16.942        0.010      335.940        6.907      853.283
12/12/2021  21:01:00      132.062       42.020       -1.616       77.206       75.324       34.995     5960.811     5673.778     1224.666        1.603        0.643      138.586       20.213        0.021      335.900        6.841      853.284
12/12/2021  21:02:00       81.620      -25.192      -23.341       80.261      101.995       39.944     6441.762    10402.963     1595.521        1.314        0.922       85.419       37.917        0.197      335.956        6.935      853.277
12/12/2021  21:03:00      103.195     -115.963      -37.026       53.535       85.945       37.741     2866.023     7386.462     1424.391        1.857        0.584      155.231       29.678        0.037      335.983        6.979      853.269
12/12/2021  21:04:00      133.910      -65.578      -31.042      142.276       94.107       50.047    20242.502     8856.063     2504.742        2.739        1.580      149.105       57.812        0.150      335.963        6.945      853.269
12/12/2021  21:05:00      105.096     -145.388      -36.951       55.712       87.976       38.096     3103.817     7739.797     1451.284        2.292        0.615      179.396       30.143        0.028      335.889        6.823      853.222
12/12/2021  21:06:00       48.010      -87.365      -41.929       60.775       82.658       49.538     3693.601     6832.355     2453.988        1.234        0.649       99.688       32.959        0.109      335.951        6.927      853.118
12/12/2021  21:07:00      183.788     -321.910      -62.788       98.319      132.910       64.022     9666.635    17665.110     4098.764        8.638        1.572      370.680       53.369        0.021      335.805        6.680      853.107
12/12/2021  21:08:00      197.142     -364.903      -72.624      136.362      145.488       67.001    18594.623    21166.729     4489.143       11.076        2.213      414.752       66.734        0.026      335.802        6.675      853.162
12/12/2021  21:09:00      166.693     -329.580      -67.381      100.684      139.523       54.840    10137.206    19466.620     3007.394        8.677        1.631      369.337       47.569        0.017      335.780        6.638      853.205
12/12/2021  21:10:00      126.345     -197.089      -50.764       86.951       98.500       67.872     7560.477     9702.209     4606.618        3.962        1.093      234.109       40.799        0.030      335.813        6.694      853.172
12/12/2021  21:11:00      215.607     -345.674      -70.257       85.062      122.500       66.055     7235.617    15006.162     4363.320        9.875        1.330      407.402       50.686        0.015      335.754        6.597      853.172
12/12/2021  21:12:00      106.388     -244.101      -41.250       80.104       89.890       42.839     6416.642     8080.243     1835.158        4.447        0.817      266.277       38.171        0.021      335.767        6.617      853.164
12/12/2021  21:13:00       58.388     -162.608      -34.428       73.776       91.013       46.196     5442.949     8283.447     2134.048        2.345        0.793      172.773       26.982        0.024      335.815        6.699      853.221
12/12/2021  21:14:00      137.712     -133.975      -37.558      118.355      116.456       80.612    14007.812    13562.110     6498.350        3.619        1.703      192.129       56.542        0.087      335.787        6.653      853.243
12/12/2021  21:15:00       46.041     -126.728      -18.222       78.496       70.655       38.266     6161.549     4992.089     1464.309        1.556        0.631      134.832       34.273        0.065      335.862        6.779      853.260
12/12/2021  21:16:00      113.133     -243.652      -53.588       98.740      152.443       55.570     9749.636    23238.780     3088.080        5.555        1.804      268.636       34.987        0.017      335.805        6.681      853.275
12/12/2021  21:17:00       60.801      -82.305      -43.682      118.989      155.434       56.757    14158.447    24159.872     3221.395        2.695        2.077      102.327       83.045        0.659      335.906        6.851      853.262
12/12/2021  21:18:00      116.155     -315.309      -62.146       89.429      122.002       57.144     7997.458    14884.379     3265.404        7.146        1.307      336.023       39.660        0.014      335.770        6.623      853.148
12/12/2021  21:19:00      183.881     -326.777      -65.911       82.862       88.332       56.026     6866.155     7802.618     3138.868        8.137        0.890      374.961       44.164        0.014      335.742        6.573      853.055
12/12/2021  21:20:00      207.600     -313.262      -85.782      112.255      193.059       81.625    12601.259    37271.730     6662.573       10.255        2.827      375.807       76.104        0.041      335.711        6.522      853.021
12/12/2021  21:21:00       48.452     -188.547      -74.665      141.770      155.353       71.340    20098.798    24134.511     5089.366        4.639        2.466      194.673       70.838        0.132      335.746        6.584      853.048
12/12/2021  21:22:00       56.999      -77.168       -9.860      132.480      119.439       68.502    17550.923    14265.654     4692.495        2.290        1.825       95.937       75.712        0.623      335.792        6.660      853.110
12/12/2021  21:23:00      201.986     -255.858      -65.801      101.716      142.082       67.249    10346.232    20187.368     4522.483        7.282        1.753      325.978       74.744        0.053      335.685        6.480      853.046
12/12/2021  21:24:00       87.097      -74.095      -32.765       65.591       73.933       46.791     4302.187     5466.131     2189.429        1.305        0.598      114.350       39.685        0.120      335.708        6.521      852.925
12/12/2021  21:25:00      265.644     -374.784      -87.717      129.256      234.300       77.933    16707.187    54896.483     6073.492       14.819        3.884      459.380       96.548        0.044      335.693        6.492      852.967
12/12/2021  21:26:00      213.488     -394.453      -88.597      186.242      196.918       94.395    34686.047    38776.551     8910.452       14.568        4.119      448.520      110.262        0.060      335.672        6.459      853.168
12/12/2021  21:27:00       57.430     -148.840      -39.945      113.003      104.951       58.579    12769.598    11014.811     3431.501        2.713        1.361      159.536       59.523        0.139      335.767        6.618      853.261
12/12/2021  21:28:00      115.814     -243.611      -53.828       89.998      118.262       59.900     8099.589    13985.929     3588.004        5.066        1.284      269.739       56.018        0.043      335.666        6.448      853.213
12/12/2021  21:29:00      103.073     -139.145      -44.228       70.678       95.684       50.576     4995.322     9155.412     2557.953        2.432        0.835      173.163       44.929        0.067      335.686        6.482      853.189
12/12/2021  21:30:00       49.411     -136.339       -9.537       54.305       79.302       45.346     2948.982     6288.862     2056.263        1.621        0.565      145.017       37.286        0.066      335.700        6.507      853.197
12/12/2021  21:31:00       96.925     -204.385      -41.149       71.248      124.489       56.243     5076.311    15497.618     3163.249        3.829        1.187      226.203       45.339        0.040      335.723        6.544      853.319
12/12/2021  21:32:00      180.405     -191.357      -58.243      131.024      222.163       79.584    17167.233    49356.316     6333.671        7.269        3.643      262.990       75.436        0.082      335.684        6.479      853.231
12/12/2021  21:33:00      243.451     -298.121      -96.003      154.343      237.003       84.749    23821.720    56170.462     7182.388       12.225        4.359      384.896      112.890        0.086      335.648        6.418      853.137
12/12/2021  21:34:00      325.833     -510.936     -104.672      134.566      169.261       79.353    18107.881    28649.167     6296.828       21.561        2.653      605.989       73.513        0.015      335.644        6.411      853.065
12/12/2021  21:35:00      245.793     -323.914      -76.340      144.297      121.477       82.854    20821.673    14756.667     6864.795       10.679        2.122      406.614       70.361        0.030      335.637        6.400      853.012
12/12/2021  21:36:00      122.531     -281.065      -46.251      116.818      158.565       70.816    13646.518    25142.863     5014.929        6.997        2.190      306.613       69.639        0.052      335.655        6.430      852.974
12/12/2021  21:37:00      120.279     -215.338      -57.815       71.037      128.360       47.457     5046.203    16476.271     2252.187        4.397        1.189      246.653       26.938        0.012      335.676        6.464      852.847
12/12/2021  21:38:00      164.737     -267.902      -52.739      104.581      109.662       58.723    10937.161    12025.683     3448.378        6.405        1.321      314.499       40.644        0.017      335.670        6.453      852.890
12/12/2021  21:39:00      123.072     -311.300      -47.553      120.520      159.589       67.874    14525.143    25468.684     4606.942        7.945        2.230      334.746       69.436        0.043      335.693        6.492      853.062
12/12/2021  21:40:00      104.418     -222.686      -49.566       77.883      110.673       60.526     6065.695    12248.563     3663.375        4.246        1.099      245.951       35.096        0.020      335.718        6.535      853.152
12/12/2021  21:41:00      127.645      -46.699      -11.817      110.542      106.623       73.246    12219.638    11368.460     5364.909        2.378        1.448      135.920       64.351        0.224      335.729        6.554      853.080
12/12/2021  21:42:00      122.470      -49.066      -38.036      162.157      158.396       66.432    26294.792    25089.438     4413.237        3.732        2.790      131.934       72.396        0.301      335.644        6.412      853.067
12/12/2021  21:43:00      125.353     -294.116      -54.524      101.199      140.677       72.042    10241.268    19789.977     5190.063        7.020        1.761      319.715       58.505        0.033      335.737        6.567      853.130
12/12/2021  21:44:00       22.826     -126.609      -40.866      111.217      119.689       44.955    12369.271    14325.489     2020.917        2.346        1.436      128.650       42.707        0.110      335.768        6.619      853.012
12/12/2021  21:45:00       80.665      -37.955      -34.875      113.015       78.657       65.735    12772.459     6186.946     4321.113        1.622        1.164       89.149       44.647        0.251      335.782        6.644      852.905
12/12/2021  21:46:00      182.360      -92.283      -25.590      121.292      108.458       55.064    14711.688    11763.140     3032.049        3.596        1.475      204.380       54.230        0.070      335.696        6.498      852.839
12/12/2021  21:47:00      -15.227      -61.471      -14.599      153.179       57.570       54.876    23463.809     3314.296     3011.379        1.700        1.489       63.329       60.929        0.926      335.761        6.609      852.839
12/12/2021  21:48:00      177.659     -305.135      -74.956      222.473      318.927       77.825    49494.231   101714.175     6056.733       14.375        7.863      353.087      127.717        0.131      335.763        6.611      852.871
12/12/2021  21:49:00      194.669     -357.876      -80.747      185.857      187.508      101.242    34542.737    35159.182    10249.933       12.621        3.998      407.396       92.707        0.052      335.741        6.573      852.903
12/12/2021  21:50:00      148.890     -212.514      -62.576      149.952      204.221       70.171    22485.718    41706.200     4924.032        7.017        3.456      259.481       83.397        0.103      335.744        6.581      852.917
12/12/2021  21:51:00      247.105     -368.672      -87.104      238.989      202.551       89.974    57115.686    41026.749     8095.264       15.538        5.312      443.824      110.544        0.062      335.711        6.524      852.837
12/12/2021  21:52:00      234.300     -360.352      -81.769      140.914      156.756       62.165    19856.822    24572.471     3864.508       11.986        2.415      429.825       70.893        0.027      335.669        6.454      852.898
12/12/2021  21:53:00      123.171     -264.630      -38.310      100.425      128.033       66.700    10085.267    16392.481     4448.902        5.879        1.546      291.891       50.347        0.030      335.679        6.469      852.985
12/12/2021  21:54:00      171.811     -292.051      -65.225       94.774      175.472       58.326     8982.020    30790.450     3401.950        8.111        2.159      338.841       47.558        0.020      335.719        6.536      853.026
12/12/2021  21:55:00      281.447     -515.063      -98.979      126.763      215.396       91.887    16068.944    46395.286     8443.158       21.259        3.545      586.943       72.186        0.015      335.684        6.478      852.894
12/12/2021  21:56:00      198.415     -561.460      -92.344      141.003      117.473       78.165    19881.785    13799.911     6109.780       20.145        1.990      595.488       63.158        0.011      335.673        6.460      852.899
12/12/2021  21:57:00      213.711     -413.005      -75.918      131.086      224.011      103.673    17183.547    50180.773    10748.114       15.005        3.906      465.022       79.127        0.029      335.656        6.432      852.918
12/12/2021  21:58:00      250.827     -350.166      -89.998      160.302      197.116       86.065    25696.579    38854.703     7407.246       13.278        3.598      430.732       74.195        0.030      335.686        6.483      852.911
12/12/2021  21:59:00      149.521     -333.212      -55.278       80.462      133.927       50.770     6474.100    17936.315     2577.636        8.171        1.349      365.222       35.237        0.009      335.675        6.462      852.954
12/12/2021  22:00:00      209.296     -359.718      -83.823      104.066      146.053       59.902    10829.727    21331.528     3588.230       10.798        1.787      416.175       51.423        0.015      335.648        6.418      852.947
12/12/2021  22:01:00      134.579     -178.682      -51.933      125.550      174.519       71.767    15762.712    30456.747     5150.538        5.204        2.568      223.693       85.008        0.144      335.673        6.462      852.930
12/12/2021  22:02:00      209.392      -81.228      -61.125      118.903      187.893       72.121    14138.017    35303.910     5201.416        5.440        2.732      224.595       55.312        0.061      335.712        6.525      852.844
12/12/2021  22:03:00      173.194     -106.271      -40.590      128.768      128.896       79.939    16581.240    16614.174     6390.229        4.125        1.979      203.199       66.258        0.106      335.682        6.476      852.789
12/12/2021  22:04:00      188.169      -41.252      -22.922      137.515      119.442       86.829    18910.325    14266.395     7539.313        3.917        2.036      192.638       77.190        0.161      335.653        6.427      852.691
12/12/2021  22:05:00      163.110      -83.899      -26.842      195.901      130.110       80.779    38377.319    16928.541     6525.212        4.809        3.092      183.423       84.984        0.215      335.699        6.505      852.575
12/12/2021  22:06:00      137.338      -77.191      -44.487      123.101      114.707       57.328    15153.931    13157.687     3286.507        2.919        1.580      157.545       23.855        0.023      335.757        6.602      852.603
12/12/2021  22:07:00      147.951     -338.403      -63.461       86.947      101.042       43.735     7559.728    10209.393     1912.759        8.005        0.984      369.332       41.093        0.012      335.674        6.461      852.629
12/12/2021  22:08:00       86.259     -332.862      -52.872       69.389      106.759       41.548     4814.773    11397.487     1726.197        6.948        0.897      343.857       36.926        0.012      335.698        6.501      852.635
12/12/2021  22:09:00       43.007     -166.065      -36.192       85.587       99.682       46.388     7325.076     9936.484     2151.807        2.507        0.971      171.544       40.898        0.057      335.751        6.591      852.727
12/12/2021  22:10:00       79.904     -185.378      -29.521       65.165       82.972       44.106     4246.533     6884.355     1945.352        2.735        0.654      201.866       30.422        0.023      335.748        6.586      852.747
12/12/2021  22:11:00      131.780      -69.933      -27.835       69.309       98.253       44.462     4803.776     9653.695     1976.872        1.973        0.822      149.186       17.496        0.014      335.717        6.537      852.673
12/12/2021  22:12:00       88.644      -33.844      -26.977      113.950       85.954       54.466    12984.697     7388.174     2966.593        1.653        1.167       94.885       46.600        0.241      335.783        6.646      852.583
12/12/2021  22:13:00       34.294       -0.417       -8.708       60.079       36.454       33.610     3609.489     1328.871     1129.601        0.366        0.303       34.297       19.874        0.336      335.800        6.676      852.546
12/12/2021  22:14:00       62.559     -241.108      -30.082       98.489      167.733       62.365     9700.057    28134.526     3889.399        5.233        2.086      249.092       70.004        0.079      335.760        6.606      852.513
12/12/2021  22:15:00      128.484     -136.672      -34.539      100.128      100.111       50.321    10025.615    10022.232     2532.167        2.948        1.129      187.583       43.611        0.054      335.722        6.541      852.495
12/12/2021  22:16:00       17.339     -101.401      -25.425       98.207      106.334       47.040     9644.622    11306.830     2212.773        1.719        1.158      102.873       57.884        0.317      335.771        6.625      852.527
12/12/2021  22:17:00       78.953     -237.212      -45.206      115.687      103.539       49.133    13383.495    10720.272     2414.082        4.553        1.326      250.006       43.096        0.030      335.813        6.694      852.617
12/12/2021  22:18:00      144.574     -174.952      -41.567       70.981       72.254       45.311     5038.297     5220.664     2053.062        3.277        0.616      226.958       25.989        0.013      335.786        6.649      852.607
12/12/2021  22:19:00      143.844     -111.563      -46.135      139.432       89.429       50.102    19441.319     7997.582     2510.250        3.260        1.497      182.037       48.555        0.071      335.849        6.754      852.575
12/12/2021  22:20:00       63.242      -84.217      -51.959      110.075       99.639       66.382    12116.415     9928.003     4406.566        2.012        1.323      105.319       49.832        0.224      335.845        6.749      852.601
12/12/2021  22:21:00       50.667      -82.338      -22.334       93.208       88.152       51.291     8687.687     7770.860     2630.782        1.446        0.954       96.678       45.251        0.219      335.903        6.847      852.646
12/12/2021  22:22:00      156.592     -252.145      -45.506       96.821      102.837       57.883     9374.365    10575.373     3350.456        5.673        1.165      296.813       52.779        0.032      335.763        6.609      852.637
12/12/2021  22:23:00      112.852     -345.317      -58.728      111.315      122.200       77.655    12390.957    14932.867     6030.331        8.439        1.668      363.290       65.473        0.032      335.717        6.534      852.679
12/12/2021  22:24:00       97.251     -227.039      -51.646       78.051       92.838       43.656     6092.029     8618.806     1905.846        4.014        0.831      246.991       38.896        0.025      335.734        6.561      852.709
12/12/2021  22:25:00       78.758     -192.785      -35.060       64.547       75.811       35.149     4166.317     5747.380     1235.482        2.787        0.557      208.252       15.151        0.005      335.730        6.555      852.622
12/12/2021  22:26:00      113.752     -103.313      -41.766       77.035      106.912       61.099     5934.426    11430.097     3733.042        2.322        1.055      153.665       44.426        0.084      335.761        6.607      852.639
12/12/2021  22:27:00       24.763     -176.923      -14.730       66.691       95.006       47.952     4447.683     9026.116     2299.390        2.395        0.789      178.648       47.503        0.071      335.803        6.678      852.706
12/12/2021  22:28:00      126.141     -195.773      -38.363       58.619      108.567       37.877     3436.180    11786.690     1434.679        3.618        0.833      232.892       34.591        0.022      335.796        6.665      852.763
12/12/2021  22:29:00       62.582     -103.983      -23.873      107.187      105.082       68.652    11489.024    11042.181     4713.111        2.127        1.362      121.364       62.652        0.266      335.823        6.712      852.741
12/12/2021  22:30:00      137.740     -236.452      -38.771      112.250      132.354       57.673    12600.174    17517.493     3326.162        5.491        1.672      273.645       46.189        0.028      335.769        6.620      852.722
12/12/2021  22:31:00      131.011     -308.565      -50.535       99.779      120.610       72.073     9955.861    14546.702     5194.506        7.231        1.485      335.225       71.551        0.046      335.743        6.575      852.684
12/12/2021  22:32:00        4.859     -191.644      -28.044      109.572      110.369       51.864    12006.127    12181.397     2689.896        3.220        1.344      191.706       46.228        0.058      335.845        6.747      852.693
12/12/2021  22:33:00      168.984     -306.735      -56.272      162.038      138.255       81.337    26256.290    19114.346     6615.684        8.889        2.599      350.203       75.844        0.047      335.768        6.618      852.635
12/12/2021  22:34:00       89.087     -295.008      -53.993      105.350      201.288       67.957    11098.655    40516.962     4618.156        7.705        2.812      308.166       54.579        0.031      335.787        6.650      852.620
12/12/2021  22:35:00      153.880     -261.545      -59.154      147.888      184.844       82.906    21870.775    34167.405     6873.450        7.924        3.146      303.455       74.948        0.061      335.752        6.594      852.686
12/12/2021  22:36:00      128.050     -404.455      -62.306      113.874      137.554       74.878    12967.256    18921.084     5606.701       11.067        1.875      424.241       68.123        0.026      335.741        6.574      852.721
12/12/2021  22:37:00       49.311      -23.286       -9.453       97.389       88.596       68.914     9484.667     7849.286     4749.107        1.257        1.104       54.533       36.838        0.456      335.747        6.585      852.762
12/12/2021  22:38:00      138.117     -248.719      -90.391      179.554      224.530       86.539    32239.646    50413.857     7489.068        8.961        4.507      284.495       99.885        0.123      335.697        6.500      852.731
12/12/2021  22:39:00      252.964     -469.235      -96.161      195.330      201.981      120.594    38153.951    40796.145    14542.895       19.344        4.675      533.078      133.836        0.063      335.687        6.484      852.726
12/12/2021  22:40:00      162.256     -314.140      -91.614      155.471      196.999       88.253    24171.261    38808.649     7788.582       10.207        3.538      353.569       70.916        0.040      335.678        6.468      852.721
12/12/2021  22:41:00      162.239     -316.335      -49.142      111.976      152.893       58.701    12538.546    23376.256     3445.763        8.408        1.968      355.512       60.000        0.028      335.677        6.467      852.804
12/12/2021  22:42:00      140.848     -328.579      -76.488      184.046      208.167       73.806    33872.908    43333.380     5447.382       10.814        4.133      357.495       75.115        0.044      335.660        6.436      852.816
12/12/2021  22:43:00       41.837      -94.490      -29.242      132.470      133.920       75.692    17548.367    17934.454     5729.275        2.637        2.061      103.337       50.083        0.235      335.690        6.489      852.826
12/12/2021  22:44:00      157.588     -256.039      -67.661      147.388      236.943       79.750    21723.174    56141.857     6359.987        8.958        4.211      300.649       92.053        0.094      335.628        6.388      852.847
12/12/2021  22:45:00      159.274     -359.959      -90.469      116.864      141.948       78.948    13657.131    20149.320     6232.800       10.157        2.002      393.622       27.245        0.005      335.597        6.332      852.924
12/12/2021  22:46:00      245.679     -290.073      -78.769      110.136      130.800       64.033    12130.040    17108.720     4100.228        9.202        1.667      380.133       66.840        0.031      335.556        6.264      852.990
12/12/2021  22:47:00      137.505     -255.686      -45.499      132.749      146.683       83.796    17622.312    21515.897     7021.813        6.625        2.308      290.315       68.123        0.055      335.574        6.294      852.972
12/12/2021  22:48:00      158.053     -259.594      -57.179      105.168      141.252       70.959    11060.400    19952.154     5035.168        6.584        1.802      303.925       81.502        0.072      335.562        6.276      852.926
12/12/2021  22:49:00      160.322     -255.199      -52.610       79.470      156.362       48.908     6315.553    24449.040     2392.033        6.337        1.658      301.380       45.043        0.022      335.563        6.277      852.930
12/12/2021  22:50:00      145.515     -149.074      -47.588       96.072       74.142       49.051     9229.765     5497.107     2405.983        3.139        0.857      208.321       36.209        0.030      335.577        6.301      852.952
12/12/2021  22:51:00      174.768     -334.657      -65.835      115.681      113.413       57.086    13382.167    12862.516     3258.837        8.818        1.475      377.543       54.920        0.021      335.557        6.267      852.977
12/12/2021  22:52:00      137.772     -220.510      -51.676      170.104      166.221       80.480    28935.376    27629.496     6476.954        6.665        3.152      260.011       72.341        0.077      335.591        6.322      852.950
12/12/2021  22:53:00      143.909     -420.536      -64.783      120.464      151.741       63.757    14511.646    23025.475     4064.935       12.167        2.080      444.478       64.378        0.021      335.628        6.385      853.034
12/12/2021  22:54:00      120.255     -193.442      -36.878       95.795       94.916       58.378     9176.589     9008.993     3408.027        3.741        1.080      227.774       53.469        0.055      335.611        6.356      853.090
12/12/2021  22:55:00      152.924     -160.233      -46.730       92.954       99.560       71.386     8640.456     9912.204     5095.893        3.744        1.182      221.496       65.247        0.087      335.570        6.289      853.046
12/12/2021  22:56:00       77.180     -216.325      -38.641       51.339       87.543       45.980     2635.666     7663.786     2114.165        3.333        0.621      229.681       31.119        0.018      335.541        6.240      852.966
12/12/2021  22:57:00       64.517     -308.295      -43.403       90.997      128.851       56.990     8280.526    16602.499     3247.823        6.461        1.407      314.974       33.555        0.011      335.548        6.252      852.924
12/12/2021  22:58:00      154.642     -209.200      -61.810       53.276      112.585       43.811     2838.382    12675.418     1919.398        4.446        0.872      260.151       38.770        0.022      335.476        6.132      852.874
12/12/2021  22:59:00       58.005      -91.525      -22.375       84.568       88.790       41.749     7151.693     7883.585     1742.958        1.451        0.839      108.358       38.152        0.124      335.575        6.298      852.796
12/12/2021  23:00:00       38.652      -99.633      -36.807       37.440       49.267       33.063     1401.788     2427.191     1093.133        0.885        0.246      106.868       15.969        0.022      335.550        6.260      852.708
12/12/2021  23:01:00      -37.869      -51.367      -25.859       76.549       69.552       38.148     5859.721     4837.423     1455.252        0.844        0.608       63.817       24.004        0.141      335.599        6.339      852.706
12/12/2021  23:02:00       16.123        4.147      -18.110       58.751       38.075       22.369     3451.629     1449.683      500.351        0.300        0.270       16.648       15.851        0.907      335.590        6.325      852.656
12/12/2021  23:03:00       77.284      -19.691       -3.465       41.544       62.817       30.370     1725.897     3945.943      922.341        0.648        0.330       79.753       28.231        0.125      335.489        6.157      852.616
12/12/2021  23:04:00       42.291      -40.325       -7.060       38.614       41.574       24.992     1491.072     1728.381      624.585        0.365        0.192       58.435       18.703        0.102      335.672        6.460      852.571
12/12/2021  23:05:00      -31.644      -48.724       -7.855       70.633       88.188       42.483     4988.988     7777.187     1804.802        0.900        0.729       58.098       19.647        0.114      335.670        6.457      852.572
12/12/2021  23:06:00       31.174     -105.135      -15.715      114.072      125.691       64.296    13012.410    15798.250     4133.942        2.260        1.647      109.660       61.036        0.310      335.590        6.325      852.585
12/12/2021  23:07:00      138.989     -141.802      -40.064       83.924       67.604       51.416     7043.285     4570.294     2643.631        2.764        0.713      198.559       34.617        0.030      335.599        6.337      852.659
12/12/2021  23:08:00      131.255     -220.367      -33.218      119.831      131.228       63.582    14359.368    17220.909     4042.682        5.125        1.781      256.495       39.095        0.023      335.589        6.321      852.716
12/12/2021  23:09:00      138.625     -347.104      -71.737      158.507      177.112       72.647    25124.495    31368.618     5277.569       10.330        3.089      373.762       62.454        0.028      335.503        6.178      852.816
12/12/2021  23:10:00      147.674     -333.337      -71.654      146.604      123.552       78.202    21492.685    15265.081     6115.486        9.046        2.144      364.584       52.293        0.021      335.503        6.176      852.894
12/12/2021  23:11:00       57.215     -180.757      -33.650      110.171       93.165       51.582    12137.618     8679.656     2660.664        3.027        1.174      189.596       43.797        0.053      335.578        6.302      852.986
12/12/2021  23:12:00       79.133     -108.070      -35.113       43.549       65.212       34.966     1896.480     4252.633     1222.595        1.327        0.369      133.944       38.566        0.083      335.498        6.172      853.012
12/12/2021  23:13:00      -15.085       -4.511      -12.703       44.081       34.078       25.862     1943.139     1161.285      668.846        0.209        0.189       15.745       20.179        1.642      335.530        6.225      852.982
12/12/2021  23:14:00       28.767      -10.706      -30.565       50.626       39.327       23.597     2562.996     1546.628      556.811        0.327        0.233       30.695       24.007        0.612      335.535        6.237      852.988
12/12/2021  23:15:00      128.184     -243.110      -54.862      107.799      132.558       72.195    11620.566    17571.630     5212.072        5.647        1.720      274.834       61.079        0.049      335.496        6.165      852.949
12/12/2021  23:16:00       91.581     -175.257      -75.626      110.136      161.552       74.294    12129.846    26099.175     5519.659        4.428        2.187      197.742       40.347        0.042      335.530        6.221      852.980
12/12/2021  23:17:00      222.384     -336.300      -72.555      180.637      192.947       95.846    32629.905    37228.645     9186.477       12.342        3.952      403.178      108.711        0.073      335.639        6.404      852.959
12/12/2021  23:18:00      163.203     -221.482      -73.709      136.243      208.499      105.958    18562.157    43471.989    11227.043        7.718        3.663      275.117       69.525        0.064      335.546        6.248      852.885
12/12/2021  23:19:00      248.571     -397.653     -100.541      187.884      193.492      102.139    35300.444    37439.189    10432.435       15.658        4.159      468.951      103.458        0.049      335.634        6.394      852.936
12/12/2021  23:20:00       75.157      -55.156      -20.126       67.276      134.094       39.157     4526.108    17981.286     1533.256        1.656        1.202       93.225       41.459        0.198      335.486        6.151      852.942
12/12/2021  23:21:00      125.811     -204.986      -53.353      121.391      224.116       72.286    14735.811    50227.918     5225.284        6.543        3.509      240.516       66.620        0.077      335.477        6.136      852.857
12/12/2021  23:22:00      312.861     -568.012     -115.919      150.929      187.467       74.504    22779.451    35143.730     5550.875       24.870        3.174      648.475       74.652        0.013      335.368        5.952      852.629
12/12/2021  23:23:00      282.340     -584.432      -98.050      146.856      203.910       89.595    21566.603    41579.097     8027.222       25.102        3.559      649.058      105.031        0.026      335.313        5.861      852.564
12/12/2021  23:24:00      333.101     -430.655     -110.290      149.081      130.796       77.610    22225.122    17107.649     6023.364       17.696        2.268      544.445       60.418        0.012      335.278        5.802      852.418
12/12/2021  23:25:00      397.265     -524.269     -136.680      218.383      294.194      119.952    47690.954    86550.129    14388.493       29.997        7.431      657.782      130.982        0.040      335.372        5.960      852.294
12/12/2021  23:26:00      170.080     -338.677      -82.764      154.285      183.578       65.321    23803.952    33701.064     4266.775       10.611        3.089      378.984       64.049        0.029      335.317        5.867      852.344
12/12/2021  23:27:00      181.908     -154.320      -49.226      140.176      159.574       78.429    19649.287    25463.986     6151.123        5.529        2.563      238.548       68.080        0.081      335.351        5.924      852.293
12/12/2021  23:28:00      222.271     -266.628      -48.020      167.882      170.187       86.313    28184.306    28963.650     7449.967        9.369        3.230      347.124       85.087        0.060      335.305        5.847      852.370
12/12/2021  23:29:00      316.718     -436.608     -119.826      192.703      255.710      105.187    37134.272    65387.409    11064.211       20.942        5.679      539.385       85.767        0.025      335.272        5.792      852.396
12/12/2021  23:30:00      148.514     -550.704      -63.519      134.646      240.529       87.881    18129.615    57854.021     7723.141       20.652        4.185      570.378       95.585        0.028      335.296        5.831      852.451
12/12/2021  23:31:00      146.362     -415.293      -86.564       93.410      165.703       71.510     8725.387    27457.631     5113.715       12.133        2.065      440.330       58.512        0.018      335.294        5.830      852.459
12/12/2021  23:32:00      207.459     -276.221      -78.771      178.038      219.396       68.408    31697.440    48134.530     4679.653       10.501        4.226      345.452       87.159        0.064      335.251        5.757      852.477
12/12/2021  23:33:00      225.955     -460.004      -91.859      154.463      286.776       86.015    23858.855    82240.229     7398.531       19.228        5.675      512.503       84.526        0.027      335.284        5.812      852.434
12/12/2021  23:34:00      136.752     -398.334      -75.449       89.116      124.668       52.928     7941.598    15542.044     2801.425       10.467        1.314      421.154       46.701        0.012      335.300        5.838      852.537
12/12/2021  23:35:00      149.597     -275.727      -93.022      165.135      185.227       81.398    27269.460    34309.107     6625.584        8.762        3.410      313.695       60.264        0.037      335.328        5.885      852.492
12/12/2021  23:36:00      180.574     -333.153      -84.249      162.060      215.948       93.171    26263.429    46633.666     8680.889       11.612        4.079      378.943       77.309        0.042      335.315        5.864      852.484
12/12/2021  23:37:00      279.650     -533.534     -111.055      190.294      251.413       97.400    36211.887    63208.577     9486.839       24.203        5.445      602.381       87.946        0.021      335.367        5.949      852.442
12/12/2021  23:38:00      145.286     -389.394      -64.703      141.798      207.312       72.371    20106.752    42978.398     5237.532       12.261        3.416      415.615       82.520        0.039      335.303        5.843      852.515
12/12/2021  23:39:00       54.161     -229.054      -37.486      106.590      169.408       57.260    11361.391    28699.234     3278.737        5.006        2.167      235.370       49.392        0.044      335.356        5.932      852.600
12/12/2021  23:40:00       61.537     -402.014      -57.101      244.865      182.672       98.199    59958.960    33369.124     9643.077       13.580        5.149      406.697      109.094        0.072      335.363        5.942      852.610
12/12/2021  23:41:00       12.653      -58.225      -24.299       64.928       65.925       44.718     4215.708     4346.089     1999.742        0.735        0.528       59.584       22.592        0.144      335.467        6.119      852.710
12/12/2021  23:42:00       61.306       -4.024      -37.443       81.025       47.353       34.321     6565.070     2242.315     1177.928        0.758        0.499       61.438       21.598        0.124      335.382        5.979      852.730
12/12/2021  23:43:00       72.021     -127.623      -42.726       82.494       84.147       45.746     6805.244     7080.723     2092.738        1.964        0.799      146.542       40.704        0.077      335.427        6.051      852.713
12/12/2021  23:44:00       32.355     -167.236      -25.388       70.240      101.868       52.951     4933.701    10377.179     2803.861        2.388        0.906      170.337       28.309        0.028      335.466        6.118      852.742
12/12/2021  23:45:00       62.383      -81.678      -24.699       61.939       91.661       41.685     3836.421     8401.649     1737.677        1.257        0.699      102.776       34.137        0.110      335.432        6.063      852.672
12/12/2021  23:46:00      153.068      -27.913      -28.367      118.609       95.393       62.136    14067.992     9099.917     3860.941        2.602        1.351      155.592       48.180        0.096      335.376        5.964      852.552
12/12/2021  23:47:00      141.549      -52.477      -32.378       90.274       82.914       63.753     8149.426     6874.761     4064.440        2.146        0.954      150.963       48.914        0.105      335.438        6.071      852.502
12/12/2021  23:48:00       89.197     -193.259      -46.426       53.783       93.177       44.528     2892.662     8682.002     1982.739        3.051        0.678      212.850       31.791        0.022      335.407        6.017      852.606
12/12/2021  23:49:00       22.335     -130.168      -32.062       97.670       69.074       41.337     9539.373     4771.285     1708.723        1.724        0.801      132.070       50.732        0.148      335.500        6.174      852.652
12/12/2021  23:50:00       89.293     -110.464      -39.218      134.720      106.625       74.277    18149.557    11368.856     5517.065        2.837        1.752      142.041       71.411        0.253      335.515        6.199      852.660
12/12/2021  23:51:00      246.529     -377.126      -91.599       77.517      129.797       48.812     6008.940    16847.353     2382.648       11.831        1.262      450.556       55.727        0.015      335.302        5.842      852.580
12/12/2021  23:52:00      147.015     -282.257      -59.261       80.806       87.507       45.951     6529.597     7657.532     2111.513        6.054        0.815      318.249       41.347        0.017      335.295        5.829      852.584
12/12/2021  23:53:00       22.756      -74.869      -43.198       79.270       93.557       42.522     6283.673     8752.859     1808.092        1.241        0.842       78.251       34.225        0.191      335.383        5.979      852.581
12/12/2021  23:54:00       28.478      -15.119      -12.474       52.441       59.056       41.974     2750.090     3487.572     1761.818        0.460        0.400       32.243       31.398        0.948      335.426        6.051      852.565
12/12/2021  23:55:00       81.731      -20.870      -40.933       63.048       68.512       39.091     3974.989     4693.948     1528.077        0.949        0.510       84.354       22.350        0.070      335.371        5.959      852.461
12/12/2021  23:56:00      131.174     -240.305      -69.738       71.719      103.033       46.322     5143.597    10615.803     2145.734        4.886        0.895      273.776       35.811        0.017      335.236        5.733      852.382
12/12/2021  23:57:00      158.166     -254.393      -63.142       82.740      125.908       47.990     6845.920    15852.833     2303.040        5.936        1.250      299.554       41.972        0.020      335.148        5.587      852.283
12/12/2021  23:58:00      190.528      -97.714      -53.520       73.708      113.135       46.222     5432.809    12799.441     2136.480        3.454        1.018      214.123       38.989        0.033      335.190        5.656      852.264
12/12/2021  23:59:00       79.627     -118.369      -35.853      105.667      118.351       59.035    11165.521    14006.924     3485.180        2.514        1.433      142.660       49.665        0.121      335.258        5.769      852.280
12/13/2021  00:00:00      103.143     -187.604      -50.220      106.000      140.381       58.908    11235.939    19706.807     3470.110        4.138        1.721      214.088       69.965        0.107      335.181        5.642      852.330
12/13/2021  00:01:00      190.514     -344.924      -86.531      139.026      203.673       62.357    19328.161    41482.617     3888.392       11.372        3.235      394.041       77.474        0.039      335.125        5.550      852.273
12/13/2021  00:02:00       40.703      -46.834      -42.088       71.805       93.098       50.457     5155.913     8667.209     2545.953        1.099        0.818       62.050       41.222        0.441      335.163        5.615      852.216
12/13/2021  00:03:00       64.233     -152.549      -49.699       93.986      119.974       70.976     8833.411    14393.762     5037.602        2.906        1.413      165.521       55.547        0.113      335.235        5.731      852.235
12/13/2021  00:04:00       46.049     -375.216      -39.628      105.018      164.798       70.334    11028.702    27158.439     4946.935        9.380        2.157      378.031       73.443        0.038      335.276        5.798      852.336
12/13/2021  00:05:00       39.762     -176.878      -25.437       86.499      109.920       47.634     7482.123    12082.427     2268.987        2.767        1.092      181.292       34.911        0.037      335.240        5.740      852.444
12/13/2021  00:06:00       10.486     -140.729      -40.713       79.502       81.342       51.072     6320.534     6616.564     2608.367        1.856        0.777      141.119       23.863        0.029      335.314        5.864      852.578
12/13/2021  00:07:00       -5.469      -40.698       -6.266       43.792       65.927       33.653     1917.723     4346.353     1132.546        0.456        0.370       41.064       30.743        0.560      335.367        5.953      852.713
12/13/2021  00:08:00     -117.416      -17.616      -16.736       87.843       68.763       38.978     7716.329     4728.407     1519.264        1.417        0.698      118.730       32.059        0.073      335.330        5.891      852.781
12/13/2021  00:09:00      -43.026      -34.688      -26.104      101.727       51.482       39.227    10348.457     2650.425     1538.757        0.913        0.727       55.268       28.663        0.269      335.339        5.906      852.898
12/13/2021  00:10:00      -75.511      -60.236      -28.677       74.740      103.535       52.891     5586.012    10719.433     2797.428        1.462        0.955       96.593       53.985        0.312      335.373        5.963      852.953
12/13/2021  00:11:00      -99.851      -43.379      -27.325       44.145       65.036       34.238     1948.758     4229.710     1172.208        0.997        0.368      108.867       32.791        0.091      335.338        5.904      852.889
12/13/2021  00:12:00      -43.014      -16.233       -7.566       71.298       56.875       30.413     5083.473     3234.786      924.936        0.571        0.462       45.975        6.324        0.019      335.317        5.869      852.864
12/13/2021  00:13:00        9.482      -13.428      -15.680       37.563       38.760       36.919     1410.956     1502.315     1363.025        0.240        0.214       16.438       20.960        1.626      335.371        5.958      852.822
12/13/2021  00:14:00      101.216     -157.792      -52.626       63.082       86.587       40.227     3979.336     7497.325     1618.240        2.550        0.655      187.465       37.459        0.040      335.299        5.839      852.690
12/13/2021  00:15:00      145.685     -288.505      -65.472      106.610      128.484       59.214    11365.600    16508.232     3506.283        7.006        1.569      323.202       48.881        0.023      335.154        5.598      852.528
12/13/2021  00:16:00      160.168     -267.856      -84.540      133.153      119.159       74.053    17729.713    14198.879     5483.833        7.097        1.871      312.091       75.238        0.058      335.215        5.698      852.350
12/13/2021  00:17:00      246.904     -322.657      -93.659      116.892      166.697       80.932    13663.732    27787.928     6549.994       11.091        2.400      406.287       57.300        0.020      335.085        5.483      852.224
12/13/2021  00:18:00       56.616     -248.953      -48.710      116.962      123.914       61.139    13680.089    15354.746     3737.998        5.016        1.639      255.310       58.014        0.052      335.186        5.650      852.301
12/13/2021  00:19:00      199.515     -285.354      -96.772      155.912      155.938       77.044    24308.478    24316.782     5935.775        9.257        2.728      348.185       75.192        0.047      335.107        5.520      852.403
12/13/2021  00:20:00      106.898     -191.079      -87.383       99.772      169.051       77.569     9954.443    28578.254     6016.898        5.005        2.227      218.949       51.515        0.055      335.129        5.556      852.502
12/13/2021  00:21:00       68.952     -178.739      -46.178       92.414       99.110       60.344     8540.358     9822.790     3641.347        3.042        1.100      191.578       43.754        0.052      335.141        5.576      852.590
12/13/2021  00:22:00      187.880     -322.217      -76.951      127.422      128.935       62.826    16236.266    16624.234     3947.156        9.092        1.840      372.991       54.786        0.022      335.067        5.451      852.623
12/13/2021  00:23:00       35.248     -103.135      -30.824      114.395      116.335       61.127    13086.164    13533.728     3736.507        2.159        1.518      108.992       61.803        0.322      335.067        5.454      852.674
12/13/2021  00:24:00      111.401     -192.265      -34.041      119.940       96.332       47.095    14385.703     9279.822     2217.956        3.820        1.294      222.207       35.331        0.025      335.162        5.612      852.759
12/13/2021  00:25:00      157.529     -308.620      -76.224      117.196      140.903       64.937    13734.930    19853.634     4216.802        8.183        1.890      346.499       60.896        0.031      335.038        5.405      852.724
12/13/2021  00:26:00      158.294     -387.639      -67.889       66.524       94.531       47.660     4425.465     8936.048     2271.447        9.778        0.782      418.713       32.884        0.006      334.994        5.332      852.691
12/13/2021  00:27:00      251.289     -404.432      -91.881      167.686      151.414       87.116    28118.557    22926.250     7589.160       14.688        2.932      476.142       98.136        0.042      334.977        5.305      852.666
12/13/2021  00:28:00      169.475     -206.656      -66.414      159.601      153.684       79.747    25472.394    23618.646     6359.551        6.563        2.773      267.261       67.147        0.063      335.000        5.340      852.649
12/13/2021  00:29:00       53.782     -122.524      -60.447      131.371      144.379       58.603    17258.370    20845.283     3434.340        3.154        2.077      133.808       17.836        0.018      335.029        5.391      852.630
12/13/2021  00:30:00      101.157     -169.803      -60.971       94.934      144.245       65.175     9012.383    20806.698     4247.778        3.842        1.703      197.651       49.179        0.062      334.967        5.288      852.641
12/13/2021  00:31:00       41.464      -71.339      -38.940       78.847       70.662       54.097     6216.851     4993.147     2926.452        1.123        0.707       82.513       39.532        0.230      335.032        5.397      852.647
12/13/2021  00:32:00      154.424     -160.412      -50.792      105.620      150.146       60.096    11155.527    22543.786     3611.506        4.473        1.866      222.663       52.327        0.055      334.948        5.257      852.633
12/13/2021  00:33:00      114.020     -298.791      -55.767      144.836      184.042       69.168    20977.415    33871.539     4784.227        8.250        2.982      319.808       67.667        0.045      334.973        5.296      852.599
12/13/2021  00:34:00      172.930     -274.287      -43.121      123.026      172.802       90.932    15135.507    29860.636     8268.567        8.012        2.663      324.250       81.949        0.064      334.908        5.189      852.623
12/13/2021  00:35:00      135.821     -250.432      -55.696       95.024      129.938       56.845     9029.518    16883.952     3231.384        5.670        1.457      284.892       44.682        0.025      334.902        5.179      852.672
12/13/2021  00:36:00      180.024     -282.598      -70.166       98.256      121.785       49.538     9654.248    14831.626     2453.992        7.206        1.347      335.068       35.629        0.011      334.877        5.137      852.691
12/13/2021  00:37:00      154.085     -158.783      -63.243       77.873       82.957       56.495     6064.232     6881.924     3191.640        3.454        0.807      221.256       43.572        0.039      334.882        5.145      852.560
12/13/2021  00:38:00      160.750     -262.913      -64.864      134.645      115.502       59.818    18129.220    13340.664     3578.203        6.710        1.752      308.162       67.039        0.047      334.884        5.149      852.499
12/13/2021  00:39:00      132.630     -336.368      -57.651       46.942       56.683       36.727     2203.587     3212.982     1348.849        7.041        0.338      361.572       20.645        0.003      334.824        5.049      852.421
12/13/2021  00:40:00      161.757     -312.000      -60.018      112.023      106.159       57.087    12549.150    11269.705     3258.909        7.709        1.354      351.439       45.888        0.017      334.884        5.148      852.293
12/13/2021  00:41:00      164.698     -219.155      -60.313       82.468      128.561       46.738     6800.931    16527.907     2184.396        5.215        1.276      274.143       30.325        0.012      334.864        5.114      852.343
12/13/2021  00:42:00      155.806     -214.356      -37.305      121.287      159.755       83.669    14710.514    25521.504     7000.432        5.942        2.362      264.998       86.107        0.106      334.858        5.105      852.330
12/13/2021  00:43:00       25.329      -37.974      -47.053       57.736      102.083       46.055     3333.394    10420.860     2121.079        1.008        0.794       45.646       53.583        1.378      334.900        5.178      852.375
12/13/2021  00:44:00       51.461       16.696      -17.436       58.690       39.041       29.907     3444.505     1524.230      894.419        0.455        0.293       54.101       18.255        0.114      334.948        5.259      852.352
12/13/2021  00:45:00      168.770      -88.121      -49.800       93.685       94.492       59.644     8776.964     8928.772     3557.401        2.999        1.063      190.391       44.730        0.055      334.835        5.066      852.220
12/13/2021  00:46:00      119.866     -189.011      -69.686      128.500      124.608       59.035    16512.216    15527.261     3485.085        4.523        1.776      223.815       34.869        0.024      334.788        4.991      852.109
12/13/2021  00:47:00       54.249     -117.794      -17.816      112.689      110.379       58.113    12698.840    12183.576     3377.095        2.269        1.413      129.685       66.967        0.267      334.854        5.101      852.116
12/13/2021  00:48:00      142.340     -256.521      -53.138       90.433      204.687       56.207     8178.077    41896.633     3159.276        7.105        2.662      293.366       62.204        0.045      334.779        4.974      852.053
12/13/2021  00:49:00      142.999     -229.053      -55.049       89.798      133.308       68.880     8063.770    17770.901     4744.417        5.326        1.529      270.026       66.107        0.060      334.761        4.943      851.990
12/13/2021  00:50:00       51.515     -191.455      -62.252      116.517      154.914       67.416    13576.328    23998.367     4544.865        4.264        2.106      198.265       47.034        0.056      334.902        5.178      851.979
12/13/2021  00:51:00       55.914     -119.392      -48.385      135.473      107.248       66.711    18352.870    11502.094     4450.384        2.701        1.715      131.837       63.372        0.231      334.913        5.198      852.049
12/13/2021  00:52:00      136.170     -422.757      -88.325      133.627      126.574       69.937    17856.161    16021.060     4891.238       12.191        1.938      444.146       61.714        0.019      334.969        5.290      852.190
12/13/2021  00:53:00      163.696     -327.395      -65.082      114.318      128.196       64.777    13068.711    16434.186     4196.060        8.595        1.685      366.038       50.941        0.019      334.903        5.179      852.237
12/13/2021  00:54:00       76.565     -144.060      -29.072      116.319      145.037       65.736    13529.996    21035.619     4321.211        3.317        1.944      163.142       37.620        0.053      334.947        5.255      852.290
12/13/2021  00:55:00      141.417     -278.935      -59.690      120.088      148.077       74.676    14421.242    21926.790     5576.545        7.164        2.096      312.735       65.360        0.044      334.904        5.182      852.335
12/13/2021  00:56:00      105.273     -305.070      -39.027      103.402      153.193       68.127    10691.941    23468.175     4641.249        7.223        1.940      322.723       66.788        0.043      334.941        5.244      852.412
12/13/2021  00:57:00      120.574     -266.351      -85.233      116.825       97.010       67.779    13648.079     9410.956     4594.041        6.019        1.383      292.371       44.595        0.023      334.966        5.284      852.484
12/13/2021  00:58:00       38.324     -145.863      -54.336      122.265      118.025       71.228    14948.744    13929.917     5073.495        2.982        1.698      150.813       27.928        0.034      335.117        5.536      852.610
12/13/2021  00:59:00       27.431     -151.027      -55.488      108.617       87.730       59.356    11797.599     7696.523     3523.162        2.482        1.151      153.498       34.388        0.050      335.087        5.487      852.633
12/13/2021  01:00:00       19.977     -141.780      -22.585       84.298       68.121       55.607     7106.127     4640.412     3092.175        1.792        0.742      143.181       41.824        0.085      335.226        5.717      852.508
12/13/2021  01:01:00       84.249     -123.907      -45.192       65.656       94.130       49.283     4310.763     8860.446     2428.788        2.004        0.780      149.836       35.089        0.055      335.063        5.447      852.329
12/13/2021  01:02:00      135.128     -340.176      -73.727      128.864      162.940       67.204    16606.036    26549.591     4516.339        9.353        2.384      366.032       61.073        0.028      334.966        5.285      852.299
12/13/2021  01:03:00      -35.299     -121.079      -27.806       85.175       80.219       56.279     7254.821     6435.108     3167.364        1.677        0.843      126.120       33.390        0.070      335.088        5.488      852.325
12/13/2021  01:04:00      -93.087      -92.555      -45.680       74.132      103.189       78.965     5495.566    10647.924     6235.405        2.084        1.119      131.269       60.929        0.215      335.092        5.498      852.384
12/13/2021  01:05:00       94.671     -266.149      -44.251      171.591      187.103       66.717    29443.351    35007.650     4451.163        7.532        3.445      282.485       91.886        0.106      335.124        5.547      852.364
12/13/2021  01:06:00      157.228     -186.334      -59.580      108.382      117.309       72.161    11746.725    13761.513     5207.220        4.685        1.536      243.806       66.370        0.074      335.034        5.399      852.291
12/13/2021  01:07:00       92.699     -158.661      -41.432      126.228      116.027       76.315    15933.589    13462.300     5823.988        3.535        1.761      183.757       53.706        0.085      335.034        5.398      852.332
12/13/2021  01:08:00       93.022     -211.504      -49.775      104.851       95.892       55.866    10993.718     9195.279     3120.971        3.958        1.165      231.056       55.725        0.058      335.055        5.432      852.417
12/13/2021  01:09:00       98.159     -206.824      -51.921       87.224       84.514       48.182     7608.101     7142.695     2321.498        3.609        0.854      228.935       28.403        0.015      335.092        5.493      852.464
12/13/2021  01:10:00      -11.983      -13.321      -12.691       60.681       68.317       32.911     3682.202     4667.152     1083.155        0.496        0.472       17.918       33.255        3.445      335.139        5.575      852.405
12/13/2021  01:11:00      112.714      -19.149      -34.743       76.196       74.966       45.031     5805.807     5619.845     2027.752        1.386        0.673      114.329       38.943        0.116      335.175        5.634      852.289
12/13/2021  01:12:00       90.711     -164.761      -42.668       59.015       54.890       36.879     3482.723     3012.949     1360.055        2.252        0.393      188.081       34.028        0.033      335.064        5.448      852.245
12/13/2021  01:13:00       30.078      -89.406      -24.677       48.909       72.414       25.221     2392.106     5243.835      636.090        0.889        0.414       94.330       24.824        0.069      335.109        5.526      852.303
12/13/2021  01:14:00      -60.760      -31.691      -10.433       55.530       37.534       26.113     3083.584     1408.811      681.885        0.499        0.259       68.528       20.319        0.088      335.119        5.542      852.334
12/13/2021  01:15:00      -27.097      -46.967      -16.694       49.299       44.252       41.353     2430.354     1958.215     1710.069        0.466        0.305       54.223       25.537        0.222      335.135        5.567      852.344
12/13/2021  01:16:00       38.436     -112.716      -35.095       73.706       77.732       55.027     5432.514     6042.220     3027.990        1.496        0.725      119.089       37.860        0.101      335.295        5.831      852.254
12/13/2021  01:17:00      137.221     -163.628      -59.626       86.907      115.398       51.769     7552.869    13316.715     2680.023        3.635        1.177      213.550       41.380        0.038      335.057        5.437      852.110
12/13/2021  01:18:00      107.870     -290.450      -58.393       98.097      132.170       69.887     9622.929    17468.839     4884.131        6.569        1.599      309.834       73.458        0.056      335.086        5.483      852.009
12/13/2021  01:19:00      123.785     -110.508      -24.989       72.397       72.779       41.327     5241.302     5296.722     1707.939        2.020        0.612      165.937       29.859        0.032      335.099        5.508      852.001
12/13/2021  01:20:00       63.070     -201.942      -41.952       57.877       79.159       41.704     3349.771     6266.171     1739.264        2.893        0.568      211.562       27.481        0.017      335.137        5.570      852.048
12/13/2021  01:21:00       50.715      -77.961      -27.019       67.740       75.247       54.151     4588.713     5662.067     2932.333        1.128        0.659       93.005       44.182        0.226      335.190        5.657      852.116
12/13/2021  01:22:00       92.323     -187.093      -48.748      139.106      151.342       66.522    19350.368    22904.352     4425.175        4.628        2.334      208.632       51.551        0.061      335.218        5.703      852.127
12/13/2021  01:23:00       98.859     -230.964      -60.647      101.974      210.167       65.782    10398.688    44170.090     4327.291        6.284        2.945      251.232       35.194        0.020      335.267        5.785      852.162
12/13/2021  01:24:00       47.112     -166.436      -43.011       78.079      120.264       56.535     6096.358    14463.364     3196.173        2.776        1.188      172.975       35.096        0.041      335.217        5.701      852.138
12/13/2021  01:25:00      172.248     -210.812      -54.595      124.027      139.913       84.312    15382.813    19575.643     7108.523        5.957        2.103      272.233       55.539        0.042      335.141        5.576      852.116
12/13/2021  01:26:00       29.748     -166.099      -74.476       98.525      177.331       64.200     9707.178    31446.390     4121.638        3.964        2.264      168.742       56.002        0.110      335.198        5.671      852.109
12/13/2021  01:27:00       13.536     -192.604      -32.609      108.050      124.438       80.687    11674.805    15484.694     6510.449        3.600        1.683      193.079       67.870        0.124      335.265        5.781      852.101
12/13/2021  01:28:00      114.319     -273.583      -91.853      197.520      156.603       83.110    39014.156    24524.421     6907.248        8.339        3.522      296.507       86.704        0.086      335.207        5.686      851.996
12/13/2021  01:29:00       92.888     -292.551      -92.622      232.691      214.833      106.269    54145.294    46153.103    11292.996       10.717        5.580      306.944      115.171        0.141      335.097        5.503      851.946
12/13/2021  01:30:00      139.452     -377.383      -58.566      168.250      362.855      101.781    28308.180   131663.532    10359.363       16.778        8.517      402.324      142.121        0.125      335.079        5.475      851.977
12/13/2021  01:31:00      243.473     -326.457     -115.814      172.679      231.653      114.563    29817.991    53662.921    13124.682       13.792        4.830      407.251       77.858        0.037      335.069        5.457      851.845
12/13/2021  01:32:00      167.653     -374.644      -75.333      118.342      125.275       76.239    14004.907    15693.848     5812.389       10.482        1.776      410.446       39.314        0.009      335.072        5.461      851.863
12/13/2021  01:33:00      268.651     -331.086     -101.478      153.266      197.163       91.239    23490.598    38873.080     8324.487       13.138        3.534      426.370       84.055        0.039      334.992        5.328      851.834
12/13/2021  01:34:00      237.412     -401.017     -111.447      191.769      223.416       88.767    36775.455    49914.549     7879.515       16.207        4.728      466.025      104.923        0.051      335.003        5.344      851.843
12/13/2021  01:35:00       42.239     -217.244      -49.659      118.009      162.770       73.993    13926.144    26494.047     5474.903        4.866        2.295      221.312       67.390        0.093      335.117        5.536      851.945
12/13/2021  01:36:00       25.765     -201.553      -56.426      132.046      157.570       80.268    17436.160    24828.183     6442.899        4.658        2.435      203.194       33.421        0.027      335.186        5.651      851.982
12/13/2021  01:37:00      125.260     -262.907      -74.648       65.753       89.592       55.465     4323.514     8026.742     3076.379        5.290        0.771      291.222       28.102        0.009      335.028        5.387      851.915
12/13/2021  01:38:00      115.303     -201.871      -45.686      103.161       97.667       56.925    10642.131     9538.938     3240.472        3.977        1.171      232.480       56.166        0.058      335.008        5.354      851.884
12/13/2021  01:39:00      158.228     -197.686      -54.179      110.145      102.316       63.341    12131.852    10468.654     4012.096        4.683        1.331      253.211       65.083        0.066      334.978        5.305      851.888
12/13/2021  01:40:00      130.336     -179.705      -52.623      111.974      122.116       55.622    12538.283    14912.293     3093.761        4.129        1.527      221.994       60.482        0.074      334.971        5.294      851.837
12/13/2021  01:41:00       20.980     -102.526      -28.811       94.429       90.478       66.861     8916.825     8186.310     4470.416        1.667        1.079      104.650       28.290        0.073      335.034        5.400      851.780
12/13/2021  01:42:00       79.183     -111.058      -44.001       65.204      108.930       43.784     4251.571    11865.643     1917.022        1.928        0.902      136.396       26.309        0.037      335.055        5.434      851.762
12/13/2021  01:43:00      193.071     -202.269      -57.318      117.874      140.531       82.395    13894.281    19748.943     6788.889        6.095        2.022      279.623       72.311        0.067      334.924        5.214      851.809
12/13/2021  01:44:00      -61.200     -133.082      -39.867      124.753      108.314       59.819    15563.363    11731.920     3578.283        2.695        1.544      146.480       63.502        0.188      335.082        5.477      851.860
12/13/2021  01:45:00       93.468     -120.543      -47.831       74.058      110.560       40.606     5484.628    12223.505     1648.818        2.245        0.968      152.535       20.900        0.019      335.083        5.480      851.810
12/13/2021  01:46:00      111.071     -160.781      -34.382       96.356      131.505       65.169     9284.531    17293.453     4247.029        3.509        1.541      195.415       51.850        0.070      334.929        5.222      851.646
12/13/2021  01:47:00       89.249      -94.078      -47.708       88.754      148.697       63.715     7877.263    22110.833     4059.597        2.656        1.702      129.677       50.220        0.150      334.951        5.262      851.487
12/13/2021  01:48:00      118.606      -87.758      -45.097      131.887      125.021       68.550    17394.275    15630.206     4699.150        3.076        1.886      147.542       63.234        0.184      334.937        5.237      851.418
12/13/2021  01:49:00      101.019     -288.519      -47.833      116.500      192.506       63.926    13572.271    37058.409     4086.575        7.522        2.736      305.692       83.650        0.075      334.901        5.177      851.384
12/13/2021  01:50:00      134.917     -183.279      -43.597       67.555      117.067       49.260     4563.718    13704.730     2426.531        3.719        1.035      227.582       48.026        0.045      334.868        5.121      851.352
12/13/2021  01:51:00      177.066      -84.737      -54.130      118.755      130.702       66.302    14102.863    17083.111     4396.003        3.852        1.779      196.297       62.822        0.102      334.906        5.185      851.211
12/13/2021  01:52:00      173.435     -371.998      -95.282      114.701      189.334       53.933    13156.394    35847.411     2908.726       11.472        2.596      410.441       41.755        0.010      334.911        5.194      851.203
12/13/2021  01:53:00      232.282     -378.815      -85.149      105.776      162.836       65.771    11188.522    26515.450     4325.831       12.336        2.101      444.360       52.811        0.014      334.841        5.078      851.100
12/13/2021  01:54:00       66.528     -307.759      -66.160      101.962      146.930       60.910    10396.240    21588.366     3710.066        6.960        1.785      314.867       35.523        0.013      334.866        5.119      851.065
12/13/2021  01:55:00      155.533     -199.461      -40.773      106.408      106.233       64.303    11322.574    11285.355     4134.863        4.619        1.337      252.933       50.191        0.039      334.841        5.076      851.047
12/13/2021  01:56:00      238.045     -497.690      -93.096       83.370      159.806       53.891     6950.630    25537.835     2904.284       17.420        1.770      551.689       55.241        0.010      334.808        5.022      850.986
12/13/2021  01:57:00      162.436     -411.182      -64.870      110.863      121.801       61.030    12290.686    14835.485     3724.713       11.525        1.543      442.104       55.721        0.016      334.843        5.079      850.975
12/13/2021  01:58:00      175.454     -387.201      -68.985      124.729      130.402       75.275    15557.332    17004.575     5666.258       11.184        1.911      425.098       63.637        0.022      334.833        5.062      850.931
12/13/2021  01:59:00      106.169      -83.466      -28.734      120.419      131.672       57.547    14500.635    17337.527     3311.645        2.710        1.757      135.050       69.487        0.265      334.860        5.110      850.945
12/13/2021  02:00:00      219.553     -398.376      -87.768      105.490      175.636       63.963    11128.224    30847.927     4091.216       13.033        2.303      454.871       64.281        0.020      334.822        5.044      850.955
12/13/2021  02:01:00      256.503     -384.230      -96.444      117.820      172.913       69.825    13881.590    29898.756     4875.535       13.568        2.433      461.981       66.550        0.021      334.817        5.036      850.943
12/13/2021  02:02:00      136.793     -200.384      -62.074       96.644      161.467       67.923     9340.034    26071.539     4613.570        5.136        2.001      242.623       45.644        0.035      334.867        5.120      850.862
12/13/2021  02:03:00      181.430     -226.043      -62.106       85.434      155.687       64.630     7298.967    24238.320     4176.975        6.179        1.786      289.849       53.529        0.034      334.900        5.176      850.907
12/13/2021  02:04:00      200.926     -230.729      -79.261      161.547      183.518       82.553    26097.381    33678.877     6815.058        8.323        3.330      305.953       99.623        0.106      334.932        5.227      850.954
12/13/2021  02:05:00      343.295     -630.484     -141.639      184.504      206.478      100.600    34041.852    42633.006    10120.435       31.109        4.340      717.887      100.008        0.019      334.881        5.141      850.911
12/13/2021  02:06:00      147.046     -282.126      -64.379      123.684      116.189       83.634    15297.732    13499.879     6994.644        7.057        1.790      318.147       61.771        0.038      334.892        5.159      851.036
12/13/2021  02:07:00       85.672     -320.246      -48.427       92.735      136.273       51.235     8599.855    18570.263     2624.979        7.101        1.490      331.507       23.737        0.005      334.903        5.181      851.097
12/13/2021  02:08:00      132.468     -220.694      -59.779      143.616      189.483       87.923    20625.526    35903.781     7730.529        6.703        3.213      257.398       96.746        0.141      334.885        5.152      851.139
12/13/2021  02:09:00       89.569     -135.175      -50.352      173.834      135.907       67.970    30218.364    18470.666     4619.902        4.106        2.665      162.157       83.448        0.265      334.975        5.299      851.294
12/13/2021  02:10:00       55.165     -386.450      -76.388      180.963      177.891       85.257    32747.712    31645.054     7268.815       11.493        3.583      390.368       59.805        0.023      334.964        5.281      851.287
12/13/2021  02:11:00      164.774     -308.030      -76.785      158.323      178.442       82.622    25066.294    31841.468     6826.342        9.582        3.187      349.333       71.587        0.042      334.936        5.235      851.233
12/13/2021  02:12:00      108.220     -267.111      -21.496      140.503      177.167       88.879    19741.196    31388.124     7899.476        7.126        2.951      288.201       93.536        0.105      334.970        5.291      851.292
12/13/2021  02:13:00      157.272     -321.204      -69.759      131.713      151.039       73.922    17348.421    22812.693     5464.389        8.919        2.281      357.640       58.586        0.027      334.971        5.293      851.398
12/13/2021  02:14:00       53.166     -156.083      -66.689      150.385      156.276       84.269    22615.512    24422.067     7101.261        4.288        2.707      164.889       55.950        0.115      335.042        5.411      851.514
12/13/2021  02:15:00       63.022     -314.865      -44.201      113.415      213.257       83.883    12862.900    45478.677     7036.395        8.521        3.269      321.110       77.780        0.059      335.066        5.453      851.570
12/13/2021  02:16:00      127.155     -337.846      -73.330      175.789      185.943      104.172    30901.822    34574.813    10851.881       10.599        3.816      360.982       78.260        0.047      335.077        5.470      851.624
12/13/2021  02:17:00       95.318     -225.030      -70.719      132.790      169.344       78.949    17633.202    28677.391     6232.972        5.862        2.627      244.385       70.165        0.082      335.082        5.478      851.623
12/13/2021  02:18:00       25.463     -223.061      -54.369      149.464      169.989       82.872    22339.349    28896.159     6867.813        5.572        2.905      224.510       75.613        0.113      335.192        5.660      851.529
12/13/2021  02:19:00       84.933     -340.898      -57.754      164.809      177.678       99.815    27161.889    31569.515     9963.053        9.771        3.435      351.319       62.514        0.032      335.159        5.606      851.527
12/13/2021  02:20:00      -46.219     -411.020      -81.919      242.839      171.637      107.090    58970.966    29459.226    11468.211       13.882        4.995      413.611       59.900        0.021      335.216        5.700      851.657
12/13/2021  02:21:00     -118.596     -175.096      -66.024      219.459      181.782       75.419    48162.261    33044.648     5688.021        6.797        4.345      211.480       43.379        0.042      335.236        5.733      851.700
12/13/2021  02:22:00       19.212     -294.338      -54.945      211.972      247.419      101.237    44932.225    61215.973    10248.883       10.319        5.820      294.964       90.296        0.094      335.230        5.723      851.803
12/13/2021  02:23:00     -167.539     -381.126      -84.799      205.449      191.445       90.399    42209.459    36651.110     8172.014       13.376        4.352      416.325       59.233        0.020      335.326        5.882      851.860
12/13/2021  02:24:00      -40.094     -251.935      -50.007      193.646      170.846      110.578    37498.674    29188.195    12227.599        7.323        3.946      255.106       89.626        0.123      335.304        5.845      851.884
12/13/2021  02:25:00      -83.021     -406.422      -62.167      185.374      170.732       97.662    34363.661    29149.559     9537.818       12.448        3.653      414.814       75.327        0.033      335.352        5.926      851.953
12/13/2021  02:26:00       38.515     -240.350      -46.266      132.862      155.430       82.880    17652.377    24158.429     6869.092        5.503        2.434      243.417       70.150        0.083      335.303        5.844      851.925
12/13/2021  02:27:00      -72.886     -250.134      -54.708      153.869      128.514       82.704    23675.792    16515.781     6839.984        5.894        2.352      260.537       62.586        0.058      335.308        5.852      851.873
12/13/2021  02:28:00     -145.737     -226.918      -50.054      243.774      163.501       94.124    59425.986    26732.647     8859.353        8.511        4.751      269.687       69.350        0.066      335.237        5.734      851.944
12/13/2021  02:29:00       65.771     -362.376     -108.940      177.923      216.966       88.800    31656.628    47074.333     7885.510       11.705        4.331      368.296       38.730        0.011      335.129        5.557      851.932
12/13/2021  02:30:00       29.709     -230.587      -54.096      135.957      155.446       81.463    18484.190    24163.567     6636.212        5.312        2.464      232.493       49.067        0.045      335.101        5.510      851.894
12/13/2021  02:31:00       77.543     -354.276     -135.856      230.435      229.109      121.494    53100.316    52491.015    14760.876       13.514        6.018      362.663      108.813        0.090      335.092        5.496      851.915
12/13/2021  02:32:00     -213.800     -343.976      -73.372      219.430      282.305      122.966    48149.375    79696.030    15120.736       15.616        7.148      405.006      105.311        0.068      335.085        5.483      852.036
12/13/2021  02:33:00      -29.210     -311.464      -76.351      186.072      205.744       94.039    34622.880    42330.676     8843.327        9.473        4.290      312.830       90.933        0.084      335.037        5.403      852.011
12/13/2021  02:34:00      -63.693     -353.883      -62.255      158.800      233.720      108.649    25217.496    54625.031    11804.553       11.239        4.582      359.569       95.645        0.071      335.047        5.420      852.016
12/13/2021  02:35:00      -21.349     -197.058      -34.439      174.545      122.943       54.475    30465.823    15115.053     2967.510        4.450        2.427      198.211       42.521        0.046      334.963        5.281      851.839
12/13/2021  02:36:00      -67.678      -77.876      -21.626       89.327      154.886       60.955     7979.377    23989.754     3715.553        2.339        1.784      103.175       31.642        0.094      334.931        5.228      851.620
12/13/2021  02:37:00       10.393     -125.811      -39.173       70.741       81.021       38.896     5004.325     6564.330     1512.876        1.527        0.654      126.240       19.444        0.024      334.889        5.159      851.444
12/13/2021  02:38:00       23.281     -137.595      -25.839       97.752      104.724       71.429     9555.485    10967.052     5102.099        2.288        1.281      139.551       53.532        0.147      334.793        4.999      851.272
12/13/2021  02:39:00      -19.617      -96.565      -18.743       55.632       74.587       35.164     3094.971     5563.186     1236.537        0.998        0.495       98.537       24.236        0.060      334.842        5.081      851.340
12/13/2021  02:40:00      -77.427       -0.368      -21.142       66.998       58.361       48.019     4488.794     3406.011     2305.840        0.832        0.510       77.428       42.903        0.307      334.718        4.874      851.365
12/13/2021  02:41:00       92.413     -206.789      -49.130      138.244      119.376       61.805    19111.503    14250.607     3819.916        4.544        1.859      226.500       25.441        0.013      334.732        4.896      851.333
12/13/2021  02:42:00      -39.956      -51.733      -13.493       59.458       59.704       43.505     3535.195     3564.548     1892.660        0.672        0.450       65.367       20.311        0.097      334.761        4.948      851.494
12/13/2021  02:43:00     -125.067      -25.941       -9.463       77.634       60.516       47.115     6027.082     3662.144     2219.848        1.415        0.595      127.729       34.078        0.071      334.666        4.788      851.636
12/13/2021  02:44:00      -85.642     -154.825      -38.973       97.378      138.355       70.826     9482.498    19142.106     5016.262        3.323        1.682      176.933       49.641        0.079      334.702        4.845      851.758
12/13/2021  02:45:00      -48.953      -47.941      -22.779       83.674       98.692       65.893     7001.274     9740.191     4341.885        1.314        1.054       68.518       46.071        0.452      334.623        4.717      851.810
12/13/2021  02:46:00      -37.622      -16.224      -23.220       69.042       55.255       47.103     4766.780     3053.064     2218.655        0.613        0.502       40.972       21.495        0.275      334.619        4.709      851.798
12/13/2021  02:47:00      -52.770      -24.821      -15.925       57.643       70.070       34.731     3322.773     4909.857     1206.239        0.654        0.472       58.316       19.190        0.108      334.591        4.662      851.786
12/13/2021  02:48:00       -2.547     -169.123      -21.976       88.482       92.214       39.591     7828.978     8503.404     1567.421        2.349        0.895      169.142       37.139        0.048      334.721        4.880      851.752
12/13/2021  02:49:00       17.126     -143.214      -43.262       90.430       92.556       52.780     8177.614     8566.665     2785.725        2.110        0.977      144.235       31.975        0.049      334.677        4.803      851.690
12/13/2021  02:50:00       83.592     -109.995      -32.902       82.514      104.279       59.647     6808.588    10874.039     3557.735        2.070        1.062      138.154       54.614        0.156      334.502        4.515      851.701
12/13/2021  02:51:00      -26.221      -94.528      -21.693       72.488       89.811       44.213     5254.439     8065.999     1954.773        1.268        0.764       98.097       24.597        0.063      334.616        4.705      851.769
12/13/2021  02:52:00      -72.636     -166.957      -17.548      111.120      109.874       55.317    12347.595    12072.321     3059.959        3.046        1.374      182.074       26.725        0.022      334.621        4.712      851.763
12/13/2021  02:53:00        7.911      -93.202      -27.523       50.174       71.504       57.192     2517.444     5112.778     3270.935        1.020        0.545       93.537       48.700        0.271      334.601        4.680      851.766
12/13/2021  02:54:00      -44.491     -121.975       -7.010       80.018       78.582       55.265     6402.824     6175.140     3054.183        1.627        0.782      129.836       30.227        0.054      334.635        4.736      851.865
12/13/2021  02:55:00       13.636      -57.652      -12.655       81.553      131.156       39.111     6650.924    17201.996     1529.656        1.452        1.269       59.243       53.010        0.801      334.522        4.547      851.870
12/13/2021  02:56:00      -68.747      -47.663      -35.246       50.879       70.362       43.155     2588.658     4950.772     1862.371        0.882        0.470       83.654       40.758        0.237      334.572        4.631      851.722
12/13/2021  02:57:00        3.949      -41.423      -25.165       78.306      106.095       41.062     6131.771    11256.060     1686.082        1.072        0.954       41.611       49.466        1.413      334.537        4.573      851.625
12/13/2021  02:58:00      -83.912     -257.531      -40.732      214.069      137.098       84.322    45825.437    18795.795     7110.236        7.336        3.587      270.857       61.710        0.052      334.474        4.468      851.579
12/13/2021  02:59:00      -21.304     -129.472      -18.040       90.648      147.205       58.971     8217.137    21669.310     3477.628        2.545        1.668      131.213       58.737        0.200      334.480        4.478      851.543
12/13/2021  03:00:00      -10.700      -64.517      -14.062       80.919      161.273       66.395     6547.851    26008.997     4408.348        2.071        1.848       65.399       51.323        0.616      334.431        4.398      851.554
12/13/2021  03:01:00       55.383      -39.304      -16.614       62.624       46.814       42.975     3921.749     2191.595     1846.852        0.642        0.398       67.912       22.092        0.106      334.389        4.328      851.577
12/13/2021  03:02:00      -72.128      -58.054      -22.000       49.745       49.652       29.574     2474.554     2465.370      874.650        0.743        0.291       92.589       19.029        0.042      334.433        4.402      851.565
12/13/2021  03:03:00      -68.154      -53.156      -21.524       65.455       50.319       34.491     4284.367     2532.012     1189.611        0.797        0.400       86.433       22.411        0.067      334.384        4.321      851.654
12/13/2021  03:04:00     -118.039      -30.959      -23.057       74.866       59.745       38.121     5604.968     3569.500     1453.210        1.302        0.531      122.031       27.948        0.052      334.420        4.381      851.611
12/13/2021  03:05:00      -30.066      -68.867       -7.801       83.731       71.143       40.171     7010.944     5061.260     1613.690        0.969        0.684       75.144       30.309        0.163      334.446        4.421      851.611
12/13/2021  03:06:00      -10.785      -92.126      -36.430       82.261       69.076       53.988     6766.864     4771.428     2914.744        1.219        0.723       92.756       44.644        0.232      334.496        4.504      851.623
12/13/2021  03:07:00      -39.877      -16.163      -13.634       28.678       28.006       23.385      822.449      784.355      546.869        0.210        0.108       43.028       10.320        0.058      334.487        4.491      851.667
12/13/2021  03:08:00      -21.038        8.841       -0.639       51.149       82.239       29.979     2616.232     6763.284      898.763        0.540        0.514       22.820       35.211        2.381      334.425        4.387      851.680
12/13/2021  03:09:00      -20.408     -102.245      -31.634       78.363       82.509       42.824     6140.706     6807.742     1833.897        1.332        0.739      104.262       48.124        0.213      334.540        4.579      851.669
12/13/2021  03:10:00      -56.643      -44.955       -6.058       46.561       58.126       27.205     2167.902     3378.580      740.123        0.578        0.314       72.314       16.949        0.055      334.486        4.489      851.635
12/13/2021  03:11:00       25.840      -67.721      -35.176       85.654      125.448       42.255     7336.593    15737.116     1785.454        1.567        1.243       72.483       31.745        0.192      334.474        4.468      851.596
12/13/2021  03:12:00      -87.881     -192.339      -22.886      100.879      101.481       61.428    10176.479    10298.433     3773.446        3.474        1.212      211.465       38.416        0.033      334.448        4.425      851.604
12/13/2021  03:13:00      -48.966      -61.564      -26.402      105.905       81.231       43.806    11215.802     6598.504     1918.936        1.331        0.987       78.662       29.027        0.136      334.483        4.485      851.628
12/13/2021  03:14:00       13.855      -40.960      -12.720       58.143       38.890       24.442     3380.612     1512.459      597.417        0.376        0.275       43.240       20.557        0.226      334.521        4.548      851.565
12/13/2021  03:15:00        1.828     -108.389      -19.950       77.141       70.468       39.119     5950.740     4965.708     1530.293        1.230        0.622      108.405       36.008        0.110      334.512        4.532      851.496
12/13/2021  03:16:00       21.548      -71.466      -32.225       77.051       60.070       31.593     5936.845     3608.401      998.090        0.857        0.527       74.644       19.388        0.067      334.441        4.415      851.482
12/13/2021  03:17:00      -54.299      -83.845      -35.922       76.341       90.685       40.398     5827.932     8223.820     1631.991        1.347        0.784       99.892       41.017        0.169      334.396        4.340      851.504
12/13/2021  03:18:00      -25.949        1.485      -15.026       28.161       48.983       18.303      793.062     2399.287      334.982        0.221        0.176       25.991       10.753        0.171      334.431        4.397      851.534
12/13/2021  03:19:00       13.358      -10.931      -13.617       47.914       50.791       31.182     2295.722     2579.750      972.296        0.316        0.292       17.261       27.229        2.489      334.538        4.574      851.413
12/13/2021  03:20:00       12.104      -19.105      -30.272       37.617       78.155       29.738     1415.005     6108.148      884.373        0.492        0.420       22.616       15.627        0.477      334.481        4.482      851.293
12/13/2021  03:21:00       -5.333      -41.899       -9.786       64.192       58.556       42.283     4120.575     3428.848     1787.849        0.561        0.467       42.237       22.671        0.288      334.522        4.548      851.338
12/13/2021  03:22:00       78.434     -183.139      -35.923      100.165      129.073       56.742    10033.082    16659.797     3219.618        3.544        1.496      199.228       56.310        0.080      334.479        4.475      851.396
12/13/2021  03:23:00      104.515     -260.184      -53.185      112.299       92.457       55.476    12611.026     8548.255     3077.546        5.284        1.212      280.391       47.553        0.029      334.480        4.478      851.328
12/13/2021  03:24:00      163.902     -242.624      -49.931      116.088      181.637       76.257    13476.527    32991.873     5815.103        7.024        2.614      292.798       83.522        0.081      334.406        4.355      851.149
12/13/2021  03:25:00      138.856     -185.910      -46.827       80.868      111.421       58.837     6539.565    12414.618     3461.781        3.922        1.121      232.042       56.065        0.058      334.403        4.349      851.115
12/13/2021  03:26:00       56.139     -165.443      -43.076       81.181      106.571       47.184     6590.330    11357.332     2226.307        2.627        1.009      174.709       40.350        0.053      334.468        4.457      851.202
12/13/2021  03:27:00       90.935     -166.089      -50.922      104.793      148.638       64.731    10981.650    22093.218     4190.096        3.785        1.863      189.354       51.335        0.073      334.473        4.467      851.186
12/13/2021  03:28:00       99.580     -166.471      -45.408      105.538      136.490       58.315    11138.353    18629.415     3400.584        3.642        1.658      193.981       61.425        0.100      334.558        4.608      851.158
12/13/2021  03:29:00       96.436     -181.473      -32.020      123.325       94.754       66.829    15209.109     8978.249     4466.150        3.595        1.433      205.505       45.898        0.050      334.503        4.516      851.216
12/13/2021  03:30:00       14.680      -42.061      -13.420       50.027       46.502       38.240     2502.719     2162.451     1462.292        0.414        0.306       44.550       30.070        0.456      334.501        4.514      851.218
12/13/2021  03:31:00      110.655      -89.937      -35.023      108.420      124.242       63.702    11754.913    15436.105     4057.898        2.640        1.562      142.594       61.095        0.184      334.602        4.683      851.204
12/13/2021  03:32:00      174.964     -330.399      -80.967      105.201      126.591       51.130    11067.319    16025.214     2614.244        8.801        1.485      373.866       48.429        0.017      334.459        4.445      851.210
12/13/2021  03:33:00      -17.094     -119.709      -22.909      120.315      109.198       66.007    14475.584    11924.213     4356.923        2.295        1.538      120.924       40.466        0.112      334.600        4.676      851.225
12/13/2021  03:34:00       97.474      -92.378      -47.276      102.232      122.172       53.617    10451.406    14926.072     2874.767        2.426        1.413      134.294       56.791        0.179      334.608        4.692      851.138
12/13/2021  03:35:00       50.632     -268.085      -47.819      149.829      136.901       77.921    22448.819    18741.790     6071.729        6.198        2.363      272.825       73.495        0.073      334.566        4.620      851.057
12/13/2021  03:36:00       42.898     -141.730      -44.143       63.100      101.587       43.978     3981.604    10319.924     1934.102        2.005        0.812      148.080       32.462        0.048      334.585        4.652      851.142
12/13/2021  03:37:00        0.944     -104.472      -36.603       81.499      109.304       55.367     6642.121    11947.350     3065.496        1.695        1.083      104.476       42.299        0.164      334.659        4.774      851.168
12/13/2021  03:38:00      -25.424      -55.859      -29.407       52.069       74.290       42.170     2711.224     5519.043     1778.281        0.732        0.500       61.373       45.465        0.549      334.644        4.752      851.217
12/13/2021  03:39:00      -46.739      -25.441      -11.244       51.707       27.653       37.294     2673.624      764.663     1390.828        0.389        0.241       53.214       21.871        0.169      334.658        4.775      851.244
12/13/2021  03:40:00       70.871     -171.876      -39.911       69.476      104.408       53.154     4826.868    10900.952     2825.300        2.735        0.928      185.915       49.475        0.071      334.629        4.722      851.277
12/13/2021  03:41:00       57.336     -149.129      -42.414       57.987       80.048       43.763     3362.466     6407.622     1915.243        1.950        0.584      159.771       29.734        0.035      334.623        4.715      851.244
12/13/2021  03:42:00      198.848     -204.589      -68.987       92.917      131.082       68.540     8633.485    17182.485     4697.787        5.833        1.526      285.302       54.768        0.037      334.666        4.786      851.122
12/13/2021  03:43:00      140.426     -290.329      -68.935       87.579       97.486       49.839     7670.053     9503.572     2483.936        6.421        0.983      322.507       32.166        0.010      334.619        4.707      850.995
12/13/2021  03:44:00      232.843     -227.749      -63.068      159.412      190.302       99.808    25412.308    36214.794     9961.606        9.081        3.579      325.708       95.609        0.086      334.587        4.655      850.785
12/13/2021  03:45:00       61.160      -88.583      -49.392      125.522      115.813       70.746    15755.680    13412.581     5005.035        2.409        1.709      107.645       44.506        0.171      334.689        4.827      850.634
12/13/2021  03:46:00      234.129     -449.594      -88.233      139.444      185.510       70.970    19444.509    34413.953     5036.744       16.180        2.945      506.904       85.552        0.028      334.562        4.612      850.632
12/13/2021  03:47:00      260.591     -506.973      -99.435      131.923      190.253       68.611    17403.757    36196.234     4707.450       19.655        2.915      570.026       62.002        0.012      334.560        4.609      850.669
12/13/2021  03:48:00      191.782     -326.109      -79.466      150.711      263.058       95.299    22713.943    69199.757     9081.907       12.520        5.050      378.322       74.893        0.039      334.573        4.630      850.720
12/13/2021  03:49:00      246.406     -404.263     -114.538      138.975      160.167       81.084    19314.046    25653.536     6574.619       14.439        2.577      473.439       60.163        0.016      334.558        4.605      850.733
12/13/2021  03:50:00      194.665     -256.666      -68.937      187.469      236.432      102.653    35144.475    55900.326    10537.728       10.503        5.079      322.136      110.293        0.117      334.532        4.562      850.825
12/13/2021  03:51:00      198.700     -360.127      -75.386      122.926      178.879       88.659    15110.797    31997.613     7860.446       11.490        2.748      411.307       64.763        0.025      334.521        4.543      850.878
12/13/2021  03:52:00      175.636     -331.682      -66.375      109.568      143.734       64.299    12005.237    20659.496     4134.401        9.103        1.840      375.314       57.860        0.024      334.512        4.531      850.923
12/13/2021  03:53:00      164.182     -388.014      -64.368      116.480      165.472       79.689    13567.518    27380.927     6350.416       11.447        2.365      421.320       63.120        0.022      334.486        4.489      850.996
12/13/2021  03:54:00      119.184     -205.945      -48.634      118.011      175.873       74.361    13926.564    30931.407     5529.580        5.468        2.519      237.946       57.189        0.058      334.531        4.562      851.018
12/13/2021  03:55:00      191.531     -233.469      -68.146      116.537      158.156       61.553    13580.814    25013.424     3788.831        6.910        2.119      301.980       69.475        0.053      334.473        4.466      851.032
12/13/2021  03:56:00      166.254     -252.806      -63.792      106.733      105.538       59.150    11391.880    11138.298     3498.721        6.082        1.301      302.574       47.453        0.025      334.501        4.512      851.007
12/13/2021  03:57:00      222.708     -267.133      -70.726      111.748      130.354       66.020    12487.725    16992.082     4358.607        7.989        1.692      347.792       70.470        0.041      334.479        4.476      850.934
12/13/2021  03:58:00      136.657     -150.913      -55.279      128.703      123.677       70.821    16564.423    15295.896     5015.641        4.068        1.844      203.592       74.743        0.135      334.501        4.512      850.952
12/13/2021  03:59:00       73.812     -179.353      -82.873      211.051      210.175      103.666    44542.478    44173.395    10746.699        7.195        4.973      193.948       86.648        0.200      334.568        4.623      850.952
12/13/2021  04:00:00       70.034      -61.381      -42.128      101.589       92.046       62.909    10320.275     8472.513     3957.504        1.659        1.138       93.126       44.859        0.232      334.661        4.780      851.033
12/13/2021  04:01:00      112.891     -178.299      -38.417      115.220       88.004       61.875    13275.643     7744.661     3828.514        3.543        1.242      211.033       55.522        0.069      334.611        4.694      850.931
12/13/2021  04:02:00       51.062     -350.477      -61.285      191.357      317.630       92.614    36617.622   100888.710     8577.265       13.761        7.304      354.177      100.880        0.081      334.774        4.966      850.950
12/13/2021  04:03:00      214.968     -441.387      -73.858      181.708      257.792       93.139    33017.822    66456.646     8674.785       17.730        5.407      490.952       92.399        0.035      334.737        4.904      850.846
12/13/2021  04:04:00      105.189     -355.429      -86.616      143.760      203.292       75.020    20666.931    41327.692     5628.037       10.625        3.381      370.668       57.621        0.024      334.834        5.065      850.880
12/13/2021  04:05:00       75.138     -279.890      -65.277      158.914      143.857       81.508    25253.515    20694.721     6643.617        7.041        2.630      289.800       64.772        0.050      334.828        5.053      850.849
12/13/2021  04:06:00      207.605     -400.238      -91.737      111.103      174.934       73.240    12343.893    30602.032     5364.054       13.000        2.415      450.877       70.409        0.024      334.768        4.955      850.753
12/13/2021  04:07:00       47.401     -189.693      -42.255       70.481       88.474       61.019     4967.570     7827.714     3723.338        2.826        0.826      195.525       36.641        0.035      334.814        5.033      850.774
12/13/2021  04:08:00       28.615     -219.609      -63.718      162.641      151.541       64.893    26452.089    22964.760     4211.082        5.336        2.681      221.466       42.443        0.037      334.868        5.123      850.787
12/13/2021  04:09:00      165.916     -482.676      -95.806      151.189      170.725       88.706    22858.229    29146.994     7868.697       16.477        2.994      510.396       78.391        0.024      334.831        5.060      850.815
12/13/2021  04:10:00       37.114     -210.811      -34.157      112.740       86.197       52.120    12710.420     7429.938     2716.473        3.492        1.143      214.053       37.099        0.030      334.909        5.191      850.857
12/13/2021  04:11:00       37.644     -156.868      -39.713       72.755       98.984       59.758     5293.329     9797.756     3571.025        2.313        0.933      161.322       28.385        0.031      334.881        5.145      850.863
12/13/2021  04:12:00       29.710     -129.366      -30.894      111.873      123.042       60.507    12515.620    15139.274     3661.112        2.494        1.566      132.734       60.187        0.206      334.900        5.176      850.829
12/13/2021  04:13:00      -82.808     -319.901      -47.725      210.634      160.792       81.910    44366.770    25854.076     6709.284        9.419        3.847      330.445       71.702        0.047      334.871        5.124      850.877
12/13/2021  04:14:00       21.497     -249.223      -64.509      129.605      106.249       79.532    16797.486    11288.839     6325.319        5.057        1.721      250.148       43.139        0.030      334.931        5.228      850.910
12/13/2021  04:15:00      111.985     -186.405      -65.638      102.595      148.229       58.181    10525.692    21971.776     3385.017        4.373        1.794      217.457       48.094        0.049      334.793        4.997      850.776
12/13/2021  04:16:00      -44.307     -124.272      -21.788       98.805       77.412       49.167     9762.468     5992.613     2417.383        1.802        0.909      131.935       37.882        0.082      334.967        5.287      850.682
12/13/2021  04:17:00       33.738     -134.788      -56.548      154.230      133.604       76.084    23786.937    17849.900     5788.793        3.496        2.371      138.946       76.809        0.306      334.940        5.243      850.574
12/13/2021  04:18:00       71.441     -248.225      -43.556      113.335      119.914       69.241    12844.806    14379.270     4794.370        5.031        1.601      258.301       51.578        0.040      334.829        5.057      850.581
12/13/2021  04:19:00       26.120     -198.555      -38.827       72.833       82.868       53.892     5304.583     6867.046     2904.372        2.834        0.754      200.265       37.190        0.034      334.944        5.248      850.654
12/13/2021  04:20:00      115.852     -162.713      -44.969       90.860      141.820       55.844     8255.579    20112.937     3118.575        3.670        1.574      199.743       57.655        0.083      334.830        5.059      850.617
12/13/2021  04:21:00      103.303     -107.843      -51.873      101.675      122.495       62.835    10337.833    15005.110     3948.234        2.714        1.465      149.337       39.721        0.071      334.805        5.019      850.485
12/13/2021  04:22:00      143.843     -155.597      -51.606       72.890      107.297       38.866     5312.955    11512.714     1510.571        3.295        0.917      211.899       30.529        0.021      334.690        4.825      850.355
12/13/2021  04:23:00      188.004     -272.608      -62.163       88.041      146.742       64.983     7751.180    21533.185     4222.854        7.351        1.675      331.150       63.421        0.037      334.639        4.743      850.190
12/13/2021  04:24:00      246.513     -378.065     -100.491      128.797      174.641       97.596    16588.631    30499.403     9525.056       13.520        2.831      451.333       75.110        0.028      334.616        4.701      850.166
12/13/2021  04:25:00      212.096     -339.398      -77.503      134.721      188.869       65.916    18149.641    35671.333     4344.865       11.216        2.908      400.220       71.287        0.032      334.659        4.773      850.143
12/13/2021  04:26:00      142.835     -207.853      -45.563      126.914      116.941       73.372    16107.152    13675.300     5383.507        5.042        1.758      252.200       66.665        0.070      334.625        4.716      850.254
12/13/2021  04:27:00      108.799     -199.491      -45.523       78.139      134.306       49.594     6105.676    18038.109     2459.600        4.015        1.330      227.231       55.122        0.059      334.643        4.748      850.410
12/13/2021  04:28:00       83.724     -130.595      -36.686       81.415      108.604       60.171     6628.338    11794.894     3620.582        2.372        1.102      155.128       34.756        0.050      334.706        4.853      850.406
12/13/2021  04:29:00      123.025     -232.770      -54.605       82.064      195.607       46.697     6734.425    38262.215     2180.622        5.973        2.359      263.281       63.858        0.059      334.657        4.772      850.371
12/13/2021  04:30:00      181.886     -342.877      -77.729      103.676      157.502       57.566    10748.734    24806.728     3313.803        9.777        1.943      388.133       70.007        0.033      334.577        4.637      850.425
12/13/2021  04:31:00      195.003     -323.827      -74.633      104.969      168.678       71.836    11018.417    28452.137     5160.359        9.654        2.232      378.008       56.331        0.022      334.640        4.742      850.430
12/13/2021  04:32:00      164.131     -343.104      -68.309       91.642      127.121       53.538     8398.303    16159.700     2866.303        8.837        1.371      380.341       36.093        0.009      334.681        4.809      850.525
12/13/2021  04:33:00      144.783     -265.581      -55.809       88.239       75.598       61.151     7786.151     5715.018     3739.431        5.592        0.862      302.482       48.636        0.026      334.669        4.789      850.573
12/13/2021  04:34:00      143.729     -269.198      -60.294      104.475      136.601       57.344    10914.924    18659.921     3288.365        6.481        1.643      305.165       44.131        0.021      334.667        4.785      850.564
12/13/2021  04:35:00      126.941     -191.202      -66.446       67.674      114.374       42.177     4579.783    13081.404     1778.941        3.826        0.972      229.504       26.537        0.013      334.649        4.757      850.470
12/13/2021  04:36:00      120.280     -278.157      -50.432       75.150       95.640       51.980     5647.516     9147.023     2701.896        5.594        0.875      303.049       45.195        0.022      334.659        4.773      850.436
12/13/2021  04:37:00      170.058     -151.077      -49.259       95.455       71.765       50.245     9111.618     5150.171     2524.603        3.548        0.839      227.473       35.940        0.025      334.689        4.824      850.457
12/13/2021  04:38:00       67.586     -222.573      -33.172       69.644       91.563       45.184     4850.241     8383.861     2041.616        3.524        0.764      232.608       35.561        0.023      334.682        4.813      850.486
12/13/2021  04:39:00       75.515     -148.652      -33.405       55.832      100.625       43.426     3117.193    10125.328     1885.800        2.202        0.756      166.733       36.092        0.047      334.693        4.833      850.401
12/13/2021  04:40:00      109.818     -234.098      -43.041       60.300       79.765       41.618     3636.031     6362.487     1732.070        4.022        0.587      258.576       39.870        0.024      334.632        4.729      850.355
12/13/2021  04:41:00       86.990      -36.492      -45.505       65.877       87.096       47.711     4339.735     7585.735     2276.344        1.258        0.710       94.334       46.495        0.243      334.645        4.753      850.316
12/13/2021  04:42:00       40.591      -82.434      -28.784       76.889       72.481       41.907     5911.975     5253.564     1756.221        1.109        0.646       91.886       32.570        0.126      334.780        4.978      850.286
12/13/2021  04:43:00        5.542     -109.233      -22.601       92.818       82.586       45.965     8615.090     6820.373     2112.775        1.501        0.877      109.373       43.672        0.159      334.813        5.034      850.334
12/13/2021  04:44:00       61.012     -173.246      -18.194       65.142       79.760       47.364     4243.453     6361.731     2243.326        2.346        0.642      183.675       43.162        0.055      334.747        4.924      850.320
12/13/2021  04:45:00      121.699     -181.779      -46.451       51.413      118.550       43.579     2643.271    14054.194     1899.147        3.430        0.930      218.757       40.224        0.034      334.645        4.751      850.294
12/13/2021  04:46:00       59.801      -83.566      -35.487       48.678       50.138       32.779     2369.591     2513.824     1074.465        0.889        0.298      102.759       14.768        0.021      334.730        4.894      850.278
12/13/2021  04:47:00       63.251     -115.963      -13.436       73.936      110.894       39.710     5466.512    12297.386     1576.891        1.848        0.967      132.091       42.600        0.104      334.793        4.999      850.275
12/13/2021  04:48:00      -72.844       -2.965      -26.772       85.993       70.379       37.796     7394.831     4953.261     1428.532        0.990        0.689       72.904       27.089        0.138      334.768        4.959      850.320
12/13/2021  04:49:00     -173.445      -12.698       -3.208      108.597       54.414       58.599    11793.390     2960.881     3433.806        2.422        0.909      173.909       50.537        0.084      334.713        4.867      850.276
12/13/2021  04:50:00      -60.440      -36.370      -20.686       48.754       53.356       37.945     2376.943     2846.810     1439.861        0.603        0.333       70.539       22.476        0.102      334.759        4.944      850.252
12/13/2021  04:51:00     -134.728      -30.462      -32.559      132.118      129.181       41.900    17455.112    16687.724     1755.645        2.801        1.795      138.129       48.634        0.124      334.713        4.866      850.287
12/13/2021  04:52:00      -29.580     -204.077      -37.058      120.958      114.895       73.474    14630.849    13200.796     5398.425        3.856        1.662      206.210       61.327        0.088      334.921        5.211      850.383
12/13/2021  04:53:00      -90.714     -106.610      -27.264       82.839       71.858       52.306     6862.296     5163.556     2735.916        1.755        0.738      139.981       35.110        0.063      334.859        5.110      850.356
12/13/2021  04:54:00      -38.687      -74.268      -13.460       53.257       41.768       30.951     2836.282     1744.607      957.976        0.637        0.277       83.740        7.284        0.008      334.862        5.117      850.428
12/13/2021  04:55:00       19.633     -113.237      -30.726       50.840       57.347       32.179     2584.719     3288.624     1035.482        1.053        0.345      114.926       21.160        0.034      334.913        5.200      850.645
12/13/2021  04:56:00      -36.739        2.187      -15.574       30.914       65.347       27.908      955.688     4270.248      778.864        0.380        0.300       36.804       30.944        0.707      334.837        5.073      850.676
12/13/2021  04:57:00      -72.567      -68.462      -19.811       58.879       61.090       42.692     3466.727     3731.963     1822.611        0.968        0.451       99.765       11.298        0.013      334.909        5.193      850.668
12/13/2021  04:58:00       73.134     -143.623      -57.642      161.315      109.777       63.577    26022.577    12051.024     4042.090        3.570        2.106      161.171       50.641        0.099      334.809        5.026      850.617
12/13/2021  04:59:00      153.789     -214.388      -80.748      111.021      133.106       56.206    12325.617    17717.151     3159.133        5.466        1.660      263.843       42.005        0.025      334.733        4.897      850.467
12/13/2021  05:00:00      107.881     -289.477      -49.952       60.743      100.185       43.883     3689.705    10037.133     1925.759        5.679        0.783      308.926       34.769        0.013      334.718        4.872      850.429
12/13/2021  05:01:00      101.770     -239.211      -44.732       62.639      128.656       40.205     3923.675    16552.468     1616.438        4.583        1.105      259.960       28.613        0.012      334.718        4.871      850.536
12/13/2021  05:02:00       97.817     -263.346      -50.505      102.395      176.995       60.194    10484.799    31327.276     3623.329        6.344        2.272      280.926       59.266        0.045      334.730        4.895      850.576
12/13/2021  05:03:00      160.064     -139.183      -42.164       86.952      122.464       55.165     7560.564    14997.312     3043.135        3.618        1.280      212.114       57.032        0.072      334.701        4.844      850.507
12/13/2021  05:04:00       32.962     -116.701      -15.323       86.992       87.424       40.544     7567.655     7642.906     1643.819        1.589        0.843      121.266       35.121        0.084      334.772        4.964      850.526
12/13/2021  05:05:00       56.420      -52.039      -16.729       56.806       91.528       53.149     3226.913     8377.304     2824.811        1.030        0.721       76.754       40.156        0.274      334.767        4.955      850.492
12/13/2021  05:06:00       97.839     -221.591      -40.346       43.348       82.568       36.809     1879.049     6817.404     1354.877        3.518        0.503      242.229       32.391        0.018      334.709        4.855      850.367
12/13/2021  05:07:00       26.206      -42.466      -15.152       37.637       45.601       37.475     1416.508     2079.474     1404.387        0.381        0.245       49.901       24.267        0.236      334.762        4.951      850.478
12/13/2021  05:08:00       21.718      -41.240      -30.242       44.830       57.649       37.097     2009.762     3323.432     1376.156        0.490        0.335       46.610       19.814        0.181      334.807        5.024      850.495
12/13/2021  05:09:00       17.839     -117.943      -23.599      105.359       76.136       50.155    11100.426     5796.731     2515.541        1.710        0.971      119.284       40.775        0.117      334.842        5.081      850.461
12/13/2021  05:10:00       65.310     -130.115      -28.928       78.222       82.711       46.103     6118.664     6841.069     2125.463        1.856        0.754      145.587       38.659        0.071      334.814        5.034      850.473
12/13/2021  05:11:00       60.787      -96.026      -22.951       82.765       76.190       45.989     6849.965     5804.923     2114.993        1.410        0.738      113.649       14.984        0.017      334.739        4.909      850.410
12/13/2021  05:12:00      113.514      -94.278      -36.332       80.757      107.516       52.487     6521.645    11559.739     2754.843        2.196        1.042      147.560       47.062        0.102      334.862        5.115      850.278
12/13/2021  05:13:00      158.160     -306.544      -55.788       95.670       90.232       49.035     9152.759     8141.787     2404.433        7.089        0.985      344.940       41.267        0.014      334.624        4.715      850.185
12/13/2021  05:14:00      155.507     -252.240      -83.164      160.262      164.972       75.753    25683.912    27215.703     5738.466        7.667        2.932      296.323       76.817        0.067      334.628        4.722      850.160
12/13/2021  05:15:00      -23.943     -146.898      -45.136      142.513      141.773       66.303    20309.937    20099.639     4396.034        3.449        2.240      148.837       44.621        0.090      334.790        4.991      850.317
12/13/2021  05:16:00       23.519     -150.932      -45.616      106.511      113.767       64.621    11344.697    12943.019     4175.857        2.693        1.423      152.754       26.829        0.031      334.735        4.902      850.404
12/13/2021  05:17:00       81.428     -175.590      -52.163      132.017       94.896       50.452    17428.516     9005.343     2545.362        3.458        1.449      193.552       41.229        0.045      334.657        4.770      850.329
12/13/2021  05:18:00       22.673     -110.770      -45.385       89.644       89.629       57.171     8036.054     8033.338     3268.535        1.709        0.967      113.066       38.764        0.118      334.770        4.961      850.303
12/13/2021  05:19:00       46.064     -274.511      -37.785      151.791      165.316       79.997    23040.361    27329.256     6399.551        6.783        2.838      278.349       73.903        0.070      334.712        4.862      850.318
12/13/2021  05:20:00      -44.855     -180.462      -31.978      122.336      113.922       61.293    14966.027    12978.259     3756.876        3.365        1.585      185.953       37.841        0.041      334.776        4.969      850.308
12/13/2021  05:21:00      -21.342     -172.925      -44.229      147.806      112.839       73.156    21846.727    12732.740     5351.762        3.612        1.997      174.237       64.974        0.139      334.773        4.966      850.238
12/13/2021  05:22:00       27.942     -185.325      -55.595      107.776      118.560       62.112    11615.653    14056.482     3857.875        3.387        1.477      187.419       58.699        0.098      334.746        4.919      850.157
12/13/2021  05:23:00       30.745     -297.487      -48.663      149.074      236.723       76.679    22223.008    56037.733     5879.673        8.796        4.207      299.071       82.514        0.076      334.700        4.842      850.139
12/13/2021  05:24:00        4.802     -299.698      -44.940      155.966      122.024       65.425    24325.508    14889.756     4280.481        6.767        2.175      299.737       65.115        0.047      334.641        4.742      850.084
12/13/2021  05:25:00       -3.857      -98.484      -38.990      116.480      123.683       49.657    13567.642    15297.600     2465.839        2.128        1.567       98.559       45.670        0.215      334.723        4.881      850.081
12/13/2021  05:26:00      -56.521     -111.141      -40.821       96.639      103.219       51.654     9339.003    10654.086     2668.125        1.993        1.133      124.687       46.893        0.141      334.732        4.897      850.101
12/13/2021  05:27:00     -165.002     -228.195      -32.606      149.620      124.794       79.732    22386.265    15573.604     6357.128        6.233        2.216      281.600       57.155        0.041      334.656        4.770      850.131
12/13/2021  05:28:00        1.613     -141.489      -26.095       95.410       85.450       64.977     9103.056     7301.779     4222.057        2.066        1.031      141.498       48.161        0.116      334.655        4.768      850.153
12/13/2021  05:29:00      -62.858     -180.355      -41.266       77.466       90.754       55.010     6000.967     8236.367     3026.094        2.772        0.863      190.995       35.721        0.035      334.688        4.823      850.172
12/13/2021  05:30:00      -20.174      -97.033      -30.424       89.156       86.129       59.444     7948.861     7418.202     3533.557        1.482        0.945       99.108       55.311        0.311      334.656        4.770      850.213
12/13/2021  05:31:00      100.791     -207.413      -62.897      119.532      180.300       60.248    14287.825    32508.059     3629.829        5.377        2.521      230.605       58.438        0.064      334.629        4.724      850.121
12/13/2021  05:32:00       33.584     -259.367      -47.094      140.681      206.659       75.221    19791.224    42707.798     5658.236        6.937        3.408      261.533       63.920        0.060      334.570        4.627      850.084
12/13/2021  05:33:00      -61.263     -176.913      -39.686       94.819       93.865       57.770     8990.683     8810.648     3337.396        2.888        1.057      187.220       32.628        0.030      334.606        4.686      850.088
12/13/2021  05:34:00      -49.709      -62.534      -17.460       70.064       97.200       43.465     4908.954     9447.855     1889.250        1.146        0.812       79.884       35.955        0.203      334.577        4.640      850.043
12/13/2021  05:35:00       37.145     -146.987      -47.360      108.246      127.717       66.106    11717.253    16311.659     4370.044        2.881        1.620      151.608       69.399        0.210      334.487        4.489      849.854
12/13/2021  05:36:00      -60.526      -91.445      -33.221       51.685       72.724       40.973     2671.349     5288.837     1678.778        1.138        0.482      109.661       16.065        0.021      334.546        4.587      849.922
12/13/2021  05:37:00      -75.864     -351.805      -37.883      143.134      152.019       97.851    20487.278    23109.740     9574.802        9.205        2.659      359.892       75.214        0.044      334.605        4.684      850.054
12/13/2021  05:38:00      -35.152     -273.797      -32.704      135.517      185.289       84.790    18364.898    34331.865     7189.359        6.857        2.994      276.045       83.501        0.091      334.557        4.604      850.128
12/13/2021  05:39:00       95.310     -193.979      -64.979       92.427      121.242       64.396     8542.745    14699.539     4146.810        3.916        1.369      216.129       54.029        0.062      334.494        4.501      850.181
12/13/2021  05:40:00        0.091     -123.095      -19.106       88.346       84.395       53.279     7805.023     7122.573     2838.612        1.664        0.888      123.095       45.080        0.134      334.582        4.648      850.204
12/13/2021  05:41:00     -169.072     -225.014      -42.582      119.745      150.932       51.826    14338.766    22780.555     2685.903        6.041        1.990      281.455       37.254        0.018      334.522        4.548      850.226
12/13/2021  05:42:00      -25.028     -121.922      -53.919      102.510      105.133       59.572    10508.231    11052.990     3548.805        2.175        1.256      124.465       61.880        0.247      334.502        4.514      850.120
12/13/2021  05:43:00      -33.447     -163.492      -33.773      101.055      141.976       52.725    10212.072    20157.277     2779.901        3.106        1.657      166.878       44.519        0.071      334.538        4.574      850.084
12/13/2021  05:44:00      -34.932      -94.415      -19.539       89.695      104.198       48.869     8045.194    10857.121     2388.187        1.590        1.065      100.670       43.732        0.189      334.546        4.586      850.035
12/13/2021  05:45:00      -56.508     -269.547      -37.528      188.495      178.437       68.644    35530.457    31839.647     4711.971        7.466        3.604      275.407       67.855        0.061      334.475        4.469      850.080
12/13/2021  05:46:00       12.862      -94.012      -14.739       81.085       77.600       67.813     6574.752     6021.694     4598.550        1.320        0.860       94.888       33.572        0.125      334.468        4.459      850.052
12/13/2021  05:47:00       20.446     -107.421      -30.256       86.064       94.590       56.238     7406.987     8947.191     3162.759        1.619        0.976      109.349       48.732        0.199      334.355        4.272      850.073
12/13/2021  05:48:00      -63.021      -72.028      -16.559       94.631       92.316       48.417     8954.965     8522.290     2344.237        1.462        0.991       95.706       36.838        0.148      334.380        4.314      850.104
12/13/2021  05:49:00       38.309      -18.828       -8.192       54.290       63.368       35.655     2947.442     4015.565     1271.304        0.506        0.412       42.686       33.752        0.625      334.439        4.411      850.156
12/13/2021  05:50:00       28.025      -44.707      -29.502       85.476       68.466       55.241     7306.220     4687.644     3051.547        0.935        0.752       52.765       46.045        0.762      334.482        4.483      850.098
12/13/2021  05:51:00      -19.257      -39.888      -15.885      100.555       94.786       53.574    10111.352     8984.399     2870.161        1.209        1.098       44.293       32.476        0.538      334.485        4.488      849.934
12/13/2021  05:52:00      -78.354     -122.500      -41.689       40.939       46.423       45.111     1676.030     2155.107     2034.986        1.437        0.293      145.415       12.824        0.008      334.385        4.322      849.969
12/13/2021  05:53:00      -31.104       -8.866      -14.544       57.925       49.189       33.271     3355.261     2419.545     1106.992        0.407        0.344       32.343       20.771        0.412      334.357        4.276      850.037
12/13/2021  05:54:00        1.830       18.810      -19.544      107.278       65.911       34.259    11508.664     4344.222     1173.709        0.888        0.851       18.899       34.818        3.394      334.443        4.419      850.030
12/13/2021  05:55:00     -102.686       -8.441      -23.256       81.877       61.469       47.514     6703.787     3778.390     2257.593        1.195        0.637      103.032       38.031        0.136      334.367        4.291      850.141
12/13/2021  05:56:00      -25.957      -98.506      -38.928       99.904       70.082       43.573     9980.905     4911.441     1898.644        1.434        0.840      101.869       15.291        0.023      334.440        4.412      850.123
12/13/2021  05:57:00       27.239        4.099       -7.836       78.275       39.729       34.646     6126.918     1578.422     1200.314        0.486        0.445       27.545       31.115        1.276      334.462        4.450      850.071
12/13/2021  05:58:00       86.487       -9.792      -24.799       38.206       83.463       29.958     1459.696     6966.086      897.496        0.876        0.466       87.039       15.249        0.031      334.375        4.306      849.965
12/13/2021  05:59:00       25.892      -37.269      -11.129       34.291       77.057       36.731     1175.906     5937.737     1349.182        0.532        0.423       45.380       26.341        0.337      334.381        4.315      850.030
12/13/2021  06:00:00       -4.725        0.518      -13.646       42.551       65.924       26.447     1810.587     4345.931      699.441        0.353        0.343        4.754       18.164       14.601      334.372        4.302      849.969
12/13/2021  06:01:00      -94.785       -9.316       -6.778       44.543       61.093       31.975     1984.084     3732.371     1022.397        0.793        0.337       95.241       22.125        0.054      334.311        4.199      849.982
12/13/2021  06:02:00      -77.463       -8.488      -23.665       45.722       42.436       26.163     2090.508     1800.782      684.496        0.560        0.229       77.926       21.537        0.076      334.305        4.190      850.011
12/13/2021  06:03:00      -88.795       37.920      -12.960       66.288       43.447       28.774     4394.142     1887.627      827.956        0.830        0.355       96.553       15.698        0.026      334.339        4.246      849.947
12/13/2021  06:04:00     -107.742     -128.009      -22.392       87.654       91.157       53.731     7683.227     8309.681     2886.970        2.368        0.944      167.316       38.953        0.054      334.431        4.396      849.973
12/13/2021  06:05:00      -28.994      -19.393      -27.850       67.512       71.476       30.469     4557.843     5108.782      928.353        0.629        0.530       34.882       14.729        0.178      334.464        4.454      849.942
12/13/2021  06:06:00      -52.855      -43.555      -22.925       90.448       72.842       51.878     8180.770     5305.891     2691.360        1.069        0.809       68.488       29.069        0.180      334.472        4.467      849.874
12/13/2021  06:07:00       67.070     -119.120      -56.205      110.210      109.383       44.139    12146.271    11964.706     1948.228        2.395        1.303      136.704       40.233        0.087      334.385        4.322      849.912
12/13/2021  06:08:00       88.584      -64.873      -56.443       61.193      105.850       62.555     3744.611    11204.170     3913.132        1.705        0.943      109.798       39.647        0.130      334.504        4.516      849.947
12/13/2021  06:09:00      128.943     -154.546      -82.210       71.891      121.211       63.865     5168.270    14691.997     4078.793        3.560        1.197      201.273       25.766        0.016      334.388        4.325      849.860
12/13/2021  06:10:00       51.940     -159.625      -48.670       63.901       73.662       42.110     4083.285     5426.118     1773.278        2.091        0.564      167.863       26.041        0.024      334.458        4.442      849.919
12/13/2021  06:11:00       20.499      -54.557      -13.155       44.964       56.934       32.779     2021.771     3241.490     1074.454        0.495        0.317       58.281       31.309        0.289      334.426        4.390      850.000
12/13/2021  06:12:00       12.548      -33.612      -26.807       39.964       95.813       37.546     1597.103     9180.213     1409.695        0.709        0.609       35.878       27.652        0.594      334.442        4.417      849.863
12/13/2021  06:13:00       38.612      -51.773      -23.703      104.406      144.370       68.844    10900.684    20842.757     4739.463        2.060        1.824       64.586       65.625        1.032      334.439        4.411      849.828
12/13/2021  06:14:00      105.045     -141.304      -36.202       72.713       73.560       42.010     5287.231     5411.047     1764.832        2.239        0.623      176.072       38.901        0.049      334.446        4.421      849.794
12/13/2021  06:15:00       98.559     -173.397      -49.286       66.301       69.598       46.066     4395.873     4843.911     2122.092        2.678        0.568      199.450       32.156        0.026      334.392        4.332      849.889
12/13/2021  06:16:00      116.136     -149.607      -57.919      101.800       84.931       52.562    10363.185     7213.262     2762.780        2.978        1.017      189.394       57.285        0.091      334.362        4.283      849.945
12/13/2021  06:17:00      -55.138      -91.509      -40.126       54.828       65.391       29.620     3006.143     4276.018      877.320        1.059        0.408      106.837       17.388        0.026      334.436        4.406      849.965
12/13/2021  06:18:00       15.490     -179.739      -32.461       80.216       94.995       63.527     6434.659     9024.119     4035.697        2.654        0.975      180.405       56.044        0.097      334.469        4.460      849.913
12/13/2021  06:19:00      -16.468      -84.301      -11.530       75.987       74.955       44.614     5774.026     5618.183     1990.376        1.044        0.669       85.895       16.978        0.039      334.562        4.615      849.824
12/13/2021  06:20:00     -106.331      -18.408      -19.419       76.708       86.941       50.490     5884.150     7558.818     2549.221        1.400        0.800      107.913       37.042        0.118      334.449        4.427      849.799
12/13/2021  06:21:00       27.935      -59.802      -26.775       51.393       85.804       42.818     2641.289     7362.326     1833.356        0.845        0.592       66.005       45.878        0.483      334.501        4.513      849.813
12/13/2021  06:22:00       67.354      -75.374      -26.397       76.361      114.480       65.842     5831.023    13105.652     4335.216        1.709        1.164      101.083       48.540        0.231      334.378        4.308      849.770
12/13/2021  06:23:00       45.523     -180.218      -63.823      126.161      109.898       49.678    15916.507    12077.506     2467.941        3.454        1.523      185.878       55.702        0.090      334.375        4.305      849.738
12/13/2021  06:24:00      157.192     -182.186      -53.272       97.651      109.870       51.509     9535.741    12071.481     2653.217        4.250        1.213      240.626       47.771        0.039      334.309        4.194      849.590
12/13/2021  06:25:00       67.081     -173.792      -44.938       83.009      113.577       33.458     6890.449    12899.823     1119.413        2.881        1.045      186.289       20.205        0.012      334.386        4.321      849.582
12/13/2021  06:26:00       89.634      -50.026      -48.279       99.433      113.287       61.799     9886.943    12833.895     3819.162        1.970        1.327      102.649       51.255        0.249      334.401        4.346      849.543
12/13/2021  06:27:00      121.590     -121.977      -40.659       91.585      139.724       56.856     8387.760    19522.731     3232.584        3.122        1.557      172.228       76.617        0.198      334.403        4.349      849.457
12/13/2021  06:28:00      123.515      -64.240      -50.076      119.678      127.068       53.512    14322.877    16146.305     2863.516        2.761        1.667      139.222       40.166        0.083      334.405        4.353      849.422
12/13/2021  06:29:00      128.257     -108.661      -50.925       57.464       77.133       46.383     3302.149     5949.550     2151.349        2.112        0.570      168.098       37.642        0.050      334.424        4.386      849.364
12/13/2021  06:30:00      199.386     -273.360      -81.340      105.225      137.181       56.240    11072.216    18818.647     3162.943        7.707        1.653      338.349       68.998        0.042      334.319        4.209      849.355
12/13/2021  06:31:00      105.140     -137.990      -35.396       73.662       61.743       52.346     5426.091     3812.213     2740.100        2.166        0.599      173.481       42.572        0.060      334.289        4.160      849.337
12/13/2021  06:32:00       42.725      -89.276      -29.066       81.693       94.096       39.841     6673.773     8854.091     1587.343        1.387        0.856       98.973       37.675        0.145      334.423        4.383      849.303
12/13/2021  06:33:00       31.177       30.787      -22.610       49.771       90.012       41.590     2477.118     8102.149     1729.723        0.737        0.615       43.816       21.367        0.238      334.386        4.322      849.202
12/13/2021  06:34:00      106.121      -10.318      -48.691       40.003      101.822       39.245     1600.246    10367.690     1540.208        1.362        0.675      106.622       28.638        0.072      334.305        4.189      849.192
12/13/2021  06:35:00       52.250      -50.747      -18.599       63.218       71.391       40.045     3996.495     5096.745     1603.611        0.817        0.535       72.838       30.427        0.175      334.460        4.445      849.161
12/13/2021  06:36:00      100.400     -135.966      -39.496       40.848       72.766       32.468     1668.537     5294.918     1054.145        1.907        0.401      169.017       35.610        0.044      334.283        4.151      848.981
12/13/2021  06:37:00       50.165        1.744      -12.862       46.546       84.641       40.898     2166.492     7164.034     1672.636        0.684        0.550       50.196       33.261        0.439      334.252        4.101      849.052
12/13/2021  06:38:00      126.799       28.822      -13.811       64.343       68.747       34.080     4140.001     4726.147     1161.440        1.356        0.501      130.033       20.918        0.026      334.385        4.323      849.157
12/13/2021  06:39:00      161.655       67.939      -12.965       45.586       50.095       24.635     2078.072     2509.466      606.880        1.805        0.260      175.351       15.115        0.007      334.208        4.026      849.125
12/13/2021  06:40:00      154.453       64.448       -9.870       64.550       42.781       28.259     4166.690     1830.228      798.544        1.745        0.340      167.360       19.187        0.013      334.138        3.910      848.884
12/13/2021  06:41:00      201.571       -4.156      -23.187       79.672       60.846       47.292     6347.642     3702.280     2236.552        2.673        0.614      201.614       24.134        0.014      334.120        3.879      848.811
12/13/2021  06:42:00      137.972       34.713      -12.580       93.038       51.361       32.698     8655.978     2637.966     1069.171        1.638        0.618      142.272       32.934        0.054      334.127        3.894      848.904
12/13/2021  06:43:00      134.988       25.532      -25.223       72.803       64.346       32.042     5300.246     4140.356     1026.697        1.499        0.523      137.381       23.389        0.029      334.215        4.039      848.921
12/13/2021  06:44:00        5.856      -44.765      -19.957       71.269       76.716       45.605     5079.255     5885.337     2079.804        0.774        0.652       45.147       42.453        0.884      334.429        4.393      849.060
12/13/2021  06:45:00       11.499       50.611        4.455       42.682       48.515       28.930     1821.791     2353.722      836.961        0.386        0.251       51.900       17.199        0.110      334.366        4.290      849.203
12/13/2021  06:46:00       33.088       75.428      -13.828       39.615       27.140       24.240     1569.335      736.562      587.581        0.493        0.145       82.366       17.898        0.047      334.375        4.306      849.222
12/13/2021  06:47:00       38.243      155.465      -20.310       53.723       64.785       26.919     2886.137     4197.108      724.654        1.692        0.390      160.099       20.380        0.016      334.343        4.250      849.228
12/13/2021  06:48:00       48.344      105.390      -10.133       70.633       53.988       27.702     4989.053     2914.712      767.421        1.111        0.434      115.949       25.704        0.049      334.359        4.280      849.293
12/13/2021  06:49:00       97.238       33.401      -39.325       72.834       69.807       48.006     5304.810     4872.968     2304.610        1.230        0.624      102.815       28.543        0.077      334.420        4.380      849.324
12/13/2021  06:50:00      -17.128      -59.499      -56.047       53.698       49.902       33.081     2883.434     2490.192     1094.343        0.672        0.323       61.915       10.997        0.032      334.483        4.485      849.443
12/13/2021  06:51:00      -56.758       21.292       -7.697       45.199       27.921       20.214     2042.957      779.559      408.604        0.348        0.162       60.621       17.238        0.081      334.441        4.415      849.581
12/13/2021  06:52:00     -141.578       41.197       -3.752       85.008       63.057       44.097     7226.276     3976.184     1944.501        1.745        0.657      147.451       20.948        0.020      334.410        4.364      849.686
12/13/2021  06:53:00     -104.663       19.568      -20.548      123.302       84.555       41.187    15203.325     7149.566     1696.406        1.790        1.202      106.476       41.681        0.153      334.403        4.351      849.659
12/13/2021  06:54:00      -60.669      112.317      -15.410       80.062       60.203       38.529     6409.989     3624.440     1484.477        1.402        0.576      127.655       36.850        0.083      334.424        4.386      849.625
12/13/2021  06:55:00      -12.971      111.721      -14.449       81.828       81.717       38.410     6695.748     6677.658     1475.319        1.385        0.742      112.472       21.135        0.035      334.478        4.475      849.607
12/13/2021  06:56:00        2.546       89.436      -14.997       53.036       56.324       46.582     2812.817     3172.439     2169.859        0.819        0.408       89.473       25.294        0.080      334.524        4.551      849.740
12/13/2021  06:57:00       73.539        5.547      -43.280      129.031      115.764       51.724    16649.027    13401.347     2675.395        2.001        1.636       73.747       33.642        0.208      334.529        4.559      849.918
12/13/2021  06:58:00       50.493      -51.445      -54.332       56.516      146.742       54.485     3194.009    21533.076     2968.573        1.792        1.385       72.084       10.265        0.020      334.627        4.722      849.896
12/13/2021  06:59:00      -72.241       97.322      -27.988       89.141       97.232       45.957     7946.072     9453.990     2112.057        1.749        0.976      121.204       26.163        0.047      334.523        4.551      849.812
12/13/2021  07:00:00      -66.384      -27.006       -8.958      108.966      103.818       49.512    11873.527    10778.242     2451.447        1.516        1.255       71.667       59.364        0.686      334.557        4.606      849.875
12/13/2021  07:01:00       -4.428       76.655      -12.074       22.172       28.555       23.593      491.588      815.394      556.610        0.395        0.093       76.782       10.145        0.017      334.544        4.584      849.953
12/13/2021  07:02:00      -13.023       28.170       -0.001       55.007       24.942       25.034     3025.772      622.128      626.676        0.262        0.214       31.035       28.110        0.820      334.513        4.534      849.995
12/13/2021  07:03:00     -237.509       -4.448      -23.111      148.879       90.001       56.682    22164.898     8100.195     3212.902        4.522        1.674      237.551       58.107        0.060      334.536        4.568      850.079
12/13/2021  07:04:00      -85.852      -12.049       -6.932       90.464       80.040       43.848     8183.803     6406.382     1922.642        1.204        0.826       86.693       39.949        0.212      334.615        4.701      850.059
12/13/2021  07:05:00      -79.129       -5.241       -5.273       81.868       66.621       38.707     6702.450     4438.352     1498.216        0.948        0.632       79.302       32.424        0.167      334.596        4.671      850.003
12/13/2021  07:06:00     -173.578       -4.421      -27.076      141.283       80.641       77.707    19960.890     6502.912     6038.413        3.169        1.625      173.635       75.459        0.189      334.567        4.619      850.031
12/13/2021  07:07:00      -69.015       46.258        0.512       80.052       67.833       50.505     6408.393     4601.373     2550.721        1.023        0.678       83.084       39.591        0.227      334.542        4.581      850.044
12/13/2021  07:08:00       17.783      -87.041      -46.199       55.254       73.396       39.393     3053.050     5386.902     1551.797        1.001        0.500       88.839       35.117        0.156      334.707        4.859      850.023
12/13/2021  07:09:00       47.575     -103.704      -39.651       58.909       65.347       33.300     3470.257     4270.267     1108.904        1.172        0.442      114.096       14.708        0.017      334.768        4.959      850.020
12/13/2021  07:10:00       10.247      -27.926      -41.809      110.141       69.444       33.549    12131.005     4822.506     1125.549        1.035        0.904       29.747       24.796        0.695      334.781        4.980      850.183
12/13/2021  07:11:00      -17.371        1.817      -18.036       51.545       75.030       35.824     2656.876     5629.510     1283.350        0.510        0.478       17.466       28.654        2.692      334.771        4.964      850.027
12/13/2021  07:12:00      -23.695      -11.665      -18.281       85.849      114.343       43.197     7369.968    13074.325     1865.990        1.167        1.116       26.411       33.587        1.617      334.707        4.857      850.039
12/13/2021  07:13:00       32.586     -102.242      -26.783       44.894       54.300       28.662     2015.436     2948.504      821.503        0.901        0.289      107.309       15.202        0.020      334.826        5.055      850.004
12/13/2021  07:14:00      -16.386      -73.613      -13.821      119.335       76.427       50.865    14240.894     5841.144     2587.289        1.427        1.133       75.415       40.918        0.294      334.767        4.957      849.931
12/13/2021  07:15:00      -21.456      -52.447      -29.841      113.394       58.992       35.726    12858.307     3480.019     1276.312        1.085        0.881       56.666       26.602        0.220      334.777        4.973      849.976
12/13/2021  07:16:00      -71.407        9.215       -5.300       91.955       69.119       53.099     8455.630     4777.481     2819.455        1.063        0.803       72.000       39.753        0.305      334.699        4.843      850.104
12/13/2021  07:17:00      -23.030      -14.062      -13.257      102.868      117.463       53.564    10581.796    13797.620     2869.109        1.407        1.362       26.984       19.902        0.544      334.729        4.891      850.078
12/13/2021  07:18:00      -14.099      -15.971      -27.878       87.166       85.758       37.776     7597.831     7354.472     1427.018        0.880        0.819       21.304       24.780        1.353      334.782        4.981      850.032
12/13/2021  07:19:00      -25.325      -49.104      -15.839       48.858       55.318       41.822     2387.134     3060.094     1749.043        0.525        0.360       55.250        6.841        0.015      334.762        4.947      850.052
12/13/2021  07:20:00      -74.301      -53.191       -9.789       72.790       78.129       34.597     5298.378     6104.083     1196.939        1.052        0.630       91.378       22.006        0.058      334.780        4.980      850.131
12/13/2021  07:21:00     -164.504      -73.141      -13.615      110.603      128.235       43.502    12233.108    16444.198     1892.428        3.158        1.528      180.031       50.075        0.077      334.698        4.841      850.044
12/13/2021  07:22:00       23.691        3.919      -30.068      195.105      114.155       70.847    38066.052    13031.454     5019.342        2.879        2.806       24.013       43.787        3.325      334.734        4.900      849.923
12/13/2021  07:23:00      -99.671      -21.232      -17.021      112.082       95.205       49.363    12562.484     9063.976     2436.694        1.736        1.203      101.907       37.526        0.136      334.729        4.892      849.893
12/13/2021  07:24:00     -106.335      -77.656      -39.590       83.304       67.432       47.770     6939.563     4547.086     2281.965        1.633        0.688      131.672       24.718        0.035      334.737        4.906      850.059
12/13/2021  07:25:00      -40.700      -10.042      -18.929       89.509       63.987       43.840     8011.855     4094.278     1921.904        0.807        0.701       41.920       40.715        0.943      334.769        4.959      850.125
12/13/2021  07:26:00      -22.736      -41.792      -23.117       80.854       72.246       51.894     6537.426     5219.477     2692.986        0.862        0.722       47.576       43.012        0.817      334.755        4.936      850.148
12/13/2021  07:27:00       56.163     -249.447      -68.541      189.782      251.165       76.863    36017.226    63083.657     5907.943        8.752        5.250      255.691       67.144        0.069      334.797        5.005      849.990
12/13/2021  07:28:00      201.810     -327.874      -91.867      181.402      211.027       73.874    32906.856    44532.361     5457.359       11.977        4.145      385.005       89.283        0.054      334.651        4.760      849.857
12/13/2021  07:29:00       -1.013      -61.781      -26.973      108.406       86.334       66.303    11751.946     7453.512     4396.121        1.407        1.180       61.789       45.752        0.548      334.786        4.989      849.940
12/13/2021  07:30:00      -14.696     -206.635      -38.692      131.154      207.980       76.539    17201.414    43255.873     5858.239        5.535        3.316      207.157       76.730        0.137      334.752        4.932      850.004
12/13/2021  07:31:00      -48.763     -201.139      -29.576      158.150      142.150       86.070    25011.476    20206.490     7408.005        4.816        2.631      206.966       51.805        0.063      334.820        5.043      849.859
12/13/2021  07:32:00      -38.992     -228.718      -41.791      115.311      179.731       84.341    13296.592    32303.286     7113.404        5.414        2.636      232.018       56.347        0.059      334.851        5.095      849.799
12/13/2021  07:33:00        2.634     -118.559      -39.407       65.171       59.124       41.719     4247.283     3495.593     1740.511        1.255        0.474      118.589       20.383        0.030      334.859        5.108      849.893
12/13/2021  07:34:00      -27.025      -68.792      -33.220       91.161       75.896       60.150     8310.286     5760.247     3618.047        1.212        0.884       73.910       43.940        0.353      334.701        4.846      849.816
12/13/2021  07:35:00      -27.252      -82.153      -33.789      165.758       99.518       72.420    27475.637     9903.915     5244.608        2.562        2.131       86.555       45.616        0.278      334.734        4.902      850.008
12/13/2021  07:36:00       12.959     -204.224      -50.549      160.920      154.100       90.830    25895.254    23746.689     8250.176        5.115        2.895      204.635       68.905        0.113      334.735        4.901      850.160
12/13/2021  07:37:00      -99.060      -99.439      -51.921      137.667      127.457       87.546    18952.333    16245.215     7664.350        3.262        2.143      140.360       57.544        0.168      334.684        4.817      850.005
12/13/2021  07:38:00      106.082     -114.935      -42.455      145.981      166.092       65.639    21310.307    27586.649     4308.505        3.973        2.660      156.408       55.887        0.128      334.722        4.880      849.843
12/13/2021  07:39:00      -36.315     -171.251      -25.733       98.637      157.190       71.594     9729.193    24708.697     5125.633        3.543        1.978      175.059       64.691        0.137      334.723        4.882      849.866
12/13/2021  07:40:00      -23.257      -66.364      -28.282      125.667      127.151       55.598    15792.096    16167.321     3091.095        2.039        1.753       70.321       57.611        0.671      334.631        4.728      849.959
12/13/2021  07:41:00       11.342     -169.001      -33.155       82.230      142.397       44.698     6761.703    20277.037     1997.905        2.941        1.452      169.382       32.543        0.037      334.632        4.730      850.110
12/13/2021  07:42:00      -47.426     -118.607      -45.247      104.346       78.977       52.818    10888.024     6237.314     2789.772        1.914        0.996      127.737       35.754        0.078      334.710        4.862      850.007
12/13/2021  07:43:00      -58.347     -306.174      -43.507      106.639      157.995       96.853    11371.787    24962.560     9380.581        7.237        2.286      311.684       81.459        0.068      334.655        4.769      849.967
12/13/2021  07:44:00     -101.721     -226.869      -40.482      149.167      144.870       71.292    22250.791    20987.242     5082.532        5.588        2.416      248.630       44.983        0.033      334.613        4.697      849.910
12/13/2021  07:45:00      -34.752      -52.660      -12.812       88.278      102.195       56.135     7792.965    10443.871     3151.102        1.276        1.069       63.093       46.796        0.550      334.607        4.689      849.944
12/13/2021  07:46:00      -84.479     -131.530      -53.978      108.879      198.887       65.109    11854.604    39556.185     4239.202        4.149        2.782      156.323       58.960        0.142      334.608        4.691      850.018
12/13/2021  07:47:00      -22.934     -114.328      -32.807       82.219       93.739       59.703     6759.951     8786.994     3564.475        1.689        0.956      116.605       57.866        0.246      334.643        4.748      849.953
12/13/2021  07:48:00       66.350     -113.094      -45.939       85.096       85.742       40.475     7241.387     7351.744     1638.240        1.776        0.812      131.120       30.637        0.055      334.619        4.709      849.922
12/13/2021  07:49:00      -54.238      -91.963      -45.877      124.263       94.138       61.423    15441.351     8861.991     3772.843        2.078        1.404      106.766       42.396        0.158      334.571        4.630      849.882
12/13/2021  07:50:00      -33.455     -131.141      -38.848      131.213      130.470       52.715    17216.964    17022.478     2778.849        2.842        1.851      135.341       39.299        0.084      334.649        4.758      849.786
12/13/2021  07:51:00      -62.999     -236.709      -61.672      179.005      184.440      100.345    32042.660    34018.157    10069.132        6.995        3.806      244.949       63.167        0.067      334.605        4.685      849.751
12/13/2021  07:52:00     -148.358     -162.026      -32.522      126.944      148.796       68.741    16114.810    22140.205     4725.347        4.614        2.149      219.687       59.176        0.073      334.526        4.554      849.755
12/13/2021  07:53:00      -50.552     -170.183      -38.004      133.368      105.655       59.432    17786.929    11162.925     3532.137        3.272        1.624      177.533       36.972        0.043      334.588        4.657      849.576
12/13/2021  07:54:00      -45.775      -80.154      -21.167       57.968       65.611       40.096     3360.336     4304.853     1607.663        0.912        0.464       92.304       15.262        0.027      334.624        4.720      849.575
12/13/2021  07:55:00      -31.086      -51.903      -35.841       96.211      142.620       64.466     9256.486    20340.550     4155.900        1.934        1.688       60.500       25.843        0.182      334.616        4.703      849.666
12/13/2021  07:56:00     -195.046      -62.971      -21.158      171.809      135.955       75.294    29518.367    18483.861     5669.155        4.805        2.684      204.959       77.286        0.142      334.533        4.567      849.594
12/13/2021  07:57:00      -58.550      -77.673      -24.155      107.340       66.991       58.188    11521.897     4487.811     3385.792        1.472        0.970       97.268       44.791        0.212      334.705        4.852      849.538
12/13/2021  07:58:00       39.426      -15.263      -19.856       47.068       59.874       39.934     2215.372     3584.915     1594.700        0.479        0.370       42.277       22.484        0.283      334.838        5.075      849.516
12/13/2021  07:59:00       30.625      -92.816      -26.563       47.729       59.295       31.607     2278.100     3515.871      999.024        0.852        0.340       97.738       25.332        0.067      334.655        4.771      849.450
12/13/2021  08:00:00      -18.948       29.610      -17.885       57.757       40.896       23.975     3335.828     1672.449      574.789        0.357        0.279       35.154       22.024        0.393      334.665        4.787      849.458
12/13/2021  08:01:00       42.553      -28.868      -29.715       60.555      140.716       43.093     3666.956    19800.943     1857.041        1.442        1.266       51.421       43.148        0.704      334.706        4.854      849.477
12/13/2021  08:02:00       40.221     -198.553      -43.655      140.300      146.054       94.356    19684.090    21331.852     8903.095        4.642        2.496      202.586       78.305        0.149      334.741        4.912      849.620
12/13/2021  08:03:00     -108.351     -203.836      -37.387      101.277       89.629       58.762    10257.049     8033.293     3452.955        3.821        1.087      230.844       22.387        0.009      334.744        4.916      849.585
12/13/2021  08:04:00      116.758     -245.744      -63.856      176.408      136.608       66.146    31119.848    18661.762     4375.326        6.612        2.708      272.071       67.956        0.062      334.690        4.825      849.520
12/13/2021  08:05:00       11.727     -140.794      -32.462       93.904       67.355       43.130     8817.948     4536.737     1860.237        1.811        0.761      141.282       20.529        0.021      334.814        5.034      849.732
12/13/2021  08:06:00      -17.258        7.383      -25.344       91.938      102.527       51.743     8452.527    10511.790     2677.377        1.131        1.082       18.771       30.467        2.634      334.848        5.091      849.819
12/13/2021  08:07:00       37.875      -36.461       -9.173       70.131       51.210       35.720     4918.308     2622.443     1275.916        0.583        0.441       52.573       18.503        0.124      334.835        5.070      849.753
12/13/2021  08:08:00       53.994       16.476      -10.432       73.733       49.589       25.044     5436.554     2459.085      627.205        0.591        0.426       56.451       16.579        0.086      334.781        4.982      849.701
12/13/2021  08:09:00      -18.417        5.496      -12.043       44.315       40.371       21.070     1963.783     1629.787      443.938        0.228        0.202       19.219       17.654        0.844      334.928        5.225      849.795
12/13/2021  08:10:00     -115.360     -174.764      -33.823       97.509      115.628       58.227     9508.041    13369.751     3390.359        3.563        1.313      209.405       32.089        0.023      334.854        5.099      849.902
12/13/2021  08:11:00      -49.538        5.615       -2.591       72.627       47.150       37.598     5274.636     2223.112     1413.589        0.570        0.446       49.856       25.664        0.265      334.917        5.208      849.794
12/13/2021  08:12:00       84.135     -155.837      -31.235       66.000      119.019       57.704     4355.936    14165.540     3329.790        2.709        1.093      177.099       44.688        0.064      334.955        5.267      849.699
12/13/2021  08:13:00       76.853     -130.605      -45.980       69.600       87.822       59.030     4844.136     7712.777     3484.486        2.056        0.802      151.539       46.168        0.093      334.772        4.963      849.682
12/13/2021  08:14:00       30.832     -154.223      -41.247       78.064       87.374       45.554     6093.937     7634.274     2075.133        2.112        0.790      157.275       37.327        0.056      334.967        5.289      849.704
12/13/2021  08:15:00       12.832     -170.384      -10.603      134.481      167.650       87.605    18085.260    28106.656     7674.578        4.158        2.693      170.866       68.191        0.159      334.912        5.195      849.725
12/13/2021  08:16:00       34.859     -107.744      -33.220      127.350       95.946       60.338    16218.103     9205.696     3640.646        2.149        1.453      113.243       56.472        0.249      334.957        5.270      849.680
12/13/2021  08:17:00     -106.014     -269.201      -39.397      139.842      200.210       85.041    19555.700    40084.146     7232.037        7.605        3.344      289.323       87.980        0.092      334.922        5.212      849.726
12/13/2021  08:18:00      103.986     -335.374      -47.227      117.117      245.258       73.471    13716.286    60151.587     5398.025       10.238        3.963      351.125       60.407        0.030      334.828        5.057      849.788
12/13/2021  08:19:00      133.868     -435.976      -89.600      234.117      212.421      111.940    54810.821    45122.676    12530.585       16.422        5.623      456.066      108.592        0.057      334.826        5.051      849.707
12/13/2021  08:20:00      -25.565     -290.027      -54.037      164.379      203.667       93.227    27020.533    41480.280     8691.340        8.243        3.860      291.151       46.335        0.025      334.872        5.129      849.849
12/13/2021  08:21:00       -0.634     -189.850      -50.693       93.003       91.537       67.390     8649.515     8379.063     4541.473        3.009        1.079      189.851       58.589        0.095      334.945        5.250      849.931
12/13/2021  08:22:00       34.554     -334.164      -64.861      159.093      215.488       96.389    25310.494    46434.991     9290.817        9.904        4.052      335.946       69.451        0.043      334.882        5.145      850.009
12/13/2021  08:23:00      -28.457     -349.713      -72.436      229.748      163.165       85.054    52784.237    26622.711     7234.104       10.748        4.332      350.869       52.314        0.022      334.903        5.180      850.004
12/13/2021  08:24:00      -86.512      -33.300       -3.518      117.571      119.494       70.565    13822.955    14278.833     4979.358        2.084        1.654       92.700       48.500        0.274      334.951        5.261      850.097
12/13/2021  08:25:00     -164.697     -115.079      -27.900       98.879      103.809       72.474     9777.070    10776.213     5252.436        3.347        1.290      200.919       50.979        0.064      334.910        5.193      850.091
12/13/2021  08:26:00      -58.620      -60.006      -23.949      135.905      112.230       64.216    18470.242    12595.582     4123.705        2.139        1.759       83.886       54.161        0.417      334.899        5.176      850.033
12/13/2021  08:27:00       71.387     -196.999      -12.141      188.101      195.785       97.030    35382.145    38331.936     9414.841        6.358        4.156      209.534       92.607        0.195      334.790        4.992      849.955
12/13/2021  08:28:00      -28.663     -107.846      -37.546      114.819      107.504       57.644    13183.456    11557.007     3322.815        2.096        1.403      111.590       48.957        0.192      334.863        5.114      849.877
12/13/2021  08:29:00      -86.980     -177.040      -52.444      179.107      234.882      106.176    32079.188    55169.749    11273.398        7.007        4.926      197.253      101.560        0.265      334.864        5.116      849.817
12/13/2021  08:30:00     -130.222     -165.165      -35.593      112.939      107.700       77.508    12755.255    11599.309     6007.476        3.793        1.518      210.327       20.977        0.010      334.779        4.974      849.866
12/13/2021  08:31:00     -123.022      -51.725       -3.217      162.619      107.809       62.757    26445.099    11622.750     3938.382        2.991        2.100      133.454       61.053        0.209      334.776        4.972      850.035
12/13/2021  08:32:00     -110.069      -56.196       -3.396      193.085      153.040       90.802    37281.884    23421.212     8244.998        4.210        3.447      123.585       82.794        0.449      334.730        4.893      850.064
12/13/2021  08:33:00      -37.647      -69.212      -17.213       95.537      107.427       40.339     9127.401    11540.596     1627.202        1.440        1.115       78.788       23.801        0.091      334.750        4.928      849.881
12/13/2021  08:34:00       30.143     -173.933      -69.549      175.309      177.248       67.870    30733.200    31416.973     4606.354        5.137        3.338      176.526       61.637        0.122      334.753        4.931      849.895
12/13/2021  08:35:00     -121.721     -232.495      -42.966      201.255      195.587       83.932    40503.395    38254.285     7044.655        7.824        4.290      262.431       77.300        0.087      334.743        4.914      849.989
12/13/2021  08:36:00      -72.778     -205.734      -47.501      160.877      120.745       59.244    25881.558    14579.381     3509.892        4.692        2.199      218.227       51.223        0.055      334.801        5.012      850.055
12/13/2021  08:37:00      -27.278     -114.590       -8.989      136.240      174.953       87.806    18561.308    30608.666     7709.903        3.541        2.844      117.792       90.512        0.590      334.764        4.949      850.129
12/13/2021  08:38:00       18.210     -286.877      -29.848      207.691      221.874       98.132    43135.362    49227.958     9629.987        9.274        5.100      287.455       87.039        0.092      334.737        4.904      850.134
12/13/2021  08:39:00       -4.875     -304.192      -93.986      185.301      186.510       94.383    34336.505    34785.811     8908.230        8.970        3.902      304.231       87.541        0.083      334.717        4.870      850.037
12/13/2021  08:40:00        2.388     -256.140      -37.273      133.177      167.152       76.804    17736.236    27939.939     5898.858        5.928        2.579      256.151       67.419        0.069      334.792        4.996      850.038
12/13/2021  08:41:00      -59.210     -273.257      -49.266      160.166      147.847       81.767    25653.025    21858.733     6685.865        6.739        2.710      279.598       34.941        0.016      334.801        5.010      850.040
12/13/2021  08:42:00      -12.771     -234.875      -54.952      150.760      152.589       91.419    22728.566    23283.532     8357.400        5.635        2.718      235.222       76.193        0.105      334.805        5.017      850.166
12/13/2021  08:43:00       43.314     -239.876      -66.136      117.702      171.234       77.589    13853.741    29320.958     6020.123        5.648        2.460      243.755       51.944        0.045      334.816        5.037      850.078
12/13/2021  08:44:00       -8.254     -163.190      -67.216      131.945      126.778       60.500    17409.599    16072.649     3660.239        3.417        1.857      163.398       50.294        0.095      334.844        5.082      849.853
12/13/2021  08:45:00       49.503     -248.979      -45.379      118.143      117.569       80.445    13957.747    13822.378     6471.388        5.037        1.713      253.852       65.301        0.066      334.829        5.058      849.808
12/13/2021  08:46:00      -49.971     -103.910      -39.142      132.526      103.012       45.770    17563.247    10611.470     2094.918        2.254        1.513      115.301       29.675        0.066      334.798        5.007      849.832
12/13/2021  08:47:00      -70.419     -163.580      -47.950      121.451       98.597       54.311    14750.368     9721.288     2949.716        3.071        1.371      178.093       41.472        0.054      334.882        5.145      849.866
12/13/2021  08:48:00      -33.559     -284.300      -76.167      199.658      199.619      105.918    39863.138    39847.928    11218.605        8.933        4.546      286.273       79.138        0.076      334.775        4.967      849.993
12/13/2021  08:49:00      -31.840     -214.353      -61.151      218.770      125.763       90.972    47860.454    15816.270     8275.918        6.131        3.598      216.705       80.161        0.137      334.867        5.119      849.959
12/13/2021  08:50:00      127.774     -467.966      -91.094      176.520      235.839      112.659    31159.252    55619.974    12692.136       17.153        4.974      485.096       87.115        0.032      334.756        4.935      849.774
12/13/2021  08:51:00       66.687     -219.761      -40.263      122.729      200.307       95.730    15062.396    40122.914     9164.314        5.934        3.217      229.657       75.114        0.107      334.812        5.031      849.605
12/13/2021  08:52:00      -77.702     -306.989      -32.930      125.113      203.081       84.170    15653.370    41242.075     7084.579        8.266        3.199      316.670       88.704        0.078      334.889        5.157      849.749
12/13/2021  08:53:00       60.578     -254.576      -63.147      127.241      188.283       91.648    16190.351    35450.519     8399.425        6.624        3.002      261.684       85.542        0.107      334.867        5.119      849.997
12/13/2021  08:54:00      -15.450     -320.019      -79.272      148.127      231.027       78.266    21941.695    53373.349     6125.533        9.517        4.072      320.392       43.668        0.019      334.816        5.034      849.894
12/13/2021  08:55:00      106.898     -227.449      -74.097      184.870      182.410       78.541    34177.028    33273.242     6168.722        7.112        3.681      251.318       96.962        0.149      334.757        4.937      849.754
12/13/2021  08:56:00       71.842     -304.930      -90.815      199.514      175.626       87.940    39805.695    30844.479     7733.369        9.237        3.919      313.279       85.409        0.074      334.844        5.081      849.721
12/13/2021  08:57:00       -7.225     -229.704      -46.102      144.228      122.343       96.329    20801.850    14967.896     9279.299        4.999        2.252      229.817       61.124        0.071      334.889        5.157      849.771
12/13/2021  08:58:00     -208.057     -277.718      -59.664      180.323      205.101       75.828    32516.269    42066.516     5749.952       10.214        4.017      347.009       68.978        0.040      334.743        4.915      849.664
12/13/2021  08:59:00     -107.801     -202.152      -18.430      175.356      135.415       81.695    30749.792    18337.160     6674.144        5.428        2.788      229.099       59.861        0.068      334.895        5.166      849.834
12/13/2021  09:00:00      -99.976     -224.265      -51.723      138.295      195.939       81.573    19125.462    38392.221     6654.193        6.356        3.209      245.540       73.661        0.090      334.863        5.113      849.819
12/13/2021  09:01:00      -72.651      -43.250        8.386      114.847       98.357       65.299    13189.739     9674.009     4263.953        1.717        1.356       84.550       45.168        0.285      334.949        5.258      849.587
12/13/2021  09:02:00      -27.152      -59.039      -15.188      166.075      108.185       74.377    27580.875    11704.052     5531.921        2.463        2.241       64.983       29.658        0.208      335.036        5.403      849.557
12/13/2021  09:03:00      -40.430     -178.329      -34.632      166.004      140.418       83.573    27557.480    19717.318     6984.401        4.444        2.713      182.855       55.114        0.091      335.010        5.357      849.663
12/13/2021  09:04:00      -18.921      -73.215      -20.122       84.395       53.510       45.816     7122.464     2863.281     2099.098        0.910        0.604       75.621       24.018        0.101      335.082        5.479      849.735
12/13/2021  09:05:00      -78.554      -66.508      -11.456       71.840      113.296       63.229     5161.019    12835.963     3997.963        1.636        1.100      102.928       48.125        0.219      335.004        5.350      849.699
12/13/2021  09:06:00      -31.408      -54.362      -38.972       75.620       69.032       49.276     5718.321     4765.370     2428.160        0.918        0.646       62.782       31.722        0.255      335.130        5.560      849.653
12/13/2021  09:07:00      -62.562     -340.471      -68.859      254.299      241.239      106.149    64667.942    58196.469    11267.635       12.933        6.707      346.171       94.216        0.074      334.864        5.116      849.657
12/13/2021  09:08:00        4.636     -227.390      -46.708      161.353      100.738       83.198    26034.727    10148.059     6921.975        4.850        2.155      227.437       70.516        0.096      334.990        5.324      849.509
12/13/2021  09:09:00      -40.526     -107.941       -2.029      150.746      156.509       83.655    22724.442    24494.989     6998.166        3.375        2.711      115.298       62.572        0.295      334.990        5.325      849.583
12/13/2021  09:10:00      -44.789      -92.173      -15.831      129.875      159.841       85.445    16867.395    25549.070     7300.850        3.023        2.486      102.479       56.952        0.309      335.034        5.398      849.522
12/13/2021  09:11:00     -121.258     -115.267      -37.379      175.857      128.950       77.694    30925.710    16628.205     6036.432        4.148        2.680      167.303       52.676        0.099      335.023        5.380      849.635
12/13/2021  09:12:00      -25.293     -228.095      -57.934      156.795      131.154       78.399    24584.788    17201.498     6146.372        5.197        2.397      229.494       36.633        0.025      335.087        5.486      849.716
12/13/2021  09:13:00       -4.130     -204.710      -32.986      137.950      119.335       73.545    19030.086    14240.790     5408.901        4.084        1.934      204.751       55.949        0.075      335.032        5.396      849.721
12/13/2021  09:14:00      -59.988     -216.492      -38.662      218.364      240.533       94.291    47682.693    57856.152     8890.711        8.317        5.721      224.649       53.339        0.056      334.980        5.308      849.680
12/13/2021  09:15:00      -56.866     -404.243      -56.868      188.525      231.600      107.542    35541.827    53638.550    11565.364       13.529        5.037      408.223       44.771        0.012      334.819        5.041      849.719
12/13/2021  09:16:00     -151.911     -370.194      -74.829      184.123      199.469       81.768    33901.421    39788.049     6686.015       12.303        4.019      400.151       63.504        0.025      334.817        5.039      849.785
12/13/2021  09:17:00      -33.145     -182.598      -29.815      144.109      165.452       61.038    20767.410    27374.344     3725.601        4.359        2.593      185.582       55.532        0.090      334.914        5.199      849.866
12/13/2021  09:18:00      -63.764     -332.470      -67.390      217.263      168.114       82.607    47203.081    28262.315     6823.887       10.070        4.114      338.529       54.342        0.026      334.870        5.126      849.835
12/13/2021  09:19:00      -25.593     -234.809      -38.064      132.216      201.295       79.033    17480.969    40519.804     6246.141        6.073        3.212      236.199       75.448        0.102      334.853        5.097      849.783
12/13/2021  09:20:00       83.012     -439.760      -97.309      152.637      157.787      109.655    23297.906    24896.755    12024.200       13.497        3.011      447.527       64.357        0.021      334.812        5.028      849.853
12/13/2021  09:21:00       99.836     -206.128      -54.979      124.395      147.477       92.733    15474.096    21749.456     8599.338        5.064        2.291      229.033       81.357        0.126      334.860        5.107      849.853
12/13/2021  09:22:00      -38.941     -217.365      -38.870      119.198      134.947       79.520    14208.092    18210.604     6323.383        4.450        1.937      220.825       43.668        0.039      334.978        5.306      849.853
12/13/2021  09:23:00     -111.432     -310.406      -54.251      201.104      153.702       84.503    40442.863    23624.368     7140.739        9.145        3.560      329.801       37.393        0.013      334.857        5.104      849.894
12/13/2021  09:24:00       43.358     -299.650      -83.864      207.992      156.709       96.593    43260.475    24557.566     9330.183        8.791        3.857      302.770       95.495        0.099      334.848        5.087      849.914
12/13/2021  09:25:00      -44.310     -201.879      -22.122      156.311      115.889       84.339    24433.187    13430.256     7113.116        4.408        2.249      206.685       27.876        0.018      334.883        5.148      850.075
12/13/2021  09:26:00       83.888     -311.901      -54.201      134.766      240.226       98.458    18161.876    57708.539     9693.995        9.639        4.278      322.985       87.595        0.074      334.840        5.077      850.009
12/13/2021  09:27:00       30.857     -336.910      -61.976      187.931      202.244       93.141    35317.990    40902.670     8675.250       10.158        4.245      338.321       53.516        0.025      334.782        4.977      850.067
12/13/2021  09:28:00      -63.706     -194.804      -55.947      158.903      175.424       84.822    25250.044    30773.545     7194.787        5.417        3.161      204.956       64.078        0.098      334.892        5.162      850.093
12/13/2021  09:29:00      -29.455     -270.045      -48.276      169.179      164.351       84.475    28621.654    27011.118     7136.013        6.943        3.138      271.647       76.424        0.079      334.812        5.029      850.073
12/13/2021  09:30:00      -95.086     -145.134      -28.915      105.479      173.601       72.570    11125.743    30137.192     5266.352        3.873        2.326      173.508       75.319        0.188      334.870        5.126      850.014
12/13/2021  09:31:00      -72.697     -318.441      -37.823      188.554      240.324       93.585    35552.587    57755.824     8758.228       10.507        5.103      326.633       91.573        0.079      334.824        5.049      849.978
12/13/2021  09:32:00     -182.811     -329.151      -37.087      138.903      228.274       89.759    19293.931    52109.227     8056.749       11.128        3.973      376.510       83.030        0.049      334.757        4.937      849.979
12/13/2021  09:33:00      -92.661     -133.566      -20.222      140.891      116.098       78.081    19850.310    13478.673     6096.714        3.312        1.971      162.561       48.386        0.089      334.867        5.121      850.090
12/13/2021  09:34:00       59.442     -489.889      -81.691      178.103      271.139      104.326    31720.780    73516.337    10883.849       18.314        5.806      493.482      108.424        0.048      334.750        4.925      850.054
12/13/2021  09:35:00       38.896     -304.371      -61.164      134.234      137.957      107.122    18018.810    19032.240    11475.168        7.320        2.426      306.846       82.809        0.073      334.777        4.970      850.024
12/13/2021  09:36:00       12.681     -238.696      -64.176      145.753      159.377       84.048    21244.018    25401.066     7064.103        5.747        2.685      239.032       56.597        0.056      334.836        5.068      850.043
12/13/2021  09:37:00      -75.412     -295.123      -42.168      243.846      222.109       92.159    59460.810    49332.550     8493.371       10.590        5.864      304.605       83.067        0.074      334.786        4.985      850.120
12/13/2021  09:38:00      -28.553     -148.806       -1.222       85.309      122.117       60.350     7277.666    14912.680     3642.070        2.439        1.292      151.521       52.788        0.121      334.906        5.186      850.089
12/13/2021  09:39:00      -45.829     -248.922      -42.388      129.668      104.472       63.147    16813.906    10914.396     3987.510        4.878        1.586      253.106       42.832        0.029      334.912        5.194      850.138
12/13/2021  09:40:00       24.720     -184.517      -22.312      134.076      148.390       78.270    17976.454    22019.727     6126.193        4.063        2.306      186.166       66.928        0.129      334.875        5.134      850.127
12/13/2021  09:41:00      -33.505     -273.240      -61.098      207.606      184.415       76.656    43100.287    34008.948     5876.156        8.124        4.149      275.287       59.915        0.047      334.836        5.068      850.244
12/13/2021  09:42:00        4.536     -134.648      -37.796      123.605      158.264       68.372    15278.171    25047.602     4674.692        3.228        2.250      134.725       47.259        0.123      334.802        5.014      850.172
12/13/2021  09:43:00      -25.891      -28.510      -13.924       59.344       56.212       43.214     3521.661     3159.843     1867.427        0.511        0.427       38.512       23.726        0.380      334.888        5.158      850.075
12/13/2021  09:44:00      -26.169       38.129       -9.408       43.597       61.060       21.639     1900.725     3728.327      468.252        0.416        0.305       46.245       20.891        0.204      334.931        5.232      850.096
12/13/2021  09:45:00      -42.096      -84.311       -7.215       95.566      148.693       75.503     9132.905    22109.572     5700.752        2.293        1.847       94.235       62.851        0.445      334.977        5.305      850.160
12/13/2021  09:46:00      -56.792     -321.569      -51.308      144.710      166.942       81.849    20940.953    27869.689     6699.329        8.238        2.775      326.546       41.655        0.016      334.918        5.204      850.250
12/13/2021  09:47:00      -67.846     -287.615      -57.766      190.042      148.948       76.213    36115.952    22185.556     5808.347        7.737        3.205      295.509       57.170        0.037      334.905        5.183      850.267
12/13/2021  09:48:00      -50.348     -183.258      -55.781      165.650      134.226       74.055    27439.759    18016.662     5484.189        4.508        2.547      190.049       63.221        0.111      334.941        5.242      850.212
12/13/2021  09:49:00      -77.539     -188.028      -22.037      141.396      127.056       72.556    19992.738    16143.285     5264.305        4.162        2.070      203.389       38.245        0.035      334.924        5.215      850.293
12/13/2021  09:50:00       -1.830     -248.835      -37.374      137.291      120.082       77.765    18848.811    14419.749     6047.464        5.131        1.966      248.841       46.097        0.034      334.920        5.207      850.311
12/13/2021  09:51:00       44.698     -284.751      -36.718      194.799      272.849      106.207    37946.596    74446.742    11279.872       10.403        6.184      288.238      135.267        0.220      334.902        5.180      850.353
12/13/2021  09:52:00      -20.615     -378.324      -46.485      226.499      227.209      116.811    51301.778    51623.710    13644.805       13.112        5.829      378.886       97.274        0.066      334.867        5.120      850.371
12/13/2021  09:53:00       27.804     -236.634      -66.551      207.740      142.448      105.172    43155.964    20291.418    11061.162        6.784        3.725      238.261       84.052        0.124      334.908        5.187      850.385
12/13/2021  09:54:00       92.249     -230.851      -85.188      156.491      190.806       83.158    24489.396    36407.069     6915.239        6.842        3.391      248.600       69.294        0.078      334.898        5.171      850.153
12/13/2021  09:55:00      136.112     -318.804      -57.024      128.684      202.672      102.893    16559.486    41075.742    10586.876        9.581        3.411      346.644       86.481        0.062      334.831        5.060      850.108
12/13/2021  09:56:00       15.980     -342.877      -60.492      169.064      287.517       82.668    28582.479    82666.245     6833.975       11.976        5.904      343.250       94.030        0.075      334.876        5.134      850.259
12/13/2021  09:57:00       -6.941     -242.411      -48.958      175.827      151.029       75.566    30915.260    22809.614     5710.166        6.031        2.972      242.510       43.061        0.032      334.939        5.240      850.316
12/13/2021  09:58:00      -57.771     -265.076      -39.330      110.050      172.898       85.054    12110.910    29893.814     7234.246        6.219        2.462      271.299       75.238        0.077      334.981        5.309      850.368
12/13/2021  09:59:00      -39.955     -308.337      -72.435      182.144      122.022       94.883    33176.462    14889.424     9002.769        7.948        2.853      310.915       63.506        0.042      334.876        5.135      850.426
12/13/2021  10:00:00     -111.128     -235.557      -36.976      141.586      166.364       71.924    20046.469    27677.130     5173.023        6.104        2.645      260.455       63.298        0.059      334.933        5.233      850.384
12/13/2021  10:01:00       65.631     -283.719      -76.599      192.204      180.764       83.526    36942.231    32675.564     6976.606        8.362        3.830      291.211       65.754        0.051      334.844        5.080      850.464
12/13/2021  10:02:00       22.071     -362.899      -73.039      173.862      115.654       94.297    30228.076    13375.818     8891.997        9.500        2.625      363.569       65.217        0.032      334.851        5.092      850.456
12/13/2021  10:03:00       88.999     -379.783      -64.777      125.167      192.127       91.575    15666.860    36912.735     8385.921       10.865        3.048      390.071       77.222        0.039      334.817        5.037      850.421
12/13/2021  10:04:00       47.967     -227.112      -79.360      140.211      135.934       90.021    19659.213    18477.922     8103.692        5.320        2.312      232.122       36.992        0.025      334.893        5.163      850.391
12/13/2021  10:05:00      -76.624     -256.514      -44.876      130.462      251.730       91.769    17020.459    63368.055     8421.578        8.123        4.441      267.714       89.783        0.112      334.891        5.162      850.339
12/13/2021  10:06:00      -21.924     -187.006      -29.809      138.607      128.343       87.437    19212.015    16471.895     7645.210        3.983        2.166      188.286       80.589        0.183      334.933        5.230      850.436
12/13/2021  10:07:00       79.912     -221.812      -50.017      161.125      189.769       78.050    25961.265    36012.349     6091.811        6.306        3.403      235.768       81.702        0.120      334.921        5.212      850.374
12/13/2021  10:08:00      -46.210     -235.947      -41.930      170.250      260.595       88.988    28985.196    67909.680     7918.776        8.217        5.241      240.430       96.842        0.162      334.826        5.053      850.308
12/13/2021  10:09:00      -62.480     -293.144      -46.201      199.823      181.631      107.524    39929.301    32989.900    11561.455        8.821        4.224      299.728       64.224        0.046      334.798        5.005      850.352
12/13/2021  10:10:00       64.967     -264.788      -68.681      200.563      187.374       95.340    40225.458    35109.101     9089.688        8.172        4.221      272.641       84.271        0.096      334.890        5.158      850.318
12/13/2021  10:11:00      108.356     -274.644      -68.371      108.514      188.849       64.706    11775.344    35663.808     4186.824        7.173        2.581      295.247       47.841        0.026      334.838        5.071      850.134
12/13/2021  10:12:00       78.692     -275.876      -48.387       93.187      146.195       64.617     8683.906    21373.009     4175.301        5.943        1.712      286.880       35.120        0.015      334.851        5.094      850.163
12/13/2021  10:13:00      -88.785     -147.647      -19.852      153.797      156.809       78.859    23653.511    24589.089     6218.769        4.226        2.723      172.286       63.704        0.137      334.904        5.183      850.313
12/13/2021  10:14:00       75.987     -305.416      -51.261      150.929      185.668       91.293    22779.558    34472.750     8334.350        8.362        3.279      314.727       99.789        0.101      334.884        5.148      850.324
12/13/2021  10:15:00       -3.410     -151.626      -30.543      101.139      107.568       70.371    10229.061    11570.829     4952.135        2.534        1.338      151.665       53.336        0.124      334.987        5.320      850.319
12/13/2021  10:16:00      134.395     -195.181      -73.627      120.155      135.776       77.805    14437.194    18435.088     6053.629        5.025        1.946      236.976       58.590        0.061      334.909        5.191      850.243
12/13/2021  10:17:00       -2.658     -267.669      -40.939      187.177      189.928       64.029    35035.307    36072.514     4099.702        7.425        3.760      267.682       64.975        0.059      334.924        5.215      850.171
12/13/2021  10:18:00     -142.813     -381.628      -50.524      205.394      223.610       86.561    42186.672    50001.561     7492.815       13.412        4.984      407.475       60.269        0.022      334.892        5.160      850.337
12/13/2021  10:19:00      -64.957     -175.892      -53.532      159.206      121.046       94.295    25346.664    14652.142     8891.462        4.345        2.445      187.503       53.323        0.081      335.001        5.344      850.413
12/13/2021  10:20:00       20.652     -206.264      -49.186      139.928      134.199       79.422    19579.970    18009.472     6307.833        4.464        2.195      207.295       63.871        0.095      335.075        5.465      850.306
12/13/2021  10:21:00      -44.433      -75.106      -31.188      129.593      109.988       72.848    16794.267    12097.404     5306.766        2.139        1.710       87.265       55.724        0.408      335.057        5.436      850.341
12/13/2021  10:22:00      -60.722     -250.525      -49.395      188.536      203.760      106.741    35545.805    41518.320    11393.716        7.866        4.423      257.779       88.959        0.119      335.026        5.385      850.379
12/13/2021  10:23:00      133.838     -301.710      -69.310      198.639      192.627       82.197    39457.327    37105.177     6756.332        9.852        4.166      330.063       96.891        0.086      334.938        5.238      850.357
12/13/2021  10:24:00      101.438     -301.989      -58.250      223.685      217.169       89.153    50034.987    47162.390     7948.339       10.499        5.257      318.570       91.829        0.083      334.994        5.332      850.249
12/13/2021  10:25:00      -67.370     -253.460      -45.968      160.512      170.398       79.909    25764.054    29035.366     6385.434        6.603        3.059      262.261       66.390        0.064      335.110        5.524      850.291
12/13/2021  10:26:00      105.062     -203.521      -43.989      111.046      128.541       75.032    12331.239    16522.814     5629.779        4.443        1.724      229.039       52.907        0.053      335.116        5.533      850.288
12/13/2021  10:27:00       25.557     -273.374      -59.038      223.119      144.010       88.730    49781.900    20738.846     7873.068        7.862        3.920      274.566       68.712        0.063      335.110        5.523      850.196
12/13/2021  10:28:00      200.820     -435.908      -98.624      189.583      203.617       89.194    35941.624    41459.706     7955.576       16.270        4.268      479.942       98.577        0.042      335.074        5.464      850.074
12/13/2021  10:29:00       35.059     -224.001      -65.298      144.607      156.411       67.619    20911.103    24464.454     4572.356        5.280        2.497      226.728       63.379        0.078      335.170        5.623      849.949
12/13/2021  10:30:00      127.909     -332.888     -106.528      140.551      175.868       84.227    19754.490    30929.385     7094.182        9.814        2.889      356.616       59.981        0.028      335.147        5.585      850.001
12/13/2021  10:31:00       16.215     -252.660      -53.961      160.490      156.596      102.889    25756.988    24522.330    10586.203        6.393        3.043      253.179       84.280        0.111      335.162        5.610      850.084
12/13/2021  10:32:00       23.662     -151.289      -49.128      168.578      137.674       98.534    28418.710    18954.054     9709.020        4.146        2.854      153.128       86.818        0.321      335.265        5.780      849.969
12/13/2021  10:33:00       29.306     -116.466      -53.538      111.359      150.678       64.372    12400.872    22703.783     4143.797        2.826        1.962      120.097       57.042        0.226      335.360        5.939      849.762
12/13/2021  10:34:00       83.297     -311.082      -59.097      112.165      153.454       65.613    12580.988    23548.032     4305.048        7.381        2.022      322.041       64.657        0.040      335.237        5.733      849.655
12/13/2021  10:35:00      159.549     -320.228      -63.098      186.681      159.769       85.963    34849.791    25526.245     7389.616        9.986        3.388      357.774       81.435        0.052      335.199        5.671      849.636
12/13/2021  10:36:00        5.145     -228.437      -56.581      130.386      176.871       93.648    17000.495    31283.188     8769.996        5.622        2.853      228.495       62.818        0.076      335.361        5.941      849.721
12/13/2021  10:37:00       76.408     -191.569      -43.479      102.401       78.625       62.032    10485.956     6181.864     3847.993        3.247        1.026      206.245       44.522        0.047      335.400        6.007      849.776
12/13/2021  10:38:00       96.199     -226.793      -39.332      126.281      141.227       79.046    15946.902    19945.195     6248.298        5.218        2.107      246.352       73.109        0.088      335.414        6.030      849.574
12/13/2021  10:39:00      117.459     -244.392      -55.890      145.807      130.002       75.089    21259.582    16900.491     5638.343        6.022        2.190      271.153       57.843        0.046      335.279        5.805      849.497
12/13/2021  10:40:00       50.288     -205.308      -40.695       91.718      129.570       60.236     8412.235    16788.337     3628.431        3.758        1.441      211.377       51.058        0.058      335.375        5.963      849.477
12/13/2021  10:41:00       17.896      -69.993      -18.994      103.328      106.396       63.866    10676.639    11320.101     4078.886        1.582        1.304       72.244       65.919        0.833      335.611        6.359      849.633
12/13/2021  10:42:00      -30.108     -216.446      -39.449      128.772      135.851       72.925    16582.172    18455.596     5318.117        4.483        2.018      218.530       44.120        0.041      335.435        6.066      849.655
12/13/2021  10:43:00      -53.654      -40.723      -15.067       61.067       71.025       46.255     3729.233     5044.576     2139.537        0.784        0.546       67.358       33.813        0.252      335.494        6.166      849.479
12/13/2021  10:44:00       52.813     -104.402      -44.678       86.693       94.623       45.891     7515.608     8953.566     2106.004        1.713        0.929      117.000       42.274        0.131      335.622        6.377      849.498
12/13/2021  10:45:00      -19.338     -121.869      -33.926      164.405      155.983       84.824    27029.167    24330.788     7195.125        3.746        2.928      123.393       54.059        0.192      335.714        6.530      849.470
12/13/2021  10:46:00       24.732      -25.329      -17.930       64.561       71.309       41.624     4168.159     5085.018     1732.524        0.628        0.549       35.401       35.658        1.015      335.769        6.624      849.353
12/13/2021  10:47:00        8.080      -95.384      -27.993      116.467       92.847       53.606    13564.466     8620.479     2873.612        1.750        1.253       95.726       45.154        0.223      335.586        6.320      849.362
12/13/2021  10:48:00      -65.689       -8.186      -17.199       79.634       62.267       32.726     6341.501     3877.119     1070.992        0.798        0.564       66.197       24.306        0.135      335.523        6.212      849.398
12/13/2021  10:49:00      -23.062       56.664      -26.428      101.905       98.057       52.940    10384.532     9615.203     2802.632        1.362        1.140       61.178       35.130        0.330      335.759        6.606      849.276
12/13/2021  10:50:00      -16.393      -48.694      -27.315       55.455       77.531       42.070     3075.270     6010.994     1769.895        0.712        0.543       51.380       38.783        0.570      335.819        6.707      849.264
12/13/2021  10:51:00        7.392     -113.208      -47.260       76.210       87.408       58.046     5808.021     7640.084     3369.341        1.596        0.841      113.449       44.641        0.155      335.916        6.867      849.228
12/13/2021  10:52:00      107.269     -361.792      -71.996      149.845      182.435       78.072    22453.377    33282.630     6095.228       10.470        3.092      377.359       93.148        0.061      335.525        6.215      849.069
12/13/2021  10:53:00        7.219     -121.035      -17.307       88.605      104.987       57.915     7850.891    11022.288     3354.194        1.861        1.111      121.250       47.189        0.151      335.817        6.702      849.086
12/13/2021  10:54:00      -16.188      -35.106      -30.084      104.608      134.850       58.917    10942.748    18184.547     3471.162        1.749        1.630       38.658       51.928        1.804      335.995        6.999      849.004
12/13/2021  10:55:00       -0.011     -136.323      -38.751       93.278       77.246       50.490     8700.757     5966.949     2549.283        1.865        0.861      136.323       46.191        0.115      335.968        6.951      848.888
12/13/2021  10:56:00      123.634     -303.622      -44.115      148.312      141.664       87.845    21996.550    20068.681     7716.736        7.959        2.489      327.829       73.598        0.050      335.719        6.537      848.743
12/13/2021  10:57:00      104.889     -307.143      -77.560      121.205      147.822       70.795    14690.594    21851.306     5011.901        7.645        2.078      324.559       45.909        0.020      335.886        6.815      848.872
12/13/2021  10:58:00       61.241      -75.758      -27.634      135.836      109.226       69.686    18451.495    11930.239     4856.183        2.274        1.762       97.415       66.291        0.463      336.092        7.159      848.846
12/13/2021  10:59:00      -35.319     -223.716      -59.825      168.664      167.716       82.208    28447.520    28128.611     6758.186        5.909        3.167      226.487       52.592        0.054      336.059        7.104      848.928
12/13/2021  11:00:00      -91.349     -212.161      -48.626      175.112      100.421       70.160    30664.258    10084.311     4922.484        5.069        2.284      230.991       44.176        0.037      336.047        7.084      848.965
12/13/2021  11:01:00      -16.636     -219.394      -61.641      130.141      160.010       92.001    16936.680    25603.316     8464.132        5.160        2.550      220.023       62.456        0.081      336.076        7.131      848.912
12/13/2021  11:02:00      -20.923      -63.174      -32.521       87.763      133.719       67.801     7702.256    17880.786     4596.929        1.783        1.509       66.548       58.518        0.773      336.115        7.198      849.094
12/13/2021  11:03:00      -72.567     -266.288      -43.149      139.117      137.899       73.302    19353.412    19016.226     5373.120        6.088        2.187      275.999       46.123        0.028      336.142        7.243      849.166
12/13/2021  11:04:00       11.382     -106.400      -15.982       96.716      136.937       77.647     9353.945    18751.851     6029.061        2.291        1.707      107.007       53.203        0.247      336.179        7.304      849.186
12/13/2021  11:05:00      -42.270      -13.528      -12.586       96.479       98.844       48.936     9308.193     9770.143     2394.690        1.180        1.074       44.382       31.548        0.505      336.305        7.516      849.119
12/13/2021  11:06:00       73.926     -169.247      -35.772      114.425      121.166       64.495    13093.127    14681.275     4159.566        3.366        1.597      184.688       54.632        0.088      336.224        7.381      849.158
12/13/2021  11:07:00       97.922     -197.482      -43.058      106.011      102.033       51.854    11238.398    10410.652     2688.792        3.739        1.217      220.427       50.083        0.052      336.150        7.255      849.068
12/13/2021  11:08:00       94.749      -95.290      -27.774      136.980      101.352       55.031    18763.592    10272.326     3028.362        2.544        1.603      134.379       60.206        0.201      336.218        7.370      848.812
12/13/2021  11:09:00      211.451     -372.395      -91.528      101.670      161.287       77.546    10336.697    26013.421     6013.394       11.706        2.118      428.240       31.147        0.005      336.029        7.053      848.813
12/13/2021  11:10:00       64.896     -252.488      -46.251      100.235      100.896       56.221    10046.967    10179.985     3160.839        4.674        1.169      260.695       49.952        0.037      336.229        7.388      849.049
12/13/2021  11:11:00       94.677     -154.007      -46.966      112.242      141.505       51.750    12598.262    20023.592     2678.043        3.509        1.765      180.782       52.243        0.084      336.442        7.745      849.214
12/13/2021  11:12:00      163.180     -307.122      -78.825      186.125      161.457       73.606    34642.428    26068.492     5417.780        9.663        3.306      347.781       78.393        0.051      336.299        7.505      849.252
12/13/2021  11:13:00      151.938     -332.063      -61.918      103.692      151.540       67.160    10752.032    22964.376     4510.411        8.770        1.911      365.173       49.008        0.018      336.253        7.427      849.287
12/13/2021  11:14:00      128.444     -278.329      -53.161      130.189      183.388       79.339    16949.220    33631.006     6294.705        7.682        2.844      306.537       61.052        0.040      336.312        7.526      849.284
12/13/2021  11:15:00       67.967     -316.108      -56.428       88.382      162.609       78.599     7811.405    26441.530     6177.726        7.407        2.022      323.332       54.692        0.029      336.361        7.607      849.281
12/13/2021  11:16:00      -48.970     -286.175      -40.473      197.859      184.809       89.715    39148.298    34154.263     8048.746        8.363        4.068      290.335       68.065        0.055      336.376        7.633      849.314
12/13/2021  11:17:00      -45.051     -241.188      -42.594      232.608      207.470      119.311    54106.704    43043.949    14235.041        8.668        5.569      245.360       76.875        0.098      336.304        7.513      849.300
12/13/2021  11:18:00       14.999     -320.953      -88.326      208.506      197.235       89.128    43474.633    38901.590     7943.758       10.066        4.516      321.304       68.292        0.045      336.231        7.390      849.231
12/13/2021  11:19:00       19.472     -384.713      -55.782      195.902      155.098       81.773    38377.582    24055.255     6686.894       11.029        3.456      385.205       76.889        0.040      336.167        7.283      849.224
12/13/2021  11:20:00      -19.356     -236.667      -30.208      132.340      143.241       90.110    17513.963    20518.120     8119.835        5.172        2.308      237.457       70.451        0.088      336.282        7.474      849.222
12/13/2021  11:21:00       98.551     -426.216      -81.524      168.738      181.968       89.587    28472.539    33112.213     8025.813       13.380        3.481      437.461       53.425        0.015      336.112        7.192      849.251
12/13/2021  11:22:00       97.775     -296.893      -78.472      138.956      197.175       78.988    19308.898    38877.833     6239.088        8.413        3.221      312.578       54.489        0.030      336.133        7.228      849.283
12/13/2021  11:23:00      -70.860     -266.940      -69.167      212.564      168.041       92.287    45183.595    28237.780     8516.847        8.149        4.097      276.185       49.493        0.032      336.176        7.299      849.199
12/13/2021  11:24:00      -32.477     -194.602      -44.825      134.081       95.453       72.979    17977.618     9111.304     5325.962        3.667        1.621      197.294       51.065        0.067      336.226        7.382      849.111
12/13/2021  11:25:00     -139.652     -325.849      -70.968      197.492      219.303       95.511    39003.279    48093.648     9122.376       11.345        4.811      354.514       79.302        0.050      336.105        7.180      849.082
12/13/2021  11:26:00       -6.491     -272.107      -52.035      183.446      109.013       95.873    33652.268    11883.727     9191.571        6.575        2.736      272.184       76.316        0.079      336.220        7.373      849.095
12/13/2021  11:27:00      -47.104     -331.498      -65.620      163.001      111.858       89.821    26569.182    12512.173     8067.848        8.177        2.357      334.828       47.049        0.020      336.161        7.274      849.152
12/13/2021  11:28:00       51.289     -299.141      -54.714      167.275      153.122       93.192    27981.017    23446.498     8684.842        7.760        3.006      303.506       77.426        0.065      336.207        7.350      849.123
12/13/2021  11:29:00       18.368     -233.939      -44.954      172.732      122.170       76.561    29836.423    14925.448     5861.624        5.385        2.531      234.659       47.757        0.041      336.234        7.395      849.129
12/13/2021  11:30:00      -16.246     -158.498      -41.832      162.420      133.635       68.243    26380.196    17858.374     4657.161        3.801        2.445      159.329       69.229        0.189      336.226        7.383      849.075
12/13/2021  11:31:00      -29.571     -163.219      -23.953       93.709      151.895       59.446     8781.293    23072.192     3533.769        3.173        1.769      165.876       47.891        0.083      336.305        7.516      849.059
12/13/2021  11:32:00      147.814     -277.431      -76.177      176.564      191.634       96.748    31174.790    36723.535     9360.157        9.093        3.863      314.352       87.376        0.077      336.134        7.227      848.996
12/13/2021  11:33:00      136.586     -357.695      -66.622      125.145      204.181       90.973    15661.278    41689.864     8276.087       10.832        3.281      382.886       83.104        0.047      336.143        7.243      848.946
12/13/2021  11:34:00      -12.693      -92.826       -4.986      110.838      118.190       70.678    12285.023    13968.828     4995.396        2.002        1.562       93.690       52.942        0.319      336.312        7.528      848.978
12/13/2021  11:35:00     -115.670      -40.469      -24.491       68.754       50.123       44.298     4727.110     2512.270     1962.331        1.241        0.460      122.545       33.732        0.076      336.399        7.676      848.999
12/13/2021  11:36:00       72.187      -72.921      -29.937       75.124       83.885       41.320     5643.653     7036.721     1707.313        1.290        0.719      102.609       37.744        0.135      336.424        7.716      848.933
12/13/2021  11:37:00     -116.230     -146.355      -30.947      136.459      138.829       59.172    18621.190    19273.505     3501.308        3.863        2.070      186.893       22.241        0.014      336.376        7.634      848.810
12/13/2021  11:38:00      -86.728     -216.709      -31.275      164.116      201.682       79.732    26933.923    40675.679     6357.254        6.470        3.698      233.419       87.962        0.142      336.422        7.710      848.815
12/13/2021  11:39:00      -76.754     -114.346      -37.168      133.138      134.098       59.936    17725.827    17982.245     3592.278        2.982        1.965      137.718       56.921        0.171      336.550        7.926      848.812
12/13/2021  11:40:00     -117.680     -246.818      -34.743      187.998      116.330       76.744    35343.286    13532.596     5889.589        6.536        2.738      273.437       24.130        0.008      336.374        7.628      848.841
12/13/2021  11:41:00       19.230     -115.683      -27.131       87.118      127.082       77.455     7589.618    16149.925     5999.277        2.211        1.487      117.270       67.632        0.333      336.494        7.832      848.844
12/13/2021  11:42:00       31.962     -258.246      -62.267      175.569      138.362       85.167    30824.416    19144.172     7253.346        6.440        2.861      260.216       80.745        0.096      336.403        7.678      848.877
12/13/2021  11:43:00     -110.622     -223.572      -57.096      263.059      234.357       90.847    69199.811    54923.217     8253.171        9.890        6.619      249.443       76.933        0.095      336.351        7.592      848.954
12/13/2021  11:44:00        5.849     -383.032      -78.111      190.205      177.850       98.002    36177.956    31630.628     9604.392       11.512        3.871      383.077       64.950        0.029      336.106        7.183      849.007
12/13/2021  11:45:00       53.133     -258.050      -80.352      216.797      146.865       91.699    47000.748    21569.397     8408.692        7.641        3.849      263.464       45.598        0.030      336.167        7.283      848.993
12/13/2021  11:46:00     -202.571     -447.603      -73.047      237.225      153.859      114.002    56275.526    23672.731    12996.461       16.981        4.647      491.308       62.036        0.016      336.045        7.081      848.912
12/13/2021  11:47:00       26.412     -371.590      -89.710      213.127      178.060      115.162    45423.313    31705.192    13262.174       11.859        4.520      372.527       66.812        0.032      336.093        7.159      848.956
12/13/2021  11:48:00       51.384     -331.220      -36.043      136.725      205.686       93.198    18693.735    42306.579     8685.907        9.165        3.484      335.182       93.192        0.077      336.036        7.065      848.956
12/13/2021  11:49:00       23.269     -327.054      -52.487      158.054      228.147       87.187    24981.118    52050.965     7601.556        9.743        4.232      327.881       75.309        0.053      336.008        7.018      848.993
12/13/2021  11:50:00       57.986     -416.561      -58.193      188.020      293.866      106.126    35351.355    86356.999    11262.750       15.660        6.649      420.577      120.768        0.082      335.988        6.986      849.101
12/13/2021  11:51:00      -19.227     -205.622      -41.207      144.009      183.720       87.843    20738.704    33752.960     7716.342        5.327        3.110      206.519       63.322        0.094      336.065        7.115      849.134
12/13/2021  11:52:00      -93.610     -191.385      -49.435      170.502      174.717       71.757    29070.835    30525.946     5149.045        5.628        3.237      213.051       67.445        0.100      336.044        7.079      849.148
12/13/2021  11:53:00      -15.851     -308.295      -56.671      196.512      197.267       86.954    38616.807    38914.368     7561.013        9.178        4.255      308.702       76.690        0.062      336.095        7.162      849.181
12/13/2021  11:54:00       70.242     -195.916      -74.751      204.339      183.354       70.419    41754.377    33618.827     4958.847        6.460        4.017      208.127       56.367        0.073      336.089        7.154      849.236
12/13/2021  11:55:00       31.217     -300.876      -44.269      137.660      225.007       96.973    18950.367    50627.990     9403.803        8.621        3.949      302.491       90.164        0.089      336.068        7.117      849.294
12/13/2021  11:56:00       -1.118     -213.910      -40.584      186.869      161.958       67.800    34920.014    26230.329     4596.861        5.656        3.287      213.913       60.487        0.080      336.039        7.070      849.274
12/13/2021  11:57:00       36.018     -257.614      -51.054      125.717      135.422       68.373    15804.675    18339.142     4674.910        5.454        1.941      260.120       45.920        0.031      336.051        7.089      849.325
12/13/2021  11:58:00       55.872     -373.684      -70.102      196.180      214.457      110.504    38486.565    45991.776    12211.147       12.216        4.834      377.837       74.533        0.039      335.960        6.940      849.352
12/13/2021  11:59:00      114.474     -371.475      -66.444      151.581      211.683       95.377    22976.711    44809.777     9096.831       11.618        3.844      388.713       99.668        0.066      335.899        6.836      849.266
12/13/2021  12:00:00      149.887     -429.932      -97.564      214.523      186.151      113.311    46020.152    34652.280    12839.431       15.515        4.676      455.310       78.962        0.030      335.781        6.642      849.185
12/13/2021  12:01:00      -46.681      -71.087      -60.854      139.982      160.278      109.187    19594.859    25689.069    11921.703        3.406        2.860       85.044      109.985        1.673      335.864        6.782      849.346
12/13/2021  12:02:00      -19.388     -243.091      -44.647      194.278      210.447       94.843    37744.097    44287.801     8995.186        7.623        4.551      243.863       64.274        0.069      335.768        6.619      849.294
12/13/2021  12:03:00      -10.393     -307.964      -55.477      230.755      210.612       96.477    53247.761    44357.419     9307.780       10.245        5.346      308.140       80.160        0.068      335.716        6.531      849.227
12/13/2021  12:04:00       65.154     -487.820      -56.403      174.069      230.982      101.305    30300.081    53352.763    10262.795       16.964        4.696      492.151       88.605        0.032      335.598        6.335      849.201
12/13/2021  12:05:00      100.138     -202.707      -71.242      158.952      212.224       73.654    25265.844    45039.217     5424.928        6.595        3.786      226.092       70.831        0.098      335.651        6.422      849.205
12/13/2021  12:06:00       48.001     -381.365      -77.016      216.163      200.858      106.579    46726.401    40344.122    11359.180       12.603        4.921      384.374      100.273        0.068      335.585        6.314      849.188
12/13/2021  12:07:00       38.444     -120.060      -42.032      129.242      174.362       91.029    16703.423    30402.275     8286.366        3.652        2.770      126.065       78.813        0.391      335.698        6.503      849.134
12/13/2021  12:08:00       46.282     -145.466      -27.186      147.444      106.498       71.076    21739.602    11341.905     5051.861        3.108        1.907      152.651       68.028        0.199      335.699        6.504      849.053
12/13/2021  12:09:00      -83.519      -57.713      -31.765       77.376       79.478       47.396     5987.001     6316.684     2246.385        1.293        0.728      101.520       34.686        0.117      335.692        6.493      849.093
12/13/2021  12:10:00       65.878     -181.556      -59.905      161.895      131.652       66.783    26209.854    17332.169     4459.953        4.444        2.400      193.139       55.801        0.083      335.710        6.522      849.081
12/13/2021  12:11:00       75.926     -410.372      -85.703      190.028      352.717      105.492    36110.618   124409.609    11128.605       17.655        8.582      417.337      103.348        0.061      335.507        6.182      849.051
12/13/2021  12:12:00      -72.531     -132.884      -48.674      186.606      144.637       92.006    34821.768    20919.797     8465.189        4.474        3.210      151.390       46.298        0.094      335.535        6.229      849.076
12/13/2021  12:13:00       32.171     -134.843      -29.824       95.813      110.471       52.833     9180.085    12203.819     2791.329        2.214        1.209      138.628       26.038        0.035      335.659        6.438      849.024
12/13/2021  12:14:00      -30.033     -190.938      -52.770      162.309      143.427       74.956    26344.215    20571.436     5618.372        4.633        2.627      193.286       31.597        0.027      335.620        6.370      848.999
12/13/2021  12:15:00      -96.726     -282.349      -26.813      195.027      248.792       96.831    38035.615    61897.400     9376.176        9.953        5.465      298.457      106.542        0.127      335.617        6.366      848.966
12/13/2021  12:16:00     -110.672     -294.558      -81.881      308.259      188.014       87.366    95023.812    35349.119     7632.839       12.184        6.900      314.663       37.089        0.014      335.585        6.314      848.975
12/13/2021  12:17:00       26.632     -186.066      -48.820      140.315      235.659       92.099    19688.227    55534.981     8482.226        6.069        4.185      187.962      104.034        0.306      335.603        6.343      848.882
12/13/2021  12:18:00      101.556     -304.374      -72.405      141.817      172.010      113.518    20112.160    29587.405    12886.414        8.538        3.129      320.870       76.775        0.057      335.671        6.458      848.827
12/13/2021  12:19:00      -21.404     -325.291      -78.178      214.321      245.368       93.404    45933.568    60205.292     8724.224       11.360        5.743      325.994       74.291        0.052      335.705        6.514      848.712
12/13/2021  12:20:00     -170.881     -251.685      -45.665      132.431      190.016       89.245    17537.879    36106.227     7964.669        7.811        3.080      304.213       65.045        0.046      335.834        6.730      848.683
12/13/2021  12:21:00      -17.803     -218.515      -63.757      167.291      140.382       85.105    27986.145    19707.038     7242.808        5.352        2.747      219.239       50.836        0.054      335.916        6.865      848.706
12/13/2021  12:22:00     -103.521     -121.313      -44.859      160.506      124.108       83.771    25762.022    15402.805     7017.543        3.781        2.409      159.478       48.831        0.094      335.983        6.978      848.649
12/13/2021  12:23:00      -50.713     -203.544      -46.208      149.318      142.221       80.238    22295.736    20226.911     6438.060        4.754        2.448      209.767       57.580        0.075      336.019        7.037      848.602
12/13/2021  12:24:00      -57.003      -97.077      -38.646      104.446      101.838       53.600    10908.926    10371.018     2872.930        1.916        1.208      112.576       29.192        0.067      336.142        7.243      848.592
12/13/2021  12:25:00      -82.144     -158.917      -39.908      118.988      108.258       79.659    14158.202    11719.720     6345.582        3.290        1.611      178.892       39.862        0.050      336.172        7.292      848.492
12/13/2021  12:26:00     -114.808      -98.112      -30.164      128.757      112.778       73.508    16578.391    12718.776     5403.424        2.920        1.735      151.019       44.179        0.086      336.248        7.420      848.418
12/13/2021  12:27:00      -76.351      -93.876      -28.347       71.605       74.301       55.845     5127.211     5520.644     3118.658        1.460        0.688      121.004       28.938        0.057      336.265        7.449      848.416
12/13/2021  12:28:00      -41.586     -128.039      -30.339       98.919       79.234       57.797     9784.984     6278.074     3340.456        1.922        0.970      134.623       44.473        0.109      336.354        7.599      848.328
12/13/2021  12:29:00      -85.633     -196.841      -40.073      121.783       86.694       55.795    14831.085     7515.890     3113.115        3.657        1.273      214.661       35.975        0.028      336.410        7.688      848.244
12/13/2021  12:30:00      -59.420     -202.522      -36.811      166.924      163.572       66.038    27863.720    26755.962     4360.992        5.243        2.949      211.059       36.378        0.030      336.307        7.517      848.219
12/13/2021  12:31:00      -19.335     -243.107      -48.303      158.028      135.521       74.717    24972.933    18366.045     5582.683        5.536        2.446      243.874       68.611        0.079      336.355        7.599      848.100
12/13/2021  12:32:00      -48.775     -201.862      -21.805      117.277      159.878       77.723    13753.788    25560.828     6040.890        4.447        2.268      207.671       90.083        0.188      336.423        7.714      848.005
12/13/2021  12:33:00      -82.157      -45.053      -23.702       79.454      104.439       62.666     6313.007    10907.595     3926.995        1.524        1.057       93.699       36.833        0.155      336.415        7.700      848.046
12/13/2021  12:34:00      -54.032     -144.389      -25.354      112.164      108.515       58.998    12580.674    11775.609     3480.814        2.612        1.392      154.168       34.995        0.052      336.540        7.908      848.024
12/13/2021  12:35:00       15.912      -37.038       -0.840       84.404       82.121       58.253     7124.010     6743.899     3393.411        0.944        0.863       40.311       52.531        1.698      336.767        8.289      848.047
12/13/2021  12:36:00        5.946      -82.187       -6.283       96.763      105.623       58.879     9363.033    11156.309     3466.726        1.540        1.199       82.402       56.601        0.472      336.842        8.414      847.999
12/13/2021  12:37:00      -88.674     -331.363      -54.427      175.111      162.513       76.525    30663.789    26410.496     5856.112        9.177        3.147      343.023       81.207        0.056      336.752        8.261      848.087
12/13/2021  12:38:00     -107.897     -226.453      -34.499      138.027      108.031       71.807    19051.407    11670.791     5156.243        4.999        1.794      250.844       59.750        0.057      336.849        8.423      848.026
12/13/2021  12:39:00     -108.497      -97.410      -11.873      106.236      105.709       70.294    11286.169    11174.477     4941.218        2.440        1.370      145.810       51.108        0.123      336.960        8.609      848.013
12/13/2021  12:40:00      -31.154     -160.262      -46.009      114.116       93.150       69.295    13022.431     8676.860     4801.823        2.763        1.325      163.262       44.014        0.073      337.037        8.739      848.059
12/13/2021  12:41:00     -123.068       26.230       -3.702      142.911       69.475       53.032    20423.621     4826.718     2812.399        2.195        1.403      125.832       41.414        0.108      337.110        8.861      848.018
12/13/2021  12:42:00     -165.651     -128.171      -33.465      182.392      132.135       67.688    33266.916    17459.652     4581.599        5.014        2.765      209.447       83.031        0.157      337.113        8.867      847.774
12/13/2021  12:43:00      -56.250     -122.307      -31.819      185.929      141.673       82.648    34569.428    20071.303     6830.684        4.029        3.074      134.622       59.770        0.197      337.395        9.337      847.894
12/13/2021  12:44:00     -303.287     -166.704      -36.844      363.053      219.784      116.077   131807.763    48305.187    13473.863       15.732        9.679      346.083      123.773        0.128      337.555        9.605      847.811
12/13/2021  12:45:00     -141.315     -385.091      -67.817      314.782      221.031      115.137    99087.907    48854.853    13256.510       16.700        8.060      410.202       70.496        0.030      337.582        9.649      847.724
12/13/2021  12:46:00       34.314     -368.870     -104.491      232.356      231.968      105.962    53989.367    53809.357    11228.020       13.357        5.951      370.463       36.653        0.010      337.562        9.619      847.736
12/13/2021  12:47:00      -90.284     -274.309      -39.392      146.995      239.920      108.751    21607.547    57561.614    11826.684        8.796        4.550      288.784      108.786        0.142      337.588        9.659      847.815
12/13/2021  12:48:00     -141.164     -120.934      -26.145      239.357      192.630       84.845    57291.663    37106.213     7198.696        6.840        5.080      185.882       70.813        0.145      337.593        9.670      847.760
12/13/2021  12:49:00     -267.423     -299.021      -67.127      352.944      243.372      133.442   124569.121    59230.103    17806.832       18.348       10.080      401.159      127.212        0.101      337.646        9.758      847.755
12/13/2021  12:50:00     -416.938     -151.443      -36.889      242.227      266.611      124.378    58673.963    71081.164    15469.904       17.165        7.261      443.590       98.085        0.049      337.640        9.747      847.711
12/13/2021  12:51:00     -290.840     -315.891      -63.869      321.195      309.277      139.274   103166.078    95652.165    19397.178       20.329       10.911      429.389      116.588        0.074      337.691        9.833      847.787
12/13/2021  12:52:00     -288.655      -87.826      -37.161      229.048      184.383      126.588    52463.051    33996.948    16024.422        9.743        5.124      301.720       50.627        0.028      337.741        9.917      847.756
12/13/2021  12:53:00     -564.130     -170.410      -41.680      328.243      326.530      146.621   107743.765   106621.678    21497.818       29.240       11.793      589.307      139.836        0.056      337.677        9.810      847.597
12/13/2021  12:54:00     -565.830     -220.372      -76.831      283.138      281.796      126.608    80167.341    79408.705    16029.589       27.509        8.780      607.230      127.786        0.044      337.624        9.720      847.654
12/13/2021  12:55:00     -640.543     -205.159      -70.277      371.604      320.634      126.270   138089.900   102805.928    15944.048       35.703       12.842      672.597      130.633        0.038      337.606        9.690      847.718
12/13/2021  12:56:00     -580.354     -185.630      -55.060      294.028      251.632      136.919    86452.710    63318.453    18746.868       27.138        8.426      609.318      126.980        0.043      337.611        9.698      847.820
12/13/2021  12:57:00     -287.790     -137.449      -30.729      223.794      233.650      132.500    50083.846    54592.262    17556.306       11.242        6.112      318.928      112.335        0.124      337.704        9.855      847.783
12/13/2021  12:58:00     -501.194      -79.748      -58.248      282.438      250.654      126.047    79771.352    62827.425    15887.875       20.969        7.924      507.499      136.179        0.072      337.655        9.772      847.786
12/13/2021  12:59:00     -420.046     -168.944      -45.365      259.316      221.312      126.514    67244.561    48978.786    16005.747       16.961        6.611      452.748       69.730        0.024      337.585        9.655      847.742
12/13/2021  13:00:00     -354.209     -103.211      -31.938      239.865      188.746      108.134    57535.171    35624.869    11692.930       12.098        5.243      368.939       83.191        0.051      337.595        9.672      847.739
12/13/2021  13:01:00     -483.932     -152.906      -30.596      302.168      280.799      141.282    91305.497    78847.994    19960.737       22.428        9.506      507.514      123.075        0.059      337.483        9.485      847.752
12/13/2021  13:02:00     -536.743     -294.891      -54.514      223.888      264.724      121.599    50125.734    70078.591    14786.355       25.648        6.750      612.416       97.278        0.025      337.406        9.356      847.777
12/13/2021  13:03:00     -331.168     -175.137      -59.153      179.011      252.732       89.929    32045.025    63873.461     8087.307       12.391        5.200      374.627       74.564        0.040      337.467        9.456      847.810
12/13/2021  13:04:00     -105.363      -91.622      -10.980      156.990      133.683       88.722    24645.706    17871.265     7871.662        3.499        2.519      139.628       78.310        0.315      337.696        9.841      847.942
12/13/2021  13:05:00      139.682     -392.727     -107.494      194.535      216.387      106.588    37843.976    46823.427    11360.935       14.065        4.801      416.827       92.417        0.049      337.440        9.413      847.980
12/13/2021  13:06:00       95.007     -380.616      -97.219      170.428      229.753       94.480    29045.841    52786.324     8926.381       12.704        4.538      392.295       84.556        0.046      336.937        8.572      847.960
12/13/2021  13:07:00      -42.881     -291.190      -59.707      195.474      245.196      113.754    38210.042    60120.932    12940.027       10.071        5.564      294.330       97.726        0.110      336.885        8.483      847.931
12/13/2021  13:08:00      151.721     -445.216      -65.299      172.723      274.974       97.428    29833.179    75610.750     9492.266       17.020        5.747      470.358      108.753        0.053      336.600        8.007      847.907
12/13/2021  13:09:00      116.587     -487.202      -85.995      159.222      292.320      112.881    25351.537    85450.867    12742.106       19.093        6.177      500.957      108.237        0.047      336.256        7.433      847.865
12/13/2021  13:10:00      140.355     -352.209      -83.592      219.892      210.712      122.718    48352.546    44399.367    15059.616       12.926        5.391      379.145       89.147        0.055      336.071        7.124      847.855
12/13/2021  13:11:00      150.598     -467.472      -90.149      229.881      217.620      113.484    52845.173    47358.382    12878.674       18.119        5.654      491.131      101.504        0.043      335.988        6.985      847.819
12/13/2021  13:12:00      105.032     -327.587      -60.410      130.294      207.447       89.230    16976.550    43034.118     7961.995        9.497        3.399      344.013       84.399        0.060      336.011        7.024      847.863
12/13/2021  13:13:00      -32.161     -306.910      -62.278      208.789      179.564       92.465    43592.771    32243.137     8549.706        9.173        4.219      308.591       72.843        0.056      335.807        6.684      847.852
12/13/2021  13:14:00       61.409     -249.408      -45.806      196.701      156.928       91.838    38691.112    24626.385     8434.214        6.990        3.588      256.857       72.638        0.080      335.891        6.824      847.870
12/13/2021  13:15:00      146.289     -342.341      -43.656      149.732      206.358      107.688    22419.736    42583.582    11596.624       10.854        3.830      372.288       93.911        0.064      335.705        6.514      847.854
12/13/2021  13:16:00       62.334     -215.326      -47.799      122.253      187.366       81.062    14945.901    35105.907     6571.032        5.457        2.831      224.166       69.453        0.096      335.781        6.642      847.793
12/13/2021  13:17:00       53.309     -321.880      -49.516      180.265      185.700       88.797    32495.556    34484.422     7884.929        9.187        3.743      326.265       65.769        0.041      335.762        6.608      847.771
12/13/2021  13:18:00      -25.131     -264.112      -29.655      194.748      149.238       79.582    37926.897    22271.944     6333.317        6.889        3.327      265.305       65.885        0.062      335.761        6.606      847.722
12/13/2021  13:19:00      122.666     -325.593      -68.590      174.959      197.064       81.793    30610.672    38834.050     6690.158       10.093        3.807      347.934       50.179        0.021      335.719        6.538      847.757
12/13/2021  13:20:00       60.002     -237.336      -46.073      123.108      102.343       65.204    15155.487    10474.125     4251.592        4.596        1.494      244.804       52.136        0.045      335.800        6.672      847.747
12/13/2021  13:21:00       19.006     -244.656      -66.184      178.203      165.777       82.922    31756.182    27481.850     6875.986        6.534        3.306      245.393       72.123        0.086      335.797        6.668      847.837
12/13/2021  13:22:00      139.285     -226.927      -52.360      126.908      150.058       77.154    16105.675    22517.356     5952.758        5.910        2.229      266.263       61.265        0.053      335.747        6.583      847.639
12/13/2021  13:23:00      121.935     -292.473      -64.015      120.397      123.380       89.797    14495.442    15222.735     8063.555        7.114        1.889      316.874       58.317        0.034      335.704        6.512      847.519
12/13/2021  13:24:00      128.374     -205.929      -77.023      126.237      146.631       69.672    15935.749    21500.754     4854.172        5.355        2.115      242.666       38.183        0.025      335.764        6.613      847.656
12/13/2021  13:25:00     -101.962      -56.733      -14.600      145.559      126.832       63.068    21187.348    16086.366     3977.591        2.753        2.063      116.683       49.400        0.179      335.924        6.880      847.697
12/13/2021  13:26:00      100.450     -442.514      -65.207      156.879      230.321      103.597    24610.981    53047.777    10732.313       14.926        4.420      453.772       82.462        0.033      335.839        6.738      847.697
12/13/2021  13:27:00       67.178      -66.972      -67.907      140.363      155.947       86.262    19701.756    24319.582     7441.179        3.253        2.573       94.859       82.537        0.757      335.953        6.929      847.541
12/13/2021  13:28:00     -493.528     -253.376      -58.957      332.190      253.555      136.793   110350.394    64289.975    18712.237       25.226        9.668      554.769      153.385        0.076      336.127        7.218      847.640
12/13/2021  13:29:00      -69.174     -189.482      -65.718      153.675      140.858      106.678    23615.922    19841.081    11380.115        4.991        2.742      201.714       69.625        0.119      336.192        7.327      847.805
12/13/2021  13:30:00        5.122     -192.594      -43.512      202.695      165.215       83.945    41085.193    27296.128     7046.806        5.721        3.771      192.662       70.721        0.135      336.065        7.113      847.751
12/13/2021  13:31:00       28.664     -284.744      -55.508      162.323      114.976       84.948    26348.916    13219.476     7216.128        6.587        2.339      286.184       78.811        0.076      336.053        7.093      847.686
12/13/2021  13:32:00      -64.893     -246.377      -60.721      165.952      182.464       89.393    27539.994    33292.957     7991.114        6.870        3.441      254.780       25.563        0.010      336.142        7.243      847.761
12/13/2021  13:33:00      -97.405      -50.258      -26.646       87.387      104.538       59.811     7636.540    10928.109     3577.323        1.743        1.107      109.606       43.078        0.154      336.197        7.334      847.699
12/13/2021  13:34:00     -129.888     -312.846      -57.310      202.296      239.885       92.182    40923.793    57544.607     8497.571       11.248        5.348      338.738      102.210        0.091      336.267        7.449      847.755
12/13/2021  13:35:00       66.026     -226.736      -60.592      146.212      125.388       73.865    21377.844    15722.052     5455.991        5.099        2.128      236.154       58.225        0.061      336.300        7.507      847.843
12/13/2021  13:36:00       31.153     -297.929      -53.529      126.491      191.826       78.336    16000.012    36797.153     6136.576        7.575        2.947      299.553       74.869        0.062      336.355        7.598      847.929
12/13/2021  13:37:00      133.968     -492.784      -94.918      169.248      232.532      122.692    28644.913    54071.318    15053.387       18.376        4.888      510.670       71.515        0.020      336.132        7.224      847.865
12/13/2021  13:38:00      146.470     -562.412     -114.523      165.527      257.985      108.858    27399.256    66556.375    11850.056       22.832        5.290      581.172      105.750        0.033      335.975        6.963      847.831
12/13/2021  13:39:00      119.609     -445.686      -69.984      164.462      202.302      115.765    27047.770    40926.181    13401.579       14.959        4.069      461.457       90.107        0.038      335.932        6.891      847.834
12/13/2021  13:40:00      115.821     -369.812      -49.750      142.537      158.884       83.115    20316.774    25244.037     6908.145       10.255        2.623      387.524       78.550        0.041      335.966        6.947      847.870
12/13/2021  13:41:00     -127.997     -460.227      -73.709      245.447      231.449      127.569    60244.220    53568.706    16273.783       18.183        6.504      477.694      100.426        0.044      335.782        6.643      847.899
12/13/2021  13:42:00      -86.361     -291.313      -28.798      172.128      163.433       86.897    29628.119    26710.303     7551.084        7.851        3.194      303.844       72.650        0.057      335.783        6.645      847.879
12/13/2021  13:43:00      183.883     -361.039      -80.087      145.750      223.369       87.785    21243.068    49893.664     7706.200       12.469        3.942      405.169       71.004        0.031      335.678        6.469      847.849
12/13/2021  13:44:00      134.717     -309.616      -80.826      189.866      247.029       90.671    36048.996    61023.242     8221.289       11.290        5.265      337.655       81.604        0.058      335.650        6.422      847.826
12/13/2021  13:45:00      256.323     -504.550      -94.646      193.210      179.090       99.895    37330.183    32073.225     9979.032       20.429        3.969      565.926       94.625        0.028      335.430        6.055      847.794
12/13/2021  13:46:00       82.507     -358.103      -76.820      141.240      181.163       81.963    19948.737    32820.051     6717.988       10.021        2.974      367.485       67.138        0.033      335.488        6.152      847.850
12/13/2021  13:47:00      146.390     -234.118      -52.024      171.168      152.768       95.116    29298.514    23337.994     9047.124        7.030        3.084      276.118       87.356        0.100      335.424        6.046      847.715
12/13/2021  13:48:00       -9.495     -117.587      -55.423      203.686      182.625       99.490    41488.006    33351.877     9898.333        5.085        4.237      117.970      124.721        1.118      335.447        6.084      847.684
12/13/2021  13:49:00       28.670     -173.042      -48.270      183.653      102.435       62.864    33728.606    10492.852     3951.823        4.063        2.409      175.401       39.231        0.050      335.481        6.141      847.819
12/13/2021  13:50:00      -20.770     -121.174      -35.113       72.268       86.838       42.400     5222.731     7540.790     1797.788        1.545        0.728      122.941       37.312        0.092      335.548        6.254      847.909
12/13/2021  13:51:00       19.625     -124.996      -31.624       83.465      102.924       42.232     6966.485    10593.336     1783.568        1.817        0.967      126.528       32.756        0.067      335.511        6.195      847.950
12/13/2021  13:52:00       -5.366      -79.617      -29.890       78.726       95.037       50.888     6197.813     9032.059     2589.606        1.254        0.891       79.797       26.848        0.113      335.520        6.208      847.915
12/13/2021  13:53:00       -4.086      -95.242      -40.730      140.709      100.097       49.658    19799.062    10019.482     2465.874        2.151        1.614       95.330       29.800        0.098      335.452        6.094      847.891
12/13/2021  13:54:00      -67.117     -147.980      -15.128      111.386       66.740       45.906    12406.944     4454.196     2107.399        2.280        0.948      162.490       31.610        0.038      335.375        5.966      847.909
12/13/2021  13:55:00      -44.929     -166.945      -29.802      108.275       91.563       48.160    11723.577     8383.739     2319.346        2.660        1.121      172.885       50.796        0.086      335.474        6.130      847.943
12/13/2021  13:56:00        3.218     -144.435      -50.366      107.910      117.277       68.853    11644.610    13753.794     4740.693        2.677        1.507      144.471       58.724        0.165      335.367        5.953      847.989
12/13/2021  13:57:00       15.212     -217.305      -54.639      112.784      101.946       55.631    12720.235    10393.065     3094.818        3.832        1.310      217.837       39.242        0.032      335.331        5.891      847.970
12/13/2021  13:58:00       31.999     -127.383      -31.021       86.497       84.971       42.794     7481.799     7220.087     1831.350        1.737        0.827      131.341       38.846        0.087      335.379        5.973      847.963
12/13/2021  13:59:00      115.780     -162.198      -48.388       90.228      171.258       60.018     8141.054    29329.196     3602.207        4.156        2.054      199.281       56.478        0.080      335.221        5.710      847.955
12/13/2021  14:00:00       73.488     -278.569      -34.516      110.647      141.448       71.053    12242.718    20007.502     5048.512        6.074        1.865      288.100       72.916        0.064      335.279        5.805      847.936
12/13/2021  14:01:00      131.983     -251.257      -58.308      125.594      141.398       71.488    15773.978    19993.453     5110.577        6.241        2.044      283.813       78.219        0.076      335.225        5.716      847.920
12/13/2021  14:02:00       39.978     -157.551      -20.535       82.447      114.739       54.176     6797.533    13164.928     2934.994        2.487        1.145      162.544       56.185        0.119      335.322        5.878      847.983
12/13/2021  14:03:00       86.168      -94.404      -36.203       97.689       87.033       42.544     9543.120     7574.682     1809.979        1.828        0.946      127.816       30.781        0.058      335.304        5.846      847.992
12/13/2021  14:04:00       75.149     -132.606      -36.518       70.985       93.201       42.676     5038.834     8686.489     1821.246        2.005        0.777      152.420       25.484        0.028      335.342        5.911      848.001
12/13/2021  14:05:00       91.604     -238.683      -40.494       81.940       95.671       53.606     6714.235     9152.892     2873.589        4.287        0.937      255.658       49.142        0.037      335.246        5.749      847.990
12/13/2021  14:06:00       91.956     -217.241      -30.139       80.783      132.315       51.736     6525.818    17507.324     2676.648        4.163        1.335      235.902       60.766        0.066      335.154        5.598      847.996
12/13/2021  14:07:00      -33.196     -125.852      -20.243      104.408      122.606       62.476    10901.073    15032.351     3903.245        2.359        1.492      130.157       52.516        0.163      335.349        5.924      848.035
12/13/2021  14:08:00       -2.715     -118.184      -32.949       88.980       74.086       39.504     7917.357     5488.776     1560.565        1.501        0.748      118.215       31.649        0.072      335.415        6.033      848.059
12/13/2021  14:09:00       77.617      -71.809      -43.926      125.258      141.951       86.038    15689.531    20149.971     7402.476        2.817        2.162      105.740       44.801        0.180      335.215        5.699      848.052
12/13/2021  14:10:00      163.255     -351.358      -74.984      112.913      109.826       66.223    12749.352    12061.693     4385.482        9.246        1.460      387.433       60.829        0.025      335.131        5.560      848.082
12/13/2021  14:11:00      107.240     -386.551      -51.323       98.364      182.074       66.652     9675.442    33151.033     4442.553       10.540        2.363      401.151       66.354        0.027      335.094        5.497      848.152
12/13/2021  14:12:00      106.222     -231.805      -60.903      112.053      140.402       51.999    12555.811    19712.716     2703.877        5.184        1.749      254.984       48.673        0.036      335.099        5.507      848.235
12/13/2021  14:13:00       41.385     -169.050      -59.391      132.754      107.099       51.912    17623.520    11470.301     2694.892        3.280        1.589      174.042       39.150        0.051      335.214        5.697      848.262
12/13/2021  14:14:00      -46.030     -143.799      -47.856      148.875      105.619       40.775    22163.731    11155.441     1662.599        3.003        1.749      150.987       39.234        0.068      335.258        5.769      848.270
12/13/2021  14:15:00       23.625     -145.513      -33.039      108.826      115.663       54.677    11843.108    13377.893     2989.531        2.551        1.411      147.419       45.356        0.095      335.237        5.736      848.230
12/13/2021  14:16:00       97.084     -193.654      -54.140       62.598      118.932       47.982     3918.513    14144.888     2302.270        3.511        1.018      216.627       24.871        0.013      335.185        5.649      848.087
12/13/2021  14:17:00      104.728     -197.694      -47.519       66.165       74.267       44.064     4377.819     5515.530     1941.653        3.207        0.592      223.720       27.721        0.015      335.136        5.567      848.059
12/13/2021  14:18:00      171.707     -261.302      -55.097      108.136      156.829       70.917    11693.449    24595.426     5029.195        7.105        2.066      312.669       85.358        0.075      335.056        5.435      847.976
12/13/2021  14:19:00      187.361     -282.585      -72.150       87.783      104.320       52.925     7705.884    10882.581     2801.070        7.077        1.069      339.055       34.912        0.011      334.983        5.313      847.908
12/13/2021  14:20:00      176.271     -232.125      -70.760       96.221       90.882       51.003     9258.478     8259.571     2601.256        5.504        1.006      291.467       44.068        0.023      335.016        5.368      847.799
12/13/2021  14:21:00       78.900     -290.702      -40.777       52.249       83.057       36.660     2729.988     6898.402     1343.983        5.168        0.549      301.219       30.118        0.010      335.088        5.489      847.777
12/13/2021  14:22:00      142.232     -150.381      -43.024       68.702       65.541       42.278     4719.939     4295.633     1787.431        2.775        0.540      206.989       37.009        0.032      335.254        5.764      847.691
12/13/2021  14:23:00      125.197     -113.878      -47.601       90.743      109.360       73.273     8234.276    11959.557     5368.952        2.823        1.278      169.241       50.217        0.088      335.092        5.495      847.580
12/13/2021  14:24:00       77.404     -206.955      -43.338       82.465       80.178       51.842     6800.458     6428.574     2687.613        3.331        0.796      220.957       52.642        0.057      335.161        5.609      847.590
12/13/2021  14:25:00      122.754     -167.528      -54.851       52.491       73.992       35.798     2755.305     5474.769     1281.499        2.783        0.476      207.688       23.140        0.012      335.139        5.572      847.448
12/13/2021  14:26:00      166.113     -191.438      -34.762       85.941      113.018       61.715     7385.833    12773.168     3808.692        4.470        1.198      253.460       54.806        0.047      335.067        5.453      847.332
12/13/2021  14:27:00      157.926     -238.121      -61.283       62.362       95.075       38.687     3888.990     9039.342     1496.665        4.991        0.721      285.731       33.749        0.014      335.010        5.357      847.283
12/13/2021  14:28:00      152.132     -341.661      -61.928       71.552       89.978       51.866     5119.621     8096.078     2690.124        7.981        0.795      374.000       48.347        0.017      335.006        5.352      847.237
12/13/2021  14:29:00      151.071     -152.084      -47.944       63.086       98.571       45.735     3979.893     9716.176     2091.647        3.202        0.789      214.364       40.364        0.035      335.082        5.475      847.206
12/13/2021  14:30:00      183.585     -326.151      -79.323       65.106       99.598       43.370     4238.824     9919.677     1880.950        8.120        0.802      374.270       36.085        0.009      335.024        5.379      847.143
12/13/2021  14:31:00      178.695     -364.991      -72.951       82.473       95.345       60.049     6801.832     9090.643     3605.938        9.498        0.975      406.387       56.716        0.019      335.027        5.387      847.138
12/13/2021  14:32:00      217.003     -315.777      -85.194      106.356       96.518       71.927    11311.543     9315.665     5173.496        8.993        1.290      383.152       65.269        0.029      334.999        5.339      847.035
12/13/2021  14:33:00      113.866     -187.237      -49.743       87.784      108.533       49.267     7706.100    11779.339     2427.261        3.620        1.096      219.142       39.995        0.033      335.244        5.747      846.992
12/13/2021  14:34:00       69.655     -168.286      -20.285       83.715      114.954       55.458     7008.223    13214.425     3075.645        2.844        1.165      182.132       49.512        0.074      335.235        5.734      846.929
12/13/2021  14:35:00      132.677     -369.611      -47.856       87.700      123.312       57.426     7691.367    15205.832     3297.786        9.135        1.310      392.702       42.507        0.012      335.085        5.483      846.890
12/13/2021  14:36:00      115.866     -234.357      -54.838       99.070      125.046       62.632     9814.947    15636.409     3922.758        5.036        1.469      261.435       51.965        0.040      335.149        5.588      846.901
12/13/2021  14:37:00      247.482     -349.352      -71.333      126.136      128.337       78.827    15910.403    16470.278     6213.635       11.348        1.930      428.129       75.394        0.031      335.114        5.530      846.866
12/13/2021  14:38:00      190.026     -292.380      -73.365       97.373      134.318       56.594     9481.565    18041.370     3202.831        7.885        1.536      348.706       46.080        0.017      335.117        5.536      846.838
12/13/2021  14:39:00       78.867     -167.007      -40.926       91.689      116.596       68.459     8406.814    13594.682     4686.647        3.123        1.334      184.693       48.999        0.070      335.155        5.601      846.941
12/13/2021  14:40:00       -4.242      -71.451      -12.042       65.290       85.075       52.469     4262.820     7237.765     2752.974        0.976        0.713       71.576       38.595        0.291      335.303        5.846      846.998
12/13/2021  14:41:00       89.110     -136.327      -32.140       60.900       83.722       35.948     3708.764     7009.374     1292.239        1.978        0.601      162.867       36.444        0.050      335.281        5.810      846.922
12/13/2021  14:42:00      175.562     -174.279      -44.873       93.714       99.633       56.190     8782.372     9926.689     3157.304        4.253        1.093      247.377       59.808        0.058      335.226        5.716      846.769
12/13/2021  14:43:00       54.010     -164.690      -44.675       75.147      108.640       65.919     5647.134    11802.596     4345.308        2.691        1.090      173.320       39.263        0.051      335.401        6.010      846.678
12/13/2021  14:44:00      -45.803      -31.126      -27.990       82.111       88.239       40.894     6742.142     7786.123     1672.327        1.002        0.810       55.379       30.691        0.307      335.403        6.014      846.785
12/13/2021  14:45:00      -23.398      -15.806      -25.646       85.025       92.269       50.398     7229.281     8513.517     2539.914        0.987        0.914       28.236       16.975        0.361      335.448        6.089      846.912
12/13/2021  14:46:00      -15.674      -39.574      -10.496       58.426       87.151       39.539     3413.554     7595.270     1563.299        0.724        0.629       42.565       32.481        0.582      335.466        6.120      846.971
12/13/2021  14:47:00      -13.828      -44.017      -31.163      123.818       91.597       56.788    15330.883     8389.976     3224.846        1.502        1.347       46.138       47.956        1.080      335.420        6.042      846.980
12/13/2021  14:48:00       46.877     -231.495      -43.876      147.431      159.271       69.611    21735.844    25367.202     4845.665        5.482        2.597      236.193       57.763        0.060      335.258        5.769      846.976
12/13/2021  14:49:00       -7.989     -175.667      -44.320      147.693      122.766       73.013    21813.353    15071.564     5330.880        3.754        2.111      175.848       34.926        0.039      335.235        5.732      846.989
12/13/2021  14:50:00        6.174     -152.932      -44.801      146.546       95.732       62.878    21475.796     9164.659     3953.678        3.001        1.730      153.056       62.292        0.166      335.320        5.872      847.007
12/13/2021  14:51:00       94.350     -328.555      -79.490      184.064      156.804       87.666    33879.622    24587.427     7685.382        9.465        3.308      341.834       67.338        0.039      335.139        5.573      847.090
12/13/2021  14:52:00       -1.607     -340.378      -60.336      206.043      192.854      118.304    42453.581    37192.527    13995.943       10.655        4.682      340.382      105.631        0.096      335.127        5.553      847.121
12/13/2021  14:53:00       13.012     -291.259      -76.566      196.939      148.751       97.267    38785.119    22126.995     9460.794        8.061        3.519      291.550       75.926        0.068      335.142        5.577      847.092
12/13/2021  14:54:00       94.072     -259.071     -103.805      194.577      199.959       94.649    37860.216    39983.696     8958.495        8.676        4.340      275.622      111.131        0.163      335.110        5.525      847.004
12/13/2021  14:55:00       39.925     -138.738      -34.758      144.656      200.077       75.856    20925.342    40030.933     5754.178        4.437        3.336      144.368       68.670        0.226      335.155        5.600      847.035
12/13/2021  14:56:00       50.346     -316.944      -38.206      126.046      252.709       86.721    15887.658    63862.079     7520.555        9.584        4.364      320.918       89.124        0.077      335.093        5.496      846.958
12/13/2021  14:57:00       40.998     -197.500      -59.343      152.583      130.799       70.644    23281.699    17108.285     4990.586        4.479        2.269      201.711       67.076        0.111      335.147        5.586      846.938
12/13/2021  14:58:00       76.711     -265.919      -65.828      145.726      184.088       93.166    21236.034    33888.327     8679.958        7.236        3.190      276.763       73.134        0.070      335.225        5.714      847.003
12/13/2021  14:59:00      -21.761     -176.164      -47.726      155.435      159.921       84.062    24159.999    25574.757     7066.339        4.528        2.840      177.503       42.035        0.056      335.235        5.730      847.002
12/13/2021  15:00:00      -41.514     -184.815      -37.578      141.732      155.865       71.486    20087.902    24293.801     5110.307        4.338        2.475      189.420       79.424        0.176      335.233        5.728      846.930
12/13/2021  15:01:00       72.317     -210.798      -51.940       95.316      114.758       62.033     9085.195    13169.492     3848.146        3.923        1.305      222.858       41.784        0.035      335.229        5.720      846.953
12/13/2021  15:02:00       72.008     -113.817      -45.738      130.358      131.544       75.198    16993.264    17303.864     5654.686        3.008        1.998      134.682       59.446        0.195      335.142        5.578      846.920
12/13/2021  15:03:00       32.157      -67.226      -27.948      146.393      125.277       84.864    21430.872    15694.403     7201.823        2.532        2.216       74.521       59.285        0.633      335.254        5.763      846.884
12/13/2021  15:04:00       48.930     -302.186      -38.533      183.361      261.669       87.977    33621.163    68470.454     7739.889       10.249        5.492      306.122      120.511        0.155      335.153        5.596      846.865
12/13/2021  15:05:00      133.685     -291.145      -78.258      176.309      128.895       96.067    31084.834    16613.814     9228.867        8.283        2.846      320.370       71.905        0.050      335.128        5.554      846.823
12/13/2021  15:06:00      145.757     -295.453      -59.546      152.351      130.369       63.010    23210.897    16996.083     3970.228        7.812        2.209      329.451       63.387        0.037      335.137        5.569      846.819
12/13/2021  15:07:00       63.449     -231.649      -50.906      171.214      217.276      104.826    29314.356    47208.711    10988.595        7.388        4.376      240.182       86.973        0.131      335.150        5.589      846.786
12/13/2021  15:08:00      120.367     -257.199      -55.638      104.413      170.612       89.363    10902.069    29108.434     7985.668        6.586        2.400      283.971       29.552        0.011      335.133        5.561      846.731
12/13/2021  15:09:00       80.184     -231.109      -60.053      132.760      165.028       84.372    17625.276    27234.137     7118.604        5.770        2.599      244.624       75.956        0.096      335.121        5.543      846.763
12/13/2021  15:10:00      143.632     -386.631     -105.109      171.492      201.369       96.537    29409.380    40549.485     9319.391       13.021        3.964      412.449       96.224        0.054      335.061        5.444      846.775
12/13/2021  15:11:00      154.160     -355.224      -61.441      137.431      169.270       85.887    18887.364    28652.415     7376.546       10.431        2.746      387.233       85.184        0.048      335.063        5.446      846.847
12/13/2021  15:12:00      115.191     -291.137      -44.637      148.239      184.478       88.807    21974.680    34032.219     7886.767        8.195        3.195      313.097       74.797        0.057      335.085        5.483      846.862
12/13/2021  15:13:00       -7.446     -131.979      -44.986       96.239      148.138       78.636     9261.979    21944.724     6183.564        2.844        1.870      132.189       93.775        0.503      335.168        5.622      846.909
12/13/2021  15:14:00      -10.932      -60.326      -16.349       61.114       96.628       56.116     3734.873     9337.002     3149.032        1.012        0.811       61.309       50.731        0.685      335.218        5.705      846.883
12/13/2021  15:15:00      -51.658     -100.899      -29.661       86.765      104.833       63.388     7528.194    10989.973     4018.022        1.813        1.127      113.355       35.034        0.096      335.189        5.656      846.819
12/13/2021  15:16:00       46.276     -111.596      -36.777      104.437       94.815       58.831    10907.078     8989.910     3461.085        1.965        1.168      120.810       56.044        0.215      335.169        5.622      846.826
12/13/2021  15:17:00       48.218     -101.547      -20.878       51.602       57.945       43.082     2662.760     3357.591     1856.075        1.047        0.394      112.414       22.215        0.039      335.191        5.660      846.838
12/13/2021  15:18:00      171.897     -202.553      -39.421      125.824      110.682       75.029    15831.763    12250.554     5629.423        5.291        1.686      265.662       74.635        0.079      335.138        5.570      846.786
12/13/2021  15:19:00      171.952     -289.315      -66.149      180.943      195.545      102.627    32740.198    38237.704    10532.403        9.956        4.076      336.557      110.684        0.108      335.133        5.562      846.730
12/13/2021  15:20:00       53.569     -238.924      -49.466       79.712       71.432       44.155     6354.075     5102.546     1949.634        3.790        0.670      244.856       15.842        0.004      335.320        5.873      846.774
12/13/2021  15:21:00       24.320      -12.720      -31.388       92.232       78.540       62.920     8506.657     6168.594     3958.908        1.018        0.932       27.446       54.807        3.988      335.246        5.752      846.746
12/13/2021  15:22:00       82.318      -76.614      -37.241       96.415      131.938       60.805     9295.924    17407.544     3697.280        2.221        1.520      112.455       68.396        0.370      335.204        5.680      846.689
12/13/2021  15:23:00      120.236     -203.209      -85.706      204.639      167.391       80.492    41876.964    28019.734     6479.014        6.972        3.819      236.116       80.471        0.116      335.166        5.618      846.660
12/13/2021  15:24:00       31.908     -100.824      -21.871       68.169      102.663       45.326     4647.013    10539.602     2054.431        1.445        0.862      105.752       28.697        0.074      335.277        5.804      846.726
12/13/2021  15:25:00       35.784     -136.738      -37.312      113.715       81.303       53.335    12931.011     6610.169     2844.612        2.187        1.119      141.343       27.363        0.037      335.297        5.834      846.790
12/13/2021  15:26:00       19.402     -232.334      -55.069      116.609      161.675       82.972    13597.691    26138.934     6884.379        5.200        2.331      233.142       70.649        0.092      335.413        6.027      846.827
12/13/2021  15:27:00      131.169     -225.135      -57.713      137.005      150.371       69.472    18770.461    22611.351     4826.409        5.871        2.310      260.559       61.079        0.055      335.292        5.825      846.814
12/13/2021  15:28:00      122.221     -286.361      -50.002      129.472      116.072       62.347    16763.101    13472.760     3887.098        6.678        1.706      311.353       75.915        0.059      335.318        5.870      846.816
12/13/2021  15:29:00        8.846      -80.099      -32.594      116.767      116.785       51.535    13634.573    13638.670     2655.894        1.874        1.496       80.586       32.776        0.165      335.452        6.094      846.791
12/13/2021  15:30:00       74.990     -170.725      -71.451      159.934      112.150       69.066    25578.738    12577.635     4770.173        4.139        2.146      186.469       68.607        0.135      335.375        5.965      846.795
12/13/2021  15:31:00       84.216     -191.694      -61.047      136.259      157.470       92.892    18566.380    24796.775     8628.912        4.977        2.600      209.378       70.850        0.115      335.385        5.982      846.767
12/13/2021  15:32:00      124.927     -387.485      -77.416      138.449      156.688       71.245    19168.075    24551.043     5075.799       11.026        2.440      407.126       38.341        0.009      335.283        5.811      846.736
12/13/2021  15:33:00       27.131     -238.116      -44.428      124.423      240.588       82.609    15480.969    57882.766     6824.318        6.978        4.009      239.656       75.846        0.100      335.371        5.957      846.760
12/13/2021  15:34:00       39.869     -263.972      -53.179      187.002      180.997       75.570    34969.873    32759.860     5710.900        7.376        3.672      266.965       66.725        0.062      335.259        5.772      846.833
12/13/2021  15:35:00      -32.516     -156.354      -43.085      187.186      274.056      101.221    35038.683    75106.925    10245.735        7.385        6.020      159.699       98.324        0.379      335.272        5.794      846.938
12/13/2021  15:36:00      118.592     -436.303      -64.092      213.186      186.602       84.692    45448.239    34820.347     7172.773       14.797        4.372      452.133       96.349        0.045      335.071        5.460      846.961
12/13/2021  15:37:00      -73.061     -288.141      -63.320      232.601      165.877       98.196    54103.077    27515.140     9642.397        9.180        4.563      297.260       72.377        0.059      335.114        5.529      846.914
12/13/2021  15:38:00      107.633     -331.482      -50.500      172.957      196.656      103.705    29914.086    38673.455    10754.745       10.166        3.967      348.519       94.099        0.073      335.049        5.422      846.934
12/13/2021  15:39:00       13.208     -121.414      -35.414      152.692      117.330       64.667    23314.699    13766.373     4181.791        2.871        2.063      122.131       56.355        0.213      335.118        5.538      847.002
12/13/2021  15:40:00      -66.561     -213.218      -55.113      220.415      191.151       75.662    48582.758    36538.862     5724.804        7.187        4.542      223.366       45.341        0.041      334.984        5.316      846.960
12/13/2021  15:41:00       53.613     -219.605      -47.318      106.889      118.585       72.492    11425.171    14062.399     5255.125        4.204        1.537      226.055       51.042        0.051      334.964        5.281      846.919
12/13/2021  15:42:00       13.160     -262.060      -62.375      113.115      170.359       69.657    12795.038    29022.302     4852.094        5.970        2.333      262.390       44.073        0.028      334.959        5.274      847.012
12/13/2021  15:43:00       46.541     -334.480      -76.909      128.604      187.704       83.258    16538.986    35232.730     6931.946        8.932        2.935      337.703       69.163        0.042      334.864        5.114      847.047
12/13/2021  15:44:00       64.240     -457.508      -71.801      194.855      292.221      115.625    37968.462    85393.069    13369.079       17.764        6.837      461.997      102.668        0.049      334.794        4.998      846.902
12/13/2021  15:45:00       68.961     -261.153      -65.226      210.372      171.372      106.719    44256.297    29368.370    11388.952        8.110        4.251      270.105      105.368        0.152      334.827        5.053      846.985
12/13/2021  15:46:00       47.814     -125.924      -51.146      104.433       90.561       56.299    10906.229     8201.383     3169.603        2.151        1.114      134.696       22.862        0.029      334.842        5.079      847.016
12/13/2021  15:47:00      147.496     -361.342      -62.033      136.874      238.324       85.525    18734.610    56798.400     7314.501       11.949        4.142      390.285       79.693        0.042      334.719        4.874      846.999
12/13/2021  15:48:00       83.362     -296.951      -70.451      144.819      210.129       83.211    20972.411    44154.048     6924.035        8.606        3.603      308.430       88.877        0.083      334.730        4.892      847.025
12/13/2021  15:49:00      133.668     -441.039      -57.223      117.028      237.533       89.777    13695.602    56421.987     8059.991       14.690        3.909      460.849      101.552        0.049      334.731        4.894      847.195
12/13/2021  15:50:00      112.953     -322.250      -53.173       75.499       85.225       58.630     5700.069     7263.252     3437.453        6.791        0.820      341.472       34.794        0.010      334.729        4.889      847.065
12/13/2021  15:51:00      -23.079     -181.430      -46.500      112.047      187.626       68.558    12554.575    35203.394     4700.241        4.403        2.623      182.892       69.347        0.144      334.792        4.996      847.063
12/13/2021  15:52:00       62.444     -212.156      -68.610      161.471      212.490       95.088    26072.972    45151.950     9041.676        6.693        4.013      221.155       68.957        0.097      334.841        5.079      847.141
12/13/2021  15:53:00       18.846     -210.683      -30.781      133.550      211.616       89.480    17835.556    44781.540     8006.609        5.814        3.531      211.524       52.193        0.061      334.805        5.018      847.112
12/13/2021  15:54:00       62.890     -231.773      -62.749      178.100      175.190       75.285    31719.478    30691.604     5667.898        6.483        3.404      240.154       62.717        0.068      334.733        4.898      847.061
12/13/2021  15:55:00      120.200     -437.209      -51.792      184.509      177.549       92.736    34043.673    31523.590     8600.055       14.121        3.708      453.431       81.424        0.032      334.678        4.805      847.017
12/13/2021  15:56:00      157.251     -439.707      -85.877      138.551      226.824       79.809    19196.367    51449.183     6369.460       15.122        3.851      466.980       46.806        0.010      334.627        4.721      846.997
12/13/2021  15:57:00       23.446     -216.311      -64.973      158.620      145.749       78.708    25160.225    21242.798     6194.939        5.207        2.630      217.578       45.942        0.045      334.652        4.763      847.067
12/13/2021  15:58:00      137.869     -491.371      -84.939      200.493      163.402       84.675    40197.434    26700.065     7169.791       17.085        3.703      510.347       68.274        0.018      334.618        4.706      847.093
12/13/2021  15:59:00      196.166     -563.643      -86.252      148.131      232.068       98.445    21942.803    53855.442     9691.456       22.454        4.274      596.803       88.463        0.022      334.554        4.598      847.111
12/13/2021  16:00:00      147.855     -397.197      -78.489      140.738      254.906       98.671    19807.169    64977.052     9735.967       14.014        4.726      423.824       75.425        0.032      334.526        4.554      847.104
12/13/2021  16:01:00       98.713     -231.858      -75.433      149.556      180.958       95.056    22366.888    32745.902     9035.592        6.666        3.207      251.997       52.574        0.044      334.506        4.519      846.933
12/13/2021  16:02:00       64.690     -131.439      -35.561      121.764      182.008       61.753    14826.426    33127.085     3813.395        3.724        2.588      146.496       86.350        0.347      334.610        4.695      847.015
12/13/2021  16:03:00       14.747     -388.360      -91.953      184.876      160.146       97.973    34179.143    25646.758     9598.734       11.445        3.471      388.640       61.431        0.025      334.542        4.581      847.091
12/13/2021  16:04:00      103.176     -252.624      -66.267      171.653      163.056       69.240    29464.658    26587.410     4794.198        6.984        3.042      272.882       56.112        0.042      334.542        4.579      847.073
12/13/2021  16:05:00      189.708     -347.243     -101.972      196.530      218.572       96.828    38624.206    47773.748     9375.619       13.135        4.789      395.685       94.366        0.057      334.426        4.389      847.075
12/13/2021  16:06:00      140.603     -307.964      -73.271      131.116      182.033       79.186    17191.299    33136.026     6270.400        8.828        2.830      338.542       71.321        0.044      334.477        4.473      847.204
12/13/2021  16:07:00      178.724     -309.471      -88.862      203.952      243.434      104.191    41596.485    59260.168    10855.790       12.364        5.586      357.372      143.254        0.161      334.472        4.464      847.271
12/13/2021  16:08:00       72.657     -279.837      -54.387      185.977      168.336       80.770    34587.351    28337.092     6523.760        7.798        3.472      289.116       74.581        0.067      334.445        4.419      847.220
12/13/2021  16:09:00      100.488     -307.001      -69.272      209.222      165.369      101.266    43773.962    27346.994    10254.801        9.525        4.069      323.029      101.978        0.100      334.465        4.451      847.208
12/13/2021  16:10:00       48.091     -159.200      -39.070      134.931      141.970       77.831    18206.260    20155.528     6057.725        3.679        2.221      166.305       64.490        0.150      334.435        4.404      847.261
12/13/2021  16:11:00     -120.526     -145.990      -30.045      207.253      122.568       76.046    42953.645    15022.966     5783.013        5.024        3.188      189.313       68.029        0.129      334.498        4.508      847.300
12/13/2021  16:12:00      -25.372     -189.097      -43.930      159.892      252.552       83.862    25565.443    63782.366     7032.845        6.734        4.819      190.791       54.705        0.082      334.483        4.483      847.258
12/13/2021  16:13:00       15.734     -227.903      -42.544      127.130      165.617       69.149    16161.911    27428.847     4781.520        5.118        2.419      228.446       63.015        0.076      334.456        4.437      847.323
12/13/2021  16:14:00      100.063     -399.806      -64.749      154.838      216.439       72.408    23974.784    46845.890     5242.936       12.504        3.803      412.137       79.231        0.037      334.357        4.273      847.346
12/13/2021  16:15:00      184.877     -543.453      -96.360      170.942      251.163       84.491    29220.998    63083.040     7138.777       21.911        4.972      574.039       99.852        0.030      334.291        4.163      847.317
12/13/2021  16:16:00      244.979     -449.970     -103.932      162.771      253.595      110.643    26494.300    64310.610    12241.901       18.815        5.152      512.335       95.287        0.035      334.248        4.092      847.310
12/13/2021  16:17:00       49.563     -368.511      -58.338      153.874      239.511       95.920    23677.315    57365.587     9200.690       11.594        4.512      371.829       85.780        0.053      334.310        4.194      847.388
12/13/2021  16:18:00       17.141     -271.957      -57.423      142.641      227.528       87.280    20346.458    51769.103     7617.750        7.863        3.987      272.497       88.238        0.105      334.350        4.263      847.371
12/13/2021  16:19:00       -5.983     -180.726      -36.255      140.220      141.989       63.808    19661.576    20160.971     4071.412        3.894        2.195      180.825       44.637        0.061      334.420        4.377      847.334
12/13/2021  16:20:00       41.207     -217.380      -33.662      113.799      214.734       72.564    12950.273    46110.484     5265.517        5.719        3.216      221.251       67.949        0.094      334.335        4.238      847.334
12/13/2021  16:21:00       -8.205     -172.162      -43.039      142.773      177.556       76.891    20384.256    31526.011     5912.234        4.468        2.891      172.358       56.029        0.106      334.375        4.304      847.388
12/13/2021  16:22:00       73.467     -195.653      -49.959      111.392      115.602       59.621    12408.071    13363.826     3554.717        3.774        1.466      208.992       43.864        0.044      334.332        4.232      847.379
12/13/2021  16:23:00       50.108     -227.802      -59.087      145.361      133.617       76.416    21129.712    17853.418     5839.444        5.135        2.241      233.248       30.686        0.017      334.252        4.097      847.334
12/13/2021  16:24:00       22.006     -185.561      -46.351      166.823      178.291       83.566    27829.773    31787.846     6983.332        5.182        3.330      186.861       63.325        0.115      334.252        4.099      847.346
12/13/2021  16:25:00      123.496     -499.420      -72.566      136.405      195.298       83.410    18606.310    38141.301     6957.256       16.681        3.185      514.463       72.306        0.020      334.120        3.879      847.281
12/13/2021  16:26:00      108.628     -116.017      -45.704      149.520      134.656       73.638    22356.240    18132.333     5422.521        3.662        2.296      158.934       81.133        0.261      334.198        4.008      847.303
12/13/2021  16:27:00       25.590     -224.243      -55.956      179.181      164.450       74.808    32105.656    27043.705     5596.215        5.940        3.237      225.698       69.144        0.094      334.173        3.966      847.320
12/13/2021  16:28:00       47.479     -245.904      -40.423      148.940      183.456       94.195    22183.129    33656.103     8872.668        6.452        3.236      250.446       91.651        0.134      334.253        4.100      847.295
12/13/2021  16:29:00       40.218     -219.343      -45.804      163.548      131.655       64.777    26747.918    17333.140     4196.085        5.004        2.414      223.000       56.338        0.064      334.269        4.127      847.263
12/13/2021  16:30:00       25.832     -160.927      -62.274      128.203      168.797       70.461    16436.041    28492.422     4964.792        4.016        2.495      162.987       50.765        0.097      334.271        4.131      847.177
12/13/2021  16:31:00       50.554     -139.437      -43.349      130.786      112.189       69.545    17104.952    12586.477     4836.470        2.920        1.726      148.318       46.960        0.100      334.263        4.118      847.116
12/13/2021  16:32:00        5.597     -121.147      -15.633      111.274      134.479       59.146    12381.893    18084.692     3498.194        2.445        1.698      121.277       58.730        0.235      334.276        4.140      847.126
12/13/2021  16:33:00       30.409     -134.044      -38.437      132.825      137.708       54.355    17642.511    18963.463     2954.477        2.996        1.978      137.450       38.350        0.078      334.378        4.310      847.100
12/13/2021  16:34:00       65.543     -135.654      -39.885       87.337      130.733       71.964     7627.733    17091.165     5178.785        2.709        1.495      150.658       71.862        0.228      334.296        4.174      847.116
12/13/2021  16:35:00       -1.035     -213.892      -24.793      110.931      121.977       71.980    12305.660    14878.380     5181.181        3.936        1.618      213.895       52.290        0.060      334.331        4.230      847.134
12/13/2021  16:36:00       68.046     -121.473      -50.440      129.854      136.269       68.937    16861.993    18569.255     4752.373        3.105        2.009      139.234       61.790        0.197      334.363        4.284      847.151
12/13/2021  16:37:00      114.841     -241.567      -68.388      163.044      176.250       85.719    26583.279    31063.999     7347.739        7.060        3.250      267.476       56.897        0.045      334.246        4.088      847.078
12/13/2021  16:38:00       52.543      -99.428      -47.727       94.985      112.485       86.615     9022.091    12652.915     7502.151        2.205        1.459      112.458       60.792        0.292      334.264        4.120      847.072
12/13/2021  16:39:00     -136.668     -151.272      -26.934      140.708      193.440       88.823    19798.706    37419.132     7889.493        5.369        3.255      203.866       62.153        0.093      334.240        4.079      847.177
12/13/2021  16:40:00      -31.156     -150.561      -46.112       92.659      127.176       79.280     8585.632    16173.842     6285.263        2.840        1.552      153.751       59.720        0.151      334.321        4.216      847.212
12/13/2021  16:41:00      -41.706     -123.747      -37.258      106.723      114.017       50.712    11389.755    12999.880     2571.665        2.270        1.348      130.586       16.678        0.016      334.267        4.124      847.167
12/13/2021  16:42:00       87.050     -253.010      -65.398      149.336      177.266       78.145    22301.332    31423.065     6106.608        6.784        2.992      267.567       69.469        0.067      334.187        3.990      847.088
12/13/2021  16:43:00       94.415     -249.586      -45.299       98.662      159.705       58.877     9734.283    25505.792     3466.462        5.598        1.935      266.847       55.647        0.043      334.140        3.912      847.052
12/13/2021  16:44:00       56.483     -161.112      -43.235      100.629      135.020       62.933    10126.209    18230.473     3960.589        3.166        1.616      170.726       55.982        0.108      334.115        3.871      847.076
12/13/2021  16:45:00       27.934     -292.882      -55.541      192.639      135.833       79.339    37109.792    18450.567     6294.676        7.574        3.093      294.212       73.613        0.063      334.157        3.941      847.124
12/13/2021  16:46:00      -69.305     -207.259      -54.730      145.836      134.642       72.023    21268.205    18128.455     5187.377        4.766        2.229      218.539       35.496        0.026      334.182        3.982      847.020
12/13/2021  16:47:00      -62.005      -93.386      -16.216       87.777       65.329       44.827     7704.764     4267.847     2009.497        1.340        0.699      112.096       14.883        0.018      334.271        4.133      847.001
12/13/2021  16:48:00        3.014      -41.774      -13.375       98.809       79.624       45.684     9763.256     6340.014     2087.032        1.006        0.910       41.882       32.272        0.594      334.346        4.256      846.918
12/13/2021  16:49:00       -4.078     -110.122      -11.177      111.334      153.851       65.492    12395.260    23670.051     4289.150        2.630        2.018      110.198       71.540        0.421      334.202        4.016      846.896
12/13/2021  16:50:00       52.437     -445.948      -81.283      177.485      217.112       89.637    31500.767    47137.588     8034.714       14.743        4.334      449.020       89.475        0.040      334.159        3.944      846.868
12/13/2021  16:51:00      152.929     -316.899      -60.832      202.216      202.002      110.414    40891.446    40804.661    12191.289       11.068        4.694      351.870      121.020        0.118      334.139        3.909      846.740
12/13/2021  16:52:00      -27.462     -237.037      -60.805      161.040      175.951       87.036    25933.753    30958.690     7575.330        6.254        3.223      238.622       51.811        0.047      334.228        4.059      846.714
12/13/2021  16:53:00       72.937     -425.212      -72.756      232.520      254.376      119.442    54065.466    64707.100    14266.490       16.220        6.652      431.423      104.656        0.059      334.143        3.918      846.607
12/13/2021  16:54:00       77.757     -379.946      -87.953      186.888      139.563       94.694    34927.305    19477.733     8967.013       11.074        3.169      387.821       89.292        0.053      334.148        3.924      846.580
12/13/2021  16:55:00       98.107     -218.459      -61.796       88.647      108.712       73.987     7858.282    11818.200     5474.026        4.315        1.258      239.477       67.479        0.079      334.223        4.050      846.638
12/13/2021  16:56:00       99.489     -123.054      -38.503      105.302       83.240       60.944    11088.563     6928.977     3714.158        2.412        1.087      158.241       57.866        0.134      334.280        4.145      846.691
12/13/2021  16:57:00      285.840     -475.034     -115.765      188.638      333.317      103.464    35584.188   111099.989    10704.745       23.905        7.869      554.402      129.798        0.055      334.128        3.891      846.701
12/13/2021  16:58:00      -51.781      -96.600      -35.450      193.593      129.251       89.043    37478.204    16705.862     7928.620        3.768        3.106      109.603       71.067        0.420      334.229        4.061      846.815
12/13/2021  16:59:00       97.482     -279.299      -67.347      142.069      213.155       76.685    20183.718    45434.914     5880.577        8.176        3.575      295.822       79.184        0.072      334.362        4.282      846.933
12/13/2021  17:00:00       59.916     -209.115      -50.406      164.139      114.255       80.878    26941.646    13054.309     6541.287        4.819        2.327      217.529       62.226        0.082      334.260        4.112      846.962
12/13/2021  17:01:00       79.860     -189.712      -51.243       98.067      105.478       69.941     9617.058    11125.594     4891.710        3.531        1.282      205.835       56.902        0.076      334.236        4.073      846.946
12/13/2021  17:02:00       13.277     -131.730      -22.810       95.220      133.503       58.409     9066.925    17823.155     3411.630        2.417        1.515      132.397       52.781        0.159      334.274        4.136      846.990
12/13/2021  17:03:00       69.770     -190.720      -46.993      126.469      114.882       80.767    15994.303    13197.811     6523.358        3.958        1.786      203.081       70.498        0.121      334.209        4.026      846.989
12/13/2021  17:04:00       56.610     -116.901      -47.856       84.995       91.065       54.762     7224.148     8292.901     2998.903        1.883        0.926      129.887       40.126        0.095      334.234        4.070      847.007
12/13/2021  17:05:00        0.790     -138.390      -56.944      126.131       79.830       48.924    15909.097     6372.840     2393.524        2.353        1.234      138.392       21.364        0.024      334.253        4.099      847.038
12/13/2021  17:06:00        4.856      -66.961      -26.499       67.743       71.014       48.433     4589.114     5043.034     2345.718        0.859        0.599       67.137       31.702        0.223      334.216        4.042      846.981
12/13/2021  17:07:00       78.132     -147.690      -25.215       97.240      163.322       73.467     9455.602    26674.191     5397.406        3.503        2.076      167.083       66.717        0.159      334.175        3.972      846.948
12/13/2021  17:08:00      157.383     -436.576      -69.818      185.751      285.979      101.606    34503.540    81783.966    10323.779       17.340        6.331      464.077       97.992        0.045      334.115        3.870      846.921
12/13/2021  17:09:00      211.597     -337.646      -69.455      202.702      230.241       82.991    41088.118    53010.737     6887.514       13.228        5.049      398.470      103.785        0.068      334.110        3.863      846.920
12/13/2021  17:10:00       28.876     -191.452      -41.949      142.933      111.106       76.161    20429.785    12344.642     5800.508        3.890        1.929      193.617       71.154        0.135      334.198        4.009      847.002
12/13/2021  17:11:00      -32.742     -199.102      -39.110      207.936      298.882       89.701    43237.567    89330.316     8046.260        9.140        7.031      201.776       98.545        0.239      334.190        3.994      846.983
12/13/2021  17:12:00      137.726     -334.140      -69.948      192.644      183.365       98.231    37111.862    33622.812     9649.366       10.793        4.019      361.411       99.255        0.075      334.093        3.833      846.938
12/13/2021  17:13:00      -87.101     -309.630      -73.191      198.572      139.661       93.636    39431.004    19505.106     8767.711        8.825        3.385      321.648       57.820        0.032      334.202        4.015      846.971
12/13/2021  17:14:00        8.858     -192.218      -35.175      107.218       92.713       61.993    11495.776     8595.785     3843.090        3.109        1.197      192.422       36.103        0.035      334.219        4.043      846.975
12/13/2021  17:15:00       26.799     -286.601      -44.707      145.106      146.649       81.652    21055.611    21505.903     6667.105        6.703        2.461      287.851       47.260        0.027      334.242        4.083      847.075
12/13/2021  17:16:00       36.741     -253.417      -40.782      175.925      129.017       91.066    30949.699    16645.369     8292.970        6.155        2.794      256.066       83.711        0.107      334.192        3.998      847.033
12/13/2021  17:17:00      -28.602     -249.926      -57.407      198.306      167.450       84.566    39325.221    28039.647     7151.378        7.053        3.726      251.558       70.784        0.079      334.148        3.926      847.040
12/13/2021  17:18:00      113.995     -364.413      -66.439      124.212      189.215       78.449    15428.679    35802.205     6154.294       10.379        2.869      381.827       42.574        0.012      334.189        3.994      847.051
12/13/2021  17:19:00      135.948     -370.834     -107.080      248.773      193.765       98.206    61888.142    37544.701     9644.467       13.825        5.454      394.968       85.960        0.047      334.121        3.880      846.927
12/13/2021  17:20:00      -73.093     -229.673      -47.115      198.848      224.859       89.626    39540.623    50561.662     8032.812        7.921        4.907      241.023       77.898        0.104      334.204        4.019      846.901
12/13/2021  17:21:00     -198.152     -350.280      -61.516      208.658      166.256      104.296    43538.268    27641.157    10877.724       12.389        4.103      402.443       60.301        0.022      334.207        4.023      846.908
12/13/2021  17:22:00      -20.766     -101.669      -28.615      125.365      127.774       71.614    15716.310    16326.141     5128.577        2.437        1.859      103.768       64.225        0.383      334.252        4.100      846.865
12/13/2021  17:23:00      -97.716      -28.661       -8.846       92.153       90.180       57.828     8492.130     8132.483     3344.078        1.520        0.998      101.832       10.658        0.011      334.158        3.942      846.815
12/13/2021  17:24:00      -47.338     -126.065      -26.530      125.730      174.467       68.719    15808.026    30438.776     4722.257        3.489        2.548      134.659       58.041        0.186      334.214        4.038      846.930
12/13/2021  17:25:00     -171.816     -344.151      -31.317      162.824      234.760       91.733    26511.711    55112.441     8414.960       11.947        4.502      384.656       68.797        0.032      334.159        3.942      846.941
12/13/2021  17:26:00      -22.092     -278.427      -69.156      195.803      144.646       79.133    38338.932    20922.408     6261.982        7.415        3.276      279.302       61.413        0.048      334.119        3.877      846.947
12/13/2021  17:27:00      -33.161     -221.791      -53.904      158.655      143.319       66.717    25171.519    20540.237     4451.168        5.167        2.508      224.256       59.550        0.071      334.208        4.026      846.848
12/13/2021  17:28:00        1.655     -297.741      -26.157      122.437      133.690       87.633    14990.880    17872.985     7679.534        6.493        2.027      297.745       50.334        0.029      334.210        4.027      846.778
12/13/2021  17:29:00      -45.819     -154.176      -62.079      137.778       92.570       62.502    18982.695     8569.200     3906.466        3.059        1.573      160.840       17.878        0.012      334.170        3.963      846.844
12/13/2021  17:30:00       14.149     -267.657      -59.066      144.031      143.025       70.269    20744.838    20456.022     4937.752        6.073        2.307      268.031       47.298        0.031      334.196        4.006      846.939
12/13/2021  17:31:00       28.718     -182.076      -44.688      115.461      155.016       74.504    13331.313    24029.858     5550.843        3.943        2.146      184.327       32.928        0.032      334.143        3.918      846.936
12/13/2021  17:32:00      -27.291     -121.821      -26.365      111.769      129.797       61.126    12492.330    16847.198     3736.425        2.467        1.654      124.840       62.705        0.252      334.193        4.002      846.900
12/13/2021  17:33:00        0.453     -167.185      -12.738       90.754      143.882       56.257     8236.319    20702.023     3164.850        3.010        1.605      167.186       42.638        0.065      334.213        4.033      846.923
12/13/2021  17:34:00      -29.429     -147.626      -48.767      107.177      100.847       72.030    11486.873    10170.180     5188.300        2.594        1.342      150.531       45.687        0.092      334.128        3.894      847.000
12/13/2021  17:35:00       81.182     -322.626      -82.879      155.165      164.970       78.428    24076.123    27214.960     6151.011        8.748        2.872      332.683       80.926        0.059      334.016        3.706      847.069
12/13/2021  17:36:00       16.901     -194.429      -57.137      143.611      170.732       70.853    20624.154    29149.282     5020.101        4.806        2.740      195.162       52.231        0.072      334.037        3.741      847.071
12/13/2021  17:37:00       65.267     -267.949      -62.848      140.076      104.025       70.669    19621.236    10821.150     4994.168        5.771        1.772      275.783       58.784        0.045      334.014        3.702      847.024
12/13/2021  17:38:00      -14.793     -328.422      -55.231      169.140      173.643       85.971    28608.389    30151.730     7390.960        8.863        3.308      328.755       63.561        0.037      333.997        3.675      846.940
12/13/2021  17:39:00       -7.227     -257.165      -38.216      219.483      168.932       85.823    48172.590    28538.120     7365.617        7.585        4.204      257.266       67.599        0.069      334.036        3.741      846.882
12/13/2021  17:40:00       45.126     -341.488      -58.361      166.061      156.042       85.160    27576.377    24349.209     7252.250        9.061        2.959      344.457       74.746        0.047      333.936        3.573      846.848
12/13/2021  17:41:00       45.317     -306.931      -47.447      139.703      147.910       65.312    19517.009    21877.515     4265.665        7.208        2.283      310.258       64.450        0.043      333.973        3.636      846.871
12/13/2021  17:42:00       -7.815     -179.506      -45.149      208.206      178.325       69.515    43349.855    31799.634     4832.284        5.714        3.999      179.676       56.228        0.098      333.946        3.594      846.944
12/13/2021  17:43:00       97.785     -283.957      -60.744      136.575      135.529       89.403    18652.833    18368.114     7992.927        6.944        2.251      300.322       54.788        0.033      333.936        3.576      846.979
12/13/2021  17:44:00       32.852      -93.359      -37.055       96.220      143.829       42.994     9258.330    20686.772     1848.466        2.147        1.590       98.970       13.237        0.018      333.994        3.672      847.017
12/13/2021  17:45:00      -17.542     -137.950      -38.589      141.429      146.595       67.139    20002.116    21490.134     4507.639        3.340        2.300      139.060       53.634        0.149      334.068        3.794      847.073
12/13/2021  17:46:00      -10.689     -180.162      -61.941      157.304      150.045       74.858    24744.636    22513.521     5603.747        4.463        2.643      180.479       52.959        0.086      333.976        3.642      847.172
12/13/2021  17:47:00       42.518     -236.420      -45.693      134.170      157.830      101.869    18001.622    24910.229    10377.386        5.653        2.664      240.213       70.060        0.085      334.010        3.697      847.195
12/13/2021  17:48:00       63.092     -311.620      -65.759      196.751      216.987       86.275    38711.123    47083.237     7443.331        9.931        4.662      317.943       69.484        0.048      333.982        3.652      847.202
12/13/2021  17:49:00      132.935     -396.090      -69.123      119.073      171.220       67.625    14178.471    29316.303     4573.101       11.369        2.403      417.802       53.034        0.016      333.949        3.596      847.203
12/13/2021  17:50:00      -36.456     -202.538      -40.750      162.191      169.460       76.431    26305.828    28716.849     5841.650        5.243        3.043      205.793       48.654        0.056      334.025        3.722      847.272
12/13/2021  17:51:00        2.138     -262.456      -52.586      168.462      182.102       76.081    28379.328    33160.975     5788.243        6.948        3.366      262.465       73.472        0.078      334.028        3.726      847.289
12/13/2021  17:52:00       13.873     -147.201      -13.571       85.199      150.893       61.987     7258.840    22768.565     3842.327        2.795        1.693      147.853       59.831        0.164      334.111        3.865      847.299
12/13/2021  17:53:00       12.819     -224.771      -48.524      148.751      116.643       67.614    22126.828    13605.561     4571.672        4.667        2.015      225.136       71.019        0.100      334.098        3.843      847.272
12/13/2021  17:54:00      -66.773     -354.986      -48.141      184.343      211.524      100.150    33982.361    44742.508    10029.930       11.076        4.438      361.212       78.455        0.047      334.016        3.707      847.192
12/13/2021  17:55:00       72.566     -471.762      -83.193      227.758      177.263       90.736    51873.665    31422.199     8233.096       16.312        4.576      477.311       92.245        0.037      333.921        3.549      847.096
12/13/2021  17:56:00      -51.662     -154.153      -49.171      143.811      154.998       63.767    20681.656    24024.386     4066.280        3.880        2.439      162.580       71.325        0.192      334.001        3.683      847.133
12/13/2021  17:57:00      -14.402     -343.570      -67.188      212.216      194.457      109.544    45035.462    37813.472    11999.936       10.879        4.742      343.872       84.418        0.060      333.909        3.529      847.173
12/13/2021  17:58:00       89.717     -251.101      -80.415      140.214      139.419       91.289    19659.882    19437.670     8333.610        6.249        2.372      266.648       63.729        0.057      333.881        3.484      847.186
12/13/2021  17:59:00      -50.953     -235.391      -65.114      124.370      177.957       72.009    15467.846    31668.544     5185.279        5.727        2.616      240.842       58.993        0.060      333.977        3.644      847.142
12/13/2021  18:00:00       43.914      -98.757      -24.582       83.082       99.902       51.950     6902.651     9980.391     2698.806        1.593        0.979      108.080       45.822        0.180      333.990        3.667      847.208
12/13/2021  18:01:00      125.462     -252.642      -89.246      196.072      264.094      102.088    38444.061    69745.649    10421.935       10.305        5.931      282.079      123.647        0.192      333.855        3.441      847.157
12/13/2021  18:02:00       19.549     -220.979      -56.621      163.975      143.010       70.313    26887.667    20451.731     4943.853        5.234        2.614      221.842       54.800        0.061      333.872        3.469      847.087
12/13/2021  18:03:00       50.186     -222.411      -45.068      148.022      111.032       72.490    21910.436    12328.128     5254.754        4.675        1.975      228.003       66.909        0.086      333.878        3.476      847.058
12/13/2021  18:04:00       45.834     -288.897      -31.213       85.865      182.099       72.399     7372.784    33160.171     5241.687        6.615        2.289      292.510       71.511        0.060      333.870        3.465      847.080
12/13/2021  18:05:00       48.153     -235.805      -36.644      149.756      154.996       79.465    22426.842    24023.819     6314.673        5.601        2.638      240.671       69.402        0.083      333.865        3.458      847.141
12/13/2021  18:06:00      -21.987     -425.700      -67.411      200.272      245.062       92.240    40108.902    60055.160     8508.253       14.744        5.434      426.268       88.350        0.043      333.825        3.391      847.221
12/13/2021  18:07:00       98.210     -294.785      -64.053      177.646      212.301      103.579    31558.135    45071.663    10728.682        9.399        4.368      310.714       71.601        0.053      333.863        3.455      847.146
12/13/2021  18:08:00       40.943     -260.813      -55.337      155.061      160.932       90.028    24043.905    25899.187     8105.036        6.539        2.902      264.007       74.813        0.080      333.876        3.475      847.136
12/13/2021  18:09:00       36.901     -146.877      -29.925      120.333      146.325       64.365    14480.023    21410.971     4142.825        3.192        2.002      151.441       61.900        0.167      333.921        3.551      847.094
12/13/2021  18:10:00       60.678     -268.506      -55.914      164.493      166.214       74.434    27058.037    27627.194     5540.416        6.955        3.011      275.277       66.768        0.059      333.855        3.441      847.038
12/13/2021  18:11:00      -36.368     -153.747      -49.029      119.975      115.375       66.352    14394.093    13311.276     4402.530        2.973        1.605      157.990       57.094        0.131      333.842        3.421      847.004
12/13/2021  18:12:00       84.772     -225.465      -52.902      109.364      196.667       69.865    11960.523    38677.992     4881.185        5.816        2.776      240.875       79.175        0.108      333.802        3.353      846.988
12/13/2021  18:13:00      172.201     -454.666      -66.505      124.447      181.963       80.858    15487.027    33110.574     6537.937       14.796        2.757      486.183       55.232        0.013      333.746        3.260      846.954
12/13/2021  18:14:00       31.660     -277.794      -71.839      160.010      156.218       86.812    25603.235    24404.132     7536.371        7.043        2.877      279.593       69.665        0.062      333.867        3.460      846.961
12/13/2021  18:15:00      129.597     -264.556      -53.930      118.319      132.187       74.341    13999.472    17473.459     5526.619        6.334        1.850      294.593       52.159        0.031      333.792        3.336      846.880
12/13/2021  18:16:00      122.049     -385.141      -62.973      163.600      216.385       88.632    26764.862    46822.365     7855.615       12.430        4.072      404.016       83.982        0.043      333.751        3.267      846.830
12/13/2021  18:17:00      -34.578     -278.923      -19.736      177.705      222.602       96.531    31579.179    49551.595     9318.277        8.490        4.522      281.058      104.841        0.139      333.849        3.431      846.869
12/13/2021  18:18:00       65.594     -157.361      -52.918       86.954      131.294       65.722     7561.008    17238.024     4319.389        3.049        1.456      170.485       50.390        0.087      333.773        3.306      846.854
12/13/2021  18:19:00       -0.345     -209.648      -29.535       89.270      162.115       53.248     7969.096    26281.178     2835.334        4.095        1.854      209.648       57.901        0.076      333.807        3.362      846.773
12/13/2021  18:20:00       47.549     -140.358      -54.906       98.266       97.665       58.270     9656.178     9538.474     3395.356        2.378        1.130      148.193       44.475        0.090      333.959        3.613      846.800
12/13/2021  18:21:00      -36.241     -132.819      -38.300      124.190      128.333       51.904    15423.273    16469.455     2694.019        2.750        1.729      137.674       45.908        0.111      333.916        3.542      846.881
12/13/2021  18:22:00       16.461     -177.023      -35.787      147.190      129.875       73.433    21664.773    16867.633     5392.384        3.840        2.196      177.787       66.593        0.140      333.861        3.450      846.968
12/13/2021  18:23:00       47.847     -198.919      -39.386      159.708      169.273       83.228    25506.746    28653.276     6926.921        5.224        3.054      204.593       68.514        0.112      333.821        3.384      847.007
12/13/2021  18:24:00       13.694     -174.922      -39.772      103.334      111.825       79.832    10677.817    12504.927     6373.088        3.096        1.478      175.457       27.813        0.025      333.934        3.571      847.019
12/13/2021  18:25:00       81.887     -200.234      -57.518       92.302      115.647       49.012     8519.729    13374.286     2402.154        3.720        1.215      216.331       25.186        0.014      333.934        3.571      847.036
12/13/2021  18:26:00     -110.682     -206.505      -32.730      129.721      112.482       65.313    16827.613    12652.162     4265.759        4.485        1.687      234.296       41.614        0.032      333.872        3.470      847.048
12/13/2021  18:27:00       30.796     -320.804      -43.583      131.807      162.875       85.564    17373.104    26528.425     7321.139        7.848        2.561      322.279       60.446        0.035      333.826        3.393      846.949
12/13/2021  18:28:00      106.720     -225.249      -72.429      160.810      168.850       75.439    25859.888    28510.291     5690.982        6.371        3.003      249.252       63.032        0.064      333.755        3.274      846.889
12/13/2021  18:29:00      131.186     -127.426      -71.094       88.643      116.679       51.060     7857.658    13613.993     2607.127        3.129        1.204      182.885       41.593        0.052      333.786        3.325      846.906
12/13/2021  18:30:00       12.474     -222.679      -47.402      103.367      149.745       57.023    10684.838    22423.684     3251.627        4.417        1.818      223.028       29.727        0.018      333.882        3.486      846.894
12/13/2021  18:31:00       30.583     -106.145      -39.803       66.562       66.477       36.581     4430.538     4419.144     1338.133        1.199        0.509      110.464       27.274        0.061      334.097        3.843      846.828
12/13/2021  18:32:00       78.663     -215.602      -88.893      215.161      172.493       97.651    46294.395    29753.711     9535.703        7.306        4.279      229.505       82.413        0.129      333.892        3.501      846.779
12/13/2021  18:33:00       36.622     -179.632      -59.565      168.004      188.249       87.552    28225.393    35437.642     7665.281        5.423        3.566      183.327       87.186        0.226      333.891        3.500      846.838
12/13/2021  18:34:00      -92.019     -196.827      -43.878      155.893      116.650       86.381    24302.608    13607.114     7461.593        4.724        2.269      217.275       46.367        0.046      333.964        3.622      846.864
12/13/2021  18:35:00      -23.064      -42.007       -1.938       65.907       89.502       45.026     4343.774     8010.689     2027.385        0.834        0.719       47.922       41.020        0.733      333.942        3.589      846.857
12/13/2021  18:36:00      -54.093     -125.996      -12.022      113.242      141.188       67.293    12823.722    19934.002     4528.282        2.811        1.864      137.117       42.872        0.098      334.006        3.691      846.836
12/13/2021  18:37:00      161.084     -258.614      -74.490      163.015      167.846       93.543    26574.043    28172.410     8750.342        8.093        3.175      304.679       95.178        0.098      333.935        3.572      846.757
12/13/2021  18:38:00        5.422     -114.779      -35.310      128.451      153.186       60.195    16499.665    23466.024     3623.491        2.901        2.179      114.907       48.179        0.176      333.938        3.581      846.710
12/13/2021  18:39:00       60.621     -276.459      -65.748      215.566      180.302       75.386    46468.668    32508.893     5683.067        8.453        4.233      283.027       76.747        0.074      334.058        3.776      846.676
12/13/2021  18:40:00       93.918     -354.017      -68.522      162.689      297.153       87.427    26467.813    88299.938     7643.516       13.061        6.121      366.263       86.190        0.055      333.963        3.619      846.613
12/13/2021  18:41:00      -94.013     -297.509      -43.079      201.009      239.172       87.376    40404.683    57203.393     7634.487       10.220        5.262      312.009       77.368        0.061      333.994        3.669      846.670
12/13/2021  18:42:00       52.906     -190.636      -52.440      203.036      179.483       85.866    41223.771    32214.038     7372.916        6.134        4.041      197.842       73.757        0.139      334.003        3.688      846.596
12/13/2021  18:43:00       64.036     -120.465      -43.050       98.426      123.170       56.595     9687.601    15170.873     3203.041        2.426        1.403      136.427       60.177        0.195      334.045        3.756      846.584
12/13/2021  18:44:00      -44.674     -175.535      -51.765      115.363      132.688       76.049    13308.673    17606.116     5783.377        3.609        1.835      181.131       78.007        0.185      334.089        3.829      846.470
12/13/2021  18:45:00       40.546     -144.598      -32.714      118.713      105.846       59.774    14092.870    11203.392     3572.985        2.624        1.443      150.175       24.482        0.027      334.185        3.989      846.343
12/13/2021  18:46:00       69.366     -318.255      -67.678      143.064      155.007       76.729    20467.187    24027.125     5887.383        8.052        2.519      325.727       60.042        0.034      334.063        3.784      846.418
12/13/2021  18:47:00       79.324     -266.798      -61.000      130.568      138.224       95.923    17047.900    19105.918     9201.270        6.327        2.268      278.340       64.130        0.053      334.081        3.814      846.397
12/13/2021  18:48:00     -116.432     -283.230      -35.602      261.677      190.334       99.723    68474.658    36227.184     9944.681       10.482        5.732      306.228       73.805        0.058      334.118        3.875      846.371
12/13/2021  18:49:00      -95.328     -329.617      -44.592      134.422      172.551       98.474    18069.304    29773.842     9697.178        8.862        2.877      343.125       87.325        0.065      334.198        4.007      846.378
12/13/2021  18:50:00      125.192     -363.611      -63.709      151.606      166.246       69.371    22984.296    27637.579     4812.311       10.368        2.772      384.560       62.923        0.027      334.046        3.757      846.196
12/13/2021  18:51:00       94.791     -239.261      -46.222      132.937      142.335       62.558    17672.336    20259.276     3913.530        5.510        2.092      257.355       83.392        0.105      334.029        3.729      846.018
12/13/2021  18:52:00       42.234     -272.621      -56.554       82.455      126.575       76.102     6798.899    16021.353     5791.439        5.395        1.431      275.873       54.615        0.039      334.133        3.900      846.038
12/13/2021  18:53:00      -32.950     -177.103      -38.321      143.228      101.491       65.361    20514.354    10300.355     4272.046        3.450        1.754      180.142       49.249        0.075      334.149        3.926      846.202
12/13/2021  18:54:00      -13.564      -63.462      -43.281       89.533       85.804       42.947     8016.197     7362.387     1844.458        1.165        0.861       64.896       37.838        0.340      334.183        3.986      846.272
12/13/2021  18:55:00       91.896      -77.195      -22.490       65.019      113.980       68.589     4227.434    12991.420     4704.487        1.841        1.096      120.017       54.101        0.203      334.156        3.940      846.126
12/13/2021  18:56:00      -56.171     -226.327      -31.964      206.287      178.114       89.784    42554.388    31724.749     8061.109        6.886        4.117      233.193       87.306        0.140      334.208        4.025      845.995
12/13/2021  18:57:00      -35.340     -200.209      -48.577      188.951      174.007       98.987    35702.542    30278.375     9798.363        5.972        3.789      203.304       73.166        0.130      334.264        4.118      846.000
12/13/2021  18:58:00      -50.434     -143.311      -42.062      165.873      163.553       86.767    27513.991    26749.716     7528.454        4.331        3.090      151.926       71.413        0.221      334.250        4.094      846.090
12/13/2021  18:59:00     -126.698     -192.778      -25.034      165.523      146.888       71.626    27397.845    21576.048     5130.245        5.396        2.705      230.685       68.656        0.089      334.268        4.125      846.162
12/13/2021  19:00:00       15.296     -238.483      -50.237      170.779      136.975       85.510    29165.472    18762.142     7312.021        5.743        2.762      238.973       80.552        0.114      334.275        4.136      846.123
12/13/2021  19:01:00     -109.829     -183.925      -27.707      121.811      129.388       70.580    14837.931    16741.235     4981.474        4.160        1.828      214.221       23.682        0.012      334.329        4.226      846.067
12/13/2021  19:02:00      -10.180     -208.515      -35.976      203.113      150.367       77.410    41255.041    22610.124     5992.297        5.735        3.493      208.764       51.658        0.061      334.354        4.269      846.147
12/13/2021  19:03:00        8.502     -186.808      -37.427      106.246      111.129       50.848    11288.265    12349.624     2585.480        3.129        1.311      187.001       45.039        0.058      334.329        4.225      846.201
12/13/2021  19:04:00       46.130     -171.354      -28.106       99.934      174.003       60.742     9986.838    30277.194     3689.586        3.811        2.198      177.455       57.078        0.103      334.417        4.373      846.247
12/13/2021  19:05:00     -133.141     -205.094      -55.332      155.202      138.288       84.110    24087.735    19123.676     7074.465        5.656        2.514      244.520       58.606        0.057      334.360        4.279      846.285
12/13/2021  19:06:00      -49.387     -111.517      -30.357      111.723       97.691       74.834    12482.136     9543.573     5600.091        2.171        1.381      121.964       48.874        0.161      334.402        4.351      846.302
12/13/2021  19:07:00      -19.143     -113.150      -23.707       67.989       99.524       51.468     4622.462     9905.021     2648.976        1.545        0.859      114.758       49.432        0.186      334.432        4.400      846.303
12/13/2021  19:08:00      -61.018     -101.047      -17.992      104.775      138.025       56.645    10977.814    19050.778     3208.701        2.374        1.662      118.042       56.704        0.231      334.378        4.309      846.358
12/13/2021  19:09:00      -91.653     -195.219      -59.525      181.264       85.864       78.329    32856.504     7372.616     6135.437        4.820        2.318      215.664       54.313        0.063      334.410        4.360      846.472
12/13/2021  19:10:00     -107.208     -423.942      -78.209      259.912      253.099      111.004    67554.157    64059.025    12321.966       17.061        7.197      437.288       78.732        0.032      334.364        4.283      846.441
12/13/2021  19:11:00      -31.884     -176.679      -25.723      115.541      130.891       74.821    13349.665    17132.499     5598.248        3.448        1.804      179.533       56.664        0.100      334.453        4.432      846.446
12/13/2021  19:12:00     -157.588     -364.543      -62.113      169.862      150.325      105.092    28853.037    22597.539    11044.387       11.203        3.125      397.147       78.626        0.039      334.406        4.355      846.390
12/13/2021  19:13:00      -77.692     -116.466      -55.650      148.654      132.988       85.927    22098.078    17685.704     7383.364        3.492        2.358      140.001       56.668        0.164      334.382        4.316      846.312
12/13/2021  19:14:00     -103.834     -304.736      -54.951      112.157      139.161       86.251    12579.168    19365.736     7439.186        7.302        1.969      321.940       42.046        0.017      334.450        4.429      846.324
12/13/2021  19:15:00      -47.810     -252.097      -44.181      132.069      122.984       82.030    17442.339    15125.050     6728.875        5.354        1.965      256.591       57.405        0.050      334.456        4.439      846.428
12/13/2021  19:16:00     -112.833     -322.576      -66.367      148.081      182.450       77.947    21927.946    33288.098     6075.764        9.123        3.065      341.741       63.422        0.034      334.388        4.325      846.447
12/13/2021  19:17:00      -69.771     -261.711      -50.781      161.499      147.213       63.860    26081.792    21671.590     4078.038        6.388        2.592      270.851       52.067        0.037      334.357        4.274      846.441
12/13/2021  19:18:00       94.636     -271.322      -79.577      148.415      134.592       77.001    22027.006    18115.017     5929.171        6.748        2.304      287.353       34.938        0.015      334.347        4.257      846.497
12/13/2021  19:19:00       53.885     -323.141      -60.430      157.313      175.329       91.481    24747.483    30740.259     8368.809        8.740        3.193      327.603       77.144        0.055      334.328        4.223      846.476
12/13/2021  19:20:00      122.713     -332.680      -97.055      160.637      209.089      114.955    25804.151    43718.327    13214.640       10.893        4.137      354.590       81.534        0.053      334.299        4.177      846.448
12/13/2021  19:21:00      -60.097     -239.768      -59.627      195.481      197.772       89.320    38212.961    39113.910     7978.100        7.496        4.265      247.184       81.318        0.108      334.307        4.191      846.299
12/13/2021  19:22:00      133.500     -273.005      -54.122      100.740      161.626       63.416    10148.543    26122.872     4021.546        6.778        2.015      303.898       62.048        0.042      334.295        4.170      846.226
12/13/2021  19:23:00      -54.217     -168.826      -67.231      158.110      168.004       68.198    24998.762    28225.352     4651.016        4.691        2.894      177.318       65.896        0.138      334.316        4.206      846.186
12/13/2021  19:24:00      -76.665     -339.151      -72.150      187.762      165.901       91.521    35254.440    27523.046     8376.182        9.862        3.558      347.708       59.287        0.029      334.366        4.287      846.186
12/13/2021  19:25:00     -114.838     -260.015      -49.653      141.011      134.940       76.608    19884.215    18208.745     5868.749        6.360        2.198      284.246       60.569        0.045      334.385        4.319      846.267
12/13/2021  19:26:00      -68.702     -196.220      -35.299       99.366      109.815       72.912     9873.700    12059.305     5316.184        3.585        1.362      207.900       55.684        0.072      334.392        4.332      846.351
12/13/2021  19:27:00      -53.703     -291.771      -63.754      147.688      132.854       78.297    21811.705    17650.104     6130.442        6.883        2.280      296.672       50.247        0.029      334.380        4.311      846.432
12/13/2021  19:28:00      -52.805     -196.324      -59.400      153.868      122.002       82.653    23675.229    14884.533     6831.485        4.512        2.270      203.301       53.078        0.068      334.350        4.262      846.483
12/13/2021  19:29:00      -29.119     -173.153      -45.603      111.552      143.918       65.704    12443.797    20712.279     4317.061        3.518        1.874      175.584       54.523        0.096      334.348        4.260      846.432
12/13/2021  19:30:00      -18.444     -248.209      -48.311      143.407      141.527       74.688    20565.475    20030.025     5578.283        5.522        2.309      248.893       58.746        0.056      334.337        4.239      846.325
12/13/2021  19:31:00       23.632     -145.053      -33.683       88.842       76.921       66.973     7892.859     5916.880     4485.393        2.051        0.915      146.966       50.517        0.118      334.287        4.158      846.254
12/13/2021  19:32:00       -5.776     -325.252      -30.072      122.230      170.809       77.662    14940.065    29175.732     6031.336        7.843        2.507      325.304       52.334        0.026      334.297        4.173      846.268
12/13/2021  19:33:00        0.980     -285.985      -43.842      161.629      171.270       89.166    26123.814    29333.462     7950.526        7.355        3.170      285.987       54.747        0.037      334.248        4.090      846.185
12/13/2021  19:34:00       19.482     -220.556      -57.818      142.331      114.600       62.164    20258.247    13133.086     3864.335        4.480        1.863      221.415       59.365        0.072      334.287        4.156      846.152
12/13/2021  19:35:00       24.876     -131.109      -30.864       72.832      103.305       50.963     5304.519    10671.996     2597.216        1.866        0.929      133.448       47.016        0.124      334.298        4.176      846.199
12/13/2021  19:36:00     -127.080     -206.147      -51.730      128.492      193.082       86.085    16510.188    37280.634     7410.549        6.125        3.060      242.169       60.676        0.063      334.258        4.108      846.211
12/13/2021  19:37:00      -58.972     -211.688      -17.320      133.351      114.551       71.655    17782.584    13121.844     5134.430        4.231        1.802      219.748       60.909        0.077      334.297        4.174      846.207
12/13/2021  19:38:00      -38.008      -75.434      -33.047      114.153      117.676       70.326    13030.876    13847.539     4945.776        2.002        1.591       84.469       60.263        0.509      334.243        4.086      846.236
12/13/2021  19:39:00     -113.834     -148.774      -23.340      118.047      144.886       49.628    13935.114    20991.845     2462.912        3.651        1.869      187.328       43.372        0.054      334.210        4.030      846.319
12/13/2021  19:40:00      -70.449     -205.202      -23.717      190.234      197.872       92.611    36189.136    39153.447     8576.759        6.576        4.196      216.958       50.368        0.054      334.205        4.019      846.392
12/13/2021  19:41:00      -40.708     -261.530      -32.995      144.084      153.219       74.848    20760.281    23476.046     5602.211        6.048        2.492      264.680       38.851        0.022      334.275        4.136      846.362
12/13/2021  19:42:00      -84.232     -168.804      -60.206      170.657      191.530       79.269    29123.960    36683.735     6283.564        5.564        3.605      188.653       92.691        0.241      334.197        4.007      846.303
12/13/2021  19:43:00      -80.218     -153.842      -25.016      128.440       89.074       63.895    16496.769     7934.182     4082.587        2.962        1.426      173.500       37.178        0.046      334.218        4.042      846.225
12/13/2021  19:44:00       -1.168     -133.080      -33.810      137.190      145.291       68.152    18821.131    21109.374     4644.752        3.171        2.229      133.085       56.927        0.183      334.244        4.086      846.121
12/13/2021  19:45:00        3.541     -207.626      -27.460      101.771      138.922       62.181    10357.351    19299.432     3866.475        3.869        1.676      207.656       42.419        0.042      334.274        4.135      846.021
12/13/2021  19:46:00       44.880     -360.762      -81.793      145.967      196.502       97.002    21306.408    38613.187     9409.473       10.408        3.466      363.543       61.436        0.029      334.129        3.894      846.018
12/13/2021  19:47:00      -77.951      -59.444      -42.641      104.455      127.519       67.565    10910.781    16261.121     4564.999        2.158        1.587       98.030       54.342        0.307      334.152        3.932      846.051
12/13/2021  19:48:00      -42.917     -130.384      -37.582      117.768      110.286       63.056    13869.272    12162.942     3976.028        2.513        1.500      137.265       59.121        0.186      334.154        3.936      845.928
12/13/2021  19:49:00       22.516     -217.587      -51.983      109.091      108.261       64.870    11900.893    11720.448     4208.147        3.919        1.391      218.749       42.001        0.037      334.181        3.982      845.951
12/13/2021  19:50:00      -60.099     -192.100      -48.315      117.998      132.404       66.059    13923.543    17530.916     4363.840        3.933        1.791      201.281       62.344        0.096      334.236        4.073      846.046
12/13/2021  19:51:00      -96.887     -204.523      -48.982      168.357      131.546       77.837    28344.028    17304.417     6058.580        5.265        2.585      226.311       53.426        0.056      334.219        4.043      846.230
12/13/2021  19:52:00     -106.427     -151.103      -12.694      145.600      138.286       95.499    21199.350    19122.989     9120.121        4.187        2.472      184.821       58.990        0.102      334.220        4.046      846.188
12/13/2021  19:53:00      -40.797     -125.335      -28.400      143.359       95.994       55.775    20551.935     9214.780     3110.844        2.552        1.644      131.807       21.906        0.028      334.266        4.122      846.165
12/13/2021  19:54:00       52.501     -143.788      -33.558       82.984      141.450       63.516     6886.329    20008.228     4034.294        2.774        1.546      153.073       63.869        0.174      334.289        4.161      846.032
12/13/2021  19:55:00       34.514     -126.615      -37.028      100.479      142.817       56.474    10096.061    20396.816     3189.309        2.613        1.684      131.234       38.324        0.085      334.152        3.934      845.932
12/13/2021  19:56:00       -5.567     -125.171      -33.198      123.996       98.923       69.583    15375.020     9785.855     4841.826        2.340        1.500      125.295       55.606        0.197      334.289        4.161      846.012
12/13/2021  19:57:00       21.957     -191.157      -35.616      134.568      132.185       63.409    18108.603    17472.903     4020.647        3.894        1.980      192.414       54.629        0.081      334.254        4.101      846.113
12/13/2021  19:58:00      -11.818     -121.518      -55.438       99.331      118.108       67.555     9866.580    13949.436     4563.740        2.317        1.419      122.092       56.510        0.214      334.225        4.054      846.149
12/13/2021  19:59:00      -66.871     -127.142      -33.692       89.659      111.784       48.271     8038.655    12495.773     2330.111        2.231        1.143      143.655       31.039        0.047      334.267        4.124      846.058
12/13/2021  20:00:00      -61.801     -121.475      -26.907      126.463       98.964       57.755    15992.783     9793.779     3335.597        2.421        1.456      136.292       42.288        0.096      334.276        4.139      846.023
12/13/2021  20:01:00      -48.500     -104.270      -16.793       80.912      100.630       44.265     6546.812    10126.437     1959.393        1.607        0.932      114.997       40.325        0.123      334.240        4.080      845.992
12/13/2021  20:02:00       57.960     -151.722      -30.407      119.051      125.005       69.236    14173.210    15626.259     4793.595        3.094        1.730      162.416       38.907        0.057      334.181        3.981      845.979
12/13/2021  20:03:00      -10.113     -222.921      -34.609      142.201       80.859       68.886    20221.180     6538.121     4745.303        4.124        1.575      223.150       46.954        0.044      334.222        4.048      845.928
12/13/2021  20:04:00      -35.088     -249.684      -52.775      134.992      132.941       79.205    18222.972    17673.219     6273.372        5.426        2.108      252.137       65.822        0.068      334.211        4.030      845.898
12/13/2021  20:05:00       -5.369      -51.590      -17.129       78.852       68.608       41.570     6217.633     4707.068     1728.085        0.782        0.633       51.869       22.652        0.191      334.288        4.161      845.866
12/13/2021  20:06:00      -75.898     -101.515       -7.753       86.974      122.897       54.390     7564.472    15103.779     2958.234        2.087        1.281      126.751       60.475        0.228      334.252        4.100      845.884
12/13/2021  20:07:00       -1.665      -95.364      -51.177      124.371       93.973       61.919    15468.124     8831.006     3833.947        1.992        1.407       95.379       47.679        0.250      334.327        4.224      845.906
12/13/2021  20:08:00       52.183     -208.748      -61.263      141.153      152.457       85.193    19924.073    23243.256     7257.816        5.023        2.521      215.172       44.566        0.043      334.238        4.075      845.890
12/13/2021  20:09:00     -111.021     -300.212      -58.664      122.822      145.234       67.010    15085.129    21092.926     4490.307        7.327        2.033      320.083       26.374        0.007      334.179        3.977      845.884
12/13/2021  20:10:00      -61.110     -225.566      -62.999      171.152      141.380       90.733    29292.964    19988.216     8232.566        5.804        2.876      233.697       70.683        0.091      334.219        4.043      845.844
12/13/2021  20:11:00        9.454     -306.504      -45.065      134.129      176.281       75.328    17990.709    31075.061     5674.313        7.539        2.737      306.650       52.644        0.029      334.169        3.959      845.837
12/13/2021  20:12:00       20.284     -197.692      -65.263      108.479      128.534       69.388    11767.725    16520.971     4814.746        3.842        1.655      198.730       46.199        0.054      334.188        3.993      845.778
12/13/2021  20:13:00       93.619     -233.299      -53.848      101.915      122.278       61.418    10386.567    14952.024     3772.187        4.760        1.456      251.382       40.191        0.026      334.071        3.799      845.740
12/13/2021  20:14:00      -23.964     -111.755      -40.689       84.704       72.994       44.882     7174.790     5328.158     2014.368        1.462        0.726      114.295       16.817        0.022      334.130        3.897      845.789
12/13/2021  20:15:00       -8.513      -38.836      -10.163       61.914       56.623       35.900     3833.366     3206.158     1288.846        0.500        0.416       39.758       23.647        0.354      334.195        4.006      845.927
12/13/2021  20:16:00      -56.736       31.846       -9.040       67.530       48.689       40.568     4560.331     2370.651     1645.742        0.644        0.429       65.062       33.613        0.267      334.117        3.877      845.949
12/13/2021  20:17:00      -57.286      -87.943      -21.610      127.233      109.997       61.003    16188.351    12099.360     3721.411        2.174        1.600      104.955       37.748        0.129      334.193        4.000      845.982
12/13/2021  20:18:00      -69.838      -95.940      -13.972       53.161       95.008       37.831     2826.143     9026.458     1431.218        1.378        0.664      118.667       33.565        0.080      334.227        4.059      846.038
12/13/2021  20:19:00      -17.106      -32.507       -8.227       71.444       82.066       46.425     5104.223     6734.758     2155.287        0.770        0.700       36.733       35.029        0.909      334.177        3.976      846.030
12/13/2021  20:20:00      -95.226     -158.036      -22.166       95.714      163.961       52.680     9161.096    26883.180     2775.145        3.667        1.941      184.508       69.103        0.140      334.179        3.979      845.977
12/13/2021  20:21:00      -55.279     -156.792      -43.622      117.531       90.867       59.857    13813.646     8256.883     3582.822        2.759        1.283      166.251       37.856        0.052      334.273        4.132      845.951
12/13/2021  20:22:00      -65.754     -240.030      -57.317      101.124      167.531       64.821    10226.105    28066.762     4201.764        5.385        2.125      248.873       62.011        0.062      334.298        4.176      845.949
12/13/2021  20:23:00        9.528     -116.852      -23.633       87.079       92.939       51.573     7582.670     8637.714     2659.754        1.659        0.944      117.239       42.544        0.132      334.295        4.171      845.937
12/13/2021  20:24:00      -80.344     -189.671      -36.911      123.193      222.668       66.003    15176.432    49580.924     4356.443        5.644        3.456      205.987       77.962        0.143      334.262        4.116      846.023
12/13/2021  20:25:00      -68.743      -52.955      -25.627       92.519      107.856       60.125     8559.800    11633.016     3615.068        1.599        1.190       86.775       49.542        0.326      334.248        4.094      845.949
12/13/2021  20:26:00     -120.454      -22.309      -11.572      137.956       82.345       49.751    19031.856     6780.722     2475.174        2.171        1.414      122.502       47.468        0.150      334.170        3.964      845.973
12/13/2021  20:27:00      -35.097      -48.152      -17.048       91.518      130.144       49.322     8375.634    16937.543     2432.671        1.579        1.387       59.585       37.078        0.387      334.179        3.979      845.996
12/13/2021  20:28:00      -57.420     -101.146      -41.508      119.089      115.870       73.646    14182.307    13425.893     5423.692        2.414        1.652      116.308       61.895        0.283      334.280        4.146      846.122
12/13/2021  20:29:00     -184.929     -204.495      -48.052      167.464      146.243       86.569    28044.244    21386.969     7494.147        6.762        2.846      275.712       52.951        0.037      334.298        4.175      846.119
12/13/2021  20:30:00     -140.625     -250.302      -46.196      221.105      159.517       80.423    48887.371    25445.780     6467.799        8.267        4.040      287.100       61.448        0.046      334.200        4.011      845.978
12/13/2021  20:31:00      -35.318      -87.136      -22.005       83.483       79.431       44.860     6969.360     6309.285     2012.425        1.230        0.765       94.021       28.037        0.089      334.254        4.104      846.046
12/13/2021  20:32:00      -65.489      -36.532      -24.180       80.450      105.300       44.802     6472.164    11087.992     2007.189        1.288        0.978       74.990       36.481        0.237      334.253        4.103      846.118
12/13/2021  20:33:00     -163.563      -33.012      -27.546      124.399       78.273       50.572    15474.990     6126.610     2557.479        2.638        1.208      166.861       51.853        0.097      334.186        3.990      846.142
12/13/2021  20:34:00      -85.684      -75.438       -2.928      153.853      148.719       70.073    23670.819    22117.395     4910.284        3.186        2.535      114.160       71.027        0.387      334.173        3.969      846.131
12/13/2021  20:35:00      -42.260      -24.556        2.485       90.875      159.529       60.717     8258.190    25449.414     3686.577        1.989        1.870       48.876       59.901        1.502      334.158        3.945      846.086
12/13/2021  20:36:00      -56.951      -91.606      -40.588       71.108      102.231       66.731     5056.288    10451.124     4453.015        1.662        0.998      107.867       47.591        0.195      334.210        4.031      846.083
12/13/2021  20:37:00      -55.548     -171.577      -22.925       82.722      114.405       49.975     6843.004    13088.534     2497.497        2.774        1.121      180.345       42.317        0.055      334.297        4.175      846.083
12/13/2021  20:38:00      -43.088        2.078      -21.365       52.012       62.544       33.825     2705.267     3911.714     1144.150        0.504        0.388       43.138       31.674        0.539      334.216        4.043      846.171
12/13/2021  20:39:00      -48.119      -40.006      -14.446       63.265       90.599       43.664     4002.512     8208.220     1906.564        0.912        0.706       62.577       39.680        0.402      334.246        4.093      846.215
12/13/2021  20:40:00      -17.444      -40.441      -10.820       70.930       60.305       39.895     5031.124     3636.648     1591.619        0.616        0.513       44.043       25.295        0.330      334.208        4.026      846.291
12/13/2021  20:41:00      -90.646      -39.255       -8.039       83.800       67.479       54.488     7022.393     4553.427     2968.926        1.218        0.727       98.780       15.948        0.026      334.176        3.974      846.341
12/13/2021  20:42:00      -49.895     -108.548      -30.426       87.684       94.312       59.089     7688.557     8894.729     3491.463        1.763        1.004      119.466       29.995        0.063      334.202        4.016      846.243
12/13/2021  20:43:00      -49.334      -45.680      -30.969       89.723       93.005       47.163     8050.231     8649.993     2224.359        1.220        0.946       67.234       40.441        0.362      334.159        3.946      846.131
12/13/2021  20:44:00      -85.131     -235.014      -58.812      151.025      116.023       50.349    22808.415    13461.327     2535.041        5.236        1.940      249.958       50.370        0.041      334.210        4.027      846.158
12/13/2021  20:45:00      -63.581     -105.003      -16.974      141.002      100.691       60.369    19881.642    10138.776     3644.439        2.450        1.683      122.752       44.715        0.133      334.222        4.052      846.327
12/13/2021  20:46:00      -13.377      -98.133      -36.882      124.774       72.406       52.243    15568.530     5242.644     2729.301        1.735        1.177       99.041       38.486        0.151      334.322        4.217      846.396
12/13/2021  20:47:00       12.107     -263.704      -33.928      164.572      213.896       89.147    27083.910    45751.452     7947.101        7.580        4.039      263.981      110.558        0.175      334.297        4.173      846.443
12/13/2021  20:48:00     -155.432     -306.158      -48.558      155.072      128.512       99.261    24047.450    16515.401     9852.773        8.532        2.521      343.354       68.833        0.040      334.233        4.066      846.417
12/13/2021  20:49:00      -67.606     -272.254      -51.043      151.717      144.705       64.441    23018.108    20939.540     4152.619        6.470        2.406      280.522       53.162        0.036      334.272        4.132      846.338
12/13/2021  20:50:00      -39.633     -159.118      -26.021      106.443      104.059       62.184    11330.114    10828.217     3866.891        2.679        1.301      163.980       47.877        0.085      334.329        4.226      846.393
12/13/2021  20:51:00      -35.439     -290.021      -41.585      204.534      188.677       84.192    41834.232    35599.023     7088.281        8.579        4.226      292.178       86.082        0.087      334.250        4.095      846.404
12/13/2021  20:52:00      -29.341     -174.093      -46.643      115.837      141.769       87.509    13418.098    20098.376     7657.752        3.725        2.059      176.548       46.612        0.070      334.236        4.072      846.398
12/13/2021  20:53:00     -137.039     -197.856      -47.832      141.924      187.645       89.764    20142.427    35210.637     8057.574        6.180        3.171      240.680       63.964        0.071      334.226        4.055      846.517
12/13/2021  20:54:00      -67.019     -188.520      -53.725      141.113      137.980       61.673    19913.011    19038.370     3803.589        4.283        2.138      200.078       51.978        0.067      334.251        4.099      846.498
12/13/2021  20:55:00     -155.733     -260.464      -34.955      140.805      171.680       75.325    19825.948    29473.956     5673.900        7.413        2.749      303.471       62.862        0.043      334.183        3.984      846.442
12/13/2021  20:56:00     -156.011     -255.505      -41.657      133.302      126.060       87.364    17769.429    15891.199     7632.527        6.632        2.065      299.370       52.417        0.031      334.213        4.032      846.348
12/13/2021  20:57:00      -93.873     -290.552      -49.556      149.042      120.044       84.165    22213.463    14410.545     7083.768        6.969        2.185      305.340       57.156        0.035      334.206        4.022      846.367
12/13/2021  20:58:00     -102.223     -316.014      -59.503      169.419      127.026       71.774    28702.826    16135.665     5151.446        8.191        2.499      332.136       70.318        0.045      334.191        3.997      846.433
12/13/2021  20:59:00       -1.536     -178.344      -34.077       97.913      130.581       57.025     9587.017    17051.436     3251.838        3.142        1.495      178.351       60.519        0.115      334.238        4.077      846.438
12/13/2021  21:00:00      -88.324     -253.964      -37.472      161.259      179.099       88.411    26004.517    32076.392     7816.512        6.979        3.295      268.885       82.701        0.095      334.227        4.056      846.403
12/13/2021  21:01:00       -2.457     -191.505      -44.363      126.005      136.320       58.203    15877.304    18583.031     3387.549        3.824        1.892      191.521       42.165        0.048      334.226        4.056      846.324
12/13/2021  21:02:00       59.453     -140.626      -50.707      128.229       91.870       75.509    16442.789     8440.174     5701.653        2.823        1.529      152.677       53.219        0.122      334.133        3.901      846.132
12/13/2021  21:03:00       29.842      -76.209      -43.310      125.665      106.345       50.030    15791.685    11309.327     2502.985        1.908        1.480       81.843       45.625        0.311      334.137        3.907      846.149
12/13/2021  21:04:00      159.308     -268.033      -71.132      144.045      144.261       78.633    20748.871    20811.132     6183.168        7.500        2.387      311.802       85.211        0.075      334.114        3.869      846.108
12/13/2021  21:05:00      138.761     -281.366      -65.099      126.342      117.595       59.166    15962.202    13828.517     3500.563        6.797        1.665      313.722       75.676        0.058      334.105        3.853      846.085
12/13/2021  21:06:00       -0.145     -150.814      -34.557      123.290      175.386       61.177    15200.326    30760.121     3742.674        3.681        2.485      150.815       73.881        0.240      334.190        3.997      846.168
12/13/2021  21:07:00      -10.156     -325.115      -57.734      193.901      179.676       76.122    37597.678    32283.440     5794.580        9.239        3.784      325.274       80.981        0.062      334.218        4.042      846.123
12/13/2021  21:08:00        9.736     -233.119      -89.088      224.598      178.897      114.023    50444.436    32004.157    13001.295        7.890        4.772      233.322       83.450        0.128      334.180        3.977      846.100
12/13/2021  21:09:00       16.315     -246.370      -52.328       93.286      123.411       83.166     8702.319    15230.201     6916.655        4.727        1.542      246.909       37.173        0.023      334.325        4.221      846.148
12/13/2021  21:10:00      162.517     -307.450      -84.669      135.457      184.614       75.932    18348.599    34082.372     5765.599        9.314        2.910      347.761       72.793        0.044      334.212        4.033      846.156
12/13/2021  21:11:00      110.933     -301.928      -54.760      160.102      186.342       79.653    25632.626    34723.402     6344.668        8.657        3.335      321.662       81.020        0.063      334.249        4.093      846.062
12/13/2021  21:12:00      128.516     -288.547      -55.408      173.861      197.119       78.732    30227.730    38855.833     6198.659        8.905        3.764      315.873      108.835        0.119      334.222        4.049      845.968
12/13/2021  21:13:00      145.387     -477.458      -78.962      116.011      177.161       66.121    13458.491    31386.016     4371.921       15.227        2.461      499.103       51.162        0.011      334.195        4.003      845.937
12/13/2021  21:14:00       65.038     -278.448      -61.826      102.922      131.369       59.718    10592.841    17257.841     3566.259        5.850        1.571      285.943       60.809        0.045      334.243        4.083      845.898
12/13/2021  21:15:00        4.691     -231.745      -33.496      142.792      135.676       67.854    20389.426    18408.094     4604.215        4.912        2.170      231.792       33.279        0.021      334.262        4.115      845.815
12/13/2021  21:16:00       59.552     -242.732      -58.221      146.030      159.886       83.706    21324.880    25563.572     7006.639        5.987        2.695      249.930       54.190        0.047      334.289        4.159      845.785
12/13/2021  21:17:00       11.980     -208.726      -30.143       99.863      162.792       72.783     9972.588    26501.259     5297.293        4.319        2.089      209.070       62.423        0.089      334.265        4.121      845.739
12/13/2021  21:18:00      149.226     -365.928      -78.788      137.435      224.304       68.480    18888.367    50312.318     4689.479       11.812        3.695      395.185       50.238        0.016      334.211        4.029      845.710
12/13/2021  21:19:00      144.249     -494.037      -80.098      152.167      186.075       78.154    23154.707    34623.955     6108.104       16.758        3.194      514.666       63.726        0.015      334.235        4.069      845.653
12/13/2021  21:20:00      125.050     -328.923      -80.882      121.409      165.675       63.137    14740.035    27448.207     3986.233        8.826        2.309      351.891       32.111        0.008      334.244        4.085      845.679
12/13/2021  21:21:00      188.264     -469.253      -83.151      161.947      168.295       90.587    26226.891    28323.264     8205.920       16.264        3.138      505.610       68.694        0.018      334.222        4.047      845.724
12/13/2021  21:22:00      -41.424     -346.936      -43.173      137.250      186.881       89.476    18837.568    34924.417     8005.951        9.284        3.088      349.400       83.219        0.057      334.389        4.325      845.775
12/13/2021  21:23:00       -6.558     -186.311      -42.718      141.377      141.414       74.024    19987.466    19997.882     5479.490        4.101        2.273      186.427       47.288        0.064      334.377        4.308      845.829
12/13/2021  21:24:00        4.227     -232.320      -61.056      177.219      127.116       83.253    31406.439    16158.414     6931.128        5.610        2.725      232.358       43.444        0.035      334.332        4.231      845.854
12/13/2021  21:25:00      -53.359      -69.126      -31.627       68.226       57.501       54.117     4654.773     3306.332     2928.692        0.976        0.544       87.324       26.920        0.095      334.305        4.189      845.894
12/13/2021  21:26:00      -17.102      -58.736       -8.524       72.563       78.590       48.858     5265.377     6176.423     2387.070        0.882        0.691       61.175       32.570        0.283      334.340        4.248      845.862
12/13/2021  21:27:00       44.417      -80.140      -55.451      127.137      100.950       62.690    16163.928    10190.998     3929.998        2.087        1.514       91.626       61.835        0.455      334.294        4.169      845.792
12/13/2021  21:28:00     -106.761      -91.914      -42.539       83.119       77.710       58.915     6908.831     6038.887     3471.019        1.903        0.821      140.876       33.102        0.055      334.348        4.258      845.852
12/13/2021  21:29:00      -10.196      -95.248      -34.105      113.127      104.186       67.377    12797.632    10854.694     4539.611        1.926        1.410       95.792       28.020        0.086      334.310        4.196      845.848
12/13/2021  21:30:00      -47.288      -13.278      -13.506       64.111       69.707       26.404     4110.251     4859.077      697.193        0.613        0.483       49.117       18.566        0.143      334.324        4.221      845.855
12/13/2021  21:31:00      -45.792     -161.985      -31.324      126.843      119.888       47.588    16089.098    14373.237     2264.645        3.102        1.636      168.334       41.012        0.059      334.379        4.311      845.845
12/13/2021  21:32:00        2.669     -169.913      -34.715      141.611      101.036       58.443    20053.565    10208.326     3415.576        3.187        1.684      169.934       45.081        0.070      334.353        4.266      845.787
12/13/2021  21:33:00       34.121      -43.227      -21.797      115.141       81.343       73.087    13257.441     6616.617     5341.717        1.436        1.261       55.071       45.053        0.669      334.314        4.204      845.689
12/13/2021  21:34:00       32.493     -116.453      -32.297       90.014       67.517       39.547     8102.507     4558.555     1563.998        1.494        0.711      120.901       36.884        0.093      334.351        4.264      845.660
12/13/2021  21:35:00       97.383      -83.928      -47.377      114.117      140.998       77.637    13022.677    19880.333     6027.461        2.884        1.947      128.558       58.744        0.209      334.240        4.080      845.594
12/13/2021  21:36:00      101.660     -342.090      -84.289      111.437      129.939       65.521    12418.119    16884.104     4292.971        8.402        1.680      356.876       48.587        0.019      334.325        4.221      845.572
12/13/2021  21:37:00       -9.495      -68.487      -43.211       94.811       93.877       55.642     8989.202     8812.808     3096.050        1.377        1.045       69.142       60.510        0.766      334.250        4.096      845.639
12/13/2021  21:38:00      117.949     -165.101      -28.070       84.371       99.527       50.822     7118.410     9905.536     2582.864        3.078        0.980      202.905       43.071        0.045      334.235        4.070      845.665
12/13/2021  21:39:00      -17.564     -142.813      -30.851      140.948      172.454       83.066    19866.464    29740.474     6900.042        3.907        2.825      143.889       69.933        0.236      334.294        4.169      845.605
12/13/2021  21:40:00      -32.332      -46.819      -17.842       83.601       74.298       43.573     6989.051     5520.197     1898.580        0.898        0.720       56.897       28.296        0.247      334.313        4.202      845.648
12/13/2021  21:41:00       20.356     -188.779      -19.849       92.694      116.909       63.670     8592.200    13667.718     4053.854        3.138        1.316      189.874       44.199        0.054      334.439        4.409      845.608
12/13/2021  21:42:00       28.077     -130.748      -42.089      106.356      120.451       51.755    11311.515    14508.410     2678.591        2.407        1.425      133.728       52.645        0.155      334.324        4.221      845.561
12/13/2021  21:43:00       43.601     -105.656      -30.357       84.565       89.758       41.053     7151.233     8056.534     1685.370        1.544        0.845      114.299       45.309        0.157      334.340        4.248      845.503
12/13/2021  21:44:00      -50.018     -281.115      -36.023      164.191      169.126       87.082    26958.704    28603.673     7583.233        7.297        3.157      285.530       81.423        0.081      334.385        4.320      845.429
12/13/2021  21:45:00       33.232     -277.617      -25.404       98.857      154.854       66.921     9772.726    23979.860     4478.414        5.852        1.912      279.599       65.651        0.055      334.393        4.333      845.432
12/13/2021  21:46:00      100.750     -316.245      -73.779      130.405      176.692       67.148    17005.387    31220.140     4508.856        8.416        2.637      331.905       77.127        0.054      334.323        4.217      845.454
12/13/2021  21:47:00      -46.689     -121.601      -37.964      113.906      126.216       64.069    12974.471    15930.414     4104.799        2.570        1.650      130.256       48.194        0.137      334.403        4.348      845.489
12/13/2021  21:48:00       62.412     -131.560      -31.086       74.748       93.846       43.999     5587.208     8807.092     1935.914        1.925        0.817      145.613       47.292        0.105      334.381        4.315      845.500
12/13/2021  21:49:00       12.992     -149.983      -38.868      114.508      112.607       52.662    13112.016    12680.433     2773.266        2.636        1.428      150.545       24.554        0.027      334.369        4.295      845.488
12/13/2021  21:50:00      -45.585      -56.287      -26.416      100.952      100.250       53.397    10191.260    10050.161     2851.211        1.451        1.155       72.431       35.277        0.237      334.394        4.335      845.470
12/13/2021  21:51:00       81.725     -264.220      -46.042      109.844      214.769       68.394    12065.756    46125.874     4677.715        7.073        3.143      276.571       73.064        0.070      334.358        4.275      845.459
12/13/2021  21:52:00       82.962     -318.211      -41.289       78.722      148.170       64.125     6197.197    21954.341     4111.974        7.105        1.613      328.848       60.048        0.033      334.339        4.244      845.433
12/13/2021  21:53:00       -7.630      -25.516       -8.795       58.161      100.351       41.515     3382.756    10070.294     1723.481        0.798        0.759       26.632       39.104        2.156      334.339        4.246      845.449
12/13/2021  21:54:00       31.719     -172.026      -35.672      107.447      112.679       69.407    11544.923    12696.608     4817.357        3.046        1.453      174.925       70.739        0.164      334.382        4.315      845.456
12/13/2021  21:55:00     -141.106     -128.606      -45.482      151.856      163.198       80.637    23060.253    26633.659     6502.324        4.735        2.810      190.920       60.680        0.101      334.354        4.269      845.437
12/13/2021  21:56:00      -73.668     -205.016      -39.569      152.683      145.596      100.591    23312.121    21198.219    10118.640        5.182        2.731      217.850       72.775        0.112      334.375        4.303      845.426
12/13/2021  21:57:00       51.218     -254.939      -45.046      185.666      154.126       97.932    34471.858    23754.679     9590.597        6.872        3.391      260.033       85.170        0.107      334.356        4.272      845.393
12/13/2021  21:58:00     -151.724     -101.849      -30.262      146.755      132.226       59.032    21537.001    17483.638     3484.772        3.840        2.125      182.739       46.617        0.065      334.382        4.315      845.334
12/13/2021  21:59:00     -107.200     -225.991      -47.933      194.585      171.523       79.305    37863.214    29420.131     6289.318        6.920        3.679      250.127       58.564        0.055      334.390        4.327      845.368
12/13/2021  22:00:00      -50.440     -121.571      -38.690      157.127      100.485       58.362    24688.753    10097.209     3406.102        2.850        1.910      131.620       50.381        0.147      334.373        4.303      845.379
12/13/2021  22:01:00      -87.216     -166.652      -32.569      107.779      133.735       60.086    11616.301    17885.141     3610.329        3.477        1.656      188.094       29.572        0.025      334.344        4.252      845.424
12/13/2021  22:02:00      -70.854     -188.792      -55.800      121.198      125.384       46.403    14689.010    15721.057     2153.200        3.816        1.628      201.650       20.678        0.011      334.378        4.308      845.411
12/13/2021  22:03:00       11.065     -119.053      -50.564      113.985      106.529       62.023    12992.478    11348.467     3846.889        2.252        1.409      119.566       51.323        0.184      334.329        4.228      845.442
12/13/2021  22:04:00      -26.946     -276.154      -49.828      144.274      196.878       71.064    20814.865    38760.958     5050.154        7.204        3.231      277.465       79.136        0.081      334.317        4.207      845.460
12/13/2021  22:05:00        1.134     -190.730      -31.225       93.436      119.497       67.698     8730.291    14279.422     4582.964        3.247        1.380      190.733       31.385        0.027      334.333        4.236      845.423
12/13/2021  22:06:00      -42.212     -211.077      -49.248      155.501      130.060       62.843    24180.600    16915.531     3949.288        4.689        2.252      215.257       51.845        0.058      334.335        4.237      845.428
12/13/2021  22:07:00      -21.598     -178.030      -37.672      111.341      114.903       55.003    12396.882    13202.645     3025.380        3.110        1.431      179.335       40.175        0.050      334.329        4.227      845.418
12/13/2021  22:08:00      -19.664      -93.960      -32.949      154.474      121.688       67.437    23862.097    14807.917     4547.722        2.675        2.161       95.995       37.961        0.156      334.317        4.208      845.480
12/13/2021  22:09:00      -37.878      -70.250      -34.101       67.907       80.795       48.453     4611.392     6527.880     2347.710        1.051        0.674       79.811       18.645        0.055      334.303        4.187      845.547
12/13/2021  22:10:00      -50.268      -61.710       -9.564       76.962       80.681       53.702     5923.222     6509.498     2883.889        1.087        0.766       79.593       51.208        0.414      334.298        4.177      845.609
12/13/2021  22:11:00      -36.419      -59.061      -20.455       82.976       97.279       45.856     6885.093     9463.146     2102.768        1.184        0.923       69.387       38.122        0.302      334.281        4.149      845.658
12/13/2021  22:12:00       18.573     -196.584      -42.258      147.187      229.752       85.820    21663.873    52785.973     7365.121        6.128        4.091      197.459      113.449        0.330      334.293        4.167      845.716
12/13/2021  22:13:00      -85.643     -190.472      -26.907      138.980      157.115       83.131    19315.548    24685.128     6910.831        4.762        2.546      208.840       76.798        0.135      334.300        4.179      845.800
12/13/2021  22:14:00      -74.708     -124.746      -26.046      132.675      122.201       60.187    17602.652    14932.962     3622.454        2.898        1.808      145.406       50.284        0.120      334.263        4.118      845.911
12/13/2021  22:15:00      116.355     -375.658     -106.882      200.500      206.713       88.706    40200.068    42730.190     7868.808       12.842        4.540      393.265       39.303        0.010      334.118        3.877      845.907
12/13/2021  22:16:00     -159.403     -250.528      -40.612      124.977      150.007       75.386    15619.166    22502.138     5682.975        6.681        2.190      296.940       64.909        0.048      334.160        3.945      845.919
12/13/2021  22:17:00      -85.183     -160.982      -21.715      197.832      118.097       59.314    39137.640    13946.858     3518.127        4.511        2.830      182.130       60.505        0.110      334.109        3.863      845.941
12/13/2021  22:18:00      -82.403      -32.298      -20.509       70.874       66.918       53.729     5023.084     4478.001     2886.842        1.032        0.619       88.506       38.807        0.192      334.049        3.765      845.990
12/13/2021  22:19:00      -83.271      -68.074      -20.615      129.733       92.195       55.477    16830.637     8499.854     3077.651        2.020        1.420      107.555       28.341        0.069      334.096        3.840      846.020
12/13/2021  22:20:00      -39.581     -146.052      -44.623      105.695       89.716       45.574    11171.420     8048.938     2077.003        2.309        1.065      151.321       42.120        0.077      334.121        3.882      846.062
12/13/2021  22:21:00     -162.630      -32.530       -6.052      117.045       71.930       53.281    13699.540     5173.908     2838.866        2.462        1.086      165.851       37.936        0.052      334.021        3.717      846.089
12/13/2021  22:22:00     -108.113     -140.599      -31.771      122.551      114.494       67.911    15018.702    13108.922     4611.883        3.260        1.637      177.360       33.027        0.035      333.935        3.575      846.140
12/13/2021  22:23:00      -45.879     -190.183      -23.376      173.146      186.759       78.831    29979.396    34878.880     6214.357        5.493        3.554      195.639       70.826        0.131      333.978        3.646      846.176
12/13/2021  22:24:00     -140.235     -276.001      -44.934      176.488      155.536       72.034    31147.990    24191.462     5188.883        7.918        3.026      309.585       71.630        0.054      333.909        3.530      846.169
12/13/2021  22:25:00     -102.221     -255.782      -53.169      148.981      162.847       76.581    22195.231    26519.203     5864.640        6.663        2.729      275.452       57.678        0.044      333.837        3.411      846.220
12/13/2021  22:26:00     -179.418     -172.156      -32.490       76.014      150.589       66.283     5778.057    22677.123     4393.416        4.786        1.642      248.654       53.802        0.047      333.827        3.393      846.302
12/13/2021  22:27:00     -110.075     -122.149      -25.449      168.349      130.284       76.106    28341.515    16973.994     5792.060        3.939        2.555      164.428       54.340        0.109      333.744        3.257      846.350
12/13/2021  22:28:00     -136.211      -63.267      -17.222      114.802       78.808       58.587    13179.511     6210.725     3432.470        2.283        1.141      150.187       54.515        0.132      333.702        3.188      846.394
12/13/2021  22:29:00      -78.115      -91.744       -5.725       86.395      106.393       53.898     7464.091    11319.409     2904.987        1.812        1.084      120.495       52.593        0.191      333.719        3.217      846.432
12/13/2021  22:30:00      -99.531     -108.799      -38.147      114.202      110.195       65.205    13041.994    12142.875     4251.720        2.631        1.472      147.458       20.611        0.020      333.616        3.046      846.509
12/13/2021  22:31:00     -138.302     -129.995      -35.345       99.101      101.677       57.855     9820.953    10338.199     3347.229        3.039        1.175      189.805       40.245        0.045      333.514        2.874      846.504
12/13/2021  22:32:00     -110.318      -50.144      -15.687      117.870       95.635       56.813    13893.285     9145.975     3227.754        2.059        1.313      121.180       43.278        0.128      333.551        2.938      846.452
12/13/2021  22:33:00     -249.466      -64.733      -25.482      146.486      119.372       71.909    21458.133    14249.741     5170.919        5.397        2.044      257.728       74.540        0.084      333.398        2.684      846.407
12/13/2021  22:34:00      -73.745      -18.861        3.955      101.176       85.433       50.580    10236.541     7298.834     2558.349        1.295        1.005       76.119       30.319        0.159      333.379        2.655      846.396
12/13/2021  22:35:00       25.858      -36.017      -21.123       49.998       72.813       40.156     2499.845     5301.714     1612.478        0.591        0.471       44.338       31.944        0.519      333.410        2.708      846.414
12/13/2021  22:36:00      -54.104      -34.057      -24.160       89.403       47.261       47.138     7992.824     2233.588     2221.999        0.856        0.622       63.931       23.933        0.140      333.406        2.699      846.431
12/13/2021  22:37:00       13.066      -63.086      -30.043       71.615       35.228       32.763     5128.708     1241.001     1073.437        0.625        0.372       64.425       20.492        0.101      333.437        2.751      846.354
12/13/2021  22:38:00       -9.262      -80.482      -11.114       58.047      102.087       31.721     3369.430    10421.830     1006.194        1.074        0.740       81.013       27.529        0.115      333.472        2.810      846.309
12/13/2021  22:39:00      -43.324       -6.603       -7.560       40.770       25.158       26.743     1662.191      632.912      715.199        0.249        0.151       43.824       19.860        0.205      333.352        2.613      846.301
12/13/2021  22:40:00      -61.344       -5.768       -2.039       69.054       33.320       29.134     4768.514     1110.204      848.784        0.526        0.336       61.614       25.248        0.168      333.332        2.579      846.306
12/13/2021  22:41:00      -36.164      -41.347      -21.547       58.702       36.965       28.783     3445.947     1366.411      828.442        0.456        0.282       54.931       24.563        0.200      333.335        2.583      846.317
12/13/2021  22:42:00        7.231      -65.937      -18.375       53.471       52.597       32.325     2859.098     2766.424     1044.902        0.570        0.334       66.332       14.656        0.049      333.368        2.640      846.360
12/13/2021  22:43:00      -62.928        0.095       -1.293       60.914       37.568       24.931     3710.488     1411.374      621.552        0.485        0.287       62.929       29.126        0.214      333.274        2.483      846.381
12/13/2021  22:44:00     -132.451       -7.060      -11.058       44.212       47.303       27.538     1954.677     2237.558      758.344        1.133        0.248      132.639       17.328        0.017      333.253        2.447      846.369
12/13/2021  22:45:00      -50.001       -7.777       -0.877       40.340       31.858       29.033     1627.307     1014.956      842.897        0.302        0.174       50.602       19.396        0.147      333.240        2.426      846.328
12/13/2021  22:46:00       24.231       -6.764      -14.002       38.470       31.090       16.212     1479.903      966.563      262.842        0.177        0.135       25.157       17.096        0.462      333.252        2.446      846.332
12/13/2021  22:47:00       41.450      -33.861      -12.901       64.106       43.981       23.264     4109.573     1934.330      541.225        0.481        0.329       53.523       20.064        0.141      333.342        2.595      846.352
12/13/2021  22:48:00       23.191       -4.602      -21.206       48.822       45.321       22.073     2383.551     2053.950      487.232        0.297        0.246       23.643       23.336        0.974      333.252        2.446      846.375
12/13/2021  22:49:00       85.530     -182.362      -20.420       51.062       74.429       36.112     2607.377     5539.626     1304.098        2.522        0.473      201.423       28.218        0.020      333.183        2.331      846.367
12/13/2021  22:50:00       85.492     -198.431      -44.311       70.381       87.101       38.655     4953.445     7586.562     1494.225        3.134        0.702      216.064       40.152        0.035      333.114        2.214      846.358
12/13/2021  22:51:00       87.928     -116.833      -37.026       58.034       68.032       39.378     3367.935     4628.305     1550.657        1.615        0.477      146.224       28.155        0.037      333.055        2.122      846.349
12/13/2021  22:52:00      -39.649      -65.039      -20.570       55.112       40.337       22.197     3037.307     1627.104      492.710        0.569        0.258       76.171       12.150        0.025      333.277        2.487      846.317
12/13/2021  22:53:00       -3.678       -4.330        6.674       19.900       34.186       24.998      395.995     1168.682      624.879        0.113        0.109        5.681       21.160       13.872      333.233        2.415      846.278
12/13/2021  22:54:00       12.001       -1.078       -9.526       17.275       27.570       11.930      298.415      760.116      142.315        0.072        0.060       12.049       13.030        1.169      333.203        2.363      846.222
12/13/2021  22:55:00       -1.912       29.816       -3.597       13.322       22.738       12.245      177.484      517.037      149.946        0.087        0.042       29.878       12.185        0.166      333.138        2.258      846.154
12/13/2021  22:56:00      -29.451       51.661      -11.590       19.627       13.930        9.565      385.226      194.058       91.484        0.217        0.034       59.466        8.911        0.022      333.112        2.216      846.092
12/13/2021  22:57:00      -17.086       44.784      -11.055       19.911       16.550       11.834      396.458      273.900      140.039        0.161        0.041       47.933        6.520        0.019      333.096        2.189      846.036
12/13/2021  22:58:00        8.445       17.615       -6.260       10.913       11.836       10.340      119.103      140.098      106.920        0.039        0.018       19.535        6.770        0.120      333.051        2.114      845.973
12/13/2021  22:59:00       89.841      -36.072      -22.453       38.705       39.658       23.710     1498.115     1572.722      562.175        0.675        0.182       96.813       22.441        0.054      332.923        1.902      845.949
12/13/2021  23:00:00       64.762      -53.892      -19.806       28.043       41.091       24.249      786.415     1688.504      588.002        0.528        0.153       84.252       22.526        0.071      332.981        1.998      846.003
12/13/2021  23:01:00       -4.119      -30.838      -22.851       50.684       34.684       21.275     2568.911     1202.978      452.627        0.286        0.211       31.112       11.842        0.145      333.067        2.141      846.049
12/13/2021  23:02:00       97.113     -111.797      -59.514       40.513       48.641       24.600     1641.293     2365.927      605.166        1.504        0.231      148.086       21.642        0.021      332.925        1.905      846.066
12/13/2021  23:03:00       42.147     -165.133      -32.181      103.943       83.303       40.727    10804.210     6939.375     1658.682        2.474        0.970      170.426       36.340        0.045      333.326        2.567      846.105
12/13/2021  23:04:00       79.318     -118.824      -26.248       81.961       90.180       40.218     6717.650     8132.403     1617.481        1.878        0.823      142.865       20.711        0.021      333.261        2.459      846.148
12/13/2021  23:05:00      103.875     -164.381      -33.030       60.736       75.621       49.529     3688.854     5718.511     2453.102        2.538        0.593      194.451       37.057        0.036      333.148        2.272      846.127
12/13/2021  23:06:00       56.437      -49.396      -19.710       53.250       51.280       44.955     2835.551     2629.678     2020.965        0.675        0.374       75.000       35.748        0.227      333.139        2.260      846.145
12/13/2021  23:07:00       -1.211      -44.884      -20.064       54.956       62.522       23.841     3020.142     3909.001      568.375        0.496        0.375       44.900       21.961        0.239      333.080        2.162      846.226
12/13/2021  23:08:00       51.431     -122.706      -26.714       48.366       42.247       32.464     2339.300     1784.794     1053.926        1.180        0.259      133.048       30.678        0.053      332.999        2.027      846.305
12/13/2021  23:09:00      -29.697      -50.635      -28.326       46.703       46.783       28.006     2181.169     2188.659      784.351        0.470        0.258       58.701       16.632        0.080      333.055        2.119      846.329
12/13/2021  23:10:00       20.559        9.224      -25.642       26.654       32.224       24.481      710.458     1038.380      599.302        0.176        0.117       22.533       11.287        0.251      333.008        2.043      846.267
12/13/2021  23:11:00       28.916      -26.839      -17.100       22.998       30.176       18.554      528.923      910.588      344.251        0.182        0.089       39.452       10.797        0.075      333.083        2.168      846.220
12/13/2021  23:12:00        8.917       -6.725      -17.423       29.925       39.025       17.123      895.521     1522.964      293.196        0.157        0.136       11.169       22.070        3.905      333.103        2.200      846.223
12/13/2021  23:13:00      -10.796       32.532       -2.278       13.516       13.523       10.346      182.689      182.861      107.036        0.083        0.024       34.277        6.501        0.036      333.024        2.068      846.233
12/13/2021  23:14:00      -40.306       42.111      -11.831       12.126       18.140       12.908      147.050      329.066      166.620        0.209        0.032       58.292        9.772        0.028      332.983        2.001      846.237
12/13/2021  23:15:00      -53.556       62.003       -7.188       10.826       10.965        7.042      117.192      120.226       49.597        0.353        0.014       81.931        4.474        0.003      332.934        1.922      846.164
12/13/2021  23:16:00       -8.777       43.163      -14.793       29.588       18.647       16.449      875.460      347.714      270.578        0.183        0.075       44.046        9.233        0.044      333.063        2.135      846.029
12/13/2021  23:17:00      -32.282       30.569       -6.067       41.511       30.924       14.796     1723.198      956.265      218.922        0.246        0.145       44.459       14.723        0.110      333.091        2.181      846.001
12/13/2021  23:18:00      -18.449       37.006       -1.261       31.349       19.611       16.365      982.733      384.595      267.806        0.167        0.082       41.350       15.680        0.144      333.028        2.075      846.086
12/13/2021  23:19:00       -4.953       -0.102      -10.580       15.385       21.895       11.468      236.687      479.390      131.505        0.049        0.042        4.954       10.228        4.262      332.966        1.971      846.128
12/13/2021  23:20:00       31.115        3.675      -13.530       33.761       23.492       19.759     1139.809      551.890      390.411        0.162        0.104       31.331       13.242        0.179      332.905        1.872      846.118
12/13/2021  23:21:00       58.448       -6.322       -5.199       24.538       30.065       21.304      602.095      903.899      453.862        0.272        0.098       58.789       10.367        0.031      332.828        1.746      846.050
12/13/2021  23:22:00       65.674        6.037       -5.639       39.628       27.336       14.713     1570.340      747.242      216.478        0.346        0.127       65.951       14.339        0.047      332.872        1.820      846.037
12/13/2021  23:23:00       91.898        9.329      -11.077       32.192       24.970       15.455     1036.323      623.509      238.848        0.528        0.095       92.370       11.654        0.016      332.920        1.897      846.076
12/13/2021  23:24:00       43.943       11.063      -19.408       41.074       35.839       20.292     1687.061     1284.438      411.755        0.291        0.169       45.314       13.842        0.093      332.960        1.962      846.103
12/13/2021  23:25:00       25.687        5.856      -10.777       26.457       30.647       22.392      699.989      939.256      501.395        0.148        0.107       26.346       12.209        0.215      332.896        1.858      846.162
12/13/2021  23:26:00      -10.635        7.274        3.148       22.425       23.453       10.202      502.902      550.031      104.077        0.067        0.058       12.884        9.808        0.579      332.979        1.994      846.162
12/13/2021  23:27:00        1.835       39.793      -14.150       13.352       16.570        9.029      178.284      274.576       81.529        0.116        0.027       39.835        5.336        0.018      332.926        1.906      846.142
12/13/2021  23:28:00       19.399       30.441       -7.992       10.316       11.622        8.544      106.428      135.076       73.003        0.084        0.016       36.096        4.792        0.018      332.854        1.788      846.183
12/13/2021  23:29:00       26.935       12.070       -6.487       10.002       10.666        8.244      100.048      113.773       67.958        0.060        0.014       29.516        5.381        0.033      332.861        1.802      846.247
12/13/2021  23:30:00       51.922       12.386       -7.661       23.611       28.913       11.271      557.497      835.949      127.039        0.221        0.076       53.379        5.380        0.010      332.869        1.814      846.261
12/13/2021  23:31:00       51.090      -22.439      -15.864       37.114       24.789       24.197     1377.471      614.519      585.494        0.297        0.129       55.801       22.429        0.162      332.926        1.908      846.252
12/13/2021  23:32:00       40.122       -9.740      -15.497       19.611       24.609       15.277      384.608      605.589      233.377        0.158        0.061       41.287        9.373        0.052      332.961        1.962      846.268
12/13/2021  23:33:00       65.112       -8.879       -8.408       23.315       16.786       20.722      543.575      281.760      429.393        0.282        0.063       65.715       10.836        0.027      332.953        1.951      846.290
12/13/2021  23:34:00       68.670        1.225       -8.881       49.997       49.509       22.957     2499.682     2451.171      527.027        0.514        0.274       68.681       16.555        0.058      332.937        1.925      846.236
12/13/2021  23:35:00      -19.271      -39.632      -13.303       30.571       51.780       24.936      934.562     2681.160      621.828        0.318        0.212       44.069       12.182        0.076      333.037        2.092      846.225
12/13/2021  23:36:00       23.859       26.278       -8.786       22.850       22.893       13.419      522.139      524.076      180.062        0.128        0.061       35.493        8.862        0.062      332.989        2.013      846.273
12/13/2021  23:37:00       41.653       68.496      -13.738       30.291       23.406       19.230      917.539      547.834      369.795        0.422        0.092       80.167        7.985        0.010      333.069        2.145      846.290
12/13/2021  23:38:00        6.047       57.977       -6.641       22.723       27.187       11.712      516.333      739.116      137.164        0.242        0.070       58.292        9.572        0.027      333.119        2.226      846.303
12/13/2021  23:39:00       -9.380       38.882       -4.528       17.566       11.877       15.116      308.573      141.054      228.498        0.115        0.034       39.997        4.866        0.015      333.150        2.276      846.318
12/13/2021  23:40:00      -63.580       41.599       -9.027       16.663       18.042       13.231      277.644      325.522      175.052        0.332        0.039       75.980        8.196        0.012      333.006        2.040      846.343
12/13/2021  23:41:00      -42.892       23.569      -10.349       10.871        7.853        8.416      118.174       61.663       70.835        0.138        0.013       48.941        5.018        0.011      332.977        1.989      846.390
12/13/2021  23:42:00      -53.081       22.011      -11.152       12.667       11.142       11.144      160.444      124.148      124.198        0.192        0.020       57.463        4.851        0.007      332.962        1.967      846.460
12/13/2021  23:43:00      -58.161        6.674       -6.716       21.705       17.204       14.647      471.103      295.990      214.545        0.223        0.049       58.543       11.971        0.042      332.968        1.978      846.499
12/13/2021  23:44:00      -44.252        2.848       -3.724       54.028       28.186       20.733     2919.010      794.467      429.864        0.306        0.207       44.344       23.469        0.280      332.938        1.926      846.536
12/13/2021  23:45:00      -58.861        7.377        0.349       40.890       26.162       19.029     1672.014      684.439      362.106        0.312        0.136       59.322       16.986        0.082      333.089        2.175      846.558
12/13/2021  23:46:00      -64.461       17.700       -8.135       14.497       14.338        9.791      210.174      205.582       95.855        0.252        0.026       66.847        6.402        0.009      333.253        2.447      846.533
12/13/2021  23:47:00      -48.613       25.349       17.719       27.124       52.100       21.525      735.707     2714.387      463.336        0.362        0.196       54.825       31.228        0.324      333.282        2.488      846.529
12/13/2021  23:48:00      -53.000       44.000       16.000        0.000        0.000        0.000        0.000        0.000        0.000        0.250        0.000       68.884        0.000        0.000      333.320        2.550      846.530
12/13/2021  23:49:00      -53.000       44.000       16.000        0.000        0.000        0.000        0.000        0.000        0.000        0.250        0.000       68.884        0.000        0.000      333.320        2.550      846.530
12/13/2021  23:50:00      -53.000       44.000       16.000        0.000        0.000        0.000        0.000        0.000        0.000        0.250        0.000       68.884        0.000        0.000      333.320        2.550      846.530
12/13/2021  23:51:00      -53.000       44.000       16.000        0.000        0.000        0.000        0.000        0.000        0.000        0.250        0.000       68.884        0.000        0.000      333.320        2.550      846.530
12/13/2021  23:52:00      -36.405       36.591       -3.723       16.057        8.645       14.416      257.836       74.739      207.809        0.161        0.027       51.616       13.393        0.067      332.094        0.536      846.483
12/13/2021  23:53:00        9.492       10.975       -5.763       21.719       16.101        9.307      471.710      259.254       86.618        0.053        0.041       14.510        7.561        0.272      331.953        0.303      846.437
12/13/2021  23:54:00       -8.395       40.195       -1.407       26.767       14.363       12.875      716.456      206.307      165.774        0.139        0.054       41.063        8.266        0.041      332.859        1.797      846.437
12/13/2021  23:55:00        6.453       33.076       -5.132       23.035       19.197       11.120      530.591      368.533      123.655        0.109        0.051       33.700       12.227        0.132      332.806        1.708      846.444
12/13/2021  23:56:00       48.059       49.143       -6.289       31.322       29.977       16.654      981.054      898.617      277.357        0.346        0.108       68.736       15.596        0.051      332.804        1.708      846.450
12/13/2021  23:57:00       82.418      -27.276       19.349       48.703       69.474       39.144     2372.011     4826.703     1532.270        0.832        0.437       86.815       54.287        0.391      332.297        0.868      846.479
12/13/2021  23:58:00       45.000       48.918       -8.761       16.477       20.193       13.637      271.483      407.761      185.967        0.268        0.043       66.468        7.340        0.012      331.462       -0.511      846.483
12/13/2021  23:59:00       74.755       59.776      -12.090       21.154       16.810       15.813      447.487      282.589      250.051        0.514        0.049       95.716       13.041        0.019      331.426       -0.567      846.392
12/14/2021  00:00:00       29.431       56.583        3.872       25.499       44.452       17.315      650.204     1975.966      299.811        0.350        0.146       63.780       15.454        0.059      331.478       -0.480      846.332
12/14/2021  00:01:00       35.798       92.181      -12.560       26.782       31.920       22.350      717.256     1018.873      499.501        0.609        0.112       98.888       15.114        0.023      331.594       -0.289      846.315
12/14/2021  00:02:00       92.748       58.024       -7.657       40.066       38.653       29.037     1605.300     1494.061      843.164        0.798        0.197      109.403       26.463        0.059      331.397       -0.613      846.263
12/14/2021  00:03:00      170.881      -37.033       55.986       62.077       60.241       44.859     3853.542     3628.922     2012.314        2.160        0.475      174.848       53.235        0.093      331.799        0.045      846.191
12/14/2021  00:04:00      107.410        9.240       26.995       64.435       79.106       55.267     4151.825     6257.777     3054.480        1.291        0.673      107.807       65.631        0.371      332.366        0.981      846.178
12/14/2021  00:05:00       52.246       53.108       -4.041       41.452       28.956       26.965     1718.275      838.426      727.085        0.442        0.164       74.499       20.614        0.077      332.625        1.410      846.219
12/14/2021  00:06:00       28.938       85.902       -3.113       20.138       41.453       19.202      405.523     1718.388      368.699        0.536        0.125       90.645       21.961        0.059      332.718        1.564      846.302
12/14/2021  00:07:00        3.932       79.268       -7.203       25.095       33.070       18.922      629.744     1093.622      358.050        0.422        0.104       79.366       19.521        0.060      332.763        1.639      846.376
12/14/2021  00:08:00        1.634       56.479       -1.614       34.906       39.236       25.054     1218.452     1539.498      627.689        0.329        0.169       56.503       26.271        0.216      332.771        1.651      846.338
12/14/2021  00:09:00       45.016      116.325       -6.526       34.278       44.312       29.044     1175.014     1963.549      843.529        0.979        0.199      124.732       28.727        0.053      332.750        1.615      846.277
12/14/2021  00:10:00       52.726      141.237       -9.127       27.101       42.326       27.575      734.475     1791.507      760.395        1.305        0.164      150.758       22.409        0.022      332.779        1.663      846.254
12/14/2021  00:11:00       62.258      120.353      -11.573       35.239       41.891       32.271     1241.801     1754.862     1041.444        1.127        0.202      135.503       25.623        0.036      332.861        1.801      846.247
12/14/2021  00:12:00       57.329      166.125      -22.363       28.478       28.995       23.754      810.986      840.718      564.250        1.680        0.111      175.739       20.993        0.014      332.741        1.600      846.300
12/14/2021  00:13:00       28.407      149.373      -15.921       39.193       35.854       19.800     1536.054     1285.507      392.024        1.329        0.161      152.050       14.294        0.009      332.749        1.613      846.380
12/14/2021  00:14:00       24.918       31.030       29.109       62.133       92.177       52.749     3860.531     8496.595     2782.428        0.878        0.757       39.797       70.714        3.157      332.374        0.995      846.352
12/14/2021  00:15:00       74.152      145.650       -4.537       42.725       62.092       39.495     1825.427     3855.431     1559.872        1.699        0.362      163.439       45.134        0.076      332.597        1.364      846.191
12/14/2021  00:16:00       71.137       91.831      -15.674       39.451       55.892       29.205     1556.377     3123.942      852.907        0.964        0.277      116.161       26.603        0.052      332.657        1.462      846.074
12/14/2021  00:17:00      103.310       68.130      -12.222       53.243       35.056       32.671     2834.802     1228.899     1067.388        1.030        0.257      123.753       29.890        0.058      332.563        1.307      845.949
12/14/2021  00:18:00      122.422       48.319      -11.781       36.010       31.292       18.636     1296.727      979.170      347.295        1.004        0.131      131.612       15.762        0.014      332.523        1.242      845.870
12/14/2021  00:19:00      105.273       49.058      -16.624       35.836       31.157       19.446     1284.221      970.788      378.156        0.820        0.132      116.143       10.543        0.008      332.526        1.246      845.835
12/14/2021  00:20:00       31.954       89.193       -6.610       41.194       39.631       26.369     1696.917     1570.618      695.333        0.649        0.198       94.744       17.878        0.036      332.608        1.381      845.775
12/14/2021  00:21:00       56.309      142.360      -19.269       40.368       44.762       29.716     1629.535     2003.611      883.068        1.416        0.226      153.092       29.085        0.036      332.634        1.424      845.765
12/14/2021  00:22:00        1.149       57.044       -0.034       34.683       31.087       28.239     1202.894      966.396      797.462        0.311        0.148       57.056       17.919        0.099      332.644        1.442      845.791
12/14/2021  00:23:00       11.710      127.742      -13.859       48.701       52.049       27.888     2371.796     2709.069      777.764        1.125        0.293      128.277       33.826        0.070      332.636        1.428      845.785
12/14/2021  00:24:00       44.809      144.772      -18.462       44.383       40.075       23.530     1969.837     1606.012      553.666        1.372        0.206      151.548       26.974        0.032      332.667        1.478      845.781
12/14/2021  00:25:00       34.795      126.306      -10.094       32.315       49.163       27.957     1044.244     2416.984      781.621        1.075        0.212      131.011       26.384        0.041      332.759        1.632      845.789
12/14/2021  00:26:00       53.185      129.572      -21.606       31.402       35.516       26.227      986.110     1261.374      687.832        1.151        0.147      140.063       20.712        0.022      332.757        1.627      845.863
12/14/2021  00:27:00        3.238      109.744      -10.361       42.436       42.457       21.128     1800.847     1802.599      446.388        0.810        0.202      109.792       23.214        0.045      332.803        1.703      845.967
12/14/2021  00:28:00       18.098       73.641      -14.965       23.171       20.671       14.275      536.913      427.310      203.763        0.357        0.058       75.832        7.497        0.010      332.816        1.724      846.034
12/14/2021  00:29:00       18.468       31.994       -7.362       24.731       18.763       15.465      611.645      352.049      239.157        0.131        0.060       36.941       10.438        0.080      332.766        1.644      846.050
12/14/2021  00:30:00       34.396       30.466       -7.997       29.443       13.909       14.422      866.875      193.467      207.998        0.172        0.063       45.949       12.063        0.069      332.687        1.514      846.048
12/14/2021  00:31:00       51.776       20.969      -11.296       21.458       17.430       13.875      460.454      303.806      192.524        0.210        0.048       55.861        3.686        0.004      332.641        1.437      846.063
12/14/2021  00:32:00       63.342       31.878      -12.289       19.669       18.684       16.693      386.872      349.105      278.660        0.310        0.051       70.911        8.597        0.015      332.636        1.430      846.098
12/14/2021  00:33:00       63.329       35.378       -3.927       27.962       17.779       13.091      781.875      316.080      171.371        0.327        0.063       72.541        8.757        0.015      332.599        1.369      846.083
12/14/2021  00:34:00       76.721       52.862      -16.840       24.313       22.718       18.190      591.129      516.092      330.877        0.520        0.072       93.169       13.551        0.021      332.572        1.321      846.062
12/14/2021  00:35:00       64.716       39.100      -13.855       32.607       25.187       17.859     1063.228      634.381      318.929        0.396        0.101       75.611       13.200        0.030      332.560        1.302      846.066
12/14/2021  00:36:00       43.245       21.219       -5.763       24.497       19.128       14.974      600.095      365.865      224.206        0.177        0.060       48.170       13.126        0.074      332.545        1.277      846.093
12/14/2021  00:37:00       67.025       12.455      -10.142       30.324       29.434       16.476      919.527      866.369      271.459        0.340        0.103       68.172        9.760        0.020      332.564        1.308      846.145
12/14/2021  00:38:00       41.438       12.672       -4.500       12.527       19.830       16.858      156.917      393.241      284.199        0.137        0.042       43.333        8.941        0.043      332.613        1.391      846.205
12/14/2021  00:39:00       43.107       25.904       -4.020       26.325       22.929       14.615      692.985      525.745      213.605        0.199        0.072       50.292       12.412        0.061      332.637        1.429      846.190
12/14/2021  00:40:00       83.848       61.714      -13.084       36.902       17.759       18.717     1361.737      315.393      350.319        0.652        0.101      104.111       21.022        0.041      332.609        1.384      846.085
12/14/2021  00:41:00       94.662       34.582      -22.123       27.197       23.650       16.729      739.678      559.299      279.849        0.611        0.079      100.781       13.551        0.018      332.605        1.376      845.977
12/14/2021  00:42:00       28.219       -0.679       -2.675       21.575       28.043       18.162      465.495      786.424      329.856        0.119        0.079       28.228       14.890        0.278      332.583        1.341      845.947
12/14/2021  00:43:00       60.686       21.639       -9.481       17.184       15.013        9.989      295.305      225.390       99.778        0.243        0.031       64.429        4.715        0.005      332.558        1.298      845.929
12/14/2021  00:44:00       39.064       27.471       -8.890       28.262       15.939       14.159      798.735      254.041      200.484        0.181        0.063       47.756        3.319        0.005      332.588        1.349      845.912
12/14/2021  00:45:00       43.016       43.161       -4.385       21.367       23.616       17.117      456.567      557.736      292.996        0.252        0.065       60.937       11.639        0.036      332.596        1.360      845.885
12/14/2021  00:46:00       39.676       63.088       -7.115       26.721       30.433       21.002      714.031      926.140      441.104        0.384        0.104       74.527       15.217        0.042      332.674        1.490      845.803
12/14/2021  00:47:00       49.804       76.831      -10.265       26.487       30.865       22.989      701.554      952.670      528.497        0.534        0.109       91.561       17.398        0.036      332.670        1.484      845.746
12/14/2021  00:48:00       63.223       53.299      -10.975       29.610       23.774       22.508      876.731      565.205      506.614        0.445        0.097       82.691       12.033        0.021      332.618        1.399      845.750
12/14/2021  00:49:00       94.820       59.417      -17.091       22.918       17.428       12.406      525.248      303.739      153.908        0.690        0.049      111.899        7.754        0.005      332.580        1.335      845.742
12/14/2021  00:50:00      117.610       52.307      -23.609       20.983       13.505       11.670      440.273      182.375      136.196        0.894        0.038      128.717        8.557        0.004      332.573        1.322      845.708
12/14/2021  00:51:00      105.628       33.514      -31.018       27.052       23.790       18.693      731.822      565.954      349.442        0.744        0.082      110.817       10.249        0.009      332.656        1.462      845.671
12/14/2021  00:52:00       94.320       29.995      -10.292       31.833       24.783       15.063     1013.346      614.190      226.905        0.588        0.093       98.974        9.640        0.009      332.582        1.339      845.685
12/14/2021  00:53:00       77.954       46.799      -12.719       23.482       22.884       15.510      551.413      523.657      240.558        0.487        0.066       90.923       14.193        0.024      332.607        1.379      845.687
12/14/2021  00:54:00       42.716       62.634      -11.601       29.813       24.381       15.001      888.796      594.415      225.019        0.379        0.085       75.814       12.285        0.026      332.764        1.639      845.672
12/14/2021  00:55:00       17.001       81.058      -18.719       18.614       21.587       18.874      346.483      465.988      356.220        0.419        0.058       82.822       10.446        0.016      332.823        1.737      845.673
12/14/2021  00:56:00       -3.442       83.235      -10.390       24.003       23.355       14.553      576.142      545.473      211.777        0.419        0.067       83.306        9.759        0.014      332.737        1.593      845.635
12/14/2021  00:57:00        3.285       70.156      -11.554       23.481       35.747       14.553      551.371     1277.876      211.780        0.355        0.102       70.232       13.620        0.038      332.725        1.576      845.595
12/14/2021  00:58:00       37.301       20.735      -11.134       24.313       15.993       11.903      591.130      255.789      141.671        0.147        0.049       42.677       11.597        0.074      332.613        1.389      845.619
12/14/2021  00:59:00       41.410        1.978      -14.922       18.703       20.880        9.761      349.804      435.978       95.275        0.141        0.044       41.457        8.711        0.044      332.674        1.491      845.658
12/14/2021  01:00:00       84.797       31.375      -20.549       46.921       34.737       19.955     2201.591     1206.658      398.214        0.620        0.190       90.416       24.423        0.073      332.715        1.559      845.682
12/14/2021  01:01:00       76.681       23.185      -20.940       54.693       32.953       17.258     2991.357     1085.907      297.823        0.561        0.219       80.109       12.024        0.023      332.765        1.641      845.694
12/14/2021  01:02:00       94.991       14.522      -18.248       24.706       28.786       17.537      610.378      828.652      307.542        0.566        0.087       96.095        7.253        0.006      332.683        1.505      845.699
12/14/2021  01:03:00       57.409        4.730       -9.233       27.573       24.425       17.155      760.245      596.582      294.281        0.253        0.083       57.604       11.739        0.042      332.733        1.587      845.677
12/14/2021  01:04:00       72.340       22.411      -11.208       17.836       18.326       12.792      318.126      335.824      163.629        0.334        0.041       75.732        5.644        0.006      332.679        1.499      845.669
12/14/2021  01:05:00       51.215       16.540       -9.952       18.070       19.240       11.431      326.507      370.177      130.657        0.191        0.041       53.820        8.547        0.025      332.686        1.511      845.682
12/14/2021  01:06:00       71.154       50.204       -9.651       25.744       17.169       14.047      662.773      294.788      197.310        0.442        0.058       87.083       10.102        0.013      332.693        1.524      845.689
12/14/2021  01:07:00       90.947       59.730      -15.397       24.364       19.186       14.952      593.586      368.094      223.576        0.663        0.059      108.807        9.470        0.008      332.754        1.623      845.687
12/14/2021  01:08:00       65.478       50.181       -6.283       24.359       20.302       15.232      593.375      412.157      232.029        0.404        0.062       82.495        7.876        0.009      332.760        1.632      845.684
12/14/2021  01:09:00       77.552       54.430      -10.804       20.257       14.280       16.338      410.326      203.918      266.920        0.499        0.044       94.747        8.664        0.008      332.726        1.573      845.737
12/14/2021  01:10:00       89.319       60.451      -15.004       19.676       18.805       11.266      387.129      353.635      126.918        0.636        0.043      107.853        8.524        0.006      332.700        1.533      845.757
12/14/2021  01:11:00      141.680       70.074      -19.892       25.313       21.359       12.811      640.724      456.197      164.133        1.332        0.063      158.063        5.042        0.001      332.694        1.524      845.712
12/14/2021  01:12:00      130.552       65.715       -9.350       29.670       34.971       22.839      880.313     1222.982      521.619        1.204        0.131      146.158       15.288        0.011      332.655        1.461      845.685
12/14/2021  01:13:00       97.216       72.886      -11.475       46.551       36.093       28.375     2166.998     1302.721      805.128        0.958        0.214      121.505       26.044        0.046      332.646        1.445      845.668
12/14/2021  01:14:00      102.482      101.978      -16.095       38.196       42.767       31.301     1458.969     1829.034      979.763        1.271        0.213      144.575       27.029        0.035      332.715        1.560      845.620
12/14/2021  01:15:00       75.765       80.270      -13.822       41.600       35.725       30.611     1730.546     1276.271      937.032        0.816        0.197      110.379       25.986        0.055      332.704        1.539      845.647
12/14/2021  01:16:00       65.023       70.210      -19.007       23.798       23.005       19.898      566.324      529.228      395.915        0.550        0.075       95.695       12.640        0.017      332.704        1.540      845.737
12/14/2021  01:17:00       54.079       54.702       -8.239       37.814       35.157       20.260     1429.924     1235.985      410.474        0.453        0.154       76.921       19.570        0.065      332.776        1.659      845.791
12/14/2021  01:18:00       31.136       89.985       -5.605       32.582       42.536       21.323     1061.599     1809.327      454.673        0.621        0.166       95.219       14.478        0.023      332.834        1.755      845.805
12/14/2021  01:19:00      -13.044      102.829       -8.048       41.638       30.963       19.105     1733.702      958.684      364.985        0.693        0.153      103.653       11.869        0.013      332.824        1.738      845.798
12/14/2021  01:20:00      -95.868       60.144      -16.142       34.892       26.550       15.638     1217.445      704.895      244.557        0.762        0.108      113.173       15.146        0.018      332.718        1.563      845.788
12/14/2021  01:21:00     -103.719       46.075      -12.035       50.816       33.755       27.629     2582.296     1139.420      763.347        0.875        0.224      113.492       24.720        0.047      332.765        1.641      845.766
12/14/2021  01:22:00      -90.251       55.900       -7.549       52.069       45.296       33.014     2711.182     2051.699     1089.953        0.859        0.293      106.160       32.284        0.092      332.780        1.666      845.769
12/14/2021  01:23:00     -115.573       43.618      -21.895       54.129       45.394       34.713     2929.895     2060.588     1205.020        1.097        0.310      123.530       23.715        0.037      332.770        1.647      845.808
12/14/2021  01:24:00      -71.067       24.810      -14.239       52.713       29.505       29.336     2778.709      870.524      860.609        0.519        0.225       75.273       27.210        0.131      332.768        1.646      845.853
12/14/2021  01:25:00      -88.122       36.968      -17.205       87.169       64.675       50.153     7598.379     4182.864     2515.316        1.186        0.715       95.562       50.553        0.280      332.735        1.591      845.859
12/14/2021  01:26:00      -54.850       40.532      -29.836       49.757       39.666       37.345     2475.714     1573.405     1394.665        0.549        0.272       68.201       23.765        0.121      332.736        1.594      845.871
12/14/2021  01:27:00       -9.671       20.111       -2.804       45.889       37.930       34.766     2105.775     1438.711     1208.687        0.263        0.238       22.315       33.398        2.240      332.743        1.604      845.934
12/14/2021  01:28:00       21.526       14.749        4.256       21.454       25.787       17.009      460.266      664.955      289.313        0.106        0.071       26.094       10.123        0.151      332.732        1.584      846.025
12/14/2021  01:29:00      -98.351       10.396      -11.935       84.315       49.555       50.953     7109.008     2455.657     2596.198        1.104        0.608       98.899       51.913        0.276      332.618        1.398      846.090
12/14/2021  01:30:00       55.997       38.667      -62.818       98.174       65.066       50.618     9638.158     4233.523     2562.199        1.250        0.822       68.050       62.341        0.839      332.326        0.921      846.110
12/14/2021  01:31:00       54.419       37.284      -15.689       65.473       35.925       50.878     4286.705     1290.610     2588.586        0.638        0.408       65.966       50.410        0.584      332.510        1.222      846.160
12/14/2021  01:32:00       -5.912       12.929      -11.118       31.101       50.227       28.339      967.244     2522.763      803.104        0.231        0.215       14.217       16.794        1.395      332.618        1.398      846.278
12/14/2021  01:33:00        7.388       -2.740        2.576       69.988       54.540       45.422     4898.364     2974.615     2063.193        0.500        0.497        7.879       34.013       18.634      332.618        1.399      846.441
12/14/2021  01:34:00      -81.572       15.806      -15.271       68.794       47.347       34.915     4732.598     2241.756     1219.046        0.766        0.410       83.089       17.843        0.046      332.383        1.011      846.535
12/14/2021  01:35:00     -144.000       57.000      -20.000        0.000        0.000        0.000        0.000        0.000        0.000        1.219        0.000      154.871        0.000        0.000      331.120       -1.060      846.520
12/14/2021  01:36:00     -144.000       57.000      -20.000        0.000        0.000        0.000        0.000        0.000        0.000        1.219        0.000      154.871        0.000        0.000      331.120       -1.060      846.520
12/14/2021  01:37:00     -144.000       57.000      -20.000        0.000        0.000        0.000        0.000        0.000        0.000        1.219        0.000      154.871        0.000        0.000      331.120       -1.060      846.520
12/14/2021  01:38:00     -144.000       57.000      -20.000        0.000        0.000        0.000        0.000        0.000        0.000        1.219        0.000      154.871        0.000        0.000      331.120       -1.060      846.520
12/14/2021  01:39:00     -144.000       57.000      -20.000        0.000        0.000        0.000        0.000        0.000        0.000        1.219        0.000      154.871        0.000        0.000      331.120       -1.060      846.520
12/14/2021  01:40:00     -144.000       57.000      -20.000        0.000        0.000        0.000        0.000        0.000        0.000        1.219        0.000      154.871        0.000        0.000      331.120       -1.060      846.520
12/14/2021  01:41:00     -144.000       57.000      -20.000        0.000        0.000        0.000        0.000        0.000        0.000        1.219        0.000      154.871        0.000        0.000      331.120       -1.060      846.520
12/14/2021  01:42:00     -144.000       57.000      -20.000        0.000        0.000        0.000        0.000        0.000        0.000        1.219        0.000      154.871        0.000        0.000      331.120       -1.060      846.520
12/14/2021  01:43:00     -144.000       57.000      -20.000        0.000        0.000        0.000        0.000        0.000        0.000        1.219        0.000      154.871        0.000        0.000      331.120       -1.060      846.520
12/14/2021  01:44:00     -144.000       57.000      -20.000        0.000        0.000        0.000        0.000        0.000        0.000        1.219        0.000      154.871        0.000        0.000      331.120       -1.060      846.520
12/14/2021  01:45:00     -144.000       57.000      -20.000        0.000        0.000        0.000        0.000        0.000        0.000        1.219        0.000      154.871        0.000        0.000      331.120       -1.060      846.520
12/14/2021  01:46:00     -144.000       57.000      -20.000        0.000        0.000        0.000        0.000        0.000        0.000        1.219        0.000      154.871        0.000        0.000      331.120       -1.060      846.520
12/14/2021  01:47:00     -144.000       57.000      -20.000        0.000        0.000        0.000        0.000        0.000        0.000        1.219        0.000      154.871        0.000        0.000      331.120       -1.060      846.520
12/14/2021  01:48:00     -144.000       57.000      -20.000        0.000        0.000        0.000        0.000        0.000        0.000        1.219        0.000      154.871        0.000        0.000      331.120       -1.060      846.520
12/14/2021  01:49:00     -144.000       57.000      -20.000        0.000        0.000        0.000        0.000        0.000        0.000        1.219        0.000      154.871        0.000        0.000      331.120       -1.060      846.520
12/14/2021  01:50:00     -144.000       57.000      -20.000        0.000        0.000        0.000        0.000        0.000        0.000        1.219        0.000      154.871        0.000        0.000      331.120       -1.060      846.520
12/14/2021  01:51:00     -144.000       57.000      -20.000        0.000        0.000        0.000        0.000        0.000        0.000        1.219        0.000      154.871        0.000        0.000      331.120       -1.060      846.520
12/14/2021  01:52:00     -144.000       57.000      -20.000        0.000        0.000        0.000        0.000        0.000        0.000        1.219        0.000      154.871        0.000        0.000      331.120       -1.060      846.520
12/14/2021  01:53:00     -144.000       57.000      -20.000        0.000        0.000        0.000        0.000        0.000        0.000        1.219        0.000      154.871        0.000        0.000      331.120       -1.060      846.520
12/14/2021  01:54:00     -144.000       57.000      -20.000        0.000        0.000        0.000        0.000        0.000        0.000        1.219        0.000      154.871        0.000        0.000      331.120       -1.060      846.520
12/14/2021  01:55:00     -144.000       57.000      -20.000        0.000        0.000        0.000        0.000        0.000        0.000        1.219        0.000      154.871        0.000        0.000      331.120       -1.060      846.520
12/14/2021  01:56:00     -144.000       57.000      -20.000        0.000        0.000        0.000        0.000        0.000        0.000        1.219        0.000      154.871        0.000        0.000      331.120       -1.060      846.520
12/14/2021  01:57:00     -144.000       57.000      -20.000        0.000        0.000        0.000        0.000        0.000        0.000        1.219        0.000      154.871        0.000        0.000      331.120       -1.060      846.520
12/14/2021  01:58:00     -144.000       57.000      -20.000        0.000        0.000        0.000        0.000        0.000        0.000        1.219        0.000      154.871        0.000        0.000      331.120       -1.060      846.520
12/14/2021  01:59:00     -144.000       57.000      -20.000        0.000        0.000        0.000        0.000        0.000        0.000        1.219        0.000      154.871        0.000        0.000      331.120       -1.060      846.520
12/14/2021  02:00:00     -144.000       57.000      -20.000        0.000        0.000        0.000        0.000        0.000        0.000        1.219        0.000      154.871        0.000        0.000      331.120       -1.060      846.520
12/14/2021  02:01:00     -144.000       57.000      -20.000        0.000        0.000        0.000        0.000        0.000        0.000        1.219        0.000      154.871        0.000        0.000      331.120       -1.060      846.520
12/14/2021  02:02:00     -144.000       57.000      -20.000        0.000        0.000        0.000        0.000        0.000        0.000        1.219        0.000      154.871        0.000        0.000      331.120       -1.060      846.520
12/14/2021  02:03:00     -144.000       57.000      -20.000        0.000        0.000        0.000        0.000        0.000        0.000        1.219        0.000      154.871        0.000        0.000      331.120       -1.060      846.520
12/14/2021  02:04:00     -144.000       57.000      -20.000        0.000        0.000        0.000        0.000        0.000        0.000        1.219        0.000      154.871        0.000        0.000      331.120       -1.060      846.520
12/14/2021  02:05:00     -144.000       57.000      -20.000        0.000        0.000        0.000        0.000        0.000        0.000        1.219        0.000      154.871        0.000        0.000      331.120       -1.060      846.520
12/14/2021  02:06:00     -144.000       57.000      -20.000        0.000        0.000        0.000        0.000        0.000        0.000        1.219        0.000      154.871        0.000        0.000      331.120       -1.060      846.520
12/14/2021  02:07:00     -144.000       57.000      -20.000        0.000        0.000        0.000        0.000        0.000        0.000        1.219        0.000      154.871        0.000        0.000      331.120       -1.060      846.520
12/14/2021  02:08:00     -144.000       57.000      -20.000        0.000        0.000        0.000        0.000        0.000        0.000        1.219        0.000      154.871        0.000        0.000      331.120       -1.060      846.520
12/14/2021  02:09:00     -144.000       57.000      -20.000        0.000        0.000        0.000        0.000        0.000        0.000        1.219        0.000      154.871        0.000        0.000      331.120       -1.060      846.520
12/14/2021  02:10:00     -144.000       57.000      -20.000        0.000        0.000        0.000        0.000        0.000        0.000        1.219        0.000      154.871        0.000        0.000      331.120       -1.060      846.520
12/14/2021  02:11:00     -144.000       57.000      -20.000        0.000        0.000        0.000        0.000        0.000        0.000        1.219        0.000      154.871        0.000        0.000      331.120       -1.060      846.520
12/14/2021  02:12:00     -144.000       57.000      -20.000        0.000        0.000        0.000        0.000        0.000        0.000        1.219        0.000      154.871        0.000        0.000      331.120       -1.060      846.520
12/14/2021  02:13:00     -144.000       57.000      -20.000        0.000        0.000        0.000        0.000        0.000        0.000        1.219        0.000      154.871        0.000        0.000      331.120       -1.060      846.520
12/14/2021  02:14:00     -144.000       57.000      -20.000        0.000        0.000        0.000        0.000        0.000        0.000        1.219        0.000      154.871        0.000        0.000      331.120       -1.060      846.520
12/14/2021  02:15:00     -144.000       57.000      -20.000        0.000        0.000        0.000        0.000        0.000        0.000        1.219        0.000      154.871        0.000        0.000      331.120       -1.060      846.520
12/14/2021  02:16:00     -144.000       57.000      -20.000        0.000        0.000        0.000        0.000        0.000        0.000        1.219        0.000      154.871        0.000        0.000      331.120       -1.060      846.520
12/14/2021  02:17:00     -144.000       57.000      -20.000        0.000        0.000        0.000        0.000        0.000        0.000        1.219        0.000      154.871        0.000        0.000      331.120       -1.060      846.520
12/14/2021  02:18:00     -144.000       57.000      -20.000        0.000        0.000        0.000        0.000        0.000        0.000        1.219        0.000      154.871        0.000        0.000      331.120       -1.060      846.520
12/14/2021  02:19:00     -144.000       57.000      -20.000        0.000        0.000        0.000        0.000        0.000        0.000        1.219        0.000      154.871        0.000        0.000      331.120       -1.060      846.520
12/14/2021  02:20:00     -144.000       57.000      -20.000        0.000        0.000        0.000        0.000        0.000        0.000        1.219        0.000      154.871        0.000        0.000      331.120       -1.060      846.520
12/14/2021  02:21:00     -144.000       57.000      -20.000        0.000        0.000        0.000        0.000        0.000        0.000        1.219        0.000      154.871        0.000        0.000      331.120       -1.060      846.520
12/14/2021  02:22:00     -144.000       57.000      -20.000        0.000        0.000        0.000        0.000        0.000        0.000        1.219        0.000      154.871        0.000        0.000      331.120       -1.060      846.520
12/14/2021  02:23:00     -144.000       57.000      -20.000        0.000        0.000        0.000        0.000        0.000        0.000        1.219        0.000      154.871        0.000        0.000      331.120       -1.060      846.520
12/14/2021  02:24:00     -144.000       57.000      -20.000        0.000        0.000        0.000        0.000        0.000        0.000        1.219        0.000      154.871        0.000        0.000      331.120       -1.060      846.520
12/14/2021  02:25:00     -144.000       57.000      -20.000        0.000        0.000        0.000        0.000        0.000        0.000        1.219        0.000      154.871        0.000        0.000      331.120       -1.060      846.520
12/14/2021  02:26:00     -144.000       57.000      -20.000        0.000        0.000        0.000        0.000        0.000        0.000        1.219        0.000      154.871        0.000        0.000      331.120       -1.060      846.520
12/14/2021  02:27:00     -144.000       57.000      -20.000        0.000        0.000        0.000        0.000        0.000        0.000        1.219        0.000      154.871        0.000        0.000      331.120       -1.060      846.520
12/14/2021  02:28:00     -144.000       57.000      -20.000        0.000        0.000        0.000        0.000        0.000        0.000        1.219        0.000      154.871        0.000        0.000      331.120       -1.060      846.520
12/14/2021  02:29:00     -144.000       57.000      -20.000        0.000        0.000        0.000        0.000        0.000        0.000        1.219        0.000      154.871        0.000        0.000      331.120       -1.060      846.520
12/14/2021  02:30:00     -144.000       57.000      -20.000        0.000        0.000        0.000        0.000        0.000        0.000        1.219        0.000      154.871        0.000        0.000      331.120       -1.060      846.520
12/14/2021  02:31:00     -144.000       57.000      -20.000        0.000        0.000        0.000        0.000        0.000        0.000        1.219        0.000      154.871        0.000        0.000      331.120       -1.060      846.520
12/14/2021  02:32:00     -144.000       57.000      -20.000        0.000        0.000        0.000        0.000        0.000        0.000        1.219        0.000      154.871        0.000        0.000      331.120       -1.060      846.520
12/14/2021  02:33:00     -144.000       57.000      -20.000        0.000        0.000        0.000        0.000        0.000        0.000        1.219        0.000      154.871        0.000        0.000      331.120       -1.060      846.520
12/14/2021  02:34:00     -144.000       57.000      -20.000        0.000        0.000        0.000        0.000        0.000        0.000        1.219        0.000      154.871        0.000        0.000      331.120       -1.060      846.520
12/14/2021  02:35:00     -144.000       57.000      -20.000        0.000        0.000        0.000        0.000        0.000        0.000        1.219        0.000      154.871        0.000        0.000      331.120       -1.060      846.520
12/14/2021  02:36:00     -144.000       57.000      -20.000        0.000        0.000        0.000        0.000        0.000        0.000        1.219        0.000      154.871        0.000        0.000      331.120       -1.060      846.520
12/14/2021  02:37:00     -144.000       57.000      -20.000        0.000        0.000        0.000        0.000        0.000        0.000        1.219        0.000      154.871        0.000        0.000      331.120       -1.060      846.520
12/14/2021  02:38:00     -144.000       57.000      -20.000        0.000        0.000        0.000        0.000        0.000        0.000        1.219        0.000      154.871        0.000        0.000      331.120       -1.060      846.520
12/14/2021  02:39:00     -144.000       57.000      -20.000        0.000        0.000        0.000        0.000        0.000        0.000        1.219        0.000      154.871        0.000        0.000      331.120       -1.060      846.520
12/14/2021  02:40:00     -144.000       57.000      -20.000        0.000        0.000        0.000        0.000        0.000        0.000        1.219        0.000      154.871        0.000        0.000      331.120       -1.060      846.520
12/14/2021  02:41:00     -144.000       57.000      -20.000        0.000        0.000        0.000        0.000        0.000        0.000        1.219        0.000      154.871        0.000        0.000      331.120       -1.060      846.520
12/14/2021  02:42:00     -144.000       57.000      -20.000        0.000        0.000        0.000        0.000        0.000        0.000        1.219        0.000      154.871        0.000        0.000      331.120       -1.060      846.520
12/14/2021  02:43:00     -144.000       57.000      -20.000        0.000        0.000        0.000        0.000        0.000        0.000        1.219        0.000      154.871        0.000        0.000      331.120       -1.060      846.520
12/14/2021  02:44:00     -144.000       57.000      -20.000        0.000        0.000        0.000        0.000        0.000        0.000        1.219        0.000      154.871        0.000        0.000      331.120       -1.060      846.520
12/14/2021  02:45:00     -144.000       57.000      -20.000        0.000        0.000        0.000        0.000        0.000        0.000        1.219        0.000      154.871        0.000        0.000      331.120       -1.060      846.520
12/14/2021  02:46:00     -144.000       57.000      -20.000        0.000        0.000        0.000        0.000        0.000        0.000        1.219        0.000      154.871        0.000        0.000      331.120       -1.060      846.520
12/14/2021  02:47:00     -144.000       57.000      -20.000        0.000        0.000        0.000        0.000        0.000        0.000        1.219        0.000      154.871        0.000        0.000      331.120       -1.060      846.520
12/14/2021  02:48:00     -144.000       57.000      -20.000        0.000        0.000        0.000        0.000        0.000        0.000        1.219        0.000      154.871        0.000        0.000      331.120       -1.060      846.520
12/14/2021  02:49:00     -144.000       57.000      -20.000        0.000        0.000        0.000        0.000        0.000        0.000        1.219        0.000      154.871        0.000        0.000      331.120       -1.060      846.520
12/14/2021  02:50:00     -144.000       57.000      -20.000        0.000        0.000        0.000        0.000        0.000        0.000        1.219        0.000      154.871        0.000        0.000      331.120       -1.060      846.520
12/14/2021  02:51:00     -144.000       57.000      -20.000        0.000        0.000        0.000        0.000        0.000        0.000        1.219        0.000      154.871        0.000        0.000      331.120       -1.060      846.520
12/14/2021  02:52:00     -144.000       57.000      -20.000        0.000        0.000        0.000        0.000        0.000        0.000        1.219        0.000      154.871        0.000        0.000      331.120       -1.060      846.520
12/14/2021  02:53:00     -144.000       57.000      -20.000        0.000        0.000        0.000        0.000        0.000        0.000        1.219        0.000      154.871        0.000        0.000      331.120       -1.060      846.520
12/14/2021  02:54:00     -144.000       57.000      -20.000        0.000        0.000        0.000        0.000        0.000        0.000        1.219        0.000      154.871        0.000        0.000      331.120       -1.060      846.520
12/14/2021  02:55:00     -144.000       57.000      -20.000        0.000        0.000        0.000        0.000        0.000        0.000        1.219        0.000      154.871        0.000        0.000      331.120       -1.060      846.520
12/14/2021  02:56:00     -144.000       57.000      -20.000        0.000        0.000        0.000        0.000        0.000        0.000        1.219        0.000      154.871        0.000        0.000      331.120       -1.060      846.520
12/14/2021  02:57:00     -144.000       57.000      -20.000        0.000        0.000        0.000        0.000        0.000        0.000        1.219        0.000      154.871        0.000        0.000      331.120       -1.060      846.520
12/14/2021  02:58:00     -144.000       57.000      -20.000        0.000        0.000        0.000        0.000        0.000        0.000        1.219        0.000      154.871        0.000        0.000      331.120       -1.060      846.520
12/14/2021  02:59:00     -144.000       57.000      -20.000        0.000        0.000        0.000        0.000        0.000        0.000        1.219        0.000      154.871        0.000        0.000      331.120       -1.060      846.520
12/14/2021  03:00:00     -144.000       57.000      -20.000        0.000        0.000        0.000        0.000        0.000        0.000        1.219        0.000      154.871        0.000        0.000      331.120       -1.060      846.520
12/14/2021  03:01:00     -144.000       57.000      -20.000        0.000        0.000        0.000        0.000        0.000        0.000        1.219        0.000      154.871        0.000        0.000      331.120       -1.060      846.520
12/14/2021  03:02:00     -144.000       57.000      -20.000        0.000        0.000        0.000        0.000        0.000        0.000        1.219        0.000      154.871        0.000        0.000      331.120       -1.060      846.520
12/14/2021  03:03:00     -144.000       57.000      -20.000        0.000        0.000        0.000        0.000        0.000        0.000        1.219        0.000      154.871        0.000        0.000      331.120       -1.060      846.520
12/14/2021  03:04:00     -144.000       57.000      -20.000        0.000        0.000        0.000        0.000        0.000        0.000        1.219        0.000      154.871        0.000        0.000      331.120       -1.060      846.520
12/14/2021  03:05:00     -144.000       57.000      -20.000        0.000        0.000        0.000        0.000        0.000        0.000        1.219        0.000      154.871        0.000        0.000      331.120       -1.060      846.520
12/14/2021  03:06:00     -144.000       57.000      -20.000        0.000        0.000        0.000        0.000        0.000        0.000        1.219        0.000      154.871        0.000        0.000      331.120       -1.060      846.520
12/14/2021  03:07:00     -144.000       57.000      -20.000        0.000        0.000        0.000        0.000        0.000        0.000        1.219        0.000      154.871        0.000        0.000      331.120       -1.060      846.520
12/14/2021  03:08:00     -144.000       57.000      -20.000        0.000        0.000        0.000        0.000        0.000        0.000        1.219        0.000      154.871        0.000        0.000      331.120       -1.060      846.520
12/14/2021  03:09:00     -144.000       57.000      -20.000        0.000        0.000        0.000        0.000        0.000        0.000        1.219        0.000      154.871        0.000        0.000      331.120       -1.060      846.520
12/14/2021  03:10:00     -144.000       57.000      -20.000        0.000        0.000        0.000        0.000        0.000        0.000        1.219        0.000      154.871        0.000        0.000      331.120       -1.060      846.520
12/14/2021  03:11:00     -144.000       57.000      -20.000        0.000        0.000        0.000        0.000        0.000        0.000        1.219        0.000      154.871        0.000        0.000      331.120       -1.060      846.520
12/14/2021  03:12:00     -144.000       57.000      -20.000        0.000        0.000        0.000        0.000        0.000        0.000        1.219        0.000      154.871        0.000        0.000      331.120       -1.060      846.520
12/14/2021  03:13:00     -144.000       57.000      -20.000        0.000        0.000        0.000        0.000        0.000        0.000        1.219        0.000      154.871        0.000        0.000      331.120       -1.060      846.520
12/14/2021  03:14:00     -144.000       57.000      -20.000        0.000        0.000        0.000        0.000        0.000        0.000        1.219        0.000      154.871        0.000        0.000      331.120       -1.060      846.520
12/14/2021  03:15:00     -144.000       57.000      -20.000        0.000        0.000        0.000        0.000        0.000        0.000        1.219        0.000      154.871        0.000        0.000      331.120       -1.060      846.520
12/14/2021  03:16:00     -144.000       57.000      -20.000        0.000        0.000        0.000        0.000        0.000        0.000        1.219        0.000      154.871        0.000        0.000      331.120       -1.060      846.520
12/14/2021  03:17:00     -144.000       57.000      -20.000        0.000        0.000        0.000        0.000        0.000        0.000        1.219        0.000      154.871        0.000        0.000      331.120       -1.060      846.520
12/14/2021  03:18:00     -144.000       57.000      -20.000        0.000        0.000        0.000        0.000        0.000        0.000        1.219        0.000      154.871        0.000        0.000      331.120       -1.060      846.520
12/14/2021  03:19:00     -144.000       57.000      -20.000        0.000        0.000        0.000        0.000        0.000        0.000        1.219        0.000      154.871        0.000        0.000      331.120       -1.060      846.520
12/14/2021  03:20:00     -144.000       57.000      -20.000        0.000        0.000        0.000        0.000        0.000        0.000        1.219        0.000      154.871        0.000        0.000      331.120       -1.060      846.520
12/14/2021  03:21:00     -144.000       57.000      -20.000        0.000        0.000        0.000        0.000        0.000        0.000        1.219        0.000      154.871        0.000        0.000      331.120       -1.060      846.520
12/14/2021  03:22:00     -144.000       57.000      -20.000        0.000        0.000        0.000        0.000        0.000        0.000        1.219        0.000      154.871        0.000        0.000      331.120       -1.060      846.520
12/14/2021  03:23:00     -144.000       57.000      -20.000        0.000        0.000        0.000        0.000        0.000        0.000        1.219        0.000      154.871        0.000        0.000      331.120       -1.060      846.520
12/14/2021  03:24:00     -144.000       57.000      -20.000        0.000        0.000        0.000        0.000        0.000        0.000        1.219        0.000      154.871        0.000        0.000      331.120       -1.060      846.520
12/14/2021  03:25:00     -144.000       57.000      -20.000        0.000        0.000        0.000        0.000        0.000        0.000        1.219        0.000      154.871        0.000        0.000      331.120       -1.060      846.520
12/14/2021  03:26:00     -144.000       57.000      -20.000        0.000        0.000        0.000        0.000        0.000        0.000        1.219        0.000      154.871        0.000        0.000      331.120       -1.060      846.520
12/14/2021  03:27:00     -144.000       57.000      -20.000        0.000        0.000        0.000        0.000        0.000        0.000        1.219        0.000      154.871        0.000        0.000      331.120       -1.060      846.520
12/14/2021  03:28:00     -144.000       57.000      -20.000        0.000        0.000        0.000        0.000        0.000        0.000        1.219        0.000      154.871        0.000        0.000      331.120       -1.060      846.520
12/14/2021  03:29:00     -144.000       57.000      -20.000        0.000        0.000        0.000        0.000        0.000        0.000        1.219        0.000      154.871        0.000        0.000      331.120       -1.060      846.520
12/14/2021  03:30:00     -144.000       57.000      -20.000        0.000        0.000        0.000        0.000        0.000        0.000        1.219        0.000      154.871        0.000        0.000      331.120       -1.060      846.520
12/14/2021  03:31:00     -144.000       57.000      -20.000        0.000        0.000        0.000        0.000        0.000        0.000        1.219        0.000      154.871        0.000        0.000      331.120       -1.060      846.520
12/14/2021  03:32:00     -144.000       57.000      -20.000        0.000        0.000        0.000        0.000        0.000        0.000        1.219        0.000      154.871        0.000        0.000      331.120       -1.060      846.520
12/14/2021  03:33:00     -144.000       57.000      -20.000        0.000        0.000        0.000        0.000        0.000        0.000        1.219        0.000      154.871        0.000        0.000      331.120       -1.060      846.520
12/14/2021  03:34:00     -144.000       57.000      -20.000        0.000        0.000        0.000        0.000        0.000        0.000        1.219        0.000      154.871        0.000        0.000      331.120       -1.060      846.520
12/14/2021  03:35:00     -144.000       57.000      -20.000        0.000        0.000        0.000        0.000        0.000        0.000        1.219        0.000      154.871        0.000        0.000      331.120       -1.060      846.520
12/14/2021  03:36:00     -144.000       57.000      -20.000        0.000        0.000        0.000        0.000        0.000        0.000        1.219        0.000      154.871        0.000        0.000      331.120       -1.060      846.520
12/14/2021  03:37:00     -144.000       57.000      -20.000        0.000        0.000        0.000        0.000        0.000        0.000        1.219        0.000      154.871        0.000        0.000      331.120       -1.060      846.520
12/14/2021  03:38:00     -144.000       57.000      -20.000        0.000        0.000        0.000        0.000        0.000        0.000        1.219        0.000      154.871        0.000        0.000      331.120       -1.060      846.520
12/14/2021  03:39:00     -144.000       57.000      -20.000        0.000        0.000        0.000        0.000        0.000        0.000        1.219        0.000      154.871        0.000        0.000      331.120       -1.060      846.520
12/14/2021  03:40:00     -144.000       57.000      -20.000        0.000        0.000        0.000        0.000        0.000        0.000        1.219        0.000      154.871        0.000        0.000      331.120       -1.060      846.520
12/14/2021  03:41:00     -144.000       57.000      -20.000        0.000        0.000        0.000        0.000        0.000        0.000        1.219        0.000      154.871        0.000        0.000      331.120       -1.060      846.520
12/14/2021  03:42:00     -144.000       57.000      -20.000        0.000        0.000        0.000        0.000        0.000        0.000        1.219        0.000      154.871        0.000        0.000      331.120       -1.060      846.520
12/14/2021  03:43:00     -144.000       57.000      -20.000        0.000        0.000        0.000        0.000        0.000        0.000        1.219        0.000      154.871        0.000        0.000      331.120       -1.060      846.520
12/14/2021  03:44:00     -144.000       57.000      -20.000        0.000        0.000        0.000        0.000        0.000        0.000        1.219        0.000      154.871        0.000        0.000      331.120       -1.060      846.520
12/14/2021  03:45:00     -144.000       57.000      -20.000        0.000        0.000        0.000        0.000        0.000        0.000        1.219        0.000      154.871        0.000        0.000      331.120       -1.060      846.520
12/14/2021  03:46:00     -144.000       57.000      -20.000        0.000        0.000        0.000        0.000        0.000        0.000        1.219        0.000      154.871        0.000        0.000      331.120       -1.060      846.520
12/14/2021  03:47:00     -144.000       57.000      -20.000        0.000        0.000        0.000        0.000        0.000        0.000        1.219        0.000      154.871        0.000        0.000      331.120       -1.060      846.520
12/14/2021  03:48:00     -144.000       57.000      -20.000        0.000        0.000        0.000        0.000        0.000        0.000        1.219        0.000      154.871        0.000        0.000      331.120       -1.060      846.520
12/14/2021  03:49:00     -144.000       57.000      -20.000        0.000        0.000        0.000        0.000        0.000        0.000        1.219        0.000      154.871        0.000        0.000      331.120       -1.060      846.520
12/14/2021  03:50:00     -144.000       57.000      -20.000        0.000        0.000        0.000        0.000        0.000        0.000        1.219        0.000      154.871        0.000        0.000      331.120       -1.060      846.520
12/14/2021  03:51:00     -144.000       57.000      -20.000        0.000        0.000        0.000        0.000        0.000        0.000        1.219        0.000      154.871        0.000        0.000      331.120       -1.060      846.520
12/14/2021  03:52:00     -144.000       57.000      -20.000        0.000        0.000        0.000        0.000        0.000        0.000        1.219        0.000      154.871        0.000        0.000      331.120       -1.060      846.520
12/14/2021  03:53:00     -144.000       57.000      -20.000        0.000        0.000        0.000        0.000        0.000        0.000        1.219        0.000      154.871        0.000        0.000      331.120       -1.060      846.520
12/14/2021  03:54:00     -144.000       57.000      -20.000        0.000        0.000        0.000        0.000        0.000        0.000        1.219        0.000      154.871        0.000        0.000      331.120       -1.060      846.520
12/14/2021  03:55:00     -144.000       57.000      -20.000        0.000        0.000        0.000        0.000        0.000        0.000        1.219        0.000      154.871        0.000        0.000      331.120       -1.060      846.520
12/14/2021  03:56:00     -144.000       57.000      -20.000        0.000        0.000        0.000        0.000        0.000        0.000        1.219        0.000      154.871        0.000        0.000      331.120       -1.060      846.520
12/14/2021  03:57:00     -144.000       57.000      -20.000        0.000        0.000        0.000        0.000        0.000        0.000        1.219        0.000      154.871        0.000        0.000      331.120       -1.060      846.520
12/14/2021  03:58:00     -144.000       57.000      -20.000        0.000        0.000        0.000        0.000        0.000        0.000        1.219        0.000      154.871        0.000        0.000      331.120       -1.060      846.520
12/14/2021  03:59:00     -144.000       57.000      -20.000        0.000        0.000        0.000        0.000        0.000        0.000        1.219        0.000      154.871        0.000        0.000      331.120       -1.060      846.520
12/14/2021  04:00:00     -144.000       57.000      -20.000        0.000        0.000        0.000        0.000        0.000        0.000        1.219        0.000      154.871        0.000        0.000      331.120       -1.060      846.520
12/14/2021  04:01:00     -144.000       57.000      -20.000        0.000        0.000        0.000        0.000        0.000        0.000        1.219        0.000      154.871        0.000        0.000      331.120       -1.060      846.520
12/14/2021  04:02:00     -144.000       57.000      -20.000        0.000        0.000        0.000        0.000        0.000        0.000        1.219        0.000      154.871        0.000        0.000      331.120       -1.060      846.520
12/14/2021  04:03:00     -144.000       57.000      -20.000        0.000        0.000        0.000        0.000        0.000        0.000        1.219        0.000      154.871        0.000        0.000      331.120       -1.060      846.520
12/14/2021  04:04:00     -144.000       57.000      -20.000        0.000        0.000        0.000        0.000        0.000        0.000        1.219        0.000      154.871        0.000        0.000      331.120       -1.060      846.520
12/14/2021  04:05:00     -144.000       57.000      -20.000        0.000        0.000        0.000        0.000        0.000        0.000        1.219        0.000      154.871        0.000        0.000      331.120       -1.060      846.520
12/14/2021  04:06:00     -144.000       57.000      -20.000        0.000        0.000        0.000        0.000        0.000        0.000        1.219        0.000      154.871        0.000        0.000      331.120       -1.060      846.520
12/14/2021  04:07:00     -144.000       57.000      -20.000        0.000        0.000        0.000        0.000        0.000        0.000        1.219        0.000      154.871        0.000        0.000      331.120       -1.060      846.520
12/14/2021  04:08:00     -144.000       57.000      -20.000        0.000        0.000        0.000        0.000        0.000        0.000        1.219        0.000      154.871        0.000        0.000      331.120       -1.060      846.520
12/14/2021  04:09:00     -144.000       57.000      -20.000        0.000        0.000        0.000        0.000        0.000        0.000        1.219        0.000      154.871        0.000        0.000      331.120       -1.060      846.520
12/14/2021  04:10:00     -144.000       57.000      -20.000        0.000        0.000        0.000        0.000        0.000        0.000        1.219        0.000      154.871        0.000        0.000      331.120       -1.060      846.520
12/14/2021  04:11:00     -144.000       57.000      -20.000        0.000        0.000        0.000        0.000        0.000        0.000        1.219        0.000      154.871        0.000        0.000      331.120       -1.060      846.520
12/14/2021  04:12:00     -144.000       57.000      -20.000        0.000        0.000        0.000        0.000        0.000        0.000        1.219        0.000      154.871        0.000        0.000      331.120       -1.060      846.520
12/14/2021  04:13:00     -144.000       57.000      -20.000        0.000        0.000        0.000        0.000        0.000        0.000        1.219        0.000      154.871        0.000        0.000      331.120       -1.060      846.520
12/14/2021  04:14:00     -144.000       57.000      -20.000        0.000        0.000        0.000        0.000        0.000        0.000        1.219        0.000      154.871        0.000        0.000      331.120       -1.060      846.520
12/14/2021  04:15:00     -144.000       57.000      -20.000        0.000        0.000        0.000        0.000        0.000        0.000        1.219        0.000      154.871        0.000        0.000      331.120       -1.060      846.520
12/14/2021  04:16:00     -144.000       57.000      -20.000        0.000        0.000        0.000        0.000        0.000        0.000        1.219        0.000      154.871        0.000        0.000      331.120       -1.060      846.520
12/14/2021  04:17:00     -144.000       57.000      -20.000        0.000        0.000        0.000        0.000        0.000        0.000        1.219        0.000      154.871        0.000        0.000      331.120       -1.060      846.520
12/14/2021  04:18:00     -144.000       57.000      -20.000        0.000        0.000        0.000        0.000        0.000        0.000        1.219        0.000      154.871        0.000        0.000      331.120       -1.060      846.520
12/14/2021  04:19:00     -144.000       57.000      -20.000        0.000        0.000        0.000        0.000        0.000        0.000        1.219        0.000      154.871        0.000        0.000      331.120       -1.060      846.520
12/14/2021  04:20:00     -144.000       57.000      -20.000        0.000        0.000        0.000        0.000        0.000        0.000        1.219        0.000      154.871        0.000        0.000      331.120       -1.060      846.520
12/14/2021  04:21:00     -144.000       57.000      -20.000        0.000        0.000        0.000        0.000        0.000        0.000        1.219        0.000      154.871        0.000        0.000      331.120       -1.060      846.520
12/14/2021  04:22:00     -144.000       57.000      -20.000        0.000        0.000        0.000        0.000        0.000        0.000        1.219        0.000      154.871        0.000        0.000      331.120       -1.060      846.520
12/14/2021  04:23:00     -144.000       57.000      -20.000        0.000        0.000        0.000        0.000        0.000        0.000        1.219        0.000      154.871        0.000        0.000      331.120       -1.060      846.520
12/14/2021  04:24:00     -144.000       57.000      -20.000        0.000        0.000        0.000        0.000        0.000        0.000        1.219        0.000      154.871        0.000        0.000      331.120       -1.060      846.520
12/14/2021  04:25:00     -144.000       57.000      -20.000        0.000        0.000        0.000        0.000        0.000        0.000        1.219        0.000      154.871        0.000        0.000      331.120       -1.060      846.520
12/14/2021  04:26:00     -144.000       57.000      -20.000        0.000        0.000        0.000        0.000        0.000        0.000        1.219        0.000      154.871        0.000        0.000      331.120       -1.060      846.520
12/14/2021  04:27:00     -144.000       57.000      -20.000        0.000        0.000        0.000        0.000        0.000        0.000        1.219        0.000      154.871        0.000        0.000      331.120       -1.060      846.520
12/14/2021  04:28:00     -144.000       57.000      -20.000        0.000        0.000        0.000        0.000        0.000        0.000        1.219        0.000      154.871        0.000        0.000      331.120       -1.060      846.520
12/14/2021  04:29:00     -144.000       57.000      -20.000        0.000        0.000        0.000        0.000        0.000        0.000        1.219        0.000      154.871        0.000        0.000      331.120       -1.060      846.520
12/14/2021  04:30:00     -144.000       57.000      -20.000        0.000        0.000        0.000        0.000        0.000        0.000        1.219        0.000      154.871        0.000        0.000      331.120       -1.060      846.520
12/14/2021  04:31:00     -144.000       57.000      -20.000        0.000        0.000        0.000        0.000        0.000        0.000        1.219        0.000      154.871        0.000        0.000      331.120       -1.060      846.520
12/14/2021  04:32:00     -144.000       57.000      -20.000        0.000        0.000        0.000        0.000        0.000        0.000        1.219        0.000      154.871        0.000        0.000      331.120       -1.060      846.520
12/14/2021  04:33:00     -144.000       57.000      -20.000        0.000        0.000        0.000        0.000        0.000        0.000        1.219        0.000      154.871        0.000        0.000      331.120       -1.060      846.520
12/14/2021  04:34:00     -144.000       57.000      -20.000        0.000        0.000        0.000        0.000        0.000        0.000        1.219        0.000      154.871        0.000        0.000      331.120       -1.060      846.520
12/14/2021  04:35:00     -144.000       57.000      -20.000        0.000        0.000        0.000        0.000        0.000        0.000        1.219        0.000      154.871        0.000        0.000      331.120       -1.060      846.520
12/14/2021  04:36:00     -144.000       57.000      -20.000        0.000        0.000        0.000        0.000        0.000        0.000        1.219        0.000      154.871        0.000        0.000      331.120       -1.060      846.520
12/14/2021  04:37:00     -144.000       57.000      -20.000        0.000        0.000        0.000        0.000        0.000        0.000        1.219        0.000      154.871        0.000        0.000      331.120       -1.060      846.520
12/14/2021  04:38:00     -144.000       57.000      -20.000        0.000        0.000        0.000        0.000        0.000        0.000        1.219        0.000      154.871        0.000        0.000      331.120       -1.060      846.520
12/14/2021  04:39:00     -144.000       57.000      -20.000        0.000        0.000        0.000        0.000        0.000        0.000        1.219        0.000      154.871        0.000        0.000      331.120       -1.060      846.520
12/14/2021  04:40:00     -144.000       57.000      -20.000        0.000        0.000        0.000        0.000        0.000        0.000        1.219        0.000      154.871        0.000        0.000      331.120       -1.060      846.520
12/14/2021  04:41:00     -144.000       57.000      -20.000        0.000        0.000        0.000        0.000        0.000        0.000        1.219        0.000      154.871        0.000        0.000      331.120       -1.060      846.520
12/14/2021  04:42:00     -144.000       57.000      -20.000        0.000        0.000        0.000        0.000        0.000        0.000        1.219        0.000      154.871        0.000        0.000      331.120       -1.060      846.520
12/14/2021  04:43:00     -144.000       57.000      -20.000        0.000        0.000        0.000        0.000        0.000        0.000        1.219        0.000      154.871        0.000        0.000      331.120       -1.060      846.520
12/14/2021  04:44:00     -144.000       57.000      -20.000        0.000        0.000        0.000        0.000        0.000        0.000        1.219        0.000      154.871        0.000        0.000      331.120       -1.060      846.520
12/14/2021  04:45:00     -144.000       57.000      -20.000        0.000        0.000        0.000        0.000        0.000        0.000        1.219        0.000      154.871        0.000        0.000      331.120       -1.060      846.520
12/14/2021  04:46:00     -144.000       57.000      -20.000        0.000        0.000        0.000        0.000        0.000        0.000        1.219        0.000      154.871        0.000        0.000      331.120       -1.060      846.520
12/14/2021  04:47:00     -144.000       57.000      -20.000        0.000        0.000        0.000        0.000        0.000        0.000        1.219        0.000      154.871        0.000        0.000      331.120       -1.060      846.520
12/14/2021  04:48:00     -144.000       57.000      -20.000        0.000        0.000        0.000        0.000        0.000        0.000        1.219        0.000      154.871        0.000        0.000      331.120       -1.060      846.520
12/14/2021  04:49:00     -144.000       57.000      -20.000        0.000        0.000        0.000        0.000        0.000        0.000        1.219        0.000      154.871        0.000        0.000      331.120       -1.060      846.520
12/14/2021  04:50:00     -144.000       57.000      -20.000        0.000        0.000        0.000        0.000        0.000        0.000        1.219        0.000      154.871        0.000        0.000      331.120       -1.060      846.520
12/14/2021  04:51:00     -144.000       57.000      -20.000        0.000        0.000        0.000        0.000        0.000        0.000        1.219        0.000      154.871        0.000        0.000      331.120       -1.060      846.520
12/14/2021  04:52:00     -144.000       57.000      -20.000        0.000        0.000        0.000        0.000        0.000        0.000        1.219        0.000      154.871        0.000        0.000      331.120       -1.060      846.520
12/14/2021  04:53:00     -144.000       57.000      -20.000        0.000        0.000        0.000        0.000        0.000        0.000        1.219        0.000      154.871        0.000        0.000      331.120       -1.060      846.520
12/14/2021  04:54:00     -144.000       57.000      -20.000        0.000        0.000        0.000        0.000        0.000        0.000        1.219        0.000      154.871        0.000        0.000      331.120       -1.060      846.520
12/14/2021  04:55:00     -144.000       57.000      -20.000        0.000        0.000        0.000        0.000        0.000        0.000        1.219        0.000      154.871        0.000        0.000      331.120       -1.060      846.520
12/14/2021  04:56:00     -144.000       57.000      -20.000        0.000        0.000        0.000        0.000        0.000        0.000        1.219        0.000      154.871        0.000        0.000      331.120       -1.060      846.520
12/14/2021  04:57:00     -144.000       57.000      -20.000        0.000        0.000        0.000        0.000        0.000        0.000        1.219        0.000      154.871        0.000        0.000      331.120       -1.060      846.520
12/14/2021  04:58:00     -144.000       57.000      -20.000        0.000        0.000        0.000        0.000        0.000        0.000        1.219        0.000      154.871        0.000        0.000      331.120       -1.060      846.520
12/14/2021  04:59:00     -144.000       57.000      -20.000        0.000        0.000        0.000        0.000        0.000        0.000        1.219        0.000      154.871        0.000        0.000      331.120       -1.060      846.520
12/14/2021  05:00:00     -144.000       57.000      -20.000        0.000        0.000        0.000        0.000        0.000        0.000        1.219        0.000      154.871        0.000        0.000      331.120       -1.060      846.520
12/14/2021  05:01:00     -144.000       57.000      -20.000        0.000        0.000        0.000        0.000        0.000        0.000        1.219        0.000      154.871        0.000        0.000      331.120       -1.060      846.520
12/14/2021  05:02:00     -144.000       57.000      -20.000        0.000        0.000        0.000        0.000        0.000        0.000        1.219        0.000      154.871        0.000        0.000      331.120       -1.060      846.520
12/14/2021  05:03:00     -144.000       57.000      -20.000        0.000        0.000        0.000        0.000        0.000        0.000        1.219        0.000      154.871        0.000        0.000      331.120       -1.060      846.520
12/14/2021  05:04:00     -144.000       57.000      -20.000        0.000        0.000        0.000        0.000        0.000        0.000        1.219        0.000      154.871        0.000        0.000      331.120       -1.060      846.520
12/14/2021  05:05:00     -144.000       57.000      -20.000        0.000        0.000        0.000        0.000        0.000        0.000        1.219        0.000      154.871        0.000        0.000      331.120       -1.060      846.520
12/14/2021  05:06:00     -144.000       57.000      -20.000        0.000        0.000        0.000        0.000        0.000        0.000        1.219        0.000      154.871        0.000        0.000      331.120       -1.060      846.520
12/14/2021  05:07:00     -144.000       57.000      -20.000        0.000        0.000        0.000        0.000        0.000        0.000        1.219        0.000      154.871        0.000        0.000      331.120       -1.060      846.520
12/14/2021  05:08:00     -144.000       57.000      -20.000        0.000        0.000        0.000        0.000        0.000        0.000        1.219        0.000      154.871        0.000        0.000      331.120       -1.060      846.520
12/14/2021  05:09:00     -144.000       57.000      -20.000        0.000        0.000        0.000        0.000        0.000        0.000        1.219        0.000      154.871        0.000        0.000      331.120       -1.060      846.520
12/14/2021  05:10:00     -144.000       57.000      -20.000        0.000        0.000        0.000        0.000        0.000        0.000        1.219        0.000      154.871        0.000        0.000      331.120       -1.060      846.520
12/14/2021  05:11:00     -144.000       57.000      -20.000        0.000        0.000        0.000        0.000        0.000        0.000        1.219        0.000      154.871        0.000        0.000      331.120       -1.060      846.520
12/14/2021  05:12:00     -144.000       57.000      -20.000        0.000        0.000        0.000        0.000        0.000        0.000        1.219        0.000      154.871        0.000        0.000      331.120       -1.060      846.520
12/14/2021  05:13:00     -144.000       57.000      -20.000        0.000        0.000        0.000        0.000        0.000        0.000        1.219        0.000      154.871        0.000        0.000      331.120       -1.060      846.520
12/14/2021  05:14:00     -144.000       57.000      -20.000        0.000        0.000        0.000        0.000        0.000        0.000        1.219        0.000      154.871        0.000        0.000      331.120       -1.060      846.520
12/14/2021  05:15:00     -144.000       57.000      -20.000        0.000        0.000        0.000        0.000        0.000        0.000        1.219        0.000      154.871        0.000        0.000      331.120       -1.060      846.520
12/14/2021  05:16:00     -144.000       57.000      -20.000        0.000        0.000        0.000        0.000        0.000        0.000        1.219        0.000      154.871        0.000        0.000      331.120       -1.060      846.520
12/14/2021  05:17:00     -144.000       57.000      -20.000        0.000        0.000        0.000        0.000        0.000        0.000        1.219        0.000      154.871        0.000        0.000      331.120       -1.060      846.520
12/14/2021  05:18:00     -144.000       57.000      -20.000        0.000        0.000        0.000        0.000        0.000        0.000        1.219        0.000      154.871        0.000        0.000      331.120       -1.060      846.520
12/14/2021  05:19:00     -144.000       57.000      -20.000        0.000        0.000        0.000        0.000        0.000        0.000        1.219        0.000      154.871        0.000        0.000      331.120       -1.060      846.520
12/14/2021  05:20:00     -144.000       57.000      -20.000        0.000        0.000        0.000        0.000        0.000        0.000        1.219        0.000      154.871        0.000        0.000      331.120       -1.060      846.520
12/14/2021  05:21:00     -144.000       57.000      -20.000        0.000        0.000        0.000        0.000        0.000        0.000        1.219        0.000      154.871        0.000        0.000      331.120       -1.060      846.520
12/14/2021  05:22:00     -144.000       57.000      -20.000        0.000        0.000        0.000        0.000        0.000        0.000        1.219        0.000      154.871        0.000        0.000      331.120       -1.060      846.520
12/14/2021  05:23:00     -144.000       57.000      -20.000        0.000        0.000        0.000        0.000        0.000        0.000        1.219        0.000      154.871        0.000        0.000      331.120       -1.060      846.520
12/14/2021  05:24:00     -144.000       57.000      -20.000        0.000        0.000        0.000        0.000        0.000        0.000        1.219        0.000      154.871        0.000        0.000      331.120       -1.060      846.520
12/14/2021  05:25:00     -144.000       57.000      -20.000        0.000        0.000        0.000        0.000        0.000        0.000        1.219        0.000      154.871        0.000        0.000      331.120       -1.060      846.520
12/14/2021  05:26:00     -144.000       57.000      -20.000        0.000        0.000        0.000        0.000        0.000        0.000        1.219        0.000      154.871        0.000        0.000      331.120       -1.060      846.520
12/14/2021  05:27:00     -144.000       57.000      -20.000        0.000        0.000        0.000        0.000        0.000        0.000        1.219        0.000      154.871        0.000        0.000      331.120       -1.060      846.520
12/14/2021  05:28:00     -144.000       57.000      -20.000        0.000        0.000        0.000        0.000        0.000        0.000        1.219        0.000      154.871        0.000        0.000      331.120       -1.060      846.520
12/14/2021  05:29:00     -144.000       57.000      -20.000        0.000        0.000        0.000        0.000        0.000        0.000        1.219        0.000      154.871        0.000        0.000      331.120       -1.060      846.520
12/14/2021  05:30:00     -144.000       57.000      -20.000        0.000        0.000        0.000        0.000        0.000        0.000        1.219        0.000      154.871        0.000        0.000      331.120       -1.060      846.520
12/14/2021  05:31:00     -144.000       57.000      -20.000        0.000        0.000        0.000        0.000        0.000        0.000        1.219        0.000      154.871        0.000        0.000      331.120       -1.060      846.520
12/14/2021  05:32:00     -144.000       57.000      -20.000        0.000        0.000        0.000        0.000        0.000        0.000        1.219        0.000      154.871        0.000        0.000      331.120       -1.060      846.520
12/14/2021  05:33:00     -144.000       57.000      -20.000        0.000        0.000        0.000        0.000        0.000        0.000        1.219        0.000      154.871        0.000        0.000      331.120       -1.060      846.520
12/14/2021  05:34:00     -144.000       57.000      -20.000        0.000        0.000        0.000        0.000        0.000        0.000        1.219        0.000      154.871        0.000        0.000      331.120       -1.060      846.520
12/14/2021  05:35:00     -144.000       57.000      -20.000        0.000        0.000        0.000        0.000        0.000        0.000        1.219        0.000      154.871        0.000        0.000      331.120       -1.060      846.520
12/14/2021  05:36:00     -144.000       57.000      -20.000        0.000        0.000        0.000        0.000        0.000        0.000        1.219        0.000      154.871        0.000        0.000      331.120       -1.060      846.520
12/14/2021  05:37:00     -144.000       57.000      -20.000        0.000        0.000        0.000        0.000        0.000        0.000        1.219        0.000      154.871        0.000        0.000      331.120       -1.060      846.520
12/14/2021  05:38:00     -144.000       57.000      -20.000        0.000        0.000        0.000        0.000        0.000        0.000        1.219        0.000      154.871        0.000        0.000      331.120       -1.060      846.520
12/14/2021  05:39:00     -144.000       57.000      -20.000        0.000        0.000        0.000        0.000        0.000        0.000        1.219        0.000      154.871        0.000        0.000      331.120       -1.060      846.520
12/14/2021  05:40:00     -144.000       57.000      -20.000        0.000        0.000        0.000        0.000        0.000        0.000        1.219        0.000      154.871        0.000        0.000      331.120       -1.060      846.520
12/14/2021  05:41:00     -144.000       57.000      -20.000        0.000        0.000        0.000        0.000        0.000        0.000        1.219        0.000      154.871        0.000        0.000      331.120       -1.060      846.520
12/14/2021  05:42:00     -144.000       57.000      -20.000        0.000        0.000        0.000        0.000        0.000        0.000        1.219        0.000      154.871        0.000        0.000      331.120       -1.060      846.520
12/14/2021  05:43:00     -144.000       57.000      -20.000        0.000        0.000        0.000        0.000        0.000        0.000        1.219        0.000      154.871        0.000        0.000      331.120       -1.060      846.520
12/14/2021  05:44:00     -144.000       57.000      -20.000        0.000        0.000        0.000        0.000        0.000        0.000        1.219        0.000      154.871        0.000        0.000      331.120       -1.060      846.520
12/14/2021  05:45:00     -144.000       57.000      -20.000        0.000        0.000        0.000        0.000        0.000        0.000        1.219        0.000      154.871        0.000        0.000      331.120       -1.060      846.520
12/14/2021  05:46:00     -144.000       57.000      -20.000        0.000        0.000        0.000        0.000        0.000        0.000        1.219        0.000      154.871        0.000        0.000      331.120       -1.060      846.520
12/14/2021  05:47:00     -144.000       57.000      -20.000        0.000        0.000        0.000        0.000        0.000        0.000        1.219        0.000      154.871        0.000        0.000      331.120       -1.060      846.520
12/14/2021  05:48:00     -144.000       57.000      -20.000        0.000        0.000        0.000        0.000        0.000        0.000        1.219        0.000      154.871        0.000        0.000      331.120       -1.060      846.520
12/14/2021  05:49:00     -144.000       57.000      -20.000        0.000        0.000        0.000        0.000        0.000        0.000        1.219        0.000      154.871        0.000        0.000      331.120       -1.060      846.520
12/14/2021  05:50:00     -144.000       57.000      -20.000        0.000        0.000        0.000        0.000        0.000        0.000        1.219        0.000      154.871        0.000        0.000      331.120       -1.060      846.520
12/14/2021  05:51:00     -144.000       57.000      -20.000        0.000        0.000        0.000        0.000        0.000        0.000        1.219        0.000      154.871        0.000        0.000      331.120       -1.060      846.520
12/14/2021  05:52:00     -144.000       57.000      -20.000        0.000        0.000        0.000        0.000        0.000        0.000        1.219        0.000      154.871        0.000        0.000      331.120       -1.060      846.520
12/14/2021  05:53:00     -144.000       57.000      -20.000        0.000        0.000        0.000        0.000        0.000        0.000        1.219        0.000      154.871        0.000        0.000      331.120       -1.060      846.520
12/14/2021  05:54:00     -144.000       57.000      -20.000        0.000        0.000        0.000        0.000        0.000        0.000        1.219        0.000      154.871        0.000        0.000      331.120       -1.060      846.520
12/14/2021  05:55:00     -144.000       57.000      -20.000        0.000        0.000        0.000        0.000        0.000        0.000        1.219        0.000      154.871        0.000        0.000      331.120       -1.060      846.520
12/14/2021  05:56:00     -144.000       57.000      -20.000        0.000        0.000        0.000        0.000        0.000        0.000        1.219        0.000      154.871        0.000        0.000      331.120       -1.060      846.520
12/14/2021  05:57:00     -144.000       57.000      -20.000        0.000        0.000        0.000        0.000        0.000        0.000        1.219        0.000      154.871        0.000        0.000      331.120       -1.060      846.520
12/14/2021  05:58:00     -144.000       57.000      -20.000        0.000        0.000        0.000        0.000        0.000        0.000        1.219        0.000      154.871        0.000        0.000      331.120       -1.060      846.520
12/14/2021  05:59:00     -144.000       57.000      -20.000        0.000        0.000        0.000        0.000        0.000        0.000        1.219        0.000      154.871        0.000        0.000      331.120       -1.060      846.520
12/14/2021  06:00:00     -144.000       57.000      -20.000        0.000        0.000        0.000        0.000        0.000        0.000        1.219        0.000      154.871        0.000        0.000      331.120       -1.060      846.520
12/14/2021  06:01:00     -144.000       57.000      -20.000        0.000        0.000        0.000        0.000        0.000        0.000        1.219        0.000      154.871        0.000        0.000      331.120       -1.060      846.520
12/14/2021  06:02:00     -144.000       57.000      -20.000        0.000        0.000        0.000        0.000        0.000        0.000        1.219        0.000      154.871        0.000        0.000      331.120       -1.060      846.520
12/14/2021  06:03:00     -144.000       57.000      -20.000        0.000        0.000        0.000        0.000        0.000        0.000        1.219        0.000      154.871        0.000        0.000      331.120       -1.060      846.520
12/14/2021  06:04:00     -144.000       57.000      -20.000        0.000        0.000        0.000        0.000        0.000        0.000        1.219        0.000      154.871        0.000        0.000      331.120       -1.060      846.520
12/14/2021  06:05:00     -144.000       57.000      -20.000        0.000        0.000        0.000        0.000        0.000        0.000        1.219        0.000      154.871        0.000        0.000      331.120       -1.060      846.520
12/14/2021  06:06:00     -144.000       57.000      -20.000        0.000        0.000        0.000        0.000        0.000        0.000        1.219        0.000      154.871        0.000        0.000      331.120       -1.060      846.520
12/14/2021  06:07:00     -144.000       57.000      -20.000        0.000        0.000        0.000        0.000        0.000        0.000        1.219        0.000      154.871        0.000        0.000      331.120       -1.060      846.520
12/14/2021  06:08:00     -144.000       57.000      -20.000        0.000        0.000        0.000        0.000        0.000        0.000        1.219        0.000      154.871        0.000        0.000      331.120       -1.060      846.520
12/14/2021  06:09:00     -144.000       57.000      -20.000        0.000        0.000        0.000        0.000        0.000        0.000        1.219        0.000      154.871        0.000        0.000      331.120       -1.060      846.520
12/14/2021  06:10:00     -144.000       57.000      -20.000        0.000        0.000        0.000        0.000        0.000        0.000        1.219        0.000      154.871        0.000        0.000      331.120       -1.060      846.520
12/14/2021  06:11:00     -144.000       57.000      -20.000        0.000        0.000        0.000        0.000        0.000        0.000        1.219        0.000      154.871        0.000        0.000      331.120       -1.060      846.520
12/14/2021  06:12:00     -144.000       57.000      -20.000        0.000        0.000        0.000        0.000        0.000        0.000        1.219        0.000      154.871        0.000        0.000      331.120       -1.060      846.520
12/14/2021  06:13:00     -144.000       57.000      -20.000        0.000        0.000        0.000        0.000        0.000        0.000        1.219        0.000      154.871        0.000        0.000      331.120       -1.060      846.520
12/14/2021  06:14:00     -144.000       57.000      -20.000        0.000        0.000        0.000        0.000        0.000        0.000        1.219        0.000      154.871        0.000        0.000      331.120       -1.060      846.520
12/14/2021  06:15:00     -144.000       57.000      -20.000        0.000        0.000        0.000        0.000        0.000        0.000        1.219        0.000      154.871        0.000        0.000      331.120       -1.060      846.520
12/14/2021  06:16:00     -144.000       57.000      -20.000        0.000        0.000        0.000        0.000        0.000        0.000        1.219        0.000      154.871        0.000        0.000      331.120       -1.060      846.520
12/14/2021  06:17:00     -144.000       57.000      -20.000        0.000        0.000        0.000        0.000        0.000        0.000        1.219        0.000      154.871        0.000        0.000      331.120       -1.060      846.520
12/14/2021  06:18:00     -144.000       57.000      -20.000        0.000        0.000        0.000        0.000        0.000        0.000        1.219        0.000      154.871        0.000        0.000      331.120       -1.060      846.520
12/14/2021  06:19:00     -144.000       57.000      -20.000        0.000        0.000        0.000        0.000        0.000        0.000        1.219        0.000      154.871        0.000        0.000      331.120       -1.060      846.520
12/14/2021  06:20:00     -144.000       57.000      -20.000        0.000        0.000        0.000        0.000        0.000        0.000        1.219        0.000      154.871        0.000        0.000      331.120       -1.060      846.520
12/14/2021  06:21:00     -144.000       57.000      -20.000        0.000        0.000        0.000        0.000        0.000        0.000        1.219        0.000      154.871        0.000        0.000      331.120       -1.060      846.520
12/14/2021  06:22:00     -144.000       57.000      -20.000        0.000        0.000        0.000        0.000        0.000        0.000        1.219        0.000      154.871        0.000        0.000      331.120       -1.060      846.520
12/14/2021  06:23:00     -144.000       57.000      -20.000        0.000        0.000        0.000        0.000        0.000        0.000        1.219        0.000      154.871        0.000        0.000      331.120       -1.060      846.520
12/14/2021  06:24:00     -144.000       57.000      -20.000        0.000        0.000        0.000        0.000        0.000        0.000        1.219        0.000      154.871        0.000        0.000      331.120       -1.060      846.520
12/14/2021  06:25:00     -144.000       57.000      -20.000        0.000        0.000        0.000        0.000        0.000        0.000        1.219        0.000      154.871        0.000        0.000      331.120       -1.060      846.520
12/14/2021  06:26:00     -144.000       57.000      -20.000        0.000        0.000        0.000        0.000        0.000        0.000        1.219        0.000      154.871        0.000        0.000      331.120       -1.060      846.520
12/14/2021  06:27:00     -144.000       57.000      -20.000        0.000        0.000        0.000        0.000        0.000        0.000        1.219        0.000      154.871        0.000        0.000      331.120       -1.060      846.520
12/14/2021  06:28:00     -144.000       57.000      -20.000        0.000        0.000        0.000        0.000        0.000        0.000        1.219        0.000      154.871        0.000        0.000      331.120       -1.060      846.520
12/14/2021  06:29:00     -144.000       57.000      -20.000        0.000        0.000        0.000        0.000        0.000        0.000        1.219        0.000      154.871        0.000        0.000      331.120       -1.060      846.520
12/14/2021  06:30:00     -144.000       57.000      -20.000        0.000        0.000        0.000        0.000        0.000        0.000        1.219        0.000      154.871        0.000        0.000      331.120       -1.060      846.520
12/14/2021  06:31:00     -144.000       57.000      -20.000        0.000        0.000        0.000        0.000        0.000        0.000        1.219        0.000      154.871        0.000        0.000      331.120       -1.060      846.520
12/14/2021  06:32:00     -144.000       57.000      -20.000        0.000        0.000        0.000        0.000        0.000        0.000        1.219        0.000      154.871        0.000        0.000      331.120       -1.060      846.520
12/14/2021  06:33:00     -144.000       57.000      -20.000        0.000        0.000        0.000        0.000        0.000        0.000        1.219        0.000      154.871        0.000        0.000      331.120       -1.060      846.520
12/14/2021  06:34:00     -144.000       57.000      -20.000        0.000        0.000        0.000        0.000        0.000        0.000        1.219        0.000      154.871        0.000        0.000      331.120       -1.060      846.520
12/14/2021  06:35:00     -144.000       57.000      -20.000        0.000        0.000        0.000        0.000        0.000        0.000        1.219        0.000      154.871        0.000        0.000      331.120       -1.060      846.520
12/14/2021  06:36:00     -144.000       57.000      -20.000        0.000        0.000        0.000        0.000        0.000        0.000        1.219        0.000      154.871        0.000        0.000      331.120       -1.060      846.520
12/14/2021  06:37:00     -144.000       57.000      -20.000        0.000        0.000        0.000        0.000        0.000        0.000        1.219        0.000      154.871        0.000        0.000      331.120       -1.060      846.520
12/14/2021  06:38:00     -144.000       57.000      -20.000        0.000        0.000        0.000        0.000        0.000        0.000        1.219        0.000      154.871        0.000        0.000      331.120       -1.060      846.520
12/14/2021  06:39:00     -144.000       57.000      -20.000        0.000        0.000        0.000        0.000        0.000        0.000        1.219        0.000      154.871        0.000        0.000      331.120       -1.060      846.520
12/14/2021  06:40:00     -144.000       57.000      -20.000        0.000        0.000        0.000        0.000        0.000        0.000        1.219        0.000      154.871        0.000        0.000      331.120       -1.060      846.520
12/14/2021  06:41:00     -144.000       57.000      -20.000        0.000        0.000        0.000        0.000        0.000        0.000        1.219        0.000      154.871        0.000        0.000      331.120       -1.060      846.520
12/14/2021  06:42:00     -144.000       57.000      -20.000        0.000        0.000        0.000        0.000        0.000        0.000        1.219        0.000      154.871        0.000        0.000      331.120       -1.060      846.520
12/14/2021  06:43:00     -144.000       57.000      -20.000        0.000        0.000        0.000        0.000        0.000        0.000        1.219        0.000      154.871        0.000        0.000      331.120       -1.060      846.520
12/14/2021  06:44:00     -144.000       57.000      -20.000        0.000        0.000        0.000        0.000        0.000        0.000        1.219        0.000      154.871        0.000        0.000      331.120       -1.060      846.520
12/14/2021  06:45:00     -144.000       57.000      -20.000        0.000        0.000        0.000        0.000        0.000        0.000        1.219        0.000      154.871        0.000        0.000      331.120       -1.060      846.520
12/14/2021  06:46:00     -144.000       57.000      -20.000        0.000        0.000        0.000        0.000        0.000        0.000        1.219        0.000      154.871        0.000        0.000      331.120       -1.060      846.520
12/14/2021  06:47:00     -144.000       57.000      -20.000        0.000        0.000        0.000        0.000        0.000        0.000        1.219        0.000      154.871        0.000        0.000      331.120       -1.060      846.520
12/14/2021  06:48:00     -144.000       57.000      -20.000        0.000        0.000        0.000        0.000        0.000        0.000        1.219        0.000      154.871        0.000        0.000      331.120       -1.060      846.520
12/14/2021  06:49:00     -144.000       57.000      -20.000        0.000        0.000        0.000        0.000        0.000        0.000        1.219        0.000      154.871        0.000        0.000      331.120       -1.060      846.520
12/14/2021  06:50:00     -144.000       57.000      -20.000        0.000        0.000        0.000        0.000        0.000        0.000        1.219        0.000      154.871        0.000        0.000      331.120       -1.060      846.520
12/14/2021  06:51:00     -144.000       57.000      -20.000        0.000        0.000        0.000        0.000        0.000        0.000        1.219        0.000      154.871        0.000        0.000      331.120       -1.060      846.520
12/14/2021  06:52:00     -144.000       57.000      -20.000        0.000        0.000        0.000        0.000        0.000        0.000        1.219        0.000      154.871        0.000        0.000      331.120       -1.060      846.520
12/14/2021  06:53:00     -144.000       57.000      -20.000        0.000        0.000        0.000        0.000        0.000        0.000        1.219        0.000      154.871        0.000        0.000      331.120       -1.060      846.520
12/14/2021  06:54:00     -144.000       57.000      -20.000        0.000        0.000        0.000        0.000        0.000        0.000        1.219        0.000      154.871        0.000        0.000      331.120       -1.060      846.520
12/14/2021  06:55:00     -144.000       57.000      -20.000        0.000        0.000        0.000        0.000        0.000        0.000        1.219        0.000      154.871        0.000        0.000      331.120       -1.060      846.520
12/14/2021  06:56:00     -144.000       57.000      -20.000        0.000        0.000        0.000        0.000        0.000        0.000        1.219        0.000      154.871        0.000        0.000      331.120       -1.060      846.520
12/14/2021  06:57:00     -144.000       57.000      -20.000        0.000        0.000        0.000        0.000        0.000        0.000        1.219        0.000      154.871        0.000        0.000      331.120       -1.060      846.520
12/14/2021  06:58:00     -144.000       57.000      -20.000        0.000        0.000        0.000        0.000        0.000        0.000        1.219        0.000      154.871        0.000        0.000      331.120       -1.060      846.520
12/14/2021  06:59:00     -144.000       57.000      -20.000        0.000        0.000        0.000        0.000        0.000        0.000        1.219        0.000      154.871        0.000        0.000      331.120       -1.060      846.520
12/14/2021  07:00:00     -144.000       57.000      -20.000        0.000        0.000        0.000        0.000        0.000        0.000        1.219        0.000      154.871        0.000        0.000      331.120       -1.060      846.520
12/14/2021  07:01:00     -144.000       57.000      -20.000        0.000        0.000        0.000        0.000        0.000        0.000        1.219        0.000      154.871        0.000        0.000      331.120       -1.060      846.520
12/14/2021  07:02:00     -144.000       57.000      -20.000        0.000        0.000        0.000        0.000        0.000        0.000        1.219        0.000      154.871        0.000        0.000      331.120       -1.060      846.520
12/14/2021  07:03:00     -144.000       57.000      -20.000        0.000        0.000        0.000        0.000        0.000        0.000        1.219        0.000      154.871        0.000        0.000      331.120       -1.060      846.520
12/14/2021  07:04:00     -144.000       57.000      -20.000        0.000        0.000        0.000        0.000        0.000        0.000        1.219        0.000      154.871        0.000        0.000      331.120       -1.060      846.520
12/14/2021  07:05:00     -144.000       57.000      -20.000        0.000        0.000        0.000        0.000        0.000        0.000        1.219        0.000      154.871        0.000        0.000      331.120       -1.060      846.520
12/14/2021  07:06:00     -144.000       57.000      -20.000        0.000        0.000        0.000        0.000        0.000        0.000        1.219        0.000      154.871        0.000        0.000      331.120       -1.060      846.520
12/14/2021  07:07:00     -144.000       57.000      -20.000        0.000        0.000        0.000        0.000        0.000        0.000        1.219        0.000      154.871        0.000        0.000      331.120       -1.060      846.520
12/14/2021  07:08:00     -144.000       57.000      -20.000        0.000        0.000        0.000        0.000        0.000        0.000        1.219        0.000      154.871        0.000        0.000      331.120       -1.060      846.520
12/14/2021  07:09:00     -144.000       57.000      -20.000        0.000        0.000        0.000        0.000        0.000        0.000        1.219        0.000      154.871        0.000        0.000      331.120       -1.060      846.520
12/14/2021  07:10:00     -144.000       57.000      -20.000        0.000        0.000        0.000        0.000        0.000        0.000        1.219        0.000      154.871        0.000        0.000      331.120       -1.060      846.520
12/14/2021  07:11:00     -144.000       57.000      -20.000        0.000        0.000        0.000        0.000        0.000        0.000        1.219        0.000      154.871        0.000        0.000      331.120       -1.060      846.520
12/14/2021  07:12:00     -144.000       57.000      -20.000        0.000        0.000        0.000        0.000        0.000        0.000        1.219        0.000      154.871        0.000        0.000      331.120       -1.060      846.520
12/14/2021  07:13:00     -144.000       57.000      -20.000        0.000        0.000        0.000        0.000        0.000        0.000        1.219        0.000      154.871        0.000        0.000      331.120       -1.060      846.520
12/14/2021  07:14:00     -144.000       57.000      -20.000        0.000        0.000        0.000        0.000        0.000        0.000        1.219        0.000      154.871        0.000        0.000      331.120       -1.060      846.520
12/14/2021  07:15:00     -144.000       57.000      -20.000        0.000        0.000        0.000        0.000        0.000        0.000        1.219        0.000      154.871        0.000        0.000      331.120       -1.060      846.520
12/14/2021  07:16:00     -144.000       57.000      -20.000        0.000        0.000        0.000        0.000        0.000        0.000        1.219        0.000      154.871        0.000        0.000      331.120       -1.060      846.520
12/14/2021  07:17:00     -144.000       57.000      -20.000        0.000        0.000        0.000        0.000        0.000        0.000        1.219        0.000      154.871        0.000        0.000      331.120       -1.060      846.520
12/14/2021  07:18:00     -144.000       57.000      -20.000        0.000        0.000        0.000        0.000        0.000        0.000        1.219        0.000      154.871        0.000        0.000      331.120       -1.060      846.520
12/14/2021  07:19:00     -144.000       57.000      -20.000        0.000        0.000        0.000        0.000        0.000        0.000        1.219        0.000      154.871        0.000        0.000      331.120       -1.060      846.520
12/14/2021  07:20:00     -144.000       57.000      -20.000        0.000        0.000        0.000        0.000        0.000        0.000        1.219        0.000      154.871        0.000        0.000      331.120       -1.060      846.520
12/14/2021  07:21:00     -144.000       57.000      -20.000        0.000        0.000        0.000        0.000        0.000        0.000        1.219        0.000      154.871        0.000        0.000      331.120       -1.060      846.520
12/14/2021  07:22:00     -144.000       57.000      -20.000        0.000        0.000        0.000        0.000        0.000        0.000        1.219        0.000      154.871        0.000        0.000      331.120       -1.060      846.520
12/14/2021  07:23:00     -144.000       57.000      -20.000        0.000        0.000        0.000        0.000        0.000        0.000        1.219        0.000      154.871        0.000        0.000      331.120       -1.060      846.520
12/14/2021  07:24:00     -144.000       57.000      -20.000        0.000        0.000        0.000        0.000        0.000        0.000        1.219        0.000      154.871        0.000        0.000      331.120       -1.060      846.520
12/14/2021  07:25:00     -144.000       57.000      -20.000        0.000        0.000        0.000        0.000        0.000        0.000        1.219        0.000      154.871        0.000        0.000      331.120       -1.060      846.520
12/14/2021  07:26:00     -144.000       57.000      -20.000        0.000        0.000        0.000        0.000        0.000        0.000        1.219        0.000      154.871        0.000        0.000      331.120       -1.060      846.520
12/14/2021  07:27:00     -144.000       57.000      -20.000        0.000        0.000        0.000        0.000        0.000        0.000        1.219        0.000      154.871        0.000        0.000      331.120       -1.060      846.520
12/14/2021  07:28:00     -144.000       57.000      -20.000        0.000        0.000        0.000        0.000        0.000        0.000        1.219        0.000      154.871        0.000        0.000      331.120       -1.060      846.520
12/14/2021  07:29:00     -144.000       57.000      -20.000        0.000        0.000        0.000        0.000        0.000        0.000        1.219        0.000      154.871        0.000        0.000      331.120       -1.060      846.520
12/14/2021  07:30:00     -144.000       57.000      -20.000        0.000        0.000        0.000        0.000        0.000        0.000        1.219        0.000      154.871        0.000        0.000      331.120       -1.060      846.520
12/14/2021  07:31:00     -144.000       57.000      -20.000        0.000        0.000        0.000        0.000        0.000        0.000        1.219        0.000      154.871        0.000        0.000      331.120       -1.060      846.520
12/14/2021  07:32:00     -144.000       57.000      -20.000        0.000        0.000        0.000        0.000        0.000        0.000        1.219        0.000      154.871        0.000        0.000      331.120       -1.060      846.520
12/14/2021  07:33:00     -144.000       57.000      -20.000        0.000        0.000        0.000        0.000        0.000        0.000        1.219        0.000      154.871        0.000        0.000      331.120       -1.060      846.520
12/14/2021  07:34:00     -144.000       57.000      -20.000        0.000        0.000        0.000        0.000        0.000        0.000        1.219        0.000      154.871        0.000        0.000      331.120       -1.060      846.520
12/14/2021  07:35:00     -144.000       57.000      -20.000        0.000        0.000        0.000        0.000        0.000        0.000        1.219        0.000      154.871        0.000        0.000      331.120       -1.060      846.520
12/14/2021  07:36:00     -144.000       57.000      -20.000        0.000        0.000        0.000        0.000        0.000        0.000        1.219        0.000      154.871        0.000        0.000      331.120       -1.060      846.520
12/14/2021  07:37:00     -144.000       57.000      -20.000        0.000        0.000        0.000        0.000        0.000        0.000        1.219        0.000      154.871        0.000        0.000      331.120       -1.060      846.520
12/14/2021  07:38:00     -144.000       57.000      -20.000        0.000        0.000        0.000        0.000        0.000        0.000        1.219        0.000      154.871        0.000        0.000      331.120       -1.060      846.520
12/14/2021  07:39:00     -144.000       57.000      -20.000        0.000        0.000        0.000        0.000        0.000        0.000        1.219        0.000      154.871        0.000        0.000      331.120       -1.060      846.520
12/14/2021  07:40:00     -144.000       57.000      -20.000        0.000        0.000        0.000        0.000        0.000        0.000        1.219        0.000      154.871        0.000        0.000      331.120       -1.060      846.520
12/14/2021  07:41:00     -144.000       57.000      -20.000        0.000        0.000        0.000        0.000        0.000        0.000        1.219        0.000      154.871        0.000        0.000      331.120       -1.060      846.520
12/14/2021  07:42:00     -144.000       57.000      -20.000        0.000        0.000        0.000        0.000        0.000        0.000        1.219        0.000      154.871        0.000        0.000      331.120       -1.060      846.520
12/14/2021  07:43:00     -144.000       57.000      -20.000        0.000        0.000        0.000        0.000        0.000        0.000        1.219        0.000      154.871        0.000        0.000      331.120       -1.060      846.520
12/14/2021  07:44:00     -144.000       57.000      -20.000        0.000        0.000        0.000        0.000        0.000        0.000        1.219        0.000      154.871        0.000        0.000      331.120       -1.060      846.520
12/14/2021  07:45:00     -144.000       57.000      -20.000        0.000        0.000        0.000        0.000        0.000        0.000        1.219        0.000      154.871        0.000        0.000      331.120       -1.060      846.520
12/14/2021  07:46:00     -144.000       57.000      -20.000        0.000        0.000        0.000        0.000        0.000        0.000        1.219        0.000      154.871        0.000        0.000      331.120       -1.060      846.520
12/14/2021  07:47:00     -144.000       57.000      -20.000        0.000        0.000        0.000        0.000        0.000        0.000        1.219        0.000      154.871        0.000        0.000      331.120       -1.060      846.520
12/14/2021  07:48:00     -144.000       57.000      -20.000        0.000        0.000        0.000        0.000        0.000        0.000        1.219        0.000      154.871        0.000        0.000      331.120       -1.060      846.520
12/14/2021  07:49:00     -144.000       57.000      -20.000        0.000        0.000        0.000        0.000        0.000        0.000        1.219        0.000      154.871        0.000        0.000      331.120       -1.060      846.520
12/14/2021  07:50:00     -144.000       57.000      -20.000        0.000        0.000        0.000        0.000        0.000        0.000        1.219        0.000      154.871        0.000        0.000      331.120       -1.060      846.520
12/14/2021  07:51:00     -144.000       57.000      -20.000        0.000        0.000        0.000        0.000        0.000        0.000        1.219        0.000      154.871        0.000        0.000      331.120       -1.060      846.520
12/14/2021  07:52:00     -144.000       57.000      -20.000        0.000        0.000        0.000        0.000        0.000        0.000        1.219        0.000      154.871        0.000        0.000      331.120       -1.060      846.520
12/14/2021  07:53:00     -144.000       57.000      -20.000        0.000        0.000        0.000        0.000        0.000        0.000        1.219        0.000      154.871        0.000        0.000      331.120       -1.060      846.520
12/14/2021  07:54:00     -144.000       57.000      -20.000        0.000        0.000        0.000        0.000        0.000        0.000        1.219        0.000      154.871        0.000        0.000      331.120       -1.060      846.520
12/14/2021  07:55:00     -144.000       57.000      -20.000        0.000        0.000        0.000        0.000        0.000        0.000        1.219        0.000      154.871        0.000        0.000      331.120       -1.060      846.520
12/14/2021  07:56:00     -144.000       57.000      -20.000        0.000        0.000        0.000        0.000        0.000        0.000        1.219        0.000      154.871        0.000        0.000      331.120       -1.060      846.520
12/14/2021  07:57:00     -144.000       57.000      -20.000        0.000        0.000        0.000        0.000        0.000        0.000        1.219        0.000      154.871        0.000        0.000      331.120       -1.060      846.520
12/14/2021  07:58:00     -144.000       57.000      -20.000        0.000        0.000        0.000        0.000        0.000        0.000        1.219        0.000      154.871        0.000        0.000      331.120       -1.060      846.520
12/14/2021  07:59:00     -144.000       57.000      -20.000        0.000        0.000        0.000        0.000        0.000        0.000        1.219        0.000      154.871        0.000        0.000      331.120       -1.060      846.520
12/14/2021  08:00:00     -144.000       57.000      -20.000        0.000        0.000        0.000        0.000        0.000        0.000        1.219        0.000      154.871        0.000        0.000      331.120       -1.060      846.520
12/14/2021  08:01:00     -144.000       57.000      -20.000        0.000        0.000        0.000        0.000        0.000        0.000        1.219        0.000      154.871        0.000        0.000      331.120       -1.060      846.520
12/14/2021  08:02:00     -144.000       57.000      -20.000        0.000        0.000        0.000        0.000        0.000        0.000        1.219        0.000      154.871        0.000        0.000      331.120       -1.060      846.520
12/14/2021  08:03:00     -144.000       57.000      -20.000        0.000        0.000        0.000        0.000        0.000        0.000        1.219        0.000      154.871        0.000        0.000      331.120       -1.060      846.520
12/14/2021  08:04:00     -144.000       57.000      -20.000        0.000        0.000        0.000        0.000        0.000        0.000        1.219        0.000      154.871        0.000        0.000      331.120       -1.060      846.520
12/14/2021  08:05:00     -144.000       57.000      -20.000        0.000        0.000        0.000        0.000        0.000        0.000        1.219        0.000      154.871        0.000        0.000      331.120       -1.060      846.520
12/14/2021  08:06:00     -144.000       57.000      -20.000        0.000        0.000        0.000        0.000        0.000        0.000        1.219        0.000      154.871        0.000        0.000      331.120       -1.060      846.520
12/14/2021  08:07:00     -144.000       57.000      -20.000        0.000        0.000        0.000        0.000        0.000        0.000        1.219        0.000      154.871        0.000        0.000      331.120       -1.060      846.520
12/14/2021  08:08:00     -144.000       57.000      -20.000        0.000        0.000        0.000        0.000        0.000        0.000        1.219        0.000      154.871        0.000        0.000      331.120       -1.060      846.520
12/14/2021  08:09:00     -144.000       57.000      -20.000        0.000        0.000        0.000        0.000        0.000        0.000        1.219        0.000      154.871        0.000        0.000      331.120       -1.060      846.520
12/14/2021  08:10:00     -144.000       57.000      -20.000        0.000        0.000        0.000        0.000        0.000        0.000        1.219        0.000      154.871        0.000        0.000      331.120       -1.060      846.520
12/14/2021  08:11:00     -144.000       57.000      -20.000        0.000        0.000        0.000        0.000        0.000        0.000        1.219        0.000      154.871        0.000        0.000      331.120       -1.060      846.520
12/14/2021  08:12:00     -144.000       57.000      -20.000        0.000        0.000        0.000        0.000        0.000        0.000        1.219        0.000      154.871        0.000        0.000      331.120       -1.060      846.520
12/14/2021  08:13:00     -144.000       57.000      -20.000        0.000        0.000        0.000        0.000        0.000        0.000        1.219        0.000      154.871        0.000        0.000      331.120       -1.060      846.520
12/14/2021  08:14:00     -144.000       57.000      -20.000        0.000        0.000        0.000        0.000        0.000        0.000        1.219        0.000      154.871        0.000        0.000      331.120       -1.060      846.520
12/14/2021  08:15:00     -144.000       57.000      -20.000        0.000        0.000        0.000        0.000        0.000        0.000        1.219        0.000      154.871        0.000        0.000      331.120       -1.060      846.520
12/14/2021  08:16:00     -144.000       57.000      -20.000        0.000        0.000        0.000        0.000        0.000        0.000        1.219        0.000      154.871        0.000        0.000      331.120       -1.060      846.520
12/14/2021  08:17:00     -144.000       57.000      -20.000        0.000        0.000        0.000        0.000        0.000        0.000        1.219        0.000      154.871        0.000        0.000      331.120       -1.060      846.520
12/14/2021  08:18:00     -144.000       57.000      -20.000        0.000        0.000        0.000        0.000        0.000        0.000        1.219        0.000      154.871        0.000        0.000      331.120       -1.060      846.520
12/14/2021  08:19:00     -144.000       57.000      -20.000        0.000        0.000        0.000        0.000        0.000        0.000        1.219        0.000      154.871        0.000        0.000      331.120       -1.060      846.520
12/14/2021  08:20:00     -144.000       57.000      -20.000        0.000        0.000        0.000        0.000        0.000        0.000        1.219        0.000      154.871        0.000        0.000      331.120       -1.060      846.520
12/14/2021  08:21:00     -144.000       57.000      -20.000        0.000        0.000        0.000        0.000        0.000        0.000        1.219        0.000      154.871        0.000        0.000      331.120       -1.060      846.520
12/14/2021  08:22:00     -144.000       57.000      -20.000        0.000        0.000        0.000        0.000        0.000        0.000        1.219        0.000      154.871        0.000        0.000      331.120       -1.060      846.520
12/14/2021  08:23:00     -144.000       57.000      -20.000        0.000        0.000        0.000        0.000        0.000        0.000        1.219        0.000      154.871        0.000        0.000      331.120       -1.060      846.520
12/14/2021  08:24:00     -144.000       57.000      -20.000        0.000        0.000        0.000        0.000        0.000        0.000        1.219        0.000      154.871        0.000        0.000      331.120       -1.060      846.520
12/14/2021  08:25:00     -144.000       57.000      -20.000        0.000        0.000        0.000        0.000        0.000        0.000        1.219        0.000      154.871        0.000        0.000      331.120       -1.060      846.520
12/14/2021  08:26:00     -144.000       57.000      -20.000        0.000        0.000        0.000        0.000        0.000        0.000        1.219        0.000      154.871        0.000        0.000      331.120       -1.060      846.520
12/14/2021  08:27:00     -144.000       57.000      -20.000        0.000        0.000        0.000        0.000        0.000        0.000        1.219        0.000      154.871        0.000        0.000      331.120       -1.060      846.520
12/14/2021  08:28:00     -144.000       57.000      -20.000        0.000        0.000        0.000        0.000        0.000        0.000        1.219        0.000      154.871        0.000        0.000      331.120       -1.060      846.520
12/14/2021  08:29:00     -144.000       57.000      -20.000        0.000        0.000        0.000        0.000        0.000        0.000        1.219        0.000      154.871        0.000        0.000      331.120       -1.060      846.520
12/14/2021  08:30:00     -144.000       57.000      -20.000        0.000        0.000        0.000        0.000        0.000        0.000        1.219        0.000      154.871        0.000        0.000      331.120       -1.060      846.520
12/14/2021  08:31:00     -144.000       57.000      -20.000        0.000        0.000        0.000        0.000        0.000        0.000        1.219        0.000      154.871        0.000        0.000      331.120       -1.060      846.520
12/14/2021  08:32:00     -144.000       57.000      -20.000        0.000        0.000        0.000        0.000        0.000        0.000        1.219        0.000      154.871        0.000        0.000      331.120       -1.060      846.520
12/14/2021  08:33:00     -144.000       57.000      -20.000        0.000        0.000        0.000        0.000        0.000        0.000        1.219        0.000      154.871        0.000        0.000      331.120       -1.060      846.520
12/14/2021  08:34:00     -144.000       57.000      -20.000        0.000        0.000        0.000        0.000        0.000        0.000        1.219        0.000      154.871        0.000        0.000      331.120       -1.060      846.520
12/14/2021  08:35:00     -144.000       57.000      -20.000        0.000        0.000        0.000        0.000        0.000        0.000        1.219        0.000      154.871        0.000        0.000      331.120       -1.060      846.520
12/14/2021  08:36:00     -144.000       57.000      -20.000        0.000        0.000        0.000        0.000        0.000        0.000        1.219        0.000      154.871        0.000        0.000      331.120       -1.060      846.520
12/14/2021  08:37:00     -144.000       57.000      -20.000        0.000        0.000        0.000        0.000        0.000        0.000        1.219        0.000      154.871        0.000        0.000      331.120       -1.060      846.520
12/14/2021  08:38:00     -144.000       57.000      -20.000        0.000        0.000        0.000        0.000        0.000        0.000        1.219        0.000      154.871        0.000        0.000      331.120       -1.060      846.520
12/14/2021  08:39:00     -144.000       57.000      -20.000        0.000        0.000        0.000        0.000        0.000        0.000        1.219        0.000      154.871        0.000        0.000      331.120       -1.060      846.520
12/14/2021  08:40:00     -144.000       57.000      -20.000        0.000        0.000        0.000        0.000        0.000        0.000        1.219        0.000      154.871        0.000        0.000      331.120       -1.060      846.520
12/14/2021  08:41:00     -144.000       57.000      -20.000        0.000        0.000        0.000        0.000        0.000        0.000        1.219        0.000      154.871        0.000        0.000      331.120       -1.060      846.520
12/14/2021  08:42:00     -144.000       57.000      -20.000        0.000        0.000        0.000        0.000        0.000        0.000        1.219        0.000      154.871        0.000        0.000      331.120       -1.060      846.520
12/14/2021  08:43:00     -144.000       57.000      -20.000        0.000        0.000        0.000        0.000        0.000        0.000        1.219        0.000      154.871        0.000        0.000      331.120       -1.060      846.520
12/14/2021  08:44:00     -144.000       57.000      -20.000        0.000        0.000        0.000        0.000        0.000        0.000        1.219        0.000      154.871        0.000        0.000      331.120       -1.060      846.520
12/14/2021  08:45:00     -144.000       57.000      -20.000        0.000        0.000        0.000        0.000        0.000        0.000        1.219        0.000      154.871        0.000        0.000      331.120       -1.060      846.520
12/14/2021  08:46:00     -144.000       57.000      -20.000        0.000        0.000        0.000        0.000        0.000        0.000        1.219        0.000      154.871        0.000        0.000      331.120       -1.060      846.520
12/14/2021  08:47:00     -144.000       57.000      -20.000        0.000        0.000        0.000        0.000        0.000        0.000        1.219        0.000      154.871        0.000        0.000      331.120       -1.060      846.520
12/14/2021  08:48:00     -144.000       57.000      -20.000        0.000        0.000        0.000        0.000        0.000        0.000        1.219        0.000      154.871        0.000        0.000      331.120       -1.060      846.520
12/14/2021  08:49:00     -144.000       57.000      -20.000        0.000        0.000        0.000        0.000        0.000        0.000        1.219        0.000      154.871        0.000        0.000      331.120       -1.060      846.520
12/14/2021  08:50:00     -144.000       57.000      -20.000        0.000        0.000        0.000        0.000        0.000        0.000        1.219        0.000      154.871        0.000        0.000      331.120       -1.060      846.520
12/14/2021  08:51:00     -144.000       57.000      -20.000        0.000        0.000        0.000        0.000        0.000        0.000        1.219        0.000      154.871        0.000        0.000      331.120       -1.060      846.520
12/14/2021  08:52:00     -144.000       57.000      -20.000        0.000        0.000        0.000        0.000        0.000        0.000        1.219        0.000      154.871        0.000        0.000      331.120       -1.060      846.520
12/14/2021  08:53:00     -144.000       57.000      -20.000        0.000        0.000        0.000        0.000        0.000        0.000        1.219        0.000      154.871        0.000        0.000      331.120       -1.060      846.520
12/14/2021  08:54:00     -144.000       57.000      -20.000        0.000        0.000        0.000        0.000        0.000        0.000        1.219        0.000      154.871        0.000        0.000      331.120       -1.060      846.520
12/14/2021  08:55:00     -144.000       57.000      -20.000        0.000        0.000        0.000        0.000        0.000        0.000        1.219        0.000      154.871        0.000        0.000      331.120       -1.060      846.520
12/14/2021  08:56:00     -144.000       57.000      -20.000        0.000        0.000        0.000        0.000        0.000        0.000        1.219        0.000      154.871        0.000        0.000      331.120       -1.060      846.520
12/14/2021  08:57:00     -144.000       57.000      -20.000        0.000        0.000        0.000        0.000        0.000        0.000        1.219        0.000      154.871        0.000        0.000      331.120       -1.060      846.520
12/14/2021  08:58:00     -144.000       57.000      -20.000        0.000        0.000        0.000        0.000        0.000        0.000        1.219        0.000      154.871        0.000        0.000      331.120       -1.060      846.520
12/14/2021  08:59:00     -144.000       57.000      -20.000        0.000        0.000        0.000        0.000        0.000        0.000        1.219        0.000      154.871        0.000        0.000      331.120       -1.060      846.520
12/14/2021  09:00:00     -144.000       57.000      -20.000        0.000        0.000        0.000        0.000        0.000        0.000        1.219        0.000      154.871        0.000        0.000      331.120       -1.060      846.520
12/14/2021  09:01:00     -144.000       57.000      -20.000        0.000        0.000        0.000        0.000        0.000        0.000        1.219        0.000      154.871        0.000        0.000      331.120       -1.060      846.520
12/14/2021  09:02:00     -144.000       57.000      -20.000        0.000        0.000        0.000        0.000        0.000        0.000        1.219        0.000      154.871        0.000        0.000      331.120       -1.060      846.520
12/14/2021  09:03:00     -144.000       57.000      -20.000        0.000        0.000        0.000        0.000        0.000        0.000        1.219        0.000      154.871        0.000        0.000      331.120       -1.060      846.520
12/14/2021  09:04:00     -144.000       57.000      -20.000        0.000        0.000        0.000        0.000        0.000        0.000        1.219        0.000      154.871        0.000        0.000      331.120       -1.060      846.520
12/14/2021  09:05:00     -144.000       57.000      -20.000        0.000        0.000        0.000        0.000        0.000        0.000        1.219        0.000      154.871        0.000        0.000      331.120       -1.060      846.520
12/14/2021  09:06:00     -144.000       57.000      -20.000        0.000        0.000        0.000        0.000        0.000        0.000        1.219        0.000      154.871        0.000        0.000      331.120       -1.060      846.520
12/14/2021  09:07:00     -144.000       57.000      -20.000        0.000        0.000        0.000        0.000        0.000        0.000        1.219        0.000      154.871        0.000        0.000      331.120       -1.060      846.520
12/14/2021  09:08:00     -144.000       57.000      -20.000        0.000        0.000        0.000        0.000        0.000        0.000        1.219        0.000      154.871        0.000        0.000      331.120       -1.060      846.520
12/14/2021  09:09:00     -144.000       57.000      -20.000        0.000        0.000        0.000        0.000        0.000        0.000        1.219        0.000      154.871        0.000        0.000      331.120       -1.060      846.520
12/14/2021  09:10:00     -144.000       57.000      -20.000        0.000        0.000        0.000        0.000        0.000        0.000        1.219        0.000      154.871        0.000        0.000      331.120       -1.060      846.520
12/14/2021  09:11:00     -144.000       57.000      -20.000        0.000        0.000        0.000        0.000        0.000        0.000        1.219        0.000      154.871        0.000        0.000      331.120       -1.060      846.520
12/14/2021  09:12:00     -144.000       57.000      -20.000        0.000        0.000        0.000        0.000        0.000        0.000        1.219        0.000      154.871        0.000        0.000      331.120       -1.060      846.520
12/14/2021  09:13:00     -144.000       57.000      -20.000        0.000        0.000        0.000        0.000        0.000        0.000        1.219        0.000      154.871        0.000        0.000      331.120       -1.060      846.520
12/14/2021  09:14:00     -144.000       57.000      -20.000        0.000        0.000        0.000        0.000        0.000        0.000        1.219        0.000      154.871        0.000        0.000      331.120       -1.060      846.520
12/14/2021  09:15:00     -144.000       57.000      -20.000        0.000        0.000        0.000        0.000        0.000        0.000        1.219        0.000      154.871        0.000        0.000      331.120       -1.060      846.520
12/14/2021  09:16:00     -144.000       57.000      -20.000        0.000        0.000        0.000        0.000        0.000        0.000        1.219        0.000      154.871        0.000        0.000      331.120       -1.060      846.520
12/14/2021  09:17:00     -144.000       57.000      -20.000        0.000        0.000        0.000        0.000        0.000        0.000        1.219        0.000      154.871        0.000        0.000      331.120       -1.060      846.520
12/14/2021  09:18:00     -144.000       57.000      -20.000        0.000        0.000        0.000        0.000        0.000        0.000        1.219        0.000      154.871        0.000        0.000      331.120       -1.060      846.520
12/14/2021  09:19:00     -144.000       57.000      -20.000        0.000        0.000        0.000        0.000        0.000        0.000        1.219        0.000      154.871        0.000        0.000      331.120       -1.060      846.520
12/14/2021  09:20:00     -144.000       57.000      -20.000        0.000        0.000        0.000        0.000        0.000        0.000        1.219        0.000      154.871        0.000        0.000      331.120       -1.060      846.520
12/14/2021  09:21:00     -144.000       57.000      -20.000        0.000        0.000        0.000        0.000        0.000        0.000        1.219        0.000      154.871        0.000        0.000      331.120       -1.060      846.520
12/14/2021  09:22:00     -144.000       57.000      -20.000        0.000        0.000        0.000        0.000        0.000        0.000        1.219        0.000      154.871        0.000        0.000      331.120       -1.060      846.520
12/14/2021  09:23:00     -144.000       57.000      -20.000        0.000        0.000        0.000        0.000        0.000        0.000        1.219        0.000      154.871        0.000        0.000      331.120       -1.060      846.520
12/14/2021  09:24:00     -144.000       57.000      -20.000        0.000        0.000        0.000        0.000        0.000        0.000        1.219        0.000      154.871        0.000        0.000      331.120       -1.060      846.520
12/14/2021  09:25:00     -144.000       57.000      -20.000        0.000        0.000        0.000        0.000        0.000        0.000        1.219        0.000      154.871        0.000        0.000      331.120       -1.060      846.520
12/14/2021  09:26:00     -144.000       57.000      -20.000        0.000        0.000        0.000        0.000        0.000        0.000        1.219        0.000      154.871        0.000        0.000      331.120       -1.060      846.520
12/14/2021  09:27:00     -144.000       57.000      -20.000        0.000        0.000        0.000        0.000        0.000        0.000        1.219        0.000      154.871        0.000        0.000      331.120       -1.060      846.520
12/14/2021  09:28:00     -144.000       57.000      -20.000        0.000        0.000        0.000        0.000        0.000        0.000        1.219        0.000      154.871        0.000        0.000      331.120       -1.060      846.520
12/14/2021  09:29:00     -144.000       57.000      -20.000        0.000        0.000        0.000        0.000        0.000        0.000        1.219        0.000      154.871        0.000        0.000      331.120       -1.060      846.520
12/14/2021  09:30:00     -144.000       57.000      -20.000        0.000        0.000        0.000        0.000        0.000        0.000        1.219        0.000      154.871        0.000        0.000      331.120       -1.060      846.520
12/14/2021  09:31:00     -144.000       57.000      -20.000        0.000        0.000        0.000        0.000        0.000        0.000        1.219        0.000      154.871        0.000        0.000      331.120       -1.060      846.520
12/14/2021  09:32:00     -144.000       57.000      -20.000        0.000        0.000        0.000        0.000        0.000        0.000        1.219        0.000      154.871        0.000        0.000      331.120       -1.060      846.520
12/14/2021  09:33:00     -144.000       57.000      -20.000        0.000        0.000        0.000        0.000        0.000        0.000        1.219        0.000      154.871        0.000        0.000      331.120       -1.060      846.520
12/14/2021  09:34:00     -144.000       57.000      -20.000        0.000        0.000        0.000        0.000        0.000        0.000        1.219        0.000      154.871        0.000        0.000      331.120       -1.060      846.520
12/14/2021  09:35:00     -144.000       57.000      -20.000        0.000        0.000        0.000        0.000        0.000        0.000        1.219        0.000      154.871        0.000        0.000      331.120       -1.060      846.520
12/14/2021  09:36:00     -144.000       57.000      -20.000        0.000        0.000        0.000        0.000        0.000        0.000        1.219        0.000      154.871        0.000        0.000      331.120       -1.060      846.520
12/14/2021  09:37:00     -144.000       57.000      -20.000        0.000        0.000        0.000        0.000        0.000        0.000        1.219        0.000      154.871        0.000        0.000      331.120       -1.060      846.520
12/14/2021  09:38:00     -144.000       57.000      -20.000        0.000        0.000        0.000        0.000        0.000        0.000        1.219        0.000      154.871        0.000        0.000      331.120       -1.060      846.520
12/14/2021  09:39:00     -144.000       57.000      -20.000        0.000        0.000        0.000        0.000        0.000        0.000        1.219        0.000      154.871        0.000        0.000      331.120       -1.060      846.520
12/14/2021  09:40:00     -144.000       57.000      -20.000        0.000        0.000        0.000        0.000        0.000        0.000        1.219        0.000      154.871        0.000        0.000      331.120       -1.060      846.520
12/14/2021  09:41:00     -144.000       57.000      -20.000        0.000        0.000        0.000        0.000        0.000        0.000        1.219        0.000      154.871        0.000        0.000      331.120       -1.060      846.520
12/14/2021  09:42:00     -144.000       57.000      -20.000        0.000        0.000        0.000        0.000        0.000        0.000        1.219        0.000      154.871        0.000        0.000      331.120       -1.060      846.520
12/14/2021  09:43:00     -144.000       57.000      -20.000        0.000        0.000        0.000        0.000        0.000        0.000        1.219        0.000      154.871        0.000        0.000      331.120       -1.060      846.520
12/14/2021  09:44:00     -144.000       57.000      -20.000        0.000        0.000        0.000        0.000        0.000        0.000        1.219        0.000      154.871        0.000        0.000      331.120       -1.060      846.520
12/14/2021  09:45:00     -144.000       57.000      -20.000        0.000        0.000        0.000        0.000        0.000        0.000        1.219        0.000      154.871        0.000        0.000      331.120       -1.060      846.520
12/14/2021  09:46:00     -144.000       57.000      -20.000        0.000        0.000        0.000        0.000        0.000        0.000        1.219        0.000      154.871        0.000        0.000      331.120       -1.060      846.520
12/14/2021  09:47:00     -144.000       57.000      -20.000        0.000        0.000        0.000        0.000        0.000        0.000        1.219        0.000      154.871        0.000        0.000      331.120       -1.060      846.520
12/14/2021  09:48:00     -144.000       57.000      -20.000        0.000        0.000        0.000        0.000        0.000        0.000        1.219        0.000      154.871        0.000        0.000      331.120       -1.060      846.520
12/14/2021  09:49:00     -144.000       57.000      -20.000        0.000        0.000        0.000        0.000        0.000        0.000        1.219        0.000      154.871        0.000        0.000      331.120       -1.060      846.520
12/14/2021  09:50:00     -144.000       57.000      -20.000        0.000        0.000        0.000        0.000        0.000        0.000        1.219        0.000      154.871        0.000        0.000      331.120       -1.060      846.520
12/14/2021  09:51:00     -144.000       57.000      -20.000        0.000        0.000        0.000        0.000        0.000        0.000        1.219        0.000      154.871        0.000        0.000      331.120       -1.060      846.520
12/14/2021  09:52:00     -144.000       57.000      -20.000        0.000        0.000        0.000        0.000        0.000        0.000        1.219        0.000      154.871        0.000        0.000      331.120       -1.060      846.520
12/14/2021  09:53:00     -144.000       57.000      -20.000        0.000        0.000        0.000        0.000        0.000        0.000        1.219        0.000      154.871        0.000        0.000      331.120       -1.060      846.520
12/14/2021  09:54:00     -144.000       57.000      -20.000        0.000        0.000        0.000        0.000        0.000        0.000        1.219        0.000      154.871        0.000        0.000      331.120       -1.060      846.520
12/14/2021  09:55:00     -144.000       57.000      -20.000        0.000        0.000        0.000        0.000        0.000        0.000        1.219        0.000      154.871        0.000        0.000      331.120       -1.060      846.520
12/14/2021  09:56:00     -144.000       57.000      -20.000        0.000        0.000        0.000        0.000        0.000        0.000        1.219        0.000      154.871        0.000        0.000      331.120       -1.060      846.520
12/14/2021  09:57:00     -144.000       57.000      -20.000        0.000        0.000        0.000        0.000        0.000        0.000        1.219        0.000      154.871        0.000        0.000      331.120       -1.060      846.520
12/14/2021  09:58:00     -144.000       57.000      -20.000        0.000        0.000        0.000        0.000        0.000        0.000        1.219        0.000      154.871        0.000        0.000      331.120       -1.060      846.520
12/14/2021  09:59:00     -144.000       57.000      -20.000        0.000        0.000        0.000        0.000        0.000        0.000        1.219        0.000      154.871        0.000        0.000      331.120       -1.060      846.520
12/14/2021  10:00:00     -144.000       57.000      -20.000        0.000        0.000        0.000        0.000        0.000        0.000        1.219        0.000      154.871        0.000        0.000      331.120       -1.060      846.520
12/14/2021  10:01:00     -144.000       57.000      -20.000        0.000        0.000        0.000        0.000        0.000        0.000        1.219        0.000      154.871        0.000        0.000      331.120       -1.060      846.520
12/14/2021  10:02:00     -144.000       57.000      -20.000        0.000        0.000        0.000        0.000        0.000        0.000        1.219        0.000      154.871        0.000        0.000      331.120       -1.060      846.520
12/14/2021  10:03:00     -144.000       57.000      -20.000        0.000        0.000        0.000        0.000        0.000        0.000        1.219        0.000      154.871        0.000        0.000      331.120       -1.060      846.520
12/14/2021  10:04:00     -144.000       57.000      -20.000        0.000        0.000        0.000        0.000        0.000        0.000        1.219        0.000      154.871        0.000        0.000      331.120       -1.060      846.520
12/14/2021  10:05:00     -144.000       57.000      -20.000        0.000        0.000        0.000        0.000        0.000        0.000        1.219        0.000      154.871        0.000        0.000      331.120       -1.060      846.520
12/14/2021  10:06:00     -144.000       57.000      -20.000        0.000        0.000        0.000        0.000        0.000        0.000        1.219        0.000      154.871        0.000        0.000      331.120       -1.060      846.520
12/14/2021  10:07:00     -144.000       57.000      -20.000        0.000        0.000        0.000        0.000        0.000        0.000        1.219        0.000      154.871        0.000        0.000      331.120       -1.060      846.520
12/14/2021  10:08:00     -144.000       57.000      -20.000        0.000        0.000        0.000        0.000        0.000        0.000        1.219        0.000      154.871        0.000        0.000      331.120       -1.060      846.520
12/14/2021  10:09:00     -144.000       57.000      -20.000        0.000        0.000        0.000        0.000        0.000        0.000        1.219        0.000      154.871        0.000        0.000      331.120       -1.060      846.520
12/14/2021  10:10:00     -144.000       57.000      -20.000        0.000        0.000        0.000        0.000        0.000        0.000        1.219        0.000      154.871        0.000        0.000      331.120       -1.060      846.520
12/14/2021  10:11:00     -144.000       57.000      -20.000        0.000        0.000        0.000        0.000        0.000        0.000        1.219        0.000      154.871        0.000        0.000      331.120       -1.060      846.520
12/14/2021  10:12:00     -144.000       57.000      -20.000        0.000        0.000        0.000        0.000        0.000        0.000        1.219        0.000      154.871        0.000        0.000      331.120       -1.060      846.520
12/14/2021  10:13:00     -144.000       57.000      -20.000        0.000        0.000        0.000        0.000        0.000        0.000        1.219        0.000      154.871        0.000        0.000      331.120       -1.060      846.520
12/14/2021  10:14:00     -144.000       57.000      -20.000        0.000        0.000        0.000        0.000        0.000        0.000        1.219        0.000      154.871        0.000        0.000      331.120       -1.060      846.520
12/14/2021  10:15:00     -144.000       57.000      -20.000        0.000        0.000        0.000        0.000        0.000        0.000        1.219        0.000      154.871        0.000        0.000      331.120       -1.060      846.520
12/14/2021  10:16:00     -144.000       57.000      -20.000        0.000        0.000        0.000        0.000        0.000        0.000        1.219        0.000      154.871        0.000        0.000      331.120       -1.060      846.520
12/14/2021  10:17:00     -144.000       57.000      -20.000        0.000        0.000        0.000        0.000        0.000        0.000        1.219        0.000      154.871        0.000        0.000      331.120       -1.060      846.520
12/14/2021  10:18:00     -144.000       57.000      -20.000        0.000        0.000        0.000        0.000        0.000        0.000        1.219        0.000      154.871        0.000        0.000      331.120       -1.060      846.520
12/14/2021  10:19:00     -144.000       57.000      -20.000        0.000        0.000        0.000        0.000        0.000        0.000        1.219        0.000      154.871        0.000        0.000      331.120       -1.060      846.520
12/14/2021  10:20:00     -144.000       57.000      -20.000        0.000        0.000        0.000        0.000        0.000        0.000        1.219        0.000      154.871        0.000        0.000      331.120       -1.060      846.520
12/14/2021  10:21:00     -144.000       57.000      -20.000        0.000        0.000        0.000        0.000        0.000        0.000        1.219        0.000      154.871        0.000        0.000      331.120       -1.060      846.520
12/14/2021  10:22:00     -144.000       57.000      -20.000        0.000        0.000        0.000        0.000        0.000        0.000        1.219        0.000      154.871        0.000        0.000      331.120       -1.060      846.520
12/14/2021  10:23:00     -144.000       57.000      -20.000        0.000        0.000        0.000        0.000        0.000        0.000        1.219        0.000      154.871        0.000        0.000      331.120       -1.060      846.520
12/14/2021  10:24:00     -144.000       57.000      -20.000        0.000        0.000        0.000        0.000        0.000        0.000        1.219        0.000      154.871        0.000        0.000      331.120       -1.060      846.520
12/14/2021  10:25:00     -144.000       57.000      -20.000        0.000        0.000        0.000        0.000        0.000        0.000        1.219        0.000      154.871        0.000        0.000      331.120       -1.060      846.520
12/14/2021  10:26:00     -144.000       57.000      -20.000        0.000        0.000        0.000        0.000        0.000        0.000        1.219        0.000      154.871        0.000        0.000      331.120       -1.060      846.520
12/14/2021  10:27:00     -144.000       57.000      -20.000        0.000        0.000        0.000        0.000        0.000        0.000        1.219        0.000      154.871        0.000        0.000      331.120       -1.060      846.520
12/14/2021  10:28:00     -144.000       57.000      -20.000        0.000        0.000        0.000        0.000        0.000        0.000        1.219        0.000      154.871        0.000        0.000      331.120       -1.060      846.520
12/14/2021  10:29:00     -144.000       57.000      -20.000        0.000        0.000        0.000        0.000        0.000        0.000        1.219        0.000      154.871        0.000        0.000      331.120       -1.060      846.520
12/14/2021  10:30:00     -144.000       57.000      -20.000        0.000        0.000        0.000        0.000        0.000        0.000        1.219        0.000      154.871        0.000        0.000      331.120       -1.060      846.520
12/14/2021  10:31:00     -144.000       57.000      -20.000        0.000        0.000        0.000        0.000        0.000        0.000        1.219        0.000      154.871        0.000        0.000      331.120       -1.060      846.520
12/14/2021  10:32:00     -144.000       57.000      -20.000        0.000        0.000        0.000        0.000        0.000        0.000        1.219        0.000      154.871        0.000        0.000      331.120       -1.060      846.520
12/14/2021  10:33:00     -144.000       57.000      -20.000        0.000        0.000        0.000        0.000        0.000        0.000        1.219        0.000      154.871        0.000        0.000      331.120       -1.060      846.520
12/14/2021  10:34:00     -144.000       57.000      -20.000        0.000        0.000        0.000        0.000        0.000        0.000        1.219        0.000      154.871        0.000        0.000      331.120       -1.060      846.520
12/14/2021  10:35:00     -144.000       57.000      -20.000        0.000        0.000        0.000        0.000        0.000        0.000        1.219        0.000      154.871        0.000        0.000      331.120       -1.060      846.520
12/14/2021  10:36:00     -144.000       57.000      -20.000        0.000        0.000        0.000        0.000        0.000        0.000        1.219        0.000      154.871        0.000        0.000      331.120       -1.060      846.520
12/14/2021  10:37:00     -144.000       57.000      -20.000        0.000        0.000        0.000        0.000        0.000        0.000        1.219        0.000      154.871        0.000        0.000      331.120       -1.060      846.520
12/14/2021  10:38:00     -144.000       57.000      -20.000        0.000        0.000        0.000        0.000        0.000        0.000        1.219        0.000      154.871        0.000        0.000      331.120       -1.060      846.520
12/14/2021  10:39:00     -144.000       57.000      -20.000        0.000        0.000        0.000        0.000        0.000        0.000        1.219        0.000      154.871        0.000        0.000      331.120       -1.060      846.520
12/14/2021  10:40:00     -144.000       57.000      -20.000        0.000        0.000        0.000        0.000        0.000        0.000        1.219        0.000      154.871        0.000        0.000      331.120       -1.060      846.520
12/14/2021  10:41:00     -144.000       57.000      -20.000        0.000        0.000        0.000        0.000        0.000        0.000        1.219        0.000      154.871        0.000        0.000      331.120       -1.060      846.520
12/14/2021  10:42:00     -144.000       57.000      -20.000        0.000        0.000        0.000        0.000        0.000        0.000        1.219        0.000      154.871        0.000        0.000      331.120       -1.060      846.520
12/14/2021  10:43:00     -144.000       57.000      -20.000        0.000        0.000        0.000        0.000        0.000        0.000        1.219        0.000      154.871        0.000        0.000      331.120       -1.060      846.520
12/14/2021  10:44:00     -144.000       57.000      -20.000        0.000        0.000        0.000        0.000        0.000        0.000        1.219        0.000      154.871        0.000        0.000      331.120       -1.060      846.520
12/14/2021  10:45:00     -144.000       57.000      -20.000        0.000        0.000        0.000        0.000        0.000        0.000        1.219        0.000      154.871        0.000        0.000      331.120       -1.060      846.520
12/14/2021  10:46:00     -144.000       57.000      -20.000        0.000        0.000        0.000        0.000        0.000        0.000        1.219        0.000      154.871        0.000        0.000      331.120       -1.060      846.520
12/14/2021  10:47:00     -144.000       57.000      -20.000        0.000        0.000        0.000        0.000        0.000        0.000        1.219        0.000      154.871        0.000        0.000      331.120       -1.060      846.520
12/14/2021  10:48:00     -144.000       57.000      -20.000        0.000        0.000        0.000        0.000        0.000        0.000        1.219        0.000      154.871        0.000        0.000      331.120       -1.060      846.520
12/14/2021  10:49:00     -144.000       57.000      -20.000        0.000        0.000        0.000        0.000        0.000        0.000        1.219        0.000      154.871        0.000        0.000      331.120       -1.060      846.520
12/14/2021  10:50:00     -144.000       57.000      -20.000        0.000        0.000        0.000        0.000        0.000        0.000        1.219        0.000      154.871        0.000        0.000      331.120       -1.060      846.520
12/14/2021  10:51:00     -144.000       57.000      -20.000        0.000        0.000        0.000        0.000        0.000        0.000        1.219        0.000      154.871        0.000        0.000      331.120       -1.060      846.520
12/14/2021  10:52:00     -144.000       57.000      -20.000        0.000        0.000        0.000        0.000        0.000        0.000        1.219        0.000      154.871        0.000        0.000      331.120       -1.060      846.520
12/14/2021  10:53:00     -144.000       57.000      -20.000        0.000        0.000        0.000        0.000        0.000        0.000        1.219        0.000      154.871        0.000        0.000      331.120       -1.060      846.520
12/14/2021  10:54:00     -144.000       57.000      -20.000        0.000        0.000        0.000        0.000        0.000        0.000        1.219        0.000      154.871        0.000        0.000      331.120       -1.060      846.520
12/14/2021  10:55:00     -144.000       57.000      -20.000        0.000        0.000        0.000        0.000        0.000        0.000        1.219        0.000      154.871        0.000        0.000      331.120       -1.060      846.520
12/14/2021  10:56:00     -144.000       57.000      -20.000        0.000        0.000        0.000        0.000        0.000        0.000        1.219        0.000      154.871        0.000        0.000      331.120       -1.060      846.520
12/14/2021  10:57:00     -144.000       57.000      -20.000        0.000        0.000        0.000        0.000        0.000        0.000        1.219        0.000      154.871        0.000        0.000      331.120       -1.060      846.520
12/14/2021  10:58:00     -144.000       57.000      -20.000        0.000        0.000        0.000        0.000        0.000        0.000        1.219        0.000      154.871        0.000        0.000      331.120       -1.060      846.520
12/14/2021  10:59:00     -144.000       57.000      -20.000        0.000        0.000        0.000        0.000        0.000        0.000        1.219        0.000      154.871        0.000        0.000      331.120       -1.060      846.520
12/14/2021  11:00:00     -144.000       57.000      -20.000        0.000        0.000        0.000        0.000        0.000        0.000        1.219        0.000      154.871        0.000        0.000      331.120       -1.060      846.520
12/14/2021  11:01:00     -144.000       57.000      -20.000        0.000        0.000        0.000        0.000        0.000        0.000        1.219        0.000      154.871        0.000        0.000      331.120       -1.060      846.520
12/14/2021  11:02:00     -144.000       57.000      -20.000        0.000        0.000        0.000        0.000        0.000        0.000        1.219        0.000      154.871        0.000        0.000      331.120       -1.060      846.520
12/14/2021  11:03:00     -144.000       57.000      -20.000        0.000        0.000        0.000        0.000        0.000        0.000        1.219        0.000      154.871        0.000        0.000      331.120       -1.060      846.520
12/14/2021  11:04:00      -83.937      127.962       -7.424       48.758       88.518       51.330     2377.367     7835.386     2634.820        1.816        0.642      153.035       60.705        0.157      329.983       -2.925      849.846
12/14/2021  11:05:00      -17.301      145.261       -3.008       87.219       61.369       29.542     7607.095     3766.181      872.714        1.683        0.612      146.287       34.221        0.055      329.543       -3.657      851.411
12/14/2021  11:06:00       13.824       93.071        2.014       48.270       37.852       24.078     2329.966     1432.811      579.734        0.660        0.217       94.092       19.133        0.041      329.571       -3.608      851.382
12/14/2021  11:07:00       37.784      140.403      -14.958       69.598       50.812       23.327     4843.815     2581.829      544.164        1.467        0.398      145.398       22.661        0.024      329.533       -3.671      851.336
12/14/2021  11:08:00      -76.117      158.002       -8.073       68.452       65.787       22.911     4685.620     4327.875      524.898        2.018        0.477      175.381       19.214        0.012      329.615       -3.539      851.300
12/14/2021  11:09:00       -0.423      225.692      -14.017       74.816       59.032       28.125     5597.486     3484.804      790.988        3.050        0.494      225.692       32.745        0.021      329.448       -3.813      851.273
12/14/2021  11:10:00        6.123      133.443       -9.399       79.723       70.519       26.957     6355.698     4972.933      726.700        1.499        0.603      133.583       18.311        0.019      329.595       -3.571      851.254
12/14/2021  11:11:00       10.816      152.125      -13.598       69.287       68.953       33.020     4800.748     4754.560     1090.313        1.704        0.532      152.509       33.803        0.049      329.585       -3.587      851.234
12/14/2021  11:12:00      -36.839      152.107      -15.836       58.822       54.662       25.608     3459.985     2987.980      655.744        1.592        0.355      156.505       25.709        0.027      329.711       -3.381      851.218
12/14/2021  11:13:00       -5.805      149.617      -18.918       69.828       43.951       27.384     4875.937     1931.733      749.900        1.517        0.378      149.729       21.987        0.022      329.629       -3.514      851.201
12/14/2021  11:14:00      -47.897      135.857      -14.845       73.979       49.516       31.635     5472.908     2451.822     1000.771        1.495        0.446      144.053       25.893        0.032      329.705       -3.390      851.198
12/14/2021  11:15:00      -24.967       76.589      -13.213       48.570       43.478       22.579     2359.089     1890.331      509.808        0.571        0.238       80.556       19.091        0.056      329.827       -3.190      851.188
12/14/2021  11:16:00      -45.042       88.117       -9.893       63.104       65.909       33.831     3982.150     4343.932     1144.561        0.968        0.474       98.962       35.275        0.127      329.814       -3.212      851.169
12/14/2021  11:17:00      -48.220      176.340      -16.144       96.239       76.183       29.896     9261.929     5803.913      893.760        2.482        0.798      182.814       24.511        0.018      329.566       -3.621      851.120
12/14/2021  11:18:00       -8.660      148.708       -9.275       87.981       51.671       30.757     7740.569     2669.857      945.964        1.681        0.568      148.960       27.794        0.035      329.667       -3.452      851.051
12/14/2021  11:19:00       77.152      152.928      -11.059       43.474       32.056       24.719     1889.964     1027.608      611.019        1.649        0.176      171.287       10.671        0.004      329.586       -3.586      850.996
12/14/2021  11:20:00        7.986      134.775       -6.501       68.368       47.788       25.782     4674.219     2283.719      664.695        1.295        0.381      135.011       22.660        0.028      329.544       -3.653      850.920
12/14/2021  11:21:00      -20.621      179.698      -13.626      125.243       85.390       43.108    15685.923     7291.394     1858.280        2.886        1.242      180.877       45.376        0.063      329.503       -3.721      850.810
12/14/2021  11:22:00      -31.718      183.087      -19.893       84.857       82.134       37.634     7200.769     6746.038     1416.289        2.514        0.768      185.815       29.674        0.026      329.457       -3.796      850.707
12/14/2021  11:23:00       37.165      159.397      -11.273       91.443       57.503       31.292     8361.842     3306.575      979.208        1.978        0.632      163.672       30.253        0.034      329.505       -3.719      850.618
12/14/2021  11:24:00       79.666      234.240       -5.351      131.671       82.146       56.007    17337.382     6747.964     3136.836        4.423        1.361      247.417       51.588        0.043      329.432       -3.839      850.600
12/14/2021  11:25:00       42.765      149.850      -22.555      107.344       69.377       38.247    11522.660     4813.231     1462.857        2.129        0.890      155.833       33.025        0.045      329.475       -3.769      850.660
12/14/2021  11:26:00       13.378      108.516      -13.363       79.921       83.215       35.598     6387.436     6924.658     1267.199        1.335        0.729      109.338       32.470        0.088      329.513       -3.705      850.705
12/14/2021  11:27:00       85.364      210.505      -17.015      101.091      105.554       35.450    10219.362    11141.694     1256.678        3.725        1.131      227.154       43.067        0.036      329.477       -3.768      850.765
12/14/2021  11:28:00       54.670      270.613      -12.021       97.395       72.057       30.445     9485.872     5192.232      926.892        4.598        0.780      276.080       31.282        0.013      329.372       -3.937      850.807
12/14/2021  11:29:00       45.666      250.046      -18.253      118.075       90.914       45.611    13941.774     8265.366     2080.389        4.461        1.214      254.182       39.811        0.025      329.397       -3.900      850.838
12/14/2021  11:30:00       35.669      243.788       -0.781      110.921       74.314       35.776    12303.509     5522.533     1279.929        3.990        0.955      246.383       37.711        0.023      329.424       -3.855      850.838
12/14/2021  11:31:00       78.803      317.906      -13.987      115.045       73.157       35.070    13235.254     5351.913     1229.921        6.364        0.991      327.527       38.168        0.014      329.356       -3.965      850.823
12/14/2021  11:32:00       26.407      168.797      -18.634       80.496       56.638       33.878     6479.613     3207.886     1147.710        2.018        0.542      170.850       34.308        0.040      329.527       -3.684      850.797
12/14/2021  11:33:00       98.930      190.730      -12.726       82.677       72.355       31.119     6835.493     5235.208      968.418        2.968        0.652      214.860       31.672        0.022      329.531       -3.677      850.766
12/14/2021  11:34:00      103.626      227.846       -8.387       63.295       75.719       34.592     4006.210     5733.331     1196.580        3.683        0.547      250.304       33.160        0.018      329.506       -3.719      850.765
12/14/2021  11:35:00       77.314      208.582      -14.672       95.343       62.167       38.677     9090.307     3864.759     1495.873        3.207        0.723      222.450       34.674        0.024      329.482       -3.759      850.743
12/14/2021  11:36:00       91.643      197.527      -20.763       81.301       77.560       41.270     6609.817     6015.584     1703.174        3.108        0.716      217.750       40.232        0.034      329.499       -3.730      850.740
12/14/2021  11:37:00       91.935      182.924       -9.537      106.447       76.602       46.397    11331.020     5867.889     2152.703        3.067        0.968      204.727       48.901        0.057      329.496       -3.736      850.721
12/14/2021  11:38:00      167.546      273.730      -15.720      113.848      103.781       52.456    12961.466    10770.554     2751.684        6.486        1.324      320.936       53.475        0.028      329.392       -3.904      850.694
12/14/2021  11:39:00       93.419      170.306       -0.145       83.079       89.733       50.085     6902.126     8052.005     2508.459        2.759        0.873      194.245       44.451        0.052      329.523       -3.691      850.709
12/14/2021  11:40:00      102.838      222.765      -22.039      101.746      107.808       38.593    10352.199    11622.459     1489.448        4.207        1.173      245.357       46.990        0.037      329.463       -3.788      850.752
12/14/2021  11:41:00       54.271      138.575      -12.155       69.956       46.194       27.680     4893.842     2133.873      766.207        1.504        0.390      148.823       18.984        0.016      329.586       -3.586      850.790
12/14/2021  11:42:00       30.340      138.334      -13.123      127.066       56.522       39.277    16145.839     3194.752     1542.717        2.055        1.044      141.622       30.274        0.046      329.575       -3.606      850.822
12/14/2021  11:43:00        1.274      145.179      -10.197       86.203       59.371       33.958     7430.969     3524.880     1153.144        1.664        0.605      145.185       35.766        0.061      329.569       -3.611      850.857
12/14/2021  11:44:00      140.957      169.606       -9.407       75.793      110.227       39.246     5744.616    12150.048     1540.216        3.408        0.972      220.534       41.302        0.035      329.586       -3.588      850.887
12/14/2021  11:45:00       98.930      132.652       -6.325      100.690       68.414       34.763    10138.430     4680.451     1208.485        2.172        0.801      165.480       29.887        0.033      329.618       -3.535      850.885
12/14/2021  11:46:00       75.744      158.178      -14.567       72.689       89.230       34.636     5283.685     7961.909     1199.639        2.270        0.722      175.377       40.509        0.053      329.676       -3.438      850.871
12/14/2021  11:47:00      110.166      237.364      -16.767      102.713       82.253       42.410    10550.044     6765.562     1798.591        4.393        0.956      261.683       38.368        0.021      329.597       -3.569      850.881
12/14/2021  11:48:00       44.124      159.959      -14.830      122.714       85.241       30.937    15058.653     7265.943      957.076        2.551        1.164      165.934       20.336        0.015      329.703       -3.395      850.890
12/14/2021  11:49:00       84.438      224.031      -15.926      121.145       90.529       38.782    14676.153     8195.484     1504.081        4.097        1.219      239.415       36.368        0.023      329.584       -3.590      850.902
12/14/2021  11:50:00      125.916      220.016      -13.519      114.924       80.949       41.829    13207.485     6552.756     1749.696        4.297        1.075      253.499       21.618        0.007      329.613       -3.543      850.923
12/14/2021  11:51:00      151.522      272.606      -23.636      130.315       81.744       42.309    16981.920     6682.070     1790.088        6.164        1.273      311.886       36.226        0.013      329.589       -3.583      850.945
12/14/2021  11:52:00       86.438      156.613      -15.357       92.802       89.345       41.284     8612.123     7982.568     1704.388        2.526        0.915      178.883       30.243        0.029      329.692       -3.414      850.968
12/14/2021  11:53:00      103.506      242.824      -11.186      102.660       87.088       41.453    10539.012     7584.361     1718.373        4.482        0.992      263.964       45.694        0.030      329.571       -3.612      851.000
12/14/2021  11:54:00       80.655      210.182       -5.998       92.619       88.760       43.698     8578.193     7878.291     1909.493        3.454        0.918      225.126       48.669        0.047      329.659       -3.469      851.035
12/14/2021  11:55:00       15.110      148.759       -5.618       86.178       83.448       38.219     7426.691     6963.536     1460.701        1.912        0.793      149.524       36.788        0.061      329.737       -3.340      851.049
12/14/2021  11:56:00       -0.593      121.927       -9.644       72.464       80.339       40.798     5251.091     6454.299     1664.465        1.416        0.668      121.928       40.246        0.109      329.872       -3.117      851.018
12/14/2021  11:57:00       59.037      112.993        4.434       61.010      102.551       52.478     3722.191    10516.671     2753.912        1.663        0.850      127.487       65.408        0.263      330.342       -2.347      850.979
12/14/2021  11:58:00       -4.653       77.455       -2.880       67.021       44.945       26.780     4491.751     2020.079      717.161        0.663        0.361       77.595       17.711        0.052      331.124       -1.063      850.934
12/14/2021  11:59:00       -0.639       94.281       -3.037      115.441       50.455       32.363    13326.657     2545.676     1047.372        1.291        0.846       94.283       31.824        0.114      331.161       -1.004      850.916
12/14/2021  12:00:00      129.734       67.572       -7.617       38.015       27.085       25.039     1445.150      733.605      626.951        1.213        0.140      146.276       15.107        0.011      331.194       -0.947      850.915
12/14/2021  12:01:00       63.404      157.138      -10.749       94.612       83.469       28.356     8951.505     6967.046      804.067        2.277        0.836      169.447       23.553        0.019      331.263       -0.836      850.942
12/14/2021  12:02:00        9.088      252.008      -24.058      108.511       99.212       41.950    11774.710     9843.024     1759.836        4.377        1.169      252.172       38.939        0.024      331.272       -0.821      851.008
12/14/2021  12:03:00       -4.369      150.356      -14.549       78.633       62.706       36.732     6183.109     3932.007     1349.217        1.715        0.573      150.420       28.312        0.035      331.373       -0.655      851.067
12/14/2021  12:04:00       25.873      129.835      -17.566      127.531       80.158       38.332    16264.195     6425.303     1469.377        2.099        1.208      132.388       37.944        0.082      331.505       -0.437      851.112
12/14/2021  12:05:00      -31.811       69.886      -17.800       69.283       43.413       32.940     4800.201     1884.684     1085.073        0.699        0.388       76.785       25.659        0.112      331.514       -0.422      851.170
12/14/2021  12:06:00       22.701       13.114      -16.489       30.964       34.330       23.680      958.783     1178.557      560.744        0.183        0.135       26.217       23.645        0.813      331.625       -0.239      851.189
12/14/2021  12:07:00       -1.462       66.900      -10.426       30.797       25.235       17.050      948.461      636.800      290.709        0.323        0.094       66.916       15.144        0.051      331.559       -0.348      851.225
12/14/2021  12:08:00      -45.964       46.409       -4.179       32.723       34.556       17.349     1070.790     1194.128      300.978        0.342        0.128       65.319       14.046        0.046      331.589       -0.298      851.239
12/14/2021  12:09:00       36.001       61.336       -4.021       44.627       27.690       22.043     1991.562      766.722      485.910        0.416        0.162       71.121       12.130        0.029      331.635       -0.221      851.227
12/14/2021  12:10:00       60.005       16.073      -23.927       23.561       39.905       17.546      555.108     1592.424      307.853        0.344        0.123       62.121       14.596        0.055      331.377       -0.648      851.176
12/14/2021  12:11:00       67.723        9.524      -14.878       55.890       48.647       21.408     3123.646     2366.544      458.290        0.542        0.297       68.389       11.841        0.030      331.604       -0.273      851.125
12/14/2021  12:12:00      138.020       24.349       -9.192       44.730       38.225       26.585     2000.785     1461.175      706.787        1.195        0.208      140.152        8.480        0.004      331.454       -0.520      851.074
12/14/2021  12:13:00      144.140      -25.649       -6.263       76.563       47.952       42.555     5861.915     2299.362     1810.886        1.572        0.499      146.404       31.388        0.046      331.390       -0.627      851.015
12/14/2021  12:14:00       95.457      -23.887       -9.788      102.169       58.885       42.871    10438.490     3467.442     1837.920        1.276        0.787       98.400       30.692        0.097      331.435       -0.553      850.989
12/14/2021  12:15:00      128.013       -9.199      -22.796       62.772       45.588       32.280     3940.329     2078.269     1042.028        1.202        0.353      128.343       29.813        0.054      331.309       -0.759      850.999
12/14/2021  12:16:00      126.447       50.669      -12.095       31.314       45.096       19.499      980.556     2033.605      380.220        1.105        0.170      136.221       13.630        0.010      331.325       -0.732      851.019
12/14/2021  12:17:00       16.663       31.272       -3.610       42.296       15.970       10.409     1788.925      255.048      108.341        0.171        0.108       35.434        5.352        0.023      331.438       -0.547      851.035
12/14/2021  12:18:00       19.236       -5.805       -9.401       22.659       27.305       16.167      513.410      745.583      261.382        0.101        0.076       20.093       13.425        0.446      331.731       -0.063      851.032
12/14/2021  12:19:00       30.975       40.376       -9.170       30.659       15.353       17.014      939.961      235.711      289.486        0.207        0.073       50.889       17.330        0.116      331.587       -0.302      851.009
12/14/2021  12:20:00       85.386       28.136      -30.132       44.291       37.886       22.495     1961.656     1435.346      506.008        0.645        0.195       89.902       16.004        0.032      331.560       -0.345      850.949
12/14/2021  12:21:00       79.651       45.586      -15.046       41.457       53.936       36.089     1718.714     2909.093     1302.409        0.729        0.297       91.774       24.463        0.071      331.476       -0.484      850.877
12/14/2021  12:22:00      137.418       49.628      -32.770       68.502       67.353       38.803     4692.587     4536.478     1505.654        1.658        0.537      146.105       20.413        0.020      331.502       -0.443      850.811
12/14/2021  12:23:00       65.937       36.227      -24.358       94.426       47.482       44.821     8916.220     2254.515     2008.916        0.971        0.659       75.233       47.973        0.407      331.547       -0.367      850.762
12/14/2021  12:24:00       70.130       68.219       -8.821       66.552       57.503       39.155     4429.143     3306.613     1533.104        0.946        0.463       97.837       44.242        0.204      331.564       -0.338      850.730
12/14/2021  12:25:00       88.361       49.191      -20.961       37.888       41.135       30.568     1435.511     1692.124      934.422        0.736        0.203      101.131       14.036        0.019      331.548       -0.367      850.763
12/14/2021  12:26:00       18.417      -23.461       -7.064       51.089       66.715       39.202     2610.094     4450.825     1536.823        0.477        0.430       29.826       24.741        0.688      331.697       -0.121      850.823
12/14/2021  12:27:00       -4.332        0.904      -13.462       42.717       36.530       31.125     1824.707     1334.420      968.752        0.216        0.206        4.426       16.987       14.730      331.880        0.180      850.884
12/14/2021  12:28:00       71.509      111.572      -29.067       76.696       86.018       54.506     5882.296     7399.048     2970.927        1.733        0.813      132.521       41.453        0.098      331.604       -0.276      850.919
12/14/2021  12:29:00        0.417       97.443      -19.951       76.627       61.870       46.959     5871.720     3827.836     2205.131        1.090        0.595       97.444       21.457        0.048      331.594       -0.290      850.947
12/14/2021  12:30:00      -21.049       66.669      -10.101       47.915       52.706       27.380     2295.867     2777.943      749.673        0.541        0.291       69.913       26.098        0.139      331.694       -0.126      850.959
12/14/2021  12:31:00       -1.756      -41.707      -12.176       30.199       46.910       32.318      911.986     2200.547     1044.438        0.302        0.208       41.744       22.292        0.285      332.010        0.395      850.965
12/14/2021  12:32:00       20.887      -43.797      -23.591       29.940       60.459       34.921      896.412     3655.312     1219.495        0.434        0.289       48.523       31.535        0.422      332.049        0.461      850.974
12/14/2021  12:33:00      123.924       73.266      -16.036       46.234       38.490       30.944     2137.577     1481.452      957.514        1.278        0.229      143.962       16.067        0.012      331.510       -0.429      850.955
12/14/2021  12:34:00      227.178       69.688      -15.649       62.164       50.448       35.519     3864.425     2544.975     1261.585        3.219        0.384      237.626       26.336        0.012      331.381       -0.644      850.907
12/14/2021  12:35:00       79.971       37.757      -25.197       51.223       30.295       23.611     2623.816      917.804      557.458        0.628        0.205       88.437       20.839        0.056      331.523       -0.409      850.849
12/14/2021  12:36:00       29.717       55.201       -6.035       48.467       30.137       31.326     2349.084      908.235      981.315        0.410        0.212       62.692       12.300        0.038      331.605       -0.271      850.797
12/14/2021  12:37:00       -9.587       70.408       -5.822       56.237       50.738       25.986     3162.570     2574.373      675.286        0.575        0.321       71.058       21.660        0.093      331.737       -0.053      850.764
12/14/2021  12:38:00      -17.313       49.912      -15.749       56.565       68.999       34.325     3199.624     4760.893     1178.197        0.609        0.457       52.829       26.624        0.254      331.853        0.136      850.750
12/14/2021  12:39:00       69.313       81.100       -7.301       52.810       49.911       33.540     2788.876     2491.104     1124.900        0.892        0.320      106.684       25.927        0.059      331.692       -0.128      850.742
12/14/2021  12:40:00       70.059      128.680      -16.231       63.481       77.223       39.231     4029.797     5963.317     1539.093        1.663        0.577      146.515       40.818        0.078      331.654       -0.191      850.746
12/14/2021  12:41:00       20.478      175.273      -25.207       34.266       43.943       30.135     1174.129     1930.955      908.103        1.789        0.201      176.465       11.332        0.004      331.586       -0.304      850.721
12/14/2021  12:42:00       20.414      175.807      -22.441       82.790       98.993       41.763     6854.152     9799.706     1744.154        2.511        0.920      176.988       35.631        0.041      331.577       -0.320      850.673
12/14/2021  12:43:00       18.082      166.556      -18.616       86.672       70.592       47.860     7511.999     4983.210     2290.605        2.160        0.739      167.535       30.452        0.033      331.662       -0.180      850.612
12/14/2021  12:44:00       16.956       83.637      -22.914       75.898       59.584       36.081     5760.561     3550.203     1301.857        0.921        0.531       85.338       16.123        0.036      331.699       -0.117      850.597
12/14/2021  12:45:00       13.719      168.878      -20.108       78.457      115.775       60.012     6155.555    13403.927     3601.418        2.613        1.158      169.434       54.441        0.103      331.602       -0.279      850.621
12/14/2021  12:46:00       37.181      149.508       -9.732       67.341       80.232       46.192     4534.837     6437.134     2133.713        1.847        0.655      154.062       38.425        0.062      331.727       -0.071      850.635
12/14/2021  12:47:00      -59.591      211.934      -35.087       68.786      101.628       44.621     4731.488    10328.236     1991.077        3.337        0.853      220.152       32.834        0.022      331.579       -0.316      850.609
12/14/2021  12:48:00       17.964      181.157      -20.228       76.751       70.665       42.729     5890.748     4993.587     1825.745        2.313        0.636      182.045       26.234        0.021      331.643       -0.211      850.558
12/14/2021  12:49:00      -54.806      188.793      -23.303       95.939      112.012       59.107     9204.315    12546.588     3493.585        3.221        1.262      196.587       40.884        0.043      331.618       -0.252      850.517
12/14/2021  12:50:00      -64.384      184.158      -13.652       66.900      105.758       49.394     4475.562    11184.769     2439.747        2.817        0.905      195.088       29.753        0.023      331.623       -0.244      850.492
12/14/2021  12:51:00     -117.050      234.071      -25.185       83.685       80.617       54.455     7003.261     6499.048     2965.312        4.279        0.823      261.705       34.791        0.018      331.484       -0.475      850.483
12/14/2021  12:52:00      -56.096      137.256      -13.074      150.830       84.549       67.115    22749.600     7148.590     4504.482        2.827        1.720      148.277       54.157        0.133      331.466       -0.503      850.480
12/14/2021  12:53:00      -82.057       68.714      -35.976       94.041      176.431       69.018     8843.689    31127.871     4763.544        2.873        2.237      107.027       59.865        0.313      331.562       -0.344      850.462
12/14/2021  12:54:00     -173.034      114.128      -49.095      111.170       94.809       80.999    12358.782     8988.715     6560.868        3.664        1.395      207.282       62.590        0.091      331.378       -0.648      850.449
12/14/2021  12:55:00     -109.654      176.999      -37.392       97.781       91.090       70.189     9561.142     8297.424     4926.494        3.376        1.139      208.213       35.984        0.030      331.411       -0.594      850.446
12/14/2021  12:56:00     -177.664      161.024      -42.513      122.269       90.746       80.729    14949.801     8234.912     6517.226        4.450        1.485      239.778       31.108        0.017      331.324       -0.739      850.413
12/14/2021  12:57:00      -82.882      162.191      -54.972      107.209      128.816       84.848    11493.734    16593.596     7199.262        3.574        1.764      182.141       39.010        0.046      331.368       -0.664      850.375
12/14/2021  12:58:00     -185.607      182.661      -50.569      159.779      118.179       86.295    25529.463    13966.358     7446.785        5.865        2.347      260.413       79.574        0.093      331.293       -0.789      850.375
12/14/2021  12:59:00     -247.362      179.340      -50.986      145.195      127.733       97.623    21081.599    16315.663     9530.180        7.143        2.346      305.533       76.188        0.062      331.225       -0.901      850.409
12/14/2021  13:00:00      -53.458       24.587        0.019      172.516      142.927      114.440    29761.643    20428.019    13096.400        3.336        3.164       58.841      106.254        3.261      331.304       -0.768      850.453
12/14/2021  13:01:00     -184.762      207.659      -26.074      155.645      126.602       82.440    24225.297    16027.945     6796.391        6.249        2.352      277.955       81.861        0.087      331.201       -0.939      850.509
12/14/2021  13:02:00     -133.993      301.826      -27.647      128.424      141.384       73.735    16492.783    19989.429     5436.783        7.586        2.096      330.232       59.877        0.033      331.206       -0.931      850.507
12/14/2021  13:03:00     -126.196      240.203      -37.926      112.982      148.541       68.932    12764.883    22064.387     4751.580        5.731        1.979      271.335       42.141        0.024      331.196       -0.947      850.509
12/14/2021  13:04:00     -153.618      195.186      -36.381      112.427      126.119       69.872    12639.780    15905.881     4882.104        4.822        1.671      248.386       56.955        0.053      331.246       -0.865      850.493
12/14/2021  13:05:00     -154.535      170.441      -34.176      172.477      140.151       85.960    29748.375    19642.337     7389.178        5.543        2.839      230.068       50.154        0.048      331.210       -0.923      850.499
12/14/2021  13:06:00     -159.555      224.875      -32.079      116.299      117.551       76.977    13525.452    13818.289     5925.531        5.516        1.663      275.730       51.516        0.035      331.204       -0.935      850.535
12/14/2021  13:07:00      -67.559      107.829      -21.019      112.614      171.339       76.195    12681.981    29356.887     5805.739        3.223        2.392      127.245       51.274        0.162      331.236       -0.881      850.607
12/14/2021  13:08:00     -146.716      166.498      -28.329      148.852      136.926       79.358    22157.023    18748.852     6297.757        4.862        2.360      221.917       24.191        0.012      331.198       -0.942      850.701
12/14/2021  13:09:00     -120.601      187.576      -25.930       94.962      106.228       82.290     9017.687    11284.291     6771.623        3.873        1.354      223.001       41.577        0.035      331.159       -1.008      850.767
12/14/2021  13:10:00      -84.895       60.278      -33.475      127.804      119.621       54.682    16333.776    14309.092     2990.090        2.279        1.682      104.118       25.451        0.060      331.199       -0.940      850.814
12/14/2021  13:11:00     -126.760       89.608      -30.791      155.639      145.499       70.518    24223.635    21169.981     4972.726        3.770        2.518      155.234       59.603        0.147      331.173       -0.985      850.853
12/14/2021  13:12:00      -62.698        4.859      -18.718      177.946       87.761       78.926    31664.622     7701.972     6229.272        2.494        2.280       62.886       49.177        0.612      331.172       -0.986      850.861
12/14/2021  13:13:00      -16.132       -1.813      -25.048      101.232      102.839       70.545    10247.902    10575.848     4976.582        1.334        1.290       16.234       53.609       10.905      331.095       -1.111      850.875
12/14/2021  13:14:00      -66.135       82.863      -16.299      120.401      141.586       78.257    14496.505    20046.577     6124.202        2.608        2.033      106.020       60.165        0.322      330.979       -1.302      850.881
12/14/2021  13:15:00     -232.792      200.950      -42.304      122.872      124.697       60.283    15097.530    15549.386     3634.093        6.532        1.714      307.528       47.164        0.024      330.867       -1.489      850.865
12/14/2021  13:16:00     -137.532      218.178      -48.206      104.308      141.264       76.698    10880.248    19955.518     5882.519        5.277        1.836      257.908       39.580        0.024      330.847       -1.521      850.859
12/14/2021  13:17:00      -87.386      104.947      -21.906      138.297      130.473       70.646    19126.016    17023.226     4990.908        3.013        2.057      136.566       28.041        0.042      330.867       -1.489      850.853
12/14/2021  13:18:00     -136.310       87.853      -51.448      109.788      117.505       81.230    12053.423    13807.385     6598.277        3.070        1.623      162.168       60.168        0.138      330.829       -1.551      850.846
12/14/2021  13:19:00      -99.127      165.461      -33.872      116.512      179.467       72.551    13575.003    32208.445     5263.613        4.469        2.552      192.882       62.901        0.106      330.811       -1.577      850.847
12/14/2021  13:20:00     -117.628       74.512      -17.765       96.555       82.525       71.431     9322.837     6810.325     5102.344        2.047        1.062      139.242       67.465        0.235      330.841       -1.530      850.851
12/14/2021  13:21:00     -158.129      245.873      -36.100      106.019      131.205       66.900    11239.998    17214.695     4475.663        5.984        1.647      292.332       47.237        0.026      330.834       -1.541      850.874
12/14/2021  13:22:00     -135.783      200.278      -45.231       81.336      140.673       63.971     6615.522    19789.001     4092.345        4.554        1.525      241.967       40.055        0.027      330.757       -1.670      850.896
12/14/2021  13:23:00     -142.969      174.830      -40.220      132.384      108.847       66.571    17525.630    11847.640     4431.704        4.321        1.690      225.844       55.524        0.060      330.777       -1.636      850.918
12/14/2021  13:24:00     -102.917      126.427      -26.556       95.912       73.512       53.578     9199.132     5403.958     2870.587        2.237        0.874      163.021       35.726        0.048      330.806       -1.587      850.955
12/14/2021  13:25:00     -140.045      106.769      -42.942      116.000       96.202       66.645    13456.095     9254.914     4441.617        3.000        1.358      176.103       57.177        0.105      330.817       -1.569      850.953
12/14/2021  13:26:00      -91.350       98.425      -29.992       65.875      101.079       54.522     4339.542    10217.039     2972.614        1.823        0.876      134.284       46.421        0.120      330.904       -1.425      850.937
12/14/2021  13:27:00      -85.257      121.704      -33.795       91.750       78.424       52.627     8418.067     6150.293     2769.648        2.028        0.867      148.596       32.980        0.049      330.927       -1.389      850.915
12/14/2021  13:28:00      -51.920       58.393       -2.357       63.107       75.077       42.255     3982.487     5636.552     1785.484        0.876        0.570       78.137       41.849        0.287      331.080       -1.135      850.908
12/14/2021  13:29:00     -134.658      104.171      -34.089       91.009       82.054       44.571     8282.645     6732.826     1986.592        2.357        0.850      170.248       38.151        0.050      330.965       -1.327      850.899
12/14/2021  13:30:00      -78.571       22.089       -7.875       73.080       56.305       37.976     5340.651     3170.249     1442.177        0.834        0.498       81.617       14.981        0.034      331.081       -1.133      850.913
12/14/2021  13:31:00      -70.982       52.989      -11.894       64.113       77.413       59.887     4110.465     5992.823     3586.407        1.084        0.684       88.579       48.165        0.296      331.128       -1.057      850.946
12/14/2021  13:32:00     -130.631       80.134      -12.533      117.742       81.149       56.101    13863.184     6585.223     3147.287        2.362        1.180      153.251       62.528        0.166      331.086       -1.127      850.969
12/14/2021  13:33:00      -19.793       19.860      -28.111       71.198       85.544       42.748     5069.104     7317.779     1827.427        0.789        0.711       28.039       34.744        1.535      331.167       -0.992      850.983
12/14/2021  13:34:00     -153.065       41.017      -12.986      103.434       69.529       55.726    10698.545     4834.305     3105.412        2.196        0.932      158.465       37.607        0.056      331.147       -1.029      850.989
12/14/2021  13:35:00      -90.975      -12.546       -9.650      111.132       80.119       47.877    12350.354     6419.068     2292.247        1.479        1.053       91.836       42.768        0.217      331.166       -0.995      850.974
12/14/2021  13:36:00     -112.238       29.917      -25.629       97.785       60.199       48.671     9561.986     3623.861     2368.885        1.485        0.778      116.157       25.335        0.048      331.253       -0.852      850.952
12/14/2021  13:37:00      -21.738        8.883      -11.974       77.073       58.983       38.808     5940.300     3479.018     1506.023        0.581        0.546       23.483       36.549        2.422      331.347       -0.696      850.965
12/14/2021  13:38:00     -193.283       44.712      -15.631      124.324       84.647       48.657    15456.417     7165.062     2367.492        3.229        1.249      198.388       58.481        0.087      331.213       -0.918      850.984
12/14/2021  13:39:00     -197.068       91.209      -28.774       95.954       64.402       58.995     9207.181     4147.574     3480.412        3.241        0.842      217.151       51.621        0.057      331.141       -1.039      850.993
12/14/2021  13:40:00     -162.505       47.745       -7.517       82.575       64.928       39.378     6818.692     4215.621     1550.606        2.066        0.629      169.374       34.505        0.042      331.127       -1.060      851.000
12/14/2021  13:41:00     -109.305        6.407      -18.905       62.751       38.606       37.990     3937.627     1490.439     1443.224        0.961        0.344      109.493       31.760        0.084      331.259       -0.841      851.029
12/14/2021  13:42:00     -134.977       38.346       -5.022       47.934       41.868       35.238     2297.695     1752.952     1241.752        1.250        0.265      140.318       31.224        0.050      331.240       -0.872      851.052
12/14/2021  13:43:00     -176.504       59.481       -8.149       52.364       59.514       34.944     2742.016     3541.953     1221.072        2.113        0.375      186.257       29.603        0.025      331.219       -0.907      851.069
12/14/2021  13:44:00     -168.110       73.810      -10.246       66.362       56.062       32.577     4403.910     3142.967     1061.265        2.121        0.430      183.599       29.044        0.025      331.182       -0.969      851.066
12/14/2021  13:45:00     -279.433       45.463       -4.358      111.443       72.558       50.817    12419.485     5264.727     2582.368        5.021        1.013      283.108       51.523        0.033      331.225       -0.900      851.063
12/14/2021  13:46:00     -154.234       35.377        3.967       85.090       48.791       39.335     7240.276     2380.559     1547.204        1.811        0.558      158.239       43.270        0.075      331.220       -0.907      851.089
12/14/2021  13:47:00     -110.063       17.694       -1.372       46.864       37.541       19.607     2196.226     1409.314      384.415        0.821        0.199      111.476       10.606        0.009      331.284       -0.799      851.104
12/14/2021  13:48:00      -31.399       -2.225        2.444       75.977       32.034       27.989     5772.431     1026.194      783.365        0.429        0.379       31.478       32.020        1.035      331.369       -0.662      851.118
12/14/2021  13:49:00     -143.440      -18.351      -19.513       70.541       40.200       36.861     4975.973     1616.060     1358.757        1.462        0.398      144.609       32.834        0.052      331.303       -0.769      851.119
12/14/2021  13:50:00      -63.393       -5.073       -8.020       52.124       40.508       31.579     2716.895     1640.875      997.250        0.473        0.268       63.596       22.902        0.130      331.339       -0.710      851.123
12/14/2021  13:51:00      -52.045      -26.040       -2.174       46.631       41.637       33.472     2174.454     1733.610     1120.361        0.421        0.251       58.196       25.107        0.186      331.351       -0.689      851.122
12/14/2021  13:52:00      -43.126        2.358       -7.770       49.503       43.081       32.041     2450.544     1855.967     1026.649        0.363        0.267       43.190       19.987        0.214      331.335       -0.717      851.119
12/14/2021  13:53:00      -45.557      -10.870       -6.341       60.119       41.165       35.410     3614.246     1694.533     1253.866        0.440        0.328       46.836       32.575        0.484      331.363       -0.670      851.121
12/14/2021  13:54:00     -105.165      -37.026      -12.309       70.382       41.819       37.274     4953.626     1748.809     1389.374        1.034        0.405      111.493       33.612        0.091      331.218       -0.907      851.127
12/14/2021  13:55:00     -121.154       -2.189      -16.852       58.326       24.283       25.545     3401.945      589.669      652.528        0.980        0.232      121.174       26.231        0.047      331.274       -0.816      851.130
12/14/2021  13:56:00      -83.292      -14.286       -1.922       47.614       44.692       24.795     2267.115     1997.375      614.792        0.601        0.244       84.508       20.796        0.061      331.287       -0.795      851.140
12/14/2021  13:57:00      -65.226       -3.215        0.288       50.615       37.308       31.923     2561.867     1391.892     1019.104        0.462        0.249       65.305       28.536        0.191      331.408       -0.597      851.137
12/14/2021  13:58:00      -50.726        6.865       -2.134       35.982       32.692       18.085     1294.730     1068.741      327.070        0.266        0.135       51.188       16.270        0.101      331.387       -0.631      851.135
12/14/2021  13:59:00     -102.776       17.542      -21.585       36.509       28.976       16.438     1332.877      839.608      270.208        0.689        0.122      104.263       16.421        0.025      331.229       -0.890      851.127
12/14/2021  14:00:00      -13.691        4.724       -2.501       36.077       32.621       25.012     1301.550     1064.154      625.579        0.160        0.150       14.483       22.439        2.400      331.426       -0.567      851.115
12/14/2021  14:01:00      -49.610       22.839       -5.789       31.942       41.654       19.127     1020.312     1735.063      365.833        0.307        0.156       54.615       19.860        0.132      331.345       -0.701      851.109
12/14/2021  14:02:00      -35.458      -13.494      -11.307       32.161       37.493       18.036     1034.340     1405.735      325.307        0.217        0.138       37.939        2.831        0.006      331.539       -0.381      851.115
12/14/2021  14:03:00      -38.106       -2.008       -6.501       48.178       33.995       20.793     2321.096     1155.667      432.339        0.270        0.195       38.159       17.975        0.222      331.601       -0.278      851.107
12/14/2021  14:04:00      -66.924       12.599      -17.923       54.830       39.892       22.810     3006.293     1591.349      520.294        0.504        0.256       68.100       17.056        0.063      331.574       -0.324      851.122
12/14/2021  14:05:00     -106.615       14.145       -8.191       65.801       51.644       32.531     4329.711     2667.103     1058.258        0.984        0.403      107.549       35.337        0.108      331.584       -0.307      851.137
12/14/2021  14:06:00      -74.142        4.594        4.947       63.107       42.045       36.509     3982.488     1767.746     1332.898        0.631        0.354       74.285       33.995        0.209      331.600       -0.280      851.141
12/14/2021  14:07:00      -48.891       13.858       -1.313       43.436       24.299       22.255     1886.643      590.432      495.271        0.278        0.149       50.818       24.557        0.234      331.649       -0.200      851.138
12/14/2021  14:08:00      -34.206      -18.620      -13.800       57.482       49.019       32.667     3304.199     2402.906     1067.107        0.424        0.339       38.945       35.508        0.831      331.619       -0.250      851.117
12/14/2021  14:09:00      -49.335        4.167        1.666       67.662       38.643       29.917     4578.108     1493.248      895.002        0.471        0.348       49.511       30.094        0.369      331.669       -0.167      851.093
12/14/2021  14:10:00      -40.730      -29.326      -11.396       35.270       41.823       18.028     1243.971     1749.143      325.006        0.298        0.166       50.189       15.566        0.096      331.453       -0.521      851.080
12/14/2021  14:11:00        6.392        2.634      -19.738       21.875       32.668       16.963      478.495     1067.200      287.742        0.114        0.092        6.914        7.331        1.124      331.699       -0.118      851.088
12/14/2021  14:12:00      -46.928        4.197      -13.841       37.779       21.842       21.603     1427.281      477.056      466.706        0.239        0.119       47.115       19.205        0.166      331.578       -0.315      851.112
12/14/2021  14:13:00      -39.013       37.299       -9.278       18.354       16.486       14.832      336.869      271.802      219.981        0.191        0.041       53.974        8.104        0.023      331.504       -0.439      851.131
12/14/2021  14:14:00      -11.778       21.986      -24.134       42.081       29.268       34.229     1770.790      856.594     1171.607        0.250        0.190       24.942       18.600        0.556      331.548       -0.366      851.139
12/14/2021  14:15:00      -16.315       53.258       -2.323       63.600       41.295       27.112     4044.915     1705.282      735.081        0.480        0.324       55.701       30.367        0.297      331.668       -0.168      851.145
12/14/2021  14:16:00     -136.226       17.879      -20.300       42.710       38.989       23.346     1824.128     1520.113      545.024        1.159        0.194      137.394        5.779        0.002      331.361       -0.673      851.146
12/14/2021  14:17:00      -45.414       14.978        4.720       30.056       22.273       17.350      903.362      496.068      301.038        0.200        0.085       47.820       15.406        0.104      331.871        0.166      851.165
12/14/2021  14:18:00      -49.670       10.768      -10.702       39.619       29.061       22.568     1569.639      844.552      509.318        0.281        0.146       50.824       22.918        0.203      331.800        0.049      851.185
12/14/2021  14:19:00      -25.514       50.045       -5.818       35.668       32.470       31.354     1272.201     1054.307      983.071        0.325        0.165       56.174       14.540        0.067      331.565       -0.338      851.188
12/14/2021  14:20:00       13.237       -8.698       -2.118       72.022       68.746       28.525     5187.213     4726.015      813.671        0.549        0.536       15.839       23.922        2.281      331.730       -0.065      851.194
12/14/2021  14:21:00      -91.986       29.453       -9.572       98.745       45.842       36.504     9750.515     2101.451     1332.559        1.130        0.659       96.587       40.077        0.172      331.611       -0.263      851.189
12/14/2021  14:22:00      -65.163       26.902       -0.721      115.145       82.969       60.046    13258.413     6883.810     3605.578        1.435        1.187       70.498       33.772        0.229      331.492       -0.460      851.187
12/14/2021  14:23:00      -29.739       90.771      -24.547       69.658       58.121       39.815     4852.287     3378.039     1585.257        0.977        0.491       95.519       32.151        0.113      331.477       -0.483      851.218
12/14/2021  14:24:00      -39.220       86.189      -18.369       76.151       96.067       47.135     5799.031     9228.841     2221.692        1.327        0.862       94.693       40.261        0.181      331.476       -0.485      851.206
12/14/2021  14:25:00      -72.840      178.859      -19.706       74.070      103.360       41.638     5486.341    10683.357     1733.681        2.779        0.895      193.122       20.063        0.011      331.338       -0.712      851.171
12/14/2021  14:26:00     -186.603       68.472       -6.280      166.352       98.053       55.403    27673.052     9614.390     3069.503        3.995        2.018      198.769       49.950        0.063      331.296       -0.783      851.195
12/14/2021  14:27:00       -6.750      226.643      -26.303       62.562       90.173       48.277     3913.975     8131.112     2330.669        3.324        0.719      226.744       27.681        0.015      331.302       -0.771      851.204
12/14/2021  14:28:00      -40.751      229.905      -12.844       50.577       64.101       37.568     2558.013     4108.926     1411.378        3.138        0.404      233.489       25.521        0.012      331.279       -0.811      851.194
12/14/2021  14:29:00      -78.475      175.923      -20.166       72.474       61.968       38.639     5252.503     3839.975     1492.950        2.405        0.529      192.632       34.164        0.031      331.288       -0.795      851.175
12/14/2021  14:30:00      -47.413       45.579      -22.946       49.475       28.141       23.853     2447.752      791.944      568.945        0.433        0.190       65.769       24.545        0.139      331.430       -0.560      851.158
12/14/2021  14:31:00       17.165       14.455      -11.443       19.365       21.251       11.988      375.020      451.625      143.701        0.080        0.049       22.441        7.607        0.115      331.555       -0.356      851.175
12/14/2021  14:32:00      -11.570       88.086      -21.681       42.287       54.644       25.699     1788.197     2985.949      660.440        0.690        0.272       88.843       15.869        0.032      331.430       -0.561      851.194
12/14/2021  14:33:00      -58.004       84.929      -33.418       70.620       92.397       45.201     4987.214     8537.257     2043.159        1.363        0.778      102.847       41.792        0.165      331.423       -0.572      851.195
12/14/2021  14:34:00      -48.148       28.492      -11.972       65.464       45.031       40.999     4285.490     2027.775     1680.938        0.563        0.400       55.946       38.354        0.470      331.548       -0.366      851.241
12/14/2021  14:35:00      -46.599       28.134       -7.051       88.496       68.358       41.748     7831.623     4672.756     1742.854        0.863        0.712       54.434       43.934        0.651      331.465       -0.503      851.224
12/14/2021  14:36:00     -115.367       47.326      -16.917       70.780       59.962       37.880     5009.872     3595.493     1434.861        1.294        0.502      124.697       22.311        0.032      331.490       -0.461      851.247
12/14/2021  14:37:00       -5.951       71.219        8.641       70.154       71.237       41.543     4921.604     5074.705     1725.805        0.845        0.586       71.467       29.705        0.173      331.636       -0.220      851.307
12/14/2021  14:38:00      -29.974      169.989      -21.304       51.613       89.860       42.328     2663.857     8074.908     1791.688        2.139        0.627      172.611       42.694        0.061      331.515       -0.423      851.337
12/14/2021  14:39:00      -86.065      179.056       -9.052      110.255      111.564       48.038    12156.192    12446.573     2307.666        3.323        1.346      198.666       31.132        0.025      331.432       -0.558      851.380
12/14/2021  14:40:00      -70.499      153.623      -28.025       87.404      106.017       47.863     7639.444    11239.505     2290.901        2.526        1.058      169.027       32.630        0.037      331.539       -0.382      851.417
12/14/2021  14:41:00      -35.254       65.546      -13.007       40.292       61.306       26.064     1623.424     3758.397      679.325        0.588        0.303       74.426       22.847        0.094      331.514       -0.422      851.420
12/14/2021  14:42:00       12.589      127.458      -19.986       54.321       85.289       33.879     2950.806     7274.270     1147.789        1.409        0.569      128.079       26.848        0.044      331.419       -0.577      851.420
12/14/2021  14:43:00       -4.850       85.297       -9.247       73.657       93.180       39.354     5425.379     8682.534     1548.737        1.152        0.783       85.435       41.137        0.232      331.536       -0.386      851.461
12/14/2021  14:44:00      -70.762      259.073      -22.562       72.661       74.765       39.977     5279.587     5589.864     1598.200        4.255        0.623      268.563       27.725        0.011      331.344       -0.705      851.506
12/14/2021  14:45:00      -49.468      239.492      -18.795       66.800      110.748       43.447     4462.290    12265.011     1887.678        3.938        0.931      244.547       37.965        0.024      331.312       -0.757      851.537
12/14/2021  14:46:00        5.325      234.507      -16.248       67.392       66.062       44.393     4541.707     4364.149     1970.763        3.308        0.544      234.567       32.241        0.019      331.311       -0.759      851.566
12/14/2021  14:47:00       -5.465      171.978      -15.958       73.923       67.861       40.450     5464.612     4605.115     1636.236        2.078        0.585      172.064       27.611        0.026      331.403       -0.606      851.599
12/14/2021  14:48:00     -106.090      173.443      -38.688       74.299       92.782       36.055     5520.350     8608.477     1299.965        2.913        0.771      203.316       25.401        0.016      331.306       -0.766      851.625
12/14/2021  14:49:00     -118.936       75.168      -20.034       85.540       51.119       33.925     7317.053     2613.161     1150.934        1.564        0.554      140.698       15.335        0.012      331.330       -0.725      851.642
12/14/2021  14:50:00      -26.410       34.173      -11.174       43.445       26.544       22.393     1887.471      704.595      501.465        0.254        0.155       43.189       10.592        0.060      331.322       -0.737      851.672
12/14/2021  14:51:00      -49.305       48.316        3.025       61.230       32.751       21.519     3749.173     1072.651      463.081        0.503        0.264       69.032       21.559        0.098      331.402       -0.606      851.700
12/14/2021  14:52:00      -94.664       34.026      -19.444       29.489       37.196       26.283      869.624     1383.577      690.790        0.672        0.147      100.594       17.058        0.029      331.464       -0.503      851.739
12/14/2021  14:53:00     -104.422       60.706      -11.309       50.029       38.961       22.275     2502.922     1517.994      496.172        0.962        0.226      120.786       22.075        0.033      331.327       -0.729      851.779
12/14/2021  14:54:00      -87.555       81.399      -20.400       64.230       41.313       37.741     4125.529     1706.794     1424.395        1.098        0.363      119.548       23.608        0.039      331.412       -0.590      851.793
12/14/2021  14:55:00        8.116       54.762      -24.673       41.774       45.037       29.443     1745.095     2028.347      866.891        0.416        0.232       55.360        3.955        0.005      331.338       -0.711      851.762
12/14/2021  14:56:00      -44.996       77.128      -15.376       79.859      113.811       40.436     6377.427    12953.041     1635.031        1.458        1.048       89.294       43.587        0.238      331.420       -0.579      851.788
12/14/2021  14:57:00      -87.440      149.942      -29.897       73.148       55.573       41.418     5350.621     3088.348     1715.488        2.059        0.508      173.575       28.431        0.027      331.376       -0.652      851.824
12/14/2021  14:58:00      -99.933      171.806      -31.381       81.612       72.911       35.898     6660.532     5316.025     1288.702        2.687        0.663      198.756       27.031        0.018      331.319       -0.744      851.864
12/14/2021  14:59:00     -105.575      200.614      -31.820       76.688       79.838       45.255     5881.019     6374.038     2048.016        3.335        0.715      226.698       32.410        0.020      331.315       -0.753      851.862
12/14/2021  15:00:00     -112.715      167.896      -34.099       64.709       88.408       36.147     4187.290     7815.902     1306.621        2.768        0.665      202.222       15.762        0.006      331.316       -0.749      851.879
12/14/2021  15:01:00     -100.136       45.868      -29.157       78.529       51.110       36.325     6166.840     2612.234     1319.495        1.154        0.505      110.141       21.473        0.038      331.377       -0.649      851.887
12/14/2021  15:02:00      -26.151       12.390      -21.778       92.956       73.593       41.062     8640.809     5415.926     1686.086        0.852        0.787       28.938       40.012        1.912      331.435       -0.552      851.904
12/14/2021  15:03:00     -102.936       33.742      -13.624       96.403       77.711       40.497     9293.570     6039.044     1639.990        1.444        0.849      108.325       34.468        0.101      331.363       -0.672      851.927
12/14/2021  15:04:00      -64.432       13.958       -4.574       77.937       65.365       50.377     6074.113     4272.520     2537.851        0.862        0.644       65.926       50.818        0.594      331.351       -0.690      851.939
12/14/2021  15:05:00     -173.293       46.823      -17.344       78.981       46.358       34.735     6238.074     2149.080     1206.497        2.106        0.480      179.507       32.088        0.032      331.269       -0.826      851.971
12/14/2021  15:06:00      -76.829       27.149       -1.334      126.064       79.293       55.612    15892.108     6287.456     3092.673        1.595        1.264       81.485       43.382        0.283      331.259       -0.842      852.009
12/14/2021  15:07:00     -137.741       18.736      -11.132      114.094       74.790       52.854    13017.416     5593.529     2793.494        2.042        1.070      139.009       20.571        0.022      331.277       -0.815      852.038
12/14/2021  15:08:00     -157.574      106.060      -27.588       95.315       96.553       42.664     9085.027     9322.565     1820.236        2.853        1.011      189.943       40.126        0.045      331.245       -0.867      852.078
12/14/2021  15:09:00      -42.690      136.697      -10.255       98.475      101.850       51.263     9697.327    10373.508     2627.945        2.165        1.135      143.208       23.000        0.026      331.200       -0.939      852.117
12/14/2021  15:10:00      -40.394       11.046        4.518      135.456       80.152       49.396    18348.248     6424.397     2439.980        1.449        1.361       41.877       53.146        1.611      331.220       -0.906      852.140
12/14/2021  15:11:00      -30.228       31.951       -8.494       70.128       50.701       51.110     4917.986     2570.561     2612.249        0.605        0.505       43.985       46.298        1.108      331.077       -1.141      852.166
12/14/2021  15:12:00     -223.320      136.006      -31.116      123.637      123.969       66.095    15286.045    15368.322     4368.555        5.217        1.751      261.475       43.900        0.028      330.820       -1.565      852.182
12/14/2021  15:13:00     -223.252       36.598      -12.233      120.656       95.728       56.887    14557.757     9163.783     3236.149        3.914        1.348      226.232       59.349        0.069      330.939       -1.371      852.187
12/14/2021  15:14:00     -228.139        2.206      -10.468      105.360       86.102       58.659    11100.689     7413.550     3440.857        3.705        1.098      228.150       53.568        0.055      330.819       -1.568      852.215
12/14/2021  15:15:00     -158.805       39.380       -2.479      119.776      106.586       50.223    14346.308    11360.538     2522.357        2.750        1.411      163.615       59.495        0.132      330.893       -1.445      852.224
12/14/2021  15:16:00     -201.329       58.868       -1.670      116.719       89.196       44.764    13623.406     7955.994     2003.843        3.379        1.179      209.759       46.050        0.048      330.855       -1.508      852.250
12/14/2021  15:17:00      -43.458       -9.002      -14.558      129.984       48.519       39.378    16895.846     2354.127     1550.626        1.149        1.040       44.380       47.996        1.170      330.943       -1.362      852.270
12/14/2021  15:18:00     -108.113       27.150       -6.597      107.173       55.404       42.417    11485.995     3069.620     1799.232        1.441        0.818      111.469       37.107        0.111      330.911       -1.414      852.287
12/14/2021  15:19:00     -199.736       62.824       -7.000       77.158       57.981       46.353     5953.313     3361.790     2148.585        2.767        0.573      209.384       41.467        0.039      330.794       -1.607      852.313
12/14/2021  15:20:00      -92.804       -0.394       -8.046       83.954       41.958       39.117     7048.243     1760.486     1530.102        0.951        0.517       92.805       38.098        0.169      330.830       -1.547      852.323
12/14/2021  15:21:00      -29.638       60.904       -3.830       37.073       39.517       22.412     1374.404     1561.603      502.312        0.402        0.172       67.733       19.480        0.083      330.873       -1.474      852.339
12/14/2021  15:22:00      -32.713        1.260      -22.307       28.549       24.792       21.120      815.048      614.666      446.045        0.172        0.094       32.737       17.470        0.285      331.009       -1.253      852.352
12/14/2021  15:23:00      -34.003       16.820      -16.518       44.103       54.758       31.284     1945.108     2998.466      978.709        0.382        0.296       37.935       18.741        0.244      330.939       -1.367      852.362
12/14/2021  15:24:00     -122.651       40.675      -31.131       49.608       42.184       26.889     2460.914     1779.493      723.033        1.131        0.248      129.220       25.198        0.038      330.812       -1.574      852.360
12/14/2021  15:25:00     -108.999       12.687       -4.826       64.349       37.494       32.697     4140.858     1405.779     1069.095        0.934        0.331      109.735       32.067        0.085      330.881       -1.463      852.348
12/14/2021  15:26:00      -83.532      -14.954       -7.416       37.056       34.758       22.267     1373.158     1208.096      495.824        0.517        0.154       84.860       15.309        0.033      330.868       -1.484      852.346
12/14/2021  15:27:00     -117.869       -2.957      -19.488       64.314       40.158       24.618     4136.262     1612.667      606.070        1.032        0.318      117.906       26.570        0.051      330.965       -1.326      852.353
12/14/2021  15:28:00     -152.857       41.021      -12.090       67.231       28.172       24.005     4520.032      793.650      576.248        1.554        0.294      158.265       24.221        0.023      330.909       -1.417      852.370
12/14/2021  15:29:00      -62.720       -6.168      -12.535       32.949       42.057       20.132     1085.615     1768.757      405.310        0.369        0.163       63.023       18.748        0.088      331.027       -1.222      852.360
12/14/2021  15:30:00      -53.771       26.982       -8.051       35.765       39.081       19.982     1279.170     1527.307      399.296        0.344        0.160       60.161       19.564        0.106      331.077       -1.141      852.355
12/14/2021  15:31:00      -79.398       98.801      -12.492       45.331       23.716       20.659     2054.865      562.447      426.782        0.963        0.152      126.751       16.131        0.016      331.020       -1.234      852.386
12/14/2021  15:32:00     -134.728       68.230      -13.046       54.389       33.270       30.959     2958.150     1106.887      958.436        1.400        0.251      151.020       24.725        0.027      331.030       -1.218      852.416
12/14/2021  15:33:00      -46.058      121.649      -18.102       76.780       93.195       37.924     5895.132     8685.249     1438.246        1.663        0.801      130.076       29.671        0.052      331.142       -1.036      852.430
12/14/2021  15:34:00     -115.571      145.164      -32.980      100.719       84.709       55.500    10144.407     7175.548     3080.228        2.795        1.020      185.552       44.400        0.057      331.176       -0.980      852.438
12/14/2021  15:35:00        7.374      144.517      -17.709       79.622       94.564       46.826     6339.651     8942.409     2192.692        1.936        0.874      144.705       29.287        0.041      331.205       -0.931      852.459
12/14/2021  15:36:00      -59.370      178.754      -24.270       69.453       77.404       40.037     4823.760     5991.320     1602.995        2.424        0.621      188.356       34.091        0.033      331.153       -1.017      852.457
12/14/2021  15:37:00     -116.470       98.078      -29.738       73.589       63.788       42.863     5415.388     4068.891     1837.228        1.769        0.566      152.264       28.265        0.034      331.047       -1.192      852.445
12/14/2021  15:38:00      -37.012       94.794      -17.650       75.555       88.175       51.237     5708.548     7774.848     2625.237        1.339        0.805      101.764       21.614        0.045      331.032       -1.215      852.449
12/14/2021  15:39:00      -62.425      115.405       -0.020      112.129       99.046       55.581    12572.911     9810.061     3089.233        2.134        1.274      131.207       61.642        0.221      330.966       -1.324      852.450
12/14/2021  15:40:00      -73.103      218.873      -43.101       83.518      127.982       77.101     6975.209    16379.428     5944.600        4.220        1.465      230.758       53.468        0.054      330.832       -1.544      852.468
12/14/2021  15:41:00      -95.871      340.418      -35.080       90.739       90.075       53.143     8233.653     8113.588     2824.149        7.274        0.959      353.660       26.972        0.006      330.734       -1.707      852.486
12/14/2021  15:42:00      -87.059      240.811      -25.779       94.079       86.187       48.190     8850.810     7428.262     2322.315        4.241        0.930      256.065       33.945        0.018      330.779       -1.634      852.488
12/14/2021  15:43:00      -62.954      286.473      -20.626       95.569      112.822       49.881     9133.488    12728.699     2488.070        5.540        1.218      293.309       26.385        0.008      330.744       -1.690      852.508
12/14/2021  15:44:00     -104.707      256.463      -25.296      113.894      123.090       52.473    12971.782    15151.116     2753.436        5.412        1.544      277.014       40.753        0.022      330.709       -1.750      852.534
12/14/2021  15:45:00      -51.012      248.973      -27.852       81.893       89.790       53.896     6706.515     8062.263     2904.732        4.152        0.884      254.145       27.834        0.012      330.678       -1.798      852.550
12/14/2021  15:46:00       20.097      164.224      -27.662       82.075       69.002       53.509     6736.291     4761.303     2863.191        2.125        0.718      165.449       24.784        0.022      330.740       -1.695      852.553
12/14/2021  15:47:00       -2.710      108.923        0.641       49.474       75.443       36.213     2447.683     5691.603     1311.373        1.066        0.473      108.957       35.467        0.106      330.772       -1.641      852.562
12/14/2021  15:48:00     -142.948      111.336      -16.324      109.172       59.938       52.552    11918.587     3592.508     2761.688        2.568        0.914      181.190       37.872        0.044      330.756       -1.671      852.591
12/14/2021  15:49:00       12.407      101.743        5.214       78.394       71.559       53.956     6145.650     5120.742     2911.216        1.235        0.709      102.496       47.772        0.217      330.765       -1.653      852.603
12/14/2021  15:50:00      -89.375       31.065      -13.635       91.295       50.984       41.530     8334.796     2599.411     1724.728        1.090        0.633       94.619       32.496        0.118      330.847       -1.518      852.609
12/14/2021  15:51:00      -20.771       69.265      -14.243       76.394      103.253       54.806     5836.040    10661.285     3003.700        1.246        0.975       72.313       34.671        0.230      330.797       -1.601      852.615
12/14/2021  15:52:00      -47.992       48.834      -19.591       76.001      122.222       52.891     5776.122    14938.212     2797.415        1.429        1.176       68.468       43.670        0.407      330.856       -1.504      852.621
12/14/2021  15:53:00      -42.505       43.168       -8.780       70.629       40.050       38.946     4988.512     1603.963     1516.780        0.593        0.405       60.581       34.432        0.323      330.778       -1.631      852.633
12/14/2021  15:54:00      -98.019       50.007      -25.711       91.133       71.910       43.668     8305.294     5171.010     1906.866        1.407        0.769      110.038       36.758        0.112      330.687       -1.783      852.644
12/14/2021  15:55:00     -216.399       34.937      -24.430      144.893       86.327       61.661    20994.099     7452.298     3802.137        4.044        1.612      219.201       51.994        0.056      330.665       -1.819      852.643
12/14/2021  15:56:00      -92.599      116.718      -21.417       97.681      101.041       51.532     9541.560    10209.186     2655.596        2.253        1.120      148.989       28.966        0.038      330.766       -1.653      852.646
12/14/2021  15:57:00     -149.601       32.949       -9.928      135.206       70.541       47.065    18280.709     4976.014     2215.152        2.451        1.274      153.186       39.874        0.068      330.700       -1.762      852.675
12/14/2021  15:58:00     -101.492      113.786      -20.940      109.028      121.070       82.480    11887.029    14657.923     6802.995        2.851        1.667      152.473       44.680        0.086      330.750       -1.679      852.673
12/14/2021  15:59:00      -55.959       21.697        0.518       77.107       77.370       58.742     5945.557     5986.086     3450.667        0.949        0.769       60.018       51.113        0.725      330.765       -1.653      852.662
12/14/2021  16:00:00        6.453       -6.344       -2.628      105.009      108.594       56.775    11026.822    11792.682     3223.401        1.306        1.302        9.050       45.542       25.326      330.831       -1.545      852.637
12/14/2021  16:01:00      -45.222       41.688        1.021      104.563       68.117       59.248    10933.402     4639.860     3510.346        1.143        0.954       61.505       48.477        0.621      330.749       -1.678      852.639
12/14/2021  16:02:00      -82.770       38.285      -22.499       86.615       57.298       35.861     7502.086     3283.064     1286.002        1.044        0.604       91.196       34.839        0.146      330.780       -1.627      852.671
12/14/2021  16:03:00      -78.811       82.767      -23.596      104.726      110.778       48.806    10967.477    12271.867     2382.030        1.962        1.281      114.288       33.693        0.087      330.826       -1.554      852.669
12/14/2021  16:04:00      -35.635      194.716      -14.630      103.913       99.266       69.223    10797.928     9853.758     4791.791        3.242        1.272      197.950       43.181        0.048      330.775       -1.640      852.672
12/14/2021  16:05:00      -69.389      111.664      -19.042      120.962      116.305       78.602    14631.843    13526.737     6178.280        2.599        1.717      131.467       45.722        0.121      330.804       -1.589      852.668
12/14/2021  16:06:00      -71.521      187.598      -22.517       96.098      128.884       83.005     9234.917    16611.144     6889.797        3.677        1.637      200.769       50.754        0.064      330.811       -1.578      852.689
12/14/2021  16:07:00      -81.860      258.965      -43.401      104.569      141.881       60.989    10934.716    20130.182     3719.652        5.521        1.739      271.596       32.711        0.015      330.815       -1.574      852.744
12/14/2021  16:08:00     -134.368      264.470      -44.684      123.929      161.433       60.824    15358.487    26060.621     3699.500        6.755        2.256      296.647       29.900        0.010      330.745       -1.688      852.782
12/14/2021  16:09:00      -70.784      217.862      -22.554       97.585      143.519       66.209     9522.928    20597.839     4383.657        4.374        1.725      229.072       51.478        0.051      330.759       -1.663      852.806
12/14/2021  16:10:00      -82.174      264.656      -25.488      104.894       99.082       65.705    11002.734     9817.173     4317.183        5.129        1.257      277.120       45.891        0.027      330.751       -1.679      852.835
12/14/2021  16:11:00      -56.271      384.234      -20.288       99.952      138.175       77.079     9990.470    19092.270     5941.171        9.311        1.751      388.333       49.062        0.016      330.596       -1.933      852.880
12/14/2021  16:12:00      -65.649      332.787      -25.880      107.900      114.021       75.607    11642.413    13000.805     5716.456        7.304        1.518      339.201       55.249        0.027      330.520       -2.058      852.899
12/14/2021  16:13:00      -75.183      352.595      -34.622       92.559      154.271       54.406     8567.196    23799.592     2960.065        8.324        1.766      360.521       57.230        0.025      330.430       -2.207      852.927
12/14/2021  16:14:00      -97.550      271.259      -21.373      120.074      107.914       60.841    14417.875    11645.480     3701.674        5.665        1.488      288.266       43.393        0.023      330.414       -2.231      852.923
12/14/2021  16:15:00     -121.688      333.454      -42.069      161.096      114.934       68.600    25952.007    13209.906     4705.969        8.581        2.193      354.964       50.860        0.021      330.348       -2.340      852.941
12/14/2021  16:16:00     -102.738      417.303      -36.399      110.981      128.546       83.530    12316.703    16524.181     6977.227       11.091        1.791      429.764       58.376        0.018      330.322       -2.382      852.962
12/14/2021  16:17:00     -126.210      399.352      -46.655      122.292      173.752       66.543    14955.282    30189.649     4428.001       11.357        2.479      418.821       53.924        0.017      330.316       -2.392      853.008
12/14/2021  16:18:00      -65.671      333.398      -26.595       94.036      103.311       67.747     8842.742    10673.090     4589.595        7.014        1.205      339.804       49.519        0.021      330.303       -2.414      853.023
12/14/2021  16:19:00      -97.307      343.617      -32.351      117.602      173.256       73.219    13830.297    30017.541     5360.979        8.889        2.460      357.129       63.940        0.032      330.326       -2.377      853.029
12/14/2021  16:20:00      -81.383      406.369      -36.124       65.271       94.905       54.517     4260.297     9006.873     2972.152        9.465        0.812      414.438       47.343        0.013      330.282       -2.450      853.019
12/14/2021  16:21:00      -56.963      177.812      -14.864      112.563       98.516       53.497    12670.377     9705.383     2861.981        3.016        1.262      186.713       42.194        0.051      330.371       -2.299      852.988
12/14/2021  16:22:00      -13.310      212.493      -15.589       88.380      115.015       48.851     7811.085    13228.353     2386.421        3.450        1.171      212.910       38.558        0.033      330.434       -2.199      852.980
12/14/2021  16:23:00      -79.680      279.964      -28.445      106.742      113.423       73.601    11393.933    12864.823     5417.102        5.760        1.484      291.082       56.737        0.038      330.457       -2.160      852.985
12/14/2021  16:24:00       17.205      212.410      -25.010      110.239      100.807       48.409    12152.720    10162.038     2343.430        3.534        1.233      213.105       56.359        0.070      330.478       -2.127      852.987
12/14/2021  16:25:00      -97.449      271.763      -34.506      108.344      138.215       54.783    11738.504    19103.411     3001.168        5.919        1.692      288.707       32.849        0.013      330.534       -2.035      853.008
12/14/2021  16:26:00      -11.246      266.213      -35.009      113.891      100.080       71.049    12971.215    10016.012     5047.949        5.012        1.402      266.451       24.337        0.008      330.572       -1.973      853.013
12/14/2021  16:27:00        1.465      349.936      -31.374      118.152      146.737       74.005    13959.966    21531.662     5476.707        8.220        2.048      349.939       58.879        0.028      330.550       -2.009      853.021
12/14/2021  16:28:00      -72.561      217.001      -47.466      119.375      140.649       59.391    14250.287    19782.075     3527.329        4.608        1.878      228.811       36.613        0.026      330.628       -1.881      853.028
12/14/2021  16:29:00      -96.142      393.522      -46.322      122.074       91.857       55.904    14902.091     8437.715     3125.310        9.635        1.323      405.096       25.466        0.004      330.551       -2.008      853.026
12/14/2021  16:30:00      -60.754      391.414      -37.440      135.723       99.879       65.984    18420.703     9975.894     4353.830        9.552        1.638      396.101       36.762        0.009      330.516       -2.065      853.015
12/14/2021  16:31:00      -89.317      385.653      -41.732      111.033      116.053       62.824    12328.306    13468.220     3946.878        9.409        1.487      395.861       48.964        0.015      330.505       -2.080      853.034
12/14/2021  16:32:00      -94.208      267.342      -35.378      147.278      134.141       71.923    21690.873    17993.751     5172.973        6.322        2.243      283.455       65.413        0.053      330.538       -2.029      853.033
12/14/2021  16:33:00      -65.415      299.300      -26.305       95.369      110.702       63.921     9095.308    12254.923     4085.842        5.999        1.272      306.365       42.386        0.019      330.529       -2.043      853.038
12/14/2021  16:34:00      -54.285      265.814      -37.144       68.643      106.759       54.124     4711.895    11397.585     2929.354        4.701        0.952      271.301       20.777        0.006      330.532       -2.038      853.061
12/14/2021  16:35:00      -84.060      120.022      -40.490       70.056       56.588       41.339     4907.831     3202.160     1708.952        1.646        0.491      146.531       19.336        0.017      330.546       -2.014      853.066
12/14/2021  16:36:00     -168.024      154.079      -52.060      101.647      132.048       64.366    10332.107    17436.787     4143.035        4.329        1.596      227.974       48.181        0.045      330.596       -1.934      853.064
12/14/2021  16:37:00     -143.376      258.754      -19.168      164.966      150.791       84.003    27213.910    22737.957     7056.579        7.243        2.850      295.821       91.106        0.095      330.665       -1.820      853.072
12/14/2021  16:38:00      -75.489      163.664      -14.225      107.604       97.463       57.744    11578.717     9499.081     3334.316        2.854        1.221      180.234       38.728        0.046      330.672       -1.807      853.092
12/14/2021  16:39:00      -85.323      110.434      -19.407       89.058       97.937       53.253     7931.391     9591.719     2835.915        2.010        1.018      139.556       47.225        0.115      330.723       -1.721      853.116
12/14/2021  16:40:00      -46.619       46.879       -1.241       70.097       77.512       36.255     4913.525     6008.063     1314.395        0.830        0.612       66.113       29.710        0.202      330.713       -1.740      853.130
12/14/2021  16:41:00      -31.280       74.264      -13.998       78.925       69.347       58.568     6229.088     4809.059     3430.165        1.058        0.723       80.583       21.764        0.073      330.771       -1.644      853.157
12/14/2021  16:42:00     -116.503      106.629      -22.368       76.435       79.564       60.422     5842.384     6330.495     3650.870        2.063        0.791      157.933       40.416        0.065      330.724       -1.721      853.188
12/14/2021  16:43:00      -78.805       95.932      -22.292       69.095       99.417       61.131     4774.117     9883.777     3736.967        1.715        0.920      124.150       27.382        0.049      330.751       -1.675      853.213
12/14/2021  16:44:00      -69.425      291.146      -38.350       75.513       94.390       53.005     5702.283     8909.460     2809.583        5.424        0.871      299.309       39.342        0.017      330.701       -1.762      853.207
12/14/2021  16:45:00      -36.213      180.217      -19.313       56.110       70.876       43.207     3148.372     5023.421     1866.867        2.210        0.502      183.819       34.617        0.035      330.771       -1.643      853.207
12/14/2021  16:46:00      -52.393      129.862      -16.942       95.852       58.233       51.026     9187.697     3391.056     2603.622        1.754        0.759      140.033       40.253        0.083      330.740       -1.695      853.209
12/14/2021  16:47:00      -51.971      199.965      -16.666       73.927       82.321       33.174     5465.253     6776.783     1100.498        2.815        0.667      206.608       35.237        0.029      330.651       -1.843      853.213
12/14/2021  16:48:00      -89.820      154.240      -24.699       61.797       97.934       32.511     3818.839     9591.025     1056.938        2.346        0.723      178.487       24.141        0.018      330.646       -1.852      853.200
12/14/2021  16:49:00      -71.568       92.019      -23.270      107.018       83.030       47.036    11452.931     6894.059     2212.395        1.734        1.028      116.574       22.931        0.039      330.621       -1.891      853.179
12/14/2021  16:50:00       17.618       49.514       -6.877       56.218       35.749       26.843     3160.483     1277.978      720.527        0.398        0.258       52.555       23.933        0.207      330.689       -1.776      853.165
12/14/2021  16:51:00       38.902       75.985      -20.205       49.151       71.528       32.285     2415.798     5116.210     1042.350        0.813        0.429       85.364       19.751        0.054      330.704       -1.752      853.176
12/14/2021  16:52:00      -74.797      109.344      -10.891       78.239       57.212       34.361     6121.368     3273.241     1180.705        1.412        0.529      132.479       29.143        0.048      330.624       -1.885      853.205
12/14/2021  16:53:00      -46.217       72.783      -15.588       69.587       52.588       45.404     4842.334     2765.451     2061.545        0.867        0.483       86.217       30.767        0.127      330.588       -1.944      853.213
12/14/2021  16:54:00      -52.695      138.887      -17.921       64.938       66.426       42.803     4216.898     4412.370     1832.127        1.642        0.523      148.548       29.100        0.038      330.628       -1.879      853.225
12/14/2021  16:55:00      -20.613      211.379      -20.785       84.169       80.237       49.006     7084.379     6438.036     2401.615        3.073        0.796      212.381       39.942        0.035      330.618       -1.896      853.239
12/14/2021  16:56:00      -58.410      117.856      -16.141       47.870       66.374       39.371     2291.554     4405.484     1550.059        1.290        0.412      131.536       17.662        0.018      330.624       -1.885      853.271
12/14/2021  16:57:00      -31.176      112.943      -18.291       62.301       47.670       29.807     3881.431     2272.438      888.471        1.055        0.352      117.167       17.314        0.022      330.642       -1.855      853.307
12/14/2021  16:58:00      -51.042      123.029       -8.960      113.690       73.675       53.943    12925.481     5428.023     2909.821        1.954        1.063      133.196       32.031        0.058      330.574       -1.966      853.303
12/14/2021  16:59:00      -94.623      115.004      -19.661       83.860       57.642       40.345     7032.556     3322.604     1627.717        1.727        0.599      148.928       25.942        0.030      330.566       -1.980      853.298
12/14/2021  17:00:00      -66.269       31.842        3.696       69.464       79.157       47.733     4825.228     6265.860     2278.410        0.939        0.668       73.522       44.699        0.370      330.517       -2.060      853.289
12/14/2021  17:01:00      -83.431      148.471      -28.915      106.238      100.645       48.033    11286.461    10129.316     2307.155        2.678        1.186      170.307       52.880        0.096      330.503       -2.085      853.282
12/14/2021  17:02:00      -34.492       30.918        0.141       42.409       86.847       36.119     1798.505     7542.471     1304.606        0.639        0.532       46.320       22.281        0.231      330.573       -1.969      853.295
12/14/2021  17:03:00      -28.955       99.104      -13.466       31.571       82.767       28.605      996.731     6850.341      818.226        0.975        0.433      103.247       14.630        0.020      330.534       -2.032      853.335
12/14/2021  17:04:00      -23.929      -13.320      -13.055       29.280       46.604       21.512      857.306     2171.968      462.755        0.221        0.175       27.386       13.629        0.248      330.583       -1.950      853.366
12/14/2021  17:05:00      -74.570        1.245        3.167       85.436       33.972       30.681     7299.305     1154.084      941.316        0.748        0.470       74.581       40.202        0.291      330.662       -1.821      853.381
12/14/2021  17:06:00      -73.180       -5.406       -8.454       84.668       54.224       33.284     7168.647     2940.263     1107.805        0.833        0.561       73.379       40.824        0.310      330.576       -1.963      853.404
12/14/2021  17:07:00      -64.219       -3.274       -5.587       85.809       55.385       39.605     7363.172     3067.524     1568.590        0.808        0.600       64.302       39.344        0.374      330.507       -2.079      853.423
12/14/2021  17:08:00     -109.757       -9.542      -20.226       51.613       45.967       23.307     2663.911     2112.944      543.236        0.893        0.266      110.171       16.217        0.022      330.585       -1.948      853.449
12/14/2021  17:09:00     -117.339       -5.980        0.281      100.251       41.264       38.514    10050.167     1702.711     1483.328        1.352        0.662      117.491       44.640        0.144      330.528       -2.042      853.451
12/14/2021  17:10:00     -124.413       -1.632      -17.555       49.727       47.731       26.614     2472.816     2278.251      708.301        1.062        0.273      124.424       18.615        0.022      330.513       -2.065      853.460
12/14/2021  17:11:00      -13.622       -6.125      -11.846       23.457       18.783       17.005      550.207      352.790      289.164        0.078        0.060       14.936       10.685        0.512      330.587       -1.945      853.465
12/14/2021  17:12:00      -71.984       15.834      -10.481       44.748       43.847       27.104     2002.404     1922.548      734.645        0.510        0.233       73.705       23.449        0.101      330.449       -2.170      853.476
12/14/2021  17:13:00      -65.336       26.864      -16.105       42.506       23.579       18.292     1806.720      555.984      334.580        0.397        0.135       70.643        8.944        0.016      330.473       -2.131      853.505
12/14/2021  17:14:00       10.810      -12.226       11.252       40.972       36.218       26.573     1678.717     1311.774      706.132        0.204        0.185       16.320       11.937        0.535      330.591       -1.939      853.534
12/14/2021  17:15:00      -53.923       10.138       -2.685       45.382       47.618       26.112     2059.569     2267.435      681.858        0.401        0.250       54.868       13.428        0.060      330.502       -2.085      853.564
12/14/2021  17:16:00      -58.003       22.057       -7.272       50.136       20.115       22.111     2513.623      404.615      488.878        0.365        0.170       62.055       20.116        0.105      330.484       -2.114      853.586
12/14/2021  17:17:00      -18.846       29.534        4.808       14.191       15.581       16.119      201.384      242.775      259.810        0.098        0.035       35.035       10.784        0.095      330.534       -2.032      853.602
12/14/2021  17:18:00      -53.567       55.128      -16.436       31.139       35.757       33.899      969.607     1278.565     1149.163        0.479        0.170       76.867       22.773        0.088      330.571       -1.972      853.627
12/14/2021  17:19:00       -4.989        3.712      -11.722       43.797       48.953       28.272     1918.144     2396.359      799.302        0.264        0.256        6.218       16.324        6.891      330.646       -1.847      853.644
12/14/2021  17:20:00      -74.436       -5.473      -14.658       48.447       48.252       25.769     2347.068     2328.272      664.066        0.556        0.267       74.637       16.503        0.049      330.553       -2.002      853.663
12/14/2021  17:21:00      -89.071       83.432       -9.886       49.601       60.432       28.421     2460.246     3652.010      807.750        1.095        0.346      122.043       26.761        0.048      330.346       -2.340      853.689
12/14/2021  17:22:00      -42.784      -22.967       -1.193       45.842       33.154       24.391     2101.511     1099.162      594.898        0.308        0.190       48.559       15.954        0.108      330.483       -2.116      853.697
12/14/2021  17:23:00      -99.115       -5.110      -14.381       62.021       42.475       30.372     3846.607     1804.106      922.468        0.831        0.329       99.247       33.004        0.111      330.258       -2.483      853.726
12/14/2021  17:24:00      -76.455        7.384       -1.201       43.711       34.958       21.605     1910.671     1222.053      466.770        0.475        0.180       76.810       22.202        0.084      330.267       -2.467      853.762
12/14/2021  17:25:00      -73.629        4.310      -12.434       47.739       26.534       27.118     2279.018      704.068      735.403        0.466        0.186       73.755       17.127        0.054      330.290       -2.432      853.794
12/14/2021  17:26:00      -78.197      -11.370       -4.618       47.890       31.189       24.760     2293.409      972.726      613.053        0.507        0.194       79.019       26.733        0.114      330.317       -2.387      853.833
12/14/2021  17:27:00      -52.832       -5.694      -10.274       53.868       36.138       28.265     2901.757     1305.966      798.896        0.397        0.250       53.138       26.878        0.256      330.344       -2.343      853.874
12/14/2021  17:28:00     -110.460       46.099      -15.810       53.122       41.491       28.287     2821.972     1721.538      800.152        0.996        0.267      119.693       19.597        0.027      330.171       -2.629      853.894
12/14/2021  17:29:00     -126.994       22.435      -11.186       47.672       34.717       24.764     2272.632     1205.298      613.248        1.042        0.205      128.960       18.600        0.021      330.175       -2.621      853.915
12/14/2021  17:30:00     -140.341       16.798       -7.771       60.660       37.002       30.390     3679.622     1369.141      923.552        1.300        0.299      141.343       34.830        0.061      330.163       -2.640      853.935
12/14/2021  17:31:00     -142.705       55.609       -8.256       68.154       37.238       30.590     4644.977     1386.659      935.773        1.525        0.348      153.157       31.063        0.041      330.087       -2.765      853.958
12/14/2021  17:32:00     -136.431       72.257       -6.596       55.154       37.223       30.891     3041.979     1385.529      954.260        1.463        0.269      154.384       33.426        0.047      330.002       -2.903      853.983
12/14/2021  17:33:00     -139.778       47.585       -5.227       60.622       53.076       30.947     3674.996     2817.075      957.718        1.464        0.372      147.656       34.106        0.053      330.024       -2.869      854.007
12/14/2021  17:34:00      -78.305       80.455      -13.045       40.914       52.867       20.069     1673.983     2794.905      402.762        0.882        0.244      112.270        8.939        0.006      329.999       -2.909      854.014
12/14/2021  17:35:00     -101.276       98.101      -19.193       51.017       38.289       18.856     2602.693     1466.014      355.535        1.234        0.221      140.999       20.616        0.021      329.970       -2.955      854.023
12/14/2021  17:36:00      -33.499       94.408      -12.509       23.906       40.781       17.453      571.514     1663.129      304.601        0.636        0.127      100.175        6.860        0.005      330.054       -2.818      854.026
12/14/2021  17:37:00      -33.972      100.457       -8.487       44.104       48.751       24.504     1945.119     2376.612      600.460        0.812        0.246      106.046       21.235        0.040      330.080       -2.776      854.041
12/14/2021  17:38:00      -23.066      146.397      -27.678       38.005       57.539       24.497     1444.351     3310.788      600.100        1.404        0.268      148.203       16.593        0.013      329.967       -2.963      854.042
12/14/2021  17:39:00      -20.956      228.877      -18.677       36.968       52.059       28.777     1366.623     2710.113      828.143        2.904        0.245      229.835       23.118        0.010      329.915       -3.050      854.048
12/14/2021  17:40:00      -33.462      168.143      -15.563       36.660       34.813       19.478     1343.980     1211.932      379.410        1.628        0.147      171.440       18.428        0.012      329.944       -3.000      854.052
12/14/2021  17:41:00      -27.598      117.411      -16.657       32.281       43.094       20.692     1042.089     1857.079      428.157        0.908        0.166      120.611       16.377        0.018      330.042       -2.839      854.061
12/14/2021  17:42:00      -32.483      176.427      -12.555       26.309       43.878       18.649      692.190     1925.272      347.787        1.765        0.148      179.392       20.836        0.013      330.132       -2.692      854.069
12/14/2021  17:43:00      -21.831      114.567       -9.635       26.220       41.334       21.338      687.496     1708.531      455.293        0.827        0.143      116.628       20.663        0.031      330.217       -2.550      854.082
12/14/2021  17:44:00      -51.933       42.364      -15.100       23.803       23.659       18.502      566.577      559.749      342.322        0.309        0.073       67.021        6.779        0.010      330.179       -2.615      854.092
12/14/2021  17:45:00      -23.239       -4.945      -18.137       57.775       25.383       30.830     3337.946      644.297      950.516        0.291        0.247       23.760       33.729        2.015      330.070       -2.793      854.101
12/14/2021  17:46:00      -15.424        8.706      -11.676       33.349       37.450       21.788     1112.141     1402.490      474.734        0.172        0.149       17.712       13.143        0.551      330.131       -2.693      854.093
12/14/2021  17:47:00      -42.609        8.343       -8.304       37.744       21.242       18.924     1424.594      451.213      358.110        0.209        0.112       43.418       21.293        0.241      330.128       -2.699      854.085
12/14/2021  17:48:00      -48.801       18.736      -11.057       28.036       12.509       15.037      786.024      156.473      226.113        0.201        0.058       52.274        8.585        0.027      330.141       -2.677      854.084
12/14/2021  17:49:00      -41.367       47.641       -3.492       26.668       23.220       17.070      711.203      539.149      291.383        0.277        0.077       63.094       15.887        0.063      330.200       -2.579      854.094
12/14/2021  17:50:00      -22.607      112.651      -15.516       14.443       25.670       13.981      208.602      658.943      195.467        0.725        0.053      114.897       10.350        0.008      330.250       -2.498      854.117
12/14/2021  17:51:00        6.672      141.969      -12.780       39.030       32.744       22.393     1523.377     1072.160      501.430        1.173        0.155      142.126       16.396        0.013      330.111       -2.727      854.153
12/14/2021  17:52:00      -17.082       69.249       -5.286       36.548       34.418       21.606     1335.783     1184.574      466.821        0.405        0.149       71.324       11.262        0.025      330.074       -2.786      854.191
12/14/2021  17:53:00       -7.721       23.065      -10.912       42.390       30.992       32.432     1796.900      960.523     1051.812        0.226        0.190       24.323       16.768        0.475      330.024       -2.868      854.202
12/14/2021  17:54:00      -53.795       -6.372       -2.268       73.537       26.079       22.809     5407.723      680.103      520.247        0.477        0.330       54.171       23.909        0.195      329.918       -3.041      854.207
12/14/2021  17:55:00     -166.703       -3.468      -13.024       76.100       60.971       35.010     5791.217     3717.418     1225.671        1.935        0.537      166.739       30.182        0.033      329.718       -3.370      854.221
12/14/2021  17:56:00      -88.581      -16.996       -3.173       89.532       49.471       42.353     8016.027     2447.410     1793.752        1.020        0.613       90.197       38.144        0.179      329.639       -3.496      854.250
12/14/2021  17:57:00     -138.181      -19.438      -24.080       52.606       44.330       37.887     2767.429     1965.128     1435.400        1.311        0.308      139.542       27.201        0.038      329.570       -3.610      854.279
12/14/2021  17:58:00      -80.912       18.514       -9.100       50.101       38.310       29.548     2510.062     1467.686      873.071        0.591        0.243       83.004       27.435        0.109      329.619       -3.530      854.296
12/14/2021  17:59:00     -145.676       81.102      -18.050       33.929       35.956       22.618     1151.151     1292.830      511.579        1.554        0.148      166.730       21.342        0.016      329.549       -3.646      854.334
12/14/2021  18:00:00      -91.280       89.534      -23.404       50.103       41.803       24.232     2510.299     1747.509      587.210        1.087        0.242      127.861       27.388        0.046      329.506       -3.718      854.350
12/14/2021  18:01:00      -75.220       50.733      -21.038       35.251       29.456       22.643     1242.618      867.663      512.704        0.565        0.131       90.730       11.231        0.015      329.634       -3.506      854.365
12/14/2021  18:02:00      -84.255       59.148      -15.980       48.301       30.084       26.459     2332.975      905.058      700.104        0.739        0.197      102.943       15.246        0.022      329.715       -3.373      854.365
12/14/2021  18:03:00      -64.535       73.899      -10.745       33.825       32.273       22.052     1144.098     1041.531      486.298        0.621        0.134       98.112       18.254        0.035      329.717       -3.371      854.373
12/14/2021  18:04:00      -75.160       75.075       -9.632       41.558       26.777       20.732     1727.093      717.011      429.804        0.713        0.144      106.232       10.108        0.009      329.761       -3.299      854.406
12/14/2021  18:05:00      -28.974      145.527      -14.404       29.741       36.625       18.474      884.509     1341.367      341.301        1.240        0.128      148.383       16.291        0.012      329.752       -3.313      854.431
12/14/2021  18:06:00      -56.172       93.403      -17.432       30.411       44.546       21.859      924.812     1984.380      477.799        0.778        0.169      108.993       22.470        0.043      329.810       -3.218      854.444
12/14/2021  18:07:00      -59.723       40.529       -3.299       42.658       33.673       26.843     1819.723     1133.899      720.546        0.445        0.184       72.176       19.757        0.075      329.753       -3.312      854.468
12/14/2021  18:08:00      -23.450       49.121       -6.380       35.611       37.009       26.620     1268.175     1369.700      708.600        0.317        0.167       54.432       14.816        0.074      329.768       -3.286      854.478
12/14/2021  18:09:00      -24.303       51.057       -9.650       21.461       43.964       19.753      460.581     1932.820      390.165        0.304        0.139       56.546        9.618        0.029      329.919       -3.040      854.471
12/14/2021  18:10:00      -48.522       37.859      -14.451       21.513       22.597       21.300      462.830      510.646      453.671        0.271        0.071       61.544       13.143        0.046      329.904       -3.064      854.480
12/14/2021  18:11:00      -54.759       50.835      -16.779       21.286       18.458       16.764      453.074      340.688      281.029        0.347        0.054       74.718       13.295        0.032      329.905       -3.062      854.487
12/14/2021  18:12:00      -37.947       91.693       -8.331       28.409       36.481       19.143      807.082     1330.851      366.470        0.621        0.125       99.235        9.031        0.008      329.851       -3.151      854.501
12/14/2021  18:13:00      -43.925       40.140       -8.388       35.118       26.317       25.421     1233.301      692.597      646.242        0.309        0.129       59.503       21.339        0.129      329.859       -3.138      854.523
12/14/2021  18:14:00      -19.597      148.211      -10.407       37.082       58.209       22.802     1375.049     3388.281      519.929        1.387        0.264      149.501       21.791        0.021      330.125       -2.703      854.532
12/14/2021  18:15:00      -45.683      120.509      -15.924       42.310       36.005       22.062     1790.166     1296.386      486.715        1.022        0.179      128.877       16.086        0.016      330.108       -2.731      854.536
12/14/2021  18:16:00      -23.895       89.385      -13.530       29.235       39.136       18.452      854.695     1531.603      340.473        0.573        0.136       92.524        9.184        0.010      329.970       -2.956      854.542
12/14/2021  18:17:00      -54.832       67.128      -11.047       39.702       38.952       21.618     1576.243     1517.244      467.357        0.560        0.178       86.676       13.345        0.024      330.086       -2.766      854.549
12/14/2021  18:18:00      -37.197       84.453      -19.375       28.587       48.184       16.303      817.218     2321.686      265.782        0.615        0.170       92.282        8.478        0.008      330.093       -2.756      854.556
12/14/2021  18:19:00      -23.764       16.444       -5.777       26.428       25.402       16.883      698.437      645.238      285.032        0.125        0.081       28.899       13.435        0.216      329.914       -3.048      854.564
12/14/2021  18:20:00      -25.417       15.412       -8.820       57.975       30.163       22.856     3361.065      909.780      522.390        0.288        0.240       29.725       10.321        0.121      329.895       -3.079      854.571
12/14/2021  18:21:00      -65.702       15.997      -10.936       27.803       17.160       14.666      772.997      294.479      215.086        0.299        0.064       67.621        7.892        0.014      329.860       -3.137      854.597
12/14/2021  18:22:00      -62.171       38.532      -15.684       19.134       12.713       11.784      366.124      161.628      138.870        0.313        0.033       73.143        3.034        0.002      329.868       -3.124      854.607
12/14/2021  18:23:00      -53.748       53.243       -7.770       23.187       19.934       11.477      537.632      397.371      131.717        0.343        0.053       75.655       10.213        0.018      329.879       -3.105      854.633
12/14/2021  18:24:00      -58.992       48.331      -17.044       22.859       21.968       16.966      522.546      482.572      287.836        0.370        0.065       76.262       10.744        0.020      329.960       -2.972      854.659
12/14/2021  18:25:00      -85.793       33.632      -27.644       24.089       27.946       19.139      580.285      780.960      366.307        0.549        0.086       92.150       16.202        0.031      329.978       -2.942      854.669
12/14/2021  18:26:00      -22.600       94.665      -21.110       27.825       63.889       22.948      774.233     4081.842      526.618        0.765        0.269       97.325       24.757        0.065      330.147       -2.666      854.660
12/14/2021  18:27:00      -31.664      166.446      -16.944       37.196       36.828       16.029     1383.542     1356.295      256.937        1.599        0.150      169.431       13.107        0.006      330.192       -2.594      854.658
12/14/2021  18:28:00       -8.143      121.076       -8.311       31.719       28.748       21.599     1006.122      826.423      466.518        0.855        0.115      121.350       17.155        0.020      330.149       -2.663      854.660
12/14/2021  18:29:00        8.915      100.118       -4.375       47.692       47.314       25.958     2274.543     2238.611      673.827        0.765        0.259      100.514       30.151        0.090      330.222       -2.544      854.667
12/14/2021  18:30:00       22.947      150.474      -20.355       45.287       47.519       29.415     2050.870     2258.068      865.253        1.438        0.259      152.213       21.550        0.020      330.250       -2.499      854.671
12/14/2021  18:31:00       25.337      162.530      -22.207       82.670       77.631       28.384     6834.334     6026.594      805.667        2.061        0.683      164.493       33.905        0.042      330.188       -2.602      854.685
12/14/2021  18:32:00       74.273      222.161      -23.568       35.374       74.222       27.254     1251.310     5508.834      742.753        3.146        0.375      234.248       24.022        0.011      330.197       -2.587      854.685
12/14/2021  18:33:00       70.966      204.778      -27.020       30.804       51.939       29.635      948.878     2697.673      878.261        2.611        0.226      216.726       27.722        0.016      330.083       -2.774      854.682
12/14/2021  18:34:00        6.471      164.732      -17.993       58.424       59.113       26.882     3413.367     3494.364      722.643        1.756        0.382      164.859       24.546        0.022      330.076       -2.784      854.690
12/14/2021  18:35:00      -18.064      166.426      -16.582       44.992       34.724       25.369     2024.250     1205.724      643.576        1.609        0.194      167.403       18.645        0.012      329.958       -2.977      854.714
12/14/2021  18:36:00      -10.004      115.281      -13.967       30.637       47.204       22.801      938.654     2228.244      519.900        0.864        0.184      115.714       14.334        0.015      329.973       -2.950      854.734
12/14/2021  18:37:00      -46.676      108.233      -11.242       38.709       55.378       34.528     1498.402     3066.703     1192.214        0.989        0.288      117.869       24.684        0.044      329.989       -2.924      854.752
12/14/2021  18:38:00      -37.016      149.940      -17.085       47.398       61.546       30.650     2246.600     3787.908      939.447        1.556        0.349      154.442       16.943        0.012      329.924       -3.033      854.778
12/14/2021  18:39:00        8.941      129.816      -13.658       47.085       42.394       22.658     2216.991     1797.272      513.404        1.082        0.226      130.124       18.468        0.020      330.001       -2.905      854.806
12/14/2021  18:40:00        1.060      123.848      -18.738       55.663       54.339       37.317     3098.415     2952.765     1392.531        1.157        0.372      123.853       15.191        0.015      330.027       -2.862      854.840
12/14/2021  18:41:00      -25.061       89.662      -14.129       47.008       62.955       26.388     2209.723     3963.295      696.353        0.787        0.343       93.099       19.110        0.042      329.968       -2.959      854.867
12/14/2021  18:42:00      -78.190       52.884      -20.897       31.985       25.787       20.296     1023.045      664.960      411.948        0.572        0.105       94.395       17.744        0.035      329.961       -2.969      854.874
12/14/2021  18:43:00      -81.847       34.231      -13.972       56.456       58.487       24.277     3187.328     3420.726      589.396        0.763        0.360       88.717       30.040        0.115      329.877       -3.108      854.887
12/14/2021  18:44:00      -24.959       87.809      -20.293       32.150       48.672       32.913     1033.643     2368.955     1083.260        0.661        0.224       91.287       26.958        0.087      329.958       -2.975      854.896
12/14/2021  18:45:00      -93.134       49.738      -15.735       28.955       25.115       18.943      838.404      630.759      358.829        0.661        0.091      105.583       14.799        0.020      329.811       -3.217      854.894
12/14/2021  18:46:00      -49.142       15.047      -13.471       22.473       31.289       14.810      505.033      979.027      219.339        0.226        0.085       51.394       12.788        0.062      329.903       -3.066      854.895
12/14/2021  18:47:00      -70.443       25.128      -16.429       42.624       31.427       19.752     1816.819      987.627      390.152        0.453        0.160       74.790       11.596        0.024      329.923       -3.032      854.919
12/14/2021  18:48:00     -110.254       47.125      -20.283       54.105       51.475       29.620     2927.365     2649.700      877.358        1.062        0.323      119.903       18.918        0.025      329.589       -3.580      854.936
12/14/2021  18:49:00     -163.517       68.156      -28.380       45.680       59.600       34.484     2086.675     3552.202     1189.166        1.951        0.341      177.153       28.815        0.026      329.206       -4.206      854.957
12/14/2021  18:50:00     -129.784       71.168      -22.129       49.864       49.655       27.533     2486.441     2465.621      758.062        1.405        0.286      148.016       24.444        0.027      329.037       -4.483      854.970
12/14/2021  18:51:00      -61.472       67.804      -13.337       40.308       36.981       25.977     1624.763     1367.625      674.812        0.611        0.183       91.522       17.694        0.037      329.009       -4.526      854.983
12/14/2021  18:52:00       10.140       56.202      -17.341       57.921       50.102       28.875     3354.874     2510.178      833.766        0.513        0.335       57.109       26.350        0.213      329.400       -3.890      854.983
12/14/2021  18:53:00       69.537      159.319      -19.425       60.601       54.359       32.823     3672.449     2954.883     1077.363        1.915        0.385      173.833       30.839        0.031      329.847       -3.158      854.987
12/14/2021  18:54:00      -32.195       66.479      -25.979       58.443       54.888       20.427     3415.641     3012.669      417.278        0.649        0.342       73.865       17.195        0.054      329.598       -3.566      854.998
12/14/2021  18:55:00      -57.379       43.474       -9.706       32.946       27.743       17.868     1085.470      769.664      319.257        0.373        0.109       71.988       12.256        0.029      329.419       -3.858      855.015
12/14/2021  18:56:00      -51.817       52.014      -14.495       38.168       27.535       23.780     1456.828      758.169      565.475        0.419        0.139       73.420       15.103        0.042      329.751       -3.317      855.044
12/14/2021  18:57:00     -109.276       31.789      -11.470       38.800       38.327       23.728     1505.457     1468.940      563.001        0.831        0.177      113.806       17.212        0.023      329.594       -3.571      855.066
12/14/2021  18:58:00      -94.619       60.593      -20.205       50.455       31.210       24.525     2545.694      974.093      601.498        0.858        0.206      112.358        6.488        0.003      329.650       -3.480      855.073
12/14/2021  18:59:00     -141.821       56.846      -19.185       64.165       49.156       34.886     4117.110     2416.277     1217.044        1.573        0.388      152.790       40.018        0.069      329.679       -3.433      855.086
12/14/2021  19:00:00     -102.096       73.478      -10.577       41.845       29.437       22.600     1750.984      866.540      510.741        0.953        0.156      125.789       23.715        0.036      329.685       -3.423      855.100
12/14/2021  19:01:00      -45.873      109.538      -13.140       36.615       26.400       19.505     1340.656      696.964      380.442        0.835        0.121      118.756        4.857        0.002      329.885       -3.096      855.130
12/14/2021  19:02:00      -19.404      170.207      -15.489       41.101       33.431       22.194     1689.322     1117.658      492.585        1.644        0.165      171.309       16.379        0.009      329.960       -2.971      855.147
12/14/2021  19:03:00      -32.218      111.795      -12.647       30.665       38.764       22.548      940.353     1502.658      508.394        0.832        0.148      116.345       18.641        0.026      330.011       -2.890      855.148
12/14/2021  19:04:00      -50.315       93.610      -12.478       39.515       46.344       20.899     1561.416     2147.774      436.770        0.780        0.207      106.275       16.846        0.025      329.896       -3.077      855.150
12/14/2021  19:05:00      -86.099       50.032      -42.899       23.751       24.492       31.115      564.109      599.865      968.161        0.694        0.107       99.580       15.587        0.024      329.729       -3.350      855.173
12/14/2021  19:06:00     -136.931       39.899      -24.130       71.308       36.804       31.382     5084.827     1354.506      984.827        1.417        0.371      142.626       19.544        0.019      329.489       -3.743      855.188
12/14/2021  19:07:00     -121.735       42.961      -27.012       80.998       49.082       41.386     6560.702     2409.015     1712.783        1.404        0.534      129.093       31.995        0.061      329.260       -4.119      855.213
12/14/2021  19:08:00     -121.458       25.033      -26.748       88.500       59.009       43.379     7832.270     3482.071     1881.724        1.464        0.660      124.011       21.113        0.029      329.142       -4.311      855.262
12/14/2021  19:09:00     -183.051       62.890      -10.586      111.241       55.746       43.947    12374.489     3107.589     1931.369        2.749        0.871      193.553       43.982        0.052      328.928       -4.663      855.299
12/14/2021  19:10:00     -199.156       29.509      -16.540       97.477       61.309       46.707     9501.810     3758.830     2181.498        2.812        0.772      201.331       45.201        0.050      328.894       -4.719      855.307
12/14/2021  19:11:00     -172.960       68.270      -37.108       54.537       53.191       35.585     2974.280     2829.265     1266.291        2.151        0.353      185.946       11.900        0.004      328.939       -4.645      855.299
12/14/2021  19:12:00      -68.989       31.031      -20.777       74.980       44.891       39.544     5621.978     2015.217     1563.730        0.768        0.460       75.647       32.915        0.189      329.054       -4.454      855.301
12/14/2021  19:13:00      -69.954       16.462      -15.521       70.222       58.402       44.129     4931.145     3410.760     1947.408        0.785        0.514       71.865       26.517        0.136      328.996       -4.548      855.312
12/14/2021  19:14:00      -83.011       82.600      -37.529       59.344       47.096       39.498     3521.666     2217.995     1560.079        1.121        0.365      117.105       27.315        0.054      329.023       -4.506      855.338
12/14/2021  19:15:00      -68.884       51.030      -20.630       38.466       35.431       30.020     1479.595     1255.383      901.189        0.570        0.182       85.727       17.371        0.041      329.225       -4.175      855.353
12/14/2021  19:16:00      -96.299       20.848      -21.489       94.362       58.855       55.126     8904.157     3463.940     3038.850        1.279        0.770       98.530       49.010        0.247      329.131       -4.329      855.362
12/14/2021  19:17:00      -60.779        4.988       -0.644       70.355       57.682       39.350     4949.803     3327.232     1548.430        0.677        0.491       60.984       32.511        0.284      329.047       -4.465      855.369
12/14/2021  19:18:00     -130.071       38.840      -24.763       43.470       36.815       30.530     1889.638     1355.334      932.063        1.161        0.209      135.746       22.281        0.027      329.111       -4.361      855.401
12/14/2021  19:19:00     -171.044       81.960      -40.113       53.545       34.650       34.060     2867.075     1200.624     1160.067        2.140        0.261      189.667       24.746        0.017      329.025       -4.503      855.408
12/14/2021  19:20:00     -124.053       81.948      -37.717       38.362       54.192       49.167     1471.621     2936.782     2417.389        1.518        0.341      148.677       26.517        0.032      329.157       -4.286      855.397
12/14/2021  19:21:00      -94.167      108.320      -21.013       34.659       33.444       27.456     1201.215     1118.469      753.846        1.206        0.154      143.529       18.061        0.016      329.425       -3.848      855.380
12/14/2021  19:22:00     -125.386       15.144      -29.909       43.547       43.372       31.485     1896.369     1881.139      991.307        1.081        0.238      126.297       29.907        0.056      329.298       -4.056      855.396
12/14/2021  19:23:00     -117.766       54.339      -12.183       56.688       40.545       33.829     3213.520     1643.924     1144.404        1.148        0.300      129.698       29.117        0.050      329.305       -4.045      855.417
12/14/2021  19:24:00      -36.132       15.420       -8.598       54.196       51.145       33.145     2937.221     2615.836     1098.612        0.413        0.333       39.285       30.702        0.611      329.278       -4.088      855.415
12/14/2021  19:25:00      -51.603       -0.970      -11.380       49.622       37.849       30.578     2462.349     1432.550      934.994        0.381        0.241       51.612       26.777        0.269      329.283       -4.079      855.402
12/14/2021  19:26:00      -10.159        3.413       -9.215       77.732       40.221       29.082     6042.205     1617.743      845.785        0.435        0.425       10.717       38.621       12.987      329.243       -4.145      855.395
12/14/2021  19:27:00     -120.029       64.373      -32.349       52.043       30.689       26.790     2708.501      941.816      717.723        1.198        0.218      136.202       16.657        0.015      329.250       -4.133      855.402
12/14/2021  19:28:00      -97.168       43.754      -24.198       52.187       26.107       25.548     2723.488      681.589      652.700        0.800        0.203      106.565       19.218        0.033      329.268       -4.104      855.422
12/14/2021  19:29:00      -85.602       41.670      -31.217       40.114       41.924       27.130     1609.135     1757.626      736.041        0.707        0.205       95.206       21.686        0.052      329.344       -3.979      855.447
12/14/2021  19:30:00     -170.513       53.487      -24.186       54.958       52.646       40.611     3020.348     2771.568     1649.273        1.998        0.372      178.705       23.838        0.018      329.198       -4.221      855.472
12/14/2021  19:31:00      -66.920       43.274       -3.060       48.354       38.659       25.849     2338.096     1494.484      668.165        0.543        0.225       79.693       24.718        0.096      329.272       -4.099      855.469
12/14/2021  19:32:00      -39.586       19.717      -23.649       60.230       47.712       33.896     3627.640     2276.472     1148.963        0.478        0.353       44.224       21.411        0.234      329.251       -4.133      855.460
12/14/2021  19:33:00      -34.882       24.675       -3.967       46.070       29.843       29.282     2122.482      890.601      857.455        0.286        0.194       42.728       15.058        0.124      329.250       -4.133      855.471
12/14/2021  19:34:00      -84.748       49.417      -14.800       51.080       51.843       26.850     2609.137     2687.680      720.929        0.793        0.301       98.104       16.741        0.029      329.389       -3.908      855.477
12/14/2021  19:35:00      -58.966       42.716      -25.410       51.824       47.688       30.877     2685.752     2274.160      953.408        0.593        0.296       72.813       27.397        0.142      329.378       -3.923      855.488
12/14/2021  19:36:00     -136.852       48.299      -28.313       73.208       45.000       28.640     5359.407     2024.979      820.248        1.503        0.410      145.125       26.138        0.032      329.202       -4.214      855.496
12/14/2021  19:37:00      -42.427       24.375      -35.982       74.046       57.707       32.041     5482.882     3330.101     1026.643        0.676        0.492       48.930       18.020        0.136      329.083       -4.407      855.495
12/14/2021  19:38:00      -72.266       23.155      -27.422       57.888       38.834       26.079     3351.023     1508.074      680.137        0.602        0.277       75.885       21.104        0.077      329.042       -4.474      855.504
12/14/2021  19:39:00      -23.033       12.101      -17.109       40.904       31.929       25.956     1673.112     1019.434      673.703        0.217        0.168       26.018       18.741        0.519      328.943       -4.635      855.513
12/14/2021  19:40:00      -52.264       81.808      -18.834       38.828       25.470       18.936     1507.595      648.720      358.579        0.615        0.126       97.078        9.366        0.009      329.038       -4.481      855.524
12/14/2021  19:41:00      -90.778       53.719      -22.873       55.492       41.256       31.995     3079.395     1702.022     1023.685        0.873        0.290      105.482       26.748        0.064      328.999       -4.544      855.523
12/14/2021  19:42:00     -131.492       40.789      -17.780       93.979       49.180       45.223     8832.055     2418.661     2045.103        1.628        0.665      137.674       34.897        0.064      328.883       -4.736      855.509
12/14/2021  19:43:00     -171.132       49.199      -22.096       48.822       37.993       27.972     2383.585     1443.506      782.425        1.840        0.230      178.064       19.087        0.011      328.737       -4.974      855.505
12/14/2021  19:44:00      -96.061      121.166      -17.486       54.732       60.283       32.100     2995.638     3634.099     1030.405        1.594        0.383      154.625       23.655        0.023      329.356       -3.963      855.516
12/14/2021  19:45:00      -27.473      117.521       -3.566       49.862       53.080       26.994     2486.233     2817.455      728.700        1.030        0.302      120.690       22.797        0.036      329.512       -3.707      855.517
12/14/2021  19:46:00      -65.602       74.522      -22.220       36.408       29.616       18.626     1325.556      877.105      346.910        0.645        0.127       99.283       15.285        0.024      329.360       -3.955      855.544
12/14/2021  19:47:00      -62.558       24.979      -18.481       45.098       36.869       32.688     2033.821     1359.308     1068.488        0.467        0.223       67.360       25.643        0.145      329.316       -4.027      855.570
12/14/2021  19:48:00      -96.321       44.614      -14.616       48.899       40.621       31.891     2391.140     1650.070     1017.010        0.827        0.253      106.151       27.395        0.067      329.319       -4.021      855.599
12/14/2021  19:49:00      -98.556       47.750      -27.375       56.427       36.080       32.151     3184.053     1301.773     1033.670        0.913        0.276      109.514       28.288        0.067      329.287       -4.074      855.619
12/14/2021  19:50:00     -104.955       95.397      -22.008       48.868       72.067       29.321     2388.056     5193.645      859.747        1.452        0.422      141.831       24.336        0.029      329.244       -4.145      855.636
12/14/2021  19:51:00      -48.589       60.428      -25.624       66.316       64.022       35.619     4397.793     4098.845     1268.746        0.822        0.488       77.540       29.227        0.142      329.302       -4.050      855.648
12/14/2021  19:52:00      -21.449        8.466      -14.346       69.483       39.807       27.474     4827.917     1584.566      754.841        0.395        0.358       23.059       14.498        0.395      329.051       -4.459      855.660
12/14/2021  19:53:00     -115.884       22.959      -16.273       76.781       52.358       32.380     5895.398     2741.330     1048.452        1.195        0.484      118.136       15.083        0.016      329.079       -4.413      855.664
12/14/2021  19:54:00      -39.581       15.023       -1.591       72.616       52.250       36.933     5273.037     2730.074     1364.078        0.558        0.468       42.336       32.289        0.582      328.958       -4.611      855.665
12/14/2021  19:55:00     -114.154       58.630      -23.249       56.643       57.957       45.467     3208.426     3359.016     2067.265        1.282        0.432      128.330       38.540        0.090      328.953       -4.620      855.668
12/14/2021  19:56:00     -123.576       40.610      -28.289       53.535       51.943       39.448     2866.041     2698.092     1556.157        1.242        0.356      130.078       35.807        0.076      328.932       -4.653      855.672
12/14/2021  19:57:00      -48.474       23.887      -16.370       77.726       46.419       49.940     6041.310     2154.710     2493.978        0.694        0.534       54.040       39.853        0.544      328.861       -4.770      855.676
12/14/2021  19:58:00     -157.105       44.518      -17.754       64.769       47.319       29.865     4195.067     2239.078      891.925        1.715        0.366      163.290       27.654        0.029      328.901       -4.705      855.687
12/14/2021  19:59:00      -97.618       70.213      -34.364       60.660       33.354       35.030     3679.634     1112.502     1227.091        1.083        0.301      120.246       12.853        0.011      328.850       -4.786      855.704
12/14/2021  20:00:00      -57.714       55.449      -14.405       55.788       31.818       32.807     3112.252     1012.369     1076.327        0.591        0.260       80.034       23.454        0.086      328.846       -4.794      855.728
12/14/2021  20:01:00      -96.694       35.923      -30.786       64.941       49.292       32.436     4217.280     2429.741     1052.110        0.964        0.385      103.151       32.322        0.098      328.910       -4.690      855.740
12/14/2021  20:02:00      -90.514       49.016      -31.464       59.468       56.771       33.536     3536.454     3222.907     1124.681        0.973        0.394      102.934       29.790        0.084      328.852       -4.783      855.751
12/14/2021  20:03:00     -124.828       64.966      -21.146       43.195       30.525       22.399     1865.845      931.772      501.733        1.177        0.165      140.722       17.987        0.016      328.878       -4.741      855.761
12/14/2021  20:04:00     -123.468       60.405      -33.196       48.195       42.696       28.188     2322.756     1822.931      794.584        1.247        0.247      137.452       16.644        0.015      328.873       -4.751      855.779
12/14/2021  20:05:00      -91.297       10.784      -21.626       64.373       34.889       36.536     4143.833     1217.217     1334.845        0.781        0.335       91.932       30.458        0.110      328.949       -4.624      855.793
12/14/2021  20:06:00      -90.358       58.334      -16.040       44.047       41.912       30.844     1940.159     1756.605      951.382        0.824        0.232      107.552       21.680        0.041      329.105       -4.371      855.808
12/14/2021  20:07:00      -44.051       46.503      -25.406       39.417       30.464       28.357     1553.685      928.028      804.099        0.402        0.164       64.055        7.456        0.014      329.104       -4.372      855.831
12/14/2021  20:08:00      -63.104       95.468      -22.806       43.808       69.423       32.485     1919.128     4819.506     1055.286        1.070        0.390      114.439       16.501        0.021      329.208       -4.203      855.851
12/14/2021  20:09:00     -111.587       61.602      -22.058       55.501       43.093       27.940     3080.350     1857.043      780.666        1.122        0.286      127.462       14.517        0.013      329.112       -4.360      855.872
12/14/2021  20:10:00      -88.911       90.420      -20.990       31.481       39.433       21.472      991.080     1554.951      461.063        0.976        0.150      126.811       16.382        0.017      329.160       -4.281      855.899
12/14/2021  20:11:00      -70.042      121.540      -17.188       49.479       57.093       37.674     2448.128     3259.651     1419.330        1.355        0.356      140.278       27.156        0.037      329.404       -3.882      855.901
12/14/2021  20:12:00      -66.896       40.611      -11.021       42.888       34.573       25.500     1839.343     1195.302      650.251        0.496        0.184       78.259       23.304        0.089      329.419       -3.858      855.909
12/14/2021  20:13:00      -65.158       44.203      -25.902       38.530       64.633       35.798     1484.570     4177.361     1281.475        0.691        0.347       78.737       12.696        0.026      329.190       -4.232      855.926
12/14/2021  20:14:00      -87.928       58.674      -28.473       42.992       41.996       42.837     1848.333     1763.644     1835.033        0.871        0.272      105.707       25.282        0.057      329.183       -4.244      855.942
12/14/2021  20:15:00      -85.284       37.362      -14.557       64.444       39.592       29.028     4152.982     1567.496      842.632        0.772        0.328       93.109       23.355        0.063      329.095       -4.388      855.960
12/14/2021  20:16:00      -39.596       30.316       -5.595       52.870       42.064       40.957     2795.185     1769.406     1677.453        0.438        0.312       49.869       29.698        0.355      329.067       -4.434      855.981
12/14/2021  20:17:00      -32.851       -0.356      -28.318       56.457       40.712       31.811     3187.405     1657.487     1011.951        0.387        0.293       32.853       18.137        0.305      329.067       -4.433      855.986
12/14/2021  20:18:00      -61.779       45.233      -15.588       91.489       53.083       43.467     8370.289     2817.797     1889.341        0.959        0.654       76.568       46.488        0.369      328.989       -4.561      856.009
12/14/2021  20:19:00      -94.975       50.613      -22.791       42.391       44.849       38.606     1797.032     2011.415     1490.401        0.870        0.265      107.619       23.900        0.049      328.942       -4.638      856.033
12/14/2021  20:20:00      -20.832       -0.549      -11.731       78.092       35.643       31.842     6098.293     1270.444     1013.881        0.448        0.419       20.840       28.723        1.900      328.970       -4.591      856.035
12/14/2021  20:21:00       20.877       -6.526       -2.636       53.089       43.209       41.393     2818.423     1867.031     1713.362        0.344        0.320       21.874       28.669        1.718      328.874       -4.748      856.040
12/14/2021  20:22:00      -88.006       10.655      -19.130       93.611       55.488       48.058     8762.926     3078.864     2309.529        1.119        0.708       88.649       40.038        0.204      328.712       -5.013      856.055
12/14/2021  20:23:00      -61.163       44.984      -15.133       71.530       42.809       36.670     5116.526     1832.601     1344.660        0.714        0.415       75.924       35.284        0.216      328.683       -5.059      856.058
12/14/2021  20:24:00      -47.123       25.620      -20.609       50.417       45.558       34.299     2541.899     2075.549     1176.429        0.455        0.290       53.638       20.016        0.139      328.600       -5.195      856.059
12/14/2021  20:25:00      -29.555       -6.383       -9.090       79.194       45.866       47.681     6271.729     2103.669     2273.431        0.582        0.532       30.236       50.800        2.823      328.603       -5.190      856.069
12/14/2021  20:26:00      -25.567       -1.467      -16.416       65.819       60.673       41.372     4332.130     3681.192     1711.615        0.532        0.486       25.609       29.241        1.304      328.693       -5.044      856.096
12/14/2021  20:27:00     -112.709       87.108      -26.560       49.702       39.619       24.751     2470.331     1569.701      612.610        1.282        0.233      142.447       24.974        0.031      328.832       -4.816      856.115
12/14/2021  20:28:00      -74.677       83.437      -19.148       51.504       55.603       31.451     2652.672     3091.675      989.189        0.982        0.337      111.975       12.173        0.012      328.952       -4.621      856.133
12/14/2021  20:29:00      -75.114       45.675      -13.458       59.320       38.779       30.645     3518.837     1503.806      939.128        0.693        0.298       87.910       27.010        0.094      329.098       -4.382      856.145
12/14/2021  20:30:00      -83.585       19.206      -18.451      113.697       71.784       46.932    12927.074     5152.962     2202.612        1.399        1.014       85.763       50.460        0.346      328.933       -4.653      856.183
12/14/2021  20:31:00     -142.287       24.454      -22.628      103.599       58.076       39.657    10732.662     3372.865     1572.640        1.851        0.784      144.373       35.047        0.059      328.923       -4.670      856.197
12/14/2021  20:32:00     -130.361       45.158      -19.795       56.477       64.390       32.635     3189.668     4146.051     1065.062        1.391        0.420      137.961       18.095        0.017      328.897       -4.712      856.211
12/14/2021  20:33:00      -38.111       55.995       -5.882       40.139       68.255       35.472     1611.158     4658.768     1258.264        0.607        0.376       67.734       23.075        0.116      328.947       -4.630      856.212
12/14/2021  20:34:00        8.966       -5.141       14.610       52.555       39.591       44.985     2762.014     1567.423     2023.635        0.334        0.318       10.336       29.433        8.109      328.808       -4.856      856.228
12/14/2021  20:35:00      -78.283       33.163      -19.784       60.560       43.008       45.180     3667.474     1849.715     2041.248        0.759        0.378       85.018       21.812        0.066      328.658       -5.101      856.230
12/14/2021  20:36:00     -112.279       68.648      -29.226       43.706       50.430       39.522     1910.229     2543.195     1561.994        1.209        0.301      131.602       19.901        0.023      328.624       -5.155      856.236
12/14/2021  20:37:00     -111.226       57.554      -48.259       55.051       35.839       36.180     3030.655     1284.414     1309.020        1.182        0.281      125.234       28.770        0.053      328.908       -4.694      856.239
12/14/2021  20:38:00      -50.939       10.170      -15.545       63.257       32.250       30.151     4001.447     1040.087      909.105        0.444        0.298       51.945       28.610        0.303      328.741       -4.965      856.251
12/14/2021  20:39:00        9.456        7.139       -7.514       43.938       34.032       32.055     1930.524     1158.151     1027.493        0.216        0.206       11.849       21.053        3.157      328.703       -5.027      856.270
12/14/2021  20:40:00     -178.163       53.938      -30.385       99.259       45.668       32.016     9852.260     2085.547     1025.028        2.427        0.648      186.149       33.188        0.032      328.637       -5.136      856.292
12/14/2021  20:41:00      -80.953       49.379      -27.693       67.532       38.208       37.970     4560.556     1459.855     1441.686        0.861        0.373       94.824       34.637        0.133      328.903       -4.699      856.294
12/14/2021  20:42:00      -46.712       35.964      -16.174       37.832       36.290       34.865     1431.260     1316.949     1215.542        0.385        0.198       58.953       26.987        0.210      328.991       -4.556      856.303
12/14/2021  20:43:00      -18.377       66.130      -17.906       41.446       42.941       27.880     1717.743     1843.966      777.295        0.468        0.217       68.636       16.864        0.060      329.161       -4.280      856.298
12/14/2021  20:44:00      -42.482       41.229      -12.670       41.859       39.033       27.904     1752.147     1523.553      778.656        0.386        0.203       59.199       15.886        0.072      329.219       -4.185      856.302
12/14/2021  20:45:00      -63.340      121.206      -13.554       54.764       46.822       26.363     2999.135     2192.302      695.033        1.239        0.294      136.758       14.903        0.012      329.549       -3.644      856.302
12/14/2021  20:46:00      -45.258       64.236      -24.781       46.329       29.409       25.990     2146.386      864.864      675.494        0.524        0.184       78.578       20.388        0.067      329.352       -3.967      856.308
12/14/2021  20:47:00      -45.064       73.259       -5.168       28.885       41.590       26.706      834.334     1729.722      713.220        0.535        0.164       86.010       12.393        0.021      329.570       -3.612      856.303
12/14/2021  20:48:00      -43.682       53.851      -12.687       40.221       25.451       16.763     1617.731      647.770      281.003        0.376        0.127       69.340       15.502        0.050      329.481       -3.757      856.313
12/14/2021  20:49:00      -47.586       40.614      -14.708       27.015       22.860       17.847      729.785      522.570      318.531        0.285        0.079       62.562        8.657        0.019      329.414       -3.865      856.323
12/14/2021  20:50:00      -62.209       54.983       -9.815       27.741       29.386       16.206      769.547      863.532      262.623        0.444        0.095       83.025       10.618        0.016      329.306       -4.043      856.318
12/14/2021  20:51:00      -32.310        9.948       -2.275       29.169       29.491       24.483      850.840      869.711      599.407        0.173        0.116       33.807       16.600        0.241      329.266       -4.109      856.306
12/14/2021  20:52:00      -87.421       16.960      -25.011       59.649       27.030       25.176     3558.016      730.597      633.850        0.674        0.246       89.050       23.971        0.072      329.170       -4.264      856.312
12/14/2021  20:53:00      -33.561       -0.597       -5.396       55.957       38.727       34.411     3131.227     1499.756     1184.103        0.348        0.291       33.566       25.633        0.583      328.987       -4.565      856.319
12/14/2021  20:54:00      -32.898       22.909       -7.668       46.803       35.740       24.661     2190.479     1277.369      608.156        0.287        0.204       40.088       19.417        0.235      328.882       -4.736      856.310
12/14/2021  20:55:00      -61.534        3.682      -15.440       92.080       57.092       36.306     8478.649     3259.442     1318.090        0.854        0.653       61.645       18.590        0.091      328.873       -4.751      856.309
12/14/2021  20:56:00     -172.607       69.952       -7.255       93.167       75.877       43.088     8680.057     5757.359     1856.583        2.551        0.815      186.243       46.449        0.062      328.745       -4.962      856.324
12/14/2021  20:57:00      -81.340       87.457      -17.840       54.672       61.539       38.433     2989.004     3787.068     1477.103        1.142        0.413      119.436       31.122        0.068      328.914       -4.681      856.315
12/14/2021  20:58:00       -6.909      130.525       -8.954       45.001       43.737       30.847     2025.133     1912.951      951.525        1.103        0.244      130.708       25.366        0.038      329.444       -3.817      856.284
12/14/2021  20:59:00      -44.829       19.143       -7.172       42.064       56.804       31.898     1769.339     3226.702     1017.480        0.422        0.301       48.745       20.612        0.179      329.313       -4.031      856.297
12/14/2021  21:00:00     -224.666       58.924      -29.060       54.196       37.618       39.514     2937.256     1415.147     1561.376        3.035        0.296      232.265       17.167        0.005      328.960       -4.611      856.326
12/14/2021  21:01:00      -76.985       46.769      -24.979       66.604       46.457       36.992     4436.072     2158.245     1368.444        0.835        0.398       90.078       37.419        0.173      329.013       -4.523      856.310
12/14/2021  21:02:00      -23.942       68.077      -13.961       49.165       29.756       25.216     2417.187      885.425      635.856        0.467        0.197       72.165       22.355        0.096      329.188       -4.235      856.302
12/14/2021  21:03:00     -109.363       75.959      -31.885       41.610       39.522       31.938     1731.393     1561.978     1020.047        1.153        0.216      133.154       21.903        0.027      329.049       -4.463      856.320
12/14/2021  21:04:00      -50.541       39.631      -14.467       33.310       33.757       18.893     1109.585     1139.517      356.940        0.347        0.130       64.226       10.879        0.029      329.059       -4.446      856.334
12/14/2021  21:05:00      -56.061       57.783       -9.067       39.561       31.343       19.003     1565.064      982.377      361.105        0.474        0.145       80.509       16.917        0.044      329.089       -4.397      856.354
12/14/2021  21:06:00      -29.483       97.060      -14.234       35.643       38.944       24.608     1270.424     1516.625      605.544        0.694        0.170      101.439       14.300        0.020      329.385       -3.912      856.355
12/14/2021  21:07:00     -124.774       50.622      -25.929       72.848       52.344       36.344     5306.775     2739.861     1320.858        1.408        0.468      134.652       30.705        0.052      329.153       -4.294      856.386
12/14/2021  21:08:00     -155.712       47.836      -23.224      108.230       78.002       43.048    11713.818     6084.252     1853.131        2.336        0.983      162.894       28.051        0.030      328.864       -4.766      856.426
12/14/2021  21:09:00      -88.164       83.811      -13.972       58.268       55.270       34.768     3395.117     3054.748     1208.789        1.132        0.383      121.644       27.639        0.052      328.931       -4.654      856.430
12/14/2021  21:10:00      -67.526       40.818      -17.198       84.633       60.399       35.704     7162.692     3647.987     1274.766        0.930        0.604       78.904       37.525        0.226      328.878       -4.742      856.434
12/14/2021  21:11:00      -95.093       31.932      -32.422       68.738       52.143       32.076     4724.953     2718.859     1028.882        0.979        0.424      100.311       26.293        0.069      328.697       -5.038      856.440
12/14/2021  21:12:00      -56.037       24.993      -33.387       35.281       39.317       33.614     1244.744     1545.847     1129.898        0.440        0.196       61.358       18.671        0.093      328.761       -4.935      856.437
12/14/2021  21:13:00      -57.637       19.207      -19.240       67.106       52.110       36.072     4503.250     2715.421     1301.222        0.629        0.426       60.753       31.043        0.261      328.752       -4.947      856.439
12/14/2021  21:14:00      -99.135       14.607      -30.957       64.343       67.855       32.130     4140.037     4604.273     1032.364        1.039        0.489      100.206       23.718        0.056      328.739       -4.969      856.428
12/14/2021  21:15:00      -91.236      -15.871      -17.344       93.099       67.720       50.163     8667.355     4586.013     2516.296        1.232        0.788       92.607       48.783        0.277      328.706       -5.024      856.401
12/14/2021  21:16:00      -45.411       26.301      -21.489       57.146       45.394       32.675     3265.640     2060.643     1067.647        0.480        0.320       52.478       18.555        0.125      328.685       -5.058      856.394
12/14/2021  21:17:00      -38.080       31.034      -21.531       49.992       39.714       36.145     2499.166     1577.238     1306.426        0.413        0.269       49.124       21.587        0.193      328.742       -4.964      856.382
12/14/2021  21:18:00      -63.423       39.364      -15.546       80.384       70.247       38.144     6461.622     4934.625     1454.935        0.933        0.643       74.646       43.669        0.342      328.874       -4.750      856.370
12/14/2021  21:19:00      -63.394       47.514      -16.789       74.613       61.670       28.984     5567.096     3803.163      840.050        0.838        0.511       79.224       27.479        0.120      328.741       -4.967      856.348
12/14/2021  21:20:00      -82.803       57.721      -37.521       64.024       62.016       40.431     4099.129     3846.016     1634.658        1.059        0.479      100.936       35.671        0.125      328.793       -4.880      856.336
12/14/2021  21:21:00      -34.394       35.916      -20.830       52.972       50.832       35.619     2805.990     2583.900     1268.713        0.478        0.333       49.728       34.618        0.485      328.715       -5.008      856.328
12/14/2021  21:22:00       -8.880       -3.345       -2.087       35.525       29.585       28.791     1262.005      875.248      828.941        0.153        0.148        9.489       22.574        5.659      328.699       -5.034      856.327
12/14/2021  21:23:00       -9.429        4.702       -2.763       41.244       31.752       30.886     1701.086     1008.209      953.930        0.189        0.183       10.537       20.953        3.955      328.658       -5.101      856.334
12/14/2021  21:24:00      -37.776        7.961      -11.938       61.970       41.695       32.465     3840.235     1738.433     1053.962        0.413        0.332       38.606       27.207        0.497      328.648       -5.117      856.339
12/14/2021  21:25:00      -33.712        4.534       -2.584       77.203       57.917       43.945     5960.239     3354.407     1931.204        0.620        0.562       34.015       39.464        1.346      328.706       -5.023      856.347
12/14/2021  21:26:00     -129.905       31.401      -25.679       93.986       47.029       33.712     8833.314     2211.706     1136.466        1.535        0.609      133.646       24.757        0.034      328.719       -5.003      856.354
12/14/2021  21:27:00     -130.838        1.756      -22.887      103.032       67.794       53.099    10615.623     4595.983     2819.507        1.783        0.902      130.850       41.414        0.100      328.680       -5.067      856.373
12/14/2021  21:28:00      -74.250       28.228      -11.861      103.516       60.253       44.829    10715.617     3630.426     2009.624        1.140        0.818       79.434       25.719        0.105      328.596       -5.204      856.405
12/14/2021  21:29:00      -83.498       18.083       -8.834       97.819       65.026       53.677     9568.615     4228.407     2881.221        1.202        0.834       85.433       35.223        0.170      328.504       -5.353      856.417
12/14/2021  21:30:00     -144.433        8.843      -16.575      107.583       57.089       52.604    11574.085     3259.211     2767.183        1.940        0.880      144.703       45.068        0.097      328.583       -5.225      856.434
12/14/2021  21:31:00     -159.817       78.087      -31.810       61.314       59.031       49.632     3759.350     3484.613     2463.334        2.118        0.485      177.874       15.619        0.008      328.617       -5.170      856.448
12/14/2021  21:32:00      -96.345       37.538      -49.217       82.355       73.026       55.584     6782.388     5332.768     3089.529        1.416        0.760      103.399       44.014        0.181      328.607       -5.185      856.459
12/14/2021  21:33:00     -159.546       31.398      -22.921       92.958       73.809       45.790     8641.203     5447.769     2096.710        2.157        0.809      162.606       45.831        0.079      328.645       -5.123      856.457
12/14/2021  21:34:00     -184.605       27.788      -26.381       98.552       67.068       45.484     9712.550     4498.160     2068.785        2.591        0.814      186.684       32.356        0.030      328.625       -5.156      856.461
12/14/2021  21:35:00     -179.252       57.967       -6.343       91.883       54.321       37.806     8442.506     2950.814     1429.289        2.417        0.641      188.392       39.494        0.044      328.569       -5.249      856.458
12/14/2021  21:36:00     -174.760       41.330      -13.675       48.448       41.396       28.528     2347.232     1713.601      813.869        1.865        0.244      179.581       17.721        0.010      328.603       -5.192      856.448
12/14/2021  21:37:00     -151.693       43.902       -2.730       72.156       52.905       37.010     5206.513     2798.956     1369.749        1.716        0.469      157.918       41.680        0.070      328.643       -5.125      856.449
12/14/2021  21:38:00     -125.098       46.146      -18.051       64.929       57.620       28.142     4215.814     3320.103      791.965        1.321        0.416      133.337       17.237        0.017      328.690       -5.048      856.439
12/14/2021  21:39:00     -131.637       31.102      -17.195       60.505       45.606       35.362     3660.853     2079.883     1250.501        1.279        0.350      135.261       32.826        0.059      328.721       -4.997      856.445
12/14/2021  21:40:00     -124.073       12.891      -19.315       68.516       58.073       34.504     4694.505     3372.497     1190.516        1.259        0.463      124.741       27.077        0.047      328.769       -4.918      856.438
12/14/2021  21:41:00     -158.173       78.984      -21.184       68.693       52.419       30.165     4718.697     2747.726      909.900        2.004        0.419      176.797       25.416        0.021      329.008       -4.532      856.443
12/14/2021  21:42:00     -122.001       61.882      -12.156       46.473       48.543       29.661     2159.698     2356.465      879.774        1.213        0.270      136.798       25.659        0.035      328.916       -4.681      856.455
12/14/2021  21:43:00      -95.580       48.436      -19.000       33.572       32.491       28.625     1127.110     1055.664      819.403        0.742        0.150      107.152       12.101        0.013      328.903       -4.699      856.476
12/14/2021  21:44:00      -84.997       59.638      -22.079       45.739       39.836       23.851     2092.082     1586.872      568.870        0.776        0.212      103.832       16.620        0.026      328.970       -4.592      856.489
12/14/2021  21:45:00     -103.738       57.316      -25.565       44.888       30.972       25.038     2014.956      959.245      626.893        0.915        0.180      118.519       17.743        0.022      328.964       -4.602      856.516
12/14/2021  21:46:00      -33.810       23.940      -10.576       41.660       36.497       30.242     1735.579     1332.018      914.578        0.290        0.199       41.428       26.321        0.404      328.928       -4.660      856.536
12/14/2021  21:47:00     -120.604       42.144      -23.708       65.520       48.950       33.577     4292.936     2396.054     1127.435        1.235        0.391      127.756       30.526        0.057      328.970       -4.593      856.533
12/14/2021  21:48:00      -60.577       19.681      -19.445       80.494       47.737       40.945     6479.232     2278.817     1676.500        0.743        0.522       63.694       43.270        0.462      328.914       -4.683      856.516
12/14/2021  21:49:00      -42.890       17.339       -9.067       66.350       40.637       34.400     4402.314     1651.368     1183.382        0.473        0.362       46.262       24.194        0.274      328.952       -4.620      856.504
12/14/2021  21:50:00     -116.986       20.445      -38.728       34.919       38.072       29.310     1219.347     1449.489      859.090        0.957        0.176      118.759        5.637        0.002      329.003       -4.537      856.504
12/14/2021  21:51:00     -143.518       41.511      -24.307       47.894       51.704       32.302     2293.808     2673.257     1043.444        1.446        0.301      149.401       25.465        0.029      328.970       -4.592      856.490
12/14/2021  21:52:00     -168.898       57.532      -19.285       70.212       37.619       32.313     4929.695     1415.197     1044.121        1.980        0.369      178.428       35.101        0.039      328.979       -4.579      856.467
12/14/2021  21:53:00     -162.831       63.609      -32.609       57.372       69.146       43.047     3291.493     4781.101     1853.082        2.077        0.496      174.814       30.133        0.030      329.036       -4.486      856.453
12/14/2021  21:54:00     -170.304       42.106       -3.818       56.448       37.698       28.074     3186.358     1421.133      788.176        1.809        0.270      175.432       26.888        0.023      328.991       -4.558      856.436
12/14/2021  21:55:00     -145.622       42.770        5.591       72.552       61.720       38.971     5263.845     3809.334     1518.744        1.683        0.530      151.773       36.418        0.058      329.090       -4.395      856.427
12/14/2021  21:56:00     -128.319       38.829       -5.559       55.558       58.870       34.358     3086.674     3465.708     1180.503        1.287        0.387      134.065       22.344        0.028      329.151       -4.296      856.418
12/14/2021  21:57:00      -55.765       11.923       -0.431       55.543       39.086       28.276     3084.988     1527.679      799.542        0.433        0.271       57.025       23.960        0.177      329.092       -4.392      856.436
12/14/2021  21:58:00     -110.001       24.330        2.933       50.368       32.380       21.138     2536.964     1048.462      446.822        0.837        0.202      112.660       21.568        0.037      329.116       -4.353      856.459
12/14/2021  21:59:00      -98.435       38.831       -2.015       54.949       42.324       24.889     3019.361     1791.360      619.487        0.831        0.272      105.817       27.315        0.067      329.187       -4.239      856.491
12/14/2021  22:00:00      -99.408       -3.572       -4.675       46.318       42.653       36.148     2145.396     1819.298     1306.665        0.759        0.264       99.472       30.693        0.095      329.224       -4.178      856.518
12/14/2021  22:01:00      -23.905       31.029       -4.020       20.630       37.344       16.070      425.610     1394.594      258.234        0.181        0.104       39.170       15.964        0.166      329.161       -4.280      856.552
12/14/2021  22:02:00      -62.463       17.930       -6.682       39.970       32.579       18.775     1597.597     1061.407      352.491        0.364        0.151       64.986       15.691        0.058      329.272       -4.098      856.590
12/14/2021  22:03:00      -68.452      -20.183      -14.376       43.156       32.683       20.441     1862.463     1068.167      417.842        0.432        0.167       71.365       19.389        0.074      329.388       -3.908      856.618
12/14/2021  22:04:00      -45.631      -65.935        3.313       24.478       20.092       14.913      599.173      403.689      222.388        0.383        0.061       80.185        8.220        0.011      329.436       -3.831      856.649
12/14/2021  22:05:00      -44.287      -37.190      -10.347       42.367       33.476       23.031     1794.930     1120.657      530.436        0.345        0.172       57.831       11.203        0.038      329.426       -3.848      856.672
12/14/2021  22:06:00      -10.839      -47.747      -19.081       37.273       25.363       18.194     1389.275      643.268      331.033        0.256        0.118       48.962       12.795        0.068      329.484       -3.753      856.704
12/14/2021  22:07:00       -9.519      -15.102      -12.227       43.866       43.330       18.552     1924.222     1877.500      344.160        0.231        0.207       17.851       15.991        0.802      329.380       -3.921      856.753
12/14/2021  22:08:00       12.380      -33.368      -13.819       66.810       55.308       24.910     4463.526     3058.925      620.488        0.480        0.407       35.591       30.048        0.713      329.293       -4.063      856.784
12/14/2021  22:09:00       76.651     -123.572      -28.321       27.356       30.234       17.128      748.354      914.090      293.368        1.195        0.098      145.415       10.111        0.005      329.163       -4.275      856.812
12/14/2021  22:10:00       83.824     -101.831      -29.410       34.738       28.456       24.403     1206.739      809.736      595.494        1.044        0.131      131.894       21.105        0.026      329.083       -4.406      856.838
12/14/2021  22:11:00       31.327      -35.259      -32.136       35.518       49.901       21.886     1261.512     2490.111      479.005        0.374        0.212       47.166       23.940        0.258      329.056       -4.451      856.864
12/14/2021  22:12:00      -17.687      -18.778        2.943       17.427       21.271       15.363      303.685      452.457      236.034        0.083        0.050       25.796        9.461        0.135      329.131       -4.328      856.902
12/14/2021  22:13:00       -1.774       -6.508       -7.284       32.244       28.708       23.818     1039.696      824.152      567.294        0.126        0.122        6.746       18.852        7.810      329.103       -4.374      856.917
12/14/2021  22:14:00       23.940      -38.867      -22.237       38.244       46.667       26.514     1462.591     2177.803      702.989        0.346        0.217       45.649       14.421        0.100      329.089       -4.396      856.912
12/14/2021  22:15:00       30.839      -43.126      -10.246       35.180       30.624       24.819     1237.619      937.805      615.983        0.285        0.140       53.018       21.901        0.171      329.139       -4.315      856.921
12/14/2021  22:16:00       29.364      -60.087      -11.320       24.865       27.446       21.855      618.271      753.292      477.628        0.322        0.092       66.878       14.317        0.046      329.165       -4.274      856.942
12/14/2021  22:17:00      -14.155      -13.430      -11.527       26.050       18.494       13.242      678.597      342.014      175.346        0.085        0.060       19.512        9.757        0.250      329.091       -4.393      856.973
12/14/2021  22:18:00       -7.852       10.158       -7.338       10.266       15.377        9.828      105.395      236.451       96.583        0.033        0.022       12.839        5.391        0.176      329.003       -4.538      857.014
12/14/2021  22:19:00       -8.537       11.609       -5.333       10.086       10.699        9.540      101.732      114.460       91.015        0.027        0.015       14.410        6.297        0.191      329.001       -4.541      857.038
12/14/2021  22:20:00       28.618      -43.256       -5.657       54.484       52.119       29.772     2968.490     2716.406      886.370        0.465        0.329       51.866       36.527        0.496      329.028       -4.496      857.049
12/14/2021  22:21:00       33.729      -63.755      -27.557       61.556       57.798       40.020     3789.085     3340.586     1601.619        0.734        0.437       72.127       26.503        0.135      329.079       -4.413      857.048
12/14/2021  22:22:00      -41.947       23.090       -4.966       30.409       39.671       32.024      924.725     1573.760     1025.564        0.292        0.176       47.882       18.665        0.152      328.964       -4.599      857.083
12/14/2021  22:23:00        2.385       38.443      -10.195       31.401       25.346       16.119      985.994      642.406      259.825        0.174        0.094       38.517       13.356        0.120      328.814       -4.846      857.112
12/14/2021  22:24:00       -1.941       55.632       -2.508       22.616       24.161       14.485      511.477      583.761      209.809        0.220        0.065       55.666       11.815        0.045      328.869       -4.755      857.144
12/14/2021  22:25:00      -64.422       26.588       -8.359       31.839       33.023       17.950     1013.701     1090.541      322.216        0.368        0.121       69.692       12.778        0.034      328.734       -4.976      857.178
12/14/2021  22:26:00       29.860       19.689      -14.444       28.920       10.020        9.574      836.379      100.408       91.668        0.126        0.051       35.767       11.627        0.106      328.904       -4.698      857.176
12/14/2021  22:27:00       53.000       52.269      -11.521       22.023       22.027       16.179      485.022      485.177      261.759        0.345        0.062       74.439       12.815        0.030      328.997       -4.548      857.173
12/14/2021  22:28:00       10.165       86.259      -15.090       47.127       24.015       22.588     2220.941      576.719      510.204        0.554        0.165       86.856       15.598        0.032      329.251       -4.132      857.202
12/14/2021  22:29:00        6.968       44.787      -11.256       18.455       19.132       13.939      340.593      366.049      194.295        0.154        0.045       45.326       12.326        0.074      329.393       -3.900      857.218
12/14/2021  22:30:00       58.704       46.331      -11.600       33.294       24.090       23.135     1108.498      580.345      535.206        0.398        0.111       74.785       14.885        0.040      329.183       -4.244      857.215
12/14/2021  22:31:00       93.728       33.682       -5.708       25.447       23.135       21.444      647.563      535.241      459.833        0.580        0.082       99.596       16.961        0.029      329.193       -4.227      857.211
12/14/2021  22:32:00       77.530        2.361      -11.655       45.302       31.748       22.436     2052.259     1007.908      503.390        0.486        0.178       77.566       14.518        0.035      329.225       -4.175      857.190
12/14/2021  22:33:00       89.054       57.638      -15.938       14.236       15.265       11.591      202.673      233.018      134.348        0.604        0.029      106.079        5.751        0.003      329.384       -3.916      857.193
12/14/2021  22:34:00        4.196       58.808       -2.169       42.361       33.352       19.426     1794.433     1112.342      377.358        0.338        0.164       58.957       15.616        0.070      329.212       -4.195      857.218
12/14/2021  22:35:00       44.031       71.910       -8.820       70.555       40.058       27.774     4978.046     1604.668      771.385        0.727        0.368       84.319        7.227        0.007      329.233       -4.161      857.210
12/14/2021  22:36:00       78.595      103.825      -18.096       41.836       40.039       31.156     1750.256     1603.114      970.721        1.080        0.216      130.218       21.903        0.028      329.171       -4.264      857.179
12/14/2021  22:37:00       62.631       78.895      -15.153       48.602       46.790       27.985     2362.195     2189.340      783.133        0.785        0.267      100.732       23.605        0.055      328.818       -4.840      857.192
12/14/2021  22:38:00       19.011      103.803      -13.246       33.546       36.511       19.133     1125.335     1333.047      366.089        0.707        0.141      105.529       12.561        0.014      328.924       -4.667      857.230
12/14/2021  22:39:00       35.770      124.803      -20.514       26.318       42.173       21.578      692.617     1778.584      465.596        1.011        0.147      129.828       20.743        0.026      329.035       -4.484      857.261
12/14/2021  22:40:00      -14.153      134.950      -16.135       35.173       31.773       19.591     1237.129     1009.537      383.799        1.065        0.132      135.690       18.756        0.019      329.113       -4.357      857.281
12/14/2021  22:41:00      -68.318       84.283      -22.992       71.090       55.828       26.142     5053.841     3116.786      683.417        1.058        0.443      108.495       24.932        0.053      328.940       -4.641      857.294
12/14/2021  22:42:00      -48.887       67.989      -16.463       28.358       51.319       29.657      804.196     2633.597      879.560        0.580        0.216       83.741       14.006        0.028      329.128       -4.333      857.321
12/14/2021  22:43:00      -41.700       27.577      -20.320       22.030       26.018       14.617      485.314      676.941      213.651        0.214        0.069       49.994        8.686        0.030      329.085       -4.404      857.336
12/14/2021  22:44:00      -37.898       72.333       -9.882       37.666       30.575       17.996     1418.755      934.808      323.845        0.472        0.134       81.660       12.105        0.022      329.236       -4.157      857.322
12/14/2021  22:45:00      -84.998       50.502      -23.061       46.608       23.508       18.973     2172.320      552.626      359.967        0.670        0.154       98.869       12.631        0.016      329.344       -3.981      857.314
12/14/2021  22:46:00      -41.224      121.511       -8.942       36.586       49.683       22.144     1338.557     2468.367      490.347        1.042        0.215      128.313       21.302        0.028      329.101       -4.376      857.336
12/14/2021  22:47:00      -83.179      109.062      -15.673       36.933       35.289       18.710     1364.053     1245.310      350.047        1.101        0.148      137.162       12.537        0.008      329.182       -4.246      857.335
12/14/2021  22:48:00     -114.944      141.383      -16.549       57.715       51.504       28.228     3331.017     2652.623      796.819        2.013        0.339      182.212       28.487        0.024      329.181       -4.248      857.339
12/14/2021  22:49:00      -79.266      147.569       -8.653       46.774       38.304       29.853     2187.824     1467.182      891.176        1.634        0.227      167.510       16.426        0.010      329.544       -3.654      857.335
12/14/2021  22:50:00     -123.205       87.613      -24.810       41.421       40.494       31.183     1715.676     1639.770      972.389        1.390        0.216      151.181       19.237        0.016      329.025       -4.502      857.358
12/14/2021  22:51:00      -85.460       47.632      -18.384       55.265       56.152       34.943     3054.174     3153.096     1221.026        0.867        0.371       97.838       27.720        0.080      329.001       -4.541      857.373
12/14/2021  22:52:00      -30.291      -23.741       -7.821       35.333       44.289       32.478     1248.389     1961.507     1054.800        0.290        0.213       38.486       10.884        0.080      328.931       -4.656      857.382
12/14/2021  22:53:00      -89.785       -3.203       -8.489       36.623       31.737       17.974     1341.276     1007.246      323.077        0.541        0.134       89.842       14.761        0.027      328.944       -4.635      857.384
12/14/2021  22:54:00      -84.634      -15.902       -1.855       38.577       31.904       22.585     1488.220     1017.869      510.088        0.522        0.151       86.115       16.421        0.036      329.097       -4.383      857.385
12/14/2021  22:55:00     -125.812      -30.980       -9.120       72.805       66.589       39.410     5300.634     4434.147     1553.183        1.408        0.564      129.570       37.127        0.082      329.091       -4.395      857.403
12/14/2021  22:56:00     -193.443       -9.425       -8.072       82.031       68.733       38.475     6729.105     4724.241     1480.308        2.525        0.647      193.673       38.166        0.039      329.095       -4.390      857.414
12/14/2021  22:57:00     -148.457      -23.023      -17.331       81.832       44.392       38.583     6696.420     1970.688     1488.669        1.651        0.508      150.231       43.777        0.085      329.082       -4.409      857.409
12/14/2021  22:58:00     -134.920       50.811       -4.902       88.683       44.052       28.840     7864.688     1940.548      831.744        1.572        0.532      144.170       16.265        0.013      328.953       -4.620      857.389
12/14/2021  22:59:00     -102.208      -31.425      -15.477       75.700       46.143       19.924     5730.428     2129.213      396.977        0.996        0.413      106.929       16.006        0.022      329.037       -4.482      857.398
12/14/2021  23:00:00     -104.654      -50.457      -21.379       70.210       46.238       31.135     4929.375     2137.996      969.371        1.099        0.402      116.183       16.584        0.020      329.306       -4.043      857.371
12/14/2021  23:01:00      -77.759      -47.345       -9.242       73.672       70.492       31.709     5427.542     4969.106     1005.441        0.989        0.570       91.039       32.189        0.125      329.276       -4.094      857.384
12/14/2021  23:02:00     -174.911      -52.819      -16.381      109.279       80.063       46.077    11941.954     6410.030     2123.098        2.706        1.024      182.712       40.015        0.048      329.297       -4.059      857.380
12/14/2021  23:03:00     -178.511        0.587       -8.488       64.999       52.205       43.255     4224.896     2725.339     1871.012        2.038        0.441      178.512       33.734        0.036      329.179       -4.251      857.395
12/14/2021  23:04:00      -98.657      -26.524       -1.854       64.494       43.964       35.765     4159.523     1932.807     1279.166        0.890        0.369      102.161       34.479        0.114      329.183       -4.244      857.421
12/14/2021  23:05:00     -102.077       -6.919       -3.785       62.913       53.061       38.630     3958.046     2815.497     1492.295        0.937        0.413      102.311       28.845        0.079      329.091       -4.394      857.461
12/14/2021  23:06:00      -43.077      -47.366       -8.905       54.962       41.651       29.506     3020.849     1734.790      870.614        0.490        0.281       64.024       29.270        0.209      329.032       -4.491      857.481
12/14/2021  23:07:00      -79.461      -57.461      -11.103       64.078       48.172       32.076     4105.947     2320.543     1028.896        0.860        0.373       98.060       31.521        0.103      329.089       -4.398      857.474
12/14/2021  23:08:00      -55.645      -23.422       -3.942       60.418       40.838       37.580     3650.329     1667.783     1412.265        0.519        0.337       60.374       22.830        0.143      329.096       -4.385      857.515
12/14/2021  23:09:00     -111.239      -30.596       -1.072       75.866       47.082       37.228     5755.655     2216.735     1385.938        1.133        0.468      115.371       30.134        0.068      329.035       -4.485      857.556
12/14/2021  23:10:00     -128.263      -14.674       -9.728       52.868       40.081       29.750     2795.023     1606.524      885.063        1.102        0.264      129.100       25.140        0.038      328.959       -4.609      857.591
12/14/2021  23:11:00     -110.950       21.972       -5.495       32.869       40.269       21.564     1080.347     1621.596      465.018        0.799        0.158      113.105       15.087        0.018      328.867       -4.759      857.599
12/14/2021  23:12:00      -60.166       61.196       -0.683       38.909       27.277       20.985     1513.879      744.011      440.377        0.503        0.135       85.819       23.285        0.074      328.534       -5.303      857.599
12/14/2021  23:13:00       -2.471       21.849       -5.112       21.033       26.280       10.995      442.390      690.636      120.881        0.088        0.063       21.989        7.121        0.105      328.615       -5.169      857.586
12/14/2021  23:14:00        2.137        1.868      -12.094       20.263       12.968       11.458      410.608      168.177      131.285        0.043        0.036        2.839        6.847        5.818      328.727       -4.988      857.650
12/14/2021  23:15:00       11.990      -36.331      -18.268       28.402       29.982       17.560      806.700      898.946      308.349        0.191        0.101       38.258       19.397        0.257      328.795       -4.877      857.698
12/14/2021  23:16:00      -27.087       -2.460       -8.402       18.820       35.137       19.597      354.204     1234.600      384.030        0.139        0.099       27.198       20.762        0.583      328.840       -4.804      857.683
12/14/2021  23:17:00      -23.135       -2.479      -12.899       37.155       32.036       21.777     1380.527     1026.328      474.217        0.179        0.144       23.268       18.140        0.608      328.907       -4.695      857.678
12/14/2021  23:18:00      -17.040       17.551       -4.530       37.973       24.989       18.807     1441.921      624.465      353.697        0.152        0.121       24.462       16.823        0.473      328.901       -4.704      857.727
12/14/2021  23:19:00       14.923       63.406       -8.733       44.708       25.481       11.878     1998.782      649.282      141.092        0.355        0.139       65.138       12.833        0.039      328.711       -5.014      857.759
12/14/2021  23:20:00       36.178        2.315      -11.251       38.881       32.265       17.696     1511.761     1041.031      313.158        0.215        0.143       36.252        6.418        0.031      328.618       -5.167      857.765
12/14/2021  23:21:00       45.295        7.024       -1.440       52.923       43.441       38.796     2800.837     1887.115     1505.103        0.415        0.310       45.836       31.635        0.476      328.612       -5.176      857.784
12/14/2021  23:22:00       24.806       11.644      -19.457       54.168       48.314       40.392     2934.136     2334.252     1631.484        0.401        0.345       27.403       32.662        1.421      328.687       -5.054      857.824
12/14/2021  23:23:00       -8.897      -27.382        3.958       38.410       38.642       24.199     1475.324     1493.183      585.571        0.220        0.178       28.791       20.406        0.502      328.758       -4.938      857.869
12/14/2021  23:24:00       18.556      -41.353      -16.750       27.935       37.381       22.557      780.362     1397.339      508.815        0.251        0.134       45.326       14.645        0.104      328.897       -4.711      857.902
12/14/2021  23:25:00       43.308       -1.597      -14.783       28.619       40.536       29.678      819.068     1643.207      880.809        0.272        0.167       43.337       19.075        0.194      328.747       -4.956      857.919
12/14/2021  23:26:00       78.907      -12.552      -13.913       44.294       31.260       33.147     1961.940      977.163     1098.734        0.531        0.202       79.899       21.934        0.075      328.523       -5.322      857.931
12/14/2021  23:27:00       74.323       25.411       -9.748       21.214       16.136       15.009      450.046      260.386      225.264        0.360        0.047       78.547       12.990        0.027      328.217       -5.819      857.960
12/14/2021  23:28:00       74.220       48.488       -6.474       40.348       30.405       21.412     1627.983      924.483      458.493        0.546        0.151       88.655       19.632        0.049      328.350       -5.602      857.969
12/14/2021  23:29:00       97.895       57.275      -14.884       34.846       35.569       28.393     1214.243     1265.188      806.165        0.818        0.164      113.419       21.814        0.037      328.542       -5.290      857.972
12/14/2021  23:30:00      122.694       60.288      -26.724       26.503       26.152       15.028      702.429      683.917      225.854        1.051        0.081      136.706       11.010        0.006      328.691       -5.046      857.978
12/14/2021  23:31:00      136.386       57.232      -17.811       19.942       20.384       15.244      397.687      415.492      232.374        1.162        0.052      147.907       10.398        0.005      328.689       -5.052      857.964
12/14/2021  23:32:00       88.893       30.705       -7.209       47.102       39.009       20.844     2218.612     1521.686      434.478        0.654        0.209       94.047        7.191        0.006      328.579       -5.230      857.944
12/14/2021  23:33:00       85.306       15.806       -7.424       34.576       27.485       23.190     1195.486      755.423      537.763        0.503        0.124       86.758       15.313        0.031      328.547       -5.280      857.936
12/14/2021  23:34:00      122.673       23.373      -16.425       46.175       31.529       21.443     2132.116      994.077      459.818        0.972        0.179      124.880        6.658        0.003      328.493       -5.368      857.931
12/14/2021  23:35:00       90.276        9.301       -8.824       45.808       33.012       29.954     2098.380     1089.806      897.260        0.620        0.204       90.754       19.308        0.045      328.495       -5.367      857.928
12/14/2021  23:36:00       39.127       -3.621        6.827       37.716       26.243       29.922     1422.493      688.682      895.310        0.230        0.150       39.294       23.925        0.371      328.518       -5.329      857.943
12/14/2021  23:37:00       56.388        0.539       -0.076       25.737       25.141       20.061      662.403      632.082      402.427        0.244        0.085       56.390       16.092        0.081      328.469       -5.410      857.967
12/14/2021  23:38:00       57.738       14.403       -1.838       23.883       18.222       14.577      570.413      332.028      212.495        0.233        0.056       59.507       13.757        0.053      328.453       -5.434      857.972
12/14/2021  23:39:00       35.568        8.568       -7.081       17.154       16.172        8.857      294.246      261.519       78.439        0.101        0.032       36.585        6.694        0.033      328.459       -5.424      857.995
12/14/2021  23:40:00        4.042       26.014       10.798       17.376       15.934       11.555      301.924      253.899      133.516        0.075        0.034       26.327        9.265        0.124      328.498       -5.361      858.018
12/14/2021  23:41:00      -20.278      -16.114       -9.513       19.224       34.724       16.046      369.560     1205.726      257.482        0.130        0.092       25.901       17.717        0.468      328.569       -5.246      858.040
12/14/2021  23:42:00      -13.793      -66.791      -33.727       23.269       24.454       18.904      541.461      597.974      357.349        0.364        0.075       68.200       14.511        0.045      328.711       -5.015      858.045
12/14/2021  23:43:00      -28.992      -24.870        2.373       28.251       33.389       27.785      798.107     1114.803      772.002        0.207        0.134       38.198       21.682        0.322      328.741       -4.965      858.041
12/14/2021  23:44:00      -32.949       -1.037      -10.703       13.058       12.829       11.507      170.524      164.585      132.411        0.083        0.023       32.965        6.785        0.042      328.700       -5.031      858.045
12/14/2021  23:45:00      -28.077        1.755       -5.715       17.671       19.424       20.893      312.260      377.279      436.501        0.097        0.056       28.132        7.938        0.080      328.698       -5.035      858.042
12/14/2021  23:46:00      -24.342       13.174        0.766       19.827       13.414       12.138      393.111      179.946      147.326        0.074        0.036       27.678       11.990        0.188      328.573       -5.240      858.051
12/14/2021  23:47:00      -38.597       10.533        6.185       36.442       40.465       22.505     1328.020     1637.390      506.461        0.255        0.174       40.008       19.665        0.242      328.342       -5.616      858.058
12/14/2021  23:48:00      -74.984       25.259       -5.245       49.050       37.717       25.221     2405.906     1422.541      636.098        0.538        0.223       79.124       22.224        0.079      328.154       -5.923      858.068
12/14/2021  23:49:00     -125.021       39.757       -8.147       42.246       32.454       21.319     1784.756     1053.274      454.507        1.028        0.165      131.190       17.114        0.017      328.060       -6.075      858.081
12/14/2021  23:50:00      -24.032        9.544        1.188       38.722       30.696       21.910     1499.393      942.258      480.068        0.180        0.146       25.858       17.621        0.464      328.103       -6.004      858.096
12/14/2021  23:51:00      -52.250       -5.701       -8.038       34.168       24.365       21.499     1167.439      593.653      462.218        0.252        0.111       52.560       21.434        0.166      328.254       -5.759      858.088
12/14/2021  23:52:00      -46.815       -3.201       -5.337       29.653       19.055       12.833      879.279      363.086      164.674        0.182        0.070       46.924       13.155        0.079      328.301       -5.681      858.085
12/14/2021  23:53:00      -55.546       11.126       -1.829       39.179       24.166       20.201     1534.999      584.005      408.096        0.287        0.126       56.650       18.490        0.107      328.323       -5.647      858.094
12/14/2021  23:54:00        6.451       -1.040        2.108       24.497       13.985       20.936      600.124      195.587      438.308        0.064        0.062        6.534       14.360        4.830      328.346       -5.609      858.100
12/14/2021  23:55:00      -17.924      -14.168       -4.140       23.910       22.373       14.815      571.697      500.532      219.484        0.092        0.065       22.847       10.603        0.215      328.424       -5.481      858.104
12/14/2021  23:56:00      -19.744        1.962       -0.796       17.569       16.814       14.663      308.674      282.720      214.995        0.060        0.040       19.842        7.344        0.137      328.395       -5.529      858.120
12/14/2021  23:57:00      -70.192       12.323       -4.841       39.666       32.829       20.615     1573.410     1077.755      424.981        0.409        0.154       71.265       10.165        0.020      328.259       -5.752      858.119
12/14/2021  23:58:00      -86.236       38.330       -3.962       31.915       18.381       18.034     1018.596      337.863      325.220        0.530        0.084       94.371       16.398        0.030      328.126       -5.967      858.115
12/14/2021  23:59:00     -103.975       18.414       -5.519       31.840       27.787       16.792     1013.790      772.145      281.966        0.662        0.103      105.593        9.069        0.007      328.134       -5.954      858.094
12/15/2021  00:00:00      -88.643       32.334       -5.215       38.334       28.649       21.777     1469.521      820.759      474.259        0.585        0.138       94.356       17.510        0.034      327.975       -6.213      858.074
12/15/2021  00:01:00     -103.317       56.439      -16.912       21.763       20.662       14.463      473.640      426.928      209.165        0.763        0.055      117.728       10.730        0.008      328.105       -6.003      858.057
12/15/2021  00:02:00      -90.131       66.349      -18.839       26.839       28.890       18.094      720.354      834.645      327.398        0.738        0.094      111.919       15.175        0.018      328.219       -5.817      858.039
12/15/2021  00:03:00      -96.237       46.566      -15.974       17.714       22.033       15.079      313.778      485.475      227.387        0.636        0.051      106.911        9.119        0.007      328.240       -5.783      858.049
12/15/2021  00:04:00      -68.378       33.965      -21.478       30.708       31.450       21.409      942.956      989.129      458.342        0.434        0.120       76.350       16.291        0.046      328.193       -5.859      858.039
12/15/2021  00:05:00      -46.501       15.926      -18.440       44.706       27.238       20.549     1998.640      741.927      422.242        0.296        0.158       49.152       12.628        0.066      328.083       -6.038      858.036
12/15/2021  00:06:00      -98.003       30.203      -21.203       57.750       43.155       33.811     3335.023     1862.389     1143.155        0.865        0.317      102.551       20.389        0.040      327.925       -6.295      858.047
12/15/2021  00:07:00     -153.957       54.277      -22.957       39.557       41.254       25.845     1564.733     1701.897      667.980        1.555        0.197      163.244       17.700        0.012      327.701       -6.660      858.070
12/15/2021  00:08:00     -116.765       54.745      -20.411       33.502       31.505       19.374     1122.405      992.541      375.366        0.977        0.125      128.962       12.847        0.010      327.775       -6.538      858.080
12/15/2021  00:09:00      -89.296       27.624      -23.032       38.812       31.664       27.502     1506.362     1002.587      756.368        0.627        0.163       93.471       13.956        0.022      327.880       -6.368      858.102
12/15/2021  00:10:00     -104.989       23.113      -18.936       41.757       32.543       28.359     1743.651     1059.046      804.211        0.776        0.180      107.503       25.385        0.056      327.836       -6.441      858.130
12/15/2021  00:11:00      -18.181        1.799      -13.067       44.488       18.955       23.785     1979.162      359.299      565.727        0.170        0.145       18.270       26.504        2.104      327.851       -6.415      858.162
12/15/2021  00:12:00      -25.095       20.893      -13.114       24.808       22.358       17.320      615.429      499.894      299.973        0.133        0.071       32.654        4.882        0.022      327.905       -6.327      858.192
12/15/2021  00:13:00      -71.027       17.890      -22.906       29.652       19.952       16.972      879.253      398.101      288.054        0.373        0.078       73.246        9.805        0.018      327.944       -6.263      858.228
12/15/2021  00:14:00      -15.210        3.488      -10.629       22.510       21.543       17.356      506.693      464.087      301.239        0.081        0.064       15.605       13.357        0.733      327.910       -6.319      858.252
12/15/2021  00:15:00      -50.628       25.322       -6.953       59.619       21.241       23.499     3554.425      451.167      552.218        0.390        0.228       56.608       32.042        0.320      327.900       -6.336      858.262
12/15/2021  00:16:00     -157.804       43.091      -21.811       56.688       38.557       23.563     3213.473     1486.634      555.200        1.624        0.263      163.581       11.338        0.005      327.773       -6.544      858.261
12/15/2021  00:17:00     -113.460       23.644      -23.183       55.829       40.557       30.461     3116.856     1644.885      927.886        0.983        0.284      115.897       21.826        0.035      327.566       -6.879      858.279
12/15/2021  00:18:00     -137.775       60.778      -16.764       50.197       42.494       33.157     2519.711     1805.717     1099.379        1.419        0.271      150.585       15.475        0.011      327.632       -6.772      858.295
12/15/2021  00:19:00     -106.269       56.670      -17.942       30.670       34.864       25.773      940.636     1215.484      664.256        0.882        0.141      120.434       18.441        0.023      327.674       -6.703      858.301
12/15/2021  00:20:00     -100.892       28.528      -14.460       41.743       43.753       32.517     1742.495     1914.344     1057.383        0.796        0.236      104.848       13.367        0.016      327.721       -6.626      858.299
12/15/2021  00:21:00      -43.643       11.564      -18.438       49.248       24.526       33.316     2425.363      601.511     1109.942        0.326        0.207       45.149       27.413        0.369      327.672       -6.707      858.286
12/15/2021  00:22:00      -87.750       58.006      -29.790       35.988       27.777       24.442     1295.111      771.542      597.423        0.731        0.133      105.189       13.971        0.018      327.761       -6.562      858.292
12/15/2021  00:23:00      -57.506       44.013      -11.389       37.042       31.867       18.671     1372.139     1015.537      348.593        0.405        0.137       72.416       18.407        0.065      327.734       -6.606      858.294
12/15/2021  00:24:00      -54.717       38.292      -10.085       34.905       25.402       17.245     1218.372      645.238      297.378        0.336        0.108       66.785       19.908        0.089      328.026       -6.128      858.282
12/15/2021  00:25:00      -20.749       17.734       -3.687       32.871       29.758       16.253     1080.481      885.559      264.164        0.149        0.112       27.295       15.632        0.328      328.052       -6.089      858.280
12/15/2021  00:26:00     -104.260       32.413      -25.072       45.467       32.275       21.599     2067.254     1041.670      466.501        0.806        0.179      109.183       10.503        0.009      327.955       -6.246      858.280
12/15/2021  00:27:00     -105.268       56.081       -9.954       49.066       40.323       26.793     2407.469     1625.934      717.881        0.954        0.238      119.274       23.002        0.037      327.903       -6.332      858.293
12/15/2021  00:28:00     -137.366       38.955      -22.091       67.863       50.035       35.461     4605.444     2503.470     1257.500        1.462        0.418      142.782       26.850        0.035      327.719       -6.631      858.325
12/15/2021  00:29:00     -155.339      130.570      -26.754       47.716       40.174       30.757     2276.851     1613.941      945.988        2.336        0.242      202.925       23.937        0.014      327.607       -6.814      858.358
12/15/2021  00:30:00      -84.532       85.392      -18.363       28.401       37.571       22.862      806.617     1411.583      522.663        0.876        0.137      120.156       11.522        0.009      327.759       -6.564      858.355
12/15/2021  00:31:00      -98.847       48.072      -19.120       25.491       28.330       18.087      649.774      802.562      327.142        0.711        0.089      109.916        4.227        0.001      327.829       -6.451      858.352
12/15/2021  00:32:00     -121.543       41.369      -23.332       29.034       35.317       26.670      842.965     1247.316      711.288        0.991        0.140      128.390       18.436        0.021      327.760       -6.564      858.372
12/15/2021  00:33:00      -88.307       20.182      -22.306       33.461       21.542       17.677     1119.630      464.063      312.477        0.530        0.095       90.584        9.909        0.012      327.740       -6.596      858.352
12/15/2021  00:34:00      -96.469       51.070      -19.249       25.000       28.876       18.468      625.012      833.835      341.083        0.704        0.090      109.153        8.695        0.006      327.855       -6.409      858.315
12/15/2021  00:35:00      -55.480       19.558      -16.585       50.374       36.222       26.274     2537.548     1312.002      690.308        0.414        0.227       58.827       19.455        0.109      327.818       -6.469      858.304
12/15/2021  00:36:00      -32.830       30.828       -3.670       31.610       22.015       17.724      999.181      484.656      314.151        0.192        0.090       45.036       11.978        0.071      327.978       -6.209      858.300
12/15/2021  00:37:00      -33.088        5.529      -12.629       44.557       29.105       21.907     1985.309      847.118      479.924        0.230        0.166       33.546       13.868        0.171      328.328       -5.639      858.299
12/15/2021  00:38:00      -16.102      -10.036       -4.073       32.739       21.927       22.652     1071.865      480.780      513.122        0.122        0.103       18.973       17.926        0.893      328.020       -6.141      858.322
12/15/2021  00:39:00      -11.635      -13.742       -1.091       45.232       16.781       19.079     2045.969      281.587      364.000        0.151        0.135       18.006       19.464        1.168      327.876       -6.375      858.317
12/15/2021  00:40:00      -36.414       12.851      -11.144       35.632       19.154       14.733     1269.653      366.864      217.058        0.173        0.093       38.615       14.400        0.139      327.975       -6.212      858.301
12/15/2021  00:41:00     -110.260       29.518      -19.951       51.321       38.478       30.096     2633.868     1480.539      905.799        0.922        0.251      114.142       14.740        0.017      327.756       -6.570      858.332
12/15/2021  00:42:00      -68.244       15.888       -5.101       31.877       21.788       19.092     1016.159      474.736      364.513        0.340        0.093       70.069       17.318        0.061      327.737       -6.602      858.333
12/15/2021  00:43:00      -34.367       -2.564       -7.877       67.137       32.100       28.139     4507.431     1030.426      791.798        0.379        0.316       34.463       27.922        0.656      327.879       -6.369      858.357
12/15/2021  00:44:00      -55.943       19.067       -7.057       46.153       20.097       21.078     2130.068      403.885      444.271        0.326        0.149       59.103       22.465        0.144      327.752       -6.576      858.376
12/15/2021  00:45:00      -47.710       19.073       -4.194       19.454       16.578       12.764      378.456      274.831      162.928        0.174        0.041       51.381       11.289        0.048      327.851       -6.416      858.366
12/15/2021  00:46:00      -61.438       -2.956       -0.958       47.993       42.266       30.638     2303.362     1786.437      938.674        0.441        0.251       61.510       29.129        0.224      327.913       -6.313      858.363
12/15/2021  00:47:00     -109.510        5.819      -15.049       55.852       33.814       27.369     3119.484     1143.405      749.081        0.863        0.251      109.664       11.501        0.011      327.934       -6.278      858.360
12/15/2021  00:48:00      -22.571       18.867      -11.349       28.706       11.465       15.394      824.061      131.455      236.968        0.109        0.060       29.418       13.963        0.225      327.813       -6.479      858.338
12/15/2021  00:49:00      -55.082       24.507       -6.854       39.675       17.272       14.125     1574.073      298.331      199.524        0.288        0.104       60.288       14.080        0.055      327.818       -6.470      858.329
12/15/2021  00:50:00       -4.160      -27.436      -28.107       61.529       31.863       24.767     3785.818     1015.230      613.399        0.349        0.271       27.750       23.831        0.737      328.355       -5.595      858.302
12/15/2021  00:51:00      -16.881        3.869       -7.769       30.329       18.954       21.653      919.871      359.267      468.833        0.105        0.087       17.319       16.414        0.898      328.421       -5.487      858.324
12/15/2021  00:52:00      -60.229       31.489      -10.112       41.704       21.715       13.597     1739.193      471.523      184.888        0.356        0.120       67.964       16.228        0.057      328.011       -6.155      858.337
12/15/2021  00:53:00      -51.299       41.561       -4.979       34.608       29.955       16.507     1197.736      897.307      272.466        0.338        0.118       66.022       12.624        0.037      327.769       -6.548      858.360
12/15/2021  00:54:00      -16.808       -4.708      -11.722       36.900       24.822       21.023     1361.609      616.152      441.970        0.143        0.121       17.455       15.114        0.750      327.868       -6.388      858.362
12/15/2021  00:55:00       11.826       -6.629      -19.931       29.589       39.968       23.294      875.513     1597.447      542.598        0.180        0.151       13.557       14.958        1.217      327.997       -6.178      858.311
12/15/2021  00:56:00      -55.612      -19.833      -11.640       71.175       63.007       29.692     5065.812     3969.935      881.633        0.677        0.496       59.043       28.673        0.236      328.184       -5.873      858.303
12/15/2021  00:57:00      -65.907       13.490      -16.067       52.317       33.616       30.317     2737.054     1130.051      919.117        0.478        0.239       67.274       21.205        0.099      327.981       -6.203      858.380
12/15/2021  00:58:00     -101.696       35.939       -8.558       72.928       47.950       33.024     5318.470     2299.198     1090.592        1.021        0.435      107.860       26.360        0.060      327.666       -6.716      858.431
12/15/2021  00:59:00     -155.606       30.022       -9.705       59.468       34.962       31.127     3536.489     1222.333      968.908        1.547        0.286      158.476       13.272        0.007      327.917       -6.308      858.433
12/15/2021  01:00:00      -78.218        1.682       -3.388       37.694       44.081       25.685     1420.866     1943.124      659.728        0.508        0.201       78.236       19.885        0.065      328.238       -5.787      858.404
12/15/2021  01:01:00      -23.910       -1.487       -9.463       26.758       27.015       15.038      715.977      729.786      226.128        0.117        0.084       23.956       11.943        0.249      328.254       -5.758      858.397
12/15/2021  01:02:00       19.275       -5.235      -14.216       33.234       30.358       16.906     1104.469      921.608      285.822        0.146        0.116       19.974       14.735        0.544      328.301       -5.681      858.396
12/15/2021  01:03:00       40.413      -15.456      -21.100       37.550       55.615       28.960     1410.029     3093.023      838.706        0.383        0.267       43.268       19.966        0.213      328.417       -5.494      858.380
12/15/2021  01:04:00       48.783       23.065      -13.199       45.990       33.456       22.131     2115.088     1119.335      489.776        0.340        0.186       53.961       15.663        0.084      328.222       -5.812      858.379
12/15/2021  01:05:00      100.050       17.642      -10.744       49.979       30.863       20.820     2497.934      952.518      433.490        0.716        0.194      101.594       19.146        0.036      327.753       -6.575      858.384
12/15/2021  01:06:00       30.707      -17.396       -2.304       33.576       31.930       21.584     1127.373     1019.547      465.868        0.193        0.131       35.292       12.338        0.122      327.753       -6.574      858.432
12/15/2021  01:07:00       -6.452       24.388      -11.855       39.953       44.573       15.913     1596.248     1986.794      253.213        0.231        0.192       25.227       18.569        0.542      327.713       -6.639      858.483
12/15/2021  01:08:00       39.021       17.461      -21.609       51.180       35.611       22.280     2619.349     1268.154      496.384        0.334        0.219       42.750       16.558        0.150      327.897       -6.340      858.449
12/15/2021  01:09:00       94.225       14.577      -24.608       88.274       50.644       36.221     7792.325     2564.780     1311.936        1.068        0.583       95.346       32.018        0.113      327.868       -6.389      858.394
12/15/2021  01:10:00       73.866        4.826      -29.153       72.260       78.582       40.668     5221.485     6175.087     1653.871        0.969        0.653       74.023       25.444        0.118      327.928       -6.290      858.364
12/15/2021  01:11:00       -0.996      -83.617      -27.555       56.521       46.366       37.970     3194.632     2149.813     1441.686        0.727        0.339       83.623       32.997        0.156      327.925       -6.296      858.464
12/15/2021  01:12:00       64.696      -58.988      -16.887       42.580       50.513       25.786     1813.069     2551.597      664.901        0.649        0.251       87.551       21.171        0.058      328.052       -6.088      858.532
12/15/2021  01:13:00       66.647       26.201      -14.296       51.473       65.011       34.526     2649.494     4226.403     1192.044        0.670        0.403       71.612       16.350        0.052      328.000       -6.174      858.493
12/15/2021  01:14:00       93.703       24.272      -17.096       36.748       27.452       18.040     1350.421      753.585      325.455        0.605        0.121       96.796       13.350        0.019      327.817       -6.470      858.496
12/15/2021  01:15:00       93.534       36.624      -10.627       11.991       16.874       11.032      143.795      284.737      121.705        0.538        0.028      100.449        5.867        0.003      327.767       -6.554      858.518
12/15/2021  01:16:00      203.269       -6.277      -20.555       60.484       33.080       32.717     3658.259     1094.261     1070.409        2.380        0.291      203.366       19.178        0.009      327.826       -6.460      858.499
12/15/2021  01:17:00       88.913      -14.244        3.479       70.370       37.503       35.401     4951.885     1406.439     1253.236        0.786        0.381       90.047       36.624        0.165      327.714       -6.640      858.506
12/15/2021  01:18:00       69.416      -68.581      -26.106       39.217       35.451       27.144     1537.940     1256.799      736.774        0.687        0.177       97.580       19.112        0.038      328.016       -6.147      858.579
12/15/2021  01:19:00      116.353      -58.814      -43.855       60.168       72.267       39.469     3620.194     5222.465     1557.786        1.466        0.520      130.373       31.823        0.060      328.000       -6.173      858.589
12/15/2021  01:20:00       52.688      -88.439      -37.749       70.405       53.638       45.994     4956.812     2877.017     2115.439        1.098        0.497      102.944       40.714        0.156      328.073       -6.054      858.577
12/15/2021  01:21:00       -3.577      -43.108      -12.434       34.348       33.186       26.544     1179.800     1101.312      704.606        0.251        0.149       43.257       20.912        0.234      328.136       -5.951      858.620
12/15/2021  01:22:00      -38.816       27.329      -14.129       40.441       31.783       28.551     1635.462     1010.170      815.159        0.296        0.173       47.472       14.902        0.099      328.104       -6.004      858.657
12/15/2021  01:23:00      -55.514      -20.688        6.498       49.161       47.079       26.029     2416.787     2216.441      677.492        0.443        0.266       59.244       21.153        0.127      328.092       -6.022      858.682
12/15/2021  01:24:00       48.241      -42.698      -35.049       53.656       66.231       39.523     2878.998     4386.588     1562.031        0.710        0.441       64.423       28.812        0.200      328.227       -5.804      858.664
12/15/2021  01:25:00       19.599      -18.524      -40.692       76.215       79.215       69.885     5808.749     6275.025     4883.930        0.967        0.848       26.968       46.878        3.022      328.257       -5.754      858.532
12/15/2021  01:26:00      -25.332      -37.124       -3.840       55.953       36.672       40.970     3130.719     1344.818     1678.563        0.409        0.308       44.943       25.491        0.322      328.312       -5.665      858.556
12/15/2021  01:27:00       21.112      -66.432      -21.845       36.890       46.473       25.349     1360.884     2159.747      642.571        0.475        0.208       69.706       10.103        0.021      328.339       -5.621      858.621
12/15/2021  01:28:00       40.047        7.657      -10.448       25.567       25.705       18.486      653.675      660.760      341.716        0.171        0.083       40.772        8.590        0.044      328.099       -6.010      858.640
12/15/2021  01:29:00       96.759       15.920      -14.172       16.768       21.170       14.081      281.162      448.170      198.267        0.537        0.046       98.060        8.379        0.007      328.077       -6.048      858.635
12/15/2021  01:30:00       48.528      -19.978      -13.598       61.325       51.491       36.734     3760.738     2651.325     1349.390        0.535        0.388       52.480       34.107        0.422      328.203       -5.840      858.633
12/15/2021  01:31:00      -11.880      -12.333      -12.274       27.641       29.138       20.890      764.010      849.015      436.410        0.125        0.102       17.124       12.494        0.532      328.345       -5.611      858.662
12/15/2021  01:32:00       35.464       50.528       -5.828       22.959       27.783       14.507      527.104      771.913      210.458        0.268        0.075       61.732       14.512        0.055      327.978       -6.208      858.667
12/15/2021  01:33:00       -9.821       23.252      -19.771       19.518       19.432       14.298      380.959      377.605      204.437        0.100        0.048       25.241        5.540        0.048      328.184       -5.873      858.715
12/15/2021  01:34:00        9.141       25.642       -1.952       20.429       16.689       14.842      417.347      278.526      220.274        0.083        0.046       27.222       10.367        0.145      328.132       -5.958      858.742
12/15/2021  01:35:00       15.135       23.327       -8.569       12.689       11.667        8.108      161.001      136.109       65.743        0.060        0.018       27.807        4.653        0.028      328.004       -6.167      858.753
12/15/2021  01:36:00        9.372       13.644       -6.612       10.279       11.163        8.869      105.664      124.619       78.659        0.031        0.015       16.553        7.103        0.184      328.017       -6.143      858.758
12/15/2021  01:37:00        8.457      -26.302      -19.235       20.600       24.216       15.312      424.353      586.437      234.468        0.119        0.062       27.628        6.918        0.063      328.125       -5.968      858.779
12/15/2021  01:38:00       14.183       24.163       -4.503       19.413       18.082       16.832      376.881      326.963      283.311        0.090        0.049       28.018       13.924        0.247      327.879       -6.369      858.781
12/15/2021  01:39:00       12.704       -4.807       -7.964       30.945       40.460       20.276      957.579     1637.038      411.117        0.163        0.150       13.583       11.864        0.763      328.036       -6.113      858.758
12/15/2021  01:40:00        5.482      -59.760      -24.767       43.874       54.994       27.109     1924.948     3024.356      734.917        0.495        0.284       60.011       29.734        0.245      328.268       -5.737      858.746
12/15/2021  01:41:00      -25.508       36.614       -0.075       29.617       29.629       15.672      877.180      877.893      245.598        0.200        0.100       44.624       14.461        0.105      328.063       -6.070      858.767
12/15/2021  01:42:00       38.105       42.933       -8.472       27.770       21.246       14.220      771.198      451.413      202.196        0.240        0.071       57.404       15.211        0.070      327.914       -6.313      858.779
12/15/2021  01:43:00       90.943       60.502      -24.109       19.882       16.668       12.479      395.279      277.812      155.735        0.667        0.041      109.230        6.403        0.003      327.918       -6.307      858.780
12/15/2021  01:44:00       36.156       23.928      -15.962       42.319       21.025       22.166     1790.858      442.038      491.322        0.243        0.136       43.356       11.319        0.068      327.972       -6.218      858.764
12/15/2021  01:45:00       17.857        7.191       -9.155       20.793       11.583       12.001      432.338      134.171      144.019        0.058        0.036       19.250        9.318        0.234      327.989       -6.189      858.783
12/15/2021  01:46:00        9.446       15.436       -9.611       18.131        8.581        8.154      328.750       73.642       66.488        0.044        0.023       18.097        6.806        0.141      327.919       -6.304      858.803
12/15/2021  01:47:00       18.137       31.595        1.591       41.118       20.070       16.868     1690.658      402.810      284.545        0.185        0.119       36.431       14.824        0.166      327.842       -6.430      858.816
12/15/2021  01:48:00       76.484       21.977      -10.753       56.453       48.016       16.740     3186.976     2305.514      280.237        0.611        0.289       79.579       16.852        0.045      327.830       -6.449      858.793
12/15/2021  01:49:00       47.976       10.601       -8.390       51.421       36.665       16.520     2644.083     1344.320      272.922        0.337        0.213       49.133       14.344        0.085      327.825       -6.457      858.789
12/15/2021  01:50:00       59.064      -14.122      -10.390       49.367       50.088       31.426     2437.075     2508.780      987.570        0.486        0.297       60.728       24.326        0.160      328.027       -6.129      858.791
12/15/2021  01:51:00       72.006       -5.436       -2.876       70.549       35.221       30.546     4977.154     1240.536      933.057        0.619        0.358       72.211       31.742        0.193      327.928       -6.290      858.771
12/15/2021  01:52:00      116.457       -8.317       -5.428      105.070       58.006       48.572    11039.678     3364.684     2359.227        1.521        0.838      116.754       47.792        0.168      327.784       -6.526      858.727
12/15/2021  01:53:00      -16.004      -22.072      -11.297       48.041       55.388       32.026     2307.939     3067.782     1025.672        0.363        0.320       27.263       23.873        0.767      328.048       -6.093      858.729
12/15/2021  01:54:00       22.149      -54.232      -35.966       60.583       52.249       25.033     3670.265     2729.962      626.647        0.587        0.351       58.580       19.685        0.113      328.141       -5.943      858.773
12/15/2021  01:55:00       64.157      -10.343      -23.675       35.272       35.248       24.761     1244.135     1242.406      613.100        0.394        0.155       64.986       15.624        0.058      328.072       -6.057      858.766
12/15/2021  01:56:00       94.808       -9.306      -14.830       42.423       30.614       23.843     1799.687      937.245      568.470        0.630        0.165       95.264       17.357        0.033      327.947       -6.258      858.790
12/15/2021  01:57:00      140.751       -7.310      -18.775       56.724       46.283       38.268     3217.604     2142.129     1464.431        1.352        0.341      140.941       28.442        0.041      327.934       -6.279      858.839
12/15/2021  01:58:00       67.852      -11.290      -12.412       63.539       43.602       32.031     4037.158     1901.129     1025.961        0.592        0.348       68.785       24.701        0.129      328.033       -6.119      858.886
12/15/2021  01:59:00       50.558       49.603      -16.741       50.813       52.092       34.486     2581.927     2713.581     1189.283        0.589        0.324       70.827       13.857        0.038      328.009       -6.159      858.917
12/15/2021  02:00:00       10.516        2.467      -16.517       59.866       45.654       27.088     3583.913     2084.276      733.775        0.339        0.320       10.801       20.771        3.698      328.025       -6.133      858.939
12/15/2021  02:01:00      -41.693       24.904       -0.449       48.028       51.190       21.327     2306.727     2620.419      454.846        0.387        0.269       48.565       17.917        0.136      327.971       -6.220      858.955
12/15/2021  02:02:00      -12.881        7.371       -9.100       21.631       18.561        9.243      467.913      344.497       85.428        0.060        0.045       14.840        6.884        0.215      328.059       -6.076      858.936
12/15/2021  02:03:00       22.776       -1.687      -14.420       21.584       26.982       17.701      465.882      728.012      313.318        0.112        0.075       22.838       11.360        0.247      327.985       -6.197      858.904
12/15/2021  02:04:00      106.071       68.654      -14.966       26.135       24.944       15.599      683.020      622.189      243.327        0.887        0.077      126.350       13.607        0.012      327.755       -6.571      858.877
12/15/2021  02:05:00       96.810      114.433      -22.003       38.766       31.745       28.083     1502.765     1007.726      788.638        1.312        0.165      149.890       20.050        0.018      327.892       -6.349      858.850
12/15/2021  02:06:00       43.956       34.860       -5.745       57.631       53.244       25.857     3321.324     2834.887      668.570        0.500        0.341       56.101       19.989        0.127      327.825       -6.460      858.854
12/15/2021  02:07:00        9.250       -2.824       -3.437       25.644       20.601       13.310      657.600      424.415      177.151        0.068        0.063        9.671        7.747        0.642      327.998       -6.176      858.910
12/15/2021  02:08:00      -51.284        7.659      -15.672       31.433       12.807       17.413      988.036      164.010      303.221        0.219        0.073       51.853       13.897        0.072      327.956       -6.243      858.950
12/15/2021  02:09:00      -25.713      -15.782      -17.284       13.026       10.307        8.849      169.681      106.233       78.301        0.078        0.018       30.170        6.845        0.051      328.088       -6.030      858.999
12/15/2021  02:10:00        5.438      -32.813      -22.869       59.668       62.752       37.955     3560.311     3937.863     1440.555        0.528        0.447       33.260       30.194        0.824      328.140       -5.946      859.064
12/15/2021  02:11:00       29.730      -97.709      -14.947       67.229       58.253       38.959     4519.798     3393.371     1517.796        1.004        0.472      102.131       39.621        0.150      328.106       -6.001      859.139
12/15/2021  02:12:00       -0.265      -24.699      -17.237       35.629       50.903       27.746     1269.401     2591.100      769.825        0.277        0.232       24.700       23.298        0.890      328.092       -6.025      859.189
12/15/2021  02:13:00      -10.856       30.536      -14.501       40.163       28.122       25.916     1613.053      790.850      671.618        0.217        0.154       32.408       22.037        0.462      328.172       -5.892      859.259
12/15/2021  02:14:00      -18.350      -23.341        3.028       45.505       36.770       25.915     2070.718     1352.038      671.569        0.249        0.205       29.690       21.292        0.514      328.143       -5.940      859.342
12/15/2021  02:15:00       -1.967       -8.508      -19.583       19.081       15.559       18.341      364.086      242.093      336.387        0.070        0.047        8.732       12.811        2.152      328.137       -5.950      859.374
12/15/2021  02:16:00        4.007       31.952       -9.677       19.358       30.249       17.744      374.749      914.994      314.865        0.137        0.080       32.202       19.032        0.349      328.045       -6.100      859.370
12/15/2021  02:17:00      -14.629       24.919        5.327       20.739       19.970       15.867      430.103      398.806      251.777        0.097        0.054       28.895        9.529        0.109      327.974       -6.214      859.344
12/15/2021  02:18:00       12.814       39.966        4.339       43.041       20.515       20.104     1852.543      420.859      404.174        0.223        0.134       41.970       13.216        0.099      327.992       -6.185      859.317
12/15/2021  02:19:00      -10.174       62.308       -9.000       21.842       19.405       12.529      477.057      376.540      156.982        0.254        0.051       63.133       11.647        0.034      328.049       -6.093      859.295
12/15/2021  02:20:00      -33.187       36.567       -4.398       22.330        9.949       12.549      498.641       98.991      157.465        0.161        0.038       49.381       11.083        0.050      327.963       -6.231      859.259
12/15/2021  02:21:00      -48.918       31.644      -10.653       25.815       20.815       19.501      666.426      433.262      380.298        0.249        0.074       58.261       16.190        0.077      327.985       -6.197      859.238
12/15/2021  02:22:00        0.596      -23.616      -10.089       15.511       16.400       14.660      240.594      268.972      214.916        0.069        0.036       23.624        5.717        0.059      328.012       -6.154      859.236
12/15/2021  02:23:00      -31.356       29.818      -11.958       15.820        8.734       10.891      250.288       76.290      118.616        0.123        0.022       43.270        5.436        0.016      327.897       -6.340      859.240
12/15/2021  02:24:00       20.255        9.709       -4.698       22.278       23.680       14.180      496.299      560.746      201.080        0.089        0.063       22.462       12.960        0.333      327.914       -6.311      859.240
12/15/2021  02:25:00       35.007       -5.353       -5.957       39.653       41.698       29.826     1572.341     1738.688      889.573        0.274        0.210       35.414       26.590        0.564      328.118       -5.980      859.226
12/15/2021  02:26:00       44.960       28.484      -18.412       50.634       59.146       30.198     2563.812     3498.192      911.910        0.507        0.349       53.224       23.099        0.188      327.978       -6.208      859.199
12/15/2021  02:27:00       53.887       14.125      -16.660       41.756       43.620       34.845     1743.597     1902.722     1214.194        0.412        0.243       55.707       27.477        0.243      327.993       -6.184      859.174
12/15/2021  02:28:00       13.855      -11.592        1.731       29.357       37.886       19.658      861.809     1435.368      386.431        0.151        0.134       18.064        5.441        0.091      328.047       -6.096      859.174
12/15/2021  02:29:00      101.632       16.745      -16.081       18.781       18.693        9.587      352.727      349.433       91.902        0.583        0.040      103.002        6.265        0.004      327.695       -6.670      859.201
12/15/2021  02:30:00       90.229       15.302      -14.330       17.812       14.037       11.627      317.280      197.036      135.198        0.462        0.032       91.518        8.580        0.009      327.694       -6.670      859.209
12/15/2021  02:31:00       57.692       25.622       -8.560       15.299       16.752       12.182      234.072      280.641      148.391        0.236        0.033       63.126        8.869        0.020      327.708       -6.648      859.205
12/15/2021  02:32:00       67.753       17.822       -6.458       18.010       20.503       11.355      324.357      420.389      128.944        0.291        0.044       70.058        6.024        0.007      327.689       -6.679      859.192
12/15/2021  02:33:00       72.834       17.296       -6.501       22.128       15.325       14.867      489.658      234.842      221.022        0.330        0.047       74.860       11.460        0.023      327.712       -6.639      859.161
12/15/2021  02:34:00       29.528       -0.234       -7.366       25.487       22.629       15.533      649.569      512.091      241.260        0.116        0.070       29.529        5.747        0.038      327.821       -6.464      859.163
12/15/2021  02:35:00       71.204       12.724      -17.436       24.460       15.207       10.614      598.273      231.238      112.650        0.324        0.047       72.332        8.715        0.015      327.699       -6.663      859.177
12/15/2021  02:36:00       52.299      -12.501       -3.391       27.268       23.595       16.186      743.560      556.705      261.971        0.223        0.078       53.773       17.193        0.102      327.802       -6.495      859.202
12/15/2021  02:37:00       81.042       29.515      -19.208       21.269       30.037       13.150      452.389      902.221      172.922        0.467        0.076       86.249        9.572        0.012      327.796       -6.504      859.240
12/15/2021  02:38:00       95.091       54.528      -33.496       17.753       17.128       18.535      315.161      293.381      343.559        0.704        0.048      109.615        8.793        0.006      327.799       -6.500      859.258
12/15/2021  02:39:00       91.841       52.026      -33.117       25.500       29.335       18.697      650.273      860.523      349.563        0.705        0.093      105.553       10.315        0.010      327.823       -6.460      859.283
12/15/2021  02:40:00       96.574       34.440       -8.819       24.662       16.241       13.994      608.199      263.768      195.826        0.583        0.053      102.531       13.365        0.017      327.706       -6.651      859.313
12/15/2021  02:41:00       81.507       11.853      -12.673       19.488       21.078       15.286      379.771      444.266      233.676        0.400        0.053       82.365        8.594        0.011      327.753       -6.574      859.340
12/15/2021  02:42:00       71.584       13.303      -12.050       20.158       18.210       14.869      406.360      331.620      221.099        0.320        0.048       72.810        6.378        0.008      327.764       -6.557      859.354
12/15/2021  02:43:00       76.040       -6.433      -12.803       39.160       21.389       18.774     1533.535      457.498      352.468        0.416        0.117       76.311       16.721        0.048      327.833       -6.444      859.382
12/15/2021  02:44:00      120.053       23.621      -19.211       28.743       27.180       16.242      826.172      738.760      263.805        0.858        0.091      122.355       10.473        0.007      327.826       -6.457      859.419
12/15/2021  02:45:00      102.563      -19.209      -12.749       43.798       33.440       25.382     1918.229     1118.229      644.223        0.736        0.184      104.346       16.431        0.025      327.846       -6.424      859.426
12/15/2021  02:46:00       55.972       19.400      -16.500       34.454       25.960       20.270     1187.072      673.924      410.871        0.303        0.114       59.239       18.967        0.103      327.850       -6.417      859.453
12/15/2021  02:47:00       16.150       42.425       -4.831       28.410       23.961       16.430      807.121      574.114      269.955        0.187        0.083       45.395       14.395        0.101      327.845       -6.425      859.465
12/15/2021  02:48:00      -57.052       69.970      -11.840       35.082       40.773       20.901     1230.718     1662.424      436.833        0.581        0.166       90.282       18.407        0.042      327.764       -6.557      859.439
12/15/2021  02:49:00     -125.179       62.218      -20.492       56.211       41.296       24.037     3159.665     1705.386      577.800        1.270        0.272      139.789       13.724        0.010      327.590       -6.840      859.394
12/15/2021  02:50:00      -38.941       64.288      -11.513       40.655       38.546       20.139     1652.861     1485.757      405.597        0.466        0.177       75.163       15.583        0.043      327.618       -6.795      859.338
12/15/2021  02:51:00       28.113       73.039       -6.057       30.763       35.664       18.971      946.372     1271.955      359.884        0.437        0.129       78.263       17.396        0.049      327.773       -6.541      859.311
12/15/2021  02:52:00       72.580       48.846      -11.723       20.525       23.725       14.194      421.294      562.883      201.467        0.449        0.059       87.486       12.204        0.019      327.643       -6.754      859.323
12/15/2021  02:53:00       84.140       28.132       -8.957       25.261       23.918       16.880      638.107      572.087      284.923        0.472        0.075       88.719        8.341        0.009      327.714       -6.639      859.364
12/15/2021  02:54:00       50.177       28.967      -14.048       21.826       17.363        9.757      476.372      301.488       95.205        0.221        0.044       57.939        8.101        0.020      327.722       -6.626      859.396
12/15/2021  02:55:00       30.560       46.568       -8.442       28.577       27.772       12.621      816.656      771.270      159.290        0.246        0.087       55.700       13.710        0.061      327.876       -6.375      859.396
12/15/2021  02:56:00      -42.866       46.587      -10.291       39.369       26.889       16.316     1549.951      723.014      266.224        0.333        0.127       63.308       11.917        0.035      327.858       -6.403      859.410
12/15/2021  02:57:00     -130.222       48.024      -20.238       49.624       25.909       19.684     2462.556      671.293      387.443        1.160        0.176      138.795       23.132        0.028      327.728       -6.615      859.437
12/15/2021  02:58:00     -109.722       52.345      -15.680       40.678       26.071       24.268     1654.685      679.711      588.948        0.897        0.146      121.569       22.167        0.033      327.743       -6.591      859.422
12/15/2021  02:59:00      -47.382       26.591      -11.311       33.067       25.538       20.294     1093.410      652.173      411.855        0.262        0.108       54.333       16.123        0.088      327.798       -6.503      859.378
12/15/2021  03:00:00        0.266       62.871       -9.444       21.044       35.978       16.999      442.837     1294.381      288.983        0.303        0.101       62.872       13.430        0.046      327.947       -6.258      859.336
12/15/2021  03:01:00       24.745       50.263      -11.554       26.983       19.340       13.129      728.071      374.049      172.370        0.227        0.064       56.024       10.234        0.033      327.933       -6.280      859.345
12/15/2021  03:02:00       31.489       17.772      -17.618       23.765       22.585       21.627      564.772      510.088      467.740        0.158        0.077       36.158       11.130        0.095      328.034       -6.117      859.390
12/15/2021  03:03:00       34.033        0.099      -20.780       23.082       24.771       15.825      532.768      613.611      250.420        0.149        0.070       34.033        8.426        0.061      328.068       -6.062      859.425
12/15/2021  03:04:00       51.884        1.429      -15.429       28.985       25.393       20.128      840.141      644.795      405.120        0.241        0.095       51.904       14.472        0.078      328.116       -5.983      859.412
12/15/2021  03:05:00       65.509      -11.959      -10.171       48.222       38.374       31.667     2325.351     1472.533     1002.775        0.467        0.240       66.592       27.746        0.174      328.154       -5.922      859.359
12/15/2021  03:06:00       -0.644       -6.992       -7.356       37.588       25.601       27.596     1412.871      655.418      761.536        0.147        0.141        7.022        6.097        0.754      328.303       -5.679      859.373
12/15/2021  03:07:00      -33.186      -42.979      -10.733       28.282       15.978       15.497      799.896      255.293      240.155        0.218        0.065       54.300       13.052        0.058      328.092       -6.024      859.443
12/15/2021  03:08:00      -28.044       32.993       -3.759       17.329       19.403       15.411      300.290      376.463      237.493        0.140        0.046       43.302        4.906        0.013      328.105       -6.002      859.485
12/15/2021  03:09:00      -40.876       54.988       -5.559       33.750       16.085       11.633     1139.040      258.723      135.330        0.313        0.077       68.517       10.265        0.022      328.106       -6.001      859.511
12/15/2021  03:10:00      -40.680       54.483      -10.822       30.602       22.337       15.069      936.492      498.936      227.082        0.320        0.083       67.995       11.755        0.030      328.163       -5.908      859.514
12/15/2021  03:11:00      -36.391       48.020      -24.563       26.534       23.032       23.932      704.030      530.455      572.764        0.302        0.090       60.251       16.273        0.073      328.201       -5.845      859.528
12/15/2021  03:12:00      -13.603       -4.448      -14.829       32.314       26.373       19.044     1044.175      695.525      362.681        0.126        0.105       14.312       17.302        1.462      328.208       -5.834      859.571
12/15/2021  03:13:00      -44.442       16.078      -17.043       29.516       17.087       14.676      871.208      291.978      215.376        0.195        0.069       47.261       11.062        0.055      328.068       -6.062      859.624
12/15/2021  03:14:00       25.340       11.326      -11.637       45.562       24.484       11.690     2075.878      599.460      136.663        0.186        0.141       27.756       13.677        0.243      328.094       -6.021      859.648
12/15/2021  03:15:00       90.569       12.997      -13.466       63.555       28.406       26.327     4039.252      806.887      693.126        0.705        0.277       91.497       27.631        0.091      328.280       -5.716      859.633
12/15/2021  03:16:00       93.740      -23.342      -21.641       61.392       33.383       29.842     3769.035     1114.424      890.529        0.779        0.289       96.602       23.642        0.060      328.309       -5.670      859.623
12/15/2021  03:17:00      114.830       47.771      -10.424       42.281       37.675       21.873     1787.725     1419.442      478.409        0.963        0.184      124.370       18.824        0.023      328.184       -5.873      859.596
12/15/2021  03:18:00       51.688       76.759       -4.765       45.054       32.482       28.292     2029.845     1055.063      800.459        0.624        0.194       92.539       23.638        0.065      328.182       -5.877      859.584
12/15/2021  03:19:00      -18.760       89.760      -15.661       57.800       59.895       30.934     3340.846     3587.414      956.889        0.827        0.394       91.700       24.263        0.070      328.373       -5.565      859.613
12/15/2021  03:20:00      -99.661       63.842      -28.597       44.835       33.556       23.347     2010.221     1126.017      545.084        0.925        0.184      118.356       18.479        0.024      328.229       -5.799      859.657
12/15/2021  03:21:00      -56.815       45.743      -19.051       50.264       46.691       31.909     2526.466     2180.086     1018.194        0.570        0.286       72.941       22.827        0.098      328.251       -5.764      859.687
12/15/2021  03:22:00       -2.527       -4.219      -15.395       28.994       27.249       28.990      840.672      742.492      840.426        0.134        0.121        4.918       16.624       11.425      328.230       -5.798      859.657
12/15/2021  03:23:00       11.280       15.461      -21.914       13.627       23.978       13.662      185.698      574.937      186.652        0.090        0.047       19.138        4.225        0.049      328.246       -5.774      859.587
12/15/2021  03:24:00       29.867       25.001       -9.591       36.863       41.843       29.769     1358.904     1750.810      886.215        0.280        0.200       38.950       18.365        0.222      328.418       -5.493      859.493
12/15/2021  03:25:00       68.540        4.614      -16.233       53.204       52.731       27.084     2830.625     2780.573      733.524        0.566        0.317       68.695       19.927        0.084      328.407       -5.510      859.438
12/15/2021  03:26:00       95.376       -7.888      -18.272       61.935       51.162       43.018     3835.889     2617.510     1850.589        0.890        0.415       95.701       37.586        0.154      328.372       -5.567      859.419
12/15/2021  03:27:00       83.027       10.022      -15.429       41.955       45.210       32.122     1760.223     2043.902     1031.838        0.603        0.242       83.630       18.713        0.050      328.212       -5.827      859.443
12/15/2021  03:28:00       53.993        4.629      -13.168       36.016       30.239       17.096     1297.159      914.377      292.272        0.281        0.125       54.191        7.016        0.017      328.152       -5.927      859.466
12/15/2021  03:29:00      -49.495       23.580      -11.338       52.210       60.483       32.771     2725.916     3658.135     1073.927        0.529        0.373       54.824       17.410        0.101      328.214       -5.824      859.508
12/15/2021  03:30:00     -117.156       30.710       -6.927      109.733       52.260       48.671    12041.397     2731.072     2368.891        1.593        0.857      121.114       52.853        0.190      328.349       -5.606      859.527
12/15/2021  03:31:00     -111.228       43.374        1.070      114.058       58.593       41.694    13009.142     3433.175     1738.415        1.621        0.909      119.385       41.510        0.121      328.341       -5.619      859.558
12/15/2021  03:32:00      -38.573       13.637      -13.102       76.651       55.626       43.874     5875.365     3094.297     1924.927        0.637        0.545       40.913       31.950        0.610      328.345       -5.610      859.610
12/15/2021  03:33:00       14.231      -16.166      -17.700       34.517       48.184       31.564     1191.407     2321.718      996.276        0.264        0.225       21.538       23.586        1.199      328.455       -5.430      859.595
12/15/2021  03:34:00      101.151       25.628      -21.888       58.977       58.870       39.297     3478.332     3465.712     1544.278        0.993        0.424      104.348       13.076        0.016      328.701       -5.032      859.525
12/15/2021  03:35:00      241.614       24.190      -16.042       54.481       40.961       28.812     2968.131     1677.820      830.127        3.235        0.274      242.822       23.819        0.010      328.550       -5.283      859.438
12/15/2021  03:36:00      122.818        5.619      -14.723      117.256       56.168       43.152    13749.060     3154.879     1862.111        1.705        0.938      122.946       36.170        0.087      328.566       -5.252      859.380
12/15/2021  03:37:00       28.840      -21.177      -13.658       43.516       56.224       38.134     1893.657     3161.083     1454.175        0.399        0.325       35.780       25.474        0.507      328.596       -5.202      859.466
12/15/2021  03:38:00       11.517       13.330       -2.437       42.864       29.248       31.747     1837.346      855.427     1007.867        0.201        0.185       17.616       22.777        1.672      328.421       -5.485      859.541
12/15/2021  03:39:00      -41.011       27.183      -13.622       33.983       61.577       25.172     1154.814     3791.728      633.620        0.409        0.279       49.202       13.652        0.077      328.567       -5.248      859.596
12/15/2021  03:40:00      -59.452       -6.595       -7.588       60.921       65.964       42.266     3711.424     4351.282     1786.385        0.674        0.492       59.817       29.342        0.241      328.602       -5.192      859.669
12/15/2021  03:41:00      -88.388       -2.203       -7.440       63.584       35.060       31.916     4042.877     1229.220     1018.660        0.708        0.315       88.416       31.698        0.129      328.618       -5.165      859.689
12/15/2021  03:42:00      -96.025      -20.562       -9.884       39.013       38.661       22.698     1522.037     1494.683      515.188        0.664        0.177       98.202       18.469        0.035      328.702       -5.029      859.720
12/15/2021  03:43:00     -101.920      -28.193      -18.155       30.845       34.122       18.867      951.399     1164.311      355.967        0.699        0.124      105.747       15.513        0.022      328.707       -5.022      859.775
12/15/2021  03:44:00      -29.553        5.408       -1.795       23.380       12.341        6.611      546.642      152.289       43.705        0.082        0.037       30.044        7.831        0.068      328.652       -5.109      859.800
12/15/2021  03:45:00       91.095       48.157      -22.511       39.032       36.363       18.928     1523.523     1322.270      358.272        0.716        0.160      103.041       15.776        0.023      328.700       -5.035      859.772
12/15/2021  03:46:00      153.243       54.626      -25.104       59.361       59.600       23.985     3523.761     3552.107      575.296        1.737        0.383      162.688       19.962        0.015      328.800       -4.868      859.702
12/15/2021  03:47:00      101.693       20.832       -9.133       77.944       60.879       35.801     6075.221     3706.298     1281.745        1.096        0.553      103.805       22.469        0.047      328.878       -4.743      859.709
12/15/2021  03:48:00       10.152     -119.372      -41.187       50.921       43.483       29.758     2592.942     1890.757      885.529        1.071        0.268      119.803       16.976        0.020      328.932       -4.652      859.825
12/15/2021  03:49:00      -51.994      -69.912      -20.966       91.371       48.770       29.786     8348.608     2378.532      887.190        0.982        0.581       87.127       22.994        0.070      328.915       -4.683      859.880
12/15/2021  03:50:00      110.559     -152.893      -40.181       45.700       55.649       37.031     2088.457     3096.776     1371.312        2.188        0.328      188.678       31.198        0.027      328.631       -5.145      859.829
12/15/2021  03:51:00      112.702     -130.907      -43.847       46.220       54.935       31.488     2136.305     3017.808      991.464        1.895        0.307      172.738       26.735        0.024      328.663       -5.094      859.813
12/15/2021  03:52:00      130.766     -113.078      -50.044       51.417       74.629       40.298     2643.725     5569.446     1623.940        2.111        0.492      172.876       38.951        0.051      328.552       -5.275      859.836
12/15/2021  03:53:00      110.625     -170.585      -54.265       57.138       82.099       40.040     3264.712     6740.254     1603.200        2.794        0.580      203.315       30.800        0.023      328.546       -5.287      859.843
12/15/2021  03:54:00       99.481     -118.045      -36.725       43.333       51.736       27.561     1877.740     2676.650      759.593        1.525        0.266      154.373       28.544        0.034      328.537       -5.299      859.809
12/15/2021  03:55:00       63.312      -17.117      -13.936       45.281       39.306       22.239     2050.407     1544.966      494.558        0.429        0.204       65.585       15.576        0.056      328.523       -5.320      859.840
12/15/2021  03:56:00       66.353      -96.658      -23.485       56.624       72.055       40.977     3206.318     5191.991     1679.127        1.219        0.504      117.241       49.533        0.178      328.867       -4.760      859.931
12/15/2021  03:57:00      188.217     -255.503      -80.280       49.891       61.278       32.635     2489.125     3754.994     1065.044        5.723        0.365      317.344       26.302        0.007      328.474       -5.407      859.785
12/15/2021  03:58:00      191.243     -243.516      -68.285       49.759       91.025       33.084     2475.974     8285.571     1094.545        5.619        0.593      309.635       33.736        0.012      328.464       -5.423      859.758
12/15/2021  03:59:00      117.076      -13.432      -32.908       98.929      104.590       68.752     9786.928    10939.132     4726.804        2.021        1.273      117.844       61.153        0.269      328.687       -5.054      859.780
12/15/2021  04:00:00       89.143      -12.083      -13.474       55.218       47.725       31.780     3049.075     2277.671     1009.956        0.730        0.317       89.959       18.697        0.043      328.546       -5.283      859.858
12/15/2021  04:01:00      -31.348      -18.574      -15.390       58.738       59.833       44.143     3450.134     3580.040     1948.591        0.527        0.449       36.437       28.628        0.617      328.943       -4.635      859.868
12/15/2021  04:02:00     -203.604       90.402       -2.800      103.881       77.123       55.244    10791.166     5947.949     3051.927        3.471        0.990      222.771       47.762        0.046      328.462       -5.422      860.019
12/15/2021  04:03:00     -283.637      133.617      -31.231       88.856       70.958       56.669     7895.368     5035.094     3211.422        5.771        0.807      313.534       45.814        0.021      328.429       -5.477      860.040
12/15/2021  04:04:00     -194.315       62.164      -32.039       66.023       69.141       35.386     4359.025     4780.433     1252.160        2.652        0.520      204.017       23.014        0.013      328.489       -5.378      860.018
12/15/2021  04:05:00      -78.540        5.229       -3.992       86.472       41.746       31.575     7477.480     1742.689      996.970        0.821        0.511       78.714       37.340        0.225      328.509       -5.345      860.004
12/15/2021  04:06:00       -8.785       -9.954      -13.815       24.887       27.938       14.057      619.379      780.538      197.599        0.098        0.080       13.276        6.432        0.235      328.564       -5.255      859.977
12/15/2021  04:07:00      -82.152      -25.416      -25.267       49.487       36.390       23.454     2448.952     1324.204      550.080        0.618        0.216       85.994       17.839        0.043      328.769       -4.920      860.002
12/15/2021  04:08:00      -32.067       -3.933        3.807       42.653       33.058       25.639     1819.309     1092.828      657.364        0.231        0.178       32.308       14.279        0.195      328.706       -5.023      860.013
12/15/2021  04:09:00      -81.365       -4.059       -6.810       81.509       38.382       31.870     6643.688     1473.169     1015.706        0.791        0.457       81.466       32.575        0.160      328.661       -5.096      860.029
12/15/2021  04:10:00      -26.601      -21.045      -17.723       50.579       50.707       22.474     2558.187     2571.188      505.061        0.355        0.282       33.919       18.355        0.293      328.704       -5.025      859.981
12/15/2021  04:11:00       32.859      -45.513      -28.504       36.417       61.607       32.957     1326.225     3795.382     1086.138        0.508        0.310       56.135       20.479        0.133      328.644       -5.122      859.982
12/15/2021  04:12:00      -33.716       23.324       -3.908       61.218       36.132       19.814     3747.616     1305.528      392.605        0.357        0.272       40.997       17.732        0.187      328.754       -4.945      860.028
12/15/2021  04:13:00      -35.261       -4.730      -15.817       48.877       38.861       27.861     2388.971     1510.180      776.233        0.309        0.234       35.577       16.683        0.220      328.640       -5.130      860.069
12/15/2021  04:14:00      -73.740       43.910      -10.078       33.066       25.905       17.728     1093.343      671.078      314.291        0.477        0.104       85.824       14.608        0.029      328.527       -5.315      860.046
12/15/2021  04:15:00      -28.351       17.132       -0.564       32.431       21.078       18.510     1051.782      444.286      342.621        0.147        0.092       33.125       10.427        0.099      328.539       -5.295      860.052
12/15/2021  04:16:00       39.811       -9.599       -2.494       38.929       42.879       21.582     1515.490     1838.632      465.776        0.275        0.191       40.951       17.654        0.186      328.670       -5.081      860.069
12/15/2021  04:17:00      -25.425       51.455       -7.897       43.550       32.879       26.228     1896.588     1081.046      687.903        0.351        0.183       57.394       24.991        0.190      328.600       -5.197      860.076
12/15/2021  04:18:00      -75.752       10.251      -15.215       82.435       39.402       32.996     6795.546     1552.511     1088.745        0.775        0.472       76.442       32.877        0.185      328.621       -5.160      860.116
12/15/2021  04:19:00       -3.130      -26.888        6.692       38.079       39.001       31.121     1449.980     1521.060      968.538        0.236        0.197       27.070       30.236        1.248      328.612       -5.173      860.078
12/15/2021  04:20:00      -73.241        6.409      -14.990       87.338       45.288       38.325     7627.967     2050.984     1468.812        0.839        0.557       73.521       35.575        0.234      328.647       -5.119      860.062
12/15/2021  04:21:00     -106.924        0.495      -22.628       70.613       46.422       35.511     4986.233     2155.044     1261.020        1.017        0.420      106.925       34.219        0.102      328.682       -5.061      860.003
12/15/2021  04:22:00     -169.401       -9.983       -8.718      100.632       51.751       53.720    10126.858     2678.144     2885.842        2.228        0.785      169.695       52.853        0.097      328.791       -4.886      860.023
12/15/2021  04:23:00     -193.633       30.331      -19.877       77.264       55.901       37.718     5969.668     3124.887     1422.642        2.466        0.526      195.994       39.841        0.041      328.998       -4.548      860.012
12/15/2021  04:24:00     -102.593       17.960       -2.008       75.798       57.835       40.322     5745.298     3344.850     1625.866        1.078        0.536      104.153       36.411        0.122      329.183       -4.244      859.993
12/15/2021  04:25:00     -118.163        2.900       -9.619       71.193       55.105       33.190     5068.457     3036.604     1101.591        1.163        0.460      118.198       30.809        0.068      329.337       -3.993      860.018
12/15/2021  04:26:00     -173.666        0.212      -19.102       63.851       56.042       43.156     4076.964     3140.684     1862.472        1.980        0.454      173.666       29.653        0.029      329.409       -3.875      860.101
12/15/2021  04:27:00     -281.896      -73.688      -10.920      137.883      133.108       79.620    19011.636    17717.771     6339.394        6.403        2.153      291.368       72.789        0.062      329.358       -3.960      860.208
12/15/2021  04:28:00     -261.713     -184.610      -40.301      108.869      139.690       72.635    11852.478    19513.348     5275.819        7.041        1.832      320.273       69.066        0.047      328.977       -4.583      860.206
12/15/2021  04:29:00      -42.625      -57.342      -29.844       91.784       60.353       55.972     8424.332     3642.459     3132.902        1.059        0.760       71.449       30.902        0.187      328.972       -4.588      860.131
12/15/2021  04:30:00     -142.231      -56.376      -14.758       91.883       61.406       48.289     8442.575     3770.718     2331.835        1.908        0.727      152.997       41.488        0.074      328.808       -4.858      860.212
12/15/2021  04:31:00      -98.528      -56.075      -10.545       97.928       95.339       49.713     9589.889     9089.488     2471.355        1.705        1.058      113.368       44.749        0.156      328.781       -4.901      860.359
12/15/2021  04:32:00     -117.228     -188.873      -19.358       81.649       79.669       35.904     6666.615     6347.173     1289.105        3.204        0.715      222.296       20.457        0.008      328.674       -5.077      860.400
12/15/2021  04:33:00       44.765      -98.410      -32.213       65.428       87.321       54.430     4280.804     7624.936     2962.636        1.379        0.743      108.113       40.494        0.140      328.948       -4.629      860.274
12/15/2021  04:34:00      -47.443     -137.456      -31.480      102.878       76.859       46.148    10583.912     5907.301     2129.612        2.037        0.931      145.413       31.659        0.047      328.933       -4.652      860.255
12/15/2021  04:35:00      -56.617     -104.280      -44.301       65.524       49.051       41.943     4293.454     2405.958     1759.249        1.225        0.423      118.659       26.131        0.048      328.843       -4.799      860.248
12/15/2021  04:36:00      -37.471      -54.101        0.089       51.787       57.099       33.591     2681.875     3260.276     1128.375        0.570        0.354       65.810       17.409        0.070      328.878       -4.742      860.256
12/15/2021  04:37:00      -26.851      -65.557      -33.870       36.540       35.432       24.631     1335.153     1255.392      606.669        0.468        0.160       70.843       13.659        0.037      328.843       -4.797      860.227
12/15/2021  04:38:00      -17.662       -9.298       -4.558       30.783       26.320       18.146      947.603      692.752      329.261        0.119        0.098       19.960       15.498        0.603      328.795       -4.878      860.188
12/15/2021  04:39:00       24.410        1.676      -26.451       38.644       38.871       25.979     1493.351     1510.969      674.887        0.249        0.184       24.468       10.012        0.167      328.894       -4.714      860.138
12/15/2021  04:40:00       48.594      -89.572      -28.543       55.369       73.036       27.500     3065.694     5334.227      756.250        1.018        0.458      101.905       15.946        0.024      328.930       -4.656      860.158
12/15/2021  04:41:00      115.666     -144.674      -39.153       44.204       41.253       29.079     1953.990     1701.838      845.582        2.017        0.225      185.227       24.044        0.017      328.548       -5.281      860.164
12/15/2021  04:42:00       71.295     -160.646      -36.306       55.181       60.113       37.614     3044.891     3613.568     1414.795        2.014        0.404      175.756       28.247        0.026      328.671       -5.081      860.257
12/15/2021  04:43:00      -12.373      -51.011       -6.600       69.889       43.819       44.018     4884.490     1920.113     1937.589        0.577        0.437       52.490       21.155        0.162      328.792       -4.884      860.270
12/15/2021  04:44:00       70.378     -101.244      -10.381       71.751       84.785       46.146     5148.226     7188.562     2129.483        1.489        0.723      123.302       47.415        0.148      328.569       -5.246      860.177
12/15/2021  04:45:00       80.301     -197.484      -31.076       52.681       97.202       33.793     2775.304     9448.177     1141.976        2.989        0.668      213.186       39.348        0.034      328.570       -5.248      860.179
12/15/2021  04:46:00       25.942      -32.378       -7.686       81.445       57.579       36.704     6633.315     3315.377     1347.184        0.654        0.565       41.489       45.608        1.208      328.591       -5.210      860.163
12/15/2021  04:47:00       -6.645       80.585      -17.928       32.526       23.937       27.193     1057.964      572.962      739.464        0.461        0.119       80.858        5.714        0.005      328.703       -5.027      860.097
12/15/2021  04:48:00       90.398       36.807      -14.406       49.245       53.099       29.443     2425.022     2819.531      866.891        0.792        0.306       97.604       19.301        0.039      328.714       -5.008      860.031
12/15/2021  04:49:00       11.539      -68.419      -32.139       43.203       37.110       24.418     1866.480     1377.186      596.246        0.484        0.192       69.385       16.734        0.058      328.970       -4.591      860.025
12/15/2021  04:50:00      -35.978       -9.505       -5.011       53.896       43.465       23.939     2904.832     1889.208      573.060        0.339        0.268       37.212       11.795        0.100      328.774       -4.911      859.974
12/15/2021  04:51:00      -10.528        2.450       -8.815       31.216       42.233       32.656      974.419     1783.618     1066.395        0.201        0.191       10.809        5.941        0.302      328.737       -4.971      859.966
12/15/2021  04:52:00      -18.355      -15.939       -1.164       46.022       22.602       26.016     2117.983      510.870      676.816        0.195        0.165       24.310       16.740        0.474      328.800       -4.869      859.959
12/15/2021  04:53:00      -37.273       -6.243        0.178       27.954       23.352       19.440      781.446      545.321      377.911        0.157        0.085       37.792        7.891        0.044      328.837       -4.808      859.928
12/15/2021  04:54:00        1.413       30.601       -6.209       49.730       36.414       20.028     2473.084     1325.976      401.103        0.259        0.210       30.633       18.947        0.383      328.740       -4.969      859.874
12/15/2021  04:55:00       44.596      -13.509       -5.743       53.439       41.080       24.586     2855.700     1687.602      604.494        0.368        0.257       46.597       25.236        0.293      328.718       -5.003      859.770
12/15/2021  04:56:00      133.171       23.275        1.468       70.220       50.753       34.138     4930.787     2575.912     1165.379        1.347        0.434      135.190       38.502        0.081      328.532       -5.307      859.660
12/15/2021  04:57:00      115.470       10.375       -4.140       79.733       43.116       41.850     6357.285     1859.032     1751.462        1.171        0.498      115.935       34.133        0.087      328.470       -5.408      859.570
12/15/2021  04:58:00      137.740       15.332       -7.110       63.005       45.762       27.815     3969.685     2094.132      773.653        1.305        0.342      138.591       21.135        0.023      328.385       -5.545      859.513
12/15/2021  04:59:00      152.895       45.809       -7.039       41.056       31.048       25.968     1685.612      963.996      674.348        1.442        0.166      159.609       20.341        0.016      328.330       -5.635      859.500
12/15/2021  05:00:00      121.229       58.249      -11.764       41.627       25.860       18.872     1732.776      668.743      356.166        1.049        0.138      134.497       13.046        0.009      328.364       -5.580      859.483
12/15/2021  05:01:00       55.703      -15.793      -14.439       41.884       26.227       15.900     1754.289      687.838      252.823        0.313        0.135       57.899        7.099        0.015      328.433       -5.467      859.550
12/15/2021  05:02:00       35.314       -8.770       -7.899       24.012       36.861       14.386      576.581     1358.708      206.947        0.176        0.107       36.386       15.612        0.184      328.420       -5.488      859.660
12/15/2021  05:03:00       73.491       17.130      -28.782       34.868       56.110       26.001     1215.770     3148.304      676.031        0.578        0.252       75.461       24.882        0.109      328.531       -5.309      859.737
12/15/2021  05:04:00       77.434       19.599      -32.584       50.369       63.444       39.637     2537.086     4025.119     1571.120        0.779        0.407       79.876       16.402        0.042      328.740       -4.966      859.807
12/15/2021  05:05:00       82.637      -10.769      -19.711       60.408       58.443       36.662     3649.129     3415.631     1344.066        0.787        0.420       83.335       31.109        0.139      328.608       -5.181      859.882
12/15/2021  05:06:00       38.525      -53.616      -20.196       45.608       62.933       31.345     2080.051     3960.559      982.489        0.589        0.351       66.022       24.385        0.136      328.625       -5.154      860.044
12/15/2021  05:07:00       44.126     -137.626      -31.982       56.314       55.499       24.227     3171.254     3080.131      586.947        1.437        0.342      144.527       23.105        0.026      328.696       -5.039      860.208
12/15/2021  05:08:00      124.900     -149.453      -56.996       42.551       85.590       28.256     1810.589     7325.673      798.402        2.556        0.497      194.772       26.469        0.018      328.565       -5.255      860.259
12/15/2021  05:09:00      181.477     -221.347      -71.429       88.868      108.150       41.163     7897.534    11696.401     1694.397        5.416        1.064      286.231       41.742        0.021      328.702       -5.032      860.234
12/15/2021  05:10:00      165.429     -344.314      -71.957       87.041       92.494       56.094     7576.092     8555.073     3146.506        8.518        0.964      381.994       54.098        0.020      328.618       -5.169      860.205
12/15/2021  05:11:00      135.764     -146.643      -54.563       56.297       91.677       37.257     3169.315     8404.724     1388.048        2.794        0.648      199.840       41.358        0.043      328.611       -5.181      860.170
12/15/2021  05:12:00       48.375      -32.226      -26.781       47.097       45.888       28.798     2218.115     2105.744      829.351        0.462        0.258       58.126       21.334        0.135      328.844       -4.798      860.091
12/15/2021  05:13:00       54.254      -28.603      -31.860       25.755       40.671       19.729      663.304     1654.143      389.236        0.374        0.135       61.332       15.599        0.065      328.621       -5.162      860.000
12/15/2021  05:14:00       46.084       25.577      -24.712       33.309       34.244       17.046     1109.464     1172.677      290.552        0.298        0.129       52.706       12.022        0.052      328.737       -4.972      860.025
12/15/2021  05:15:00       39.099      -69.292      -34.805       51.821       66.309       26.181     2685.434     4396.912      685.422        0.765        0.388       79.562       22.449        0.080      328.707       -5.021      860.130
12/15/2021  05:16:00       71.364     -153.794      -27.958       50.932       54.772       33.140     2594.102     2999.992     1098.233        1.811        0.335      169.545       19.408        0.013      328.782       -4.899      860.268
12/15/2021  05:17:00       19.783      -70.441      -23.727       86.320       76.197       31.599     7451.072     5806.055      998.518        1.008        0.713       73.166       12.398        0.029      328.948       -4.627      860.321
12/15/2021  05:18:00       -4.667       -3.983       -9.909       33.475       29.114       26.786     1120.569      847.613      717.471        0.141        0.134        6.136       10.574        2.970      329.047       -4.464      860.271
12/15/2021  05:19:00       32.920      -26.657      -22.849       21.354       28.600       16.591      456.002      817.974      275.251        0.193        0.077       42.360        8.445        0.040      328.736       -4.972      860.224
12/15/2021  05:20:00        5.059       22.635      -20.851       17.634       13.141       13.017      310.965      172.674      169.438        0.081        0.033       23.194        8.020        0.120      328.740       -4.968      860.261
12/15/2021  05:21:00       -9.371        1.513      -15.356       21.004       19.749       24.455      441.157      390.013      598.048        0.088        0.071        9.492       12.023        1.604      328.775       -4.907      860.270
12/15/2021  05:22:00       59.511     -129.538      -22.363       27.949       37.171       20.993      781.126     1381.686      440.715        1.171        0.130      142.554       24.026        0.028      328.728       -4.986      860.251
12/15/2021  05:23:00       41.390      -55.098      -17.968       31.920       47.988       20.352     1018.917     2302.850      414.199        0.440        0.187       68.913       20.605        0.089      328.748       -4.952      860.265
12/15/2021  05:24:00      -88.415       46.804      -11.162       65.621       34.677       24.304     4306.069     1202.492      590.680        0.811        0.305      100.039       27.817        0.077      328.772       -4.915      860.320
12/15/2021  05:25:00      -59.946       -9.165       -1.342       45.131       34.740       29.656     2036.827     1206.841      879.496        0.390        0.206       60.642       22.001        0.132      328.811       -4.850      860.353
12/15/2021  05:26:00      -11.556       -5.086        8.236       31.825       22.970       15.955     1012.819      527.636      254.567        0.101        0.090       12.625        6.732        0.284      328.842       -4.799      860.305
12/15/2021  05:27:00      -16.870       18.235       -5.447       19.904       28.694       12.765      396.182      823.356      162.955        0.101        0.069       24.842       13.508        0.296      328.732       -4.982      860.314
12/15/2021  05:28:00      -20.116      -43.444      -15.658       29.677       40.136       24.172      880.728     1610.892      584.288        0.281        0.154       47.875       16.413        0.118      328.909       -4.692      860.426
12/15/2021  05:29:00        4.115      -23.886      -19.932       28.194       39.397       21.012      794.875     1552.137      441.495        0.189        0.139       24.238       23.208        0.917      328.799       -4.870      860.436
12/15/2021  05:30:00      -24.139       21.238       -6.892       16.560       17.524       14.798      274.233      307.105      218.980        0.094        0.040       32.152        4.280        0.018      328.839       -4.804      860.361
12/15/2021  05:31:00       25.627       42.863      -13.238       30.210       23.146       15.984      912.651      535.758      255.478        0.219        0.085       49.940       13.162        0.069      328.753       -4.945      860.353
12/15/2021  05:32:00       32.914       53.119       -7.765       33.991       21.100       18.173     1155.377      445.209      330.271        0.295        0.097       62.489       13.509        0.047      328.643       -5.125      860.378
12/15/2021  05:33:00       87.815       53.175       -7.993       46.028       24.414       27.758     2118.612      596.023      770.514        0.704        0.174      102.660       23.759        0.054      328.576       -5.234      860.365
12/15/2021  05:34:00       96.257       50.773      -28.539       43.237       43.137       31.412     1869.446     1860.826      986.692        0.869        0.236      108.827       22.440        0.043      328.776       -4.908      860.360
12/15/2021  05:35:00      122.100       71.250      -15.117       51.753       45.354       27.134     2678.387     2056.949      736.252        1.284        0.274      141.368       19.053        0.018      328.658       -5.099      860.381
12/15/2021  05:36:00      161.676       62.045      -21.041       56.666       64.038       34.159     3211.014     4100.853     1166.838        1.945        0.424      173.172       27.076        0.024      328.569       -5.247      860.361
12/15/2021  05:37:00      146.633       61.679      -22.431       65.291       49.607       30.560     4262.959     2460.850      933.899        1.673        0.383      159.077       21.530        0.018      328.539       -5.294      860.321
12/15/2021  05:38:00       14.903      -23.092      -14.382       26.031       44.455       26.506      677.603     1976.211      702.577        0.216        0.168       27.483       16.106        0.343      328.769       -4.919      860.356
12/15/2021  05:39:00      -56.805      -52.814      -13.261       74.170       73.479       39.278     5501.177     5399.103     1542.735        0.932        0.622       77.564       28.964        0.139      328.805       -4.860      860.448
12/15/2021  05:40:00      -92.090      -44.034       -7.390       50.701       56.427       27.274     2570.634     3183.996      743.897        0.849        0.325      102.076       25.819        0.064      328.846       -4.795      860.482
12/15/2021  05:41:00      -80.138        6.371        0.889       71.708       57.069       36.899     5142.105     3256.846     1361.519        0.811        0.488       80.391       33.148        0.170      328.849       -4.789      860.423
12/15/2021  05:42:00      -89.771        0.766        6.883       39.637       31.818       26.376     1571.059     1012.410      695.682        0.569        0.164       89.774       17.902        0.040      328.842       -4.799      860.281
12/15/2021  05:43:00      -23.472       -0.749        2.552       24.213       21.275       16.019      586.280      452.622      256.615        0.093        0.065       23.484       12.940        0.304      328.924       -4.666      860.180
12/15/2021  05:44:00      -14.826        7.840        6.390       25.465       23.984       21.017      648.450      575.253      441.723        0.099        0.083       16.771       10.341        0.380      329.063       -4.439      860.146
12/15/2021  05:45:00       19.108       10.494      -15.729       32.890       27.236       24.769     1081.732      741.797      613.513        0.158        0.122       21.801       19.333        0.786      329.079       -4.412      860.180
12/15/2021  05:46:00      -22.601      -16.309        1.505       40.681       33.008       20.317     1654.907     1089.520      412.772        0.197        0.158       27.870       13.465        0.233      329.041       -4.475      860.232
12/15/2021  05:47:00       84.863       31.188      -12.158       46.831       33.705       18.528     2193.153     1136.038      343.293        0.600        0.184       90.413        6.811        0.006      328.840       -4.804      860.229
12/15/2021  05:48:00       98.806        9.091      -10.166       39.039       32.990       24.205     1524.010     1088.344      585.892        0.657        0.160       99.223       15.645        0.025      328.759       -4.936      860.206
12/15/2021  05:49:00       57.466       27.682       -9.669       49.049       29.412       25.149     2405.770      865.084      632.497        0.403        0.195       63.786       19.086        0.090      328.707       -5.020      860.188
12/15/2021  05:50:00      -28.148       38.564      -14.475       30.765       11.000        8.136      946.512      121.004       66.191        0.181        0.057       47.744       10.155        0.045      328.709       -5.018      860.179
12/15/2021  05:51:00      -69.598       35.888      -18.034       37.726       29.992       18.393     1423.279      899.535      338.310        0.456        0.133       78.306       15.687        0.040      328.729       -4.984      860.190
12/15/2021  05:52:00      -12.990       -3.498      -15.233       57.354       36.196       25.703     3289.531     1310.171      660.655        0.284        0.263       13.452       13.927        1.072      328.867       -4.759      860.207
12/15/2021  05:53:00     -105.067       -1.338      -10.811       66.987       53.221       34.147     4487.317     2832.462     1166.020        0.982        0.424      105.075       22.018        0.044      328.666       -5.088      860.210
12/15/2021  05:54:00      -99.781       11.755      -18.918       62.312       39.903       24.656     3882.746     1592.235      607.939        0.827        0.304      100.471       10.563        0.011      328.634       -5.137      860.185
12/15/2021  05:55:00      -38.206        7.674      -12.249       29.966       41.714       19.598      897.963     1740.022      384.074        0.234        0.151       38.969       16.553        0.180      328.798       -4.873      860.211
12/15/2021  05:56:00      -45.006       -9.396       -3.201       36.327       15.624       12.138     1319.638      244.096      147.339        0.192        0.086       45.976       15.083        0.108      328.882       -4.735      860.265
12/15/2021  05:57:00       -3.400        1.975      -10.280       13.225       13.846        7.891      174.899      191.719       62.263        0.027        0.021        3.932        6.846        3.031      328.920       -4.674      860.316
12/15/2021  05:58:00      -21.255        1.483       -5.492       27.166       28.873       17.050      737.966      833.635      290.705        0.117        0.093       21.307       12.034        0.319      328.955       -4.616      860.343
12/15/2021  05:59:00       -4.735       71.728       -6.451       30.774       33.447       18.913      947.069     1118.732      357.707        0.382        0.121       71.884       13.919        0.037      328.842       -4.799      860.370
12/15/2021  06:00:00       38.685      124.897       -2.579       30.175       58.254       27.230      910.522     3393.586      741.483        1.107        0.252      130.751       27.416        0.044      328.954       -4.618      860.407
12/15/2021  06:01:00      -92.916       87.750       -7.225       57.963       38.982       30.484     3359.754     1519.614      929.264        1.110        0.290      127.802       25.509        0.040      328.812       -4.849      860.453
12/15/2021  06:02:00     -123.993       73.811      -18.122       56.989       33.978       34.140     3247.748     1154.474     1165.544        1.336        0.278      144.299       12.804        0.008      328.761       -4.933      860.540
12/15/2021  06:03:00      -56.930        5.331      -13.631       70.103       74.999       45.925     4914.405     5624.907     2109.078        0.805        0.632       57.179       42.574        0.554      328.730       -4.985      860.608
12/15/2021  06:04:00       -9.304        9.073      -11.528       62.173       46.215       37.094     3865.429     2135.835     1375.994        0.384        0.369       12.995       29.710        5.227      328.655       -5.106      860.639
12/15/2021  06:05:00      -27.165       37.442      -12.787       29.220       26.806       17.611      853.789      718.583      310.134        0.209        0.094       46.258        8.526        0.034      328.695       -5.038      860.638
12/15/2021  06:06:00       30.096      105.392      -17.226       39.473       43.283       25.283     1558.086     1873.459      639.252        0.819        0.204      109.605       19.575        0.032      328.856       -4.779      860.598
12/15/2021  06:07:00       58.424      121.152      -18.483       34.962       43.570       27.147     1222.328     1898.363      736.981        1.114        0.193      134.503       21.849        0.026      328.775       -4.910      860.553
12/15/2021  06:08:00       32.863      126.832      -11.324       32.570       35.309       23.186     1060.828     1246.718      537.582        1.007        0.142      131.020       17.598        0.018      328.932       -4.653      860.526
12/15/2021  06:09:00        6.621       62.887       -4.002       31.613       38.159       23.791      999.368     1456.127      565.998        0.352        0.151       63.234       23.802        0.142      328.832       -4.815      860.497
12/15/2021  06:10:00      -26.417       85.648      -14.306       41.777       38.338       28.704     1745.278     1469.804      823.932        0.614        0.202       89.629       20.881        0.054      328.829       -4.820      860.463
12/15/2021  06:11:00      -91.415       46.096      -25.969       45.131       25.692       22.265     2036.811      660.084      495.752        0.717        0.160      102.379       15.355        0.022      328.701       -5.031      860.466
12/15/2021  06:12:00     -134.647       25.992      -15.239       39.576       38.259       26.341     1566.258     1463.779      693.848        1.138        0.186      137.133       20.725        0.023      328.691       -5.047      860.508
12/15/2021  06:13:00     -125.776       54.073      -20.453       82.040       51.234       45.041     6730.619     2624.889     2028.705        1.527        0.569      136.907       27.257        0.040      328.717       -5.005      860.548
12/15/2021  06:14:00     -235.879       45.511      -11.914      143.478       77.711       54.152    20585.867     6039.006     2932.419        4.370        1.478      240.229       50.423        0.044      328.536       -5.302      860.593
12/15/2021  06:15:00     -149.551       64.362       -9.383      137.742       77.157       61.234    18972.849     5953.179     3749.591        2.763        1.434      162.813       57.367        0.124      328.497       -5.365      860.678
12/15/2021  06:16:00      -39.030        9.524       -4.473       78.319       71.516       41.089     6133.793     5114.489     1688.343        0.728        0.647       40.175       22.332        0.309      328.445       -5.449      860.743
12/15/2021  06:17:00     -109.976       40.694       -9.519       64.416       69.215       41.183     4149.409     4790.702     1696.025        1.224        0.532      117.264       35.630        0.092      328.399       -5.521      860.756
12/15/2021  06:18:00     -109.932       32.637      -21.580       46.127       40.976       33.063     2127.662     1679.006     1093.148        0.926        0.245      114.674       27.816        0.059      328.451       -5.438      860.749
12/15/2021  06:19:00      -96.411       41.505      -15.008       63.086       39.336       27.597     3979.870     1547.287      761.605        0.876        0.314      104.965       27.729        0.070      328.538       -5.295      860.758
12/15/2021  06:20:00      -95.999       30.057      -12.584       59.834       44.433       37.525     3580.158     1974.286     1408.141        0.862        0.348      100.594       32.544        0.105      328.556       -5.265      860.776
12/15/2021  06:21:00     -156.876       29.621      -16.700      100.732       43.312       29.224    10146.898     1875.890      854.067        1.932        0.644      159.648       21.249        0.018      328.540       -5.296      860.791
12/15/2021  06:22:00     -108.667       53.653       -6.379       67.758       66.834       33.151     4591.156     4466.790     1098.997        1.244        0.508      121.190       31.348        0.067      328.501       -5.357      860.788
12/15/2021  06:23:00     -117.904       45.077      -12.735       58.432       39.536       28.951     3414.287     1563.090      838.144        1.095        0.291      126.227       22.036        0.030      328.441       -5.454      860.761
12/15/2021  06:24:00      -13.124       77.915      -13.756       27.278       39.189       25.265      744.103     1535.815      638.326        0.467        0.146       79.012       15.318        0.038      328.529       -5.311      860.724
12/15/2021  06:25:00        1.423      103.356      -16.933       29.266       29.742       20.732      856.472      884.564      429.824        0.657        0.109      103.366        7.441        0.005      328.859       -4.772      860.707
12/15/2021  06:26:00      -34.197       80.635      -21.849       30.689       44.753       15.888      941.822     2002.864      252.430        0.567        0.160       87.587       11.313        0.017      328.854       -4.781      860.732
12/15/2021  06:27:00      -79.671       24.925      -33.418       26.256       25.686       21.947      689.379      659.754      481.653        0.496        0.092       83.479       14.905        0.032      328.702       -5.029      860.810
12/15/2021  06:28:00      -90.312       45.260      -23.840       47.003       33.572       29.433     2209.324     1127.090      866.315        0.749        0.210      101.018       18.349        0.033      328.568       -5.247      860.846
12/15/2021  06:29:00      -47.153        5.186      -26.485       67.590       42.686       24.640     4568.449     1822.112      607.147        0.497        0.350       47.437       16.118        0.115      328.556       -5.266      860.851
12/15/2021  06:30:00      -24.283        5.474       -8.461       32.262       21.288       19.107     1040.867      453.162      365.060        0.127        0.093       24.892       13.590        0.298      328.566       -5.249      860.844
12/15/2021  06:31:00      -33.947       37.611       -9.415       35.530       23.775       17.133     1262.405      565.251      293.535        0.239        0.106       50.666       13.213        0.068      328.607       -5.184      860.821
12/15/2021  06:32:00      -28.028       47.302       -8.751       30.298       22.502       15.361      917.954      506.354      235.965        0.238        0.083       54.982       13.716        0.062      328.687       -5.052      860.819
12/15/2021  06:33:00      -25.327      105.354      -12.421       23.070       37.773       13.652      532.203     1426.837      186.373        0.702        0.107      108.356        7.021        0.004      328.811       -4.849      860.835
12/15/2021  06:34:00       -4.229      135.057      -12.557       24.166       25.667       15.573      583.999      658.811      242.508        0.995        0.074      135.123       12.030        0.008      328.814       -4.847      860.828
12/15/2021  06:35:00       19.435      141.497      -11.026       34.717       32.397       21.599     1205.266     1049.591      466.523        1.162        0.136      142.825       15.188        0.011      328.848       -4.790      860.827
12/15/2021  06:36:00      -29.245       44.047      -15.599       35.502       44.903       22.655     1260.418     2016.262      513.246        0.341        0.189       52.872       25.907        0.240      328.801       -4.866      860.818
12/15/2021  06:37:00      -17.172       59.278       -4.912       29.818       34.855       21.373      889.084     1214.904      456.815        0.320        0.128       61.716       14.803        0.058      328.784       -4.896      860.791
12/15/2021  06:38:00      -36.120       43.230      -10.222       26.107       37.637       21.543      681.570     1416.531      464.108        0.292        0.128       56.333       13.921        0.061      328.781       -4.901      860.781
12/15/2021  06:39:00      -38.229       38.025       -9.829       18.892       13.536       15.141      356.911      183.212      229.257        0.189        0.038       53.919        7.053        0.017      328.760       -4.934      860.772
12/15/2021  06:40:00      -24.071      145.137      -17.716       26.123       48.665       19.356      682.385     2368.283      374.657        1.269        0.171      147.120       19.879        0.018      329.006       -4.533      860.738
12/15/2021  06:41:00      -18.837      124.281      -12.556       22.565       30.436       17.544      509.166      926.354      307.794        0.885        0.087      125.700       13.916        0.012      328.996       -4.548      860.732
12/15/2021  06:42:00       26.698       96.902      -12.551       38.573       27.310       23.037     1487.887      745.830      530.718        0.651        0.138      100.512       12.645        0.016      329.057       -4.449      860.736
12/15/2021  06:43:00       55.412       47.200       -5.685       32.085       28.870       17.174     1029.438      833.463      294.958        0.374        0.108       72.789        9.397        0.017      328.841       -4.802      860.721
12/15/2021  06:44:00       36.399       94.464       -8.084       31.861       37.444       24.219     1015.114     1402.088      586.576        0.666        0.150      101.234       17.363        0.029      329.008       -4.528      860.746
12/15/2021  06:45:00      -36.934       73.537      -12.424       45.955       25.536       17.260     2111.834      652.089      297.911        0.499        0.153       82.291        6.078        0.005      328.880       -4.738      860.759
12/15/2021  06:46:00     -124.333       52.618      -12.510       55.626       28.891       21.384     3094.263      834.677      457.264        1.138        0.219      135.009       19.652        0.021      328.545       -5.285      860.771
12/15/2021  06:47:00     -189.001       91.569      -24.963       67.527       41.859       38.575     4559.891     1752.181     1488.054        2.626        0.390      210.015       32.864        0.024      328.448       -5.443      860.781
12/15/2021  06:48:00     -196.213       70.962      -16.597       51.996       44.938       33.802     2703.599     2019.453     1142.543        2.484        0.293      208.651       27.160        0.017      328.208       -5.836      860.790
12/15/2021  06:49:00      -44.795        1.423       -2.012       77.109       28.037       34.569     5945.854      786.056     1194.996        0.497        0.396       44.818       36.723        0.671      328.262       -5.745      860.785
12/15/2021  06:50:00       16.348        6.742       -3.411       35.786       31.313       24.308     1280.637      980.479      590.861        0.159        0.143       17.684        4.289        0.059      328.322       -5.648      860.788
12/15/2021  06:51:00      -54.395       -3.413       -5.187       66.288       45.999       29.201     4394.085     2115.940      852.672        0.518        0.368       54.502       25.772        0.224      328.191       -5.863      860.785
12/15/2021  06:52:00      -54.960        7.992      -21.502       43.578       41.077       22.634     1899.069     1687.296      512.316        0.382        0.205       55.538       11.863        0.046      328.158       -5.916      860.762
12/15/2021  06:53:00      -85.050      104.376      -12.257       31.825       35.937       19.438     1012.852     1291.463      377.841        1.048        0.134      134.640       14.664        0.012      328.122       -5.975      860.708
12/15/2021  06:54:00      -24.801      166.182      -10.154       32.035       50.062       17.346     1026.227     2506.177      300.882        1.608        0.192      168.023       19.901        0.014      328.340       -5.619      860.644
12/15/2021  06:55:00       66.258      193.241      -13.953       45.451       43.096       32.025     2065.784     1857.307     1025.623        2.344        0.247      204.285       31.450        0.024      328.582       -5.226      860.590
12/15/2021  06:56:00       82.886       91.528      -16.408       46.430       41.288       26.989     2155.723     1704.674      728.420        1.005        0.229      123.481       22.192        0.032      328.592       -5.208      860.540
12/15/2021  06:57:00      123.991       94.139      -23.998       36.616       33.867       23.664     1340.737     1146.983      560.004        1.393        0.152      155.679       16.477        0.011      328.500       -5.358      860.564
12/15/2021  06:58:00       61.164       61.905       -3.150       38.648       37.293       27.455     1493.697     1390.777      753.777        0.561        0.182       87.025       28.334        0.106      328.433       -5.467      860.581
12/15/2021  06:59:00       41.954       68.385       -0.325       20.404       25.658       17.380      416.336      658.321      302.079        0.391        0.069       80.229       13.047        0.026      328.482       -5.388      860.569
12/15/2021  07:00:00       26.649       21.953       -1.248       19.562       16.569       14.167      382.658      274.517      200.695        0.103        0.043       34.527       11.395        0.109      328.355       -5.594      860.558
12/15/2021  07:01:00       -7.598       16.765       -2.110       22.292       17.232       12.838      496.925      296.927      164.808        0.065        0.048       18.407       10.337        0.315      328.514       -5.335      860.560
12/15/2021  07:02:00      -68.082       21.105      -22.302       30.753       18.390       16.171      945.727      338.188      261.496        0.356        0.077       71.278        9.909        0.019      328.441       -5.455      860.560
12/15/2021  07:03:00      -93.231       56.049      -14.516       23.818       17.262       13.281      567.289      297.981      176.391        0.654        0.052      108.782        8.220        0.006      328.378       -5.556      860.573
12/15/2021  07:04:00      -90.126       69.414      -14.704       42.595       21.349       20.241     1814.312      455.772      409.696        0.792        0.134      113.758       21.553        0.036      328.567       -5.249      860.562
12/15/2021  07:05:00      -91.424       57.586      -19.425       35.103       30.021       21.564     1232.197      901.280      465.010        0.732        0.130      108.049       19.970        0.034      328.445       -5.447      860.544
12/15/2021  07:06:00      -65.473       55.054      -12.425       31.307       34.927       17.137      980.118     1219.872      293.667        0.498        0.125       85.543        7.514        0.008      328.472       -5.405      860.515
12/15/2021  07:07:00       29.231      132.548      -16.226       42.867       32.898       22.544     1837.603     1082.272      508.237        1.106        0.171      135.733       15.898        0.014      328.940       -4.640      860.499
12/15/2021  07:08:00       97.866       83.840      -21.082       47.648       50.939       22.592     2270.376     2594.813      510.412        1.121        0.269      128.868       20.555        0.025      328.799       -4.871      860.457
12/15/2021  07:09:00      119.382       45.534      -10.579       53.151       32.557       20.666     2824.994     1059.964      427.090        1.037        0.216      127.771       22.705        0.032      328.971       -4.590      860.426
12/15/2021  07:10:00      148.299       81.603      -22.279       46.326       62.578       34.692     2146.090     3916.031     1203.511        1.821        0.363      169.269       16.928        0.010      329.104       -4.373      860.443
12/15/2021  07:11:00      113.826       60.825      -27.330       56.227       71.200       34.999     3161.517     5069.463     1224.930        1.343        0.473      129.058       14.781        0.013      329.266       -4.107      860.488
12/15/2021  07:12:00       79.701       13.614      -13.313       55.503       63.690       36.055     3080.619     4056.362     1299.995        0.757        0.422       80.856       18.120        0.050      329.313       -4.029      860.533
12/15/2021  07:13:00      117.982       40.328      -22.390       46.907       48.594       25.384     2200.235     2361.378      644.361        1.063        0.260      124.684       14.990        0.014      329.169       -4.266      860.581
12/15/2021  07:14:00       70.925       -1.434      -15.898       55.822       58.160       32.252     3116.109     3382.627     1040.200        0.641        0.377       70.940       22.129        0.097      329.277       -4.091      860.602
12/15/2021  07:15:00      130.970       74.758      -18.396       54.492       44.799       27.806     2969.378     2006.983      773.169        1.441        0.287      150.805       17.984        0.014      328.948       -4.627      860.597
12/15/2021  07:16:00      137.771       -1.330      -17.545       70.699       53.216       23.793     4998.362     2831.990      566.129        1.384        0.420      137.777       13.140        0.009      328.931       -4.655      860.646
12/15/2021  07:17:00      117.349       26.821      -21.123       57.046       27.666       24.095     3254.220      765.433      580.552        0.977        0.230      120.375       16.621        0.019      328.855       -4.779      860.687
12/15/2021  07:18:00      162.367       49.004      -23.721       38.166       23.618       15.177     1456.613      557.825      230.354        1.579        0.112      169.601        8.416        0.002      328.899       -4.706      860.692
12/15/2021  07:19:00      138.969       58.756      -23.065       46.100       49.207       28.701     2125.186     2421.323      823.727        1.433        0.269      150.880       19.277        0.016      328.992       -4.557      860.638
12/15/2021  07:20:00      173.870      114.115      -32.332       66.466       41.316       36.304     4417.668     1707.005     1317.991        2.587        0.372      207.974       23.740        0.013      328.938       -4.647      860.617
12/15/2021  07:21:00      164.636       82.510      -33.619       55.411       59.430       35.423     3070.392     3531.959     1254.784        2.145        0.393      184.154       18.552        0.010      328.891       -4.724      860.652
12/15/2021  07:22:00       70.572       19.217       -9.139       53.408       45.562       29.930     2852.446     2075.863      895.807        0.563        0.291       73.142       24.999        0.117      328.917       -4.677      860.716
12/15/2021  07:23:00      115.940       35.644       -8.565       62.160       46.029       33.173     3863.810     2118.627     1100.460        1.093        0.354      121.295       16.566        0.019      328.904       -4.699      860.733
12/15/2021  07:24:00       68.053        2.212       -8.056       66.750       39.025       34.311     4455.628     1522.986     1177.242        0.593        0.358       68.089       31.063        0.208      328.964       -4.601      860.753
12/15/2021  07:25:00       22.206      -20.177       -2.803       34.398       33.439       20.111     1183.198     1118.158      404.448        0.181        0.135       30.004       20.590        0.471      329.046       -4.465      860.799
12/15/2021  07:26:00       -0.345      -48.483      -15.491       39.803       27.852       22.211     1584.285      775.754      493.351        0.272        0.143       48.484       19.731        0.166      329.141       -4.312      860.831
12/15/2021  07:27:00       58.322      -74.754      -32.285       28.899       47.290       18.900      835.129     2236.367      357.213        0.673        0.171       94.813       20.465        0.047      329.110       -4.363      860.825
12/15/2021  07:28:00       51.898      -41.035      -34.670       37.511       52.744       30.649     1407.040     2781.893      939.343        0.535        0.256       66.161       26.838        0.165      329.062       -4.441      860.803
12/15/2021  07:29:00       53.630      -50.365      -22.719       34.440       55.378       23.795     1186.124     3066.692      566.186        0.537        0.241       73.571       18.985        0.067      329.135       -4.321      860.791
12/15/2021  07:30:00       49.278     -113.706      -25.946       37.373       53.740       28.105     1396.741     2887.979      789.908        1.055        0.254      123.925       27.021        0.048      329.186       -4.238      860.810
12/15/2021  07:31:00       29.707      -91.350      -22.743       24.452       37.120       27.068      597.881     1377.904      732.663        0.623        0.135       96.059       17.738        0.034      329.315       -4.026      860.827
12/15/2021  07:32:00       12.026      -21.272      -17.205       27.142       29.695       19.398      736.690      881.787      376.266        0.144        0.100       24.436       17.324        0.503      329.309       -4.038      860.806
12/15/2021  07:33:00       44.324       26.388      -14.481       27.809       35.427       24.478      773.324     1255.052      599.150        0.275        0.131       51.584       11.997        0.054      329.302       -4.048      860.760
12/15/2021  07:34:00       63.192       53.065      -24.580       37.654       36.270       31.193     1417.811     1315.503      972.998        0.556        0.185       82.518       22.171        0.072      329.242       -4.146      860.761
12/15/2021  07:35:00      -36.970       -6.359      -11.961       49.494       37.094       27.224     2449.688     1375.990      741.121        0.306        0.228       37.513       22.982        0.375      329.324       -4.014      860.789
12/15/2021  07:36:00        4.990      -27.681      -13.146       45.250       42.406       23.769     2047.602     1798.261      564.961        0.269        0.221       28.127       23.931        0.724      329.377       -3.927      860.810
12/15/2021  07:37:00       71.995      -48.198      -15.357       33.293       28.014       21.924     1108.440      784.763      480.657        0.506        0.119       86.639       14.781        0.029      329.302       -4.049      860.785
12/15/2021  07:38:00       48.688       -1.132      -19.012       22.036       49.759       18.186      485.595     2475.989      330.719        0.301        0.165       48.701       11.238        0.053      329.255       -4.126      860.774
12/15/2021  07:39:00      122.855       20.341      -17.252       22.879       20.963       13.564      523.444      439.430      183.988        0.848        0.057      124.528        7.327        0.003      329.187       -4.237      860.760
12/15/2021  07:40:00      111.493       13.968      -14.848       24.029       28.512       18.454      577.391      812.942      340.554        0.729        0.087      112.365       13.059        0.014      329.115       -4.355      860.747
12/15/2021  07:41:00      154.624       90.204      -15.326       41.867       27.141       18.234     1752.873      736.615      332.482        1.755        0.141      179.013       13.759        0.006      329.109       -4.365      860.706
12/15/2021  07:42:00      177.475       82.128      -17.881       52.785       38.151       30.013     2786.290     1455.490      900.775        2.185        0.257      195.556       22.570        0.013      329.187       -4.239      860.650
12/15/2021  07:43:00      145.740       85.494      -21.224       50.595       36.993       24.572     2559.904     1368.447      603.786        1.677        0.227      168.966       16.413        0.009      329.124       -4.340      860.652
12/15/2021  07:44:00      108.680       63.107      -23.480       33.899       34.076       23.469     1149.164     1161.185      550.804        0.960        0.143      125.674       18.639        0.022      329.104       -4.371      860.668
12/15/2021  07:45:00       35.335       31.765       -6.350       47.721       46.913       30.612     2277.287     2200.827      937.092        0.386        0.271       47.514       25.663        0.292      329.223       -4.178      860.709
12/15/2021  07:46:00       27.002       64.217      -19.401       43.816       32.985       20.463     1919.873     1087.998      418.731        0.433        0.171       69.663       18.347        0.069      329.336       -3.994      860.791
12/15/2021  07:47:00       -8.007       20.932      -11.524       12.713       15.129       17.542      161.618      228.877      307.723        0.067        0.035       22.411       11.356        0.257      329.336       -3.996      860.831
12/15/2021  07:48:00       42.302       44.701       -0.135       37.775       27.951       25.561     1426.949      781.241      653.380        0.332        0.143       61.544       15.688        0.065      329.356       -3.961      860.810
12/15/2021  07:49:00      111.225       82.766      -23.736       37.526       35.428       23.900     1408.215     1255.117      571.189        1.151        0.162      138.641       18.396        0.018      329.289       -4.071      860.759
12/15/2021  07:50:00      137.039       61.930      -17.340       31.027       28.670       20.975      962.699      821.996      439.968        1.257        0.111      150.383       11.759        0.006      329.241       -4.148      860.737
12/15/2021  07:51:00      135.764       70.593      -15.395       42.639       31.224       19.097     1818.069      974.947      364.680        1.340        0.158      153.020        9.611        0.004      329.278       -4.088      860.749
12/15/2021  07:52:00      182.289       83.823      -19.088       52.554       52.634       34.878     2761.909     2770.303     1216.472        2.368        0.337      200.638       29.541        0.022      329.324       -4.015      860.717
12/15/2021  07:53:00      148.443       49.681      -14.963       38.246       49.854       30.243     1462.784     2485.380      914.633        1.479        0.243      156.536       14.939        0.009      329.456       -3.798      860.704
12/15/2021  07:54:00      113.857       41.807      -28.918       35.513       35.924       24.427     1261.206     1290.515      596.676        0.935        0.157      121.290       17.764        0.021      329.444       -3.817      860.705
12/15/2021  07:55:00       29.115       50.287       -9.460       28.951       20.630       15.413      838.172      425.582      237.558        0.248        0.075       58.107       14.276        0.060      329.411       -3.872      860.733
12/15/2021  07:56:00       -9.086       41.726      -14.157       19.621       16.294       14.058      384.997      265.508      197.625        0.144        0.042       42.704       11.223        0.069      329.431       -3.840      860.785
12/15/2021  07:57:00      -29.492        7.757      -10.291       23.953       24.256       10.581      573.767      588.344      111.960        0.115        0.064       30.495        9.754        0.102      329.411       -3.871      860.818
12/15/2021  07:58:00      -30.741      -13.700      -19.237       26.545       17.826       17.026      704.650      317.784      289.868        0.141        0.066       33.656        8.412        0.062      329.384       -3.915      860.829
12/15/2021  07:59:00      -20.404       10.615       -3.232       44.683       23.026       19.818     1996.549      530.201      392.761        0.173        0.146       23.000       12.745        0.307      329.437       -3.828      860.818
12/15/2021  08:00:00        4.449       13.162       -0.213       21.748       31.613       20.924      472.983      999.382      437.813        0.105        0.096       13.894        7.544        0.295      329.738       -3.337      860.817
12/15/2021  08:01:00      148.654       48.845      -16.571       36.827       33.106       16.245     1356.233     1095.980      263.902        1.374        0.136      156.473        1.482        0.000      329.628       -3.516      860.828
12/15/2021  08:02:00      122.691       15.574      -18.708       47.517       38.245       23.091     2257.854     1462.715      533.202        0.995        0.213      123.675       17.416        0.020      329.691       -3.412      860.817
12/15/2021  08:03:00       92.018       10.999      -16.719       39.742       33.462       26.629     1579.395     1119.720      709.106        0.614        0.170       92.673       16.517        0.032      329.653       -3.475      860.795
12/15/2021  08:04:00       74.030        9.393      -27.926       43.314       29.044       18.650     1876.078      843.537      347.817        0.471        0.153       74.623       11.641        0.024      329.701       -3.396      860.794
12/15/2021  08:05:00       13.658      -56.681      -21.318       37.439       64.519       31.333     1401.680     4162.717      981.745        0.520        0.327       58.303       26.370        0.205      329.843       -3.164      860.777
12/15/2021  08:06:00       10.399      -25.421      -10.809       44.672       54.276       29.202     1995.577     2945.853      852.772        0.333        0.290       27.465       18.431        0.450      330.087       -2.765      860.725
12/15/2021  08:07:00      -17.365      -10.935      -11.000       35.301       33.106       16.848     1246.176     1096.021      283.844        0.158        0.131       20.521       10.171        0.246      330.022       -2.872      860.707
12/15/2021  08:08:00      -32.855      -29.500       -6.677       34.140       53.948       18.608     1165.540     2910.384      346.246        0.321        0.221       44.156       16.814        0.145      329.838       -3.174      860.700
12/15/2021  08:09:00        4.798       20.970       -7.712       51.547       19.688       17.662     2657.065      387.616      311.955        0.194        0.168       21.512       13.746        0.408      329.741       -3.332      860.671
12/15/2021  08:10:00       68.200       31.830      -16.098       13.109       14.856       11.522      171.851      220.704      132.766        0.322        0.026       75.262        8.674        0.013      329.729       -3.352      860.651
12/15/2021  08:11:00       26.759       29.309       -3.577       18.824       18.241       11.145      354.331      332.733      124.220        0.120        0.041       39.687       10.161        0.066      329.750       -3.317      860.643
12/15/2021  08:12:00       86.575       48.449      -15.668       17.100       16.415       11.183      292.409      269.441      125.053        0.539        0.034       99.209        2.799        0.001      329.681       -3.429      860.620
12/15/2021  08:13:00       45.049       -8.523      -20.542       21.504       34.886       15.076      462.423     1217.050      227.280        0.222        0.095       45.848        8.103        0.031      329.763       -3.294      860.608
12/15/2021  08:14:00       41.752      -13.077      -21.947       31.811       44.809       25.924     1011.940     2007.887      672.034        0.304        0.185       43.752       15.998        0.134      329.964       -2.966      860.619
12/15/2021  08:15:00       28.763      -10.556      -37.747       43.459       43.726       24.029     1888.661     1911.931      577.392        0.337        0.219       30.639       24.716        0.651      329.969       -2.959      860.649
12/15/2021  08:16:00      100.247       85.674      -17.271       39.054       41.252       26.232     1525.224     1701.742      688.129        1.080        0.196      131.870       23.306        0.031      329.805       -3.226      860.671
12/15/2021  08:17:00       45.664       26.091      -43.857       43.731       63.392       32.482     1912.413     4018.510     1055.107        0.584        0.349       52.592       26.061        0.246      330.090       -2.760      860.696
12/15/2021  08:18:00      -37.297      -16.104       -6.607       41.160       29.037       25.081     1694.171      843.147      629.070        0.243        0.158       40.625        9.763        0.058      329.933       -3.017      860.779
12/15/2021  08:19:00       13.337      -76.726       -1.125       32.706       40.316       25.478     1069.685     1625.348      649.104        0.470        0.167       77.877       22.153        0.081      330.013       -2.886      860.836
12/15/2021  08:20:00       29.913      -43.572      -18.936       23.236       30.206       20.810      539.920      912.403      433.063        0.252        0.094       52.851       11.663        0.049      330.051       -2.823      860.833
12/15/2021  08:21:00       21.329       13.548       -8.238       17.102       20.768       15.894      292.475      431.322      252.632        0.084        0.049       25.269       10.925        0.187      330.015       -2.883      860.846
12/15/2021  08:22:00       82.796       19.619      -17.119       16.354       25.799       15.433      267.439      665.607      238.178        0.435        0.059       85.089       13.347        0.025      329.843       -3.165      860.857
12/15/2021  08:23:00      112.160       21.578      -18.601       25.480       21.218       16.876      649.234      450.212      284.811        0.739        0.069      114.217       11.438        0.010      329.796       -3.242      860.851
12/15/2021  08:24:00      112.203        8.306      -22.506       46.712       27.355       21.423     2182.028      748.306      458.955        0.828        0.169      112.510        9.549        0.007      329.834       -3.180      860.837
12/15/2021  08:25:00       72.810       -7.061      -13.810       35.750       37.317       24.267     1278.083     1392.535      588.874        0.440        0.163       73.152       14.866        0.041      329.946       -2.995      860.885
12/15/2021  08:26:00       25.124       33.071      -15.824       35.419       30.918       19.107     1254.477      955.922      365.072        0.227        0.129       41.532       16.974        0.167      329.916       -3.045      860.951
12/15/2021  08:27:00       31.175      -81.820      -25.559       37.762       47.307       27.544     1425.935     2237.987      758.680        0.637        0.221       87.558       21.271        0.059      330.000       -2.906      860.991
12/15/2021  08:28:00       49.288     -134.606      -24.640       29.002       40.499       25.650      841.138     1640.165      657.941        1.215        0.157      143.346       17.093        0.014      329.888       -3.090      861.017
12/15/2021  08:29:00      128.750      -96.925      -29.752       57.778       61.282       32.088     3338.308     3755.489     1029.632        1.749        0.406      161.155       34.569        0.046      330.096       -2.750      861.043
12/15/2021  08:30:00       14.330      -59.789       -5.431       43.446       39.586       24.652     1887.597     1567.042      607.703        0.394        0.203       61.482       23.986        0.152      330.055       -2.816      861.054
12/15/2021  08:31:00      118.794       31.632      -25.034       64.877       58.950       29.127     4209.056     3475.090      848.388        1.213        0.427      122.933       22.282        0.033      329.797       -3.240      861.035
12/15/2021  08:32:00       78.823      -19.950      -33.286       57.996       81.735       34.350     3363.564     6680.543     1179.944        0.947        0.561       81.308       26.673        0.108      329.881       -3.101      861.046
12/15/2021  08:33:00      151.170       22.946      -19.664       32.258       39.890       19.237     1040.576     1591.193      370.056        1.338        0.150      152.902       11.618        0.006      329.588       -3.582      861.054
12/15/2021  08:34:00      152.370       -7.883      -10.103       76.246       52.076       42.180     5813.458     2711.889     1779.175        1.684        0.515      152.574       40.502        0.070      329.672       -3.446      861.030
12/15/2021  08:35:00      106.330      -10.856      -14.994       58.469       51.437       31.139     3418.594     2645.768      969.666        0.934        0.352      106.882       21.196        0.039      329.725       -3.358      860.988
12/15/2021  08:36:00       76.242        8.031      -12.784       38.360       30.996       21.483     1471.462      960.726      461.534        0.447        0.145       76.663       16.584        0.047      329.707       -3.386      861.015
12/15/2021  08:37:00       42.245        5.311      -12.683       16.882       19.022       14.448      285.009      361.855      208.758        0.141        0.043       42.577       13.588        0.102      329.672       -3.444      861.040
12/15/2021  08:38:00       66.165       16.528      -14.718       12.403       13.308        8.664      153.831      177.103       75.064        0.264        0.020       68.198        6.085        0.008      329.563       -3.621      861.046
12/15/2021  08:39:00       57.684       32.477       -7.120       20.258       15.336       12.560      410.378      235.187      157.766        0.262        0.040       66.198        5.516        0.007      329.584       -3.588      861.027
12/15/2021  08:40:00       14.621       27.002       -5.211       18.871       18.041        9.688      356.126      325.487       93.855        0.087        0.039       30.706       10.752        0.123      329.634       -3.506      861.024
12/15/2021  08:41:00       85.960       70.472      -16.518       40.916       30.211       17.073     1674.147      912.701      291.497        0.775        0.144      111.155       24.465        0.048      329.672       -3.444      860.990
12/15/2021  08:42:00      121.931       85.638      -19.704       37.362       31.591       26.099     1395.921      998.001      681.183        1.283        0.154      149.000       14.104        0.009      329.804       -3.229      860.876
12/15/2021  08:43:00       40.816       62.795       -7.946       59.279       39.529       21.694     3513.953     1562.542      470.626        0.561        0.277       74.894       12.603        0.028      329.855       -3.146      860.900
12/15/2021  08:44:00       71.843       71.533       -9.691       53.520       35.923       31.208     2864.392     1290.452      973.940        0.775        0.256      101.382       27.629        0.074      329.904       -3.064      860.986
12/15/2021  08:45:00      131.133       38.907      -33.364       54.275       49.094       34.880     2945.741     2410.200     1216.624        1.320        0.329      136.783       18.004        0.017      330.020       -2.875      860.993
12/15/2021  08:46:00      125.390       13.143      -29.873       74.593       56.175       33.291     5564.128     3155.680     1108.305        1.331        0.491      126.077       29.708        0.056      329.934       -3.016      860.998
12/15/2021  08:47:00       98.556       46.321      -25.977       53.822       44.464       25.612     2896.803     1977.023      655.983        0.903        0.276      108.899        9.925        0.008      329.986       -2.930      861.057
12/15/2021  08:48:00       72.100       30.547      -18.534       48.926       62.360       24.143     2393.793     3888.820      582.906        0.667        0.343       78.304       18.726        0.057      330.151       -2.661      861.090
12/15/2021  08:49:00       64.310        7.721      -26.461       48.641       59.435       32.301     2365.920     3532.567     1043.372        0.592        0.347       64.772       26.357        0.166      330.255       -2.489      861.088
12/15/2021  08:50:00       57.829       -5.525      -29.670       58.471       49.619       37.184     3418.864     2462.013     1382.679        0.576        0.363       58.092       17.998        0.096      330.417       -2.224      861.068
12/15/2021  08:51:00       98.477      -64.831      -38.202       41.956       68.267       35.793     1760.285     4660.369     1281.140        1.153        0.385      117.902       19.687        0.028      330.150       -2.661      861.083
12/15/2021  08:52:00       58.329       -5.020       -0.771       54.291       55.605       46.634     2947.517     3091.960     2174.695        0.582        0.411       58.544       39.139        0.447      330.348       -2.338      861.101
12/15/2021  08:53:00      155.489       25.045      -22.071       44.132       47.602       33.706     1947.634     2265.996     1136.118        1.532        0.267      157.493       19.639        0.016      330.094       -2.754      861.135
12/15/2021  08:54:00      103.040       15.687      -11.467       52.686       57.600       29.599     2775.771     3317.810      876.109        0.898        0.348      104.227       26.456        0.064      330.114       -2.720      861.175
12/15/2021  08:55:00       62.471      -17.314      -18.527       52.637       54.116       44.042     2770.623     2928.520     1939.697        0.609        0.382       64.826       29.181        0.203      330.447       -2.175      861.174
12/15/2021  08:56:00      131.698        3.833      -20.184       67.203       60.779       38.908     4516.255     3694.076     1513.797        1.374        0.486      131.754       28.666        0.047      330.261       -2.480      861.145
12/15/2021  08:57:00      117.502      -14.316      -21.292       98.374       69.988       56.989     9677.520     4898.335     3247.721        1.614        0.891      118.371       50.431        0.182      330.391       -2.266      861.104
12/15/2021  08:58:00      171.258       20.705      -36.590       81.442       59.719       40.205     6632.768     3566.393     1616.470        2.145        0.591      172.505       25.494        0.022      330.424       -2.214      861.110
12/15/2021  08:59:00       96.843       -4.795      -12.044       63.211       66.751       32.641     3995.661     4455.694     1065.406        0.953        0.476       96.961       32.698        0.114      330.263       -2.476      861.158
12/15/2021  09:00:00      101.715       61.864      -18.523       42.854       51.288       30.986     1836.445     2630.500      960.142        0.997        0.271      119.051       26.776        0.051      330.219       -2.549      861.194
12/15/2021  09:01:00      107.930       65.600      -21.764       31.646       27.471       21.232     1001.492      754.640      450.785        0.932        0.110      126.302       17.284        0.019      330.130       -2.694      861.186
12/15/2021  09:02:00      156.609       45.533      -39.844       65.570       48.070       26.553     4299.390     2310.680      705.082        1.775        0.366      163.094       15.344        0.009      330.259       -2.484      861.162
12/15/2021  09:03:00      167.955       17.474       -6.434      129.458       71.498       53.597    16759.394     5111.948     2872.599        2.665        1.237      168.862       48.772        0.083      330.375       -2.295      861.128
12/15/2021  09:04:00      140.143      -10.400      -25.387       83.828       75.774       42.244     7027.092     5741.664     1784.536        1.747        0.728      140.529       25.655        0.033      330.640       -1.858      861.130
12/15/2021  09:05:00      120.689      -28.323      -34.623       93.235       84.096       55.832     8692.768     7072.182     3117.204        1.772        0.944      123.968       37.913        0.094      330.451       -2.169      861.126
12/15/2021  09:06:00      143.321        0.997       -6.980       88.207       67.215       49.373     7780.483     4517.884     2437.708        1.766        0.737      143.324       41.231        0.083      330.416       -2.228      861.087
12/15/2021  09:07:00      124.952       -1.471      -24.968       72.092       50.817       33.482     5197.198     2582.399     1121.046        1.257        0.445      124.960       23.139        0.034      330.307       -2.403      861.076
12/15/2021  09:08:00       79.597      -38.411      -40.806       53.423       62.369       33.723     2854.035     3889.953     1137.211        0.868        0.394       88.381       21.376        0.058      330.501       -2.085      861.068
12/15/2021  09:09:00       61.671       10.259      -10.418       54.804       44.008       28.366     3003.497     1936.703      804.607        0.488        0.287       62.518       22.033        0.124      330.416       -2.225      861.075
12/15/2021  09:10:00       70.146       44.856      -21.597       38.818       34.236       21.298     1506.798     1172.098      453.605        0.527        0.157       83.261       14.821        0.032      330.282       -2.446      861.093
12/15/2021  09:11:00       39.664      -10.385      -24.402       40.034       50.630       28.835     1602.760     2563.425      831.480        0.364        0.250       41.001       20.015        0.238      330.524       -2.048      861.066
12/15/2021  09:12:00       44.251      -62.307      -34.781       41.999       50.535       23.266     1763.904     2553.811      541.307        0.595        0.243       76.422       10.551        0.019      330.611       -1.904      861.041
12/15/2021  09:13:00       67.680      -82.709      -28.540       84.097       87.299       47.519     7072.382     7621.184     2258.010        1.459        0.848      106.871       52.275        0.239      330.499       -2.091      861.048
12/15/2021  09:14:00      127.970      -56.224      -31.447       76.510       86.167       40.617     5853.802     7424.780     1649.778        1.772        0.746      139.776       38.567        0.076      330.709       -1.744      861.048
12/15/2021  09:15:00      117.608       34.437      -28.636       47.369       72.784       32.772     2243.819     5297.441     1073.994        1.222        0.431      122.546       22.286        0.033      330.503       -2.082      861.036
12/15/2021  09:16:00      119.428       19.166      -22.264       42.206       50.647       29.574     1781.363     2565.110      874.610        1.017        0.261      120.956       20.545        0.029      330.506       -2.076      860.996
12/15/2021  09:17:00      170.435       -2.837      -19.109       72.211       53.384       35.909     5214.443     2849.875     1289.491        1.939        0.468      170.459       13.539        0.006      330.305       -2.409      860.970
12/15/2021  09:18:00      112.774       -2.161      -40.986       57.494       61.515       37.495     3305.526     3784.116     1405.867        1.145        0.425      112.795       16.768        0.022      330.720       -1.727      860.986
12/15/2021  09:19:00       57.588       34.402      -24.851       46.224       50.917       30.187     2136.623     2592.525      911.264        0.538        0.282       67.081       21.068        0.099      330.708       -1.746      861.021
12/15/2021  09:20:00      135.292       30.503      -19.695       48.806       44.966       30.941     2382.013     2021.916      957.328        1.249        0.268      138.688       25.326        0.033      330.304       -2.409      861.049
12/15/2021  09:21:00      122.484      -12.428      -18.906       62.270       44.792       35.386     3877.521     2006.284     1252.141        1.132        0.357      123.113       31.730        0.066      330.507       -2.075      861.023
12/15/2021  09:22:00      133.610      -21.845      -30.627       74.654       54.596       40.102     5573.292     2980.775     1608.150        1.471        0.508      135.384       30.925        0.052      330.788       -1.616      861.011
12/15/2021  09:23:00      107.820       23.937      -23.900       94.832       68.126       44.111     8993.196     4641.136     1945.747        1.417        0.779      110.445       39.894        0.130      330.486       -2.112      861.026
12/15/2021  09:24:00       -4.908      -36.511      -17.053       53.047       44.446       38.825     2814.028     1975.415     1507.377        0.397        0.315       36.839       19.489        0.280      330.955       -1.341      861.011
12/15/2021  09:25:00      120.716     -158.213      -39.440       47.671       51.157       29.624     2272.564     2617.048      877.554        2.346        0.288      199.007       23.826        0.014      330.428       -2.208      861.003
12/15/2021  09:26:00       89.631      -73.292      -22.440       59.312       77.781       46.282     3517.963     6049.920     2142.040        1.281        0.585      115.782       35.220        0.093      330.705       -1.750      860.997
12/15/2021  09:27:00       54.576        3.789      -22.565       55.905       62.235       43.683     3125.331     3873.219     1908.209        0.620        0.445       54.707       20.714        0.143      330.728       -1.713      861.024
12/15/2021  09:28:00      114.094      -17.200      -11.245       56.599       48.551       28.405     3203.500     2357.155      806.819        0.990        0.318      115.383       15.219        0.017      330.499       -2.090      861.028
12/15/2021  09:29:00      125.333      -21.588       -5.102       91.060       38.207       47.021     8291.962     1459.751     2210.971        1.408        0.598      127.179       53.628        0.178      330.421       -2.217      861.032
12/15/2021  09:30:00       42.599        9.179      -14.976       45.533       44.134       32.072     2073.228     1947.830     1028.630        0.359        0.252       43.577       18.617        0.183      330.777       -1.634      861.037
12/15/2021  09:31:00       85.691        1.666      -26.927       51.701       43.152       33.605     2672.949     1862.055     1129.267        0.687        0.283       85.707       20.858        0.059      330.571       -1.970      861.011
12/15/2021  09:32:00       81.806       37.905      -17.397       35.255       47.193       27.113     1242.892     2227.224      735.125        0.632        0.210       90.161       14.736        0.027      330.343       -2.344      861.011
12/15/2021  09:33:00       76.869       58.351      -15.858       29.583       25.281       16.762      875.125      639.137      280.954        0.568        0.090       96.508       11.705        0.015      330.364       -2.311      861.021
12/15/2021  09:34:00       64.588       18.920      -17.261       28.402       37.188       22.707      806.669     1382.962      515.621        0.377        0.135       67.302       19.976        0.088      330.457       -2.157      861.049
12/15/2021  09:35:00       96.255       51.109      -34.147       17.289       22.949       20.886      298.916      526.645      436.215        0.715        0.063      108.982       14.934        0.019      330.218       -2.548      861.084
12/15/2021  09:36:00      123.003       68.696      -38.708       17.303       16.741       15.966      299.381      280.248      254.913        1.109        0.042      140.886        6.689        0.002      330.239       -2.515      861.102
12/15/2021  09:37:00      103.863       43.494      -26.223       25.834       49.837       20.853      667.377     2483.747      434.845        0.848        0.179      112.603       10.916        0.009      330.354       -2.326      861.118
12/15/2021  09:38:00       48.043      -40.360      -18.084       32.768       50.498       25.385     1073.765     2550.081      644.389        0.427        0.213       62.746       17.020        0.074      330.781       -1.628      861.110
12/15/2021  09:39:00       50.315        8.108      -22.799       43.053       44.952       24.514     1853.584     2020.724      600.926        0.380        0.224       50.964       18.910        0.138      330.898       -1.433      861.097
12/15/2021  09:40:00       84.472       39.176      -21.097       32.462       36.963       21.323     1053.798     1366.268      454.675        0.599        0.144       93.114       19.202        0.043      330.574       -1.965      861.105
12/15/2021  09:41:00      100.675        8.690      -16.401       51.736       57.558       24.555     2676.572     3312.934      602.964        0.854        0.330      101.049       21.298        0.044      330.711       -1.740      861.108
12/15/2021  09:42:00       88.242       -4.356      -11.064       58.067       58.672       38.494     3371.763     3442.447     1481.805        0.811        0.415       88.349       28.287        0.103      330.821       -1.561      861.074
12/15/2021  09:43:00      176.990       57.728      -25.436       58.943       45.286       28.063     3474.253     2050.826      787.532        2.081        0.316      186.167       15.282        0.007      330.588       -1.944      861.019
12/15/2021  09:44:00      165.729       59.256      -20.498       49.535       43.084       27.439     2453.682     1856.237      752.884        1.823        0.253      176.004       16.408        0.009      330.577       -1.961      860.992
12/15/2021  09:45:00      169.510       44.393      -25.744       46.262       54.991       28.550     2140.138     3024.010      815.105        1.867        0.299      175.226       12.025        0.005      330.750       -1.680      860.970
12/15/2021  09:46:00      161.684       45.904      -22.482       51.912       32.030       21.760     2694.863     1025.936      473.485        1.647        0.210      168.074       17.308        0.011      330.459       -2.155      860.984
12/15/2021  09:47:00      124.583       68.957      -29.341       27.664       22.304       20.913      765.302      497.477      437.340        1.142        0.085      142.393       13.482        0.009      330.462       -2.151      861.036
12/15/2021  09:48:00       93.727       59.517      -31.905       37.177       28.109       21.228     1382.128      790.097      450.626        0.798        0.131      111.027       13.620        0.015      330.775       -1.635      861.052
12/15/2021  09:49:00      108.165        8.343      -30.205       24.921       14.077       13.570      621.068      198.176      184.148        0.684        0.050      108.486        6.026        0.003      330.418       -2.222      861.031
12/15/2021  09:50:00       89.914       23.894      -26.095       25.183       29.015       19.101      634.206      841.843      364.858        0.559        0.092       93.035       14.202        0.023      330.612       -1.905      861.014
12/15/2021  09:51:00       98.290       58.447      -21.901       30.074       35.482       18.032      904.467     1258.949      325.168        0.802        0.124      114.355       14.924        0.017      330.644       -1.852      860.986
12/15/2021  09:52:00       97.030       -0.389      -41.798       49.739       88.045       36.177     2473.944     7751.894     1308.769        1.135        0.577       97.031       26.673        0.076      330.869       -1.481      860.956
12/15/2021  09:53:00      -22.193      -20.194      -17.756       57.245       74.536       41.040     3276.960     5555.599     1684.303        0.586        0.526       30.005       30.618        1.041      330.968       -1.319      860.934
12/15/2021  09:54:00       12.772     -126.367      -13.838       57.451       76.999       44.213     3300.626     5928.792     1954.826        1.375        0.559      127.011       39.675        0.098      331.000       -1.268      860.896
12/15/2021  09:55:00       92.751     -217.547      -41.091       56.401       56.125       38.066     3181.094     3150.060     1449.003        3.270        0.389      236.494       27.786        0.014      330.746       -1.688      860.871
12/15/2021  09:56:00       92.856     -221.938      -52.942       30.881       38.017       20.603      953.665     1445.273      424.483        3.175        0.141      240.581       13.268        0.003      330.577       -1.965      860.869
12/15/2021  09:57:00       50.960      -86.549      -31.331       31.453       37.466       20.671      989.279     1403.729      427.285        0.694        0.141      100.437        8.502        0.007      330.745       -1.686      860.869
12/15/2021  09:58:00       50.076        6.696      -17.077       62.130       70.203       48.165     3860.188     4928.416     2319.827        0.697        0.555       50.522       20.991        0.173      331.280       -0.806      860.863
12/15/2021  09:59:00      123.802       54.539       -8.123       42.912       69.721       35.112     1841.471     4860.995     1232.870        1.315        0.397      135.283       18.653        0.019      331.049       -1.188      860.840
12/15/2021  10:00:00       81.466       -4.445      -18.191       42.127       57.806       30.601     1774.719     3341.532      936.444        0.652        0.303       81.588       14.718        0.033      330.991       -1.280      860.787
12/15/2021  10:01:00      111.961       60.361      -30.349       58.241       47.867       43.595     3392.005     2291.270     1900.503        1.234        0.379      127.195       20.422        0.026      331.162       -1.000      860.762
12/15/2021  10:02:00      142.380       78.645      -24.644       28.648       29.996       19.544      820.686      899.750      381.976        1.458        0.105      162.656        7.668        0.002      330.791       -1.610      860.809
12/15/2021  10:03:00       97.118       27.809      -18.801       37.718       39.935       25.638     1422.655     1594.836      657.310        0.712        0.184      101.021       17.616        0.030      331.034       -1.212      860.881
12/15/2021  10:04:00       80.262       13.090      -15.838       56.953       46.526       26.203     3243.677     2164.660      686.609        0.648        0.305       81.323       19.432        0.057      331.234       -0.882      860.941
12/15/2021  10:05:00      153.468       37.264      -16.038       46.640       45.387       27.720     2175.335     2059.936      768.413        1.510        0.250      157.928       18.923        0.014      330.850       -1.514      860.941
12/15/2021  10:06:00      118.392      -21.119      -22.527       68.644       52.227       37.606     4711.980     2727.622     1414.216        1.191        0.443      120.261       28.724        0.057      331.052       -1.181      860.913
12/15/2021  10:07:00      145.479        6.608      -21.664       82.805       64.618       45.539     6856.701     4175.428     2073.838        1.739        0.655      145.629       18.627        0.016      331.126       -1.061      860.935
12/15/2021  10:08:00       73.059       -1.914       -6.777       70.195       55.562       51.588     4927.375     3087.141     2661.326        0.803        0.534       73.084       37.530        0.264      331.706       -0.105      860.969
12/15/2021  10:09:00      160.357       57.128      -26.933       62.305       61.029       37.408     3881.891     3724.590     1399.329        1.935        0.450      170.230       22.258        0.017      331.153       -1.015      861.027
12/15/2021  10:10:00      118.355       49.766      -25.814       36.431       44.838       24.689     1327.236     2010.473      609.538        1.055        0.197      128.392        8.557        0.004      331.081       -1.133      861.073
12/15/2021  10:11:00       22.345        9.671      -18.601       50.085       43.276       24.439     2508.482     1872.792      597.273        0.296        0.249       24.348       19.201        0.622      331.329       -0.726      861.079
12/15/2021  10:12:00       41.269     -117.607      -22.656       48.053       70.347       28.154     2309.087     4948.664      792.652        1.205        0.403      124.638       31.263        0.063      331.246       -0.862      861.075
12/15/2021  10:13:00       55.313      -98.603      -29.870       56.484       63.796       30.395     3190.473     4069.919      923.841        1.093        0.409      113.058       28.959        0.066      331.291       -0.789      861.035
12/15/2021  10:14:00       86.911      -22.562      -23.160       61.215       49.681       35.842     3747.273     2468.243     1284.680        0.805        0.375       89.792       28.633        0.102      331.518       -0.416      860.974
12/15/2021  10:15:00       67.088       -2.113      -39.556       62.179       48.978       42.079     3866.253     2398.803     1770.632        0.705        0.402       67.121       22.925        0.117      331.509       -0.430      860.900
12/15/2021  10:16:00       86.027      -42.086      -37.898       73.029       75.974       52.264     5333.296     5772.119     2731.475        1.222        0.692       95.770       45.355        0.224      331.660       -0.182      860.869
12/15/2021  10:17:00       92.395       -6.551      -23.912       56.145       70.386       51.359     3152.241     4954.144     2637.785        0.995        0.537       92.627       31.901        0.119      331.679       -0.151      860.886
12/15/2021  10:18:00       88.203        9.591      -28.773       49.983       59.659       36.998     2498.341     3559.138     1368.849        0.806        0.371       88.723       28.501        0.103      331.670       -0.165      860.930
12/15/2021  10:19:00       55.004      -11.019      -33.593       39.156       64.288       37.498     1533.173     4132.997     1406.072        0.567        0.354       56.097       23.330        0.173      331.435       -0.550      860.994
12/15/2021  10:20:00       96.077       44.156      -26.287       71.037       72.999       32.267     5046.212     5328.909     1041.183        1.164        0.571      105.738       28.483        0.073      331.337       -0.713      861.044
12/15/2021  10:21:00      107.855       54.381      -34.664       55.607       55.604       32.282     3092.105     3091.769     1042.120        1.151        0.361      120.788       12.529        0.011      331.267       -0.828      861.069
12/15/2021  10:22:00      110.514        7.834      -22.996       62.759       81.146       28.229     3938.708     6584.689      796.902        1.206        0.566      110.791       25.182        0.052      331.245       -0.864      861.067
12/15/2021  10:23:00      101.655       47.042      -26.227       29.588       19.100       17.751      875.466      364.799      315.097        0.739        0.078      112.012       13.624        0.015      331.052       -1.180      861.059
12/15/2021  10:24:00       53.904       92.836      -18.487       35.959       45.989       23.398     1293.019     2114.979      547.489        0.791        0.198      107.351       21.533        0.040      331.333       -0.720      861.046
12/15/2021  10:25:00      105.522       43.190      -12.238       52.117       45.632       30.898     2716.141     2082.248      954.687        0.945        0.288      114.018       29.901        0.069      331.408       -0.596      861.049
12/15/2021  10:26:00       99.871       77.665      -19.023       51.428       37.281       34.272     2644.874     1389.857     1174.558        1.079        0.260      126.515       25.507        0.041      331.305       -0.766      861.034
12/15/2021  10:27:00       99.598       72.975      -14.737       41.506       32.920       30.295     1722.779     1083.746      917.768        0.959        0.186      123.471       21.314        0.030      331.129       -1.054      861.015
12/15/2021  10:28:00       93.540       65.488      -24.627       20.644       17.878       17.939      426.165      319.635      321.800        0.736        0.053      114.186       11.305        0.010      331.072       -1.148      860.985
12/15/2021  10:29:00       68.324       49.466      -20.916       47.253       29.200       22.903     2232.825      852.643      524.570        0.558        0.181       84.351       15.421        0.033      331.239       -0.873      860.954
12/15/2021  10:30:00       37.725       25.098      -13.840       29.564       18.351       20.100      874.010      336.768      404.024        0.193        0.081       45.311       19.089        0.177      331.304       -0.768      860.919
12/15/2021  10:31:00       31.990      -42.182      -18.327       40.010       43.478       35.127     1600.784     1890.373     1233.921        0.393        0.236       52.940       19.148        0.131      331.622       -0.242      860.867
12/15/2021  10:32:00      118.942       44.618      -19.088       60.365       30.450       22.050     3643.937      927.229      486.187        1.078        0.253      127.035       16.990        0.018      331.198       -0.942      860.825
12/15/2021  10:33:00      135.113       92.475      -28.431       39.385       38.175       26.997     1551.209     1457.316      728.848        1.568        0.187      163.729       21.184        0.017      331.080       -1.137      860.791
12/15/2021  10:34:00      106.567       56.016      -15.906       30.165       19.999       14.699      909.939      399.957      216.063        0.814        0.076      120.393        9.127        0.006      331.107       -1.092      860.774
12/15/2021  10:35:00      105.980       54.168      -23.109       28.171       18.929       20.882      793.626      358.324      436.045        0.814        0.079      119.020       13.960        0.014      331.185       -0.962      860.762
12/15/2021  10:36:00      119.356       28.877      -26.175       29.359       30.654       16.175      861.969      939.681      261.635        0.891        0.103      122.800       10.032        0.007      331.164       -0.997      860.749
12/15/2021  10:37:00       80.801       37.750      -27.372       31.071       22.518       21.052      965.430      507.070      443.175        0.531        0.096       89.185        7.507        0.007      331.366       -0.664      860.762
12/15/2021  10:38:00       16.088       15.433       -9.900       24.298       37.803       22.142      590.415     1429.084      490.246        0.155        0.125       22.294       16.593        0.554      331.564       -0.340      860.799
12/15/2021  10:39:00        4.471       33.505       -1.159       21.351       48.746       16.703      455.885     2376.151      278.997        0.213        0.156       33.802       15.026        0.198      331.622       -0.244      860.835
12/15/2021  10:40:00       40.155       67.597       -0.825       20.764       23.775       17.983      431.138      565.272      323.385        0.375        0.066       78.624       13.023        0.027      331.771        0.001      860.859
12/15/2021  10:41:00       47.986       70.707      -11.269       31.793       45.674       29.824     1010.783     2086.138      889.488        0.571        0.199       85.452       27.239        0.102      331.701       -0.113      860.878
12/15/2021  10:42:00       42.495       85.245      -10.034       46.880       37.208       23.474     2197.750     1384.445      551.034        0.665        0.207       95.250       16.735        0.031      331.447       -0.532      860.869
12/15/2021  10:43:00       92.354       42.742      -22.271       39.460       44.030       28.434     1557.125     1938.656      808.515        0.758        0.215      101.765       12.030        0.014      331.607       -0.269      860.867
12/15/2021  10:44:00       92.340       55.768      -32.473       35.739       22.149       23.115     1277.296      490.593      534.289        0.750        0.115      107.874        8.425        0.006      331.295       -0.782      860.864
12/15/2021  10:45:00       68.837       57.023      -21.141       41.772       46.449       30.181     1744.934     2157.551      910.902        0.662        0.241       89.387       15.047        0.028      331.724       -0.077      860.831
12/15/2021  10:46:00      110.026       57.999      -32.795       25.114       18.789       17.147      630.734      353.023      294.020        0.891        0.064      124.377       14.125        0.013      331.353       -0.687      860.825
12/15/2021  10:47:00       52.044       53.859      -36.075       30.681       22.619       16.706      941.333      511.609      279.086        0.432        0.087       74.896        5.830        0.006      331.422       -0.571      860.829
12/15/2021  10:48:00       13.631       26.844      -22.087       22.876       14.124       14.414      523.307      199.488      207.773        0.116        0.047       30.107        2.545        0.007      331.460       -0.511      860.795
12/15/2021  10:49:00       19.492       42.721       -1.927       23.091       15.205       18.314      533.191      231.193      335.400        0.165        0.055       46.957        9.705        0.043      331.601       -0.278      860.735
12/15/2021  10:50:00       37.361       53.930      -11.084       59.735       26.666       23.665     3568.267      711.073      560.042        0.463        0.242       65.607       20.681        0.099      331.566       -0.335      860.735
12/15/2021  10:51:00      -21.208       24.611       -8.145       28.744       29.777        9.787      826.224      886.660       95.785        0.146        0.090       32.488       11.349        0.122      331.582       -0.310      860.748
12/15/2021  10:52:00       -7.366       68.534      -19.731       14.987       25.376       14.218      224.617      643.930      202.139        0.311        0.054       68.929        8.662        0.016      331.491       -0.459      860.705
12/15/2021  10:53:00       34.281       45.455       -9.833       42.511       18.887       20.156     1807.202      356.723      406.268        0.295        0.129       56.933       11.281        0.039      331.698       -0.119      860.614
12/15/2021  10:54:00       89.450       65.345      -29.456       28.067       23.248       20.000      787.771      540.477      399.998        0.743        0.086      110.776       14.958        0.018      331.580       -0.313      860.545
12/15/2021  10:55:00      -28.299       -6.145        0.427       53.858       68.736       37.808     2900.642     4724.699     1429.408        0.495        0.453       28.959       36.976        1.630      331.938        0.276      860.547
12/15/2021  10:56:00       59.241       46.776        0.793       91.571       76.680       32.503     8385.177     5879.880     1056.427        1.051        0.766       75.482       34.990        0.215      332.106        0.553      860.537
12/15/2021  10:57:00      204.502       65.569      -35.691       45.767       49.950       31.219     2094.615     2494.977      974.641        2.648        0.278      214.757       16.523        0.006      331.560       -0.347      860.504
12/15/2021  10:58:00      163.318       24.288      -28.962       38.767       18.400       17.049     1502.863      338.560      290.669        1.512        0.107      165.114        8.622        0.003      331.428       -0.565      860.484
12/15/2021  10:59:00      145.042       22.939      -21.444       46.371       37.346       23.823     2150.279     1394.702      567.522        1.307        0.206      146.845        4.111        0.001      331.641       -0.213      860.485
12/15/2021  11:00:00      157.998       32.336      -21.514       48.018       47.396       27.013     2305.701     2246.387      729.710        1.588        0.264      161.273       17.502        0.012      331.696       -0.123      860.464
12/15/2021  11:01:00      120.157        7.793       -9.729       94.238       57.464       51.511     8880.747     3302.070     2653.360        1.471        0.742      120.410       43.334        0.130      332.045        0.451      860.412
12/15/2021  11:02:00       91.815       38.998      -30.343       44.398       83.065       45.341     1971.186     6899.731     2055.849        1.090        0.546       99.754       24.819        0.062      332.130        0.593      860.359
12/15/2021  11:03:00       34.409        3.235      -22.774       36.217       56.515       28.183     1311.700     3193.893      794.270        0.351        0.265       34.560       23.229        0.452      332.191        0.693      860.333
12/15/2021  11:04:00       69.139       40.831      -10.324       38.264       37.022       29.278     1464.147     1370.616      857.210        0.512        0.185       80.295       16.809        0.044      331.969        0.328      860.312
12/15/2021  11:05:00       84.295       49.373      -19.559       44.804       33.333       27.584     2007.373     1111.075      760.892        0.690        0.194       97.690       16.473        0.028      331.756       -0.024      860.312
12/15/2021  11:06:00       69.326       44.094      -11.226       26.244       21.574       19.534      688.756      465.450      381.574        0.421        0.077       82.161       14.258        0.030      331.773        0.004      860.321
12/15/2021  11:07:00      146.630       33.254      -15.006       58.655       36.350       27.929     3440.370     1321.304      780.051        1.419        0.277      150.354       31.781        0.045      331.714       -0.092      860.327
12/15/2021  11:08:00       57.784       -0.533        6.719       82.418       40.876       31.649     6792.696     1670.863     1001.662        0.642        0.473       57.787       39.649        0.471      332.122        0.579      860.308
12/15/2021  11:09:00       93.609       13.449      -13.584       39.320       40.960       24.685     1546.085     1677.737      609.329        0.648        0.192       94.570       25.164        0.071      331.982        0.349      860.274
12/15/2021  11:10:00      115.773       49.582      -18.861       46.071       35.786       25.551     2122.509     1280.646      652.860        1.014        0.203      125.944       13.331        0.011      331.938        0.276      860.256
12/15/2021  11:11:00       94.575       49.948       -8.631       56.826       33.660       27.061     3229.223     1133.002      732.325        0.830        0.255      106.954       25.609        0.057      331.932        0.266      860.262
12/15/2021  11:12:00      105.677       36.876      -25.516       41.725       37.040       20.770     1740.992     1371.930      431.380        0.836        0.177      111.926       15.589        0.019      331.827        0.093      860.264
12/15/2021  11:13:00       66.850       20.962      -15.556       41.193       51.852       24.019     1696.828     2688.661      576.932        0.506        0.248       70.060       17.719        0.064      332.112        0.562      860.259
12/15/2021  11:14:00       37.012       51.701        4.909       38.424       31.853       19.485     1476.398     1014.606      379.666        0.347        0.144       63.583       21.447        0.114      332.135        0.601      860.260
12/15/2021  11:15:00       59.964       59.470      -15.967       34.955       23.519       22.353     1221.833      553.130      499.656        0.483        0.114       84.453       19.983        0.056      332.030        0.428      860.290
12/15/2021  11:16:00       80.120       55.787       -3.612       42.725       48.083       22.551     1825.416     2311.930      508.548        0.709        0.232       97.629       18.472        0.036      332.118        0.573      860.328
12/15/2021  11:17:00       33.793      142.606      -21.725       33.991       27.215       22.467     1155.398      740.658      504.745        1.218        0.120      146.555       22.088        0.023      331.942        0.282      860.369
12/15/2021  11:18:00       40.096      104.898      -12.225       36.782       33.638       28.967     1352.909     1131.525      839.074        0.804        0.166      112.300       24.314        0.047      332.067        0.489      860.387
12/15/2021  11:19:00       44.603       94.792       -8.873       30.974       55.826       24.105      959.398     3116.497      581.062        0.785        0.233      104.761       18.014        0.030      332.191        0.693      860.368
12/15/2021  11:20:00       31.626       53.071       -6.587       28.050       31.127       27.424      786.775      968.894      752.058        0.318        0.125       61.780       21.730        0.124      332.276        0.834      860.312
12/15/2021  11:21:00       63.693       16.681      -10.016       75.718       34.124       18.953     5733.159     1164.419      359.214        0.584        0.363       65.841       16.564        0.063      332.181        0.678      860.251
12/15/2021  11:22:00       93.153       52.056      -18.629       47.452       20.507       27.994     2251.649      420.536      783.669        0.759        0.173      106.711       15.937        0.022      332.128        0.587      860.175
12/15/2021  11:23:00      156.657       39.835      -21.806       65.522       39.736       32.959     4293.166     1578.953     1086.307        1.678        0.348      161.642       14.985        0.009      332.142        0.612      860.063
12/15/2021  11:24:00      151.919       87.438      -31.195       42.304       45.228       30.268     1789.601     2045.550      916.176        1.822        0.238      175.285       20.288        0.013      332.001        0.379      859.979
12/15/2021  11:25:00      133.966       42.476      -31.360       46.565       31.027       24.100     2168.266      962.668      580.791        1.222        0.186      140.538       16.582        0.014      332.090        0.527      859.960
12/15/2021  11:26:00      105.849       45.579      -13.424       44.121       33.227       25.447     1946.671     1104.054      647.529        0.858        0.185      115.246       21.644        0.035      332.177        0.670      859.972
12/15/2021  11:27:00       89.738       47.989      -19.613       36.071       28.481       18.430     1301.124      811.148      339.656        0.660        0.123      101.764       13.691        0.018      332.156        0.637      859.974
12/15/2021  11:28:00      108.656       42.709      -19.479       63.922       30.696       25.795     4086.040      942.255      665.374        0.985        0.285      116.749       32.421        0.077      332.219        0.738      859.974
12/15/2021  11:29:00       37.327       83.506       -4.666       37.828       78.760       27.257     1430.937     6203.210      742.959        0.838        0.419       91.469       26.140        0.082      332.327        0.916      859.970
12/15/2021  11:30:00       77.561      125.554       -9.407       54.621       70.333       28.446     2983.415     4946.768      809.184        1.530        0.437      147.579       32.904        0.050      332.344        0.945      859.967
12/15/2021  11:31:00       54.975       71.563      -14.254       32.933       33.540       26.121     1084.607     1124.933      682.329        0.562        0.145       90.241       13.434        0.022      332.221        0.742      859.965
12/15/2021  11:32:00       72.537       34.028      -29.511       28.362       19.393       15.533      804.414      376.104      241.260        0.436        0.071       80.122       12.026        0.023      332.197        0.702      859.951
12/15/2021  11:33:00       46.904       41.348      -25.950       30.945       34.328       24.696      957.602     1178.419      609.899        0.366        0.137       62.527        6.113        0.010      332.400        1.037      859.914
12/15/2021  11:34:00       72.628       58.715      -17.087       21.579       15.178       19.600      465.665      230.372      384.172        0.505        0.054       93.393       10.647        0.013      332.135        0.598      859.897
12/15/2021  11:35:00       26.732       66.940       -5.501       22.348       17.937       25.513      499.413      321.723      650.901        0.335        0.074       72.081       16.070        0.050      332.330        0.922      859.892
12/15/2021  11:36:00       48.320       47.263       -1.523       34.673       31.560       23.318     1202.247      996.005      543.714        0.366        0.137       67.591       16.745        0.061      332.486        1.179      859.882
12/15/2021  11:37:00       41.972       57.195       -6.861       35.297       42.182       17.279     1245.890     1779.326      298.577        0.420        0.166       70.943       19.265        0.074      332.429        1.087      859.877
12/15/2021  11:38:00      -15.715      -16.702       -3.216       24.260       17.638       23.927      588.537      311.084      572.523        0.100        0.074       22.933        9.368        0.167      332.691        1.519      859.882
12/15/2021  11:39:00      -10.514      -23.483      -20.839       58.269       21.314       20.306     3395.296      454.299      412.323        0.268        0.213       25.729       14.543        0.319      332.733        1.590      859.873
12/15/2021  11:40:00       16.414       -5.541      -12.498       43.165       43.896       28.375     1863.222     1926.820      805.136        0.252        0.230       17.324       15.036        0.753      332.892        1.851      859.862
12/15/2021  11:41:00      -10.253        3.308      -19.082       37.479       30.555       31.744     1404.687      933.628     1007.710        0.191        0.167       10.773       17.966        2.781      332.608        1.382      859.886
12/15/2021  11:42:00        8.018      -71.337      -17.800       59.066       72.825       24.659     3488.819     5303.474      608.042        0.743        0.470       71.786       29.087        0.164      332.468        1.152      859.873
12/15/2021  11:43:00       76.893     -111.838      -38.746       51.721       43.746       29.981     2675.051     1913.712      898.838        1.270        0.274      135.721       23.506        0.030      332.561        1.303      859.848
12/15/2021  11:44:00       62.946      -74.383      -17.890       41.149       36.517       20.610     1693.221     1333.480      424.752        0.663        0.173       97.443       15.048        0.024      332.516        1.230      859.847
12/15/2021  11:45:00      -33.962      -33.942       -9.408       45.733       47.207       29.864     2091.528     2228.503      891.852        0.380        0.261       48.015       13.732        0.082      332.716        1.561      859.876
12/15/2021  11:46:00       55.305      -53.247      -38.713       27.519       34.104       23.140      757.277     1163.106      535.475        0.492        0.123       76.772       13.079        0.029      332.574        1.324      859.908
12/15/2021  11:47:00      -24.740      -28.188       -7.767       29.181       33.127       22.694      851.518     1097.392      514.996        0.196        0.123       37.505       18.726        0.249      332.866        1.810      859.903
12/15/2021  11:48:00      -34.326        8.533      -14.173       20.061        8.962       13.336      402.450       80.311      177.858        0.106        0.033       35.371        5.540        0.025      332.682        1.504      859.870
12/15/2021  11:49:00      -18.196      -10.180      -14.160       41.915       28.220       30.533     1756.835      796.358      932.260        0.206        0.174       20.850       16.458        0.623      333.056        2.121      859.844
12/15/2021  11:50:00      165.894       45.513      -20.213       54.211       52.113       33.388     2938.859     2715.716     1114.772        1.838        0.338      172.024       17.359        0.010      332.446        1.113      859.817
12/15/2021  11:51:00       90.010       28.119      -34.622       65.572       69.765       39.769     4299.707     4867.129     1581.540        1.042        0.537       94.300       21.910        0.054      332.761        1.634      859.789
12/15/2021  11:52:00       -2.595      -34.617      -44.240       70.242       57.685       33.119     4933.910     3327.568     1096.896        0.626        0.468       34.714       10.304        0.088      333.020        2.063      859.778
12/15/2021  11:53:00       12.380      -69.133      -28.559       62.164       60.887       39.424     3864.398     3707.189     1554.252        0.744        0.456       70.233       29.225        0.173      333.079        2.160      859.761
12/15/2021  11:54:00       -7.423       14.965       -5.592       37.226       29.462       29.399     1385.784      868.036      864.298        0.171        0.156       16.705       22.332        1.787      333.159        2.293      859.734
12/15/2021  11:55:00      -10.111      -58.638      -19.310       41.807       66.281       25.131     1747.846     4393.196      631.579        0.534        0.339       59.503       21.020        0.125      332.929        1.914      859.710
12/15/2021  11:56:00       80.313      -51.997      -21.579       67.769       59.377       47.128     4592.700     3525.660     2221.036        0.998        0.517       95.676       43.618        0.208      332.819        1.730      859.666
12/15/2021  11:57:00       79.997      -22.235      -11.809       69.401       75.776       57.821     4816.451     5742.028     3343.298        1.047        0.695       83.030       41.710        0.252      332.722        1.569      859.607
12/15/2021  11:58:00      161.562      -31.791      -26.871       57.172       71.308       46.672     3268.591     5084.763     2178.245        1.918        0.527      164.660       37.631        0.052      332.539        1.266      859.616
12/15/2021  11:59:00      101.680      -51.373      -25.636       55.638       59.217       37.776     3095.557     3506.643     1426.994        1.083        0.401      113.921       33.142        0.085      332.479        1.168      859.623
12/15/2021  12:00:00       86.746      -59.067      -20.984       49.084       42.276       29.439     2409.246     1787.224      866.645        0.826        0.253      104.946       17.548        0.028      332.555        1.293      859.609
12/15/2021  12:01:00      118.118      -24.087      -21.387       77.761       69.536       41.569     6046.756     4835.263     1728.014        1.380        0.631      120.549       29.619        0.060      332.622        1.402      859.577
12/15/2021  12:02:00      123.120      -30.997      -13.109       93.622       59.798       52.101     8765.024     3575.810     2714.477        1.567        0.753      126.962       51.867        0.167      332.602        1.369      859.583
12/15/2021  12:03:00      123.455        1.685      -20.749       85.068       76.790       53.361     7236.577     5896.691     2847.364        1.582        0.799      123.467       40.257        0.106      332.654        1.456      859.543
12/15/2021  12:04:00       18.308      -11.282       -3.311       68.642       68.846       39.416     4711.692     4739.837     1553.639        0.574        0.550       21.505       20.345        0.895      333.037        2.090      859.495
12/15/2021  12:05:00       49.356     -132.146      -16.553       62.688       82.616       37.905     3929.745     6825.325     1436.756        1.618        0.610      141.062       24.723        0.031      332.978        1.992      859.496
12/15/2021  12:06:00       83.084      -40.726      -32.304       94.794       90.488       58.469     8985.888     8188.099     3418.581        1.510        1.030       92.529       46.430        0.252      332.946        1.939      859.510
12/15/2021  12:07:00      145.113      -38.344      -27.177       88.156       92.229       60.926     7771.512     8506.115     3711.931        2.162        0.999      150.094       38.405        0.065      332.899        1.862      859.488
12/15/2021  12:08:00      102.156      -49.747      -45.520       79.733       88.924       47.725     6357.319     7907.524     2277.667        1.576        0.827      113.625       28.548        0.063      333.071        2.146      859.453
12/15/2021  12:09:00      117.373       34.663      -36.347       75.830       47.095       34.015     5750.150     2217.919     1157.019        1.271        0.456      122.385       24.133        0.039      332.754        1.623      859.459
12/15/2021  12:10:00      190.241       62.365      -20.585       65.956       55.974       29.378     4350.204     3133.126      863.085        2.442        0.417      200.202       25.394        0.016      332.639        1.430      859.423
12/15/2021  12:11:00      181.097       29.357      -15.534       92.040       61.607       36.090     8471.451     3795.407     1302.501        2.373        0.678      183.461       32.264        0.031      332.704        1.537      859.414
12/15/2021  12:12:00      235.835       37.008      -29.711       60.082       41.156       37.327     3609.788     1693.845     1393.273        3.228        0.335      238.721       12.838        0.003      332.589        1.346      859.405
12/15/2021  12:13:00      144.462      -30.320      -17.349       98.710       82.814       51.737     9743.629     6858.233     2676.715        2.068        0.964      147.609       39.178        0.070      332.836        1.755      859.355
12/15/2021  12:14:00      149.441      -24.302      -20.001      128.145       81.552       64.998    16421.093     6650.778     4224.706        2.530        1.365      151.404       52.705        0.121      332.946        1.938      859.287
12/15/2021  12:15:00      128.804      -77.942      -28.237      103.592       87.034       65.559    10731.255     7574.973     4297.954        2.303        1.130      150.550       62.596        0.173      333.073        2.148      859.264
12/15/2021  12:16:00      114.371      -17.227      -21.125      112.264       82.916       58.398    12603.174     6875.032     3410.382        1.835        1.144      115.661       48.486        0.176      333.005        2.036      859.276
12/15/2021  12:17:00       49.921      -17.507      -14.471       64.295       84.822       50.247     4133.877     7194.735     2524.784        0.843        0.693       52.902       34.635        0.429      333.260        2.458      859.263
12/15/2021  12:18:00      157.032       31.760      -26.304       71.834       69.396       29.438     5160.136     4815.798      866.578        1.860        0.542      160.211       33.157        0.043      332.753        1.620      859.254
12/15/2021  12:19:00      113.493      -52.335      -15.068       76.563       77.150       42.878     5861.823     5952.088     1838.560        1.475        0.683      124.978       34.986        0.078      332.973        1.982      859.220
12/15/2021  12:20:00      108.017       48.552      -17.804       59.120       75.354       42.644     3495.128     5678.293     1818.540        1.266        0.550      118.427       26.140        0.049      333.029        2.077      859.194
12/15/2021  12:21:00      142.627       59.946      -27.051       85.157       38.417       29.982     7251.677     1475.897      898.917        1.715        0.481      154.712       19.141        0.015      332.755        1.622      859.191
12/15/2021  12:22:00       89.953       22.788      -27.047       44.467       53.356       33.982     1977.312     2846.815     1154.783        0.766        0.299       92.794       26.484        0.081      332.949        1.945      859.192
12/15/2021  12:23:00       91.525       23.459      -20.783       44.241       52.746       25.715     1957.303     2782.113      661.240        0.738        0.270       94.484       14.100        0.022      332.889        1.847      859.152
12/15/2021  12:24:00      145.808       32.608      -19.275       83.897       65.718       37.344     7038.773     4318.879     1394.569        1.772        0.638      149.409       40.742        0.074      332.900        1.863      859.116
12/15/2021  12:25:00       57.579       39.168      -25.843       43.209       42.495       33.817     1867.034     1805.844     1143.583        0.517        0.241       69.638       24.323        0.122      333.143        2.265      859.108
12/15/2021  12:26:00       24.279       30.249        1.258       32.930       37.305       27.489     1084.367     1391.660      755.655        0.237        0.162       38.788       25.067        0.418      333.175        2.320      859.079
12/15/2021  12:27:00       79.503       -3.520      -13.374       59.130       52.025       32.569     3496.338     2706.581     1060.734        0.689        0.363       79.580       30.025        0.142      333.256        2.454      859.009
12/15/2021  12:28:00      136.292       27.947      -20.145       58.658       55.562       28.067     3440.816     3087.105      787.776        1.354        0.366      139.127       23.537        0.029      332.966        1.972      858.953
12/15/2021  12:29:00      123.732       -4.638       -9.856       73.102       47.220       39.606     5343.863     2229.702     1568.609        1.228        0.457      123.819       31.118        0.063      332.997        2.025      858.904
12/15/2021  12:30:00       72.874       -2.498       -5.542       70.279       72.890       48.286     4939.073     5312.952     2331.494        0.896        0.629       72.916       41.199        0.319      333.245        2.433      858.855
12/15/2021  12:31:00       48.303      -55.885      -11.270       62.614       84.474       57.120     3920.469     7135.799     3262.690        0.995        0.716       73.867       44.307        0.360      333.424        2.729      858.799
12/15/2021  12:32:00       90.246      -24.603      -34.176       77.527       73.294       56.985     6010.360     5371.980     3247.343        1.227        0.731       93.539       46.677        0.249      333.396        2.684      858.771
12/15/2021  12:33:00       35.593      -18.092      -23.888       34.810       77.523       31.276     1211.703     6009.831      978.161        0.518        0.410       39.928       17.947        0.202      333.285        2.501      858.717
12/15/2021  12:34:00       99.417      -11.844       -1.935       87.668       46.027       34.721     7685.722     2118.516     1205.537        1.052        0.550      100.120       40.539        0.164      333.002        2.031      858.694
12/15/2021  12:35:00       92.296       48.567      -20.453       47.805       46.730       22.337     2285.301     2183.680      498.929        0.813        0.248      104.295       12.598        0.015      332.887        1.843      858.738
12/15/2021  12:36:00       57.266       -1.547      -18.256       63.885       52.524       28.624     4081.340     2758.773      819.348        0.564        0.383       57.287       10.301        0.032      333.203        2.365      858.761
12/15/2021  12:37:00       78.593       10.904      -26.730       43.657       68.397       42.680     1905.911     4678.088     1821.552        0.771        0.420       79.346       26.803        0.114      332.984        2.003      858.782
12/15/2021  12:38:00       78.564      -13.867      -15.386       53.022       46.139       29.320     2811.306     2128.779      859.645        0.620        0.290       79.778       19.672        0.061      332.994        2.019      858.796
12/15/2021  12:39:00      135.512       49.483      -22.693       51.593       41.999       30.941     2661.790     1763.928      957.371        1.335        0.269      144.264       13.546        0.009      332.898        1.861      858.780
12/15/2021  12:40:00       32.943      -35.099      -12.495       56.813       66.228       36.529     3227.746     4386.131     1334.383        0.571        0.447       48.137       22.377        0.216      333.306        2.535      858.733
12/15/2021  12:41:00       40.138      -69.299      -35.835       26.222       26.406       22.488      687.608      697.281      505.701        0.479        0.095       80.084        7.972        0.010      332.991        2.015      858.692
12/15/2021  12:42:00      -13.985       -6.712        3.651       19.506       34.052       25.656      380.478     1159.517      658.243        0.123        0.110       15.512       15.908        1.052      333.264        2.468      858.670
12/15/2021  12:43:00       72.176       35.673      -23.726       36.252       38.383       27.022     1314.215     1473.227      730.185        0.528        0.176       80.510       11.289        0.020      333.050        2.113      858.660
12/15/2021  12:44:00       90.103      -50.757      -14.265       54.093       36.354       28.931     2926.008     1321.599      837.019        0.799        0.254      103.415       15.915        0.024      332.951        1.950      858.685
12/15/2021  12:45:00       48.303      -44.305      -20.979       61.087       62.722       39.037     3731.616     3934.017     1523.865        0.696        0.459       65.545       26.330        0.161      333.277        2.488      858.723
12/15/2021  12:46:00       60.717      -25.956      -39.840       54.537       86.293       54.227     2974.237     7446.417     2940.621        0.965        0.668       66.033       33.918        0.264      333.371        2.643      858.747
12/15/2021  12:47:00       71.609     -106.112      -30.133       79.941      102.292       55.928     6390.487    10463.649     3127.902        1.864        0.999      128.014       51.801        0.164      333.254        2.447      858.758
12/15/2021  12:48:00       16.578     -110.394      -17.022       61.862       45.268       46.054     3826.928     2049.179     2120.983        1.037        0.400      111.632       44.100        0.156      332.852        1.784      858.763
12/15/2021  12:49:00       51.593       42.546        6.560       43.679       40.480       27.636     1907.820     1638.598      763.731        0.441        0.216       66.873       28.147        0.177      332.951        1.949      858.727
12/15/2021  12:50:00        6.333      -18.916      -23.107       35.159       61.502       19.186     1236.141     3782.443      368.090        0.316        0.269       19.948       12.784        0.411      333.157        2.288      858.725
12/15/2021  12:51:00       33.635     -106.621      -29.248       32.101       36.968       20.886     1030.497     1366.664      436.241        0.809        0.142      111.800       18.481        0.027      332.714        1.558      858.756
12/15/2021  12:52:00      -17.139     -101.085      -10.254       34.500       26.592       27.124     1190.273      707.156      735.727        0.662        0.132      102.527       21.079        0.042      332.863        1.804      858.804
12/15/2021  12:53:00       50.464        4.372      -10.559       42.691       79.505       28.398     1822.488     6321.001      806.432        0.581        0.447       50.653       26.981        0.284      333.219        2.391      858.842
12/15/2021  12:54:00      113.317       59.148      -21.588       53.436       32.840       29.740     2855.432     1078.478      884.444        1.081        0.241      127.825       19.427        0.023      333.012        2.050      858.814
12/15/2021  12:55:00       77.078       54.518      -25.276       24.569       22.451       20.187      603.646      504.028      407.526        0.553        0.076       94.410       11.638        0.015      332.812        1.718      858.802
12/15/2021  12:56:00       56.171       45.366      -24.025       26.791       45.309       16.503      717.745     2052.934      272.353        0.442        0.152       72.203        8.521        0.014      332.825        1.741      858.789
12/15/2021  12:57:00       52.495      -20.392       -8.729       31.739       31.064       26.735     1007.350      964.986      714.749        0.297        0.134       56.317       14.287        0.064      333.080        2.161      858.697
12/15/2021  12:58:00       47.949       15.544      -19.377       55.083       89.422       39.961     3034.173     7996.241     1596.897        0.777        0.631       50.405       18.841        0.140      333.167        2.307      858.602
12/15/2021  12:59:00       43.906       79.057      -10.514       29.098       30.362       25.551      846.702      921.837      652.839        0.535        0.121       90.430       14.242        0.025      333.026        2.072      858.548
12/15/2021  13:00:00       37.441       72.079      -10.235       44.633       33.019       24.953     1992.113     1090.258      622.648        0.520        0.185       81.224       11.603        0.020      333.076        2.155      858.539
12/15/2021  13:01:00       30.931       45.332       -8.625       37.982       37.256       19.253     1442.645     1388.002      370.681        0.314        0.160       54.879       17.068        0.097      333.098        2.192      858.501
12/15/2021  13:02:00       46.958       57.633       -3.958       61.635       57.067       28.263     3798.889     3256.644      798.811        0.670        0.393       74.341       13.145        0.031      333.200        2.361      858.476
12/15/2021  13:03:00       97.079      170.354      -27.852       61.482       85.346       31.815     3780.025     7283.936     1012.173        2.565        0.604      196.073       30.073        0.024      333.036        2.087      858.485
12/15/2021  13:04:00      114.248      235.000      -26.612       47.636       72.838       32.887     2269.174     5305.394     1081.535        3.882        0.433      261.300       28.199        0.012      333.042        2.095      858.532
12/15/2021  13:05:00       95.624      136.987      -35.582       58.623       49.023       44.092     3436.711     2403.255     1944.079        1.848        0.389      167.061       34.160        0.042      333.076        2.153      858.598
12/15/2021  13:06:00       92.252      106.717      -13.200       87.164       47.376       29.707     7597.501     2244.440      882.506        1.540        0.536      141.064       22.234        0.025      333.032        2.080      858.665
12/15/2021  13:07:00       20.515      119.592      -15.875       43.225       47.162       24.470     1868.424     2224.297      598.758        0.983        0.235      121.339       16.010        0.017      333.067        2.140      858.724
12/15/2021  13:08:00       94.414       50.074      -21.953       42.911       23.840       19.167     1841.352      568.347      367.360        0.734        0.139      106.871       16.053        0.023      332.918        1.893      858.664
12/15/2021  13:09:00      149.940       24.384       -5.543       67.758       60.558       35.330     4591.195     3667.224     1248.195        1.631        0.475      151.910       32.238        0.045      333.052        2.115      858.528
12/15/2021  13:10:00       96.357      161.079      -15.635       77.815       71.959       49.391     6055.171     5178.119     2439.455        2.457        0.684      187.700       36.983        0.039      333.131        2.244      858.517
12/15/2021  13:11:00      129.392      111.459      -18.230       53.360       43.083       30.140     2847.274     1856.148      908.390        1.755        0.281      170.779       27.153        0.025      333.171        2.311      858.508
12/15/2021  13:12:00      128.280       92.812      -20.964       71.147       39.619       33.679     5061.884     1569.645     1134.300        1.664        0.388      158.335       27.969        0.031      332.993        2.017      858.453
12/15/2021  13:13:00      -23.849       84.743      -12.337       42.758       62.040       24.049     1828.235     3849.016      578.355        0.708        0.313       88.035       30.020        0.116      333.193        2.349      858.484
12/15/2021  13:14:00      -21.625       83.361       -6.757       37.371       32.908       17.047     1396.594     1082.957      290.616        0.512        0.139       86.121       14.963        0.030      333.366        2.634      858.574
12/15/2021  13:15:00       -2.946      125.230      -10.604       44.752       47.887       26.473     2002.753     2293.147      700.812        1.040        0.250      125.265       19.315        0.024      333.328        2.572      858.569
12/15/2021  13:16:00       48.272       91.747      -11.978       55.830       65.914       33.468     3117.033     4344.595     1120.102        0.973        0.429      103.671       35.740        0.119      333.191        2.346      858.581
12/15/2021  13:17:00       53.372      139.260       -9.924       53.961       70.937       33.295     2911.775     5032.093     1108.526        1.569        0.453      149.137       26.490        0.032      333.437        2.750      858.651
12/15/2021  13:18:00       50.945      183.292      -28.990       84.173       55.808       38.163     7085.086     3114.490     1456.451        2.434        0.583      190.240       26.665        0.020      333.323        2.562      858.710
12/15/2021  13:19:00       -7.975      132.826       -7.032       41.292       72.286       33.925     1705.009     5225.277     1150.912        1.292        0.404      133.065       26.777        0.040      333.305        2.534      858.759
12/15/2021  13:20:00       16.672       70.134      -15.585       32.111       45.245       22.679     1031.147     2047.150      514.346        0.452        0.180       72.089       18.842        0.068      333.252        2.445      858.761
12/15/2021  13:21:00     -103.895      105.322      -26.429       89.669       74.914       42.962     8040.479     5612.170     1845.733        1.904        0.775      147.942       16.247        0.012      333.493        2.843      858.797
12/15/2021  13:22:00      -53.041       89.139      -19.551       61.914      107.033       42.675     3833.282    11456.053     1821.137        1.412        0.856      103.727       27.685        0.071      333.306        2.535      858.762
12/15/2021  13:23:00      -48.825       50.168      -15.725       45.667       72.282       30.599     2085.513     5224.661      936.295        0.670        0.412       70.005       27.387        0.153      333.375        2.650      858.598
12/15/2021  13:24:00       48.236      -14.291       -6.505       55.094       90.316       34.802     3035.310     8156.951     1211.206        0.749        0.620       50.309       17.977        0.128      333.567        2.966      858.393
12/15/2021  13:25:00       31.831       89.596      -23.287       59.782       54.958       39.093     3573.901     3020.370     1528.268        0.885        0.406       95.082       22.567        0.056      333.499        2.855      858.387
12/15/2021  13:26:00       21.188       50.894        4.116       40.864       62.272       32.885     1669.891     3877.849     1081.419        0.484        0.331       55.129       22.322        0.164      333.674        3.145      858.385
12/15/2021  13:27:00      -80.287        6.182      -38.912      124.458       62.128       49.193    15489.757     3859.869     2419.955        1.488        1.088       80.525       52.327        0.422      333.275        2.484      858.329
12/15/2021  13:28:00        1.374       35.055       -1.064       94.196      100.766       59.989     8872.885    10153.862     3598.627        1.192        1.131       35.082       28.069        0.640      333.461        2.792      858.367
12/15/2021  13:29:00       -2.388      195.157      -24.243       64.793       71.715       42.625     4198.068     5143.059     1816.910        2.492        0.558      195.172       17.904        0.008      333.158        2.289      858.381
12/15/2021  13:30:00       47.074      217.904      -26.485       81.578      120.308       55.831     6654.989    14474.117     3117.135        3.732        1.212      222.931       40.259        0.033      333.152        2.278      858.375
12/15/2021  13:31:00      -24.148      107.389      -22.219       86.956      100.590       45.236     7561.330    10118.379     2046.275        1.616        0.986      110.070       47.891        0.189      333.303        2.529      858.361
12/15/2021  13:32:00     -150.919       56.629      -16.484      104.006       85.051       44.584    10817.347     7233.610     1987.742        2.314        1.002      161.193       39.038        0.059      333.441        2.756      858.406
12/15/2021  13:33:00      -83.653       64.789      -28.978       50.946       60.056       30.878     2595.468     3606.768      953.467        0.959        0.358      105.808       13.763        0.017      333.153        2.281      858.457
12/15/2021  13:34:00      -49.221       11.239       -0.445       52.991       33.999       21.883     2807.997     1155.907      478.874        0.350        0.222       50.488       19.892        0.155      333.422        2.726      858.315
12/15/2021  13:35:00      -62.440      142.921      -14.823       55.606       67.763       29.627     3092.069     4591.840      877.769        1.655        0.428      155.965       24.033        0.024      333.295        2.516      858.182
12/15/2021  13:36:00     -105.410       44.932      -24.580       81.320       46.666       41.087     6612.890     2177.734     1688.163        1.210        0.524      114.587       45.133        0.155      333.400        2.691      858.189
12/15/2021  13:37:00      -88.707       22.181      -35.736       68.309       54.978       42.313     4666.119     3022.538     1790.385        0.956        0.474       91.438       25.063        0.075      333.614        3.044      858.303
12/15/2021  13:38:00      -33.634       57.348      -15.121       50.470       54.460       29.524     2547.198     2965.838      871.645        0.552        0.319       66.483       22.864        0.118      333.582        2.992      858.286
12/15/2021  13:39:00        3.771       16.869       -8.081       36.634       19.139       22.307     1342.030      366.286      497.593        0.128        0.110       17.286        7.085        0.168      333.610        3.038      858.207
12/15/2021  13:40:00      -26.920       76.446       -6.674       51.234       87.444       32.888     2624.928     7646.389     1081.618        0.898        0.568       81.047       24.910        0.094      333.528        2.902      858.156
12/15/2021  13:41:00      -72.998      148.041      -10.999       55.718       57.052       31.647     3104.465     3254.976     1001.502        1.736        0.368      165.060       27.856        0.028      333.492        2.842      858.190
12/15/2021  13:42:00      -81.931       82.779      -11.986       37.298       43.820       27.202     1391.150     1920.200      739.959        0.888        0.203      116.469       15.087        0.017      333.484        2.831      858.195
12/15/2021  13:43:00       -3.097       57.368      -11.591       44.057       33.068       21.247     1941.051     1093.472      451.452        0.346        0.174       57.451       11.551        0.040      333.435        2.746      858.147
12/15/2021  13:44:00      -33.870       47.368      -11.201       20.652       34.733       14.591      426.518     1206.390      212.910        0.268        0.092       58.231       13.058        0.050      333.544        2.931      858.161
12/15/2021  13:45:00     -146.861       25.591      -15.496       69.148       42.784       29.887     4781.436     1830.488      893.205        1.498        0.375      149.074       24.064        0.026      333.567        2.966      858.193
12/15/2021  13:46:00     -140.452       38.197       -5.573       85.224       50.548       38.072     7263.194     2555.105     1449.492        1.624        0.563      145.553       35.530        0.060      333.519        2.887      858.119
12/15/2021  13:47:00      -73.823        0.371      -11.560      128.875       64.546       44.685    16608.709     4166.248     1996.749        1.417        1.139       73.824       32.144        0.190      333.673        3.142      858.132
12/15/2021  13:48:00       10.066       12.568      -14.261       27.187       30.285       29.477      739.107      917.208      868.913        0.149        0.126       16.102       14.634        0.826      333.542        2.926      858.141
12/15/2021  13:49:00       17.931       23.945      -17.815       29.612       51.437       26.734      876.842     2645.743      714.684        0.272        0.212       29.914       29.249        0.956      333.418        2.720      857.980
12/15/2021  13:50:00      -26.806       27.218        8.369       74.985       64.671       40.337     5622.775     4182.397     1627.073        0.648        0.572       38.202       25.302        0.439      333.595        3.014      857.899
12/15/2021  13:51:00      -33.161      -21.143       -7.893       48.667       45.670       35.234     2368.460     2085.761     1241.439        0.365        0.285       39.328       29.906        0.578      333.752        3.273      857.950
12/15/2021  13:52:00      150.827       30.994      -29.488       55.124       55.492       29.358     3038.661     3079.381      861.905        1.578        0.349      153.979       25.974        0.028      333.375        2.650      857.899
12/15/2021  13:53:00       86.260       45.145      -14.242       54.054       61.450       34.226     2921.872     3776.099     1171.434        0.877        0.393       97.359       18.008        0.034      333.527        2.902      857.808
12/15/2021  13:54:00        1.322      137.794      -19.383       50.342       75.505       37.218     2534.302     5701.074     1385.169        1.449        0.481      137.800       34.454        0.063      333.551        2.939      857.874
12/15/2021  13:55:00      -21.659       58.862       -7.012       51.209       44.234       27.412     2622.411     1956.661      751.434        0.466        0.267       62.720       17.396        0.077      333.759        3.285      857.944
12/15/2021  13:56:00      -47.520       96.998       -3.557       43.562       47.774       27.392     1897.614     2282.343      750.339        0.830        0.247      108.013       22.196        0.042      333.542        2.926      857.889
12/15/2021  13:57:00      -13.735       55.459      -12.554       22.138       29.561       19.457      490.108      873.836      378.573        0.258        0.087       57.135       10.503        0.034      333.327        2.571      857.762
12/15/2021  13:58:00       32.827       93.004        2.539       24.410       46.058       27.161      595.839     2121.315      737.730        0.659        0.173       98.628       25.684        0.068      333.448        2.770      857.714
12/15/2021  13:59:00       28.008        9.399      -16.033       22.610       31.535       13.879      511.208      994.438      192.615        0.141        0.085       29.543        9.424        0.102      333.536        2.915      857.761
12/15/2021  14:00:00       19.962       14.841      -29.643       27.215       36.649       21.278      740.652     1343.129      452.760        0.202        0.127       24.875       13.448        0.292      333.600        3.021      857.717
12/15/2021  14:01:00       59.908      -99.833      -36.298       42.289      105.209       33.876     1788.341    11068.862     1147.615        1.444        0.700      116.429       19.048        0.027      333.639        3.085      857.631
12/15/2021  14:02:00       31.767      -47.604      -46.552       58.959       67.934       38.642     3476.186     4615.029     1493.166        0.751        0.479       57.230       20.839        0.133      333.789        3.335      857.677
12/15/2021  14:03:00      -43.338       51.285      -14.033       41.998       38.838       19.293     1763.859     1508.366      372.213        0.417        0.182       67.145        8.255        0.015      333.907        3.530      857.803
12/15/2021  14:04:00        8.004      -22.675       -0.639       45.145       32.689       22.301     2038.072     1068.538      497.327        0.209        0.180       24.046       16.736        0.484      333.935        3.577      857.827
12/15/2021  14:05:00       25.862       17.070      -22.583       33.172       50.521       28.795     1100.370     2552.369      829.144        0.298        0.224       30.988       11.029        0.127      333.501        2.857      857.705
12/15/2021  14:06:00       36.688        6.003      -20.975       49.376       61.857       31.333     2437.969     3826.326      981.732        0.453        0.362       37.176       23.415        0.397      333.575        2.981      857.597
12/15/2021  14:07:00      -52.053       18.697       -2.473       35.065       24.054       22.020     1229.562      578.606      484.896        0.268        0.115       55.309       13.948        0.064      333.714        3.211      857.585
12/15/2021  14:08:00       70.331       27.153      -14.203       32.619       44.394       20.931     1064.031     1970.846      438.123        0.468        0.174       75.391       14.116        0.035      333.463        2.797      857.593
12/15/2021  14:09:00       57.495       33.380      -23.029       51.308       77.744       33.625     2632.474     6044.138     1130.630        0.738        0.490       66.482       29.542        0.197      333.693        3.175      857.521
12/15/2021  14:10:00      114.932       10.980      -28.893       77.887       56.689       44.547     6066.330     3213.595     1984.439        1.271        0.563      115.455       29.992        0.067      333.695        3.177      857.489
12/15/2021  14:11:00       15.478       -0.163       -7.846       40.230       41.095       33.038     1618.488     1688.823     1091.512        0.235        0.220       15.478       12.527        0.655      333.984        3.658      857.589
12/15/2021  14:12:00       22.397      -65.881       -8.510       34.600       41.665       29.588     1197.178     1735.932      875.479        0.436        0.190       69.584       19.646        0.080      333.836        3.413      857.630
12/15/2021  14:13:00      109.328      -23.464      -19.178       71.885       43.297       37.786     5167.474     1874.647     1427.757        1.067        0.423      111.818       33.854        0.092      333.603        3.027      857.553
12/15/2021  14:14:00      127.180       18.120       -7.268       64.602       51.502       29.990     4173.375     2652.499      899.412        1.214        0.386      128.464       24.278        0.036      333.493        2.844      857.397
12/15/2021  14:15:00      129.590      -36.832      -22.634       98.042       72.661       54.683     9612.188     5279.598     2990.280        1.827        0.894      134.722       46.579        0.120      333.744        3.258      857.298
12/15/2021  14:16:00       79.157     -122.232      -25.274       73.978       67.654       42.640     5472.683     4577.005     1818.143        1.685        0.593      145.625       25.805        0.031      333.609        3.035      857.378
12/15/2021  14:17:00       72.866       27.162       -6.000       57.843       48.007       36.251     3345.794     2304.688     1314.114        0.652        0.348       77.764       30.986        0.159      333.639        3.087      857.422
12/15/2021  14:18:00      146.228       39.415      -16.752       51.267       44.218       27.533     2628.332     1955.209      758.056        1.428        0.267      151.446       17.166        0.013      333.519        2.888      857.357
12/15/2021  14:19:00       79.573      -71.103      -32.553       58.680       95.022       34.988     3443.391     9029.232     1224.134        1.307        0.685      106.712       27.019        0.064      333.832        3.405      857.344
12/15/2021  14:20:00       96.151      -54.480      -38.958       66.345       61.133       40.096     4401.709     3737.268     1607.649        1.174        0.487      110.513       24.612        0.050      333.829        3.401      857.352
12/15/2021  14:21:00       61.341     -155.347      -20.810       64.975       57.455       36.420     4221.690     3301.103     1326.415        1.859        0.442      167.019       22.629        0.018      333.641        3.089      857.345
12/15/2021  14:22:00       42.307      -50.973      -21.720       58.688       80.911       40.589     3444.278     6546.635     1647.506        0.825        0.582       66.243       25.015        0.143      333.908        3.532      857.356
12/15/2021  14:23:00       46.990      -10.342       -7.035       54.231       67.261       35.630     2940.952     4524.041     1269.472        0.555        0.437       48.114       29.356        0.372      333.906        3.528      857.346
12/15/2021  14:24:00       42.883      -99.229      -24.069       29.686       41.821       32.842      881.268     1748.970     1078.594        0.799        0.185      108.098       25.810        0.057      333.612        3.042      857.393
12/15/2021  14:25:00       20.180      -41.371      -16.894       23.428       28.309       23.690      548.876      801.379      561.223        0.216        0.096       46.031       13.216        0.082      333.895        3.510      857.416
12/15/2021  14:26:00      -34.099      -75.694      -28.098       54.358       58.049       45.996     2954.840     3369.715     2115.625        0.806        0.422       83.020       23.847        0.083      334.016        3.710      857.444
12/15/2021  14:27:00      -64.254        8.434        1.614       53.598       33.545       27.878     2872.785     1125.267      777.167        0.449        0.239       64.806       23.011        0.126      333.959        3.616      857.448
12/15/2021  14:28:00       16.079        4.506       11.930       54.245       41.156       29.272     2942.517     1693.788      856.828        0.296        0.275       16.699       22.061        1.745      334.192        4.003      857.448
12/15/2021  14:29:00       25.922      -15.396       -3.607       44.746       41.007       37.010     2002.180     1681.587     1369.773        0.299        0.253       30.150       19.513        0.419      334.026        3.729      857.379
12/15/2021  14:30:00       40.821       86.378      -14.203       25.675       50.094       20.183      659.203     2509.437      407.336        0.645        0.179       95.538       18.978        0.039      333.754        3.278      857.216
12/15/2021  14:31:00      -58.840       -8.471      -21.870       63.551       56.639       33.848     4038.712     3207.943     1145.696        0.620        0.420       59.447       19.405        0.107      333.697        3.181      857.275
12/15/2021  14:32:00      -52.040      -19.490      -15.688       77.656       52.476       38.272     6030.523     2753.700     1464.762        0.679        0.512       55.570       15.723        0.080      333.833        3.408      857.345
12/15/2021  14:33:00     -102.321        2.003      -14.399       55.603       52.020       33.785     3091.737     2706.108     1141.439        0.881        0.347      102.341       30.788        0.091      333.793        3.340      857.358
12/15/2021  14:34:00     -123.344       56.695      -12.852       80.513       60.806       33.605     6482.377     3697.392     1129.301        1.495        0.565      135.749       31.088        0.052      333.733        3.241      857.390
12/15/2021  14:35:00     -135.625       85.356      -28.597       54.427       42.593       35.566     2962.275     1814.130     1264.971        1.627        0.302      160.250       33.562        0.044      333.814        3.375      857.381
12/15/2021  14:36:00      -94.130       27.187        2.185       65.659       45.888       42.820     4311.145     2105.698     1833.516        0.893        0.413       97.978       41.371        0.178      333.987        3.663      857.330
12/15/2021  14:37:00       -9.184       40.785      -11.277       38.857       48.012       19.044     1509.859     2305.197      362.683        0.303        0.209       41.806       13.731        0.108      333.783        3.325      857.314
12/15/2021  14:38:00       18.511      154.589      -10.551       52.676       43.070       33.623     2774.745     1855.014     1130.525        1.505        0.288      155.693       28.918        0.034      333.843        3.424      857.331
12/15/2021  14:39:00      137.033      106.691      -17.617       59.427       48.397       33.797     3531.528     2342.255     1142.252        1.874        0.351      173.669       26.091        0.023      333.618        3.050      857.203
12/15/2021  14:40:00      168.708       39.326       -9.861       59.426       66.938       42.625     3531.499     4480.744     1816.933        1.997        0.491      173.231       21.686        0.016      333.654        3.110      857.092
12/15/2021  14:41:00      216.348       89.306      -37.222      110.845      106.633       56.261    12286.621    11370.674     3165.342        4.149        1.341      234.056       41.622        0.032      333.738        3.247      856.956
12/15/2021  14:42:00      -20.767      144.971      -21.877       80.483       50.964       35.019     6477.486     2597.371     1226.316        1.611        0.515      146.451       22.745        0.024      333.741        3.253      856.955
12/15/2021  14:43:00      -25.860      113.490      -17.372       68.855       42.060       29.725     4740.962     1769.064      883.572        1.062        0.370      116.399        9.592        0.007      333.709        3.203      856.951
12/15/2021  14:44:00       41.286       44.099      -11.433       40.937       25.305       19.380     1675.833      640.345      375.590        0.324        0.135       60.409       12.506        0.043      333.723        3.226      856.970
12/15/2021  14:45:00      128.810       17.414      -11.578       68.108       57.019       31.458     4638.681     3251.182      989.575        1.295        0.444      129.982       22.798        0.031      333.843        3.423      857.017
12/15/2021  14:46:00      135.198       32.496      -16.320       50.674       57.470       31.040     2567.879     3302.814      963.476        1.322        0.342      139.049       24.679        0.032      333.656        3.114      857.040
12/15/2021  14:47:00      -10.154       30.891       -3.688       65.964       48.949       41.363     4351.194     2396.018     1710.928        0.476        0.423       32.517       21.605        0.441      333.925        3.560      857.100
12/15/2021  14:48:00       40.751      -25.019        0.642       50.520       47.076       24.416     2552.282     2216.176      596.138        0.382        0.268       47.819       18.293        0.146      334.021        3.720      857.145
12/15/2021  14:49:00       27.253        1.648      -35.357       66.795       89.802       43.958     4461.602     8064.459     1932.283        0.822        0.723       27.303       37.283        1.865      333.992        3.671      857.033
12/15/2021  14:50:00      -23.361      -27.485      -18.345       41.640       56.902       33.118     1733.884     3237.817     1096.824        0.385        0.303       36.072       28.713        0.634      334.077        3.811      857.003
12/15/2021  14:51:00       12.762       48.956      -40.755       60.296       37.059       36.857     3635.600     1373.405     1358.411        0.529        0.318       50.592       25.351        0.251      333.955        3.611      857.088
12/15/2021  14:52:00      -91.898       89.856      -26.891      101.257       33.867       41.369    10252.911     1147.002     1711.429        1.517        0.656      128.528       51.668        0.162      334.042        3.752      857.178
12/15/2021  14:53:00      -80.821       64.086      -22.621       94.787       80.996       43.296     8984.630     6560.340     1874.512        1.428        0.871      103.146       37.663        0.133      333.761        3.287      857.263
12/15/2021  14:54:00       89.251       81.316      -14.971       77.878      113.083       27.811     6064.947    12787.734      773.450        1.721        0.981      120.740       37.026        0.094      333.965        3.625      857.264
12/15/2021  14:55:00      -97.034      268.170      -17.965      146.104      165.348       78.985    21346.502    27340.082     6238.571        6.828        2.746      285.186       49.666        0.030      333.629        3.068      857.216
12/15/2021  14:56:00     -122.220      -27.584      -36.251      182.676      128.160       81.924    33370.496    16425.008     6711.469        3.675        2.825      125.294       75.165        0.360      333.541        2.922      857.179
12/15/2021  14:57:00     -137.643       20.257      -20.178      108.105      128.006       61.982    11686.659    16385.475     3841.761        2.583        1.596      139.126       33.029        0.056      333.444        2.761      857.178
12/15/2021  14:58:00     -112.780       49.941       -7.328      105.750      112.008       56.074    11183.035    12545.887     3144.266        2.107        1.344      123.342       44.079        0.128      333.473        2.811      857.121
12/15/2021  14:59:00     -114.363      -37.186      -27.099      168.088      112.813       82.217    28253.643    12726.810     6759.610        3.146        2.387      120.256       74.597        0.385      333.502        2.857      857.038
12/15/2021  15:00:00     -237.536       36.751      -16.653      156.953      131.186       78.259    24634.382    17209.690     6124.408        5.300        2.398      240.362       76.261        0.101      333.406        2.698      857.061
12/15/2021  15:01:00     -140.131       -3.446        5.323      137.402       83.449       77.956    18879.333     6963.724     6077.127        2.579        1.596      140.173       70.285        0.251      333.553        2.941      857.107
12/15/2021  15:02:00     -234.390       48.357      -20.486      228.900      116.558       70.755    52395.201    13585.734     5006.274        6.433        3.549      239.326       62.547        0.068      333.481        2.824      857.131
12/15/2021  15:03:00     -243.437       94.498       -7.327      135.530      121.252       68.694    18368.483    14701.979     4718.842        5.301        1.889      261.135       59.293        0.052      333.432        2.741      857.027
12/15/2021  15:04:00     -581.987       97.896      -21.639      231.176      187.805       98.737    53442.416    35270.788     9748.923       22.359        4.923      590.163       84.125        0.020      333.277        2.483      856.998
12/15/2021  15:05:00     -473.090      141.102       -3.974      236.211      169.062      105.775    55795.563    28581.813    11188.288       16.964        4.778      493.684      102.673        0.043      333.328        2.568      856.910
12/15/2021  15:06:00     -183.898        9.875       -4.282      267.210      165.360      119.677    71401.087    27343.787    14322.501        7.348        5.653      184.163      113.554        0.380      333.433        2.743      856.842
12/15/2021  15:07:00     -322.982      108.774      -10.807      266.194      134.068       83.416    70859.262    17974.238     6958.305       10.601        4.790      340.806       79.998        0.055      333.410        2.704      856.842
12/15/2021  15:08:00     -245.944      -50.551      -17.014      162.540      120.345       71.917    26419.352    14482.849     5172.025        5.470        2.304      251.085       70.432        0.079      333.375        2.648      856.814
12/15/2021  15:09:00     -292.879       90.869       11.444      282.944      123.846       97.652    80057.366    15337.882     9535.827        9.953        5.247      306.652      107.343        0.123      333.396        2.679      856.868
12/15/2021  15:10:00     -257.069      -53.792      -13.238      225.837      135.534       91.872    51002.273    18369.500     8440.445        7.347        3.891      262.636       89.887        0.117      333.403        2.691      856.914
12/15/2021  15:11:00     -242.635      -28.107      -30.774      231.640      123.614       85.919    53657.129    15280.489     7382.049        6.845        3.816      244.258       86.704        0.126      333.434        2.745      856.966
12/15/2021  15:12:00     -253.293       -5.828       -9.705      209.129      141.175      102.204    43734.905    19930.485    10445.574        6.918        3.706      253.360      107.439        0.180      333.465        2.796      856.979
12/15/2021  15:13:00     -286.112       65.459      -22.599      195.831      171.379      101.067    38349.825    29370.807    10214.497        8.228        3.897      293.504       73.446        0.063      333.403        2.692      857.008
12/15/2021  15:14:00     -242.615       47.014        6.481      225.422      130.040       92.124    50815.040    16910.377     8486.811        6.865        3.811      247.128       90.250        0.133      333.494        2.844      856.981
12/15/2021  15:15:00     -250.086      121.652      -19.615      151.049      129.047       62.611    22815.859    16653.045     3920.084        6.055        2.169      278.105       62.640        0.051      333.396        2.681      856.972
12/15/2021  15:16:00     -385.175      127.175        6.202      236.628      154.099      102.522    55992.756    23746.654    10510.724       12.739        4.513      405.627      111.284        0.075      333.389        2.669      857.018
12/15/2021  15:17:00     -145.477       63.285       -9.344      141.059      152.693       85.793    19897.694    23315.272     7360.383        3.791        2.529      158.646       56.219        0.126      333.550        2.935      857.087
12/15/2021  15:18:00     -119.222       40.274      -29.278      121.906      144.773       74.887    14860.987    20959.278     5608.068        2.905        2.071      125.840       52.097        0.171      333.529        2.902      857.092
12/15/2021  15:19:00     -299.958      103.685      -24.736      192.507      150.076       85.666    37058.959    22522.889     7338.710        8.412        3.346      317.373       75.052        0.056      333.449        2.769      857.004
12/15/2021  15:20:00     -290.345       85.026        7.920      191.163      108.950       65.728    36543.318    11870.057     4320.113        7.215        2.637      302.539       80.251        0.070      333.356        2.614      856.918
12/15/2021  15:21:00     -375.537       72.708      -19.492      262.274      168.722       92.862    68787.478    28467.206     8623.335       12.627        5.294      382.510      108.414        0.080      333.381        2.657      856.881
12/15/2021  15:22:00     -281.522      -80.496       -1.993      202.225      150.495       86.968    40895.139    22648.742     7563.358        7.841        3.555      292.804       90.999        0.097      333.386        2.664      856.951
12/15/2021  15:23:00     -366.994       31.361      -17.118      269.451      172.969      123.067    72604.038    29918.268    15145.470       12.679        5.883      368.331      113.197        0.094      333.352        2.608      856.996
12/15/2021  15:24:00     -380.826      143.888        0.507      294.864      169.730       96.626    86944.597    28808.426     9336.661       14.539        6.254      407.103      102.039        0.063      333.325        2.564      856.952
12/15/2021  15:25:00     -290.738       54.891       -8.578      219.714      114.389       86.058    48274.098    13084.916     7406.035        7.818        3.438      295.874       88.468        0.089      333.355        2.614      856.961
12/15/2021  15:26:00     -199.647      105.366      -25.947      194.188      120.040       96.868    37708.862    14409.502     9383.377        5.656        3.075      225.746       83.604        0.137      333.332        2.575      856.907
12/15/2021  15:27:00     -233.077       37.358      -10.799      197.032      147.016      106.341    38821.471    21613.690    11308.462        6.378        3.587      236.052       83.201        0.124      333.328        2.567      856.961
12/15/2021  15:28:00     -129.288       76.759        5.880      210.608      144.620       97.447    44355.825    20915.016     9495.867        4.869        3.738      150.357       95.126        0.400      333.345        2.598      856.985
12/15/2021  15:29:00     -470.108      169.674       -4.564      231.043      169.405      101.706    53380.736    28698.162    10344.104       17.110        4.621      499.790       93.424        0.035      333.262        2.457      856.957
12/15/2021  15:30:00     -538.088       65.919      -26.787      187.539      155.246       96.848    35170.856    24101.177     9379.514       18.161        3.433      542.111       86.720        0.026      333.262        2.458      856.906
12/15/2021  15:31:00     -397.975      121.841      -50.738      168.613      197.687       87.158    28430.376    39080.132     7596.530       12.544        3.755      416.209       94.798        0.052      333.206        2.367      856.892
12/15/2021  15:32:00     -329.978      121.715       -6.621      206.828      163.684       83.478    42778.018    26792.381     6968.579       10.013        3.827      351.710       94.782        0.073      333.229        2.404      856.890
12/15/2021  15:33:00     -414.083      112.724       -1.858      254.064      138.856       89.941    64548.611    19280.888     8089.323       13.803        4.596      429.152      101.903        0.056      333.226        2.399      856.844
12/15/2021  15:34:00     -309.226      126.194       -4.651      238.947      134.426       71.644    57095.731    18070.281     5132.929        9.592        4.015      333.984       59.101        0.031      333.271        2.474      856.867
12/15/2021  15:35:00     -349.596      101.388        1.499      213.309      156.531       87.485    45500.546    24502.099     7653.614       10.506        3.883      364.001      102.761        0.080      333.210        2.373      856.828
12/15/2021  15:36:00     -453.095      147.910      -18.761      242.825      158.957       99.896    58964.048    25267.330     9979.216       16.085        4.711      476.626      104.231        0.048      333.210        2.374      856.839
12/15/2021  15:37:00     -424.855       50.907      -18.712      280.154      154.489      104.788    78486.341    23866.824    10980.616       14.837        5.667      427.894       90.475        0.045      333.214        2.378      856.843
12/15/2021  15:38:00     -162.863       70.934       -1.738      173.504      143.015       83.939    30103.688    20453.254     7045.787        4.457        2.880      177.640       74.465        0.176      333.280        2.488      856.792
12/15/2021  15:39:00     -390.445      108.796      -16.288      248.637      195.338      104.997    61820.554    38156.909    11024.383       13.776        5.550      405.320      105.531        0.068      333.264        2.461      856.704
12/15/2021  15:40:00     -354.893       84.214       -0.802      273.915      185.474      117.016    75029.676    34400.789    13692.723       12.806        6.156      364.747      126.947        0.121      333.249        2.438      856.676
12/15/2021  15:41:00     -240.725        1.165      -19.516      218.008      161.265      107.310    47527.618    26006.426    11515.433        7.167        4.252      240.728      102.133        0.180      333.219        2.389      856.627
12/15/2021  15:42:00     -324.293      188.842      -20.414      187.694      184.721       98.754    35229.080    34121.742     9752.328       11.016        3.955      375.270       83.293        0.049      333.158        2.287      856.530
12/15/2021  15:43:00     -399.848      124.079        1.080      241.421      168.569       91.812    58284.187    28415.674     8429.377       13.518        4.756      418.658       92.803        0.049      333.152        2.277      856.443
12/15/2021  15:44:00     -223.614       61.436      -14.329      243.535      147.866       79.121    59309.163    21864.461     6260.123        7.069        4.372      231.900       86.266        0.138      333.227        2.401      856.503
12/15/2021  15:45:00     -328.471       36.850      -23.149      221.176      189.725      113.894    48918.689    35995.718    12971.837       10.382        4.894      330.531      104.439        0.100      333.136        2.251      856.463
12/15/2021  15:46:00     -357.485       -0.751       -3.852      256.135      157.111      114.805    65605.015    24683.937    13180.122       11.562        5.173      357.486      122.948        0.118      333.150        2.275      856.529
12/15/2021  15:47:00     -242.237       28.955      -34.802      190.168      157.238       95.690    36163.977    24723.801     9156.651        6.537        3.502      243.962       85.872        0.124      333.212        2.377      856.500
12/15/2021  15:48:00     -320.136       45.849      -10.247      214.030      122.135       95.373    45808.801    14916.929     9095.917        8.724        3.491      323.402       93.465        0.084      333.252        2.442      856.510
12/15/2021  15:49:00     -379.446       75.911       12.352      285.399      191.031      119.599    81452.810    36492.890    14303.817       14.105        6.612      386.965      125.672        0.105      333.149        2.272      856.531
12/15/2021  15:50:00     -148.207      -14.975      -27.630      201.510      108.007       94.899    40606.408    11665.485     9005.878        4.210        3.064      148.962       88.480        0.353      333.172        2.310      856.563
12/15/2021  15:51:00     -217.661       97.718       -7.325      182.222      156.101      103.049    33204.813    24367.389    10619.005        6.257        3.410      238.590       87.308        0.134      333.184        2.331      856.586
12/15/2021  15:52:00     -335.283      140.320        6.782      224.521      182.102      102.851    50409.853    33161.112    10578.260       11.313        4.707      363.461       99.610        0.075      333.231        2.407      856.667
12/15/2021  15:53:00     -304.252      -15.151      -14.838      187.223      160.883       91.811    35052.431    25883.477     8429.182        8.118        3.468      304.629       91.335        0.090      333.217        2.385      856.727
12/15/2021  15:54:00     -223.122        3.577       12.204      221.059      148.952      114.035    48867.017    22186.653    13003.921        6.699        4.203      223.151      110.650        0.246      333.185        2.331      856.611
12/15/2021  15:55:00     -265.475      -65.958      -17.840      265.987      186.073       92.450    70749.095    34623.207     8546.949        9.451        5.696      273.546       96.927        0.126      333.348        2.600      856.602
12/15/2021  15:56:00     -185.780       49.295       -6.387      118.971      105.220       60.123    14154.103    11071.240     3614.825        3.291        1.442      192.209       59.508        0.096      333.205        2.366      856.571
12/15/2021  15:57:00     -134.861      -64.757      -12.536      134.686      128.192       63.905    18140.443    16433.256     4083.895        3.059        1.933      149.603       45.159        0.091      333.215        2.382      856.560
12/15/2021  15:58:00     -344.554      -32.260      -49.433      160.893      102.434       68.670    25886.670    10492.765     4715.615        8.164        2.055      346.061       58.391        0.028      333.157        2.286      856.507
12/15/2021  15:59:00     -199.631       46.443      -25.176      171.192      111.749       62.693    29306.622    12487.739     3930.402        4.418        2.286      204.962       62.288        0.092      333.157        2.287      856.446
12/15/2021  16:00:00     -245.217       43.698        0.688      181.857      127.450       71.007    33071.931    16243.536     5041.947        5.819        2.718      249.080       73.664        0.087      333.142        2.261      856.393
12/15/2021  16:01:00     -313.719      -44.230      -33.079      146.405      118.109       75.210    21434.370    13949.738     5656.616        7.125        2.052      316.822       73.242        0.053      333.222        2.393      856.392
12/15/2021  16:02:00     -352.719      -13.772      -10.548      165.350      106.937       83.489    27340.489    11435.529     6970.462        8.522        2.287      352.987       76.426        0.047      333.203        2.360      856.402
12/15/2021  16:03:00     -260.251       11.168      -21.469      189.859      126.652       68.346    36046.310    16040.827     4671.212        6.253        2.838      260.490       67.517        0.067      333.189        2.339      856.338
12/15/2021  16:04:00     -192.371       45.106      -24.494      135.787       81.943       63.689    18438.214     6714.689     4056.233        3.442        1.460      197.588       68.778        0.121      333.149        2.273      856.244
12/15/2021  16:05:00     -319.706        4.805      -18.339      191.354      119.822       79.257    36616.438    14357.288     6281.666        7.990        2.863      319.742       79.965        0.063      333.158        2.288      856.284
12/15/2021  16:06:00     -292.013      -32.586      -33.637      187.871      101.790       85.798    35295.414    10361.191     7361.217        7.023        2.651      293.826       95.198        0.105      333.143        2.263      856.304
12/15/2021  16:07:00     -189.204      -40.821      -12.011      159.804       95.471       75.611    25537.374     9114.731     5717.033        3.898        2.018      193.558       59.067        0.093      333.125        2.235      856.282
12/15/2021  16:08:00     -190.724      -10.181      -14.896      182.755      112.599       81.939    33399.293    12678.550     6713.923        4.474        2.640      190.995       80.814        0.179      333.139        2.258      856.292
12/15/2021  16:09:00     -203.208       73.993      -17.305      139.104      105.664       69.855    19349.819    11164.966     4879.709        4.122        1.770      216.261       65.564        0.092      333.117        2.221      856.230
12/15/2021  16:10:00     -325.158       -5.069      -28.181      157.264       86.946       73.229    24732.099     7559.681     5362.456        7.209        1.883      325.198       66.142        0.041      333.198        2.353      856.162
12/15/2021  16:11:00     -271.058       -2.939      -22.311      138.318       71.304       57.353    19131.930     5084.194     3289.418        5.074        1.375      271.074       49.394        0.033      333.164        2.298      856.110
12/15/2021  16:12:00     -338.245      -39.731      -49.430       98.590      132.279       80.488     9719.942    17497.695     6478.298        7.606        1.685      340.570       50.802        0.022      333.200        2.355      856.058
12/15/2021  16:13:00     -313.778      -10.963      -12.990      171.047      112.707       87.869    29257.096    12702.836     7721.005        7.420        2.484      313.969       77.191        0.060      333.132        2.244      856.038
12/15/2021  16:14:00     -220.448      -33.855      -14.664      113.528       87.350       59.566    12888.601     7629.987     3548.059        3.701        1.203      223.033       50.322        0.051      333.176        2.318      856.083
12/15/2021  16:15:00     -139.560       56.140       -0.029      186.265      124.612       74.866    34694.816    15528.204     5604.927        3.922        2.791      150.429       45.306        0.091      333.148        2.272      856.208
12/15/2021  16:16:00     -245.582      -52.162      -15.756      168.800      116.627       90.725    28493.442    13601.932     8230.956        5.679        2.516      251.060       88.584        0.124      333.170        2.306      856.259
12/15/2021  16:17:00     -424.262      160.964      -17.926      220.624      159.807       94.873    48674.852    25538.136     9000.978       14.471        4.161      453.771       93.739        0.043      333.149        2.272      856.332
12/15/2021  16:18:00     -249.971       48.483      -36.162      129.231      139.130       85.972    16700.684    19357.138     7391.167        5.479        2.172      254.629       71.851        0.080      333.205        2.363      856.285
12/15/2021  16:19:00     -157.144       72.473        7.781      157.733       94.680       65.172    24879.542     8964.383     4247.355        3.404        1.905      173.051       61.247        0.125      333.181        2.329      856.102
12/15/2021  16:20:00     -312.027       75.490      -20.025      207.929      100.391       83.650    43234.300    10078.274     6997.399        8.187        3.015      321.029       83.293        0.067      333.215        2.381      856.096
12/15/2021  16:21:00     -269.864       72.909       -2.571      189.674      129.378       80.887    35976.299    16738.629     6542.690        6.869        2.963      279.540       72.077        0.066      333.258        2.452      856.187
12/15/2021  16:22:00     -357.174       72.674       12.278      264.191      172.038      112.389    69796.715    29597.013    12631.305       12.249        5.601      364.492      114.063        0.098      333.314        2.544      856.263
12/15/2021  16:23:00     -299.362       -3.559      -42.977      203.455      169.469      111.741    41394.086    28719.611    12485.947        8.702        4.130      299.383       90.721        0.092      333.323        2.560      856.261
12/15/2021  16:24:00     -296.895       98.308      -12.486      230.633      181.639      110.353    53191.398    32992.662    12177.797        9.815        4.918      312.748      101.337        0.105      333.316        2.549      856.356
12/15/2021  16:25:00     -230.087       49.534      -11.271      227.159      147.521      105.696    51601.263    21762.477    11171.646        7.001        4.227      235.359      118.411        0.253      333.253        2.444      856.376
12/15/2021  16:26:00     -337.978      -34.957      -31.983      311.938      173.205      122.671    97305.558    29999.993    15048.080       12.939        7.118      339.781      139.393        0.168      333.221        2.391      856.368
12/15/2021  16:27:00     -531.568       43.518      -20.968      245.174      165.125      130.486    60110.488    27266.177    17026.532       19.463        5.220      533.347      126.393        0.056      333.143        2.261      856.375
12/15/2021  16:28:00     -309.741      -22.686      -15.016      293.745      162.063      138.945    86286.300    26264.574    19305.582       11.424        6.593      310.570      148.526        0.229      333.160        2.292      856.368
12/15/2021  16:29:00      -74.099       70.926        3.884      179.962      199.076       94.304    32386.392    39631.160     8893.293        4.571        4.046      102.573       84.986        0.686      333.190        2.342      856.393
12/15/2021  16:30:00     -203.903      107.730       -4.535      225.849      142.996       89.425    51007.917    20447.832     7996.741        6.631        3.973      230.613       82.839        0.129      333.178        2.321      856.403
12/15/2021  16:31:00     -341.704       36.189      -54.776      234.929      172.666      109.655    55191.570    29813.508    12024.202       10.903        4.851      343.615      101.430        0.087      333.213        2.377      856.373
12/15/2021  16:32:00     -397.115        7.917      -29.392      268.003      187.511      115.105    71825.687    35160.212    13249.243       13.941        6.012      397.194      128.939        0.105      333.197        2.351      856.352
12/15/2021  16:33:00     -461.146       -6.052      -29.756      266.709      149.580      102.299    71133.439    22374.169    10465.005       15.876        5.199      461.186      122.456        0.071      333.168        2.304      856.313
12/15/2021  16:34:00     -242.526       53.000        1.675      272.485      146.366      120.402    74248.066    21423.093    14496.594        8.588        5.508      248.250      105.049        0.179      333.152        2.277      856.207
12/15/2021  16:35:00     -436.252      140.504      -15.314      292.640      234.386      114.707    85637.979    54936.639    13157.800       18.198        7.687      458.320      109.232        0.057      333.122        2.229      856.147
12/15/2021  16:36:00     -416.801      -22.892      -25.844      275.721      189.236      129.650    76021.849    35810.330    16809.009       15.175        6.432      417.429      126.087        0.091      333.137        2.253      856.156
12/15/2021  16:37:00     -309.058      -16.689      -31.667      225.119      118.390       97.572    50678.771    14016.251     9520.238        8.549        3.711      309.508      100.121        0.105      333.103        2.198      856.093
12/15/2021  16:38:00     -239.298      -16.361       -4.849      286.939      138.947      115.721    82334.232    19306.400    13391.446        8.627        5.752      239.857      116.918        0.238      333.075        2.150      856.071
12/15/2021  16:39:00     -537.183      -46.019      -25.999      335.364      211.373      138.700   112468.922    44678.354    19237.680       23.384        8.819      539.151      136.466        0.064      332.942        1.928      856.015
12/15/2021  16:40:00     -429.591       44.698      -17.696      294.878      161.373      119.007    86952.758    26041.313    14162.754       15.698        6.358      431.910      134.570        0.097      332.909        1.875      855.991
12/15/2021  16:41:00     -411.209       16.225      -21.413      220.884      165.023      115.718    48789.728    27232.751    13390.611       12.960        4.471      411.529       93.312        0.051      332.864        1.801      855.915
12/15/2021  16:42:00     -383.664       16.475      -27.670      296.995      191.136      106.374    88205.982    36533.051    11315.329       14.212        6.803      384.018      117.251        0.093      332.783        1.667      855.832
12/15/2021  16:43:00     -417.892       -9.229      -14.478      325.213      170.031      130.395   105763.430    28910.489    17002.776       16.327        7.584      417.994      130.525        0.098      332.704        1.538      855.785
12/15/2021  16:44:00     -391.436      -23.041      -36.026      253.410      154.459      117.533    64216.623    23857.619    13814.076       12.845        5.094      392.114      111.761        0.081      332.645        1.439      855.776
12/15/2021  16:45:00     -214.182       18.367       -9.162      234.693      133.697      104.386    55081.029    17874.992    10896.376        6.506        4.193      214.968       93.392        0.189      332.607        1.377      855.741
12/15/2021  16:46:00     -430.385       33.982      -12.453      336.301      202.875      123.057   113098.362    41158.303    15143.016       17.794        8.470      431.725      112.658        0.068      332.531        1.251      855.687
12/15/2021  16:47:00     -318.026      -10.325      -34.387      309.453      171.039      139.738    95761.137    29254.503    19526.608       12.346        7.227      318.194      125.265        0.155      332.514        1.224      855.631
12/15/2021  16:48:00     -549.088      186.915      -30.673      333.661      227.933      121.847   111329.424    51953.267    14846.660       25.772        8.906      580.030      121.605        0.044      332.478        1.164      855.567
12/15/2021  16:49:00     -162.298        6.060       -8.701      182.223      126.563       97.618    33205.293    16018.105     9529.195        4.259        2.938      162.411       86.764        0.285      332.529        1.248      855.590
12/15/2021  16:50:00     -513.135        8.433      -28.900      306.048      218.288      133.400    93665.157    47649.505    17795.577       21.163        7.956      513.204      119.668        0.054      332.502        1.204      855.596
12/15/2021  16:51:00     -328.598       64.086       10.571      279.941      192.845      114.094    78366.730    37189.141    13017.498       12.036        6.429      334.789      104.334        0.097      332.503        1.205      855.599
12/15/2021  16:52:00     -438.477       31.412       -7.827      314.537      188.155      123.931    98933.630    35402.278    15358.938       17.147        7.485      439.601      126.263        0.082      332.500        1.200      855.575
12/15/2021  16:53:00     -302.976      -42.674      -11.107      314.141      178.386      153.304    98684.308    31821.505    23502.181       12.385        7.700      305.967      149.803        0.240      332.516        1.226      855.582
12/15/2021  16:54:00     -329.432       -4.262      -24.410      249.502      142.153      108.692    62251.063    20207.518    11814.059       10.169        4.714      329.459      110.071        0.112      332.528        1.246      855.573
12/15/2021  16:55:00     -397.128       83.437       -7.950      296.800      228.160      129.267    88090.042    52057.039    16710.031       16.077        7.843      405.799      136.188        0.113      332.580        1.331      855.665
12/15/2021  16:56:00     -545.990       84.108      -20.708      321.570      217.445      126.625   103407.290    47282.380    16033.828       23.614        8.336      552.431      127.951        0.054      332.602        1.368      855.840
12/15/2021  16:57:00     -227.580       20.133      -45.065      220.660      184.889      125.048    48690.717    34183.776    15637.030        7.635        4.926      228.469       73.845        0.104      332.658        1.462      855.888
12/15/2021  16:58:00     -389.541       68.362      -16.155      273.032      175.102      102.759    74546.596    30660.882    10559.318       13.620        5.788      395.494      116.095        0.086      332.640        1.433      855.861
12/15/2021  16:59:00     -386.482      114.389      -40.124      298.953      150.995      127.393    89373.129    22799.442    16229.068       14.621        6.420      403.054      122.609        0.093      332.677        1.492      855.946
12/15/2021  17:00:00     -334.096      139.009        1.862      225.332      174.271      117.804    50774.669    30370.285    13877.704       11.297        4.751      361.861      102.917        0.081      332.685        1.506      856.093
12/15/2021  17:01:00     -400.043       89.903       -6.397      231.428      199.048      112.087    53558.730    39619.919    12563.574       13.693        5.287      410.021       91.236        0.050      332.719        1.561      856.230
12/15/2021  17:02:00     -518.859      111.086      -25.449      222.223      212.296      108.243    49383.282    45069.510    11716.563       19.417        5.308      530.617      105.127        0.039      332.697        1.525      856.317
12/15/2021  17:03:00     -364.828       52.027      -32.405      309.336      156.756      114.902    95688.803    24572.354    13202.572       13.514        6.673      368.519      133.031        0.130      332.730        1.579      856.329
12/15/2021  17:04:00     -403.907       58.085      -22.357      249.474      202.201      109.586    62237.164    40885.387    12009.131       14.105        5.757      408.062      102.047        0.063      332.797        1.689      856.350
12/15/2021  17:05:00     -103.089       70.239       -6.625      178.112      156.577       88.853    31723.942    24516.409     7894.877        3.986        3.207      124.743       55.088        0.195      332.856        1.790      856.238
12/15/2021  17:06:00     -280.555       44.071      -13.398      196.695      125.443       89.921    38688.938    15736.056     8085.721        7.166        3.126      283.995       71.040        0.063      332.819        1.726      856.173
12/15/2021  17:07:00     -127.519      -28.092       12.786      237.494      110.758       91.195    56403.427    12267.250     8316.544        4.709        3.849      130.577      101.506        0.604      332.843        1.768      856.165
12/15/2021  17:08:00     -258.336      124.683      -36.412      186.654      191.247       99.663    34839.780    36575.357     9932.763        8.246        4.067      286.851       75.302        0.069      332.823        1.733      856.152
12/15/2021  17:09:00     -356.793       79.333       -5.541      188.831      141.348       91.933    35657.286    19979.219     8451.641        9.885        3.204      365.506       99.063        0.073      332.774        1.652      856.116
12/15/2021  17:10:00     -372.847       -9.917      -17.829      194.533      125.739      112.583    37842.975    15810.344    12674.915       10.287        3.316      372.979      105.797        0.080      332.762        1.632      856.135
12/15/2021  17:11:00     -152.119       49.969        5.328      150.723       86.262       65.990    22717.431     7441.115     4354.630        3.008        1.726      160.116       71.787        0.201      332.754        1.619      856.105
12/15/2021  17:12:00      -86.453       12.146       -8.931      142.920       81.048       70.507    20426.267     6568.850     4971.179        1.983        1.598       87.302       58.202        0.444      332.744        1.605      856.063
12/15/2021  17:13:00     -285.347       69.953      -14.662      213.272      145.328       91.412    45485.040    21120.302     8356.233        8.073        3.748      293.796       88.178        0.090      332.665        1.472      855.991
12/15/2021  17:14:00     -506.686      119.584       -7.181      224.871      166.149       97.640    50567.063    27605.463     9533.632       17.938        4.385      520.606       96.587        0.034      332.604        1.371      855.971
12/15/2021  17:15:00     -315.546       83.278        1.465      252.544      134.288       87.113    63778.592    18033.363     7588.612        9.794        4.470      326.351       82.034        0.063      332.581        1.334      856.009
12/15/2021  17:16:00     -238.917       39.388      -18.516      225.761      148.768       88.343    50967.902    22131.777     7804.514        6.992        4.045      242.142       79.819        0.109      332.573        1.319      856.007
12/15/2021  17:17:00      -85.359       31.028       -1.948      160.871      151.548       70.236    25879.445    22966.945     4933.079        3.101        2.689       90.823       55.705        0.376      332.573        1.323      856.040
12/15/2021  17:18:00     -406.098      179.030      -17.800      245.047      169.375       89.964    60047.982    28688.059     8093.456       14.704        4.841      443.810       65.415        0.022      332.502        1.204      856.007
12/15/2021  17:19:00     -278.939      118.269       -6.884      180.121      162.266       88.759    32443.603    26330.117     7878.247        7.923        3.333      302.976       93.066        0.094      332.474        1.158      855.924
12/15/2021  17:20:00     -298.501      109.825       -8.714      170.654      134.400       89.803    29122.744    18063.486     8064.666        7.824        2.763      318.064       86.012        0.073      332.468        1.147      855.886
12/15/2021  17:21:00     -382.826       69.211        1.657      280.558      183.482      112.646    78712.699    33665.499    12689.061       13.818        6.253      389.032      118.930        0.093      332.454        1.125      855.873
12/15/2021  17:22:00     -474.923      186.376      -15.232      198.799      139.327       99.736    39521.208    19411.963     9947.315       16.469        3.444      510.184       86.598        0.029      332.453        1.123      855.833
12/15/2021  17:23:00     -375.916       65.294      -19.006      226.609      205.044      101.901    51351.629    42043.167    10383.722       12.484        5.189      381.544       70.632        0.034      332.495        1.191      855.811
12/15/2021  17:24:00     -189.453       83.643       -2.592      206.640      138.860      107.089    42700.212    19281.984    11468.097        5.816        3.673      207.095       86.245        0.173      332.522        1.236      855.777
12/15/2021  17:25:00     -228.571       84.794      -13.758      243.321      158.126       99.511    59204.986    25003.915     9902.388        7.685        4.706      243.793       80.684        0.110      332.540        1.265      855.727
12/15/2021  17:26:00     -564.093      234.447      -11.520      318.662      197.775      138.206   101545.518    39114.918    19101.030       26.650        7.988      610.873      152.568        0.062      332.513        1.220      855.719
12/15/2021  17:27:00     -319.369       59.332        0.925      230.838      182.087      110.323    53286.331    33155.764    12171.091       10.205        4.931      324.834      122.443        0.142      332.529        1.248      855.658
12/15/2021  17:28:00     -126.919       -0.227      -39.006      218.114      145.273      103.902    47573.536    21104.112    10795.568        4.854        3.974      126.919      103.142        0.660      332.601        1.367      855.639
12/15/2021  17:29:00     -261.493       81.130       18.382      229.276      177.714      102.511    52567.627    31582.287    10508.566        8.496        4.733      273.790      102.908        0.141      332.557        1.294      855.604
12/15/2021  17:30:00     -353.635       61.074      -24.022      244.863      135.051       96.063    59958.007    18238.690     9228.188       10.838        4.371      358.870       95.686        0.071      332.549        1.282      855.675
12/15/2021  17:31:00     -389.017       47.201      -33.689      372.055      174.839      111.249   138425.203    30568.846    12376.277       16.800        9.069      391.870       88.648        0.051      332.620        1.398      855.706
12/15/2021  17:32:00     -419.497       -0.750      -42.102      273.733      152.646      117.184    74929.552    23300.922    13732.168       14.484        5.598      419.498      132.399        0.100      332.662        1.469      855.747
12/15/2021  17:33:00     -364.433       38.864      -18.951      245.545      124.723       90.062    60292.133    15555.837     8111.167       10.930        4.198      366.500       92.755        0.064      332.650        1.448      855.758
12/15/2021  17:34:00     -187.958       54.378      -10.270      257.200      135.561      100.477    66151.820    18376.911    10095.575        6.649        4.731      195.666      118.824        0.369      332.674        1.488      855.698
12/15/2021  17:35:00     -245.413       -4.362      -16.960      220.589      124.054       94.719    48659.706    15389.469     8971.710        6.676        3.651      245.452       86.291        0.124      332.678        1.494      855.707
12/15/2021  17:36:00     -411.123      153.013      -17.911      260.458      223.545      107.658    67838.191    49972.580    11590.294       16.105        6.470      438.674      124.500        0.081      332.648        1.445      855.694
12/15/2021  17:37:00     -407.047       46.456       -9.157      293.563      192.385      126.339    86179.218    37012.139    15961.453       15.352        6.958      409.690      143.969        0.123      332.697        1.525      855.667
12/15/2021  17:38:00     -441.107      180.067        4.632      258.038      147.678      102.127    66583.815    21808.746    10429.848       16.290        4.941      476.444      111.472        0.055      332.668        1.479      855.682
12/15/2021  17:39:00     -416.290      -30.025      -31.526      243.852      157.093      109.857    59463.885    24678.334    12068.524       13.568        4.811      417.371      109.201        0.068      332.690        1.513      855.653
12/15/2021  17:40:00     -398.293       62.256        6.347      310.528      168.903      127.838    96427.810    28528.284    16342.436       15.190        7.065      403.130      138.565        0.118      332.687        1.509      855.654
12/15/2021  17:41:00     -430.667       31.335      -37.601      304.479      175.197       99.902    92707.544    30694.069     9980.475       16.060        6.669      431.805      107.154        0.062      332.679        1.497      855.675
12/15/2021  17:42:00     -255.267       45.960      -22.057      300.706      169.831      104.693    90423.918    28842.467    10960.545        9.897        6.511      259.372      100.647        0.151      332.683        1.504      855.656
12/15/2021  17:43:00     -282.888       77.004        2.681      308.433      197.576      109.293    95130.772    39036.111    11944.941       11.601        7.306      293.181      127.139        0.188      332.652        1.452      855.605
12/15/2021  17:44:00     -327.098      -29.268       -6.924      248.830      201.461      119.763    61916.165    40586.429    14343.244       11.235        5.842      328.404      137.333        0.175      332.659        1.465      855.676
12/15/2021  17:45:00     -284.405       70.372        8.657      239.848      163.618      103.264    57527.248    26770.737    10663.446        9.042        4.748      292.982      110.173        0.141      332.654        1.456      855.545
12/15/2021  17:46:00     -276.643       -0.099        1.732      231.012      155.873      131.780    53366.369    24296.433    17365.936        8.576        4.751      276.643      114.795        0.172      332.669        1.480      855.387
12/15/2021  17:47:00     -330.069      128.407      -14.672      270.901      220.271      131.465    73387.289    48519.152    17282.938       13.239        6.959      354.167       93.032        0.069      332.645        1.441      855.326
12/15/2021  17:48:00     -372.389       22.355      -34.106      212.852      154.069      106.255    45305.866    23737.246    11290.059       11.032        4.017      373.060       60.911        0.027      332.668        1.479      855.326
12/15/2021  17:49:00     -379.310      134.311       -6.341      207.049      158.300       98.947    42869.233    25059.027     9790.536       11.982        3.886      402.387       93.033        0.053      332.604        1.373      855.283
12/15/2021  17:50:00     -408.415       66.310      -29.327      203.064      163.594       92.001    41234.927    26762.952     8464.222       12.425        3.823      413.763       99.002        0.057      332.600        1.364      855.260
12/15/2021  17:51:00     -297.783      115.985        2.232      224.815      174.793      102.469    50541.902    30552.548    10499.973        9.685        4.580      319.573      100.893        0.100      332.568        1.313      855.245
12/15/2021  17:52:00     -455.603      141.559      -28.514      226.532      190.535      104.251    51316.939    36303.648    10868.352       16.344        4.924      477.088       87.892        0.034      332.542        1.268      855.290
12/15/2021  17:53:00     -274.415      133.863      -15.497      272.886      151.577      110.829    74466.677    22975.710    12282.987       10.157        5.486      305.325       96.487        0.100      332.537        1.260      855.227
12/15/2021  17:54:00     -370.303      142.670        3.507      245.428      131.773       97.145    60235.039    17364.001     9437.062       12.225        4.352      396.837      107.415        0.073      332.530        1.249      855.182
12/15/2021  17:55:00     -410.451      136.943      -31.575      256.289      177.820       99.311    65684.043    31620.024     9862.642       14.767        5.358      432.693       86.894        0.040      332.560        1.298      855.321
12/15/2021  17:56:00     -461.633       47.860      -28.847      279.659      157.059      120.247    78209.295    24667.465    14459.422       16.676        5.867      464.108      129.076        0.077      332.531        1.250      855.452
12/15/2021  17:57:00     -602.729      101.388      -28.533      318.096      184.726      115.333   101184.763    34123.567    13301.737       26.147        7.431      611.197      107.132        0.031      332.554        1.288      855.490
12/15/2021  17:58:00     -191.026       72.200       12.608      257.534      149.626      114.583    66323.568    22388.035    13129.348        7.183        5.092      204.215      103.380        0.256      332.575        1.323      855.602
12/15/2021  17:59:00     -373.031       33.720       -3.893      181.468      124.519       99.739    32930.564    15505.077     9947.932        9.933        2.919      374.552      105.746        0.080      332.534        1.257      855.602
12/15/2021  18:00:00     -287.160       29.478      -20.086      226.865      169.184      107.434    51467.589    28623.196    11542.156        8.767        4.582      288.669      101.115        0.123      332.565        1.307      855.583
12/15/2021  18:01:00     -307.357       17.923      -20.559      213.621      168.098       84.855    45633.744    28257.066     7200.372        8.814        4.055      307.879       68.952        0.050      332.558        1.295      855.540
12/15/2021  18:02:00     -219.510       -2.090      -11.819      208.095      109.105       97.899    43303.678    11903.821     9584.252        5.655        3.240      219.520       87.040        0.157      332.601        1.367      855.654
12/15/2021  18:03:00     -172.314       23.708      -14.512      141.665      116.423       82.731    20068.895    13554.310     6844.411        3.546        2.023      173.937       53.413        0.094      332.618        1.396      855.644
12/15/2021  18:04:00     -212.250       27.771      -23.228      221.577      153.360      114.609    49096.254    23519.239    13135.231        6.604        4.288      214.059       94.804        0.196      332.667        1.477      855.693
12/15/2021  18:05:00     -415.878       92.438       -3.869      241.158      164.132      101.206    58157.268    26939.229    10242.742       13.841        4.767      426.028       90.355        0.045      332.679        1.496      855.794
12/15/2021  18:06:00     -209.233       56.590       12.485      198.314      165.765       93.044    39328.522    27477.875     8657.100        6.129        3.773      216.751       95.019        0.192      332.719        1.562      855.764
12/15/2021  18:07:00     -145.186       56.031      -20.395      234.545      151.190       95.418    55011.221    22858.458     9104.510        5.579        4.349      155.623       97.403        0.392      332.746        1.606      855.781
12/15/2021  18:08:00     -285.887       98.716       11.612      192.625      123.406       92.422    37104.312    15229.094     8541.780        7.623        3.044      302.450       91.827        0.092      332.746        1.605      855.931
12/15/2021  18:09:00     -294.169      -15.152      -32.481      188.765      189.501       94.712    35632.170    35910.514     8970.420        8.415        4.026      294.558       79.769        0.073      332.771        1.646      855.887
12/15/2021  18:10:00     -431.284       59.776      -14.364      227.561      161.320      103.954    51783.991    26024.026    10806.340       13.918        4.431      435.407       90.985        0.044      332.779        1.660      855.815
12/15/2021  18:11:00     -520.313      135.415      -10.023      326.005      189.062      118.450   106279.458    35744.263    14030.356       22.258        7.803      537.646      128.336        0.057      332.759        1.627      855.774
12/15/2021  18:12:00     -559.424      164.939      -20.766      235.901      139.192      107.991    55649.294    19374.321    11661.951       21.362        4.334      583.233      116.277        0.040      332.760        1.628      855.730
12/15/2021  18:13:00     -342.121       83.185      -16.010      169.501      132.244       88.133    28730.475    17488.373     7767.499        8.909        2.699      352.089       79.951        0.052      332.753        1.617      855.687
12/15/2021  18:14:00     -287.706      113.258        4.666      216.253      142.506       94.269    46765.406    20308.068     8886.678        8.578        3.798      309.196       91.609        0.088      332.711        1.549      855.641
12/15/2021  18:15:00     -325.266        0.903      -17.556      164.705      127.448       82.789    27127.733    16243.032     6853.980        7.816        2.511      325.267       74.737        0.053      332.678        1.494      855.542
12/15/2021  18:16:00     -273.772       90.064      -12.549      254.405      170.568       88.709    64721.733    29093.347     7869.357        9.243        5.084      288.206       76.038        0.070      332.635        1.423      855.578
12/15/2021  18:17:00     -519.929       46.259      -21.771      309.240      200.695      108.185    95629.104    40278.521    11704.097       21.025        7.381      521.983      103.940        0.040      332.551        1.283      855.610
12/15/2021  18:18:00     -460.840       51.583      -32.225      232.867      146.882      106.460    54227.107    21574.358    11333.698       15.159        4.357      463.718      125.293        0.073      332.504        1.206      855.539
12/15/2021  18:19:00     -394.877      144.889      -27.788      274.305      149.928       88.633    75243.269    22478.313     7855.852       14.162        5.279      420.620       56.867        0.018      332.454        1.124      855.536
12/15/2021  18:20:00     -435.767      127.993       -0.557      225.344      174.432       96.708    50780.109    30426.462     9352.498       14.840        4.528      454.175       85.256        0.035      332.385        1.011      855.459
12/15/2021  18:21:00     -320.014       79.202        8.091      224.910      119.912       96.061    50584.576    14378.915     9227.800        9.146        3.710      329.670      105.109        0.102      332.374        0.993      855.374
12/15/2021  18:22:00     -469.781      135.826      -14.567      227.958      132.685       90.008    51965.068    17605.199     8101.439       15.850        3.884      489.022      105.399        0.046      332.339        0.933      855.398
12/15/2021  18:23:00     -377.549       87.029       -5.883      268.547      158.174      126.122    72117.616    25019.075    15906.805       13.158        5.652      387.450      134.222        0.120      332.368        0.982      855.375
12/15/2021  18:24:00     -360.171      192.303      -17.004      230.706      196.998      102.207    53225.353    38808.133    10446.320       13.472        5.124      408.293       97.657        0.057      332.361        0.970      855.376
12/15/2021  18:25:00     -329.269       74.448        8.605      259.237      122.515       97.497    67203.710    15009.941     9505.667       10.286        4.586      337.581       92.861        0.076      332.377        0.996      855.319
12/15/2021  18:26:00     -360.446       98.997      -19.992      227.040      190.676      111.806    51547.338    36357.292    12500.678       12.024        5.020      373.793       90.623        0.059      332.372        0.990      855.301
12/15/2021  18:27:00     -498.984      168.419      -23.672      244.574      169.754       91.985    59816.590    28816.307     8461.290       18.748        4.855      526.640       91.550        0.030      332.396        1.028      855.304
12/15/2021  18:28:00     -258.789       95.908       -5.492      208.529      150.062       87.985    43484.301    22518.743     7741.445        7.496        3.687      275.989       76.170        0.076      332.467        1.146      855.282
12/15/2021  18:29:00     -344.358       35.761      -15.587      226.338      126.054      129.490    51228.798    15889.560    16767.750       10.198        4.194      346.210      115.225        0.111      332.492        1.187      855.235
12/15/2021  18:30:00     -303.514       40.379      -33.137      194.709      130.573       96.990    37911.518    17049.266     9407.075        7.960        3.218      306.188       84.323        0.076      332.516        1.226      855.255
12/15/2021  18:31:00     -332.770       65.253      -15.035      279.642      174.196      121.931    78199.460    30344.238    14867.249       11.929        6.171      339.108      135.157        0.159      332.564        1.304      855.286
12/15/2021  18:32:00     -463.596       -9.417      -17.629      156.052      130.364       87.352    24352.147    16994.806     7630.328       13.214        2.449      463.692       82.271        0.031      332.585        1.340      855.340
12/15/2021  18:33:00     -273.424       11.148      -33.262      262.010      183.456      122.797    68648.988    33656.128    15079.221        9.667        5.869      273.652      122.154        0.199      332.613        1.387      855.456
12/15/2021  18:34:00     -374.707       30.123      -17.523      195.490      141.206       94.233    38216.514    19939.001     8879.895       10.432        3.352      375.916       95.974        0.065      332.597        1.360      855.489
12/15/2021  18:35:00     -290.058       27.078        2.615      247.279      148.191      102.507    61146.732    21960.646    10507.753        8.923        4.681      291.320      117.821        0.164      332.594        1.357      855.431
12/15/2021  18:36:00     -216.407       47.578       -1.447      166.635      158.989       88.031    27767.093    25277.527     7749.493        5.493        3.040      221.575       71.638        0.105      332.664        1.471      855.410
12/15/2021  18:37:00     -136.947      -13.857      -22.087      221.367      126.870       91.020    49003.563    16095.952     8284.550        4.640        3.669      137.646       65.927        0.229      332.694        1.522      855.498
12/15/2021  18:38:00     -345.792        4.742      -20.176      217.411      153.811      108.675    47267.561    23657.778    11810.188       10.135        4.137      345.824      116.711        0.114      332.692        1.519      855.561
12/15/2021  18:39:00     -255.381      -61.330      -19.237      145.833      162.694       70.399    21267.287    26469.419     4956.035        6.101        2.635      262.642       60.571        0.053      332.730        1.580      855.523
12/15/2021  18:40:00     -292.171      -29.673      -29.104      165.066      107.224       76.385    27246.629    11496.962     5834.675        6.583        2.229      293.674       67.315        0.053      332.744        1.603      855.394
12/15/2021  18:41:00     -226.370       66.070        0.498      164.786      153.442       74.056    27154.545    23544.440     5484.324        5.589        2.809      235.814       83.819        0.126      332.765        1.638      855.254
12/15/2021  18:42:00     -177.612       15.071        3.151      202.483       87.815       68.701    40999.399     7711.390     4719.814        4.260        2.672      178.250       72.715        0.166      332.808        1.709      855.167
12/15/2021  18:43:00     -413.168       55.007      -35.858      169.458      130.389       91.449    28716.149    17001.245     8362.879       11.454        2.704      416.814       63.148        0.023      332.816        1.723      855.163
12/15/2021  18:44:00     -270.384      -22.604       -7.514      178.338      139.408       85.433    31804.301    19434.588     7298.790        6.610        2.927      271.327       92.706        0.117      332.856        1.788      855.084
12/15/2021  18:45:00     -227.672       15.626      -11.640      201.337      105.710       87.110    40536.550    11174.548     7588.078        5.575        2.965      228.207       81.929        0.129      332.878        1.825      855.074
12/15/2021  18:46:00     -279.956       18.402      -11.668      171.693       97.941       87.018    29478.378     9592.509     7572.203        6.274        2.332      280.560       91.349        0.106      332.906        1.871      855.121
12/15/2021  18:47:00     -227.755       75.166       -3.349      134.093      145.310       73.556    17980.993    21115.054     5410.427        5.101        2.225      239.838       63.319        0.070      332.928        1.907      855.174
12/15/2021  18:48:00     -101.488      -12.068      -10.510      127.364       88.987       53.360    16221.539     7918.723     2847.257        1.877        1.349      102.203       39.856        0.152      332.959        1.958      855.159
12/15/2021  18:49:00     -243.257      136.503       -6.953      176.404      113.784       76.143    31118.406    12946.697     5797.763        6.385        2.493      278.939       72.118        0.067      332.921        1.896      855.109
12/15/2021  18:50:00     -200.305       29.493      -13.018      155.930      107.354       69.455    24314.251    11524.802     4824.028        4.090        2.033      202.465       57.839        0.082      332.945        1.935      855.136
12/15/2021  18:51:00     -214.675       61.490       -5.285      156.037      102.916       84.764    24347.428    10591.706     7184.961        4.600        2.106      223.307       64.615        0.084      332.937        1.923      855.062
12/15/2021  18:52:00     -201.277      -14.763       -9.369      174.507      101.902       83.141    30452.663    10383.995     6912.469        4.427        2.387      201.818       78.113        0.150      332.979        1.992      855.011
12/15/2021  18:53:00     -153.845       23.318       -7.371      145.726      111.386       75.240    21235.932    12406.915     5661.117        3.178        1.965      155.602       58.089        0.139      332.988        2.006      854.964
12/15/2021  18:54:00     -363.917      124.870       -3.906      224.878      120.465       84.405    50570.319    14511.727     7124.152       11.011        3.610      384.744      105.877        0.076      332.986        2.003      855.066
12/15/2021  18:55:00     -267.782       73.101      -20.004      162.882      122.931       65.476    26530.674    15112.014     4287.101        6.168        2.296      277.581       61.379        0.049      333.002        2.029      855.063
12/15/2021  18:56:00     -333.343       55.199        5.939      340.447      125.823       82.395   115904.059    15831.445     6788.972       12.634        6.926      337.883      102.299        0.092      333.049        2.108      854.875
12/15/2021  18:57:00     -321.469      106.117        5.836      216.776      119.616       95.044    46991.750    14307.894     9033.285        9.247        3.517      338.531       98.986        0.085      333.025        2.066      854.937
12/15/2021  18:58:00     -326.585      110.586       -6.035      322.337      134.645      104.105   103901.043    18129.213    10837.824       12.587        6.643      344.800      125.189        0.132      333.043        2.098      854.980
12/15/2021  18:59:00     -356.709       66.395       -7.101      234.301      149.922       97.119    54897.111    22476.546     9432.063       10.924        4.340      362.835      113.253        0.097      333.037        2.087      855.035
12/15/2021  19:00:00     -239.814       32.384      -20.203      182.660      115.055       86.773    33364.495    13237.543     7529.469        5.654        2.707      241.991       94.304        0.152      333.035        2.083      855.068
12/15/2021  19:01:00      -93.240       41.310      -34.600      134.051      122.236       80.947    17969.639    14941.711     6552.389        2.552        1.973      101.981       64.689        0.402      333.023        2.066      855.064
12/15/2021  19:02:00     -293.786       80.170        0.393      163.845      141.307       75.684    26845.038    19967.675     5728.058        7.263        2.627      304.528       83.296        0.075      332.979        1.991      855.002
12/15/2021  19:03:00     -241.946        3.064        0.482      171.309       97.516       81.183    29346.727     9509.455     6590.654        5.199        2.272      241.965       83.563        0.119      333.008        2.041      855.013
12/15/2021  19:04:00     -307.840      -60.227      -29.144      189.890      142.045       88.489    36058.273    20176.917     7830.383        8.164        3.203      313.676       94.176        0.090      332.996        2.019      855.068
12/15/2021  19:05:00     -352.835       44.191      -49.695      162.932      151.053       76.545    26546.831    22816.929     5859.197        9.206        2.761      355.592       70.225        0.039      332.972        1.978      855.027
12/15/2021  19:06:00     -413.644        4.783      -16.285      140.087      115.919       70.976    19624.489    13437.125     5037.662       10.474        1.905      413.672       62.420        0.023      332.953        1.949      854.937
12/15/2021  19:07:00     -316.134      -22.668      -12.305      191.434      102.700       84.115    36647.159    10547.340     7075.334        7.743        2.713      316.946       84.601        0.071      332.962        1.963      854.877
12/15/2021  19:08:00     -191.041       19.225       -2.858      188.298      132.816       82.847    35456.190    17640.128     6863.581        4.841        2.998      192.005       72.415        0.142      332.994        2.015      854.873
12/15/2021  19:09:00     -256.846       60.023      -11.762      169.143      122.191       83.175    28609.482    14930.553     6918.009        6.008        2.523      263.766       63.849        0.059      332.989        2.008      854.789
12/15/2021  19:10:00     -129.183       47.753        5.037      135.415      100.723       71.107    18337.228    10145.090     5056.243        2.626        1.677      137.727       43.650        0.100      332.985        2.001      854.562
12/15/2021  19:11:00     -135.443       44.048      -11.959       89.571      118.980       52.703     8023.032    14156.348     2777.627        2.269        1.248      142.426       45.628        0.103      332.981        1.994      854.475
12/15/2021  19:12:00     -147.093      -10.794       14.862      159.815       93.694       72.213    25540.928     8778.553     5214.728        3.075        1.977      147.489       75.753        0.264      333.030        2.076      854.660
12/15/2021  19:13:00     -181.428      -44.683      -24.849      111.733      111.860       53.728    12484.362    12512.743     2886.685        3.170        1.394      186.849       38.547        0.043      333.058        2.123      854.611
12/15/2021  19:14:00     -114.945      -60.602      -35.393       66.056      103.303       49.161     4363.445    10671.565     2416.780        1.779        0.873      129.942       36.602        0.079      333.175        2.316      854.493
12/15/2021  19:15:00     -160.342       63.831      -13.326      135.094       62.530       60.309    18250.427     3909.983     3637.158        2.787        1.290      172.580       56.227        0.106      333.020        2.062      854.486
12/15/2021  19:16:00     -157.592       14.445       -9.934      107.623       90.103       42.700    11582.788     8118.519     1823.275        2.333        1.076      158.253       48.968        0.096      332.994        2.017      854.568
12/15/2021  19:17:00      -91.198       22.862      -19.970      121.027       73.273       57.257    14647.508     5368.932     3278.369        1.626        1.165       94.020       63.847        0.461      332.997        2.025      854.690
12/15/2021  19:18:00     -234.988      -44.065      -27.191      132.219       87.429       60.338    17481.842     7643.829     3640.693        4.333        1.438      239.084       62.647        0.069      332.986        2.001      854.698
12/15/2021  19:19:00     -337.387      -13.811      -11.224      150.698       94.661       77.447    22709.999     8960.775     5997.980        7.590        1.883      337.669       76.176        0.051      332.948        1.938      854.835
12/15/2021  19:20:00     -295.062      -83.364      -38.474      150.617      126.608       65.077    22685.626    16029.532     4235.034        6.921        2.148      306.613       66.010        0.046      332.967        1.970      854.892
12/15/2021  19:21:00     -256.248      -88.753      -23.403       99.315      119.911       55.351     9863.504    14378.727     3063.758        5.069        1.365      271.183       50.079        0.034      332.961        1.959      854.913
12/15/2021  19:22:00     -297.082      -85.169      -37.550      184.791       93.566       53.101    34147.549     8754.657     2819.719        7.131        2.286      309.050       63.074        0.042      333.006        2.035      854.987
12/15/2021  19:23:00     -152.232     -142.181      -28.005       82.337      121.331       62.737     6779.421    14721.185     3935.886        3.480        1.272      208.303       39.760        0.036      333.052        2.113      855.078
12/15/2021  19:24:00      -88.907      -54.388      -25.005       67.374       83.743       40.517     4539.241     7012.820     1641.616        1.234        0.660      104.223       29.444        0.080      333.077        2.156      855.012
12/15/2021  19:25:00     -124.353      -93.845      -27.377       85.021       94.542       49.696     7228.621     8938.223     2469.709        2.182        0.932      155.790       32.090        0.042      333.084        2.166      854.975
12/15/2021  19:26:00       38.617      -70.188      -22.529       67.356       74.794       37.092     4536.788     5594.076     1375.800        0.921        0.575       80.110       10.494        0.017      333.168        2.307      854.929
12/15/2021  19:27:00       -5.124       13.720       -3.524       35.800       35.334       24.002     1281.649     1248.494      576.103        0.167        0.155       14.646       13.191        0.811      333.179        2.324      854.930
12/15/2021  19:28:00      -44.066      -25.564       -6.510       56.228       53.416       35.630     3161.569     2853.308     1269.531        0.496        0.364       50.944       30.180        0.351      333.108        2.207      855.043
12/15/2021  19:29:00      -25.582       -9.128      -12.033       32.601       25.688       13.898     1062.841      659.866      193.145        0.140        0.096       27.162        6.754        0.062      333.081        2.165      854.983
12/15/2021  19:30:00      -23.924       10.027      -18.916       43.290       27.523       26.357     1874.006      757.497      694.700        0.218        0.166       25.940       14.989        0.334      333.075        2.153      854.933
12/15/2021  19:31:00       -6.996      -19.582        2.542       42.720       50.393       19.233     1825.000     2539.405      369.917        0.259        0.237       20.795       16.880        0.659      333.224        2.398      854.899
12/15/2021  19:32:00      -39.515        8.518        2.471       25.610       30.369       16.138      655.851      922.252      260.426        0.174        0.092       40.423       13.930        0.119      333.158        2.290      854.935
12/15/2021  19:33:00      -69.967      -29.825       -3.592       58.960       58.593       40.408     3476.302     3433.091     1632.813        0.717        0.427       76.059       23.883        0.099      333.127        2.238      855.042
12/15/2021  19:34:00     -181.120     -189.262      -33.347       73.111       65.302       41.616     5345.244     4264.350     1731.878        4.054        0.567      261.963       30.843        0.014      333.162        2.293      855.034
12/15/2021  19:35:00     -193.448      -64.388      -23.265      123.250      105.577       63.171    15190.549    11146.516     3990.576        3.621        1.516      203.882       66.693        0.107      333.117        2.220      855.038
12/15/2021  19:36:00      -38.641       -9.978      -22.435       28.234       32.365       25.261      797.169     1047.517      638.106        0.229        0.124       39.908        8.961        0.050      333.096        2.189      855.080
12/15/2021  19:37:00      -15.373      -74.943      -18.920       82.567       72.011       33.800     6817.357     5185.523     1142.468        0.968        0.657       76.503       31.378        0.168      333.235        2.417      855.043
12/15/2021  19:38:00      -54.510      -46.727       -9.135       84.662       59.533       43.149     7167.628     3544.175     1861.795        0.890        0.629       71.797       15.666        0.048      333.243        2.432      855.056
12/15/2021  19:39:00      -86.399        1.435        3.598       73.853       44.759       33.610     5454.316     2003.404     1129.653        0.803        0.429       86.411       26.684        0.095      333.117        2.221      855.028
12/15/2021  19:40:00     -143.794     -117.558      -33.440       68.638       87.284       36.286     4711.165     7618.554     1316.653        2.463        0.682      185.733       24.979        0.018      333.136        2.251      855.079
12/15/2021  19:41:00       12.162      -81.601      -22.886      131.760       82.235       44.632    17360.581     6762.653     1991.977        1.672        1.306       82.502       36.060        0.191      333.148        2.273      855.010
12/15/2021  19:42:00       48.976      -50.020      -45.337       61.823       96.495       58.037     3822.138     9311.286     3368.302        1.173        0.825       70.005       42.598        0.370      333.181        2.328      854.774
12/15/2021  19:43:00        6.198      -71.050      -25.978       39.897       66.208       32.936     1591.732     4383.511     1084.774        0.641        0.353       71.320       14.596        0.042      333.252        2.447      854.751
12/15/2021  19:44:00       78.531     -168.332      -25.640       38.428       73.510       35.409     1476.673     5403.731     1253.791        2.165        0.407      185.749       25.664        0.019      333.218        2.387      854.741
12/15/2021  19:45:00      -21.103      -20.405      -13.395       59.586       57.176       41.209     3550.542     3269.149     1698.211        0.478        0.426       29.355       29.740        1.026      333.199        2.359      854.877
12/15/2021  19:46:00     -114.855      -47.086       -4.612       46.484       41.294       35.336     2160.752     1705.215     1248.646        1.027        0.256      124.132       14.475        0.014      333.254        2.448      854.859
12/15/2021  19:47:00        5.129       18.280      -15.621       63.710       55.154       34.213     4058.925     3041.962     1170.509        0.444        0.414       18.986       31.023        2.670      333.372        2.645      854.730
12/15/2021  19:48:00       -5.976      -68.523      -33.501       51.937       49.947       40.240     2697.412     2494.739     1619.285        0.633        0.341       68.783       32.834        0.228      333.327        2.571      854.704
12/15/2021  19:49:00      -14.704      -76.161      -30.024       72.980       62.766       44.075     5326.037     3939.621     1942.588        0.906        0.560       77.568       26.460        0.116      333.385        2.666      854.879
12/15/2021  19:50:00       20.709      -44.413      -28.003       58.363       73.853       35.109     3406.281     5454.282     1232.616        0.664        0.505       49.004       15.402        0.099      333.389        2.673      854.888
12/15/2021  19:51:00      -21.217      -43.175      -21.340       48.357       50.432       39.559     2338.371     2543.360     1564.880        0.461        0.322       48.107       31.809        0.437      333.276        2.485      854.849
12/15/2021  19:52:00      -23.104        9.362       -8.965       23.362       25.255       13.193      545.786      637.805      174.048        0.103        0.068       24.929        8.538        0.117      333.304        2.532      854.836
12/15/2021  19:53:00      -48.640      -40.269      -14.222       41.332       50.006       20.153     1708.347     2500.578      406.163        0.440        0.231       63.146       10.458        0.027      333.377        2.652      854.791
12/15/2021  19:54:00     -140.970     -124.308      -34.152       31.314       31.735       32.039      980.557     1007.101     1026.466        1.975        0.151      187.949       18.660        0.010      333.352        2.610      854.827
12/15/2021  19:55:00      -64.798      -31.925       -7.163       49.725       62.501       29.063     2472.543     3906.332      844.671        0.625        0.361       72.236       32.196        0.199      333.300        2.525      854.885
12/15/2021  19:56:00      -93.587       15.659       -9.863       38.152       30.535       25.215     1455.543      932.389      635.773        0.606        0.151       94.888       14.672        0.024      333.260        2.458      854.771
12/15/2021  19:57:00       -6.727      -46.128      -23.107       41.717       50.807       22.920     1740.333     2581.393      525.336        0.378        0.242       46.616       22.261        0.228      333.280        2.490      854.752
12/15/2021  19:58:00       91.684     -144.430      -54.067       48.933       40.738       25.137     2394.481     1659.555      631.870        1.844        0.234      171.073       20.707        0.015      333.304        2.530      854.810
12/15/2021  19:59:00       49.563     -128.629      -39.655       43.629       40.388       30.406     1903.513     1631.217      924.524        1.252        0.223      137.848       18.552        0.018      333.337        2.587      854.843
12/15/2021  20:00:00      -61.964      -13.813       -1.246       44.253       26.278       18.524     1958.352      690.543      343.131        0.351        0.150       63.485        8.477        0.018      333.356        2.618      854.842
12/15/2021  20:01:00       -5.138       67.052      -21.546       24.590       31.447       21.099      604.688      988.892      445.169        0.351        0.102       67.248       16.355        0.059      333.377        2.653      854.882
12/15/2021  20:02:00      -47.466       22.945      -17.712       30.349       24.283       18.398      921.067      589.672      338.493        0.247        0.092       52.721       16.521        0.098      333.448        2.769      854.849
12/15/2021  20:03:00      -34.299      -29.481        3.648       37.310       24.291       26.447     1392.007      590.071      699.465        0.237        0.134       45.228       18.892        0.174      333.444        2.763      854.854
12/15/2021  20:04:00      -95.407       -4.863      -18.852       45.445       40.201       21.634     2065.218     1616.117      468.044        0.681        0.207       95.531       22.311        0.055      333.360        2.626      854.917
12/15/2021  20:05:00       22.742       11.412      -18.476       26.612       37.045       31.954      708.173     1372.308     1021.055        0.204        0.155       25.445       25.193        0.980      333.519        2.888      854.934
12/15/2021  20:06:00       18.258      -65.653      -16.166       48.370       70.352       36.766     2339.648     4949.350     1351.704        0.677        0.432       68.144       36.154        0.281      333.472        2.810      854.886
12/15/2021  20:07:00       76.290     -118.023      -21.745       36.643       40.204       34.238     1342.706     1616.361     1172.215        1.218        0.207      140.533       26.461        0.035      333.466        2.799      855.004
12/15/2021  20:08:00       15.639      -62.087      -20.854       44.281       37.517       24.667     1960.824     1407.548      608.482        0.425        0.199       64.026       18.133        0.080      333.527        2.900      855.096
12/15/2021  20:09:00       -2.514        3.558      -11.108       28.423       52.539       21.650      807.866     2760.391      468.720        0.209        0.202        4.356       20.679       22.532      333.475        2.815      855.210
12/15/2021  20:10:00       27.374      -54.767      -16.876       37.736       39.438       27.623     1424.035     1555.320      763.015        0.389        0.187       61.228       15.455        0.064      333.657        3.117      855.161
12/15/2021  20:11:00       81.010     -130.091      -30.004       54.804       76.036       41.600     3003.462     5781.457     1730.563        1.745        0.526      153.252       31.861        0.043      333.564        2.961      855.094
12/15/2021  20:12:00      109.447     -165.157      -40.978       30.000       61.603       24.155      900.012     3794.920      583.488        2.311        0.264      198.129       12.864        0.004      333.452        2.773      855.154
12/15/2021  20:13:00       75.976     -128.911      -28.500       34.518       51.555       31.173     1191.516     2657.911      971.759        1.401        0.241      149.635       22.705        0.023      333.505        2.863      855.178
12/15/2021  20:14:00       61.767      -51.385      -18.653       30.493       41.899       22.756      929.838     1755.550      517.846        0.500        0.160       80.347        4.963        0.004      333.510        2.871      855.264
12/15/2021  20:15:00       48.986      -95.376      -35.465       44.169       44.985       20.903     1950.890     2023.689      436.955        0.858        0.221      107.220       17.723        0.027      333.523        2.894      855.353
12/15/2021  20:16:00      -31.175      -19.009      -18.682       33.021       27.588       19.400     1090.384      761.124      376.370        0.195        0.111       36.514       17.719        0.235      333.470        2.807      855.257
12/15/2021  20:17:00       -4.214      -50.683      -35.482       86.462       46.088       30.091     7475.621     2124.132      905.487        0.717        0.525       50.858       19.920        0.153      333.461        2.791      855.254
12/15/2021  20:18:00       97.357     -124.786      -47.142       46.736       58.903       38.263     2184.262     3469.563     1464.065        1.719        0.356      158.272       26.693        0.028      333.462        2.792      855.113
12/15/2021  20:19:00       90.410     -151.567      -40.489       33.974       44.718       23.649     1154.257     1999.686      559.274        1.825        0.186      176.484       19.985        0.013      333.448        2.768      855.023
12/15/2021  20:20:00       67.264      -58.849      -32.750       36.548       72.030       23.241     1335.791     5188.386      540.146        0.806        0.353       89.374       26.107        0.085      333.510        2.873      854.915
12/15/2021  20:21:00       80.039     -179.415      -48.739      106.600      107.299       38.238    11363.523    11513.065     1462.166        3.265        1.217      196.459       54.601        0.077      333.515        2.877      854.849
12/15/2021  20:22:00      121.130     -167.357      -42.960       31.991       31.514       14.924     1023.441      993.143      222.732        2.338        0.112      206.593       17.876        0.007      333.407        2.698      854.892
12/15/2021  20:23:00      109.452       -4.421      -22.916       55.525       65.189       27.675     3082.979     4249.573      765.902        1.031        0.405      109.541       13.392        0.015      333.495        2.846      854.867
12/15/2021  20:24:00        0.385       53.954      -15.329       68.236       43.472       23.518     4656.140     1889.852      553.100        0.512        0.355       53.955       12.903        0.057      333.396        2.683      854.811
12/15/2021  20:25:00      -59.655       34.745       -8.304       39.427       24.915       21.285     1554.488      620.777      453.031        0.373        0.131       69.036       12.885        0.035      333.330        2.576      854.813
12/15/2021  20:26:00      -72.884       82.972      -17.698       39.589       61.350       18.975     1567.310     3763.862      360.033        0.910        0.285      110.437       22.939        0.043      333.337        2.587      854.746
12/15/2021  20:27:00      -97.820       95.301      -25.734       70.806       51.042       23.646     5013.547     2605.242      559.142        1.374        0.409      136.569       27.267        0.040      333.469        2.806      854.650
12/15/2021  20:28:00     -157.698       26.686      -14.238       94.166       70.232       52.268     8867.264     4932.527     2731.924        2.115        0.827      159.940       47.303        0.087      333.361        2.625      854.707
12/15/2021  20:29:00     -184.573      -84.148      -25.138      190.630       86.620       60.281    36339.855     7502.946     3633.788        4.462        2.374      202.849       79.710        0.154      333.513        2.876      854.739
12/15/2021  20:30:00     -223.117      -29.957      -15.033      132.894       90.975       72.595    17660.939     8276.399     5269.995        4.105        1.560      225.120       59.891        0.071      333.640        3.085      854.754
12/15/2021  20:31:00      -58.185       -9.808      -13.435      105.690       57.135       48.831    11170.427     3264.438     2384.473        1.024        0.841       59.006       38.819        0.433      333.593        3.012      854.638
12/15/2021  20:32:00      -58.198      -38.234      -23.415       56.325       77.519       44.052     3172.460     6009.185     1940.578        0.826        0.556       69.634       43.172        0.384      333.601        3.022      854.593
12/15/2021  20:33:00      -75.884      -23.300      -21.871       64.128       50.069       30.763     4112.454     2506.872      946.368        0.717        0.378       79.380       18.479        0.054      333.627        3.066      854.568
12/15/2021  20:34:00       59.633      -51.368      -35.065       56.219       62.966       41.373     3160.595     3964.777     1711.709        0.813        0.442       78.707       31.348        0.159      333.655        3.114      854.420
12/15/2021  20:35:00       46.373      -21.132        3.477       78.529       71.247       71.498     6166.824     5076.162     5112.003        0.948        0.818       50.961       50.452        0.980      333.474        2.813      854.304
12/15/2021  20:36:00       33.954      -11.380       -7.288       71.224       54.413       48.059     5072.915     2960.809     2309.706        0.584        0.517       35.810       36.574        1.043      333.388        2.672      854.355
12/15/2021  20:37:00      107.767      -67.659      -20.657       64.791       64.980       42.059     4197.918     4222.456     1768.945        1.340        0.509      127.246       42.324        0.111      333.438        2.751      854.418
12/15/2021  20:38:00      103.904       -7.462      -13.427       74.397       79.753       55.374     5534.921     6360.552     3066.256        1.299        0.748      104.171       45.131        0.188      333.390        2.675      854.405
12/15/2021  20:39:00       75.682      -27.766      -11.709       88.553       59.854       50.076     7841.572     3582.456     2507.604        1.028        0.697       80.615       36.451        0.204      333.444        2.762      854.496
12/15/2021  20:40:00       56.635     -111.699      -32.847       67.122       75.517       33.143     4505.300     5702.757     1098.474        1.403        0.565      125.237       27.947        0.050      333.536        2.916      854.616
12/15/2021  20:41:00        4.186      -28.816      -31.247       50.956       59.424       41.783     2596.529     3531.156     1745.836        0.485        0.394       29.118       36.824        1.599      333.543        2.927      854.660
12/15/2021  20:42:00       11.453      -29.602      -21.116       36.310       34.044       25.461     1318.397     1158.977      648.242        0.229        0.156       31.740       16.338        0.265      333.681        3.156      854.790
12/15/2021  20:43:00      140.130     -149.570      -45.381       79.693       84.953       50.605     6350.916     7217.066     2560.825        3.010        0.806      204.958       49.300        0.058      333.531        2.904      854.768
12/15/2021  20:44:00       99.239     -103.530      -41.882       70.934       60.926       40.536     5031.683     3711.964     1643.166        1.635        0.519      143.412       35.927        0.063      333.566        2.965      854.629
12/15/2021  20:45:00       35.178     -175.127      -32.645       60.027       70.816       36.942     3603.189     5014.975     1364.719        2.148        0.499      178.625       20.868        0.014      333.614        3.043      854.633
12/15/2021  20:46:00      132.559     -146.821      -51.888       55.866       62.443       32.204     3121.028     3899.093     1037.093        2.494        0.403      197.809       23.943        0.015      333.473        2.808      854.540
12/15/2021  20:47:00       46.455      -22.156      -25.906       50.336       42.185       34.406     2533.703     1779.554     1183.745        0.441        0.275       51.468       26.483        0.265      333.442        2.759      854.382
12/15/2021  20:48:00       33.743      -65.474      -13.178       37.182       67.425       25.603     1382.473     4546.098      655.506        0.609        0.329       73.658       21.399        0.084      333.501        2.857      854.350
12/15/2021  20:49:00      200.221     -279.651      -70.798       87.346       75.427       42.596     7629.372     5689.219     1814.426        6.922        0.757      343.938       46.833        0.019      333.465        2.794      854.474
12/15/2021  20:50:00      126.843     -180.672      -29.776       86.115      135.544       70.562     7415.817    18372.268     4978.938        4.019        1.538      220.752       72.508        0.108      333.465        2.795      854.327
12/15/2021  20:51:00      139.947      -25.184      -16.844       84.331       71.404       34.154     7111.769     5098.501     1166.505        1.694        0.669      142.195       15.075        0.011      333.438        2.752      854.180
12/15/2021  20:52:00       92.342      -10.006      -21.413       62.876       47.021       31.954     3953.404     2211.013     1021.087        0.813        0.359       92.883       14.916        0.026      333.492        2.845      854.290
12/15/2021  20:53:00      -21.216      -59.000      -29.775       37.369       53.226       36.719     1396.425     2833.042     1348.256        0.520        0.279       62.699       34.446        0.302      333.587        3.001      854.403
12/15/2021  20:54:00       66.208     -181.177      -45.675       56.670       81.814       43.653     3211.457     6693.454     1905.568        2.555        0.591      192.895       36.929        0.037      333.536        2.913      854.468
12/15/2021  20:55:00      -29.347      -19.666      -20.102       25.424       59.655       26.945      646.362     3558.761      726.058        0.329        0.247       35.327       26.247        0.552      333.603        3.027      854.477
12/15/2021  20:56:00      -19.674       -0.496      -10.121       19.366       22.245       13.629      375.039      494.841      185.749        0.077        0.053       19.680        8.233        0.175      333.653        3.111      854.467
12/15/2021  20:57:00      -30.013       -0.318      -16.751       24.592       33.418       17.563      604.768     1116.777      308.444        0.161        0.101       30.015       20.801        0.480      333.654        3.110      854.522
12/15/2021  20:58:00      -26.268       -0.837       -1.236       26.700       28.173       17.446      712.907      793.713      304.362        0.125        0.091       26.282        7.726        0.086      333.588        3.002      854.587
12/15/2021  20:59:00      -30.414       17.381      -11.584       21.487       12.361       13.331      461.697      152.805      177.722        0.108        0.040       35.030        4.521        0.017      333.515        2.881      854.504
12/15/2021  21:00:00      -34.375       33.365      -13.109       26.318       18.549       14.584      692.621      344.077      212.681        0.186        0.062       47.905        8.181        0.029      333.553        2.944      854.510
12/15/2021  21:01:00      -25.392       22.085       -2.896       17.332       16.413       13.406      300.411      269.379      179.731        0.095        0.037       33.653        8.840        0.069      333.498        2.851      854.517
12/15/2021  21:02:00      -62.964       11.250       -9.109       42.364       31.646       16.809     1794.740     1001.440      282.549        0.363        0.154       63.961       11.879        0.034      333.511        2.875      854.535
12/15/2021  21:03:00      -25.171        2.692       -4.393       21.784       19.182       14.868      474.528      367.949      221.051        0.086        0.053       25.315        3.866        0.023      333.468        2.800      854.655
12/15/2021  21:04:00       20.845       42.018      -12.338       42.774       26.689       19.738     1829.612      712.305      389.586        0.264        0.147       46.904       12.545        0.072      333.548        2.936      854.674
12/15/2021  21:05:00      -40.499       60.780      -11.055       81.422       28.139       23.770     6629.582      791.811      565.026        0.672        0.399       73.037       33.982        0.216      333.526        2.900      854.691
12/15/2021  21:06:00     -117.791       24.368       -5.820       47.386       38.984       30.768     2245.404     1519.787      946.698        0.961        0.236      120.285       20.662        0.030      333.501        2.858      854.742
12/15/2021  21:07:00     -104.004       28.167      -18.551       88.641       42.252       30.357     7857.236     1785.206      921.549        1.126        0.528      107.750       30.459        0.080      333.567        2.968      854.746
12/15/2021  21:08:00     -181.740       41.308      -15.124       82.711       41.032       38.437     6841.156     1683.642     1477.439        2.248        0.500      186.375       41.125        0.049      333.664        3.125      854.646
12/15/2021  21:09:00     -128.986       42.258      -10.503       58.726       55.965       30.831     3448.797     3132.035      950.558        1.303        0.377      135.732       27.673        0.042      333.630        3.070      854.524
12/15/2021  21:10:00     -108.661        3.836       -4.067      106.956       44.424       34.000    11439.514     1973.515     1156.016        1.320        0.728      108.729       40.520        0.139      333.636        3.081      854.607
12/15/2021  21:11:00     -119.079       -6.838       -8.124       67.983       53.581       32.917     4621.648     2870.916     1083.550        1.143        0.429      119.276       29.136        0.060      333.678        3.150      854.697
12/15/2021  21:12:00      -87.658       38.942       -5.624       54.014       48.455       21.990     2917.563     2347.847      483.575        0.749        0.287       95.919       16.825        0.031      333.648        3.104      854.768
12/15/2021  21:13:00      -98.514       14.182      -14.944       59.050       35.217       29.743     3486.868     1240.226      884.663        0.787        0.281       99.530       15.498        0.024      333.626        3.065      854.744
12/15/2021  21:14:00     -131.570       12.669      -16.525       80.490       56.011       39.084     6478.636     3137.219     1527.528        1.444        0.557      132.179       31.845        0.058      333.662        3.124      854.873
12/15/2021  21:15:00      -92.458      116.208       -8.747       64.928       49.665       27.243     4215.660     2466.626      742.167        1.478        0.371      148.502       16.314        0.012      333.644        3.094      854.794
12/15/2021  21:16:00     -114.017      120.334      -12.184       76.298       44.933       34.598     5821.354     2018.982     1196.998        1.833        0.452      165.772       33.168        0.040      333.664        3.126      854.709
12/15/2021  21:17:00     -113.593       57.420      -11.160      100.047       71.355       45.250    10009.419     5091.600     2047.527        1.673        0.857      127.281       41.426        0.106      333.659        3.119      854.752
12/15/2021  21:18:00     -154.842       20.486      -13.561      133.942       83.477       52.893    17940.469     6968.381     2797.679        2.614        1.385      156.192       43.890        0.079      333.693        3.173      854.794
12/15/2021  21:19:00     -111.735       35.090       -4.518       77.681       48.949       39.968     6034.411     2395.960     1597.480        1.188        0.501      117.115       38.921        0.110      333.679        3.153      854.818
12/15/2021  21:20:00      -87.713       49.662      -19.358       61.671       44.613       28.310     3803.306     1990.362      801.451        0.856        0.330      100.797       28.473        0.080      333.681        3.156      854.700
12/15/2021  21:21:00      -27.018      -12.744      -32.990       39.203       34.356       23.532     1536.844     1180.358      553.771        0.263        0.164       29.873       17.404        0.339      333.681        3.158      854.592
12/15/2021  21:22:00      -57.297       49.873       -9.536       53.386       52.852       32.220     2850.054     2793.290     1038.161        0.627        0.334       75.963       22.665        0.089      333.669        3.137      854.535
12/15/2021  21:23:00      -67.425        0.155      -20.227       52.602       36.603       21.295     2766.964     1339.816      453.462        0.476        0.228       67.425       24.133        0.128      333.709        3.202      854.503
12/15/2021  21:24:00     -110.666      -54.654      -17.758       66.421       71.116       35.834     4411.702     5057.533     1284.043        1.315        0.538      123.426       20.078        0.026      333.731        3.238      854.597
12/15/2021  21:25:00     -113.930        8.041      -22.172       65.514       44.089       26.877     4292.031     1943.843      722.351        1.025        0.348      114.214       30.420        0.071      333.788        3.332      854.621
12/15/2021  21:26:00      -14.432      -62.048       -8.137       34.464       51.194       22.177     1187.782     2620.864      491.817        0.421        0.215       63.704       14.676        0.053      333.801        3.354      854.623
12/15/2021  21:27:00       41.790      -11.079      -29.388       74.211       57.814       35.559     5507.316     3342.476     1264.438        0.642        0.506       43.234       29.440        0.464      333.778        3.316      854.594
12/15/2021  21:28:00        2.185     -100.149      -34.116       72.956       75.931       41.568     5322.518     5765.444     1727.876        1.200        0.641      100.173       33.324        0.111      333.812        3.372      854.571
12/15/2021  21:29:00        3.227       -7.701      -15.817       49.831       44.771       35.018     2483.172     2004.432     1226.250        0.302        0.286        8.350       22.859        7.495      333.778        3.315      854.619
12/15/2021  21:30:00       35.787      -24.892       -8.649       56.485       55.214       35.705     3190.530     3048.598     1274.823        0.474        0.376       43.593       26.360        0.366      333.755        3.278      854.581
12/15/2021  21:31:00       70.932      -34.590      -10.637       51.272       26.068       21.519     2628.857      679.552      463.086        0.506        0.189       78.916       22.449        0.081      333.782        3.321      854.637
12/15/2021  21:32:00       71.623       32.266      -16.300       27.042       26.176       10.920      731.277      685.206      119.244        0.399        0.077       78.555        8.158        0.011      333.789        3.335      854.649
12/15/2021  21:33:00       81.170       19.430       -1.521       40.055       31.225       18.952     1604.407      975.026      359.169        0.495        0.147       83.463        4.895        0.003      333.691        3.174      854.585
12/15/2021  21:34:00       31.419        5.963       -5.515       17.354       26.305       13.301      301.161      691.930      176.915        0.111        0.059       31.979       10.534        0.108      333.693        3.175      854.607
12/15/2021  21:35:00      165.181       41.839      -11.803       75.426       42.220       27.997     5689.135     1782.569      783.805        1.871        0.413      170.397       23.688        0.019      333.669        3.136      854.539
12/15/2021  21:36:00       84.787       12.980        6.169      103.726       76.270       62.693    10759.064     5817.162     3930.457        1.395        1.025       85.775       50.997        0.353      333.698        3.183      854.376
12/15/2021  21:37:00      115.334       -5.718       -0.774      102.812       80.659       61.402    10570.380     6505.866     3770.174        1.709        1.042      115.475       54.699        0.224      333.698        3.182      854.485
12/15/2021  21:38:00      198.274      -49.533      -15.087      105.287       65.153       58.277    11085.424     4244.924     3396.174        3.036        0.936      204.367       58.989        0.083      333.656        3.112      854.516
12/15/2021  21:39:00      212.687       37.940       -8.575       62.951       49.044       37.457     3962.797     2405.335     1402.995        2.726        0.389      216.044       28.071        0.017      333.624        3.058      854.449
12/15/2021  21:40:00      155.722       66.779      -12.539      101.955       65.852       39.662    10394.775     4336.497     1573.065        2.258        0.815      169.437       17.367        0.011      333.601        3.021      854.432
12/15/2021  21:41:00      -48.052       72.697      -12.981       52.042       44.857       23.867     2708.389     2012.145      569.623        0.653        0.265       87.143       13.833        0.025      333.682        3.158      854.702
12/15/2021  21:42:00      -99.464       21.352      -16.869       71.476       41.624       39.369     5108.820     1732.525     1549.950        0.951        0.420      101.730       22.993        0.051      333.620        3.056      854.853
12/15/2021  21:43:00      -25.414       31.455       -1.088       45.624       32.843       20.713     2081.543     1078.693      429.045        0.261        0.179       40.439       20.829        0.265      333.676        3.150      854.808
12/15/2021  21:44:00       15.938       72.126       -9.255       37.733       29.762       19.379     1423.786      885.768      375.565        0.411        0.134       73.866       19.537        0.070      333.781        3.321      854.763
12/15/2021  21:45:00      -26.734       57.809      -23.492       46.609       32.902       16.235     2172.372     1082.521      263.562        0.406        0.176       63.692       13.028        0.042      333.845        3.427      854.808
12/15/2021  21:46:00      -88.933       40.937      -12.812       53.929       24.324       26.523     2908.343      591.633      703.455        0.698        0.210       97.903       18.480        0.036      333.715        3.212      854.900
12/15/2021  21:47:00      -15.708       50.965       -4.742       32.851       21.841       15.365     1079.160      477.016      236.097        0.233        0.090       53.331       15.695        0.087      333.711        3.206      854.849
12/15/2021  21:48:00        2.031       65.582       -4.670       30.260       43.115       19.831      915.646     1858.875      393.284        0.375        0.158       65.613        9.871        0.023      333.796        3.346      854.821
12/15/2021  21:49:00      -30.999       24.817       -9.719       15.996       26.820        9.773      255.857      719.314       95.515        0.137        0.054       39.710        7.178        0.033      333.816        3.379      854.983
12/15/2021  21:50:00      -56.382       69.742      -10.165       25.273       19.553       13.698      638.744      382.312      187.647        0.468        0.060       89.682        9.259        0.011      333.840        3.419      855.131
12/15/2021  21:51:00       37.051       62.399      -14.538       34.448       18.400       17.610     1186.639      338.568      310.122        0.366        0.092       72.570       13.177        0.033      333.851        3.440      855.065
12/15/2021  21:52:00        6.319       29.456        0.624       14.127       27.096       14.009      199.586      734.200      196.260        0.102        0.057       30.126       11.871        0.155      333.927        3.563      855.057
12/15/2021  21:53:00       -0.401      -24.000       -0.351       16.025       18.252       15.865      256.807      333.139      251.708        0.071        0.042       24.004        9.110        0.144      333.807        3.364      855.138
12/15/2021  21:54:00        1.152       25.413      -11.056       24.654       33.138       13.770      607.804     1098.160      189.614        0.133        0.095       25.439       10.483        0.170      333.801        3.354      855.240
12/15/2021  21:55:00      -26.517      111.509      -12.146       47.390       40.282       29.033     2245.836     1622.649      842.934        0.900        0.236      114.618       20.660        0.032      333.841        3.421      855.222
12/15/2021  21:56:00       51.611       74.036      -20.912       30.428       38.778       29.053      925.864     1503.739      844.063        0.593        0.164       90.249       10.525        0.014      333.816        3.380      855.191
12/15/2021  21:57:00       22.402       -2.171       -0.289       23.126       41.152       17.727      534.820     1693.508      314.236        0.152        0.127       22.507       13.712        0.371      333.766        3.297      855.263
12/15/2021  21:58:00       19.098        2.404      -12.196       66.785       61.165       39.505     4460.295     3741.188     1560.630        0.514        0.488       19.249       27.624        2.059      333.842        3.421      855.232
12/15/2021  21:59:00      -44.088       -4.543       -1.508       53.838       51.934       35.322     2898.526     2697.106     1247.626        0.440        0.342       44.321       26.933        0.369      333.813        3.373      855.200
12/15/2021  22:00:00      -66.273      -10.968       -4.964       56.758       56.063       32.186     3221.443     3143.093     1035.921        0.597        0.370       67.174       27.138        0.163      333.713        3.208      855.192
12/15/2021  22:01:00      -92.502        6.060       -5.722       78.644       70.411       54.465     6184.888     4957.644     2966.388        1.136        0.705       92.700       43.098        0.216      333.641        3.090      855.114
12/15/2021  22:02:00     -180.591       47.618        3.727      111.472       69.780       59.931    12425.964     4869.227     3591.772        2.789        1.044      186.764       54.368        0.085      333.528        2.900      855.152
12/15/2021  22:03:00     -182.425       15.957        7.405      123.204       86.362       57.349    15179.127     7458.371     3288.856        2.975        1.296      183.122       53.747        0.086      333.501        2.856      855.198
12/15/2021  22:04:00     -247.791      -73.737      -26.537       89.432       74.840       53.615     7998.079     5600.959     2874.552        4.200        0.824      258.530       43.547        0.028      333.478        2.816      855.276
12/15/2021  22:05:00     -282.936        1.038      -19.562      112.141       80.894       62.848    12575.596     6543.821     3949.859        5.175        1.153      282.938       54.939        0.038      333.419        2.719      855.237
12/15/2021  22:06:00     -218.685        0.007      -23.995       98.740       76.354       50.732     9749.531     5829.936     2573.724        3.327        0.908      218.685       41.906        0.037      333.363        2.629      855.167
12/15/2021  22:07:00     -196.929        1.987      -23.831      138.952       86.452       63.588    19307.646     7473.924     4043.381        3.508        1.541      196.939       64.535        0.107      333.352        2.610      855.174
12/15/2021  22:08:00     -191.833      -17.010      -16.603      131.171       75.421       55.800    17205.716     5688.355     3113.690        3.168        1.300      192.585       54.111        0.079      333.274        2.480      855.125
12/15/2021  22:09:00     -186.789      -12.355      -17.079      109.384       74.318       52.006    11964.755     5523.219     2704.602        2.776        1.010      187.197       49.977        0.071      333.270        2.473      855.124
12/15/2021  22:10:00     -138.136        1.876      -14.258      141.155       82.512       58.521    19924.850     6808.158     3424.701        2.472        1.508      138.149       55.838        0.163      333.246        2.435      855.232
12/15/2021  22:11:00      -85.919      -14.491        5.237      135.367       82.747       51.939    18324.267     6847.128     2697.667        1.774        1.393       87.133       59.203        0.462      333.228        2.405      855.277
12/15/2021  22:12:00      -82.861       -0.979      -21.755       87.244       59.368       42.802     7611.490     3524.525     1832.036        1.015        0.648       82.867       40.707        0.241      333.194        2.347      855.244
12/15/2021  22:13:00      -97.501       26.697        9.077      100.192       72.459       45.032    10038.537     5250.341     2027.875        1.381        0.866      101.090       46.490        0.211      333.163        2.297      855.259
12/15/2021  22:14:00     -153.651       36.877       -2.782       76.634       91.864       47.272     5872.783     8439.045     2234.606        2.076        0.827      158.015       43.242        0.075      333.147        2.269      855.231
12/15/2021  22:15:00     -141.112      -14.143      -20.487       72.273       58.900       46.794     5223.425     3469.218     2189.668        1.571        0.544      141.819       36.259        0.065      333.201        2.361      855.184
12/15/2021  22:16:00     -154.872       40.710      -11.326       54.372       63.591       40.214     2956.288     4043.866     1617.198        1.719        0.431      160.134       33.169        0.043      333.159        2.291      855.147
12/15/2021  22:17:00     -105.356        7.159       -7.701       77.553       49.957       46.118     6014.419     2495.723     2126.901        1.092        0.532      105.599       45.146        0.183      333.198        2.355      855.205
12/15/2021  22:18:00     -103.034       27.695        4.907      107.966       80.757       44.528    11656.555     6521.735     1982.779        1.578        1.008      106.692       40.810        0.146      333.206        2.368      855.284
12/15/2021  22:19:00      -77.516       26.867        5.851       69.103       45.621       30.382     4775.217     2081.277      923.049        0.727        0.389       82.040       30.251        0.136      333.175        2.319      855.348
12/15/2021  22:20:00     -128.141      -21.764       -2.808       99.870       57.417       58.064     9974.043     3296.749     3371.372        1.677        0.832      129.976       51.241        0.155      333.213        2.380      855.398
12/15/2021  22:21:00     -163.887      -46.532      -17.091       93.552      118.978       53.712     8751.909    14155.814     2884.937        2.755        1.290      170.365       44.084        0.067      333.202        2.361      855.349
12/15/2021  22:22:00     -226.092      -52.296      -15.512      101.580       87.648       55.547    10318.548     7682.226     3085.490        3.759        1.054      232.062       54.855        0.056      333.223        2.393      855.337
12/15/2021  22:23:00     -242.967      -61.737      -33.522       77.156       79.811       50.050     5953.055     6369.874     2504.987        3.940        0.741      250.688       54.294        0.047      333.232        2.408      855.384
12/15/2021  22:24:00     -160.960      -23.567        2.643      107.809       60.413       50.771    11622.857     3649.774     2577.663        2.216        0.893      162.676       55.293        0.116      333.259        2.455      855.480
12/15/2021  22:25:00     -110.685       -0.245       -6.480       61.004       43.941       34.724     3721.525     1930.772     1205.772        0.957        0.343      110.685       31.787        0.082      333.232        2.413      855.501
12/15/2021  22:26:00      -51.524      -46.660      -18.405       37.621       26.323       23.218     1415.337      692.899      539.064        0.391        0.132       69.512       17.508        0.063      333.241        2.427      855.497
12/15/2021  22:27:00       52.787      -25.964      -31.916       31.784       62.554       32.405     1010.234     3913.058     1050.084        0.523        0.299       58.827       23.116        0.154      333.251        2.444      855.483
12/15/2021  22:28:00       36.398       -8.362      -20.106       33.175       49.835       32.529     1100.561     2483.491     1058.150        0.322        0.232       37.346       17.647        0.223      333.227        2.403      855.472
12/15/2021  22:29:00      -11.497      -18.190      -30.116       54.701       50.822       31.195     2992.227     2582.898      973.128        0.396        0.327       21.519       29.559        1.887      333.318        2.554      855.466
12/15/2021  22:30:00      -11.653      -15.567      -10.735       24.472       22.645       26.131      598.884      512.774      682.807        0.114        0.090       19.445       12.672        0.425      333.288        2.507      855.573
12/15/2021  22:31:00      -52.150      -49.290       -9.860       30.978       37.402       31.208      959.635     1398.922      973.962        0.429        0.167       71.757       22.837        0.101      333.353        2.614      855.709
12/15/2021  22:32:00       -9.970      -33.161      -28.920       29.297       46.913       25.078      858.321     2200.865      628.908        0.286        0.184       34.627       17.716        0.262      333.319        2.557      855.744
12/15/2021  22:33:00        8.170       -2.180       -5.766       19.092       28.107       23.890      364.516      790.022      570.730        0.091        0.086        8.456        9.366        1.227      333.249        2.442      855.588
12/15/2021  22:34:00       20.989        9.117       -9.979       29.408       41.192       26.087      864.822     1696.751      680.507        0.193        0.162       22.884       13.783        0.363      333.189        2.341      855.457
12/15/2021  22:35:00       18.829      -78.528      -12.934       63.787       65.403       30.902     4068.769     4277.541      954.903        0.799        0.465       80.753       22.540        0.078      333.201        2.361      855.479
12/15/2021  22:36:00       34.767      -80.206       -2.968       29.349       32.690       28.156      861.342     1068.612      792.733        0.519        0.136       87.417       21.017        0.058      333.177        2.322      855.505
12/15/2021  22:37:00       26.788      -28.308      -11.648       17.973       16.969       12.959      323.043      287.957      167.948        0.122        0.039       38.973        3.546        0.008      333.218        2.389      855.503
12/15/2021  22:38:00       -2.001      -44.900      -11.255       20.441       24.384       16.067      417.845      594.578      258.147        0.171        0.064       44.945       11.568        0.066      333.203        2.365      855.513
12/15/2021  22:39:00       48.619       33.559      -10.418       23.682       15.448       11.793      560.843      238.638      139.067        0.227        0.047       59.076        8.175        0.019      333.091        2.181      855.475
12/15/2021  22:40:00      -22.445       10.822       -5.141       25.542       18.215       19.477      652.384      331.776      379.343        0.101        0.068       24.917       17.376        0.486      333.072        2.147      855.527
12/15/2021  22:41:00       -1.011      -24.661       -0.885       32.548       31.750       22.579     1059.358     1008.086      509.803        0.159        0.129       24.681       14.497        0.345      333.168        2.306      855.642
12/15/2021  22:42:00        5.297       12.447      -14.765       19.077       17.995       14.685      363.945      323.826      215.654        0.065        0.045       13.527        8.643        0.408      333.085        2.171      855.616
12/15/2021  22:43:00       28.017        8.394      -20.773       45.577       37.582       27.446     2077.262     1412.424      753.306        0.276        0.212       29.248       23.665        0.655      333.046        2.106      855.488
12/15/2021  22:44:00       36.164       15.445       -4.395       43.757       22.178       17.143     1914.662      491.855      293.898        0.213        0.135       39.324       11.126        0.080      332.957        1.957      855.513
12/15/2021  22:45:00      -10.211       31.153       -7.563       43.220       40.920       16.878     1867.974     1674.420      284.867        0.248        0.191       32.784       15.711        0.230      332.896        1.858      855.640
12/15/2021  22:46:00      -45.722       46.922      -15.697       37.760       46.530       28.429     1425.784     2165.058      808.213        0.447        0.220       65.515        9.614        0.022      332.841        1.768      855.710
12/15/2021  22:47:00       71.268       75.421      -17.764       55.466       30.977       23.979     3076.519      959.544      574.975        0.785        0.231      103.766       19.263        0.034      332.818        1.728      855.659
12/15/2021  22:48:00       96.497       19.165      -20.913       69.646       60.794       19.372     4850.526     3695.896      375.279        0.952        0.446       98.381       15.885        0.026      332.773        1.653      855.509
12/15/2021  22:49:00       39.586       -9.567       -7.772       43.625       39.324       24.718     1903.144     1546.361      610.977        0.289        0.203       40.725       18.961        0.217      332.742        1.602      855.516
12/15/2021  22:50:00       53.471      -80.740      -19.791       22.134       23.022       13.876      489.904      530.022      192.544        0.549        0.061       96.840        9.646        0.010      332.647        1.446      855.682
12/15/2021  22:51:00       56.685      -72.850      -14.394       47.286       56.284       34.645     2236.002     3167.854     1200.301        0.766        0.330       92.306       27.870        0.091      332.802        1.701      855.798
12/15/2021  22:52:00       38.035      -48.468      -35.398       55.900       65.629       54.171     3124.803     4307.144     2934.548        0.771        0.518       61.610       39.253        0.406      332.834        1.755      855.759
12/15/2021  22:53:00       80.980      -69.903      -60.908       49.225       83.436       45.035     2423.076     6961.621     2028.191        1.328        0.571      106.978       28.588        0.071      332.802        1.701      855.592
12/15/2021  22:54:00      101.836      -75.265      -22.343       62.776       48.844       34.403     3940.860     2385.783     1183.562        1.202        0.376      126.631       14.263        0.013      332.795        1.691      855.587
12/15/2021  22:55:00       84.074      -51.911      -11.726       44.963       46.175       30.491     2021.638     2132.094      929.685        0.749        0.254       98.809       15.710        0.025      332.685        1.509      855.624
12/15/2021  22:56:00       58.764      -17.589       -9.946       46.612       33.732       21.107     2172.690     1137.852      445.500        0.381        0.188       61.340       10.736        0.031      332.639        1.432      855.640
12/15/2021  22:57:00       32.487      -23.372      -13.478       36.929       41.807       31.465     1363.776     1747.826      990.029        0.294        0.205       40.021       23.853        0.355      332.715        1.558      855.610
12/15/2021  22:58:00       61.476      -12.841       -0.679       64.032       38.994       45.905     4100.120     1520.533     2107.254        0.583        0.386       62.803       36.778        0.343      332.660        1.467      855.544
12/15/2021  22:59:00       66.672       -7.312        1.165       46.490       29.649       32.093     2161.295      879.066     1029.989        0.428        0.204       67.072       26.871        0.160      332.577        1.330      855.536
12/15/2021  23:00:00      136.329       14.548      -12.930       49.428       32.016       17.416     2443.135     1025.056      303.325        1.137        0.189      137.103        7.803        0.003      332.519        1.234      855.540
12/15/2021  23:01:00       46.955        8.553        5.997       53.779       41.232       26.109     2892.158     1700.110      681.692        0.379        0.264       47.728       22.872        0.230      332.550        1.287      855.493
12/15/2021  23:02:00       85.829       -4.571      -12.256       42.520       33.574       20.463     1807.982     1127.199      418.743        0.545        0.168       85.951        9.765        0.013      332.544        1.276      855.607
12/15/2021  23:03:00       63.425      -10.818       -8.373       52.097       34.379       26.251     2714.055     1181.927      689.110        0.440        0.229       64.341       23.630        0.135      332.583        1.340      855.629
12/15/2021  23:04:00       74.133       19.886      -22.019       54.136       51.903       50.334     2930.713     2693.971     2533.479        0.727        0.408       76.754       36.221        0.223      332.695        1.525      855.636
12/15/2021  23:05:00      108.040      -12.411      -18.822       72.968       61.643       58.538     5324.281     3799.867     3426.699        1.236        0.628      108.750       45.349        0.174      332.671        1.483      855.620
12/15/2021  23:06:00       65.868      -25.059       -1.305       80.316       60.515       57.328     6450.711     3662.091     3286.493        0.918        0.670       70.473       46.172        0.429      332.641        1.437      855.589
12/15/2021  23:07:00       68.876      -18.301        2.257       85.477       55.124       64.311     7306.346     3038.709     4135.955        0.978        0.724       71.266       54.751        0.590      332.638        1.431      855.599
12/15/2021  23:08:00      131.797       -3.106       -4.220       68.980       51.488       40.732     4758.280     2651.020     1659.109        1.323        0.453      131.834       36.408        0.076      332.617        1.397      855.612
12/15/2021  23:09:00      158.574       -2.667       -5.907       79.966       52.070       44.006     6394.540     2711.260     1936.541        1.811        0.552      158.596       38.481        0.059      332.657        1.461      855.618
12/15/2021  23:10:00      167.119      -11.889        5.454       51.309       47.372       36.690     2632.637     2244.110     1346.127        1.716        0.311      167.542       26.291        0.025      332.631        1.417      855.608
12/15/2021  23:11:00       70.819        7.211       -2.249       59.313       44.798       42.405     3518.059     2006.840     1798.155        0.620        0.366       71.185       33.096        0.216      332.664        1.474      855.638
12/15/2021  23:12:00       83.059      -38.056      -12.281       39.241       42.178       29.455     1539.890     1779.010      867.594        0.634        0.209       91.362       22.932        0.063      332.653        1.457      855.682
12/15/2021  23:13:00       47.676       -0.321       -9.880       31.560       31.170       16.968      996.040      971.579      287.909        0.231        0.113       47.677        9.837        0.043      332.651        1.451      855.716
12/15/2021  23:14:00       57.207       50.675      -16.541       27.894       23.425       17.954      778.102      548.709      322.344        0.388        0.082       76.423        9.066        0.014      332.644        1.440      855.736
12/15/2021  23:15:00      104.203       70.026      -23.952       30.072       30.029       16.730      904.324      901.761      279.884        0.921        0.104      125.546        9.738        0.006      332.657        1.462      855.719
12/15/2021  23:16:00      107.281       40.483       -8.995       32.968       35.298       23.415     1086.906     1245.935      548.259        0.805        0.144      114.665       19.293        0.028      332.706        1.542      855.676
12/15/2021  23:17:00      145.507       23.481      -15.883       61.380       39.956       25.297     3767.483     1596.521      639.930        1.399        0.300      147.389       26.005        0.031      332.670        1.484      855.603
12/15/2021  23:18:00      106.500       32.256      -11.781       47.320       27.582       20.021     2239.154      760.744      400.839        0.796        0.170      111.278       17.252        0.024      332.611        1.385      855.632
12/15/2021  23:19:00       32.343       50.748       -7.752       29.970       24.650       14.304      898.210      607.600      204.611        0.270        0.086       60.178       12.330        0.042      332.659        1.465      855.751
12/15/2021  23:20:00       59.637       41.715      -12.288       27.164       16.724       15.384      737.866      279.693      236.658        0.335        0.063       72.779       10.877        0.022      332.680        1.499      855.754
12/15/2021  23:21:00       73.408        7.792       -9.687       23.365       29.846       15.331      545.920      890.813      235.033        0.361        0.084       73.820        8.309        0.013      332.731        1.585      855.715
12/15/2021  23:22:00       44.752       -3.093      -11.680       47.433       39.163       25.942     2249.843     1533.737      673.011        0.330        0.223       44.859       16.067        0.128      332.658        1.465      855.674
12/15/2021  23:23:00      114.486       19.355       -8.223       77.209       28.151       22.972     5961.241      792.480      527.720        1.041        0.364      116.111       20.268        0.030      332.632        1.421      855.610
12/15/2021  23:24:00      134.772       12.603       -3.952       60.170       50.284       38.566     3620.462     2528.432     1487.311        1.299        0.382      135.360       31.873        0.055      332.596        1.361      855.500
12/15/2021  23:25:00       10.696       35.241      -14.725       40.817       23.624       22.241     1666.006      558.081      494.675        0.215        0.136       36.828       18.849        0.262      332.591        1.353      855.681
12/15/2021  23:26:00      -26.555       39.849       -4.866       40.947       26.047       17.223     1676.684      678.466      296.619        0.248        0.133       47.886       16.144        0.114      332.642        1.438      855.824
12/15/2021  23:27:00       32.099       42.516       -8.055       35.466       27.364       16.097     1257.831      748.792      259.123        0.258        0.113       53.273       15.513        0.085      332.677        1.496      855.765
12/15/2021  23:28:00       29.551       -5.333      -11.533       30.106       34.571       13.708      906.367     1195.123      187.912        0.166        0.114       30.029       14.441        0.231      332.680        1.503      855.793
12/15/2021  23:29:00       34.547      -47.038      -23.735       20.103       32.612       12.267      404.138     1063.542      150.480        0.279        0.081       58.362       10.442        0.032      332.760        1.633      855.876
12/15/2021  23:30:00       48.380        1.214      -21.505       30.549       31.126       20.805      933.259      968.810      432.857        0.257        0.117       48.395       13.613        0.079      332.729        1.580      855.824
12/15/2021  23:31:00       87.934        5.542       -3.531       37.776       28.332       21.931     1427.056      802.679      480.965        0.524        0.136       88.108       17.983        0.042      332.690        1.516      855.720
12/15/2021  23:32:00       61.577       24.405      -11.442       34.717       24.254       20.792     1205.295      588.260      432.306        0.337        0.111       66.237        9.694        0.021      332.680        1.500      855.665
12/15/2021  23:33:00       71.906       62.228      -12.492       35.355       22.081       20.455     1249.998      487.554      418.388        0.568        0.108       95.093       21.066        0.049      332.771        1.651      855.655
12/15/2021  23:34:00       46.579       45.520       -0.905       33.942       22.696       19.991     1152.041      515.094      399.647        0.315        0.103       65.129       16.116        0.061      332.309        0.890      855.609
12/15/2021  23:35:00       12.236       36.497       -6.899       22.872       16.171       11.270      523.122      261.488      127.008        0.122        0.046       38.494        8.476        0.048      332.860        1.799      855.674
12/15/2021  23:36:00        1.447       60.080        2.523       51.507       27.690       28.687     2653.020      766.735      822.968        0.393        0.212       60.097       29.414        0.240      332.787        1.677      855.686
12/15/2021  23:37:00      -12.528       64.963       24.899       72.103       40.949       41.455     5198.912     1676.826     1718.519        0.679        0.430       66.160       48.239        0.532      332.616        1.393      855.613
12/15/2021  23:38:00       40.116       91.610       16.687       81.973       31.812       43.051     6719.561     1012.017     1853.351        0.993        0.479      100.008       53.571        0.287      332.575        1.326      855.616
12/15/2021  23:39:00       64.796       55.479       23.643       76.999       31.101       43.519     5928.779      967.295     1893.941        0.831        0.440       85.302       51.837        0.369      332.581        1.336      855.604
12/15/2021  23:40:00       44.670       73.140       33.002      100.967       33.648       44.081    10194.360     1132.198     1943.142        1.085        0.663       85.702       55.659        0.422      332.469        1.150      855.587
12/15/2021  23:41:00       54.747       27.809       25.158       85.600       40.203       45.811     7327.330     1616.312     2098.658        0.772        0.552       61.405       57.436        0.875      332.489        1.183      855.539
12/15/2021  23:42:00       17.744        1.626       23.783       74.298       36.598       40.377     5520.121     1339.379     1630.281        0.468        0.424       17.818       49.788        7.808      332.505        1.213      855.651
12/15/2021  23:43:00       31.437      -40.348       -7.233       59.792       41.169       38.208     3575.029     1694.896     1459.829        0.470        0.336       51.149       41.331        0.653      332.610        1.385      855.743
12/15/2021  23:44:00       -2.081      -50.161       -1.442       72.802       44.555       37.804     5300.171     1985.165     1429.143        0.562        0.436       50.205       45.049        0.805      332.673        1.488      855.819
12/15/2021  23:45:00      -22.723      -22.275        7.815       59.729       36.660       30.146     3567.542     1343.937      908.790        0.345        0.291       31.820       39.000        1.502      332.888        1.845      855.936
12/15/2021  23:46:00       30.330       29.729       11.992       93.952       41.892       54.969     8826.989     1754.933     3021.592        0.777        0.680       42.470       63.192        2.214      332.754        1.623      855.753
12/15/2021  23:47:00      169.723       21.299        7.109      111.456       47.446       58.195    12422.463     2251.123     3386.601        2.368        0.903      171.054       52.304        0.093      332.768        1.642      855.595
12/15/2021  23:48:00      216.155       50.481       29.013      117.405       78.881       60.397    13783.898     6222.176     3647.794        3.688        1.183      221.971       66.763        0.090      332.589        1.346      855.582
12/15/2021  23:49:00       75.206       12.701       27.346      143.748       73.915       79.669    20663.498     5463.387     6347.191        1.951        1.624       76.271       81.445        1.140      331.846        0.127      855.546
12/15/2021  23:50:00      135.090      -15.585       -4.849      103.140      104.912       52.061    10637.772    11006.562     2710.335        2.143        1.218      135.986       56.757        0.174      331.575       -0.322      855.551
12/15/2021  23:51:00       97.818      -49.514      -12.052       86.153       76.638       55.637     7422.385     5873.458     3095.461        1.428        0.820      109.635       36.722        0.112      331.568       -0.333      855.583
12/15/2021  23:52:00      102.972      -78.243      -17.078       62.529       63.635       36.000     3909.916     4049.428     1295.997        1.313        0.463      129.326       28.258        0.048      331.708       -0.101      855.691
12/15/2021  23:53:00       54.593      -94.418      -25.332       74.688       56.298       35.000     5578.346     3169.518     1224.965        1.125        0.499      109.065       26.132        0.057      331.745       -0.042      855.785
12/15/2021  23:54:00       93.388        6.682      -19.342       33.706       43.297       20.616     1136.125     1874.626      425.036        0.629        0.172       93.627       13.208        0.020      331.699       -0.119      855.824
12/15/2021  23:55:00       51.517       20.809       -2.141       55.263       37.017       23.399     3053.981     1370.225      547.500        0.403        0.249       55.561       27.854        0.251      331.697       -0.119      855.843
12/15/2021  23:56:00       88.778       78.302      -18.699       43.745       36.432       22.017     1913.585     1327.325      484.738        0.904        0.186      118.375       21.510        0.033      331.777        0.011      855.784
12/15/2021  23:57:00      132.118       95.101      -18.454       59.581       36.536       26.760     3549.893     1334.911      716.087        1.622        0.280      162.786       20.922        0.017      331.775        0.005      855.694
12/15/2021  23:58:00       97.941       91.448       -8.256       65.169       52.820       46.900     4247.039     2789.991     2199.649        1.363        0.462      133.997       30.801        0.053      331.668       -0.171      855.737
12/15/2021  23:59:00       49.657      139.926       -9.696       35.188       48.610       30.902     1238.192     2362.936      954.909        1.335        0.228      148.476       21.851        0.022      331.769       -0.004      855.808
12/16/2021  00:00:00       22.465       72.006      -10.791       26.706       47.244       22.269      713.212     2232.023      495.899        0.462        0.172       75.429       18.358        0.059      331.749       -0.032      855.869
12/16/2021  00:01:00      -44.303       27.942       -8.937       47.161       32.926       22.242     2224.181     1084.096      494.691        0.331        0.190       52.379       18.283        0.122      331.619       -0.248      855.953
12/16/2021  00:02:00       38.419       53.106       -9.320       36.821       22.567       24.120     1355.812      509.288      581.759        0.341        0.122       65.546       20.171        0.095      331.698       -0.118      855.910
12/16/2021  00:03:00       81.887       62.643      -17.567       24.839       23.252       21.131      616.962      540.641      446.532        0.627        0.080      103.101        8.506        0.007      331.685       -0.139      855.847
12/16/2021  00:04:00        7.392       24.673        0.073       36.845       18.481       18.108     1357.573      341.562      327.890        0.134        0.101       25.757       13.860        0.290      331.692       -0.127      855.939
12/16/2021  00:05:00      -59.562       40.964      -17.847       52.418       26.431       22.987     2747.610      698.575      528.420        0.476        0.199       72.289       20.922        0.084      331.973        0.334      856.063
12/16/2021  00:06:00      -25.796      101.922        9.924       72.727       41.491       34.216     5289.147     1721.497     1170.714        0.967        0.409      105.135       42.908        0.167      332.919        1.896      856.003
12/16/2021  00:07:00       75.016      112.477      -17.631       83.784       33.262       43.355     7019.732     1106.343     1879.667        1.430        0.500      135.198       52.582        0.151      333.039        2.092      855.907
12/16/2021  00:08:00      127.271       28.309      -25.156      124.323       42.771       59.201    15456.147     1829.335     3504.789        1.921        1.040      130.382       77.749        0.356      332.884        1.835      855.912
12/16/2021  00:09:00      189.685       15.447      -32.972      151.503       35.453       64.346    22953.094     1256.915     4140.425        3.282        1.418      190.313       92.346        0.235      332.766        1.641      855.903
12/16/2021  00:10:00      -34.771       -8.850       42.915      152.794       56.958       71.591    23346.098     3244.262     5125.326        1.742        1.586       35.880       93.130        6.737      332.436        1.098      855.828
12/16/2021  00:11:00       76.312       -8.721       14.973      132.562       61.557       73.447    17572.776     3789.239     5394.439        1.644        1.338       76.809       92.808        1.460      332.479        1.164      855.776
12/16/2021  00:12:00      155.983       22.002      -15.237      106.741       58.015       28.041    11393.647     3365.714      786.296        2.029        0.777      157.527       46.311        0.086      332.554        1.294      855.722
12/16/2021  00:13:00       72.818        5.072      -10.661       68.286       38.238       28.351     4663.003     1462.148      803.777        0.618        0.346       72.995       30.611        0.176      332.891        1.848      855.724
12/16/2021  00:14:00      168.932       34.862      -21.183       59.047       39.700       30.943     3486.590     1576.063      957.464        1.811        0.301      172.492       24.512        0.020      332.832        1.751      855.672
12/16/2021  00:15:00      133.278       50.484      -13.171       75.363       27.982       40.204     5679.646      783.003     1616.338        1.428        0.404      142.519       49.221        0.119      332.806        1.709      855.555
12/16/2021  00:16:00      169.108       55.337      -13.799      100.086       46.877       52.407    10017.258     2197.432     2746.480        2.340        0.748      177.932       61.887        0.121      332.777        1.658      855.475
12/16/2021  00:17:00      -14.834      -84.464       17.151      158.427       43.178       71.045    25099.151     1864.373     5047.379        1.982        1.601       85.757      101.202        1.393      332.758        1.625      855.582
12/16/2021  00:18:00      -26.390     -141.974        7.860       83.284       51.308       25.813     6936.216     2632.472      666.304        1.557        0.512      144.406       44.018        0.093      332.145        0.616      855.665
12/16/2021  00:19:00      -41.456     -117.998      -11.675      133.217       37.654       30.363    17746.803     1417.801      921.939        1.793        1.004      125.069       59.934        0.230      332.428        1.089      855.685
12/16/2021  00:20:00     -127.780      -17.074       44.322      155.982       42.010       64.373    24330.397     1764.858     4143.909        2.441        1.512      128.916       94.348        0.536      332.640        1.437      855.648
12/16/2021  00:21:00      136.818      -16.810      -41.845      111.721       59.130       72.319    12481.489     3496.401     5230.039        2.098        1.060      137.847       87.050        0.399      332.656        1.454      855.573
12/16/2021  00:22:00       64.541      -73.124       29.341       82.417       22.836       35.898     6792.544      521.473     1288.686        0.949        0.430       97.533       54.903        0.317      332.102        0.556      855.547
12/16/2021  00:23:00      -73.904      -44.320       74.135      114.575       29.646       69.702    13127.462      878.880     4858.377        1.589        0.943       86.175       89.213        1.072      332.450        1.115      855.585
12/16/2021  00:24:00      138.612      -52.305      -29.854      117.792       79.351       71.619    13875.042     6296.614     5129.326        2.407        1.265      148.153       88.801        0.359      331.984        0.349      855.666
12/16/2021  00:25:00      -90.882      -69.265       -7.165      201.035       57.624       99.712    40415.230     3320.514     9942.415        3.338        2.684      114.268      136.225        1.421      332.247        0.790      855.636
12/16/2021  00:26:00      -92.674      -53.565        9.157      155.910      117.831       59.265    24307.891    13884.142     3512.338        2.662        2.085      107.041       91.558        0.732      332.243        0.780      855.702
12/16/2021  00:27:00     -118.103      -87.072        6.334      130.549       83.798       55.932    17043.091     7022.097     3128.337        2.438        1.360      146.730       62.968        0.184      332.379        0.999      855.647
12/16/2021  00:28:00     -221.117      -91.860       48.437      107.543       62.329       49.957    11565.586     3884.883     2495.696        3.881        0.897      239.439       50.354        0.044      332.939        1.930      855.729
12/16/2021  00:29:00     -254.069      -44.101       73.783       98.622       51.810       26.802     9726.232     2684.295      718.333        4.253        0.656      257.868       49.084        0.036      333.196        2.355      855.748
12/16/2021  00:30:00      145.517      -89.681      -86.900      116.660       78.725       59.725    13609.502     6197.693     3567.081        3.007        1.169      170.932       71.237        0.174      332.630        1.418      855.661
12/16/2021  00:31:00      188.435     -151.057      -97.740      275.116      152.784      131.324    75688.581    23343.052    17245.995        9.206        5.814      241.508      202.820        0.705      333.329        2.570      855.636
12/16/2021  00:32:00     -220.304       -4.139      100.043       20.901       29.901       26.005      436.837      894.057      676.247        3.028        0.100      220.343       19.689        0.008      333.011        2.049      855.700
12/16/2021  00:33:00     -209.819      -96.905       55.450       77.136       54.800       42.518     5950.024     3003.093     1807.756        3.362        0.538      231.116       46.869        0.041      333.115        2.214      855.731
12/16/2021  00:34:00     -324.347      -57.797       56.481       92.336       81.640       34.743     8526.018     6665.112     1207.063        6.406        0.820      329.456       39.264        0.014      333.216        2.386      855.772
12/16/2021  00:35:00     -176.177       45.296       54.080       97.495       19.946       40.656     9505.270      397.826     1652.915        2.378        0.578      181.906       56.626        0.097      332.897        1.855      855.771
12/16/2021  00:36:00      -61.970       30.793       36.913      118.120       29.940       44.365    13952.393      896.374     1968.215        1.148        0.841       69.199       71.470        1.067      332.675        1.496      855.706
12/16/2021  00:37:00      112.597       12.137      -11.370       57.767       54.363       31.535     3337.066     2955.339      994.470        1.012        0.364      113.250       26.893        0.056      333.325        2.567      855.644
12/16/2021  00:38:00      149.573        9.994      -14.480       38.974       37.426       22.714     1519.002     1400.706      515.912        1.306        0.172      149.906       12.034        0.006      333.291        2.509      855.611
12/16/2021  00:39:00      133.263       82.125      -21.884       54.954       51.234       28.030     3019.962     2624.919      785.660        1.571        0.322      156.536        9.354        0.004      333.223        2.397      855.577
12/16/2021  00:40:00       70.016      125.189      -14.444       40.025       42.343       30.397     1601.989     1792.929      923.952        1.255        0.216      143.438       13.524        0.009      333.308        2.538      855.625
12/16/2021  00:41:00       58.843      138.887      -18.873       49.469       44.170       30.284     2447.194     1951.022      917.106        1.421        0.266      150.837       26.785        0.032      333.343        2.595      855.655
12/16/2021  00:42:00       95.888      106.305      -19.807       48.563       43.992       36.965     2358.383     1935.317     1366.381        1.327        0.283      143.161       33.780        0.056      333.285        2.500      855.627
12/16/2021  00:43:00       82.937       71.475      -12.916       48.848       35.859       22.809     2386.106     1285.877      520.232        0.817        0.210      109.486       16.434        0.023      333.223        2.397      855.658
12/16/2021  00:44:00      110.733       62.658      -20.966       50.568       35.110       18.016     2557.142     1232.700      324.591        1.037        0.206      127.231       12.172        0.009      333.222        2.395      855.656
12/16/2021  00:45:00       57.380        6.422      -13.187       39.691       34.749       22.332     1575.369     1207.507      498.699        0.339        0.164       57.738       14.635        0.064      333.197        2.354      855.657
12/16/2021  00:46:00       52.954      -74.367      -31.323       19.165       23.406       14.838      367.305      547.846      220.158        0.523        0.057       91.294        7.710        0.007      333.114        2.218      855.653
12/16/2021  00:47:00       41.159      -68.586      -22.621       22.940       32.703       13.237      526.256     1069.481      175.218        0.434        0.089       79.988       14.719        0.034      333.133        2.250      855.645
12/16/2021  00:48:00        5.149        5.677      -13.191        7.104       21.291       12.308       50.473      453.314      151.475        0.044        0.033        7.664       13.588        3.144      333.134        2.253      855.667
12/16/2021  00:49:00       32.986       29.845       -2.243       12.980       13.649        8.330      168.479      186.305       69.386        0.120        0.021       44.484        6.559        0.022      333.161        2.295      855.663
12/16/2021  00:50:00       -0.159       19.929       -6.775       13.363       13.739        8.354      178.562      188.760       69.783        0.044        0.022       19.930        5.627        0.080      333.147        2.271      855.721
12/16/2021  00:51:00      -26.331       -6.613       -8.616       20.028       18.390       16.582      401.123      338.179      274.968        0.091        0.051       27.148        4.756        0.031      333.304        2.532      855.809
12/16/2021  00:52:00      -15.438       -7.441        2.607       24.363       14.672       13.036      593.570      215.277      169.925        0.064        0.049       17.137       10.363        0.366      333.266        2.471      855.831
12/16/2021  00:53:00      -15.703       28.944       -4.977       27.265       20.723       12.893      743.403      429.445      166.218        0.122        0.067       32.930       10.901        0.110      333.252        2.444      855.762
12/16/2021  00:54:00      -15.920       35.223       -5.610       20.113       35.155       15.553      404.528     1235.891      241.899        0.170        0.094       38.654        9.416        0.059      333.295        2.517      855.716
12/16/2021  00:55:00       -1.807       35.651       -8.203       19.018       21.365       13.068      361.685      456.463      170.774        0.117        0.049       35.696        9.274        0.067      333.314        2.550      855.684
12/16/2021  00:56:00        7.703       73.157       -5.448       19.879       19.552       11.113      395.175      382.274      123.503        0.317        0.045       73.562        5.487        0.006      333.456        2.782      855.686
12/16/2021  00:57:00      -25.960       79.694      -13.316       29.871       37.718       22.479      892.271     1422.675      505.306        0.501        0.141       83.815       12.465        0.022      333.337        2.587      855.722
12/16/2021  00:58:00       16.673       29.496       -6.327       16.790       36.523       16.274      281.893     1333.922      264.832        0.153        0.094       33.882       14.138        0.174      333.321        2.561      855.738
12/16/2021  00:59:00        1.390       29.062        0.295       31.780       25.508       18.151     1009.998      650.637      329.467        0.142        0.100       29.095       19.011        0.427      333.270        2.474      855.685
12/16/2021  01:00:00       13.970       44.265       -5.540       39.536       24.053       19.621     1563.089      578.523      384.987        0.236        0.126       46.418       17.435        0.141      333.291        2.511      855.663
12/16/2021  01:01:00      -12.876       31.123       -2.462       61.592       14.681       30.408     3793.622      215.525      924.652        0.304        0.247       33.682       41.786        1.539      333.177        2.320      855.620
12/16/2021  01:02:00     -106.192       19.490       25.407       95.746       28.607       42.826     9167.301      818.342     1834.076        1.206        0.591      107.965       61.734        0.327      333.141        2.261      855.565
12/16/2021  01:03:00     -211.542       -7.999       40.442      121.909       26.449       44.423    14861.782      699.529     1973.411        3.199        0.877      211.693       58.774        0.077      333.176        2.315      855.534
12/16/2021  01:04:00     -214.834      -25.364       37.472      148.231       54.095       57.448    21972.363     2926.266     3300.265        3.819        1.410      216.326       68.504        0.100      333.102        2.195      855.550
12/16/2021  01:05:00     -162.144      -82.613       19.887      130.884       57.944       47.195    17130.725     3357.550     2227.403        2.811        1.136      181.977       61.771        0.115      333.338        2.588      855.521
12/16/2021  01:06:00     -114.644      -95.383       14.536      134.337       31.852       44.045    18046.320     1014.570     1939.977        2.172        1.050      149.135       68.151        0.209      333.454        2.778      855.488
12/16/2021  01:07:00       16.616      -72.038      -17.541       71.879       58.906       35.332     5166.523     3469.928     1248.367        0.783        0.494       73.930       47.664        0.416      333.461        2.791      855.465
12/16/2021  01:08:00      -14.229       28.426       21.047       55.299       22.192       32.667     3057.927      492.464     1067.114        0.303        0.231       31.789       39.258        1.525      333.396        2.685      855.454
12/16/2021  01:09:00      -31.883       -8.625        7.595       54.893       21.913       30.813     3013.191      480.195      949.450        0.279        0.222       33.029       38.132        1.333      333.423        2.726      855.443
12/16/2021  01:10:00      -96.949       11.097       24.435       83.364       19.170       39.333     6949.568      367.474     1547.093        0.949        0.443       97.582       51.975        0.284      333.426        2.732      855.430
12/16/2021  01:11:00     -148.113       -3.453       36.220      115.845       35.645       44.145    13420.091     1270.545     1948.750        1.995        0.832      148.153       66.020        0.199      333.308        2.536      855.434
12/16/2021  01:12:00     -131.909       31.433       20.244       99.674       24.577       44.308     9934.921      604.052     1963.236        1.565        0.625      135.603       61.306        0.204      333.276        2.485      855.477
12/16/2021  01:13:00      -32.182        2.123        1.770       69.570       20.002       31.384     4840.046      400.067      984.951        0.363        0.311       32.252       36.936        1.311      333.429        2.737      855.472
12/16/2021  01:14:00     -167.073       11.875       24.865      100.371       16.139       48.752    10074.356      260.479     2376.742        2.069        0.636      167.495       63.784        0.145      333.366        2.633      855.437
12/16/2021  01:15:00     -234.277       17.809       37.746      115.814       40.746       53.648    13412.915     1660.201     2878.069        3.729        0.898      234.953       70.709        0.091      333.225        2.399      855.463
12/16/2021  01:16:00      -50.954       37.305       13.768       52.784       24.579       30.816     2786.140      604.115      949.626        0.426        0.217       63.150       33.853        0.287      333.445        2.765      855.495
12/16/2021  01:17:00       21.809       36.648        0.342       45.522        7.480       25.281     2072.272       55.943      639.123        0.229        0.138       42.646       31.804        0.556      333.395        2.681      855.474
12/16/2021  01:18:00       50.085       19.396       -2.573       33.257        7.293       19.448     1106.059       53.182      378.241        0.221        0.077       53.710       23.722        0.195      333.289        2.509      855.476
12/16/2021  01:19:00       38.017      -11.020       -8.115       26.338       15.650       16.489      693.714      244.918      271.898        0.142        0.061       39.582       18.618        0.221      333.372        2.644      855.432
12/16/2021  01:20:00       44.139        9.838      -11.445       41.007       28.005       24.332     1681.552      784.272      592.063        0.262        0.153       45.222       24.781        0.300      333.285        2.502      855.396
12/16/2021  01:21:00      -15.467       15.452       -1.205       42.775       35.426       25.544     1829.710     1254.995      652.497        0.211        0.187       21.863       27.573        1.591      333.286        2.502      855.420
12/16/2021  01:22:00       23.802       42.579       -8.036       43.632       24.913       24.663     1903.786      620.670      608.260        0.279        0.157       48.780       22.367        0.210      333.301        2.527      855.460
12/16/2021  01:23:00      -11.610       -9.828       -5.842       40.881       13.011       24.909     1671.254      169.281      620.479        0.136        0.123       15.211       27.785        3.337      333.194        2.350      855.454
12/16/2021  01:24:00       49.799      -10.743       -6.325       45.282       37.284       29.422     2050.466     1390.091      865.638        0.347        0.215       50.945       23.559        0.214      333.169        2.307      855.399
12/16/2021  01:25:00       58.102        2.189       -5.099       61.876       48.461       40.311     3828.671     2348.514     1624.936        0.560        0.390       58.143       29.034        0.249      333.026        2.073      855.349
12/16/2021  01:26:00      160.759       16.162       -1.374       79.554       35.726       32.607     6328.786     1276.354     1063.212        1.739        0.433      161.570       38.279        0.056      333.111        2.211      855.298
12/16/2021  01:27:00      149.322       46.042       -7.326       41.060       35.812       26.874     1685.958     1282.510      722.217        1.408        0.185      156.259       17.917        0.013      333.066        2.138      855.349
12/16/2021  01:28:00      119.934       58.433      -15.117       37.615       27.089       20.589     1414.851      733.813      423.886        1.030        0.129      133.411       16.449        0.015      333.215        2.385      855.426
12/16/2021  01:29:00      159.652       40.424      -23.029       41.555       26.103       23.088     1726.815      681.386      533.038        1.530        0.147      164.690       10.110        0.004      333.432        2.744      855.357
12/16/2021  01:30:00      174.292       46.774      -19.460       39.955       41.926       22.092     1596.416     1757.755      488.072        1.839        0.192      180.460       12.444        0.005      333.445        2.764      855.247
12/16/2021  01:31:00      198.649       64.485       -9.564       92.333       69.133       40.619     8525.426     4779.384     1649.910        2.933        0.748      208.853       45.476        0.047      333.274        2.479      855.152
12/16/2021  01:32:00      211.258       72.522      -21.596       65.825       53.368       34.670     4332.951     2848.183     1202.041        2.937        0.419      223.359       25.392        0.013      333.055        2.116      855.059
12/16/2021  01:33:00      206.530       35.291      -22.031       81.516       63.316       39.400     6644.857     4008.892     1552.372        2.829        0.610      209.523       29.661        0.020      333.039        2.091      855.061
12/16/2021  01:34:00        5.290       23.292        9.061       56.192       51.241       29.476     3157.564     2625.605      868.816        0.365        0.333       23.885       23.567        0.974      333.135        2.252      855.138
12/16/2021  01:35:00       67.162       25.454      -31.810       37.330       48.851       29.825     1393.505     2386.436      889.507        0.542        0.233       71.824       13.213        0.034      333.209        2.373      855.160
12/16/2021  01:36:00       21.981       24.972        2.281       43.688       38.493       28.341     1908.613     1481.687      803.216        0.265        0.210       33.268       14.245        0.183      333.174        2.316      855.185
12/16/2021  01:37:00       21.060      -22.602        0.964       57.084       36.710       30.243     3258.579     1347.616      914.633        0.324        0.276       30.893        4.583        0.022      333.197        2.354      855.243
12/16/2021  01:38:00       15.657        2.688       -6.070       43.906       40.802       33.015     1927.757     1664.780     1090.021        0.249        0.234       15.886       24.205        2.322      333.219        2.391      855.361
12/16/2021  01:39:00      154.677      -13.315       -6.680       76.830       49.365       40.783     5902.887     2436.868     1663.271        1.707        0.500      155.249       37.389        0.058      333.200        2.357      855.421
12/16/2021  01:40:00      113.932      -16.193       -8.940       57.173       48.532       33.579     3268.753     2355.320     1127.531        1.004        0.338      115.077       30.764        0.071      333.109        2.210      855.427
12/16/2021  01:41:00       83.665       15.088      -12.905       45.420       38.502       23.851     2062.955     1482.405      568.872        0.575        0.206       85.014       21.912        0.066      333.154        2.285      855.420
12/16/2021  01:42:00       79.209       27.583      -16.047       46.135       49.175       23.026     2128.400     2418.148      530.197        0.618        0.254       83.874        8.735        0.011      333.109        2.210      855.447
12/16/2021  01:43:00      143.527       43.922      -14.953       47.123       30.846       22.917     2220.582      951.501      525.182        1.322        0.185      150.097       17.522        0.014      333.084        2.168      855.472
12/16/2021  01:44:00      151.446       44.739      -10.594       44.980       43.444       22.088     2023.162     1887.349      487.894        1.472        0.220      157.916       24.429        0.024      333.023        2.066      855.520
12/16/2021  01:45:00      117.730       54.291      -11.494       40.534       24.112       19.796     1643.032      581.389      391.885        0.978        0.131      129.645       15.326        0.014      333.089        2.177      855.543
12/16/2021  01:46:00      123.649       53.392       -9.590       26.455       21.161       15.035      699.867      447.787      226.039        0.980        0.069      134.684        8.094        0.004      333.112        2.214      855.548
12/16/2021  01:47:00       95.038       21.426       -2.395       51.165       28.253       22.230     2617.899      798.233      494.157        0.670        0.196       97.423       23.423        0.058      333.131        2.245      855.526
12/16/2021  01:48:00       98.407       15.186       -6.125       59.657       48.607       30.422     3558.928     2362.594      925.495        0.840        0.342       99.572       30.840        0.096      333.075        2.153      855.482
12/16/2021  01:49:00      158.737       79.729      -11.005       44.544       30.281       27.632     1984.177      916.962      763.509        1.767        0.183      177.635       13.610        0.006      333.097        2.189      855.448
12/16/2021  01:50:00      159.357       94.763      -16.413       56.623       42.795       28.240     3206.124     1831.378      797.499        2.024        0.292      185.404       19.565        0.011      333.092        2.180      855.356
12/16/2021  01:51:00      201.885      108.620      -20.245       55.854       36.129       32.557     3119.722     1305.305     1059.926        2.922        0.274      229.250       24.291        0.011      333.191        2.340      855.238
12/16/2021  01:52:00      184.207       98.423      -34.106       67.273       57.843       35.537     4525.624     3345.785     1262.877        2.696        0.457      208.852       24.895        0.014      333.331        2.572      855.106
12/16/2021  01:53:00      262.554       27.778      -11.669       85.593       51.045       40.407     7326.180     2605.570     1632.686        4.070        0.578      264.020       37.778        0.020      333.274        2.478      854.944
12/16/2021  01:54:00      158.773       28.130      -10.185       69.572       54.191       34.686     4840.199     2936.648     1203.137        1.754        0.449      161.245       20.458        0.016      333.088        2.173      854.804
12/16/2021  01:55:00      163.806       53.047      -12.460       56.877       57.179       31.270     3235.028     3269.449      977.803        1.864        0.374      172.181       14.585        0.007      333.103        2.198      854.752
12/16/2021  01:56:00       99.742       61.354      -25.886       37.113       44.052       25.934     1377.363     1940.577      672.589        0.919        0.200      117.102       17.562        0.022      333.213        2.381      854.754
12/16/2021  01:57:00       98.260       12.038        2.815       90.101       46.700       32.226     8118.279     2180.858     1038.508        1.057        0.567       98.995       32.546        0.108      333.237        2.421      854.766
12/16/2021  01:58:00      107.217       42.509      -13.866       58.532       51.295       29.419     3426.045     2631.214      865.498        1.021        0.346      115.336       18.146        0.025      333.272        2.479      854.852
12/16/2021  01:59:00       32.658        0.492        0.757       55.716       38.374       24.471     3104.240     1472.571      598.829        0.312        0.259       32.662       27.425        0.705      333.216        2.385      854.963
12/16/2021  02:00:00      115.383        8.686       -6.503       69.773       46.872       28.545     4868.214     2197.028      814.842        1.065        0.394      115.710       19.174        0.027      333.221        2.395      855.007
12/16/2021  02:01:00      109.115       22.389       -6.049       73.424       36.087       29.338     5391.024     1302.299      860.716        1.000        0.378      111.388       32.437        0.085      333.224        2.398      855.014
12/16/2021  02:02:00      111.638       45.177      -27.527       60.679       35.057       24.341     3681.964     1228.980      592.489        1.038        0.275      120.432       24.778        0.042      333.312        2.544      855.016
12/16/2021  02:03:00       27.705      -18.656      -12.814       24.442       30.485       18.013      597.418      929.314      324.461        0.157        0.093       33.401       14.830        0.197      333.214        2.382      855.090
12/16/2021  02:04:00       59.449      -28.625       -8.322       45.606       24.789       28.770     2079.942      614.512      827.700        0.397        0.176       65.981       23.964        0.132      333.185        2.333      855.174
12/16/2021  02:05:00       83.766       16.886      -20.752       27.661       21.446       13.128      765.157      459.923      172.336        0.456        0.070       85.451        8.064        0.009      333.179        2.320      855.222
12/16/2021  02:06:00       42.326      -21.024      -23.920       17.749       26.392       13.150      315.037      696.554      172.933        0.199        0.059       47.259        9.322        0.039      333.160        2.294      855.260
12/16/2021  02:07:00       25.561      -19.487       -8.071       21.340       14.354       13.263      455.399      206.046      175.906        0.097        0.042       32.142        9.099        0.080      333.151        2.278      855.272
12/16/2021  02:08:00       52.955      -11.394      -11.832       25.114       21.813       17.219      630.699      475.794      296.491        0.224        0.070       54.167       10.025        0.034      333.173        2.315      855.247
12/16/2021  02:09:00       22.047       -7.607       -3.549       36.311       31.309       29.703     1318.504      980.235      882.278        0.187        0.159       23.323       27.003        1.341      333.144        2.267      855.168
12/16/2021  02:10:00      -18.908       -8.659      -12.939       26.743       21.616       19.629      715.199      467.236      385.279        0.108        0.078       20.797       13.159        0.400      333.157        2.289      855.212
12/16/2021  02:11:00       56.115       33.981      -16.057       40.943       27.713       12.267     1676.317      767.993      150.470        0.358        0.130       65.602       10.498        0.026      333.152        2.278      855.273
12/16/2021  02:12:00       96.585       32.200      -20.201       19.911       19.017       13.722      396.435      361.649      188.281        0.586        0.047      101.812        8.048        0.006      333.232        2.413      855.225
12/16/2021  02:13:00       20.098       55.840       -9.400       21.893       20.071       14.255      479.294      402.858      203.219        0.235        0.054       59.347        9.850        0.028      333.347        2.603      855.241
12/16/2021  02:14:00       10.171       16.771       -7.969       34.631       20.368       18.175     1199.275      414.867      330.336        0.120        0.097       19.614       21.949        1.252      333.414        2.715      855.283
12/16/2021  02:15:00      -70.735      -20.198      -17.350       68.916       47.010       36.188     4749.463     2209.974     1309.567        0.699        0.413       73.562       28.337        0.148      333.243        2.431      855.408
12/16/2021  02:16:00     -136.460       23.001       17.127      124.982       53.721       44.474    15620.463     2885.915     1977.964        1.996        1.024      138.385       49.578        0.128      333.235        2.416      855.540
12/16/2021  02:17:00     -181.277       18.833        6.829      120.118       74.272       41.159    14428.330     5516.301     1694.040        2.745        1.082      182.253       51.133        0.079      333.299        2.523      855.581
12/16/2021  02:18:00      -95.977        4.228      -15.797       39.960       36.380       35.869     1596.769     1323.500     1286.610        0.684        0.210       96.070       19.318        0.040      333.360        2.626      855.571
12/16/2021  02:19:00     -178.684        7.030       -4.405      100.665       33.443       33.930    10133.532     1118.409     1151.216        2.220        0.620      178.822       43.745        0.060      333.263        2.463      855.621
12/16/2021  02:20:00      -76.274      -20.262       -2.607       57.601       49.860       33.508     3317.846     2485.991     1122.798        0.658        0.346       78.920       25.554        0.105      333.381        2.659      855.611
12/16/2021  02:21:00     -112.257       -8.690      -14.588       80.461       30.263       27.739     6474.013      915.836      769.476        1.052        0.408      112.593       25.403        0.051      333.305        2.533      855.591
12/16/2021  02:22:00     -142.437      -26.707      -12.121       52.551       44.437       32.576     2761.567     1974.631     1061.170        1.347        0.290      144.920       17.777        0.015      333.332        2.578      855.632
12/16/2021  02:23:00      -90.468       -9.629        0.170       70.393       40.534       39.289     4955.124     1643.042     1543.624        0.821        0.407       90.979       44.137        0.235      333.367        2.636      855.695
12/16/2021  02:24:00      -99.946       -1.284       -6.518       81.936       46.605       36.500     6713.490     2172.036     1332.246        1.012        0.511       99.954       32.398        0.105      333.258        2.455      855.748
12/16/2021  02:25:00     -141.054        3.582      -19.357       78.323       47.406       32.261     6134.433     2247.349     1040.740        1.485        0.471      141.099       24.323        0.030      333.253        2.446      855.788
12/16/2021  02:26:00     -205.455       50.396       25.462      137.779       66.320       45.800    18982.964     4398.398     2097.606        3.543        1.274      211.545       56.337        0.071      333.074        2.149      855.847
12/16/2021  02:27:00     -353.618       22.277       45.673      152.120       96.242       69.671    23140.423     9262.431     4854.024        8.244        1.863      354.319       66.518        0.035      332.851        1.779      855.849
12/16/2021  02:28:00     -176.968       24.192       23.153      169.627       53.977       60.150    28773.306     2913.486     3618.036        3.387        1.765      178.614       75.447        0.178      333.022        2.065      855.857
12/16/2021  02:29:00     -305.784       62.694       30.682      122.810       49.921       69.443    15082.185     2492.088     4822.350        6.038        1.120      312.145       73.926        0.056      332.893        1.850      855.900
12/16/2021  02:30:00     -387.291       36.482       38.562      135.414       64.000       56.256    18337.004     4095.979     3164.762        8.920        1.280      389.005       60.845        0.024      332.760        1.629      855.943
12/16/2021  02:31:00     -317.735        4.143       40.107      205.551       70.184       59.692    42251.207     4925.755     3563.194        7.665        2.537      317.762       68.412        0.046      332.839        1.760      855.940
12/16/2021  02:32:00     -123.374       14.252        1.017      114.378       62.353       51.658    13082.223     3887.905     2668.512        1.753        0.982      124.194       15.420        0.015      333.069        2.141      855.927
12/16/2021  02:33:00     -191.609       -2.469       12.880      162.496       74.658       58.705    26404.996     5573.793     3446.335        3.615        1.771      191.624       54.746        0.082      332.886        1.839      855.911
12/16/2021  02:34:00     -208.927       33.715       29.901      172.640       57.936       53.011    29804.720     3356.625     2810.118        4.082        1.799      211.630       74.617        0.124      332.693        1.521      855.895
12/16/2021  02:35:00     -345.332       22.611       75.719      110.233       70.264       37.672    12151.412     4936.991     1419.193        7.200        0.925      346.071       26.691        0.006      332.388        1.015      855.877
12/16/2021  02:36:00     -371.352       48.101       68.451      147.535       50.453       41.075    21766.552     2545.507     1687.143        8.545        1.300      374.454       47.735        0.016      332.403        1.042      855.839
12/16/2021  02:37:00     -160.670       21.347       38.241      151.573       46.199       48.011    22974.324     2134.372     2305.038        2.757        1.371      162.082       54.878        0.115      332.572        1.323      855.800
12/16/2021  02:38:00     -279.780       27.451       92.427       61.038       37.043       32.088     3725.608     1372.162     1029.668        4.685        0.306      281.124       23.564        0.007      332.274        0.821      855.784
12/16/2021  02:39:00     -442.497       -6.163       83.491       61.686       45.622       40.509     3805.218     2081.341     1640.982       10.517        0.376      442.540       31.391        0.005      332.203        0.710      855.813
12/16/2021  02:40:00     -288.007       -1.779       72.967       92.399       42.131       37.278     8537.487     1774.992     1389.634        4.999        0.585      288.012       40.500        0.020      332.292        0.855      855.860
12/16/2021  02:41:00     -159.565      -12.008       29.193       89.167       48.514       36.875     7950.830     2353.602     1359.739        1.906        0.583      160.016       51.484        0.104      332.021        0.409      855.907
12/16/2021  02:42:00     -135.227       40.687       12.210      167.999       52.828       58.374    28223.823     2790.821     3407.484        2.725        1.721      141.215       71.976        0.260      331.881        0.186      855.938
12/16/2021  02:43:00     -287.874        5.873       71.346      151.279       74.549       47.821    22885.193     5557.608     2286.851        5.936        1.536      287.934       67.778        0.055      332.028        0.422      855.899
12/16/2021  02:44:00     -117.858      -10.336      -43.587       49.219       38.103       34.981     2422.520     1451.830     1223.705        1.050        0.255      118.311       36.925        0.097      331.707       -0.109      855.847
12/16/2021  02:45:00      -68.135        4.598       26.584       80.895       53.794       27.014     6544.022     2893.828      729.756        0.777        0.508       68.290       32.387        0.225      331.791        0.032      855.807
12/16/2021  02:46:00     -211.240       21.799       51.026      124.959       39.853       56.125    15614.755     1588.243     3150.026        3.402        1.018      212.362       67.416        0.101      332.057        0.469      855.798
12/16/2021  02:47:00     -137.592       14.827       13.792      129.582       43.291       46.370    16791.442     1874.105     2150.157        2.008        1.041      138.389       67.606        0.239      331.806        0.054      855.807
12/16/2021  02:48:00      -24.343        5.151       -3.755       32.728       11.089       16.985     1071.118      122.976      288.492        0.106        0.074       24.882       14.999        0.363      331.636       -0.218      855.825
12/16/2021  02:49:00      -47.689       -2.116        2.361       58.737       37.152       40.458     3449.979     1380.246     1636.888        0.437        0.323       47.736       27.894        0.341      331.654       -0.184      855.867
12/16/2021  02:50:00      -55.848      -19.835       11.732       79.421       39.428       37.040     6307.720     1554.606     1371.959        0.644        0.462       59.266       42.004        0.502      331.718       -0.089      855.878
12/16/2021  02:51:00     -126.668      -81.331       18.351      104.180       36.344       47.054    10853.561     1320.867     2214.077        1.869        0.719      150.530       62.348        0.172      331.877        0.176      855.879
12/16/2021  02:52:00      -25.135      -12.545        5.715       87.335       45.312       36.711     7627.388     2053.210     1347.706        0.592        0.551       28.092       50.661        3.252      331.733       -0.060      855.869
12/16/2021  02:53:00       -4.903       -8.325      -13.539       81.070       51.064       30.623     6572.271     2607.489      937.798        0.520        0.506        9.661       45.368       22.051      331.751       -0.033      855.825
12/16/2021  02:54:00       62.126      -52.469      -37.812       38.816       92.686       35.335     1506.653     8590.666     1248.542        0.969        0.567       81.318       41.640        0.262      331.618       -0.251      855.792
12/16/2021  02:55:00       31.319     -116.316      -49.049       53.672       51.688       24.167     2880.668     2671.682      584.053        1.153        0.307      120.458       16.000        0.018      331.688       -0.132      855.750
12/16/2021  02:56:00      -31.090       -2.897      -11.041       39.937       52.073       32.502     1594.962     2711.574     1056.350        0.323        0.268       31.225       28.419        0.828      331.723       -0.077      855.684
12/16/2021  02:57:00      -24.810       50.062       13.679       31.435       26.215       19.294      988.144      687.233      372.240        0.268        0.102       55.873       17.797        0.101      331.696       -0.122      855.654
12/16/2021  02:58:00        4.444       12.463        2.540       35.632       26.686       24.942     1269.605      712.141      622.107        0.139        0.130       13.232       24.157        3.333      331.661       -0.177      855.616
12/16/2021  02:59:00      -27.259       27.531        2.103       74.795       20.832       37.606     5594.282      433.956     1414.193        0.447        0.372       38.742       50.240        1.682      331.622       -0.246      855.547
12/16/2021  03:00:00       29.916       73.669        3.164       52.040       37.889       25.635     2708.199     1435.599      657.141        0.557        0.240       79.512       29.678        0.139      331.502       -0.439      855.513
12/16/2021  03:01:00       32.527       66.898        1.584       69.047       23.923       38.007     4767.461      572.325     1444.517        0.616        0.339       74.386       45.451        0.373      331.474       -0.485      855.517
12/16/2021  03:02:00       23.824       40.873        5.002       50.386       27.535       29.040     2538.757      758.176      843.340        0.320        0.207       47.309       35.827        0.573      331.530       -0.403      855.526
12/16/2021  03:03:00      -27.757       49.438        7.113       70.598       17.461       32.393     4984.124      304.898     1049.329        0.480        0.317       56.697       42.462        0.561      331.825        0.089      855.517
12/16/2021  03:04:00      -39.421       43.042      -14.460       32.869       21.806       21.840     1080.344      475.494      476.967        0.282        0.102       58.366       10.812        0.034      331.640       -0.215      855.506
12/16/2021  03:05:00       -6.370       29.059        1.662       52.898       29.353       27.426     2798.246      861.580      752.191        0.265        0.221       29.749       33.082        1.237      331.570       -0.331      855.518
12/16/2021  03:06:00      153.119       46.182      -21.382      112.418       28.117       33.925    12637.741      790.547     1150.873        2.030        0.729      159.932       46.797        0.086      331.547       -0.369      855.463
12/16/2021  03:07:00       99.194       59.358       -1.054       72.123       53.173       44.342     5201.778     2827.327     1966.203        1.168        0.500      115.598       40.895        0.125      331.395       -0.617      855.380
12/16/2021  03:08:00       65.446      137.924       -3.565       47.163       37.841       30.129     2224.317     1431.968      907.774        1.394        0.228      152.663       29.074        0.036      331.646       -0.206      855.301
12/16/2021  03:09:00      -20.375      111.517        0.876       64.662       49.925       33.070     4181.166     2492.548     1093.649        1.031        0.388      113.363       33.212        0.086      331.708       -0.103      855.323
12/16/2021  03:10:00       -5.126       83.693        0.755      121.638       24.551       40.789    14795.891      602.774     1663.773        1.204        0.853       83.850       58.789        0.492      331.825        0.089      855.350
12/16/2021  03:11:00      171.045       62.262      -16.592       60.262       54.860       27.847     3631.482     3009.628      775.478        2.041        0.371      182.025       31.918        0.031      331.428       -0.563      855.360
12/16/2021  03:12:00      104.965       79.823       -3.617       64.183       52.986       28.380     4119.492     2807.468      805.444        1.257        0.387      131.869       17.941        0.019      331.347       -0.698      855.360
12/16/2021  03:13:00       65.967      108.902      -15.563       52.461       49.814       35.224     2752.141     2481.427     1240.737        1.146        0.324      127.324       30.088        0.056      331.534       -0.389      855.451
12/16/2021  03:14:00      149.764      135.104      -26.163       82.278       42.524       31.135     6769.739     1808.269      969.383        2.546        0.477      201.699       37.766        0.035      331.435       -0.555      855.381
12/16/2021  03:15:00      254.677       60.048      -22.339       70.852       68.786       42.066     5019.971     4731.561     1769.562        4.024        0.576      261.661        5.809        0.000      331.382       -0.641      855.117
12/16/2021  03:16:00      229.754       58.525      -11.102      112.765       77.359       51.107    12715.994     5984.467     2611.960        3.882        1.066      237.091       51.621        0.047      331.400       -0.610      855.044
12/16/2021  03:17:00      109.456       34.187       -1.207       68.721       48.409       39.251     4722.603     2343.459     1540.626        1.088        0.430      114.670       38.727        0.114      331.386       -0.633      855.157
12/16/2021  03:18:00       35.064       20.000        6.823       64.953       27.643       34.744     4218.893      764.120     1207.122        0.393        0.310       40.367       37.967        0.885      331.408       -0.594      855.261
12/16/2021  03:19:00      -42.802      116.580        5.062       74.282       48.792       42.720     5517.834     2380.656     1824.962        1.258        0.486      124.189       50.717        0.167      331.737       -0.055      855.306
12/16/2021  03:20:00      -96.296      156.591       19.753       85.891       35.095       38.823     7377.245     1231.666     1507.242        2.215        0.506      183.831       52.121        0.080      331.757       -0.022      855.328
12/16/2021  03:21:00      -56.225      118.418       18.842       90.146       40.352       36.820     8126.348     1628.284     1355.722        1.432        0.556      131.088       35.154        0.072      331.765       -0.013      855.281
12/16/2021  03:22:00      106.010      116.794       -8.098      104.345       40.301       38.735    10887.803     1624.182     1500.420        1.948        0.701      157.730       50.453        0.102      331.767       -0.009      855.165
12/16/2021  03:23:00      212.479       71.866      -35.706       77.720       78.219       26.003     6040.370     6118.212      676.135        3.221        0.642      224.303       23.726        0.011      331.553       -0.360      854.979
12/16/2021  03:24:00       74.814        1.603       -9.672       70.711       36.151       35.463     5000.039     1306.904     1257.604        0.663        0.378       74.832       40.953        0.300      331.462       -0.509      854.939
12/16/2021  03:25:00       65.771       37.756       -2.626       88.550       60.077       41.677     7841.046     3609.216     1736.978        0.947        0.659       75.838       49.874        0.432      331.480       -0.477      854.905
12/16/2021  03:26:00       69.575        8.856        5.523       70.257       52.031       26.348     4936.073     2707.192      694.207        0.664        0.417       70.137       35.082        0.250      331.424       -0.572      854.859
12/16/2021  03:27:00       -9.887       25.636      -12.836       80.853       56.385       43.193     6537.189     3179.258     1865.672        0.625        0.579       27.477       49.852        3.292      331.486       -0.468      854.976
12/16/2021  03:28:00      -72.530       92.483        7.677       85.676       44.030       47.750     7340.449     1938.606     2280.015        1.271        0.578      117.532       54.524        0.215      331.691       -0.133      854.988
12/16/2021  03:29:00       29.301      174.730        0.096      103.357       56.088       43.475    10682.713     3145.887     1890.059        2.355        0.786      177.170       57.749        0.106      331.871        0.161      854.895
12/16/2021  03:30:00       17.585      178.641       -1.620       88.051       56.037       35.650     7753.042     3140.181     1270.937        2.219        0.608      179.504       42.322        0.056      331.848        0.122      854.901
12/16/2021  03:31:00       11.455       62.126       -5.075       51.757       67.600       26.163     2678.786     4569.761      684.490        0.597        0.397       63.173       28.653        0.206      331.704       -0.107      854.908
12/16/2021  03:32:00      -77.113       15.690       -1.695       77.881       38.882       44.164     6065.450     1511.777     1950.452        0.786        0.476       78.693       48.074        0.373      331.779        0.008      854.919
12/16/2021  03:33:00      -68.663      -10.842       36.865      168.132       49.979       40.680    28268.387     2497.899     1654.848        1.930        1.621       69.514       38.631        0.309      331.860        0.150      854.998
12/16/2021  03:34:00     -266.348      -43.113       49.046      125.576       49.847       64.296    15769.323     2484.735     4133.927        4.879        1.119      269.815       72.925        0.073      332.126        0.587      855.003
12/16/2021  03:35:00       56.620      -66.414      -53.380      139.675      130.443       78.398    19509.044    17015.390     6146.183        2.656        2.134       87.273       96.378        1.220      331.829        0.097      854.782
12/16/2021  03:36:00       60.493      -26.337       -2.374      130.923      104.950       69.452    17140.770    11014.535     4823.596        1.866        1.649       65.977       78.778        1.426      331.908        0.230      854.621
12/16/2021  03:37:00      -63.122       96.375        3.352       97.785       72.097       47.058     9561.940     5198.043     2214.429        1.513        0.849      115.207       47.704        0.171      331.887        0.191      854.720
12/16/2021  03:38:00     -102.955      146.873        2.747      118.378       74.410       55.000    14013.291     5536.852     3024.982        2.737        1.129      179.364       56.783        0.100      332.005        0.385      854.846
12/16/2021  03:39:00       45.975      226.329      -16.020      103.344      116.854       41.101    10679.983    13654.887     1689.306        3.981        1.301      230.951       58.935        0.065      332.485        1.182      854.856
12/16/2021  03:40:00     -102.260      106.114       30.319      147.872       87.352       53.611    21865.989     7630.312     2874.170        2.750        1.619      147.368       71.509        0.235      332.885        1.836      854.889
12/16/2021  03:41:00     -106.337      -55.973       35.935      188.247      142.996       65.474    35436.794    20447.892     4286.839        3.794        3.009      120.169      112.964        0.884      332.435        1.093      854.892
12/16/2021  03:42:00       21.837     -156.960      -30.125      152.632       81.782       46.475    23296.553     6688.356     2159.915        2.908        1.607      158.472       46.682        0.087      331.955        0.302      854.868
12/16/2021  03:43:00     -242.146      -15.142       18.359      173.395       52.062       56.789    30065.664     2710.465     3225.028        4.759        1.800      242.619       86.750        0.128      332.296        0.872      854.968
12/16/2021  03:44:00     -163.262        1.342       26.088      122.506       37.872       51.288    15007.738     1434.309     2630.412        2.320        0.954      163.267       68.451        0.176      332.074        0.500      855.081
12/16/2021  03:45:00       37.589       34.551       -3.321       48.830       15.840       21.242     2384.372      250.921      451.243        0.285        0.154       51.055       27.068        0.281      331.909        0.229      855.082
12/16/2021  03:46:00       83.734        2.841       -9.216       44.728       40.950       29.738     2000.605     1676.911      884.371        0.583        0.228       83.782       31.919        0.145      331.919        0.240      855.001
12/16/2021  03:47:00       68.805       13.495       -8.592       57.297       30.814       30.194     3282.918      949.519      911.694        0.507        0.257       70.116       27.974        0.159      331.851        0.135      854.888
12/16/2021  03:48:00     -167.062       33.254       13.472      140.673       37.095       41.967    19788.975     1376.053     1761.225        2.606        1.146      170.340       57.141        0.113      331.935        0.268      854.927
12/16/2021  03:49:00     -122.008      -11.334       47.894      148.206       58.510       45.084    21964.991     3423.435     2032.581        2.236        1.371      122.533       63.521        0.269      332.071        0.491      855.093
12/16/2021  03:50:00      -50.938      -96.633       -1.736      115.496       51.193       47.104    13339.369     2620.710     2218.753        1.505        0.909      109.237       62.335        0.326      332.150        0.622      855.062
12/16/2021  03:51:00       68.983     -122.302      -41.279      107.912       61.870       41.603    11644.920     3827.888     1730.839        1.931        0.860      140.415       37.105        0.070      332.534        1.257      854.911
12/16/2021  03:52:00     -102.087       22.266       19.436      124.201       32.396       48.440    15425.865     1049.491     2346.394        1.506        0.941      104.487       72.727        0.484      332.897        1.858      854.921
12/16/2021  03:53:00     -186.710      201.872       20.777      108.855       86.063       55.661    11849.499     7406.815     3098.105        4.920        1.118      274.978       34.356        0.016      332.251        0.790      855.017
12/16/2021  03:54:00      -53.370      147.088      -15.472       60.897       67.760       35.563     3708.453     4591.441     1264.704        1.714        0.478      156.471       41.772        0.071      332.443        1.110      855.045
12/16/2021  03:55:00      -21.789      -20.467        5.028       66.965       34.831       50.191     4484.251     1213.228     2519.100        0.457        0.411       29.894       40.582        1.843      332.222        0.741      855.053
12/16/2021  03:56:00     -247.202      -19.808       27.160      188.007       57.864       55.206    35346.795     3348.275     3047.754        5.198        2.087      247.994       75.966        0.094      332.701        1.530      855.022
12/16/2021  03:57:00     -226.068       30.085       61.712      150.206       44.654       58.422    22561.822     1993.986     3413.155        4.189        1.398      228.061       77.489        0.115      332.637        1.421      854.988
12/16/2021  03:58:00      -97.635       45.564       12.405      140.647       31.087       55.497    19781.448      966.372     3079.873        1.779        1.191      107.743       74.194        0.474      332.398        1.028      854.949
12/16/2021  03:59:00     -231.073      -11.987        9.057      200.711      119.248       51.895    40285.056    14220.185     2693.132        5.540        2.860      231.383       96.176        0.173      332.628        1.407      854.907
12/16/2021  04:00:00     -278.113       -3.380       52.849      186.296       69.568       53.017    34706.151     4839.773     2810.845        6.125        2.118      278.133       67.757        0.059      332.713        1.553      854.929
12/16/2021  04:01:00     -331.019       45.747       61.893      150.888       49.862       46.649    22767.075     2486.227     2176.133        7.146        1.371      334.165       42.563        0.016      332.771        1.649      854.962
12/16/2021  04:02:00     -119.588      -10.992        8.824       90.444       29.666       51.436     8180.141      880.081     2645.652        1.310        0.585      120.092       42.873        0.127      332.338        0.937      854.956
12/16/2021  04:03:00     -121.911       -2.284       11.673       57.409       31.756       22.921     3295.780     1008.468      525.363        0.992        0.241      121.933       32.590        0.071      332.402        1.036      854.960
12/16/2021  04:04:00     -270.465      -19.076       61.196       92.992       41.161       54.498     8647.437     1694.227     2970.074        4.528        0.666      271.137       61.022        0.051      332.793        1.685      854.940
12/16/2021  04:05:00     -185.599      -12.990       49.147      163.606        9.135       50.621    26766.765       83.456     2562.534        3.322        1.471      186.053       90.943        0.239      332.639        1.421      854.931
12/16/2021  04:06:00      -19.168      -20.850      -22.251       18.928       29.374       15.115      358.283      862.810      228.461        0.137        0.072       28.322       12.820        0.205      332.285        0.845      854.914
12/16/2021  04:07:00      -65.533        9.829      -10.833       66.210       22.315       41.464     4383.731      497.974     1719.292        0.555        0.330       66.266       49.256        0.553      332.423        1.069      854.898
12/16/2021  04:08:00       -1.714       -4.456      -26.443       65.153       40.094       11.637     4244.879     1607.568      135.417        0.335        0.299        4.774       10.765        5.084      332.297        0.861      854.894
12/16/2021  04:09:00     -117.140      -17.748       19.257      118.781       31.745       29.819    14108.994     1007.720      889.195        1.520        0.800      118.477       47.673        0.162      332.412        1.055      854.913
12/16/2021  04:10:00        3.721      -36.298      -16.190       77.699       79.856       21.542     6037.170     6377.029      464.075        0.723        0.644       36.488       43.793        1.440      332.251        0.795      854.911
12/16/2021  04:11:00      -74.015       31.054       11.892       85.316       40.543       16.960     7278.847     1643.705      287.654        0.790        0.461       80.266        9.824        0.015      332.366        0.978      854.873
12/16/2021  04:12:00     -261.466       -0.579       35.031      105.322       66.306       47.462    11092.732     4396.543     2252.655        4.366        0.887      261.467       60.377        0.053      332.781        1.665      854.945
12/16/2021  04:13:00     -186.995        6.422       21.444      150.877      126.359       37.386    22763.906    15966.477     1397.728        3.779        2.006      187.105       63.864        0.117      332.756        1.616      854.982
12/16/2021  04:14:00       24.866      -13.666       -3.114       59.561       69.610       27.278     3547.476     4845.557      744.069        0.497        0.457       28.374       38.372        1.829      332.506        1.212      854.995
12/16/2021  04:15:00     -120.697       22.660       19.658      103.010       41.429       41.465    10611.079     1716.394     1719.333        1.475        0.702      122.806       64.035        0.272      332.495        1.190      855.042
12/16/2021  04:16:00      -43.326       -9.074       16.585       72.371       14.753       48.749     5237.523      217.654     2376.503        0.503        0.392       44.266       54.235        1.501      332.372        0.991      855.074
12/16/2021  04:17:00      -14.627        9.659        0.293       24.479        4.199       17.889      599.204       17.628      320.002        0.062        0.047       17.529       20.877        1.418      332.296        0.873      855.063
12/16/2021  04:18:00     -166.722        5.633       27.286      143.140       26.230       41.609    20489.016      688.014     1731.296        2.574        1.145      166.817       68.193        0.167      332.627        1.412      855.105
12/16/2021  04:19:00     -221.814      -25.570       48.914      164.772       61.158       34.143    27149.964     3740.305     1165.742        4.215        1.603      223.283       62.250        0.078      332.839        1.768      855.106
12/16/2021  04:20:00     -336.230       38.374       94.014       76.754       38.144       27.027     5891.209     1454.957      730.472        6.572        0.404      338.413       33.466        0.010      332.981        1.995      855.115
12/16/2021  04:21:00     -147.834      -22.527       -1.097      136.982       68.501       60.431    18764.024     4692.381     3651.947        2.473        1.355      149.541       86.129        0.332      332.719        1.568      855.052
12/16/2021  04:22:00     -128.980       81.828       22.002       98.646       32.336       61.656     9730.989     1045.606     3801.483        1.919        0.729      152.747       77.446        0.257      332.897        1.860      855.059
12/16/2021  04:23:00      -40.580      -24.605       15.377       89.915       47.008       41.823     8084.687     2209.771     1749.195        0.726        0.602       47.456       41.816        0.776      332.625        1.404      855.082
12/16/2021  04:24:00     -206.045       89.090       65.524      154.397       82.312       58.897    23838.352     6775.339     3468.898        4.438        1.704      224.481       87.775        0.153      332.647        1.450      855.095
12/16/2021  04:25:00     -226.623       91.846       42.253       95.842       80.418       33.380     9185.682     6467.063     1114.214        3.917        0.838      244.527       38.938        0.025      332.771        1.651      855.098
12/16/2021  04:26:00     -337.846       35.486       64.221      127.092       38.005       35.885    16152.349     1444.386     1287.755        6.920        0.944      339.705       54.604        0.026      332.893        1.850      855.161
12/16/2021  04:27:00     -337.557       10.916      104.059       40.133       37.611       40.566     1610.678     1414.591     1645.609        6.478        0.234      337.734       26.363        0.006      333.025        2.071      855.178
12/16/2021  04:28:00     -275.745        2.033       83.632       32.845       23.366       23.510     1078.819      545.962      552.737        4.261        0.109      275.753       26.872        0.009      333.068        2.138      855.148
12/16/2021  04:29:00     -315.071       29.118       63.059       19.538       30.556       15.723      381.715      933.641      247.206        5.283        0.078      316.413       22.300        0.005      333.087        2.168      855.152
12/16/2021  04:30:00     -342.120       31.386       91.275       55.382       32.479       32.437     3067.199     1054.900     1052.158        6.577        0.259      343.557       27.425        0.006      332.896        1.855      855.179
12/16/2021  04:31:00     -297.501      -21.578       76.362       41.413       43.455       27.489     1715.041     1888.362      755.619        4.958        0.218      298.282       23.894        0.006      333.207        2.360      855.152
12/16/2021  04:32:00     -337.590        9.426       86.069       36.452       13.475       34.160     1328.738      181.569     1166.891        6.207        0.134      337.721       29.326        0.008      333.191        2.339      855.100
12/16/2021  04:33:00     -328.625       44.315       90.273       57.954       44.224       33.508     3358.619     1955.734     1122.804        6.227        0.322      331.600       29.589        0.008      333.086        2.166      855.137
12/16/2021  04:34:00     -311.799       32.960       69.796       19.021       63.284       27.891      361.803     4004.873      777.887        5.416        0.257      313.537       35.371        0.013      333.235        2.412      855.115
12/16/2021  04:35:00     -277.541       14.367       99.533       32.279       21.995       31.659     1041.922      483.796     1002.318        4.483        0.126      277.912       17.165        0.004      333.196        2.347      855.132
12/16/2021  04:36:00     -140.079       18.095       46.265      144.197       29.911       41.132    20792.663      894.645     1691.826        2.273        1.169      141.243       60.027        0.181      332.817        1.721      855.167
12/16/2021  04:37:00     -264.000       19.000       46.000        0.000        0.000        0.000        0.000        0.000        0.000        3.609        0.000      264.683        0.000        0.000      333.080        2.150      855.170
12/16/2021  04:38:00     -170.901       20.956       27.615      116.167        2.440       22.940    13494.665        5.956      526.264        2.222        0.701      172.181       51.620        0.090      332.767        1.634      855.147
12/16/2021  04:39:00     -158.713      -35.750       33.519       96.211       26.130       52.285     9256.515      682.772     2733.712        2.013        0.634      162.690       69.807        0.184      332.906        1.866      855.104
12/16/2021  04:40:00     -164.397      -35.650       46.217       81.355       19.892       48.775     6618.693      395.684     2379.031        1.991        0.470      168.218       60.713        0.130      333.062        2.135      855.127
12/16/2021  04:41:00     -280.007      -15.430       85.787       27.356       39.138        7.776      748.346     1531.783       60.467        4.417        0.117      280.432       17.906        0.004      333.094        2.171      855.132
12/16/2021  04:42:00     -348.246      -25.631       70.133       30.868       10.833        9.662      952.839      117.361       93.358        6.401        0.058      349.188       17.503        0.003      333.179        2.320      855.132
12/16/2021  04:43:00     -204.712        6.883       53.941      115.715       30.770       40.450    13389.996      946.818     1636.175        3.042        0.799      204.827       66.532        0.106      332.834        1.746      855.163
12/16/2021  04:44:00     -318.117        9.966       83.549       50.591       37.344       24.066     2559.464     1394.550      579.164        5.640        0.227      318.273       24.047        0.006      333.055        2.117      855.215
12/16/2021  04:45:00     -300.217        8.395       80.537       63.843       24.859       37.112     4075.904      617.964     1377.276        5.138        0.304      300.335       41.404        0.019      332.949        1.940      855.242
12/16/2021  04:46:00     -297.343        6.718       75.772       57.587       35.117       26.664     3316.300     1233.184      710.961        4.973        0.263      297.419       34.467        0.013      332.968        1.973      855.225
12/16/2021  04:47:00     -353.373       40.045      104.033       45.016       39.500       40.817     2026.485     1560.214     1666.053        7.128        0.263      355.635       11.692        0.001      332.867        1.805      855.199
12/16/2021  04:48:00     -372.997       56.164       80.829       80.677       70.214       41.443     6508.726     4930.055     1717.493        8.098        0.658      377.202       10.589        0.001      333.086        2.167      855.177
12/16/2021  04:49:00     -348.662       24.306       61.926       45.188       25.375       24.177     2041.963      643.880      584.551        6.463        0.164      349.508       14.336        0.002      333.019        2.061      855.181
12/16/2021  04:50:00     -379.864       55.879       98.704       44.923       40.983       36.442     2018.093     1679.630     1328.041        8.109        0.251      383.952       33.736        0.008      333.048        2.103      855.218
12/16/2021  04:51:00     -308.214      -12.573       78.021       45.780       41.466       15.045     2095.782     1719.407      226.346        5.264        0.202      308.470       20.810        0.005      333.070        2.139      855.201
12/16/2021  04:52:00     -425.451       35.935       76.254      109.908       37.212       34.996    12079.668     1384.743     1224.723       10.140        0.734      426.965       26.909        0.004      333.037        2.089      855.204
12/16/2021  04:53:00     -400.763        8.527       96.856      123.361       62.091       34.631    15217.975     3855.246     1199.311        9.517        1.014      400.853       44.801        0.012      332.972        1.987      855.230
12/16/2021  04:54:00     -413.085       65.900      105.883      101.601       66.948       52.444    10322.706     4481.969     2750.351       10.187        0.878      418.308       52.337        0.016      333.033        2.083      855.244
12/16/2021  04:55:00     -397.921       12.352       77.871       76.310       73.900       59.983     5823.179     5461.261     3598.011        8.972        0.744      398.113       32.577        0.007      332.895        1.850      855.269
12/16/2021  04:56:00     -383.441       63.969       73.453      247.639      107.424       46.935    61325.180    11539.814     2202.897       11.578        3.753      388.741       28.266        0.005      332.835        1.755      855.321
12/16/2021  04:57:00     -463.211       84.622       85.014       82.648       84.620       51.100     6830.694     7160.538     2611.235       12.277        0.830      470.878       40.666        0.007      332.781        1.661      855.305
12/16/2021  04:58:00     -405.383      -24.663       81.053      191.515       83.929       59.453    36678.158     7044.089     3534.690       10.938        2.363      406.133       73.646        0.033      332.861        1.798      855.314
12/16/2021  04:59:00     -525.852        4.758       56.842      186.690       72.897       66.553    34853.164     5314.042     4429.322       16.218        2.230      525.874       25.026        0.002      332.872        1.814      855.354
12/16/2021  05:00:00     -416.397       40.761       79.312      148.090       52.728       43.302    21930.778     2780.280     1875.075       10.396        1.329      418.387       58.198        0.019      332.818        1.729      855.399
12/16/2021  05:01:00     -313.100       22.107       98.541       66.302       66.767       38.319     4395.999     4457.872     1468.368        5.927        0.516      313.880       32.759        0.011      332.749        1.609      855.426
12/16/2021  05:02:00     -172.772       23.322       41.366      129.386       54.142       58.526    16740.723     2931.342     3425.348        2.760        1.155      174.339       63.326        0.132      332.928        1.906      855.436
12/16/2021  05:03:00     -268.231      -43.617       49.245      135.181       56.199       53.245    18273.976     3158.284     2834.997        5.027        1.213      271.754       58.538        0.046      332.920        1.893      855.435
12/16/2021  05:04:00     -193.235       21.109       70.045      122.177       53.177       38.139    14927.226     2827.801     1454.588        3.095        0.960      194.384       33.667        0.030      332.966        1.965      855.413
12/16/2021  05:05:00     -320.949       37.964       64.355       72.158       62.317       25.383     5206.787     3883.410      644.311        5.916        0.487      323.186       22.782        0.005      332.668        1.478      855.392
12/16/2021  05:06:00     -318.531       20.503       49.657      190.427       62.502       63.570    36262.458     3906.488     4041.140        7.427        2.211      319.190       67.551        0.045      332.763        1.635      855.408
12/16/2021  05:07:00     -273.329       15.033       75.270      155.539       56.517       51.773    24192.323     3194.166     2680.454        5.533        1.503      273.742       23.126        0.007      332.712        1.549      855.432
12/16/2021  05:08:00     -231.708       16.053       73.922      234.024       86.379       58.472    54767.111     7461.296     3418.951        6.252        3.282      232.264       90.679        0.152      332.620        1.396      855.468
12/16/2021  05:09:00     -210.041       -1.152       41.196      219.246      100.221       83.369    48068.678    10044.300     6950.429        5.543        3.253      210.044      100.298        0.228      332.769        1.642      855.476
12/16/2021  05:10:00     -304.962       50.071       58.033      246.508       94.410       60.122    60766.173     8913.294     3614.693        8.607        3.665      309.045       48.364        0.024      332.757        1.625      855.472
12/16/2021  05:11:00     -466.885      136.749       92.800      194.492      119.957       59.154    37827.174    14389.655     3499.230       15.050        2.786      486.500       39.299        0.007      332.584        1.339      855.453
12/16/2021  05:12:00     -443.628      101.794       75.142      171.905      109.932       53.982    29551.296    12085.067     2914.007       12.867        2.228      455.157       52.664        0.013      332.586        1.341      855.443
12/16/2021  05:13:00     -279.295       59.598       53.867      199.100       89.020       78.809    39640.795     7924.477     6210.886        6.911        2.689      285.583       70.191        0.060      332.665        1.475      855.460
12/16/2021  05:14:00     -295.020       56.683       47.813      212.245       79.356       52.198    45047.818     6297.402     2724.623        7.329        2.703      300.416       44.963        0.022      332.752        1.619      855.442
12/16/2021  05:15:00     -371.177       94.293       55.246      293.271       97.380       83.200    86008.162     9482.793     6922.242       12.605        5.121      382.967       94.726        0.061      332.803        1.700      855.451
12/16/2021  05:16:00     -496.652       45.262       45.128      274.249      143.179       87.030    75212.429    20500.120     7574.217       17.700        5.164      498.710       85.018        0.029      332.817        1.723      855.437
12/16/2021  05:17:00     -539.364       49.910       77.870      222.015      122.371       67.365    49290.552    14974.636     4538.088       18.412        3.440      541.668        9.257        0.000      332.785        1.670      855.464
12/16/2021  05:18:00     -488.904      112.349       56.856      249.595      127.607       77.518    62297.485    16283.496     6008.967       16.972        4.229      501.646       41.007        0.007      332.840        1.761      855.507
12/16/2021  05:19:00     -470.920       57.888       78.234      237.129      113.429       80.262    56230.343    12866.226     6442.062       15.337        3.777      474.464       54.152        0.013      332.785        1.669      855.532
12/16/2021  05:20:00     -443.986      103.913       67.315      216.770      118.930       65.572    46989.178    14144.296     4299.643       13.893        3.272      455.984       52.524        0.013      332.838        1.757      855.521
12/16/2021  05:21:00     -502.030       65.370       65.341      242.035      115.637       73.585    58581.023    13371.970     5414.685       16.896        3.868      506.268       35.141        0.005      332.808        1.709      855.527
12/16/2021  05:22:00     -655.179       77.142       69.446      302.604      124.036       77.244    91569.074    15384.870     5966.691       27.646        5.646      659.705       86.432        0.017      332.886        1.836      855.549
12/16/2021  05:23:00     -514.055       44.687       81.085      265.662      150.337       92.541    70576.368    22601.068     8563.859       18.726        5.087      515.994       57.591        0.012      332.887        1.839      855.571
12/16/2021  05:24:00     -467.077      106.411       68.100      288.980      112.619       64.684    83509.322    12682.941     4184.002       16.723        5.019      479.045       48.946        0.010      332.892        1.847      855.584
12/16/2021  05:25:00     -436.630       61.677       51.384      272.211       99.966       69.222    74099.034     9993.173     4791.637       14.297        4.444      440.965       50.072        0.013      332.875        1.822      855.624
12/16/2021  05:26:00     -262.328       82.621       47.335      225.853      117.766       75.734    51009.465    13868.790     5735.580        7.424        3.531      275.031       58.644        0.045      333.014        2.050      855.676
12/16/2021  05:27:00     -392.684      100.498       75.329      266.521      109.979       73.158    71033.617    12095.477     5352.144       12.921        4.424      405.340       47.440        0.014      332.939        1.925      855.681
12/16/2021  05:28:00     -500.811      134.407       42.323      249.843      119.461       83.666    62421.681    14271.037     6999.973       17.717        4.185      518.533       74.604        0.021      332.851        1.779      855.698
12/16/2021  05:29:00     -568.731       85.010       75.608      252.743      111.496       70.679    63879.247    12431.310     4995.475       20.884        4.065      575.049       31.972        0.003      332.806        1.704      855.730
12/16/2021  05:30:00     -155.593       45.185        9.219      159.367      115.991       61.900    25397.702    13454.000     3831.611        3.450        2.134      162.021       46.350        0.082      333.136        2.253      855.771
12/16/2021  05:31:00     -466.479       83.460       74.717      319.382      133.872       84.051   102005.045    17921.623     7064.528       17.855        6.350      473.886       83.175        0.031      332.888        1.839      855.798
12/16/2021  05:32:00     -512.081       80.473       59.621      268.398      110.711       74.209    72037.592    12256.846     5506.971       18.101        4.490      518.365       57.609        0.012      332.907        1.874      855.811
12/16/2021  05:33:00     -565.672      120.461       79.852      357.826      174.085      119.761   128039.672    30305.621    14342.637       25.675        8.634      578.355       58.401        0.010      333.042        2.095      855.836
12/16/2021  05:34:00     -304.499       42.058       15.357      223.813      111.737       80.860    50092.117    12485.145     6538.326        8.191        3.456      307.390       29.338        0.009      333.225        2.401      855.874
12/16/2021  05:35:00     -438.922      141.461       28.895      243.876      117.714       78.367    59475.261    13856.548     6141.429       14.647        3.974      461.155       65.609        0.020      333.061        2.127      855.945
12/16/2021  05:36:00     -215.430       38.754       10.347      209.371      107.344       75.487    43836.024    11522.760     5698.356        5.453        3.053      218.888       60.712        0.077      333.206        2.367      855.956
12/16/2021  05:37:00     -270.447        7.676        9.672      206.029       76.162       81.027    42448.141     5800.605     6565.384        6.404        2.741      270.556       49.945        0.034      333.184        2.329      855.968
12/16/2021  05:38:00     -339.814       15.921       34.282      273.599      165.816      101.252    74856.664    27495.009    10251.918       11.473        5.630      340.186       52.063        0.023      333.255        2.447      855.970
12/16/2021  05:39:00     -314.143        4.270       23.872      288.449      133.658       87.169    83202.844    17864.551     7598.356       10.395        5.433      314.172       33.959        0.012      333.305        2.530      855.996
12/16/2021  05:40:00     -229.354        4.508       22.848      264.855      129.820      102.842    70148.000    16853.212    10576.566        7.534        4.879      229.399       46.243        0.041      333.313        2.544      856.008
12/16/2021  05:41:00     -360.116       52.282       24.489      273.455      139.108       84.942    74777.614    19351.115     7215.081       11.716        5.067      363.892       52.756        0.021      333.318        2.551      855.994
12/16/2021  05:42:00     -227.927       15.119      -22.550      266.231      114.197       89.804    70879.181    13041.036     8064.696        7.232        4.599      228.428       73.747        0.104      333.380        2.655      855.985
12/16/2021  05:43:00     -369.180       53.877       16.492      310.767      176.392       92.391    96576.056    31114.112     8536.156       13.782        6.811      373.090       70.663        0.036      333.303        2.527      855.979
12/16/2021  05:44:00     -424.913       43.809        2.133      248.389      147.886      102.265    61696.998    21870.349    10458.232       13.823        4.701      427.166       56.754        0.018      333.312        2.542      856.030
12/16/2021  05:45:00     -528.128       -7.827        0.112      346.622      161.166      109.615   120146.698    25974.337    12015.415       21.853        7.907      528.186       40.091        0.006      333.235        2.416      856.031
12/16/2021  05:46:00     -413.362      -28.321       11.734      309.460      180.508      102.124    95765.416    32582.979    10429.276       15.527        6.939      414.331       87.591        0.045      333.313        2.543      856.020
12/16/2021  05:47:00     -314.227      -41.738      -22.618      254.360      168.305      123.562    64698.821    28326.733    15267.486       10.462        5.415      316.987      100.462        0.100      333.436        2.746      855.988
12/16/2021  05:48:00     -528.328      -34.878       19.141      334.527      155.362      117.325   111908.398    24137.496    13765.084       21.523        7.491      529.478       35.003        0.004      333.283        2.495      855.945
12/16/2021  05:49:00     -462.650       31.750        2.773      236.951      143.712       91.369    56145.687    20653.052     8348.215       15.009        4.257      463.738       63.646        0.019      333.338        2.583      855.934
12/16/2021  05:50:00     -549.103      -16.727      -16.258      225.685      140.944       92.377    50933.563    19865.307     8533.456       19.068        3.967      549.358       41.748        0.006      333.300        2.522      855.928
12/16/2021  05:51:00     -621.729      -23.306        3.473      304.941      148.763       95.763    92988.739    22130.421     9170.588       25.567        6.214      622.165       55.126        0.008      333.255        2.446      855.924
12/16/2021  05:52:00     -373.442      -44.393      -23.405      264.848      175.677      114.291    70144.687    30862.455    13062.437       12.800        5.703      376.071       93.235        0.061      333.455        2.777      855.928
12/16/2021  05:53:00     -464.783       33.488        9.909      310.845      147.049      119.806    96624.317    21623.427    14353.578       17.490        6.630      465.988       63.770        0.019      333.391        2.671      855.943
12/16/2021  05:54:00     -426.466       38.206       -5.760      308.218      165.961      106.206    94998.571    27543.064    11279.692       15.857        6.691      428.174       34.300        0.006      333.323        2.559      855.983
12/16/2021  05:55:00     -272.434      105.798      -15.621      247.694      154.940      100.698    61352.135    24006.299    10140.142        9.056        4.775      292.256      102.259        0.122      333.284        2.496      856.001
12/16/2021  05:56:00     -332.837       76.919        7.726      235.470      144.290       84.315    55446.112    20819.559     7109.029       10.005        4.169      341.610       87.502        0.066      333.187        2.334      856.042
12/16/2021  05:57:00     -346.556       87.066        2.622      257.595      174.947       94.048    66355.154    30606.313     8844.951       11.673        5.290      357.326       68.841        0.037      333.102        2.193      856.105
12/16/2021  05:58:00     -498.923       92.709      -25.141      296.770      173.058      107.589    88072.348    29948.942    11575.475       19.385        6.480      507.464       82.145        0.026      332.994        2.015      856.123
12/16/2021  05:59:00     -351.507       14.092      -29.811      325.930      137.053      105.905   106230.470    18783.492    11215.851       13.041        6.811      351.789       93.622        0.071      332.951        1.943      856.159
12/16/2021  06:00:00     -211.295      -36.214       -2.809      215.602      109.185       97.922    46484.258    11921.278     9588.622        5.697        3.400      214.376      103.001        0.231      332.926        1.904      856.203
12/16/2021  06:01:00      -55.009       16.407       10.656      118.885      108.019       70.320    14133.555    11668.205     4944.867        1.707        1.537       57.404       54.318        0.895      332.831        1.750      856.184
12/16/2021  06:02:00     -173.814       47.221       -4.169      124.639       96.699       65.589    15534.936     9350.712     4301.978        3.082        1.459      180.114       57.965        0.104      332.809        1.713      856.153
12/16/2021  06:03:00     -472.350      117.302      -31.425      132.792       94.433       66.700    17633.791     8917.602     4448.919       13.443        1.550      486.698       58.680        0.015      332.761        1.630      856.159
12/16/2021  06:04:00     -364.416       46.743        0.032      246.883      123.686       84.183    60950.986    15298.178     7086.841       10.914        4.167      367.402       66.521        0.033      332.745        1.605      856.166
12/16/2021  06:05:00     -322.348       90.277      -12.580      162.601      131.749       62.966    26439.153    17357.819     3964.756        7.998        2.388      334.751       33.536        0.010      332.737        1.591      856.200
12/16/2021  06:06:00     -286.861       99.049       -5.454      202.706      125.143       79.965    41089.677    15660.892     6394.322        7.763        3.157      303.479       84.526        0.078      332.695        1.523      856.189
12/16/2021  06:07:00     -331.828       92.850      -17.600      202.089      121.407       78.461    40839.862    14739.575     6156.053        9.038        3.087      344.574       96.171        0.078      332.707        1.540      856.188
12/16/2021  06:08:00     -228.942       55.342       -1.384      117.240       67.426       47.247    13745.106     4546.227     2232.306        3.800        1.026      235.536       43.319        0.034      332.674        1.488      856.185
12/16/2021  06:09:00     -256.081       34.765       -5.827      156.890       95.183       70.401    24614.519     9059.790     4956.272        5.272        1.932      258.430       75.186        0.085      332.709        1.545      856.211
12/16/2021  06:10:00     -245.103       50.418      -15.040      113.328       98.087       49.102    12843.151     9621.031     2411.001        4.385        1.244      250.234       42.643        0.029      332.703        1.534      856.249
12/16/2021  06:11:00     -256.520       65.183       -4.258      130.441       80.041       52.577    17014.745     6406.544     2764.300        4.812        1.309      264.672       45.203        0.029      332.708        1.542      856.290
12/16/2021  06:12:00     -269.038       46.760      -21.680      108.428       68.654       41.823    11756.701     4713.356     1749.169        4.663        0.911      273.071       43.507        0.025      332.757        1.624      856.292
12/16/2021  06:13:00     -117.972        2.682       -4.683      136.274       77.124       69.501    18570.567     5948.170     4830.357        2.164        1.467      118.003       59.991        0.258      332.785        1.671      856.255
12/16/2021  06:14:00     -183.055        4.952      -11.254      136.001       90.101       66.183    18496.233     8118.244     4380.171        3.232        1.550      183.122       70.309        0.147      332.782        1.666      856.253
12/16/2021  06:15:00      -97.040       -3.819        0.493       77.862       63.100       58.395     6062.450     3981.663     3409.923        1.144        0.673       97.115       43.787        0.203      332.779        1.664      856.252
12/16/2021  06:16:00     -213.796      -30.693       -9.196      169.406      116.026       79.218    28698.236    13462.101     6275.496        4.758        2.422      215.988       80.143        0.138      332.820        1.730      856.258
12/16/2021  06:17:00     -131.550       29.809       -7.153      120.162       95.608       70.315    14439.010     9140.817     4944.129        2.338        1.426      134.885       58.233        0.186      332.860        1.797      856.258
12/16/2021  06:18:00     -297.021       67.018      -28.064      101.165       67.992       37.799    10234.336     4622.946     1428.770        5.489        0.814      304.488       15.613        0.003      332.856        1.788      856.277
12/16/2021  06:19:00     -147.744       41.756       -1.923       98.384       92.708       59.833     9679.361     8594.862     3579.944        2.271        1.093      153.531       40.879        0.071      332.824        1.737      856.264
12/16/2021  06:20:00     -259.111       13.025      -14.797      229.968      106.211       65.310    52885.077    11280.831     4265.439        6.797        3.422      259.438       81.946        0.100      332.880        1.828      856.278
12/16/2021  06:21:00      -93.007      -14.783      -17.705      101.690       84.611       55.651    10340.911     7158.981     3096.991        1.489        1.030       94.174       38.800        0.170      332.859        1.795      856.283
12/16/2021  06:22:00     -223.222       -7.600      -21.827      163.691       92.308       55.679    26794.771     8520.791     3100.108        4.438        1.921      223.351       28.044        0.016      332.887        1.838      856.276
12/16/2021  06:23:00     -214.777       10.959       -4.564      120.369      125.070       80.144    14488.754    15642.482     6422.987        4.141        1.828      215.056       56.691        0.069      332.891        1.845      856.294
12/16/2021  06:24:00     -209.240       42.867       12.176      167.046      146.166       83.614    27904.475    21364.646     6991.359        5.100        2.813      213.586       81.861        0.147      332.926        1.905      856.325
12/16/2021  06:25:00     -223.001      -63.175      -22.833      195.740      135.783       78.635    38314.178    18437.051     6183.409        5.858        3.147      231.777       85.676        0.137      332.954        1.949      856.325
12/16/2021  06:26:00     -376.798      -16.482      -30.966      184.446      109.082       85.085    34020.378    11898.951     7239.381        9.817        2.658      377.158       78.006        0.043      333.016        2.052      856.325
12/16/2021  06:27:00      -99.480      -32.204       -2.664      156.556      102.008       67.896    24509.838    10405.592     4609.877        2.523        1.976      104.562       51.311        0.241      333.014        2.051      856.341
12/16/2021  06:28:00     -262.223      -18.963       -4.811      132.567       76.779       61.094    17573.890     5895.033     3732.521        4.817        1.360      262.908       56.291        0.046      333.019        2.056      856.339
12/16/2021  06:29:00     -140.257      -31.327      -18.743       99.986       67.775       55.120     9997.266     4593.423     3038.177        1.931        0.881      143.713       49.374        0.118      333.068        2.139      856.332
12/16/2021  06:30:00     -145.273      -38.405      -22.052      121.365       72.024       55.816    14729.406     5187.437     3115.439        2.304        1.152      150.264       66.682        0.197      333.026        2.070      856.333
12/16/2021  06:31:00     -290.285      -13.375      -27.788      232.181      143.496       79.607    53907.847    20591.203     6337.209        8.301        4.042      290.593       58.664        0.041      333.061        2.127      856.329
12/16/2021  06:32:00     -253.486       26.170      -30.971      152.328       98.462       56.265    23203.933     9694.792     3165.723        5.098        1.803      254.833       50.690        0.040      333.086        2.168      856.306
12/16/2021  06:33:00     -221.505      -11.370      -20.780      246.220       81.945       62.842    60624.259     6715.044     3949.112        6.044        3.564      221.796       75.436        0.116      333.098        2.189      856.281
12/16/2021  06:34:00     -268.552       55.213       -5.750      193.830      115.282       83.514    37569.991    13289.858     6974.647        6.651        2.892      274.169       93.546        0.116      333.067        2.138      856.328
12/16/2021  06:35:00     -402.654       39.701      -18.394      266.594      126.257       79.912    71072.301    15940.756     6385.919       12.870        4.670      404.607       74.364        0.034      333.130        2.240      856.337
12/16/2021  06:36:00     -293.352       55.077      -10.312      177.506      150.998       79.274    31508.225    22800.341     6284.365        7.488        3.030      298.478       59.208        0.039      333.107        2.202      856.343
12/16/2021  06:37:00     -525.112        0.162        1.234      352.989      227.248      111.433   124601.153    51641.680    12417.347       23.217        9.433      525.112       33.822        0.004      333.077        2.153      856.303
12/16/2021  06:38:00     -314.508       86.053       -3.018      188.326      153.410       78.900    35466.514    23534.563     6225.133        8.577        3.261      326.068       83.068        0.065      333.123        2.229      856.321
12/16/2021  06:39:00     -125.084      -31.830        1.586      109.836      139.462       64.461    12063.937    19449.686     4155.190        2.616        1.783      129.070       49.788        0.149      333.114        2.215      856.375
12/16/2021  06:40:00     -379.620      -16.685      -24.879      216.707      136.870      101.095    46961.990    18733.266    10220.127       11.045        3.796      379.987       97.464        0.066      333.147        2.268      856.366
12/16/2021  06:41:00     -662.817       64.647        9.311      319.311      134.363      102.491   101959.525    18053.521    10504.371       28.703        6.526      665.962       86.077        0.017      332.974        1.984      856.393
12/16/2021  06:42:00     -264.896       24.808      -14.926      165.507      104.841       71.340    27392.656    10991.670     5089.461        5.723        2.174      266.055       74.704        0.079      333.143        2.264      856.436
12/16/2021  06:43:00     -399.887      -67.442        5.255      413.080      143.314      103.288   170635.120    20538.935    10668.394       18.313       10.092      405.534       51.277        0.016      332.979        1.993      856.466
12/16/2021  06:44:00     -221.024      -10.781      -24.856      141.344      106.266       60.041    19978.094    11292.495     3604.977        4.222        1.744      221.287       64.361        0.085      333.087        2.171      856.495
12/16/2021  06:45:00     -162.849       47.971       -9.783      108.292       92.421       55.839    11727.200     8541.710     3117.969        2.615        1.169      169.768       53.799        0.100      333.074        2.150      856.534
12/16/2021  06:46:00     -138.258        2.518      -21.282       68.469       96.079       42.934     4688.058     9231.190     1843.358        1.767        0.788      138.281       22.936        0.028      333.070        2.145      856.614
12/16/2021  06:47:00     -205.985       -1.780      -10.976      154.541      123.878       71.895    23883.043    15345.781     5168.826        4.347        2.220      205.993       84.019        0.166      332.992        2.013      856.687
12/16/2021  06:48:00     -234.708      -51.806      -32.950      117.239      104.636       56.947    13745.077    10948.636     3242.983        4.339        1.397      240.357       48.797        0.041      333.066        2.134      856.741
12/16/2021  06:49:00     -130.070       85.081      -14.794       66.527       54.336       35.606     4425.880     2952.413     1267.813        1.651        0.432      155.425       26.198        0.028      332.974        1.985      856.774
12/16/2021  06:50:00     -168.487       34.717      -13.185      139.145       99.964       63.313    19361.277     9992.741     4008.559        3.156        1.668      172.027       65.865        0.147      332.970        1.976      856.814
12/16/2021  06:51:00      -96.809       39.817       -5.259      106.652       68.901       57.887    11374.608     4747.346     3350.903        1.523        0.974      104.677       60.327        0.332      332.929        1.911      856.844
12/16/2021  06:52:00      -29.328      -47.164      -16.482       83.126       69.519       44.413     6909.869     4832.848     1972.481        0.853        0.686       55.539       29.008        0.273      332.940        1.930      856.840
12/16/2021  06:53:00      -22.196       22.907      -12.787       50.115       96.860       34.404     2511.464     9381.905     1183.614        0.713        0.654       31.897       26.578        0.694      332.907        1.876      856.832
12/16/2021  06:54:00     -165.835       -6.086       -1.205      119.116       83.310       69.890    14188.664     6940.617     4884.574        2.677        1.301      165.946       67.616        0.166      332.894        1.852      856.813
12/16/2021  06:55:00     -196.769        8.383      -13.367      107.385       76.282       54.162    11531.483     5819.006     2933.548        2.962        1.014      196.947       52.682        0.072      332.868        1.808      856.811
12/16/2021  06:56:00      -24.558        5.402       13.763       71.672       70.762       59.693     5136.839     5007.196     3563.235        0.726        0.685       25.145       32.945        1.717      332.825        1.740      856.912
12/16/2021  06:57:00      -63.389       45.450        4.243      108.446       62.771       47.361    11760.512     3940.232     2243.088        1.202        0.897       77.999       36.260        0.216      332.802        1.700      857.001
12/16/2021  06:58:00     -109.179       85.002      -10.988       97.228      124.987       54.579     9453.381    15621.648     2978.849        2.365        1.403      138.367       41.545        0.090      332.846        1.771      856.990
12/16/2021  06:59:00     -175.301       22.791        7.221      138.615       96.843       60.904    19213.985     9378.484     3709.283        3.180        1.615      176.776       66.116        0.140      332.822        1.732      856.999
12/16/2021  07:00:00     -192.458       59.825       -1.017      118.121       92.261       56.238    13952.624     8512.117     3162.723        3.312        1.281      201.542       51.711        0.066      332.873        1.817      857.032
12/16/2021  07:01:00     -104.259       55.500       -0.596       84.095       63.652       28.965     7072.046     4051.577      838.976        1.295        0.598      118.111       17.204        0.021      332.856        1.791      857.059
12/16/2021  07:02:00      -46.321      -10.655       -6.540       44.435       34.639       28.653     1974.498     1199.854      821.009        0.315        0.200       47.530       18.627        0.154      332.848        1.778      857.079
12/16/2021  07:03:00      -17.280       63.025       -5.529       39.207       61.266       26.409     1537.199     3753.504      697.456        0.514        0.299       65.351       12.743        0.038      332.893        1.851      857.107
12/16/2021  07:04:00      -20.256       43.866       -6.880       59.989       71.638       37.627     3598.713     5131.934     1415.793        0.626        0.507       48.317       17.025        0.124      332.915        1.888      857.123
12/16/2021  07:05:00      -24.417       93.829        0.632       67.659       61.039       32.585     4577.756     3725.699     1061.768        0.938        0.468       96.954       24.879        0.066      332.941        1.933      857.169
12/16/2021  07:06:00      -24.918       99.047       -2.982       49.901       89.701       34.553     2490.125     8046.242     1193.902        1.108        0.587      102.133       32.560        0.102      332.962        1.964      857.217
12/16/2021  07:07:00        8.416       45.887       -3.259       25.450       26.402       15.852      647.715      697.053      251.293        0.189        0.080       46.652       12.113        0.067      332.919        1.896      857.239
12/16/2021  07:08:00       36.386       67.382       -5.448       31.648       51.840       26.461     1001.586     2687.401      700.183        0.514        0.219       76.578       14.561        0.036      333.005        2.037      857.247
12/16/2021  07:09:00      -31.839      164.159      -18.463       53.712       59.965       31.684     2884.929     3595.791     1003.877        1.789        0.374      167.218       17.130        0.010      333.011        2.045      857.237
12/16/2021  07:10:00      -13.623      208.221      -15.048       53.794       60.978       32.021     2893.821     3718.321     1025.328        2.570        0.382      208.666       25.408        0.015      333.013        2.048      857.262
12/16/2021  07:11:00       12.140      171.394      -13.800       59.232      102.517       34.162     3508.483    10509.781     1167.066        2.245        0.759      171.824       39.151        0.052      333.084        2.167      857.275
12/16/2021  07:12:00        6.864       52.658      -15.727       42.519       44.687       23.614     1807.876     1996.955      557.619        0.371        0.218       53.104       18.541        0.122      333.029        2.079      857.269
12/16/2021  07:13:00       81.975       64.861      -28.954       38.478       36.267       27.200     1480.556     1315.321      739.858        0.765        0.177      104.532       17.230        0.027      332.850        1.782      857.247
12/16/2021  07:14:00      126.218       88.801      -23.161       53.221       46.959       25.554     2832.458     2205.140      653.030        1.502        0.285      154.326       19.649        0.016      332.711        1.551      857.246
12/16/2021  07:15:00      199.947      129.400      -25.980       75.107       46.085       36.890     5641.103     2123.845     1360.843        3.326        0.456      238.166       23.970        0.010      332.785        1.669      857.224
12/16/2021  07:16:00      134.914       43.360      -14.623       50.020       56.306       26.507     2502.032     3170.408      702.642        1.333        0.319      141.711       26.884        0.036      332.879        1.827      857.244
12/16/2021  07:17:00      219.114       40.100      -22.820      107.616       67.078       41.799    11581.270     4499.474     1747.153        3.398        0.891      222.753       28.788        0.017      332.810        1.712      857.224
12/16/2021  07:18:00       98.287       55.520       -7.741       68.739       33.404       26.311     4725.085     1115.797      692.276        0.967        0.327      112.884       26.456        0.055      333.000        2.029      857.314
12/16/2021  07:19:00     -111.987       29.634      -23.316       54.510       39.379       28.737     2971.390     1550.734      825.788        0.965        0.267      115.841       21.665        0.035      332.706        1.542      857.389
12/16/2021  07:20:00      -26.967      135.089      -21.185       45.319       85.487       32.453     2053.769     7307.945     1053.207        1.492        0.521      137.754       31.473        0.052      333.002        2.031      857.466
12/16/2021  07:21:00       89.013      152.092      -19.548       79.926       72.211       33.659     6388.176     5214.472     1132.946        2.208        0.637      176.225       26.886        0.023      333.118        2.221      857.435
12/16/2021  07:22:00      191.763      146.239      -25.439       87.276       80.157       47.060     7617.119     6425.077     2214.611        3.753        0.813      241.161       39.334        0.027      333.045        2.100      857.387
12/16/2021  07:23:00      204.617      124.346      -42.695      128.542      120.548       65.179    16523.146    14531.899     4248.322        4.722        1.765      239.437       70.580        0.087      332.922        1.898      857.379
12/16/2021  07:24:00      320.501      223.740      -36.487      138.300       92.434       80.905    19126.801     8544.101     6545.650        9.416        1.711      390.871       62.347        0.025      332.917        1.887      857.368
12/16/2021  07:25:00      186.627      212.426      -27.564      132.160       98.112       66.281    17466.381     9625.992     4393.154        5.609        1.574      282.763       48.469        0.029      333.002        2.028      857.389
12/16/2021  07:26:00      179.883      305.854      -40.371       90.867      111.923       56.223     8256.749    12526.760     3161.069        7.574        1.197      354.831       54.642        0.024      333.202        2.360      857.450
12/16/2021  07:27:00      212.922      148.358      -37.397      102.514       75.844       49.524    10509.195     5752.245     2452.599        4.373        0.936      259.511       37.814        0.021      333.201        2.359      857.451
12/16/2021  07:28:00      272.294      167.732      -25.747      173.200       84.906       67.552    29998.380     7208.975     4563.315        7.235        2.089      319.810       67.739        0.045      333.335        2.579      857.460
12/16/2021  07:29:00       75.462      141.640      -18.877       79.291       83.115       57.142     6286.999     6908.037     3265.192        2.128        0.823      160.488       42.270        0.069      333.400        2.687      857.490
12/16/2021  07:30:00      -32.544       26.074        6.092      102.766       59.633       49.844    10560.799     3556.088     2484.433        0.919        0.830       41.701       47.415        1.293      333.163        2.297      857.551
12/16/2021  07:31:00     -207.001        1.185       -3.789      144.448       84.021       59.350    20865.183     7059.486     3522.364        3.715        1.572      207.004       63.555        0.094      332.895        1.853      857.595
12/16/2021  07:32:00     -180.621       35.313      -24.629       61.219       51.333       32.877     3747.786     2635.050     1080.924        2.097        0.373      184.041       25.957        0.020      332.790        1.680      857.663
12/16/2021  07:33:00     -125.559       73.708      -30.258       71.239       56.699       54.453     5074.992     3214.812     2965.094        1.668        0.563      145.595       26.743        0.034      332.791        1.681      857.759
12/16/2021  07:34:00      -71.951      172.281      -27.564       44.699       72.056       35.931     1997.966     5192.060     1291.015        2.205        0.424      186.702       25.173        0.018      332.971        1.978      857.861
12/16/2021  07:35:00       15.021      144.326      -14.800       62.150       60.568       23.170     3862.564     3668.542      536.846        1.467        0.403      145.106       17.110        0.014      332.998        2.025      857.885
12/16/2021  07:36:00      191.144       70.394      -17.277       78.248       69.531       37.703     6122.775     4834.582     1421.508        2.708        0.619      203.694       40.033        0.039      332.912        1.880      857.845
12/16/2021  07:37:00      249.685      148.535      -21.885       94.172       81.152       52.868     8868.388     6585.607     2795.050        5.156        0.912      290.525       49.123        0.029      332.951        1.942      857.774
12/16/2021  07:38:00      263.117      177.120      -43.200       79.912       52.344       46.310     6385.940     2739.879     2144.608        5.687        0.564      317.178       34.835        0.012      333.007        2.036      857.729
12/16/2021  07:39:00      327.882       90.351      -26.490       74.452       65.252       44.311     5543.118     4257.827     1963.455        6.407        0.588      340.103       30.730        0.008      332.929        1.906      857.661
12/16/2021  07:40:00      182.239       26.707      -17.576      112.076       92.595       58.535    12561.024     8573.899     3426.351        2.939        1.228      184.185       49.663        0.073      332.801        1.697      857.534
12/16/2021  07:41:00      206.139      131.292      -12.288      118.145       52.892       51.988    13958.124     2797.528     2702.746        3.967        0.973      244.399       33.930        0.019      332.777        1.657      857.585
12/16/2021  07:42:00       -3.356       60.852       -4.874       58.863       38.394       34.343     3464.904     1474.099     1179.451        0.493        0.306       60.945       20.640        0.115      332.867        1.810      857.672
12/16/2021  07:43:00      175.594      192.437      -34.726      101.359       82.522       44.050    10273.707     6809.855     1940.376        4.404        0.951      260.510       44.881        0.030      333.079        2.155      857.690
12/16/2021  07:44:00       91.320      140.406      -12.959       83.495       59.461       34.402     6971.349     3535.659     1183.467        1.995        0.585      167.491       40.204        0.058      332.988        2.007      857.682
12/16/2021  07:45:00       86.830      243.868      -18.569       56.943       85.596       43.407     3242.476     7326.638     1884.156        3.990        0.623      258.865       46.468        0.032      333.014        2.046      857.705
12/16/2021  07:46:00      139.705      333.227      -41.768       74.749       66.559       34.417     5587.369     4430.050     1184.531        7.175        0.560      361.328       36.517        0.010      333.051        2.109      857.750
12/16/2021  07:47:00      230.670      185.166      -49.073      109.242       87.659       52.199    11933.833     7684.022     2724.741        5.612        1.117      295.796       40.674        0.019      333.048        2.105      857.729
12/16/2021  07:48:00      121.640      197.196      -33.437       82.600       82.238       47.078     6822.701     6763.025     2216.373        3.530        0.790      231.695       45.925        0.039      333.121        2.226      857.721
12/16/2021  07:49:00      204.424      134.951      -30.390       98.551       71.801       56.261     9712.292     5155.437     3165.289        3.948        0.902      244.951       50.200        0.042      332.997        2.020      857.670
12/16/2021  07:50:00      -12.860      141.756      -33.147      122.756       81.500       44.490    15069.006     6642.173     1979.354        2.252        1.185      142.339       21.834        0.024      333.022        2.063      857.686
12/16/2021  07:51:00      -79.077      168.255      -23.460       67.050       60.731       44.397     4495.679     3688.295     1971.067        2.263        0.508      185.911       20.550        0.012      332.986        2.004      857.765
12/16/2021  07:52:00      -37.796      160.302      -29.851       89.267       55.378       36.829     7968.526     3066.670     1356.392        2.020        0.620      164.698       29.974        0.033      333.032        2.080      857.863
12/16/2021  07:53:00      -19.127      134.680      -10.372       60.619       78.597       34.154     3674.668     6177.445     1166.485        1.481        0.551      136.032       36.253        0.071      332.992        2.014      857.868
12/16/2021  07:54:00      113.951      206.729      -27.018       55.619       59.151       28.713     3093.505     3498.869      824.439        3.193        0.371      236.054       25.371        0.012      333.058        2.123      857.841
12/16/2021  07:55:00      147.125      129.971      -23.848       69.357       62.055       37.204     4810.340     3850.802     1384.101        2.457        0.502      196.311       28.849        0.022      332.957        1.955      857.813
12/16/2021  07:56:00      182.996      126.925      -26.624       69.463       50.592       45.304     4825.128     2559.598     2052.414        2.987        0.472      222.705       27.051        0.015      332.869        1.808      857.811
12/16/2021  07:57:00       67.209       75.408       -1.825       54.913       48.393       31.054     3015.461     2341.858      964.381        0.826        0.316      101.011       24.232        0.058      332.890        1.848      857.812
12/16/2021  07:58:00       90.430       84.354      -20.335       77.474       67.625       49.224     6002.156     4573.192     2423.038        1.435        0.650      123.666       39.743        0.103      332.921        1.897      857.809
12/16/2021  07:59:00       79.657        2.426      -10.454       63.500       42.867       33.743     4032.237     1837.620     1138.588        0.673        0.350       79.694       19.565        0.060      332.863        1.803      857.805
12/16/2021  08:00:00       85.977       20.860        5.573       59.179       30.185       28.146     3502.098      911.134      792.197        0.653        0.260       88.471       32.513        0.135      332.806        1.709      857.816
12/16/2021  08:01:00      -86.236       61.579      -16.007       42.122       32.434       17.399     1774.284     1051.988      302.736        0.731        0.156      105.965       21.092        0.040      332.759        1.632      857.857
12/16/2021  08:02:00       -3.777      126.743      -43.493       84.195       89.288       41.564     7088.845     7972.435     1727.537        1.738        0.839      126.800       28.353        0.050      332.912        1.883      857.919
12/16/2021  08:03:00      -54.207       44.281      -12.526       54.308       40.701       28.624     2949.393     1656.572      819.357        0.524        0.271       69.994       22.029        0.099      332.925        1.905      857.963
12/16/2021  08:04:00       -2.835        2.805       -0.501       27.564       21.270       18.296      759.784      452.428      334.726        0.078        0.077        3.988        5.981        2.249      332.957        1.957      857.987
12/16/2021  08:05:00      -62.243       -5.254      -11.182       65.485       33.903       28.660     4288.318     1149.404      821.399        0.514        0.313       62.464       33.479        0.287      332.964        1.968      858.022
12/16/2021  08:06:00     -100.930        8.250       -8.951       37.190       35.145       23.018     1383.088     1235.148      529.832        0.674        0.157      101.266       17.397        0.030      332.967        1.974      858.043
12/16/2021  08:07:00      -82.327      -18.912       -7.756       54.946       28.429       27.600     3019.059      808.216      761.746        0.589        0.229       84.472       30.502        0.130      332.911        1.882      858.037
12/16/2021  08:08:00        6.198        6.214       -8.160       13.912       14.358       13.631      193.556      206.158      185.808        0.036        0.029        8.777        7.238        0.680      332.959        1.961      858.003
12/16/2021  08:09:00       44.297      113.230      -11.443       38.866       62.176       26.128     1510.534     3865.805      682.670        1.049        0.303      121.586       28.372        0.054      333.177        2.321      857.986
12/16/2021  08:10:00      -24.924      133.111      -10.159       39.364       43.289       22.785     1549.488     1873.956      519.159        1.119        0.197      135.424       16.926        0.016      333.216        2.385      857.968
12/16/2021  08:11:00      116.894       82.865       -5.251       56.042       36.136       33.816     3140.725     1305.841     1143.497        1.307        0.280      143.285       22.802        0.025      333.049        2.111      857.957
12/16/2021  08:12:00       55.906      100.985       -9.472       41.952       28.950       21.848     1759.966      838.127      477.337        0.824        0.154      115.427       18.473        0.026      333.062        2.133      857.975
12/16/2021  08:13:00      -15.840      107.643       -4.132       41.055       52.239       30.289     1685.489     2728.933      917.434        0.859        0.267      108.803       24.079        0.049      332.944        1.936      858.007
12/16/2021  08:14:00      -27.540       42.512      -11.114       27.043       36.459       27.393      731.336     1329.228      750.358        0.275        0.141       50.653       11.371        0.050      332.924        1.904      858.042
12/16/2021  08:15:00      -23.618       11.639       -5.661       24.717       24.356       19.532      610.954      593.192      381.487        0.116        0.079       26.330       12.058        0.210      332.842        1.770      858.074
12/16/2021  08:16:00        6.295       -9.066      -12.291       30.147       26.222       20.236      908.867      687.594      409.511        0.114        0.100       11.037       14.332        1.686      332.849        1.780      858.099
12/16/2021  08:17:00      -73.025      -12.228        2.999       72.458       45.211       35.024     5250.095     2044.061     1226.711        0.700        0.426       74.042       35.533        0.230      332.739        1.596      858.143
12/16/2021  08:18:00     -110.256        2.978       -1.077      109.822       53.706       42.312    12060.859     2884.382     1790.286        1.445        0.837      110.296       37.176        0.114      332.649        1.448      858.212
12/16/2021  08:19:00     -108.768       54.154      -11.386       48.635       49.235       30.291     2365.373     2424.112      917.548        1.030        0.285      121.504       22.475        0.034      332.640        1.434      858.249
12/16/2021  08:20:00     -109.865       59.366      -11.498       54.580       41.596       33.403     2978.956     1730.187     1115.776        1.077        0.291      124.879       25.541        0.042      332.594        1.357      858.245
12/16/2021  08:21:00      -59.471       55.498      -13.530       25.422       28.598       19.490      646.295      817.869      379.857        0.432        0.092       81.344       18.508        0.052      332.588        1.349      858.232
12/16/2021  08:22:00      -86.193       75.616      -10.703       28.493       23.208       19.223      811.833      538.614      369.524        0.749        0.086      114.660       15.649        0.019      332.667        1.480      858.237
12/16/2021  08:23:00     -124.184       64.751      -18.308       36.273       19.672       25.687     1315.717      386.973      659.833        1.116        0.118      140.051       18.832        0.018      332.684        1.506      858.256
12/16/2021  08:24:00        1.986       67.325      -12.723       38.174       29.154       20.364     1457.247      849.966      414.677        0.371        0.136       67.355       16.163        0.058      332.904        1.869      858.224
12/16/2021  08:25:00      113.476       67.244      -16.197       39.569       30.677       21.625     1565.692      941.084      467.650        1.032        0.149      131.904       15.139        0.013      332.717        1.561      858.187
12/16/2021  08:26:00       60.432       58.716        1.377       60.986       34.309       34.209     3719.295     1177.078     1170.270        0.658        0.303       84.259       29.658        0.124      332.710        1.550      858.201
12/16/2021  08:27:00      -13.045      112.291      -25.116       54.000       56.272       30.437     2915.952     3166.509      926.399        1.021        0.350      113.047       24.242        0.046      333.117        2.223      858.247
12/16/2021  08:28:00       10.158      106.624       -8.194       63.118       87.230       34.925     3983.836     7609.001     1219.748        1.217        0.641      107.107       30.166        0.079      333.257        2.454      858.281
12/16/2021  08:29:00      -22.562       65.997       -1.828       81.804       37.590       31.594     6691.917     1413.020      998.154        0.698        0.455       69.747       23.681        0.115      332.877        1.826      858.327
12/16/2021  08:30:00     -104.356       15.978       -7.276      114.488       60.056       43.526    13107.399     3606.718     1894.513        1.490        0.930      105.572       23.784        0.051      332.597        1.362      858.379
12/16/2021  08:31:00     -214.028       58.508      -12.359       95.923       51.020       41.897     9201.302     2603.006     1755.317        3.147        0.678      221.881       49.576        0.050      332.480        1.167      858.397
12/16/2021  08:32:00      -45.747       78.727       -7.724       60.814       41.175       20.811     3698.382     1695.360      433.093        0.709        0.291       91.053        8.120        0.008      332.586        1.344      858.365
12/16/2021  08:33:00        3.754       92.295       -3.595       27.632       20.638       13.174      763.500      425.934      173.566        0.495        0.068       92.371        7.920        0.007      332.803        1.705      858.330
12/16/2021  08:34:00      -15.908       52.105       -7.895       45.096       17.921       13.765     2033.606      321.167      189.462        0.279        0.127       54.480       12.370        0.052      332.924        1.904      858.322
12/16/2021  08:35:00      -23.206       95.573       -8.951       24.773       39.616       15.479      613.678     1569.416      239.593        0.609        0.121       98.350       10.793        0.012      332.836        1.757      858.328
12/16/2021  08:36:00      -66.066       58.639      -14.472       19.531       25.276       17.403      381.476      638.861      302.878        0.467        0.066       88.336       14.017        0.025      332.895        1.855      858.344
12/16/2021  08:37:00      -54.483       32.074      -11.700       10.304       14.485       10.947      106.182      209.801      119.829        0.228        0.022       63.223        8.386        0.018      332.798        1.695      858.374
12/16/2021  08:38:00      -55.573       25.160       -4.857       16.490       14.224       15.180      271.934      202.328      230.440        0.222        0.035       61.004        9.430        0.024      332.933        1.919      858.389
12/16/2021  08:39:00      -29.379        5.717        1.307       26.041       16.977        9.521      678.136      288.215       90.652        0.098        0.053       29.930        8.227        0.076      332.985        2.005      858.404
12/16/2021  08:40:00      -25.684       21.772       -7.353       13.650       10.767        9.635      186.315      115.935       92.841        0.079        0.020       33.670        5.741        0.029      333.042        2.100      858.407
12/16/2021  08:41:00      -24.807       58.191       -6.616       21.805       18.177       15.606      475.473      330.406      243.542        0.255        0.052       63.258       11.328        0.032      333.223        2.398      858.406
12/16/2021  08:42:00       -8.929       28.183       -3.694       20.168       19.821       13.907      406.754      392.885      193.392        0.094        0.050       29.563        7.232        0.060      333.308        2.539      858.400
12/16/2021  08:43:00       -8.764       45.149       -6.290       20.366       15.087        8.559      414.780      227.624       73.248        0.144        0.036       45.992        7.189        0.024      333.234        2.415      858.409
12/16/2021  08:44:00        6.867       74.989       -7.974       21.241       43.139       18.651      451.196     1860.995      347.866        0.420        0.133       75.303       21.854        0.084      333.368        2.637      858.420
12/16/2021  08:45:00       25.182       26.718       -0.252       23.517       28.829       20.502      553.060      831.097      420.350        0.158        0.090       36.714       12.426        0.115      333.332        2.577      858.435
12/16/2021  08:46:00       11.682       29.645       -1.370       22.370       14.297       11.151      500.436      204.392      124.344        0.092        0.041       31.864        7.079        0.049      333.356        2.618      858.465
12/16/2021  08:47:00       28.573       28.707       -2.774       24.252       13.462       12.461      588.150      181.228      155.270        0.129        0.046       40.503        7.530        0.035      333.399        2.689      858.478
12/16/2021  08:48:00       62.245       21.111      -20.005       21.539       26.115       18.828      463.937      682.007      354.494        0.311        0.075       65.727       10.023        0.023      333.290        2.509      858.487
12/16/2021  08:49:00       31.636       -9.650      -20.657       26.864       35.262       23.203      721.699     1243.443      538.392        0.201        0.125       33.076       13.739        0.173      333.356        2.618      858.477
12/16/2021  08:50:00       66.339       17.789       -4.053       40.379       34.665       29.084     1630.496     1201.657      845.871        0.421        0.184       68.683       19.527        0.081      333.322        2.562      858.486
12/16/2021  08:51:00      -16.891      -20.540       -8.435       40.907       23.020       15.829     1673.356      529.923      250.566        0.162        0.123       26.593        9.417        0.125      333.295        2.516      858.500
12/16/2021  08:52:00      -32.541        3.466      -12.716       43.068       20.007       23.413     1854.843      400.280      548.154        0.202        0.140       32.725       24.687        0.569      333.403        2.697      858.537
12/16/2021  08:53:00      -73.593       -1.967      -16.324       46.113       38.919       29.759     2126.431     1514.669      885.620        0.511        0.226       73.620       17.821        0.059      333.292        2.513      858.574
12/16/2021  08:54:00     -148.754      -17.970      -21.070       49.824       33.549       26.693     2482.444     1125.565      712.523        1.361        0.216      149.835       10.659        0.005      333.303        2.531      858.596
12/16/2021  08:55:00      -70.450       -9.763       -9.854       40.036       41.837       25.830     1602.910     1750.345      667.182        0.459        0.201       71.123       20.875        0.086      333.365        2.632      858.614
12/16/2021  08:56:00     -107.846       31.360        2.961       78.833       64.105       42.134     6214.662     4109.457     1775.293        1.236        0.605      112.313       34.088        0.092      333.281        2.492      858.641
12/16/2021  08:57:00      -44.069       73.037        2.054       88.486       46.768       38.781     7829.774     2187.274     1503.979        0.940        0.576       85.303       24.630        0.083      333.366        2.635      858.657
12/16/2021  08:58:00     -161.641      -21.559       -9.144       74.462       70.590       52.187     5544.653     4982.929     2723.513        1.996        0.663      163.073       42.591        0.068      333.316        2.551      858.682
12/16/2021  08:59:00     -117.476        6.527      -10.189       41.325       24.073       25.477     1707.773      579.489      649.093        0.844        0.147      117.657       27.027        0.053      333.281        2.493      858.707
12/16/2021  09:00:00      -70.718       -0.230      -18.130       74.716       51.809       45.677     5582.475     2684.153     2086.385        0.784        0.518       70.718       42.805        0.366      333.407        2.702      858.716
12/16/2021  09:01:00      -23.992      -10.004      -16.520       52.985       45.284       30.949     2807.386     2050.599      957.814        0.338        0.291       25.994       19.044        0.537      333.417        2.718      858.729
12/16/2021  09:02:00     -114.275       47.289      -13.836       47.945       36.692       24.269     2298.765     1346.335      588.970        0.986        0.212      123.673       26.691        0.047      333.386        2.668      858.750
12/16/2021  09:03:00      -72.747        7.458       -4.084       45.074       29.517       26.947     2031.694      871.256      726.153        0.450        0.181       73.128       22.321        0.093      333.390        2.675      858.764
12/16/2021  09:04:00      -64.108       26.949      -14.021       50.972       37.552       21.016     2598.122     1410.141      441.670        0.474        0.222       69.542       21.758        0.098      333.342        2.593      858.758
12/16/2021  09:05:00      -56.432       48.484      -14.181       21.328       39.518       16.278      454.882     1561.687      264.977        0.401        0.114       74.400       14.610        0.039      333.337        2.587      858.746
12/16/2021  09:06:00      -38.546       99.288      -15.100       37.082       37.848       14.756     1375.039     1432.440      217.750        0.730        0.151      106.507       11.525        0.012      333.392        2.679      858.782
12/16/2021  09:07:00      -17.811       37.404       -1.551       42.352       33.706       34.062     1793.708     1136.079     1160.207        0.290        0.204       41.429       27.326        0.435      333.370        2.642      858.828
12/16/2021  09:08:00       -1.182       21.312      -10.966       36.435       33.319       21.654     1327.527     1110.185      468.888        0.174        0.145       21.345       16.019        0.563      333.440        2.757      858.837
12/16/2021  09:09:00       12.086       56.891      -12.112       58.215       71.982       30.609     3389.026     5181.368      936.922        0.652        0.475       58.160       36.395        0.392      333.506        2.866      858.820
12/16/2021  09:10:00     -123.538       68.147      -17.104       55.472       37.372       24.889     3077.118     1396.686      619.460        1.264        0.255      141.087       11.192        0.006      333.304        2.531      858.854
12/16/2021  09:11:00      -73.407       28.701      -20.815       50.011       40.512       32.975     2501.080     1641.201     1087.321        0.594        0.261       78.818       17.342        0.048      333.412        2.710      858.879
12/16/2021  09:12:00        1.700      143.242      -13.857       39.305       35.155       28.002     1544.887     1235.882      784.119        1.214        0.178      143.252       18.150        0.016      333.460        2.789      858.902
12/16/2021  09:13:00       -1.093      135.793      -15.976       26.316       51.435       25.834      692.510     2645.539      667.371        1.135        0.200      135.797       16.060        0.014      333.376        2.651      858.916
12/16/2021  09:14:00       21.208       56.188      -16.453       41.099       30.050       21.330     1689.120      902.988      454.968        0.346        0.152       60.058       20.874        0.121      333.413        2.712      858.914
12/16/2021  09:15:00      -39.783       93.275      -14.241       55.760       20.236       20.198     3109.175      409.495      407.953        0.721        0.196      101.405       17.571        0.030      333.374        2.649      858.917
12/16/2021  09:16:00      -44.969       79.201      -25.406       45.309       30.244       21.192     2052.932      914.690      449.093        0.618        0.171       91.077       16.233        0.032      333.356        2.617      858.926
12/16/2021  09:17:00      -15.167       49.887       -0.454       67.051       41.173       30.330     4495.781     1695.195      919.927        0.491        0.356       52.142       13.787        0.070      333.412        2.711      858.931
12/16/2021  09:18:00      -75.044       71.695       -7.057       63.580       54.996       31.171     4042.404     3024.570      971.637        0.943        0.402      103.787       36.965        0.127      333.423        2.728      858.923
12/16/2021  09:19:00      -51.240       80.455       -4.231       68.620       82.530       33.107     4708.664     6811.278     1096.068        1.086        0.631       95.386       18.463        0.037      333.416        2.717      858.934
12/16/2021  09:20:00      -49.556       55.399      -21.142       49.212       64.341       32.519     2421.810     4139.746     1057.485        0.679        0.381       74.330       24.380        0.108      333.393        2.679      858.962
12/16/2021  09:21:00     -104.489       25.726      -24.087      103.253       30.876       25.848    10661.193      953.339      668.105        1.222        0.614      107.609       21.931        0.042      333.420        2.723      858.989
12/16/2021  09:22:00     -100.671       -1.069        7.291      116.254       83.805       70.868    13515.030     7023.334     5022.260        1.787        1.278      100.676       60.698        0.363      333.501        2.857      859.063
12/16/2021  09:23:00     -119.587       32.801      -14.971       91.614       78.356       47.322     8393.134     6139.657     2239.396        1.618        0.839      124.004       36.574        0.087      333.418        2.718      859.133
12/16/2021  09:24:00      -20.312       22.449        2.333       54.393       26.845       19.684     2958.613      720.657      387.458        0.249        0.203       30.275       18.902        0.390      333.469        2.806      859.150
12/16/2021  09:25:00      -16.490       66.672      -13.321       23.728       49.969       21.512      563.014     2496.899      462.762        0.421        0.176       68.681       15.782        0.053      333.463        2.795      859.159
12/16/2021  09:26:00      -17.646       46.628       -9.383       23.501       28.605       18.765      552.277      818.231      352.114        0.215        0.086       49.855       16.884        0.115      333.520        2.890      859.174
12/16/2021  09:27:00       -0.435       -4.447      -14.959       25.068       27.230       17.753      628.406      741.487      315.161        0.096        0.084        4.468       13.896        9.673      333.729        3.235      859.185
12/16/2021  09:28:00      -77.192       40.892      -15.663       35.715       26.169       19.926     1275.533      684.836      397.050        0.512        0.118       87.354       15.129        0.030      333.537        2.917      859.218
12/16/2021  09:29:00      -40.622       74.157      -11.181       45.542       81.815       23.395     2074.063     6693.748      547.326        0.829        0.466       84.554       10.224        0.015      333.607        3.033      859.240
12/16/2021  09:30:00      -42.998       -3.464       10.389       92.609       66.609       55.037     8576.511     4436.723     3029.094        0.900        0.802       43.137       52.643        1.489      333.631        3.072      859.246
12/16/2021  09:31:00      -57.722        2.294        9.627       71.425       38.308       34.694     5101.501     1467.507     1203.686        0.560        0.389       57.768       33.490        0.336      333.673        3.142      859.253
12/16/2021  09:32:00      -44.010       55.967      -16.254       46.628       51.192       39.811     2174.181     2620.661     1584.925        0.586        0.319       71.198       38.502        0.292      333.704        3.193      859.278
12/16/2021  09:33:00      -37.427       75.036       -9.744       38.025       56.804       28.788     1445.869     3226.666      828.722        0.631        0.275       83.852       24.442        0.085      333.666        3.132      859.304
12/16/2021  09:34:00       -4.056      -12.425       -1.487       78.042       39.893       36.216     6090.503     1591.417     1311.610        0.458        0.450       13.070       21.354        2.669      333.871        3.470      859.318
12/16/2021  09:35:00      -15.205      -23.015       -1.939       75.991       59.025       35.165     5774.677     3483.955     1236.560        0.563        0.525       27.584       26.073        0.893      333.773        3.309      859.343
12/16/2021  09:36:00      -29.233        5.517        5.255       69.338       56.178       41.664     4807.806     3156.001     1735.877        0.530        0.485       29.749       28.938        0.946      333.706        3.197      859.361
12/16/2021  09:37:00      -62.999       13.635        1.568       84.535       43.547       31.763     7146.232     1896.345     1008.882        0.710        0.503       64.458       18.975        0.087      333.646        3.097      859.363
12/16/2021  09:38:00     -177.509       42.144      -12.228      118.984       80.993       50.834    14157.104     6559.793     2584.106        2.836        1.165      182.443       49.550        0.074      333.550        2.936      859.372
12/16/2021  09:39:00     -248.543        7.785      -33.311       80.910       66.470       43.798     6546.423     4418.224     1918.307        3.791        0.644      248.665       31.256        0.016      333.512        2.872      859.369
12/16/2021  09:40:00     -158.850       36.616       -8.932       60.771       51.856       30.122     3693.143     2689.033      907.321        1.697        0.364      163.015       20.769        0.016      333.602        3.023      859.372
12/16/2021  09:41:00     -136.099      -15.633       -4.953       69.730       81.137       51.439     4862.203     6583.293     2645.949        1.644        0.705      136.993       44.304        0.105      333.632        3.074      859.385
12/16/2021  09:42:00     -107.948       35.773       -2.757       62.581       46.758       38.339     3916.350     2186.290     1469.879        1.025        0.379      113.721       30.470        0.072      333.632        3.077      859.386
12/16/2021  09:43:00      -53.088       51.895       -3.060       35.671       32.678       23.247     1272.417     1067.880      540.419        0.420        0.144       74.239       14.732        0.039      333.749        3.268      859.394
12/16/2021  09:44:00      -35.513       16.484      -10.289       39.771       23.663       15.864     1581.694      559.919      251.664        0.202        0.120       39.152        6.290        0.026      333.821        3.387      859.416
12/16/2021  09:45:00       -0.324       -4.982       -5.023       13.095       28.281       15.940      171.473      799.789      254.098        0.064        0.061        4.992       18.184       13.268      334.228        4.062      859.436
12/16/2021  09:46:00      -23.432       -2.948       -0.358       61.835       43.698       22.915     3823.547     1909.539      525.099        0.341        0.313       23.617       25.271        1.145      334.069        3.800      859.463
12/16/2021  09:47:00      -16.417       33.545       -4.748       48.740       46.052       38.510     2375.540     2120.811     1483.048        0.370        0.299       37.347       22.792        0.372      333.932        3.570      859.493
12/16/2021  09:48:00       23.864       -7.808       -6.135       37.958       28.313       26.881     1440.812      801.643      722.590        0.182        0.148       25.109       13.221        0.277      334.106        3.860      859.507
12/16/2021  09:49:00      -44.719       16.696      -11.516       69.821       44.108       30.442     4874.991     1945.491      926.706        0.508        0.387       47.734       25.369        0.282      333.805        3.360      859.536
12/16/2021  09:50:00      -33.217       76.846       -6.382       54.754       54.433       32.981     2998.042     2962.987     1087.724        0.705        0.352       83.718       29.246        0.122      333.828        3.399      859.566
12/16/2021  09:51:00      -75.097       93.775      -11.706       65.833       71.667       42.750     4334.029     5136.171     1827.535        1.293        0.565      120.139       30.937        0.066      333.797        3.348      859.593
12/16/2021  09:52:00      -97.564      139.153      -34.720       91.343       80.956       42.078     8343.610     6553.873     1770.528        2.337        0.833      169.948       36.477        0.046      333.774        3.306      859.610
12/16/2021  09:53:00     -132.855       56.237      -28.689       78.905       48.013       48.214     6225.999     2305.204     2324.582        1.624        0.543      144.267       41.529        0.083      333.777        3.314      859.620
12/16/2021  09:54:00      -81.442       85.132      -21.165       82.395       75.131       54.301     6788.933     5644.601     2948.581        1.485        0.769      117.815       38.533        0.107      333.638        3.084      859.634
12/16/2021  09:55:00      -71.565      162.675       -7.556       66.360       59.439       45.367     4403.673     3532.958     2058.151        2.082        0.500      177.721       25.164        0.020      333.548        2.934      859.645
12/16/2021  09:56:00      -79.410      156.981      -38.153       97.478       76.229       57.731     9501.917     5810.867     3332.843        2.552        0.932      175.924       41.442        0.055      333.397        2.683      859.636
12/16/2021  09:57:00      -63.022      113.579       -7.421       53.928       68.772       44.040     2908.226     4729.534     1939.506        1.325        0.479      129.892       33.672        0.067      333.399        2.689      859.631
12/16/2021  09:58:00      -53.078       69.319      -12.079       77.645       99.267       60.857     6028.755     9853.883     3703.602        1.367        0.979       87.307       42.422        0.236      333.348        2.604      859.612
12/16/2021  09:59:00       11.843       -6.080       -1.593       42.632       37.304       34.994     1817.480     1391.606     1224.592        0.231        0.222       13.313       29.171        4.801      333.404        2.697      859.596
12/16/2021  10:00:00      -82.312       73.033      -22.852       44.503       45.255       30.578     1980.543     2047.975      935.036        0.880        0.248      110.042       11.554        0.011      333.339        2.590      859.585
12/16/2021  10:01:00      -61.999       75.417      -18.835       61.564       56.766       38.068     3790.185     3222.358     1449.171        0.917        0.423       97.630       12.845        0.017      333.437        2.752      859.569
12/16/2021  10:02:00      -40.800        9.710       -2.310       32.068       29.928       20.715     1028.333      895.680      429.104        0.206        0.118       41.939        8.820        0.044      333.564        2.963      859.563
12/16/2021  10:03:00      -50.497       -1.917       -8.663       36.287       32.286       24.264     1316.713     1042.395      588.763        0.279        0.147       50.533       22.418        0.197      333.654        3.112      859.552
12/16/2021  10:04:00      -75.038      -23.641      -23.600       45.423       39.864       34.798     2063.228     1589.171     1210.924        0.580        0.243       78.674       26.660        0.115      333.566        2.965      859.548
12/16/2021  10:05:00     -108.377      -15.055      -20.748       41.656       34.896       23.221     1735.238     1217.759      539.235        0.795        0.175      109.417       24.398        0.050      333.440        2.757      859.528
12/16/2021  10:06:00      -52.101       -8.391       -0.713       53.810       28.178       26.620     2895.486      793.976      708.650        0.359        0.220       52.773       30.417        0.332      333.705        3.197      859.521
12/16/2021  10:07:00      -90.298       -0.674      -11.294       52.056       47.315       34.754     2709.839     2238.749     1207.835        0.722        0.308       90.300       30.286        0.112      333.568        2.968      859.519
12/16/2021  10:08:00     -201.070       75.910      -21.027       58.295       40.028       28.243     3398.322     1602.276      797.646        2.621        0.290      214.922       19.217        0.008      333.402        2.691      859.533
12/16/2021  10:09:00     -117.204       69.121       -5.149       55.370       63.375       29.842     3065.829     4016.357      890.551        1.326        0.399      136.068       20.861        0.024      333.542        2.925      859.557
12/16/2021  10:10:00      -94.816       38.168      -25.201       62.882       55.558       36.540     3954.127     3086.709     1335.137        0.973        0.419      102.210       24.498        0.057      333.616        3.048      859.580
12/16/2021  10:11:00      -34.054       57.840      -25.519       67.751       43.334       43.754     4590.163     1877.848     1914.454        0.677        0.419       67.121       40.468        0.364      333.620        3.055      859.593
12/16/2021  10:12:00       40.770       27.078       -4.866       37.582       68.920       29.912     1412.444     4750.027      894.751        0.474        0.353       48.943       14.924        0.093      333.957        3.612      859.590
12/16/2021  10:13:00        0.202      158.657       -1.890       44.885       53.795       35.758     2014.685     2893.918     1278.601        1.568        0.309      158.657       32.079        0.041      333.758        3.281      859.594
12/16/2021  10:14:00       25.727      108.437      -12.687       38.899       38.714       25.021     1513.094     1498.800      626.058        0.811        0.182      111.447       22.011        0.039      333.861        3.455      859.579
12/16/2021  10:15:00       -0.680       91.721      -16.785       15.104       23.211       19.349      228.132      538.738      374.399        0.492        0.057       91.723       12.244        0.018      333.684        3.162      859.589
12/16/2021  10:16:00      -48.056       57.515      -13.877       33.293       23.846       23.549     1108.420      568.612      554.561        0.402        0.112       74.949       13.006        0.030      333.830        3.402      859.612
12/16/2021  10:17:00        6.949      105.896      -14.406       58.382       58.230       29.981     3408.501     3390.682      898.885        0.958        0.385      106.123       18.399        0.030      333.825        3.394      859.630
12/16/2021  10:18:00      -63.597       31.823      -32.292      105.163       85.903       52.085    11059.231     7379.275     2712.812        1.362        1.058       71.115       28.046        0.156      333.818        3.381      859.644
12/16/2021  10:19:00      -13.359       56.924      -24.400       64.563       73.208       49.505     4168.357     5359.426     2450.696        0.799        0.599       58.471       36.636        0.393      333.697        3.183      859.660
12/16/2021  10:20:00      -56.255       34.351      -10.261       66.069       35.748       26.633     4365.175     1277.944      709.311        0.540        0.318       65.913       20.164        0.094      333.782        3.324      859.667
12/16/2021  10:21:00      -26.266       45.627       -2.080       26.659       27.651       17.592      710.687      764.579      309.468        0.228        0.089       52.648       11.475        0.048      333.929        3.568      859.674
12/16/2021  10:22:00       36.738       28.452       -6.788       36.471       32.445       24.960     1330.160     1052.702      623.022        0.261        0.150       46.467       12.151        0.068      334.038        3.748      859.669
12/16/2021  10:23:00       39.624      119.348      -25.555       66.120       60.555       28.720     4371.834     3666.940      824.816        1.266        0.443      125.754       25.381        0.041      333.977        3.645      859.669
12/16/2021  10:24:00      -10.472       53.893       -8.132       48.344       74.460       35.368     2337.113     5544.253     1250.885        0.610        0.457       54.901       15.402        0.079      333.958        3.614      859.684
12/16/2021  10:25:00      116.971      237.550      -32.310       54.676      115.227       38.455     2989.482    13277.367     1478.752        4.445        0.887      264.787       44.429        0.028      333.770        3.300      859.691
12/16/2021  10:26:00        4.556      205.474      -31.757      101.119      122.293       40.851    10225.057    14955.624     1668.820        3.504        1.342      205.524       43.648        0.045      333.687        3.162      859.716
12/16/2021  10:27:00      104.408      261.835      -29.940       64.405      103.133       51.269     4147.987    10636.372     2628.561        4.888        0.871      281.884       45.488        0.026      333.607        3.030      859.731
12/16/2021  10:28:00       75.703      245.372      -31.448       93.680       88.906       49.375     8776.034     7904.288     2437.872        4.302        0.956      256.785       47.350        0.034      333.650        3.101      859.746
12/16/2021  10:29:00       19.136      288.066      -24.659       99.503      114.980       60.123     9900.829    13220.498     3614.773        5.534        1.337      288.701       64.627        0.050      333.554        2.941      859.766
12/16/2021  10:30:00       38.616      301.023      -24.328       70.454       74.178       51.621     4963.738     5502.322     2664.778        5.291        0.657      303.490       39.136        0.017      333.508        2.866      859.785
12/16/2021  10:31:00       80.136      258.137      -20.531       75.418      112.841       55.877     5687.827    12733.070     3122.271        4.751        1.077      270.289       68.689        0.065      333.540        2.919      859.776
12/16/2021  10:32:00       84.031      263.058      -29.683       71.265       78.131       43.707     5078.712     6104.448     1910.333        4.512        0.655      276.153       44.634        0.026      333.577        2.979      859.771
12/16/2021  10:33:00       49.131      286.587      -34.269       91.668      121.488       52.008     8402.968    14759.318     2704.872        5.579        1.293      290.768       57.571        0.039      333.563        2.958      859.785
12/16/2021  10:34:00       29.097      198.598      -18.972       91.893       80.993       38.197     8444.353     6559.791     1458.993        2.855        0.823      200.719       31.794        0.025      333.729        3.234      859.802
12/16/2021  10:35:00      -20.594      119.837      -13.468       74.854       58.375       45.777     5603.148     3407.660     2095.578        1.303        0.555      121.594       34.982        0.083      333.746        3.262      859.802
12/16/2021  10:36:00       12.103      151.223      -35.441       81.147       87.617       40.581     6584.769     7676.719     1646.808        2.009        0.795      151.707       36.656        0.058      333.707        3.196      859.796
12/16/2021  10:37:00       41.818      186.938      -22.329       61.317       64.056       41.460     3759.825     4103.205     1718.955        2.339        0.479      191.558       36.865        0.037      333.711        3.203      859.788
12/16/2021  10:38:00       17.513      205.762      -21.592       92.767       79.705       48.771     8605.741     6352.910     2378.631        3.022        0.867      206.506       35.034        0.029      333.632        3.072      859.780
12/16/2021  10:39:00       37.649      241.223      -19.877       57.391      103.043       49.914     3293.729    10617.795     2491.440        3.820        0.820      244.143       54.333        0.050      333.610        3.035      859.780
12/16/2021  10:40:00      -16.488      210.355      -24.843      106.946       76.910       36.669    11437.358     5915.074     1344.614        3.191        0.935      211.001       28.110        0.018      333.662        3.122      859.795
12/16/2021  10:41:00       17.125      203.136      -17.325       64.717       64.636       45.736     4188.265     4177.862     2091.812        2.616        0.523      203.857       42.780        0.044      333.708        3.197      859.804
12/16/2021  10:42:00       46.843      244.689      -27.048       79.018       69.014       48.751     6243.847     4762.921     2376.667        3.809        0.669      249.132       44.976        0.033      333.648        3.097      859.801
12/16/2021  10:43:00       41.857      153.013      -16.372       49.547       67.230       41.686     2454.903     4519.852     1737.682        1.707        0.436      158.634       35.896        0.051      333.784        3.326      859.810
12/16/2021  10:44:00       50.346      170.629      -19.727       78.065       81.701       49.972     6094.143     6675.022     2497.236        2.365        0.763      177.901       43.800        0.061      333.644        3.093      859.823
12/16/2021  10:45:00      -60.107      142.438      -16.269       69.490       70.152       35.255     4828.834     4921.253     1242.907        1.758        0.550      154.601       20.268        0.017      333.724        3.226      859.826
12/16/2021  10:46:00       -6.513      242.664      -16.794       70.363       73.015       44.575     4950.954     5331.128     1986.910        3.574        0.613      242.752       26.669        0.012      333.666        3.127      859.837
12/16/2021  10:47:00     -133.634      224.289      -36.000      108.488      101.813       53.973    11769.637    10365.872     2913.135        4.725        1.252      261.081       46.623        0.032      333.560        2.951      859.832
12/16/2021  10:48:00      -34.510      158.452      -19.797       60.122       79.016       37.647     3614.656     6243.520     1417.329        1.898        0.564      162.166       30.645        0.036      333.757        3.279      859.835
12/16/2021  10:49:00       31.225      177.612      -15.355       76.003       95.476       39.178     5776.436     9115.668     1534.899        2.459        0.821      180.336       43.624        0.059      333.682        3.157      859.831
12/16/2021  10:50:00      -28.517      313.295      -45.952      146.973      130.744       59.813    21601.186    17093.865     3577.625        7.167        2.114      314.590       53.314        0.029      333.529        2.902      859.835
12/16/2021  10:51:00       27.303      212.785      -11.875       79.965      111.600       69.038     6394.392    12454.520     4766.268        3.489        1.181      214.529       68.232        0.101      333.563        2.959      859.817
12/16/2021  10:52:00      -43.952      343.651      -22.366       76.565       94.869       51.550     5862.128     9000.164     2657.380        6.902        0.876      346.450       47.812        0.019      333.344        2.595      859.796
12/16/2021  10:53:00       57.129      344.402      -34.877      119.854      152.631       70.805    14364.984    23296.256     5013.407        8.288        2.134      349.108       84.876        0.059      333.433        2.742      859.783
12/16/2021  10:54:00       76.794      299.674      -29.950      127.651      117.632       53.157    16294.818    13837.222     2825.618        6.477        1.648      309.357       66.492        0.046      333.380        2.652      859.772
12/16/2021  10:55:00       29.977      262.168      -10.107      118.211      164.070       60.944    13973.849    26918.958     3714.167        5.716        2.230      263.876       79.831        0.092      333.567        2.965      859.757
12/16/2021  10:56:00      121.576      293.094      -23.843       90.001      117.315       65.230     8100.171    13762.715     4255.000        6.368        1.306      317.308       64.260        0.041      333.545        2.927      859.774
12/16/2021  10:57:00       92.411      306.087      -23.617      100.226      124.601       65.109    10045.222    15525.287     4239.226        6.629        1.490      319.733       68.720        0.046      333.584        2.992      859.765
12/16/2021  10:58:00       46.996      346.021      -37.751      106.191      115.861       55.638    11276.562    13423.699     3095.538        7.557        1.390      349.198       48.897        0.020      333.504        2.860      859.745
12/16/2021  10:59:00      125.184      166.538      -28.912       93.789      100.225       55.688     8796.461    10045.140     3101.126        3.309        1.097      208.341       46.882        0.051      333.727        3.229      859.743
12/16/2021  11:00:00      175.799      281.243      -28.021      119.738      141.076       81.604    14337.144    19902.550     6659.252        7.584        2.045      331.667       79.637        0.058      333.480        2.818      859.739
12/16/2021  11:01:00      113.739      200.462      -23.357       91.823       96.212       66.188     8431.437     9256.783     4380.806        3.786        1.103      230.481       48.431        0.044      333.584        2.992      859.729
12/16/2021  11:02:00      106.181      408.628      -34.493       84.063       95.987       59.037     7066.599     9213.573     3485.393        9.960        0.988      422.198       57.515        0.019      333.443        2.759      859.719
12/16/2021  11:03:00       79.142      266.459      -22.858       78.019      111.471       44.859     6087.014    12425.862     2012.347        4.915        1.026      277.964       46.252        0.028      333.640        3.084      859.687
12/16/2021  11:04:00       95.627      148.658      -11.471       98.180       78.013       54.287     9639.387     6085.965     2947.067        2.502        0.934      176.759       45.444        0.066      333.846        3.426      859.672
12/16/2021  11:05:00      210.903      267.498      -45.488      103.891      134.625       59.830    10793.248    18123.941     3579.656        7.529        1.625      340.639       60.678        0.032      333.710        3.199      859.675
12/16/2021  11:06:00      125.762      403.945      -40.863       96.491      114.753       60.395     9310.432    13168.192     3647.575       10.339        1.306      423.069       58.799        0.019      333.584        2.991      859.695
12/16/2021  11:07:00      112.158      320.780      -37.417       82.085       98.283       59.168     6737.966     9659.639     3500.810        6.839        0.995      339.823       53.460        0.025      333.690        3.167      859.692
12/16/2021  11:08:00      172.752      245.758      -37.039       89.160      109.741       49.646     7949.479    12043.075     2464.720        5.703        1.123      300.400       40.119        0.018      333.691        3.168      859.690
12/16/2021  11:09:00      187.157      197.634      -17.979      104.478      128.454       56.947    10915.702    16500.440     3243.012        5.253        1.533      272.190       54.546        0.040      333.814        3.372      859.680
12/16/2021  11:10:00      171.704      311.768      -35.392       89.055      130.837       60.108     7930.731    17118.208     3612.986        7.829        1.433      355.923       68.250        0.037      333.650        3.100      859.700
12/16/2021  11:11:00      155.262      283.130      -38.192       91.522       96.396       46.632     8376.345     9292.231     2174.507        6.278        0.992      322.906       36.878        0.013      333.708        3.196      859.711
12/16/2021  11:12:00      190.517      309.903      -50.132       73.137      105.373       48.284     5348.962    11103.494     2331.345        7.681        0.939      363.781       43.676        0.014      333.646        3.094      859.700
12/16/2021  11:13:00      147.366      141.895      -37.886      107.330       77.560       64.240    11519.656     6015.631     4126.805        3.247        1.083      204.575       50.249        0.060      333.815        3.375      859.684
12/16/2021  11:14:00      164.413      124.218      -35.649      136.907       85.925       51.905    18743.415     7383.107     2694.155        3.627        1.441      206.062       35.869        0.030      333.818        3.380      859.673
12/16/2021  11:15:00      122.283      344.180      -44.148      141.517      140.129       65.524    20026.964    19636.212     4293.396        8.965        2.198      365.258       67.647        0.034      333.647        3.095      859.691
12/16/2021  11:16:00      144.460      406.534      -53.350      105.369       94.588       47.628    11102.702     8946.837     2268.395       10.565        1.116      431.438       51.355        0.014      333.392        2.673      859.688
12/16/2021  11:17:00      107.945      278.187      -32.620      105.735       79.429       56.828    11179.895     6309.007     3229.371        5.541        1.036      298.396       58.172        0.038      333.644        3.091      859.672
12/16/2021  11:18:00       72.228      204.741      -24.713       80.499       62.522       42.791     6480.106     3909.061     1831.109        2.998        0.611      217.108       36.238        0.028      333.848        3.427      859.654
12/16/2021  11:19:00       78.047       88.376      -12.322       74.482       88.122       44.575     5547.608     7765.510     1986.963        1.467        0.765      117.905       33.592        0.081      334.023        3.720      859.643
12/16/2021  11:20:00      180.774      209.320      -35.260      137.704       70.892       56.144    18962.357     5025.706     3152.097        5.243        1.357      276.575       50.294        0.033      333.713        3.204      859.654
12/16/2021  11:21:00      156.096      231.911      -50.505       80.951       97.424       54.846     6553.074     9491.531     3008.034        4.987        0.953      279.551       53.045        0.036      333.733        3.239      859.648
12/16/2021  11:22:00      150.029      160.461      -30.341       93.029       63.952       39.478     8654.427     4089.836     1558.524        3.174        0.715      219.673       27.964        0.016      333.735        3.242      859.660
12/16/2021  11:23:00      114.892      136.015      -24.727       59.479       66.456       45.776     3537.763     4416.360     2095.422        2.118        0.502      178.045       38.877        0.048      333.788        3.331      859.649
12/16/2021  11:24:00       92.393       85.896      -27.502       59.786       56.683       32.191     3574.312     3212.988     1036.266        1.225        0.391      126.153       16.301        0.017      333.957        3.612      859.652
12/16/2021  11:25:00      123.036       79.779       -5.440       71.593       51.748       46.217     5125.584     2677.846     2136.001        1.573        0.497      146.638       37.098        0.064      333.975        3.642      859.654
12/16/2021  11:26:00      133.022       70.589      -21.988       71.633       85.069       36.097     5131.241     7236.660     1302.987        1.841        0.684      150.591       12.769        0.007      333.877        3.479      859.650
12/16/2021  11:27:00      121.617      179.004      -29.479       83.735       69.598       44.557     7011.525     4843.927     1985.343        3.077        0.692      216.410       32.934        0.023      333.788        3.327      859.653
12/16/2021  11:28:00      171.398      150.419      -30.678       92.056       83.983       59.847     8474.268     7053.217     3581.664        3.602        0.955      228.042       53.245        0.055      333.841        3.418      859.648
12/16/2021  11:29:00      108.151      236.459      -26.910      112.478      113.114       54.609    12651.342    12794.700     2982.142        4.838        1.421      260.018       48.308        0.035      333.812        3.370      859.668
12/16/2021  11:30:00      153.838      286.903      -39.292      104.502      152.908       64.628    10920.715    23380.864     4176.732        7.299        1.924      325.544       76.270        0.055      333.756        3.275      859.667
12/16/2021  11:31:00      192.917      205.382      -39.455       87.745       85.854       62.581     7699.160     7370.981     3916.349        4.997        0.949      281.778       48.183        0.029      333.885        3.490      859.648
12/16/2021  11:32:00      164.788      156.928      -30.141      105.516       74.088       49.910    11133.712     5489.063     2491.034        3.590        0.956      227.555       40.765        0.032      333.897        3.509      859.640
12/16/2021  11:33:00       60.610      267.122      -25.989       63.182       76.848       47.182     3991.984     5905.556     2226.149        4.391        0.606      273.912       39.809        0.021      334.014        3.704      859.648
12/16/2021  11:34:00       85.038      222.470      -41.550       76.044       71.707       42.538     5782.755     5141.836     1809.522        3.559        0.637      238.169       35.290        0.022      333.922        3.551      859.663
12/16/2021  11:35:00       37.787      221.874      -26.013       86.707       87.347       46.651     7518.155     7629.482     2176.294        3.433        0.866      225.069       40.279        0.032      333.879        3.481      859.648
12/16/2021  11:36:00      121.285      224.190      -34.746       87.827      112.231       54.602     7713.651    12595.751     2981.385        4.473        1.165      254.894       50.763        0.040      333.861        3.450      859.619
12/16/2021  11:37:00       24.333      250.862       -4.410       89.647      141.841       63.901     8036.509    20118.985     4083.278        4.789        1.612      252.040       79.893        0.100      333.882        3.486      859.626
12/16/2021  11:38:00       28.596      218.532      -21.040       90.902      113.581       58.196     8263.245    12900.662     3386.777        3.678        1.228      220.395       43.877        0.040      333.976        3.640      859.637
12/16/2021  11:39:00       45.164      292.333      -26.612       77.636      111.583       54.332     6027.337    12450.819     2951.914        5.481        1.072      295.801       56.790        0.037      333.785        3.324      859.626
12/16/2021  11:40:00      110.932      262.925      -29.164       70.092      101.862       49.823     4912.844    10375.829     2482.296        5.003        0.889      285.369       48.988        0.029      333.900        3.515      859.622
12/16/2021  11:41:00      -51.248      142.935      -28.259      152.909      106.103       51.693    23381.283    11257.796     2672.194        3.058        1.866      151.844       37.903        0.062      333.906        3.525      859.639
12/16/2021  11:42:00       -9.797       70.021        4.081       78.742       68.889       55.443     6200.304     4745.763     3073.972        0.952        0.701       70.703       30.783        0.190      334.201        4.017      859.647
12/16/2021  11:43:00      -64.667       53.812      -29.123       69.774       62.369       45.391     4868.397     3889.868     2060.334        0.937        0.541       84.128       26.825        0.102      334.184        3.988      859.641
12/16/2021  11:44:00      -24.691       11.624      -14.642       77.999       35.477       31.804     6083.885     1258.625     1011.467        0.466        0.418       27.290       23.453        0.739      334.128        3.896      859.627
12/16/2021  11:45:00      -22.492       46.676      -11.252       55.005       44.334       44.041     3025.501     1965.530     1939.637        0.487        0.347       51.813       37.048        0.511      334.001        3.687      859.602
12/16/2021  11:46:00      126.968      155.795      -17.165      178.259       99.970       62.395    31776.125     9993.906     3893.196        4.317        2.283      200.979       71.295        0.126      334.017        3.709      859.573
12/16/2021  11:47:00      -78.254       40.186       -7.619       66.852       56.688       31.165     4469.201     3213.480      971.253        0.822        0.433       87.970       14.017        0.025      333.993        3.673      859.564
12/16/2021  11:48:00      -44.335       -9.993       -4.497       59.636       31.207       23.442     3556.477      973.900      549.514        0.358        0.254       45.447       26.051        0.329      334.076        3.811      859.575
12/16/2021  11:49:00      -87.260      -37.231      -17.413       83.389       56.680       36.708     6953.656     3212.584     1347.461        1.041        0.576       94.871       36.658        0.149      333.954        3.607      859.572
12/16/2021  11:50:00     -149.464       29.501       -7.463       57.009       49.274       31.967     3250.009     2427.879     1021.898        1.498        0.335      152.347       31.615        0.043      333.902        3.522      859.588
12/16/2021  11:51:00     -125.368       36.899      -36.845      100.619       64.351       48.524    10124.163     4141.084     2354.602        1.753        0.831      130.686       36.714        0.079      333.914        3.540      859.594
12/16/2021  11:52:00       32.651       42.253      -25.729       60.844      140.323       34.184     3701.964    19690.505     1168.559        1.403        1.228       53.399       24.276        0.207      334.113        3.871      859.577
12/16/2021  11:53:00       74.700      214.541      -19.771      129.275      119.043       66.272    16712.081    14171.207     4391.934        4.363        1.764      227.174       51.392        0.051      333.894        3.504      859.570
12/16/2021  11:54:00      -93.768       83.973      -35.304       90.602      106.720       50.614     8208.713    11389.058     2561.771        1.962        1.108      125.873       35.017        0.077      333.902        3.520      859.571
12/16/2021  11:55:00       42.022       71.477      -10.881       60.274       88.636       42.396     3632.900     7856.358     1797.453        1.014        0.664       82.914       45.015        0.295      334.103        3.854      859.595
12/16/2021  11:56:00       -6.548       45.180       -6.426       39.184       53.760       36.478     1535.410     2890.152     1330.661        0.394        0.288       45.652       28.572        0.392      334.057        3.779      859.595
12/16/2021  11:57:00      -15.316       -8.233      -11.151       55.523       51.710       38.929     3082.794     2673.932     1515.440        0.385        0.364       17.389       25.246        2.108      334.026        3.727      859.588
12/16/2021  11:58:00      -59.894      -19.093        4.683       57.707       38.841       27.591     3330.095     1508.608      761.270        0.479        0.280       62.863       24.237        0.149      334.104        3.856      859.583
12/16/2021  11:59:00       -9.459       19.307       -6.976       15.850       22.018       15.124      251.207      484.794      228.750        0.074        0.048       21.500       12.134        0.319      333.934        3.573      859.561
12/16/2021  12:00:00      -33.605       33.572      -12.649       46.081       62.402       41.302     2123.438     3894.043     1705.876        0.507        0.386       47.501       28.415        0.358      334.018        3.715      859.536
12/16/2021  12:01:00      -13.469       -3.809        5.519       31.073       28.618       21.870      965.549      819.004      478.314        0.124        0.113       13.997       15.712        1.260      334.272        4.134      859.542
12/16/2021  12:02:00       -7.103      -13.077       -3.713       14.884       38.712       22.421      221.531     1498.594      502.716        0.123        0.111       14.881       12.632        0.721      334.221        4.051      859.532
12/16/2021  12:03:00      -28.974       89.619      -11.943       47.256       53.329       24.037     2233.083     2844.005      577.800        0.733        0.283       94.186       21.849        0.054      334.007        3.696      859.524
12/16/2021  12:04:00      106.876       37.775      -12.990       54.778       48.435       32.543     3000.632     2345.971     1059.028        0.971        0.320      113.355       21.593        0.036      334.079        3.814      859.503
12/16/2021  12:05:00      142.208       28.439      -42.899       44.356       47.281       34.524     1967.436     2235.528     1191.883        1.413        0.270      145.024       18.027        0.015      334.011        3.702      859.495
12/16/2021  12:06:00       69.959      -60.177      -28.871       69.939       58.688       35.353     4891.466     3444.298     1249.831        0.947        0.479       92.280       35.471        0.148      333.987        3.662      859.467
12/16/2021  12:07:00       11.071     -102.182      -28.809       57.236       54.772       30.715     3275.994     3000.014      943.396        0.931        0.361      102.780       27.726        0.073      334.192        4.001      859.456
12/16/2021  12:08:00       83.924     -120.698      -40.147       43.652       54.333       27.430     1905.531     2952.122      752.413        1.442        0.281      147.008       27.608        0.035      334.307        4.193      859.469
12/16/2021  12:09:00       41.284      -98.855      -23.323       41.524       51.932       24.078     1724.240     2696.981      579.730        0.851        0.250      107.129       18.337        0.029      334.332        4.233      859.474
12/16/2021  12:10:00       56.313      -89.646      -25.730       38.601       58.886       29.957     1490.070     3467.545      897.429        0.886        0.293      105.866       27.728        0.069      334.492        4.498      859.463
12/16/2021  12:11:00       50.948      -61.922      -18.346       37.215       48.792       26.657     1384.985     2380.629      710.580        0.562        0.224       80.188       18.431        0.053      334.312        4.201      859.461
12/16/2021  12:12:00      -87.393       40.141      -25.994       70.019       73.576       29.939     4902.606     5413.459      896.327        1.057        0.561       96.170       28.798        0.090      334.415        4.371      859.491
12/16/2021  12:13:00      -66.592       14.677        3.158       86.662       45.000       34.547     7510.279     2025.004     1193.500        0.769        0.536       68.191       34.515        0.256      334.666        4.788      859.491
12/16/2021  12:14:00     -168.596      105.916      -19.648       90.350       60.065       45.161     8163.171     3607.779     2039.542        2.692        0.691      199.105       30.597        0.024      334.763        4.948      859.495
12/16/2021  12:15:00     -116.475       11.397       -4.168      140.575       94.012       65.388    19761.460     8838.303     4275.535        2.329        1.644      117.031       57.670        0.243      334.593        4.664      859.463
12/16/2021  12:16:00     -131.369       53.788        0.652       97.167       67.478       40.658     9441.375     4553.280     1653.070        1.790        0.782      141.954       42.834        0.091      334.751        4.930      859.463
12/16/2021  12:17:00     -228.504       52.279      -16.336      107.936       95.360       61.000    11650.195     9093.597     3720.949        3.983        1.223      234.408       58.911        0.063      334.619        4.708      859.459
12/16/2021  12:18:00     -186.444       -0.658      -12.539       99.257       76.494       58.875     9851.928     5851.264     3466.215        2.704        0.958      186.446       54.817        0.086      334.594        4.668      859.492
12/16/2021  12:19:00      -69.716       17.489      -16.976      102.306       72.835       42.601    10466.559     5304.957     1814.816        1.152        0.879       71.876       35.600        0.245      334.807        5.022      859.533
12/16/2021  12:20:00      -37.907        7.243        3.036      100.308       75.162       51.879    10061.715     5649.323     2691.454        0.995        0.920       38.593       48.274        1.565      335.111        5.529      859.545
12/16/2021  12:21:00     -167.868      -24.798      -18.931      147.943      164.431       64.369    21887.137    27037.548     4143.383        4.110        2.653      169.690       52.840        0.097      334.631        4.728      859.565
12/16/2021  12:22:00     -222.006      -28.046      -25.243       97.023       54.269       53.189     9413.536     2945.116     2829.117        3.295        0.759      223.770       41.638        0.035      334.542        4.581      859.562
12/16/2021  12:23:00      -74.098       -8.915      -17.876       74.614       48.665       38.057     5567.234     2368.284     1448.362        0.763        0.469       74.632       34.914        0.219      334.785        4.987      859.541
12/16/2021  12:24:00      -86.514      -44.917      -11.962       98.208      106.225       39.760     9644.829    11283.766     1580.855        1.607        1.125       97.479       44.573        0.209      334.927        5.223      859.550
12/16/2021  12:25:00     -303.494      -56.412      -19.746      153.546       99.803       75.401    23576.512     9960.563     5685.333        6.744        1.961      308.692       45.160        0.021      334.566        4.619      859.543
12/16/2021  12:26:00     -184.379       13.001      -17.351      114.153      104.335       42.508    13030.927    10885.838     1806.903        3.009        1.286      184.837       42.030        0.052      334.642        4.746      859.527
12/16/2021  12:27:00     -240.833      -39.900       -0.331      182.044      130.752       90.028    33140.100    17096.172     8105.123        5.896        2.917      244.115       79.567        0.106      334.686        4.820      859.519
12/16/2021  12:28:00     -179.119      -25.237      -10.478      170.513      103.093       85.103    29074.615    10628.080     7242.468        3.988        2.347      180.888       85.699        0.224      334.740        4.910      859.517
12/16/2021  12:29:00      -16.421       37.450       -3.104       88.603      110.913       58.839     7850.511    12301.786     3462.059        1.264        1.181       40.892       46.438        1.290      334.708        4.857      859.557
12/16/2021  12:30:00      -82.589      186.085      -21.732       65.969       99.051       54.257     4351.962     9811.189     2943.806        2.951        0.855      203.589       33.270        0.027      334.205        4.021      859.592
12/16/2021  12:31:00      -50.293      110.955      -24.433       55.559       64.580       31.475     3086.854     4170.623      990.664        1.184        0.412      121.821       21.795        0.032      334.217        4.042      859.607
12/16/2021  12:32:00      -10.844       60.230       -9.296       30.712       55.963       28.635      943.237     3131.879      819.963        0.436        0.245       61.199        7.553        0.015      334.327        4.225      859.615
12/16/2021  12:33:00        1.102      165.709      -26.133      120.320       80.748       51.677    14477.017     6520.233     2670.533        2.590        1.183      165.713       45.909        0.077      334.189        3.994      859.619
12/16/2021  12:34:00      -64.086       23.152      -10.432       70.352       65.913       47.540     4949.440     4344.542     2260.072        0.815        0.578       68.140       31.861        0.219      334.104        3.855      859.625
12/16/2021  12:35:00      -25.448       26.869       -6.384       95.709       82.042       45.943     9160.202     6730.954     2110.735        0.970        0.900       37.007       27.330        0.545      334.318        4.210      859.626
12/16/2021  12:36:00     -172.160       63.258      -16.656       88.492       66.231       38.846     7830.790     4386.542     1508.987        2.382        0.686      183.413       40.275        0.048      334.138        3.910      859.617
12/16/2021  12:37:00     -136.752       67.512      -19.741       89.175       66.080       34.767     7952.131     4366.546     1208.739        1.859        0.676      152.509       25.161        0.027      334.153        3.935      859.586
12/16/2021  12:38:00     -102.809      111.263      -21.882       80.526      130.021       44.042     6484.509    16905.490     1939.690        2.437        1.266      151.490       30.575        0.041      334.254        4.103      859.590
12/16/2021  12:39:00       21.865      189.121      -13.701       71.941       93.283       46.201     5175.498     8701.671     2134.494        2.622        0.801      190.380       44.650        0.055      334.315        4.203      859.617
12/16/2021  12:40:00      -35.414       52.202      -19.579       78.635       54.500       30.439     6183.448     2970.240      926.561        0.722        0.504       63.081       29.773        0.223      334.482        4.482      859.629
12/16/2021  12:41:00        0.097       15.517       -4.331       25.668       31.666       19.768      658.829     1002.744      390.778        0.116        0.103       15.518        5.301        0.117      334.863        5.117      859.635
12/16/2021  12:42:00      -71.080       13.676       -5.720       73.981       72.521       46.664     5473.207     5259.285     2177.572        0.909        0.646       72.384       31.681        0.192      334.851        5.097      859.608
12/16/2021  12:43:00      -87.469       62.882      -26.641      100.523       89.591       53.665    10104.954     8026.635     2879.886        1.666        1.051      107.726       34.828        0.105      335.087        5.488      859.612
12/16/2021  12:44:00     -207.376      102.073      -20.879      127.728      117.523       54.253    16314.424    13811.572     2943.394        4.346        1.653      231.136       48.879        0.045      334.547        4.590      859.620
12/16/2021  12:45:00      -91.257       79.106      -21.886       55.635       59.665       31.649     3095.242     3559.950     1001.668        1.136        0.383      120.771       17.888        0.022      334.645        4.753      859.600
12/16/2021  12:46:00        8.437      198.168      -14.068       61.517      103.896       38.264     3784.393    10794.367     1464.140        2.779        0.802      198.348       40.146        0.041      334.603        4.682      859.591
12/16/2021  12:47:00      -57.600      121.115      -39.846       78.463       55.535       51.320     6156.393     3084.157     2633.782        1.572        0.594      134.114       24.236        0.033      334.451        4.432      859.596
12/16/2021  12:48:00      -11.068       53.636      -12.462       84.549       59.969       32.438     7148.481     3596.337     1052.246        0.747        0.590       54.766       18.363        0.112      334.550        4.598      859.567
12/16/2021  12:49:00     -146.479       18.296      -12.868      179.561       65.527       66.548    32242.238     4293.737     4428.617        3.145        2.048      147.617       51.648        0.122      334.620        4.710      859.541
12/16/2021  12:50:00      -14.939      -23.768       -0.844       79.842       94.096       60.506     6374.736     8854.124     3661.002        0.984        0.944       28.073       41.202        2.154      334.651        4.764      859.524
12/16/2021  12:51:00      -34.235       59.091      -18.227       79.073       87.382       31.541     6252.519     7635.573      994.821        0.994        0.744       68.292       19.099        0.078      334.666        4.789      859.538
12/16/2021  12:52:00       47.951      -54.472      -20.376       46.746       56.379       36.309     2185.205     3178.576     1318.370        0.618        0.334       72.571       26.858        0.137      335.076        5.470      859.543
12/16/2021  12:53:00     -110.072       -1.513      -26.032      116.348       92.203       45.018    13536.953     8501.434     2026.602        1.843        1.203      110.082       21.223        0.037      334.617        4.706      859.547
12/16/2021  12:54:00      -97.117      -21.877      -13.859      100.927       79.267       41.872    10186.259     6283.188     1753.283        1.416        0.911       99.551       42.281        0.180      334.782        4.981      859.529
12/16/2021  12:55:00     -112.896       52.185       -6.277      110.083       91.185       62.204    12118.187     8314.747     3869.370        1.990        1.215      124.373       69.643        0.314      334.724        4.883      859.513
12/16/2021  12:56:00      -59.267       30.197        1.213      128.368       80.047       60.378    16478.340     6407.450     3645.464        1.547        1.327       66.516       57.392        0.744      334.750        4.928      859.510
12/16/2021  12:57:00      -81.212      164.167      -28.399       93.215       61.400       44.997     8688.988     3769.973     2024.732        2.442        0.724      183.156       35.035        0.037      334.498        4.507      859.503
12/16/2021  12:58:00      -17.500       43.627        3.796       75.602       44.325       34.773     5715.622     1964.702     1209.196        0.556        0.444       47.005       23.461        0.249      334.959        5.276      859.500
12/16/2021  12:59:00        9.499       74.118      -12.062       83.081       99.040       42.195     6902.409     9808.874     1780.428        1.211        0.925       74.724       28.312        0.144      335.078        5.474      859.479
12/16/2021  13:00:00      -89.167       49.166      -32.593       99.327      120.285       42.852     9865.771    14468.517     1836.269        1.880        1.309      101.824       36.923        0.131      334.663        4.782      859.463
12/16/2021  13:01:00     -272.549       83.653      -41.641      217.320      121.408       68.252    47227.961    14739.834     4658.281        7.481        3.331      285.098       73.321        0.066      334.626        4.721      859.444
12/16/2021  13:02:00     -200.669       34.829      -17.281      244.334      148.427       70.150    59698.954    22030.470     4920.963        6.420        4.333      203.669       46.218        0.051      334.462        4.448      859.424
12/16/2021  13:03:00     -220.426       93.925      -21.949      128.857       99.282       60.785    16604.178     9857.012     3694.868        4.402        1.508      239.603       65.918        0.076      334.507        4.521      859.428
12/16/2021  13:04:00     -134.428       91.162      -24.390      140.952      112.164       58.495    19867.550    12580.693     3421.655        3.142        1.793      162.423       33.988        0.044      334.400        4.345      859.404
12/16/2021  13:05:00     -102.848       33.659       -2.584      152.373      106.095       75.450    23217.674    11256.060     5692.665        2.593        2.008      108.216       72.702        0.451      334.582        4.647      859.368
12/16/2021  13:06:00     -320.721       26.826      -17.061      139.705      100.451       78.671    19517.373    10090.429     6189.192        6.983        1.790      321.841       59.124        0.034      334.423        4.381      859.388
12/16/2021  13:07:00     -272.310      -11.760      -34.030      138.105       92.738       67.232    19073.037     8600.389     4520.184        5.382        1.610      272.564       59.274        0.047      334.506        4.522      859.373
12/16/2021  13:08:00     -108.291       70.570      -18.532       71.078       99.488       37.398     5052.084     9897.845     1398.629        1.670        0.817      129.255       27.473        0.045      334.773        4.966      859.389
12/16/2021  13:09:00     -209.588       94.209       -6.825      131.475       67.847       50.699    17285.605     4603.245     2570.353        3.865        1.223      229.788       50.294        0.048      334.738        4.907      859.395
12/16/2021  13:10:00     -154.883       67.435      -12.830      147.089       90.678       65.978    21635.274     8222.582     4353.075        3.145        1.711      168.927       65.035        0.148      334.609        4.691      859.414
12/16/2021  13:11:00     -283.607      122.172      -18.097      159.747      129.000       71.926    25518.958    16640.960     5173.413        7.150        2.367      308.803       70.645        0.052      334.734        4.899      859.417
12/16/2021  13:12:00     -225.767       70.675        2.592      156.223       89.125       59.805    24405.631     7943.311     3576.689        4.594        1.796      236.570       64.476        0.074      334.828        5.055      859.412
12/16/2021  13:13:00     -214.603       46.800        3.534      188.851       88.124       69.086    35664.742     7765.825     4772.919        4.822        2.410      219.647       79.272        0.130      334.721        4.877      859.423
12/16/2021  13:14:00      -79.467      103.419      -18.032      109.647      128.714       55.752    12022.463    16567.299     3108.278        2.451        1.585      130.425       53.024        0.165      334.693        4.833      859.446
12/16/2021  13:15:00     -130.772      116.001      -11.117      130.900      112.919       68.864    17134.899    12750.689     4742.319        3.265        1.731      174.807       54.319        0.097      334.912        5.195      859.474
12/16/2021  13:16:00     -193.884       87.348      -11.362      128.831       99.252       51.672    16597.458     9850.998     2670.047        3.723        1.456      212.651       49.370        0.054      334.725        4.884      859.526
12/16/2021  13:17:00        0.334       99.740       -7.127       83.377       77.578       55.753     6951.673     6018.348     3108.390        1.304        0.804       99.741       38.139        0.146      334.728        4.892      859.540
12/16/2021  13:18:00     -131.717       28.097      -29.284      154.028       78.332       40.151    23724.539     6135.950     1612.103        2.523        1.574      134.680       48.659        0.131      334.874        5.134      859.568
12/16/2021  13:19:00      -48.421       72.307       -4.496      116.173       74.311       48.049    13496.144     5522.076     2308.718        1.446        1.066       87.022       44.461        0.261      334.952        5.264      859.614
12/16/2021  13:20:00      -49.563      149.254      -21.953       89.842       76.756       53.432     8071.530     5891.420     2854.983        2.101        0.841      157.268       47.483        0.091      334.863        5.115      859.640
12/16/2021  13:21:00      -52.143      161.946      -12.521       69.037       69.605       49.298     4766.161     4844.850     2430.290        2.057        0.602      170.134       35.182        0.043      334.733        4.900      859.657
12/16/2021  13:22:00     -124.164      186.860      -28.958      118.682       87.990       50.602    14085.463     7742.188     2560.540        3.778        1.219      224.351       50.206        0.050      334.564        4.616      859.680
12/16/2021  13:23:00      -52.162      303.142      -16.132       84.015      101.762       53.834     7058.468    10355.556     2898.098        5.759        1.016      307.597       49.491        0.026      334.447        4.423      859.710
12/16/2021  13:24:00      -12.718      198.434      -21.100       93.101       73.205       38.570     8667.884     5359.013     1487.626        2.775        0.776      198.841       30.091        0.023      334.775        4.967      859.716
12/16/2021  13:25:00       57.860      240.795      -28.450       83.394       69.939       46.684     6954.573     4891.485     2179.351        3.808        0.701      247.649       45.226        0.033      334.679        4.808      859.728
12/16/2021  13:26:00       81.969      204.608      -29.805       65.481       81.323       52.411     4287.806     6613.365     2746.923        3.156        0.682      220.416       47.484        0.046      334.671        4.796      859.734
12/16/2021  13:27:00       39.895      184.542      -29.674       84.706       61.755       38.551     7175.022     3813.699     1486.184        2.450        0.624      188.805       34.933        0.034      334.764        4.949      859.745
12/16/2021  13:28:00      -80.849       81.195      -25.966       96.157       60.956       33.090     9246.192     3715.593     1094.981        1.393        0.703      114.583       31.337        0.075      334.485        4.486      859.719
12/16/2021  13:29:00       30.844      143.411      -28.748      124.578       62.609       31.863    15519.599     3919.886     1015.258        2.140        1.023      146.691       22.915        0.024      334.668        4.791      859.696
12/16/2021  13:30:00      -13.041      117.701      -19.941       59.073       89.269       41.140     3489.627     7968.997     1692.476        1.378        0.658      118.421       38.943        0.108      334.938        5.240      859.702
12/16/2021  13:31:00       40.488      197.622      -11.659       84.772       81.174       56.005     7186.324     6589.227     3136.545        2.887        0.846      201.727       45.484        0.051      334.734        4.897      859.699
12/16/2021  13:32:00      149.386      324.806      -42.316       84.794       66.725       48.284     7190.058     4452.175     2331.373        7.179        0.699      357.513       42.029        0.014      334.478        4.473      859.709
12/16/2021  13:33:00      -36.648      224.893      -26.091       70.736       81.676       43.912     5003.522     6670.909     1928.257        3.310        0.680      227.859       32.183        0.020      334.822        5.046      859.706
12/16/2021  13:34:00      -11.700      184.240      -36.259       75.690       83.994       35.660     5729.014     7054.967     1271.617        2.472        0.703      184.611       12.231        0.004      334.931        5.228      859.728
12/16/2021  13:35:00      123.670      152.721      -18.695      135.670       80.264       46.860    18406.400     6442.307     2195.852        3.300        1.352      196.515       47.334        0.058      334.687        4.821      859.740
12/16/2021  13:36:00       50.363      222.576      -23.183      127.384       89.841       50.476    16226.592     8071.327     2547.874        3.973        1.342      228.203       50.238        0.048      334.716        4.871      859.750
12/16/2021  13:37:00      149.938      219.403      -30.343       94.370       84.813       44.696     8905.788     7193.247     1997.736        4.481        0.905      265.743       42.238        0.025      334.604        4.682      859.755
12/16/2021  13:38:00      155.796      194.159      -26.987       91.264      113.415       55.753     8329.042    12863.018     3108.374        4.350        1.215      248.939       54.851        0.049      334.514        4.533      859.768
12/16/2021  13:39:00      159.831      144.453      -38.771       85.705       82.769       41.095     7345.268     6850.691     1688.762        3.190        0.794      215.436       40.575        0.035      334.552        4.596      859.773
12/16/2021  13:40:00      146.142      271.161      -40.923       94.373      115.880       52.056     8906.169    13428.251     2709.805        6.080        1.252      308.035       54.536        0.031      334.507        4.521      859.781
12/16/2021  13:41:00       85.801      234.137      -24.457       70.103       75.872       47.250     4914.368     5756.540     2232.542        3.784        0.645      249.363       39.895        0.026      334.561        4.610      859.802
12/16/2021  13:42:00       46.190      135.672      -13.585       83.606       66.765       47.130     6989.906     4457.560     2221.278        1.719        0.683      143.320       36.120        0.064      334.681        4.814      859.812
12/16/2021  13:43:00       21.375       -0.903       -9.823       41.977       45.931       28.873     1762.073     2109.690      833.659        0.263        0.235       21.394       10.974        0.263      334.917        5.207      859.819
12/16/2021  13:44:00      -21.922      -20.075      -19.591       72.705       83.632       58.095     5285.976     6994.316     3375.079        0.846        0.783       29.725       30.079        1.024      335.010        5.361      859.802
12/16/2021  13:45:00      -13.783       87.643       -5.930       73.794       60.235       38.689     5445.578     3628.257     1496.856        0.924        0.529       88.720       15.278        0.030      335.005        5.354      859.798
12/16/2021  13:46:00       24.844      102.302      -16.639       32.830       40.961       25.910     1077.784     1677.788      671.310        0.739        0.171      105.276        8.800        0.007      334.770        4.961      859.808
12/16/2021  13:47:00       16.136       -8.748        6.946       37.793       69.278       34.928     1428.281     4799.454     1219.996        0.392        0.372       18.355       25.302        1.900      335.204        5.683      859.799
12/16/2021  13:48:00       70.481       72.506      -15.826       59.422       69.811       38.917     3530.969     4873.637     1514.543        1.020        0.496      101.117       44.721        0.196      334.857        5.105      859.817
12/16/2021  13:49:00       87.272      156.250       -4.382      112.046       99.329       74.518    12554.315     9866.240     5552.903        3.001        1.399      178.971       50.010        0.078      334.739        4.907      859.810
12/16/2021  13:50:00      -30.562      195.652      -21.320       91.865       92.138       53.837     8439.245     8489.402     2898.396        2.974        0.991      198.025       37.003        0.035      334.836        5.069      859.813
12/16/2021  13:51:00      -20.198      222.199      -21.765       87.912       74.198       40.943     7728.467     5505.341     1676.320        3.258        0.746      223.115       32.171        0.021      334.917        5.203      859.825
12/16/2021  13:52:00       17.406       90.078      -26.516       61.197       97.721       31.259     3745.119     9549.387      977.112        1.169        0.714       91.744       30.414        0.110      334.688        4.825      859.817
12/16/2021  13:53:00      -76.808       57.098       -9.184      112.960       99.431       57.585    12759.922     9886.434     3316.084        1.760        1.298       95.706       40.318        0.177      334.782        4.980      859.798
12/16/2021  13:54:00      -83.313      112.549       -3.911      102.833       71.755       46.458    10574.721     5148.781     2158.346        1.875        0.894      140.030       46.484        0.110      334.917        5.203      859.808
12/16/2021  13:55:00      -21.994      197.924      -30.676       75.927       76.348       44.617     5764.838     5828.948     1990.675        2.709        0.679      199.143       31.249        0.025      334.650        4.760      859.809
12/16/2021  13:56:00      -63.398      182.162      -20.410       93.222       71.019       41.756     8690.334     5043.646     1743.598        2.655        0.774      192.879       23.011        0.014      334.794        4.999      859.800
12/16/2021  13:57:00       98.770      228.511      -38.942       55.418       71.045       33.372     3071.188     5047.400     1113.691        3.636        0.462      248.943       29.035        0.014      334.752        4.928      859.814
12/16/2021  13:58:00       21.497      160.234      -11.430       48.883       66.874       33.195     2389.580     4472.170     1101.937        1.711        0.398      161.669       31.121        0.037      334.928        5.223      859.820
12/16/2021  13:59:00       14.439      220.644      -23.666       70.276       81.123       49.977     4938.687     6580.992     2497.653        3.173        0.701      221.116       45.127        0.042      334.983        5.313      859.834
12/16/2021  14:00:00       11.481      301.467      -18.955       91.436       84.236       53.500     8360.511     7095.686     2862.210        5.484        0.916      301.685       42.449        0.020      334.720        4.875      859.853
12/16/2021  14:01:00       34.779      318.125      -30.254       82.615      102.942       51.751     6825.243    10596.974     2678.170        6.171        1.005      320.021       55.992        0.031      334.401        4.345      859.869
12/16/2021  14:02:00      -50.346      285.167      -23.957      107.231       98.969       57.660    11498.564     9794.905     3324.639        5.452        1.231      289.577       40.351        0.019      334.587        4.655      859.872
12/16/2021  14:03:00       37.289      301.934      -28.281      105.354       99.402       60.779    11099.505     9880.684     3694.027        5.901        1.234      304.228       51.911        0.029      334.615        4.703      859.883
12/16/2021  14:04:00       17.316      277.967      -26.375      104.236      123.428       53.979    10865.123    15234.541     2913.777        5.363        1.451      278.506       57.559        0.043      334.465        4.453      859.893
12/16/2021  14:05:00       94.578      290.238      -37.455       80.355       89.140       46.329     6456.972     7945.945     2146.409        5.556        0.827      305.259       51.008        0.028      334.601        4.677      859.897
12/16/2021  14:06:00       30.090      282.471      -32.898       77.855       91.330       35.749     6061.342     8341.246     1277.996        4.873        0.784      284.069       38.301        0.018      334.473        4.465      859.905
12/16/2021  14:07:00       12.490      273.133      -17.317       85.522      124.863       58.190     7313.966    15590.669     3386.065        5.067        1.315      273.419       54.937        0.040      334.707        4.853      859.916
12/16/2021  14:08:00      -41.886      328.526      -39.387      104.782       88.023       54.648    10979.269     7748.128     2986.355        6.647        1.086      331.186       44.426        0.018      334.364        4.284      859.961
12/16/2021  14:09:00      -34.754      161.503      -18.039      105.969       91.596       61.819    11229.516     8389.857     3821.538        2.552        1.172      165.200       42.303        0.066      334.549        4.593      859.987
12/16/2021  14:10:00       24.926      232.562      -13.647       97.174      102.568       50.961     9442.823    10520.126     2596.994        3.872        1.128      233.894       52.052        0.050      334.445        4.419      860.015
12/16/2021  14:11:00      -36.843      315.270      -37.313       91.606      114.272       51.167     8391.629    13058.146     2618.105        6.310        1.203      317.416       41.493        0.017      334.345        4.252      860.034
12/16/2021  14:12:00     -102.615      295.295      -41.880      120.586      106.010       55.621    14541.056    11238.113     3093.730        6.417        1.444      312.616       51.451        0.027      334.320        4.210      860.059
12/16/2021  14:13:00      -34.146      287.675      -31.286      132.952      104.554       49.055    17676.238    10931.638     2406.371        5.795        1.551      289.695       31.080        0.012      334.409        4.358      860.084
12/16/2021  14:14:00       65.763      315.323      -38.076       97.323      135.968       46.644     9471.754    18487.166     2175.696        6.766        1.507      322.108       53.053        0.027      334.253        4.099      860.111
12/16/2021  14:15:00       59.479      305.498      -28.704      114.761      142.301       54.515    13170.192    20249.647     2971.916        6.703        1.820      311.234       64.819        0.043      334.190        3.996      860.129
12/16/2021  14:16:00       75.101      343.012      -36.875       96.426      100.843       47.252     9298.025    10169.363     2232.787        7.317        1.085      351.137       44.464        0.016      334.203        4.018      860.141
12/16/2021  14:17:00       23.656      324.057      -31.159      118.127      119.840       54.652    13954.086    14361.720     2986.827        6.892        1.565      324.919       64.397        0.039      334.225        4.052      860.161
12/16/2021  14:18:00      105.895      376.276      -38.465       95.266      109.434       59.223     9075.537    11975.812     3507.384        8.941        1.228      390.893       70.967        0.033      334.123        3.885      860.165
12/16/2021  14:19:00       52.334      354.084      -42.144      128.575      129.884       50.231    16531.437    16869.898     2523.137        8.290        1.796      357.930       44.809        0.016      334.269        4.126      860.165
12/16/2021  14:20:00      125.900      324.327      -43.880       68.003      106.396       39.735     4624.380    11320.110     1578.902        7.024        0.876      347.906       34.425        0.010      334.177        3.973      860.168
12/16/2021  14:21:00       66.147      268.242      -21.324       97.505      133.616       60.171     9507.312    17853.102     3620.498        5.388        1.549      276.277       60.569        0.048      334.396        4.336      860.158
12/16/2021  14:22:00       56.181      255.643      -17.909       88.555      114.667       49.510     7841.999    13148.503     2451.198        4.613        1.172      261.743       52.610        0.040      334.250        4.095      860.195
12/16/2021  14:23:00       78.130      226.087      -22.859       76.536       95.123       53.539     5857.769     9048.292     2866.440        3.775        0.889      239.206       51.891        0.047      334.436        4.403      860.190
12/16/2021  14:24:00      141.372      401.658      -54.441      110.771      131.778       63.307    12270.264    17365.537     4007.757       10.896        1.682      425.811       64.288        0.023      334.170        3.962      860.191
12/16/2021  14:25:00      118.791      387.074      -53.522       83.345      109.987       49.442     6946.455    12097.073     2444.527        9.414        1.074      404.892       33.774        0.007      334.152        3.931      860.187
12/16/2021  14:26:00      107.442      355.342      -38.207       95.967      126.293       65.586     9209.726    15949.806     4301.522        8.436        1.473      371.230       62.315        0.028      334.126        3.889      860.177
12/16/2021  14:27:00       40.958      354.835      -33.820      100.713      104.629       56.116    10143.035    10947.177     3149.045        7.648        1.212      357.191       49.731        0.019      334.129        3.894      860.176
12/16/2021  14:28:00       28.478      287.839      -20.236       93.447      155.914       66.394     8732.326    24309.153     4408.190        6.075        1.872      289.244       61.105        0.045      334.206        4.022      860.171
12/16/2021  14:29:00      -14.476      312.491      -31.405       91.755      103.021       51.477     8418.923    10613.268     2649.921        6.026        1.084      312.826       47.381        0.023      334.274        4.135      860.180
12/16/2021  14:30:00       71.513      360.033      -37.674      114.733      115.410       69.824    13163.744    13319.534     4875.360        8.375        1.568      367.066       60.969        0.028      334.204        4.017      860.197
12/16/2021  14:31:00       30.552      335.784      -26.618      126.556      133.698       65.089    16016.480    17875.106     4236.588        7.625        1.906      337.171       64.407        0.036      334.202        4.015      860.211
12/16/2021  14:32:00      -15.984      274.265      -39.777       97.948       81.349       48.270     9593.714     6617.604     2329.977        4.780        0.927      274.730       25.001        0.008      334.324        4.217      860.226
12/16/2021  14:33:00       81.324      365.430      -27.565      112.553      121.447       73.559    12668.245    14749.266     5410.964        8.686        1.641      374.370       68.248        0.033      334.127        3.892      860.241
12/16/2021  14:34:00       59.868      365.237      -37.769      100.657       98.543       64.442    10131.770     9710.654     4152.708        8.120        1.200      370.111       57.868        0.024      334.137        3.907      860.258
12/16/2021  14:35:00      -15.025      313.072      -44.690       98.527      127.291       59.576     9707.474    16202.911     3549.329        6.484        1.473      313.433       47.517        0.023      334.196        4.004      860.278
12/16/2021  14:36:00       19.658      350.722      -35.324       79.890      106.345       50.821     6382.376    11309.325     2582.800        7.245        1.014      351.272       54.661        0.024      334.145        3.921      860.296
12/16/2021  14:37:00      -41.317      345.639      -20.220      102.552      135.541       53.449    10517.007    18371.360     2856.806        7.666        1.587      348.099       58.598        0.028      334.179        3.976      860.306
12/16/2021  14:38:00        8.837      362.249      -25.575      103.493      122.922       66.969    10710.893    15109.888     4484.880        8.113        1.515      362.357       72.011        0.039      334.189        3.994      860.327
12/16/2021  14:39:00       48.435      339.147      -43.046       91.762       78.891       50.755     8420.280     6223.802     2576.020        6.822        0.861      342.588       43.248        0.016      334.153        3.933      860.328
12/16/2021  14:40:00        4.740      262.739      -30.463       88.517      110.223       42.278     7835.236    12149.146     1787.463        4.587        1.089      262.782       43.570        0.027      334.263        4.116      860.338
12/16/2021  14:41:00      -46.041      199.706      -25.976       64.032       77.248       38.465     4100.129     5967.210     1479.577        2.711        0.577      204.945       30.186        0.022      334.382        4.314      860.340
12/16/2021  14:42:00      -54.187      121.819      -21.010       99.806       63.739       44.996     9961.156     4062.622     2024.621        1.713        0.802      133.327       30.708        0.053      334.557        4.607      860.340
12/16/2021  14:43:00      -17.641      161.819      -24.498       64.702       78.515       49.652     4186.371     6164.662     2465.322        1.995        0.641      162.778       33.587        0.043      334.489        4.493      860.338
12/16/2021  14:44:00       44.206      275.308      -21.008       73.161       77.139       52.841     5352.468     5950.366     2792.126        4.614        0.705      278.835       48.440        0.030      334.301        4.180      860.348
12/16/2021  14:45:00       72.054      273.088      -32.503       87.874       93.439       49.388     7721.829     8730.802     2439.141        4.986        0.945      282.434       47.370        0.028      334.251        4.096      860.357
12/16/2021  14:46:00       26.147      207.273      -24.702       73.215       68.884       43.977     5360.400     4745.063     1934.014        2.815        0.602      208.915       38.882        0.035      334.414        4.367      860.373
12/16/2021  14:47:00       29.624      191.238      -23.636       65.748       74.660       39.124     4322.826     5574.049     1530.711        2.472        0.571      193.519       37.710        0.038      334.531        4.562      860.384
12/16/2021  14:48:00       22.799      191.203      -12.256       76.330       64.147       35.572     5826.250     4114.850     1265.377        2.422        0.560      192.557       41.879        0.047      334.436        4.405      860.402
12/16/2021  14:49:00      -38.185      279.186      -26.401       61.810       83.775       43.326     3820.483     7018.324     1877.164        4.641        0.636      281.785       37.681        0.018      334.290        4.160      860.410
12/16/2021  14:50:00      -26.866      241.922      -17.086      100.062       94.563       57.919    10012.305     8942.107     3354.599        4.092        1.115      243.409       54.783        0.051      334.302        4.181      860.408
12/16/2021  14:51:00      -69.577      145.919       -8.607       69.986       80.392       49.072     4898.092     6462.885     2408.084        1.999        0.688      161.658       46.552        0.083      334.431        4.398      860.393
12/16/2021  14:52:00      -42.307      146.014      -17.269       56.041       57.482       35.826     3140.632     3304.137     1283.469        1.557        0.386      152.020       21.749        0.020      334.575        4.637      860.387
12/16/2021  14:53:00       19.784      198.860      -24.176       50.194       68.941       42.876     2519.446     4752.866     1838.328        2.481        0.456      199.842       32.485        0.026      334.383        4.317      860.385
12/16/2021  14:54:00       17.201      104.552      -24.734       55.656       43.090       35.945     3097.588     1856.721     1292.055        0.904        0.312      105.957       17.026        0.026      334.616        4.706      860.383
12/16/2021  14:55:00      -17.556      170.068      -27.739       72.391       94.459       51.978     5240.487     8922.564     2701.709        2.343        0.843      170.971       38.195        0.050      334.538        4.574      860.396
12/16/2021  14:56:00      -14.170      126.864      -17.541       68.845       47.563       42.886     4739.656     2262.271     1839.238        1.272        0.442      127.653       25.338        0.039      334.559        4.611      860.405
12/16/2021  14:57:00        7.869      168.069      -29.244       84.554       77.847       41.036     7149.375     6060.230     1683.925        2.203        0.745      168.253       14.792        0.008      334.588        4.658      860.418
12/16/2021  14:58:00       26.324      191.394      -18.454       66.164       97.018       50.029     4377.646     9412.538     2502.896        2.698        0.815      193.196       47.041        0.059      334.488        4.492      860.430
12/16/2021  14:59:00       -8.259      202.925      -15.663       93.496      115.975       36.077     8741.574    13450.163     1301.561        3.249        1.175      203.093       41.109        0.041      334.437        4.406      860.436
12/16/2021  15:00:00      -89.838      195.624      -27.701       81.862       79.300       43.229     6701.344     6288.495     1868.726        3.098        0.743      215.267       28.487        0.018      334.466        4.453      860.456
12/16/2021  15:01:00      -63.654      211.910      -18.727       89.259      101.592       53.616     7967.094    10320.993     2874.724        3.523        1.058      221.264       31.511        0.020      334.341        4.246      860.465
12/16/2021  15:02:00      -49.716      192.750      -22.640      135.192      106.576       41.238    18276.997    11358.368     1700.571        3.573        1.567      199.059       25.913        0.017      334.419        4.374      860.464
12/16/2021  15:03:00      -96.881      208.160      -14.409       74.325       77.196       49.710     5524.200     5959.209     2471.043        3.344        0.698      229.600       37.927        0.027      334.465        4.451      860.491
12/16/2021  15:04:00      -28.914      151.259      -19.840       71.380      103.963       46.575     5095.175    10808.291     2169.237        2.109        0.904      153.998       46.862        0.093      334.521        4.546      860.517
12/16/2021  15:05:00      -49.995      179.930      -15.730       73.010       80.349       42.581     5330.446     6456.031     1813.182        2.436        0.680      186.746       30.779        0.027      334.412        4.365      860.534
12/16/2021  15:06:00      -33.804      225.636      -15.234       86.928       87.112       50.690     7556.441     7588.487     2569.522        3.500        0.886      228.154       40.327        0.031      334.378        4.307      860.557
12/16/2021  15:07:00      -43.598      171.405      -31.753      104.056      120.619       60.832    10827.726    14549.016     3700.571        3.068        1.454      176.863       31.036        0.031      334.325        4.221      860.565
12/16/2021  15:08:00      -56.596      239.932      -15.200       68.963       93.975       57.451     4755.844     8831.357     3300.634        3.894        0.844      246.517       38.360        0.024      334.299        4.176      860.579
12/16/2021  15:09:00      -44.545      214.318      -32.258       66.416       86.657       55.365     4411.136     7509.495     3065.244        3.197        0.749      218.898       39.533        0.033      334.261        4.113      860.577
12/16/2021  15:10:00      -35.955      173.595      -20.914      116.746      107.165       57.674    13629.657    11484.246     3326.244        3.015        1.422      177.279       30.764        0.030      334.229        4.061      860.554
12/16/2021  15:11:00      -56.166      150.965      -19.501       77.993       91.669       62.071     6082.841     8403.125     3852.846        2.233        0.917      161.075       30.898        0.037      334.335        4.238      860.539
12/16/2021  15:12:00      -95.873      199.738      -29.691       97.041      114.308       58.621     9416.904    13066.393     3436.412        3.794        1.296      221.555       47.773        0.046      334.285        4.153      860.549
12/16/2021  15:13:00      -90.922      145.209      -20.630      110.919       82.824       49.700    12303.077     6859.814     2470.116        2.570        1.082      171.326       18.656        0.012      334.303        4.183      860.570
12/16/2021  15:14:00      -57.621      250.529      -26.420       76.886       93.198       50.983     5911.416     8685.960     2599.239        4.199        0.860      257.070       24.246        0.009      334.253        4.099      860.602
12/16/2021  15:15:00      -21.016      197.842      -12.783       71.273       74.531       47.468     5079.902     5554.869     2253.196        2.631        0.644      198.955       20.333        0.010      334.342        4.247      860.607
12/16/2021  15:16:00      -59.295      110.325       -9.916       95.477      125.042       54.597     9115.845    15635.462     2980.793        2.175        1.387      125.250       24.730        0.039      334.441        4.414      860.611
12/16/2021  15:17:00       -4.820       75.179      -27.369       49.299       61.600       45.806     2430.384     3794.610     2098.206        0.737        0.416       75.334       25.386        0.114      334.446        4.423      860.611
12/16/2021  15:18:00     -113.779      199.687      -21.278      101.263      150.808       58.318    10254.289    22743.125     3401.019        4.483        1.820      229.827       37.038        0.026      334.288        4.159      860.632
12/16/2021  15:19:00      -76.306      267.530      -27.934      104.705      111.293       50.875    10963.101    12386.066     2588.309        5.205        1.297      278.200       35.830        0.017      334.175        3.971      860.635
12/16/2021  15:20:00      -54.906      285.275      -31.787       77.416      108.927       57.570     5993.263    11865.148     3314.324        5.329        1.059      290.511       47.328        0.027      334.125        3.888      860.638
12/16/2021  15:21:00      -53.973      117.109        5.418       65.550       81.640       40.571     4296.747     6665.129     1646.046        1.463        0.630      128.948       31.334        0.059      334.345        4.253      860.644
12/16/2021  15:22:00      -37.703       70.328      -22.066       95.475       83.006       55.999     9115.410     6890.026     3135.897        1.299        0.957       79.796       37.001        0.215      334.301        4.181      860.650
12/16/2021  15:23:00      -47.945      140.160      -36.868       65.054       70.925       49.062     4232.060     5030.323     2407.067        1.748        0.583      148.134       34.795        0.055      334.257        4.108      860.646
12/16/2021  15:24:00      -37.847       97.298      -26.602       61.556       60.597       50.755     3789.139     3671.972     2576.084        1.082        0.502      104.399       37.498        0.129      334.494        4.504      860.641
12/16/2021  15:25:00      -23.466       88.386       -6.800       58.238       56.394       45.889     3391.684     3180.292     2105.816        0.854        0.434       91.448       30.543        0.112      334.464        4.453      860.635
12/16/2021  15:26:00      -81.332      133.355      -36.830      117.779       94.427       56.158    13871.930     8916.410     3153.689        2.584        1.297      156.200       38.620        0.061      334.271        4.130      860.639
12/16/2021  15:27:00     -101.267      112.718      -25.201      101.658       76.849       61.271    10334.333     5905.753     3754.108        2.179        1.000      151.526       43.362        0.082      334.212        4.033      860.671
12/16/2021  15:28:00      -21.206      147.085       -2.360       79.638       97.383       62.248     6342.212     9483.469     3874.867        2.089        0.985      148.606       39.615        0.071      334.295        4.172      860.712
12/16/2021  15:29:00      -89.119      178.055      -36.196       58.313      101.742       47.685     3400.441    10351.472     2273.865        2.849        0.801      199.112       22.082        0.012      334.208        4.027      860.766
12/16/2021  15:30:00     -113.490      113.765      -49.683      110.690       82.329       54.829    12252.185     6778.038     3006.264        2.516        1.102      160.693       22.112        0.019      334.220        4.046      860.795
12/16/2021  15:31:00      -76.896      214.881      -20.365      122.777      101.595       56.246    15074.268    10321.614     3163.619        4.053        1.428      228.226       43.234        0.036      334.156        3.938      860.828
12/16/2021  15:32:00     -115.871      216.330      -40.185      104.645      104.625       54.851    10950.668    10946.459     3008.683        4.337        1.245      245.408       23.383        0.009      334.131        3.898      860.846
12/16/2021  15:33:00      -61.233      263.058      -34.706       84.917      125.059       57.812     7210.848    15639.811     3342.255        5.017        1.310      270.090       46.087        0.029      334.194        4.002      860.853
12/16/2021  15:34:00      -63.101      242.965      -21.275       99.449      124.670       61.394     9890.110    15542.603     3769.207        4.633        1.460      251.026       37.488        0.022      334.166        3.957      860.864
12/16/2021  15:35:00      -74.470      321.058      -38.686      116.345      105.030       60.857    13536.154    11031.272     3703.582        6.919        1.414      329.581       47.253        0.021      334.028        3.725      860.847
12/16/2021  15:36:00     -102.921      228.488      -16.760      117.703       88.950       70.410    13854.093     7912.048     4957.622        4.490        1.336      250.598       53.993        0.046      334.086        3.823      860.837
12/16/2021  15:37:00      -97.388      220.964      -39.492      119.948      137.402       63.626    14387.573    18879.178     4048.293        4.859        1.866      241.473       45.849        0.036      334.103        3.851      860.826
12/16/2021  15:38:00      -60.934      248.605      -31.924       84.177      125.938       70.859     7085.831    15860.431     5020.979        4.725        1.398      255.964       43.400        0.029      334.086        3.823      860.834
12/16/2021  15:39:00      -67.476      258.446      -31.831      101.894      111.501       58.109    10382.298    12432.406     3376.600        4.927        1.310      267.109       45.198        0.029      334.072        3.799      860.834
12/16/2021  15:40:00      -50.055      189.110      -17.592       75.118      110.360       53.831     5642.688    12179.287     2897.825        2.964        1.036      195.622       47.642        0.059      334.120        3.881      860.832
12/16/2021  15:41:00      -81.891      138.764      -49.597       82.072       85.432       50.082     6735.855     7298.707     2508.188        2.248        0.827      161.126       33.602        0.043      334.180        3.981      860.832
12/16/2021  15:42:00     -109.969      141.085      -18.362      105.896      157.110       62.213    11213.986    24683.607     3870.457        3.604        1.988      178.880       35.399        0.039      334.118        3.878      860.833
12/16/2021  15:43:00      -48.100      349.873      -29.876      102.546       96.478       68.274    10515.593     9307.948     4661.403        7.505        1.224      353.164       51.239        0.021      333.920        3.547      860.860
12/16/2021  15:44:00      -68.079      325.585      -24.298       65.792       95.972       43.687     4328.614     9210.546     1908.528        6.334        0.772      332.627       34.577        0.011      333.864        3.454      860.882
12/16/2021  15:45:00     -170.453      192.432      -28.985      150.089       97.918       57.856    22526.589     9587.920     3347.351        5.119        1.773      257.069       58.808        0.052      333.912        3.536      860.894
12/16/2021  15:46:00      -68.240      346.098      -39.460      104.238       98.806       59.139    10865.488     9762.556     3497.473        7.506        1.206      352.761       30.379        0.007      333.918        3.544      860.882
12/16/2021  15:47:00     -107.357      215.091      -25.014       90.258       88.462       42.737     8146.471     7825.548     1826.480        3.810        0.890      240.395       33.749        0.020      333.901        3.515      860.887
12/16/2021  15:48:00      -50.934      172.756      -21.660       97.025      107.971       48.837     9413.773    11657.843     2385.027        2.818        1.173      180.108       39.625        0.048      333.955        3.607      860.869
12/16/2021  15:49:00      -66.762       52.428       -5.535      100.186       69.635       40.266    10037.203     4848.988     1621.342        1.187        0.825       84.887       35.427        0.174      334.135        3.907      860.844
12/16/2021  15:50:00      -39.544      122.835      -28.612       75.290       98.482       61.014     5668.540     9698.625     3722.762        1.828        0.954      129.043       28.461        0.049      333.984        3.655      860.837
12/16/2021  15:51:00      -74.518       93.637      -13.679      103.161       71.232       59.445    10642.275     5074.018     3533.683        1.688        0.962      119.669       57.832        0.234      333.887        3.495      860.815
12/16/2021  15:52:00      -45.865       71.452      -20.669      104.571       70.742       47.515    10935.194     5004.372     2257.694        1.291        0.910       84.906       38.958        0.211      333.833        3.408      860.802
12/16/2021  15:53:00     -154.275       99.864      -26.826      111.382      105.902       67.628    12405.869    11215.284     4573.587        3.134        1.410      183.776       40.046        0.047      333.718        3.213      860.795
12/16/2021  15:54:00     -112.425       79.646      -34.540       90.300       69.955       63.881     8154.141     4893.718     4080.812        1.865        0.856      137.779       43.694        0.101      333.667        3.132      860.775
12/16/2021  15:55:00      -62.228       57.013      -20.337       96.126      120.731       71.893     9240.248    14575.950     5168.670        1.826        1.449       84.397       48.844        0.335      333.693        3.174      860.759
12/16/2021  15:56:00     -161.977       96.236      -21.551      117.293      107.109       66.145    13757.563    11472.336     4375.206        3.278        1.480      188.409       53.302        0.080      333.617        3.045      860.757
12/16/2021  15:57:00      -66.422      148.514      -13.224       80.881      118.180       49.176     6541.747    13966.474     2418.273        2.478        1.146      162.691       47.393        0.085      333.676        3.142      860.758
12/16/2021  15:58:00     -109.379      148.855      -28.304      123.391       91.095       57.467    15225.249     8298.389     3302.483        3.087        1.341      184.720       30.467        0.027      333.577        2.984      860.767
12/16/2021  15:59:00     -110.162      164.797      -21.920      113.159       79.907       61.201    12805.070     6385.099     3745.599        3.135        1.147      198.226       52.128        0.069      333.570        2.969      860.774
12/16/2021  16:00:00     -104.213       77.397      -32.250      123.932       85.808       66.177    15359.065     7362.988     4379.406        2.249        1.355      129.810       58.375        0.202      333.581        2.988      860.787
12/16/2021  16:01:00     -111.567      124.230      -25.003      124.165       74.573       64.597    15416.919     5561.061     4172.801        2.682        1.258      166.974       39.409        0.056      333.618        3.050      860.803
12/16/2021  16:02:00     -105.765      170.999      -34.536       81.791      103.457       52.148     6689.770    10703.403     2719.452        3.086        1.006      201.064       51.958        0.067      333.517        2.882      860.813
12/16/2021  16:03:00      -54.258       88.294      -23.647       56.299       70.542       53.583     3169.568     4976.203     2871.096        1.116        0.551      103.632       15.285        0.022      333.564        2.962      860.829
12/16/2021  16:04:00     -118.217      138.668      -19.247       96.959       71.298       51.902     9401.131     5083.383     2693.813        2.537        0.859      182.220       44.987        0.061      333.512        2.873      860.848
12/16/2021  16:05:00      -52.207       79.860      -30.777       71.389       54.642       48.710     5096.385     2985.782     2372.668        1.025        0.523       95.411       36.614        0.147      333.581        2.989      860.863
12/16/2021  16:06:00      -90.167      122.173      -19.064       57.112       73.556       43.009     3261.756     5410.438     1849.737        1.697        0.526      151.844       10.601        0.005      333.563        2.958      860.868
12/16/2021  16:07:00     -110.576       66.543      -21.864      104.418       97.190       48.482    10903.150     9445.919     2350.458        1.991        1.135      129.055       49.790        0.149      333.622        3.056      860.871
12/16/2021  16:08:00      -36.953       61.397      -13.366       56.748       75.313       37.311     3220.295     5672.008     1392.089        0.780        0.514       71.660       17.736        0.061      333.595        3.013      860.868
12/16/2021  16:09:00      -25.197      117.640      -14.436       35.848       57.329       29.373     1285.075     3286.636      862.781        1.006        0.272      120.309       30.247        0.063      333.593        3.009      860.874
12/16/2021  16:10:00      -46.167      153.735      -12.205       51.879       47.953       34.422     2691.441     2299.497     1184.847        1.604        0.309      160.518        9.208        0.003      333.573        2.975      860.874
12/16/2021  16:11:00      -55.073      213.091      -22.879       72.529       88.361       36.232     5260.439     7807.599     1312.783        3.167        0.719      220.093       27.475        0.016      333.484        2.828      860.880
12/16/2021  16:12:00      -53.099      197.885       -9.479       51.122       53.716       29.533     2613.478     2885.387      872.220        2.422        0.319      204.885       17.309        0.007      333.494        2.845      860.873
12/16/2021  16:13:00       -7.598      227.598      -19.073       62.277       67.579       45.764     3878.460     4566.923     2094.384        3.138        0.527      227.725       30.694        0.018      333.284        2.494      860.871
12/16/2021  16:14:00      -82.701      200.683      -11.294       56.686       66.946       33.286     3213.333     4481.814     1107.930        2.802        0.440      217.056       24.988        0.013      333.320        2.555      860.860
12/16/2021  16:15:00      -34.488      256.230      -23.477       65.386       80.565       46.575     4275.323     6490.724     2169.238        4.016        0.647      258.541       42.008        0.026      333.190        2.341      860.849
12/16/2021  16:16:00      -79.442      223.322      -27.515       75.044      128.524       39.706     5631.661    16518.365     1576.575        4.033        1.186      237.031       33.678        0.020      333.123        2.230      860.851
12/16/2021  16:17:00      -51.481      176.616      -25.266       59.079       77.473       36.655     3490.324     6002.045     1343.578        2.266        0.542      183.966       26.871        0.021      333.226        2.400      860.868
12/16/2021  16:18:00      -35.295      257.039      -24.861       86.956      104.020       54.320     7561.333    10820.141     2950.651        4.463        1.067      259.451       45.754        0.031      333.142        2.261      860.886
12/16/2021  16:19:00      -32.528      298.953      -21.949       85.680       86.015       58.500     7341.142     7398.664     3422.270        5.453        0.908      300.717       41.636        0.019      333.126        2.233      860.900
12/16/2021  16:20:00      -92.604      217.863      -26.395       82.559       98.443       54.416     6816.051     9691.040     2961.085        3.810        0.973      236.727       45.068        0.036      333.178        2.320      860.912
12/16/2021  16:21:00      -92.788      196.559      -13.275      115.969       78.479       57.063    13448.748     6158.982     3256.180        3.514        1.143      217.360       45.899        0.045      333.154        2.280      860.927
12/16/2021  16:22:00      -56.374      254.652      -32.480      133.276      147.797       56.812    17762.556    21844.078     3227.566        5.595        2.142      260.817        8.846        0.001      333.116        2.217      860.940
12/16/2021  16:23:00      -68.663      187.804      -29.742       84.044       83.359       46.670     7063.368     6948.678     2178.046        2.853        0.810      199.962       20.063        0.010      333.184        2.332      860.939
12/16/2021  16:24:00      -66.498      227.417      -33.802      101.925      108.312       54.640    10388.640    11731.408     2985.564        4.119        1.255      236.940       43.429        0.034      333.127        2.236      860.944
12/16/2021  16:25:00      -90.519      167.643      -11.131       96.215      103.400       43.104     9257.367    10691.494     1857.961        2.911        1.090      190.520       30.104        0.025      333.128        2.239      860.935
12/16/2021  16:26:00      -59.032      117.878      -17.748       89.526       60.621       49.171     8014.826     3674.925     2417.794        1.590        0.705      131.833       24.809        0.035      333.153        2.281      860.943
12/16/2021  16:27:00      -76.719      150.810       -9.931       82.954      112.522       50.694     6881.297    12661.220     2569.927        2.542        1.106      169.202       57.696        0.116      333.131        2.244      860.946
12/16/2021  16:28:00      -77.346      149.905      -13.255       67.691       85.712       62.025     4582.029     7346.581     3847.132        2.220        0.789      168.683       33.230        0.039      333.160        2.293      860.939
12/16/2021  16:29:00      -65.858      126.889      -17.416       78.981       63.026       60.986     6237.960     3972.284     3719.306        1.733        0.696      142.962       49.253        0.119      333.114        2.216      860.960
12/16/2021  16:30:00      -24.953       38.352      -17.924       94.919       84.879       51.559     9009.572     7204.416     2658.294        1.064        0.944       45.755       34.895        0.582      333.227        2.403      860.965
12/16/2021  16:31:00     -106.027      154.839      -26.953      127.702      100.060       52.528    16307.910    10012.006     2759.180        3.251        1.454      187.661       45.464        0.059      333.166        2.301      860.974
12/16/2021  16:32:00      -79.104      119.230      -34.041       75.391       78.143       50.487     5683.836     6106.324     2548.937        1.798        0.717      143.085       40.896        0.082      333.191        2.344      860.980
12/16/2021  16:33:00      -83.056       61.165      -23.411       81.382       62.983       37.891     6623.014     3966.920     1435.706        1.160        0.601      103.148       36.115        0.123      333.255        2.450      860.988
12/16/2021  16:34:00      -55.451       80.359      -33.967       75.287       56.629       41.184     5668.123     3206.883     1696.090        1.063        0.529       97.634       26.558        0.074      333.173        2.313      860.997
12/16/2021  16:35:00      -57.668      121.865      -25.114       73.275       63.160       35.563     5369.252     3989.197     1264.709        1.471        0.531      134.820       21.300        0.025      333.169        2.308      861.000
12/16/2021  16:36:00      -76.907      122.893      -20.528       61.764       72.629       45.602     3814.735     5275.015     2079.541        1.630        0.558      144.974       28.621        0.039      333.229        2.406      861.006
12/16/2021  16:37:00     -111.405      129.958      -29.305       91.054       74.662       38.791     8290.780     5574.396     1504.748        2.276        0.768      171.173       34.777        0.041      333.146        2.269      861.021
12/16/2021  16:38:00      -77.086      116.954      -29.512       60.232       46.161       28.178     3627.846     2130.851      794.026        1.352        0.328      140.074       21.276        0.023      333.172        2.313      861.030
12/16/2021  16:39:00     -136.648      154.107      -21.291       65.477       61.534       41.374     4287.194     3786.475     1711.769        2.633        0.489      205.966       36.020        0.031      333.176        2.317      861.046
12/16/2021  16:40:00      -55.806       91.746      -19.107       77.137       65.183       42.974     5950.189     4248.816     1846.797        1.197        0.602      107.386       26.332        0.060      333.169        2.308      861.063
12/16/2021  16:41:00     -158.426      168.129      -47.184       70.008       75.547       48.481     4901.109     5707.370     2350.369        3.427        0.648      231.011       23.893        0.011      333.159        2.290      861.069
12/16/2021  16:42:00      -78.051      168.786      -25.922       63.706       91.024       48.198     4058.406     8285.432     2323.055        2.496        0.733      185.959       26.703        0.021      333.181        2.327      861.068
12/16/2021  16:43:00      -91.186      199.279      -15.716       76.120       83.161       42.411     5794.287     6915.742     1798.696        3.139        0.725      219.150       33.109        0.023      333.206        2.367      861.062
12/16/2021  16:44:00      -65.289      212.968      -30.396       57.102       98.323       44.777     3260.674     9667.347     2004.962        3.273        0.747      222.751       37.599        0.028      333.252        2.444      861.075
12/16/2021  16:45:00      -92.630      139.989      -20.038       65.647       73.985       41.230     4309.505     5473.750     1699.947        2.003        0.574      167.860       21.590        0.017      333.191        2.342      861.079
12/16/2021  16:46:00      -75.000      195.420      -31.569       78.498       95.078       43.113     6161.873     9039.753     1858.712        3.093        0.853      209.318       26.284        0.016      333.187        2.335      861.087
12/16/2021  16:47:00      -60.487      146.309      -15.727       70.094       91.831       42.515     4913.137     8432.905     1807.511        2.023        0.758      158.319       31.736        0.040      333.201        2.360      861.110
12/16/2021  16:48:00      -94.459      162.327      -22.920       65.541       72.810       41.954     4295.573     5301.237     1760.120        2.358        0.568      187.810       18.966        0.010      333.158        2.289      861.138
12/16/2021  16:49:00      -65.961      106.942      -15.510       69.067       84.134       49.272     4770.195     7078.527     2427.705        1.515        0.714      125.648       35.751        0.081      333.220        2.393      861.189
12/16/2021  16:50:00      -32.020      186.786      -27.145       73.326       86.234       43.531     5376.675     7436.375     1894.913        2.568        0.735      189.511       28.329        0.022      333.158        2.289      861.235
12/16/2021  16:51:00      -74.662      245.377      -16.144       84.379       80.074       48.929     7119.777     6411.888     2394.020        4.098        0.796      256.484       36.928        0.021      333.125        2.232      861.267
12/16/2021  16:52:00      -48.947      246.705      -20.694       54.855       99.370       47.832     3009.018     9874.438     2287.907        3.943        0.759      251.513       43.574        0.030      333.110        2.208      861.311
12/16/2021  16:53:00      -99.267      213.794      -26.790       95.604      122.893       49.068     9140.060    15102.798     2407.662        4.146        1.333      235.716       50.730        0.046      333.081        2.160      861.360
12/16/2021  16:54:00      -62.427      221.522      -14.653       58.182       76.495       49.526     3385.153     5851.512     2452.821        3.243        0.584      230.150       13.042        0.003      333.092        2.177      861.384
12/16/2021  16:55:00      -92.055       81.867       -7.911       68.184       57.485       47.430     4649.070     3304.546     2249.575        1.272        0.510      123.192       30.894        0.063      333.059        2.126      861.406
12/16/2021  16:56:00      -74.329      225.628      -30.620       87.109       79.820       43.428     7588.042     6371.175     1885.954        3.660        0.792      237.556       29.166        0.015      333.082        2.163      861.434
12/16/2021  16:57:00     -105.073      246.952      -33.635       93.701       73.338       50.545     8779.826     5378.472     2554.750        4.493        0.836      268.376       31.213        0.014      333.034        2.081      861.444
12/16/2021  16:58:00      -98.352      215.214      -30.548       93.048       83.813       42.472     8657.915     7024.574     1803.831        3.720        0.874      236.622       29.822        0.016      333.041        2.092      861.449
12/16/2021  16:59:00     -117.229      174.259      -39.100      116.636       84.892       60.142    13604.038     7206.662     3617.039        3.503        1.221      210.021       38.067        0.033      333.021        2.060      861.459
12/16/2021  17:00:00      -32.424      177.098       -4.590       73.699      114.193       60.573     5431.590    13039.974     3669.047        2.728        1.107      180.042       57.826        0.103      333.001        2.028      861.472
12/16/2021  17:01:00     -113.984      276.102      -32.172       88.887       83.240       54.289     7900.861     6928.840     2947.301        5.402        0.889      298.705       37.504        0.016      333.052        2.110      861.471
12/16/2021  17:02:00     -123.780      237.951      -32.099       70.595       74.189       44.404     4983.672     5504.036     1971.733        4.271        0.623      268.220       25.539        0.009      332.992        2.012      861.484
12/16/2021  17:03:00      -88.976      235.979      -17.783       69.577       63.243       40.022     4840.957     3999.731     1601.729        3.718        0.522      252.196       26.368        0.011      332.993        2.013      861.490
12/16/2021  17:04:00      -54.093      264.258      -20.921       57.791       74.149       38.449     3339.822     5498.127     1478.339        4.175        0.516      269.737       34.676        0.017      332.951        1.944      861.500
12/16/2021  17:05:00      -83.769      235.440      -21.260       79.348       86.482       41.943     6296.142     7479.212     1759.208        3.922        0.777      249.898       37.301        0.022      332.923        1.900      861.512
12/16/2021  17:06:00      -53.838      296.632      -13.853       74.230       80.276       43.810     5510.146     6444.161     1919.359        5.247        0.694      301.479       38.037        0.016      332.941        1.927      861.544
12/16/2021  17:07:00     -100.913      269.622      -25.019       60.723       72.864       44.771     3687.238     5309.204     2004.485        4.725        0.550      287.888       22.654        0.006      332.932        1.914      861.567
12/16/2021  17:08:00      -58.802      249.434      -24.802       54.676       46.303       38.344     2989.509     2143.941     1470.255        3.645        0.330      256.271       19.068        0.006      332.906        1.869      861.583
12/16/2021  17:09:00      -48.221      201.057      -12.027       60.721       70.746       39.899     3687.013     5004.978     1591.969        2.659        0.514      206.759       29.783        0.021      332.948        1.942      861.585
12/16/2021  17:10:00      -73.041      260.119      -13.520       76.903       81.509       42.383     5914.039     6643.654     1796.344        4.376        0.718      270.179       39.415        0.021      332.926        1.902      861.596
12/16/2021  17:11:00      -52.860      250.530      -18.542       65.002       81.012       35.510     4225.312     6562.905     1260.947        3.897        0.602      256.046       33.680        0.017      332.913        1.882      861.616
12/16/2021  17:12:00      -74.759      184.165      -26.551       49.509      100.577       41.921     2451.157    10115.693     1757.345        2.726        0.716      198.760       22.686        0.013      332.971        1.978      861.642
12/16/2021  17:13:00      -69.850      166.837      -19.956       78.219       89.613       49.301     6118.227     8030.429     2430.585        2.484        0.829      180.869       21.395        0.014      332.982        1.996      861.650
12/16/2021  17:14:00      -60.688      156.790      -20.645       80.140       93.219       50.817     6422.398     8689.787     2582.341        2.319        0.885      168.125       34.224        0.041      332.968        1.974      861.671
12/16/2021  17:15:00      -48.958      253.342      -25.995       87.499       74.977       48.083     7656.048     5621.530     2311.996        4.142        0.779      258.029       34.374        0.018      332.966        1.970      861.684
12/16/2021  17:16:00      -63.618      195.308      -18.084       73.482      111.302       58.941     5399.583    12388.123     3474.083        3.189        1.063      205.408       43.022        0.044      333.018        2.058      861.694
12/16/2021  17:17:00      -40.830      265.884      -23.527       56.607      119.486       51.581     3204.404    14276.811     2660.610        4.652        1.007      269.001       45.619        0.029      333.010        2.043      861.696
12/16/2021  17:18:00      -55.662      191.794      -17.988       52.675       83.150       42.702     2774.626     6913.945     1823.446        2.586        0.576      199.707       24.680        0.015      333.106        2.203      861.700
12/16/2021  17:19:00     -101.549      269.465      -28.966       69.912      116.827       48.524     4887.664    13648.570     2354.534        5.232        1.045      287.965       35.867        0.016      332.985        2.001      861.709
12/16/2021  17:20:00     -106.516      234.370      -20.915       76.501       88.539       52.252     5852.336     7839.097     2730.231        4.156        0.821      257.439       30.034        0.014      333.006        2.035      861.727
12/16/2021  17:21:00      -68.592      215.669      -15.568       61.147       86.818       44.428     3738.952     7537.308     1973.845        3.235        0.663      226.314       25.212        0.012      333.005        2.035      861.739
12/16/2021  17:22:00      -57.314      186.578      -27.240       54.706       82.961       52.905     2992.777     6882.563     2798.985        2.575        0.634      195.183       33.732        0.030      333.029        2.075      861.743
12/16/2021  17:23:00      -49.240      146.974      -16.611       73.427       95.317       57.973     5391.569     9085.345     3360.887        2.107        0.892      155.002       39.856        0.066      333.062        2.132      861.747
12/16/2021  17:24:00      -69.822      166.286      -18.564      102.003       67.240       42.346    10404.638     4521.199     1793.147        2.479        0.836      180.350       31.703        0.031      333.028        2.073      861.738
12/16/2021  17:25:00      -46.929      238.312      -19.777       76.328      119.397       54.364     5825.978    14255.704     2955.452        4.121        1.152      242.888       51.573        0.045      332.960        1.959      861.737
12/16/2021  17:26:00      -73.155      226.782      -18.456       76.138       86.962       48.886     5797.053     7562.317     2389.859        3.643        0.787      238.290       12.010        0.003      332.946        1.936      861.745
12/16/2021  17:27:00      -60.063      294.868      -31.215       61.968       70.634       45.139     3839.991     4989.199     2037.511        5.120        0.543      300.924       26.585        0.008      332.921        1.893      861.753
12/16/2021  17:28:00      -52.356      212.650      -19.741       62.542       77.872       49.117     3911.518     6064.024     2412.475        3.037        0.619      219.000       30.078        0.019      332.915        1.885      861.763
12/16/2021  17:29:00      -77.160      230.445      -27.226       82.179       80.000       45.340     6753.371     6400.008     2055.745        3.750        0.760      243.020       34.687        0.020      332.894        1.850      861.779
12/16/2021  17:30:00      -90.262      173.041      -21.013       75.701       76.063       50.069     5730.636     5785.639     2506.883        2.628        0.701      195.168       27.613        0.020      332.881        1.832      861.798
12/16/2021  17:31:00      -62.701      238.037      -32.778       88.701      100.854       47.793     7867.805    10171.549     2284.141        4.099        1.016      246.156       38.784        0.025      332.885        1.836      861.806
12/16/2021  17:32:00     -105.191      219.853      -19.748       85.428       79.309       53.653     7298.010     6289.890     2878.608        3.813        0.823      243.722       35.498        0.021      332.856        1.786      861.814
12/16/2021  17:33:00      -31.303      232.964      -31.906       82.410       92.395       65.750     6791.356     8536.913     4323.092        3.796        0.983      235.058       50.158        0.046      332.777        1.658      861.819
12/16/2021  17:34:00      -63.304       94.277      -13.599       67.604       64.502       39.162     4570.367     4160.535     1533.639        1.167        0.513      113.559       25.775        0.052      332.809        1.713      861.823
12/16/2021  17:35:00      -88.233      177.763      -22.104       93.859       75.098       53.084     8809.445     5639.774     2817.863        2.857        0.863      198.456       23.975        0.015      332.837        1.757      861.814
12/16/2021  17:36:00      -67.112      278.596      -28.981       96.006       98.539       53.537     9217.084     9709.912     2866.264        5.237        1.090      286.566       40.816        0.020      332.823        1.733      861.800
12/16/2021  17:37:00      -81.797      306.504      -36.241      111.425      101.437       60.295    12415.548    10289.443     3635.521        6.414        1.317      317.231       50.890        0.026      332.807        1.705      861.801
12/16/2021  17:38:00      -19.030      223.197      -21.193       83.082      122.907       58.437     6902.653    15106.102     3414.908        3.802        1.271      224.007       53.890        0.058      332.816        1.722      861.825
12/16/2021  17:39:00      -86.878      195.568      -24.301      110.480       90.115       71.239    12205.736     8120.673     5075.036        3.589        1.270      213.997       43.055        0.040      332.792        1.682      861.855
12/16/2021  17:40:00      -69.898      230.537      -33.472      103.752       96.611       58.143    10764.524     9333.675     3380.646        4.131        1.174      240.901       40.494        0.028      332.729        1.577      861.863
12/16/2021  17:41:00     -111.134      181.337      -20.254       71.857      107.489       44.591     5163.405    11553.847     1988.348        3.217        0.935      212.682       34.451        0.026      332.771        1.646      861.866
12/16/2021  17:42:00     -140.203      143.930      -25.973      111.888      104.745       48.792    12518.883    10971.552     2380.653        3.345        1.294      200.930       28.308        0.020      332.784        1.668      861.846
12/16/2021  17:43:00     -158.341      134.560      -20.441      120.432       75.373       54.110    14503.929     5681.157     2927.946        3.335        1.156      207.794       50.519        0.059      332.786        1.674      861.841
12/16/2021  17:44:00      -91.801      167.304      -47.737      106.295      119.732       49.579    11298.573    14335.871     2458.056        3.339        1.405      190.835       40.317        0.045      332.841        1.765      861.841
12/16/2021  17:45:00      -35.127      -15.756        7.959       77.944       76.047       68.718     6075.249     5783.164     4722.170        0.906        0.829       38.499       48.872        1.611      332.805        1.707      861.858
12/16/2021  17:46:00      -54.433       11.252        3.086       54.431       72.024       41.178     2962.720     5187.474     1695.655        0.647        0.492       55.584       34.459        0.384      332.809        1.714      861.872
12/16/2021  17:47:00     -128.098       25.515        5.368       98.214       40.678       34.732     9645.936     1654.677     1206.301        1.480        0.625      130.615       40.383        0.096      332.718        1.563      861.902
12/16/2021  17:48:00     -158.316       29.207      -11.748      126.772       75.552       51.367    16071.169     5708.076     2638.585        2.523        1.221      160.988       36.732        0.052      332.786        1.673      861.923
12/16/2021  17:49:00      -39.744        9.240      -12.879       59.173       54.805       52.818     3501.502     3003.591     2789.787        0.556        0.465       40.804       24.831        0.370      332.912        1.885      861.928
12/16/2021  17:50:00     -105.881       21.697       -9.105       98.179       58.115       30.744     9639.200     3377.410      945.211        1.286        0.698      108.081       26.312        0.059      332.881        1.833      861.959
12/16/2021  17:51:00      -64.935       74.614      -11.508       55.628       65.446       33.686     3094.501     4283.225     1134.720        0.921        0.426       98.913       25.909        0.069      332.867        1.808      861.972
12/16/2021  17:52:00      -44.184      -20.669       -8.225       35.849       51.412       25.465     1285.138     2643.166      648.447        0.351        0.229       48.780       11.692        0.057      332.993        2.018      861.974
12/16/2021  17:53:00      -81.467      -32.431      -11.184       46.652       38.716       37.349     2176.374     1498.921     1394.919        0.644        0.254       87.685       29.694        0.115      332.915        1.890      861.994
12/16/2021  17:54:00     -173.492      -34.250       -5.602      126.290       59.686       52.624    15949.133     3562.438     2769.240        2.679        1.114      176.840       35.309        0.040      332.852        1.783      861.988
12/16/2021  17:55:00     -118.302       -4.101       -8.609       73.430       71.591       34.241     5391.974     5125.217     1172.469        1.289        0.584      118.373       39.031        0.109      332.795        1.690      862.012
12/16/2021  17:56:00      -58.970      -51.015       -3.196       33.642       64.611       34.057     1131.777     4174.558     1159.852        0.628        0.323       77.974       18.126        0.054      332.832        1.753      862.028
12/16/2021  17:57:00     -121.990      -70.906      -17.229       58.289       62.533       36.547     3397.623     3910.421     1335.697        1.442        0.432      141.100       36.137        0.066      332.829        1.745      862.031
12/16/2021  17:58:00     -155.357      -33.630      -18.952       72.248       65.156       41.181     5219.807     4245.277     1695.881        1.839        0.558      158.955       41.740        0.069      332.735        1.589      862.022
12/16/2021  17:59:00     -153.932      -26.038      -15.691       57.460       52.994       33.260     3301.707     2808.377     1106.206        1.592        0.361      156.119       21.833        0.020      332.791        1.682      862.032
12/16/2021  18:00:00     -107.630      -94.654      -15.442       59.510       68.505       34.831     3541.467     4692.954     1213.178        1.511        0.472      143.330       35.558        0.062      332.806        1.708      862.032
12/16/2021  18:01:00      -92.181       -8.114      -10.442       57.177       55.085       35.406     3269.237     3034.398     1253.581        0.811        0.378       92.537       27.709        0.090      332.797        1.694      862.056
12/16/2021  18:02:00     -113.438       -5.518       -7.574       69.383       34.378       34.007     4814.029     1181.881     1156.508        1.005        0.358      113.572       33.821        0.089      332.794        1.689      862.064
12/16/2021  18:03:00     -172.964       -2.549      -19.451       61.529       44.463       34.568     3785.851     1976.974     1194.945        1.863        0.348      172.983       28.926        0.028      332.813        1.719      862.097
12/16/2021  18:04:00      -72.282        5.298      -10.317       81.082       71.089       43.623     6574.246     5053.652     1902.952        0.944        0.677       72.476       44.475        0.377      332.793        1.686      862.117
12/16/2021  18:05:00     -147.706       19.141      -22.064       51.756       64.535       28.097     2678.735     4164.738      789.447        1.515        0.382      148.941       14.790        0.010      332.819        1.731      862.144
12/16/2021  18:06:00      -95.997      -54.167      -21.990       35.180       22.737       16.743     1237.611      516.985      280.324        0.733        0.102      110.225        4.005        0.001      332.856        1.792      862.139
12/16/2021  18:07:00      -65.890      -80.347      -14.614       22.640       24.092       13.376      512.559      580.434      178.928        0.614        0.064      103.910        4.642        0.002      332.875        1.822      862.138
12/16/2021  18:08:00      -59.912      -80.382      -11.352       58.863       66.485       34.024     3464.909     4420.232     1157.623        0.961        0.452      100.254       19.515        0.038      332.963        1.969      862.143
12/16/2021  18:09:00      -42.135        3.843        1.245       67.151       38.411       31.965     4509.280     1475.368     1021.732        0.440        0.350       42.310       32.225        0.580      332.843        1.771      862.149
12/16/2021  18:10:00      -11.438      -24.418      -14.966       60.916       50.441       37.804     3710.713     2544.287     1429.115        0.432        0.384       26.964       14.435        0.287      332.909        1.880      862.137
12/16/2021  18:11:00        3.553       40.652      -13.867       43.479       23.953       24.746     1890.446      573.764      612.356        0.247        0.154       40.807       15.433        0.143      332.776        1.659      862.168
12/16/2021  18:12:00      -50.183       31.955       -3.852       62.679       22.525       19.770     3928.701      507.364      390.871        0.419        0.241       59.493       17.760        0.089      332.766        1.642      862.194
12/16/2021  18:13:00     -119.575       -2.571      -14.804       33.887       36.298       24.873     1148.334     1317.548      618.677        0.880        0.154      119.603       22.384        0.035      332.866        1.806      862.200
12/16/2021  18:14:00      -71.049       -1.021        3.404       64.375       37.467       30.262     4144.111     1403.768      915.761        0.576        0.323       71.056       27.976        0.155      332.885        1.840      862.208
12/16/2021  18:15:00       21.849       24.542      -26.092       85.198       47.357       30.286     7258.687     2242.692      917.213        0.609        0.521       32.858       23.337        0.504      332.819        1.732      862.216
12/16/2021  18:16:00      -75.923      -13.430      -12.552       72.609       51.023       27.870     5272.112     2603.383      776.762        0.738        0.433       77.101       27.385        0.126      332.887        1.843      862.222
12/16/2021  18:17:00     -154.869      -11.670      -28.374       76.492       43.559       26.070     5851.004     1897.415      679.636        1.668        0.421      155.308       17.935        0.013      332.887        1.842      862.248
12/16/2021  18:18:00      -55.295       -6.354       -4.752       51.372       67.904       30.738     2639.130     4610.921      944.810        0.566        0.410       55.659       26.845        0.233      332.893        1.852      862.262
12/16/2021  18:19:00      -73.736       16.054       -5.445       72.795       42.672       30.700     5299.140     1820.927      942.490        0.689        0.403       75.464       20.256        0.072      332.775        1.659      862.260
12/16/2021  18:20:00      -81.560       -7.395        5.001       65.021       43.346       30.503     4227.680     1878.858      930.437        0.688        0.352       81.895       21.615        0.070      332.767        1.644      862.255
12/16/2021  18:21:00     -105.936      -22.717       -8.825       63.517       37.344       33.645     4034.456     1394.590     1131.969        0.919        0.328      108.345       28.914        0.071      332.670        1.484      862.257
12/16/2021  18:22:00      -80.879      -51.620      -15.445       46.876       35.494       17.172     2197.385     1259.790      294.878        0.660        0.188       95.949       15.792        0.027      332.850        1.782      862.243
12/16/2021  18:23:00      -28.967        3.245       -2.685       49.526       40.158       17.911     2452.802     1612.667      320.815        0.262        0.219       29.148        8.227        0.080      332.801        1.701      862.272
12/16/2021  18:24:00      -78.839      -15.117        0.547       38.635       40.111       29.851     1492.675     1608.895      891.083        0.522        0.200       80.275       15.882        0.039      332.728        1.580      862.308
12/16/2021  18:25:00      -69.714      -10.959       -9.968       42.168       34.155       24.739     1778.141     1166.589      612.018        0.432        0.178       70.570       19.262        0.075      332.665        1.476      862.346
12/16/2021  18:26:00      -11.634       -1.703      -19.165       17.480       17.698       13.272      305.536      313.233      176.142        0.065        0.040       11.758       12.622        1.152      332.742        1.603      862.362
12/16/2021  18:27:00        4.298       -0.046       -8.285       26.420       27.839       13.620      698.034      775.024      185.494        0.087        0.083        4.299       12.876        8.972      332.944        1.937      862.382
12/16/2021  18:28:00       24.761        1.878       11.633       24.389       20.171       19.789      594.821      406.862      391.600        0.107        0.070       24.832        7.694        0.096      332.838        1.762      862.420
12/16/2021  18:29:00      -79.087       24.416       -7.375       69.937       41.480       32.806     4891.132     1720.596     1076.201        0.730        0.384       82.770       36.733        0.197      332.712        1.553      862.449
12/16/2021  18:30:00     -117.047       51.207      -10.504       38.655       36.372       29.626     1494.177     1322.930      877.715        1.006        0.185      127.758       18.560        0.021      332.738        1.597      862.469
12/16/2021  18:31:00      -81.857       29.787        6.453       48.009       37.258       24.936     2304.840     1388.175      621.828        0.597        0.216       87.108       25.241        0.084      332.749        1.615      862.467
12/16/2021  18:32:00     -114.967       49.143        3.238       63.916       44.298       27.310     4085.286     1962.356      745.859        1.122        0.340      125.029       25.086        0.040      332.642        1.439      862.433
12/16/2021  18:33:00     -126.574       38.474      -15.996       57.366       37.097       23.488     3290.816     1376.196      551.697        1.149        0.261      132.293       25.120        0.036      332.687        1.512      862.428
12/16/2021  18:34:00     -131.222       73.046       -9.427       51.495       40.014       31.624     2651.753     1601.102     1000.080        1.395        0.263      150.183       26.994        0.032      332.605        1.377      862.433
12/16/2021  18:35:00     -104.664       62.425      -19.341       28.088       39.384       24.560      788.919     1551.086      603.212        0.908        0.147      121.867       14.852        0.015      332.591        1.353      862.448
12/16/2021  18:36:00      -43.703       -2.358       -8.748       53.233       29.050       22.071     2833.774      843.922      487.133        0.308        0.208       43.766       18.760        0.184      332.618        1.396      862.465
12/16/2021  18:37:00      -81.837       -8.381       -6.639       53.620       31.824       23.217     2875.153     1012.771      539.026        0.562        0.221       82.265       14.974        0.033      332.685        1.508      862.469
12/16/2021  18:38:00      -97.343       -7.699       -3.346       52.447       42.592       27.915     2750.672     1814.079      779.270        0.744        0.267       97.647       25.145        0.066      332.743        1.606      862.483
12/16/2021  18:39:00     -123.908        9.997       -0.551       60.429       46.461       29.022     3651.676     2158.656      842.296        1.105        0.333      124.310       28.856        0.054      332.718        1.564      862.499
12/16/2021  18:40:00     -132.230       -9.825       -9.778       55.960       40.480       27.200     3131.487     1638.628      739.822        1.159        0.275      132.594       19.805        0.022      332.701        1.535      862.520
12/16/2021  18:41:00     -104.312       -0.358        1.006       56.971       35.244       24.998     3245.709     1242.171      624.880        0.800        0.256      104.312       24.654        0.056      332.741        1.602      862.549
12/16/2021  18:42:00     -107.927        7.856       -8.114       28.455       25.864       22.154      809.687      668.942      490.778        0.687        0.098      108.212        6.929        0.004      332.693        1.523      862.571
12/16/2021  18:43:00      -29.656       -6.493       -2.213       21.566       27.743       18.407      465.087      769.662      338.825        0.125        0.079       30.358       15.920        0.275      332.721        1.570      862.597
12/16/2021  18:44:00      -89.199      -29.376      -13.295       29.632       19.896       20.141      878.034      395.870      405.645        0.534        0.084       93.912       13.932        0.022      332.828        1.746      862.612
12/16/2021  18:45:00      -65.758      -25.277       -6.353       39.555       30.724       24.659     1564.565      943.951      608.087        0.406        0.156       70.449       23.914        0.115      332.825        1.741      862.619
12/16/2021  18:46:00      -31.017      -23.732        5.165       49.747       34.702       22.564     2474.762     1204.229      509.132        0.287        0.209       39.055       14.991        0.147      332.891        1.848      862.638
12/16/2021  18:47:00       -0.798      -13.182       -4.718       21.927       21.676       16.424      480.776      469.837      269.746        0.071        0.061       13.206        6.358        0.232      332.837        1.760      862.662
12/16/2021  18:48:00      -33.111      -25.121        0.943       26.088       23.407       22.454      680.572      547.902      504.192        0.173        0.087       41.562       20.698        0.248      332.940        1.931      862.689
12/16/2021  18:49:00        4.525       -3.541       -8.052       23.831       30.535       16.831      567.916      932.395      283.279        0.094        0.089        5.745       10.206        3.156      332.824        1.739      862.702
12/16/2021  18:50:00       34.439       11.831      -15.304       37.113       36.073       21.450     1377.369     1301.270      460.098        0.235        0.157       36.415       17.116        0.221      332.832        1.751      862.718
12/16/2021  18:51:00       48.794     -106.394      -23.994       27.234       34.417       27.467      741.714     1184.544      754.457        0.848        0.134      117.049       21.950        0.035      332.838        1.763      862.727
12/16/2021  18:52:00       70.666      -89.787      -16.120       36.908       49.905       28.117     1362.218     2490.541      790.547        0.898        0.232      114.260       22.880        0.040      332.767        1.644      862.741
12/16/2021  18:53:00       65.403      -84.853      -32.629       47.289       33.618       22.839     2236.269     1130.189      521.623        0.821        0.194      107.133       19.043        0.032      332.790        1.683      862.745
12/16/2021  18:54:00      104.839     -106.632      -36.313       41.118       49.668       27.729     1690.672     2466.919      768.871        1.430        0.246      149.538       28.167        0.035      332.737        1.594      862.744
12/16/2021  18:55:00       30.310      -66.410      -14.879       42.816       48.129       25.475     1833.234     2316.403      648.996        0.517        0.240       73.000       24.173        0.110      332.785        1.672      862.757
12/16/2021  18:56:00      -15.613      -43.426       -8.761       41.083       37.653       27.156     1687.832     1417.714      737.424        0.302        0.192       46.147       19.789        0.184      332.749        1.614      862.776
12/16/2021  18:57:00       22.251      -61.182       -5.196       36.705       32.075       21.536     1347.238     1028.787      463.811        0.355        0.142       65.103       20.862        0.103      332.784        1.673      862.792
12/16/2021  18:58:00       17.213      -68.124       -6.251       23.108       25.623       18.657      533.999      656.513      348.068        0.326        0.077       70.265       16.675        0.056      332.764        1.639      862.816
12/16/2021  18:59:00      -24.784      -35.561      -17.701       28.788       23.491       18.003      828.762      551.815      324.116        0.195        0.085       43.345        9.458        0.048      332.703        1.539      862.828
12/16/2021  19:00:00       -8.233        6.608      -11.950       10.920       11.404       16.009      119.250      130.061      256.290        0.038        0.025       10.557       10.185        0.931      332.618        1.398      862.844
12/16/2021  19:01:00      -12.304       -5.833       -1.651       20.190       16.289       14.271      407.643      265.320      203.665        0.053        0.044       13.617        7.561        0.308      332.547        1.281      862.866
12/16/2021  19:02:00        4.239      -15.792       -0.191       15.730       22.042       10.714      247.421      485.855      114.788        0.056        0.042       16.351        8.853        0.293      332.648        1.447      862.889
12/16/2021  19:03:00       -8.021       -1.562       -1.771       26.711       12.333       10.301      713.503      152.099      106.114        0.052        0.049        8.171       10.942        1.793      332.661        1.470      862.906
12/16/2021  19:04:00       20.522       14.476       -7.690       13.104       20.331        8.901      171.719      413.346       79.235        0.068        0.033       25.113        6.647        0.070      332.578        1.331      862.926
12/16/2021  19:05:00       37.028       41.576       -3.660       24.285       16.936       13.548      589.775      286.817      183.554        0.209        0.053       55.674       11.013        0.039      332.573        1.323      862.949
12/16/2021  19:06:00       11.711       25.635       -5.355       25.793       16.256       16.246      665.305      264.261      263.946        0.101        0.060       28.184       16.074        0.325      332.505        1.212      862.972
12/16/2021  19:07:00       14.745        0.658       -1.954       16.890       19.174       10.793      285.275      367.651      116.499        0.050        0.038       14.759        5.645        0.146      332.443        1.109      862.993
12/16/2021  19:08:00       33.924       22.012       -1.626       28.177       36.819       21.184      793.938     1355.627      448.776        0.212        0.130       40.440       18.940        0.219      332.426        1.081      863.016
12/16/2021  19:09:00       27.499       24.245       -3.277       24.695       23.562       18.407      609.828      555.163      338.826        0.143        0.075       36.661       11.216        0.094      332.404        1.043      863.042
12/16/2021  19:10:00       -5.515        1.660       -7.171       15.655       16.833       11.723      245.081      283.340      137.430        0.038        0.033        5.760        4.689        0.663      332.412        1.056      863.061
12/16/2021  19:11:00       13.276        0.508       -2.587       12.556       14.681       11.471      157.664      215.535      131.580        0.034        0.025       13.285        4.626        0.121      332.483        1.174      863.080
12/16/2021  19:12:00       13.670       -2.174       -8.447       12.640       24.548        9.529      159.776      602.586       90.794        0.056        0.043       13.842       11.573        0.699      332.577        1.331      863.097
12/16/2021  19:13:00      -33.293       11.131       -5.459       32.876       19.197       13.316     1080.860      368.521      177.315        0.144        0.081       35.105       11.432        0.106      332.594        1.359      863.114
12/16/2021  19:14:00      -57.603       24.975       -2.369       26.173       22.169       12.067      685.045      491.448      145.621        0.263        0.066       62.785       14.822        0.056      332.509        1.219      863.130
12/16/2021  19:15:00      -24.443      -12.272       -6.722       27.158       27.251       25.472      737.572      742.618      648.839        0.146        0.106       27.351       18.119        0.439      332.428        1.084      863.131
12/16/2021  19:16:00        1.451      -31.566      -19.281       17.243       26.811       22.129      297.333      718.830      489.692        0.144        0.075       31.599       19.254        0.371      332.549        1.283      863.145
12/16/2021  19:17:00       18.706       20.145       -3.148       20.741       12.710       10.826      430.191      161.539      117.202        0.074        0.035       27.491        9.042        0.108      332.525        1.244      863.179
12/16/2021  19:18:00       30.996       39.358       -7.104       19.463       22.992       12.941      378.820      528.635      167.461        0.182        0.054       50.098        6.336        0.016      332.474        1.161      863.201
12/16/2021  19:19:00       43.058       16.676       -0.274       22.711       17.400       20.310      515.784      302.772      412.495        0.168        0.062       46.174       13.097        0.080      332.421        1.072      863.195
12/16/2021  19:20:00       27.854      -37.847      -27.425       43.136       52.637       34.277     1860.745     2770.676     1174.889        0.438        0.290       46.992       29.593        0.397      332.467        1.148      863.160
12/16/2021  19:21:00       80.809     -181.341      -39.839       39.805       50.653       25.753     1584.423     2565.691      663.196        2.291        0.241      198.531       17.938        0.008      332.560        1.299      863.123
12/16/2021  19:22:00       46.602     -129.922      -33.169       39.525       51.065       27.499     1562.235     2607.596      756.219        1.254        0.246      138.027       13.674        0.010      332.590        1.351      863.119
12/16/2021  19:23:00       -0.660       -2.434      -16.300       38.674       29.026       24.183     1495.672      842.487      584.799        0.160        0.146        2.521       17.528       48.324      332.545        1.277      863.145
12/16/2021  19:24:00     -110.717       -4.819       -5.366       96.376       84.628       42.532     9288.317     7161.948     1808.936        1.528        0.913      110.822       36.376        0.108      332.346        0.948      863.159
12/16/2021  19:25:00      -90.514        1.285       -0.107       93.511       47.723       37.534     8744.265     2277.524     1408.836        1.031        0.622       90.523       34.596        0.146      332.151        0.626      863.178
12/16/2021  19:26:00     -141.966       15.545       -5.337       62.610       51.593       41.776     3920.062     2661.860     1745.234        1.437        0.416      142.814       38.146        0.071      332.132        0.595      863.193
12/16/2021  19:27:00      -43.871      -16.204       -8.660       31.007       54.972       22.003      961.405     3021.894      484.142        0.336        0.223       46.768       10.673        0.052      332.297        0.867      863.210
12/16/2021  19:28:00     -157.781      -75.141      -17.902       45.771       33.652       27.212     2094.960     1132.478      740.473        1.741        0.198      174.759       21.547        0.015      332.426        1.080      863.207
12/16/2021  19:29:00      -97.992      -30.319      -10.077       52.309       47.867       31.779     2736.217     2291.260     1009.873        0.833        0.302      102.575       12.478        0.015      332.459        1.135      863.218
12/16/2021  19:30:00      -94.340      -23.947       -2.592       79.869       44.387       36.883     6379.096     1970.233     1360.337        0.959        0.485       97.332       28.315        0.085      332.423        1.076      863.238
12/16/2021  19:31:00     -111.615       -7.993        0.319       64.226       45.323       34.269     4125.040     2054.140     1174.381        0.994        0.368      111.901       32.423        0.084      332.241        0.774      863.261
12/16/2021  19:32:00     -102.142       14.734      -11.213       38.505       47.553       22.980     1482.621     2261.269      528.062        0.752        0.214      103.199       18.185        0.031      332.125        0.584      863.280
12/16/2021  19:33:00      -61.347       39.047       -5.214       45.238       34.618       20.736     2046.520     1198.396      430.001        0.449        0.184       72.719       20.442        0.079      332.041        0.445      863.297
12/16/2021  19:34:00      -35.470       18.361      -17.146       27.572       21.249       16.102      760.222      451.531      259.261        0.168        0.074       39.941       12.789        0.103      332.057        0.473      863.305
12/16/2021  19:35:00      -62.472       22.434      -13.024       44.454       21.131       15.714     1976.142      446.522      246.940        0.362        0.133       66.378       16.283        0.060      332.068        0.490      863.317
12/16/2021  19:36:00      -62.702       10.837       -7.298       36.942       32.075       15.168     1364.683     1028.820      230.083        0.336        0.131       63.632        8.370        0.017      332.063        0.481      863.326
12/16/2021  19:37:00       -6.318       -4.103       -9.245       20.469       26.199       13.005      418.995      686.381      169.141        0.071        0.064        7.533       13.742        3.328      332.054        0.467      863.334
12/16/2021  19:38:00      -38.852       22.499       -9.529       13.048       17.568        9.346      170.257      308.626       87.343        0.134        0.028       44.896        6.661        0.022      332.121        0.577      863.346
12/16/2021  19:39:00      -39.567       35.594       -8.635       11.375       12.870       10.017      129.381      165.637      100.348        0.165        0.020       53.221        6.416        0.015      332.143        0.611      863.356
12/16/2021  19:40:00      -39.330       10.715      -11.038       22.451       17.009       14.279      504.043      289.304      203.879        0.139        0.050       40.763       14.154        0.121      332.169        0.657      863.362
12/16/2021  19:41:00      -27.217       17.079       -8.073       20.490       16.434       16.156      419.838      270.072      261.031        0.102        0.048       32.132       10.914        0.115      332.080        0.509      863.367
12/16/2021  19:42:00      -27.544      -13.172      -14.088       19.014       29.260       16.444      361.527      856.132      270.415        0.131        0.074       30.532       12.220        0.160      332.068        0.489      863.379
12/16/2021  19:43:00      -11.513       -6.587      -14.079       14.801       14.722       12.810      219.057      216.750      164.090        0.049        0.030       13.264        4.850        0.134      332.060        0.477      863.390
12/16/2021  19:44:00      -16.220       12.317      -13.058        9.727       12.633        8.257       94.615      159.605       68.185        0.045        0.016       20.367        5.206        0.065      332.037        0.438      863.414
12/16/2021  19:45:00       -2.399       10.844      -11.389        4.508        5.830        4.869       20.319       33.992       23.706        0.017        0.004       11.107        1.182        0.011      332.057        0.473      863.427
12/16/2021  19:46:00       -1.093        3.451       -4.174        2.428        3.912        3.317        5.897       15.301       11.005        0.003        0.002        3.620        1.851        0.261      332.027        0.423      863.431
12/16/2021  19:47:00       -3.112        7.770       -8.948        7.340        5.018        4.807       53.878       25.177       23.109        0.013        0.005        8.370        2.941        0.123      332.093        0.529      863.433
12/16/2021  19:48:00       -4.651        0.564      -12.327       14.812       13.322        7.935      219.396      177.465       62.966        0.032        0.023        4.685        7.084        2.286      332.053        0.465      863.418
12/16/2021  19:49:00      -18.952       -2.619      -10.802       14.742       11.858       14.313      217.327      140.622      204.864        0.052        0.028       19.133        8.921        0.217      332.014        0.402      863.401
12/16/2021  19:50:00      -22.766        1.020       -8.944       22.623       15.138       12.489      511.787      229.165      155.970        0.075        0.045       22.789       11.597        0.259      331.987        0.356      863.373
12/16/2021  19:51:00      -51.392        0.934      -14.063       25.120       23.396       15.474      631.009      547.359      239.455        0.213        0.071       51.400        9.614        0.035      332.011        0.396      863.350
12/16/2021  19:52:00      -18.517        7.137      -15.467       17.275       17.044       13.921      298.426      290.504      193.788        0.071        0.039       19.845        8.659        0.190      331.956        0.305      863.340
12/16/2021  19:53:00      -58.304       27.386       -7.282       16.638       15.088       10.214      276.819      227.655      104.319        0.241        0.030       64.415        6.995        0.012      332.013        0.400      863.336
12/16/2021  19:54:00      -49.037       25.152      -12.552       20.049       12.580        9.655      401.968      158.266       93.219        0.192        0.033       55.111        4.349        0.006      331.987        0.356      863.336
12/16/2021  19:55:00      -52.645       14.222      -12.529       18.112       13.518        8.834      328.050      182.734       78.042        0.186        0.029       54.533        6.474        0.014      332.058        0.473      863.346
12/16/2021  19:56:00      -38.259       23.699      -12.613       16.065       17.926       12.129      258.092      321.329      147.103        0.146        0.036       45.004        8.875        0.039      332.027        0.422      863.358
12/16/2021  19:57:00      -38.204       13.509       -4.352       14.412       18.281       13.617      207.692      334.210      185.414        0.119        0.036       40.522        9.153        0.051      331.973        0.333      863.371
12/16/2021  19:58:00      -31.034       15.444      -14.360       27.152       18.126       12.078      737.216      328.537      145.870        0.131        0.061       34.665        9.544        0.076      331.905        0.222      863.391
12/16/2021  19:59:00      -40.387       12.053      -13.504       28.342       20.697       15.925      803.296      428.376      253.601        0.172        0.074       42.147        9.586        0.052      331.826        0.092      863.407
12/16/2021  20:00:00      -66.165       10.668      -14.119       30.165       20.619       16.141      909.948      425.123      260.521        0.314        0.080       67.019       14.974        0.050      331.794        0.040      863.430
12/16/2021  20:01:00      -66.958       20.851      -11.598       29.783       24.023       19.084      887.017      577.093      364.195        0.344        0.091       70.130        9.673        0.019      331.746       -0.039      863.451
12/16/2021  20:02:00      -68.382        7.267      -17.885       51.258       19.602       22.367     2627.336      384.232      500.301        0.428        0.176       68.767       24.382        0.126      331.767       -0.005      863.463
12/16/2021  20:03:00      -46.952       -2.162       -6.050       46.191       31.818       21.423     2133.609     1012.356      458.928        0.292        0.180       47.002       23.557        0.251      331.793        0.037      863.472
12/16/2021  20:04:00      -76.695       27.509       -2.133       45.797       30.005       23.532     2097.355      900.303      553.736        0.510        0.178       81.479       23.638        0.084      331.677       -0.153      863.484
12/16/2021  20:05:00      -66.012       27.741       -0.740       43.636       33.547       23.477     1904.125     1125.404      551.173        0.435        0.179       71.604       25.961        0.131      331.702       -0.112      863.501
12/16/2021  20:06:00      -90.299       21.789       -4.459       36.008       25.700       19.123     1296.602      660.490      365.687        0.549        0.116       92.891       19.624        0.045      331.800        0.049      863.522
12/16/2021  20:07:00      -80.051       20.300       -4.723       48.216       39.947       21.000     2324.817     1595.723      441.017        0.560        0.218       82.585       21.479        0.068      331.722       -0.078      863.529
12/16/2021  20:08:00      -19.786      -13.395       -6.032       32.316       27.792       19.763     1044.343      772.398      390.565        0.141        0.110       23.894       14.026        0.345      331.819        0.081      863.539
12/16/2021  20:09:00       -3.812       -2.647       -7.978        8.744       15.974        7.964       76.454      255.165       63.422        0.024        0.020        4.641        7.431        2.564      331.701       -0.114      863.544
12/16/2021  20:10:00       -5.445        1.945        1.914       42.852       40.609       31.884     1836.311     1649.119     1016.559        0.227        0.225        5.782       25.452       19.379      331.793        0.037      863.556
12/16/2021  20:11:00       33.691      -19.135      -15.982       52.848       62.931       45.352     2792.941     3960.271     2056.826        0.528        0.441       38.746       26.687        0.474      331.563       -0.341      863.562
12/16/2021  20:12:00       92.919      -31.930        2.884       94.752       57.088       50.560     8977.903     3259.039     2556.356        1.222        0.740       98.251       51.314        0.273      331.561       -0.344      863.558
12/16/2021  20:13:00       79.964      -24.784       -5.235       77.332       46.622       38.648     5980.192     2173.606     1493.630        0.834        0.482       83.717       33.849        0.163      331.566       -0.337      863.567
12/16/2021  20:14:00       73.363      -20.919      -18.813       39.746       47.388       32.854     1579.737     2245.641     1079.396        0.554        0.245       76.287       19.743        0.067      331.717       -0.088      863.573
12/16/2021  20:15:00       30.240      -47.022      -22.302       24.253       40.272       20.174      588.208     1621.859      406.975        0.312        0.131       55.906       15.439        0.076      331.836        0.109      863.578
12/16/2021  20:16:00       52.427      -40.930      -26.059       19.854       39.903       14.756      394.195     1592.281      217.738        0.365        0.110       66.512        8.292        0.016      331.787        0.027      863.583
12/16/2021  20:17:00        4.787       -4.120       -5.313       11.055       12.471       10.376      122.210      155.517      107.669        0.023        0.019        6.316        5.160        0.668      331.735       -0.058      863.577
12/16/2021  20:18:00       -4.894      -13.644       -4.799        8.190       12.967       11.931       67.082      168.137      142.344        0.031        0.019       14.495        4.741        0.107      331.831        0.101      863.564
12/16/2021  20:19:00      -19.213       -6.502      -21.566       19.133       16.817       19.700      366.056      282.802      388.081        0.096        0.052       20.283       17.440        0.739      331.813        0.070      863.564
12/16/2021  20:20:00      -41.309       14.424       -5.736       10.279       12.148       12.635      105.665      147.563      159.650        0.118        0.021       43.755        7.005        0.026      332.036        0.437      863.565
12/16/2021  20:21:00      -18.282       -0.377        3.104       32.432       12.334       12.707     1051.843      152.138      161.464        0.085        0.068       18.285       16.092        0.774      331.873        0.169      863.572
12/16/2021  20:22:00        8.191       -6.078      -15.428        8.505       15.256       10.150       72.335      232.750      103.030        0.038        0.020       10.200        5.753        0.318      331.974        0.336      863.588
12/16/2021  20:23:00       -3.992       -6.865       -7.005       11.075        9.940       10.567      122.650       98.806      111.659        0.022        0.017        7.941        6.755        0.724      332.075        0.502      863.606
12/16/2021  20:24:00      -31.236       18.504       -6.174       12.070       10.006        8.483      145.674      100.120       71.958        0.084        0.016       36.305        4.931        0.018      331.966        0.322      863.626
12/16/2021  20:25:00       -8.735       13.022       -3.673       14.487       13.311        4.938      209.879      177.188       24.385        0.034        0.021       15.680        7.004        0.200      331.900        0.214      863.643
12/16/2021  20:26:00      -52.709       27.309       -7.176       21.013       16.180        9.923      441.529      261.783       98.464        0.219        0.040       59.363        7.407        0.016      331.802        0.053      863.652
12/16/2021  20:27:00     -107.780       24.290      -12.378       31.289       20.172       16.209      979.030      406.921      262.747        0.700        0.082      110.483       14.379        0.017      331.744       -0.043      863.660
12/16/2021  20:28:00      -93.398        7.136       -0.750       51.363       26.804       24.233     2638.144      718.433      587.256        0.636        0.197       93.671       27.897        0.089      331.634       -0.223      863.679
12/16/2021  20:29:00     -100.821       24.966       -6.878       43.349       29.766       23.004     1879.142      885.995      529.195        0.706        0.165      103.866       22.579        0.047      331.569       -0.333      863.703
12/16/2021  20:30:00      -89.895       35.430       -9.241       34.077       21.165       20.331     1161.256      447.952      413.348        0.572        0.101       96.625       14.664        0.023      331.582       -0.310      863.728
12/16/2021  20:31:00      -66.941       29.926       -3.781       34.699       27.252       19.126     1204.035      742.696      365.801        0.385        0.116       73.325       14.021        0.037      331.578       -0.316      863.758
12/16/2021  20:32:00      -80.819       44.207      -11.332       32.647       24.475       19.626     1065.795      599.031      385.162        0.533        0.102       92.120       18.805        0.042      331.662       -0.178      863.782
12/16/2021  20:33:00      -44.359       47.437       -4.494       32.304       33.587       16.879     1043.552     1128.053      284.905        0.335        0.123       64.946       15.670        0.058      331.689       -0.134      863.804
12/16/2021  20:34:00      -64.272       45.659      -23.688       21.109       23.833       19.928      445.593      568.022      397.113        0.409        0.071       78.840       16.626        0.044      331.619       -0.249      863.834
12/16/2021  20:35:00      -82.703       38.324      -13.379       34.414       24.491       18.782     1184.334      599.806      352.759        0.531        0.107       91.151       12.935        0.020      331.571       -0.328      863.859
12/16/2021  20:36:00      -73.283       31.841      -16.252       29.319       20.904       24.806      859.590      436.965      615.356        0.428        0.096       79.902       19.356        0.059      331.583       -0.307      863.879
12/16/2021  20:37:00      -58.118       27.647      -20.909       30.030       22.642       21.906      901.798      512.657      479.867        0.324        0.095       64.359        7.669        0.014      331.514       -0.421      863.890
12/16/2021  20:38:00      -40.158       14.555      -14.737       35.417       27.163       17.256     1254.377      737.815      297.765        0.217        0.114       42.715        7.667        0.032      331.416       -0.583      863.911
12/16/2021  20:39:00      -84.256       12.190      -20.414       34.270       26.399       24.794     1174.438      696.895      614.741        0.507        0.124       85.134       15.451        0.033      331.455       -0.519      863.913
12/16/2021  20:40:00      -53.643       15.327       -6.343       40.485       22.881       25.354     1639.012      523.538      642.805        0.298        0.140       55.790       24.783        0.197      331.497       -0.450      863.925
12/16/2021  20:41:00     -109.221       32.278      -16.279       19.961       25.166       18.309      398.455      633.346      335.215        0.730        0.068      113.891       12.080        0.011      331.436       -0.551      863.938
12/16/2021  20:42:00     -110.845       25.649       -9.487       27.993       19.827       22.125      783.598      393.125      489.536        0.735        0.083      113.774       18.131        0.025      331.383       -0.637      863.952
12/16/2021  20:43:00      -89.547       23.832       -6.294       28.948       25.417       13.412      837.964      646.031      179.886        0.514        0.083       92.665       13.459        0.021      331.449       -0.529      863.969
12/16/2021  20:44:00     -110.397       30.644      -12.389       28.492       27.247       22.320      811.784      742.402      498.195        0.767        0.103      114.571       17.136        0.022      331.445       -0.537      863.996
12/16/2021  20:45:00     -107.300       36.498       -4.553       44.524       27.727       23.084     1982.417      768.812      532.856        0.807        0.164      113.338       23.657        0.044      331.282       -0.802      864.010
12/16/2021  20:46:00     -111.037       38.660       -5.783       38.874       36.792       27.079     1511.194     1353.646      733.255        0.873        0.180      117.575       21.858        0.035      331.208       -0.923      864.026
12/16/2021  20:47:00      -66.249       24.941      -10.231       38.276       35.042       22.759     1465.020     1227.960      517.969        0.416        0.161       70.788       16.684        0.056      331.247       -0.861      864.024
12/16/2021  20:48:00      -91.367       15.630       -9.331       50.325       30.761       21.707     2532.589      946.240      471.182        0.631        0.198       92.694       15.743        0.029      331.265       -0.831      864.030
12/16/2021  20:49:00      -80.244       19.426      -22.918       32.617       29.768       15.638     1063.879      886.111      244.550        0.477        0.110       82.562        6.632        0.006      331.244       -0.865      864.039
12/16/2021  20:50:00      -82.154       41.840      -16.415       29.551       28.125       18.485      873.274      791.040      341.708        0.539        0.100       92.195        7.525        0.007      331.230       -0.888      864.057
12/16/2021  20:51:00     -106.200       49.603       -9.939       25.442       24.750       20.510      647.307      612.576      420.651        0.776        0.084      117.213       16.265        0.019      331.183       -0.965      864.075
12/16/2021  20:52:00      -91.017       24.289      -10.021       35.347       23.062       17.536     1249.401      531.875      307.525        0.553        0.104       94.203       18.014        0.037      331.188       -0.959      864.074
12/16/2021  20:53:00      -97.131       21.147       -7.457       38.650       20.087       21.160     1493.840      403.503      447.727        0.614        0.117       99.407       21.019        0.045      331.239       -0.875      864.065
12/16/2021  20:54:00     -101.699       13.484      -19.766       21.575       19.973       16.029      465.501      398.927      256.941        0.602        0.056      102.589        3.976        0.002      331.243       -0.867      864.053
12/16/2021  20:55:00     -115.577       35.176      -13.659       22.396       21.737       14.377      501.582      472.481      206.692        0.798        0.059      120.812       11.557        0.009      331.231       -0.885      864.039
12/16/2021  20:56:00     -112.619       52.751      -16.440       26.060       36.684       22.133      679.127     1345.722      489.870        0.912        0.126      124.361       14.517        0.014      331.179       -0.973      864.029
12/16/2021  20:57:00     -132.684       91.159      -25.396       33.164       33.238       22.874     1099.823     1104.732      523.227        1.464        0.136      160.982       17.469        0.012      331.113       -1.081      864.034
12/16/2021  20:58:00     -138.839       90.750      -17.077       43.976       38.540       28.935     1933.874     1485.309      837.220        1.603        0.213      165.867       15.751        0.009      331.036       -1.208      864.050
12/16/2021  20:59:00     -148.196       65.469      -11.064       60.561       39.349       28.781     3667.670     1548.379      828.366        1.621        0.302      162.013       21.751        0.018      330.977       -1.307      864.072
12/16/2021  21:00:00     -161.673       58.357      -11.905       53.115       48.508       27.920     2821.210     2353.056      779.526        1.782        0.298      171.883       16.225        0.009      330.970       -1.317      864.074
12/16/2021  21:01:00     -129.234       45.069       -3.298       60.501       39.434       30.906     3660.421     1555.046      955.173        1.246        0.309      136.867       29.820        0.047      330.949       -1.352      864.097
12/16/2021  21:02:00     -118.176       41.482       -8.602       50.343       32.401       30.527     2534.426     1049.812      931.892        1.014        0.226      125.246       14.819        0.014      331.017       -1.240      864.140
12/16/2021  21:03:00      -98.276       20.869      -21.463       52.134       36.102       32.689     2718.001     1303.327     1068.583        0.782        0.254      100.467       22.094        0.048      331.085       -1.127      864.153
12/16/2021  21:04:00       -3.184       19.645        7.188       53.858       48.698       28.723     2900.684     2371.464      825.028        0.327        0.305       19.901       24.679        1.538      331.052       -1.181      864.163
12/16/2021  21:05:00        0.255        3.626       -9.036       38.760       32.777       26.263     1502.319     1074.302      689.735        0.168        0.163        3.635       16.760       21.262      331.020       -1.235      864.184
12/16/2021  21:06:00      -24.237      -12.743      -13.430       36.766       24.255       30.190     1351.769      588.297      911.415        0.189        0.143       27.383       17.073        0.389      330.997       -1.272      864.207
12/16/2021  21:07:00      -32.859       13.193        0.345       45.901       37.486       30.195     2106.869     1405.191      911.723        0.284        0.221       35.409       20.313        0.329      330.959       -1.335      864.225
12/16/2021  21:08:00     -100.446       33.300       -9.321       46.875       29.380       24.384     2197.268      863.157      594.565        0.747        0.183      105.822       12.728        0.014      330.982       -1.296      864.262
12/16/2021  21:09:00       -8.737       19.362        5.225       33.179       28.107       24.369     1100.848      790.016      593.827        0.148        0.124       21.242       12.568        0.350      330.943       -1.360      864.293
12/16/2021  21:10:00        6.294       12.046       -1.050       38.775       32.632       31.692     1503.532     1064.873     1004.376        0.188        0.179       13.591       23.969        3.110      330.928       -1.385      864.312
12/16/2021  21:11:00      -32.223       -6.273      -10.442       63.561       34.641       35.359     4039.950     1200.002     1250.230        0.384        0.325       32.828       26.993        0.676      331.003       -1.263      864.313
12/16/2021  21:12:00     -157.085       22.680       -6.261       74.277       37.524       33.535     5517.081     1408.040     1124.611        1.664        0.402      158.714       22.695        0.020      330.979       -1.302      864.304
12/16/2021  21:13:00     -155.803       19.099       -7.120       65.337       58.354       31.756     4268.908     3405.229     1008.447        1.668        0.434      156.970       21.983        0.020      330.972       -1.313      864.287
12/16/2021  21:14:00      -99.008       -1.746       -3.795       70.758       55.615       37.349     5006.744     3093.073     1394.912        0.966        0.475       99.024       34.411        0.121      330.920       -1.399      864.263
12/16/2021  21:15:00     -124.554       18.623       -2.521       80.374       38.856       31.400     6459.927     1509.812      985.967        1.241        0.448      125.938       27.276        0.047      330.928       -1.386      864.243
12/16/2021  21:16:00     -140.821       45.389       -7.932       62.461       43.947       32.351     3901.407     1931.295     1046.591        1.442        0.344      147.956       28.074        0.036      330.919       -1.402      864.223
12/16/2021  21:17:00     -142.582       53.396       -2.917       64.830       43.437       33.394     4202.959     1886.799     1115.150        1.520        0.360      152.252       32.364        0.045      330.882       -1.461      864.215
12/16/2021  21:18:00     -170.072       32.164       -6.479       46.686       43.501       31.149     2179.623     1892.370      970.234        1.752        0.252      173.086       25.112        0.021      330.948       -1.354      864.223
12/16/2021  21:19:00      -97.438       38.613       -5.434       44.964       50.315       24.894     2021.768     2531.601      619.712        0.809        0.259      104.810       21.754        0.043      330.914       -1.409      864.243
12/16/2021  21:20:00     -117.129       23.512      -12.973       42.448       31.186       25.553     1801.806      972.579      652.966        0.893        0.171      119.466       22.460        0.035      330.924       -1.392      864.270
12/16/2021  21:21:00     -110.846       27.575      -14.730       72.745       35.000       33.376     5291.767     1225.028     1113.956        1.045        0.382      114.225       29.224        0.065      330.935       -1.374      864.295
12/16/2021  21:22:00      -51.311       16.734       -5.014       67.056       41.788       30.872     4496.528     1746.203      953.066        0.507        0.360       53.971       22.112        0.168      330.900       -1.432      864.307
12/16/2021  21:23:00      -64.512       -1.055        5.340       77.084       57.921       42.045     5941.911     3354.791     1767.764        0.763        0.553       64.521       43.802        0.461      330.829       -1.547      864.315
12/16/2021  21:24:00       -7.575       29.257        3.893       60.638       48.414       38.049     3676.999     2343.897     1447.740        0.420        0.373       30.222       25.786        0.728      330.902       -1.428      864.316
12/16/2021  21:25:00      -39.189       -2.328        0.873       69.293       53.544       43.360     4801.579     2866.944     1880.116        0.554        0.477       39.258       39.751        1.025      330.914       -1.407      864.322
12/16/2021  21:26:00      -10.244       25.425        4.144       35.267       54.210       32.280     1243.735     2938.713     1041.984        0.300        0.261       27.412       15.106        0.304      330.891       -1.445      864.313
12/16/2021  21:27:00      -38.605        3.963       -4.346       63.656       41.073       36.181     4052.121     1687.000     1309.034        0.429        0.352       38.808       33.183        0.731      330.981       -1.299      864.303
12/16/2021  21:28:00      -45.144       36.166        0.011       93.164       55.485       39.436     8679.594     3078.631     1555.164        0.833        0.666       57.844       48.303        0.697      330.995       -1.276      864.296
12/16/2021  21:29:00      -24.230        3.476        3.817       46.165       46.596       28.776     2131.198     2171.233      828.037        0.287        0.257       24.478       25.140        1.055      330.950       -1.349      864.294
12/16/2021  21:30:00      -79.794        4.747       -1.688       85.129       41.358       31.112     7247.004     1710.518      967.943        0.816        0.496       79.935       21.722        0.074      330.976       -1.306      864.302
12/16/2021  21:31:00     -105.954       -3.122        9.735       88.139       39.059       42.919     7768.525     1525.594     1842.079        1.123        0.557      106.000       44.522        0.176      330.978       -1.304      864.307
12/16/2021  21:32:00     -135.948       16.465        2.791       74.887       43.933       29.445     5608.002     1930.149      867.025        1.358        0.420      136.941       31.180        0.052      331.037       -1.207      864.312
12/16/2021  21:33:00     -114.330       -3.401       -9.988       39.739       35.832       26.845     1579.150     1283.949      720.664        0.838        0.179      114.380       22.188        0.038      331.144       -1.029      864.320
12/16/2021  21:34:00     -166.071      -18.095      -11.413       58.890       38.698       27.432     3468.073     1497.571      752.503        1.688        0.286      167.054       31.137        0.035      331.235       -0.881      864.329
12/16/2021  21:35:00      -87.371        4.163      -16.490       71.445       38.973       35.638     5104.436     1518.860     1270.047        0.791        0.395       87.470       33.604        0.148      331.236       -0.877      864.361
12/16/2021  21:36:00      -72.228       -2.301      -20.959       55.896       40.773       41.252     3124.346     1662.424     1701.698        0.607        0.324       72.265       24.795        0.118      331.256       -0.846      864.376
12/16/2021  21:37:00      -86.163       35.114       -7.279       27.546       24.354       17.136      758.793      593.096      293.630        0.518        0.082       93.043       12.821        0.019      331.315       -0.748      864.376
12/16/2021  21:38:00      -72.237       38.542      -16.424       29.360       31.719       21.208      862.010     1006.072      449.790        0.465        0.116       81.876       16.535        0.041      331.263       -0.835      864.372
12/16/2021  21:39:00     -105.057       26.884      -16.935       51.914       31.351       23.282     2695.105      982.883      542.052        0.813        0.211      108.442       18.774        0.030      331.176       -0.978      864.367
12/16/2021  21:40:00     -140.795       81.253      -13.218       52.338       39.854       25.435     2739.231     1588.356      646.962        1.579        0.249      162.558       25.845        0.025      331.183       -0.964      864.362
12/16/2021  21:41:00     -148.272       93.053      -18.866       50.657       30.192       28.298     2566.178      911.541      800.804        1.764        0.214      175.053       22.533        0.017      331.139       -1.038      864.352
12/16/2021  21:42:00     -108.707       64.940      -17.044       49.108       41.291       24.216     2411.608     1704.983      586.401        1.051        0.235      126.627       27.445        0.047      331.103       -1.099      864.345
12/16/2021  21:43:00     -136.287       25.298      -15.051       47.862       54.783       27.931     2290.788     3001.207      780.155        1.276        0.304      138.615       20.311        0.021      331.083       -1.131      864.342
12/16/2021  21:44:00     -167.107       64.419      -14.226       41.859       49.806       29.585     1752.145     2480.624      875.272        1.869        0.255      179.094       22.947        0.016      331.030       -1.219      864.337
12/16/2021  21:45:00     -109.386       20.176      -11.430       52.551       55.065       30.270     2761.626     3032.169      916.298        0.961        0.336      111.231       12.762        0.013      331.036       -1.207      864.348
12/16/2021  21:46:00      -80.695       26.782       -4.716       69.178       39.341       25.787     4785.582     1547.711      664.983        0.712        0.350       85.023       21.037        0.061      330.996       -1.274      864.369
12/16/2021  21:47:00      -43.528       13.897        5.234       53.450       31.501       21.672     2856.892      992.289      469.696        0.322        0.216       45.693        9.008        0.039      331.051       -1.183      864.375
12/16/2021  21:48:00     -102.155      -16.642       -1.334       50.926       35.732       25.116     2593.420     1276.753      630.804        0.761        0.225      103.501       24.197        0.055      330.998       -1.270      864.391
12/16/2021  21:49:00     -116.092      -14.867       -9.143       31.936       27.945       26.758     1019.895      780.926      715.982        0.815        0.126      117.040       19.781        0.029      331.033       -1.213      864.399
12/16/2021  21:50:00      -85.811      -11.892       -9.122       55.610       38.600       26.241     3092.464     1489.981      688.601        0.643        0.264       86.631       31.367        0.131      331.077       -1.141      864.400
12/16/2021  21:51:00      -93.115        1.794      -12.867       46.653       31.454       18.275     2176.488      989.356      333.990        0.617        0.175       93.132       14.885        0.026      331.062       -1.165      864.412
12/16/2021  21:52:00      -92.882        4.235       -4.586       40.968       29.512       24.416     1678.357      870.968      596.124        0.591        0.157       92.979       15.951        0.029      331.033       -1.212      864.405
12/16/2021  21:53:00      -79.102       -4.948       -7.776       27.012       25.471       22.229      729.662      648.795      494.116        0.411        0.094       79.257       17.217        0.047      331.089       -1.121      864.407
12/16/2021  21:54:00       -9.999        5.933        2.410       23.474       17.502       17.421      551.046      306.322      303.480        0.065        0.058       11.626       15.579        1.796      331.065       -1.160      864.415
12/16/2021  21:55:00       -9.855        7.990       -0.449       20.495       17.517       17.402      420.060      306.848      302.842        0.060        0.051       12.687        9.914        0.611      330.985       -1.292      864.428
12/16/2021  21:56:00      -67.890        5.585      -15.980       26.965       21.059       16.349      727.110      443.487      267.288        0.317        0.072       68.119       12.716        0.035      330.998       -1.271      864.445
12/16/2021  21:57:00      -39.788       -1.539       -1.122       45.720       24.611       16.370     2090.308      605.686      267.983        0.227        0.148       39.818       15.161        0.145      330.942       -1.361      864.466
12/16/2021  21:58:00      -47.024       32.491       -9.672       37.414       32.978       14.266     1399.784     1087.537      203.520        0.303        0.135       57.157       16.156        0.080      330.867       -1.487      864.482
12/16/2021  21:59:00      -90.541       40.944      -11.807       13.677       17.930       12.971      187.068      321.479      168.239        0.535        0.034       99.369        7.020        0.005      330.874       -1.474      864.494
12/16/2021  22:00:00      -59.189       13.037      -11.913       20.368       13.490       12.209      414.836      181.984      149.064        0.228        0.037       60.608       10.809        0.032      330.897       -1.437      864.502
12/16/2021  22:01:00      -48.511       -1.811      -13.583       29.590       19.961       13.693      875.575      398.428      187.507        0.200        0.073       48.545        5.930        0.015      330.978       -1.304      864.516
12/16/2021  22:02:00      -36.057       -8.031      -13.147       27.998       20.706       17.865      783.881      428.741      319.142        0.153        0.077       36.940       16.492        0.199      330.946       -1.357      864.526
12/16/2021  22:03:00      -10.036        0.697        4.753       25.215       15.699       16.437      635.813      246.449      270.178        0.064        0.058       10.060       10.864        1.166      330.835       -1.538      864.536
12/16/2021  22:04:00      -60.926       -4.604       -7.746       29.340       18.913       13.094      860.858      357.713      171.465        0.259        0.070       61.100       11.479        0.035      330.982       -1.298      864.553
12/16/2021  22:05:00      -27.487       -4.520       -7.593       37.535       19.856       20.106     1408.860      394.281      404.262        0.152        0.110       27.856       23.237        0.696      330.955       -1.340      864.570
12/16/2021  22:06:00      -21.755       -0.676       -9.538       24.038       20.340       17.317      577.807      413.721      299.892        0.093        0.065       21.766       11.277        0.268      330.912       -1.412      864.579
12/16/2021  22:07:00      -48.232        2.842      -14.632       22.486       18.311       17.615      505.606      335.291      310.275        0.185        0.058       48.316       11.489        0.057      330.911       -1.414      864.593
12/16/2021  22:08:00      -28.702       -5.620       -9.181       25.149       16.354       15.220      632.465      267.469      231.647        0.104        0.057       29.247       15.757        0.290      330.840       -1.530      864.617
12/16/2021  22:09:00      -25.977       -3.117       -8.743       18.370       18.538       14.571      337.472      343.652      212.303        0.083        0.045       26.163       12.047        0.212      330.910       -1.415      864.626
12/16/2021  22:10:00      -16.604      -13.286       -2.201       21.996       18.376       18.720      483.834      337.674      350.431        0.081        0.059       21.265       11.267        0.281      330.934       -1.375      864.650
12/16/2021  22:11:00      -21.633      -13.078        5.495       21.953       19.151       15.590      481.953      366.773      243.034        0.088        0.055       25.279       11.365        0.202      330.924       -1.392      864.669
12/16/2021  22:12:00      -89.313      -20.219       -4.933       39.935       28.184       24.298     1594.769      794.350      590.395        0.569        0.149       91.573       22.657        0.061      330.865       -1.487      864.688
12/16/2021  22:13:00     -108.155       -2.203       -7.880       49.074       32.805       18.043     2408.211     1076.165      325.538        0.779        0.190      108.177       22.777        0.044      330.779       -1.630      864.704
12/16/2021  22:14:00      -32.432       -1.467        5.320       35.694       28.443       23.380     1274.089      809.003      546.604        0.186        0.131       32.465       20.684        0.406      330.732       -1.706      864.725
12/16/2021  22:15:00      -83.417        0.749       -6.405       41.296       27.035       21.196     1705.350      730.889      449.277        0.494        0.144       83.420       19.967        0.057      330.816       -1.569      864.734
12/16/2021  22:16:00      -90.392       -8.809       -9.560       30.104       31.994       20.053      906.261     1023.627      402.126        0.534        0.117       90.820       13.732        0.023      330.807       -1.583      864.744
12/16/2021  22:17:00      -81.419        0.572      -12.371       41.581       39.153       26.185     1728.950     1532.961      685.656        0.536        0.197       81.421       20.607        0.064      330.735       -1.701      864.742
12/16/2021  22:18:00      -96.004      -25.110       -6.160       58.793       27.848       26.638     3456.621      775.514      709.568        0.741        0.247       99.234       29.580        0.089      330.706       -1.750      864.746
12/16/2021  22:19:00     -103.025       -6.601       -9.989       48.187       32.215       19.654     2321.980     1037.781      386.293        0.725        0.187      103.236       20.444        0.039      330.757       -1.666      864.745
12/16/2021  22:20:00     -128.702       -9.037       -8.729       55.295       30.033       28.930     3057.513      901.961      836.931        1.076        0.240      129.019       27.160        0.044      330.674       -1.801      864.749
12/16/2021  22:21:00      -38.212       17.789       -7.060       39.987       33.801       22.158     1598.991     1142.493      490.963        0.253        0.162       42.150       20.791        0.243      330.642       -1.853      864.765
12/16/2021  22:22:00      -57.327        9.910       -8.160       28.595       26.211       16.037      817.685      687.033      257.185        0.261        0.088       58.178        9.805        0.028      330.692       -1.771      864.788
12/16/2021  22:23:00      -49.324       17.780       -8.928       28.245       36.597       21.578      797.760     1339.323      465.622        0.272        0.130       52.431       19.882        0.144      330.737       -1.698      864.814
12/16/2021  22:24:00      -59.176       21.704      -19.300       23.318       19.930       15.242      543.745      397.217      232.328        0.276        0.059       63.031       14.770        0.055      330.822       -1.559      864.830
12/16/2021  22:25:00      -38.674       26.898      -10.259       17.915       10.511       10.411      320.930      110.488      108.394        0.143        0.027       47.108        9.452        0.040      330.761       -1.658      864.844
12/16/2021  22:26:00      -48.940       17.157      -15.751       20.449       20.375       13.070      418.171      415.137      170.836        0.197        0.050       51.860        5.527        0.011      330.796       -1.600      864.847
12/16/2021  22:27:00      -50.999       17.247       -2.832       22.689       25.209       14.496      514.780      635.483      210.148        0.213        0.068       53.837       12.660        0.055      330.678       -1.794      864.861
12/16/2021  22:28:00      -55.253        5.590      -14.077       41.289       26.158       17.813     1704.787      684.229      317.314        0.299        0.135       55.535        9.603        0.030      330.755       -1.668      864.873
12/16/2021  22:29:00      -44.492       -2.569        2.281       32.096       30.447       19.775     1030.144      926.991      391.059        0.217        0.117       44.566       19.122        0.184      330.782       -1.625      864.893
12/16/2021  22:30:00      -65.669      -25.700       -9.085       33.396       43.402       22.815     1115.300     1883.756      520.538        0.429        0.176       70.519       14.235        0.041      330.811       -1.575      864.912
12/16/2021  22:31:00      -27.152       -5.262       -7.440       43.608       35.794       28.859     1901.694     1281.227      832.824        0.242        0.201       27.657       13.940        0.254      330.824       -1.555      864.928
12/16/2021  22:32:00      -39.252      -24.633       -6.010       41.737       27.508       26.165     1741.960      756.695      684.581        0.268        0.159       46.341       20.034        0.187      330.723       -1.721      864.940
12/16/2021  22:33:00      -94.062      -33.346       -6.163       42.321       44.531       27.996     1791.070     1983.032      783.785        0.728        0.228       99.798       19.811        0.039      330.778       -1.630      864.939
12/16/2021  22:34:00      -20.714      -13.864      -16.644       22.830       27.629       22.525      521.204      763.349      507.360        0.134        0.090       24.926       14.550        0.341      330.808       -1.582      864.947
12/16/2021  22:35:00      -33.064      -22.274       -3.190       41.159       34.683       21.957     1694.044     1202.939      482.106        0.249        0.169       39.867       16.193        0.165      330.769       -1.645      864.963
12/16/2021  22:36:00       20.635        2.245        0.628       25.710       26.117       19.580      661.020      682.097      383.385        0.108        0.086       20.757       13.729        0.437      330.743       -1.687      864.972
12/16/2021  22:37:00      -23.676        8.280      -10.505       26.114       29.475       16.839      681.952      868.803      283.557        0.129        0.092       25.082       12.101        0.233      330.640       -1.857      864.976
12/16/2021  22:38:00      -18.846       -1.821       -3.286       17.693       15.934       11.227      313.035      253.904      126.048        0.053        0.035       18.934        2.569        0.018      330.601       -1.922      864.971
12/16/2021  22:39:00      -15.420      -19.989      -15.654       23.342       26.430       15.412      544.844      698.566      237.529        0.118        0.074       25.245        9.942        0.155      330.704       -1.754      864.964
12/16/2021  22:40:00       -4.116      -15.481      -16.281       18.253       17.408       13.014      333.189      303.044      169.367        0.066        0.040       16.019        6.234        0.151      330.697       -1.763      864.972
12/16/2021  22:41:00      -25.241      -19.903      -21.343       26.873       22.069       16.445      722.172      487.047      270.432        0.148        0.074       32.144        6.625        0.042      330.708       -1.746      864.981
12/16/2021  22:42:00      -20.920      -25.132      -14.132       25.260       29.477       22.014      638.043      868.895      484.600        0.163        0.100       32.700       14.625        0.200      330.614       -1.900      864.997
12/16/2021  22:43:00      -33.790      -24.057      -16.393       33.325       25.220       19.102     1110.579      636.025      364.901        0.205        0.106       41.479       19.954        0.231      330.639       -1.860      865.012
12/16/2021  22:44:00      -16.375       -9.154       -4.406       20.913       19.365       15.303      437.356      374.991      234.190        0.071        0.052       18.760        8.312        0.196      330.597       -1.928      865.022
12/16/2021  22:45:00       -4.778       -8.371       -7.862       14.648       15.868       16.379      214.554      251.805      268.261        0.044        0.037        9.638        9.300        0.931      330.503       -2.083      865.022
12/16/2021  22:46:00       -0.971        8.800      -15.422       18.191       19.148       16.319      330.916      366.641      266.300        0.064        0.048        8.853       11.362        1.647      330.520       -2.055      865.009
12/16/2021  22:47:00      -24.657       24.957      -14.499       23.723       31.907       17.018      562.801     1018.052      289.607        0.166        0.094       35.083       15.822        0.203      330.508       -2.075      865.003
12/16/2021  22:48:00       -9.104       10.179       -4.195        9.863        6.482       11.135       97.281       42.021      123.990        0.023        0.013       13.657        6.648        0.237      330.506       -2.079      865.015
12/16/2021  22:49:00       -3.911      -13.582       -3.509       20.623       30.973       11.589      425.303      959.297      134.311        0.087        0.076       14.134       10.728        0.576      330.520       -2.057      865.030
12/16/2021  22:50:00       71.489     -132.558      -30.225       25.593       42.352       19.449      655.017     1793.723      378.272        1.321        0.141      150.607       21.469        0.020      330.474       -2.128      865.042
12/16/2021  22:51:00       82.440     -146.908      -23.961       28.012       37.760       22.755      784.648     1425.813      517.807        1.584        0.136      168.459       19.991        0.014      330.456       -2.159      865.048
12/16/2021  22:52:00       60.685     -147.745      -27.262       56.280       45.441       33.198     3167.417     2064.906     1102.080        1.629        0.317      159.722       36.582        0.052      330.482       -2.118      865.049
12/16/2021  22:53:00      -13.962      -26.739      -18.472       44.579       43.318       27.538     1987.274     1876.409      758.357        0.294        0.231       30.165       21.107        0.490      330.559       -1.991      865.049
12/16/2021  22:54:00      -25.253      -22.634      -12.444       32.839       36.538       25.658     1078.428     1335.032      658.308        0.219        0.154       33.912       13.207        0.152      330.597       -1.928      865.045
12/16/2021  22:55:00      -10.510      -23.943      -14.546       31.397       28.085       18.583      985.772      788.740      345.328        0.151        0.106       26.148       10.102        0.149      330.699       -1.760      865.038
12/16/2021  22:56:00       -1.165      -22.148      -11.025       27.547       25.980       23.300      758.835      674.971      542.905        0.129        0.099       22.179       10.504        0.224      330.588       -1.943      865.039
12/16/2021  22:57:00      -40.440       -5.978        2.575       42.972       32.682       24.118     1846.633     1068.091      581.679        0.259        0.175       40.879       22.810        0.311      330.526       -2.047      865.040
12/16/2021  22:58:00      -24.900        0.150       -1.494       49.879       29.523       23.858     2487.918      871.622      569.209        0.227        0.196       24.901       15.719        0.398      330.503       -2.082      865.038
12/16/2021  22:59:00       -0.225      -14.710        6.439       28.447       31.222       18.942      809.228      974.796      358.805        0.120        0.107       14.712       11.372        0.598      330.535       -2.031      865.025
12/16/2021  23:00:00        1.437      -18.411        6.744       23.850       30.972       20.340      568.836      959.246      413.733        0.116        0.097       18.467        8.170        0.196      330.491       -2.105      865.012
12/16/2021  23:01:00      -52.512      -19.176       -8.418       58.976       31.556       21.249     3478.164      995.752      451.504        0.406        0.246       55.903       14.659        0.069      330.529       -2.040      864.996
12/16/2021  23:02:00      -62.610       27.275        6.732       49.679       36.380       26.069     2467.961     1323.507      679.594        0.459        0.224       68.293       21.645        0.100      330.406       -2.241      864.962
12/16/2021  23:03:00     -119.978       -4.929        3.067       87.591       44.707       33.778     7672.266     1998.721     1140.962        1.262        0.541      120.079       41.931        0.122      330.511       -2.071      864.927
12/16/2021  23:04:00     -140.625      -14.708       -2.157       57.567       35.369       30.337     3313.967     1250.949      920.318        1.274        0.274      141.392       30.769        0.047      330.486       -2.112      864.913
12/16/2021  23:05:00      -85.582       -0.958        1.851       52.739       40.644       32.439     2781.352     1651.962     1052.300        0.641        0.274       85.587       22.784        0.071      330.484       -2.115      864.914
12/16/2021  23:06:00     -141.580      -12.773      -11.790       69.212       42.810       32.107     4790.296     1832.711     1030.865        1.400        0.383      142.155       34.378        0.058      330.383       -2.279      864.920
12/16/2021  23:07:00      -66.995       -9.235       -0.154       63.701       44.107       37.216     4057.822     1945.386     1385.021        0.598        0.369       67.629       33.866        0.251      330.415       -2.227      864.926
12/16/2021  23:08:00      -72.010        2.070       -3.840       56.696       49.075       30.091     3214.403     2408.379      905.496        0.587        0.326       72.040       26.133        0.132      330.390       -2.268      864.941
12/16/2021  23:09:00     -138.608        3.197       -7.769       53.556       37.105       32.335     2868.234     1376.803     1045.579        1.229        0.265      138.645       17.399        0.016      330.327       -2.370      864.960
12/16/2021  23:10:00     -175.740      -14.363      -12.981       42.917       31.535       29.527     1841.905      994.456      871.840        1.748        0.185      176.326       21.041        0.014      330.339       -2.353      864.972
12/16/2021  23:11:00     -114.202       -8.284      -14.710       41.625       37.676       26.570     1732.632     1419.463      705.943        0.859        0.193      114.502       21.960        0.037      330.363       -2.311      864.981
12/16/2021  23:12:00     -113.950       41.490      -19.297       59.042       50.067       27.004     3485.916     2506.751      729.220        1.090        0.336      121.269       29.428        0.059      330.296       -2.422      864.984
12/16/2021  23:13:00     -161.137       45.817      -18.844       45.854       41.560       26.340     2102.552     1727.193      693.820        1.647        0.226      167.524       27.470        0.027      330.150       -2.662      864.984
12/16/2021  23:14:00      -70.392       11.878      -16.047       67.818       38.047       29.236     4599.326     1447.591      854.741        0.613        0.345       71.387       29.307        0.169      330.173       -2.625      864.986
12/16/2021  23:15:00      -76.055       30.492       -7.183       69.008       46.346       35.036     4762.111     2147.911     1227.540        0.745        0.407       81.939       23.460        0.082      330.159       -2.648      864.989
12/16/2021  23:16:00     -143.609       21.792      -13.122       78.136       47.914       32.473     6105.237     2295.705     1054.481        1.536        0.473      145.253       19.849        0.019      330.022       -2.871      864.986
12/16/2021  23:17:00     -163.696       40.920        0.626       76.747       41.709       37.719     5890.142     1739.672     1422.693        1.876        0.453      168.733       41.853        0.062      329.948       -2.995      864.991
12/16/2021  23:18:00     -170.032       51.639      -12.815       51.800       42.318       32.460     2683.249     1790.811     1053.651        1.863        0.276      177.701       24.780        0.019      329.933       -3.019      864.992
12/16/2021  23:19:00      -91.159       25.715       -8.785       76.554       52.996       30.969     5860.533     2808.548      959.053        0.934        0.481       94.716       31.271        0.109      329.920       -3.039      864.992
12/16/2021  23:20:00     -138.345       56.057       -4.469       49.553       40.319       33.493     2455.453     1625.661     1121.776        1.375        0.260      149.270       28.770        0.037      329.815       -3.211      864.994
12/16/2021  23:21:00      -99.467       15.233       -5.274       51.484       36.829       29.149     2650.575     1356.355      849.669        0.750        0.243      100.626       24.787        0.061      329.842       -3.168      865.002
12/16/2021  23:22:00     -103.288       47.466      -10.884       49.921       55.990       30.439     2492.098     3134.921      926.516        0.980        0.328      113.672       27.725        0.059      329.818       -3.207      865.017
12/16/2021  23:23:00      -48.188        2.090        0.114       54.947       45.675       31.322     3019.192     2086.249      981.044        0.421        0.304       48.233       33.204        0.474      329.919       -3.039      865.031
12/16/2021  23:24:00       -4.109        8.968       -3.287       37.771       54.873       29.926     1426.685     3011.012      895.567        0.272        0.267        9.865       22.122        5.029      329.935       -3.014      865.042
12/16/2021  23:25:00       -8.907        7.480        0.201       36.892       36.187       29.724     1360.995     1309.475      883.524        0.184        0.178       11.631       10.970        0.890      330.039       -2.842      865.041
12/16/2021  23:26:00     -133.701       26.563       -4.374       39.105       31.937       20.803     1529.227     1019.943      432.749        1.079        0.149      136.314       20.134        0.022      329.935       -3.013      865.041
12/16/2021  23:27:00      -64.516        9.246       -6.914       40.596       32.264       20.987     1648.038     1040.955      440.445        0.371        0.156       65.175       22.320        0.117      330.014       -2.884      865.046
12/16/2021  23:28:00      -19.009      -12.539      -10.911       37.424       26.395       23.912     1400.553      696.718      571.776        0.165        0.133       22.772       17.554        0.594      330.030       -2.859      865.059
12/16/2021  23:29:00       -1.364        8.979        1.390       44.084       34.214       22.408     1943.365     1170.609      502.105        0.185        0.181        9.082       11.570        1.623      329.995       -2.916      865.066
12/16/2021  23:30:00     -139.682       25.304      -17.168       56.030       35.955       30.940     3139.378     1292.743      957.288        1.292        0.269      141.956       16.839        0.014      329.991       -2.921      865.054
12/16/2021  23:31:00     -125.597       11.898      -12.877       49.943       35.170       30.040     2494.278     1236.930      902.407        1.036        0.232      126.159       22.139        0.031      329.977       -2.945      865.039
12/16/2021  23:32:00      -26.073       10.746       -6.278       42.480       27.351       23.325     1804.525      748.081      544.050        0.197        0.155       28.200       20.111        0.509      329.969       -2.956      865.011
12/16/2021  23:33:00      -45.807       23.598      -15.434       41.457       41.728       30.209     1718.721     1741.191      912.596        0.363        0.219       51.528       28.362        0.303      330.010       -2.891      864.990
12/16/2021  23:34:00      -81.796       24.838      -27.937       44.027       40.361       24.808     1938.367     1629.048      615.450        0.613        0.209       85.484       20.094        0.055      330.087       -2.763      864.966
12/16/2021  23:35:00     -142.623       45.369      -15.237       35.813       31.767       27.399     1282.562     1009.135      750.701        1.284        0.152      149.666       14.358        0.009      329.986       -2.929      864.954
12/16/2021  23:36:00     -160.687       60.375      -23.188       36.932       30.841       28.238     1363.966      951.162      797.383        1.656        0.156      171.655       14.568        0.007      329.971       -2.953      864.954
12/16/2021  23:37:00      -77.428       32.546      -15.733       71.308       27.801       34.901     5084.888      772.909     1218.107        0.719        0.354       83.990       41.182        0.240      329.991       -2.920      864.956
12/16/2021  23:38:00     -110.015       32.979      -13.821       39.138       33.561       22.997     1531.798     1126.338      528.851        0.828        0.159      114.852        3.540        0.001      329.954       -2.981      864.954
12/16/2021  23:39:00      -94.579        5.932       -6.059       44.963       23.054       20.685     2021.650      531.494      427.874        0.600        0.149       94.765       19.440        0.042      329.954       -2.982      864.954
12/16/2021  23:40:00      -68.329       45.365       -6.077       50.110       28.888       24.370     2511.013      834.510      593.894        0.535        0.197       82.017       24.121        0.086      329.885       -3.096      864.956
12/16/2021  23:41:00      -74.103       37.567      -11.345       32.529       23.794       22.111     1058.149      566.163      488.884        0.457        0.106       83.081       15.692        0.036      329.943       -3.000      864.961
12/16/2021  23:42:00     -103.496       14.466       -9.262       39.939       21.112       19.471     1595.117      445.707      379.105        0.671        0.121      104.502       17.599        0.028      329.949       -2.991      864.964
12/16/2021  23:43:00       12.508       -2.798      -11.935       30.658       27.289       21.737      939.905      744.712      472.491        0.123        0.108       12.817       15.748        1.510      330.009       -2.893      864.953
12/16/2021  23:44:00      -26.470        2.630        5.833       35.900       26.621       15.580     1288.843      708.698      242.742        0.149        0.112       26.601       11.833        0.198      329.929       -3.023      864.951
12/16/2021  23:45:00      -18.558       -4.205       -5.590       44.251       29.325       30.391     1958.169      859.943      923.628        0.207        0.187       19.028       19.872        1.091      329.968       -2.959      864.946
12/16/2021  23:46:00      -29.719       -5.955      -12.601       63.977       38.668       31.403     4093.081     1495.203      986.154        0.382        0.329       30.310       22.207        0.537      329.930       -3.020      864.954
12/16/2021  23:47:00      -44.146      -14.545        0.784       57.047       29.776       24.431     3254.413      886.598      596.879        0.345        0.237       46.480       26.831        0.333      329.890       -3.087      864.958
12/16/2021  23:48:00     -124.639      -28.396      -10.579       44.227       26.820       24.055     1956.071      719.291      578.657        0.985        0.163      127.833       16.131        0.016      329.956       -2.979      864.955
12/16/2021  23:49:00      -96.404      -27.366       -9.457       41.918       28.288       24.415     1757.127      800.235      596.093        0.664        0.158      100.213       18.821        0.035      329.966       -2.963      864.949
12/16/2021  23:50:00      -67.703        7.315       -7.556       25.667       26.103       20.437      658.787      681.379      417.659        0.323        0.088       68.097        8.560        0.016      329.990       -2.924      864.947
12/16/2021  23:51:00      -87.362        6.869       -7.581       21.384       16.803       18.913      457.263      282.327      357.711        0.442        0.055       87.632        9.224        0.011      330.020       -2.873      864.949
12/16/2021  23:52:00      -41.230        6.505      -10.601       33.349       34.287       22.020     1112.163     1175.572      484.901        0.231        0.139       41.740       22.498        0.291      330.095       -2.752      864.953
12/16/2021  23:53:00      -82.711        4.048      -17.157       18.683       20.511       11.676      349.039      420.713      136.337        0.403        0.045       82.810        6.951        0.007      330.034       -2.852      864.957
12/16/2021  23:54:00      -61.596       -2.879       -8.787       33.997       14.487       12.715     1155.780      209.876      161.677        0.270        0.076       61.663        6.588        0.011      330.048       -2.829      864.963
12/16/2021  23:55:00      -60.146        3.625      -13.898       15.972       28.161       12.376      255.114      793.019      153.156        0.251        0.060       60.255        7.738        0.016      330.059       -2.812      864.972
12/16/2021  23:56:00      -72.797       18.315      -17.377       19.663       17.043       12.213      386.626      290.477      149.146        0.338        0.041       75.066        8.101        0.012      330.068       -2.796      864.980
12/16/2021  23:57:00      -81.840       25.904      -11.957       25.193       16.909       13.650      634.698      285.914      186.322        0.431        0.055       85.841       13.032        0.023      330.055       -2.818      864.981
12/16/2021  23:58:00      -84.006       17.811      -12.325       29.955       15.959       16.003      897.314      254.698      256.101        0.447        0.070       85.874        5.577        0.004      330.086       -2.767      864.965
12/16/2021  23:59:00      -51.031        3.085       -6.376       27.083       20.245       17.384      733.467      409.873      302.191        0.205        0.072       51.124       10.715        0.044      330.096       -2.752      864.956
12/17/2021  00:00:00      -48.937        5.181       -2.975       45.930       24.324       18.537     2109.524      591.660      343.611        0.274        0.152       49.210       19.029        0.150      330.078       -2.782      864.960
12/17/2021  00:01:00      -66.412        0.544       -2.752       41.816       33.806       25.436     1748.578     1142.855      647.005        0.398        0.177       66.414       19.586        0.087      330.065       -2.801      864.968
12/17/2021  00:02:00     -100.213      -14.662      -12.209       47.441       23.471       22.691     2250.664      550.875      514.875        0.686        0.166      101.279       19.420        0.037      330.170       -2.628      864.985
12/17/2021  00:03:00      -62.274      -10.864       -2.558       30.400       26.116       24.539      924.168      682.061      602.170        0.311        0.110       63.215       10.582        0.028      330.242       -2.511      865.003
12/17/2021  00:04:00      -44.356      -16.153      -15.164       21.509       18.028       13.578      462.647      324.996      184.354        0.171        0.049       47.206        7.128        0.023      330.277       -2.453      865.018
12/17/2021  00:05:00       -6.516        6.805       -0.776       12.627       14.166       11.577      159.450      200.664      134.019        0.029        0.025        9.422        3.294        0.122      330.222       -2.544      865.025
12/17/2021  00:06:00       39.685       42.950      -18.263       33.624       29.538       17.962     1130.602      872.511      322.619        0.304        0.116       58.477       14.407        0.061      330.211       -2.561      865.031
12/17/2021  00:07:00       63.638       30.842      -12.013       43.984       31.587       24.892     1934.604      997.766      619.619        0.435        0.178       70.718       23.420        0.110      329.920       -3.038      865.036
12/17/2021  00:08:00       41.577       55.104       -9.317       29.452       18.595       12.048      867.393      345.774      145.163        0.310        0.068       69.030       11.997        0.030      329.901       -3.070      865.031
12/17/2021  00:09:00      -39.923       55.455       -8.539       25.535       19.639       16.619      652.035      385.709      276.178        0.303        0.066       68.331        9.168        0.018      330.113       -2.723      865.010
12/17/2021  00:10:00      -88.388       22.504       -2.591       33.755       24.656       23.987     1139.406      607.897      575.395        0.532        0.116       91.207       18.077        0.039      330.078       -2.780      864.999
12/17/2021  00:11:00      -44.948        6.884       -0.561       42.599       20.164       20.454     1814.715      406.576      418.381        0.235        0.132       45.472       13.557        0.089      330.085       -2.768      864.986
12/17/2021  00:12:00      -48.652        2.530       -7.115       45.644       26.741       21.537     2083.335      715.086      463.825        0.284        0.163       48.717       16.199        0.111      330.187       -2.602      864.989
12/17/2021  00:13:00      -54.122        3.609       -0.557       39.102       27.279       22.430     1528.946      744.160      503.109        0.286        0.139       54.242       15.844        0.085      330.151       -2.660      865.004
12/17/2021  00:14:00      -78.934        3.733      -11.910       50.040       30.128       18.215     2503.954      907.702      331.793        0.506        0.187       79.022       19.069        0.058      330.207       -2.568      865.022
12/17/2021  00:15:00      -90.091      -15.770      -11.354       29.294       22.502       18.491      858.151      506.337      341.899        0.510        0.085       91.461       12.064        0.017      330.230       -2.529      865.041
12/17/2021  00:16:00      -42.127       18.158       -9.763       23.676       16.534       13.825      560.557      273.388      191.140        0.161        0.051       45.874        8.966        0.038      330.199       -2.582      865.062
12/17/2021  00:17:00      -25.306       14.004      -13.802       23.117       10.626        8.718      534.384      112.906       76.011        0.087        0.036       28.922        4.856        0.028      330.271       -2.462      865.067
12/17/2021  00:18:00      -10.064       10.652       -5.905       12.677        8.892        7.111      160.719       79.075       50.572        0.027        0.015       14.654        5.593        0.146      330.303       -2.408      865.062
12/17/2021  00:19:00      -14.481       23.056       -7.963       17.144        8.978        7.897      293.914       80.608       62.365        0.062        0.022       27.227        6.076        0.050      330.325       -2.374      865.052
12/17/2021  00:20:00       -2.292       36.329       -3.594       16.493       12.674        8.625      272.019      160.634       74.386        0.092        0.025       36.401        2.390        0.004      330.225       -2.538      865.047
12/17/2021  00:21:00       -1.242       22.183       -1.578        7.423       10.953        8.705       55.099      119.974       75.769        0.037        0.013       22.218        5.946        0.072      330.141       -2.676      865.036
12/17/2021  00:22:00      -34.571       26.056       -6.915       14.983       12.735       11.043      224.482      162.192      121.943        0.122        0.025       43.291        4.340        0.010      330.144       -2.670      865.036
12/17/2021  00:23:00      -15.639       20.683       -9.831       13.322        9.347        6.950      177.469       87.358       48.296        0.054        0.016       25.930        4.477        0.030      330.117       -2.716      865.063
12/17/2021  00:24:00       43.667       20.363       -9.248       20.056       13.834        9.536      402.261      191.378       90.933        0.155        0.034       48.182        9.233        0.037      330.184       -2.604      865.094
12/17/2021  00:25:00       52.094       43.186      -11.038       16.367       20.798       15.239      267.879      432.566      232.233        0.282        0.047       67.667       10.934        0.026      330.041       -2.840      865.118
12/17/2021  00:26:00       62.317       42.593      -12.462       28.959       29.766       15.666      838.601      886.022      245.420        0.391        0.099       75.482       10.274        0.019      329.911       -3.053      865.132
12/17/2021  00:27:00       51.604       51.402      -12.920       10.568        6.522        9.044      111.690       42.536       81.798        0.285        0.012       72.837        3.193        0.002      329.865       -3.128      865.141
12/17/2021  00:28:00       13.237       40.281       -7.286       11.976        7.668        3.965      143.414       58.795       15.718        0.103        0.011       42.401        4.357        0.011      330.120       -2.712      865.136
12/17/2021  00:29:00        4.129       12.474       -5.775        6.748        8.123        4.873       45.540       65.991       23.750        0.017        0.007       13.139        1.958        0.022      330.195       -2.592      865.130
12/17/2021  00:30:00       -8.108       -0.684       -5.830       11.457       10.470        9.507      131.274      109.614       90.386        0.022        0.017        8.137        9.110        1.254      330.023       -2.871      865.129
12/17/2021  00:31:00      -26.323       12.731       -6.506       21.824       15.640        9.558      476.304      244.596       91.351        0.085        0.041       29.239       10.595        0.131      330.012       -2.888      865.132
12/17/2021  00:32:00      -43.074       16.506       -6.573       20.674       15.230       16.196      427.433      231.942      262.297        0.155        0.046       46.128       14.649        0.101      329.987       -2.929      865.138
12/17/2021  00:33:00      -38.281       -0.773       -6.932       28.083       19.108       16.028      788.629      365.104      256.891        0.146        0.071       38.289       13.522        0.125      329.988       -2.927      865.145
12/17/2021  00:34:00      -23.015        1.459        3.480       31.916       18.711       15.652     1018.600      350.107      244.989        0.108        0.081       23.061       13.206        0.328      329.954       -2.981      865.155
12/17/2021  00:35:00      -57.664        6.732        2.821       31.195       23.304       19.306      973.122      543.079      372.724        0.263        0.094       58.056       13.931        0.058      330.058       -2.813      865.165
12/17/2021  00:36:00      -28.772        3.194       -0.325       48.033       27.716       22.811     2307.150      768.178      520.321        0.222        0.180       28.949       23.670        0.669      330.076       -2.783      865.170
12/17/2021  00:37:00      -59.388        9.111        0.526       33.196       26.222       19.785     1101.994      687.607      391.460        0.290        0.109       60.083       14.996        0.062      330.039       -2.843      865.181
12/17/2021  00:38:00      -48.952       17.762       -7.374       23.721       19.373       16.444      562.693      375.299      270.413        0.199        0.060       52.075       10.187        0.038      330.022       -2.870      865.192
12/17/2021  00:39:00      -50.191       20.130       -8.154       19.774       23.318       16.650      391.000      543.711      277.219        0.210        0.061       54.077        7.009        0.017      330.015       -2.883      865.207
12/17/2021  00:40:00      -91.512       26.874      -10.460       17.968       16.852       14.206      322.842      283.983      201.815        0.501        0.040       95.377       10.972        0.013      329.862       -3.133      865.219
12/17/2021  00:41:00      -45.360       -1.545       -2.745       34.996       21.137       13.730     1224.730      446.787      188.526        0.196        0.093       45.386       14.664        0.104      329.915       -3.046      865.232
12/17/2021  00:42:00        3.977        0.068       -0.847       19.876       14.343       16.121      395.061      205.730      259.880        0.044        0.043        3.978       12.557        9.966      329.992       -2.921      865.251
12/17/2021  00:43:00      -28.961      -10.533       -8.716       30.739       23.353       18.849      944.903      545.369      355.291        0.144        0.092       30.817       18.272        0.352      329.958       -2.975      865.266
12/17/2021  00:44:00      -69.301       30.041      -12.858       13.220       10.160        9.457      174.762      103.228       89.441        0.312        0.018       75.532        4.217        0.003      329.811       -3.217      865.281
12/17/2021  00:45:00      -51.863       15.447       -8.689       17.669       12.714       11.929      312.201      161.645      142.311        0.181        0.031       54.114        7.471        0.019      329.816       -3.209      865.300
12/17/2021  00:46:00      -57.992       23.873      -10.947       14.976       13.757       10.326      224.273      189.249      106.634        0.229        0.026       62.714        4.941        0.006      329.819       -3.206      865.316
12/17/2021  00:47:00      -39.557       13.592       -7.027       12.842       20.166        9.352      164.911      406.684       87.454        0.123        0.033       41.827        5.102        0.015      329.889       -3.090      865.328
12/17/2021  00:48:00      -31.891        1.084       -6.997       10.267        8.693        8.836      105.420       75.575       78.078        0.066        0.013       31.909        2.338        0.005      329.951       -2.986      865.344
12/17/2021  00:49:00       -0.021      -14.357       -6.412        7.291       13.764        6.451       53.153      189.445       41.610        0.027        0.014       14.357        4.985        0.121      329.984       -2.932      865.361
12/17/2021  00:50:00        3.045       -3.971      -13.061       13.432       11.414       11.797      180.423      130.268      139.163        0.032        0.022        5.004        8.341        2.779      329.989       -2.926      865.375
12/17/2021  00:51:00      -42.518        4.280       -3.045       28.066       20.587       18.991      787.673      423.805      360.673        0.170        0.079       42.733       17.296        0.164      329.893       -3.082      865.379
12/17/2021  00:52:00      -70.774       18.953       -6.244       40.096       15.360       12.090     1607.650      235.926      146.164        0.370        0.099       73.268       13.385        0.033      329.896       -3.077      865.380
12/17/2021  00:53:00      -17.263       -1.508      -13.739       15.850       15.837       11.554      251.211      250.821      133.505        0.056        0.032       17.329        6.360        0.135      329.922       -3.034      865.378
12/17/2021  00:54:00      -26.695       -0.322       -4.897       23.783       17.568       13.162      565.649      308.643      173.247        0.089        0.052       26.697       13.796        0.267      329.933       -3.017      865.377
12/17/2021  00:55:00      -15.870       -0.316       -7.635       31.093       24.106       12.999      966.767      581.103      168.981        0.101        0.086       15.873        5.095        0.103      329.907       -3.059      865.382
12/17/2021  00:56:00      -61.755       14.005       -6.686       31.109       17.378       15.041      967.772      301.981      226.241        0.277        0.075       63.323       13.711        0.047      329.883       -3.098      865.381
12/17/2021  00:57:00      -26.414       -2.327       -7.376       40.835       19.388       20.308     1667.476      375.907      412.435        0.161        0.123       26.517       21.483        0.656      329.857       -3.143      865.388
12/17/2021  00:58:00      -70.497       11.527       -6.933       24.079       19.879       16.744      579.816      395.187      280.378        0.320        0.063       71.433       10.439        0.021      329.758       -3.304      865.409
12/17/2021  00:59:00      -21.537        3.424       -2.264       25.831       14.836       11.735      667.252      220.093      137.713        0.075        0.051       21.808       12.865        0.348      329.813       -3.214      865.427
12/17/2021  01:00:00      -23.112        2.776       -3.202       18.881       18.182       13.742      356.507      330.602      188.829        0.071        0.044       23.278       11.027        0.224      329.871       -3.119      865.452
12/17/2021  01:01:00      -34.973        4.218       -5.875       25.275       19.776       13.145      638.847      391.090      172.798        0.124        0.060       35.226        7.844        0.050      329.872       -3.117      865.461
12/17/2021  01:02:00      -51.028       12.219       -7.727       18.379       16.122       10.224      337.778      259.924      104.539        0.176        0.035       52.471        8.627        0.027      329.750       -3.317      865.468
12/17/2021  01:03:00      -13.812      -12.756       -3.739       29.917       18.454       12.557      895.000      340.558      157.688        0.088        0.070       18.801        7.042        0.140      329.877       -3.109      865.458
12/17/2021  01:04:00      -22.740       -1.670       -8.039       15.724       14.550       11.530      247.248      211.702      132.946        0.059        0.030       22.801        7.660        0.113      329.917       -3.041      865.451
12/17/2021  01:05:00      -30.340       -2.895       -5.291       34.725       16.979       12.692     1205.843      288.295      161.083        0.131        0.083       30.478       14.951        0.241      329.921       -3.036      865.450
12/17/2021  01:06:00      -31.576      -23.277       -1.967       34.969       24.670       16.137     1222.831      608.605      260.418        0.182        0.105       39.228       13.951        0.126      329.959       -2.974      865.445
12/17/2021  01:07:00      -28.508      -17.086      -12.404       39.284       22.594       16.464     1543.236      510.497      271.070        0.179        0.116       33.237       10.567        0.101      329.944       -2.999      865.445
12/17/2021  01:08:00      -69.400       -5.690       -6.860       53.586       40.824       25.031     2871.453     1666.598      626.564        0.503        0.258       69.633       20.484        0.087      329.863       -3.131      865.448
12/17/2021  01:09:00      -88.033       -1.761       -7.206       47.759       28.969       24.448     2280.904      839.231      597.686        0.576        0.186       88.051       22.686        0.066      329.683       -3.425      865.458
12/17/2021  01:10:00      -86.606        7.303       -3.150       45.399       27.262       22.119     2061.083      743.236      489.250        0.543        0.165       86.913       25.274        0.085      329.603       -3.554      865.471
12/17/2021  01:11:00      -63.139      -13.048      -13.208       40.103       26.554       27.457     1608.267      705.128      753.865        0.370        0.153       64.473       26.627        0.171      329.680       -3.430      865.485
12/17/2021  01:12:00      -41.445      -10.973      -11.129       31.796       33.395       19.306     1010.978     1115.203      372.718        0.223        0.125       42.873        8.619        0.040      329.802       -3.231      865.493
12/17/2021  01:13:00     -102.463      -48.564      -16.295       50.291       67.290       30.949     2529.184     4527.882      957.847        1.057        0.401      113.389       25.200        0.049      329.743       -3.330      865.497
12/17/2021  01:14:00     -106.160       -7.337       -9.128      100.903       44.611       38.407    10181.336     1990.117     1475.124        1.252        0.682      106.413       39.861        0.140      329.667       -3.452      865.497
12/17/2021  01:15:00     -224.595      -22.948      -20.814       70.965       53.935       43.649     5036.038     2909.005     1905.237        3.062        0.493      225.765       35.630        0.025      329.525       -3.689      865.502
12/17/2021  01:16:00     -196.636      -39.049      -20.800       56.645       58.965       33.025     3208.662     3476.840     1090.631        2.420        0.389      200.476       24.601        0.015      329.535       -3.670      865.513
12/17/2021  01:17:00     -125.408      -24.033      -12.653       78.192       47.140       40.497     6113.986     2222.149     1640.009        1.322        0.499      127.690       42.163        0.109      329.493       -3.737      865.521
12/17/2021  01:18:00      -89.318        3.512       -1.117       56.496       32.324       18.085     3191.749     1044.838      327.056        0.628        0.228       89.387       16.648        0.035      329.527       -3.682      865.521
12/17/2021  01:19:00     -160.879      -26.871      -17.492       36.915       50.489       29.117     1362.713     2549.160      847.793        1.583        0.238      163.108       18.945        0.013      329.509       -3.712      865.513
12/17/2021  01:20:00      -83.850       -3.395        0.000       59.494       45.324       36.625     3539.569     2054.246     1341.408        0.699        0.347       83.919       33.463        0.159      329.463       -3.787      865.506
12/17/2021  01:21:00      -38.644      -12.406       -2.522       55.805       35.201       35.236     3114.186     1239.093     1241.606        0.362        0.280       40.586       34.914        0.740      329.456       -3.798      865.501
12/17/2021  01:22:00      -62.425       11.124       -7.879       40.071       27.114       22.874     1605.699      735.181      523.216        0.347        0.143       63.409       19.532        0.095      329.530       -3.676      865.501
12/17/2021  01:23:00      -79.552       15.047       -1.513       60.387       38.240       20.588     3646.603     1462.282      423.853        0.604        0.277       80.963       19.496        0.058      329.468       -3.777      865.513
12/17/2021  01:24:00     -145.477       28.397       -8.927       52.779       43.095       27.797     2785.611     1857.216      772.682        1.373        0.271      148.222       24.836        0.028      329.360       -3.954      865.527
12/17/2021  01:25:00      -93.913       -3.291       -9.651       50.242       26.820       28.384     2524.264      719.301      805.631        0.649        0.202       93.971       28.212        0.090      329.418       -3.859      865.537
12/17/2021  01:26:00      -95.958       21.994       -7.541       37.598       43.178       28.003     1413.584     1864.352      784.169        0.690        0.203       98.446       19.836        0.041      329.373       -3.934      865.560
12/17/2021  01:27:00     -105.572       29.987       -6.513       30.818       27.754       21.211      949.746      770.283      449.923        0.713        0.108      109.748        9.275        0.007      329.376       -3.929      865.574
12/17/2021  01:28:00     -142.289       10.503      -11.405       44.858       30.604       22.865     2012.256      936.632      522.810        1.198        0.174      142.676       12.804        0.008      329.376       -3.927      865.584
12/17/2021  01:29:00     -110.974      -16.811      -18.682       58.042       25.004       17.299     3368.861      625.203      299.251        0.862        0.215      112.240       18.915        0.028      329.452       -3.803      865.590
12/17/2021  01:30:00      -94.713       -6.330      -17.081       27.042       22.317       15.742      731.248      498.038      247.799        0.539        0.074       94.924       10.150        0.011      329.399       -3.889      865.599
12/17/2021  01:31:00      -82.861        6.246       -9.036       37.033       27.309       18.434     1371.458      745.798      339.804        0.472        0.123       83.097       12.584        0.023      329.418       -3.860      865.611
12/17/2021  01:32:00      -88.266        2.179       -3.528       45.804       27.040       23.647     2097.988      731.159      559.166        0.560        0.169       88.293       24.483        0.077      329.377       -3.927      865.622
12/17/2021  01:33:00      -57.347       -4.390       -3.790       44.557       29.609       20.787     1985.351      876.668      432.100        0.331        0.165       57.515       22.440        0.152      329.486       -3.748      865.629
12/17/2021  01:34:00      -77.117        9.221       -9.785       38.308       24.555       17.173     1467.490      602.965      294.905        0.425        0.118       77.666       20.110        0.067      329.373       -3.933      865.633
12/17/2021  01:35:00      -49.430      -16.447      -11.039       41.128       29.849       25.752     1691.508      890.963      663.143        0.304        0.162       52.095       23.116        0.197      329.430       -3.841      865.636
12/17/2021  01:36:00     -104.911       32.974      -11.260       37.177       26.354       21.209     1382.155      694.540      449.835        0.737        0.126      109.971       16.780        0.023      329.384       -3.915      865.632
12/17/2021  01:37:00      -72.345        6.078       -7.734       52.154       23.872       18.565     2720.066      569.858      344.662        0.448        0.182       72.600       18.615        0.066      329.356       -3.961      865.610
12/17/2021  01:38:00      -80.773       29.428      -11.013       29.699       23.051       15.363      882.025      531.361      236.007        0.458        0.082       85.967       12.143        0.020      329.404       -3.883      865.606
12/17/2021  01:39:00      -72.479       33.655      -11.031       26.529       17.457       13.874      703.782      304.758      192.489        0.385        0.060       79.912       11.343        0.020      329.385       -3.914      865.609
12/17/2021  01:40:00      -58.036       27.362       -7.976       28.476       19.517       12.442      810.885      380.918      154.800        0.276        0.067       64.163       11.343        0.031      329.520       -3.694      865.619
12/17/2021  01:41:00      -44.678       34.749       -5.052       18.375       18.271       16.568      337.653      333.830      274.497        0.209        0.047       56.601       10.985        0.038      329.583       -3.590      865.637
12/17/2021  01:42:00      -38.950       24.036       -5.839       21.151       15.228       16.053      447.367      231.878      257.708        0.153        0.047       45.770        8.982        0.039      329.652       -3.476      865.668
12/17/2021  01:43:00      -40.055       -4.992      -11.735       18.465       27.288       10.286      340.970      744.661      105.809        0.148        0.060       40.365        6.306        0.024      329.725       -3.358      865.690
12/17/2021  01:44:00      -21.848      -31.071      -20.385       19.250       18.476       10.406      370.568      341.359      108.293        0.134        0.041       37.983        6.346        0.028      329.744       -3.325      865.706
12/17/2021  01:45:00       -7.889      -13.243       -7.977       12.436       20.940       12.837      154.660      438.494      164.789        0.053        0.038       15.415       14.025        0.828      329.509       -3.711      865.713
12/17/2021  01:46:00        4.023        2.733       -1.111       13.256       17.393       13.707      175.712      302.509      187.894        0.035        0.033        4.864        7.812        2.580      329.475       -3.766      865.712
12/17/2021  01:47:00      -53.898       18.582      -11.069       36.848       20.796       17.831     1357.797      432.492      317.939        0.274        0.105       57.011       12.643        0.049      329.430       -3.841      865.709
12/17/2021  01:48:00      -19.315        3.187       -6.712       39.949       13.509       13.962     1595.901      182.502      194.944        0.120        0.099       19.576        6.736        0.118      329.543       -3.656      865.704
12/17/2021  01:49:00      -18.719        8.302       -5.088       27.982       24.983       21.189      782.976      624.130      448.995        0.115        0.093       20.478        8.988        0.193      329.479       -3.760      865.690
12/17/2021  01:50:00      -56.012       -0.292       -3.585       34.850       28.974       18.849     1214.527      839.467      355.284        0.278        0.120       56.013       20.694        0.136      329.458       -3.795      865.684
12/17/2021  01:51:00      -78.240       20.661      -11.452       23.216       18.114       18.559      538.993      328.100      344.421        0.395        0.061       80.922        9.003        0.012      329.434       -3.834      865.683
12/17/2021  01:52:00      -80.540       22.085       -4.725       34.667       19.527       19.391     1201.767      381.288      376.019        0.448        0.098       83.513       19.767        0.056      329.340       -3.987      865.680
12/17/2021  01:53:00      -45.172        9.777      -11.707       40.347       23.702       20.710     1627.908      561.798      428.913        0.245        0.131       46.218       20.479        0.196      329.324       -4.013      865.673
12/17/2021  01:54:00      -35.474       -1.974       -4.540       41.224       29.848       20.808     1699.418      890.885      432.960        0.215        0.151       35.529       24.830        0.488      329.331       -4.001      865.659
12/17/2021  01:55:00      -26.388       -0.087       -9.446       21.847       23.803       16.780      477.307      566.583      281.553        0.106        0.066       26.388        9.082        0.118      329.437       -3.828      865.653
12/17/2021  01:56:00     -102.940       16.083      -15.561       26.801       15.680       12.787      718.297      245.867      163.510        0.611        0.056      104.189        8.344        0.006      329.413       -3.868      865.648
12/17/2021  01:57:00      -66.777        6.803      -11.306       36.899       27.789       17.746     1361.552      772.207      314.917        0.354        0.122       67.122        9.018        0.018      329.398       -3.892      865.659
12/17/2021  01:58:00      -19.087        6.792       -3.837       19.026       16.472       16.545      361.995      271.342      273.731        0.067        0.045       20.260       12.384        0.374      329.427       -3.844      865.675
12/17/2021  01:59:00      -15.239        7.734       -1.668       13.351       11.660       10.404      178.245      135.948      108.235        0.036        0.021       17.089        6.609        0.150      329.544       -3.652      865.709
12/17/2021  02:00:00      -29.157        0.580        0.428       23.976       12.341       12.185      574.833      152.298      148.480        0.086        0.044       29.163       11.485        0.155      329.560       -3.626      865.742
12/17/2021  02:01:00      -31.008       -1.496      -10.056       16.051       16.740       12.194      257.629      280.215      148.696        0.088        0.034       31.045       11.198        0.130      329.644       -3.487      865.774
12/17/2021  02:02:00      -11.156       26.118       -4.560        9.518       11.104        8.014       90.594      123.305       64.227        0.055        0.014       28.401        4.002        0.020      329.618       -3.531      865.805
12/17/2021  02:03:00       -2.560        4.379       -3.976        4.927        4.819        5.659       24.277       23.222       32.022        0.006        0.004        5.072        2.499        0.243      329.524       -3.686      865.827
12/17/2021  02:04:00       -3.835       -1.609       -9.900       11.677       12.855        9.219      136.353      165.241       84.999        0.025        0.019        4.159        3.545        0.726      329.557       -3.632      865.848
12/17/2021  02:05:00      -19.162       -6.226       -2.448       17.866       19.254       14.617      319.206      370.707      213.664        0.066        0.045       20.148       10.766        0.286      329.542       -3.657      865.859
12/17/2021  02:06:00      -65.506       -1.523        3.055       49.890       33.955       20.445     2489.019     1152.940      417.992        0.418        0.203       65.523       15.317        0.055      329.566       -3.617      865.857
12/17/2021  02:07:00     -106.017       -9.846       -7.822       60.250       41.478       23.990     3630.007     1720.427      575.539        0.866        0.296      106.473       24.825        0.054      329.632       -3.509      865.857
12/17/2021  02:08:00      -40.717        7.639       -2.696       41.391       40.376       24.676     1713.245     1630.225      608.906        0.284        0.198       41.428       20.117        0.236      329.616       -3.536      865.860
12/17/2021  02:09:00      -43.091       -8.284       -7.305       51.682       41.106       33.799     2671.032     1689.673     1142.373        0.374        0.275       43.880       15.522        0.125      329.628       -3.515      865.852
12/17/2021  02:10:00      -29.667       -8.336       -0.773       61.263       37.873       33.009     3753.205     1434.343     1089.591        0.361        0.314       30.815       16.981        0.304      329.628       -3.516      865.832
12/17/2021  02:11:00      -80.060      -18.512      -13.346       29.114       32.240       27.615      847.628     1039.400      762.596        0.479        0.132       82.173       12.664        0.024      329.562       -3.624      865.823
12/17/2021  02:12:00      -37.751      -15.475       -8.353       33.299       30.690       22.609     1108.852      941.900      511.170        0.215        0.128       40.800       13.371        0.107      329.610       -3.545      865.828
12/17/2021  02:13:00      -51.699      -15.154      -19.112       30.580       47.876       29.044      935.159     2292.069      843.542        0.367        0.204       53.874       19.289        0.128      329.589       -3.579      865.837
12/17/2021  02:14:00      -54.387        5.534      -13.116       37.198       20.064       27.394     1383.709      402.567      750.454        0.285        0.127       54.668       21.163        0.150      329.598       -3.565      865.850
12/17/2021  02:15:00      -44.053      -20.664       -4.970       52.359       27.524       22.178     2741.472      757.581      491.857        0.319        0.200       48.659       18.234        0.140      329.609       -3.545      865.867
12/17/2021  02:16:00      -52.490       -0.954        4.198       68.576       25.956       21.370     4702.637      673.723      456.668        0.430        0.292       52.499       20.877        0.158      329.485       -3.751      865.885
12/17/2021  02:17:00      -65.614        2.435       -2.519       48.846       33.947       23.531     2385.900     1152.424      553.699        0.420        0.205       65.659       22.533        0.118      329.511       -3.706      865.886
12/17/2021  02:18:00      -57.872      -23.241       -3.834       54.853       33.510       23.012     3008.828     1122.920      529.539        0.428        0.233       62.364       15.876        0.065      329.483       -3.753      865.884
12/17/2021  02:19:00     -139.050       -3.803        2.776       85.388       37.320       38.530     7291.160     1392.790     1484.577        1.476        0.508      139.102       46.489        0.112      329.341       -3.986      865.888
12/17/2021  02:20:00     -146.188      -14.995       -9.773       70.535       44.411       31.971     4975.192     1972.380     1022.177        1.483        0.398      146.955       32.595        0.049      329.418       -3.862      865.883
12/17/2021  02:21:00     -186.300      -10.395      -11.487       49.451       50.326       35.307     2445.425     2532.724     1246.549        2.059        0.311      186.590       28.541        0.023      329.412       -3.871      865.880
12/17/2021  02:22:00     -116.081      -11.396       -8.088       57.274       47.830       31.977     3280.368     2287.708     1022.509        1.013        0.330      116.639       13.404        0.013      329.321       -4.018      865.889
12/17/2021  02:23:00     -140.501      -20.521      -27.574       51.930       30.850       24.083     2696.712      951.722      580.005        1.257        0.211      141.991       19.491        0.019      329.291       -4.069      865.908
12/17/2021  02:24:00     -154.155      -17.400      -22.397       41.816       26.012       22.216     1748.562      676.630      493.551        1.374        0.146      155.134        3.618        0.001      329.334       -3.998      865.924
12/17/2021  02:25:00     -117.557       -8.390      -21.203       40.713       34.599       23.145     1657.566     1197.119      535.670        0.886        0.170      117.856       13.683        0.013      329.339       -3.989      865.944
12/17/2021  02:26:00     -129.033      -11.607      -13.111       33.602       29.098       23.665     1129.064      846.721      560.030        0.975        0.127      129.554       16.799        0.017      329.306       -4.043      865.948
12/17/2021  02:27:00      -73.937      -16.533       -7.039       60.902       53.413       32.202     3709.032     2852.949     1036.980        0.669        0.380       75.763       37.941        0.251      329.377       -3.926      865.959
12/17/2021  02:28:00      -93.361        0.640      -14.622       28.724       33.544       21.776      825.073     1125.170      474.201        0.568        0.121       93.363       11.015        0.014      329.313       -4.032      865.967
12/17/2021  02:29:00     -106.588       -4.816      -17.445       29.487       26.413       19.634      869.489      697.664      385.490        0.682        0.098      106.697       11.779        0.012      329.278       -4.087      865.979
12/17/2021  02:30:00     -115.321       -0.835      -13.231       41.186       33.453       26.049     1696.304     1119.134      678.558        0.848        0.175      115.324       20.010        0.030      329.162       -4.278      865.984
12/17/2021  02:31:00     -111.022       45.613       -9.793       45.543       35.297       23.270     2074.120     1245.880      541.486        0.918        0.193      120.027       20.024        0.028      329.096       -4.385      865.983
12/17/2021  02:32:00     -113.316       29.543       -2.471       50.614       54.797       28.204     2561.778     3002.663      795.453        1.004        0.318      117.103       30.700        0.069      329.003       -4.537      865.985
12/17/2021  02:33:00     -105.635       12.464      -14.235       58.553       32.218       29.055     3428.486     1037.973      844.193        0.841        0.266      106.368       29.443        0.077      328.991       -4.558      865.982
12/17/2021  02:34:00     -113.206       23.400       -3.187       38.219       30.454       24.049     1460.686      927.430      578.366        0.817        0.148      115.599       22.272        0.037      328.955       -4.615      865.988
12/17/2021  02:35:00     -101.120       15.290       -8.240       53.860       36.014       21.434     2900.903     1297.028      459.423        0.759        0.233      102.270       25.957        0.064      328.921       -4.671      865.990
12/17/2021  02:36:00     -101.954       11.889      -14.630       53.530       36.752       26.021     2865.461     1350.676      677.102        0.782        0.245      102.645       18.890        0.034      328.899       -4.708      866.004
12/17/2021  02:37:00     -120.207       19.273       -6.675       57.847       43.841       25.433     3346.327     1922.020      646.821        1.039        0.296      121.742       23.729        0.038      328.892       -4.718      866.007
12/17/2021  02:38:00     -137.989      -10.990      -13.425       37.218       30.765       20.183     1385.151      946.493      407.369        1.104        0.137      138.426       16.277        0.014      328.928       -4.661      866.017
12/17/2021  02:39:00     -129.878       19.856      -12.882       19.078       23.408       14.926      363.963      547.952      222.782        0.928        0.057      131.387        9.419        0.005      328.948       -4.628      866.016
12/17/2021  02:40:00      -89.109      -13.448       -7.249       48.929       23.157       20.599     2394.049      536.254      424.332        0.576        0.168       90.118       23.175        0.066      329.071       -4.427      866.007
12/17/2021  02:41:00      -41.187      -10.442       -3.886       40.408       23.621       18.863     1632.833      557.972      355.806        0.218        0.127       42.490       19.838        0.218      329.060       -4.446      865.995
12/17/2021  02:42:00      -59.386      -23.003       -8.107       49.635       32.576       21.317     2463.607     1061.174      454.408        0.405        0.199       63.685       22.743        0.128      329.086       -4.401      865.999
12/17/2021  02:43:00      -46.216      -23.545       -5.621       40.260       23.530       28.578     1620.845      553.662      816.696        0.286        0.150       51.868       26.503        0.261      329.041       -4.475      866.015
12/17/2021  02:44:00      -80.990      -20.131      -18.502       46.502       18.081       15.787     2162.410      326.909      249.238        0.502        0.137       83.455       16.792        0.040      329.080       -4.411      866.043
12/17/2021  02:45:00      -82.131      -27.826      -11.983       41.573       24.173       23.368     1728.345      584.356      546.062        0.526        0.143       86.717       23.205        0.072      329.108       -4.364      866.078
12/17/2021  02:46:00      -73.357      -31.849      -17.814       24.898       48.719       20.600      619.930     2373.493      424.376        0.506        0.171       79.973       12.957        0.026      329.081       -4.409      866.110
12/17/2021  02:47:00      -75.194       -1.091      -21.836       30.125       32.878       26.579      907.543     1080.971      706.421        0.441        0.135       75.202       10.026        0.018      329.102       -4.375      866.124
12/17/2021  02:48:00      -53.660        8.235        3.648       75.497       27.662       27.992     5699.791      765.163      783.531        0.510        0.362       54.288       31.966        0.347      329.059       -4.445      866.133
12/17/2021  02:49:00     -151.827      -27.604      -10.497       47.213       38.141       32.643     2229.067     1454.698     1065.538        1.434        0.237      154.316       30.632        0.039      328.964       -4.601      866.140
12/17/2021  02:50:00     -122.517      -17.300      -11.902       36.504       38.963       25.254     1332.548     1518.079      637.760        0.947        0.174      123.733       16.037        0.017      329.010       -4.526      866.142
12/17/2021  02:51:00      -97.354       -4.461      -16.492       47.647       23.583       18.154     2270.282      556.176      329.568        0.646        0.158       97.456       22.449        0.053      328.979       -4.577      866.134
12/17/2021  02:52:00      -50.006      -10.703       -2.678       55.193       25.381       26.701     3046.267      644.189      712.962        0.351        0.220       51.139       32.074        0.393      329.014       -4.520      866.124
12/17/2021  02:53:00      -50.458      -12.943        0.113       38.305       32.148       25.935     1467.264     1033.501      672.622        0.294        0.159       52.092       13.882        0.071      328.996       -4.548      866.106
12/17/2021  02:54:00      -73.815       -7.056       -6.725       54.246       27.914       27.294     2942.639      779.168      744.936        0.500        0.223       74.151       24.498        0.109      329.030       -4.494      866.101
12/17/2021  02:55:00      -80.411      -11.643      -12.556       53.438       23.025       24.919     2855.645      530.164      620.936        0.538        0.200       81.249       26.570        0.107      329.018       -4.512      866.102
12/17/2021  02:56:00      -70.121        7.328      -14.870       25.890       16.226       15.080      670.302      263.273      227.417        0.318        0.058       70.503        5.782        0.007      328.997       -4.548      866.105
12/17/2021  02:57:00      -48.310        2.365       -8.360       19.907       18.017       19.681      396.300      324.622      387.344        0.176        0.055       48.368       13.097        0.073      329.036       -4.483      866.118
12/17/2021  02:58:00      -55.952        7.089      -13.011       29.860       28.129       16.920      891.627      791.231      286.292        0.266        0.098       56.399       13.037        0.053      329.013       -4.521      866.126
12/17/2021  02:59:00      -56.935       -2.850       -3.585       38.358       35.544       29.029     1471.320     1263.357      842.681        0.342        0.179       57.006       15.609        0.075      329.013       -4.521      866.136
12/17/2021  03:00:00      -57.415       27.378       -7.262       26.301       21.115       18.536      691.718      445.832      343.589        0.279        0.074       63.608       12.934        0.041      328.893       -4.717      866.145
12/17/2021  03:01:00      -62.634        0.636       -2.605       38.667       23.012       17.744     1495.137      529.561      314.852        0.313        0.117       62.638       18.550        0.088      328.894       -4.715      866.150
12/17/2021  03:02:00      -98.885      -29.969      -11.111       25.706       21.201       21.608      660.805      449.466      466.910        0.619        0.079      103.326       16.763        0.026      329.008       -4.530      866.148
12/17/2021  03:03:00     -116.660      -16.445      -12.684       38.952       28.784       25.839     1517.229      828.519      667.631        0.853        0.151      117.813       21.017        0.032      329.012       -4.523      866.147
12/17/2021  03:04:00      -94.657       -3.504      -12.948       52.086       35.535       27.588     2712.913     1262.754      761.080        0.694        0.237       94.722       27.472        0.084      328.991       -4.557      866.151
12/17/2021  03:05:00      -79.113       -4.463      -14.502       52.214       37.558       30.269     2726.294     1410.624      916.193        0.577        0.253       79.239       25.096        0.100      328.918       -4.677      866.143
12/17/2021  03:06:00     -115.453       20.981       -1.538       49.394       40.026       19.872     2439.814     1602.116      394.887        0.910        0.222      117.343       19.334        0.027      328.891       -4.720      866.134
12/17/2021  03:07:00     -105.017        6.011      -13.577       72.066       58.286       33.473     5193.543     3397.222     1120.419        1.048        0.486      105.189       29.020        0.076      328.862       -4.768      866.141
12/17/2021  03:08:00      -61.177        9.512       -2.419       72.836       38.478       36.415     5305.103     1480.547     1326.020        0.597        0.406       61.912       26.846        0.188      328.831       -4.818      866.146
12/17/2021  03:09:00     -127.123       42.484      -11.100       71.564       33.681       29.948     5121.442     1134.394      896.906        1.262        0.358      134.034       32.863        0.060      328.799       -4.871      866.153
12/17/2021  03:10:00     -212.402       39.942       -1.715       56.987       34.320       30.290     3247.475     1177.861      917.503        2.603        0.267      216.125       36.146        0.028      328.812       -4.852      866.159
12/17/2021  03:11:00     -201.131       66.447       -8.027       45.840       42.037       29.867     2101.334     1767.122      892.044        2.485        0.238      211.823       27.034        0.016      328.823       -4.833      866.158
12/17/2021  03:12:00     -152.661       44.338       -0.449       54.980       40.814       25.618     3022.853     1665.804      656.269        1.531        0.267      158.970       23.241        0.021      328.826       -4.827      866.162
12/17/2021  03:13:00     -157.007       24.450       -6.114       37.954       31.089       25.577     1440.499      966.504      654.200        1.417        0.153      158.899       19.043        0.014      328.930       -4.656      866.165
12/17/2021  03:14:00      -89.249       17.993      -12.562       35.654       34.535       24.322     1271.230     1192.641      591.538        0.575        0.153       91.045        7.720        0.007      328.941       -4.639      866.158
12/17/2021  03:15:00      -81.444       40.218       -7.054       31.025       24.678       20.346      962.543      608.983      413.956        0.514        0.099       90.833       16.702        0.034      328.867       -4.759      866.149
12/17/2021  03:16:00     -130.094       60.048      -18.995       35.391       24.415       19.543     1252.503      596.104      381.915        1.156        0.112      143.283       19.387        0.018      328.877       -4.743      866.127
12/17/2021  03:17:00     -104.251       79.361      -20.798       25.935       33.527       19.217      672.625     1124.067      369.282        0.988        0.108      131.021       16.649        0.016      328.977       -4.579      866.103
12/17/2021  03:18:00      -62.776       20.253      -17.498       59.002       27.886       24.431     3481.224      777.633      596.856        0.476        0.243       65.962       32.059        0.236      328.981       -4.574      866.088
12/17/2021  03:19:00      -59.741        3.946      -16.560       56.082       25.639       23.043     3145.230      657.374      530.989        0.410        0.217       59.871       28.411        0.225      328.975       -4.584      866.089
12/17/2021  03:20:00      -59.665       15.944       -7.221       44.585       25.325       18.876     1987.818      641.371      356.311        0.343        0.149       61.758       22.713        0.135      328.964       -4.602      866.096
12/17/2021  03:21:00      -53.389       14.147       -8.943       25.653       14.678       13.329      658.088      215.456      177.664        0.209        0.053       55.231        5.267        0.009      328.989       -4.561      866.108
12/17/2021  03:22:00      -93.610       20.565      -11.730       19.768       14.671       11.878      390.793      215.229      141.083        0.504        0.037       95.842       10.335        0.012      329.085       -4.403      866.118
12/17/2021  03:23:00      -20.083      -11.822       -2.414       31.295       23.526       14.433      979.382      553.466      208.309        0.114        0.087       23.304       17.266        0.549      329.112       -4.361      866.126
12/17/2021  03:24:00       -0.720      -13.303        6.006       17.012       20.998       16.982      289.412      440.917      288.389        0.062        0.051       13.322        9.107        0.467      329.121       -4.345      866.147
12/17/2021  03:25:00      -24.523      -22.630       -3.828       21.882       31.342       20.383      478.806      982.297      415.473        0.150        0.094       33.369        4.546        0.019      329.047       -4.467      866.160
12/17/2021  03:26:00      -68.569      -15.969       -4.855       48.131       32.052       15.820     2316.566     1027.338      250.264        0.429        0.180       70.404        8.724        0.015      329.088       -4.400      866.166
12/17/2021  03:27:00      -40.962      -12.583        3.334       42.772       24.490       23.182     1829.415      599.771      537.383        0.241        0.148       42.851       16.226        0.143      328.976       -4.582      866.170
12/17/2021  03:28:00      -91.561       -0.177       -0.598       44.824       32.028       29.164     2009.193     1025.797      850.546        0.613        0.194       91.561       23.061        0.063      328.979       -4.578      866.178
12/17/2021  03:29:00     -106.884        1.586       -7.401       44.242       43.992       23.206     1957.370     1935.260      538.518        0.796        0.222      106.896        9.861        0.009      328.945       -4.634      866.181
12/17/2021  03:30:00      -98.032        3.539        0.438       54.987       36.496       29.796     3023.547     1331.994      887.807        0.743        0.262       98.096       31.663        0.104      328.844       -4.795      866.173
12/17/2021  03:31:00      -62.472      -23.478      -13.285       29.464       49.664       27.673      868.137     2466.513      765.793        0.436        0.205       66.738       13.725        0.042      328.936       -4.646      866.176
12/17/2021  03:32:00      -43.332      -19.200       -8.734       49.536       33.924       23.492     2453.786     1150.843      551.896        0.324        0.208       47.395       14.771        0.097      328.893       -4.717      866.182
12/17/2021  03:33:00      -77.006      -17.562       -8.339       40.365       54.174       32.789     1629.309     2934.784     1075.116        0.597        0.282       78.983       15.778        0.040      328.952       -4.621      866.185
12/17/2021  03:34:00      -24.392       -8.562       -5.488       30.106       37.113       31.722      906.358     1377.408     1006.262        0.199        0.165       25.851       19.163        0.550      328.958       -4.611      866.181
12/17/2021  03:35:00      -17.126       -9.741       -1.907       38.332       33.525       30.348     1469.362     1123.952      920.989        0.195        0.176       19.703       16.853        0.732      328.938       -4.643      866.170
12/17/2021  03:36:00      -39.382      -32.366       -8.727       51.469       42.911       29.775     2649.015     1841.339      886.575        0.402        0.269       50.976       23.643        0.215      328.906       -4.695      866.154
12/17/2021  03:37:00      -76.358      -23.876       -7.508       51.645       52.946       33.884     2667.164     2803.267     1148.095        0.654        0.331       80.004       30.383        0.144      328.872       -4.750      866.138
12/17/2021  03:38:00      -43.740       -3.945       -1.250       77.338       44.082       28.904     5981.225     1943.239      835.467        0.534        0.438       43.918       24.534        0.312      328.820       -4.837      866.126
12/17/2021  03:39:00     -114.655      -24.608       -8.491       51.338       43.019       34.111     2635.608     1850.657     1163.568        0.974        0.282      117.266       29.608        0.064      328.827       -4.824      866.110
12/17/2021  03:40:00     -172.213      -11.056      -14.839       55.410       44.686       37.284     3070.248     1996.867     1390.131        1.823        0.323      172.567       25.669        0.022      328.757       -4.939      866.088
12/17/2021  03:41:00     -157.108       -8.383       -5.086       50.405       41.592       32.435     2540.662     1729.892     1052.030        1.505        0.266      157.331       24.559        0.024      328.726       -4.990      866.054
12/17/2021  03:42:00     -146.755       -8.072      -11.797       69.213       47.269       38.988     4790.414     2234.355     1520.038        1.514        0.427      146.977       32.999        0.050      328.825       -4.829      866.023
12/17/2021  03:43:00     -153.807       -8.302       -6.368       67.979       44.423       37.812     4621.166     1973.362     1429.782        1.589        0.401      154.031       18.416        0.014      328.804       -4.864      866.002
12/17/2021  03:44:00     -128.592       10.172       -6.508       47.260       43.710       28.822     2233.548     1910.552      830.681        1.083        0.249      128.994       20.750        0.026      328.785       -4.894      865.986
12/17/2021  03:45:00      -80.241      -22.167      -20.094       66.069       42.781       37.791     4365.165     1830.251     1428.197        0.748        0.381       83.247       32.882        0.156      328.805       -4.860      865.986
12/17/2021  03:46:00     -136.683      -18.221      -10.785       61.896       47.745       35.890     3831.084     2279.576     1288.091        1.326        0.370      137.892       28.047        0.041      328.743       -4.962      865.999
12/17/2021  03:47:00      -65.318        3.066        6.370       60.354       47.179       33.642     3642.636     2225.875     1131.767        0.566        0.350       65.390       27.562        0.178      328.707       -5.021      866.006
12/17/2021  03:48:00      -54.420      -15.674       -0.553       73.452       43.909       37.054     5395.182     1927.962     1372.972        0.595        0.435       56.632       20.508        0.131      328.709       -5.017      866.009
12/17/2021  03:49:00      -97.033       22.621       -1.586       61.766       38.518       35.699     3815.072     1483.601     1274.422        0.825        0.329       99.635       25.767        0.067      328.610       -5.178      866.012
12/17/2021  03:50:00     -136.183      -26.421      -14.003       74.402       49.737       39.970     5535.718     2473.794     1597.631        1.452        0.480      138.723       40.157        0.084      328.649       -5.115      866.020
12/17/2021  03:51:00     -116.767       -2.109      -22.817       71.802       43.648       29.988     5155.532     1905.129      899.288        1.106        0.398      116.786       29.289        0.063      328.627       -5.152      866.034
12/17/2021  03:52:00     -154.363        6.973      -19.356       47.688       40.710       26.159     2274.183     1657.273      684.311        1.443        0.231      154.520       17.341        0.013      328.573       -5.240      866.045
12/17/2021  03:53:00     -149.682      -28.872      -16.521       48.601       37.318       23.932     2362.013     1392.654      572.724        1.392        0.216      152.441       17.324        0.013      328.620       -5.162      866.074
12/17/2021  03:54:00      -70.062       -2.702       -2.862       34.016       37.902       23.487     1157.092     1436.527      551.653        0.403        0.157       70.114       15.327        0.048      328.630       -5.147      866.104
12/17/2021  03:55:00     -101.657      -30.656      -12.082       57.161       40.128       27.075     3267.409     1610.235      733.071        0.851        0.281      106.178       23.679        0.050      328.694       -5.041      866.124
12/17/2021  03:56:00      -99.218      -27.945      -10.150       28.185       25.325       21.466      794.402      641.377      460.794        0.631        0.095      103.078       13.504        0.017      328.747       -4.955      866.129
12/17/2021  03:57:00      -23.252        6.082        3.889       44.834       20.535       20.819     2010.125      421.699      433.437        0.173        0.143       24.034       21.248        0.782      328.688       -5.052      866.115
12/17/2021  03:58:00      -89.364      -15.539       -8.416       59.159       33.594       34.088     3499.783     1128.549     1162.008        0.704        0.290       90.705       33.306        0.135      328.674       -5.075      866.089
12/17/2021  03:59:00     -119.589      -28.176      -10.778       86.782       41.359       36.128     7531.201     1710.607     1305.255        1.288        0.527      122.863       41.604        0.115      328.629       -5.147      866.052
12/17/2021  04:00:00     -109.807      -22.020      -12.351       75.519       47.352       36.134     5703.160     2242.213     1305.677        1.097        0.463      111.993       35.708        0.102      328.614       -5.172      866.033
12/17/2021  04:01:00     -148.797      -22.208      -15.919       52.690       37.644       31.704     2776.257     1417.056     1005.149        1.404        0.260      150.445       29.446        0.038      328.615       -5.171      866.024
12/17/2021  04:02:00     -120.789      -30.319      -15.734       42.006       31.358       31.590     1764.525      983.300      997.912        0.975        0.187      124.536       29.016        0.054      328.629       -5.146      866.017
12/17/2021  04:03:00     -111.623       -6.545      -17.184       37.656       32.071       21.060     1417.938     1028.546      443.525        0.784        0.145      111.814       13.773        0.015      328.644       -5.124      866.018
12/17/2021  04:04:00      -77.188      -11.245       -7.305       25.373       28.670       23.582      643.789      821.993      556.114        0.408        0.101       78.003       15.014        0.037      328.672       -5.077      866.014
12/17/2021  04:05:00      -53.929       -9.971       -2.659       35.586       31.223       22.792     1266.396      974.847      519.475        0.289        0.138       54.843        9.628        0.031      328.670       -5.081      866.010
12/17/2021  04:06:00     -119.230      -19.059      -13.699       51.639       33.448       29.798     2666.559     1118.791      887.895        0.972        0.234      120.744       29.255        0.059      328.637       -5.135      866.003
12/17/2021  04:07:00     -119.611      -26.366      -11.265       72.204       39.765       31.956     5213.480     1581.262     1021.183        1.147        0.391      122.482       30.927        0.064      328.605       -5.187      866.000
12/17/2021  04:08:00     -138.129        0.935      -12.177       56.397       39.534       31.766     3180.597     1562.952     1009.108        1.249        0.288      138.132       28.301        0.042      328.536       -5.301      866.004
12/17/2021  04:09:00     -116.848      -21.186      -13.910       62.785       26.333       25.531     3941.974      693.420      651.817        0.979        0.264      118.754       22.654        0.036      328.580       -5.228      866.019
12/17/2021  04:10:00      -88.191      -21.501      -16.765       50.071       29.715       25.981     2507.121      882.959      675.034        0.629        0.203       90.774       30.545        0.113      328.551       -5.274      866.038
12/17/2021  04:11:00      -94.690      -14.312      -16.456       33.519       34.643       18.373     1123.534     1200.160      337.550        0.605        0.133       95.765       10.827        0.013      328.550       -5.277      866.050
12/17/2021  04:12:00      -63.958      -36.946       -6.914       49.222       29.538       22.181     2422.787      872.516      491.991        0.464        0.189       73.862       24.310        0.108      328.607       -5.183      866.066
12/17/2021  04:13:00      -38.618      -20.353      -11.364       37.835       33.115       20.999     1431.466     1096.608      440.951        0.250        0.148       43.653       11.679        0.072      328.613       -5.174      866.086
12/17/2021  04:14:00      -60.575        0.629       -8.431       45.811       27.264       25.314     2098.671      743.332      640.794        0.361        0.174       60.579       15.209        0.063      328.488       -5.378      866.096
12/17/2021  04:15:00      -47.928       -6.263       -6.628       51.590       23.794       26.338     2661.569      566.132      693.692        0.315        0.196       48.336       28.451        0.346      328.542       -5.288      866.102
12/17/2021  04:16:00      -45.763        1.616       -4.901       29.118       34.464       18.937      847.886     1187.754      358.597        0.226        0.120       45.791       19.577        0.183      328.543       -5.288      866.104
12/17/2021  04:17:00      -34.879       11.172       -5.405       31.930       29.432       14.535     1019.549      866.266      211.275        0.173        0.105       36.625       14.173        0.150      328.439       -5.458      866.107
12/17/2021  04:18:00      -45.477        4.028      -11.087       39.282       26.500       19.078     1543.081      702.270      363.957        0.241        0.130       45.655        9.891        0.047      328.551       -5.276      866.112
12/17/2021  04:19:00      -62.560        8.065        3.245       44.109       33.996       25.503     1945.567     1155.753      650.413        0.387        0.188       63.078       25.563        0.164      328.491       -5.373      866.113
12/17/2021  04:20:00     -135.699       -1.350      -11.216       64.336       32.942       24.400     4139.144     1085.183      595.370        1.218        0.291      135.705       26.829        0.039      328.493       -5.370      866.108
12/17/2021  04:21:00      -80.789        1.776       -0.653       48.206       40.128       24.977     2323.860     1610.277      623.872        0.554        0.228       80.808       21.535        0.071      328.489       -5.376      866.092
12/17/2021  04:22:00     -140.223       -7.179       -3.700       39.464       34.275       22.951     1557.446     1174.751      526.734        1.149        0.163      140.407       20.752        0.022      328.571       -5.243      866.080
12/17/2021  04:23:00      -51.552        9.655        5.576       61.910       40.022       32.022     3832.789     1601.758     1025.397        0.462        0.323       52.448       25.174        0.230      328.484       -5.385      866.071
12/17/2021  04:24:00     -162.510      -17.260      -18.349       63.939       31.630       24.256     4088.173     1000.482      588.374        1.636        0.284      163.424       23.959        0.021      328.496       -5.366      866.078
12/17/2021  04:25:00      -62.983       -0.667       -7.553       82.759       42.205       30.397     6849.029     1781.278      923.973        0.679        0.478       62.986       36.814        0.342      328.560       -5.261      866.093
12/17/2021  04:26:00      -55.007      -14.088       -8.774       36.231       33.054       23.021     1312.688     1092.563      529.984        0.312        0.147       56.783       12.933        0.052      328.595       -5.204      866.113
12/17/2021  04:27:00      -79.870      -23.189      -17.928       54.724       40.447       28.542     2994.754     1635.938      814.621        0.634        0.272       83.168       17.749        0.046      328.576       -5.234      866.132
12/17/2021  04:28:00      -74.004       -6.067       -9.238       41.669       32.413       24.487     1736.298     1050.621      599.627        0.449        0.169       74.252       22.342        0.091      328.570       -5.243      866.135
12/17/2021  04:29:00      -70.215        0.615      -11.101       46.508       43.989       28.372     2162.996     1935.061      804.992        0.498        0.245       70.218       24.719        0.124      328.487       -5.380      866.140
12/17/2021  04:30:00      -28.470        7.605        2.079       35.732       31.753       25.587     1276.748     1008.244      654.671        0.191        0.147       29.468       15.511        0.277      328.451       -5.438      866.140
12/17/2021  04:31:00      -62.525      -12.844      -12.985       52.586       32.064       28.181     2765.311     1028.093      794.157        0.441        0.229       63.831       27.520        0.186      328.523       -5.321      866.147
12/17/2021  04:32:00      -62.034      -21.093      -12.276       38.848       38.557       26.257     1509.151     1486.664      689.448        0.406        0.184       65.522        8.357        0.016      328.544       -5.287      866.152
12/17/2021  04:33:00     -107.074       -4.898       -2.224       61.308       40.386       36.281     3758.700     1630.990     1316.305        0.910        0.335      107.186       39.810        0.138      328.418       -5.492      866.150
12/17/2021  04:34:00      -97.095       -7.292        0.338       66.096       33.607       28.980     4368.728     1129.426      839.857        0.791        0.317       97.368       30.829        0.100      328.481       -5.390      866.150
12/17/2021  04:35:00     -124.446        3.625       -8.086       57.145       37.445       23.266     3265.520     1402.139      541.317        1.039        0.260      124.499       23.997        0.037      328.391       -5.538      866.163
12/17/2021  04:36:00      -84.498       -5.482       -7.457       51.366       52.747       28.154     2638.470     2782.247      792.627        0.672        0.311       84.675       22.609        0.071      328.482       -5.389      866.169
12/17/2021  04:37:00      -85.155      -18.689       -3.392       40.099       27.675       25.028     1607.897      765.929      626.414        0.531        0.150       87.182       24.134        0.077      328.537       -5.298      866.180
12/17/2021  04:38:00      -57.076      -20.047      -10.478       42.357       29.465       22.267     1794.086      868.191      495.820        0.346        0.158       60.494       25.246        0.174      328.533       -5.303      866.205
12/17/2021  04:39:00      -25.357       -2.349       -4.340       30.582       26.232       17.278      935.275      688.121      298.521        0.129        0.096       25.466       13.304        0.273      328.546       -5.283      866.220
12/17/2021  04:40:00      -24.487      -17.806       -4.927       22.574       22.698       21.852      509.565      515.213      477.519        0.122        0.075       30.277        8.626        0.081      328.481       -5.390      866.220
12/17/2021  04:41:00      -41.833       -7.263       -3.168       31.758       31.707       21.226     1008.570     1005.327      450.526        0.214        0.123       42.459       21.202        0.249      328.550       -5.276      866.210
12/17/2021  04:42:00      -22.109      -34.817      -13.964       18.566       21.508       14.061      344.709      462.603      197.702        0.145        0.050       41.244        9.036        0.048      328.581       -5.227      866.212
12/17/2021  04:43:00      -37.362       -9.665       -6.716       39.238       31.653       27.073     1539.644     1001.943      732.954        0.240        0.164       38.592       20.059        0.270      328.544       -5.287      866.211
12/17/2021  04:44:00      -26.481       -2.289       -8.498       37.326       21.619       18.079     1393.207      467.400      326.852        0.148        0.109       26.580       12.520        0.222      328.524       -5.319      866.206
12/17/2021  04:45:00      -46.442      -13.070       -8.877       41.250       25.644       20.768     1701.539      657.621      431.303        0.260        0.140       48.246       24.926        0.267      328.504       -5.351      866.194
12/17/2021  04:46:00      -62.424      -31.021      -12.357       24.829       45.023       17.570      616.479     2027.053      308.694        0.398        0.148       69.707       12.778        0.034      328.477       -5.396      866.169
12/17/2021  04:47:00      -33.722       -6.346      -18.819       35.273       41.851       26.111     1244.153     1751.521      681.764        0.260        0.184       34.314       10.915        0.101      328.441       -5.456      866.153
12/17/2021  04:48:00      -34.822        2.171       -3.001       29.534       29.801       20.881      872.279      888.092      436.010        0.171        0.110       34.889       15.626        0.201      328.373       -5.565      866.140
12/17/2021  04:49:00      -33.130        0.099       -9.499       22.591       19.708       17.112      510.376      388.423      292.834        0.119        0.060       33.130       11.980        0.131      328.444       -5.448      866.131
12/17/2021  04:50:00      -44.759       11.709      -16.131       23.527       23.668       17.921      553.500      560.170      321.168        0.192        0.072       46.266        9.165        0.039      328.483       -5.386      866.131
12/17/2021  04:51:00      -25.708       11.026       -3.402       22.451       20.359       11.664      504.066      414.491      136.056        0.092        0.053       27.973        7.557        0.073      328.362       -5.583      866.150
12/17/2021  04:52:00      -42.017       32.280       -5.692       22.996       17.761       11.513      528.825      315.465      132.557        0.191        0.049       52.985        8.971        0.029      328.300       -5.684      866.170
12/17/2021  04:53:00      -32.320       32.207       -5.943       24.005       16.305       13.058      576.226      265.856      170.499        0.156        0.051       45.628       10.262        0.051      328.324       -5.644      866.197
12/17/2021  04:54:00      -61.008       24.775      -13.260       12.445       14.529       11.024      154.866      211.097      121.520        0.250        0.024       65.847        4.683        0.005      328.386       -5.544      866.223
12/17/2021  04:55:00      -59.757       20.778       -7.173       20.384       16.140       12.066      415.519      260.503      145.595        0.244        0.041       63.267        8.972        0.020      328.390       -5.537      866.238
12/17/2021  04:56:00      -57.582        1.572       -9.727       25.184       26.658       17.775      634.256      710.628      315.966        0.254        0.083       57.603       13.502        0.055      328.442       -5.452      866.250
12/17/2021  04:57:00      -53.647        7.823       -5.860       24.810       22.885       13.631      615.546      523.720      185.800        0.215        0.066       54.214       16.675        0.095      328.411       -5.503      866.261
12/17/2021  04:58:00      -65.307       15.412       -6.813       29.116       27.577       15.974      847.714      760.486      255.177        0.321        0.093       67.101       14.641        0.048      328.517       -5.332      866.269
12/17/2021  04:59:00      -80.652       25.389      -11.996       19.471       17.206       14.647      379.113      296.033      214.536        0.409        0.044       84.554       10.356        0.015      328.371       -5.568      866.283
12/17/2021  05:00:00      -94.779       28.339      -12.412       18.371       12.097       16.482      337.511      146.329      271.650        0.535        0.038       98.925       10.409        0.011      328.395       -5.529      866.293
12/17/2021  05:01:00      -88.035       23.862       -9.021       14.990       14.205       13.865      224.695      201.795      192.242        0.451        0.031       91.212        6.994        0.006      328.342       -5.615      866.314
12/17/2021  05:02:00      -84.692       18.024       -3.779       48.593       23.665       22.236     2361.256      560.044      494.447        0.546        0.171       86.589       25.715        0.088      328.408       -5.507      866.329
12/17/2021  05:03:00      -75.308        6.830       -5.280       49.071       34.790       24.594     2407.998     1210.336      604.889        0.498        0.211       75.617       17.461        0.053      328.490       -5.374      866.359
12/17/2021  05:04:00     -109.806       25.480       -2.507       34.640       24.977       18.174     1199.902      623.856      330.305        0.743        0.108      112.723       19.274        0.029      328.330       -5.634      866.388
12/17/2021  05:05:00      -93.470       29.963       -2.893       41.585       29.326       21.319     1729.318      860.028      454.510        0.634        0.152       98.155       16.321        0.028      328.265       -5.740      866.409
12/17/2021  05:06:00      -67.329       21.015        4.486       53.588       30.555       25.280     2871.688      933.579      639.075        0.472        0.222       70.533       24.237        0.118      328.258       -5.752      866.425
12/17/2021  05:07:00      -78.938       13.323       -4.214       62.396       34.130       21.011     3893.269     1164.830      441.482        0.596        0.275       80.055       22.163        0.077      328.259       -5.751      866.436
12/17/2021  05:08:00      -42.015        3.091       -1.168       48.309       22.052       19.214     2333.715      486.283      369.167        0.248        0.159       42.129       22.157        0.277      328.355       -5.594      866.439
12/17/2021  05:09:00      -91.802       19.082       -0.212       45.793       29.783       19.899     2096.987      887.045      395.953        0.609        0.169       93.764       19.984        0.045      328.312       -5.664      866.439
12/17/2021  05:10:00      -65.391       19.810       -4.278       39.199       31.824       19.922     1536.589     1012.754      396.901        0.382        0.147       68.326       18.781        0.076      328.240       -5.782      866.438
12/17/2021  05:11:00      -89.790       30.763      -14.526       25.697       18.499       16.693      660.334      342.205      278.653        0.525        0.064       94.914        9.771        0.011      328.246       -5.772      866.437
12/17/2021  05:12:00      -76.618       15.355      -14.805       30.416       20.342       17.693      925.163      413.814      313.049        0.399        0.083       78.141       10.345        0.018      328.294       -5.695      866.432
12/17/2021  05:13:00      -90.957       36.893      -12.617       29.383       17.643       18.655      863.356      311.263      347.995        0.566        0.076       98.154       18.388        0.035      328.294       -5.693      866.431
12/17/2021  05:14:00     -101.757       18.406      -20.363       18.893       22.145       18.053      356.948      490.391      325.899        0.614        0.059      103.408        7.536        0.005      328.258       -5.753      866.425
12/17/2021  05:15:00     -118.329       31.441      -17.525       29.461       26.520       17.065      867.980      703.305      291.198        0.858        0.093      122.435       15.404        0.016      328.215       -5.824      866.422
12/17/2021  05:16:00     -108.266       38.140      -12.481       21.959       12.216       11.253      482.179      149.233      126.635        0.704        0.038      114.788       11.407        0.010      328.247       -5.770      866.434
12/17/2021  05:17:00      -79.610       28.958       -9.097       28.309       25.610       15.839      801.404      655.862      250.890        0.448        0.085       84.713       10.717        0.016      328.203       -5.841      866.464
12/17/2021  05:18:00      -81.193       44.319       -2.705       30.929       22.176       19.877      956.620      491.766      395.090        0.520        0.092       92.501       15.046        0.026      328.072       -6.055      866.505
12/17/2021  05:19:00      -98.061       40.279      -11.017       26.631       24.561       16.958      709.217      603.238      287.582        0.648        0.080      106.011        9.629        0.008      328.138       -5.949      866.525
12/17/2021  05:20:00      -97.741       36.706      -17.983       26.007       22.231       15.539      676.389      494.230      241.452        0.632        0.071      104.406       11.394        0.012      328.208       -5.836      866.540
12/17/2021  05:21:00      -67.549       17.355       -6.806       28.944       20.988       16.173      837.771      440.498      261.563        0.322        0.077       69.742       14.011        0.040      328.266       -5.740      866.522
12/17/2021  05:22:00      -61.366       10.735       -9.560       14.131       18.389       14.301      199.696      338.148      204.508        0.236        0.037       62.298        9.877        0.025      328.360       -5.585      866.515
12/17/2021  05:23:00      -30.626      -10.309       -9.549       27.520       26.474       15.554      757.364      700.866      241.916        0.142        0.085       32.315       16.307        0.255      328.459       -5.424      866.533
12/17/2021  05:24:00      -28.613      -15.225      -14.253       29.936       30.859       11.266      896.143      952.283      126.918        0.161        0.099       32.412        5.606        0.030      328.444       -5.450      866.562
12/17/2021  05:25:00       -1.780       -1.533       -8.964       12.663       19.524       13.345      160.340      381.175      178.093        0.040        0.036        2.349        3.658        2.425      328.432       -5.470      866.607
12/17/2021  05:26:00      -51.447        5.794      -13.939       25.677       13.150       12.631      659.324      172.928      159.536        0.193        0.050       51.772        5.037        0.009      328.424       -5.482      866.638
12/17/2021  05:27:00      -50.530       13.939       -5.476       21.134       19.908       11.392      446.650      396.318      129.778        0.187        0.049       52.417       11.180        0.045      328.319       -5.652      866.652
12/17/2021  05:28:00      -47.142        3.446      -10.437       29.323       16.436       15.330      859.849      270.137      235.011        0.185        0.068       47.268       18.430        0.152      328.384       -5.547      866.663
12/17/2021  05:29:00       -5.956        1.811       -5.634       14.446       10.715        8.421      208.695      114.818       70.910        0.023        0.020        6.226        6.440        1.070      328.394       -5.531      866.689
12/17/2021  05:30:00      -41.347       12.227       -6.552       13.204       13.796        9.615      174.333      190.318       92.440        0.118        0.023       43.117        8.744        0.041      328.349       -5.604      866.719
12/17/2021  05:31:00      -23.456        9.193       -3.290       20.832       11.000       10.308      433.968      120.994      106.253        0.065        0.033       25.193        9.942        0.156      328.344       -5.613      866.742
12/17/2021  05:32:00      -52.952       33.794      -12.864       18.099       13.424       10.546      327.567      180.203      111.215        0.237        0.031       62.817        7.267        0.013      328.424       -5.483      866.751
12/17/2021  05:33:00      -60.042       40.855       -9.713       20.968       10.380       12.787      439.665      107.737      163.513        0.304        0.036       72.624       10.796        0.022      328.441       -5.455      866.746
12/17/2021  05:34:00      -81.907       15.869      -11.320       20.916       14.555       13.836      437.465      211.860      191.435        0.396        0.042       83.430       12.966        0.024      328.374       -5.563      866.743
12/17/2021  05:35:00      -72.773       20.976       -4.574       24.863       14.174       18.709      618.176      200.894      350.013        0.346        0.058       75.736       12.514        0.027      328.263       -5.744      866.749
12/17/2021  05:36:00      -68.062       14.240       -8.221       32.451       14.342       13.478     1053.080      205.682      181.663        0.317        0.072       69.536       10.241        0.022      328.305       -5.677      866.770
12/17/2021  05:37:00      -36.297       10.847       -8.274       21.596       17.707       16.803      466.380      313.533      282.341        0.128        0.053       37.883       15.300        0.163      328.359       -5.588      866.798
12/17/2021  05:38:00       -2.613       13.339        6.872        8.661       10.991        7.599       75.008      120.797       57.742        0.024        0.013       13.593        4.610        0.115      328.285       -5.708      866.820
12/17/2021  05:39:00       -4.313       22.232       -3.767        5.725       15.101        6.045       32.776      228.047       36.538        0.041        0.015       22.646        5.623        0.062      328.331       -5.631      866.838
12/17/2021  05:40:00       -7.104       32.121        0.150       11.336       16.917       11.848      128.511      286.178      140.379        0.082        0.028       32.897        8.301        0.064      328.320       -5.650      866.867
12/17/2021  05:41:00       12.777       13.771       -8.030       11.862        9.384       11.301      140.711       88.066      127.719        0.039        0.018       18.786        5.277        0.079      328.251       -5.764      866.902
12/17/2021  05:42:00       23.667       16.977       -6.511        6.818        9.622        7.049       46.490       92.581       49.682        0.054        0.009       29.126        2.377        0.007      328.179       -5.882      866.921
12/17/2021  05:43:00       17.013        0.649       -7.272        8.808        3.610        3.764       77.585       13.033       14.165        0.022        0.005       17.025        3.139        0.034      328.273       -5.727      866.929
12/17/2021  05:44:00       34.716       27.714      -11.675        7.807       13.846        9.655       60.950      191.702       93.224        0.123        0.017       44.422        4.980        0.013      328.329       -5.637      866.941
12/17/2021  05:45:00       39.239       45.051      -12.331        8.695        7.504        7.613       75.606       56.307       57.964        0.196        0.009       59.743        2.968        0.002      328.355       -5.596      866.973
12/17/2021  05:46:00       17.686       37.880       -7.357       10.538       11.561        7.476      111.043      133.655       55.883        0.105        0.015       41.805        2.835        0.005      328.353       -5.597      867.015
12/17/2021  05:47:00        4.487       24.772       -9.300       11.864        6.933        6.436      140.758       48.064       41.427        0.048        0.012       25.175        3.449        0.019      328.343       -5.612      867.035
12/17/2021  05:48:00       -5.367       15.244       -5.326       11.708       10.087       10.093      137.069      101.752      101.871        0.032        0.017       16.161        6.361        0.155      328.285       -5.709      867.055
12/17/2021  05:49:00      -22.917       19.516       -9.915       13.133       11.796       11.374      172.468      139.154      129.366        0.072        0.022       30.101        8.741        0.084      328.215       -5.821      867.072
12/17/2021  05:50:00      -57.584       10.598      -10.423       25.973       16.590       10.355      674.619      275.212      107.220        0.230        0.053       58.551        9.320        0.025      328.194       -5.856      867.081
12/17/2021  05:51:00      -62.793        9.008       -7.709       21.887       14.755       15.390      479.031      217.718      236.839        0.251        0.047       63.436       14.066        0.049      328.245       -5.774      867.103
12/17/2021  05:52:00        2.889        1.958        2.473       16.183       16.912       12.567      261.889      286.028      157.930        0.036        0.035        3.490       10.918        9.790      328.247       -5.771      867.121
12/17/2021  05:53:00      -14.408        7.956       -4.735       17.047       17.272        9.110      290.617      298.313       82.999        0.048        0.034       16.458        2.928        0.032      328.172       -5.893      867.137
12/17/2021  05:54:00      -15.057       -7.973      -10.671       13.400       15.584       10.307      179.549      242.867      106.243        0.047        0.026       17.038        9.021        0.280      328.332       -5.633      867.152
12/17/2021  05:55:00      -30.281        8.672       -9.420       19.505       11.027        9.683      380.454      121.584       93.757        0.084        0.030       31.498        4.779        0.023      328.294       -5.693      867.162
12/17/2021  05:56:00      -22.983        3.714       -8.625       20.706       13.713       10.461      428.758      188.058      109.425        0.067        0.036       23.281        9.456        0.165      328.253       -5.760      867.173
12/17/2021  05:57:00       -9.301        2.210       -8.078       14.175       10.120        8.776      200.931      102.410       77.025        0.027        0.019        9.560        7.156        0.560      328.295       -5.693      867.187
12/17/2021  05:58:00      -13.244        4.929       -6.952       15.384        8.402        8.987      236.658       70.600       80.765        0.032        0.019       14.131        7.794        0.304      328.219       -5.817      867.202
12/17/2021  05:59:00      -27.007        9.787       -5.665       14.236        8.303        7.915      202.671       68.948       62.644        0.060        0.017       28.726        8.913        0.096      328.173       -5.891      867.219
12/17/2021  06:00:00      -26.188        4.850       -7.824       15.719        9.180        9.053      247.088       84.281       81.951        0.059        0.021       26.633        6.968        0.068      328.271       -5.732      867.241
12/17/2021  06:01:00      -23.647        0.244       -1.728       16.684       15.861        8.686      278.356      251.565       75.454        0.058        0.030       23.648        6.167        0.068      328.321       -5.649      867.253
12/17/2021  06:02:00      -37.343        5.558       -6.171       33.818       14.828       11.902     1143.686      219.855      141.667        0.148        0.075       37.754       13.658        0.131      328.275       -5.725      867.273
12/17/2021  06:03:00      -33.551        4.862       -3.946       29.412       17.454       16.334      865.073      304.658      266.787        0.130        0.072       33.902       17.186        0.257      328.281       -5.715      867.278
12/17/2021  06:04:00      -18.376       -6.745       -4.754       27.455       21.385       16.515      753.801      457.309      272.730        0.094        0.074       19.575       10.684        0.298      328.373       -5.565      867.285
12/17/2021  06:05:00       -4.742       11.775       -4.318       12.176       12.910       11.636      148.252      166.672      135.393        0.031        0.023       12.695        6.673        0.276      328.257       -5.754      867.293
12/17/2021  06:06:00      -50.922       15.961       -4.565       23.099       14.655       12.578      533.572      214.759      158.213        0.189        0.045       53.365        9.082        0.029      328.336       -5.625      867.292
12/17/2021  06:07:00      -59.869       23.234      -12.263       24.647       15.421       14.137      607.465      237.820      199.857        0.266        0.052       64.220        9.466        0.022      328.200       -5.848      867.295
12/17/2021  06:08:00      -64.003       38.241      -11.104       19.531       18.459       14.449      381.471      340.751      208.771        0.331        0.047       74.557       10.197        0.019      328.137       -5.949      867.297
12/17/2021  06:09:00      -62.159       33.274       -6.181       18.125       16.766       12.169      328.516      281.093      148.090        0.288        0.038       70.505        9.314        0.017      328.149       -5.930      867.308
12/17/2021  06:10:00      -64.812       30.734       -4.954       21.562       16.655       12.491      464.909      277.383      156.023        0.303        0.045       71.729        9.463        0.017      328.151       -5.927      867.341
12/17/2021  06:11:00      -68.379       29.263       -5.789       20.334       20.356       12.413      413.465      414.370      154.089        0.327        0.049       74.378        6.475        0.008      328.193       -5.859      867.360
12/17/2021  06:12:00     -100.398       38.260       -8.617       20.572       13.029       12.521      423.206      169.758      156.770        0.618        0.037      107.441       11.595        0.012      328.051       -6.088      867.383
12/17/2021  06:13:00     -109.277       29.082      -11.957       29.272       27.801       17.938      856.854      772.919      321.769        0.744        0.098      113.081       10.833        0.009      328.144       -5.938      867.392
12/17/2021  06:14:00      -94.192       18.792       -9.989       39.328       27.234       21.367     1546.683      741.680      456.555        0.603        0.137       96.048       23.601        0.060      328.121       -5.976      867.391
12/17/2021  06:15:00      -89.652       32.906       -3.444       50.320       35.038       23.425     2532.147     1227.656      548.726        0.672        0.215       95.500       27.497        0.083      328.041       -6.105      867.392
12/17/2021  06:16:00      -84.810       29.811      -10.230       35.603       22.080       20.236     1267.585      487.506      409.514        0.517        0.108       89.896       12.664        0.020      327.955       -6.247      867.400
12/17/2021  06:17:00      -80.517       40.766       -4.552       36.215       27.672       16.451     1311.545      765.736      270.645        0.526        0.117       90.249       17.657        0.038      327.962       -6.235      867.407
12/17/2021  06:18:00      -88.429       30.737      -11.505       24.015       22.292       14.487      576.729      496.917      209.875        0.509        0.064       93.619        5.846        0.004      327.982       -6.202      867.408
12/17/2021  06:19:00      -70.814       23.786       -3.436       39.020       24.223       17.046     1522.565      586.771      290.553        0.400        0.120       74.702       14.132        0.036      327.912       -6.315      867.412
12/17/2021  06:20:00     -103.229       35.790       -7.834       30.660       22.412       18.141      940.054      502.283      329.104        0.688        0.089      109.257       12.161        0.012      327.938       -6.273      867.420
12/17/2021  06:21:00     -121.038       45.176       -8.591       41.781       31.056       22.931     1745.649      964.473      525.814        1.000        0.162      129.194       24.344        0.036      327.930       -6.286      867.430
12/17/2021  06:22:00     -136.630       56.364      -21.465       34.437       25.219       23.009     1185.940      635.982      529.416        1.233        0.118      147.800       16.590        0.013      327.946       -6.258      867.454
12/17/2021  06:23:00     -129.051       75.896      -13.240       47.221       27.458       26.846     2229.839      753.934      720.721        1.315        0.185      149.714       28.371        0.036      327.900       -6.335      867.476
12/17/2021  06:24:00     -122.252       67.779      -14.792       46.279       33.713       25.558     2141.744     1136.562      653.212        1.184        0.197      139.784       22.666        0.026      327.915       -6.311      867.495
12/17/2021  06:25:00     -114.170       81.643      -24.896       25.530       25.496       19.377      651.796      650.039      375.479        1.100        0.084      140.357        8.013        0.003      327.970       -6.221      867.513
12/17/2021  06:26:00     -139.691       77.652      -26.186       24.565       30.464       18.961      603.436      928.081      359.524        1.406        0.095      159.823       14.509        0.008      328.021       -6.139      867.522
12/17/2021  06:27:00     -111.146       47.722      -19.265       33.677       24.162       21.665     1134.110      583.821      469.391        0.859        0.109      120.958       19.156        0.025      327.981       -6.204      867.527
12/17/2021  06:28:00     -128.535       67.900      -24.360       22.920       22.140       14.992      525.333      490.189      224.757        1.148        0.062      145.367        7.529        0.003      328.036       -6.114      867.538
12/17/2021  06:29:00     -120.702       51.780      -17.444       32.452       33.140       22.906     1053.124     1098.242      524.699        1.011        0.134      131.340       16.660        0.016      328.029       -6.127      867.550
12/17/2021  06:30:00     -103.863       64.462      -17.960       25.118       25.046       18.373      630.919      627.321      337.575        0.843        0.080      122.241       13.689        0.013      328.073       -6.054      867.563
12/17/2021  06:31:00     -123.322       64.793      -31.088       19.467       13.925       13.091      378.975      193.913      171.367        1.056        0.037      139.307        6.863        0.002      328.116       -5.983      867.569
12/17/2021  06:32:00      -89.747       42.795       -6.401       41.861       26.162       20.638     1752.302      684.461      425.942        0.639        0.143       99.428       18.502        0.035      328.133       -5.955      867.564
12/17/2021  06:33:00      -83.838       29.705       -7.287       20.607       15.752       13.233      424.654      248.117      175.124        0.441        0.042       88.945        7.595        0.007      328.231       -5.798      867.565
12/17/2021  06:34:00      -63.812       18.112      -12.999       19.897       10.048       11.526      395.904      100.956      132.840        0.260        0.031       66.333        6.994        0.011      328.330       -5.635      867.557
12/17/2021  06:35:00      -48.290       16.080       -8.592       15.707       11.943       13.148      246.721      142.638      172.866        0.161        0.028       50.896        9.241        0.033      328.431       -5.470      867.558
12/17/2021  06:36:00      -48.444       18.445      -10.703       13.475       16.230       12.337      181.584      263.413      152.192        0.170        0.030       51.837        6.286        0.015      328.486       -5.381      867.553
12/17/2021  06:37:00      -19.966        5.050      -13.524       15.659       12.020        8.399      245.219      144.485       70.547        0.053        0.023       20.595        3.585        0.030      328.415       -5.497      867.549
12/17/2021  06:38:00      -19.912        3.989       -9.497       17.808       18.790       11.488      317.132      353.077      131.977        0.065        0.040       20.307        4.593        0.051      328.328       -5.638      867.545
12/17/2021  06:39:00       19.508      -17.200        1.305       13.983       20.301       11.566      195.536      412.112      133.783        0.071        0.037       26.008        5.165        0.039      328.353       -5.600      867.552
12/17/2021  06:40:00       -4.589       -4.519       -7.192       14.730       17.185       11.476      216.963      295.322      131.688        0.037        0.032        6.440       10.123        2.471      328.325       -5.641      867.560
12/17/2021  06:41:00       -8.170        0.708       -5.276       16.900       15.623       12.287      285.611      244.065      150.960        0.039        0.034        8.201        7.655        0.871      328.309       -5.669      867.564
12/17/2021  06:42:00       -8.472       -2.597       -6.041       25.021       13.892       14.269      626.026      192.997      203.616        0.057        0.051        8.861       10.738        1.468      328.271       -5.731      867.575
12/17/2021  06:43:00      -28.416        4.967       -7.933       27.699       14.058       13.313      767.214      197.619      177.238        0.102        0.057       28.847        8.591        0.089      328.255       -5.758      867.573
12/17/2021  06:44:00      -54.204       14.128       -8.772       16.468       18.187       10.296      271.187      330.778      105.999        0.196        0.035       56.015        9.060        0.026      328.293       -5.695      867.572
12/17/2021  06:45:00      -62.429       11.442       -7.859       22.364       10.690       11.287      500.169      114.267      127.404        0.242        0.037       63.468       12.107        0.036      328.365       -5.578      867.575
12/17/2021  06:46:00      -44.799        6.390       -6.863       15.608       18.833       13.892      243.606      354.672      192.991        0.144        0.040       45.252        6.652        0.022      328.435       -5.464      867.586
12/17/2021  06:47:00      -31.961       -2.407        0.828       26.520       19.497       16.894      703.324      380.138      285.395        0.120        0.068       32.052       12.103        0.143      328.414       -5.499      867.613
12/17/2021  06:48:00      -79.609       14.092       -0.570       29.122       22.942       15.059      848.100      526.321      226.766        0.407        0.080       80.846       12.216        0.023      328.339       -5.620      867.635
12/17/2021  06:49:00      -26.306        8.820        0.277       32.033       25.152       17.369     1026.134      632.640      301.669        0.136        0.098       27.745       13.913        0.251      328.344       -5.613      867.647
12/17/2021  06:50:00      -56.343        2.640       -1.179       33.238       24.506       19.532     1104.739      600.557      381.515        0.263        0.104       56.405       15.375        0.074      328.289       -5.701      867.652
12/17/2021  06:51:00       -9.085      -10.738        9.356       42.657       20.031       18.302     1819.633      401.252      334.961        0.142        0.128       14.066       15.325        1.187      328.390       -5.537      867.664
12/17/2021  06:52:00      -45.826        2.432       -0.262       37.109       28.558       21.156     1377.112      815.545      447.568        0.237        0.132       45.890       13.819        0.091      328.331       -5.633      867.671
12/17/2021  06:53:00     -135.778       -6.770      -11.058       27.633       25.681       17.361      763.583      659.525      301.388        1.016        0.086      135.947       12.273        0.008      328.248       -5.770      867.676
12/17/2021  06:54:00     -113.119       -4.195       -1.726       42.526       35.302       24.875     1808.420     1246.225      618.782        0.824        0.184      113.197       24.038        0.045      328.256       -5.756      867.685
12/17/2021  06:55:00     -124.788      -18.305       -9.243       42.623       34.584       24.593     1816.708     1196.063      604.814        0.980        0.181      126.124       16.754        0.018      328.202       -5.843      867.692
12/17/2021  06:56:00      -53.406      -15.095       -1.922       44.490       29.717       19.980     1979.369      883.126      399.190        0.317        0.163       55.499       18.578        0.112      328.292       -5.697      867.700
12/17/2021  06:57:00      -61.581       15.536       -3.594       23.882       36.068       22.458      570.334     1300.881      504.370        0.321        0.119       63.511       14.021        0.049      328.149       -5.930      867.701
12/17/2021  06:58:00      -53.673       -3.150       -8.059       39.349       25.717       18.195     1548.359      661.358      331.050        0.275        0.127       53.765       17.064        0.101      328.060       -6.075      867.705
12/17/2021  06:59:00      -71.330       -4.397       -9.982       36.769       23.093       22.201     1351.942      533.285      492.881        0.379        0.119       71.466       23.515        0.108      328.096       -6.017      867.706
12/17/2021  07:00:00      -94.952      -16.269       -7.263       63.759       31.068       20.296     4065.245      965.199      411.926        0.739        0.272       96.336       19.395        0.041      328.049       -6.094      867.705
12/17/2021  07:01:00      -66.704        8.740        6.714       51.564       30.724       24.433     2658.821      943.994      596.953        0.438        0.210       67.274       26.398        0.154      328.124       -5.971      867.699
12/17/2021  07:02:00      -98.170       -3.922      -14.317       38.096       32.067       19.511     1451.329     1028.306      380.666        0.636        0.143       98.248        8.877        0.008      328.071       -6.056      867.693
12/17/2021  07:03:00      -81.152        5.809      -15.324       38.857       23.577       16.760     1509.900      555.864      280.901        0.460        0.117       81.359       15.782        0.038      328.019       -6.141      867.690
12/17/2021  07:04:00      -91.913       -7.351      -12.678       22.496       23.110       20.212      506.053      534.066      408.533        0.506        0.072       92.207       14.444        0.025      328.076       -6.049      867.684
12/17/2021  07:05:00      -62.297        2.307      -15.475       31.573       28.572       20.106      996.869      816.383      404.233        0.317        0.111       62.340       11.955        0.037      328.108       -5.997      867.668
12/17/2021  07:06:00      -14.369        1.834      -10.220       29.972       28.598       19.062      898.310      817.874      363.377        0.120        0.104       14.485       10.680        0.544      327.990       -6.190      867.661
12/17/2021  07:07:00      -31.491       -4.510        1.307       27.181       29.450       21.758      738.783      867.273      473.424        0.155        0.104       31.812       11.512        0.131      327.982       -6.201      867.661
12/17/2021  07:08:00      -60.720      -16.498       -7.858       32.344       25.818       16.008     1046.105      666.552      256.267        0.299        0.098       62.921       14.607        0.054      328.049       -6.093      867.657
12/17/2021  07:09:00      -88.929       -0.985      -11.343       37.522       20.919       26.022     1407.936      437.592      677.132        0.528        0.126       88.935       22.571        0.064      328.013       -6.151      867.662
12/17/2021  07:10:00      -79.736        2.983      -20.988       16.833       13.762       15.172      283.333      189.389      230.200        0.375        0.035       79.792       10.011        0.016      327.994       -6.181      867.672
12/17/2021  07:11:00      -44.607        9.281       -8.300       17.980       20.269       12.364      323.269      410.818      152.876        0.152        0.044       45.562        6.546        0.021      328.002       -6.167      867.683
12/17/2021  07:12:00      -29.679       16.611       -4.252       25.243       19.820       18.414      637.221      392.847      339.064        0.127        0.068       34.011       15.358        0.204      328.044       -6.101      867.704
12/17/2021  07:13:00      -22.888       16.415       -8.806       18.694       18.224        8.497      349.469      332.112       72.196        0.081        0.038       28.165        4.585        0.026      327.926       -6.293      867.723
12/17/2021  07:14:00      -33.536       23.097       -2.477       20.279       13.541       12.637      411.242      183.356      159.691        0.121        0.038       40.721       12.367        0.092      327.921       -6.301      867.736
12/17/2021  07:15:00      -38.072       33.302       -9.981       11.233       12.317        8.350      126.191      151.715       69.727        0.150        0.017       50.582        5.911        0.014      327.972       -6.219      867.739
12/17/2021  07:16:00      -40.737       24.110       -4.129       18.892       16.264       11.777      356.910      264.505      138.707        0.151        0.038       47.337        8.472        0.032      327.991       -6.188      867.742
12/17/2021  07:17:00      -58.798       24.896       -8.501       10.563       17.354        9.041      111.576      301.151       81.744        0.232        0.025       63.852        3.982        0.004      328.011       -6.154      867.748
12/17/2021  07:18:00      -50.578        9.255       -7.986       32.019       20.298       11.751     1025.204      412.008      138.075        0.214        0.079       51.418        8.125        0.025      328.067       -6.063      867.756
12/17/2021  07:19:00      -25.132        9.961       -2.729       23.843       13.677       10.163      568.503      187.067      103.278        0.080        0.043       27.034       11.988        0.197      328.040       -6.108      867.779
12/17/2021  07:20:00      -17.121        0.992       -7.710       27.239       17.081       15.404      741.944      291.767      237.286        0.081        0.064       17.150        7.572        0.195      328.039       -6.109      867.804
12/17/2021  07:21:00        7.573        6.759       -0.139       13.951       12.067       12.635      194.619      145.605      159.643        0.030        0.025       10.151       10.093        0.989      328.008       -6.160      867.833
12/17/2021  07:22:00      -15.469        3.391        4.015       22.477       16.553       16.733      505.195      274.018      280.009        0.066        0.053       15.836        5.955        0.141      328.016       -6.147      867.862
12/17/2021  07:23:00      -70.082       10.463       -8.296       22.402       18.312       15.008      501.845      335.339      225.228        0.308        0.053       70.859        6.367        0.008      328.051       -6.090      867.887
12/17/2021  07:24:00      -55.645       11.870       -9.632       21.792       23.454       11.896      474.876      550.067      141.507        0.225        0.058       56.897       10.525        0.034      328.029       -6.125      867.904
12/17/2021  07:25:00     -103.427       28.343      -15.765       20.942       14.617       14.105      438.587      213.670      198.941        0.630        0.043      107.240       11.719        0.012      327.970       -6.222      867.915
12/17/2021  07:26:00     -119.997       24.526      -11.881       29.443       23.073       16.818      866.895      532.378      282.859        0.841        0.084      122.477       11.182        0.008      327.964       -6.231      867.930
12/17/2021  07:27:00      -60.630        1.949      -15.881       36.274       28.881       21.223     1315.821      834.117      450.401        0.327        0.130       60.661       11.117        0.034      328.047       -6.097      867.951
12/17/2021  07:28:00      -70.470       33.415      -13.349       24.184       17.677       16.366      584.871      312.484      267.834        0.371        0.058       77.991       12.696        0.027      327.962       -6.234      867.982
12/17/2021  07:29:00      -81.346       38.386      -15.176       19.557       15.462       12.697      382.461      239.079      161.220        0.455        0.039       89.948        8.657        0.009      327.956       -6.244      868.006
12/17/2021  07:30:00      -75.163       27.460      -14.428       19.471       12.979       11.584      379.119      168.444      134.185        0.365        0.034       80.022        8.187        0.010      327.994       -6.181      868.026
12/17/2021  07:31:00      -75.034       24.732      -18.525       13.926       15.769       10.685      193.920      248.660      114.161        0.357        0.028       79.005        6.716        0.007      328.014       -6.151      868.045
12/17/2021  07:32:00      -57.117       16.183       -7.624       24.598       22.360       11.401      605.073      499.973      129.993        0.241        0.062       59.365       10.016        0.028      328.015       -6.148      868.060
12/17/2021  07:33:00      -23.605        0.998      -10.162       20.079       17.711       11.898      403.163      313.692      141.567        0.076        0.043       23.626        8.105        0.118      328.127       -5.967      868.083
12/17/2021  07:34:00       -8.613      -11.591      -11.706       17.565       39.648       15.086      308.540     1571.952      227.601        0.123        0.105       14.441        5.566        0.149      328.083       -6.037      868.110
12/17/2021  07:35:00       13.628      -54.798      -15.054       29.555       33.810       26.373      873.488     1143.148      695.516        0.306        0.136       56.467        9.806        0.030      328.251       -5.765      868.133
12/17/2021  07:36:00        6.761        8.104      -21.867       32.455       24.967       18.478     1053.323      623.352      341.419        0.130        0.101       10.554       11.306        1.148      328.142       -5.942      868.152
12/17/2021  07:37:00      -31.386      -23.340      -18.662       20.306       25.547       19.302      412.352      652.650      372.582        0.166        0.072       39.113       15.139        0.150      328.194       -5.858      868.148
12/17/2021  07:38:00       -6.434      -17.559       -0.640       30.517       47.652       28.421      931.285     2270.751      807.775        0.218        0.200       18.700       26.329        1.982      328.125       -5.969      868.168
12/17/2021  07:39:00       -1.129      -13.332      -11.335       17.053       19.790       20.093      290.794      391.630      403.729        0.070        0.054       13.380        4.782        0.128      328.280       -5.717      868.176
12/17/2021  07:40:00       -1.552       -3.771      -17.368       14.826       17.593       16.280      219.812      309.517      265.034        0.056        0.040        4.078       12.101        8.803      328.215       -5.823      868.189
12/17/2021  07:41:00        5.099       16.681      -17.696       11.333       17.186       14.683      128.428      295.346      215.599        0.063        0.032       17.443        7.260        0.173      328.239       -5.784      868.202
12/17/2021  07:42:00        2.953       -6.420      -18.641        8.382       12.535        8.825       70.262      157.132       77.884        0.035        0.015        7.067        3.698        0.274      328.323       -5.646      868.203
12/17/2021  07:43:00      -21.379       -9.235       -6.335       31.229       18.481       15.223      975.262      341.558      231.733        0.107        0.077       23.288       11.371        0.238      328.329       -5.636      868.184
12/17/2021  07:44:00      -13.788      -22.252       -7.911       28.096       26.167       20.841      789.400      684.721      434.365        0.133        0.095       26.178       10.091        0.149      328.377       -5.558      868.170
12/17/2021  07:45:00      -16.874      -20.608       -8.193       34.678       27.535       22.022     1202.581      758.162      484.967        0.161        0.122       26.635       14.670        0.303      328.426       -5.479      868.153
12/17/2021  07:46:00      -22.030      -17.498      -10.074       38.737       38.848       27.039     1500.535     1509.161      731.128        0.232        0.187       28.134       16.612        0.349      328.318       -5.655      868.147
12/17/2021  07:47:00      -42.983      -10.163        1.125       46.005       37.110       29.589     2116.428     1377.127      875.518        0.316        0.218       44.168       18.819        0.182      328.413       -5.500      868.125
12/17/2021  07:48:00      -28.007        2.173        0.160       38.821       27.107       16.026     1507.098      734.789      256.817        0.164        0.125       28.091       12.252        0.190      328.363       -5.581      868.109
12/17/2021  07:49:00      -36.134       -7.804      -10.320       30.323       30.878       24.225      919.506      953.429      586.832        0.197        0.123       36.967       13.705        0.137      328.368       -5.573      868.088
12/17/2021  07:50:00      -41.436        0.442       -7.114       38.766       23.372       22.497     1502.801      546.249      506.114        0.216        0.128       41.439       21.626        0.272      328.318       -5.654      868.058
12/17/2021  07:51:00     -119.351       -7.243       -4.664       48.247       27.220       21.915     2327.795      740.933      480.267        0.893        0.177      119.570       22.227        0.035      328.163       -5.908      868.037
12/17/2021  07:52:00      -80.234        8.022        4.849       46.085       24.633       20.178     2123.813      606.768      407.165        0.483        0.157       80.634       19.914        0.061      328.160       -5.913      868.036
12/17/2021  07:53:00      -42.717      -14.330      -13.136       24.382       26.741       27.157      594.481      715.059      737.530        0.212        0.102       45.056       13.664        0.092      328.246       -5.772      868.045
12/17/2021  07:54:00      -50.047        0.879        0.256       44.119       25.706       25.381     1946.448      660.801      644.217        0.288        0.163       50.055       12.077        0.058      328.324       -5.645      868.065
12/17/2021  07:55:00      -28.040       -1.222        6.537       43.954       31.546       21.939     1931.940      995.128      481.325        0.212        0.170       28.066       13.014        0.215      328.426       -5.478      868.088
12/17/2021  07:56:00       -7.663        5.107        3.427       27.865       30.886       19.495      776.438      953.930      380.061        0.110        0.106        9.209       10.304        1.252      328.509       -5.342      868.111
12/17/2021  07:57:00      -22.360       -3.242       -4.732       27.417       17.218       16.402      751.703      296.458      269.038        0.092        0.066       22.594       13.385        0.351      328.451       -5.439      868.141
12/17/2021  07:58:00      -45.120       -9.694       -7.695       28.934       28.660       16.097      837.188      821.393      259.123        0.205        0.096       46.149       10.779        0.055      328.446       -5.446      868.172
12/17/2021  07:59:00      -19.525        2.790       -4.768       24.998       12.373       12.489      624.895      153.098      155.978        0.067        0.047       19.723       11.024        0.312      328.527       -5.314      868.199
12/17/2021  08:00:00      -36.035        5.544      -12.435       27.050       20.530       16.778      731.715      421.484      281.511        0.146        0.072       36.459       14.142        0.150      328.423       -5.482      868.218
12/17/2021  08:01:00      -89.106       26.496      -14.688       18.719       15.962       11.778      350.394      254.782      138.723        0.480        0.037       92.962        6.907        0.006      328.278       -5.721      868.242
12/17/2021  08:02:00      -74.238       27.258      -11.534       14.497       17.681       10.556      210.171      312.633      111.431        0.351        0.032       79.084        5.737        0.005      328.248       -5.769      868.262
12/17/2021  08:03:00      -79.346       43.759      -11.244       33.555       17.287       17.830     1125.966      298.853      317.904        0.504        0.087       90.612       15.115        0.028      328.211       -5.829      868.271
12/17/2021  08:04:00      -89.532       33.779       -8.936       19.543       16.840       14.152      381.940      283.576      200.278        0.505        0.043       95.692        3.760        0.002      328.200       -5.847      868.284
12/17/2021  08:05:00      -85.241       22.863      -11.591       26.637       18.017       15.358      709.545      324.598      235.876        0.460        0.064       88.254       14.698        0.028      328.276       -5.724      868.286
12/17/2021  08:06:00      -74.225       34.867       -5.777       25.811       17.000       14.535      666.193      289.003      211.265        0.396        0.058       82.007        9.093        0.012      328.236       -5.788      868.285
12/17/2021  08:07:00      -66.625       18.818       -4.441       23.269       18.650       16.531      541.458      347.839      273.265        0.299        0.058       69.231       12.482        0.033      328.282       -5.713      868.285
12/17/2021  08:08:00      -61.953        9.301      -11.956       23.081       25.029       14.757      532.738      626.428      217.765        0.272        0.069       62.648       12.037        0.037      328.404       -5.515      868.285
12/17/2021  08:09:00       -5.017      -11.467       -1.767       18.007       21.170       13.283      324.244      448.179      176.428        0.055        0.047       12.517        8.416        0.452      328.659       -5.098      868.289
12/17/2021  08:10:00      -23.031        7.341       -5.841       20.893       17.213       12.310      436.500      296.299      151.535        0.075        0.044       24.172        9.633        0.159      328.530       -5.308      868.307
12/17/2021  08:11:00      -15.579      -17.054       -9.557       28.872       23.235       14.408      833.590      539.856      207.583        0.110        0.079       23.099        9.431        0.167      328.527       -5.314      868.320
12/17/2021  08:12:00      -21.747       15.987       -9.064       30.755       23.435       12.663      945.861      549.202      160.364        0.123        0.083       26.991       11.750        0.190      328.533       -5.303      868.328
12/17/2021  08:13:00      -44.652        3.852       -1.981       38.688       21.486       19.049     1496.751      461.630      362.862        0.217        0.116       44.818        5.975        0.018      328.408       -5.509      868.336
12/17/2021  08:14:00      -50.320        7.154       -7.413       48.110       33.334       16.237     2314.574     1111.188      263.647        0.316        0.184       50.826       15.828        0.097      328.555       -5.269      868.342
12/17/2021  08:15:00      -61.263       13.734       -7.663       45.096       15.410       13.211     2033.676      237.470      174.527        0.322        0.122       62.783       17.976        0.082      328.488       -5.378      868.358
12/17/2021  08:16:00      -58.124        6.293       -8.133       20.844       33.728       15.697      434.459     1137.555      246.396        0.265        0.091       58.464       13.167        0.051      328.459       -5.424      868.377
12/17/2021  08:17:00      -89.478        2.385       -8.198       42.342       25.532       21.244     1792.810      651.871      451.327        0.549        0.145       89.510       21.750        0.059      328.402       -5.518      868.384
12/17/2021  08:18:00      -68.085        9.903       -2.016       46.239       35.701       23.700     2138.056     1274.579      561.679        0.436        0.199       68.801       21.139        0.094      328.501       -5.358      868.383
12/17/2021  08:19:00     -104.052       -5.707      -18.779       41.452       26.331       20.992     1718.298      693.305      440.645        0.703        0.143      104.209       19.114        0.034      328.441       -5.454      868.381
12/17/2021  08:20:00      -73.510      -19.176      -12.036       35.743       26.945       28.561     1277.567      726.029      815.713        0.437        0.141       75.970       23.243        0.094      328.597       -5.200      868.385
12/17/2021  08:21:00      -51.131      -15.347      -16.807       30.122       21.006       22.129      907.320      441.237      489.675        0.248        0.092       53.385       14.964        0.079      328.444       -5.449      868.389
12/17/2021  08:22:00      -51.182       20.054      -14.458       24.313       20.518       15.871      591.110      420.984      251.902        0.225        0.063       54.970        9.272        0.028      328.472       -5.403      868.407
12/17/2021  08:23:00      -47.743        0.686      -14.814       18.071       13.126       17.579      326.553      172.294      309.006        0.165        0.040       47.748       11.814        0.061      328.498       -5.362      868.424
12/17/2021  08:24:00      -19.187       15.612       -5.726       16.849       17.956       14.367      283.887      322.410      206.417        0.073        0.041       24.736        4.918        0.040      328.699       -5.034      868.452
12/17/2021  08:25:00      -18.737        5.741       -4.488       18.982       25.145       14.535      360.328      632.256      211.253        0.080        0.060       19.596       10.350        0.279      328.698       -5.036      868.483
12/17/2021  08:26:00      -38.365       19.567      -16.515       28.463       26.267       16.117      810.138      689.949      259.752        0.194        0.088       43.067        6.748        0.025      328.698       -5.036      868.513
12/17/2021  08:27:00      -33.623       -2.486       -5.885       25.718       24.236       18.267      661.418      587.379      333.675        0.138        0.079       33.714       15.977        0.225      328.711       -5.014      868.534
12/17/2021  08:28:00      -52.562       -9.003      -13.430       28.501       27.820       19.324      812.280      773.949      373.411        0.249        0.098       53.327       14.873        0.078      328.707       -5.022      868.541
12/17/2021  08:29:00      -80.855       17.713        0.034       53.196       35.471       21.609     2829.831     1258.178      466.966        0.570        0.228       82.773       20.929        0.064      328.675       -5.073      868.548
12/17/2021  08:30:00     -105.559        7.601      -16.162       24.047       36.292       20.681      578.261     1317.089      427.687        0.689        0.116      105.833       15.180        0.021      328.627       -5.150      868.553
12/17/2021  08:31:00     -121.673       23.653      -22.093       36.947       29.656       16.114     1365.045      879.455      259.675        0.918        0.125      123.951       11.617        0.009      328.647       -5.119      868.560
12/17/2021  08:32:00     -104.445       16.338       -9.058       42.765       35.127       26.960     1828.883     1233.901      726.815        0.752        0.189      105.715       23.146        0.048      328.731       -4.983      868.570
12/17/2021  08:33:00      -95.750       -2.940      -10.775       51.375       26.547       29.533     2639.398      704.750      872.210        0.675        0.211       95.795       26.444        0.076      328.769       -4.919      868.569
12/17/2021  08:34:00      -59.044       20.135       -4.315       56.112       32.640       25.995     3148.509     1065.346      675.732        0.440        0.244       62.382       24.362        0.153      328.861       -4.769      868.566
12/17/2021  08:35:00      -71.584      -10.926       -5.543       56.596       33.839       22.303     3203.151     1145.099      497.427        0.506        0.242       72.413       20.880        0.083      328.919       -4.675      868.568
12/17/2021  08:36:00      -63.527       -4.611      -12.486       45.231       23.051       22.836     2045.863      531.326      521.505        0.366        0.155       63.694       14.517        0.052      328.918       -4.675      868.575
12/17/2021  08:37:00      -56.502      -30.246       -8.453       54.178       31.173       24.221     2935.226      971.778      586.641        0.434        0.225       64.088       22.971        0.128      329.041       -4.476      868.580
12/17/2021  08:38:00      -81.345      -21.347      -18.387       56.142       30.389       29.186     3151.956      923.471      851.839        0.617        0.246       84.099       31.542        0.141      329.016       -4.517      868.590
12/17/2021  08:39:00      -90.430       -0.837       -7.823       50.402       31.965       23.587     2540.385     1021.750      556.332        0.618        0.206       90.434       23.026        0.065      328.978       -4.577      868.596
12/17/2021  08:40:00     -102.751       -2.862      -11.702       41.366       25.652       20.073     1711.167      658.009      402.907        0.674        0.139      102.791       17.016        0.027      328.895       -4.712      868.609
12/17/2021  08:41:00      -26.275        3.324       -3.663       50.271       24.370       23.551     2527.128      593.918      554.667        0.219        0.184       26.484       25.476        0.925      329.092       -4.391      868.609
12/17/2021  08:42:00      -42.745      -16.996       -6.333       27.606       24.632       19.006      762.118      606.712      361.238        0.194        0.087       46.000       16.599        0.130      329.042       -4.475      868.608
12/17/2021  08:43:00        3.907       -3.883       -6.665       24.039       22.708       17.902      577.894      515.638      320.465        0.074        0.071        5.509       13.229        5.767      329.172       -4.263      868.604
12/17/2021  08:44:00      -38.689      -24.691      -16.899       28.577       20.611       16.063      816.624      424.828      258.020        0.195        0.075       45.896       12.655        0.076      329.106       -4.368      868.604
12/17/2021  08:45:00      -35.628       -9.347      -12.657       25.878       23.426       12.981      669.651      548.775      168.499        0.145        0.069       36.833       11.822        0.103      329.114       -4.355      868.609
12/17/2021  08:46:00      -36.336       -8.855       -0.871       32.638       26.335       24.180     1065.218      693.522      584.660        0.187        0.117       37.400       21.455        0.329      329.261       -4.117      868.608
12/17/2021  08:47:00      -59.778        0.169       -2.152       47.560       32.130       23.141     2261.976     1032.309      535.494        0.370        0.191       59.779       23.090        0.149      329.237       -4.155      868.616
12/17/2021  08:48:00      -45.737      -22.989       -9.171       33.277       13.912       19.750     1107.385      193.536      390.070        0.220        0.085       51.190       13.474        0.069      329.124       -4.340      868.625
12/17/2021  08:49:00      -54.562      -36.947      -13.468       21.916       16.857       11.767      480.307      284.147      138.456        0.271        0.045       65.895        9.245        0.020      329.105       -4.369      868.633
12/17/2021  08:50:00      -68.697      -17.304      -11.900       35.939       20.936       16.717     1291.612      438.334      279.464        0.358        0.100       70.842       16.801        0.056      329.159       -4.282      868.633
12/17/2021  08:51:00      -39.405      -25.460       -6.499       29.514       20.274       20.240      871.066      411.044      409.638        0.197        0.085       46.914       14.791        0.099      329.354       -3.964      868.629
12/17/2021  08:52:00      -15.121        4.623        0.132       22.585       19.745       15.078      510.065      389.866      227.333        0.069        0.056       15.812        8.075        0.261      329.487       -3.747      868.632
12/17/2021  08:53:00       -1.572       28.313       -6.940       17.644       14.822       10.111      311.303      219.699      102.228        0.074        0.032       28.356        7.334        0.067      329.209       -4.201      868.628
12/17/2021  08:54:00      -25.345        7.766       -9.208       36.767       37.509       20.956     1351.781     1406.901      439.173        0.199        0.160       26.508        7.786        0.086      329.416       -3.863      868.632
12/17/2021  08:55:00      -71.000       46.749      -15.171       35.274       30.092       22.244     1244.233      905.507      494.795        0.505        0.132       85.009       17.079        0.040      329.178       -4.252      868.647
12/17/2021  08:56:00      -46.937        2.732      -10.337       11.850       20.920       13.117      140.423      437.629      172.054        0.153        0.038       47.016       10.631        0.051      329.175       -4.258      868.642
12/17/2021  08:57:00      -29.857       -8.000       -3.486       18.383       11.059       16.099      337.927      122.294      259.166        0.084        0.036       30.910        9.058        0.086      329.440       -3.822      868.633
12/17/2021  08:58:00      -35.474        1.760       -4.209       33.114       22.393       15.397     1096.512      501.446      237.078        0.156        0.092       35.518        6.472        0.033      329.464       -3.783      868.627
12/17/2021  08:59:00      -27.694        0.032       -7.377       30.940       15.222       14.822      957.283      231.701      219.694        0.111        0.070       27.694       15.017        0.294      329.504       -3.720      868.626
12/17/2021  09:00:00      -12.698       -4.721       -3.341       31.335       20.423       19.252      981.905      417.081      370.632        0.098        0.088       13.547       19.333        2.037      329.534       -3.669      868.630
12/17/2021  09:01:00      -85.061      -31.078       -8.264       49.697       29.804       28.473     2469.796      888.308      810.701        0.622        0.208       90.560       20.234        0.050      329.397       -3.894      868.639
12/17/2021  09:02:00      -88.769      -22.776      -21.629       24.461       28.520       22.039      598.333      813.388      485.701        0.538        0.095       91.644       12.458        0.018      329.502       -3.723      868.650
12/17/2021  09:03:00      -61.864      -47.723       -7.530       44.708       34.637       25.564     1998.761     1199.695      653.528        0.501        0.193       78.133       17.063        0.048      329.557       -3.632      868.661
12/17/2021  09:04:00      -88.404      -73.162      -11.703       38.770       50.079       23.923     1503.148     2507.946      572.303        0.894        0.229      114.752       21.489        0.035      329.504       -3.720      868.681
12/17/2021  09:05:00      -67.551      -59.327      -27.976       48.012       32.765       16.414     2305.176     1073.547      269.414        0.626        0.182       89.904       12.267        0.019      329.534       -3.670      868.695
12/17/2021  09:06:00      -91.129      -93.056      -23.294       47.932       33.993       19.491     2297.500     1155.557      379.888        1.067        0.192      130.245       12.681        0.009      329.514       -3.703      868.707
12/17/2021  09:07:00      -77.087      -21.815        5.119       56.714       64.001       34.527     3216.520     4096.167     1192.142        0.747        0.425       80.115       24.093        0.090      329.615       -3.537      868.727
12/17/2021  09:08:00      -46.672      -39.893       -4.508       45.491       46.723       40.936     2069.401     2182.999     1675.717        0.486        0.296       61.398       29.948        0.238      329.692       -3.410      868.732
12/17/2021  09:09:00      -61.441      -34.875      -20.179       30.071       48.926       25.672      904.255     2393.801      659.050        0.468        0.198       70.649       24.522        0.120      329.656       -3.469      868.749
12/17/2021  09:10:00      -17.555       -6.613        1.606       28.756       34.847       20.027      826.880     1214.293      401.089        0.140        0.122       18.759       13.663        0.530      329.807       -3.224      868.767
12/17/2021  09:11:00      -41.152        9.274        1.880       38.042       37.113       22.038     1447.212     1377.350      485.662        0.255        0.166       42.184       13.952        0.109      329.872       -3.117      868.791
12/17/2021  09:12:00       -6.048       -6.432      -10.765       29.805       45.070       27.907      888.322     2031.342      778.786        0.195        0.185        8.829       15.664        3.148      329.845       -3.161      868.798
12/17/2021  09:13:00      -57.438      -18.316        2.906       37.650       25.041       20.005     1417.506      627.048      400.191        0.304        0.122       60.287       11.412        0.036      329.784       -3.262      868.813
12/17/2021  09:14:00      -35.973      -58.142      -34.462       60.773       48.550       29.826     3693.335     2357.092      889.567        0.640        0.347       68.371       20.856        0.093      330.055       -2.816      868.828
12/17/2021  09:15:00       48.105      -76.073      -36.766       63.612       57.155       41.798     4046.470     3266.638     1747.087        0.925        0.453       90.007       43.277        0.231      330.018       -2.878      868.850
12/17/2021  09:16:00     -116.640      -35.266      -32.031       51.709       39.565       37.906     2673.854     1565.422     1436.884        1.077        0.284      121.855       15.203        0.016      329.866       -3.127      868.866
12/17/2021  09:17:00      -42.269       -4.170      -13.513       31.698       34.686       26.563     1004.783     1203.126      705.585        0.245        0.146       42.474        8.403        0.039      329.906       -3.060      868.883
12/17/2021  09:18:00        2.473      -75.008      -12.856       41.999       53.163       32.635     1763.884     2826.259     1065.060        0.573        0.283       75.049       28.026        0.139      330.055       -2.817      868.902
12/17/2021  09:19:00       24.506      -80.848      -30.132       53.902       42.085       28.597     2905.450     1771.178      817.785        0.677        0.275       84.480       15.327        0.033      330.151       -2.660      868.909
12/17/2021  09:20:00        2.726      -95.536      -18.016       71.873       61.807       44.712     5165.673     3820.153     1999.148        1.022        0.549       95.575       41.484        0.188      330.026       -2.865      868.918
12/17/2021  09:21:00      -55.139      -44.794       -4.590       63.639       53.891       39.545     4049.924     2904.280     1563.843        0.679        0.426       71.041       12.740        0.032      330.061       -2.807      868.929
12/17/2021  09:22:00      -50.529      -59.758      -11.588       62.043       47.184       34.376     3849.286     2226.306     1181.725        0.676        0.363       78.257       32.843        0.176      330.147       -2.667      868.932
12/17/2021  09:23:00       40.121      -84.759      -17.224       43.674       48.344       38.699     1907.455     2337.141     1497.650        0.742        0.287       93.775       19.881        0.045      330.030       -2.858      868.941
12/17/2021  09:24:00      -53.366      -47.409        1.954       51.350       55.855       33.359     2636.829     3119.793     1112.832        0.598        0.343       71.383       20.418        0.082      330.170       -2.629      868.952
12/17/2021  09:25:00      -54.118      -11.929      -11.005       41.983       33.243       27.744     1762.548     1105.069      769.729        0.341        0.182       55.417       21.426        0.149      330.089       -2.761      868.978
12/17/2021  09:26:00      -31.584      -30.397       -5.574       40.775       40.706       26.023     1662.627     1656.958      677.179        0.297        0.200       43.835       20.729        0.224      330.234       -2.523      868.997
12/17/2021  09:27:00      -16.481       -0.409      -10.931       35.151       30.071       23.576     1235.611      904.254      555.838        0.154        0.135       16.486       17.520        1.129      330.115       -2.719      869.017
12/17/2021  09:28:00      -28.489      -24.319      -32.092       62.645       30.153       21.284     3924.411      909.186      452.990        0.386        0.264       37.457       14.873        0.158      330.086       -2.766      869.042
12/17/2021  09:29:00      -63.566      -29.403      -16.898       44.642       37.662       36.544     1992.932     1418.423     1335.447        0.497        0.237       70.037       20.353        0.084      330.023       -2.870      869.060
12/17/2021  09:30:00     -135.936       -4.042      -11.629       59.233       50.761       35.001     3508.527     2576.655     1225.075        1.297        0.366      135.996       24.485        0.032      329.872       -3.118      869.089
12/17/2021  09:31:00      -75.618       18.158      -24.266       48.600       39.056       25.321     2361.916     1525.385      641.139        0.558        0.226       77.767       14.638        0.035      329.747       -3.321      869.107
12/17/2021  09:32:00      -36.778      -30.218      -11.864       39.817       35.907       21.925     1585.410     1289.346      480.717        0.288        0.168       47.600       11.946        0.063      330.065       -2.800      869.125
12/17/2021  09:33:00      -60.224       19.987        0.720       46.272       43.204       29.164     2141.074     1866.566      850.554        0.444        0.243       63.454       13.351        0.044      330.122       -2.708      869.145
12/17/2021  09:34:00      -91.093        8.264      -12.165       61.008       47.794       36.593     3721.922     2284.262     1339.074        0.793        0.367       91.467       27.479        0.090      330.053       -2.821      869.160
12/17/2021  09:35:00      -51.181       31.896        1.506       67.107       41.021       30.030     4503.342     1682.691      901.796        0.536        0.354       60.306       24.810        0.169      330.113       -2.721      869.164
12/17/2021  09:36:00      -48.124      -15.387      -17.687       33.529       31.263       31.137     1124.207      977.403      969.510        0.297        0.154       50.524       18.348        0.132      330.142       -2.674      869.166
12/17/2021  09:37:00     -115.869      -18.715      -19.773       41.314       46.491       32.840     1706.887     2161.392     1078.450        0.956        0.247      117.371       10.590        0.008      330.033       -2.852      869.174
12/17/2021  09:38:00      -89.827      -39.642       -6.124       56.408       42.984       35.542     3181.915     1847.599     1263.235        0.798        0.315       98.186       30.544        0.097      330.097       -2.747      869.176
12/17/2021  09:39:00      -50.510      -16.406      -12.689       52.795       45.935       31.722     2787.272     2110.057     1006.265        0.444        0.295       53.107       28.002        0.278      330.009       -2.892      869.181
12/17/2021  09:40:00     -187.557       -9.829      -19.444       53.456       37.497       35.541     2857.522     1406.044     1263.135        2.059        0.276      187.814       19.636        0.011      329.815       -3.211      869.187
12/17/2021  09:41:00      -94.686      -48.668      -11.213       49.768       47.609       29.482     2476.853     2266.572      869.177        0.854        0.281      106.461       25.722        0.058      329.889       -3.090      869.195
12/17/2021  09:42:00      -52.238      -15.252      -12.241       33.853       61.681       22.111     1146.057     3804.488      488.914        0.427        0.272       54.419       14.245        0.069      329.873       -3.116      869.200
12/17/2021  09:43:00      -79.763      -13.149      -10.399       37.264       57.385       25.522     1388.586     3292.981      651.350        0.599        0.267       80.839       20.534        0.065      329.972       -2.954      869.205
12/17/2021  09:44:00      -87.753      -76.255      -21.724       28.511       46.058       26.025      812.895     2121.325      677.293        0.880        0.181      116.256       17.858        0.024      329.916       -3.044      869.205
12/17/2021  09:45:00      -75.851      -35.524       -2.089       50.243       60.771       26.155     2524.353     3693.108      684.101        0.696        0.345       83.757       17.445        0.043      330.119       -2.713      869.209
12/17/2021  09:46:00      -62.867      -18.683       -6.409       92.525       51.866       38.871     8560.837     2690.120     1510.992        0.855        0.638       65.585       28.418        0.188      330.202       -2.576      869.220
12/17/2021  09:47:00      -54.806      -14.092       -2.629       74.776       52.182       29.528     5591.406     2722.969      871.887        0.620        0.459       56.589       18.038        0.102      330.253       -2.493      869.233
12/17/2021  09:48:00      -93.368        6.945        2.568       57.122       41.140       33.737     3262.971     1692.483     1138.196        0.743        0.305       93.626       26.378        0.079      330.271       -2.464      869.252
12/17/2021  09:49:00      -37.241      -41.974      -10.077       50.978       57.640       39.333     2598.758     3322.313     1547.113        0.536        0.373       56.113       19.269        0.118      330.345       -2.342      869.268
12/17/2021  09:50:00      -54.531      -14.475        5.382       46.229       57.927       30.792     2137.093     3355.483      948.122        0.483        0.322       56.419       29.622        0.276      330.148       -2.665      869.287
12/17/2021  09:51:00      -94.596       -9.762      -10.394       72.463       53.790       38.120     5250.911     2893.386     1453.103        0.937        0.480       95.098       20.708        0.047      330.135       -2.686      869.298
12/17/2021  09:52:00     -181.797        0.336      -19.157       80.800       48.824       43.068     6528.606     2383.807     1854.882        2.209        0.538      181.797       36.011        0.039      330.013       -2.888      869.309
12/17/2021  09:53:00     -138.084       -8.826       -2.528       74.683       62.734       47.999     5577.532     3935.549     2303.897        1.548        0.591      138.366       38.516        0.077      330.077       -2.783      869.312
12/17/2021  09:54:00     -142.710       15.391       -7.190       78.686       41.954       36.566     6191.417     1760.120     1337.099        1.497        0.464      143.537       39.419        0.075      330.053       -2.821      869.308
12/17/2021  09:55:00      -72.828       -3.539       -1.697       77.267       36.071       30.304     5970.114     1301.117      918.340        0.675        0.409       72.914       14.308        0.039      330.274       -2.458      869.310
12/17/2021  09:56:00      -95.296     -111.708      -10.662       49.126       61.890       37.459     2413.327     3830.419     1403.200        1.466        0.382      146.833       38.867        0.070      330.041       -2.841      869.315
12/17/2021  09:57:00      -66.777       -2.058      -12.844       52.996       43.751       25.798     2808.556     1914.182      665.542        0.501        0.269       66.808       30.369        0.207      330.123       -2.705      869.327
12/17/2021  09:58:00      -60.719      -42.164       -5.825       50.486       48.103       28.627     2548.830     2313.856      819.528        0.559        0.284       73.923       27.826        0.142      330.216       -2.553      869.324
12/17/2021  09:59:00      -98.577      -65.301      -14.761       70.207       91.050       41.945     4929.019     8290.130     1759.350        1.459        0.749      118.244       46.215        0.153      330.188       -2.600      869.321
12/17/2021  10:00:00     -124.787      -15.281      -28.656       79.620       38.284       36.998     6339.355     1465.688     1368.847        1.290        0.459      125.719       17.855        0.020      330.139       -2.681      869.322
12/17/2021  10:01:00      -84.464       11.061        4.675       80.834       34.465       27.166     6534.171     1187.824      738.013        0.787        0.423       85.185       34.789        0.167      330.133       -2.689      869.310
12/17/2021  10:02:00      -28.868       -1.300      -12.335       41.832       35.356       15.998     1749.938     1250.031      255.935        0.212        0.163       28.898       12.003        0.173      330.187       -2.601      869.293
12/17/2021  10:03:00     -154.210      -36.149      -14.194       64.965       39.334       35.950     4220.496     1547.153     1292.392        1.617        0.353      158.390       21.639        0.019      330.159       -2.646      869.287
12/17/2021  10:04:00      -68.370       -3.308      -16.859       66.675       31.642       23.436     4445.520     1001.247      549.262        0.548        0.300       68.450       12.785        0.035      330.182       -2.608      869.272
12/17/2021  10:05:00      -88.399      -38.226      -15.004       40.038       30.089       19.247     1603.015      905.346      370.459        0.619        0.144       96.311       18.342        0.036      330.193       -2.592      869.259
12/17/2021  10:06:00     -162.104      -46.349      -19.473       41.076       58.677       32.560     1687.222     3443.027     1060.129        1.750        0.310      168.600       25.528        0.023      330.172       -2.628      869.241
12/17/2021  10:07:00      -97.320      -89.633      -25.751       59.644       95.529       43.949     3557.412     9125.830     1931.474        1.639        0.731      132.308       34.802        0.069      330.307       -2.405      869.234
12/17/2021  10:08:00     -138.940      -13.949        0.932       77.585       58.675       41.255     6019.390     3442.797     1701.976        1.533        0.558      139.639       46.638        0.112      330.134       -2.689      869.241
12/17/2021  10:09:00      -68.664        1.397       -5.194       49.000       42.323       30.996     2401.015     1791.202      960.729        0.495        0.258       68.678       18.336        0.071      330.265       -2.473      869.234
12/17/2021  10:10:00      -85.855      -63.272      -26.261       61.050       61.355       43.324     3727.046     3764.405     1876.998        1.071        0.468      106.651       21.786        0.042      330.380       -2.284      869.235
12/17/2021  10:11:00     -119.303     -106.913      -11.948       62.033       82.076       42.288     3848.134     6736.476     1788.291        1.909        0.619      160.199       35.329        0.049      330.284       -2.442      869.240
12/17/2021  10:12:00      -55.104      -31.784       -1.005       65.638       65.221       36.223     4308.376     4253.717     1312.128        0.696        0.494       63.614       33.717        0.281      330.383       -2.279      869.262
12/17/2021  10:13:00     -133.770     -109.312      -12.724       64.854       79.735       39.918     4206.001     6357.727     1593.457        2.108        0.608      172.753       32.908        0.036      330.199       -2.584      869.257
12/17/2021  10:14:00     -119.648      -35.526      -12.899       71.631       53.787       33.192     5130.946     2893.003     1101.687        1.243        0.456      124.810       32.026        0.066      330.281       -2.448      869.257
12/17/2021  10:15:00     -166.934      -28.270      -22.575       65.988       57.906       42.766     4354.428     3353.154     1828.909        1.935        0.477      169.311       26.525        0.025      330.231       -2.529      869.251
12/17/2021  10:16:00     -134.687       -8.827       -7.388       84.122       65.011       43.323     7076.444     4226.440     1876.912        1.572        0.659      134.976       45.758        0.115      330.415       -2.226      869.238
12/17/2021  10:17:00     -105.133      -60.474      -21.818       71.237       81.878       33.934     5074.726     6703.981     1151.528        1.406        0.647      121.285       36.439        0.090      330.261       -2.481      869.236
12/17/2021  10:18:00      -26.877      -40.586       -3.030       50.583       57.464       33.563     2558.662     3302.109     1126.445        0.468        0.349       48.679       23.626        0.236      330.485       -2.112      869.225
12/17/2021  10:19:00     -121.390        2.604       -4.449       66.482       46.000       36.889     4419.830     2115.956     1360.832        1.133        0.395      121.418       38.477        0.100      330.410       -2.235      869.212
12/17/2021  10:20:00      -19.615        7.953       -2.067       41.152       18.291       33.067     1693.471      334.556     1093.445        0.179        0.156       21.166       20.221        0.913      330.653       -1.835      869.200
12/17/2021  10:21:00      -44.589       28.288      -10.948       53.120       44.256       24.276     2821.713     1958.629      589.316        0.414        0.268       52.806       21.966        0.173      330.601       -1.922      869.186
12/17/2021  10:22:00      -67.813      -30.702      -22.636       48.176       54.212       28.539     2320.922     2938.969      814.486        0.606        0.304       74.439       22.928        0.095      330.585       -1.949      869.165
12/17/2021  10:23:00     -138.080     -108.480      -29.089       58.628       77.074       41.877     3437.252     5940.381     1753.667        2.140        0.557      175.597       29.419        0.028      330.453       -2.167      869.147
12/17/2021  10:24:00     -124.067      -33.058      -14.029       66.764       62.617       46.467     4457.495     3920.902     2159.173        1.361        0.527      128.395       23.434        0.033      330.467       -2.142      869.129
12/17/2021  10:25:00     -116.242      -81.163      -16.997       45.659       59.697       33.083     2084.758     3563.720     1094.494        1.356        0.337      141.773       14.219        0.010      330.327       -2.371      869.126
12/17/2021  10:26:00     -108.986        5.191      -20.283       86.474       43.136       26.245     7477.748     1860.687      688.783        1.117        0.501      109.110       17.573        0.026      330.517       -2.061      869.110
12/17/2021  10:27:00      -79.305      -24.277      -12.593       40.984       33.425       26.828     1679.660     1117.234      719.717        0.528        0.176       82.938       15.570        0.035      330.730       -1.711      869.092
12/17/2021  10:28:00      -68.577      -42.047      -14.809       52.471       53.830       36.619     2753.254     2897.661     1340.953        0.684        0.350       80.441       29.713        0.136      330.808       -1.581      869.077
12/17/2021  10:29:00      -15.025       31.913       -4.668       41.403       26.019       28.815     1714.215      676.995      830.283        0.224        0.161       35.273       22.185        0.396      330.661       -1.822      869.062
12/17/2021  10:30:00      -45.559      -23.857      -24.062       32.651       57.772       22.343     1066.114     3337.620      499.226        0.406        0.245       51.427       15.002        0.085      330.560       -1.990      869.060
12/17/2021  10:31:00      -15.376      -52.109      -31.402       62.609       56.291       42.308     3919.828     3168.728     1789.957        0.641        0.444       54.330       26.642        0.240      330.721       -1.724      869.065
12/17/2021  10:32:00      -56.273      -27.657       -6.125       49.260       44.503       39.182     2426.527     1980.521     1535.222        0.495        0.297       62.702       25.744        0.169      330.781       -1.626      869.054
12/17/2021  10:33:00      -75.758        7.132       -9.530       54.710       26.098       21.522     2993.152      681.116      463.203        0.501        0.207       76.093       20.917        0.076      330.614       -1.900      869.048
12/17/2021  10:34:00      -92.911      -91.006       -4.055       64.155       56.542       38.289     4115.891     3197.022     1466.044        1.285        0.439      130.055       23.453        0.033      330.679       -1.794      869.040
12/17/2021  10:35:00     -115.753      -50.028        1.622       81.626       74.466       42.193     6662.843     5545.129     1780.209        1.494        0.699      126.101       43.601        0.120      330.627       -1.881      869.028
12/17/2021  10:36:00      -93.053      -17.196        0.480       69.713       65.407       44.312     4859.922     4278.106     1963.590        1.003        0.555       94.629       26.884        0.081      330.807       -1.583      869.018
12/17/2021  10:37:00      -34.585      -12.845       -9.373       62.530       50.976       33.410     3910.059     2598.583     1116.215        0.454        0.381       36.894       27.947        0.574      330.811       -1.577      868.998
12/17/2021  10:38:00      -35.217      -30.829       -3.449       46.871       49.065       41.386     2196.910     2407.336     1712.779        0.426        0.316       46.805       30.376        0.421      330.965       -1.325      868.989
12/17/2021  10:39:00     -126.445        0.832       -2.787       94.807       47.483       30.487     8988.344     2254.600      929.462        1.408        0.609      126.447       37.344        0.087      330.665       -1.818      868.983
12/17/2021  10:40:00     -149.916      -89.414      -19.555       58.755       48.738       29.863     3452.107     2375.409      891.771        1.878        0.336      174.556       25.253        0.021      330.504       -2.082      868.970
12/17/2021  10:41:00      -98.258      -81.372      -20.440       55.242       48.993       24.133     3051.657     2400.317      582.424        1.136        0.302      127.577       23.805        0.035      330.473       -2.133      868.961
12/17/2021  10:42:00     -101.777      -75.782      -19.203       37.614       47.312       26.282     1414.839     2238.415      690.769        1.041        0.217      126.892       22.135        0.030      330.586       -1.947      868.954
12/17/2021  10:43:00     -104.110      -40.670      -20.388       27.810       47.387       28.558      773.403     2245.574      815.586        0.837        0.192      111.772       20.193        0.033      330.556       -1.995      868.948
12/17/2021  10:44:00      -34.973      -26.084      -13.686       20.891       25.772       17.871      436.442      664.200      319.376        0.176        0.071       43.629       17.457        0.160      330.685       -1.783      868.939
12/17/2021  10:45:00      -41.297       18.025       -4.063       32.132       22.241       22.360     1032.457      494.663      499.989        0.204        0.101       45.059       16.394        0.132      330.848       -1.515      868.923
12/17/2021  10:46:00      -28.909       27.287      -14.265       27.434       36.247       15.342      752.601     1313.810      235.365        0.204        0.115       39.753        6.942        0.030      330.734       -1.704      868.915
12/17/2021  10:47:00      -26.258       -1.866        3.519       33.426       24.366       24.345     1117.271      593.693      592.695        0.150        0.115       26.324       17.454        0.440      331.322       -0.738      868.923
12/17/2021  10:48:00       13.918      -61.574      -27.715       77.262       74.685       40.560     5969.386     5577.854     1645.101        0.897        0.660       63.128       34.991        0.307      331.151       -1.018      868.922
12/17/2021  10:49:00       14.887      -30.493       -4.630       66.459       38.072       34.840     4416.738     1449.462     1213.849        0.413        0.354       33.933       33.496        0.974      331.151       -1.020      868.923
12/17/2021  10:50:00       99.944     -122.450      -44.758       32.533       34.460       21.904     1058.380     1187.465      479.776        1.486        0.136      158.060       12.106        0.006      330.872       -1.477      868.918
12/17/2021  10:51:00      -10.833      -46.024      -25.393       72.727       62.116       32.169     5289.183     3858.340     1034.832        0.653        0.509       47.282       36.688        0.602      331.238       -0.876      868.914
12/17/2021  10:52:00      -19.354        3.946       -5.201       24.054       18.217       13.955      578.607      331.852      194.732        0.076        0.055       19.752        9.691        0.241      331.307       -0.763      868.907
12/17/2021  10:53:00       61.775      -64.983      -23.247       71.943       63.424       30.995     5175.799     4022.659      960.705        0.937        0.508       89.660       39.573        0.195      331.134       -1.045      868.909
12/17/2021  10:54:00       -0.987      -54.879      -27.996       71.062       58.489       32.535     5049.811     3420.983     1058.498        0.666        0.476       54.888       24.912        0.206      331.176       -0.977      868.911
12/17/2021  10:55:00      -13.053      -39.171      -27.241       66.650       28.677       24.449     4442.233      822.379      597.735        0.415        0.293       41.288       17.579        0.181      331.197       -0.942      868.915
12/17/2021  10:56:00      -34.617      -47.463       -9.657       56.954       46.209       35.281     3243.804     2135.302     1244.764        0.508        0.331       58.746       29.337        0.249      331.201       -0.936      868.912
12/17/2021  10:57:00      -51.206      -35.984      -22.695       46.279       56.344       31.788     2141.705     3174.627     1010.447        0.538        0.316       62.585       26.541        0.180      331.178       -0.975      868.908
12/17/2021  10:58:00      -56.957       19.457        0.536       60.216       30.295       19.498     3625.989      917.782      380.191        0.427        0.246       60.189       19.867        0.109      331.091       -1.118      868.899
12/17/2021  10:59:00      -34.398       42.927       -2.817       43.638       25.729       19.958     1904.240      661.961      398.327        0.300        0.148       55.009       15.100        0.075      330.821       -1.560      868.891
12/17/2021  11:00:00      -22.260       43.376       -8.660       26.209       20.461       20.999      686.913      418.641      440.947        0.200        0.077       48.755       12.200        0.063      331.182       -0.966      868.883
12/17/2021  11:01:00       37.874     -106.361      -30.029       82.087       81.930       28.240     6738.339     6712.479      797.493        1.395        0.712      112.903       30.358        0.072      330.902       -1.429      868.861
12/17/2021  11:02:00      119.905      -96.307      -40.550       25.824       36.336       26.098      666.887     1320.299      681.129        1.398        0.133      153.792       21.280        0.019      330.804       -1.588      868.855
12/17/2021  11:03:00       89.659      -79.919      -35.658       39.263       47.443       25.313     1541.548     2250.837      640.732        1.006        0.222      120.107       17.367        0.021      330.946       -1.355      868.840
12/17/2021  11:04:00      106.243     -115.167      -48.766       28.985       39.438       20.798      840.114     1555.341      432.567        1.488        0.141      156.688       17.716        0.013      330.897       -1.438      868.832
12/17/2021  11:05:00       98.546      -97.000      -50.924       23.803       31.475       21.832      566.592      990.650      476.634        1.187        0.102      138.277       13.457        0.009      331.012       -1.247      868.818
12/17/2021  11:06:00       89.513      -33.657      -33.236       31.462       44.705       30.025      989.861     1998.537      901.505        0.707        0.194       95.632       23.412        0.060      331.266       -0.828      868.811
12/17/2021  11:07:00       93.707      -70.982      -41.501       27.302       35.073       25.666      745.394     1230.089      658.756        0.909        0.132      117.556       16.473        0.020      331.004       -1.259      868.802
12/17/2021  11:08:00       58.207      -81.713      -32.828       11.862       22.700       15.899      140.696      515.268      252.779        0.603        0.045      100.325       10.899        0.012      330.773       -1.640      868.787
12/17/2021  11:09:00       39.113      -52.699      -29.469       19.662       20.076       20.707      386.598      403.051      428.764        0.320        0.061       65.628       10.099        0.024      330.989       -1.285      868.782
12/17/2021  11:10:00       -2.838      -64.822      -13.190       22.682       17.327       26.495      514.458      300.217      702.004        0.295        0.076       64.884       15.504        0.057      330.978       -1.302      868.780
12/17/2021  11:11:00      -23.720      -58.746      -23.447       25.146       16.950       22.317      632.332      287.298      498.041        0.299        0.071       63.354        5.455        0.007      330.950       -1.349      868.765
12/17/2021  11:12:00        5.163       30.097        5.009       22.480       35.097       24.829      505.365     1231.812      616.465        0.166        0.118       30.537        9.907        0.105      331.568       -0.334      868.748
12/17/2021  11:13:00       64.045       53.993      -13.935       32.549       23.663       28.365     1059.406      559.947      804.586        0.482        0.121       83.767       27.488        0.108      331.404       -0.602      868.746
12/17/2021  11:14:00       28.218       18.397      -16.214       28.217       30.148       23.133      796.210      908.915      535.155        0.182        0.112       33.685       11.452        0.116      331.510       -0.428      868.731
12/17/2021  11:15:00        4.073       33.853      -12.817       21.637       16.490       14.699      468.152      271.907      216.068        0.114        0.048       34.097        6.944        0.041      331.542       -0.375      868.714
12/17/2021  11:16:00       -4.838       21.030       10.854       11.535       22.802       14.629      133.049      519.915      213.996        0.073        0.043       21.579        9.758        0.204      331.785        0.025      868.700
12/17/2021  11:17:00       -1.560       33.484       -8.540       21.034       20.775       14.284      442.444      431.595      204.027        0.114        0.054       33.520        8.986        0.072      331.576       -0.320      868.697
12/17/2021  11:18:00       15.349        0.117      -10.048       32.337       40.102       29.714     1045.694     1608.174      882.901        0.194        0.177       15.350       12.947        0.711      331.789        0.031      868.700
12/17/2021  11:19:00      108.821       12.886      -23.040       33.473       45.650       29.588     1120.455     2083.877      875.440        0.831        0.204      109.581       11.272        0.011      331.186       -0.961      868.703
12/17/2021  11:20:00       37.232        2.034      -26.632       63.191       73.473       30.496     3993.094     5398.324      930.005        0.621        0.516       37.288       27.391        0.540      331.438       -0.547      868.701
12/17/2021  11:21:00      144.723       44.391      -22.869       99.118       45.148       33.035     9824.471     2038.335     1091.336        1.819        0.648      151.378       19.419        0.016      331.351       -0.692      868.703
12/17/2021  11:22:00      135.476       29.929      -17.885       69.908       56.723       43.402     4887.191     3217.500     1883.764        1.478        0.499      138.743       32.168        0.054      331.556       -0.352      868.708
12/17/2021  11:23:00      201.830       68.323      -22.281       62.265       74.132       34.537     3876.960     5495.627     1192.805        2.823        0.528      213.081       14.025        0.004      331.416       -0.586      868.712
12/17/2021  11:24:00      204.253       33.065      -35.601       49.550       45.241       37.506     2455.199     2046.785     1406.667        2.499        0.295      206.912       11.679        0.003      331.251       -0.855      868.715
12/17/2021  11:25:00      148.461       32.307      -17.218       73.993       48.875       32.420     5475.033     2388.804     1051.086        1.615        0.446      151.936       31.006        0.042      331.288       -0.794      868.722
12/17/2021  11:26:00       99.930       15.368      -28.372       58.986       65.696       34.091     3479.372     4316.030     1162.193        0.999        0.448      101.104       23.306        0.053      331.728       -0.069      868.720
12/17/2021  11:27:00      133.288       43.122      -29.387       53.881       59.416       31.484     2903.188     3530.209      991.216        1.396        0.371      140.090       22.041        0.025      331.437       -0.549      868.718
12/17/2021  11:28:00      112.632       15.010      -17.238       63.422       47.634       33.166     4022.339     2269.034     1099.966        1.030        0.370      113.628       29.563        0.068      331.668       -0.168      868.718
12/17/2021  11:29:00       90.693       23.907      -14.672       58.051       56.111       28.731     3369.920     3148.486      825.473        0.818        0.367       93.791       27.237        0.084      331.477       -0.483      868.722
12/17/2021  11:30:00       36.604      -27.731       -8.441       29.302       40.262       24.173      858.590     1621.018      584.350        0.262        0.153       45.922       17.175        0.140      331.652       -0.194      868.725
12/17/2021  11:31:00       60.066       46.363      -19.091       37.033       20.691       21.648     1371.422      428.112      468.637        0.419        0.113       75.878       14.628        0.037      331.274       -0.815      868.734
12/17/2021  11:32:00       66.637        9.769      -16.558       43.614       48.944       35.803     1902.141     2395.486     1281.885        0.519        0.279       67.349       28.754        0.182      331.520       -0.411      868.732
12/17/2021  11:33:00       82.207      -21.641       -9.373       81.244       46.940       31.468     6600.559     2203.379      990.222        0.855        0.490       85.008       33.468        0.155      331.646       -0.205      868.741
12/17/2021  11:34:00       -1.918       14.625       -6.115       25.629       32.859       22.154      656.849     1079.706      490.793        0.124        0.111       14.751       14.854        1.014      331.608       -0.268      868.738
12/17/2021  11:35:00       -8.015       33.680       -0.373       50.984       49.257       30.152     2599.396     2426.216      909.145        0.357        0.297       34.620       18.358        0.281      331.778        0.012      868.726
12/17/2021  11:36:00       51.547       25.796      -10.226       49.259       53.836       26.130     2426.449     2898.276      682.789        0.472        0.300       57.642       22.017        0.146      331.817        0.077      868.719
12/17/2021  11:37:00       92.114      -60.879      -39.470       54.519       80.095       44.640     2972.282     6415.283     1992.705        1.256        0.569      110.414       26.363        0.057      331.980        0.345      868.702
12/17/2021  11:38:00       60.473      -53.918      -32.129       62.733       82.887       47.547     3935.451     6870.191     2260.702        1.033        0.653       81.019       36.884        0.207      332.169        0.656      868.687
12/17/2021  11:39:00       74.801      -28.499      -18.349       62.315       61.533       49.212     3883.172     3786.274     2421.778        0.842        0.505       80.046       33.217        0.172      332.030        0.427      868.671
12/17/2021  11:40:00       53.247      -18.867      -15.473       38.150       49.335       33.842     1455.445     2433.913     1145.263        0.423        0.252       56.491       23.573        0.174      331.913        0.235      868.660
12/17/2021  11:41:00       54.148      -15.817      -21.494       45.121       74.921       32.120     2035.916     5613.156     1031.671        0.616        0.434       56.410       20.657        0.134      332.231        0.760      868.638
12/17/2021  11:42:00       41.409       18.769      -11.222       57.100       46.945       34.401     3260.456     2203.789     1183.450        0.442        0.332       45.464       31.568        0.482      332.099        0.542      868.633
12/17/2021  11:43:00       39.695      -27.154      -11.110       41.684       73.667       33.884     1737.588     5426.871     1148.154        0.537        0.416       48.094       27.388        0.324      332.136        0.602      868.629
12/17/2021  11:44:00       94.857      -28.745      -20.918       47.425       53.690       29.276     2249.129     2882.631      857.092        0.812        0.299       99.116       25.920        0.068      331.531       -0.394      868.626
12/17/2021  11:45:00       80.280      -11.276      -24.627       47.384       44.560       23.294     2245.277     1985.633      542.630        0.598        0.239       81.068       19.993        0.061      331.845        0.122      868.613
12/17/2021  11:46:00      119.442       81.137      -22.696       58.495       33.895       32.558     3421.613     1148.890     1060.046        1.350        0.282      144.394       18.739        0.017      331.558       -0.349      868.599
12/17/2021  11:47:00      101.831       19.481      -16.598       60.635       65.420       32.786     3676.554     4279.748     1074.900        1.003        0.452      103.678       32.874        0.101      331.693       -0.126      868.579
12/17/2021  11:48:00      111.529       63.010      -35.046       33.162       32.019       21.677     1099.716     1025.199      469.887        1.012        0.130      128.098       11.504        0.008      331.495       -0.453      868.571
12/17/2021  11:49:00       51.216       77.461      -20.640       39.727       50.111       26.026     1578.224     2511.147      677.374        0.691        0.238       92.862       14.303        0.024      331.647       -0.202      868.559
12/17/2021  11:50:00        6.709       28.550        2.638       21.780       29.937       21.279      474.367      896.208      452.805        0.134        0.091       29.328       18.830        0.412      331.974        0.336      868.543
12/17/2021  11:51:00      -21.696       41.149       -4.464       34.771       40.213       19.945     1209.011     1617.104      397.814        0.270        0.161       46.518        8.493        0.033      332.145        0.617      868.529
12/17/2021  11:52:00       44.839       26.045      -18.303       75.984       44.661       36.268     5773.518     1994.577     1315.395        0.605        0.454       51.855       33.642        0.421      332.110        0.560      868.528
12/17/2021  11:53:00       30.031       -6.646       -9.354       48.397       48.292       30.301     2342.303     2332.146      918.142        0.331        0.280       30.758       24.077        0.613      332.354        0.962      868.531
12/17/2021  11:54:00       26.084       55.264       -1.335       46.113       53.281       27.233     2126.368     2838.845      741.618        0.472        0.285       61.111       11.952        0.038      332.085        0.518      868.544
12/17/2021  11:55:00       33.227       44.818      -21.661       30.095       29.167       14.812      905.715      850.723      219.398        0.278        0.099       55.792       14.637        0.069      331.552       -0.358      868.550
12/17/2021  11:56:00      -50.473       -8.024      -13.874       40.037       25.530       26.829     1602.984      651.798      719.821        0.289        0.149       51.107       21.029        0.169      331.862        0.151      868.562
12/17/2021  11:57:00      -22.695        2.297      -21.640       50.847       23.245       26.550     2585.416      540.323      704.904        0.241        0.192       22.810       10.578        0.215      331.807        0.060      868.570
12/17/2021  11:58:00       95.968       54.987      -28.572       66.423       58.840       35.011     4411.973     3462.136     1225.757        1.107        0.455      110.605       22.252        0.040      332.107        0.554      868.586
12/17/2021  11:59:00       48.617       49.405      -14.362       50.791       53.194       38.271     2579.701     2829.628     1464.698        0.594        0.344       69.315       24.203        0.122      332.126        0.584      868.585
12/17/2021  12:00:00       37.124       33.145      -24.209       48.308       52.261       32.748     2333.630     2731.194     1072.448        0.460        0.307       49.768       23.976        0.232      332.246        0.784      868.571
12/17/2021  12:01:00       21.793       15.306      -16.677       80.441       45.954       37.419     6470.711     2111.732     1400.210        0.548        0.499       26.631       37.244        1.956      332.100        0.543      868.564
12/17/2021  12:02:00        4.299      -28.648       -3.490       41.657       76.014       33.462     1735.266     5778.169     1119.733        0.474        0.432       28.968       24.799        0.733      332.143        0.614      868.552
12/17/2021  12:03:00       86.645      -75.536      -33.315       58.248      101.310       38.715     3392.787    10263.694     1498.822        1.474        0.758      114.948       42.147        0.134      332.359        0.969      868.536
12/17/2021  12:04:00       85.354       27.360      -20.185       49.322       45.881       32.815     2432.709     2105.105     1076.804        0.703        0.281       89.632       23.326        0.068      331.797        0.043      868.526
12/17/2021  12:05:00       55.699      -87.927      -19.759       47.894       80.604       37.783     2293.862     6496.983     1427.550        1.072        0.511      104.084       37.013        0.126      332.179        0.673      868.510
12/17/2021  12:06:00       92.606      -85.975      -29.059       55.584       82.050       40.727     3089.620     6732.284     1658.723        1.414        0.574      126.363       32.099        0.065      332.094        0.533      868.501
12/17/2021  12:07:00       84.499     -130.383      -29.337       57.409       64.646       43.947     3295.774     4179.091     1931.346        1.720        0.470      155.370       40.541        0.068      332.171        0.660      868.484
12/17/2021  12:08:00      143.507     -135.972      -49.442       63.155       53.982       41.207     3988.492     2914.103     1697.992        2.506        0.430      197.693       33.085        0.028      331.827        0.090      868.472
12/17/2021  12:09:00      107.386      -84.319      -42.654       73.450       91.566       29.434     5394.948     8384.320      866.349        1.755        0.732      136.534       23.402        0.029      331.980        0.346      868.470
12/17/2021  12:10:00       41.011      -51.746      -29.226       67.335       74.799       30.758     4534.024     5594.824      946.026        0.814        0.554       66.027       24.803        0.141      332.077        0.505      868.473
12/17/2021  12:11:00       43.981       -4.992      -15.770       52.195       50.000       36.941     2724.325     2500.010     1364.660        0.440        0.329       44.263       29.577        0.446      332.568        1.315      868.461
12/17/2021  12:12:00      121.079       64.774      -31.940       41.330       49.791       41.690     1708.193     2479.146     1738.063        1.290        0.296      137.316       14.725        0.011      332.039        0.443      868.465
12/17/2021  12:13:00       47.841      -90.341      -21.757       34.389       44.746       31.907     1182.618     2002.241     1018.047        0.756        0.210      102.226       22.333        0.048      332.039        0.442      868.457
12/17/2021  12:14:00      -41.964      -28.069       -1.367       49.447       39.509       35.555     2445.044     1560.953     1264.154        0.391        0.264       50.486       23.469        0.216      332.464        1.144      868.444
12/17/2021  12:15:00      -45.212       -1.997       -8.294       43.638       40.947       29.579     1904.265     1676.672      874.927        0.329        0.223       45.256       20.147        0.198      332.401        1.039      868.443
12/17/2021  12:16:00       22.766        5.704      -13.775       51.575       53.268       26.541     2659.991     2837.430      704.436        0.347        0.310       23.469       17.378        0.548      332.401        1.038      868.430
12/17/2021  12:17:00      -50.069      -66.561      -16.200       43.626       25.619       29.959     1903.184      656.330      897.535        0.533        0.173       83.290       15.440        0.034      332.542        1.271      868.403
12/17/2021  12:18:00      -36.228      -21.487      -11.124       25.234       28.523       21.876      636.754      813.558      478.546        0.191        0.096       42.121       16.008        0.144      332.544        1.275      868.388
12/17/2021  12:19:00       70.956      -39.968      -27.674       66.871       80.074       43.141     4471.740     6411.791     1861.169        1.007        0.637       81.438       33.307        0.167      332.497        1.198      868.369
12/17/2021  12:20:00       52.056      -44.220      -26.303      113.962       74.048       41.874    12987.314     5483.153     1753.457        1.279        1.011       68.302       39.479        0.334      332.384        1.010      868.363
12/17/2021  12:21:00      109.996     -124.123      -27.018       62.151       67.231       44.309     3862.794     4520.007     1963.323        1.929        0.517      165.848       38.383        0.054      332.198        0.702      868.369
12/17/2021  12:22:00       65.062      -63.449      -29.403       70.971       74.696       43.804     5036.883     5579.521     1918.798        1.083        0.627       90.878       26.773        0.087      332.427        1.083      868.373
12/17/2021  12:23:00       47.705     -136.582      -25.780       45.946       55.974       36.403     2110.996     3133.134     1325.170        1.408        0.328      144.674       24.528        0.029      332.038        0.440      868.380
12/17/2021  12:24:00       23.430     -116.624      -24.089       40.251       37.928       30.845     1620.154     1438.537      951.422        0.937        0.201      118.955       20.337        0.029      332.022        0.415      868.377
12/17/2021  12:25:00       29.666     -101.247      -18.682       41.394       41.932       38.554     1713.436     1758.253     1486.439        0.822        0.248      105.503       24.682        0.055      332.382        1.009      868.367
12/17/2021  12:26:00       44.395      -51.144      -31.179       63.668       91.848       42.514     4053.605     8435.972     1807.461        0.993        0.715       67.725       24.345        0.129      332.407        1.048      868.357
12/17/2021  12:27:00       79.676       40.683       -5.559       59.869       66.459       33.940     3584.331     4416.793     1151.934        0.859        0.458       89.462       16.261        0.033      332.175        0.666      868.355
12/17/2021  12:28:00       96.685       -1.700      -22.297       81.237       86.724       40.154     6599.422     7521.081     1612.374        1.279        0.787       96.700       31.119        0.104      332.288        0.852      868.346
12/17/2021  12:29:00       22.467     -115.630      -23.979       54.223       53.599       34.340     2940.095     2872.827     1179.212        1.072        0.350      117.792       23.470        0.040      332.295        0.866      868.329
12/17/2021  12:30:00       34.417     -123.822      -38.232       53.321       36.774       28.862     2843.175     1352.336      833.042        1.150        0.251      128.516       26.361        0.042      331.942        0.285      868.316
12/17/2021  12:31:00       64.153      -58.802      -28.964       44.510       92.174       40.085     1981.105     8495.982     1606.835        1.025        0.604       87.024       43.965        0.255      332.457        1.132      868.309
12/17/2021  12:32:00       27.270       16.397       -5.074       18.831       18.065       26.282      354.608      326.344      690.722        0.120        0.069       31.820       15.049        0.224      332.276        0.833      868.308
12/17/2021  12:33:00      -41.808       43.409      -10.436       42.953       24.518       23.460     1844.979      601.112      550.382        0.337        0.150       60.268       21.686        0.129      332.034        0.434      868.300
12/17/2021  12:34:00      -75.052       50.671      -15.461       25.196       22.717       25.362      634.857      516.064      643.218        0.512        0.090       90.555       15.615        0.030      331.909        0.229      868.295
12/17/2021  12:35:00      -45.455       34.981      -12.329       28.464       25.547       21.037      810.177      652.674      442.536        0.267        0.095       57.357       13.614        0.056      332.080        0.510      868.292
12/17/2021  12:36:00        9.693       10.037      -17.797       20.487       15.939       14.101      419.712      254.037      198.837        0.069        0.044       13.954        7.586        0.296      332.318        0.902      868.291
12/17/2021  12:37:00       -9.742       -0.485      -13.573       17.054       23.982       15.240      290.827      575.119      232.268        0.069        0.055        9.754       13.563        1.933      332.565        1.309      868.283
12/17/2021  12:38:00      -15.207        5.894       -8.889       16.681       20.954       12.875      278.240      439.062      165.764        0.061        0.044       16.310        7.186        0.194      332.530        1.253      868.279
12/17/2021  12:39:00        9.761       26.051      -15.284       54.565       43.571       39.589     2977.294     1898.427     1567.318        0.372        0.322       27.819       21.792        0.614      332.662        1.469      868.268
12/17/2021  12:40:00       57.804      -14.631      -27.834       55.885       63.294       37.352     3123.158     4006.068     1395.165        0.643        0.426       59.627       22.372        0.141      332.690        1.517      868.275
12/17/2021  12:41:00        1.469      -63.551      -22.845       43.576       38.789       38.248     1898.842     1504.594     1462.940        0.471        0.243       63.568        9.594        0.023      332.940        1.931      868.282
12/17/2021  12:42:00       42.508        5.050      -23.386       65.644       39.516       34.829     4309.175     1561.551     1213.042        0.473        0.354       42.807       25.787        0.363      332.730        1.582      868.282
12/17/2021  12:43:00       95.276        4.846      -15.346       59.165       61.224       33.249     3500.529     3748.392     1105.510        0.884        0.418       95.399       19.404        0.041      332.562        1.306      868.287
12/17/2021  12:44:00       49.531       32.306       -2.429       38.886       30.871       21.713     1512.127      953.010      471.451        0.322        0.147       59.135       11.996        0.041      332.497        1.198      868.284
12/17/2021  12:45:00       43.083       41.665       -7.911       25.263       34.057       19.066      638.210     1159.898      363.511        0.291        0.108       59.934        9.392        0.025      332.217        0.736      868.274
12/17/2021  12:46:00       40.172      -38.766      -19.095       47.762       61.441       20.398     2281.218     3774.982      416.084        0.498        0.324       55.827       24.219        0.188      332.685        1.508      868.264
12/17/2021  12:47:00       93.385     -156.561      -36.314       39.613       47.632       28.105     1569.214     2268.822      789.881        1.959        0.231      182.297       24.070        0.017      332.090        0.527      868.250
12/17/2021  12:48:00       64.837     -159.653      -35.563       20.906       43.999       20.861      437.056     1935.914      435.182        1.688        0.140      172.316       16.899        0.010      332.011        0.398      868.227
12/17/2021  12:49:00       15.877      -71.250      -39.298       49.826       39.392       33.203     2482.665     1551.714     1102.454        0.600        0.257       72.997       12.124        0.028      332.488        1.184      868.220
12/17/2021  12:50:00       56.715      -66.633      -49.260       49.247       62.577       38.002     2425.272     3915.865     1444.173        0.893        0.389       87.502       29.902        0.117      332.486        1.179      868.199
12/17/2021  12:51:00       65.125     -130.990      -21.926       39.708       51.489       32.626     1576.745     2651.150     1064.444        1.359        0.265      146.286       25.704        0.031      332.321        0.907      868.198
12/17/2021  12:52:00       29.624      -35.366      -16.899       42.615       76.802       33.589     1816.010     5898.472     1128.198        0.563        0.442       46.134       31.058        0.453      332.553        1.290      868.200
12/17/2021  12:53:00       75.282      -35.098      -20.638       54.699       46.287       32.388     2991.936     2142.448     1048.967        0.675        0.309       83.062       21.566        0.067      332.521        1.238      868.194
12/17/2021  12:54:00       39.371       32.284      -14.601       38.547       32.787       22.699     1485.861     1074.999      515.265        0.294        0.154       50.915       11.854        0.054      332.688        1.514      868.187
12/17/2021  12:55:00       65.927       82.439       -8.397       49.584       43.458       41.224     2458.587     1888.640     1699.454        0.863        0.302      105.558       28.971        0.075      332.450        1.121      868.184
12/17/2021  12:56:00       55.873       58.419      -30.043       32.608       27.776       27.282     1063.287      771.530      744.316        0.501        0.129       80.837        8.720        0.012      332.280        0.839      868.177
12/17/2021  12:57:00       -0.291       54.697       -3.876       26.192       36.760       25.480      686.006     1351.272      649.213        0.285        0.134       54.697       17.700        0.105      332.532        1.256      868.176
12/17/2021  12:58:00      -16.631        8.931       -0.468       25.012       25.907       19.033      625.600      671.166      362.251        0.101        0.083       18.877        7.904        0.175      332.710        1.551      868.181
12/17/2021  12:59:00       21.699       18.587      -10.813       27.620       18.353       13.140      762.878      336.832      172.648        0.110        0.064       28.571        7.940        0.077      332.547        1.281      868.179
12/17/2021  13:00:00       42.931       58.787      -16.088       39.575       27.948       19.141     1566.213      781.081      366.383        0.414        0.136       72.794       13.353        0.034      332.535        1.261      868.176
12/17/2021  13:01:00      -14.693       34.480        9.950       26.495       40.468       28.251      702.004     1637.693      798.101        0.232        0.157       37.480       24.532        0.428      332.969        1.978      868.171
12/17/2021  13:02:00       30.653      -73.232      -19.713       43.559       39.759       30.031     1897.390     1580.770      901.839        0.553        0.219       79.388       13.423        0.029      332.643        1.438      868.168
12/17/2021  13:03:00       58.970      -73.242      -31.599       63.898       29.397       28.525     4082.985      864.158      813.699        0.780        0.288       94.031       24.296        0.067      332.616        1.395      868.157
12/17/2021  13:04:00       68.713      -64.001      -31.823       40.925       41.588       19.446     1674.878     1729.556      378.165        0.681        0.189       93.902       16.830        0.032      332.531        1.253      868.135
12/17/2021  13:05:00       75.455       43.320      -15.277       34.794       40.905       20.371     1210.623     1673.216      414.992        0.555        0.165       87.007       16.569        0.036      332.771        1.653      868.101
12/17/2021  13:06:00       50.853        6.882      -14.707       47.384       50.257       40.442     2245.262     2525.797     1635.540        0.463        0.320       51.317       27.442        0.286      332.828        1.745      868.077
12/17/2021  13:07:00       89.321      -11.975       -8.213       47.121       43.846       24.867     2220.414     1922.492      618.387        0.647        0.238       90.120       28.835        0.102      332.473        1.158      868.062
12/17/2021  13:08:00       25.586       -9.663       -8.764       32.195       30.419       21.629     1036.520      925.330      467.823        0.163        0.121       27.350        8.413        0.095      332.865        1.807      868.046
12/17/2021  13:09:00       67.739       80.623      -19.482       38.656       34.521       23.428     1494.258     1191.684      548.857        0.735        0.162      105.303       13.222        0.016      332.667        1.479      868.029
12/17/2021  13:10:00       50.699       12.198       -7.510       56.400       49.584       36.432     3180.994     2458.572     1327.268        0.487        0.348       52.146       31.165        0.357      333.083        2.168      868.011
12/17/2021  13:11:00       39.438      -50.969      -17.053       54.709       54.443       36.491     2993.050     2964.027     1331.578        0.586        0.364       64.445       26.238        0.166      332.983        2.002      867.995
12/17/2021  13:12:00       76.653       30.569      -13.432       77.434       37.835       18.389     5995.980     1431.510      338.142        0.738        0.388       82.524       25.686        0.097      332.474        1.161      867.985
12/17/2021  13:13:00       56.071       78.816       -7.585       29.865       27.511       22.030      891.946      756.835      485.331        0.577        0.107       96.726       21.055        0.047      332.399        1.035      867.971
12/17/2021  13:14:00       35.583       66.557      -11.356       38.704       38.417       26.812     1498.025     1475.874      718.897        0.476        0.185       75.471       13.968        0.034      332.603        1.372      867.949
12/17/2021  13:15:00       50.359       24.624      -12.987       42.825       48.330       30.236     1833.966     2335.747      914.214        0.420        0.254       56.057       23.964        0.183      332.865        1.804      867.931
12/17/2021  13:16:00       43.291      -57.865      -28.900       56.247       82.338       36.279     3163.694     6779.616     1316.196        0.866        0.563       72.266       27.493        0.145      333.303        2.529      867.909
12/17/2021  13:17:00      118.607     -173.584      -55.645       41.065       72.852       25.308     1686.324     5307.461      640.472        2.746        0.382      210.236        8.939        0.002      332.431        1.088      867.899
12/17/2021  13:18:00       71.514      -42.792      -48.799       71.687       70.136       39.318     5139.083     4918.993     1545.891        1.046        0.580       83.339       26.743        0.103      332.838        1.762      867.896
12/17/2021  13:19:00       64.882      -75.122      -31.107       43.114       66.696       32.026     1858.780     4448.332     1025.680        0.908        0.367       99.262       17.801        0.032      332.763        1.637      867.896
12/17/2021  13:20:00       76.841      -47.567      -34.219       19.567       19.980       17.580      382.868      399.209      309.068        0.521        0.055       90.373       12.928        0.020      332.331        0.923      867.910
12/17/2021  13:21:00        6.797      -47.033      -23.183       59.080       37.136       21.469     3490.494     1379.070      460.915        0.406        0.267       47.522        9.077        0.036      332.505        1.212      867.909
12/17/2021  13:22:00      -30.632      -76.966      -15.729       35.677       43.148       25.141     1272.837     1861.778      632.059        0.544        0.188       82.838       16.336        0.039      332.549        1.284      867.890
12/17/2021  13:23:00       -0.882      -10.520       -5.490       36.019       30.239       22.919     1297.388      914.415      525.268        0.144        0.137       10.557       15.540        2.167      333.222        2.396      867.876
12/17/2021  13:24:00      -40.790      -47.673       -9.798       35.552       35.159       23.715     1263.912     1236.128      562.408        0.355        0.153       62.742       19.701        0.099      332.922        1.900      867.869
12/17/2021  13:25:00      -61.947      -25.712        1.578       42.921       22.524       21.929     1842.234      507.311      480.886        0.367        0.142       67.071       26.472        0.156      332.797        1.694      867.852
12/17/2021  13:26:00      -25.204      -21.570       -3.672       24.283       44.023       27.155      589.670     1937.995      737.394        0.219        0.163       33.174       19.093        0.331      333.243        2.431      867.832
12/17/2021  13:27:00      -17.960      -15.471      -22.444       18.538       24.614       15.571      343.667      605.834      242.441        0.113        0.060       23.705       10.008        0.178      332.921        1.899      867.822
12/17/2021  13:28:00       72.068       56.979      -11.271       31.609       22.735       12.998      999.160      516.892      168.947        0.513        0.084       91.872        9.100        0.010      332.650        1.451      867.812
12/17/2021  13:29:00       66.787       36.843      -18.453       30.177       37.890       28.632      910.645     1435.617      819.802        0.466        0.158       76.275       16.574        0.047      332.919        1.895      867.793
12/17/2021  13:30:00       22.676       79.581       -2.872       43.248       26.700       22.606     1870.369      712.898      511.019        0.497        0.155       82.749        4.774        0.003      332.897        1.859      867.770
12/17/2021  13:31:00       21.139       71.079      -32.089       42.726       40.093       27.487     1825.477     1607.438      755.562        0.536        0.209       74.156       22.268        0.090      333.025        2.070      867.749
12/17/2021  13:32:00      -19.786      -18.059      -14.562       35.717       41.544       32.415     1275.728     1725.924     1050.763        0.249        0.203       26.788       24.296        0.823      333.247        2.437      867.729
12/17/2021  13:33:00      -65.289      -30.921      -21.503       52.756       39.698       30.845     2783.193     1575.968      951.414        0.549        0.266       72.241       15.013        0.043      333.127        2.240      867.719
12/17/2021  13:34:00     -102.929      -71.457      -19.765       52.797       53.037       34.087     2787.507     2812.951     1161.934        1.143        0.338      125.302       29.077        0.054      332.776        1.659      867.698
12/17/2021  13:35:00      -58.397      -47.172      -39.754       46.241       44.307       35.853     2138.214     1963.107     1285.466        0.630        0.269       75.069       21.144        0.079      333.121        2.229      867.680
12/17/2021  13:36:00      -76.234      -50.623      -48.291       47.611       36.584       35.942     2266.780     1338.412     1291.803        0.780        0.245       91.511       26.806        0.086      333.054        2.119      867.663
12/17/2021  13:37:00       12.643      -64.517      -28.568       32.037       38.839       26.063     1026.352     1508.488      679.281        0.418        0.161       65.744       23.882        0.132      333.171        2.312      867.644
12/17/2021  13:38:00       58.506     -115.872      -23.362       69.972       45.188       41.573     4896.135     2041.942     1728.352        1.303        0.433      129.805       36.800        0.080      332.980        1.996      867.627
12/17/2021  13:39:00       70.262      -56.449      -35.508       49.083       84.411       37.950     2409.188     7125.231     1440.232        1.018        0.549       90.129       29.482        0.107      332.962        1.966      867.631
12/17/2021  13:40:00       39.866      -85.089      -37.303       51.862       39.739       19.039     2689.665     1579.212      362.472        0.743        0.232       93.965       14.954        0.025      332.822        1.735      867.624
12/17/2021  13:41:00      -23.367     -104.473      -49.909       58.378       44.743       42.150     3407.983     2001.949     1776.663        1.057        0.359      107.055       11.530        0.012      333.204        2.368      867.625
12/17/2021  13:42:00       27.150      -44.622      -34.457       46.532       37.268       29.018     2165.229     1388.872      842.035        0.415        0.220       52.232       12.941        0.061      333.145        2.270      867.627
12/17/2021  13:43:00       42.334       16.231       -3.050       50.428       46.668       29.472     2543.024     2177.882      868.595        0.383        0.279       45.339       26.487        0.341      333.054        2.119      867.611
12/17/2021  13:44:00        8.986      -13.081        7.766       37.923       19.575       18.566     1438.144      383.195      344.688        0.124        0.108       15.870       17.021        1.150      333.255        2.451      867.593
12/17/2021  13:45:00       37.972      -17.963      -27.121       29.271       22.050       29.632      856.778      486.214      878.063        0.236        0.111       42.006       21.906        0.272      332.960        1.964      867.567
12/17/2021  13:46:00        6.541      -38.845      -17.061       25.490       40.153       23.164      649.754     1612.246      536.563        0.232        0.140       39.392       13.953        0.125      333.234        2.417      867.553
12/17/2021  13:47:00      -21.197      -13.555      -16.924       55.384       34.682       27.693     3067.382     1202.822      766.901        0.298        0.252       25.161       14.322        0.324      333.256        2.452      867.540
12/17/2021  13:48:00       33.066      -50.750      -31.672       43.627       69.692       32.128     1903.314     4856.967     1032.237        0.623        0.390       60.572       22.493        0.138      333.161        2.297      867.540
12/17/2021  13:49:00       74.310      -11.021      -24.374       72.790       65.282       39.786     5298.322     4261.709     1582.944        0.869        0.557       75.123       30.272        0.162      332.978        1.994      867.536
12/17/2021  13:50:00       73.213      -28.672       -9.155       63.983       50.159       39.348     4093.822     2515.934     1548.258        0.721        0.408       78.627       42.629        0.294      332.999        2.027      867.541
12/17/2021  13:51:00      153.655       11.717      -24.726       50.504       65.061       29.557     2550.623     4232.985      873.591        1.601        0.383      154.101       19.136        0.015      332.929        1.910      867.543
12/17/2021  13:52:00       48.897      -55.988      -25.031       44.356       74.986       41.412     1967.461     5622.846     1714.964        0.773        0.465       74.334       32.392        0.190      333.200        2.360      867.539
12/17/2021  13:53:00      125.471        0.482      -19.394       59.186       46.565       26.265     3502.973     2168.277      689.830        1.124        0.318      125.472       25.018        0.040      333.138        2.257      867.545
12/17/2021  13:54:00       48.082       37.701       -6.908       51.403       40.701       32.114     2642.260     1656.545     1031.308        0.455        0.267       61.100       19.653        0.103      333.344        2.598      867.539
12/17/2021  13:55:00        9.476        7.505       -7.697       44.351       40.318       22.493     1967.048     1625.502      505.936        0.215        0.205       12.088       18.089        2.239      333.491        2.842      867.540
12/17/2021  13:56:00       65.413        0.397      -32.515       56.236       75.699       47.789     3162.516     5730.359     2283.774        0.825        0.559       65.415       37.421        0.327      333.675        3.146      867.543
12/17/2021  13:57:00       86.139      -69.065      -38.950       63.482       83.273       48.923     4029.933     6934.443     2393.494        1.353        0.668      110.407       37.229        0.114      333.549        2.937      867.545
12/17/2021  13:58:00       76.369      -78.288      -15.617       40.929       37.600       34.194     1675.214     1413.773     1169.215        0.823        0.213      109.367       26.326        0.058      333.087        2.175      867.543
12/17/2021  13:59:00       56.612     -105.086      -19.365       43.202       97.424       38.225     1866.430     9491.416     1461.173        1.372        0.641      119.365       43.368        0.132      333.262        2.461      867.534
12/17/2021  14:00:00      135.787       10.439      -29.554       47.246       38.301       29.162     2232.194     1466.976      850.446        1.198        0.227      136.188       10.984        0.007      333.039        2.094      867.538
12/17/2021  14:01:00      102.276       26.920      -14.601       71.944       62.881       34.434     5175.910     3954.010     1185.719        1.086        0.516      105.760       34.533        0.107      333.253        2.448      867.530
12/17/2021  14:02:00      149.547       41.949      -25.038       50.563       56.008       32.493     2556.652     3136.922     1055.796        1.575        0.337      155.319       15.496        0.010      333.029        2.077      867.561
12/17/2021  14:03:00      165.970       62.751      -26.115       74.539       41.617       34.120     5556.125     1732.012     1164.171        2.031        0.423      177.437       34.343        0.037      332.934        1.917      867.572
12/17/2021  14:04:00      114.690       37.112      -19.303       32.990       29.896       21.614     1088.347      893.777      467.176        0.868        0.122      120.545       12.537        0.011      332.971        1.980      867.558
12/17/2021  14:05:00       93.287        9.921      -10.805       54.982       46.089       23.819     3022.981     2124.170      567.346        0.732        0.286       93.813       16.588        0.031      333.283        2.497      867.536
12/17/2021  14:06:00      -28.561      -35.258      -11.107       44.215       73.747       35.756     1954.937     5438.622     1278.526        0.543        0.434       45.375       33.618        0.549      333.538        2.919      867.520
12/17/2021  14:07:00       46.534     -175.731      -23.197       39.441       61.776       28.459     1555.625     3816.264      809.902        1.988        0.309      181.788       12.352        0.005      333.172        2.312      867.508
12/17/2021  14:08:00       42.711     -132.165      -39.243       39.283       66.055       27.037     1543.159     4363.310      730.974        1.373        0.332      138.895       15.317        0.012      333.236        2.420      867.497
12/17/2021  14:09:00       38.639     -148.997      -26.186       59.113       62.745       34.065     3494.314     3936.922     1160.404        1.648        0.430      153.926       25.433        0.027      333.278        2.487      867.479
12/17/2021  14:10:00       14.926      -17.869       -4.279       34.014       69.667       34.292     1156.944     4853.555     1175.957        0.387        0.359       23.282       32.432        1.940      333.236        2.420      867.471
12/17/2021  14:11:00      -13.806        7.737      -14.647       38.077       31.703       27.704     1449.893     1005.091      767.497        0.184        0.161       15.826       13.809        0.761      333.589        3.004      867.470
12/17/2021  14:12:00       12.959       26.628       -8.185       39.064       27.662       27.056     1525.962      765.205      732.030        0.198        0.151       29.614       16.338        0.304      333.677        3.150      867.469
12/17/2021  14:13:00       12.277        0.970      -12.544       28.608       28.365       24.535      818.423      804.583      601.990        0.127        0.111       12.315       15.774        1.640      333.644        3.096      867.469
12/17/2021  14:14:00       -4.470       14.272      -16.052       42.239       38.985       33.244     1784.094     1519.824     1105.146        0.244        0.220       14.956       21.861        2.137      333.690        3.172      867.464
12/17/2021  14:15:00       13.206        6.679       -0.977       62.451       66.457       41.092     3900.175     4416.472     1688.568        0.511        0.500       14.799       35.872        5.876      333.607        3.034      867.462
12/17/2021  14:16:00       42.535       25.700      -18.814       65.536       65.643       44.359     4294.956     4308.984     1967.686        0.670        0.529       49.697       30.688        0.381      333.610        3.037      867.464
12/17/2021  14:17:00       65.800       -6.162      -10.742       64.062       97.016       46.399     4103.936     9412.150     2152.900        1.007        0.783       66.088       25.317        0.147      333.558        2.952      867.473
12/17/2021  14:18:00      113.297      -15.271      -21.345       58.459       46.829       26.675     3417.458     2192.953      711.567        0.992        0.316      114.321       24.588        0.046      333.002        2.032      867.500
12/17/2021  14:19:00      103.762       42.706      -10.318       40.396       28.773       20.430     1631.840      827.899      417.390        0.779        0.144      112.207       10.931        0.009      332.941        1.930      867.512
12/17/2021  14:20:00      126.170       70.985      -16.245       58.559       41.563       25.719     3429.141     1727.466      661.479        1.352        0.291      144.768       22.464        0.024      332.972        1.983      867.531
12/17/2021  14:21:00      142.948       15.103      -10.013       42.983       39.127       20.977     1847.523     1530.898      440.016        1.229        0.191      143.744       19.535        0.018      332.997        2.026      867.543
12/17/2021  14:22:00       83.686       19.517      -14.408       56.426       31.267       22.356     3183.929      977.622      499.782        0.613        0.233       85.931       22.412        0.068      333.111        2.212      867.552
12/17/2021  14:23:00      163.012       51.648      -20.856       36.738       33.821       29.340     1349.676     1143.841      860.818        1.651        0.168      170.998       13.541        0.006      333.041        2.096      867.553
12/17/2021  14:24:00      136.229       60.180      -20.614       25.788       18.365       13.917      665.000      337.290      193.680        1.190        0.060      148.929        8.484        0.003      332.939        1.927      867.564
12/17/2021  14:25:00       58.421        2.576      -18.757       47.412       50.610       21.008     2247.924     2561.405      441.337        0.451        0.263       58.478       23.554        0.162      333.054        2.120      867.564
12/17/2021  14:26:00       56.205       51.512       -7.604       38.910       33.996       17.500     1513.951     1155.716      306.244        0.442        0.149       76.240       16.534        0.047      333.133        2.249      867.556
12/17/2021  14:27:00       59.430       52.770      -21.794       22.726       19.128       17.755      516.452      365.880      315.242        0.399        0.060       79.477       13.876        0.030      333.127        2.240      867.556
12/17/2021  14:28:00       48.433       69.598       -2.398       42.066       36.812       28.214     1769.587     1355.090      796.033        0.556        0.196       84.792       15.632        0.034      333.295        2.516      867.551
12/17/2021  14:29:00       74.901      -10.232      -18.363       51.170       58.175       34.685     2618.414     3384.357     1203.038        0.663        0.360       75.597       30.964        0.168      333.707        3.199      867.543
12/17/2021  14:30:00      111.356      -43.816      -13.559       73.744       53.818       37.279     5438.149     2896.370     1389.745        1.211        0.486      119.666       27.698        0.054      333.569        2.970      867.533
12/17/2021  14:31:00      109.172      -94.578      -24.805       62.163       49.085       33.978     3864.274     2409.372     1154.512        1.445        0.371      144.442       25.622        0.031      333.621        3.056      867.526
12/17/2021  14:32:00       77.702       -1.036      -24.589       47.939       47.880       41.145     2298.190     2292.469     1692.945        0.646        0.314       77.709       22.624        0.085      333.787        3.332      867.517
12/17/2021  14:33:00       14.398       21.474       -1.461       34.877       38.370       26.104     1216.409     1472.293      681.433        0.202        0.169       25.854       17.329        0.449      333.798        3.348      867.525
12/17/2021  14:34:00       14.174        3.663      -20.352       45.881       47.398       23.620     2105.031     2246.542      557.885        0.277        0.245       14.640       18.933        1.672      333.790        3.336      867.525
12/17/2021  14:35:00       -4.907       -5.752      -19.945       63.419       30.769       22.748     4021.909      946.743      517.453        0.297        0.274        7.560       21.724        8.257      333.961        3.619      867.522
12/17/2021  14:36:00       92.976      -62.325      -27.346       57.395       63.834       37.420     3294.141     4074.784     1400.249        1.102        0.438      111.933       24.086        0.046      333.628        3.069      867.525
12/17/2021  14:37:00       53.362     -145.834      -33.815       40.220       77.560       28.294     1617.610     6015.585      800.543        1.684        0.422      155.290       20.466        0.017      333.306        2.534      867.524
12/17/2021  14:38:00      124.177     -170.011      -51.632       61.935       63.030       29.716     3835.911     3972.723      883.050        2.784        0.435      210.532       26.930        0.016      333.168        2.302      867.532
12/17/2021  14:39:00      114.922     -192.853      -44.611       29.192       45.883       22.715      852.176     2105.271      515.956        2.793        0.174      224.498       17.306        0.006      333.252        2.443      867.541
12/17/2021  14:40:00       85.159     -197.896      -43.854       31.370       45.340       27.194      984.094     2055.736      739.513        2.606        0.189      215.441       13.184        0.004      333.264        2.462      867.548
12/17/2021  14:41:00       61.601     -133.626      -32.675       50.548       80.112       46.212     2555.112     6417.868     2135.539        1.691        0.555      147.141       35.563        0.058      333.488        2.836      867.558
12/17/2021  14:42:00       69.233     -163.106      -30.755       42.355       40.715       36.134     1793.928     1657.716     1305.653        1.855        0.238      177.192       29.711        0.028      333.396        2.682      867.566
12/17/2021  14:43:00       47.453      -97.202      -37.135       51.467       60.795       32.934     2648.803     3695.988     1084.671        1.025        0.371      108.166       18.986        0.031      333.557        2.949      867.581
12/17/2021  14:44:00       51.032      -10.698      -18.126       78.511       45.072       36.109     6163.944     2031.478     1303.882        0.627        0.475       52.141       26.864        0.265      333.701        3.188      867.577
12/17/2021  14:45:00       76.855      -19.407      -20.806       47.307       36.248       29.633     2237.932     1313.884      878.137        0.557        0.221       79.268       27.186        0.118      333.249        2.440      867.605
12/17/2021  14:46:00       34.960      -39.224       -2.961       58.748       43.829       27.705     3451.351     1920.993      767.582        0.445        0.307       52.543       15.290        0.085      333.661        3.124      867.609
12/17/2021  14:47:00       59.769     -127.033      -27.404       41.580       68.826       28.984     1728.926     4737.059      840.044        1.388        0.365      140.392       29.896        0.045      333.673        3.142      867.612
12/17/2021  14:48:00      109.890     -212.034      -47.084       26.407       43.230       20.682      697.352     1868.805      427.756        3.112        0.150      238.819       18.004        0.006      333.175        2.313      867.617
12/17/2021  14:49:00       97.364     -124.374      -38.006       53.978       68.848       31.626     2913.631     4740.061     1000.212        1.752        0.433      157.951       34.020        0.046      333.282        2.495      867.632
12/17/2021  14:50:00       80.319     -123.901      -29.452       35.521       48.272       22.207     1261.726     2330.166      493.162        1.338        0.204      147.658       13.546        0.008      333.536        2.916      867.650
12/17/2021  14:51:00       62.155      -33.668      -15.694       46.865       44.350       31.595     2196.363     1966.918      998.218        0.520        0.258       70.688       25.648        0.132      333.490        2.839      867.659
12/17/2021  14:52:00      -25.265      -25.473      -11.550       49.025       45.216       23.351     2403.448     2044.510      545.273        0.321        0.250       35.877       17.273        0.232      333.652        3.106      867.669
12/17/2021  14:53:00       61.107     -159.487      -30.145       37.113       45.873       29.675     1377.378     2104.350      880.615        1.722        0.218      170.793       18.071        0.011      333.443        2.762      867.677
12/17/2021  14:54:00       31.724     -183.307      -44.630       28.164       41.162       23.789      793.232     1694.290      565.918        1.983        0.153      186.032       10.698        0.003      333.468        2.801      867.689
12/17/2021  14:55:00       64.810     -103.626      -25.968       21.522       47.798       19.394      463.205     2284.656      376.116        0.937        0.156      122.224       20.276        0.028      333.190        2.342      867.713
12/17/2021  14:56:00       56.762     -130.745      -45.642       29.072       37.061       33.802      845.172     1373.539     1142.562        1.288        0.168      142.535       19.473        0.019      333.322        2.563      867.725
12/17/2021  14:57:00       51.449     -105.792      -29.438       29.639       27.052       23.481      878.452      731.795      551.367        0.843        0.108      117.639       16.723        0.020      333.370        2.641      867.739
12/17/2021  14:58:00       32.951      -72.211      -19.616       20.258       20.998       18.181      410.402      440.926      330.567        0.393        0.059       79.374       15.107        0.036      333.296        2.519      867.747
12/17/2021  14:59:00       52.911      -53.459      -27.613       29.708       34.135       20.530      882.574     1165.191      421.486        0.444        0.123       75.216       19.863        0.070      333.396        2.683      867.749
12/17/2021  15:00:00       -6.869      -20.377      -27.960       22.908       13.670       17.119      524.785      186.864      293.071        0.112        0.050       21.503       14.089        0.429      333.366        2.634      867.735
12/17/2021  15:01:00        9.905       -5.623      -11.346       26.509       25.467       18.630      702.749      648.579      347.072        0.098        0.085       11.390       14.730        1.673      333.499        2.855      867.728
12/17/2021  15:02:00        6.679       -4.104       -4.273       36.188       32.231       29.560     1309.579     1038.807      873.788        0.165        0.161        7.839       16.428        4.391      333.798        3.349      867.718
12/17/2021  15:03:00       44.178       21.791      -26.996       29.439       37.262       22.252      866.664     1388.420      495.139        0.295        0.138       49.260       12.640        0.066      333.513        2.878      867.713
12/17/2021  15:04:00       68.268       29.110      -15.033       34.156       38.444       21.557     1166.622     1477.930      464.707        0.442        0.155       74.216        9.810        0.017      333.433        2.746      867.714
12/17/2021  15:05:00       42.173      -38.223      -24.291       41.637       51.723       29.044     1733.619     2675.269      843.554        0.454        0.263       56.917       25.396        0.199      333.662        3.124      867.715
12/17/2021  15:06:00       93.707       43.508      -21.888       44.799       35.134       23.663     2006.936     1234.417      559.936        0.748        0.190      103.315        9.951        0.009      333.397        2.685      867.723
12/17/2021  15:07:00      123.597       31.354      -17.538       17.408       21.954       11.856      303.051      481.986      140.566        0.875        0.046      127.512        6.510        0.003      333.252        2.447      867.731
12/17/2021  15:08:00       71.252       -5.177      -22.613       37.217       19.615       15.489     1385.128      384.763      239.908        0.381        0.100       71.440        7.605        0.011      333.300        2.525      867.733
12/17/2021  15:09:00       15.631       15.933       -1.860       34.486       30.259       20.476     1189.275      915.625      419.256        0.151        0.126       22.320       18.934        0.720      333.684        3.159      867.752
12/17/2021  15:10:00       23.885        5.204       -6.371       36.849       40.428       20.434     1357.854     1634.418      417.549        0.202        0.170       24.446       19.761        0.653      333.716        3.214      867.755
12/17/2021  15:11:00        3.018        9.016       -1.280        8.232       10.581       10.001       67.760      111.964      100.016        0.019        0.014        9.508        7.561        0.632      333.791        3.338      867.760
12/17/2021  15:12:00       14.728       30.950      -12.621       15.684       19.367       14.939      245.991      375.065      223.178        0.109        0.042       34.275        8.421        0.060      333.550        2.939      867.762
12/17/2021  15:13:00       61.173       26.135       -4.223       43.997       47.411       24.805     1935.767     2247.788      615.288        0.462        0.240       66.522       17.417        0.069      333.569        2.970      867.751
12/17/2021  15:14:00       72.440        1.010       -5.217       60.565       45.529       27.891     3668.174     2072.863      777.880        0.590        0.326       72.447       25.868        0.127      333.606        3.032      867.739
12/17/2021  15:15:00       66.268       -7.591       -6.249       42.299       23.584       20.230     1789.163      556.201      409.252        0.362        0.138       66.701       16.619        0.062      333.489        2.839      867.733
12/17/2021  15:16:00       55.317       -1.636      -18.808       21.856       46.494       26.990      477.679     2161.695      728.482        0.339        0.168       55.341        8.880        0.026      333.666        3.131      867.729
12/17/2021  15:17:00       33.002       -2.288      -33.628       29.914       54.988       29.229      894.862     3023.661      854.347        0.350        0.239       33.081        9.561        0.084      333.752        3.272      867.726
12/17/2021  15:18:00       95.202        3.343      -40.367       55.419       64.557       37.251     3071.301     4167.668     1387.653        0.966        0.431       95.261       17.790        0.035      333.643        3.092      867.730
12/17/2021  15:19:00       75.103       -0.245      -35.137       57.661       53.887       30.992     3324.829     2903.798      960.511        0.703        0.359       75.103        8.374        0.012      333.793        3.342      867.742
12/17/2021  15:20:00       63.163       -8.571      -20.191       49.504       70.944       41.714     2450.621     5033.024     1740.037        0.685        0.461       63.742       28.722        0.203      333.756        3.279      867.749
12/17/2021  15:21:00       61.685      -26.304      -36.085       35.347       48.169       35.272     1249.407     2320.226     1244.116        0.531        0.241       67.059       17.318        0.067      333.800        3.354      867.762
12/17/2021  15:22:00       83.959     -104.947      -34.877       57.981       51.403       26.144     3361.756     2642.252      683.512        1.298        0.334      134.399       17.004        0.016      333.673        3.143      867.762
12/17/2021  15:23:00       54.402     -111.548      -33.520       52.994       55.191       31.510     2808.314     3046.008      992.899        1.169        0.342      124.107       27.712        0.050      333.693        3.176      867.772
12/17/2021  15:24:00       46.207     -154.188      -18.804       46.382       60.232       30.613     2151.318     3627.842      937.148        1.649        0.336      160.963       26.087        0.026      333.640        3.087      867.773
12/17/2021  15:25:00       88.461     -168.759      -37.481       35.339       42.185       18.667     1248.859     1779.609      348.471        2.054        0.169      190.538        9.527        0.003      333.431        2.742      867.773
12/17/2021  15:26:00       97.442      -87.126      -36.675       31.243       58.090       26.612      976.124     3374.420      708.200        1.174        0.253      130.713       21.199        0.026      333.475        2.816      867.792
12/17/2021  15:27:00      111.302     -105.570      -42.144       43.993       69.878       35.739     1935.391     4882.877     1277.241        1.670        0.405      153.405       27.888        0.033      333.576        2.980      867.805
12/17/2021  15:28:00       69.896     -120.926      -36.097       40.466       50.403       27.642     1637.494     2540.498      764.059        1.288        0.247      139.673       26.931        0.037      333.578        2.985      867.819
12/17/2021  15:29:00       57.739     -131.237      -21.558       32.975       64.666       32.652     1087.378     4181.671     1066.144        1.368        0.317      143.376       32.019        0.050      333.483        2.827      867.833
12/17/2021  15:30:00       99.418     -150.704      -39.383       47.037       39.661       29.018     2212.508     1572.997      842.030        1.939        0.231      180.543       23.855        0.017      333.497        2.851      867.842
12/17/2021  15:31:00       76.108     -163.328      -37.475       22.002       34.227       16.874      484.068     1171.501      284.746        1.791        0.097      180.190       12.459        0.005      333.347        2.603      867.845
12/17/2021  15:32:00       72.828     -115.026      -43.479       32.574       36.140       18.607     1061.079     1306.068      346.218        1.157        0.136      136.143       11.585        0.007      333.400        2.689      867.857
12/17/2021  15:33:00       34.166      -94.034      -19.692       25.540       32.602       23.691      652.315     1062.919      561.279        0.634        0.114      100.048       15.730        0.025      333.517        2.884      867.858
12/17/2021  15:34:00       15.707        0.061       -2.983       29.784       47.309       31.138      887.104     2238.101      969.564        0.217        0.205       15.707       15.665        0.995      333.735        3.245      867.856
12/17/2021  15:35:00      -18.433      -32.524       -8.117       24.967       43.683       24.355      623.369     1908.179      593.156        0.229        0.156       37.384       25.486        0.465      333.820        3.386      867.857
12/17/2021  15:36:00      -34.944       -9.683      -26.898       24.285       23.196       20.848      589.750      538.063      434.623        0.180        0.078       36.261       14.852        0.168      334.039        3.749      867.858
12/17/2021  15:37:00      -13.166      -16.128        3.284       21.858       26.391       16.963      477.785      696.494      287.759        0.095        0.073       20.820       11.505        0.305      333.970        3.635      867.866
12/17/2021  15:38:00      -13.622      -36.689        2.409       33.372       24.640       22.772     1113.702      607.124      518.573        0.189        0.112       39.136       12.391        0.100      333.919        3.550      867.877
12/17/2021  15:39:00      -20.229      -51.992       -4.136       40.761       28.682       22.327     1661.490      822.676      498.502        0.306        0.149       55.789       13.506        0.059      333.851        3.439      867.889
12/17/2021  15:40:00       66.716     -126.239      -23.343       51.044       57.720       30.774     2605.465     3331.625      947.057        1.391        0.344      142.784       30.009        0.044      333.612        3.040      867.902
12/17/2021  15:41:00       62.306     -107.719      -30.796       23.215       43.932       18.244      538.915     1929.981      332.845        0.962        0.140      124.440       17.002        0.019      333.406        2.703      867.915
12/17/2021  15:42:00       95.282     -106.838      -48.907       29.494       34.123       26.374      869.870     1164.404      695.591        1.281        0.136      143.154       16.005        0.012      333.561        2.956      867.929
12/17/2021  15:43:00       78.508      -86.549      -37.271       25.263       23.973       19.030      638.208      574.729      362.125        0.831        0.079      116.851        8.916        0.006      333.562        2.957      867.941
12/17/2021  15:44:00       35.186      -23.842      -25.250       31.833       44.554       23.829     1013.343     1985.097      567.839        0.300        0.178       42.503       13.605        0.102      333.664        3.127      867.962
12/17/2021  15:45:00       33.059      -11.655      -18.134       34.428       42.276       25.875     1185.297     1787.262      669.521        0.260        0.182       35.053       16.873        0.232      333.661        3.123      867.973
12/17/2021  15:46:00       22.160      -60.442      -35.974       52.032       43.192       29.865     2707.368     1865.589      891.916        0.545        0.273       64.376       23.036        0.128      333.688        3.167      867.987
12/17/2021  15:47:00       21.000       -6.130       -3.173       32.959       50.740       26.412     1086.285     2574.576      697.574        0.242        0.218       21.876       18.676        0.729      333.685        3.163      868.003
12/17/2021  15:48:00       64.165       14.684      -18.615       20.072       23.354       14.816      402.887      545.403      219.511        0.292        0.058       65.824       10.775        0.027      333.483        2.828      868.008
12/17/2021  15:49:00       25.353       29.587       -6.099       29.983       30.784       13.988      898.955      947.672      195.658        0.180        0.102       38.963        8.903        0.052      333.519        2.889      868.002
12/17/2021  15:50:00        8.489        5.961       -8.763       39.462       37.767       29.377     1557.287     1426.380      862.984        0.201        0.192       10.373        6.888        0.441      333.601        3.023      867.994
12/17/2021  15:51:00      -22.623       14.090      -11.283       40.756       45.182       28.471     1661.066     2041.415      810.599        0.267        0.226       26.652       25.933        0.947      333.657        3.117      867.990
12/17/2021  15:52:00       27.040      -70.657      -22.568       55.376       63.022       26.761     3066.460     3971.825      716.135        0.699        0.388       75.654       33.090        0.191      333.729        3.237      867.998
12/17/2021  15:53:00       60.578     -159.679      -26.293       43.097       36.612       22.872     1857.357     1340.445      523.116        1.679        0.186      170.784       18.852        0.012      333.574        2.978      868.006
12/17/2021  15:54:00       31.986     -155.994      -23.638       29.839       33.403       24.526      890.378     1115.748      601.516        1.426        0.130      159.240       18.814        0.014      333.489        2.838      868.016
12/17/2021  15:55:00      -20.400      -68.571      -15.219       33.188       56.624       21.875     1101.411     3206.234      478.521        0.507        0.239       71.541       15.963        0.050      333.671        3.138      868.034
12/17/2021  15:56:00      -62.769      -28.391      -18.691       31.760       47.993       22.267     1008.678     2303.367      495.826        0.445        0.190       68.891       18.042        0.069      333.773        3.309      868.040
12/17/2021  15:57:00      -38.354        2.411        4.358       38.830       37.078       29.038     1507.753     1374.784      843.195        0.261        0.186       38.430       15.395        0.160      333.797        3.348      868.054
12/17/2021  15:58:00       -6.612       21.368        0.991       30.864       27.573       18.953      952.606      760.294      359.231        0.129        0.104       22.367       16.833        0.566      333.605        3.030      868.062
12/17/2021  15:59:00       -5.319        2.889       -6.716       25.387       23.881       17.263      644.477      570.287      298.023        0.080        0.076        6.052        7.560        1.560      333.734        3.244      868.056
12/17/2021  16:00:00      -34.848       -8.640      -11.969       65.989       31.709       25.925     4354.522     1005.486      672.088        0.373        0.302       35.903       14.344        0.160      333.579        2.986      868.057
12/17/2021  16:01:00      -97.926        3.994      -11.236       45.719       23.693       21.297     2090.184      561.355      453.573        0.642        0.155       98.008       10.929        0.012      333.335        2.584      868.049
12/17/2021  16:02:00      -48.285      -32.710      -18.035       43.592       32.333       26.588     1900.300     1045.452      706.921        0.369        0.183       58.321       15.653        0.072      333.408        2.704      868.051
12/17/2021  16:03:00      -26.652      -34.487      -32.240       32.974       25.459       21.623     1087.288      648.143      467.575        0.257        0.110       43.586        2.755        0.004      333.536        2.916      868.047
12/17/2021  16:04:00      -56.934      -16.119      -11.277       65.286       37.989       25.065     4262.209     1443.162      628.275        0.498        0.317       59.172       17.587        0.088      333.358        2.620      868.054
12/17/2021  16:05:00      -51.489      -33.104      -17.494       51.873       53.439       23.942     2690.851     2855.684      573.201        0.509        0.306       61.213       13.650        0.050      333.389        2.672      868.058
12/17/2021  16:06:00      -67.376       -7.979      -11.110       43.742       37.406       22.858     1913.320     1399.191      522.476        0.428        0.192       67.847       19.626        0.084      333.423        2.728      868.067
12/17/2021  16:07:00      -91.186      -14.593        2.252       73.036       45.834       31.394     5334.233     2100.776      985.606        0.848        0.421       92.346       30.184        0.107      333.349        2.607      868.073
12/17/2021  16:08:00      -77.842       -5.182       -2.432       49.669       44.929       32.686     2467.044     2018.601     1068.384        0.582        0.278       78.015       26.320        0.114      333.304        2.532      868.081
12/17/2021  16:09:00     -101.148      -45.391      -13.491       41.806       51.839       29.672     1747.757     2687.330      880.406        0.889        0.266      110.866       22.852        0.042      333.263        2.464      868.082
12/17/2021  16:10:00     -124.694        1.681       -4.920       56.044       35.488       30.760     3140.877     1259.395      946.179        1.046        0.267      124.705       28.543        0.052      333.252        2.446      868.084
12/17/2021  16:11:00      -92.306      -46.110       -6.040       59.530       59.596       30.601     3543.769     3551.681      936.444        0.936        0.402      103.182       35.249        0.117      333.295        2.517      868.089
12/17/2021  16:12:00     -107.414      -79.061      -18.696       31.850       47.346       23.955     1014.429     2241.612      573.822        1.098        0.191      133.374       10.654        0.006      333.243        2.432      868.096
12/17/2021  16:13:00      -77.532      -24.842      -14.847       46.220       38.821       31.474     2136.273     1507.075      990.608        0.574        0.232       81.415       27.648        0.115      333.280        2.494      868.109
12/17/2021  16:14:00     -159.208      -61.946      -20.894       53.343       59.530       33.015     2845.495     3543.781     1090.000        1.855        0.374      170.835       24.654        0.021      333.151        2.278      868.115
12/17/2021  16:15:00      -68.771       -3.773       -4.755       48.793       32.056       28.704     2380.766     1027.560      823.906        0.450        0.212       68.875       19.651        0.081      333.284        2.497      868.122
12/17/2021  16:16:00      -75.841      -75.795       -8.497       37.857       58.237       28.569     1433.179     3391.519      816.199        0.860        0.282      107.223       21.949        0.042      333.245        2.434      868.124
12/17/2021  16:17:00     -127.053      -12.692      -13.615       51.690       38.741       39.199     2671.858     1500.865     1536.597        1.110        0.285      127.685       28.869        0.051      333.217        2.389      868.130
12/17/2021  16:18:00      -97.486      -44.591      -12.586       40.411       65.926       26.074     1633.060     4346.235      679.855        0.915        0.333      107.200       16.007        0.022      333.193        2.349      868.146
12/17/2021  16:19:00      -81.039       -7.604       -8.419       53.727       49.983       30.439     2886.608     2498.306      926.543        0.650        0.316       81.395       24.610        0.091      333.229        2.409      868.160
12/17/2021  16:20:00     -106.753       -3.697        6.295       68.831       42.320       37.354     4737.748     1790.980     1395.351        0.969        0.396      106.817       37.308        0.122      333.173        2.315      868.180
12/17/2021  16:21:00      -82.534       -8.122        5.092       84.455       47.507       34.078     7132.602     2256.868     1161.340        0.873        0.528       82.933       31.113        0.141      333.138        2.257      868.198
12/17/2021  16:22:00     -118.220       -4.636       -3.477       57.417       45.497       33.225     3296.756     2069.951     1103.881        1.024        0.324      118.311       26.823        0.051      333.137        2.256      868.215
12/17/2021  16:23:00      -75.673      -15.893      -20.534       51.067       26.498       33.339     2607.837      702.149     1111.469        0.541        0.221       77.324       34.380        0.198      333.212        2.380      868.223
12/17/2021  16:24:00      -47.147      -45.675      -18.375       40.091       43.656       26.688     1607.287     1905.821      712.263        0.444        0.211       65.643       16.672        0.065      333.195        2.352      868.236
12/17/2021  16:25:00     -111.443      -70.386      -19.196       56.316       60.401       26.693     3171.518     3648.259      712.509        1.264        0.377      131.809       25.872        0.039      333.126        2.237      868.240
12/17/2021  16:26:00     -109.626      -50.994      -26.880       54.491       61.672       24.444     2969.222     3803.388      597.531        1.135        0.369      120.905       14.102        0.014      333.057        2.123      868.239
12/17/2021  16:27:00      -78.347      -18.819       -5.708       44.759       54.061       30.433     2003.385     2922.554      926.182        0.619        0.293       80.576       25.776        0.102      333.105        2.202      868.237
12/17/2021  16:28:00     -153.624      -20.485      -11.729       88.384       44.157       31.975     7811.717     1949.810     1022.422        1.747        0.539      154.984       42.750        0.076      332.996        2.020      868.235
12/17/2021  16:29:00     -144.661      -23.168      -11.750       58.317       43.947       36.649     3400.825     1931.362     1343.150        1.414        0.334      146.505       25.899        0.031      332.984        2.002      868.232
12/17/2021  16:30:00     -200.370      -17.501      -15.331       61.207       44.879       32.561     3746.279     2014.096     1060.213        2.375        0.341      201.133       27.950        0.019      332.946        1.936      868.233
12/17/2021  16:31:00      -80.735      -40.511        1.629       52.528       44.069       32.344     2759.146     1942.090     1046.119        0.695        0.287       90.329       26.457        0.086      332.997        2.025      868.239
12/17/2021  16:32:00     -130.287      -49.081      -17.010       45.073       74.984       30.844     2031.589     5622.556      951.372        1.414        0.430      139.225       19.443        0.020      332.975        1.988      868.244
12/17/2021  16:33:00     -109.921      -45.815      -18.885       63.726       76.229       34.982     4061.047     5810.818     1223.727        1.281        0.555      119.087       33.931        0.081      332.945        1.938      868.249
12/17/2021  16:34:00     -117.267      -94.573      -34.396       43.201       49.035       38.529     1866.316     2404.417     1484.482        1.482        0.288      150.651       13.263        0.008      332.914        1.888      868.253
12/17/2021  16:35:00     -112.800      -76.672      -26.606       59.139       75.107       37.063     3497.469     5641.035     1373.696        1.491        0.526      136.391       23.481        0.030      332.882        1.833      868.255
12/17/2021  16:36:00      -42.263      -12.699       -9.852       57.428       59.013       27.528     3297.974     3482.587      757.767        0.479        0.377       44.129       24.683        0.313      332.888        1.843      868.257
12/17/2021  16:37:00      -55.947      -23.029       -8.041       56.153       34.920       31.962     3153.169     1219.393     1021.543        0.456        0.270       60.501       23.033        0.145      332.939        1.930      868.263
12/17/2021  16:38:00     -151.406        0.854      -17.263       76.099       59.550       39.346     5791.122     3546.255     1548.122        1.705        0.544      151.408       40.328        0.071      332.806        1.707      868.273
12/17/2021  16:39:00      -67.761      -16.544       -6.319       50.650       49.078       29.986     2565.468     2408.612      899.157        0.539        0.294       69.752       20.942        0.090      332.833        1.752      868.277
12/17/2021  16:40:00     -107.555       -0.885       -0.376       66.192       56.320       31.653     4381.343     3171.901     1001.918        1.006        0.428      107.559       27.369        0.065      332.805        1.708      868.281
12/17/2021  16:41:00     -149.408        2.528       -0.536       52.547       56.583       37.487     2761.188     3201.586     1405.277        1.485        0.368      149.430       27.957        0.035      332.679        1.497      868.288
12/17/2021  16:42:00     -131.052       -0.511       -6.382       64.543       34.854       29.663     4165.804     1214.812      879.909        1.174        0.313      131.053       24.472        0.035      332.733        1.586      868.293
12/17/2021  16:43:00      -65.577       -8.144       -2.583       61.846       51.730       27.253     3824.932     2675.965      742.719        0.581        0.362       66.081       19.343        0.086      332.837        1.760      868.297
12/17/2021  16:44:00     -102.491      -14.093       -4.503       54.982       47.819       34.393     3023.024     2286.616     1182.900        0.861        0.325      103.456       18.177        0.031      332.785        1.674      868.298
12/17/2021  16:45:00     -126.279       -9.079      -12.481       90.500       59.466       38.775     8190.308     3536.188     1503.503        1.470        0.661      126.605       35.989        0.081      332.676        1.492      868.292
12/17/2021  16:46:00     -119.978      -54.243      -21.681       44.875       60.048       35.389     2013.723     3605.704     1252.387        1.234        0.344      131.670       19.832        0.023      332.668        1.481      868.276
12/17/2021  16:47:00      -53.999      -24.944      -14.422       51.646       50.965       42.957     2667.307     2597.475     1845.318        0.543        0.356       59.482       18.683        0.099      332.695        1.526      868.257
12/17/2021  16:48:00      -74.557        0.947      -18.340       61.436       51.169       36.114     3774.397     2618.228     1304.204        0.680        0.385       74.563       16.359        0.048      332.685        1.509      868.252
12/17/2021  16:49:00     -106.881       16.678        5.521       62.123       48.282       33.385     3859.327     2331.172     1114.539        0.952        0.365      108.174       36.139        0.112      332.658        1.464      868.244
12/17/2021  16:50:00     -101.307       -7.250       -4.195       55.667       64.576       35.232     3098.817     4170.061     1241.315        0.942        0.426      101.566       24.663        0.059      332.673        1.489      868.248
12/17/2021  16:51:00     -119.103       -7.993       -0.989       94.106       47.351       47.366     8855.852     2242.147     2243.536        1.379        0.667      119.371       48.708        0.166      332.564        1.308      868.262
12/17/2021  16:52:00     -145.804      -33.223      -18.346       62.046       32.994       29.129     3849.697     1088.588      848.499        1.424        0.289      149.541       15.970        0.011      332.574        1.325      868.273
12/17/2021  16:53:00     -126.576      -15.002      -11.787       38.177       50.921       28.664     1457.498     2592.938      821.643        1.063        0.244      127.462       18.730        0.022      332.644        1.441      868.277
12/17/2021  16:54:00     -109.446       20.517      -13.937       59.591       40.210       29.170     3551.121     1616.851      850.912        0.931        0.301      111.352       24.508        0.048      332.531        1.254      868.277
12/17/2021  16:55:00      -92.801        4.288      -15.784       52.872       36.673       27.817     2795.419     1344.878      773.769        0.690        0.246       92.900       19.031        0.042      332.528        1.248      868.274
12/17/2021  16:56:00     -136.635        6.878      -14.369       39.073       43.035       20.899     1526.692     1852.048      436.754        1.137        0.191      136.808       15.051        0.012      332.492        1.190      868.272
12/17/2021  16:57:00      -88.171       -3.972       -0.168       49.204       31.584       24.280     2421.075      997.575      589.538        0.590        0.200       88.260       16.919        0.037      332.571        1.320      868.276
12/17/2021  16:58:00      -60.309        2.303      -11.574       47.200       31.915       25.758     2227.825     1018.545      663.486        0.384        0.195       60.353       20.577        0.116      332.508        1.216      868.238
12/17/2021  16:59:00     -130.532       39.904       -4.764       45.437       43.643       24.452     2064.559     1904.740      597.880        1.161        0.228      136.495       20.339        0.022      332.486        1.181      868.248
12/17/2021  17:00:00     -152.925       27.640       -4.122       56.215       43.607       29.708     3160.114     1901.536      882.584        1.505        0.297      155.403       29.801        0.037      332.444        1.110      868.288
12/17/2021  17:01:00     -132.703        2.105      -12.501       72.880       55.228       35.192     5311.430     3050.184     1238.493        1.368        0.480      132.719       24.404        0.034      332.428        1.083      868.328
12/17/2021  17:02:00     -134.189      -18.089       -3.190       71.389       47.179       37.294     5096.387     2225.831     1390.821        1.353        0.436      135.402       34.587        0.065      332.416        1.062      868.355
12/17/2021  17:03:00      -53.448      -20.170        7.885       80.614       37.140       36.104     6498.545     1379.369     1303.512        0.625        0.459       57.127       36.318        0.404      332.424        1.076      868.379
12/17/2021  17:04:00      -27.033       18.523        7.871       63.702       36.754       27.668     4057.888     1350.842      765.522        0.365        0.309       32.770       29.659        0.819      332.346        0.947      868.376
12/17/2021  17:05:00      -55.982        5.417       -3.563       76.472       40.434       32.067     5848.031     1634.869     1028.309        0.584        0.426       56.243       26.086        0.215      332.323        0.910      868.373
12/17/2021  17:06:00      -43.017       28.997      -15.757       41.340       43.354       24.285     1708.977     1879.575      589.743        0.356        0.209       51.878       18.680        0.130      332.324        0.912      868.370
12/17/2021  17:07:00      -69.620       15.911      -16.017       36.771       39.729       22.614     1352.143     1578.364      511.406        0.440        0.172       71.415       18.589        0.068      332.396        1.032      868.381
12/17/2021  17:08:00      -43.151       22.555       -6.651       45.266       23.462       20.931     2048.984      550.481      438.089        0.273        0.152       48.690       21.337        0.192      332.325        0.913      868.387
12/17/2021  17:09:00     -110.515       44.613       -3.870       59.827       40.222       29.455     3579.305     1617.786      867.601        1.014        0.303      119.180       27.023        0.051      332.234        0.763      868.409
12/17/2021  17:10:00      -73.586        4.879       -5.102       66.622       42.997       24.916     4438.474     1848.738      620.825        0.619        0.345       73.747       21.531        0.085      332.199        0.704      868.418
12/17/2021  17:11:00      -17.305       38.884        8.658       32.432       45.137       24.269     1051.847     2037.392      588.994        0.278        0.184       42.561       18.892        0.197      332.238        0.769      868.443
12/17/2021  17:12:00      -36.425       13.138       -6.038       50.792       29.473       29.362     2579.810      868.675      862.120        0.292        0.216       38.722       29.432        0.578      332.243        0.778      868.458
12/17/2021  17:13:00      -55.619       21.532       -2.491       50.872       43.129       22.546     2587.985     1860.099      508.315        0.426        0.248       59.641       23.691        0.158      332.127        0.586      868.476
12/17/2021  17:14:00      -75.200       -1.566       -4.131       68.006       34.125       29.635     4624.857     1164.484      878.254        0.617        0.333       75.216       25.959        0.119      332.192        0.695      868.472
12/17/2021  17:15:00      -67.848       -5.676      -13.936       50.004       37.001       29.397     2500.390     1369.048      864.163        0.478        0.237       68.085       16.825        0.061      332.211        0.727      868.472
12/17/2021  17:16:00      -70.753       19.881      -10.182       40.645       34.589       24.828     1651.986     1196.378      616.410        0.448        0.173       73.493       19.097        0.068      332.181        0.675      868.462
12/17/2021  17:17:00     -103.743       -5.463       -1.565       64.546       33.712       26.172     4166.125     1136.496      684.958        0.839        0.299      103.887       30.611        0.087      332.163        0.645      868.458
12/17/2021  17:18:00      -96.676       34.327       -8.268       83.824       33.403       23.718     7026.532     1115.761      562.543        0.965        0.435      102.589       38.086        0.138      332.146        0.617      868.469
12/17/2021  17:19:00     -102.074       30.513       -7.160       59.864       31.104       24.222     3583.667      967.484      586.701        0.827        0.257      106.537       24.065        0.051      332.169        0.656      868.487
12/17/2021  17:20:00     -136.749       38.482      -12.665       36.300       29.405       25.711     1317.675      864.658      661.031        1.159        0.142      142.061       18.878        0.018      332.086        0.519      868.514
12/17/2021  17:21:00     -101.042        6.268       -7.889       29.476       18.039       20.339      868.842      325.410      413.683        0.596        0.080      101.236       18.539        0.034      332.109        0.558      868.537
12/17/2021  17:22:00      -30.394      -10.117       -1.038       38.068       26.102       17.750     1449.149      681.317      315.073        0.174        0.122       32.033       17.665        0.304      332.158        0.638      868.569
12/17/2021  17:23:00       -7.368        6.280        4.888       26.936       23.893       17.437      725.565      570.869      304.055        0.086        0.080        9.681       16.270        2.824      332.152        0.627      868.591
12/17/2021  17:24:00      -89.761        3.518      -11.840       39.813       34.272       20.955     1585.069     1174.604      439.099        0.570        0.160       89.830       20.818        0.054      332.149        0.622      868.603
12/17/2021  17:25:00      -95.147       16.366      -12.313       51.692       29.736       17.981     2672.033      884.209      323.330        0.668        0.194       96.545       15.411        0.025      332.111        0.561      868.612
12/17/2021  17:26:00      -69.322        9.436       -9.392       42.995       16.059       19.948     1848.602      257.881      397.941        0.374        0.125       69.961       20.528        0.086      332.083        0.515      868.621
12/17/2021  17:27:00      -98.030       12.859      -13.110       22.681       20.267       14.667      514.444      410.734      215.115        0.554        0.057       98.870        7.655        0.006      332.115        0.569      868.622
12/17/2021  17:28:00      -39.903       22.268       -0.879       39.893       21.667       17.300     1591.485      469.468      299.288        0.222        0.118       45.696       21.237        0.216      332.126        0.585      868.626
12/17/2021  17:29:00      -43.797        6.932       -8.125       38.967       19.178       15.216     1518.397      367.779      231.512        0.207        0.106       44.342        9.130        0.042      332.129        0.591      868.624
12/17/2021  17:30:00       16.385        8.986        4.341       26.377       19.643       17.915      695.757      385.858      320.937        0.089        0.070       18.688        4.717        0.064      332.061        0.479      868.624
12/17/2021  17:31:00      -23.985        6.841      -10.684       36.164       26.923       20.918     1307.801      724.847      437.564        0.160        0.124       24.942       16.508        0.438      332.149        0.624      868.631
12/17/2021  17:32:00      -64.310        1.716       -3.118       34.784       22.637       23.195     1209.893      512.431      537.991        0.320        0.113       64.333       16.046        0.062      332.113        0.564      868.637
12/17/2021  17:33:00      -14.471       -4.563        1.494       31.397       25.749       18.768      985.749      662.991      352.221        0.112        0.100       15.174       14.150        0.870      332.108        0.555      868.655
12/17/2021  17:34:00      -19.396        4.732       -5.521       28.411       19.315       21.274      807.163      373.066      452.588        0.103        0.082       19.965       18.882        0.894      332.115        0.566      868.668
12/17/2021  17:35:00      -75.513       -3.623      -21.933       22.749       21.853       13.936      517.503      477.560      194.204        0.369        0.059       75.600        7.325        0.009      332.143        0.612      868.686
12/17/2021  17:36:00      -36.160      -12.447       -5.326       36.827       24.623       20.000     1356.213      606.314      400.013        0.193        0.118       38.242       16.751        0.192      332.156        0.635      868.703
12/17/2021  17:37:00      -19.525      -10.860      -11.034       28.569       17.806       16.405      816.183      317.065      269.135        0.101        0.070       22.342       15.804        0.500      332.183        0.679      868.714
12/17/2021  17:38:00      -57.249       -5.741      -12.929       37.662       13.582       18.193     1418.427      184.460      330.997        0.271        0.097       57.536       17.072        0.088      332.109        0.557      868.710
12/17/2021  17:39:00      -32.584       -8.129      -10.431       37.043       21.292       16.155     1372.169      453.328      260.989        0.166        0.104       33.583       13.841        0.170      332.150        0.625      868.711
12/17/2021  17:40:00      -65.465       -6.777       -8.582       33.631       26.213       17.895     1131.022      687.147      320.239        0.327        0.107       65.815       14.528        0.049      332.115        0.567      868.711
12/17/2021  17:41:00        4.283        6.049        0.162       26.983       21.296       22.374      728.068      453.505      500.611        0.087        0.084        7.412       16.481        4.945      332.119        0.574      868.706
12/17/2021  17:42:00      -53.105        0.703       -1.098       34.700       26.962       17.553     1204.096      726.930      308.094        0.253        0.112       53.110       14.855        0.078      332.102        0.546      868.699
12/17/2021  17:43:00      -53.955      -24.724       -1.441       45.764       31.014       24.146     2094.306      961.853      583.026        0.358        0.182       59.350       26.005        0.192      332.078        0.506      868.688
12/17/2021  17:44:00      -97.202      -24.866      -18.573       17.264       24.208       15.870      298.037      586.007      251.851        0.577        0.057      100.332        8.062        0.006      332.095        0.535      868.669
12/17/2021  17:45:00      -65.017      -11.332      -17.330       51.124       27.495       18.776     2613.675      755.982      352.548        0.419        0.186       65.997       26.358        0.160      332.064        0.483      868.656
12/17/2021  17:46:00      -77.567      -14.533       -9.542       53.501       36.393       19.171     2862.304     1324.469      367.511        0.544        0.228       78.917       19.700        0.062      332.091        0.528      868.644
12/17/2021  17:47:00     -114.031      -10.519       -6.824       34.218       26.412       19.270     1170.876      697.581      371.338        0.770        0.112      114.515       18.160        0.025      332.082        0.512      868.648
12/17/2021  17:48:00      -55.478       -7.498        5.062       36.744       38.033       26.135     1350.129     1446.492      683.046        0.332        0.174       55.982       13.873        0.061      332.177        0.670      868.657
12/17/2021  17:49:00      -39.476       -5.771       -8.221       38.605       40.763       25.321     1490.361     1661.601      641.139        0.273        0.190       39.896       16.925        0.180      332.010        0.394      868.659
12/17/2021  17:50:00     -129.720      -13.502      -12.032       65.158       43.338       26.148     4245.600     1878.150      683.726        1.198        0.340      130.421       26.467        0.041      332.017        0.406      868.670
12/17/2021  17:51:00     -139.414      -12.753      -18.496       58.281       41.164       28.629     3396.725     1694.492      819.636        1.292        0.296      139.996       23.405        0.028      331.971        0.330      868.681
12/17/2021  17:52:00     -135.584       -0.303      -12.635       28.958       21.669       16.730      838.587      469.528      279.898        1.007        0.079      135.584       13.442        0.010      331.905        0.224      868.692
12/17/2021  17:53:00     -139.677      -17.811      -13.249       38.538       28.244       24.845     1485.140      797.749      617.270        1.145        0.145      140.808       16.966        0.015      331.971        0.330      868.707
12/17/2021  17:54:00     -131.304      -19.734      -14.130       38.243       35.621       20.057     1462.551     1268.871      402.302        1.048        0.157      132.779       14.636        0.012      331.950        0.295      868.722
12/17/2021  17:55:00     -157.494      -31.574      -25.371       45.793       35.708       23.814     2097.001     1275.060      567.096        1.519        0.197      160.628       24.638        0.024      331.829        0.097      868.736
12/17/2021  17:56:00     -164.712      -34.108       -9.124       50.390       39.476       29.017     2539.160     1558.379      842.001        1.666        0.247      168.206       28.898        0.030      331.812        0.069      868.748
12/17/2021  17:57:00     -105.885      -21.619      -16.179       35.365       26.804       23.914     1250.676      718.478      571.890        0.724        0.127      108.069       20.875        0.037      331.815        0.074      868.753
12/17/2021  17:58:00     -119.985      -41.601      -24.568       22.949       27.469       19.382      526.663      754.570      375.667        0.919        0.083      126.993        7.663        0.004      331.802        0.054      868.752
12/17/2021  17:59:00     -131.963      -25.530      -24.335       32.041       22.877       20.578     1026.651      523.345      423.447        1.032        0.099      134.410       10.221        0.006      331.740       -0.050      868.754
12/17/2021  18:00:00     -102.399      -10.015      -11.507       55.142       33.620       22.841     3040.619     1130.316      521.699        0.770        0.235      102.888       24.165        0.055      331.744       -0.042      868.752
12/17/2021  18:01:00      -69.819       -7.065      -10.895       52.256       54.737       29.429     2730.732     2996.154      866.060        0.582        0.330       70.176       18.935        0.073      331.694       -0.126      868.751
12/17/2021  18:02:00      -71.600      -18.105       -6.645       58.953       52.687       31.398     3475.506     2775.944      985.812        0.637        0.362       73.854       25.154        0.116      331.650       -0.199      868.752
12/17/2021  18:03:00     -107.192       -4.037       -6.505       71.178       51.100       37.514     5066.360     2611.167     1407.322        1.032        0.454      107.268       26.975        0.063      331.610       -0.264      868.755
12/17/2021  18:04:00     -145.541        3.277       -6.752       55.929       33.846       31.418     3128.082     1145.583      987.093        1.325        0.263      145.577       27.369        0.035      331.520       -0.413      868.767
12/17/2021  18:05:00     -153.682      -18.907      -15.203       45.424       40.063       33.063     2063.374     1605.037     1093.153        1.448        0.238      154.841       30.494        0.039      331.563       -0.341      868.789
12/17/2021  18:06:00      -95.598      -17.568      -16.438       60.742       31.008       27.304     3689.606      961.501      745.488        0.756        0.270       97.199       25.583        0.069      331.591       -0.295      868.810
12/17/2021  18:07:00     -144.969      -25.202      -23.452       49.646       27.004       30.784     2464.772      729.231      947.633        1.317        0.207      147.143       25.369        0.030      331.567       -0.334      868.833
12/17/2021  18:08:00      -97.779      -28.599      -19.113       36.763       21.083       21.799     1351.496      444.504      475.189        0.651        0.114      101.876       13.077        0.016      331.551       -0.363      868.847
12/17/2021  18:09:00     -115.137      -45.472      -12.095       32.348       30.118       20.977     1046.420      907.085      440.030        0.893        0.120      123.791       10.039        0.007      331.582       -0.310      868.870
12/17/2021  18:10:00     -105.111      -43.989      -17.975       42.472       27.088       19.362     1803.872      733.762      374.897        0.811        0.146      113.944       16.031        0.020      331.520       -0.412      868.883
12/17/2021  18:11:00     -114.935      -33.957      -20.369       32.651       28.285       24.029     1066.085      800.067      577.389        0.861        0.122      119.846       18.695        0.024      331.522       -0.411      868.894
12/17/2021  18:12:00     -106.875       -7.754      -19.673       35.454       24.409       17.176     1256.989      595.797      295.013        0.701        0.107      107.156       10.201        0.009      331.536       -0.387      868.905
12/17/2021  18:13:00     -113.109      -15.105      -18.044       28.664       24.686       18.061      821.627      609.404      326.194        0.755        0.088      114.113       16.625        0.021      331.527       -0.402      868.914
12/17/2021  18:14:00      -46.109       10.356       -5.120       40.308       24.647       20.358     1624.742      607.455      414.443        0.245        0.132       47.257       19.467        0.170      331.581       -0.312      868.927
12/17/2021  18:15:00      -43.103       10.495      -11.773       28.898       24.584       23.526      835.107      604.394      553.458        0.205        0.100       44.363       18.453        0.173      331.560       -0.347      868.939
12/17/2021  18:16:00      -23.411      -12.180       -7.388       44.740       22.085       26.491     2001.628      487.749      701.755        0.197        0.160       26.391       25.987        0.970      331.541       -0.377      868.943
12/17/2021  18:17:00      -62.474      -14.608       -8.141       31.841       26.846       21.895     1013.849      720.710      479.406        0.320        0.111       64.159       16.159        0.063      331.532       -0.394      868.948
12/17/2021  18:18:00      -85.620        8.044       -8.075       25.092       29.764       14.552      629.606      885.922      211.746        0.459        0.086       85.997       10.000        0.014      331.514       -0.423      868.950
12/17/2021  18:19:00      -52.831       -6.080       -4.478       36.558       30.340       24.412     1336.459      920.488      595.963        0.285        0.143       53.180       22.327        0.176      331.539       -0.380      868.951
12/17/2021  18:20:00      -90.143       10.948      -12.075       38.350       29.161       20.173     1470.714      850.393      406.964        0.556        0.136       90.806       16.348        0.032      331.419       -0.578      868.947
12/17/2021  18:21:00      -45.849        3.107      -15.028       34.723       27.905       14.875     1205.678      778.700      221.255        0.227        0.110       45.954       10.186        0.049      331.427       -0.566      868.952
12/17/2021  18:22:00      -59.466        5.790       -2.057       39.278       35.455       18.983     1542.763     1257.082      360.367        0.337        0.158       59.747       20.331        0.116      331.462       -0.508      868.955
12/17/2021  18:23:00      -21.587       10.074        0.707       37.553       24.748       22.940     1410.261      612.463      526.252        0.156        0.127       23.822       15.607        0.429      331.457       -0.516      868.959
12/17/2021  18:24:00      -67.069       -9.017       -6.142       33.542       27.578       15.635     1125.033      760.530      244.447        0.337        0.107       67.672       16.142        0.057      331.437       -0.549      868.962
12/17/2021  18:25:00      -70.134       -3.941       -3.125       46.575       38.558       21.118     2169.213     1486.713      445.984        0.452        0.205       70.245       24.394        0.121      331.445       -0.536      868.959
12/17/2021  18:26:00      -68.632       -7.472       -2.636       38.303       30.467       16.853     1467.118      928.218      284.010        0.373        0.134       69.038       13.094        0.036      331.501       -0.443      868.957
12/17/2021  18:27:00      -20.903       -9.928       -8.887       25.038       27.173       19.704      626.916      738.351      388.266        0.118        0.088       23.141       13.916        0.362      331.531       -0.394      868.951
12/17/2021  18:28:00      -26.199        2.465        2.468       33.538       20.801       15.537     1124.807      432.663      241.385        0.125        0.090       26.314       15.894        0.365      331.525       -0.404      868.944
12/17/2021  18:29:00       -7.241       -1.931        6.785       18.750       23.402       15.836      351.550      547.631      250.766        0.063        0.057        7.494        9.108        1.477      331.484       -0.472      868.943
12/17/2021  18:30:00      -53.688      -12.502      -10.466       19.826       18.648       16.122      393.071      347.761      259.930        0.207        0.050       55.125        8.892        0.026      331.534       -0.389      868.943
12/17/2021  18:31:00      -47.116       -5.311       -2.662       39.584       13.484       12.181     1566.918      181.828      148.385        0.208        0.095       47.414        4.691        0.010      331.519       -0.414      868.931
12/17/2021  18:32:00      -74.828        5.546      -16.204       34.551       19.814       15.833     1193.757      392.605      250.690        0.386        0.092       75.034       14.678        0.038      331.500       -0.445      868.915
12/17/2021  18:33:00      -56.196      -10.543       -8.046       23.685       20.936       15.772      560.958      438.326      248.742        0.229        0.062       57.176       10.403        0.033      331.515       -0.420      868.905
12/17/2021  18:34:00      -99.957      -18.826      -11.172       34.618       23.449       17.532     1198.429      549.864      307.373        0.626        0.103      101.714       14.999        0.022      331.488       -0.466      868.895
12/17/2021  18:35:00      -72.980      -14.734       -6.251       52.874       23.191       23.369     2795.689      537.832      546.107        0.473        0.194       74.452       13.224        0.032      331.505       -0.437      868.897
12/17/2021  18:36:00      -36.072       -9.145       -6.598       34.797       26.852       18.750     1210.818      721.018      351.566        0.186        0.114       37.213       19.693        0.280      331.554       -0.356      868.896
12/17/2021  18:37:00      -24.623        5.907       -1.272       42.502       18.695       14.830     1806.390      349.506      219.938        0.151        0.119       25.322       15.132        0.357      331.441       -0.543      868.892
12/17/2021  18:38:00       -8.454      -15.593      -11.160       33.986       33.311       23.835     1155.048     1109.640      568.120        0.164        0.142       17.737        7.023        0.157      331.579       -0.316      868.887
12/17/2021  18:39:00      -37.144       -7.537       -7.318       38.098       30.454       18.063     1451.487      927.445      326.264        0.210        0.135       37.901        8.714        0.053      331.576       -0.321      868.887
12/17/2021  18:40:00      -65.828      -24.382      -13.032       32.998       27.811       25.677     1088.885      773.451      659.285        0.381        0.126       70.198       11.360        0.026      331.526       -0.403      868.896
12/17/2021  18:41:00      -67.379       -6.792       -0.454       47.900       44.110       29.161     2294.416     1945.662      850.392        0.484        0.255       67.720       20.929        0.096      331.481       -0.477      868.919
12/17/2021  18:42:00      -66.857      -41.683       -7.678       43.600       44.179       28.598     1900.924     1951.766      817.840        0.547        0.234       78.786       25.043        0.101      331.472       -0.492      868.941
12/17/2021  18:43:00      -41.939      -15.790        1.846       40.649       37.381       30.554     1652.304     1397.309      933.520        0.300        0.199       44.813       19.188        0.183      331.503       -0.442      868.956
12/17/2021  18:44:00      -48.786      -23.519        2.008       62.692       38.312       30.607     3930.314     1467.785      936.773        0.463        0.317       54.159       28.019        0.268      331.454       -0.522      868.959
12/17/2021  18:45:00      -83.258      -27.576      -16.404       58.539       42.439       37.506     3426.821     1801.047     1406.720        0.730        0.332       87.706       30.488        0.121      331.454       -0.520      868.959
12/17/2021  18:46:00      -96.720      -29.033      -13.311       49.187       39.364       30.774     2419.382     1549.532      947.016        0.764        0.246      100.983       19.132        0.036      331.488       -0.464      868.943
12/17/2021  18:47:00      -53.146      -11.161      -11.470       45.197       47.190       31.308     2042.786     2226.942      980.167        0.416        0.262       54.305       18.880        0.121      331.448       -0.533      868.927
12/17/2021  18:48:00      -62.924      -30.761      -11.846       60.370       52.879       31.792     3644.597     2796.216     1010.751        0.625        0.373       70.040       18.467        0.070      331.398       -0.613      868.920
12/17/2021  18:49:00      -60.109      -28.931      -11.791       39.586       40.611       31.395     1567.044     1649.285      985.643        0.439        0.210       66.709       22.190        0.111      331.375       -0.651      868.916
12/17/2021  18:50:00     -126.632      -64.328      -36.143       54.508       57.630       42.817     2971.122     3321.173     1833.269        1.480        0.406      142.034       26.409        0.035      331.348       -0.697      868.924
12/17/2021  18:51:00      -93.469      -21.207       -9.064       57.403       52.955       36.352     3295.140     2804.219     1321.476        0.834        0.371       95.845       29.273        0.093      331.281       -0.805      868.940
12/17/2021  18:52:00      -74.344      -28.721      -17.505       46.856       55.880       29.127     2195.446     3122.537      848.376        0.641        0.308       79.699       23.201        0.085      331.304       -0.766      868.957
12/17/2021  18:53:00      -83.957      -22.479      -13.118       49.768       44.663       32.339     2476.878     1994.811     1045.829        0.662        0.276       86.914       23.307        0.072      331.306       -0.764      868.976
12/17/2021  18:54:00      -56.899        3.442        6.373       47.204       44.532       29.658     2228.209     1983.084      879.573        0.419        0.255       57.003       29.165        0.262      331.134       -1.046      868.991
12/17/2021  18:55:00     -118.029      -16.537       -4.828       61.608       45.765       28.322     3795.526     2094.465      802.126        1.046        0.335      119.182       27.445        0.053      331.114       -1.080      869.002
12/17/2021  18:56:00      -98.089      -12.403        0.102       50.875       61.052       37.211     2588.216     3727.369     1384.690        0.874        0.385       98.870       26.281        0.071      331.075       -1.144      869.027
12/17/2021  18:57:00     -110.110       13.601        2.421       69.064       54.815       34.684     4769.817     3004.712     1202.995        1.064        0.449      110.947       35.817        0.104      330.974       -1.309      869.049
12/17/2021  18:58:00     -109.873      -22.828      -15.872       42.682       73.677       32.814     1821.756     5428.353     1076.781        1.058        0.416      112.220       23.977        0.046      331.005       -1.260      869.065
12/17/2021  18:59:00      -85.956      -25.805       -0.166       71.845       50.281       31.839     5161.759     2528.155     1013.748        0.838        0.435       89.746       31.638        0.124      331.036       -1.209      869.077
12/17/2021  19:00:00     -113.768       13.385      -18.556       61.010       51.480       42.009     3722.248     2650.187     1764.726        1.080        0.407      114.553       24.127        0.044      330.954       -1.343      869.078
12/17/2021  19:01:00      -37.185      -18.469        1.595       51.368       47.792       31.952     2638.674     2284.067     1020.907        0.383        0.297       41.519       29.788        0.515      330.915       -1.406      869.081
12/17/2021  19:02:00      -96.157      -31.665      -13.432       59.709       51.393       30.960     3565.127     2641.233      958.495        0.880        0.358      101.237       24.157        0.057      330.907       -1.420      869.077
12/17/2021  19:03:00     -125.469      -32.298      -16.891       71.232       46.956       35.994     5074.063     2204.824     1295.569        1.282        0.429      129.560       29.424        0.052      330.873       -1.475      869.068
12/17/2021  19:04:00     -138.217      -32.191      -11.584       53.516       54.333       29.767     2863.973     2952.063      886.075        1.349        0.335      141.916       19.007        0.018      330.909       -1.416      869.066
12/17/2021  19:05:00      -98.665      -61.692      -15.004       43.334       59.920       25.802     1877.810     3590.442      665.755        0.995        0.307      116.365       14.888        0.016      330.923       -1.394      869.064
12/17/2021  19:06:00      -58.585      -57.996       -3.233       46.508       43.510       30.499     2162.971     1893.145      930.177        0.590        0.249       82.436       13.835        0.028      330.914       -1.408      869.053
12/17/2021  19:07:00      -63.847       -1.629       -1.921       58.122       38.070       30.814     3378.186     1449.310      949.487        0.493        0.289       63.868       24.566        0.148      330.915       -1.408      869.050
12/17/2021  19:08:00      -25.761       -6.965        1.580       41.671       40.360       24.453     1736.471     1628.969      597.941        0.234        0.198       26.686       16.658        0.390      330.843       -1.525      869.039
12/17/2021  19:09:00     -133.482        0.830      -12.738       71.414       47.673       36.885     5099.991     2272.709     1360.518        1.336        0.437      133.485       32.183        0.058      330.844       -1.524      869.029
12/17/2021  19:10:00     -101.373        3.050        9.905       76.165       45.485       35.794     5801.086     2068.900     1281.233        0.977        0.458      101.419       32.025        0.100      330.859       -1.498      869.016
12/17/2021  19:11:00     -147.599      -17.772       -5.996       65.826       40.760       36.615     4333.048     1661.413     1340.674        1.473        0.367      148.665       38.166        0.066      330.831       -1.544      869.002
12/17/2021  19:12:00     -161.932       -4.777       -9.768       62.762       36.244       32.889     3939.072     1313.602     1081.719        1.634        0.317      162.002       32.002        0.039      330.872       -1.478      868.992
12/17/2021  19:13:00     -166.911       -6.275      -12.175       61.888       31.955       29.457     3830.176     1021.122      867.743        1.688        0.286      167.029       30.015        0.032      330.888       -1.452      868.981
12/17/2021  19:14:00     -176.642       -3.830      -16.652       84.865       52.175       40.311     7202.103     2722.179     1624.959        2.152        0.577      176.683       41.424        0.055      330.896       -1.439      868.969
12/17/2021  19:15:00     -168.624      -28.999       -7.622       64.606       63.314       36.901     4173.966     4008.724     1361.680        1.944        0.477      171.099       39.547        0.053      330.874       -1.475      868.968
12/17/2021  19:16:00     -179.438      -20.727      -11.412       63.931       49.547       38.600     4087.210     2454.927     1489.965        2.039        0.402      180.631       37.115        0.042      330.937       -1.372      868.972
12/17/2021  19:17:00     -115.961      -23.051      -11.155       53.261       30.096       24.572     2836.732      905.763      603.783        0.922        0.217      118.229       25.559        0.047      330.976       -1.306      868.990
12/17/2021  19:18:00      -77.374      -18.016      -10.515       53.836       32.245       33.228     2898.315     1039.761     1104.113        0.573        0.252       79.443       33.021        0.173      330.990       -1.282      869.004
12/17/2021  19:19:00     -148.533      -26.357      -10.464       46.579       42.702       28.238     2169.593     1823.442      797.386        1.383        0.240      150.853       24.238        0.026      330.962       -1.331      869.029
12/17/2021  19:20:00      -60.971       -7.763      -12.104       73.564       29.526       35.776     5411.607      871.786     1279.956        0.574        0.378       61.463       43.904        0.510      330.938       -1.369      869.043
12/17/2021  19:21:00      -38.820        3.429        1.495       39.260       26.866       21.931     1541.336      721.768      480.963        0.213        0.137       38.971       21.352        0.300      330.959       -1.335      869.056
12/17/2021  19:22:00      -21.514        5.073       -5.537       39.834       25.440       21.753     1586.721      647.183      473.208        0.161        0.135       22.104       19.790        0.802      330.950       -1.350      869.066
12/17/2021  19:23:00      -84.294        4.642      -10.119       44.987       27.421       19.071     2023.811      751.938      363.693        0.518        0.157       84.422       10.664        0.016      330.920       -1.400      869.077
12/17/2021  19:24:00     -121.945       22.053       -3.601       39.214       23.972       23.038     1537.775      574.635      530.752        0.901        0.132      123.923       23.122        0.035      330.849       -1.515      869.082
12/17/2021  19:25:00     -104.234       44.255       -4.604       30.500       25.079       17.293      930.247      628.976      299.059        0.735        0.093      113.240       12.832        0.013      330.764       -1.654      869.080
12/17/2021  19:26:00     -113.508       14.184       -0.291       50.323       39.659       24.286     2532.372     1572.873      589.810        0.889        0.235      114.390       24.292        0.045      330.695       -1.766      869.074
12/17/2021  19:27:00     -116.151       41.366        1.071       53.095       32.684       28.109     2819.102     1068.253      790.108        0.994        0.234      123.297       24.436        0.039      330.635       -1.867      869.068
12/17/2021  19:28:00     -106.519       34.650       -2.083       45.813       34.911       28.246     2098.872     1218.798      797.822        0.833        0.206      112.013       21.232        0.036      330.614       -1.899      869.066
12/17/2021  19:29:00      -96.031       23.807       -7.811       35.825       26.000       20.249     1283.413      675.997      410.020        0.611        0.118       98.938       17.759        0.032      330.604       -1.918      869.068
12/17/2021  19:30:00     -106.002       50.417      -21.142       34.309       26.995       21.135     1177.082      728.725      446.682        0.829        0.118      117.381        9.856        0.007      330.566       -1.981      869.073
12/17/2021  19:31:00      -80.135       40.859      -16.614       35.912       28.556       25.192     1289.660      815.451      634.641        0.555        0.137       89.951       21.740        0.058      330.549       -2.009      869.081
12/17/2021  19:32:00      -86.199        8.721      -10.547       48.534       29.862       21.874     2355.546      891.745      478.476        0.567        0.186       86.639       28.190        0.106      330.554       -2.001      869.089
12/17/2021  19:33:00      -42.354       -6.836      -14.172       38.618       19.754       17.229     1491.324      390.237      296.844        0.211        0.109       42.902       14.468        0.114      330.656       -1.833      869.095
12/17/2021  19:34:00      -56.767      -10.951      -21.601       48.129       22.319       25.505     2316.377      498.158      650.498        0.364        0.173       57.814       22.793        0.155      330.651       -1.839      869.083
12/17/2021  19:35:00      -14.852       -0.961      -10.269       45.830       30.358       32.596     2100.427      921.596     1062.521        0.221        0.204       14.883       28.520        3.672      330.588       -1.943      869.076
12/17/2021  19:36:00       16.661       -8.967       -4.251       36.865       24.741       21.928     1359.041      612.108      480.844        0.141        0.123       18.921       19.989        1.116      330.639       -1.860      869.069
12/17/2021  19:37:00       16.598       14.505       -2.455       27.122       33.332       21.039      735.614     1111.047      442.646        0.139        0.114       22.043       16.714        0.575      330.673       -1.803      869.067
12/17/2021  19:38:00       -9.248       18.115      -11.997       35.469       26.371       25.323     1258.024      695.419      641.252        0.158        0.130       20.339       22.460        1.219      330.663       -1.820      869.077
12/17/2021  19:39:00      -25.365       16.073      -17.033       31.261       28.366       18.259      977.235      804.648      333.408        0.165        0.106       30.029       13.562        0.204      330.707       -1.747      869.077
12/17/2021  19:40:00      -72.392        4.246      -16.135       32.244       38.479       18.868     1039.672     1480.665      356.011        0.420        0.144       72.516       11.348        0.024      330.737       -1.698      869.078
12/17/2021  19:41:00      -10.385        3.436       -5.668       38.236       28.105       28.024     1462.011      789.900      785.372        0.159        0.152       10.938       20.405        3.480      330.672       -1.804      869.077
12/17/2021  19:42:00     -113.290      -10.105       -5.762       49.898       30.063       21.188     2489.851      903.810      448.950        0.841        0.192      113.740        3.775        0.001      330.687       -1.781      869.077
12/17/2021  19:43:00      -54.768       -5.725      -12.673       39.945       36.255       28.279     1595.630     1314.398      799.693        0.345        0.185       55.066       19.501        0.125      330.702       -1.755      869.071
12/17/2021  19:44:00      -72.331       15.824      -15.221       43.131       34.370       19.501     1860.247     1181.312      380.300        0.457        0.171       74.042       13.954        0.036      330.736       -1.699      869.081
12/17/2021  19:45:00      -63.154       13.725      -14.329       26.694       21.200       16.480      712.587      449.460      271.593        0.291        0.072       64.629       10.992        0.029      330.704       -1.754      869.081
12/17/2021  19:46:00      -97.965       14.784       -7.232       41.069       21.729       18.141     1686.697      472.166      329.099        0.618        0.124       99.074        5.437        0.003      330.678       -1.795      869.077
12/17/2021  19:47:00      -91.570       24.311      -14.993       30.714       25.778       20.429      943.362      664.502      417.358        0.561        0.101       94.742       15.781        0.028      330.679       -1.794      869.066
12/17/2021  19:48:00     -106.189       16.632      -20.276       23.172       14.854       11.585      536.923      220.635      134.208        0.643        0.045      107.483        7.913        0.005      330.581       -1.957      869.049
12/17/2021  19:49:00      -26.127        1.196       -1.461       34.283       19.428       21.178     1175.348      377.447      448.499        0.134        0.100       26.155       16.267        0.387      330.666       -1.815      869.031
12/17/2021  19:50:00       -3.217        9.646       -8.086       24.674       24.404       15.222      608.804      595.532      231.720        0.080        0.072       10.169       10.474        1.061      330.661       -1.823      869.018
12/17/2021  19:51:00      -39.907       17.241      -14.532       31.751       23.023       15.960     1008.153      530.078      254.706        0.195        0.090       43.472       14.817        0.116      330.713       -1.738      869.006
12/17/2021  19:52:00      -48.998       36.662        0.195       27.984       16.709       16.212      783.079      279.176      262.831        0.253        0.066       61.196       14.629        0.057      330.555       -1.998      869.002
12/17/2021  19:53:00      -41.528       18.366       -5.162       38.601       20.886       15.215     1490.064      436.221      231.508        0.212        0.108       45.408       14.165        0.097      330.590       -1.939      869.005
12/17/2021  19:54:00      -52.717       21.929       -1.262       50.193       24.856       24.661     2519.297      617.839      608.144        0.350        0.187       57.096       19.175        0.113      330.635       -1.865      869.007
12/17/2021  19:55:00      -62.121       16.643       -8.755       50.095       28.278       20.084     2509.470      799.673      403.367        0.396        0.186       64.312       17.380        0.073      330.728       -1.713      869.019
12/17/2021  19:56:00      -53.001        2.949       -5.702       33.588       27.508       21.198     1128.155      756.668      449.344        0.259        0.117       53.083       11.928        0.050      330.739       -1.696      869.040
12/17/2021  19:57:00      -89.932       32.967       -7.394       28.097       22.849       17.356      789.455      522.075      301.232        0.542        0.081       95.784       16.477        0.030      330.599       -1.924      869.069
12/17/2021  19:58:00       -9.815       15.570        5.917       35.760       21.587       20.767     1278.752      465.986      431.258        0.127        0.109       18.405       16.951        0.848      330.578       -1.959      869.100
12/17/2021  19:59:00      -79.893        2.863       -5.250       41.149       21.348       20.731     1693.272      455.737      429.768        0.450        0.129       79.944       20.897        0.068      330.636       -1.864      869.121
12/17/2021  20:00:00     -125.400       31.296      -22.519       13.688       20.340       12.172      187.362      413.712      148.145        0.898        0.037      129.246        5.380        0.002      330.564       -1.982      869.142
12/17/2021  20:01:00      -49.248        6.720       -1.651       54.374       25.060       22.253     2956.528      627.982      495.195        0.328        0.204       49.705       21.763        0.192      330.517       -2.060      869.139
12/17/2021  20:02:00      -36.355       -4.048       -7.709       41.331       30.326       31.431     1708.211      919.651      987.910        0.251        0.181       36.579       27.975        0.585      330.519       -2.056      869.128
12/17/2021  20:03:00       19.861      -18.716        7.225       24.206       16.854       15.196      585.911      284.043      230.922        0.095        0.055       27.290       10.658        0.153      330.616       -1.896      869.124
12/17/2021  20:04:00      -17.704       -7.752       -1.265       69.236       26.114       20.453     4793.565      681.938      418.313        0.313        0.295       19.327       17.180        0.790      330.530       -2.038      869.118
12/17/2021  20:05:00      -65.941       -3.929        2.541       70.784       30.744       24.797     5010.305      945.216      614.916        0.547        0.329       66.058       30.304        0.210      330.482       -2.118      869.112
12/17/2021  20:06:00      -46.999       -9.045       -4.692       42.630       34.010       27.107     1817.355     1156.705      734.803        0.301        0.185       47.861       20.376        0.181      330.486       -2.113      869.118
12/17/2021  20:07:00      -48.090       18.448        4.446       33.883       32.698       24.433     1148.062     1069.136      596.986        0.274        0.141       51.507       14.056        0.074      330.547       -2.013      869.120
12/17/2021  20:08:00      -90.972       16.485        7.300       41.567       37.082       25.389     1727.796     1375.058      644.606        0.617        0.187       92.454       23.600        0.065      330.526       -2.043      869.124
12/17/2021  20:09:00      -82.111       20.262      -17.102       40.330       29.155       17.370     1626.543      849.988      301.702        0.511        0.139       84.574        6.421        0.006      330.479       -2.121      869.123
12/17/2021  20:10:00      -87.266       11.627       -7.432       48.449       28.036       22.068     2347.321      786.038      487.011        0.571        0.181       88.037       18.167        0.043      330.521       -2.054      869.131
12/17/2021  20:11:00     -118.833       15.024       -6.200       51.193       33.821       23.539     2620.766     1143.881      554.077        0.935        0.216      119.779       25.572        0.046      330.554       -1.998      869.140
12/17/2021  20:12:00      -54.699        2.657        1.231       48.706       31.143       21.945     2372.289      969.875      481.600        0.341        0.191       54.763       21.911        0.160      330.530       -2.038      869.148
12/17/2021  20:13:00     -108.602       41.950       -8.790       37.710       28.680       19.175     1422.066      822.531      367.689        0.812        0.131      116.423       17.233        0.022      330.470       -2.136      869.155
12/17/2021  20:14:00     -120.337       29.246       -0.979       51.918       29.788       24.976     2695.510      887.315      623.798        0.977        0.210      123.840       21.774        0.031      330.407       -2.240      869.161
12/17/2021  20:15:00     -111.361       29.980       -2.515       46.170       28.601       24.174     2131.655      817.994      584.365        0.842        0.177      115.326       23.170        0.040      330.531       -2.036      869.160
12/17/2021  20:16:00     -105.047       24.376       -7.520       44.804       25.944       22.356     2007.406      673.067      499.784        0.743        0.159      107.838       21.976        0.042      330.483       -2.116      869.165
12/17/2021  20:17:00     -120.170       10.046       -8.082       33.612       26.703       19.924     1129.782      713.026      396.973        0.842        0.112      120.589       16.737        0.019      330.547       -2.011      869.164
12/17/2021  20:18:00     -112.779       27.423      -13.572       29.457       24.875       22.009      867.741      618.785      484.377        0.781        0.099      116.066       16.998        0.021      330.475       -2.129      869.159
12/17/2021  20:19:00     -107.920       33.508       -5.615       37.514       24.193       18.017     1407.314      585.324      324.618        0.756        0.116      113.003       13.465        0.014      330.403       -2.247      869.152
12/17/2021  20:20:00      -86.183       24.601      -12.276       34.037       26.626       20.509     1158.495      708.938      420.606        0.524        0.114       89.625       17.786        0.039      330.417       -2.222      869.154
12/17/2021  20:21:00      -30.808        9.812       -7.741       49.704       25.203       18.135     2470.493      635.175      328.887        0.227        0.172       32.333       16.048        0.246      330.479       -2.123      869.149
12/17/2021  20:22:00     -103.288       26.530       -4.789       35.685       32.631       19.118     1273.391     1064.751      365.480        0.705        0.135      106.641       14.491        0.018      330.335       -2.359      869.149
12/17/2021  20:23:00      -94.888       27.039      -11.089       39.271       23.943       20.060     1542.203      573.267      402.422        0.619        0.126       98.665        8.088        0.007      330.352       -2.330      869.146
12/17/2021  20:24:00       -3.794      -10.832        0.450       36.304       29.799       30.427     1317.981      887.974      925.787        0.163        0.157       11.477       25.497        4.936      330.373       -2.296      869.140
12/17/2021  20:25:00       -7.372       -4.622        0.828       26.966       14.528       17.391      727.171      211.049      302.449        0.066        0.062        8.701       14.070        2.615      330.358       -2.320      869.135
12/17/2021  20:26:00      -39.008        0.752      -10.055       21.576       24.004       16.812      465.520      576.173      282.658        0.147        0.066       39.015       11.117        0.081      330.374       -2.295      869.122
12/17/2021  20:27:00      -46.205       17.069      -17.467       14.614        9.230       10.722      213.556       85.197      114.954        0.157        0.021       49.257        7.869        0.026      330.396       -2.257      869.115
12/17/2021  20:28:00      -75.699       14.688      -14.051       11.420       11.838        9.730      130.419      140.148       94.683        0.325        0.018       77.111        5.587        0.005      330.407       -2.238      869.112
12/17/2021  20:29:00      -61.932      -10.255       -4.578       32.136       25.357       17.603     1032.741      642.990      309.854        0.297        0.099       62.775       17.768        0.080      330.437       -2.192      869.101
12/17/2021  20:30:00      -36.234        6.164       -4.745       30.510       18.994       23.217      930.851      360.767      539.038        0.160        0.092       36.754       14.479        0.155      330.383       -2.279      869.091
12/17/2021  20:31:00      -67.715        8.170      -13.490       29.776       19.544       15.360      886.616      381.977      235.920        0.317        0.075       68.206        6.190        0.008      330.420       -2.218      869.078
12/17/2021  20:32:00      -70.244       11.254       -3.823       32.209       24.199       16.167     1037.420      585.590      261.363        0.348        0.094       71.139       13.981        0.039      330.399       -2.253      869.065
12/17/2021  20:33:00      -55.465       -7.742       -1.895       29.113       19.113       15.493      847.582      365.313      240.032        0.230        0.073       56.003       13.140        0.055      330.435       -2.194      869.051
12/17/2021  20:34:00      -18.276        7.499        1.331       30.818       20.442       18.706      949.731      417.877      349.932        0.105        0.086       19.755       22.180        1.261      330.386       -2.274      869.049
12/17/2021  20:35:00      -17.433        3.854       -0.020       20.167       18.412       10.417      406.722      339.008      108.512        0.059        0.043       17.854        9.902        0.308      330.327       -2.371      869.046
12/17/2021  20:36:00        3.607        3.270        7.010       21.731       21.636       11.873      472.247      468.128      140.969        0.058        0.054        4.868       12.336        6.421      330.419       -2.220      869.047
12/17/2021  20:37:00       -2.637      -12.300       -0.415       27.192       28.767       14.371      739.422      827.523      206.525        0.097        0.089       12.580       13.701        1.186      330.445       -2.178      869.040
12/17/2021  20:38:00      -20.723        0.984       -2.618       33.616       19.941       14.203     1130.045      397.639      201.725        0.108        0.086       20.746       11.025        0.282      330.441       -2.186      869.028
12/17/2021  20:39:00      -31.056       -9.520       -2.547       45.389       22.887       20.924     2060.122      523.816      437.817        0.204        0.151       32.483       25.586        0.620      330.437       -2.190      869.018
12/17/2021  20:40:00      -14.653       -9.432       -5.649       33.126       24.157       18.006     1097.327      583.558      324.222        0.117        0.100       17.427       10.876        0.389      330.460       -2.153      869.010
12/17/2021  20:41:00      -30.121      -10.285       -1.829       30.131       22.245       16.821      907.871      494.829      282.962        0.135        0.084       31.828       11.802        0.138      330.525       -2.048      869.010
12/17/2021  20:42:00      -17.939       -5.376        2.235       39.403       21.025       17.421     1552.581      442.064      303.481        0.133        0.115       18.727       20.647        1.215      330.483       -2.116      869.010
12/17/2021  20:43:00      -58.081       15.565       -4.663       33.295       29.275       18.933     1108.534      857.037      358.472        0.298        0.116       60.131       17.630        0.086      330.378       -2.288      869.009
12/17/2021  20:44:00      -21.135        5.601        2.421       25.089       18.346       11.824      629.457      336.558      139.817        0.079        0.055       21.865        6.718        0.094      330.284       -2.441      869.014
12/17/2021  20:45:00      -18.919       -6.464        5.223       24.545       24.728       14.056      602.456      611.474      197.575        0.092        0.071       19.993       12.229        0.374      330.322       -2.380      869.012
12/17/2021  20:46:00      -49.916       28.121       -8.795       20.657       21.433       10.441      426.726      459.390      109.010        0.218        0.050       57.292       10.986        0.037      330.324       -2.376      869.009
12/17/2021  20:47:00      -56.643       31.198      -17.505       11.567       15.079       10.376      133.803      227.387      107.654        0.248        0.023       64.666        6.146        0.009      330.337       -2.354      869.004
12/17/2021  20:48:00      -75.902       39.316      -13.534       29.599       20.103       13.034      876.082      404.129      169.880        0.447        0.073       85.480       12.974        0.023      330.348       -2.338      868.996
12/17/2021  20:49:00      -96.970       15.779       -8.724       32.756       24.777       16.558     1072.954      613.918      274.152        0.584        0.098       98.245       16.805        0.029      330.365       -2.309      868.993
12/17/2021  20:50:00      -73.094        4.833       -7.838       28.119       24.336       16.809      790.689      592.248      282.537        0.355        0.083       73.253       15.181        0.043      330.383       -2.279      868.989
12/17/2021  20:51:00      -68.922       12.434       -0.658       46.748       21.179       18.703     2185.373      448.542      349.797        0.394        0.149       70.034       19.538        0.078      330.392       -2.265      868.988
12/17/2021  20:52:00      -80.039        9.613      -12.896       44.094       21.005       19.190     1944.254      441.194      368.246        0.471        0.138       80.614       16.097        0.040      330.300       -2.414      868.985
12/17/2021  20:53:00      -14.886        6.161        2.731       58.213       30.299       19.050     3388.795      918.022      362.906        0.247        0.233       16.111       13.777        0.731      330.352       -2.331      868.985
12/17/2021  20:54:00      -63.090        6.884       -5.636       44.500       30.968       24.182     1980.287      959.044      584.782        0.379        0.176       63.464       24.966        0.155      330.302       -2.413      868.983
12/17/2021  20:55:00      -83.135       13.125       -7.018       30.478       21.518       17.843      928.920      463.016      318.364        0.442        0.086       84.164       11.369        0.018      330.331       -2.363      868.983
12/17/2021  20:56:00      -60.996        9.927        0.227       34.927       24.025       16.696     1219.929      577.190      278.768        0.295        0.104       61.799       17.731        0.082      330.196       -2.586      868.973
12/17/2021  20:57:00      -29.568        4.116       -8.909       29.122       19.911       16.500      848.111      396.428      272.242        0.124        0.076       29.853       17.698        0.351      330.306       -2.405      868.973
12/17/2021  20:58:00      -74.172       12.911       -6.563       30.097       19.687       16.252      905.820      387.576      264.128        0.363        0.078       75.287       13.626        0.033      330.257       -2.487      868.977
12/17/2021  20:59:00      -82.100       30.069       -7.002       21.509       28.416       12.580      462.639      807.443      158.255        0.456        0.071       87.433        6.853        0.006      330.200       -2.579      868.977
12/17/2021  21:00:00      -78.376       12.606       -3.953       25.587       20.765       16.491      654.696      431.189      271.969        0.384        0.068       79.383       15.304        0.037      330.188       -2.599      868.978
12/17/2021  21:01:00      -46.949       21.906      -10.389       17.619       13.610       16.994      310.446      185.235      288.792        0.179        0.039       51.808        8.646        0.028      330.260       -2.482      868.991
12/17/2021  21:02:00      -43.882       24.399      -11.673       14.955       15.628       12.637      223.651      244.227      159.681        0.164        0.031       50.209        8.622        0.029      330.245       -2.505      869.011
12/17/2021  21:03:00      -49.084       21.173       -6.512       21.996       16.745       11.048      483.811      280.396      122.060        0.189        0.044       53.456        9.554        0.032      330.204       -2.572      869.021
12/17/2021  21:04:00      -37.781       -5.135       -8.949       29.169       14.189       12.965      850.804      201.340      168.087        0.138        0.061       38.128       13.957        0.134      330.301       -2.414      869.022
12/17/2021  21:05:00      -46.429       14.420      -12.342       19.054       18.665        9.993      363.060      348.400       99.863        0.166        0.041       48.617        8.891        0.033      330.319       -2.385      869.027
12/17/2021  21:06:00      -67.842       23.672      -12.514       16.882       14.494        9.573      285.002      210.087       91.647        0.295        0.029       71.853        4.730        0.004      330.257       -2.486      869.020
12/17/2021  21:07:00      -21.212       20.922       -0.729       18.716       11.813       11.904      350.272      139.541      141.710        0.076        0.032       29.793       11.015        0.137      330.200       -2.578      869.015
12/17/2021  21:08:00      -21.701       21.641        1.368       19.626       18.913       15.280      385.164      357.684      233.467        0.096        0.049       30.648       10.368        0.114      330.238       -2.516      869.010
12/17/2021  21:09:00      -22.044       30.217       -3.299       17.587       11.785        8.343      309.308      138.885       69.613        0.096        0.026       37.403        6.451        0.030      330.264       -2.474      869.005
12/17/2021  21:10:00      -31.663       26.864       -9.471       13.618       11.319        9.313      185.452      128.120       86.740        0.111        0.020       41.524        5.776        0.019      330.270       -2.465      869.007
12/17/2021  21:11:00      -25.239       21.006       -5.378       12.883       12.861       10.305      165.981      165.403      106.200        0.077        0.022       32.837        9.039        0.076      330.249       -2.497      869.009
12/17/2021  21:12:00        1.812        4.331       -9.872        4.253        5.850        5.893       18.084       34.227       34.733        0.010        0.004        4.695        4.263        0.825      330.242       -2.511      869.022
12/17/2021  21:13:00        2.228       21.817       -3.377       10.465       10.241        6.654      109.509      104.886       44.281        0.038        0.013       21.930        4.201        0.037      330.270       -2.465      869.025
12/17/2021  21:14:00        7.060       20.293       -2.152       13.497        8.329        9.315      182.159       69.376       86.761        0.040        0.017       21.486        5.069        0.056      330.281       -2.445      869.033
12/17/2021  21:15:00       20.706       10.226       -6.914        6.928        4.785        4.364       48.000       22.898       19.043        0.034        0.004       23.094        3.500        0.023      330.265       -2.471      869.031
12/17/2021  21:16:00       12.758        6.683       -6.708        4.976        3.999        3.263       24.758       15.993       10.645        0.015        0.003       14.402        1.462        0.010      330.268       -2.466      869.025
12/17/2021  21:17:00        0.519        7.969       -2.803        7.401        4.530        6.522       54.772       20.525       42.538        0.009        0.006        7.986        5.645        0.500      330.220       -2.547      869.019
12/17/2021  21:18:00      -12.637       22.725      -10.037       10.830        8.256        5.398      117.297       68.156       29.141        0.050        0.011       26.003        3.413        0.017      330.304       -2.408      869.010
12/17/2021  21:19:00      -36.263       15.673       -5.708       11.418       11.352        8.792      130.366      128.857       77.302        0.096        0.017       39.505        5.438        0.019      330.305       -2.407      869.012
12/17/2021  21:20:00      -24.441        3.117       -9.354       15.643       12.344        9.911      244.699      152.376       98.237        0.059        0.025       24.638        2.998        0.015      330.247       -2.501      869.016
12/17/2021  21:21:00      -14.057        5.025       -4.718       16.223       11.670        8.804      263.201      136.185       77.513        0.036        0.024       14.928        4.996        0.112      330.228       -2.534      869.028
12/17/2021  21:22:00       -9.819       -0.996       -4.638       15.101        7.633        8.043      228.036       58.269       64.684        0.023        0.018        9.869        7.488        0.576      330.223       -2.540      869.043
12/17/2021  21:23:00       -7.652        6.548       -8.453        8.848       11.103        7.845       78.283      123.284       61.542        0.022        0.013       10.071        5.260        0.273      330.240       -2.512      869.062
12/17/2021  21:24:00       -9.594       -4.382       -4.143        8.340       19.682        7.843       69.562      387.386       61.508        0.032        0.026       10.547        7.561        0.514      330.266       -2.470      869.083
12/17/2021  21:25:00      -16.495       -4.204      -12.373       10.682       16.703        8.179      114.109      278.984       66.890        0.045        0.023       17.022        5.629        0.109      330.315       -2.389      869.091
12/17/2021  21:26:00        2.766       -8.274       -2.060       12.652       15.436        9.435      160.078      238.260       89.012        0.028        0.024        8.724        9.971        1.306      330.286       -2.438      869.086
12/17/2021  21:27:00       -2.728      -16.623       -2.230        6.484       10.604        7.825       42.048      112.445       61.227        0.025        0.011       16.845        5.505        0.107      330.190       -2.597      869.081
12/17/2021  21:28:00       -1.963       -2.561       -6.500        4.403        4.953        7.042       19.391       24.533       49.589        0.007        0.005        3.226        2.700        0.701      330.096       -2.752      869.074
12/17/2021  21:29:00       -7.835      -10.637       -9.429        6.252       10.253        6.850       39.085      105.131       46.917        0.023        0.010       13.211        4.988        0.143      330.185       -2.603      869.067
12/17/2021  21:30:00       -0.785      -23.481      -16.226        8.723       10.808        7.029       76.085      116.804       49.406        0.053        0.012       23.495        3.156        0.018      330.305       -2.406      869.066
12/17/2021  21:31:00       -7.329      -13.123       -9.835       11.672        9.243        6.764      136.242       85.439       45.755        0.029        0.013       15.031        5.005        0.111      330.339       -2.351      869.066
12/17/2021  21:32:00       -2.955        2.275       -2.833        8.536       17.173       10.027       72.858      294.901      100.535        0.025        0.023        3.730        9.201        6.086      330.213       -2.558      869.073
12/17/2021  21:33:00      -32.482        9.478       -3.460       22.712       12.168       13.058      515.852      148.072      170.518        0.100        0.042       33.837        7.189        0.045      330.132       -2.692      869.074
12/17/2021  21:34:00      -30.224        6.672       -7.708       17.242       12.092        8.897      297.272      146.216       79.157        0.077        0.026       30.952        3.765        0.015      330.120       -2.711      869.080
12/17/2021  21:35:00      -40.651        8.729       -5.736       21.274       15.750       12.486      452.596      248.067      155.907        0.131        0.043       41.577       11.051        0.071      330.115       -2.719      869.090
12/17/2021  21:36:00      -34.956        4.115       -6.462       37.825       15.512       10.133     1430.701      240.617      102.668        0.153        0.089       35.197       14.673        0.174      330.142       -2.676      869.096
12/17/2021  21:37:00      -52.599       10.031       -7.430       20.103       16.268       11.287      404.124      264.644      127.406        0.186        0.040       53.547        9.467        0.031      330.104       -2.736      869.103
12/17/2021  21:38:00      -39.099        8.406      -13.392       15.213       13.802        9.596      231.427      190.501       92.079        0.115        0.026       39.992        5.620        0.020      330.121       -2.708      869.123
12/17/2021  21:39:00      -27.508        7.634      -15.504       27.115       15.582        8.565      735.201      242.801       73.361        0.105        0.053       28.547        2.100        0.005      330.094       -2.753      869.131
12/17/2021  21:40:00        0.826       -8.865       -8.189        5.954        9.204        7.752       35.452       84.714       60.096        0.016        0.009        8.903        5.226        0.345      330.082       -2.774      869.135
12/17/2021  21:41:00      -11.290        6.762       -6.838        9.650       11.139        8.146       93.122      124.075       66.363        0.025        0.014       13.160        5.059        0.148      330.164       -2.639      869.124
12/17/2021  21:42:00      -35.358       11.970       -5.541       13.369        9.048        8.716      178.728       81.861       75.966        0.088        0.017       37.329        3.876        0.011      330.088       -2.763      869.119
12/17/2021  21:43:00      -45.421       13.124       -9.364       13.157       12.299       10.000      173.105      151.268       99.992        0.137        0.021       47.279        5.246        0.012      330.139       -2.680      869.125
12/17/2021  21:44:00      -43.787       11.117      -14.121       21.133       16.797       10.118      446.592      282.154      102.366        0.154        0.042       45.176        9.247        0.042      330.067       -2.798      869.129
12/17/2021  21:45:00      -33.079        7.463       -5.234       20.346       17.803       10.799      413.961      316.948      116.627        0.101        0.042       33.911       10.010        0.087      330.077       -2.782      869.136
12/17/2021  21:46:00      -10.061        1.802       -5.304       11.793       11.373       10.718      139.073      129.353      114.878        0.026        0.019       10.221        7.030        0.473      329.965       -2.963      869.140
12/17/2021  21:47:00      -11.450       10.863       -8.238       18.451       13.357        7.319      340.441      178.407       53.561        0.044        0.029       15.783        6.554        0.172      330.019       -2.877      869.146
12/17/2021  21:48:00      -40.536       21.844      -13.315        7.994        9.681        7.170       63.898       93.730       51.407        0.125        0.010       46.047        4.899        0.011      330.054       -2.818      869.148
12/17/2021  21:49:00      -40.997       18.877      -12.742        8.488        8.655       10.686       72.053       74.903      114.186        0.123        0.013       45.134        6.019        0.018      330.073       -2.789      869.152
12/17/2021  21:50:00      -30.497       11.336      -11.123       11.650       14.411        8.232      135.719      207.668       67.769        0.080        0.021       32.535        2.484        0.006      330.063       -2.804      869.163
12/17/2021  21:51:00      -46.776       15.548      -11.485        8.709       11.991        8.839       75.845      143.790       78.120        0.143        0.015       49.292        6.770        0.019      329.985       -2.932      869.172
12/17/2021  21:52:00      -49.495       14.648      -13.027       10.304        7.875        9.786      106.174       62.015       95.763        0.155        0.013       51.617        6.310        0.015      329.991       -2.921      869.184
12/17/2021  21:53:00      -40.948       12.075      -16.890       12.690       10.686       11.636      161.033      114.195      135.387        0.126        0.021       42.691        2.126        0.002      330.020       -2.875      869.191
12/17/2021  21:54:00      -28.613       18.346       -8.902       13.308       12.453       10.781      177.113      155.077      116.234        0.084        0.022       33.989        5.847        0.030      329.994       -2.918      869.202
12/17/2021  21:55:00      -11.442       19.516      -11.713        8.529       11.547       10.622       72.750      133.336      112.818        0.048        0.016       22.623        7.126        0.099      330.032       -2.856      869.215
12/17/2021  21:56:00       11.867       21.546       -1.310       10.343       10.844        9.591      106.971      117.585       91.986        0.046        0.016       24.598        3.991        0.026      330.080       -2.778      869.225
12/17/2021  21:57:00       45.514       27.835       -3.946       10.209        8.175        6.889      104.231       66.832       47.458        0.154        0.011       53.351        5.145        0.009      330.180       -2.612      869.242
12/17/2021  21:58:00       31.134       11.105       -3.970       15.390        8.866        8.161      236.854       78.609       66.603        0.075        0.019       33.055        4.115        0.015      330.176       -2.621      869.257
12/17/2021  21:59:00       13.657       14.692       -2.536       12.450        7.678        6.762      155.010       58.953       45.724        0.033        0.013       20.059        4.880        0.059      330.162       -2.642      869.269
12/17/2021  22:00:00       18.759       20.181        0.917       18.910       13.422        9.735      357.592      180.162       94.761        0.070        0.032       27.553        8.102        0.086      330.136       -2.684      869.277
12/17/2021  22:01:00       13.737       19.608       -1.369       25.006       13.880       12.290      625.276      192.644      151.048        0.077        0.048       23.941        9.861        0.170      329.983       -2.934      869.276
12/17/2021  22:02:00       11.455       40.851      -11.826       26.536       27.312       14.337      704.173      745.963      205.561        0.180        0.083       42.427       13.042        0.094      330.125       -2.701      869.268
12/17/2021  22:03:00       -1.727       22.932      -13.937       19.586       15.955       13.399      383.609      254.554      179.522        0.077        0.041       22.997        9.710        0.178      330.119       -2.712      869.270
12/17/2021  22:04:00       33.929       36.730       -2.576       31.029       19.671       16.648      962.782      386.965      277.143        0.207        0.081       50.003       11.784        0.056      330.207       -2.568      869.278
12/17/2021  22:05:00       33.198       47.886       -0.605       21.719       26.137       12.434      471.705      683.157      154.605        0.235        0.065       58.268       11.100        0.036      330.236       -2.520      869.283
12/17/2021  22:06:00       48.636       75.136      -11.773       33.716       24.535       15.517     1136.781      601.985      240.786        0.506        0.099       89.504       11.008        0.015      330.369       -2.302      869.285
12/17/2021  22:07:00       30.875       74.510      -11.584       25.148       19.448       13.592      632.401      378.233      184.742        0.392        0.060       80.653        9.622        0.014      330.386       -2.274      869.286
12/17/2021  22:08:00       40.665       44.318       -6.631       29.115       22.813       18.826      847.668      520.417      354.433        0.269        0.086       60.148       16.118        0.072      330.209       -2.565      869.299
12/17/2021  22:09:00       37.080      115.887       -7.441       22.062       36.316       28.226      486.719     1318.835      796.711        0.873        0.130      121.674       20.506        0.028      330.488       -2.107      869.303
12/17/2021  22:10:00       34.866       96.856        0.218       26.254       37.025       22.416      689.285     1370.836      502.471        0.658        0.128      102.941       18.602        0.033      330.448       -2.173      869.305
12/17/2021  22:11:00       36.305      113.611       -7.777       31.194       41.216       21.289      973.077     1698.764      453.231        0.870        0.156      119.270       21.387        0.032      330.527       -2.044      869.300
12/17/2021  22:12:00       39.868      105.945      -14.868       25.013       37.311       20.955      625.667     1392.076      439.107        0.775        0.123      113.198       16.256        0.021      330.523       -2.051      869.308
12/17/2021  22:13:00       26.114       81.438        2.904       29.266       37.422       28.725      856.524     1400.417      825.132        0.520        0.154       85.523       23.584        0.076      330.448       -2.172      869.304
12/17/2021  22:14:00       28.171       78.011       -5.282       26.797       32.513       21.249      718.091     1057.122      451.526        0.457        0.111       82.942       16.728        0.041      330.456       -2.160      869.298
12/17/2021  22:15:00       20.557       48.460       -1.855       25.510       25.547       19.056      650.766      652.653      363.142        0.222        0.083       52.640        7.386        0.020      330.412       -2.231      869.289
12/17/2021  22:16:00        7.411       75.286       -9.703       30.745       26.073       17.591      945.273      679.822      309.449        0.388        0.097       75.650        9.051        0.014      330.313       -2.394      869.290
12/17/2021  22:17:00       28.838       98.473      -16.731       32.555       24.565       22.008     1059.811      603.420      484.342        0.648        0.107      102.609       14.616        0.020      330.498       -2.090      869.292
12/17/2021  22:18:00        5.581       68.330       -3.272       21.341       31.690       18.290      455.440     1004.256      334.511        0.325        0.090       68.558       15.039        0.048      330.397       -2.257      869.292
12/17/2021  22:19:00      -14.438       28.684       -8.266       22.715       27.583       10.555      515.963      760.825      111.407        0.124        0.069       32.113       10.777        0.113      330.275       -2.456      869.302
12/17/2021  22:20:00        1.462       23.654      -13.233       12.232       11.633        9.812      149.631      135.332       96.270        0.056        0.019       23.699        7.338        0.096      330.244       -2.507      869.321
12/17/2021  22:21:00       -9.064       21.488       -4.490       10.918        9.149       12.683      119.202       83.702      160.851        0.046        0.018       23.322        5.082        0.047      330.226       -2.537      869.325
12/17/2021  22:22:00        7.772       13.590        2.594       18.733       17.334       10.155      350.915      300.477      103.128        0.050        0.038       15.656        7.879        0.253      330.343       -2.345      869.327
12/17/2021  22:23:00      -30.461       25.883       -9.856       10.544        9.785        7.858      111.186       95.748       61.756        0.098        0.013       39.972        5.379        0.018      330.141       -2.677      869.331
12/17/2021  22:24:00        0.410       14.197       -2.266       12.520       13.454        7.413      156.743      181.013       54.946        0.030        0.020       14.202        6.405        0.203      330.108       -2.730      869.340
12/17/2021  22:25:00      -24.514        9.081      -11.025       20.421       16.831       12.677      417.000      283.292      160.714        0.083        0.043       26.142        4.613        0.031      330.041       -2.840      869.341
12/17/2021  22:26:00      -47.835       16.746       -6.847       24.517       25.235       19.842      601.080      636.801      393.698        0.212        0.082       50.682        9.837        0.038      330.001       -2.906      869.341
12/17/2021  22:27:00      -57.012       14.051       -1.573       28.943       18.795       15.017      837.673      353.253      225.522        0.243        0.071       58.718       10.783        0.034      330.014       -2.884      869.343
12/17/2021  22:28:00      -56.657        5.504       -8.524       27.031       31.294       15.712      730.693      979.342      246.858        0.263        0.098       56.924       11.304        0.039      329.974       -2.948      869.342
12/17/2021  22:29:00      -59.884       -6.353       -9.996       30.424       24.033       17.141      925.608      577.566      293.823        0.276        0.090       60.220       20.887        0.120      329.914       -3.047      869.346
12/17/2021  22:30:00      -22.950       -6.209        3.931       27.002       13.691       13.910      729.084      187.430      193.500        0.085        0.056       23.775       15.003        0.398      329.949       -2.990      869.352
12/17/2021  22:31:00      -49.567       11.693       -5.261       43.048       29.258       17.364     1853.135      856.021      301.505        0.282        0.151       50.927       20.725        0.166      329.976       -2.944      869.367
12/17/2021  22:32:00      -60.288       10.057       -4.670       32.372       27.981       16.907     1047.948      782.919      285.832        0.294        0.106       61.121       12.344        0.041      329.969       -2.957      869.376
12/17/2021  22:33:00      -32.209       -2.214       -7.997       27.111       24.985       14.538      735.012      624.254      211.367        0.134        0.079       32.285       13.699        0.180      329.929       -3.023      869.390
12/17/2021  22:34:00      -41.543      -29.938      -16.374       19.018       24.715       10.574      361.688      610.823      111.803        0.199        0.054       51.206        7.539        0.022      330.031       -2.855      869.401
12/17/2021  22:35:00      -52.924       -2.405      -15.135       23.441       17.994       17.071      549.458      323.798      291.428        0.210        0.058       52.978       12.397        0.055      329.980       -2.939      869.400
12/17/2021  22:36:00      -25.242       -3.768       -7.504       23.209       19.074       11.642      538.678      363.819      135.528        0.087        0.052       25.522       10.367        0.165      329.955       -2.983      869.403
12/17/2021  22:37:00      -46.459        2.839       -9.418       21.845       14.277       15.704      477.215      203.822      246.612        0.159        0.046       46.545       10.056        0.047      329.990       -2.924      869.408
12/17/2021  22:38:00      -37.256       10.597      -10.360       18.533       14.026        9.153      343.468      196.719       83.782        0.112        0.031       38.734        6.326        0.027      330.043       -2.836      869.417
12/17/2021  22:39:00      -50.304       20.940      -10.372       14.500        8.272        9.969      210.264       68.432       99.371        0.173        0.019       54.488        4.875        0.008      330.008       -2.894      869.413
12/17/2021  22:40:00      -25.955        7.184       -7.376       20.103       14.231       12.903      404.119      202.512      166.482        0.078        0.039       26.931        4.328        0.026      330.012       -2.888      869.405
12/17/2021  22:41:00      -28.582       -1.068       -5.832       24.810       15.918       14.194      615.556      253.395      201.464        0.096        0.054       28.602        8.402        0.086      330.021       -2.874      869.385
12/17/2021  22:42:00        0.209       -9.959       -6.896        8.383       12.303        8.538       70.277      151.369       72.897        0.022        0.015        9.961        8.140        0.668      330.114       -2.722      869.369
12/17/2021  22:43:00        0.854       -6.636       -6.161        4.835        5.688        8.308       23.372       32.355       69.030        0.010        0.006        6.691        2.385        0.127      330.052       -2.823      869.343
12/17/2021  22:44:00       -1.885       -0.459       -2.931        8.063        7.824        9.468       65.012       61.211       89.651        0.011        0.011        1.940        0.739        0.145      330.012       -2.887      869.319
12/17/2021  22:45:00      -16.396       -3.170       -3.627       32.364       15.264       11.740     1047.423      232.995      137.831        0.085        0.071       16.700       11.956        0.513      329.836       -3.176      869.302
12/17/2021  22:46:00      -27.917        6.356        1.558       35.584       18.678       14.485     1266.243      348.885      209.809        0.132        0.091       28.631       18.869        0.434      329.895       -3.079      869.302
12/17/2021  22:47:00      -49.076       13.684       -5.258       22.961       19.065        9.629      527.185      363.472       92.724        0.180        0.049       50.948        6.285        0.015      329.876       -3.109      869.296
12/17/2021  22:48:00      -32.386       -1.526       -2.622       26.078       16.805       10.602      680.074      282.400      112.396        0.107        0.054       32.422       10.102        0.097      329.779       -3.268      869.288
12/17/2021  22:49:00      -29.374       -1.691       -8.526       29.450       14.429       16.313      867.315      208.206      266.102        0.114        0.067       29.423       18.520        0.396      329.852       -3.150      869.284
12/17/2021  22:50:00       -4.602        0.389        3.209       27.745       14.554       12.190      769.800      211.830      148.596        0.058        0.057        4.618       11.165        5.844      329.793       -3.248      869.277
12/17/2021  22:51:00       -0.129       -0.187       -2.532       12.857       16.465       14.215      165.305      271.112      202.062        0.032        0.032        0.227       10.103     1983.189      329.769       -3.286      869.276
12/17/2021  22:52:00       -1.201       -5.022       -4.473       13.905        9.934        9.251      193.356       98.674       85.588        0.021        0.019        5.164        2.731        0.280      329.835       -3.177      869.272
12/17/2021  22:53:00       -6.548       -4.601       -8.692       15.284       11.929       10.182      233.586      142.307      103.679        0.031        0.024        8.003        6.482        0.656      329.827       -3.191      869.260
12/17/2021  22:54:00      -15.923       -0.793       -8.750       25.844       21.400       10.660      667.902      457.948      113.644        0.078        0.062       15.942        9.063        0.323      329.752       -3.314      869.246
12/17/2021  22:55:00       -9.910       -0.596       -0.258       23.670       20.682       21.158      560.283      427.745      447.666        0.077        0.072        9.928       14.896        2.251      329.753       -3.310      869.247
12/17/2021  22:56:00      -39.797        3.122       -2.142       28.889       27.492       19.500      834.579      755.815      380.269        0.178        0.099       39.919       14.664        0.135      329.720       -3.367      869.247
12/17/2021  22:57:00      -29.094      -18.435       -8.362       37.463       23.112       16.759     1403.456      534.148      280.858        0.174        0.111       34.443       18.842        0.299      329.715       -3.373      869.241
12/17/2021  22:58:00     -136.457      -12.183      -10.944       30.976       29.868       23.773      959.504      892.102      565.133        1.065        0.121      137.000       21.213        0.024      329.636       -3.503      869.243
12/17/2021  22:59:00      -69.852      -12.836        4.774       42.601       35.304       26.237     1814.845     1246.382      688.365        0.441        0.187       71.021       21.983        0.096      329.651       -3.479      869.247
12/17/2021  23:00:00      -72.881       -2.188        1.075       39.854       24.332       18.473     1588.345      592.026      341.267        0.392        0.126       72.914       16.972        0.054      329.650       -3.478      869.252
12/17/2021  23:01:00      -36.339       -6.201       -8.595       48.944       27.199       19.119     2395.519      739.799      365.528        0.247        0.175       36.864       18.316        0.247      329.696       -3.404      869.248
12/17/2021  23:02:00      -25.257       -1.917       -0.537       18.947       14.021       14.347      358.997      196.584      205.840        0.070        0.038       25.329        6.635        0.069      329.652       -3.475      869.241
12/17/2021  23:03:00      -18.960        5.825       -3.943       23.819       19.287       13.327      567.350      371.970      177.608        0.076        0.056       19.835        6.007        0.092      329.633       -3.507      869.237
12/17/2021  23:04:00      -43.532      -10.349       -1.155       31.583       28.388       18.721      997.508      805.892      350.473        0.208        0.108       44.745       16.458        0.135      329.697       -3.403      869.232
12/17/2021  23:05:00      -10.269      -11.436       -3.015       28.011       23.931       22.567      784.630      572.692      509.269        0.106        0.093       15.370       16.861        1.203      329.688       -3.418      869.243
12/17/2021  23:06:00      -56.882       -1.978       -3.884       35.572       21.709       15.206     1265.369      471.294      231.217        0.261        0.098       56.916       11.576        0.041      329.625       -3.519      869.251
12/17/2021  23:07:00        8.047       -9.303       -1.940       24.017       12.316       16.851      576.795      151.692      283.940        0.058        0.051       12.300       11.297        0.843      329.602       -3.559      869.260
12/17/2021  23:08:00      -12.834       -4.678        3.413       29.989       21.138       18.127      899.334      446.799      328.583        0.094        0.084       13.660       19.065        1.948      329.631       -3.510      869.261
12/17/2021  23:09:00      -53.560       -4.543       -3.709       33.376       23.307       15.647     1113.983      543.239      244.820        0.240        0.095       53.752       13.650        0.064      329.706       -3.388      869.263
12/17/2021  23:10:00       -9.121      -16.144       -5.004       42.568       18.411       16.288     1812.071      338.960      265.291        0.139        0.121       18.543       17.220        0.862      329.666       -3.454      869.261
12/17/2021  23:11:00      -40.349        5.549       -1.959       30.699       20.847       16.207      942.434      434.612      262.659        0.165        0.082       40.729        9.242        0.051      329.625       -3.520      869.260
12/17/2021  23:12:00        1.194       -1.727        3.492       28.136       20.268       14.878      791.635      410.802      221.367        0.072        0.071        2.099       10.560       25.307      329.645       -3.489      869.269
12/17/2021  23:13:00      -27.168        4.314        4.570       26.195       23.583       17.054      686.179      556.160      290.826        0.116        0.077       27.508       10.518        0.146      329.684       -3.425      869.269
12/17/2021  23:14:00      -28.375       -3.691       -1.565       22.901       18.198       17.464      524.478      331.158      305.001        0.099        0.058       28.614       10.437        0.133      329.647       -3.486      869.271
12/17/2021  23:15:00      -45.970       10.149      -12.707       12.883       20.804       11.166      165.971      432.802      124.682        0.155        0.036       47.077        7.969        0.029      329.659       -3.464      869.278
12/17/2021  23:16:00      -51.360       14.771       -9.507       25.892       24.218       14.792      670.381      586.520      218.804        0.221        0.074       53.442       11.546        0.047      329.616       -3.535      869.279
12/17/2021  23:17:00      -42.044      -13.047       -7.505       29.415       26.326       15.982      865.263      693.067      255.411        0.190        0.091       44.022       12.731        0.084      329.633       -3.508      869.269
12/17/2021  23:18:00       -9.767        0.942        1.366       18.111       20.990       12.625      327.997      440.598      159.397        0.051        0.046        9.813        5.838        0.354      329.737       -3.338      869.271
12/17/2021  23:19:00      -21.732      -12.222       -4.776       19.662       10.707       12.210      386.612      114.641      149.083        0.065        0.033       24.933        9.006        0.130      329.779       -3.267      869.280
12/17/2021  23:20:00      -22.703        0.728      -10.894       19.727       15.978        9.329      389.164      255.311       87.027        0.068        0.037       22.714        8.314        0.134      329.742       -3.329      869.284
12/17/2021  23:21:00       -0.512        1.178       -2.473       14.306       12.165        8.012      204.649      147.989       64.193        0.021        0.021        1.285        4.055        9.966      329.694       -3.408      869.281
12/17/2021  23:22:00      -13.887        4.913        3.650       19.683       19.589       13.865      387.429      383.722      192.235        0.060        0.048       14.730       12.479        0.718      329.662       -3.459      869.281
12/17/2021  23:23:00      -38.673        8.331       -3.054       15.464       17.381       17.115      239.134      302.107      292.923        0.120        0.042       39.560       13.507        0.117      329.669       -3.448      869.279
12/17/2021  23:24:00      -29.801        4.212       -2.603       21.989       11.810        8.756      483.502      139.478       76.665        0.081        0.035       30.097       11.136        0.137      329.667       -3.452      869.280
12/17/2021  23:25:00      -25.631        0.471       -7.387       22.507       18.377       11.690      506.564      337.727      136.656        0.085        0.049       25.636       14.686        0.328      329.674       -3.439      869.281
12/17/2021  23:26:00      -52.329       -3.494       -8.517       13.283       16.959       10.033      176.430      287.609      100.661        0.169        0.028       52.446       10.813        0.043      329.741       -3.331      869.275
12/17/2021  23:27:00      -55.813        4.890       -5.040       16.854       17.514       16.422      284.057      306.729      269.677        0.201        0.043       56.027       11.391        0.041      329.715       -3.375      869.265
12/17/2021  23:28:00      -52.718        4.661       -6.686       25.056       17.821       15.545      627.811      317.581      241.633        0.202        0.059       52.924       11.734        0.049      329.737       -3.338      869.256
12/17/2021  23:29:00      -49.040        2.452       -7.162       25.988       20.401       16.597      675.365      416.184      275.470        0.191        0.068       49.101       10.703        0.048      329.703       -3.392      869.255
12/17/2021  23:30:00      -30.392        0.566       -0.522       24.642       15.386       15.509      607.228      236.732      240.516        0.100        0.054       30.397       16.456        0.293      329.611       -3.542      869.263
12/17/2021  23:31:00      -51.624        0.965       -9.372       29.601       18.042        8.874      876.223      325.498       78.741        0.202        0.064       51.633        5.631        0.012      329.677       -3.437      869.270
12/17/2021  23:32:00      -46.315       -1.616       -3.622       34.144       20.344       18.712     1165.817      413.873      350.129        0.204        0.096       46.344       18.121        0.153      329.638       -3.499      869.265
12/17/2021  23:33:00      -18.018      -11.543       -9.855       31.974       20.055       14.329     1022.310      402.194      205.309        0.109        0.081       21.399       11.970        0.313      329.693       -3.410      869.267
12/17/2021  23:34:00      -64.283        1.987       -8.680       18.974       16.365       11.853      360.021      267.822      140.494        0.249        0.038       64.314        6.009        0.009      329.670       -3.447      869.265
12/17/2021  23:35:00      -69.922        8.373      -12.611       16.348       14.270       11.191      267.248      203.647      125.240        0.286        0.030       70.422        7.944        0.013      329.512       -3.706      869.258
12/17/2021  23:36:00      -61.926       10.690      -13.328       23.344       13.294       10.809      544.928      176.737      116.826        0.248        0.042       62.841        6.761        0.012      329.549       -3.645      869.249
12/17/2021  23:37:00      -67.356       14.867      -12.945       11.761        9.220        8.330      138.330       85.011       69.395        0.261        0.015       68.977        5.457        0.006      329.480       -3.758      869.241
12/17/2021  23:38:00      -76.977       13.758      -11.699       17.109       10.983       10.350      292.719      120.621      107.127        0.339        0.026       78.197        8.216        0.011      329.499       -3.727      869.236
12/17/2021  23:39:00      -67.183        2.342       -3.536       30.212       16.178       15.191      912.763      261.725      230.772        0.297        0.070       67.224       17.334        0.066      329.563       -3.622      869.235
12/17/2021  23:40:00      -90.591       20.006      -11.185       21.281       19.453       18.046      452.880      378.435      325.647        0.494        0.058       92.774       14.099        0.023      329.516       -3.701      869.235
12/17/2021  23:41:00     -102.317       21.550      -12.420       17.487       16.783       13.822      305.784      281.656      191.053        0.593        0.039      104.562       10.816        0.011      329.407       -3.878      869.235
12/17/2021  23:42:00      -86.273       16.043       -6.454       25.679       15.563       15.976      659.424      242.205      255.237        0.445        0.058       87.752       11.938        0.019      329.428       -3.843      869.232
12/17/2021  23:43:00      -69.880       16.582       -7.512       23.441       19.194       14.238      549.498      368.413      202.713        0.317        0.056       71.820       11.881        0.027      329.431       -3.838      869.232
12/17/2021  23:44:00      -55.863       11.292      -13.096       19.911       10.898       15.494      396.449      118.764      240.050        0.209        0.038       56.993       11.746        0.042      329.509       -3.712      869.221
12/17/2021  23:45:00      -39.136       -3.270       -3.817       16.075       19.013       15.667      258.415      361.475      245.450        0.121        0.043       39.272       12.605        0.103      329.531       -3.677      869.221
12/17/2021  23:46:00      -17.821       -5.949       -9.206       23.980       15.975       10.164      575.030      255.189      103.306        0.069        0.047       18.787        9.906        0.278      329.553       -3.636      869.209
12/17/2021  23:47:00       -5.815       -7.311       -9.344       13.692       19.725       11.472      187.476      389.059      131.616        0.044        0.035        9.342       10.665        1.303      329.527       -3.683      869.199
12/17/2021  23:48:00        1.765        4.249       -3.235        5.545        8.571       10.036       30.744       73.454      100.726        0.012        0.010        4.601        5.467        1.412      329.452       -3.804      869.185
12/17/2021  23:49:00      -11.495        5.777       -6.376       25.707       15.171       12.385      660.839      230.147      153.382        0.063        0.052       12.866       14.397        1.252      329.492       -3.739      869.174
12/17/2021  23:50:00      -14.839        0.036      -11.714       26.884       25.812       14.667      722.747      666.255      215.115        0.098        0.080       14.839       13.046        0.773      329.480       -3.760      869.172
12/17/2021  23:51:00      -38.531       -1.406       -5.687       38.541       29.396       13.590     1485.388      864.111      184.699        0.203        0.127       38.557       10.597        0.076      329.449       -3.809      869.167
12/17/2021  23:52:00      -82.952       22.990      -14.031       26.993       20.827       19.934      728.625      433.780      397.362        0.458        0.078       86.079       12.402        0.021      329.397       -3.895      869.166
12/17/2021  23:53:00      -49.701        5.219       -9.213       33.587       21.743       17.927     1128.091      472.768      321.371        0.225        0.096       49.974       18.414        0.136      329.397       -3.895      869.155
12/17/2021  23:54:00      -18.271       -2.481       -3.802       29.279       16.862       13.653      857.233      284.312      186.393        0.084        0.066       18.438       16.178        0.770      329.381       -3.921      869.151
12/17/2021  23:55:00       -5.681       -4.135       -3.864       27.617       22.475       10.669      762.712      505.113      113.832        0.072        0.069        7.026       13.757        3.833      329.398       -3.892      869.143
12/17/2021  23:56:00        8.271        4.428        6.116       13.096        9.223       11.619      171.516       85.066      134.997        0.026        0.020        9.382        8.297        0.782      329.358       -3.956      869.142
12/17/2021  23:57:00      -25.975        8.736       -8.902       31.221       11.523       16.715      974.768      132.784      279.394        0.111        0.069       27.404       15.404        0.316      329.401       -3.887      869.150
12/17/2021  23:58:00      -15.868      -15.695      -10.089       24.533       20.800       15.096      601.883      432.656      227.874        0.093        0.063       22.319        5.241        0.055      329.430       -3.842      869.161
12/17/2021  23:59:00      -30.150        1.057       -9.874       31.515       20.126       16.204      993.178      405.070      262.571        0.133        0.083       30.169       15.631        0.268      329.418       -3.859      869.174
12/18/2021  00:00:00      -36.844       -2.485       -5.789       33.282       20.316       16.689     1107.679      412.721      278.512        0.160        0.090       36.927       10.279        0.077      329.456       -3.797      869.173
12/18/2021  00:01:00      -61.987       18.135       -6.311       24.570       15.050       13.320      603.682      226.515      177.419        0.261        0.050       64.586       13.267        0.042      329.417       -3.862      869.169
12/18/2021  00:02:00      -77.431       20.718      -12.435       16.161       16.215       10.082      261.175      262.934      101.647        0.360        0.031       80.155        4.295        0.003      329.447       -3.813      869.166
12/18/2021  00:03:00      -74.091       17.024      -10.581       13.521       14.709       10.610      182.811      216.367      112.575        0.320        0.026       76.022        6.125        0.006      329.450       -3.809      869.158
12/18/2021  00:04:00      -68.490       16.755       -4.152       16.503       16.015       14.947      272.347      256.487      223.399        0.287        0.038       70.510       11.311        0.026      329.482       -3.755      869.146
12/18/2021  00:05:00      -61.823        6.030       -5.760       13.576       17.928       15.165      184.316      321.430      229.962        0.231        0.037       62.116        6.967        0.013      329.546       -3.651      869.145
12/18/2021  00:06:00      -52.352       -0.941       -9.690       30.174       24.900       15.898      910.481      619.991      252.751        0.231        0.089       52.360       14.945        0.081      329.517       -3.697      869.143
12/18/2021  00:07:00      -46.210        3.218       -8.516       50.864       23.084       15.656     2587.119      532.887      245.115        0.279        0.168       46.322       21.457        0.215      329.432       -3.837      869.147
12/18/2021  00:08:00      -49.093        7.872        0.205       31.276       23.360       21.063      978.217      545.677      443.655        0.222        0.098       49.720       17.653        0.126      329.395       -3.897      869.146
12/18/2021  00:09:00      -43.332        6.851       -4.586       28.773       15.263       11.916      827.867      232.964      141.992        0.157        0.060       43.870        4.050        0.009      329.324       -4.012      869.137
12/18/2021  00:10:00      -48.900       -1.936       -5.638       22.433       25.754       14.441      503.240      663.285      208.540        0.190        0.069       48.939        8.123        0.028      329.435       -3.832      869.127
12/18/2021  00:11:00      -54.938        2.548      -11.152       26.769       16.529       11.751      716.579      273.195      138.081        0.214        0.056       54.997        7.420        0.018      329.405       -3.880      869.122
12/18/2021  00:12:00      -13.995      -12.594       -4.460       25.734       20.852       12.509      662.256      434.788      156.467        0.081        0.063       18.827       11.354        0.364      329.434       -3.834      869.110
12/18/2021  00:13:00      -31.415       12.954       -0.333       32.535       19.028       15.486     1058.527      362.051      239.817        0.141        0.083       33.981       15.200        0.200      329.423       -3.851      869.107
12/18/2021  00:14:00      -39.312        6.497       -5.350       31.425       16.102       17.709      987.525      259.268      313.602        0.159        0.078       39.845       17.541        0.194      329.398       -3.891      869.106
12/18/2021  00:15:00      -59.195       13.777       -6.989       27.783       20.153       16.380      771.875      406.158      268.295        0.259        0.072       60.777       15.452        0.065      329.384       -3.915      869.092
12/18/2021  00:16:00      -68.915        9.789       -4.227       29.363       25.037       15.583      862.188      626.872      242.842        0.330        0.087       69.607       15.091        0.047      329.403       -3.884      869.081
12/18/2021  00:17:00      -14.254      -13.889       -5.773       26.688       23.417       22.714      712.268      548.338      515.911        0.110        0.089       19.902       14.733        0.548      329.360       -3.955      869.064
12/18/2021  00:18:00       -6.543       -1.564       -4.543       39.407       20.483       13.763     1552.908      419.559      189.410        0.111        0.108        6.727       11.871        3.114      329.291       -4.066      869.051
12/18/2021  00:19:00        9.804       -8.339       -9.802       14.230       15.029        9.973      202.507      225.884       99.456        0.039        0.026       12.871        5.860        0.207      329.393       -3.900      869.052
12/18/2021  00:20:00      -16.748      -29.488      -12.703       27.754       10.895       15.140      770.286      118.702      229.208        0.121        0.056       33.912       15.014        0.196      329.329       -4.005      869.047
12/18/2021  00:21:00      -18.618      -17.659       -6.472       22.234       14.978        9.433      494.344      224.339       88.984        0.075        0.040       25.661        8.469        0.109      329.345       -3.977      869.049
12/18/2021  00:22:00      -10.672      -22.255      -13.964        9.644       13.155        9.737       93.015      173.067       94.811        0.058        0.018       24.682        5.969        0.058      329.375       -3.929      869.049
12/18/2021  00:23:00      -18.667      -33.759      -13.638       12.801       14.820       12.129      163.865      219.639      147.120        0.110        0.027       38.577        5.824        0.023      329.423       -3.852      869.041
12/18/2021  00:24:00       -6.205      -22.362       -9.985       12.793       20.067       12.510      163.655      402.694      156.509        0.068        0.036       23.207        6.905        0.089      329.487       -3.747      869.047
12/18/2021  00:25:00      -22.044        0.909       -1.495       19.536       18.777        7.637      381.665      352.562       58.330        0.064        0.040       22.063        5.343        0.059      329.474       -3.768      869.040
12/18/2021  00:26:00      -21.396        2.559       -3.051       28.574       11.418       11.615      816.454      130.374      134.919        0.078        0.054       21.549        6.900        0.103      329.459       -3.793      869.036
12/18/2021  00:27:00        2.721        5.428       -4.038       12.202       10.101        8.466      148.900      102.034       71.681        0.019        0.016        6.072        6.104        1.011      329.398       -3.892      869.033
12/18/2021  00:28:00        9.817       -4.034        2.696       16.163       13.453        9.421      261.227      180.972       88.760        0.033        0.027       10.614        7.471        0.495      329.334       -3.997      869.030
12/18/2021  00:29:00      -26.991        7.437       -2.178       20.070       16.971        9.471      402.811      288.025       89.709        0.078        0.039       27.997        6.022        0.046      329.331       -4.002      869.033
12/18/2021  00:30:00      -13.771      -12.372      -11.247       16.901       16.171       14.192      285.657      261.504      201.425        0.061        0.037       18.512       12.733        0.473      329.367       -3.943      869.027
12/18/2021  00:31:00      -39.447       12.869      -11.476       21.195       17.602       11.358      449.233      309.814      128.996        0.137        0.044       41.493       14.571        0.123      329.335       -3.995      869.018
12/18/2021  00:32:00      -28.905       -1.575       -8.264       22.675       16.028       13.388      514.165      256.911      179.248        0.093        0.048       28.948        9.198        0.101      329.362       -3.950      869.006
12/18/2021  00:33:00      -62.595        9.955      -10.017       14.325       13.000       11.306      205.211      169.010      127.832        0.231        0.025       63.382        6.394        0.010      329.357       -3.960      868.985
12/18/2021  00:34:00      -62.250        7.136       -5.600       30.983       18.672       11.778      959.972      348.630      138.719        0.270        0.072       62.658        7.832        0.016      329.344       -3.981      868.977
12/18/2021  00:35:00      -36.745        3.943       -6.845       36.547       19.732       14.582     1335.669      389.332      212.624        0.167        0.097       36.956       12.256        0.110      329.304       -4.047      868.967
12/18/2021  00:36:00      -70.265       10.791       -9.638       26.224       18.677       14.048      687.693      348.849      197.340        0.319        0.062       71.089        9.190        0.017      329.288       -4.071      868.955
12/18/2021  00:37:00      -46.441        5.962        2.857       41.266       22.926       19.982     1702.884      525.619      399.292        0.241        0.131       46.822       23.949        0.262      329.262       -4.113      868.944
12/18/2021  00:38:00      -66.926       15.355       -8.398       31.001       15.845       16.354      961.090      251.080      267.452        0.313        0.074       68.664       15.978        0.054      329.241       -4.148      868.930
12/18/2021  00:39:00      -55.905       14.234       -2.414       24.470       16.806       14.366      598.795      282.457      206.391        0.221        0.054       57.689       12.735        0.049      329.271       -4.100      868.919
12/18/2021  00:40:00      -65.652       10.872       -8.676       27.520       19.978       11.913      757.346      399.130      141.920        0.290        0.065       66.546        7.744        0.014      329.246       -4.141      868.918
12/18/2021  00:41:00      -77.921       17.697       -8.021       24.821       19.305       14.810      616.095      372.691      219.350        0.383        0.060       79.905       13.867        0.030      329.223       -4.177      868.913
12/18/2021  00:42:00      -65.261        2.397       -6.853       38.742       19.283       12.776     1500.956      371.835      163.237        0.317        0.102       65.305       14.611        0.050      329.276       -4.092      868.896
12/18/2021  00:43:00      -42.323       -1.203       -4.239       30.071       23.007       20.878      904.256      529.328      435.874        0.184        0.093       42.340       17.366        0.168      329.327       -4.009      868.888
12/18/2021  00:44:00      -58.390       14.430       -5.758       24.953       29.776       20.754      622.671      886.619      430.726        0.280        0.097       60.147       18.408        0.094      329.336       -3.994      868.876
12/18/2021  00:45:00      -73.188       24.511       -7.519       20.559       17.142       15.188      422.668      293.832      230.662        0.348        0.047       77.183        8.689        0.013      329.242       -4.148      868.862
12/18/2021  00:46:00      -22.584       -6.381       -1.963       24.251       33.370       19.505      588.105     1113.544      380.442        0.132        0.104       23.468       11.392        0.236      329.329       -4.004      868.859
12/18/2021  00:47:00      -52.515       32.255       -2.960       20.812       22.836       14.865      433.144      521.474      220.958        0.249        0.059       61.630       11.822        0.037      329.217       -4.189      868.867
12/18/2021  00:48:00      -46.811       12.998       -3.041       30.652       17.053       18.446      939.517      290.795      340.267        0.197        0.079       48.583       18.956        0.152      329.169       -4.266      868.877
12/18/2021  00:49:00      -47.184        8.099       -5.783       23.803       20.976       14.869      566.587      439.992      221.079        0.178        0.061       47.874       13.085        0.075      329.178       -4.252      868.875
12/18/2021  00:50:00      -22.571      -17.904       -7.513       23.363       16.224        9.689      545.841      263.214       93.883        0.089        0.045       28.810        3.557        0.015      329.255       -4.125      868.876
12/18/2021  00:51:00      -17.605      -18.648      -15.284       13.932       17.343       14.039      194.102      300.784      197.088        0.079        0.035       25.645        6.392        0.062      329.326       -4.009      868.867
12/18/2021  00:52:00       -4.210      -12.231       -4.031        8.850       11.552       11.168       78.320      133.455      124.733        0.026        0.017       12.935        7.812        0.365      329.260       -4.117      868.855
12/18/2021  00:53:00      -38.929        9.694      -14.760       23.427       20.836       14.347      548.836      434.119      205.827        0.151        0.059       40.118       12.812        0.102      329.253       -4.129      868.847
12/18/2021  00:54:00      -13.764       10.994        2.202       20.716       17.516       16.358      429.166      306.827      267.589        0.066        0.050       17.616        8.764        0.247      329.203       -4.212      868.844
12/18/2021  00:55:00      -38.843        6.218      -10.823       17.613       13.266       11.024      310.213      175.992      121.537        0.114        0.030       39.338        3.815        0.009      329.281       -4.082      868.853
12/18/2021  00:56:00      -48.135       10.029       -9.414       16.617       11.013        9.375      276.111      121.293       87.884        0.150        0.024       49.168        3.683        0.006      329.280       -4.085      868.860
12/18/2021  00:57:00      -41.279        5.636       -9.822       26.313       18.290       10.205      692.355      334.532      104.144        0.148        0.057       41.662        5.663        0.018      329.229       -4.168      868.888
12/18/2021  00:58:00      -43.841        2.842       -3.581       22.247       21.553       13.168      494.944      464.517      173.396        0.154        0.057       43.933       11.749        0.072      329.203       -4.213      868.909
12/18/2021  00:59:00      -43.821       -3.508       -7.947       24.257       27.102       18.253      588.381      734.507      333.154        0.183        0.083       43.962        9.515        0.047      329.203       -4.211      868.924
12/18/2021  01:00:00      -23.074       -5.252       -3.826       22.418       17.931       14.984      502.547      321.518      224.514        0.081        0.052       23.665       11.884        0.252      329.304       -4.045      868.937
12/18/2021  01:01:00      -48.358        0.616       -3.344       19.646       23.217       16.135      385.957      539.042      260.345        0.177        0.059       48.362       11.017        0.052      329.253       -4.130      868.947
12/18/2021  01:02:00      -14.844      -13.171       -1.502       25.727       20.228       15.759      661.872      409.182      248.349        0.086        0.066       19.845        5.681        0.082      329.294       -4.062      868.950
12/18/2021  01:03:00        7.067      -15.093        3.301       10.106       11.769        8.952      102.132      138.516       80.134        0.030        0.016       16.666        4.571        0.075      329.212       -4.196      868.961
12/18/2021  01:04:00      -24.651       13.072       -7.322       17.684       12.563       12.003      312.726      157.821      144.083        0.072        0.031       27.903        8.296        0.088      329.204       -4.210      868.959
12/18/2021  01:05:00      -35.535        4.014      -12.305       12.613       13.001       10.648      159.077      169.037      113.391        0.094        0.022       35.761        4.885        0.019      329.291       -4.066      868.951
12/18/2021  01:06:00      -45.698       17.994      -11.966       12.320       13.591       11.513      151.784      184.719      132.550        0.151        0.023       49.113        6.307        0.016      329.171       -4.264      868.934
12/18/2021  01:07:00      -33.775        1.871       -0.968       28.334       12.570       15.711      802.835      158.000      246.844        0.118        0.060       33.826       16.969        0.252      329.182       -4.246      868.927
12/18/2021  01:08:00      -42.611        1.855       -2.412       28.717       21.030       15.254      824.667      442.279      232.693        0.166        0.075       42.651       12.705        0.089      329.192       -4.231      868.922
12/18/2021  01:09:00      -23.163       -6.967       -8.427       27.559       22.657       13.058      759.493      513.334      170.519        0.105        0.072       24.188        7.652        0.100      329.206       -4.205      868.912
12/18/2021  01:10:00      -17.787       -7.136       -6.447       33.419       18.911       14.933     1116.806      357.629      223.004        0.105        0.085       19.165        6.714        0.123      329.263       -4.112      868.901
12/18/2021  01:11:00      -17.187        0.492       -6.471       24.578       14.292       18.452      604.100      204.263      340.471        0.074        0.057       17.194       14.317        0.693      329.232       -4.163      868.895
12/18/2021  01:12:00      -44.222        4.697        0.015       24.538       23.687       18.018      602.099      561.052      324.646        0.173        0.074       44.471       15.683        0.124      329.132       -4.328      868.884
12/18/2021  01:13:00      -33.398        1.202       -2.893       28.713       21.999       13.938      824.434      483.941      194.278        0.131        0.075       33.420       16.516        0.244      329.145       -4.306      868.875
12/18/2021  01:14:00       -5.411       -6.806       -6.219       19.631        9.572       11.367      385.382       91.628      129.202        0.036        0.030        8.695       11.575        1.772      329.207       -4.204      868.866
12/18/2021  01:15:00      -36.476        3.710       -8.355       19.491        9.431       10.513      379.883       88.953      110.513        0.100        0.029       36.664        9.299        0.064      329.138       -4.317      868.859
12/18/2021  01:16:00        1.186      -20.921       -7.553        9.769       17.264        9.398       95.429      298.045       88.322        0.049        0.024       20.955        5.525        0.070      329.167       -4.270      868.850
12/18/2021  01:17:00      -10.978        1.333       -6.964       11.894       16.014        9.897      141.474      256.463       97.950        0.033        0.025       11.058        7.796        0.497      329.297       -4.056      868.848
12/18/2021  01:18:00       12.049       20.104       -3.154       10.137        7.866        7.277      102.764       61.872       52.954        0.039        0.011       23.438        2.653        0.013      329.276       -4.090      868.858
12/18/2021  01:19:00        2.800        5.207       -5.797        8.918       13.500        7.205       79.532      182.263       51.910        0.019        0.016        5.912        4.396        0.553      329.303       -4.046      868.873
12/18/2021  01:20:00        5.425      -32.100      -12.877       13.972       12.735       11.579      195.205      162.184      134.071        0.086        0.025       32.555        7.511        0.053      329.436       -3.831      868.881
12/18/2021  01:21:00       -8.919      -17.649       -8.193       11.540       12.455        8.317      133.178      155.134       69.180        0.041        0.018       19.775        5.775        0.085      329.389       -3.907      868.881
12/18/2021  01:22:00      -16.349       -1.655       -7.074       12.286        7.533       10.415      150.945       56.753      108.478        0.032        0.016       16.433        5.727        0.121      329.222       -4.180      868.894
12/18/2021  01:23:00        3.875        0.643       -2.652        8.932       10.239        7.112       79.772      104.830       50.578        0.013        0.012        3.928        4.064        1.070      329.090       -4.396      868.903
12/18/2021  01:24:00       -1.844       -3.046      -12.663        7.356        7.897        9.610       54.110       62.355       92.355        0.019        0.010        3.561        4.157        1.363      329.052       -4.458      868.910
12/18/2021  01:25:00       -1.407       -0.843       -5.634        5.057        5.764        6.622       25.568       33.224       43.845        0.007        0.005        1.640        3.203        3.814      329.161       -4.280      868.913
12/18/2021  01:26:00       -2.170       -1.916       -3.506       10.846        9.421        6.789      117.639       88.746       46.087        0.014        0.013        2.895        4.173        2.078      329.244       -4.145      868.913
12/18/2021  01:27:00       -1.983      -10.474       -8.744        9.228        8.551        7.204       85.148       73.122       51.903        0.020        0.011       10.660        4.522        0.180      329.238       -4.152      868.908
12/18/2021  01:28:00       -5.829       -9.824       -5.251        8.856       11.246        8.895       78.429      126.475       79.130        0.022        0.014       11.423        4.487        0.154      329.241       -4.150      868.903
12/18/2021  01:29:00       -7.426      -11.286       -8.173       10.524       11.514        9.191      110.756      132.584       84.483        0.029        0.016       13.510        6.661        0.243      329.263       -4.113      868.892
12/18/2021  01:30:00       -4.016        7.601       -2.687       10.347        8.158        8.176      107.055       66.553       66.841        0.016        0.012        8.596        7.417        0.744      329.103       -4.374      868.884
12/18/2021  01:31:00       -6.495        1.860       -9.426       16.540       10.696        7.742      273.585      114.406       59.937        0.029        0.022        6.756        5.615        0.691      329.091       -4.395      868.872
12/18/2021  01:32:00      -12.841       -9.587       -3.400       14.254        7.595        9.708      203.163       57.689       94.250        0.031        0.018       16.025        3.847        0.058      329.096       -4.384      868.872
12/18/2021  01:33:00      -22.527        6.735       -5.864       21.179       11.960       11.991      448.550      143.042      143.773        0.066        0.037       23.512       12.102        0.265      329.149       -4.301      868.861
12/18/2021  01:34:00        3.918       -7.035       -3.484        6.610        6.958       12.733       43.695       48.416      162.135        0.017        0.013        8.053        6.322        0.616      329.105       -4.371      868.862
12/18/2021  01:35:00       -0.781       -1.376       -7.424        4.723        7.075        7.786       22.310       50.049       60.620        0.010        0.007        1.582        6.092       14.835      329.189       -4.235      868.859
12/18/2021  01:36:00      -24.868       -0.969       -3.805       12.879       11.472       10.754      165.864      131.602      115.639        0.052        0.021       24.887        3.783        0.023      329.188       -4.235      868.863
12/18/2021  01:37:00      -26.178        4.544       -8.180       33.361       19.785       16.984     1112.929      391.455      288.451        0.128        0.090       26.569       12.703        0.229      329.099       -4.382      868.859
12/18/2021  01:38:00      -21.241       -8.839       -3.990       36.382       26.363       24.436     1323.679      694.991      597.116        0.158        0.131       23.007       22.901        0.991      328.979       -4.576      868.862
12/18/2021  01:39:00      -55.501      -11.394       -1.099       57.245       35.480       26.056     3277.036     1258.812      678.929        0.421        0.261       56.659       22.328        0.155      328.973       -4.587      868.866
12/18/2021  01:40:00      -28.639       -1.759      -20.290       69.642       29.047       23.189     4850.003      843.757      537.722        0.373        0.312       28.693       18.712        0.425      328.993       -4.554      868.860
12/18/2021  01:41:00     -104.923       -2.484      -13.528       43.702       23.380       21.225     1909.832      546.602      450.494        0.705        0.145      104.952       22.101        0.044      328.821       -4.834      868.854
12/18/2021  01:42:00      -35.622       -3.852        0.272       35.784       23.595       23.839     1280.481      556.706      568.293        0.184        0.120       35.830       18.386        0.263      328.905       -4.698      868.843
12/18/2021  01:43:00       -8.689       15.419       -4.215       24.025       23.247       20.422      577.184      540.434      417.074        0.093        0.077       17.698       13.282        0.563      328.911       -4.689      868.825
12/18/2021  01:44:00      -63.452       -7.740       -3.199       44.784       27.154       23.012     2005.630      737.364      529.530        0.368        0.164       63.922       26.232        0.168      328.862       -4.766      868.808
12/18/2021  01:45:00      -45.697       -9.176       -2.021       33.068       21.494       20.213     1093.523      461.983      408.577        0.207        0.098       46.609       17.299        0.138      328.878       -4.743      868.804
12/18/2021  01:46:00      -22.950       -5.021       -8.648       29.996       18.111       17.017      899.740      328.014      289.565        0.107        0.076       23.493       10.059        0.183      328.883       -4.732      868.793
12/18/2021  01:47:00      -36.267       -4.118      -12.533       40.313       25.033       20.622     1625.127      626.662      425.275        0.208        0.134       36.500       22.915        0.394      328.874       -4.748      868.785
12/18/2021  01:48:00       -4.894        1.292        2.501       27.287       29.325       11.612      744.574      859.980      134.845        0.089        0.087        5.062        7.807        2.379      328.869       -4.757      868.784
12/18/2021  01:49:00      -52.682       17.608       -2.379       48.873       27.169       19.615     2388.540      738.180      384.743        0.330        0.176       55.547       25.833        0.216      328.829       -4.821      868.785
12/18/2021  01:50:00      -44.904       -2.326       -6.307       35.503       29.303       23.134     1260.465      858.661      535.165        0.236        0.133       44.965       18.077        0.162      328.922       -4.670      868.786
12/18/2021  01:51:00      -50.656       13.378       -1.567       30.181       21.791       14.508      910.912      474.868      210.492        0.217        0.080       52.393       14.134        0.073      328.946       -4.631      868.781
12/18/2021  01:52:00      -50.271       11.191       -4.597       22.638       19.566       17.295      512.473      382.816      299.130        0.193        0.060       51.502       10.014        0.038      328.905       -4.696      868.781
12/18/2021  01:53:00      -29.019        4.466       -1.693       34.375       19.234       15.842     1181.651      369.952      250.978        0.133        0.090       29.360       15.705        0.286      328.872       -4.751      868.784
12/18/2021  01:54:00      -42.051        0.392       -7.925       36.612       36.934       16.752     1340.445     1364.111      280.631        0.241        0.149       42.053       17.528        0.174      328.889       -4.723      868.789
12/18/2021  01:55:00      -76.234       22.482       -5.445       22.258       20.399       18.444      495.418      416.116      340.190        0.380        0.063       79.480       12.169        0.023      328.832       -4.816      868.800
12/18/2021  01:56:00      -37.862        9.373       -3.132       39.041       24.098       16.411     1524.237      580.727      269.319        0.195        0.119       39.005       13.004        0.111      328.904       -4.698      868.800
12/18/2021  01:57:00      -82.714        9.587      -11.582       28.618       25.635       19.375      818.999      657.130      375.400        0.446        0.093       83.268       16.803        0.041      328.869       -4.756      868.798
12/18/2021  01:58:00      -16.646        4.178       -2.785       36.319       24.747       16.382     1319.068      612.406      268.382        0.125        0.110       17.162        4.201        0.060      328.911       -4.687      868.790
12/18/2021  01:59:00      -12.598      -12.685       -5.285       22.022       13.389       13.992      484.966      179.267      195.764        0.060        0.043       17.878       11.561        0.418      328.869       -4.757      868.791
12/18/2021  02:00:00       -6.593       -9.150       -5.962       18.554       16.159       11.266      344.241      261.107      126.917        0.045        0.037       11.278       10.392        0.849      328.928       -4.659      868.799
12/18/2021  02:01:00      -47.997        8.155      -10.403       25.322       17.484       13.544      641.216      305.696      183.436        0.180        0.057       48.685        8.171        0.028      328.937       -4.645      868.801
12/18/2021  02:02:00      -78.153       28.022      -16.450       14.747       11.417        9.382      217.484      130.346       88.016        0.380        0.022       83.025        4.310        0.003      328.832       -4.817      868.801
12/18/2021  02:03:00      -83.860       35.825      -16.959       19.022       12.873       10.146      361.839      165.702      102.948        0.462        0.032       91.192        5.474        0.004      328.820       -4.836      868.799
12/18/2021  02:04:00      -97.668       43.443       -9.699       15.259       14.700       12.506      232.839      216.090      156.407        0.606        0.030      106.894        9.308        0.008      328.804       -4.862      868.790
12/18/2021  02:05:00      -41.619        2.380       -3.942       39.456       20.003       16.414     1556.815      400.102      269.415        0.199        0.111       41.687       21.312        0.261      328.922       -4.671      868.784
12/18/2021  02:06:00        5.010      -14.249      -11.223        9.598        9.317        9.878       92.122       86.806       97.580        0.032        0.014       15.104        6.105        0.163      328.976       -4.583      868.778
12/18/2021  02:07:00       -5.197      -14.943      -12.239        9.637       11.243       11.238       92.873      126.404      126.289        0.037        0.017       15.821        6.812        0.185      329.112       -4.359      868.783
12/18/2021  02:08:00       -4.346      -23.107        0.606       10.150       12.235        9.121      103.016      149.701       83.193        0.044        0.017       23.513        3.209        0.019      329.154       -4.292      868.777
12/18/2021  02:09:00      -27.409        1.285       -8.111       31.691       17.089       12.058     1004.296      292.037      145.388        0.113        0.072       27.439       16.508        0.362      329.018       -4.513      868.774
12/18/2021  02:10:00      -58.832       21.459       -8.091       24.509       15.531       10.654      600.702      241.207      113.507        0.247        0.048       62.623        6.377        0.010      328.977       -4.580      868.765
12/18/2021  02:11:00      -39.863       10.613       -9.122       36.989       18.048       15.974     1368.200      325.734      255.170        0.187        0.097       41.252       19.669        0.227      329.034       -4.487      868.762
12/18/2021  02:12:00       -5.313       -9.307       -0.130       17.451        8.902       14.560      304.527       79.243      211.997        0.036        0.030       10.716       12.322        1.322      328.962       -4.605      868.755
12/18/2021  02:13:00      -25.195        6.152       -3.455       37.885       17.751       13.818     1435.247      315.087      190.947        0.131        0.097       25.935       19.036        0.539      328.959       -4.610      868.749
12/18/2021  02:14:00      -88.233       31.473      -11.564       15.034       11.649       14.175      226.019      135.693      200.933        0.474        0.028       93.678        8.696        0.009      328.795       -4.876      868.749
12/18/2021  02:15:00      -74.335        8.872      -11.097       36.168       29.454       20.227     1308.117      867.563      409.146        0.416        0.129       74.863       19.154        0.065      328.913       -4.684      868.748
12/18/2021  02:16:00      -88.309       13.145       -7.119       27.453       24.124       21.611      753.665      581.956      467.033        0.491        0.090       89.282       17.744        0.039      328.892       -4.719      868.743
12/18/2021  02:17:00     -106.005       24.069      -10.543       24.813       25.130       15.574      615.703      631.519      242.536        0.671        0.074      108.703       12.778        0.014      328.931       -4.654      868.739
12/18/2021  02:18:00      -90.752       18.748       -5.891       40.170       28.578       17.683     1613.647      816.689      312.692        0.568        0.137       92.669       15.901        0.029      328.946       -4.631      868.733
12/18/2021  02:19:00     -105.001       29.824      -11.099       31.835       27.972       19.002     1013.476      782.432      361.089        0.710        0.108      109.155       13.724        0.016      328.972       -4.588      868.729
12/18/2021  02:20:00      -70.226       41.256        0.992       36.694       26.027       20.881     1346.477      677.385      436.021        0.455        0.123       81.447       17.279        0.045      328.850       -4.788      868.723
12/18/2021  02:21:00      -56.628       37.121        6.979       38.711       21.833       23.906     1498.521      476.678      571.509        0.359        0.127       67.710       24.768        0.134      328.719       -5.000      868.724
12/18/2021  02:22:00      -91.906       44.992       -7.554       27.354       25.659       19.323      748.244      658.373      373.383        0.615        0.089      102.328       14.176        0.019      328.780       -4.901      868.726
12/18/2021  02:23:00     -108.042       55.990       -6.260       37.695       24.265       24.237     1420.886      588.812      587.431        0.872        0.130      121.688       22.842        0.035      328.762       -4.931      868.730
12/18/2021  02:24:00      -74.678       31.769       -3.191       34.732       21.222       21.295     1206.324      450.374      453.474        0.435        0.106       81.155       19.660        0.059      328.788       -4.888      868.739
12/18/2021  02:25:00      -68.314       24.952       -1.445       30.948       20.708       18.950      957.801      428.809      359.103        0.352        0.087       72.728       17.884        0.060      328.772       -4.914      868.751
12/18/2021  02:26:00      -78.296       41.316       -6.207       20.169       17.197        9.986      406.804      295.734       99.728        0.434        0.040       88.528        9.544        0.012      328.793       -4.879      868.759
12/18/2021  02:27:00      -72.521       24.436       -8.816       20.130       20.467       13.719      405.215      418.906      188.205        0.347        0.051       76.527        9.947        0.017      328.900       -4.705      868.769
12/18/2021  02:28:00      -74.817       22.550       -5.851       28.269       23.684       13.237      799.163      560.917      175.206        0.384        0.077       78.142       13.520        0.030      328.891       -4.720      868.774
12/18/2021  02:29:00      -34.667       22.707       -4.997       30.523       21.325       14.426      931.651      454.741      208.115        0.167        0.080       41.441       10.879        0.069      328.853       -4.783      868.779
12/18/2021  02:30:00      -40.305       -6.033      -11.066       30.308       28.289       11.805      918.552      800.247      139.366        0.182        0.093       40.754        9.119        0.050      328.932       -4.656      868.768
12/18/2021  02:31:00      -43.124        7.207       -3.544       23.126       24.728       11.983      534.834      611.454      143.591        0.161        0.064       43.722       10.807        0.061      328.905       -4.697      868.769
12/18/2021  02:32:00      -15.759        1.434        0.901       22.836       21.682       15.138      521.496      470.128      229.156        0.074        0.061       15.824        8.970        0.321      328.986       -4.564      868.773
12/18/2021  02:33:00      -31.799       11.863       -1.888       24.132       26.444       11.762      582.347      699.304      138.351        0.129        0.071       33.939        5.456        0.026      328.972       -4.588      868.788
12/18/2021  02:34:00      -26.886       -1.255       -7.781       28.753       19.016       13.498      826.754      361.614      182.185        0.108        0.069       26.915       15.675        0.339      328.955       -4.616      868.807
12/18/2021  02:35:00       -7.925      -11.047       -4.471       31.865       21.918       12.206     1015.355      480.396      148.988        0.092        0.082       13.596       11.907        0.767      328.959       -4.608      868.808
12/18/2021  02:36:00       -0.341       -0.989       -4.036        8.849        7.256        7.338       78.314       52.657       53.848        0.010        0.009        1.046        6.084       33.811      328.976       -4.581      868.811
12/18/2021  02:37:00      -16.356        3.103      -10.535       14.982       17.839        6.731      224.459      318.237       45.311        0.049        0.029       16.647        5.147        0.096      328.970       -4.590      868.805
12/18/2021  02:38:00       -1.277      -17.764       -9.057       15.428       13.946       10.111      238.034      194.494      102.239        0.047        0.027       17.810        7.926        0.198      328.995       -4.551      868.797
12/18/2021  02:39:00        2.978       -9.363       -1.489       11.191       21.347        7.021      125.246      455.707       49.294        0.036        0.032        9.825        3.182        0.105      328.992       -4.557      868.786
12/18/2021  02:40:00       -6.622      -22.097      -11.292       13.066       13.511       12.021      170.708      182.542      144.498        0.058        0.025       23.068       10.755        0.217      329.097       -4.385      868.776
12/18/2021  02:41:00      -18.769      -10.933      -12.492       10.497       14.048       11.883      110.189      197.351      141.205        0.054        0.022       21.721        6.943        0.102      329.022       -4.507      868.767
12/18/2021  02:42:00      -12.374        0.919       -8.658       12.823       15.614       11.195      164.422      243.788      125.333        0.038        0.027       12.408        9.299        0.562      329.010       -4.527      868.768
12/18/2021  02:43:00      -28.712        8.743       -1.685       29.331       11.259       12.255      860.316      126.760      150.174        0.102        0.057       30.014       14.303        0.227      328.928       -4.660      868.772
12/18/2021  02:44:00       -6.780       -7.385        3.513       17.760       19.384       13.596      315.422      375.747      184.848        0.049        0.044       10.025       11.636        1.347      328.872       -4.753      868.769
12/18/2021  02:45:00       -3.198       -6.026      -12.406       19.509       15.720       11.421      380.605      247.113      130.437        0.048        0.038        6.822        9.433        1.912      328.929       -4.659      868.764
12/18/2021  02:46:00        2.038       -8.649       -4.278       10.359       11.016        8.613      107.310      121.342       74.190        0.020        0.015        8.886        3.601        0.164      328.928       -4.660      868.763
12/18/2021  02:47:00      -13.224        0.176       -3.745       22.594       17.667       13.071      510.491      312.110      170.843        0.059        0.050       13.225       10.493        0.630      328.928       -4.660      868.758
12/18/2021  02:48:00        5.607      -14.519       -5.392       16.347       22.210       14.940      267.237      493.295      223.204        0.063        0.049       15.564       12.347        0.629      328.988       -4.562      868.756
12/18/2021  02:49:00       -3.714      -13.744      -10.803       13.451       17.263       13.643      180.928      298.017      186.138        0.049        0.033       14.237        9.788        0.473      328.974       -4.586      868.763
12/18/2021  02:50:00      -40.022       -6.306       -7.158       19.034       21.385       14.405      362.291      457.337      207.501        0.136        0.051       40.516        5.246        0.017      328.866       -4.761      868.769
12/18/2021  02:51:00        1.911       -9.147        3.568       22.020       14.300       17.592      484.890      204.478      309.491        0.055        0.050        9.344       15.426        2.725      328.789       -4.887      868.762
12/18/2021  02:52:00        9.255      -15.430        0.929       12.463       28.260       15.836      155.320      798.642      250.779        0.076        0.060       17.993        6.024        0.112      328.879       -4.740      868.759
12/18/2021  02:53:00       -4.791       -8.416       -3.744       20.342       14.162       14.672      413.810      200.576      215.265        0.047        0.041        9.685        8.267        0.729      328.884       -4.731      868.759
12/18/2021  02:54:00      -31.072       -6.826       -3.054       25.308       31.144       19.561      640.485      969.933      382.635        0.151        0.100       31.813       17.605        0.306      328.856       -4.777      868.754
12/18/2021  02:55:00      -55.566        8.865       -5.060       33.288       29.785       20.446     1108.080      887.117      418.046        0.280        0.121       56.269       19.429        0.119      328.872       -4.751      868.743
12/18/2021  02:56:00      -89.555       20.688       -3.178       34.186       21.955       20.645     1168.686      482.019      426.206        0.527        0.104       91.913       20.882        0.052      328.832       -4.817      868.735
12/18/2021  02:57:00      -92.439       15.992       -6.759       25.009       20.309       16.703      625.466      412.451      279.006        0.508        0.066       93.812       13.702        0.021      328.821       -4.835      868.727
12/18/2021  02:58:00      -93.284       19.657       -8.090       25.397       23.689       17.682      644.986      561.175      312.636        0.534        0.076       95.332       11.255        0.014      328.721       -4.999      868.726
12/18/2021  02:59:00      -33.997       14.616       -3.137       32.750       18.541       19.734     1072.539      343.783      389.419        0.159        0.090       37.006       17.653        0.228      328.794       -4.878      868.720
12/18/2021  03:00:00      -55.796       12.066      -13.822       17.381       16.943       14.667      302.103      287.058      215.124        0.213        0.040       57.086       10.501        0.034      328.768       -4.921      868.705
12/18/2021  03:01:00      -65.942       25.936      -13.902       15.444       12.355       11.831      238.504      152.654      139.973        0.287        0.027       70.860        6.443        0.008      328.737       -4.971      868.692
12/18/2021  03:02:00      -80.650       31.239      -13.975       11.614       16.674        9.904      134.878      278.012       98.097        0.409        0.026       86.489        1.994        0.001      328.718       -5.003      868.683
12/18/2021  03:03:00      -11.195       -6.069        3.151       27.270       19.072       13.183      743.661      363.756      173.790        0.073        0.064       12.735        1.789        0.020      328.884       -4.733      868.676
12/18/2021  03:04:00        1.831       -2.250        0.263       12.893       12.229       11.073      166.235      149.545      122.612        0.022        0.022        2.901        8.486        8.555      328.857       -4.777      868.671
12/18/2021  03:05:00        0.393        0.996       -3.689       15.592       10.501        8.428      243.117      110.277       71.026        0.022        0.021        1.070        5.101       22.713      328.857       -4.775      868.660
12/18/2021  03:06:00      -18.001       25.622       -7.614        7.393        6.419        6.885       54.653       41.205       47.398        0.059        0.007       31.313        3.613        0.013      328.807       -4.858      868.656
12/18/2021  03:07:00        2.718       16.441       -9.755       13.015        9.878        6.167      169.380       97.572       38.037        0.034        0.015       16.664        4.359        0.068      328.913       -4.683      868.648
12/18/2021  03:08:00       19.899        9.201       -9.448       14.010       10.443       10.824      196.284      109.065      117.162        0.050        0.021       21.924        9.914        0.204      329.009       -4.529      868.646
12/18/2021  03:09:00       39.343       12.290      -10.511        6.553        6.887        4.847       42.940       47.437       23.490        0.096        0.006       41.218        1.837        0.002      329.010       -4.527      868.641
12/18/2021  03:10:00       16.524       -3.397       -5.907       16.377       12.534       12.778      268.211      157.109      163.267        0.045        0.029       16.869        9.584        0.323      329.067       -4.432      868.643
12/18/2021  03:11:00       23.570       23.565       -0.946        9.604       13.979        5.604       92.244      195.405       31.403        0.072        0.016       33.329        4.646        0.019      329.061       -4.443      868.639
12/18/2021  03:12:00       14.381       23.897        0.419       11.182        8.639        7.725      125.041       74.633       59.670        0.052        0.013       27.890        6.201        0.049      329.080       -4.411      868.632
12/18/2021  03:13:00       17.614       19.686        0.094       11.191        8.442        6.677      125.230       71.274       44.576        0.047        0.012       26.416        5.008        0.036      329.111       -4.363      868.625
12/18/2021  03:14:00       18.828       24.444        1.163        9.637        5.528        8.051       92.876       30.563       64.818        0.057        0.009       30.855        1.693        0.003      329.099       -4.380      868.620
12/18/2021  03:15:00        2.229       14.819       -7.575        7.834       12.765        9.475       61.376      162.947       89.784        0.030        0.016       14.986        7.569        0.255      329.058       -4.445      868.623
12/18/2021  03:16:00        8.801       17.596       -3.492        9.789        9.664        8.972       95.828       93.385       80.489        0.033        0.013       19.674        5.611        0.081      329.024       -4.503      868.624
12/18/2021  03:17:00       11.037        6.790       -9.212       10.009       11.020        7.478      100.184      121.435       55.916        0.027        0.014       12.958        5.205        0.161      329.008       -4.528      868.626
12/18/2021  03:18:00       15.248      -11.434      -11.549        8.424        8.483        6.646       70.960       71.969       44.172        0.034        0.009       19.059        2.580        0.018      329.045       -4.470      868.621
12/18/2021  03:19:00       17.366      -16.368      -11.432        7.499       11.251        8.278       56.239      126.596       68.525        0.048        0.013       23.864        2.554        0.011      329.099       -4.381      868.609
12/18/2021  03:20:00        6.217       -8.748       -3.458        7.894       15.183       13.760       62.323      230.530      189.325        0.030        0.024       10.732        7.581        0.499      329.030       -4.492      868.604
12/18/2021  03:21:00       15.854        1.336      -12.339       10.759        8.623        8.317      115.746       74.354       69.169        0.033        0.013       15.910        4.572        0.083      328.964       -4.601      868.604
12/18/2021  03:22:00       -8.123      -12.850       -6.084       17.386       17.073        8.423      302.259      291.494       70.940        0.047        0.033       15.202        5.583        0.135      329.130       -4.330      868.611
12/18/2021  03:23:00       -2.223      -15.207      -14.654       11.274       17.016       14.076      127.108      289.528      198.136        0.053        0.031       15.369       11.337        0.544      329.077       -4.416      868.606
12/18/2021  03:24:00       13.090        0.529      -13.836       15.743       16.238       11.164      247.849      263.688      124.637        0.050        0.032       13.101        6.447        0.242      328.937       -4.646      868.604
12/18/2021  03:25:00       20.983       -0.507       -3.287       14.413       18.908       10.526      207.743      357.516      110.803        0.056        0.034       20.989        7.250        0.119      328.846       -4.794      868.603
12/18/2021  03:26:00       16.297       -6.404       -4.859       18.431       23.301       16.935      339.706      542.937      286.809        0.075        0.058       17.510       15.853        0.820      328.874       -4.749      868.593
12/18/2021  03:27:00       48.074       -2.644      -16.966       22.975       31.357       19.042      527.858      983.248      362.616        0.224        0.094       48.147       13.450        0.078      328.813       -4.848      868.584
12/18/2021  03:28:00       50.168       -7.515       -9.677       38.099       28.104       21.618     1451.548      789.825      467.353        0.269        0.135       50.728       17.704        0.122      328.837       -4.808      868.575
12/18/2021  03:29:00       70.713      -21.858      -12.757       24.297       22.001       19.411      590.328      484.049      376.789        0.355        0.073       74.014       11.609        0.025      328.779       -4.904      868.570
12/18/2021  03:30:00       26.923       -0.115       -5.126       32.780       24.372       20.188     1074.557      593.972      407.538        0.141        0.104       26.923       15.256        0.321      328.794       -4.879      868.576
12/18/2021  03:31:00       19.170      -11.597       -2.366       26.182       14.358       16.772      685.497      206.141      281.296        0.084        0.059       22.405       17.320        0.598      328.799       -4.870      868.578
12/18/2021  03:32:00       27.663       -5.514       -4.769       27.381       15.225       14.892      749.699      231.794      221.762        0.101        0.060       28.208       13.622        0.233      328.853       -4.783      868.591
12/18/2021  03:33:00       26.366      -18.521      -14.682       29.094       21.918       21.550      846.452      480.411      464.394        0.152        0.090       32.220        7.975        0.061      328.949       -4.627      868.594
12/18/2021  03:34:00       13.902       -1.423      -13.793       19.921       23.752       23.480      396.865      564.144      551.325        0.095        0.076       13.974        9.553        0.467      329.002       -4.538      868.586
12/18/2021  03:35:00       35.978      -13.430      -10.268       25.522       28.587       20.836      651.381      817.190      434.143        0.174        0.095       38.403       15.301        0.159      329.001       -4.540      868.583
12/18/2021  03:36:00       23.338       -9.313       -4.862       20.104       18.514       14.686      404.187      342.755      215.685        0.081        0.048       25.128       11.302        0.202      328.930       -4.657      868.582
12/18/2021  03:37:00       28.570      -14.256       -9.805       12.033       17.187        8.355      144.800      295.401       69.805        0.081        0.026       31.929        6.836        0.046      328.924       -4.665      868.585
12/18/2021  03:38:00       31.571      -23.275       -3.452       15.685       17.490       14.056      246.011      305.917      197.559        0.115        0.037       39.223        9.180        0.055      328.958       -4.611      868.568
12/18/2021  03:39:00       34.810      -21.591       -3.361       31.266       16.346       14.569      977.578      267.198      212.264        0.157        0.073       40.962       13.032        0.101      328.940       -4.641      868.538
12/18/2021  03:40:00       47.974      -21.755       -6.998       23.153       17.166       13.526      536.054      294.682      182.957        0.192        0.051       52.676       12.411        0.056      328.914       -4.681      868.518
12/18/2021  03:41:00       40.467      -26.939      -12.615       18.569       18.309       12.784      344.812      335.231      163.443        0.168        0.042       48.614        3.601        0.005      328.973       -4.588      868.512
12/18/2021  03:42:00       46.965      -15.541       -7.211       18.737       14.932       11.478      351.063      222.952      131.744        0.160        0.035       49.470        7.912        0.026      328.912       -4.686      868.504
12/18/2021  03:43:00       42.039      -20.363       -6.573       32.119       16.050       15.076     1031.635      257.604      227.295        0.187        0.076       46.711       15.503        0.110      328.909       -4.691      868.494
12/18/2021  03:44:00       62.016      -18.913       -6.932       32.647       16.387       12.647     1065.849      268.522      159.942        0.287        0.075       64.836        9.383        0.021      328.896       -4.712      868.501
12/18/2021  03:45:00       -0.607       -3.688       -7.634       20.929       27.594       17.186      438.013      761.438      295.360        0.078        0.075        3.737       11.348        9.219      329.015       -4.518      868.491
12/18/2021  03:46:00       23.339       12.074      -19.268       34.676       34.781       24.899     1202.431     1209.692      619.982        0.205        0.152       26.277        6.815        0.067      328.926       -4.662      868.480
12/18/2021  03:47:00       26.669       -6.374       -3.413       30.784       28.784       16.957      947.668      828.516      287.542        0.141        0.103       27.420       14.167        0.267      328.857       -4.776      868.464
12/18/2021  03:48:00       43.252       -3.690      -11.393       22.660       21.947       13.725      513.465      481.669      188.383        0.160        0.059       43.409        7.467        0.030      328.876       -4.745      868.455
12/18/2021  03:49:00       49.183       -6.954       -8.876       20.916       24.363       15.149      437.477      593.560      229.503        0.190        0.063       49.672        7.715        0.024      328.880       -4.736      868.444
12/18/2021  03:50:00       36.423        5.361       -3.577       20.520       22.648       10.678      421.063      512.947      114.024        0.121        0.052       36.815        6.640        0.033      328.880       -4.738      868.436
12/18/2021  03:51:00       33.371       -5.161       -8.388       18.890       19.627       14.475      356.849      385.237      209.512        0.108        0.048       33.768        9.330        0.076      328.867       -4.760      868.431
12/18/2021  03:52:00       26.763       19.783        1.037       25.701       16.950       11.383      660.544      287.303      129.564        0.109        0.054       33.281        7.971        0.057      328.842       -4.801      868.425
12/18/2021  03:53:00       49.607       17.704      -10.715       28.344       16.978       10.930      803.371      288.263      119.471        0.205        0.061       52.672        8.094        0.024      328.835       -4.811      868.426
12/18/2021  03:54:00       76.260       22.583      -11.721        7.366        8.971        6.813       54.258       80.470       46.411        0.332        0.009       79.534        3.564        0.002      328.805       -4.860      868.429
12/18/2021  03:55:00       57.493       16.502       -8.392       23.610       20.242       12.975      557.409      409.746      168.350        0.239        0.057       59.814       10.100        0.029      328.850       -4.789      868.437
12/18/2021  03:56:00       33.480       27.183       -4.161       27.946       35.513       17.738      780.959     1261.152      314.620        0.212        0.118       43.126       13.772        0.102      328.862       -4.766      868.429
12/18/2021  03:57:00       68.100       31.593      -13.497       19.346       26.222       16.694      374.266      687.607      278.678        0.358        0.067       75.071       11.435        0.023      328.817       -4.842      868.429
12/18/2021  03:58:00       41.128        8.044        0.771       23.999       30.481       17.969      575.961      929.099      322.879        0.179        0.091       41.907        9.054        0.047      328.781       -4.901      868.426
12/18/2021  03:59:00       52.770        4.326       -8.119       30.689       14.481        9.785      941.801      209.711       95.751        0.206        0.062       52.947       12.013        0.051      328.797       -4.872      868.431
12/18/2021  04:00:00       56.370       12.409      -17.740       22.065       18.815       12.389      486.868      354.012      153.495        0.232        0.050       57.720        5.070        0.008      328.812       -4.849      868.437
12/18/2021  04:01:00       58.936       29.969       -9.919       10.499       13.182        8.997      110.221      173.764       80.943        0.242        0.018       66.118        1.327        0.000      328.763       -4.928      868.424
12/18/2021  04:02:00       66.998       19.071      -17.891        9.736       13.694        9.320       94.795      187.519       86.857        0.277        0.018       69.660        6.933        0.010      328.752       -4.946      868.407
12/18/2021  04:03:00       53.628       24.974      -14.019       10.942       10.984       10.118      119.725      120.649      102.369        0.202        0.017       59.158        6.653        0.013      328.770       -4.918      868.398
12/18/2021  04:04:00       27.478       13.227       -5.041       10.353       13.703        9.643      107.192      187.785       92.987        0.067        0.019       30.496        6.272        0.042      328.810       -4.852      868.403
12/18/2021  04:05:00       47.886       15.243       -9.532        8.417        8.635        6.831       70.847       74.566       46.663        0.140        0.010       50.254        4.142        0.007      328.800       -4.868      868.413
12/18/2021  04:06:00       54.144        8.196       -8.102        7.441        7.691        6.879       55.363       59.149       47.326        0.161        0.008       54.761        3.540        0.004      328.792       -4.882      868.421
12/18/2021  04:07:00       53.256       26.000      -11.839        8.947       13.526        5.361       80.045      182.963       28.742        0.197        0.015       59.264        4.777        0.006      328.818       -4.840      868.424
12/18/2021  04:08:00       53.487       37.064      -10.191       12.905        8.620       10.360      166.538       74.307      107.325        0.234        0.017       65.074        4.695        0.005      328.817       -4.841      868.430
12/18/2021  04:09:00       56.539       34.114       -8.272       11.935       16.844       11.368      142.442      283.718      129.232        0.249        0.028       66.034        6.155        0.009      328.846       -4.796      868.436
12/18/2021  04:10:00       25.671       -5.573       -7.425       17.112       26.633       10.048      292.807      709.322      100.965        0.092        0.055       26.269        5.934        0.051      328.947       -4.629      868.444
12/18/2021  04:11:00       25.663      -26.414      -11.816       20.931       16.821       11.668      438.089      282.949      136.149        0.118        0.043       36.828       10.976        0.089      328.950       -4.625      868.452
12/18/2021  04:12:00       21.070       -2.846      -15.478       13.617       20.788       12.913      185.429      432.150      166.744        0.074        0.039       21.261        6.134        0.083      328.914       -4.683      868.455
12/18/2021  04:13:00       11.850       -4.214       -2.621       15.354       10.289        7.721      235.740      105.854       59.607        0.028        0.020       12.577        8.358        0.442      328.931       -4.655      868.461
12/18/2021  04:14:00       25.001       11.915       -2.254       17.384       12.218        7.650      302.209      149.268       58.530        0.064        0.026       27.695        5.029        0.033      328.898       -4.708      868.469
12/18/2021  04:15:00       34.764       -2.266       -8.007       15.703       18.816       11.592      246.596      354.060      134.368        0.101        0.037       34.838       10.346        0.088      328.983       -4.570      868.476
12/18/2021  04:16:00       27.056      -10.255      -15.077       18.254       19.285       13.749      333.219      371.929      189.046        0.098        0.045       28.934       11.215        0.150      328.943       -4.635      868.464
12/18/2021  04:17:00       27.481      -11.926      -10.810       15.910       20.081       13.673      253.133      403.231      186.959        0.093        0.042       29.957        4.719        0.025      328.925       -4.665      868.453
12/18/2021  04:18:00       28.608       18.815       -8.428       15.711       15.693       10.162      246.825      246.257      103.258        0.092        0.030       34.241        8.074        0.056      328.918       -4.676      868.449
12/18/2021  04:19:00       64.933       40.372       -9.967       15.178       14.981        7.900      230.381      224.419       62.416        0.323        0.026       76.460        7.522        0.010      328.891       -4.722      868.445
12/18/2021  04:20:00       64.885       32.419      -13.393       12.443        8.821        8.854      154.835       77.814       78.401        0.288        0.016       72.533        4.547        0.004      328.867       -4.757      868.438
12/18/2021  04:21:00       46.930       16.632       -9.403       18.328       15.066       14.393      335.905      226.974      207.172        0.167        0.039       49.790        9.769        0.038      328.934       -4.650      868.426
12/18/2021  04:22:00       58.330       22.929      -12.548       12.342       12.542       11.759      152.315      157.290      138.262        0.227        0.022       62.675        6.029        0.009      328.884       -4.730      868.420
12/18/2021  04:23:00       44.172       18.543      -15.005       16.221       15.207       11.859      263.106      231.239      140.638        0.158        0.032       47.906        6.251        0.017      328.928       -4.661      868.410
12/18/2021  04:24:00       26.987        7.759       -3.229       25.096       20.843       14.347      629.799      434.412      205.828        0.103        0.064       28.081        5.652        0.041      328.936       -4.646      868.407
12/18/2021  04:25:00       38.926       13.867      -10.387       17.829       14.820        9.876      317.886      219.631       97.527        0.123        0.032       41.323        8.124        0.039      328.958       -4.610      868.406
12/18/2021  04:26:00       27.375       13.904      -11.267       11.792       18.071       11.408      139.053      326.551      130.146        0.083        0.030       30.704        8.713        0.081      328.978       -4.579      868.405
12/18/2021  04:27:00       10.607       -6.466       -8.659       15.336       10.920        9.215      235.202      119.242       84.922        0.033        0.022       12.423        8.715        0.492      328.949       -4.627      868.410
12/18/2021  04:28:00       25.675       10.137       -9.252        6.869        5.534        8.679       47.180       30.624       75.330        0.050        0.008       27.604        3.548        0.017      328.921       -4.671      868.401
12/18/2021  04:29:00       28.222       19.165       -8.690        7.258        8.016        5.522       52.679       64.257       30.493        0.069        0.007       34.114        1.793        0.003      328.992       -4.557      868.387
12/18/2021  04:30:00       24.656       30.836       -4.823       15.127       12.623       10.048      228.812      159.351      100.955        0.104        0.024       39.482        7.579        0.037      328.985       -4.566      868.390
12/18/2021  04:31:00       43.623       30.175       -9.990       15.004       21.478       13.168      225.107      461.321      173.384        0.189        0.043       53.043        6.505        0.015      328.994       -4.552      868.392
12/18/2021  04:32:00       21.523      -20.866       -9.836       16.343       20.567       13.335      267.100      422.996      177.835        0.093        0.043       29.977       11.009        0.135      329.075       -4.422      868.397
12/18/2021  04:33:00       31.628      -25.439      -14.271        9.090        6.535        6.703       82.631       42.703       44.936        0.101        0.009       40.589        4.571        0.013      328.940       -4.639      868.406
12/18/2021  04:34:00       27.711      -27.684      -20.393        9.626        8.884        5.400       92.657       78.923       29.164        0.108        0.010       39.170        4.148        0.011      328.938       -4.643      868.417
12/18/2021  04:35:00       12.625      -13.558      -13.327        6.575        6.735       10.197       43.233       45.360      103.987        0.036        0.010       18.526        5.484        0.088      329.023       -4.505      868.431
12/18/2021  04:36:00       15.617       -4.709       -7.189        6.372        9.422       10.162       40.602       88.783      103.269        0.028        0.012       16.312        4.548        0.078      329.021       -4.510      868.438
12/18/2021  04:37:00       11.128        7.004       -5.156       10.641       10.344        7.862      113.231      107.008       61.808        0.024        0.014       13.148        7.003        0.284      328.996       -4.550      868.447
12/18/2021  04:38:00       -2.203        6.972       -9.534        9.427       10.304        6.194       88.866      106.167       38.364        0.019        0.012        7.312        5.832        0.636      328.950       -4.623      868.452
12/18/2021  04:39:00      -35.026       26.599       -8.923       27.000       11.546       12.741      728.993      133.315      162.346        0.152        0.051       43.981        5.149        0.014      328.919       -4.675      868.463
12/18/2021  04:40:00      -88.126       31.644       -7.756       19.265       14.469       14.699      371.154      209.341      216.068        0.481        0.040       93.635       11.963        0.016      328.832       -4.818      868.468
12/18/2021  04:41:00      -72.367       12.406       -8.057       31.529       25.695       18.077      994.066      660.221      326.787        0.372        0.099       73.423        6.710        0.008      328.889       -4.722      868.472
12/18/2021  04:42:00      -59.154        6.062      -12.776       54.468       28.230       17.402     2966.779      796.909      302.819        0.388        0.203       59.464       16.120        0.073      328.914       -4.683      868.479
12/18/2021  04:43:00      -91.764       24.728       -4.550       39.297       26.256       18.398     1544.285      689.361      338.498        0.581        0.129       95.037       22.432        0.056      328.839       -4.806      868.484
12/18/2021  04:44:00      -91.001       26.606       -8.966       24.483       21.177       16.109      599.399      448.469      259.484        0.519        0.065       94.811        9.138        0.009      328.823       -4.833      868.473
12/18/2021  04:45:00      -60.959       26.306      -12.420       19.987       21.037       18.084      399.494      442.555      327.031        0.287        0.058       66.392        9.247        0.019      328.841       -4.802      868.449
12/18/2021  04:46:00      -84.862       23.458      -16.313       33.453       24.054       19.152     1119.135      578.575      366.782        0.504        0.103       88.044       12.008        0.019      328.821       -4.835      868.418
12/18/2021  04:47:00      -76.328       19.502      -12.386       37.929       29.699       21.543     1438.647      882.037      464.092        0.457        0.139       78.780       22.170        0.079      328.806       -4.858      868.404
12/18/2021  04:48:00      -89.228       32.386      -17.608       33.895       25.000       18.023     1148.856      624.998      324.825        0.571        0.105       94.923       11.985        0.016      328.748       -4.954      868.402
12/18/2021  04:49:00      -82.744       45.749      -13.634       25.448       20.060       20.244      647.594      402.417      409.837        0.529        0.073       94.550       11.598        0.015      328.744       -4.959      868.397
12/18/2021  04:50:00      -73.557       35.468      -16.640       23.903       23.999       20.781      571.375      575.967      431.850        0.426        0.079       81.662       13.060        0.026      328.800       -4.869      868.400
12/18/2021  04:51:00      -76.312       26.057      -13.516       26.388       19.202       18.835      696.351      368.704      354.756        0.405        0.071       80.638       12.748        0.025      328.773       -4.914      868.402
12/18/2021  04:52:00      -75.125       16.905      -14.810       34.615       20.171       16.039     1198.196      406.886      257.244        0.401        0.093       77.003       14.710        0.036      328.875       -4.747      868.400
12/18/2021  04:53:00      -57.480       21.822      -12.133       32.818       16.456       17.863     1077.039      270.790      319.074        0.280        0.083       61.483       17.778        0.084      328.812       -4.848      868.386
12/18/2021  04:54:00      -61.018        9.980      -10.275       36.578       21.182       15.092     1337.954      448.674      227.765        0.297        0.101       61.829       18.842        0.093      328.849       -4.787      868.366
12/18/2021  04:55:00       -9.476       -3.944       -1.411       21.113       15.441       18.434      445.743      238.412      339.819        0.057        0.051       10.264       15.453        2.267      328.892       -4.718      868.365
12/18/2021  04:56:00      -57.939       -1.945       -9.330       18.147       19.345       12.864      329.306      374.245      165.492        0.216        0.043       57.971        9.031        0.024      328.834       -4.814      868.376
12/18/2021  04:57:00       -9.577      -25.174      -15.428       12.599       17.502       11.362      158.744      306.322      129.096        0.078        0.030       26.934        8.429        0.098      328.861       -4.769      868.382
12/18/2021  04:58:00      -18.227       -1.559      -11.739       11.343       10.148       12.546      128.665      102.975      157.395        0.043        0.019       18.294        7.991        0.191      328.921       -4.671      868.393
12/18/2021  04:59:00      -28.961        8.864       -1.071       14.628        6.977       10.532      213.993       48.682      110.914        0.065        0.019       30.287       10.210        0.114      328.865       -4.762      868.389
12/18/2021  05:00:00      -29.811       14.347      -10.243        7.921        8.005        7.962       62.736       64.077       63.400        0.069        0.010       33.083        2.442        0.005      328.869       -4.755      868.376
12/18/2021  05:01:00      -25.796       12.999       -9.142        9.703       10.967        6.997       94.144      120.281       48.962        0.059        0.013       28.886        5.821        0.041      328.895       -4.713      868.359
12/18/2021  05:02:00      -20.077       23.880       -7.037       11.587        7.054        6.212      134.250       49.753       38.590        0.062        0.011       31.198        2.938        0.009      328.950       -4.624      868.360
12/18/2021  05:03:00      -20.408       23.179       -9.648       12.511        8.662        9.513      156.528       75.032       90.491        0.068        0.016       30.883        8.235        0.071      328.917       -4.679      868.378
12/18/2021  05:04:00      -42.690       19.175      -12.912        8.292       10.530        8.089       68.754      110.886       65.426        0.130        0.012       46.799        6.417        0.019      328.886       -4.730      868.400
12/18/2021  05:05:00      -31.569        7.063      -11.641       11.531       14.946        8.766      132.957      223.393       76.847        0.081        0.022       32.349        4.058        0.016      328.890       -4.721      868.418
12/18/2021  05:06:00      -12.678       14.576       -5.108        7.543        9.484       10.386       56.897       89.949      107.864        0.033        0.013       19.318        5.067        0.069      328.874       -4.748      868.419
12/18/2021  05:07:00       -5.061       11.911       -2.810       23.262        8.879        9.630      541.102       78.831       92.743        0.044        0.036       12.941        5.284        0.167      328.867       -4.761      868.417
12/18/2021  05:08:00       18.573       10.630       -6.412       10.078        9.945        9.397      101.576       98.898       88.294        0.039        0.014       21.400        3.864        0.033      328.916       -4.678      868.425
12/18/2021  05:09:00       10.243        5.523       -9.786        9.927        8.235        6.706       98.539       67.810       44.967        0.022        0.011       11.637        2.624        0.051      328.935       -4.647      868.440
12/18/2021  05:10:00        3.253       13.261        1.143       17.175       15.871        8.022      294.973      251.903       64.354        0.040        0.031       13.655        9.840        0.519      328.927       -4.662      868.440
12/18/2021  05:11:00       -8.400        8.138       -3.723       10.373       10.583        5.449      107.600      112.005       29.695        0.020        0.012       11.696        4.836        0.171      328.894       -4.715      868.445
12/18/2021  05:12:00       23.950       -1.983       -6.576       10.708        9.704        7.800      114.664       94.167       60.843        0.045        0.013       24.032        6.302        0.069      328.968       -4.596      868.437
12/18/2021  05:13:00       12.271       -2.593        1.591       10.825       12.698        9.066      117.188      161.251       82.187        0.026        0.018       12.542        5.283        0.177      328.923       -4.669      868.445
12/18/2021  05:14:00       10.314      -13.336       -2.957       12.156       11.852        7.570      147.763      140.474       57.308        0.032        0.017       16.859        3.983        0.056      328.951       -4.623      868.439
12/18/2021  05:15:00       10.707      -16.731       -5.236       12.121       20.192       11.272      146.925      407.720      127.052        0.055        0.034       19.864        5.131        0.067      328.945       -4.633      868.424
12/18/2021  05:16:00       45.152       36.320       -6.971       10.345        9.208        7.332      107.014       84.783       53.759        0.183        0.012       57.946        4.536        0.006      328.835       -4.811      868.421
12/18/2021  05:17:00       65.868       21.618       -9.652       11.922       12.588        8.392      142.126      158.451       70.428        0.264        0.019       69.325        4.635        0.004      328.799       -4.871      868.430
12/18/2021  05:18:00       32.473        5.860       -1.619       31.025       19.980       16.339      962.563      399.188      266.959        0.136        0.081       32.997       16.408        0.247      328.759       -4.935      868.437
12/18/2021  05:19:00       20.233       -6.016       -4.307       21.924       30.445       18.872      480.642      926.898      356.169        0.111        0.088       21.108       15.700        0.553      328.813       -4.848      868.431
12/18/2021  05:20:00       43.777        9.948       -8.406       31.492       23.105       17.750      991.747      533.862      315.055        0.196        0.092       44.893        9.208        0.042      328.661       -5.097      868.431
12/18/2021  05:21:00       30.649       -0.709       -2.075       17.536       16.719       14.956      307.511      279.517      223.687        0.088        0.041       30.658        8.445        0.076      328.692       -5.046      868.434
12/18/2021  05:22:00       42.304        0.282       -7.409       21.139       18.935       13.620      446.849      358.533      185.517        0.142        0.050       42.305        5.479        0.017      328.769       -4.919      868.440
12/18/2021  05:23:00       71.084      -18.623       -5.139       32.589       14.016       13.449     1062.016      196.435      180.869        0.343        0.072       73.483       11.982        0.027      328.757       -4.939      868.444
12/18/2021  05:24:00       28.107       13.430       -4.642       27.275       29.675       17.636      743.903      880.578      311.037        0.146        0.097       31.151        7.539        0.059      328.811       -4.850      868.459
12/18/2021  05:25:00       21.039       16.574        0.976       20.760       16.857       19.434      430.975      284.157      377.665        0.091        0.055       26.783        7.373        0.076      328.837       -4.809      868.469
12/18/2021  05:26:00       36.703       12.068      -24.847       25.778       35.855       20.862      664.519     1285.590      435.217        0.225        0.119       38.636       13.800        0.128      328.877       -4.743      868.464
12/18/2021  05:27:00       31.292       17.348      -30.574       26.785       33.945       18.029      717.413     1152.265      325.054        0.220        0.110       35.780       12.476        0.122      328.905       -4.698      868.458
12/18/2021  05:28:00       24.651       -5.839       -3.678       19.228       26.423       15.054      369.732      698.169      226.618        0.097        0.065       25.333       10.683        0.178      328.988       -4.562      868.457
12/18/2021  05:29:00       31.825        2.401       -9.703       21.880       23.064       19.822      478.741      531.929      392.922        0.126        0.070       31.916       12.932        0.164      328.914       -4.681      868.459
12/18/2021  05:30:00       29.253      -12.578      -17.936       23.862       24.931       14.748      569.375      621.545      217.497        0.137        0.070       31.842       12.376        0.151      328.916       -4.680      868.468
12/18/2021  05:31:00       38.082      -24.293      -17.741       19.775       21.173       14.405      391.058      448.285      207.513        0.170        0.052       45.171        8.058        0.032      328.963       -4.602      868.474
12/18/2021  05:32:00       20.605       -7.655      -20.086       17.143       25.382       17.905      293.865      644.260      320.591        0.107        0.063       21.981       11.030        0.252      328.950       -4.624      868.485
12/18/2021  05:33:00       24.112      -15.121      -32.901       17.279       22.049       16.362      298.547      486.169      267.715        0.147        0.053       28.461        8.297        0.085      328.951       -4.624      868.502
12/18/2021  05:34:00       27.513      -13.416      -18.979       19.907       25.617       17.615      396.290      656.227      310.287        0.133        0.068       30.609        8.877        0.084      328.920       -4.674      868.514
12/18/2021  05:35:00       35.300        1.439      -13.985       19.380       21.733       17.426      375.594      472.313      303.679        0.130        0.058       35.329        9.134        0.067      328.908       -4.692      868.517
12/18/2021  05:36:00       27.181      -10.703      -16.171       24.957       20.606       15.101      622.838      424.608      228.055        0.119        0.064       29.212       10.176        0.121      328.920       -4.673      868.505
12/18/2021  05:37:00        5.317      -42.966       -7.460       19.843       41.330       16.779      393.754     1708.161      281.526        0.216        0.119       43.293       13.412        0.096      328.982       -4.572      868.513
12/18/2021  05:38:00       12.106      -41.093       -5.685       24.314       29.196       29.066      591.164      852.395      844.840        0.208        0.114       42.839       18.029        0.177      329.123       -4.341      868.519
12/18/2021  05:39:00       45.601      -19.401      -18.322       33.246       22.102       20.907     1105.280      488.497      437.109        0.241        0.102       49.556        9.224        0.035      328.991       -4.555      868.516
12/18/2021  05:40:00       37.581      -12.055       -6.029       32.753       23.412       17.678     1072.784      548.114      312.514        0.176        0.097       39.467       16.777        0.181      328.841       -4.800      868.506
12/18/2021  05:41:00       25.774        6.313      -16.894       25.271       21.034       21.032      638.627      442.423      442.362        0.126        0.076       26.536       13.135        0.245      328.875       -4.746      868.500
12/18/2021  05:42:00       21.301      -21.769      -12.606       16.417       23.997       13.069      269.506      575.871      170.803        0.105        0.051       30.457        4.806        0.025      328.873       -4.750      868.500
12/18/2021  05:43:00       18.710        3.602       -1.782       16.603       15.188       13.582      275.645      230.667      184.482        0.053        0.035       19.053        5.067        0.071      328.790       -4.886      868.505
12/18/2021  05:44:00       38.060        2.537       -6.607       16.456       23.702       10.635      270.810      561.787      113.101        0.122        0.047       38.145        8.801        0.053      328.791       -4.884      868.503
12/18/2021  05:45:00       55.738        8.981      -13.198       17.080        7.793        8.480      291.733       60.728       71.910        0.189        0.021       56.457        6.263        0.012      328.765       -4.928      868.510
12/18/2021  05:46:00       58.329       22.584      -13.989       23.684       20.368       12.364      560.947      414.844      152.859        0.262        0.056       62.548        9.558        0.023      328.811       -4.851      868.524
12/18/2021  05:47:00       39.395      -10.220      -12.393       39.014       20.857       16.597     1522.104      434.998      275.444        0.202        0.112       40.699       12.183        0.090      328.802       -4.864      868.531
12/18/2021  05:48:00       59.034       22.602       -8.609       19.667       19.056       14.164      386.801      363.148      200.630        0.251        0.048       63.213       11.110        0.031      328.749       -4.952      868.532
12/18/2021  05:49:00       18.424      -28.383      -19.244       20.677       41.547       17.745      427.531     1726.171      314.868        0.199        0.123       33.839        9.292        0.075      328.844       -4.796      868.542
12/18/2021  05:50:00       10.893      -42.068       -7.256       21.481       32.490       26.473      461.412     1055.627      700.796        0.208        0.111       43.455       15.414        0.126      329.024       -4.503      868.550
12/18/2021  05:51:00       28.785       -7.811       -1.366       20.689       16.145       16.311      428.046      260.676      266.051        0.092        0.048       29.826       11.165        0.140      328.866       -4.762      868.554
12/18/2021  05:52:00       34.448      -10.620       -9.156       14.171       10.631       12.378      200.816      113.013      153.216        0.093        0.023       36.048        3.953        0.012      328.804       -4.863      868.554
12/18/2021  05:53:00       -4.242       -3.863       -5.893        9.822        6.203        9.233       96.465       38.481       85.242        0.014        0.011        5.737        5.710        0.991      328.829       -4.822      868.567
12/18/2021  05:54:00       13.316       -1.494       -6.990       14.196       19.086        9.672      201.520      364.291       93.546        0.044        0.033       13.399        8.905        0.442      328.801       -4.866      868.587
12/18/2021  05:55:00       39.507       11.270      -12.714       16.837       15.100       10.016      283.485      228.024      100.317        0.123        0.031       41.083        4.648        0.013      328.738       -4.971      868.594
12/18/2021  05:56:00       -4.325       42.489       -3.804       14.740       16.910        9.091      217.266      285.962       82.655        0.121        0.029       42.708        6.457        0.023      328.696       -5.039      868.599
12/18/2021  05:57:00       20.222       28.370       -1.550       28.730       25.231       18.532      825.386      636.602      343.439        0.151        0.090       34.839       19.767        0.322      328.681       -5.063      868.612
12/18/2021  05:58:00       50.595       33.252       -7.520       14.409       12.350       13.719      207.606      152.511      188.223        0.214        0.027       60.544        7.643        0.016      328.710       -5.017      868.606
12/18/2021  05:59:00       57.910       25.654      -13.659       17.493       10.307       11.923      306.016      106.236      142.152        0.238        0.028       63.338       11.810        0.035      328.715       -5.007      868.593
12/18/2021  06:00:00       80.233       36.242      -25.519       23.985       15.546       16.766      575.274      241.691      281.094        0.475        0.055       88.039       13.312        0.023      328.764       -4.929      868.579
12/18/2021  06:01:00       91.085       28.604      -22.922       19.300       19.060       16.747      372.477      363.271      280.469        0.533        0.051       95.470       12.596        0.017      328.723       -4.995      868.573
12/18/2021  06:02:00       97.742       20.331      -13.655       22.498       17.018       15.506      506.175      289.603      240.433        0.559        0.052       99.834       13.303        0.018      328.704       -5.025      868.581
12/18/2021  06:03:00       71.414       14.583      -15.525       23.702       22.959       15.794      561.763      527.121      249.458        0.345        0.067       72.888       12.205        0.028      328.734       -4.977      868.596
12/18/2021  06:04:00       31.021       11.381       -3.323       37.946       16.026       18.684     1439.914      256.827      349.110        0.157        0.102       33.042        9.699        0.086      328.715       -5.008      868.616
12/18/2021  06:05:00        0.815       -4.439       -8.510       10.927       11.019        7.794      119.397      121.413       60.739        0.020        0.015        4.513        4.103        0.827      328.765       -4.925      868.632
12/18/2021  06:06:00       18.626       19.745       -4.116       10.583       12.206        7.780      111.992      148.987       60.527        0.054        0.016       27.144        5.105        0.035      328.736       -4.975      868.643
12/18/2021  06:07:00       10.779       26.752       -2.832       10.540       13.718       10.928      111.096      188.178      119.425        0.063        0.021       28.842        5.667        0.039      328.749       -4.950      868.659
12/18/2021  06:08:00       25.224       26.919       -6.278       22.705       20.547       15.370      515.497      422.169      236.247        0.129        0.059       36.890        7.438        0.041      328.690       -5.048      868.687
12/18/2021  06:09:00       30.327       10.620       -5.251        9.607        9.305        6.630       92.287       86.587       43.957        0.064        0.011       32.133        3.364        0.011      328.723       -4.994      868.718
12/18/2021  06:10:00       34.288       24.161       -3.118       14.606       12.820        5.932      213.341      164.343       35.184        0.109        0.021       41.946        4.303        0.011      328.726       -4.989      868.723
12/18/2021  06:11:00       42.719       30.895       -5.474       23.034       17.453       13.881      530.572      304.607      192.694        0.192        0.051       52.720        8.555        0.026      328.734       -4.976      868.691
12/18/2021  06:12:00       48.130       44.561      -15.222       17.470       12.321       16.690      305.187      151.806      278.547        0.263        0.037       65.591        4.607        0.005      328.708       -5.018      868.670
12/18/2021  06:13:00       46.468       35.883      -14.001       12.109       11.111        9.678      146.626      123.464       93.654        0.200        0.018       58.710        3.509        0.004      328.717       -5.004      868.682
12/18/2021  06:14:00       48.240       19.196      -13.968        7.819       11.055        6.781       61.140      122.213       45.982        0.156        0.011       51.919        3.915        0.006      328.734       -4.976      868.697
12/18/2021  06:15:00       73.172       27.063       -7.599       11.697       12.968        9.518      136.823      168.173       90.595        0.327        0.020       78.017        7.309        0.009      328.713       -5.009      868.703
12/18/2021  06:16:00       67.593       19.451       -7.945       16.267       14.633       14.305      264.619      214.122      204.625        0.285        0.034       70.336       12.284        0.031      328.682       -5.061      868.697
12/18/2021  06:17:00       70.310       28.523       -7.558       17.227       13.251       16.166      296.782      175.577      261.332        0.327        0.037       75.876       10.938        0.021      328.719       -5.002      868.713
12/18/2021  06:18:00       69.569       18.439      -15.008       13.663       12.416        9.977      186.678      154.154       99.549        0.292        0.022       71.971        5.717        0.006      328.727       -4.987      868.746
12/18/2021  06:19:00       52.924       13.758       -8.435       14.302       12.266       11.598      204.548      150.444      134.521        0.178        0.024       54.683        9.072        0.028      328.700       -5.033      868.779
12/18/2021  06:20:00       55.331       24.486       -7.997       12.722       11.975        9.082      161.859      143.395       82.483        0.206        0.019       60.507        4.023        0.004      328.676       -5.071      868.792
12/18/2021  06:21:00       24.618       14.006       -4.905       24.136       14.703        8.812      582.562      216.172       77.650        0.085        0.044       28.323        8.891        0.099      328.668       -5.084      868.805
12/18/2021  06:22:00       45.070       20.284       -7.093        9.701       14.102        9.626       94.114      198.870       92.660        0.144        0.019       49.424        7.432        0.023      328.704       -5.026      868.823
12/18/2021  06:23:00       66.963       43.964      -17.715       11.310        9.859       10.533      127.925       97.197      110.951        0.353        0.017       80.105        7.029        0.008      328.728       -4.989      868.826
12/18/2021  06:24:00       74.568       48.207      -27.789       11.472       10.526        9.119      131.600      110.793       83.157        0.449        0.016       88.794        3.137        0.001      328.720       -4.999      868.823
12/18/2021  06:25:00       45.742       13.591      -10.328       25.661       20.591       12.201      658.509      423.994      148.854        0.181        0.062       47.718       13.312        0.078      328.728       -4.987      868.821
12/18/2021  06:26:00       66.202       27.172       -7.143       30.499       19.270       10.669      930.217      371.348      113.820        0.329        0.071       71.561        9.789        0.019      328.704       -5.025      868.808
12/18/2021  06:27:00       68.506       31.955       -6.307       33.873       17.727       14.987     1147.348      314.260      224.601        0.372        0.084       75.592       13.427        0.032      328.657       -5.102      868.798
12/18/2021  06:28:00       42.908       25.730       -8.999       23.173       11.647       12.623      536.972      135.652      159.349        0.171        0.042       50.031        4.532        0.008      328.629       -5.146      868.796
12/18/2021  06:29:00       61.081       19.484      -13.745       12.215       11.254        9.484      149.197      126.642       89.942        0.233        0.018       64.113        2.722        0.002      328.677       -5.069      868.802
12/18/2021  06:30:00       43.499        9.855       -4.909       17.685       14.953       11.370      312.754      223.592      129.267        0.134        0.033       44.602        9.160        0.042      328.633       -5.141      868.818
12/18/2021  06:31:00       56.321       30.482       -4.285       21.709       12.749       11.366      471.273      162.526      129.196        0.244        0.038       64.041        5.086        0.006      328.606       -5.187      868.836
12/18/2021  06:32:00       40.846       37.626       -8.834       21.797       19.993       14.353      475.093      399.709      206.012        0.212        0.054       55.534        9.713        0.031      328.596       -5.202      868.847
12/18/2021  06:33:00       54.236       47.172      -11.855       22.099       18.993       11.281      488.383      360.717      127.256        0.314        0.049       71.880       11.051        0.024      328.567       -5.250      868.836
12/18/2021  06:34:00       80.171       38.974      -11.801       18.878       19.126       13.758      356.392      365.801      189.294        0.450        0.046       89.143        7.665        0.007      328.581       -5.227      868.827
12/18/2021  06:35:00       78.756       45.570      -20.823       24.565       16.893       17.969      603.459      285.361      322.885        0.496        0.061       90.989       12.097        0.018      328.616       -5.169      868.825
12/18/2021  06:36:00       56.181       43.631      -12.959       23.290       17.033       13.121      542.440      290.132      172.155        0.312        0.050       71.133       11.181        0.025      328.556       -5.267      868.816
12/18/2021  06:37:00       46.533       29.021      -12.098       17.667       19.087       11.117      312.129      364.324      123.577        0.198        0.040       54.841        8.082        0.022      328.533       -5.305      868.799
12/18/2021  06:38:00       29.537       20.473       -1.909       15.387       10.174        9.096      236.772      103.501       82.733        0.086        0.021       35.939        5.744        0.026      328.540       -5.293      868.792
12/18/2021  06:39:00       22.348       38.596       -5.748       15.223       12.971       10.725      231.743      168.259      115.028        0.127        0.026       44.599        6.810        0.023      328.593       -5.206      868.800
12/18/2021  06:40:00       -8.696       31.879       -4.160       23.467       14.662       12.302      550.719      214.971      151.339        0.101        0.046       33.044        7.648        0.054      328.613       -5.174      868.806
12/18/2021  06:41:00       -1.038       58.588      -17.339       15.941       18.079       14.553      254.106      326.861      211.803        0.226        0.040       58.597        8.822        0.023      328.619       -5.163      868.801
12/18/2021  06:42:00       -8.671       58.689       -5.974       22.213       27.629       12.013      493.399      763.366      144.316        0.248        0.070       59.326        9.803        0.027      328.571       -5.243      868.810
12/18/2021  06:43:00      -16.203       87.973      -10.632       22.271       15.747       14.451      495.998      247.978      208.841        0.453        0.048       89.453        7.977        0.008      328.716       -5.006      868.820
12/18/2021  06:44:00      -12.356       95.777      -12.208       23.631       26.055       13.607      558.419      678.888      185.140        0.545        0.071       96.571       11.359        0.014      328.673       -5.077      868.835
12/18/2021  06:45:00        4.435       87.828       -4.695       23.886       33.051       16.386      570.521     1092.353      268.495        0.484        0.097       87.940       16.808        0.037      328.650       -5.113      868.837
12/18/2021  06:46:00       64.689       49.207      -18.461       19.806       16.813       14.098      392.262      282.667      198.754        0.391        0.044       81.277        9.416        0.013      328.628       -5.148      868.836
12/18/2021  06:47:00       48.999       38.779      -13.584       17.521       15.708       11.450      306.990      246.737      131.096        0.239        0.034       62.488        4.105        0.004      328.550       -5.275      868.831
12/18/2021  06:48:00       34.545       40.084       -1.818       23.200       19.595       16.910      538.252      383.953      285.946        0.201        0.060       52.916       13.949        0.069      328.556       -5.266      868.837
12/18/2021  06:49:00       57.820       54.743       -6.928       20.867       19.881       12.302      435.422      395.265      151.339        0.368        0.049       79.623       11.494        0.021      328.571       -5.243      868.841
12/18/2021  06:50:00       44.434       53.982       -6.378       31.422       22.557       15.345      987.343      508.811      235.484        0.333        0.087       69.918       15.324        0.048      328.662       -5.094      868.850
12/18/2021  06:51:00       56.316       56.459      -11.741       26.541       20.110       15.466      704.418      404.399      239.188        0.392        0.067       79.744       12.872        0.026      328.591       -5.210      868.861
12/18/2021  06:52:00       57.953       43.634      -12.416       28.905       21.023       12.969      835.473      441.970      168.185        0.343        0.072       72.543        9.594        0.017      328.555       -5.269      868.862
12/18/2021  06:53:00       64.034       47.097      -11.396       20.505       20.334       14.811      420.446      413.457      219.378        0.375        0.053       79.489       10.773        0.018      328.539       -5.293      868.850
12/18/2021  06:54:00       99.299       62.788      -19.050       20.314       16.329       13.022      412.647      266.624      169.585        0.751        0.042      117.484        6.049        0.003      328.537       -5.296      868.836
12/18/2021  06:55:00       82.549       34.644       -8.636       28.196       25.464       13.983      795.020      648.434      195.514        0.486        0.082       89.524       14.817        0.027      328.527       -5.313      868.828
12/18/2021  06:56:00       77.101       16.034       -9.662       24.022       16.811       17.863      577.067      282.620      319.072        0.374        0.059       78.751       13.630        0.030      328.597       -5.199      868.825
12/18/2021  06:57:00       94.979       51.619      -20.368       13.622       10.064       10.679      185.555      101.282      114.033        0.625        0.020      108.100        7.251        0.004      328.566       -5.250      868.833
12/18/2021  06:58:00       48.074       42.481      -21.750       32.974       16.476       15.955     1087.300      271.443      254.559        0.310        0.081       64.154       12.083        0.035      328.574       -5.238      868.841
12/18/2021  06:59:00       15.683       28.783       -5.216       12.527       19.548       11.383      156.917      382.141      129.572        0.089        0.033       32.778        9.770        0.089      328.691       -5.045      868.858
12/18/2021  07:00:00        5.166       41.789       -8.395       11.580       18.827        8.424      134.093      354.445       70.964        0.120        0.028       42.107        5.845        0.019      328.684       -5.059      868.865
12/18/2021  07:01:00       49.832       17.692      -15.155       23.153       23.380       13.203      536.080      546.645      174.307        0.214        0.063       52.879        8.438        0.025      328.652       -5.109      868.868
12/18/2021  07:02:00       35.743       27.183       -0.798       29.476       17.457       14.475      868.809      304.748      209.515        0.170        0.069       44.906        9.449        0.044      328.593       -5.205      868.866
12/18/2021  07:03:00       32.568       34.192       -4.924       34.102       15.689       13.086     1162.976      246.157      171.241        0.192        0.079       47.221       15.202        0.104      328.640       -5.131      868.872
12/18/2021  07:04:00       67.783       50.785      -14.510       15.569       24.887       14.445      242.386      619.381      208.648        0.423        0.054       84.698       10.379        0.015      328.541       -5.291      868.893
12/18/2021  07:05:00       48.021       20.464      -13.238       17.499       17.880       10.233      306.209      319.696      104.722        0.182        0.037       52.200        6.169        0.014      328.562       -5.256      868.910
12/18/2021  07:06:00       44.677       64.829       -6.466       26.607       15.069       14.313      707.947      227.084      204.871        0.369        0.057       78.733       14.989        0.036      328.734       -4.977      868.909
12/18/2021  07:07:00       60.930       27.284      -10.376       11.252        9.588        8.730      126.600       91.922       76.207        0.243        0.015       66.760        3.928        0.003      328.601       -5.194      868.901
12/18/2021  07:08:00       49.334       45.364      -12.323       13.939       18.639       12.208      194.302      347.431      149.038        0.267        0.035       67.020        8.406        0.016      328.614       -5.173      868.896
12/18/2021  07:09:00       90.868       56.807      -18.894       15.821       17.669       11.057      250.305      312.201      122.257        0.626        0.034      107.163        6.369        0.004      328.609       -5.180      868.889
12/18/2021  07:10:00       39.020       -1.610       -9.984       31.039       34.815       14.453      963.407     1212.060      208.877        0.200        0.119       39.053        9.530        0.060      328.682       -5.061      868.904
12/18/2021  07:11:00       36.133        6.165      -11.424       24.706       20.558       12.816      610.370      422.645      164.243        0.134        0.060       36.655        9.685        0.070      328.651       -5.113      868.920
12/18/2021  07:12:00       65.623       32.744      -16.248       17.359       15.412       11.559      301.339      237.516      133.621        0.316        0.034       73.338        4.323        0.003      328.649       -5.117      868.912
12/18/2021  07:13:00       18.065      -30.415      -13.773       31.821       41.231       21.106     1012.603     1700.005      445.470        0.230        0.158       35.375       14.348        0.164      328.704       -5.025      868.899
12/18/2021  07:14:00       12.090      -44.430        3.572       21.259       23.579       19.169      451.939      555.966      367.459        0.175        0.069       46.046       14.125        0.094      328.709       -5.018      868.893
12/18/2021  07:15:00       11.256        6.963       -5.758       18.737       27.196       14.811      351.076      739.649      219.354        0.076        0.066       13.235       12.184        0.847      328.764       -4.929      868.895
12/18/2021  07:16:00       47.703       26.491      -12.862       14.896       10.690       10.254      221.883      114.272      105.138        0.179        0.022       54.565        8.092        0.022      328.613       -5.174      868.896
12/18/2021  07:17:00       41.870       13.351      -11.510        9.064        7.279        8.828       82.159       52.991       77.934        0.114        0.011       43.947        4.835        0.012      328.594       -5.206      868.893
12/18/2021  07:18:00       15.245      -11.428      -17.855       12.842       21.161       13.173      164.915      447.804      173.536        0.073        0.039       19.053        7.638        0.161      328.677       -5.072      868.888
12/18/2021  07:19:00       16.136      -20.276      -21.363       17.656       25.697       13.813      311.729      660.319      190.807        0.115        0.058       25.913        8.695        0.113      328.740       -4.966      868.892
12/18/2021  07:20:00       -2.389      -16.540      -21.255       25.220       24.641       14.423      636.030      607.154      208.022        0.109        0.073       16.711        8.271        0.245      328.813       -4.848      868.894
12/18/2021  07:21:00        8.761      -53.380      -13.042       20.700       30.010       20.248      428.508      900.596      409.965        0.242        0.087       54.094       12.647        0.055      328.794       -4.879      868.896
12/18/2021  07:22:00       21.805       -8.516       -9.098       19.116       19.039       16.333      365.427      362.486      266.779        0.081        0.050       23.409       12.176        0.271      328.869       -4.756      868.893
12/18/2021  07:23:00        6.695      -15.371       -9.142       13.686       12.293       12.369      187.299      151.130      152.993        0.043        0.025       16.766        8.420        0.252      328.726       -4.991      868.884
12/18/2021  07:24:00       10.072        1.827       -4.141       10.691       12.467        9.577      114.296      155.431       91.719        0.024        0.018       10.236        6.218        0.369      328.656       -5.105      868.877
12/18/2021  07:25:00       15.255        7.370       -9.043        9.376        8.009        8.495       87.904       64.140       72.171        0.030        0.011       16.942        4.417        0.068      328.689       -5.049      868.881
12/18/2021  07:26:00       13.775       12.296        0.905       17.379       11.989        7.187      302.028      143.746       51.656        0.042        0.025       18.465        7.171        0.151      328.678       -5.069      868.884
12/18/2021  07:27:00       22.157       14.003       -1.025        7.455        6.374        5.945       55.573       40.625       35.343        0.041        0.007       26.211        3.599        0.019      328.637       -5.135      868.871
12/18/2021  07:28:00       29.116        8.178      -13.218       12.183       14.264        9.430      148.436      203.473       88.920        0.076        0.022       30.242        8.532        0.080      328.690       -5.048      868.858
12/18/2021  07:29:00       30.317       16.512      -11.389       17.433       10.417        8.469      303.892      108.509       71.720        0.090        0.024       34.522        8.217        0.057      328.696       -5.039      868.845
12/18/2021  07:30:00       31.115       22.175       -6.405       14.630       24.766       16.279      214.026      613.340      265.006        0.130        0.055       38.208        7.157        0.035      328.769       -4.919      868.841
12/18/2021  07:31:00       38.207       43.298       -7.769       15.567        9.948       12.834      242.328       98.967      164.712        0.195        0.025       57.745        9.060        0.025      328.700       -5.032      868.838
12/18/2021  07:32:00       16.527       38.397       -4.149       21.491        8.792        5.301      461.869       77.303       28.099        0.117        0.028       41.803        5.845        0.020      328.678       -5.068      868.842
12/18/2021  07:33:00        6.298       23.989       -9.903        9.504        8.877        7.879       90.329       78.808       62.085        0.047        0.012       24.802        3.016        0.015      328.678       -5.067      868.860
12/18/2021  07:34:00       15.750       10.747      -10.002       14.743        8.084        6.623      217.352       65.358       43.863        0.040        0.016       19.067        3.370        0.031      328.706       -5.020      868.868
12/18/2021  07:35:00       30.459       11.794      -12.250        8.003       14.499        7.208       64.053      210.228       51.960        0.077        0.016       32.662        3.582        0.012      328.765       -4.923      868.875
12/18/2021  07:36:00       41.435       19.940      -13.950        7.841        6.433        8.673       61.483       41.383       75.222        0.124        0.009       45.983        4.444        0.009      328.762       -4.934      868.878
12/18/2021  07:37:00       43.957       23.715       -6.168       15.465       13.339       12.517      239.180      177.917      156.674        0.155        0.029       49.946        7.372        0.022      328.760       -4.936      868.896
12/18/2021  07:38:00       50.802       25.277       -4.108       13.693       10.852        9.327      187.501      117.758       86.988        0.181        0.020       56.743        7.967        0.020      328.788       -4.889      868.913
12/18/2021  07:39:00       32.857       19.803       -1.090       14.087       12.676       10.348      198.438      160.675      107.076        0.097        0.023       38.363        7.039        0.034      328.744       -4.959      868.946
12/18/2021  07:40:00       22.631       19.056       -5.652        9.106       11.922        9.501       82.915      142.136       90.277        0.061        0.016       29.585        8.643        0.085      328.712       -5.013      868.961
12/18/2021  07:41:00       -3.477       13.395       -5.757       11.773       12.704        7.117      138.601      161.385       50.653        0.029        0.018       13.839        3.869        0.078      328.707       -5.019      868.971
12/18/2021  07:42:00      -55.840       16.523       -9.788       17.434       22.832       13.778      303.936      521.319      189.831        0.225        0.051       58.234        6.156        0.011      328.503       -5.354      868.971
12/18/2021  07:43:00      -14.176        8.280       -3.497       29.452       19.352       14.552      867.406      374.492      211.755        0.087        0.073       16.417       10.343        0.397      328.427       -5.478      868.954
12/18/2021  07:44:00      -24.715       18.548      -12.236       16.319       13.137       15.023      266.294      172.585      225.703        0.088        0.033       30.901       11.725        0.144      328.360       -5.587      868.941
12/18/2021  07:45:00      -42.184       20.028      -11.557       26.145       23.002       12.909      683.581      529.104      166.631        0.185        0.069       46.697       14.022        0.090      328.369       -5.571      868.942
12/18/2021  07:46:00      -35.292        6.869      -11.279       20.940       15.250       13.558      438.470      232.558      183.824        0.114        0.043       35.954        6.283        0.031      328.438       -5.460      868.941
12/18/2021  07:47:00      -18.240        2.612      -10.572       23.774       27.716       12.299      565.184      768.204      151.261        0.097        0.074       18.426       12.509        0.461      328.426       -5.479      868.946
12/18/2021  07:48:00      -25.643       12.974      -10.914       25.805       12.315       13.049      665.892      151.648      170.276        0.097        0.049       28.738       11.235        0.153      328.390       -5.538      868.949
12/18/2021  07:49:00      -38.291       18.413      -11.541       15.495       13.626       12.700      240.097      185.679      161.285        0.126        0.029       42.489        7.131        0.028      328.421       -5.486      868.946
12/18/2021  07:50:00      -32.897        9.200       -7.096       18.414       14.550        9.124      339.058      211.699       83.249        0.093        0.032       34.159        5.907        0.030      328.482       -5.388      868.939
12/18/2021  07:51:00      -36.573       17.269       -1.617        8.113        8.450        6.256       65.823       71.396       39.141        0.091        0.009       40.445        3.272        0.007      328.476       -5.399      868.929
12/18/2021  07:52:00      -18.474        2.401       -4.429       12.372        8.960        8.464      153.056       80.273       71.635        0.034        0.015       18.629        4.515        0.059      328.666       -5.088      868.940
12/18/2021  07:53:00       -1.448        0.797       -1.617        4.019        6.651        5.854       16.151       44.230       34.275        0.005        0.005        1.653        2.108        1.627      328.912       -4.685      868.960
12/18/2021  07:54:00        6.873        8.411       -4.501       18.518       17.098       14.463      342.908      292.342      209.179        0.049        0.042       10.862       11.422        1.106      328.847       -4.792      868.981
12/18/2021  07:55:00       14.873      -26.233      -12.043       30.132       26.579       14.863      907.913      706.464      220.902        0.144        0.092       30.156        9.933        0.108      329.030       -4.492      868.997
12/18/2021  07:56:00       39.483      -21.633       -8.272       31.958       20.273       16.515     1021.306      410.993      272.754        0.190        0.085       45.021       17.965        0.159      328.955       -4.615      869.006
12/18/2021  07:57:00       43.008        3.202      -17.335       23.388       28.129       19.066      546.987      791.215      363.508        0.193        0.085       43.128        9.678        0.050      328.972       -4.588      869.011
12/18/2021  07:58:00       52.777      -15.113       -8.763       30.961       23.918       19.806      958.591      572.060      392.279        0.251        0.096       54.898       14.143        0.066      328.939       -4.640      869.005
12/18/2021  07:59:00       23.472      -24.996       -9.638       29.484       26.821       15.829      869.316      719.386      250.551        0.155        0.092       34.289       14.561        0.180      328.907       -4.694      868.992
12/18/2021  08:00:00       56.058      -17.791       -6.720       29.871       28.033       21.303      892.298      785.867      453.832        0.282        0.107       58.814       10.947        0.035      328.884       -4.732      868.985
12/18/2021  08:01:00       92.259      -19.322      -16.789       23.036       18.158       16.135      530.671      329.717      260.332        0.514        0.056       94.261       10.292        0.012      328.741       -4.967      868.984
12/18/2021  08:02:00       70.391      -10.441       -9.787       38.138       19.456       19.207     1454.510      378.517      368.911        0.368        0.110       71.161       16.230        0.052      328.838       -4.807      868.988
12/18/2021  08:03:00       38.987       13.499      -18.418       25.522       35.875       17.476      651.368     1287.017      305.410        0.214        0.112       41.257       13.744        0.111      328.963       -4.602      868.997
12/18/2021  08:04:00       31.842      -39.579      -24.671       29.640       30.140       19.730      878.534      908.413      389.259        0.268        0.109       50.798       17.779        0.122      329.107       -4.369      869.000
12/18/2021  08:05:00       31.023      -50.370      -15.702       35.120       36.729       28.026     1233.414     1349.049      785.484        0.356        0.168       59.157       19.893        0.113      329.048       -4.463      868.999
12/18/2021  08:06:00       37.902      -40.299      -28.729       37.968       34.101       21.534     1441.556     1162.859      463.728        0.348        0.153       55.323       17.941        0.105      329.037       -4.482      868.991
12/18/2021  08:07:00       67.836        0.069       -6.249       32.673       22.728       19.190     1067.539      516.564      368.273        0.330        0.098       67.836        8.884        0.017      328.859       -4.772      868.983
12/18/2021  08:08:00       84.018       -8.005      -10.172       38.833       35.576       23.283     1508.023     1265.665      542.097        0.527        0.166       84.399       19.626        0.054      328.765       -4.928      868.972
12/18/2021  08:09:00       57.883      -12.018       -9.824       38.484       23.046       20.413     1481.044      531.126      416.707        0.301        0.121       59.117       17.556        0.088      328.879       -4.740      868.961
12/18/2021  08:10:00       72.788      -17.218      -18.126       54.116       24.515       22.715     2928.550      600.998      515.979        0.498        0.202       74.797       22.930        0.094      328.859       -4.774      868.955
12/18/2021  08:11:00       75.018       10.827      -10.786       25.189       33.147       17.941      634.464     1098.694      321.891        0.396        0.103       75.795        5.524        0.005      328.844       -4.796      868.959
12/18/2021  08:12:00       30.400      -10.332       -3.121       35.628       36.254       25.263     1269.365     1314.379      638.214        0.213        0.161       32.107       20.799        0.420      329.030       -4.493      868.955
12/18/2021  08:13:00       37.698       -7.181      -29.804       33.204       35.168       30.773     1102.493     1236.764      946.977        0.282        0.164       38.376       19.852        0.268      329.021       -4.508      868.956
12/18/2021  08:14:00       86.294       -7.984      -22.426       26.816       30.355       22.192      719.094      921.397      492.475        0.507        0.107       86.663       12.439        0.021      328.880       -4.739      868.954
12/18/2021  08:15:00       32.812        5.453      -11.086       33.738       42.213       27.393     1138.274     1781.949      750.382        0.245        0.184       33.262       18.019        0.293      329.011       -4.525      868.949
12/18/2021  08:16:00       32.410        4.641       -4.882       36.617       43.302       31.973     1340.794     1875.080     1022.297        0.267        0.212       32.741       21.200        0.419      329.164       -4.275      868.949
12/18/2021  08:17:00       43.729       -5.016      -19.994       34.686       38.920       29.710     1203.148     1514.758      882.675        0.297        0.180       44.016       16.759        0.145      329.089       -4.397      868.940
12/18/2021  08:18:00       38.910       -9.437      -19.215       49.853       40.903       31.979     2485.337     1673.071     1022.629        0.358        0.259       40.038       30.836        0.593      329.043       -4.471      868.945
12/18/2021  08:19:00       71.396      -25.130      -20.418       38.016       44.501       24.572     1445.187     1980.316      603.767        0.509        0.201       75.689       15.828        0.044      328.913       -4.684      868.950
12/18/2021  08:20:00       30.144        6.590      -29.015       25.862       60.192       21.547      668.853     3623.054      464.282        0.327        0.238       30.856       18.067        0.343      328.997       -4.547      868.967
12/18/2021  08:21:00        2.223      -28.473      -10.130       19.718       39.210       22.559      388.808     1537.439      508.931        0.168        0.122       28.559       17.814        0.389      329.148       -4.301      868.980
12/18/2021  08:22:00       38.423      -63.841      -29.260       30.317       39.525       20.667      919.109     1562.210      427.137        0.466        0.145       74.512       13.127        0.031      328.942       -4.636      868.987
12/18/2021  08:23:00       56.492      -28.049      -19.525       38.783       29.432       24.651     1504.120      866.237      607.652        0.367        0.149       63.072       24.535        0.151      328.837       -4.810      868.979
12/18/2021  08:24:00       29.055       11.156      -20.343       32.092       47.570       29.862     1029.912     2262.888      891.737        0.278        0.209       31.123       21.816        0.491      328.979       -4.576      868.966
12/18/2021  08:25:00       23.849      -11.515       -9.113       31.676       48.556       29.890     1003.359     2357.713      893.383        0.252        0.213       26.483       18.793        0.504      329.004       -4.536      868.962
12/18/2021  08:26:00       16.608        1.710      -23.524       31.293       48.066       22.973      979.259     2310.315      527.766        0.232        0.191       16.696        9.876        0.350      329.012       -4.523      868.976
12/18/2021  08:27:00       45.916      -63.350      -19.578       54.325       40.712       38.842     2951.162     1657.432     1508.720        0.631        0.306       78.240       32.326        0.171      329.147       -4.302      868.987
12/18/2021  08:28:00       44.404      -12.011      -22.156       45.644       41.618       33.869     2083.342     1732.071     1147.137        0.378        0.248       46.000       22.314        0.235      329.100       -4.379      868.987
12/18/2021  08:29:00       53.810       -9.219       -8.331       57.912       33.320       29.346     3353.849     1110.249      861.205        0.419        0.266       54.594       27.482        0.253      329.012       -4.524      868.975
12/18/2021  08:30:00       29.367      -10.151       -8.547       28.255       35.688       28.570      798.364     1273.622      816.247        0.196        0.144       31.072       16.535        0.283      329.052       -4.456      868.974
12/18/2021  08:31:00       39.501       44.077      -17.891       36.446       28.780       25.238     1328.326      828.265      636.974        0.331        0.140       59.187       16.470        0.077      329.080       -4.411      868.972
12/18/2021  08:32:00       82.560       69.401      -16.419       17.842       19.242       17.620      318.338      370.237      310.449        0.645        0.050      107.854        5.417        0.003      328.994       -4.553      868.970
12/18/2021  08:33:00       26.950       32.318       -3.368       21.279       26.104       21.836      452.810      681.427      476.820        0.170        0.081       42.080       14.842        0.124      329.133       -4.324      868.966
12/18/2021  08:34:00       59.110      -18.935      -15.216       47.473       32.756       32.495     2253.682     1072.939     1055.915        0.423        0.219       62.069       29.424        0.225      329.055       -4.452      868.954
12/18/2021  08:35:00       85.271        7.631      -21.138       22.435       56.546       19.475      503.329     3197.445      379.279        0.593        0.204       85.611       16.442        0.037      328.908       -4.691      868.960
12/18/2021  08:36:00       81.559       40.819      -22.840       15.125       12.675       12.194      228.767      160.654      148.696        0.469        0.027       91.204        8.785        0.009      328.901       -4.705      868.967
12/18/2021  08:37:00       81.861       45.081      -18.697       29.323       28.322       14.809      859.822      802.160      219.296        0.548        0.094       93.453        7.377        0.006      329.051       -4.458      868.974
12/18/2021  08:38:00       91.359       79.822      -32.284       21.183       14.764       17.872      448.704      217.962      319.424        0.837        0.049      121.318       13.392        0.012      328.950       -4.623      868.979
12/18/2021  08:39:00       55.768       67.212      -24.309       25.045       15.004       18.238      627.231      225.106      332.638        0.470        0.059       87.336        7.997        0.008      328.964       -4.601      868.985
12/18/2021  08:40:00       38.027       53.873       -6.021       32.815       26.706       25.911     1076.814      713.231      671.405        0.342        0.123       65.942        6.026        0.008      329.249       -4.136      868.986
12/18/2021  08:41:00      103.299       32.172      -25.772       34.069       27.980       20.576     1160.710      782.904      423.371        0.737        0.118      108.193       11.238        0.011      329.089       -4.397      868.981
12/18/2021  08:42:00       60.667       23.517       -1.526       28.964       27.064       15.674      838.910      732.457      245.668        0.303        0.091       65.065       13.269        0.042      329.252       -4.131      868.974
12/18/2021  08:43:00       78.190       27.923      -15.147       31.077       23.658       22.187      965.809      559.693      492.277        0.457        0.101       83.027       15.911        0.037      329.120       -4.346      868.973
12/18/2021  08:44:00       56.345       28.035      -13.996       17.431       17.711       11.129      303.842      313.675      123.852        0.245        0.037       62.934        5.443        0.007      329.061       -4.443      868.980
12/18/2021  08:45:00       53.806       13.803      -12.131       34.553       26.379       21.491     1193.906      695.872      461.868        0.279        0.118       55.548       14.740        0.070      329.446       -3.812      868.985
12/18/2021  08:46:00       59.159       27.478       -5.482       42.892       46.526       21.510     1839.751     2164.669      462.667        0.438        0.223       65.230       15.751        0.058      329.379       -3.923      868.989
12/18/2021  08:47:00       49.196      -37.196      -25.723       35.516       29.037       25.230     1261.403      843.168      636.552        0.360        0.137       61.675       18.784        0.093      329.431       -3.839      868.981
12/18/2021  08:48:00       33.812      -45.067      -33.894       26.162       42.648       22.533      684.441     1818.841      507.753        0.367        0.151       56.340        9.841        0.031      329.527       -3.681      868.974
12/18/2021  08:49:00       45.741      -50.979      -34.817       37.998       40.338       23.745     1443.825     1627.132      563.826        0.477        0.182       68.491       20.193        0.087      329.543       -3.656      868.967
12/18/2021  08:50:00       32.742      -29.802      -18.969       33.798       30.876       28.818     1142.319      953.326      830.462        0.262        0.146       44.274       19.696        0.198      329.582       -3.591      868.960
12/18/2021  08:51:00       39.945       -8.526      -29.642       32.375       36.091       30.578     1048.134     1302.563      934.992        0.292        0.164       40.845       24.580        0.362      329.461       -3.790      868.953
12/18/2021  08:52:00       34.844      -23.728      -22.204       24.491       22.810       15.969      599.804      520.304      255.005        0.182        0.069       42.156       11.058        0.069      329.355       -3.962      868.938
12/18/2021  08:53:00       48.367      -18.337      -11.330       44.981       43.108       18.341     2023.289     1858.269      336.397        0.351        0.211       51.727       14.123        0.075      329.442       -3.821      868.922
12/18/2021  08:54:00       71.521       19.149      -16.814       48.126       44.818       22.218     2316.149     2008.679      493.642        0.529        0.241       74.040       16.453        0.049      329.399       -3.889      868.912
12/18/2021  08:55:00       19.938        0.139       -3.300       30.437       41.708       28.828      926.434     1739.574      831.045        0.195        0.175       19.939       14.114        0.501      329.490       -3.742      868.902
12/18/2021  08:56:00       27.222       -5.120      -15.929       31.554       42.675       23.468      995.652     1821.179      550.740        0.219        0.168       27.699       19.751        0.508      329.415       -3.864      868.896
12/18/2021  08:57:00       19.991      -26.170      -20.861       21.940       42.051       23.862      481.361     1768.265      569.401        0.217        0.141       32.932       17.687        0.288      329.498       -3.728      868.894
12/18/2021  08:58:00       37.874        1.304      -21.201       41.397       38.939       32.494     1713.678     1516.254     1055.862        0.308        0.214       37.897       12.362        0.106      329.447       -3.813      868.897
12/18/2021  08:59:00       51.438        1.948      -16.885       27.731       29.856       20.324      768.993      891.371      413.055        0.250        0.104       51.475       13.153        0.065      329.347       -3.976      868.902
12/18/2021  09:00:00       81.358       49.644       -6.145       55.174       30.568       27.011     3044.220      934.428      729.611        0.691        0.235       95.308       30.129        0.100      329.342       -3.984      868.899
12/18/2021  09:01:00       64.854        0.006      -25.492       42.826       69.935       32.483     1834.075     4890.948     1055.178        0.632        0.389       64.854       15.040        0.054      329.572       -3.607      868.891
12/18/2021  09:02:00       75.891       12.809      -16.457       48.504       57.999       33.837     2352.612     3363.857     1144.943        0.653        0.343       76.965       16.325        0.045      329.580       -3.595      868.883
12/18/2021  09:03:00       79.771       53.859       -9.484       38.286       41.154       24.591     1465.801     1693.641      604.717        0.656        0.188       96.251       18.930        0.039      329.383       -3.916      868.897
12/18/2021  09:04:00       48.266       21.662      -25.326       34.397       50.669       22.515     1183.148     2567.379      506.922        0.385        0.213       52.904       13.838        0.068      329.417       -3.862      868.896
12/18/2021  09:05:00       26.955      -45.428      -31.375       32.338       32.216       17.628     1045.773     1037.894      310.729        0.308        0.120       52.823       17.578        0.111      329.515       -3.702      868.890
12/18/2021  09:06:00      -19.123      -22.381      -13.749       27.218       29.468       27.298      740.822      868.379      745.177        0.170        0.118       29.438       13.752        0.218      329.760       -3.301      868.888
12/18/2021  09:07:00        2.822      -15.594        2.834       26.072       44.571       31.683      679.726     1986.557     1003.790        0.196        0.184       15.848       26.099        2.712      329.871       -3.119      868.888
12/18/2021  09:08:00       55.870       13.987      -12.556       28.411       58.935       26.659      807.194     3473.354      710.697        0.423        0.250       57.594       14.814        0.066      329.683       -3.427      868.886
12/18/2021  09:09:00       61.344      -52.453      -17.731       24.947       35.611       23.723      622.346     1268.176      562.782        0.464        0.123       80.711       14.025        0.030      329.705       -3.390      868.877
12/18/2021  09:10:00       17.042      -27.630      -13.495       23.188       33.944       18.109      537.681     1152.172      327.942        0.163        0.101       32.463        9.245        0.081      329.969       -2.959      868.879
12/18/2021  09:11:00       -0.266       -0.418        7.868       27.171       24.273       23.133      738.252      589.170      535.124        0.096        0.093        0.496       17.123     1193.413      329.987       -2.928      868.888
12/18/2021  09:12:00      -27.004      -25.864       -8.916       28.148       24.362       26.145      792.288      593.523      683.552        0.177        0.103       37.392        5.098        0.019      329.881       -3.103      868.905
12/18/2021  09:13:00       28.153        2.338       -2.035       37.816       52.566       17.233     1430.047     2763.202      296.960        0.265        0.225       28.250       20.087        0.506      329.807       -3.222      868.919
12/18/2021  09:14:00       83.880       26.848      -24.239       46.094       39.072       27.885     2124.630     1526.655      777.581        0.639        0.221       88.072       12.235        0.019      329.618       -3.532      868.915
12/18/2021  09:15:00       56.275       27.918       -0.701       38.266       33.920       29.272     1464.274     1150.593      856.876        0.371        0.174       62.820       16.433        0.068      329.801       -3.233      868.902
12/18/2021  09:16:00       77.119       -9.273      -11.870       36.359       34.818       24.065     1321.988     1212.283      579.132        0.464        0.156       77.674       12.276        0.025      329.680       -3.431      868.899
12/18/2021  09:17:00       34.614       23.153      -24.174       35.306       32.090       23.526     1246.538     1029.797      553.457        0.257        0.141       41.643       15.744        0.143      329.837       -3.174      868.898
12/18/2021  09:18:00      -11.139       -8.418       -4.531       20.964       20.564       14.448      439.508      422.874      208.741        0.064        0.054       13.963        8.379        0.360      330.078       -2.778      868.897
12/18/2021  09:19:00       60.149       67.163      -13.668       25.764       22.716       23.398      663.788      516.024      547.462        0.502        0.086       90.160       17.209        0.036      329.787       -3.257      868.898
12/18/2021  09:20:00       59.530       26.915      -20.239       19.011       30.807       16.133      361.407      949.052      260.284        0.312        0.079       65.332       15.128        0.054      329.600       -3.562      868.915
12/18/2021  09:21:00       44.946       23.685      -10.235       32.602       26.228       26.013     1062.890      687.907      676.687        0.256        0.121       50.805       23.440        0.213      329.849       -3.155      868.916
12/18/2021  09:22:00       36.193       35.915       -6.945       21.764       22.569       18.803      473.652      509.347      353.540        0.199        0.067       50.989        9.366        0.034      329.803       -3.230      868.920
12/18/2021  09:23:00       40.082       34.027       -9.065       37.453       26.012       22.658     1402.758      676.640      513.396        0.272        0.130       52.578       16.348        0.097      329.950       -2.989      868.926
12/18/2021  09:24:00       58.944       53.469      -14.746       45.893       46.462       19.659     2106.164     2158.686      386.488        0.560        0.233       79.582       15.033        0.036      330.063       -2.804      868.931
12/18/2021  09:25:00       81.158       37.387      -27.657       24.665       33.235       19.165      608.357     1104.559      367.278        0.541        0.104       89.355       15.768        0.031      329.780       -3.266      868.946
12/18/2021  09:26:00       74.176       59.802      -23.914       32.565       27.460       18.152     1060.506      754.073      329.509        0.590        0.107       95.281       13.673        0.021      329.979       -2.941      868.962
12/18/2021  09:27:00       64.858       50.018      -18.158       40.126       37.455       27.111     1610.112     1402.908      734.983        0.539        0.187       81.904       20.337        0.062      329.982       -2.936      868.972
12/18/2021  09:28:00       -6.615      -12.946       -8.388       18.844       36.958       15.312      355.083     1365.918      234.454        0.112        0.098       14.538        7.995        0.302      330.251       -2.497      868.990
12/18/2021  09:29:00       15.222       62.446       -4.490       24.364       34.109       20.004      593.581     1163.440      400.141        0.315        0.108       64.274       12.017        0.035      330.180       -2.612      869.000
12/18/2021  09:30:00       -6.160       43.016        6.459       30.307       22.446       23.046      918.521      503.802      531.111        0.194        0.098       43.455       14.659        0.114      330.172       -2.625      869.005
12/18/2021  09:31:00       87.969       45.591      -19.477       45.002       34.599       24.278     2025.171     1197.084      589.400        0.700        0.191       99.082       18.216        0.034      329.963       -2.967      869.007
12/18/2021  09:32:00       94.783       42.401       -7.220       43.872       29.319       23.106     1924.780      859.576      533.878        0.708        0.166      103.835       21.187        0.042      330.010       -2.890      868.998
12/18/2021  09:33:00       82.493       65.060      -36.064       31.373       36.396       28.933      984.271     1324.691      837.128        0.774        0.157      105.061       23.646        0.051      329.916       -3.045      868.995
12/18/2021  09:34:00       38.114       48.477        1.011       47.076       40.506       31.046     2216.177     1640.773      963.864        0.431        0.241       61.666       25.304        0.168      330.441       -2.183      868.999
12/18/2021  09:35:00       44.386       17.372      -27.906       46.948       29.421       21.502     2204.152      865.579      462.328        0.329        0.177       47.664       14.885        0.098      329.915       -3.047      869.011
12/18/2021  09:36:00       58.652       21.726      -12.165       40.969       24.149       24.503     1678.464      583.187      600.400        0.346        0.143       62.547       23.217        0.138      329.943       -3.001      869.022
12/18/2021  09:37:00      103.343       51.999      -18.097       46.067       29.426       20.837     2122.164      865.870      434.186        0.857        0.171      115.688       12.223        0.011      329.993       -2.919      869.025
12/18/2021  09:38:00      126.617       19.407      -26.402       54.437       31.297       18.771     2963.405      979.503      352.367        1.070        0.215      128.095       18.030        0.020      329.978       -2.943      869.022
12/18/2021  09:39:00      114.569       33.956      -20.387       54.155       32.414       21.917     2932.716     1050.694      480.368        0.958        0.223      119.495       23.036        0.037      329.896       -3.077      869.030
12/18/2021  09:40:00       19.250       -3.672       -5.652       39.507       41.567       28.889     1560.788     1727.821      834.548        0.227        0.206       19.597       17.537        0.801      330.436       -2.192      869.034
12/18/2021  09:41:00       65.278       41.355       -6.187       49.646       47.106       40.907     2464.752     2218.945     1673.349        0.618        0.318       77.276       19.722        0.065      330.407       -2.240      869.038
12/18/2021  09:42:00       50.372       -1.401      -12.648       37.575       38.966       23.231     1411.845     1518.378      539.669        0.308        0.173       50.391       13.997        0.077      330.295       -2.423      869.042
12/18/2021  09:43:00      108.829       37.044      -22.282       42.349       33.924       26.053     1793.406     1150.833      678.749        0.867        0.181      114.961       24.663        0.046      329.989       -2.926      869.038
12/18/2021  09:44:00      101.618       42.480       -9.345       40.989       57.172       26.643     1680.123     3268.591      709.844        0.894        0.283      110.140       20.216        0.034      330.053       -2.820      869.035
12/18/2021  09:45:00      105.923       59.694      -36.116       32.316       22.344       25.297     1044.350      499.235      639.963        0.914        0.109      121.585       19.912        0.027      330.050       -2.824      869.047
12/18/2021  09:46:00       38.681       41.228      -11.691       26.860       22.686       19.785      721.444      514.647      391.460        0.248        0.081       56.533       12.238        0.047      330.266       -2.472      869.054
12/18/2021  09:47:00       53.233       36.926      -10.244       33.147       24.771       19.824     1098.739      613.578      392.979        0.320        0.105       64.787       11.395        0.031      330.368       -2.304      869.053
12/18/2021  09:48:00       16.623       26.852        3.411       39.428       21.408       24.117     1554.555      458.286      581.638        0.180        0.130       31.581       13.247        0.176      330.431       -2.201      869.058
12/18/2021  09:49:00       -8.612       33.684       -4.256       19.829       29.956       17.747      393.183      897.389      314.955        0.142        0.080       34.767       13.784        0.157      330.406       -2.242      869.062
12/18/2021  09:50:00      -12.774       44.771      -10.086       28.880       22.437       17.518      834.031      503.423      306.867        0.196        0.082       46.558       10.817        0.054      330.339       -2.352      869.047
12/18/2021  09:51:00       22.023       32.429        3.722       28.350       29.130       15.376      803.706      848.556      236.421        0.172        0.094       39.200       13.286        0.115      330.500       -2.088      869.056
12/18/2021  09:52:00       46.077       53.413       -7.791       37.876       31.058       20.994     1434.555      964.604      440.739        0.394        0.142       70.541       13.619        0.037      330.311       -2.397      869.056
12/18/2021  09:53:00       53.547       56.837      -15.947       34.164       20.077       17.595     1167.188      403.085      309.595        0.412        0.094       78.088       11.163        0.020      330.315       -2.391      869.053
12/18/2021  09:54:00       47.282       32.956      -21.538       13.012       12.967       12.265      169.323      168.153      150.440        0.214        0.024       57.633        6.491        0.013      330.135       -2.686      869.036
12/18/2021  09:55:00       40.338       54.885       -9.071       36.163       22.012       19.728     1307.784      484.549      389.192        0.345        0.109       68.115        7.827        0.013      330.436       -2.192      869.031
12/18/2021  09:56:00        0.761       34.148       -2.054       21.236       21.561       16.031      450.964      464.887      257.002        0.117        0.059       34.157       11.187        0.107      330.728       -1.712      869.026
12/18/2021  09:57:00       -0.791       21.266       -9.383       23.840       19.041       19.563      568.344      362.575      382.711        0.093        0.066       21.281       10.493        0.243      330.751       -1.674      869.018
12/18/2021  09:58:00       -2.316      -10.263        4.923       29.719       18.667       17.852      883.235      348.455      318.708        0.084        0.078       10.521       14.375        1.867      330.810       -1.578      869.007
12/18/2021  09:59:00        7.179       51.720       -0.013       25.343       30.303       16.968      642.259      918.287      287.902        0.229        0.092       52.215       11.267        0.047      330.829       -1.547      869.016
12/18/2021  10:00:00       29.020       46.610       -2.799       35.607       33.715       18.459     1267.828     1136.672      340.728        0.288        0.137       54.906       16.808        0.094      330.662       -1.821      869.027
12/18/2021  10:01:00      -26.713       90.070       -7.689       31.486       41.962       21.361      991.351     1760.832      456.275        0.605        0.160       93.948       16.765        0.032      330.451       -2.167      869.033
12/18/2021  10:02:00      -23.126       74.555      -11.948       34.998       30.121       21.723     1224.863      907.264      471.906        0.442        0.130       78.060       10.527        0.018      330.379       -2.286      869.035
12/18/2021  10:03:00       -8.872       36.630      -13.782       28.356       15.844       14.623      804.064      251.048      213.829        0.144        0.063       37.689       11.196        0.088      330.460       -2.152      869.037
12/18/2021  10:04:00        4.915       -6.522       -2.668       42.336       45.611       33.715     1792.336     2080.327     1136.688        0.254        0.250        8.166       19.212        5.535      330.835       -1.538      869.043
12/18/2021  10:05:00       20.489      -48.562      -25.359       23.427       57.322       24.758      548.802     3285.798      612.956        0.393        0.222       52.708       27.017        0.263      330.661       -1.823      869.042
12/18/2021  10:06:00      -39.140      -13.184       -1.263       27.421       47.151       20.708      751.930     2223.242      428.826        0.256        0.170       41.301       13.756        0.111      330.706       -1.750      869.025
12/18/2021  10:07:00       -9.839      -10.071       -7.673       23.829       29.968       22.258      567.814      898.098      495.428        0.111        0.098       14.080       12.415        0.777      330.865       -1.487      869.011
12/18/2021  10:08:00       26.660       17.724        1.406       44.618       60.489       44.971     1990.779     3658.921     2022.432        0.435        0.384       32.014       31.958        0.996      331.011       -1.249      868.985
12/18/2021  10:09:00       16.670      -26.083       10.787       36.449       54.222       28.781     1328.502     2940.021      828.355        0.308        0.255       30.954       11.352        0.134      330.909       -1.415      868.971
12/18/2021  10:10:00       35.215      -37.217      -23.730       35.784       29.864       24.720     1280.475      891.847      611.072        0.299        0.139       51.237       19.904        0.151      330.773       -1.640      868.957
12/18/2021  10:11:00       96.760        4.434      -12.266       64.383       50.396       30.828     4145.226     2539.783      950.395        0.858        0.382       96.861       24.745        0.065      330.785       -1.619      868.935
12/18/2021  10:12:00      113.882       54.830      -42.466       56.421       51.678       27.025     3183.278     2670.571      730.375        1.218        0.329      126.394       18.596        0.022      330.750       -1.675      868.931
12/18/2021  10:13:00       62.580       43.728       -9.182       49.690       54.113       28.912     2469.079     2928.224      835.921        0.607        0.312       76.344       14.676        0.037      330.895       -1.440      868.930
12/18/2021  10:14:00       60.615        1.711      -24.032       39.734       63.148       25.491     1578.815     3987.670      649.799        0.523        0.311       60.639       20.535        0.115      330.774       -1.637      868.940
12/18/2021  10:15:00       28.573       52.384      -11.181       24.128       41.548       29.206      582.155     1726.223      852.978        0.342        0.158       59.670       21.599        0.131      330.636       -1.865      868.948
12/18/2021  10:16:00      -47.474      -33.371      -37.043       29.246       25.138       24.138      855.309      631.927      582.643        0.340        0.103       58.029       14.465        0.062      330.507       -2.077      868.949
12/18/2021  10:17:00       23.691      -14.296       -8.635       48.744       28.724       26.379     2375.969      825.084      695.825        0.237        0.195       27.670       19.267        0.485      330.669       -1.811      868.950
12/18/2021  10:18:00       27.193        4.105        0.980       25.633       38.343       23.839      657.057     1470.177      568.298        0.173        0.135       27.501       12.792        0.216      330.834       -1.539      868.951
12/18/2021  10:19:00       48.227      -70.701      -34.290       34.277       49.500       26.627     1174.902     2450.233      708.977        0.642        0.217       85.583       15.008        0.031      331.121       -1.067      868.954
12/18/2021  10:20:00       18.791      -21.786       -6.546       47.246       46.868       25.961     2232.187     2196.642      673.990        0.299        0.255       28.770       19.934        0.480      331.231       -0.886      868.958
12/18/2021  10:21:00       90.278      -35.035      -22.069       57.175       49.400       25.181     3268.930     2440.316      634.087        0.810        0.317       96.838       18.740        0.037      330.820       -1.562      868.962
12/18/2021  10:22:00       80.705       16.576      -17.507       68.837       70.991       34.011     4738.472     5039.744     1156.756        0.901        0.547       82.390       22.094        0.072      330.928       -1.386      868.961
12/18/2021  10:23:00       79.386       19.087      -33.763       48.150       62.400       40.607     2318.377     3893.730     1648.911        0.783        0.393       81.648       28.480        0.122      331.131       -1.051      868.951
12/18/2021  10:24:00      106.715      -11.316      -33.898       30.711       30.480       21.582      943.149      929.025      465.770        0.750        0.117      107.313       14.670        0.019      330.466       -2.143      868.940
12/18/2021  10:25:00       62.892      -72.665      -22.050       32.746       31.884       30.132     1072.328     1016.599      907.929        0.636        0.150       96.102       17.379        0.033      330.656       -1.832      868.923
12/18/2021  10:26:00       33.728      -73.669      -17.606       38.301       43.398       31.798     1466.991     1883.400     1011.111        0.562        0.218       81.023       17.356        0.046      330.877       -1.468      868.907
12/18/2021  10:27:00       42.606       49.289       -9.492       34.022       45.543       26.230     1157.478     2074.125      688.026        0.413        0.196       65.151       17.852        0.075      331.280       -0.807      868.903
12/18/2021  10:28:00       25.466        8.907        3.098       52.576       79.592       37.740     2764.273     6334.811     1424.301        0.563        0.526       26.979       25.389        0.886      331.092       -1.114      868.897
12/18/2021  10:29:00       35.263      -28.117      -24.628       39.394       52.757       34.312     1551.916     2783.290     1177.308        0.408        0.276       45.100       25.792        0.327      331.200       -0.937      868.881
12/18/2021  10:30:00       73.847      -36.834      -24.789       46.173       62.641       35.176     2131.966     3923.872     1237.365        0.736        0.365       82.524       32.763        0.158      330.902       -1.427      868.862
12/18/2021  10:31:00       93.821      -14.858      -13.136       49.291       66.727       35.879     2429.625     4452.524     1287.289        0.868        0.408       94.990       37.367        0.155      330.994       -1.277      868.840
12/18/2021  10:32:00       78.612      -29.761      -22.866       46.614       53.243       33.183     2172.870     2834.863     1101.118        0.685        0.305       84.057       28.105        0.112      331.020       -1.234      868.841
12/18/2021  10:33:00       96.919       39.265      -27.982       40.617       62.039       25.526     1649.762     3848.886      651.556        0.893        0.308      104.570       12.768        0.015      330.941       -1.364      868.847
12/18/2021  10:34:00       82.763       39.280      -23.706       42.031       30.952       26.470     1766.644      958.007      700.657        0.619        0.171       91.612       11.538        0.016      330.748       -1.681      868.836
12/18/2021  10:35:00       44.028       13.390      -11.028       56.314       66.537       40.998     3171.299     4427.197     1680.829        0.576        0.464       46.020       13.316        0.084      331.341       -0.706      868.804
12/18/2021  10:36:00      111.305       65.842      -29.006       33.374       46.728       24.948     1113.808     2183.530      622.401        1.074        0.196      129.321       13.209        0.010      330.851       -1.512      868.785
12/18/2021  10:37:00       75.709       33.209       -5.233       56.679       62.537       21.992     3212.479     3910.820      483.663        0.723        0.380       82.672       28.680        0.120      331.077       -1.140      868.775
12/18/2021  10:38:00        6.781      -16.551      -17.842       44.774       63.293       41.933     2004.696     4006.003     1758.347        0.420        0.388       17.886       36.199        4.096      331.518       -0.413      868.751
12/18/2021  10:39:00       48.757       -8.392      -17.522       51.519       75.738       42.289     2654.227     5736.181     1788.367        0.646        0.509       49.474       25.936        0.275      331.604       -0.274      868.740
12/18/2021  10:40:00       61.223      -61.729      -31.171       58.927       74.516       40.298     3472.368     5552.629     1623.910        0.959        0.532       86.941       34.604        0.158      331.374       -0.652      868.717
12/18/2021  10:41:00       84.883       -0.052      -17.020       48.636       56.303       36.898     2365.479     3170.037     1361.492        0.719        0.345       84.883       22.680        0.071      331.261       -0.837      868.711
12/18/2021  10:42:00       64.842        9.107      -24.466       53.915       71.577       33.229     2906.808     5123.291     1104.141        0.701        0.457       65.478        7.485        0.013      331.390       -0.625      868.707
12/18/2021  10:43:00      125.182      -84.513      -33.608       35.154       49.492       33.779     1235.817     2449.504     1141.003        1.438        0.241      151.039       27.207        0.032      330.919       -1.399      868.681
12/18/2021  10:44:00      105.337      -29.042      -29.359       62.627       75.539       32.374     3922.101     5706.186     1048.047        1.174        0.534      109.267       19.012        0.030      330.996       -1.275      868.672
12/18/2021  10:45:00       78.994       54.970      -15.105       60.879       69.285       39.989     3706.286     4800.461     1599.094        0.980        0.505       96.238       28.328        0.087      331.239       -0.874      868.650
12/18/2021  10:46:00      142.073       40.793      -27.142       65.568       46.853       32.055     4299.148     2195.241     1027.538        1.505        0.376      147.813        8.889        0.004      331.125       -1.063      868.644
12/18/2021  10:47:00      104.313       41.444      -23.452       56.906       57.872       26.939     3238.268     3349.138      725.694        1.023        0.366      112.244       10.432        0.009      331.373       -0.654      868.628
12/18/2021  10:48:00       41.979       21.188      -19.845       74.178       66.878       42.708     5502.415     4472.611     1823.956        0.720        0.590       47.023       27.230        0.335      331.478       -0.481      868.625
12/18/2021  10:49:00       82.325       -1.666      -13.199       74.163       42.969       27.266     5500.131     1846.356      743.411        0.752        0.404       82.341       32.534        0.156      331.082       -1.131      868.628
12/18/2021  10:50:00       44.530      -73.831      -27.979       35.640       65.018       36.573     1270.186     4227.403     1337.587        0.752        0.342       86.221       10.539        0.015      331.364       -0.670      868.624
12/18/2021  10:51:00       38.505      -54.366      -32.523       56.214       44.343       32.274     3160.059     1966.325     1041.600        0.583        0.308       66.620       30.271        0.206      331.519       -0.412      868.614
12/18/2021  10:52:00       32.619      -40.900      -25.583       43.932       36.072       34.794     1930.024     1301.193     1210.592        0.392        0.222       52.314       23.330        0.199      331.560       -0.346      868.601
12/18/2021  10:53:00      103.741      -33.621       -6.305       95.833       60.503       43.530     9184.023     3660.557     1894.820        1.333        0.737      109.053       41.970        0.148      331.395       -0.617      868.592
12/18/2021  10:54:00       93.588       33.045      -27.434      108.476       68.966       43.633    11766.970     4756.323     1903.832        1.451        0.921       99.251       45.417        0.209      331.584       -0.307      868.587
12/18/2021  10:55:00      156.316       43.994      -20.867       38.933       41.227       33.947     1515.813     1699.654     1152.369        1.559        0.218      162.389       18.269        0.013      331.084       -1.130      868.583
12/18/2021  10:56:00      189.224       72.251      -22.312       80.068       51.389       27.384     6410.832     2640.795      749.867        2.566        0.490      202.549       29.404        0.021      331.243       -0.870      868.564
12/18/2021  10:57:00      158.624       55.727      -18.176       62.763       62.164       34.542     3939.253     3864.384     1193.123        1.880        0.450      168.128       22.478        0.018      331.189       -0.958      868.549
12/18/2021  10:58:00       89.680       44.817      -26.212       31.110       42.936       24.640      967.862     1843.462      607.117        0.708        0.171      100.255       12.761        0.016      331.228       -0.893      868.528
12/18/2021  10:59:00      103.821       16.473      -13.595       61.279       42.554       24.778     3755.132     1810.851      613.926        0.871        0.309      105.120       12.896        0.015      331.466       -0.502      868.496
12/18/2021  11:00:00       68.381      -20.471      -14.657       66.733       65.353       54.056     4453.287     4271.070     2922.087        0.848        0.582       71.380       33.663        0.222      331.533       -0.390      868.456
12/18/2021  11:01:00       48.357      -62.619      -18.785       81.754       87.714       46.843     6683.646     7693.692     2194.283        1.159        0.829       79.118       30.724        0.151      331.475       -0.486      868.441
12/18/2021  11:02:00       83.298       -4.366      -26.261       62.802       79.432       40.137     3944.131     6309.452     1610.940        0.975        0.593       83.412       36.670        0.193      331.558       -0.348      868.425
12/18/2021  11:03:00      135.544      -44.268      -42.934       60.997       75.381       39.121     3720.585     5682.331     1530.480        1.655        0.547      142.590       33.658        0.056      331.277       -0.812      868.405
12/18/2021  11:04:00      145.589       -7.912       -4.755       78.738       56.996       42.136     6199.733     3248.507     1775.410        1.625        0.561      145.804       38.736        0.071      331.352       -0.690      868.391
12/18/2021  11:05:00       95.838       12.922      -21.748       42.012       49.403       32.120     1764.992     2440.662     1031.714        0.753        0.262       96.705        4.691        0.002      331.539       -0.380      868.390
12/18/2021  11:06:00       44.344       25.124       -8.222       33.828       27.370       29.547     1144.340      749.110      873.030        0.272        0.138       50.966       16.249        0.102      331.645       -0.205      868.377
12/18/2021  11:07:00       51.548       26.437      -12.761       34.596       80.958       36.658     1196.869     6554.164     1343.790        0.631        0.455       57.932       29.863        0.266      331.860        0.148      868.354
12/18/2021  11:08:00       64.532      -31.215      -23.765       54.811       50.245       38.446     3004.253     2524.573     1478.107        0.635        0.350       71.685       13.810        0.037      331.648       -0.201      868.336
12/18/2021  11:09:00      110.332        4.882       -6.882       95.791       70.699       70.911     9175.849     4998.282     5028.352        1.572        0.960      110.440       56.708        0.264      331.632       -0.228      868.319
12/18/2021  11:10:00       99.310      -18.030       -1.330       81.786       51.883       55.679     6689.031     2691.895     3100.143        1.133        0.624      100.934       47.460        0.221      331.528       -0.400      868.321
12/18/2021  11:11:00      102.004        5.260       -2.113       60.634       59.668       49.049     3676.458     3560.318     2405.776        1.004        0.482      102.140       29.919        0.086      331.531       -0.394      868.313
12/18/2021  11:12:00       49.729       36.990       -6.289       50.326       48.296       33.077     2532.720     2332.551     1094.065        0.492        0.298       61.978       25.253        0.166      331.635       -0.223      868.294
12/18/2021  11:13:00       70.460      -21.908       -3.679       78.123       65.899       63.986     6103.183     4342.734     4094.206        1.000        0.727       73.787       44.296        0.360      331.767       -0.006      868.266
12/18/2021  11:14:00       97.462      -18.270      -17.268       72.754       52.768       45.440     5293.115     2784.410     2064.808        1.013        0.507       99.160       36.087        0.132      331.439       -0.543      868.251
12/18/2021  11:15:00      147.786      -50.822      -16.251       67.089       45.774       46.347     4500.990     2095.261     2148.039        1.671        0.437      156.280       40.973        0.069      331.281       -0.808      868.228
12/18/2021  11:16:00       63.759      -49.792      -20.568       49.114       45.423       30.020     2412.196     2063.229      901.173        0.617        0.269       80.898       19.451        0.058      331.606       -0.271      868.214
12/18/2021  11:17:00      104.577       33.619       -8.619       56.564       50.689       33.810     3199.541     2569.416     1143.126        0.953        0.346      109.848       24.618        0.050      331.532       -0.391      868.218
12/18/2021  11:18:00       56.768       -1.663       -6.210       76.414       68.063       40.507     5839.132     4632.623     1640.835        0.769        0.606       56.793       25.358        0.199      331.988        0.359      868.203
12/18/2021  11:19:00      113.587      -36.815      -23.025       59.712       51.458       36.875     3565.512     2647.891     1359.734        1.118        0.379      119.404       28.518        0.057      331.476       -0.484      868.189
12/18/2021  11:20:00       97.550       30.048      -16.853       58.836       43.238       33.737     3461.634     1869.493     1138.181        0.858        0.323      102.073       20.478        0.040      331.547       -0.367      868.162
12/18/2021  11:21:00       24.337        0.452      -10.199       52.243       69.796       30.465     2729.289     4871.445      928.090        0.461        0.426       24.341       29.009        1.420      331.793        0.038      868.142
12/18/2021  11:22:00       64.209      -83.012      -41.899       48.525       60.456       35.219     2354.690     3654.922     1240.369        1.001        0.362      104.947       33.256        0.100      331.804        0.055      868.110
12/18/2021  11:23:00       83.124       21.662      -25.035       49.885       68.093       38.466     2488.563     4636.619     1479.668        0.830        0.430       85.900       27.183        0.100      331.838        0.111      868.074
12/18/2021  11:24:00      119.913      -15.466      -25.962       61.972       50.131       36.616     3840.512     2513.083     1340.760        1.149        0.385      120.907       27.343        0.051      331.533       -0.390      868.046
12/18/2021  11:25:00      129.469       -7.096      -27.125       53.529       57.349       30.626     2865.351     3288.913      937.977        1.232        0.355      129.663       27.153        0.044      331.572       -0.326      868.028
12/18/2021  11:26:00       58.729        3.321      -22.948       47.924       55.553       37.011     2296.737     3086.097     1369.795        0.537        0.338       58.823       22.637        0.148      331.879        0.179      868.000
12/18/2021  11:27:00      -26.522        1.061      -14.620       43.861       40.468       23.971     1923.825     1637.650      574.602        0.253        0.207       26.543       13.206        0.248      332.021        0.412      867.963
12/18/2021  11:28:00       34.372      -19.170      -11.330       44.166       44.217       36.603     1950.635     1955.147     1339.802        0.346        0.262       39.356       28.310        0.517      332.053        0.465      867.956
12/18/2021  11:29:00       41.373       -3.291      -10.471       44.542       37.119       25.088     1983.951     1377.804      629.431        0.291        0.200       41.503       10.670        0.066      331.871        0.166      867.940
12/18/2021  11:30:00       55.474      -14.844      -21.292       65.986       54.839       30.221     4354.114     3007.367      913.312        0.601        0.414       57.425       21.291        0.137      332.041        0.445      867.932
12/18/2021  11:31:00      131.347       40.052       -4.996       86.629       33.615       32.986     7504.600     1129.938     1088.080        1.430        0.486      137.318       47.590        0.120      331.644       -0.209      867.925
12/18/2021  11:32:00       85.345       37.524      -14.913       57.638       36.622       25.648     3322.128     1341.204      657.829        0.712        0.266       93.230       15.105        0.026      331.669       -0.166      867.910
12/18/2021  11:33:00       54.628       56.796       -1.112       87.501       47.323       34.937     7656.469     2239.480     1220.590        0.866        0.556       78.804       32.340        0.168      332.178        0.671      867.907
12/18/2021  11:34:00      103.400       55.681      -26.095       59.859       56.889       27.012     3583.115     3236.396      729.629        1.101        0.377      117.439       13.414        0.013      331.735       -0.058      867.903
12/18/2021  11:35:00       75.201       21.695       -9.608       50.972       90.567       37.289     2598.097     8202.328     1390.454        0.920        0.610       78.268       37.185        0.226      331.808        0.063      867.898
12/18/2021  11:36:00       72.289      -18.443      -22.724       46.047       58.364       32.290     2120.327     3406.409     1042.666        0.632        0.328       74.604       22.081        0.088      331.798        0.046      867.895
12/18/2021  11:37:00       38.243      -23.639      -13.018       47.197       41.355       31.815     2227.525     1710.242     1012.217        0.357        0.247       44.959       28.145        0.392      331.884        0.187      867.884
12/18/2021  11:38:00      -23.965       19.995       -7.879       39.424       43.868       35.154     1554.236     1924.398     1235.791        0.287        0.236       31.211       24.593        0.621      332.298        0.868      867.884
12/18/2021  11:39:00       33.028       -4.791      -20.151       61.513       52.362       30.949     3783.826     2741.803      957.869        0.450        0.374       33.374       15.245        0.209      332.230        0.756      867.876
12/18/2021  11:40:00      102.420       46.102      -22.244       45.043       52.265       33.288     2028.914     2731.640     1108.062        0.949        0.293      112.318       18.756        0.028      332.100        0.543      867.863
12/18/2021  11:41:00      141.310       77.965      -33.721       27.940       30.672       20.039      780.644      940.782      401.547        1.465        0.106      161.391        8.632        0.003      331.680       -0.149      867.852
12/18/2021  11:42:00       42.771       33.203      -15.848       44.928       40.014       25.937     2018.562     1601.135      672.747        0.374        0.215       54.147       21.796        0.162      332.033        0.433      867.838
12/18/2021  11:43:00      112.657       68.527      -28.758       70.853       63.771       31.049     5020.095     4066.730      964.041        1.413        0.503      131.862       28.813        0.048      331.865        0.156      867.840
12/18/2021  11:44:00       12.082        2.496      -44.145       39.178       35.224       26.692     1534.895     1240.732      712.452        0.279        0.174       12.337       18.210        2.179      332.475        1.161      867.820
12/18/2021  11:45:00       21.535      -32.901      -26.985       40.859       35.469       25.769     1669.491     1258.048      664.065        0.293        0.180       39.322       13.135        0.112      332.290        0.856      867.796
12/18/2021  11:46:00       43.689       22.014       -8.491       32.684       68.362       32.733     1068.244     4673.407     1071.445        0.464        0.341       48.922        8.350        0.029      332.306        0.883      867.785
12/18/2021  11:47:00       55.397       77.883      -10.552       45.887       38.278       32.788     2105.646     1465.213     1075.062        0.695        0.232       95.575       30.721        0.103      331.989        0.358      867.765
12/18/2021  11:48:00       59.654       44.520      -19.085       29.545       47.686       24.627      872.909     2273.912      606.499        0.483        0.188       74.435       18.031        0.059      331.856        0.142      867.741
12/18/2021  11:49:00       99.252       47.439      -19.916       30.488       21.778       22.664      929.538      474.263      513.657        0.721        0.096      110.006       14.166        0.017      331.679       -0.149      867.726
12/18/2021  11:50:00       39.584       39.364      -19.989       27.795       32.737       22.769      772.542     1071.718      518.407        0.294        0.118       55.825       12.086        0.047      331.948        0.292      867.711
12/18/2021  11:51:00       13.439        4.191        0.766       35.119       34.462       31.850     1233.328     1187.645     1014.429        0.182        0.172       14.077       22.373        2.526      332.557        1.298      867.691
12/18/2021  11:52:00       33.200       19.992       -0.789       53.536       79.429       39.780     2866.082     6308.917     1582.479        0.613        0.538       38.755       33.582        0.751      332.046        0.455      867.676
12/18/2021  11:53:00       90.088      -14.206      -28.639       38.807       64.711       41.484     1505.979     4187.484     1720.933        0.827        0.371       91.201       24.095        0.070      332.009        0.393      867.660
12/18/2021  11:54:00       74.172      -33.263      -27.472       26.162       23.583       16.047      684.430      556.172      257.521        0.443        0.075       81.289       10.710        0.017      331.720       -0.082      867.661
12/18/2021  11:55:00       54.671      -29.284      -28.958       41.317       44.002       35.636     1707.105     1936.199     1269.940        0.480        0.246       62.020       21.988        0.126      331.946        0.290      867.650
12/18/2021  11:56:00       44.647      -61.142      -38.764       31.308       23.777       25.721      980.203      565.322      661.575        0.472        0.110       75.707       14.316        0.036      331.838        0.113      867.636
12/18/2021  11:57:00       -6.229      -24.951      -17.264       34.666       35.370       26.178     1201.759     1251.060      685.305        0.205        0.157       25.717       19.484        0.574      332.089        0.526      867.623
12/18/2021  11:58:00      -11.944       18.599        1.638       25.197       22.030       15.053      634.912      485.320      226.595        0.092        0.067       22.104       10.697        0.234      332.261        0.809      867.610
12/18/2021  11:59:00       -7.908       28.104       -0.494       15.471       19.455       16.797      239.367      378.494      282.128        0.088        0.045       29.195        7.699        0.070      332.390        1.022      867.590
12/18/2021  12:00:00      -19.396       13.664       -4.663       25.377       28.414       17.517      643.991      807.367      306.847        0.117        0.088       23.726       13.376        0.318      332.593        1.356      867.563
12/18/2021  12:01:00      -29.091      -61.614      -23.966       56.990       46.864       34.145     3247.903     2196.218     1165.865        0.591        0.330       68.136       19.990        0.086      332.289        0.855      867.547
12/18/2021  12:02:00      -42.479      -13.154      -14.833       34.121       24.269       23.397     1164.222      588.988      547.439        0.225        0.115       44.469       16.212        0.133      332.377        1.000      867.536
12/18/2021  12:03:00       52.408      -18.562      -16.094       52.227       44.120       36.916     2727.677     1946.532     1362.825        0.469        0.302       55.599       31.950        0.330      332.330        0.923      867.530
12/18/2021  12:04:00       85.608       20.518      -24.756       51.641       64.116       37.450     2666.842     4110.859     1402.468        0.827        0.409       88.032       27.825        0.100      332.129        0.589      867.512
12/18/2021  12:05:00      131.941        8.522      -17.408       81.144       41.081       31.406     6584.321     1687.687      986.340        1.352        0.463      132.216       18.209        0.019      332.033        0.432      867.496
12/18/2021  12:06:00      134.933      -13.289      -15.914       67.645       54.689       34.240     4575.878     2990.911     1172.365        1.369        0.437      135.586       31.491        0.054      332.127        0.588      867.477
12/18/2021  12:07:00       60.691       22.353      -12.513       56.225       60.972       37.559     3161.296     3717.641     1410.656        0.631        0.414       64.676       29.723        0.211      332.556        1.294      867.466
12/18/2021  12:08:00       88.828      104.167      -14.951       43.753       42.996       30.121     1914.283     1848.697      907.277        1.182        0.234      136.898       14.002        0.010      332.066        0.487      867.455
12/18/2021  12:09:00       84.775       52.190      -23.143       52.028       51.345       29.030     2706.894     2636.341      842.726        0.831        0.309       99.552       21.265        0.046      332.385        1.013      867.442
12/18/2021  12:10:00       40.350      -19.510      -23.754       43.139       60.383       32.166     1860.946     3646.058     1034.664        0.456        0.327       44.819       18.112        0.163      332.597        1.363      867.418
12/18/2021  12:11:00       82.742      -30.471      -30.803       52.269       38.504       20.127     2732.017     1482.545      405.091        0.667        0.231       88.174       15.946        0.033      331.967        0.325      867.406
12/18/2021  12:12:00       54.020       22.936       -2.735       50.785       47.499       25.833     2579.107     2256.160      667.350        0.448        0.275       58.688       17.296        0.087      332.460        1.138      867.389
12/18/2021  12:13:00       78.864      -20.862      -15.669       46.837       49.205       39.799     2193.706     2421.133     1583.924        0.655        0.310       81.576       22.695        0.077      332.066        0.489      867.361
12/18/2021  12:14:00       64.836       -0.938      -24.709       35.363       63.437       14.277     1250.533     4024.310      203.827        0.515        0.274       64.843        8.230        0.016      331.949        0.296      867.333
12/18/2021  12:15:00       83.645       68.066      -14.707       36.799       56.182       19.719     1354.180     3156.382      388.855        0.837        0.245      107.840       11.818        0.012      331.993        0.367      867.318
12/18/2021  12:16:00       55.886       40.957       -9.621       34.923       20.385       16.553     1219.646      415.562      274.009        0.340        0.095       69.287       10.933        0.025      332.046        0.453      867.293
12/18/2021  12:17:00       42.696       29.872      -16.662       42.002       53.806       32.948     1764.183     2895.089     1085.538        0.437        0.287       52.108       23.218        0.199      332.649        1.449      867.272
12/18/2021  12:18:00        6.587      -26.542      -16.173       58.397       37.320       30.589     3410.197     1392.783      935.698        0.337        0.287       27.347       20.792        0.578      332.586        1.345      867.248
12/18/2021  12:19:00       30.935       33.397       -4.805       66.776       64.803       28.909     4458.974     4199.388      835.719        0.579        0.475       45.523       25.986        0.326      332.333        0.927      867.219
12/18/2021  12:20:00       75.671      -38.996      -18.671       64.313       44.959       38.369     4136.099     2021.330     1472.204        0.761        0.381       85.128       25.834        0.092      332.463        1.142      867.198
12/18/2021  12:21:00      160.802       21.409      -34.224       53.197       63.288       33.226     2829.921     4005.360     1103.936        1.771        0.397      162.221       17.773        0.012      332.134        0.598      867.178
12/18/2021  12:22:00      112.831       14.569      -30.149       58.978       43.390       32.760     3478.441     1882.650     1073.235        1.014        0.322      113.768       28.333        0.062      332.192        0.694      867.173
12/18/2021  12:23:00       41.785       67.296      -13.639       39.026       28.005       26.442     1523.046      784.287      699.196        0.473        0.150       79.213       24.122        0.093      332.104        0.549      867.160
12/18/2021  12:24:00       35.266       -7.200       -0.386       36.648       40.469       25.376     1343.074     1637.738      643.939        0.246        0.181       35.993       20.483        0.324      332.524        1.243      867.150
12/18/2021  12:25:00       -4.799      -57.735      -24.443       36.187       27.971       21.680     1309.485      782.370      470.038        0.326        0.128       57.934       12.621        0.047      332.440        1.105      867.132
12/18/2021  12:26:00       -9.202      -35.597       -8.858       32.493       26.212       17.431     1055.768      687.047      303.828        0.174        0.102       36.767       14.761        0.161      332.615        1.393      867.116
12/18/2021  12:27:00       33.234       58.657       -8.731       52.836       40.509       32.081     2791.604     1640.986     1029.172        0.504        0.273       67.418       20.734        0.095      332.386        1.013      867.104
12/18/2021  12:28:00       89.720       62.412      -27.152       24.719       23.531       20.895      611.043      553.701      436.614        0.714        0.080      109.293       10.196        0.009      332.204        0.712      867.098
12/18/2021  12:29:00       36.786       21.484      -14.882       30.414       46.807       16.542      925.015     2190.932      273.633        0.271        0.169       42.601       12.587        0.087      332.255        0.798      867.077
12/18/2021  12:30:00       57.181      -12.660      -14.662       59.642       86.194       45.196     3557.134     7429.350     2042.672        0.833        0.651       58.566       34.687        0.351      332.518        1.232      867.031
12/18/2021  12:31:00       78.829       -9.756      -30.623       58.302       58.076       46.976     3399.155     3372.811     2206.707        0.811        0.449       79.430       32.331        0.166      332.341        0.942      867.007
12/18/2021  12:32:00       84.962        9.230      -31.259       61.363       67.031       39.313     3765.463     4493.155     1545.485        0.904        0.490       85.462       24.843        0.085      332.660        1.468      866.978
12/18/2021  12:33:00       89.810      -16.191      -31.641       74.091       75.866       51.063     5489.465     5755.717     2607.416        1.159        0.693       91.258       45.306        0.246      332.565        1.309      866.958
12/18/2021  12:34:00       89.102       -9.003      -12.580       66.007       57.641       47.962     4356.885     3322.466     2300.307        0.908        0.499       89.555       40.322        0.203      332.397        1.032      866.967
12/18/2021  12:35:00      107.044      -38.367       -7.143       47.025       37.335       33.336     2211.384     1393.935     1111.319        0.885        0.236      113.712       21.510        0.036      332.317        0.901      866.956
12/18/2021  12:36:00       26.140        4.297      -14.199       36.746       28.373       23.966     1350.246      805.037      574.373        0.182        0.136       26.491       18.105        0.467      332.567        1.313      866.946
12/18/2021  12:37:00       40.215       -1.066      -20.189       50.057       48.048       40.445     2505.704     2308.583     1635.794        0.424        0.323       40.229       31.329        0.606      332.701        1.536      866.930
12/18/2021  12:38:00       32.982      -24.654      -21.919       34.352       41.092       25.857     1180.078     1688.547      668.585        0.286        0.177       41.178       17.652        0.184      332.452        1.124      866.913
12/18/2021  12:39:00       16.171      -13.376      -22.706       49.508       52.415       32.077     2451.001     2747.339     1028.940        0.359        0.311       20.987       28.535        1.849      332.697        1.530      866.887
12/18/2021  12:40:00       95.641      -27.073      -32.032       55.808       48.911       29.163     3114.521     2392.292      850.469        0.863        0.318       99.399       17.427        0.031      332.469        1.151      866.875
12/18/2021  12:41:00       81.118      -10.685      -15.488       49.815       48.757       39.081     2481.538     2377.207     1527.362        0.666        0.319       81.818       32.255        0.155      332.402        1.041      866.871
12/18/2021  12:42:00       74.570      -10.415      -18.225       59.619       65.033       31.732     3554.404     4229.317     1006.912        0.739        0.440       75.294       25.914        0.118      332.537        1.265      866.847
12/18/2021  12:43:00       86.353        1.617      -25.110       50.027       69.854       50.693     2502.705     4879.532     2569.788        0.902        0.498       86.368       32.858        0.145      332.557        1.298      866.814
12/18/2021  12:44:00       63.003      -25.619      -26.996       66.869       60.882       42.946     4471.492     3706.561     1844.381        0.769        0.501       68.013       37.545        0.305      332.595        1.360      866.790
12/18/2021  12:45:00       53.484      -20.702      -14.240       82.269       73.107       57.655     6768.182     5344.648     3324.104        0.946        0.772       57.351       44.452        0.601      332.658        1.463      866.764
12/18/2021  12:46:00      113.395       32.718      -57.267       64.285       84.348       60.690     4132.539     7114.536     3683.276        1.607        0.747      118.021       34.518        0.086      332.462        1.138      866.731
12/18/2021  12:47:00       97.670      -15.676      -11.442       56.970       44.632       34.524     3245.613     1992.044     1191.935        0.817        0.321       98.920       30.506        0.095      332.460        1.139      866.718
12/18/2021  12:48:00       81.914      -42.558      -38.132       59.125       75.543       33.746     3495.801     5706.778     1138.771        1.016        0.517       92.309       38.016        0.170      332.548        1.281      866.701
12/18/2021  12:49:00       60.298       -4.778      -23.862       50.044       59.832       36.639     2504.441     3579.864     1342.446        0.583        0.371       60.487       26.575        0.193      332.751        1.618      866.707
12/18/2021  12:50:00       95.356       55.604      -17.404       57.359       67.980       33.773     3290.004     4621.282     1140.644        1.077        0.453      110.384       12.095        0.012      332.673        1.488      866.725
12/18/2021  12:51:00       94.121       40.019      -10.506       61.324       53.172       25.220     3760.666     2827.298      636.070        0.890        0.361      102.275       11.959        0.014      332.652        1.455      866.723
12/18/2021  12:52:00       92.854       39.413      -23.363       37.397       42.918       22.481     1398.552     1841.916      505.391        0.723        0.187      100.873       19.939        0.039      332.475        1.160      866.720
12/18/2021  12:53:00       82.919       15.064      -24.636       41.142       46.924       26.535     1692.636     2201.873      704.108        0.615        0.230       84.277        8.730        0.011      332.605        1.377      866.711
12/18/2021  12:54:00       91.034       21.882      -18.882       45.839       45.767       32.762     2101.259     2094.662     1073.327        0.719        0.263       93.627       15.783        0.028      332.830        1.748      866.686
12/18/2021  12:55:00       80.848      -35.225      -27.994       48.920       46.405       32.040     2393.210     2153.420     1026.566        0.707        0.279       88.188       11.513        0.017      332.754        1.623      866.652
12/18/2021  12:56:00       61.778      -71.967      -24.154       36.807       41.288       25.473     1354.767     1704.720      648.857        0.664        0.185       94.846       21.269        0.050      332.601        1.371      866.633
12/18/2021  12:57:00       46.979       -3.073      -10.415       37.094       42.305       23.607     1375.956     1789.711      557.305        0.302        0.186       47.079       17.488        0.138      332.893        1.853      866.609
12/18/2021  12:58:00       31.322      -19.879      -23.532       33.141       30.148       25.025     1098.342      908.872      626.266        0.228        0.132       37.098       14.407        0.151      332.847        1.776      866.585
12/18/2021  12:59:00       16.390        4.214       -5.961       19.230       23.072       23.390      369.808      532.296      547.071        0.089        0.072       16.923       17.752        1.100      332.900        1.864      866.571
12/18/2021  13:00:00      -35.724       60.438      -12.014       38.856       21.558       22.021     1509.761      464.740      484.908        0.377        0.123       70.207        8.061        0.013      332.760        1.634      866.557
12/18/2021  13:01:00      -20.485       52.590      -18.971       24.940       20.358       21.226      622.001      414.452      450.559        0.252        0.074       56.439        8.640        0.023      332.645        1.442      866.531
12/18/2021  13:02:00       16.836       27.897      -11.614       47.189       16.679       15.018     2226.822      278.178      225.532        0.196        0.137       32.584        5.621        0.030      332.776        1.659      866.563
12/18/2021  13:03:00       28.731      -15.913        0.449       89.458       36.681       34.874     8002.667     1345.516     1216.217        0.582        0.528       32.844       40.305        1.506      332.970        1.979      866.579
12/18/2021  13:04:00       83.754      -34.949      -20.720       59.074       87.188       35.833     3489.744     7601.779     1284.029        1.052        0.619       90.753       29.326        0.104      332.885        1.838      866.570
12/18/2021  13:05:00       77.767      -10.105      -22.174       70.412       76.523       50.781     4957.791     5855.728     2578.751        1.001        0.670       78.421       46.106        0.346      332.874        1.821      866.556
12/18/2021  13:06:00       97.031      -29.180      -15.499       34.949       30.547       28.000     1221.433      933.115      783.979        0.672        0.147      101.324       19.319        0.036      332.544        1.275      866.537
12/18/2021  13:07:00       60.365        7.842      -15.638       32.228       30.459       16.572     1038.618      927.733      274.615        0.310        0.112       60.872       14.397        0.056      332.642        1.438      866.516
12/18/2021  13:08:00       57.959       15.191       -5.612       70.724       49.613       27.998     5001.948     2461.426      783.902        0.593        0.412       59.917       33.607        0.315      332.898        1.861      866.508
12/18/2021  13:09:00      105.708       66.891       -9.336       46.561       42.287       28.462     2167.958     1788.207      810.057        1.025        0.238      125.094       25.148        0.040      332.538        1.265      866.521
12/18/2021  13:10:00      102.761       56.388      -15.211       52.742       46.668       32.807     2781.758     2177.917     1076.313        1.000        0.302      117.215       11.529        0.010      332.710        1.550      866.519
12/18/2021  13:11:00       66.097      -17.848      -30.261       64.766       66.638       45.676     4194.589     4440.681     2086.322        0.816        0.536       68.465       22.713        0.110      332.913        1.885      866.504
12/18/2021  13:12:00      105.286      -32.182      -34.016       54.835       58.716       43.601     3006.854     3447.536     1901.059        1.082        0.418      110.094       26.121        0.056      332.845        1.772      866.473
12/18/2021  13:13:00       42.248      -18.879      -19.419       56.183       47.903       35.186     3156.572     2294.667     1238.032        0.460        0.334       46.274       26.752        0.334      332.968        1.977      866.455
12/18/2021  13:14:00       82.502      -34.555      -24.711       83.278       66.464       38.987     6935.301     4417.497     1519.960        1.074        0.644       89.446       32.122        0.129      332.964        1.970      866.436
12/18/2021  13:15:00       49.187       -0.237       -0.958       90.562       51.432       49.779     8201.477     2645.281     2477.964        0.787        0.666       49.187       48.767        0.983      332.935        1.923      866.422
12/18/2021  13:16:00      144.821       -3.825      -25.766       50.709       43.876       32.106     2571.451     1925.069     1030.809        1.359        0.276      144.872       22.975        0.025      332.633        1.423      866.410
12/18/2021  13:17:00       62.395       21.175       -3.446       64.103       58.455       39.267     4109.255     3416.985     1541.903        0.671        0.453       65.890       33.722        0.262      333.039        2.094      866.390
12/18/2021  13:18:00       63.125       22.052       -2.195       51.660       54.124       23.414     2668.784     2929.391      548.228        0.531        0.307       66.866       10.002        0.022      332.851        1.783      866.376
12/18/2021  13:19:00       73.990       32.427       -4.483       18.030       22.618       17.438      325.094      511.585      304.074        0.384        0.057       80.784        9.534        0.014      332.685        1.510      866.369
12/18/2021  13:20:00       12.909       21.823       -9.663       13.861       19.153       15.972      192.129      366.848      255.106        0.078        0.041       25.355        9.762        0.148      332.688        1.514      866.354
12/18/2021  13:21:00       53.650       51.901      -14.842       19.242       19.845       14.612      370.241      393.823      213.514        0.338        0.049       74.647        9.911        0.018      332.639        1.433      866.341
12/18/2021  13:22:00       52.795       44.922      -26.098       16.575       13.574       18.531      274.733      184.259      343.410        0.314        0.040       69.321        8.659        0.016      332.642        1.438      866.329
12/18/2021  13:23:00       19.925       40.015      -13.131       22.295       15.310       14.446      497.050      234.394      208.691        0.156        0.047       44.701        8.137        0.033      332.777        1.661      866.320
12/18/2021  13:24:00       42.145       45.037      -13.066       16.905       18.442       12.317      285.789      340.119      151.702        0.238        0.039       61.681        8.144        0.017      332.777        1.661      866.303
12/18/2021  13:25:00       23.788       35.873       -7.127       43.577       16.334       14.490     1898.938      266.800      209.965        0.214        0.119       43.044        3.237        0.006      332.974        1.987      866.282
12/18/2021  13:26:00       73.890       36.379      -20.639       22.121       26.591       18.280      489.317      707.057      334.160        0.437        0.077       82.360        8.229        0.010      332.911        1.882      866.257
12/18/2021  13:27:00       35.850       41.016      -15.965       25.194       32.182       22.977      634.747     1035.676      527.963        0.271        0.110       54.475       15.744        0.084      333.111        2.213      866.240
12/18/2021  13:28:00       99.605       53.740      -21.831       50.692       37.283       21.116     2569.649     1390.036      445.903        0.884        0.220      113.178       14.388        0.016      332.852        1.784      866.235
12/18/2021  13:29:00       81.912      -68.830      -36.280       53.769       78.875       47.144     2891.139     6221.338     2222.591        1.205        0.567      106.991       38.158        0.127      333.045        2.103      866.223
12/18/2021  13:30:00      121.313      -30.259      -19.952       60.775       60.201       40.271     3693.626     3624.207     1621.793        1.248        0.447      125.030       33.423        0.071      332.833        1.754      866.214
12/18/2021  13:31:00       58.883      -17.943      -18.946       62.397       49.345       43.591     3893.420     2434.970     1900.180        0.619        0.411       61.556       33.297        0.293      332.987        2.008      866.217
12/18/2021  13:32:00       79.574      -11.772      -34.375       66.719       58.827       43.033     4451.457     3460.588     1851.806        0.871        0.488       80.440       38.273        0.226      333.107        2.207      866.207
12/18/2021  13:33:00       62.699       -6.239      -29.625       47.240       47.432       44.274     2231.626     2249.768     1960.174        0.564        0.322       63.009       29.389        0.218      333.143        2.265      866.182
12/18/2021  13:34:00      119.043      -53.407      -17.241       42.657       35.185       22.727     1819.625     1237.964      516.531        1.045        0.179      130.474       23.244        0.032      332.814        1.723      866.168
12/18/2021  13:35:00       34.444      -16.497       -9.741       35.705       24.320       15.273     1274.865      591.454      233.257        0.183        0.105       38.191       12.540        0.108      332.952        1.951      866.171
12/18/2021  13:36:00       88.382       56.776      -18.962       32.527       34.783       22.170     1058.024     1209.822      491.515        0.708        0.138      105.047        7.697        0.005      332.911        1.882      866.176
12/18/2021  13:37:00       73.304       38.235      -14.878       25.286       21.265       13.182      639.399      452.220      173.759        0.416        0.063       82.677       10.324        0.016      332.816        1.725      866.178
12/18/2021  13:38:00       61.378       38.090      -16.175       36.804       34.837       20.329     1354.522     1213.585      413.285        0.423        0.149       72.236       14.303        0.039      332.910        1.882      866.172
12/18/2021  13:39:00       49.171       43.461       -5.542       56.812       35.407       23.397     3227.568     1253.646      547.421        0.468        0.251       65.625       26.538        0.164      333.052        2.116      866.148
12/18/2021  13:40:00       83.556       16.917      -12.044       52.424       56.234       25.392     2748.296     3162.319      644.766        0.698        0.328       85.251       18.230        0.046      333.137        2.257      866.132
12/18/2021  13:41:00      112.931       12.169      -19.415       34.278       30.127       23.049     1174.954      907.648      531.252        0.795        0.131      113.585       13.881        0.015      332.924        1.904      866.141
12/18/2021  13:42:00       70.824       36.894      -23.536       18.963       22.556       18.190      359.606      508.786      330.894        0.406        0.060       79.857       10.346        0.017      332.799        1.698      866.132
12/18/2021  13:43:00       52.090       26.913      -17.411       31.623       35.435       23.998      999.999     1255.615      575.890        0.329        0.142       58.632       12.439        0.045      332.997        2.025      866.125
12/18/2021  13:44:00      128.751       39.674      -23.647       35.283       35.849       20.758     1244.925     1285.127      430.885        1.083        0.148      134.725       17.691        0.017      332.918        1.892      866.111
12/18/2021  13:45:00       50.530       -1.473      -15.819       44.053       42.426       31.628     1940.652     1799.950     1000.339        0.377        0.237       50.551       26.060        0.266      333.249        2.441      866.103
12/18/2021  13:46:00       87.140       50.261      -21.147       35.353       33.886       26.218     1249.804     1148.233      687.385        0.683        0.154      100.596       22.633        0.051      332.935        1.921      866.094
12/18/2021  13:47:00       70.333       24.277      -27.114       30.472       52.663       19.676      928.566     2773.435      387.163        0.518        0.204       74.405       12.920        0.030      333.051        2.115      866.074
12/18/2021  13:48:00       63.740       66.487      -21.408       34.960       37.151       23.152     1222.234     1380.177      536.025        0.604        0.157       92.105       20.955        0.052      333.059        2.128      866.061
12/18/2021  13:49:00       72.170       51.010      -16.868       17.021       22.192       16.007      289.731      492.495      256.223        0.457        0.052       88.377        8.368        0.009      332.951        1.948      866.052
12/18/2021  13:50:00       55.852       29.388      -15.372       22.810       17.513       16.327      520.278      306.714      266.578        0.266        0.055       63.112       11.872        0.035      332.989        2.012      866.042
12/18/2021  13:51:00       55.702       18.787      -12.958       15.919       15.626       13.535      253.428      244.169      183.191        0.215        0.034       58.785        7.255        0.015      333.205        2.368      866.031
12/18/2021  13:52:00       50.885       49.708      -27.194       15.887       18.784       19.882      252.395      352.839      395.299        0.340        0.050       71.135        9.428        0.018      333.190        2.345      866.036
12/18/2021  13:53:00       46.650       60.172      -19.269       39.274       27.173       23.515     1542.423      738.395      552.934        0.450        0.142       76.137       22.381        0.086      333.159        2.293      866.045
12/18/2021  13:54:00       41.150       12.927       -8.485       29.468       54.760       27.758      868.383     2998.644      770.514        0.328        0.232       43.133       18.850        0.191      333.273        2.481      866.048
12/18/2021  13:55:00       28.798      -26.017      -12.198       29.950       29.974       19.277      896.975      898.446      371.598        0.191        0.108       38.809       15.686        0.163      333.558        2.951      866.049
12/18/2021  13:56:00       23.963       30.221       -7.108       26.012       41.088       17.809      676.606     1688.218      317.153        0.211        0.134       38.568        7.012        0.033      333.394        2.679      866.043
12/18/2021  13:57:00       72.449      -12.075      -13.986       47.510       49.127       19.475     2257.235     2413.413      379.262        0.532        0.252       73.448       18.414        0.063      333.197        2.354      866.028
12/18/2021  13:58:00       39.305      -15.533      -13.356       36.947       55.157       26.456     1365.054     3042.300      699.946        0.354        0.255       42.263       17.056        0.163      333.558        2.952      866.031
12/18/2021  13:59:00       70.251        6.388       -5.802       44.208       52.875       23.040     1954.366     2795.724      530.827        0.514        0.264       70.541       17.813        0.064      333.294        2.515      866.034
12/18/2021  14:00:00       33.591       -8.357       -9.039       32.979       59.020       33.861     1087.638     3483.417     1146.566        0.350        0.286       34.615        9.281        0.072      333.410        2.708      866.026
12/18/2021  14:01:00       77.700      -18.071      -26.826       64.016       54.692       38.554     4098.061     2991.207     1486.402        0.783        0.429       79.774       33.916        0.181      333.214        2.384      866.006
12/18/2021  14:02:00       61.328      -41.255      -23.469       63.960       54.982       39.346     4090.868     3022.974     1548.098        0.734        0.433       73.913       35.572        0.232      333.210        2.378      865.998
12/18/2021  14:03:00       29.585      -41.729       -9.238       34.331       52.123       29.574     1178.621     2716.848      874.601        0.374        0.239       51.152       24.605        0.231      333.339        2.590      865.996
12/18/2021  14:04:00       50.454       -4.340      -21.797       50.714       38.804       33.048     2571.880     1505.772     1092.200        0.410        0.258       50.640       26.198        0.268      333.539        2.920      865.990
12/18/2021  14:05:00       85.602       62.390       -9.844       55.964       25.774       26.662     3132.018      664.307      710.884        0.791        0.225      105.925       20.380        0.037      333.266        2.469      865.983
12/18/2021  14:06:00       26.553      -28.805      -13.700       37.062       65.088       34.998     1373.572     4236.495     1224.830        0.428        0.342       39.176       30.445        0.604      333.547        2.935      865.970
12/18/2021  14:07:00       64.588        2.104      -32.020       52.372       56.199       37.158     2742.859     3158.290     1380.694        0.624        0.364       64.622        6.897        0.011      333.436        2.750      865.956
12/18/2021  14:08:00       45.795      -24.745      -11.798       53.222       45.903       40.293     2832.583     2107.075     1623.524        0.470        0.328       52.053       30.965        0.354      333.369        2.639      865.945
12/18/2021  14:09:00       83.845      -29.075      -24.188       57.944       40.888       35.787     3357.464     1671.823     1280.680        0.738        0.315       88.743       29.803        0.113      333.258        2.456      865.938
12/18/2021  14:10:00       39.509      -12.246      -40.442       38.096       52.006       40.309     1451.297     2704.583     1624.796        0.456        0.289       41.364       21.842        0.279      333.379        2.657      865.941
12/18/2021  14:11:00       79.596      -44.730      -42.248       50.271       51.789       38.361     2527.194     2682.142     1471.535        0.840        0.334       91.303       25.440        0.078      333.304        2.532      865.937
12/18/2021  14:12:00       86.480      -76.675      -29.046       37.385       46.141       26.584     1397.653     2128.947      706.714        0.922        0.212      115.576       23.099        0.040      333.285        2.501      865.938
12/18/2021  14:13:00       19.687      -39.531       -8.363       45.749       42.521       22.935     2092.927     1808.052      526.004        0.322        0.221       44.162       25.468        0.333      333.579        2.987      865.951
12/18/2021  14:14:00       27.532       10.789      -13.555       25.440       48.031       19.023      647.200     2306.962      361.872        0.219        0.166       29.571        3.853        0.017      333.482        2.826      865.956
12/18/2021  14:15:00      -19.739       -0.539       -3.923       27.124       32.381       24.539      735.713     1048.561      602.159        0.140        0.119       19.747        7.247        0.135      333.676        3.148      865.944
12/18/2021  14:16:00      -37.827      -35.301      -12.691       37.976       49.152       26.950     1442.174     2415.913      726.301        0.371        0.229       51.740       23.574        0.208      333.935        3.577      865.933
12/18/2021  14:17:00       58.292      -27.948      -18.460       32.463       50.936       32.446     1053.851     2594.476     1052.711        0.461        0.235       64.645       23.262        0.129      333.568        2.969      865.906
12/18/2021  14:18:00       41.773      -28.465      -17.257       49.633       54.286       43.984     2463.395     2946.936     1934.555        0.510        0.367       50.550       32.120        0.404      333.462        2.795      865.883
12/18/2021  14:19:00       66.811       26.790      -16.794       31.893       24.927       17.988     1017.165      621.361      323.565        0.371        0.098       71.982        7.966        0.012      333.257        2.454      865.878
12/18/2021  14:20:00       90.102       20.934      -15.495       40.293       46.531       27.919     1623.519     2165.162      779.460        0.668        0.228       92.502       20.822        0.051      333.434        2.748      865.860
12/18/2021  14:21:00       52.113      -11.318      -20.874       44.985       55.015       27.229     2023.626     3026.619      741.427        0.453        0.290       53.328       22.199        0.173      333.535        2.916      865.856
12/18/2021  14:22:00        6.118       -1.825      -15.445       45.308       64.756       26.747     2052.842     4193.316      715.392        0.362        0.348        6.385       23.699       13.777      333.457        2.786      865.847
12/18/2021  14:23:00       43.506      -62.221      -25.504       37.874       28.902       25.041     1434.455      835.343      627.054        0.466        0.145       75.922       24.102        0.101      333.273        2.482      865.842
12/18/2021  14:24:00       57.937      -66.964      -20.486       32.032       57.400       31.015     1026.045     3294.753      961.917        0.677        0.264       88.549       28.890        0.106      333.410        2.708      865.844
12/18/2021  14:25:00       82.407       11.694      -16.349       47.291       42.554       27.265     2236.459     1810.861      743.378        0.599        0.240       83.233       20.289        0.059      333.393        2.681      865.846
12/18/2021  14:26:00      166.782       53.221      -29.366       45.969       39.631       21.761     2113.171     1570.587      473.548        1.783        0.208      175.068       18.576        0.011      333.223        2.398      865.861
12/18/2021  14:27:00      145.182       67.490      -23.818       28.041       36.162       23.175      786.303     1307.691      537.085        1.442        0.132      160.102       16.244        0.010      333.182        2.330      865.866
12/18/2021  14:28:00      141.063       38.979      -16.047       41.631       38.345       30.550     1733.154     1470.372      933.322        1.291        0.207      146.349       16.623        0.013      333.290        2.508      865.862
12/18/2021  14:29:00       95.752       78.842      -13.271       42.808       35.119       25.636     1832.549     1233.342      657.227        0.964        0.186      124.034       15.034        0.015      333.315        2.553      865.861
12/18/2021  14:30:00       74.077       48.804      -16.166       27.996       25.153       20.689      783.748      632.696      428.023        0.499        0.092       88.709       16.143        0.033      333.217        2.386      865.859
12/18/2021  14:31:00       80.685       32.421      -11.025       32.731       35.753       17.867     1071.305     1278.261      319.217        0.518        0.133       86.955       13.534        0.024      333.333        2.580      865.845
12/18/2021  14:32:00       60.739       48.217       -6.867       38.873       21.169       17.110     1511.138      448.134      292.735        0.416        0.113       77.551       14.762        0.036      333.443        2.761      865.840
12/18/2021  14:33:00       -0.054       -5.983        8.176       28.644       49.407       27.242      820.506     2441.008      742.101        0.205        0.200        5.983       19.697       10.839      333.840        3.419      865.820
12/18/2021  14:34:00       38.436       32.233       -9.567       40.075       39.137       32.848     1606.019     1531.705     1078.981        0.341        0.211       50.162       22.817        0.207      333.592        3.008      865.808
12/18/2021  14:35:00       94.005       61.715      -20.344       32.608       30.143       20.159     1063.274      908.593      406.386        0.772        0.119      112.453        8.967        0.006      333.355        2.617      865.806
12/18/2021  14:36:00       73.855       -3.500      -18.605       40.484       36.157       20.869     1638.991     1307.348      435.516        0.460        0.169       73.938       16.557        0.050      333.406        2.702      865.806
12/18/2021  14:37:00       42.262       -8.317      -24.074       36.904       35.212       24.621     1361.904     1239.857      606.187        0.282        0.160       43.072       16.708        0.150      333.532        2.910      865.785
12/18/2021  14:38:00       22.335       25.107       -3.246       37.195       37.088       25.138     1383.446     1375.488      631.911        0.226        0.170       33.604       16.562        0.243      333.638        3.085      865.760
12/18/2021  14:39:00       17.419       23.179        0.909       32.370       22.507       17.819     1047.844      506.547      317.528        0.136        0.094       28.995       13.176        0.207      333.657        3.117      865.751
12/18/2021  14:40:00       61.229       12.659      -14.526       25.093       14.645       20.036      629.682      214.469      401.457        0.268        0.062       62.524        9.191        0.022      333.434        2.748      865.744
12/18/2021  14:41:00       95.139       21.467      -12.849       18.439       15.239       13.426      339.984      232.241      180.248        0.521        0.038       97.531        5.282        0.003      333.291        2.512      865.734
12/18/2021  14:42:00       20.302       36.365       -6.212       22.712       25.661       17.686      515.841      658.508      312.778        0.163        0.074       41.648       11.855        0.081      333.463        2.795      865.725
12/18/2021  14:43:00      114.919       80.300      -13.536       59.068       40.651       19.385     3489.015     1652.520      375.790        1.268        0.276      140.194       13.261        0.009      333.381        2.660      865.720
12/18/2021  14:44:00      118.574       -1.857      -10.268       62.191       60.718       37.404     3867.671     3686.616     1399.090        1.156        0.448      118.588       23.987        0.041      333.487        2.834      865.712
12/18/2021  14:45:00      100.896       -0.549      -17.703       53.582       57.763       30.069     2871.035     3336.543      904.143        0.880        0.356      100.897       23.259        0.053      333.408        2.703      865.706
12/18/2021  14:46:00      116.032       36.013      -16.554       53.799       29.824       21.583     2894.316      889.467      465.839        0.964        0.212      121.492       18.779        0.024      333.417        2.719      865.707
12/18/2021  14:47:00       90.212       36.844      -18.366       29.078       24.620       17.428      845.507      606.164      303.719        0.579        0.088       97.446       11.839        0.015      333.366        2.636      865.710
12/18/2021  14:48:00       95.955       58.924      -16.007       37.671       30.923       23.543     1419.074      956.214      554.281        0.793        0.146      112.603       13.517        0.014      333.410        2.708      865.704
12/18/2021  14:49:00       74.029       61.206      -14.552       45.949       39.926       24.740     2111.303     1594.047      612.088        0.688        0.216       96.054       16.559        0.030      333.444        2.762      865.704
12/18/2021  14:50:00       78.746       64.779      -18.392       20.192       11.370       12.990      407.707      129.274      168.738        0.572        0.035      101.967        7.026        0.005      333.357        2.621      865.709
12/18/2021  14:51:00       69.840       62.200       -7.324       24.033       22.809       17.517      577.595      520.250      306.846        0.510        0.070       93.523       11.979        0.016      333.377        2.652      865.706
12/18/2021  14:52:00       98.984       70.571      -23.622       19.024       17.518       12.637      361.911      306.875      159.701        0.808        0.041      121.565        8.239        0.005      333.312        2.543      865.698
12/18/2021  14:53:00       94.614       38.998      -16.550       24.273       16.426       10.275      589.185      269.819      105.574        0.586        0.048      102.336        6.992        0.005      333.303        2.531      865.682
12/18/2021  14:54:00       32.862       12.987      -15.877       14.224       13.591        8.973      202.334      184.720       80.515        0.098        0.023       35.335        6.650        0.035      333.354        2.616      865.666
12/18/2021  14:55:00        5.418       32.575      -19.475        6.206       10.071       10.964       38.509      101.421      120.214        0.086        0.013       33.023        4.861        0.022      333.457        2.783      865.657
12/18/2021  14:56:00        2.646       34.376      -22.158       13.362       16.786       17.927      178.546      281.761      321.388        0.123        0.039       34.478       10.987        0.102      333.529        2.904      865.656
12/18/2021  14:57:00      -27.815       65.192       -2.314       29.038       39.167       22.160      843.219     1534.077      491.063        0.395        0.143       70.878       20.601        0.084      333.753        3.275      865.656
12/18/2021  14:58:00      -32.628       32.978       -7.779       18.320       36.814       14.808      335.631     1355.259      219.265        0.206        0.096       46.391       13.360        0.083      333.592        3.009      865.652
12/18/2021  14:59:00        4.737       34.010        4.159       23.300       25.532       15.885      542.885      651.903      252.330        0.132        0.072       34.338        8.177        0.057      333.767        3.298      865.647
12/18/2021  15:00:00        4.639       16.295       -9.193       18.703       12.333       13.290      349.793      152.110      176.630        0.052        0.034       16.942        7.459        0.194      333.835        3.411      865.643
12/18/2021  15:01:00       42.331       39.044      -16.338       20.316       17.372       10.788      412.728      301.801      116.386        0.221        0.042       57.588        6.773        0.014      333.520        2.889      865.647
12/18/2021  15:02:00       58.070       22.431       -7.160       23.415       30.395       15.077      548.268      923.834      227.305        0.281        0.085       62.252       12.967        0.043      333.527        2.900      865.646
12/18/2021  15:03:00       33.519      -15.412       -5.780       35.813       28.974       19.200     1282.593      839.484      368.637        0.194        0.125       36.892       18.218        0.244      333.739        3.253      865.642
12/18/2021  15:04:00       47.853        1.846       -8.585       34.459       37.228       28.293     1187.424     1385.945      800.474        0.287        0.169       47.889       22.751        0.226      333.744        3.261      865.640
12/18/2021  15:05:00       48.214       -1.749      -10.102       50.831       57.660       38.082     2583.753     3324.649     1450.272        0.489        0.368       48.246       25.324        0.276      333.707        3.199      865.641
12/18/2021  15:06:00       72.444      -15.759      -17.983       60.713       48.797       48.675     3686.108     2381.155     2369.214        0.713        0.422       74.139       38.080        0.264      333.631        3.073      865.640
12/18/2021  15:07:00       88.420      -14.520      -11.415       58.138       44.744       36.579     3380.037     2001.983     1338.036        0.744        0.336       89.604       32.551        0.132      333.547        2.933      865.642
12/18/2021  15:08:00       93.658      -22.058      -12.553       54.604       34.660       32.488     2981.553     1201.294     1055.465        0.733        0.262       96.220       33.999        0.125      333.566        2.966      865.631
12/18/2021  15:09:00       69.355       -6.145       -9.609       45.423       31.248       26.140     2063.237      976.455      683.311        0.433        0.186       69.627       19.660        0.080      333.601        3.022      865.620
12/18/2021  15:10:00       69.039      -24.366      -14.172       34.416       17.186       17.187     1184.431      295.342      295.391        0.367        0.089       73.212       17.224        0.055      333.542        2.926      865.620
12/18/2021  15:11:00       25.256      -34.058      -11.025       29.145       33.061       25.725      849.448     1093.021      661.782        0.226        0.130       42.401       18.677        0.194      333.712        3.206      865.625
12/18/2021  15:12:00       16.824      -19.795       -7.357       23.918       39.784       29.396      572.078     1582.739      864.106        0.187        0.151       25.978       20.572        0.627      333.894        3.509      865.608
12/18/2021  15:13:00      115.003       35.051      -12.328       44.124       23.517       18.447     1946.966      553.068      340.274        0.872        0.142      120.226        4.640        0.001      333.507        2.867      865.604
12/18/2021  15:14:00      109.803       50.508      -17.112       26.239       27.008       16.054      688.479      729.433      257.718        0.829        0.084      120.863       13.132        0.012      333.482        2.825      865.603
12/18/2021  15:15:00       42.210       15.496      -23.726       46.085       49.762       26.689     2123.797     2476.283      712.305        0.395        0.266       44.965       25.610        0.324      333.708        3.201      865.591
12/18/2021  15:16:00       93.319       50.982      -19.155       22.779       24.062       15.492      518.884      578.982      239.993        0.651        0.067      106.337       10.696        0.010      333.555        2.947      865.583
12/18/2021  15:17:00       62.068       20.641      -17.717       23.166       15.456       13.653      536.658      238.884      186.416        0.278        0.048       65.410        6.133        0.009      333.568        2.971      865.592
12/18/2021  15:18:00       60.975       23.354      -14.142       21.445        9.040        5.956      459.888       81.713       35.474        0.252        0.029       65.294        4.815        0.005      333.468        2.804      865.598
12/18/2021  15:19:00       33.618       18.323       -4.963       22.219       19.335       15.202      493.676      373.823      231.086        0.129        0.055       38.287       10.031        0.069      333.564        2.962      865.600
12/18/2021  15:20:00        8.926       -3.021       -8.843       34.542       35.053       26.906     1193.151     1228.696      723.919        0.166        0.157        9.423       21.973        5.438      333.737        3.249      865.597
12/18/2021  15:21:00       84.982       56.506       -9.333       25.574       16.420       15.595      654.024      269.611      243.217        0.583        0.058      102.053       12.373        0.015      333.579        2.987      865.607
12/18/2021  15:22:00       62.560       58.621      -10.700       15.796       13.430       11.693      249.515      180.359      136.715        0.402        0.028       85.733        5.942        0.005      333.512        2.876      865.602
12/18/2021  15:23:00       42.827       32.329      -12.395       15.450       22.065       11.681      238.692      486.842      136.444        0.195        0.043       53.660        6.431        0.014      333.571        2.976      865.600
12/18/2021  15:24:00       43.481       26.289       -9.034       19.454       14.273       11.156      378.445      203.721      124.449        0.168        0.035       50.811       10.853        0.046      333.551        2.938      865.605
12/18/2021  15:25:00       51.809       22.278       -9.439       15.780       19.592        8.178      248.995      383.864       66.877        0.198        0.035       56.396        5.856        0.011      333.507        2.863      865.622
12/18/2021  15:26:00       54.633       -3.398      -12.419       13.944       14.455       12.919      194.443      208.945      166.890        0.186        0.029       54.739        9.425        0.030      333.524        2.899      865.626
12/18/2021  15:27:00       29.883       -6.413        4.178       16.413       12.610       17.084      269.395      159.007      291.849        0.084        0.036       30.564       12.221        0.160      333.698        3.186      865.625
12/18/2021  15:28:00       45.901       10.657      -11.369       13.359       17.209       10.698      178.468      296.162      114.444        0.147        0.029       47.122        4.928        0.011      333.594        3.011      865.621
12/18/2021  15:29:00      106.867      -18.636       -7.674       37.786       19.447       16.862     1427.803      378.197      284.318        0.696        0.105      108.480       14.357        0.018      333.584        2.995      865.616
12/18/2021  15:30:00       94.304        8.669      -19.270       33.853       33.835       17.504     1146.046     1144.783      306.398        0.597        0.130       94.702       13.793        0.021      333.632        3.074      865.598
12/18/2021  15:31:00       57.502      -65.562      -36.772       28.933       35.133       17.967      837.103     1234.349      322.809        0.568        0.120       87.206       11.637        0.018      333.756        3.280      865.590
12/18/2021  15:32:00       19.179      -64.298      -22.542       45.429       42.956       19.218     2063.791     1845.205      369.339        0.464        0.214       67.097       20.488        0.093      333.815        3.378      865.586
12/18/2021  15:33:00        6.060       14.649        0.687       22.798       20.449       15.199      519.768      418.155      231.008        0.071        0.058       15.853       10.583        0.446      334.038        3.747      865.591
12/18/2021  15:34:00       73.740       33.209      -14.959       36.866       28.145       16.951     1359.079      792.151      287.325        0.460        0.122       80.873       13.043        0.026      333.677        3.149      865.588
12/18/2021  15:35:00       96.385       29.756      -10.810       41.193       40.722       20.701     1696.879     1658.313      428.543        0.704        0.189      100.874       13.109        0.017      333.605        3.030      865.584
12/18/2021  15:36:00       29.688      -27.196      -18.416       36.288       35.717       31.705     1316.795     1275.701     1005.206        0.278        0.180       40.261       23.755        0.348      333.757        3.281      865.582
12/18/2021  15:37:00       58.480      -34.274      -18.239       60.281       43.574       39.608     3633.768     1898.679     1568.767        0.601        0.355       67.784       39.141        0.333      333.679        3.152      865.579
12/18/2021  15:38:00       42.251        2.814      -25.586       36.865       46.313       31.461     1358.997     2144.937      989.791        0.347        0.225       42.344       23.840        0.317      333.700        3.187      865.587
12/18/2021  15:39:00       58.199      -31.381      -21.732       37.894       45.141       23.831     1435.934     2037.684      567.934        0.444        0.202       66.120       14.793        0.050      333.723        3.225      865.582
12/18/2021  15:40:00       68.874      -51.969      -21.599       27.896       22.153       14.865      778.182      490.776      220.963        0.470        0.074       86.281       10.240        0.014      333.637        3.084      865.573
12/18/2021  15:41:00       69.975      -21.121      -11.552       49.752       38.898       31.918     2475.254     1513.070     1018.770        0.524        0.250       73.093       23.578        0.104      333.685        3.163      865.562
12/18/2021  15:42:00       85.311      -27.476      -31.483       43.512       36.255       29.234     1893.287     1314.445      854.651        0.654        0.203       89.627       18.486        0.043      333.776        3.313      865.553
12/18/2021  15:43:00       53.951        6.204      -18.698       38.434       44.733       29.164     1477.178     2001.063      850.511        0.381        0.216       54.306       22.737        0.175      333.833        3.407      865.550
12/18/2021  15:44:00       51.126      -16.507      -34.800       32.930       42.085       24.837     1084.400     1771.185      616.882        0.378        0.174       53.725       19.923        0.138      333.735        3.246      865.550
12/18/2021  15:45:00       31.287      -15.805      -20.846       34.839       31.213       17.997     1213.775      974.221      323.890        0.209        0.126       35.052       13.790        0.155      333.791        3.339      865.544
12/18/2021  15:46:00        4.124       -6.796      -17.061       15.162       14.789       16.608      229.887      218.706      275.812        0.054        0.036        7.950        7.792        0.961      333.779        3.317      865.534
12/18/2021  15:47:00       10.491      -17.325      -13.990       23.202       15.430       16.843      538.335      238.071      283.687        0.083        0.053       20.253       15.065        0.553      333.805        3.362      865.517
12/18/2021  15:48:00       22.819       -5.122      -13.445       38.852       27.829       20.416     1509.502      774.452      416.824        0.171        0.135       23.387       15.308        0.428      333.719        3.218      865.508
12/18/2021  15:49:00       34.557       -3.428        3.468       45.466       22.137       16.139     2067.197      490.067      260.467        0.202        0.141       34.727       19.616        0.319      333.738        3.250      865.504
12/18/2021  15:50:00       39.906       10.453       -1.727       29.733       23.028       12.444      884.059      530.307      154.861        0.164        0.078       41.252        4.947        0.014      333.603        3.028      865.495
12/18/2021  15:51:00       49.224        5.850      -10.566       35.567       42.622       17.984     1265.013     1816.674      323.434        0.299        0.170       49.571       16.869        0.116      333.627        3.068      865.487
12/18/2021  15:52:00       77.924      -12.768      -12.145       43.158       30.105       20.881     1862.581      906.341      436.016        0.479        0.160       78.963       16.209        0.042      333.619        3.055      865.481
12/18/2021  15:53:00       32.592      -25.838       -9.844       33.706       28.742       22.153     1136.067      826.113      490.750        0.214        0.123       41.591       15.557        0.140      333.659        3.121      865.479
12/18/2021  15:54:00       38.360      -16.980      -21.287       41.526       40.281       28.143     1724.393     1622.527      792.013        0.318        0.207       41.950       26.969        0.413      333.737        3.249      865.474
12/18/2021  15:55:00       60.001      -19.079      -27.474       44.572       47.223       38.150     1986.647     2230.000     1455.416        0.519        0.284       62.961       20.688        0.108      333.755        3.277      865.463
12/18/2021  15:56:00       81.580        0.644      -16.100       48.784       39.344       32.725     2379.874     1547.973     1070.938        0.596        0.250       81.582       24.693        0.092      333.606        3.032      865.439
12/18/2021  15:57:00       64.887      -12.733      -26.689       32.800       42.813       21.557     1075.853     1832.919      464.708        0.423        0.169       66.125        8.251        0.016      333.587        3.001      865.418
12/18/2021  15:58:00       84.841      -38.009      -15.918       49.549       34.477       28.471     2455.134     1188.647      810.603        0.667        0.223       92.966       23.326        0.063      333.581        2.990      865.404
12/18/2021  15:59:00       56.034      -24.484      -16.951       45.346       31.534       35.143     2056.281      994.409     1235.051        0.416        0.214       61.150       31.472        0.265      333.579        2.988      865.399
12/18/2021  16:00:00       55.704        6.236      -11.085       36.091       37.705       22.167     1302.583     1421.640      491.378        0.324        0.161       56.052       16.414        0.086      333.558        2.952      865.392
12/18/2021  16:01:00       50.282       12.237      -20.698       40.479       41.819       30.180     1638.581     1748.800      910.822        0.370        0.215       51.750       25.148        0.236      333.569        2.971      865.388
12/18/2021  16:02:00       47.428       -4.624      -14.209       39.205       27.542       26.899     1537.003      758.550      723.551        0.275        0.151       47.652       19.877        0.174      333.577        2.983      865.382
12/18/2021  16:03:00       77.963      -11.637       -0.965       34.990       24.100       24.805     1224.289      580.816      615.302        0.432        0.121       78.827       22.738        0.083      333.533        2.911      865.375
12/18/2021  16:04:00       64.588       -5.023       -7.849       22.857       19.894       15.608      522.457      395.770      243.622        0.271        0.058       64.783       10.719        0.027      333.546        2.932      865.371
12/18/2021  16:05:00       49.637       32.372      -15.129       44.288       40.671       26.806     1961.449     1654.098      718.535        0.404        0.217       59.260       17.424        0.086      333.607        3.033      865.370
12/18/2021  16:06:00       43.693        9.738      -11.090       37.477       49.315       30.071     1404.522     2432.010      904.259        0.343        0.237       44.765       24.722        0.305      333.658        3.119      865.374
12/18/2021  16:07:00       34.429       -1.233      -11.302       28.877       32.085       21.207      833.875     1029.478      449.731        0.181        0.116       34.451       16.517        0.230      333.593        3.011      865.375
12/18/2021  16:08:00       55.000       -6.150      -12.942       21.169       22.533       20.021      448.137      507.753      400.822        0.229        0.068       55.342       11.577        0.044      333.533        2.911      865.385
12/18/2021  16:09:00       62.976      -12.007      -15.538       19.010       22.786       11.581      361.398      519.207      134.118        0.268        0.051       64.110        6.220        0.009      333.558        2.951      865.389
12/18/2021  16:10:00       46.441        0.788      -18.473       27.737       30.634       18.697      769.349      938.426      349.574        0.228        0.103       46.448        2.161        0.002      333.531        2.907      865.375
12/18/2021  16:11:00       59.309      -12.963       -7.629       39.589       23.618       23.043     1567.279      557.827      530.969        0.320        0.133       60.709       20.397        0.113      333.496        2.849      865.361
12/18/2021  16:12:00       61.071       -8.930      -10.945       35.035       25.028       24.492     1227.465      626.417      599.879        0.319        0.123       61.721       18.844        0.093      333.506        2.866      865.365
12/18/2021  16:13:00       54.892      -20.094       -0.688       61.059       31.426       29.762     3728.169      987.616      885.795        0.451        0.280       58.454       31.329        0.287      333.485        2.831      865.370
12/18/2021  16:14:00       87.969      -22.026       -6.465       55.761       36.372       25.822     3109.307     1322.920      666.768        0.668        0.255       90.684       24.342        0.072      333.446        2.766      865.379
12/18/2021  16:15:00       70.272       -2.199       -6.912       43.870       42.260       30.981     1924.552     1785.875      959.841        0.483        0.234       70.306       14.856        0.045      333.448        2.769      865.376
12/18/2021  16:16:00       68.304      -20.290      -20.928       35.815       40.217       25.706     1282.691     1617.430      660.783        0.454        0.178       71.254        8.561        0.014      333.513        2.877      865.373
12/18/2021  16:17:00       35.403        5.220       -5.962       37.222       52.550       25.311     1385.486     2761.485      640.666        0.305        0.239       35.786       23.206        0.420      333.553        2.944      865.366
12/18/2021  16:18:00       73.599       -2.260       -8.211       38.191       28.321       21.193     1458.558      802.074      449.134        0.410        0.135       73.633       15.859        0.046      333.461        2.792      865.362
12/18/2021  16:19:00       71.986      -11.400      -10.839       46.312       22.887       24.818     2144.843      523.804      615.927        0.436        0.164       72.883       21.455        0.087      333.461        2.791      865.351
12/18/2021  16:20:00       81.090      -17.423       -4.445       31.578       21.076       23.364      997.162      444.192      545.891        0.444        0.099       82.941       17.013        0.042      333.432        2.742      865.342
12/18/2021  16:21:00       84.163      -23.156      -13.940       24.913       14.553       15.636      620.669      211.795      244.474        0.445        0.054       87.290        4.233        0.002      333.438        2.754      865.339
12/18/2021  16:22:00       65.706      -15.641      -11.195       51.431       29.258       22.399     2645.140      856.044      501.706        0.434        0.200       67.542       25.868        0.147      333.449        2.771      865.324
12/18/2021  16:23:00       78.053      -17.717      -10.318       35.496       33.594       25.883     1259.943     1128.562      669.908        0.478        0.153       80.039       20.946        0.068      333.434        2.745      865.303
12/18/2021  16:24:00       58.457        1.308       -9.686       41.465       34.569       29.983     1719.334     1195.034      899.009        0.366        0.191       58.472       20.305        0.121      333.428        2.736      865.290
12/18/2021  16:25:00       96.139      -13.582       -5.579       36.545       23.310       18.068     1335.533      543.362      326.464        0.583        0.110       97.094       13.502        0.019      333.408        2.705      865.285
12/18/2021  16:26:00       34.086        9.164        4.921       44.237       38.141       30.063     1956.878     1454.705      903.804        0.279        0.216       35.296       22.411        0.403      333.451        2.774      865.287
12/18/2021  16:27:00       51.137       23.135       -4.135       40.185       51.228       29.877     1614.830     2624.346      892.623        0.415        0.257       56.127       10.675        0.036      333.487        2.834      865.290
12/18/2021  16:28:00       55.811        7.296      -13.143       32.525       38.901       24.194     1057.862     1513.268      585.327        0.325        0.158       56.286       11.591        0.042      333.471        2.807      865.287
12/18/2021  16:29:00       95.832      -14.758       -4.707       35.450       26.502       22.286     1256.712      702.381      496.675        0.594        0.123       96.962       15.348        0.025      333.425        2.732      865.286
12/18/2021  16:30:00       81.459      -19.465       -8.057       23.657       23.786       22.892      559.632      565.760      524.044        0.436        0.082       83.752       16.600        0.039      333.397        2.684      865.293
12/18/2021  16:31:00       52.574       -7.244        1.576       36.076       20.914       18.029     1301.493      437.387      325.027        0.244        0.103       53.071        8.892        0.028      333.420        2.725      865.303
12/18/2021  16:32:00       41.520       -3.492       -5.522       26.232       23.525       18.570      688.115      553.432      344.830        0.168        0.079       41.667       15.051        0.130      333.410        2.708      865.314
12/18/2021  16:33:00       41.513       -4.373       -1.896       22.046       23.167       18.621      486.010      536.688      346.756        0.156        0.068       41.743       10.064        0.058      333.407        2.702      865.325
12/18/2021  16:34:00       67.962      -17.443       -7.360       29.884       20.149       11.290      893.056      405.963      127.472        0.320        0.071       70.164        7.896        0.013      333.409        2.705      865.327
12/18/2021  16:35:00       84.969      -13.024       -5.553       19.786       18.624       14.503      391.481      346.869      210.337        0.418        0.047       85.962        8.954        0.011      333.385        2.667      865.316
12/18/2021  16:36:00       57.004        3.160       -7.482       28.642       18.783       12.477      820.389      352.788      155.675        0.232        0.066       57.092        8.138        0.020      333.377        2.654      865.305
12/18/2021  16:37:00       31.780        5.932        0.069       36.413       22.827       18.861     1325.943      521.057      355.736        0.162        0.110       32.329       13.677        0.179      333.407        2.702      865.297
12/18/2021  16:38:00       29.283       34.101        0.056       42.589       44.336       23.102     1813.818     1965.639      533.688        0.317        0.216       44.948       17.049        0.144      333.402        2.693      865.294
12/18/2021  16:39:00       44.165       22.315       -7.999       31.938       38.032       26.988     1020.041     1446.414      728.371        0.285        0.160       49.482       10.889        0.048      333.330        2.575      865.283
12/18/2021  16:40:00       67.821      -13.650       -5.904       29.328       28.065       19.946      860.115      787.668      397.827        0.343        0.102       69.181       12.627        0.033      333.380        2.660      865.278
12/18/2021  16:41:00       47.908       -0.100       -3.036       20.791       23.241       15.021      432.280      540.143      225.617        0.175        0.060       47.908        7.307        0.023      333.350        2.609      865.269
12/18/2021  16:42:00       79.091        3.247       -5.127       25.044       25.781       20.137      627.177      664.674      405.502        0.399        0.085       79.158       14.800        0.035      333.334        2.582      865.259
12/18/2021  16:43:00       45.493       -5.166       -0.876       33.885       23.970       17.205     1148.223      574.570      296.015        0.206        0.101       45.786       15.060        0.108      333.304        2.534      865.263
12/18/2021  16:44:00      108.147        9.452       -5.238       38.689       21.564       22.226     1496.812      465.021      493.975        0.713        0.123      108.559       19.851        0.033      333.302        2.529      865.271
12/18/2021  16:45:00      100.341       -0.881       -5.655       26.118       27.134       18.683      682.127      736.236      349.044        0.593        0.088      100.345       12.131        0.015      333.281        2.494      865.273
12/18/2021  16:46:00       39.852        3.264       -1.487       22.465       33.262       19.540      504.675     1106.349      381.801        0.180        0.100       39.986       15.681        0.154      333.228        2.406      865.270
12/18/2021  16:47:00       25.192       -9.459        0.535       25.296       20.471       18.139      639.904      419.074      329.028        0.106        0.069       26.909       13.070        0.236      333.266        2.469      865.278
12/18/2021  16:48:00       41.485        7.921        1.132       24.871       33.884       20.898      618.552     1148.153      436.717        0.199        0.110       42.235       14.560        0.119      333.243        2.430      865.280
12/18/2021  16:49:00       53.507       49.380        8.737       37.343       41.685       31.650     1394.500     1737.608     1001.752        0.476        0.207       72.811       22.419        0.095      333.264        2.465      865.276
12/18/2021  16:50:00       49.490       43.630        1.303       38.448       33.155       26.425     1478.276     1099.261      698.255        0.381        0.164       65.976       17.140        0.067      333.262        2.464      865.270
12/18/2021  16:51:00       50.136       -0.708       -0.968       32.202       26.297       23.677     1036.994      691.509      560.577        0.240        0.114       50.141       16.017        0.102      333.228        2.406      865.268
12/18/2021  16:52:00       85.160       -0.280       -9.704       24.634       26.556       16.844      606.837      705.234      283.706        0.447        0.080       85.160        8.048        0.009      333.230        2.410      865.264
12/18/2021  16:53:00       65.450      -16.940        0.581       37.258       25.320       16.407     1388.185      641.084      269.193        0.343        0.115       67.607       13.605        0.040      333.191        2.344      865.253
12/18/2021  16:54:00       75.121      -10.842        1.645       42.905       27.288       18.359     1840.860      744.614      337.045        0.434        0.146       75.899       15.417        0.041      333.116        2.222      865.242
12/18/2021  16:55:00      106.693      -10.874       -6.042       48.688       31.919       23.839     2370.487     1018.795      568.311        0.775        0.198      107.245       16.598        0.024      333.096        2.188      865.238
12/18/2021  16:56:00       98.606      -15.400       -2.583       50.256       36.513       30.596     2525.666     1333.228      936.129        0.738        0.240       99.801       30.802        0.095      333.043        2.101      865.244
12/18/2021  16:57:00       83.424      -13.255       -7.618       37.174       25.114       19.903     1381.924      630.697      396.146        0.480        0.120       84.471       15.802        0.035      333.044        2.103      865.238
12/18/2021  16:58:00      104.851      -22.061       -2.035       41.370       23.373       22.371     1711.513      546.281      500.470        0.712        0.138      107.147       19.133        0.032      333.009        2.045      865.225
12/18/2021  16:59:00       41.298       -1.894        2.471       42.497       31.820       24.869     1806.031     1012.502      618.483        0.258        0.172       41.341       21.338        0.266      333.044        2.102      865.225
12/18/2021  17:00:00        9.963       10.630      -15.878       31.327       29.000       20.271      981.396      841.005      410.911        0.135        0.112       14.569        9.740        0.447      333.040        2.096      865.225
12/18/2021  17:01:00       30.890       19.252       -4.636       29.206       32.513       15.376      852.965     1057.075      236.419        0.175        0.107       36.398       11.660        0.103      332.961        1.966      865.222
12/18/2021  17:02:00       61.019       -1.975       -5.501       34.181       17.829       18.457     1168.317      317.875      340.660        0.279        0.091       61.051       16.591        0.074      332.955        1.955      865.216
12/18/2021  17:03:00       61.647       14.547      -12.000       23.031       22.490       17.438      530.425      505.797      304.100        0.275        0.067       63.341        9.336        0.022      332.945        1.937      865.203
12/18/2021  17:04:00       40.108       -5.667       -5.397       25.609       21.193       13.116      655.842      449.134      172.036        0.147        0.064       40.507       10.631        0.069      332.941        1.931      865.195
12/18/2021  17:05:00       41.211        9.231       -7.256       25.151       30.471       19.456      632.562      928.512      378.525        0.189        0.097       42.232        8.040        0.036      332.877        1.829      865.204
12/18/2021  17:06:00       62.012       15.890       -0.214       22.904       22.975       22.488      524.599      527.843      505.696        0.283        0.078       64.016       11.163        0.030      332.869        1.814      865.212
12/18/2021  17:07:00       42.182      -10.387       -5.883       29.928       22.686       13.736      895.686      514.653      188.670        0.176        0.080       43.442       11.576        0.071      332.844        1.774      865.219
12/18/2021  17:08:00       49.056        2.704       -4.038       27.807       25.933       17.959      773.252      672.527      322.540        0.210        0.088       49.130       14.739        0.090      332.848        1.779      865.224
12/18/2021  17:09:00       76.507      -15.583      -15.924       20.644       14.221       11.243      426.165      202.249      126.397        0.355        0.038       78.078        5.245        0.005      332.884        1.839      865.227
12/18/2021  17:10:00        9.405       -2.067      -16.555       18.770       20.102       17.736      352.295      404.094      314.567        0.072        0.054        9.629        8.229        0.730      332.861        1.799      865.237
12/18/2021  17:11:00       13.623        0.169       -3.450       18.754       27.263       18.642      351.718      743.275      347.508        0.082        0.072       13.624        7.399        0.295      332.899        1.862      865.251
12/18/2021  17:12:00       41.053       13.860      -11.500       24.291       18.058       15.082      590.076      326.083      227.464        0.158        0.057       43.330       14.237        0.108      332.858        1.795      865.261
12/18/2021  17:13:00       65.759       16.503       -7.087        9.138        9.644        9.312       83.502       93.006       86.712        0.245        0.013       67.798        6.853        0.010      332.830        1.751      865.270
12/18/2021  17:14:00       54.499       10.620      -15.233       19.827       14.855       11.406      393.115      220.656      130.098        0.203        0.037       55.524        7.900        0.020      332.853        1.788      865.270
12/18/2021  17:15:00       72.393       16.622      -11.586       12.555       12.827        7.218      157.639      164.536       52.099        0.301        0.019       74.277        4.721        0.004      332.801        1.703      865.254
12/18/2021  17:16:00       53.380        3.399      -12.101       15.067       12.514       10.621      227.020      156.591      112.810        0.175        0.025       53.488        6.423        0.014      332.761        1.633      865.241
12/18/2021  17:17:00       73.398       18.254       -8.599       14.730       10.783        5.819      216.964      116.270       33.866        0.308        0.018       75.634        4.363        0.003      332.761        1.634      865.229
12/18/2021  17:18:00       59.285        6.487      -11.185       17.445       18.762       12.898      304.332      352.001      166.368        0.225        0.041       59.638        5.310        0.008      332.779        1.664      865.223
12/18/2021  17:19:00       65.517       18.204       -8.173       17.019       14.317       12.201      289.638      204.989      148.856        0.267        0.032       67.999        6.817        0.010      332.719        1.564      865.214
12/18/2021  17:20:00       54.869       23.175       -4.851       17.849       13.810        9.459      318.582      190.715       89.481        0.208        0.030       59.563        7.880        0.018      332.670        1.484      865.216
12/18/2021  17:21:00       84.039       40.132      -19.909       19.510       17.681       13.693      380.631      312.602      187.492        0.497        0.044       93.129       11.219        0.015      332.720        1.567      865.214
12/18/2021  17:22:00       81.646       41.347      -12.700       19.225       14.515       12.229      369.610      210.677      149.554        0.463        0.036       91.518       10.668        0.014      332.681        1.502      865.215
12/18/2021  17:23:00       71.002       34.424      -14.303       13.839       12.982       10.159      191.531      168.534      103.196        0.345        0.023       78.907        7.361        0.009      332.658        1.464      865.228
12/18/2021  17:24:00       66.205       25.972       -5.106       18.939       14.040       11.193      358.677      197.126      125.283        0.288        0.034       71.117        6.024        0.007      332.650        1.451      865.245
12/18/2021  17:25:00       68.391       33.442       -5.341       18.655       13.624        8.908      348.011      185.602       79.348        0.322        0.031       76.130        6.595        0.008      332.657        1.462      865.248
12/18/2021  17:26:00       48.018       30.846       -5.779       19.891       16.842       11.725      395.655      283.667      137.467        0.205        0.041       57.071        8.146        0.020      332.679        1.499      865.242
12/18/2021  17:27:00       53.670       39.348       -9.796       25.549       21.523       14.239      652.761      463.237      202.758        0.292        0.066       66.549       15.555        0.055      332.706        1.545      865.237
12/18/2021  17:28:00       30.017       11.987       -5.049       11.859       14.997        8.054      140.634      224.908       64.864        0.075        0.022       32.322        5.361        0.028      332.692        1.520      865.246
12/18/2021  17:29:00       66.182       20.366      -12.052       22.744       16.712        8.348      517.302      279.292       69.696        0.290        0.043       69.245        5.935        0.007      332.702        1.537      865.244
12/18/2021  17:30:00       85.141        5.273      -11.683       13.105       12.212        8.951      171.737      149.124       80.114        0.391        0.020       85.305        4.432        0.003      332.680        1.504      865.238
12/18/2021  17:31:00       50.223       16.205       -6.394       22.563       20.609        9.544      509.096      424.751       91.094        0.193        0.051       52.773       10.957        0.043      332.651        1.453      865.225
12/18/2021  17:32:00       83.535       42.080      -20.043       21.459       16.462       10.749      460.497      271.000      115.531        0.500        0.042       93.535        9.438        0.010      332.673        1.487      865.161
12/18/2021  17:33:00       78.857       43.760      -21.828       12.108        7.556        8.166      146.603       57.086       66.682        0.444        0.014       90.186        3.861        0.002      332.641        1.436      865.148
12/18/2021  17:34:00       62.457       27.874      -17.234       15.374       11.484       11.769      236.360      131.878      138.518        0.274        0.025       68.395        7.672        0.013      332.601        1.369      865.146
12/18/2021  17:35:00       58.370       26.276      -10.072       21.933       14.506       11.801      481.067      210.411      139.275        0.251        0.042       64.012       10.407        0.026      332.536        1.262      865.145
12/18/2021  17:36:00       56.873       19.205       -1.715       31.582       19.095       11.320      997.423      364.610      128.136        0.255        0.075       60.028        8.916        0.022      332.462        1.142      865.138
12/18/2021  17:37:00       78.123       18.839       -2.759       32.058       19.540       16.133     1027.718      381.829      260.258        0.407        0.083       80.362       11.831        0.022      332.471        1.153      865.121
12/18/2021  17:38:00       28.843        4.696        4.852       23.873       20.273       14.122      569.909      411.001      199.428        0.103        0.059       29.222       11.662        0.159      332.468        1.150      865.107
12/18/2021  17:39:00       91.886       28.679       -6.781       21.172       17.655       10.372      448.254      311.716      107.578        0.509        0.043       96.258        6.856        0.005      332.515        1.228      865.088
12/18/2021  17:40:00       67.771       28.694      -11.039       27.400        9.173       10.274      750.757       84.139      105.564        0.324        0.047       73.595        5.561        0.006      332.486        1.180      865.078
12/18/2021  17:41:00       72.851       24.123       -7.894       24.332       14.279       11.337      592.028      203.892      128.521        0.344        0.046       76.741        9.973        0.017      332.494        1.194      865.067
12/18/2021  17:42:00       82.633       29.984       -6.239       25.558       16.183       14.237      653.213      261.887      202.689        0.444        0.056       87.905       14.485        0.027      332.479        1.168      865.043
12/18/2021  17:43:00       97.587       40.519      -22.594       18.671       19.120       16.281      348.616      365.560      265.083        0.633        0.049      105.664        9.605        0.008      332.544        1.275      865.023
12/18/2021  17:44:00       93.948       58.547      -11.672       20.582       23.766       16.719      423.624      564.822      279.538        0.683        0.063      110.697        9.547        0.007      332.520        1.237      865.012
12/18/2021  17:45:00       77.019       12.786      -15.404       26.786       25.467       23.274      717.506      648.556      541.675        0.412        0.095       78.073       11.830        0.023      332.503        1.207      865.012
12/18/2021  17:46:00       86.021       14.708       -6.377       26.227       18.184       14.559      687.833      330.668      211.961        0.444        0.062       87.270        6.175        0.005      332.455        1.127      865.009
12/18/2021  17:47:00       80.690       20.577       -6.627       22.266       17.713       13.223      495.767      313.763      174.844        0.398        0.049       83.273       11.921        0.020      332.396        1.032      865.000
12/18/2021  17:48:00       94.477       23.661      -12.854       11.281       16.895        9.687      127.253      285.434       93.833        0.508        0.025       97.395        8.313        0.007      332.415        1.061      865.009
12/18/2021  17:49:00       26.346        1.836        0.526       27.589       16.499       14.454      761.129      272.216      208.908        0.097        0.062       26.409       16.560        0.393      332.395        1.030      865.015
12/18/2021  17:50:00       46.194      -10.463      -11.511       22.249       20.228       14.490      495.022      409.163      209.956        0.174        0.056       47.364       13.229        0.078      332.387        1.017      865.005
12/18/2021  17:51:00       49.421       -4.811       -5.410       23.953       21.665       12.885      573.752      469.360      166.036        0.185        0.060       49.655        7.552        0.023      332.387        1.017      865.008
12/18/2021  17:52:00       39.858        6.331       -0.964       25.165       17.962       15.364      633.274      322.640      236.060        0.141        0.060       40.358       11.881        0.087      332.377        0.998      865.005
12/18/2021  17:53:00       62.309       11.286       -3.469       27.890       26.708       15.334      777.873      713.292      235.144        0.287        0.086       63.323       13.400        0.045      332.398        1.035      865.013
12/18/2021  17:54:00       35.269       33.343        7.907       45.942       29.212       26.054     2110.641      853.332      678.811        0.303        0.182       48.535       17.317        0.127      332.424        1.078      865.016
12/18/2021  17:55:00       42.259       41.283        4.920       32.157       31.517       19.925     1034.102      993.318      397.010        0.297        0.121       59.077       13.931        0.056      332.349        0.954      865.022
12/18/2021  17:56:00       21.612       10.805       -3.108       19.222       15.353       14.583      369.489      235.700      212.674        0.071        0.041       24.163       10.393        0.185      332.280        0.839      865.027
12/18/2021  17:57:00       12.926       -1.889       -5.863       10.425       15.678       10.936      108.679      245.811      119.586        0.034        0.024       13.063        4.140        0.100      332.308        0.887      865.035
12/18/2021  17:58:00       33.547       11.757       -6.683       18.199       20.551       10.255      331.213      422.353      105.172        0.108        0.043       35.548        6.175        0.030      332.272        0.825      865.030
12/18/2021  17:59:00       35.011       -3.469       -8.759       19.548       17.222       12.013      382.135      296.606      144.318        0.107        0.041       35.183        8.422        0.057      332.274        0.829      865.028
12/18/2021  18:00:00       17.151       -1.795       -0.638       11.674       12.930       10.626      136.278      167.175      112.906        0.036        0.021       17.244        4.779        0.077      332.289        0.853      865.027
12/18/2021  18:01:00       32.310       14.918       -6.697        8.656        7.842        6.946       74.934       61.497       48.249        0.075        0.009       35.588        6.392        0.032      332.231        0.758      865.028
12/18/2021  18:02:00       56.325       18.676       -6.118       20.379       16.290        8.481      415.284      265.366       71.927        0.216        0.038       59.340        6.878        0.013      332.225        0.750      865.028
12/18/2021  18:03:00       69.533        1.483       -5.054       18.317       16.060       13.189      335.509      257.928      173.940        0.281        0.038       69.549       11.457        0.027      332.246        0.784      865.019
12/18/2021  18:04:00       76.256       26.621       -7.256       30.094       27.383       19.733      905.642      749.832      389.394        0.431        0.102       80.769       21.001        0.068      332.186        0.685      865.010
12/18/2021  18:05:00       78.217       47.261      -17.563       34.414       23.087       16.811     1184.312      533.022      282.600        0.533        0.100       91.386       16.831        0.034      332.168        0.655      865.010
12/18/2021  18:06:00      110.203       21.933      -18.427       21.227       28.529       15.583      450.567      813.929      242.841        0.724        0.075      112.365        8.658        0.006      332.185        0.682      865.013
12/18/2021  18:07:00       43.563        6.040       -5.076       33.529       26.612       16.692     1124.164      708.213      278.622        0.204        0.106       43.980       10.651        0.059      332.142        0.610      865.018
12/18/2021  18:08:00       85.625        7.658      -13.722       35.591       21.929       14.544     1266.735      480.869      211.538        0.477        0.098       85.967        8.853        0.011      332.154        0.631      865.028
12/18/2021  18:09:00       91.037       15.654       -8.520       18.275       20.017       16.234      333.986      400.678      263.544        0.480        0.050       92.373       11.433        0.015      332.071        0.496      865.035
12/18/2021  18:10:00       95.881       19.809       -6.800       22.699       15.274       13.736      515.233      233.304      188.677        0.528        0.047       97.906       12.124        0.015      332.058        0.472      865.046
12/18/2021  18:11:00       82.990       22.873      -10.206       20.324       16.243        8.978      413.070      263.835       80.606        0.414        0.038       86.084        6.560        0.006      332.015        0.406      865.050
12/18/2021  18:12:00       78.133       12.424       -9.010       26.722       22.420       12.489      714.073      502.654      155.973        0.386        0.069       79.114       12.885        0.027      332.044        0.450      865.061
12/18/2021  18:13:00       83.028       11.867      -12.022       17.449       15.702       14.807      304.471      246.544      219.248        0.397        0.039       83.871        5.420        0.004      331.982        0.349      865.073
12/18/2021  18:14:00       82.432       16.739       -8.225       22.664       15.382       11.830      513.656      236.594      139.955        0.402        0.045       84.115        9.060        0.012      332.051        0.463      865.078
12/18/2021  18:15:00       98.995       40.161      -14.837       26.260       17.953       11.156      689.607      322.311      124.459        0.638        0.057      106.831        9.653        0.008      332.034        0.434      865.076
12/18/2021  18:16:00      114.607       45.049      -23.022       21.490       20.634       15.842      461.816      425.765      250.980        0.842        0.057      123.143       12.687        0.011      332.067        0.489      865.074
12/18/2021  18:17:00      106.805       43.196      -19.572       22.467       20.499       14.159      504.745      420.198      200.464        0.739        0.056      115.209       11.395        0.010      332.025        0.420      865.084
12/18/2021  18:18:00       97.081       23.676      -10.585       20.010       21.945       10.376      400.405      481.579      107.670        0.554        0.049       99.926        6.135        0.004      332.018        0.409      865.097
12/18/2021  18:19:00      101.918       24.061       -7.613       23.165       18.462       13.046      536.637      340.834      170.200        0.604        0.052      104.720       11.601        0.012      332.013        0.400      865.105
12/18/2021  18:20:00      109.940       20.624      -10.798       16.380       19.096       14.330      268.291      364.642      205.338        0.673        0.042      111.857        7.223        0.004      332.065        0.486      865.117
12/18/2021  18:21:00       70.415       22.915      -11.574       22.775       21.268       12.790      518.717      452.329      163.587        0.338        0.057       74.050        8.512        0.013      331.987        0.356      865.139
12/18/2021  18:22:00       79.058       22.722       -6.704       17.638       19.586       10.715      311.116      383.611      114.808        0.381        0.040       82.259        7.196        0.008      331.975        0.338      865.152
12/18/2021  18:23:00       58.795       27.036       -5.465       14.121       16.365       10.246      199.396      267.800      104.981        0.239        0.029       64.713        9.083        0.020      331.958        0.308      865.156
12/18/2021  18:24:00       73.749       30.181      -11.151       14.252       13.941       12.043      203.133      194.360      145.038        0.351        0.027       79.685        8.386        0.011      331.980        0.345      865.144
12/18/2021  18:25:00       30.262       23.649       -4.159       17.855       20.087       11.097      318.787      403.489      123.152        0.117        0.042       38.407       13.440        0.122      331.939        0.279      865.129
12/18/2021  18:26:00       51.133       41.351      -10.088       11.872       18.072       14.317      140.942      326.598      204.971        0.255        0.034       65.761        8.060        0.015      331.952        0.298      865.124
12/18/2021  18:27:00       77.349       35.879      -18.384       20.087       23.275       13.606      403.478      541.747      185.111        0.437        0.057       85.266        4.194        0.002      331.983        0.347      865.107
12/18/2021  18:28:00      106.064       41.580      -25.155       28.287       22.132       22.395      800.179      489.832      501.553        0.770        0.090      113.923       11.252        0.010      331.938        0.278      865.081
12/18/2021  18:29:00      100.912       41.028      -11.496       28.931       16.083       13.620      837.004      258.649      185.500        0.664        0.064      108.933       12.743        0.014      331.899        0.213      865.072
12/18/2021  18:30:00       98.504       46.770       -7.782       16.147       15.729       12.248      260.737      247.392      150.007        0.630        0.033      109.043        9.538        0.008      331.876        0.174      865.074
12/18/2021  18:31:00       94.808       36.336       -9.355       19.563       16.373        7.901      382.719      268.062       62.420        0.555        0.036      101.532        3.938        0.002      331.886        0.191      865.078
12/18/2021  18:32:00       91.235       23.679       -8.000       13.937       19.365       12.331      194.236      374.994      152.058        0.483        0.036       94.257        7.088        0.006      331.898        0.209      865.071
12/18/2021  18:33:00       63.563       19.643       -8.167       18.728       15.882       14.272      350.752      252.229      203.684        0.265        0.040       66.529       12.592        0.036      331.852        0.135      865.054
12/18/2021  18:34:00       62.043       12.359       -8.202       12.138       10.504        8.301      147.341      110.343       68.910        0.220        0.016       63.262        5.282        0.007      331.850        0.133      865.042
12/18/2021  18:35:00       65.236       21.339       -6.791       12.285       10.914       10.187      150.910      119.110      103.780        0.257        0.019       68.637        5.371        0.006      331.884        0.189      865.028
12/18/2021  18:36:00       74.696       22.480       -9.039       16.157       13.084       10.030      261.063      171.197      100.594        0.335        0.027       78.006        5.908        0.006      331.895        0.205      864.995
12/18/2021  18:37:00       79.967       26.265      -12.080       10.152       14.965       11.882      103.067      223.956      141.191        0.385        0.023       84.170        6.510        0.006      331.888        0.193      864.987
12/18/2021  18:38:00       71.874       33.497      -20.033       15.680       12.746       12.047      245.863      162.455      145.134        0.362        0.028       79.296        6.456        0.007      331.965        0.319      864.993
12/18/2021  18:39:00       82.305       33.762      -17.247       12.643       15.617        9.055      159.850      243.881       81.999        0.435        0.024       88.961        6.303        0.005      331.944        0.287      864.986
12/18/2021  18:40:00       54.450       26.531       -6.121       23.749       12.277        7.197      564.029      150.727       51.800        0.224        0.038       60.570        8.538        0.020      331.898        0.211      864.989
12/18/2021  18:41:00       19.005       13.592       -3.400       22.344       11.911        9.033      499.256      141.878       81.595        0.064        0.036       23.365        5.303        0.052      331.853        0.136      865.002
12/18/2021  18:42:00       28.242       33.173       -3.598       15.746       24.195        9.069      247.921      585.387       82.252        0.141        0.046       43.567        7.867        0.033      331.932        0.265      865.018
12/18/2021  18:43:00       58.637       43.505      -13.151       20.214       15.900       12.368      408.590      252.795      152.962        0.316        0.041       73.014        4.950        0.005      331.953        0.299      865.016
12/18/2021  18:44:00       55.047       38.736      -11.018       20.313       15.846       12.499      412.626      251.086      156.235        0.274        0.041       67.310        3.674        0.003      331.943        0.283      865.008
12/18/2021  18:45:00       46.378       29.561       -8.220       13.600       13.167       11.109      184.970      173.375      123.414        0.179        0.024       54.998        8.283        0.023      331.913        0.234      865.010
12/18/2021  18:46:00       45.296       29.726       -6.641       16.186       17.730       12.078      261.995      314.346      145.884        0.185        0.036       54.179       10.318        0.036      331.913        0.235      865.006
12/18/2021  18:47:00       48.766       32.229       -7.873       13.665       13.040       12.293      186.719      170.034      151.126        0.199        0.025       58.454        8.192        0.020      331.893        0.204      865.010
12/18/2021  18:48:00       46.788       38.083      -14.554       13.535        8.544        7.880      183.185       73.005       62.095        0.208        0.016       60.327        2.007        0.001      331.892        0.200      865.015
12/18/2021  18:49:00       26.189       40.130       -8.856        8.970        8.685       12.421       80.453       75.435      154.293        0.134        0.016       47.919       10.491        0.048      331.865        0.157      865.023
12/18/2021  18:50:00       28.924       21.856      -15.107       15.299       13.144       13.740      234.064      172.775      188.795        0.107        0.030       36.253       11.868        0.107      331.948        0.290      865.027
12/18/2021  18:51:00       15.172        8.113      -12.400       15.530       11.121        8.389      241.187      123.673       70.380        0.044        0.022       17.205        8.174        0.226      331.928        0.258      865.028
12/18/2021  18:52:00       -2.033       -7.534        1.235        7.303       11.364        4.204       53.339      129.142       17.676        0.013        0.010        7.803        2.120        0.074      331.897        0.209      865.031
12/18/2021  18:53:00       20.466      -16.228       -7.089       15.857       14.611        8.639      251.441      213.489       74.632        0.064        0.027       26.119        9.129        0.122      331.967        0.324      865.029
12/18/2021  18:54:00       24.338        1.799       -5.858       13.865       19.542        8.666      192.247      381.908       75.103        0.064        0.032       24.404        6.250        0.066      331.917        0.242      865.028
12/18/2021  18:55:00       13.564        5.956        0.821       11.757       11.303        7.074      138.235      127.755       50.042        0.027        0.016       14.814        5.373        0.132      331.906        0.225      865.033
12/18/2021  18:56:00        9.232       -1.891       -8.075       12.343       14.766       13.518      152.357      218.033      182.724        0.035        0.028        9.424       10.150        1.160      331.890        0.197      865.047
12/18/2021  18:57:00       16.933       -7.964       -6.632       19.998       16.777       13.016      399.915      281.459      169.404        0.062        0.043       18.712       11.751        0.394      331.851        0.133      865.072
12/18/2021  18:58:00       44.455        9.556       -8.051       15.545       11.686       10.434      241.656      136.572      108.867        0.131        0.024       45.470        4.424        0.009      331.946        0.288      865.089
12/18/2021  18:59:00       14.978      -17.801      -19.670       26.731       30.676       19.506      714.547      940.995      380.485        0.148        0.102       23.264       10.810        0.216      331.943        0.285      865.078
12/18/2021  19:00:00       16.866      -14.101      -14.424       23.260       31.410       23.667      541.023      986.586      560.140        0.139        0.104       21.985       13.197        0.360      331.955        0.304      865.085
12/18/2021  19:01:00       40.057      -13.825      -20.103       28.230       33.393       19.166      796.923     1115.089      367.330        0.224        0.114       42.376       13.434        0.101      331.854        0.139      865.101
12/18/2021  19:02:00       42.191      -13.142       -7.957       31.924       26.975       23.619     1019.140      727.664      557.863        0.216        0.115       44.191       22.447        0.258      331.768       -0.003      865.095
12/18/2021  19:03:00       45.966       -4.860       -5.722       34.279       28.509       22.193     1175.065      812.766      492.525        0.232        0.124       46.222       18.478        0.160      331.705       -0.107      865.057
12/18/2021  19:04:00       19.778        4.232       -9.198       15.506       24.473       15.896      240.440      598.949      252.692        0.079        0.055       20.226        9.599        0.225      331.721       -0.080      865.035
12/18/2021  19:05:00       27.507       -1.224       -5.564       19.824       15.992       14.483      392.978      255.758      209.756        0.082        0.043       27.534       10.716        0.151      331.712       -0.094      865.019
12/18/2021  19:06:00       56.601        5.748      -10.623       15.701       16.376        8.887      246.528      268.186       78.977        0.197        0.030       56.892        6.876        0.015      331.740       -0.049      865.018
12/18/2021  19:07:00       27.098        2.013       -0.135       22.531       17.311       14.122      507.642      299.684      199.418        0.087        0.050       27.172       10.901        0.161      331.736       -0.055      865.006
12/18/2021  19:08:00       41.163      -11.751       -3.502       27.169       22.942       17.058      738.154      526.353      290.978        0.170        0.078       42.807       14.722        0.118      331.728       -0.070      864.985
12/18/2021  19:09:00       41.895       -1.044       -4.422       34.678       30.951       29.362     1202.555      957.950      862.148        0.240        0.151       41.908       22.015        0.276      331.632       -0.228      864.972
12/18/2021  19:10:00       19.225      -19.061      -17.544       25.562       35.650       26.161      653.409     1270.907      684.375        0.182        0.130       27.073       17.016        0.395      331.713       -0.094      864.989
12/18/2021  19:11:00        7.017      -22.360      -18.453       14.600       25.755       17.855      213.164      663.336      318.814        0.104        0.060       23.435        7.671        0.107      331.812        0.070      865.023
12/18/2021  19:12:00       67.610      -19.906      -11.551       33.281       24.450       15.651     1107.633      597.781      244.947        0.353        0.098       70.480        6.112        0.008      331.716       -0.089      865.025
12/18/2021  19:13:00       73.343      -19.425      -13.542       32.258       25.501       18.267     1040.588      650.316      333.701        0.398        0.101       75.871       17.283        0.052      331.670       -0.165      865.017
12/18/2021  19:14:00       29.437      -12.688      -12.733       26.527       30.817       21.171      703.662      949.701      448.217        0.165        0.105       32.055       18.208        0.323      331.652       -0.193      865.015
12/18/2021  19:15:00       21.170       -4.945       -4.468       26.321       24.233       19.969      692.778      587.239      398.745        0.109        0.084       21.740       15.901        0.535      331.616       -0.253      865.034
12/18/2021  19:16:00       30.196        4.928      -13.361       31.181       25.904       16.448      972.259      671.030      270.527        0.151        0.096       30.596        8.269        0.073      331.617       -0.253      865.036
12/18/2021  19:17:00       54.956        4.737      -18.122       39.410       37.006       23.986     1553.164     1369.429      575.351        0.343        0.175       55.159       19.903        0.130      331.561       -0.346      865.017
12/18/2021  19:18:00       35.024        8.390       -5.032       23.383       21.482       19.354      546.771      461.486      374.579        0.135        0.069       36.015       11.441        0.101      331.510       -0.430      865.014
12/18/2021  19:19:00       50.165       -0.929      -14.642       18.497       18.353       13.245      342.131      336.838      175.420        0.179        0.043       50.174        8.842        0.031      331.541       -0.378      865.026
12/18/2021  19:20:00       72.616       14.920      -15.138       17.580       17.943       10.549      309.053      321.956      111.276        0.323        0.037       74.133        8.888        0.014      331.511       -0.428      865.024
12/18/2021  19:21:00      111.952       47.935      -24.280       12.835       15.971       12.341      164.727      255.057      152.299        0.800        0.029      121.783        6.374        0.003      331.510       -0.431      865.010
12/18/2021  19:22:00      100.098       42.981      -20.879       22.983       30.927       18.730      528.198      956.467      350.795        0.707        0.092      108.935       16.713        0.024      331.585       -0.307      865.015
12/18/2021  19:23:00       99.868       32.986      -22.162       10.440       14.951        8.736      109.004      223.537       76.319        0.598        0.020      105.174        4.323        0.002      331.552       -0.361      865.022
12/18/2021  19:24:00       79.135       18.938      -13.479       19.616       13.850       13.853      384.768      191.828      191.908        0.379        0.038       81.369       12.334        0.023      331.460       -0.512      865.012
12/18/2021  19:25:00       51.623        1.495       -6.640       27.618       16.862       15.723      762.761      284.341      247.206        0.200        0.065       51.645       17.256        0.112      331.524       -0.405      865.017
12/18/2021  19:26:00       42.990       25.522       -7.132       14.174       11.519        6.374      200.890      132.686       40.628        0.146        0.019       49.995        4.778        0.009      331.465       -0.503      865.028
12/18/2021  19:27:00       24.826       14.141       -3.584       16.054       10.513        8.998      257.743      110.521       80.965        0.064        0.022       28.571        7.318        0.066      331.448       -0.532      865.024
12/18/2021  19:28:00       58.951       11.769       -8.766       17.631       10.699        9.199      310.856      114.477       84.618        0.210        0.025       60.114        5.194        0.007      331.495       -0.455      865.016
12/18/2021  19:29:00       64.777       26.408      -10.243       16.326       14.744       15.208      266.545      217.392      231.297        0.286        0.036       69.953        8.060        0.013      331.503       -0.441      865.011
12/18/2021  19:30:00       51.323       19.645      -11.310       15.750       14.422       10.323      248.078      208.003      106.560        0.186        0.028       54.954        7.214        0.017      331.477       -0.482      865.007
12/18/2021  19:31:00       36.605       25.815      -11.744       13.944       17.625       14.660      194.421      310.629      214.921        0.143        0.036       44.792       10.255        0.052      331.471       -0.493      865.008
12/18/2021  19:32:00       38.614       28.553       -7.985       18.518       19.542       13.175      342.907      381.876      173.593        0.163        0.045       48.024       11.267        0.055      331.445       -0.536      865.013
12/18/2021  19:33:00       42.879       51.670       -9.684       17.835       17.682       13.654      318.081      312.647      186.441        0.271        0.041       67.145       10.821        0.026      331.475       -0.487      865.011
12/18/2021  19:34:00       17.595       79.111       -7.327       28.056       29.519       14.348      787.114      871.367      205.874        0.424        0.093       81.044        9.609        0.014      331.579       -0.315      865.011
12/18/2021  19:35:00      -11.142       86.726      -12.254       18.727       26.286       10.463      350.690      690.929      109.474        0.447        0.058       87.439        6.186        0.005      331.626       -0.237      865.018
12/18/2021  19:36:00      -12.581       89.544       -4.249       28.169       40.737       17.214      793.501     1659.535      296.316        0.547        0.137       90.423       18.565        0.042      331.556       -0.354      865.013
12/18/2021  19:37:00       28.989       71.661       -9.437       34.777       20.351       13.033     1209.414      414.174      169.850        0.393        0.090       77.302        6.705        0.008      331.653       -0.191      865.012
12/18/2021  19:38:00       -4.165       38.615       -3.562       14.333       19.004       15.828      205.445      361.167      250.533        0.117        0.041       38.839       10.683        0.076      331.624       -0.241      865.007
12/18/2021  19:39:00        7.163       77.183      -11.495       30.740       20.924       16.763      944.972      437.811      280.990        0.390        0.083       77.515       13.869        0.032      331.620       -0.247      865.001
12/18/2021  19:40:00       -6.368       39.217       -2.966       16.260       18.040       12.344      264.399      325.430      152.380        0.116        0.037       39.730        8.584        0.047      331.495       -0.454      864.993
12/18/2021  19:41:00        7.804       18.768       -7.748       22.273       12.278       15.201      496.066      150.753      231.075        0.068        0.044       20.326        7.832        0.148      331.524       -0.406      864.993
12/18/2021  19:42:00       18.330       13.657       -2.012       18.247       19.541       10.332      332.953      381.835      106.756        0.067        0.041       22.858       10.937        0.229      331.536       -0.388      865.001
12/18/2021  19:43:00      -18.700       16.413       -1.444       21.459       14.353       18.637      460.499      205.997      347.330        0.082        0.051       24.881        7.749        0.097      331.405       -0.602      865.021
12/18/2021  19:44:00      -28.325        9.442      -14.414       18.067        9.751       16.614      326.400       95.081      276.027        0.090        0.035       29.857       11.362        0.145      331.348       -0.695      865.022
12/18/2021  19:45:00      -15.134       14.775       -2.937       13.140        7.865        5.222      172.657       61.860       27.273        0.036        0.013       21.151        2.419        0.013      331.346       -0.700      865.012
12/18/2021  19:46:00       15.085      -12.327      -10.025       13.463       17.691        9.498      181.242      312.978       90.216        0.053        0.029       19.481       10.256        0.277      331.439       -0.546      865.007
12/18/2021  19:47:00       25.759      -14.581      -14.048       12.988       15.480       11.467      168.690      239.621      131.503        0.081        0.027       29.599        4.732        0.026      331.522       -0.409      864.995
12/18/2021  19:48:00       24.959      -14.839      -11.186       14.927       18.632       14.475      222.804      347.142      209.512        0.087        0.039       29.037       14.251        0.241      331.520       -0.411      864.999
12/18/2021  19:49:00       31.446       -3.550       -8.336       21.207       18.582       12.076      449.734      345.282      145.830        0.101        0.047       31.646       11.564        0.134      331.473       -0.490      864.986
12/18/2021  19:50:00       23.261      -12.573       -7.058       19.607       12.826       16.506      384.448      164.504      272.442        0.079        0.041       26.442       13.156        0.248      331.436       -0.552      864.967
12/18/2021  19:51:00       25.266       -8.108       -3.538       26.280       14.568       16.993      690.659      212.221      288.755        0.095        0.060       26.535       17.704        0.445      331.420       -0.577      864.945
12/18/2021  19:52:00       23.600      -11.841       -3.592       22.163       14.258       11.119      491.211      203.292      123.640        0.076        0.041       26.404       10.373        0.154      331.483       -0.471      864.936
12/18/2021  19:53:00       48.820      -20.530      -13.738       22.413       17.411       11.797      502.341      303.159      139.162        0.197        0.047       52.961        7.619        0.021      331.474       -0.488      864.923
12/18/2021  19:54:00       35.760        5.505      -24.192       23.522       35.295       20.949      553.283     1245.755      438.847        0.207        0.112       36.182       12.745        0.124      331.506       -0.437      864.919
12/18/2021  19:55:00       24.715       10.015      -22.907       21.309       29.019       19.795      454.063      842.081      391.857        0.146        0.084       26.667       14.393        0.291      331.489       -0.464      864.904
12/18/2021  19:56:00       47.854        1.657      -13.192       26.731       32.818       16.839      714.557     1077.003      283.549        0.227        0.104       47.882       12.718        0.071      331.384       -0.635      864.895
12/18/2021  19:57:00       26.325        9.171       -7.973       20.955       19.515       15.751      439.122      380.844      248.079        0.095        0.053       27.876       11.118        0.159      331.372       -0.656      864.883
12/18/2021  19:58:00       26.524       11.540        1.021       21.017       18.947       15.819      441.706      359.007      250.227        0.094        0.053       28.925        7.089        0.060      331.348       -0.696      864.879
12/18/2021  19:59:00       35.642       -9.788      -10.789       26.035       25.681       21.353      677.833      659.524      455.947        0.164        0.090       36.962        6.837        0.034      331.319       -0.741      864.858
12/18/2021  20:00:00       31.441        4.834       -5.190       36.533       23.882       16.982     1334.638      570.371      288.385        0.162        0.110       31.811       16.556        0.271      331.319       -0.743      864.839
12/18/2021  20:01:00       56.230      -13.380       -8.559       17.404       17.717       14.508      302.892      313.881      210.478        0.212        0.041       57.800        5.844        0.010      331.308       -0.760      864.824
12/18/2021  20:02:00       73.184       19.259       -9.887       15.011       12.155        7.577      225.315      147.735       57.411        0.313        0.022       75.676        6.539        0.007      331.332       -0.721      864.812
12/18/2021  20:03:00       55.194       16.315      -12.979       23.622       16.948       13.278      558.006      287.228      176.318        0.225        0.051       57.555       10.053        0.031      331.329       -0.728      864.797
12/18/2021  20:04:00       42.978        3.698      -10.491       28.419       27.399       17.037      807.619      750.727      290.244        0.191        0.092       43.137       15.742        0.133      331.306       -0.765      864.789
12/18/2021  20:05:00       11.326       -1.467        2.939       35.936       37.978       18.883     1291.429     1442.347      356.550        0.161        0.155       11.420       10.577        0.858      331.349       -0.693      864.792
12/18/2021  20:06:00       82.386       37.077      -12.681       13.954       22.792       10.953      194.716      519.455      119.975        0.458        0.042       90.345        6.270        0.005      331.267       -0.826      864.790
12/18/2021  20:07:00       63.887        1.108      -15.158       29.488       32.124       15.784      869.567     1031.938      249.137        0.323        0.108       63.897        6.301        0.010      331.286       -0.797      864.785
12/18/2021  20:08:00       63.785       -2.794       -5.721       30.913       29.566       14.771      955.619      874.125      218.178        0.308        0.102       63.846        6.940        0.012      331.258       -0.842      864.774
12/18/2021  20:09:00       83.466       23.619      -14.876       17.718       12.574        9.850      313.910      158.095       97.013        0.416        0.028       86.744        6.134        0.005      331.243       -0.867      864.758
12/18/2021  20:10:00       77.186       25.341      -15.274       11.416       11.479        9.527      130.318      131.762       90.760        0.359        0.018       81.240        6.322        0.006      331.219       -0.907      864.744
12/18/2021  20:11:00       48.972       -7.607       -6.916       38.972       28.543       15.705     1518.787      814.678      246.639        0.254        0.129       49.560       16.255        0.108      331.296       -0.780      864.741
12/18/2021  20:12:00       23.309        1.577       -4.026       32.110       21.846       20.698     1031.027      477.263      428.394        0.125        0.097       23.362       17.473        0.559      331.213       -0.915      864.750
12/18/2021  20:13:00       31.897       -1.690       -8.650       25.913       21.935       15.787      671.499      481.162      249.244        0.125        0.070       31.942        6.009        0.035      331.245       -0.863      864.763
12/18/2021  20:14:00       18.115       -4.277       -2.136       23.376       18.243       12.632      546.428      332.802      159.565        0.069        0.052       18.614       10.657        0.328      331.253       -0.849      864.765
12/18/2021  20:15:00       32.607        7.190        0.790       33.300       26.623       13.016     1108.888      708.804      169.405        0.155        0.099       33.390       14.849        0.198      331.168       -0.990      864.757
12/18/2021  20:16:00       63.480       23.150      -11.109       27.787       25.799       10.965      772.097      665.608      120.228        0.312        0.078       67.570        9.637        0.020      331.140       -1.036      864.752
12/18/2021  20:17:00       44.895       22.670       -9.132       17.846       13.283       15.370      318.462      176.448      236.227        0.167        0.037       50.294        9.572        0.036      331.162       -1.001      864.756
12/18/2021  20:18:00       45.848        4.509        0.510       18.395       28.551       17.245      338.367      815.139      297.407        0.179        0.073       46.069       10.850        0.055      331.173       -0.982      864.761
12/18/2021  20:19:00       55.710        4.688       -8.458       32.988       21.238       13.281     1088.240      451.072      176.377        0.246        0.086       55.907        6.006        0.012      331.173       -0.981      864.758
12/18/2021  20:20:00       32.433        6.249        1.110       29.017       24.735       20.478      841.984      611.842      419.364        0.148        0.094       33.029       18.457        0.312      331.182       -0.968      864.762
12/18/2021  20:21:00       25.811        4.670        0.224       18.269       17.484       12.676      333.740      305.682      160.691        0.074        0.040       26.230        8.552        0.106      331.178       -0.974      864.776
12/18/2021  20:22:00       30.340       -2.715      -11.568       25.192       19.124       18.287      634.620      365.742      334.423        0.120        0.067       30.461       15.115        0.246      331.227       -0.893      864.774
12/18/2021  20:23:00       26.200       11.897        1.492       17.936       15.332       17.397      321.715      235.078      302.642        0.084        0.043       28.775        4.750        0.027      331.206       -0.926      864.754
12/18/2021  20:24:00       56.793       20.510       -7.904        9.783       10.227        9.668       95.717      104.595       93.472        0.200        0.015       60.384        5.364        0.008      331.185       -0.964      864.760
12/18/2021  20:25:00       33.397        5.737      -12.450       15.008        9.886        9.849      225.229       97.728       97.008        0.086        0.021       33.886        3.307        0.010      331.198       -0.942      864.761
12/18/2021  20:26:00       27.971      -19.184      -11.366       13.375       18.961        8.543      178.884      359.508       72.980        0.095        0.031       33.918        2.329        0.005      331.265       -0.829      864.764
12/18/2021  20:27:00       14.473      -46.323      -16.282       22.890       19.088       10.347      523.946      364.352      107.058        0.181        0.050       48.532        8.528        0.031      331.269       -0.825      864.761
12/18/2021  20:28:00      -26.685      -40.954       -7.901       15.533       13.182        9.896      241.278      173.756       97.927        0.148        0.026       48.881        6.442        0.017      331.352       -0.688      864.752
12/18/2021  20:29:00      -14.531      -21.130       -6.584       29.111       25.491       14.265      847.472      649.786      203.501        0.120        0.085       25.644       10.827        0.178      331.283       -0.799      864.737
12/18/2021  20:30:00       26.639        5.673      -10.825       10.569        8.096       10.502      111.709       65.539      110.302        0.057        0.014       27.236        7.245        0.071      331.215       -0.911      864.727
12/18/2021  20:31:00       26.243       -0.467      -16.506        8.634       10.865        6.991       74.552      118.057       48.876        0.060        0.012       26.248        2.937        0.013      331.233       -0.884      864.722
12/18/2021  20:32:00       23.945       10.955      -10.728        4.538        5.202        6.962       20.592       27.059       48.473        0.045        0.005       26.332        2.387        0.008      331.221       -0.904      864.715
12/18/2021  20:33:00       24.207       14.489       -0.484       13.628        8.189       11.511      185.735       67.053      132.497        0.059        0.019       28.212        6.535        0.054      331.180       -0.970      864.715
12/18/2021  20:34:00      -13.179       20.003       -2.153       15.785        8.007        8.610      249.177       64.113       74.126        0.048        0.019       23.954        4.838        0.041      331.191       -0.952      864.715
12/18/2021  20:35:00       -0.037       23.447       -1.163       16.482       16.543        9.203      271.667      273.667       84.688        0.059        0.032       23.447        8.490        0.131      331.168       -0.990      864.713
12/18/2021  20:36:00       16.503       12.387       -5.704        8.957       10.560        9.542       80.223      111.521       91.047        0.037        0.014       20.635        6.641        0.104      331.131       -1.050      864.717
12/18/2021  20:37:00       36.853       16.501       -5.402       12.825        5.644        6.814      164.476       31.857       46.427        0.095        0.012       40.379        5.550        0.019      331.204       -0.930      864.708
12/18/2021  20:38:00        9.120      -13.042       -3.563       18.552       28.682        9.665      344.176      822.635       93.404        0.076        0.063       15.914        5.804        0.133      331.257       -0.843      864.703
12/18/2021  20:39:00       -1.157        9.710       -3.651       19.837       18.599       12.239      393.500      345.932      149.791        0.050        0.044        9.778       10.492        1.151      331.184       -0.964      864.700
12/18/2021  20:40:00       25.229       21.182        3.758       18.575       18.518       10.804      345.021      342.930      116.725        0.095        0.040       32.941        9.477        0.083      331.134       -1.046      864.685
12/18/2021  20:41:00       32.882        8.687      -12.093       14.928        9.726        8.506      222.834       94.598       72.354        0.085        0.019       34.011        3.176        0.009      331.123       -1.066      864.669
12/18/2021  20:42:00        8.738        1.939       -4.865        7.706        7.828        7.695       59.377       61.284       59.208        0.014        0.009        8.950        5.174        0.334      331.099       -1.103      864.673
12/18/2021  20:43:00       -8.035      -12.631       -2.691       11.731       10.475        8.992      137.624      109.725       80.860        0.028        0.016       14.970        5.323        0.126      331.096       -1.110      864.690
12/18/2021  20:44:00      -13.706       -5.542      -11.988        9.620       13.969        9.061       92.549      195.133       82.107        0.037        0.018       14.784        7.760        0.275      331.037       -1.207      864.700
12/18/2021  20:45:00       -4.119        4.200       -5.098        7.405       10.466        4.417       54.836      109.535       19.513        0.012        0.009        5.883        2.701        0.211      330.938       -1.369      864.700
12/18/2021  20:46:00      -39.199       16.227      -13.844       10.492       18.335        9.702      110.087      336.181       94.133        0.127        0.027       42.425        9.073        0.046      330.909       -1.416      864.705
12/18/2021  20:47:00      -45.198        5.907      -13.068       18.337       16.361       11.483      336.262      267.666      131.849        0.149        0.037       45.583        5.984        0.017      330.977       -1.304      864.707
12/18/2021  20:48:00      -60.762       23.374       -6.194       49.979       27.659       14.893     2497.854      765.020      221.791        0.388        0.174       65.102       20.143        0.096      330.883       -1.458      864.699
12/18/2021  20:49:00      -96.611       29.158       -4.936       27.141       21.721       16.769      736.616      471.786      281.188        0.585        0.074      100.915       11.254        0.012      330.817       -1.566      864.684
12/18/2021  20:50:00      -87.180       41.268       -3.373       21.528       23.657       16.402      463.469      559.638      269.010        0.530        0.065       96.454       11.163        0.013      330.826       -1.553      864.677
12/18/2021  20:51:00      -88.487       27.533      -11.881       16.078       14.835       14.235      258.510      220.080      202.627        0.471        0.034       92.671        5.702        0.004      330.836       -1.536      864.672
12/18/2021  20:52:00     -111.661       42.842      -12.745       22.993       17.261       15.917      528.673      297.958      253.363        0.777        0.054      119.597       12.820        0.011      330.836       -1.537      864.658
12/18/2021  20:53:00     -114.720       40.035      -18.504       17.164       12.039       11.787      294.591      144.945      138.940        0.784        0.029      121.505        7.684        0.004      330.802       -1.591      864.639
12/18/2021  20:54:00      -99.859       34.595      -11.118       16.641       14.053       12.936      276.907      197.491      167.336        0.597        0.032      105.682        9.755        0.009      330.778       -1.631      864.609
12/18/2021  20:55:00      -91.981       31.642      -17.680       15.921       14.247       14.891      253.471      202.964      221.745        0.523        0.034       97.272        6.709        0.005      330.814       -1.572      864.581
12/18/2021  20:56:00      -44.306        1.889       -5.200       36.786       24.791       17.929     1353.238      614.588      321.442        0.214        0.114       44.346       12.412        0.078      330.918       -1.401      864.585
12/18/2021  20:57:00      -24.683      -18.856      -11.988       14.106       18.698        8.922      198.969      349.632       79.599        0.087        0.031       31.061        8.022        0.067      330.885       -1.455      864.602
12/18/2021  20:58:00      -17.334       12.173       -8.235        9.525       12.463        8.277       90.728      155.337       68.513        0.042        0.016       21.182        5.244        0.061      330.861       -1.495      864.596
12/18/2021  20:59:00      -18.610        2.599      -10.739       15.790       12.046       11.555      249.318      145.110      133.525        0.050        0.026       18.790        6.886        0.134      330.886       -1.454      864.585
12/18/2021  21:00:00      -25.054       19.649       -1.895       29.500       20.757       11.131      870.238      430.857      123.890        0.122        0.071       31.840        9.065        0.081      330.877       -1.469      864.545
12/18/2021  21:01:00      -47.058       11.741       -2.937       20.940       15.330       11.233      438.500      235.007      126.188        0.158        0.040       48.501        9.451        0.038      330.878       -1.467      864.543
12/18/2021  21:02:00      -43.636        7.527      -10.844       16.478       16.579       10.931      271.540      274.867      119.494        0.137        0.033       44.280        7.994        0.033      330.921       -1.397      864.557
12/18/2021  21:03:00      -30.808       24.183      -10.770        8.717        7.379        6.616       75.993       54.450       43.773        0.091        0.009       39.166        3.425        0.008      330.907       -1.421      864.556
12/18/2021  21:04:00      -42.621       18.136      -10.762       15.371       20.249        8.936      236.269      410.027       79.855        0.149        0.036       46.320        5.365        0.013      331.000       -1.266      864.559
12/18/2021  21:05:00      -19.624       -2.261       -8.413       17.453       13.564       12.946      304.609      183.984      167.611        0.056        0.033       19.754        8.162        0.171      330.992       -1.281      864.570
12/18/2021  21:06:00      -16.963       -6.851       -8.099       18.229       18.232       13.425      332.313      332.401      180.221        0.062        0.042       18.294       10.816        0.350      330.879       -1.465      864.589
12/18/2021  21:07:00      -18.199      -14.004       -0.456       15.476       13.068       11.038      239.507      170.771      121.845        0.053        0.027       22.964        8.319        0.131      330.899       -1.434      864.585
12/18/2021  21:08:00      -23.984       18.809       -5.129       25.151       13.600        8.289      632.566      184.969       68.713        0.092        0.044       30.479       11.194        0.135      330.829       -1.548      864.573
12/18/2021  21:09:00      -72.227       16.686       -9.170       15.606       13.540       14.984      243.548      183.329      224.509        0.312        0.033       74.129        8.765        0.014      330.792       -1.607      864.569
12/18/2021  21:10:00      -54.317       15.012       -7.751       27.749       15.863       12.798      770.019      251.639      163.781        0.221        0.059       56.353       10.296        0.033      330.807       -1.583      864.562
12/18/2021  21:11:00      -57.822       13.771       -6.229       18.274       18.087       13.432      333.955      327.127      180.424        0.221        0.042       59.439       12.565        0.045      330.834       -1.538      864.541
12/18/2021  21:12:00      -52.287       11.149       -6.736       41.858       25.407       17.523     1752.070      645.492      307.068        0.280        0.135       53.463       19.169        0.129      330.753       -1.673      864.543
12/18/2021  21:13:00      -52.319       -1.471      -15.242       54.754       23.567       20.237     2998.000      555.417      409.553        0.347        0.198       52.339       10.996        0.044      330.694       -1.768      864.561
12/18/2021  21:14:00     -100.561       21.670       -9.153       49.456       22.637       22.198     2445.865      512.432      492.738        0.706        0.173      102.869       11.237        0.012      330.630       -1.874      864.557
12/18/2021  21:15:00      -26.039       37.839       -8.972       25.177       18.099       18.672      633.882      327.587      348.626        0.175        0.066       45.933       10.038        0.048      330.501       -2.086      864.545
12/18/2021  21:16:00      -55.846       47.647       -9.254       11.783       12.965       10.561      138.831      168.089      111.530        0.295        0.021       73.410        5.315        0.005      330.629       -1.875      864.539
12/18/2021  21:17:00      -48.140       34.799      -15.199       16.512       15.725       14.900      272.634      247.289      222.010        0.225        0.037       59.401        8.303        0.020      330.665       -1.818      864.533
12/18/2021  21:18:00      -70.146       31.304      -20.785       21.266       19.027       16.668      452.239      362.039      277.819        0.371        0.055       76.814        7.104        0.009      330.569       -1.974      864.526
12/18/2021  21:19:00      -52.056        4.291       -4.369       42.284       25.590       21.874     1787.966      654.855      478.463        0.283        0.146       52.233       23.456        0.202      330.569       -1.976      864.528
12/18/2021  21:20:00      -45.915       17.909      -16.862       24.314       20.556       15.883      591.159      422.567      252.256        0.199        0.063       49.284       11.212        0.052      330.619       -1.892      864.523
12/18/2021  21:21:00      -40.666        9.799      -11.841       33.590       21.325       16.982     1128.266      454.742      288.400        0.188        0.094       41.830       16.149        0.149      330.615       -1.900      864.510
12/18/2021  21:22:00      -35.064        8.396      -11.205       32.760       20.454       14.006     1073.229      418.375      196.155        0.156        0.084       36.055        2.243        0.004      330.552       -2.002      864.506
12/18/2021  21:23:00      -41.119       21.068      -11.075       40.700       24.139       20.005     1656.512      582.670      400.205        0.245        0.132       46.202       12.974        0.079      330.578       -1.960      864.505
12/18/2021  21:24:00      -57.082       24.609      -19.512       32.223       22.277       20.248     1038.313      496.280      409.987        0.309        0.097       62.161        7.361        0.014      330.561       -1.988      864.501
12/18/2021  21:25:00      -13.058        1.107       -7.153       26.745       25.802       15.201      715.292      665.749      231.081        0.092        0.081       13.104        9.423        0.517      330.549       -2.006      864.462
12/18/2021  21:26:00      -26.753       10.518       -9.049       30.486       28.134       13.014      929.383      791.545      169.359        0.140        0.095       28.746       10.965        0.145      330.516       -2.062      864.442
12/18/2021  21:27:00      -44.797       28.921      -20.375       12.737       12.973       14.556      162.226      168.303      211.887        0.190        0.027       53.321        7.831        0.022      330.565       -1.982      864.432
12/18/2021  21:28:00      -10.152       -8.109      -19.530       25.993       18.263       10.947      675.621      333.547      119.847        0.084        0.056       12.993       14.521        1.249      330.575       -1.966      864.427
12/18/2021  21:29:00        4.489      -10.559      -14.863        7.259       10.626        7.412       52.687      112.915       54.940        0.029        0.011       11.474        5.450        0.226      330.581       -1.954      864.415
12/18/2021  21:30:00      -27.619       17.988      -12.058       27.073       13.481        8.660      732.959      181.725       74.995        0.111        0.049       32.961        7.747        0.055      330.662       -1.821      864.411
12/18/2021  21:31:00      -54.176       21.446      -21.524       28.954       27.582       16.138      838.339      760.770      260.435        0.286        0.093       58.266       11.717        0.040      330.555       -1.997      864.422
12/18/2021  21:32:00      -57.559       -5.142      -19.996       20.335       27.127       19.964      413.525      735.882      398.572        0.264        0.077       57.788        9.614        0.028      330.450       -2.169      864.418
12/18/2021  21:33:00      -48.564       -3.993      -14.777       27.907       11.912       13.964      778.805      141.907      194.985        0.185        0.056       48.728       15.149        0.097      330.468       -2.139      864.392
12/18/2021  21:34:00      -79.421       23.313      -23.511       38.735       22.557       26.506     1500.428      508.819      702.582        0.506        0.136       82.772       23.676        0.082      330.590       -1.940      864.389
12/18/2021  21:35:00     -104.855       35.707      -23.731       33.654       20.597       22.713     1132.611      424.249      515.882        0.745        0.104      110.768       19.629        0.031      330.481       -2.119      864.397
12/18/2021  21:36:00      -60.800       -0.975      -14.218       49.472       29.276       18.895     2447.474      857.097      357.033        0.378        0.183       60.808       17.079        0.079      330.574       -1.965      864.389
12/18/2021  21:37:00      -10.068       -5.604      -12.899       16.151       21.002       14.476      260.860      441.096      209.542        0.061        0.046       11.523        8.196        0.506      330.627       -1.879      864.386
12/18/2021  21:38:00      -19.623       14.525      -11.437       21.877       18.243       20.032      478.616      332.803      401.292        0.097        0.061       24.413       16.084        0.434      330.674       -1.802      864.391
12/18/2021  21:39:00      -93.092       38.570      -20.121       27.418       23.338       16.540      751.771      544.660      273.580        0.606        0.079      100.765        6.553        0.004      330.570       -1.974      864.402
12/18/2021  21:40:00      -32.119       -7.828       -4.217       33.577       24.480       17.413     1127.419      599.246      303.227        0.157        0.101       33.059       17.133        0.269      330.495       -2.096      864.393
12/18/2021  21:41:00        2.164        0.585        2.229       14.808       14.849       11.902      219.272      220.500      141.667        0.030        0.029        2.242        8.337       13.828      330.545       -2.014      864.408
12/18/2021  21:42:00      -23.096        5.549      -10.780       37.510       30.219       18.965     1407.001      913.212      359.673        0.168        0.134       23.753       13.117        0.305      330.580       -1.956      864.426
12/18/2021  21:43:00       -7.372        2.083       -6.474       18.523       16.567       15.867      343.120      274.466      251.748        0.048        0.043        7.660        7.674        1.004      330.468       -2.139      864.432
12/18/2021  21:44:00      -16.087        1.867       -3.199       11.516       18.034       10.202      132.608      325.234      104.091        0.042        0.028       16.195        6.166        0.145      330.426       -2.208      864.422
12/18/2021  21:45:00      -40.896       23.216      -11.001       11.085        9.348        9.470      122.886       87.377       89.689        0.132        0.015       47.026        7.262        0.024      330.452       -2.166      864.416
12/18/2021  21:46:00      -32.989        0.606      -19.528       12.539       15.389       10.975      157.229      236.825      120.452        0.099        0.026       32.995        6.667        0.041      330.552       -2.005      864.426
12/18/2021  21:47:00       14.203        8.139       -9.237       14.834       19.288       12.228      220.060      372.025      149.528        0.055        0.037       16.369        9.196        0.316      330.524       -2.050      864.434
12/18/2021  21:48:00       -3.031       -7.397       -4.113       12.803       13.821       12.691      163.906      191.028      161.074        0.030        0.026        7.994        6.829        0.730      330.373       -2.297      864.415
12/18/2021  21:49:00        2.360        3.870        0.197        5.743        8.874        7.406       32.981       78.742       54.844        0.009        0.008        4.533        4.707        1.079      330.358       -2.320      864.402
12/18/2021  21:50:00      -49.495       26.003      -12.071       24.629       10.628        9.933      606.598      112.946       98.659        0.204        0.041       55.909        7.923        0.020      330.417       -2.223      864.397
12/18/2021  21:51:00      -80.306       32.491      -18.031       15.215       15.812       11.189      231.496      250.031      125.185        0.422        0.030       86.629        3.960        0.002      330.445       -2.176      864.395
12/18/2021  21:52:00      -57.840       13.115      -14.061       24.665       21.270       15.650      608.360      452.416      244.930        0.251        0.065       59.308       14.462        0.059      330.478       -2.125      864.392
12/18/2021  21:53:00       -0.013       -8.131       -4.851        8.474       11.168       11.598       71.807      124.729      134.506        0.021        0.017        8.131        8.268        1.034      330.537       -2.027      864.374
12/18/2021  21:54:00       16.158       21.003       -4.209       33.521       14.900        7.275     1123.674      222.023       52.925        0.106        0.070       26.499        4.664        0.031      330.614       -1.899      864.350
12/18/2021  21:55:00       57.558       34.125      -12.568       14.797       17.689       10.663      218.940      312.907      113.698        0.264        0.032       66.913        9.918        0.022      330.823       -1.556      864.346
12/18/2021  21:56:00       38.809       10.143      -10.951        6.579        9.451        7.750       43.280       89.325       60.066        0.096        0.010       40.112        4.521        0.013      330.821       -1.560      864.353
12/18/2021  21:57:00       30.178       16.815       -6.899       19.054        9.233       10.681      363.039       85.252      114.088        0.090        0.028       34.546        5.172        0.022      330.766       -1.649      864.348
12/18/2021  21:58:00       10.096       27.423       -9.541       15.584       12.628       12.541      242.873      159.456      157.287        0.075        0.028       29.222        6.616        0.051      330.832       -1.542      864.345
12/18/2021  21:59:00       17.397       24.321       -4.844       10.116       11.696       11.634      102.334      136.804      135.355        0.065        0.019       29.903        8.142        0.074      330.752       -1.674      864.334
12/18/2021  22:00:00       33.545       28.129       -0.891       17.611       13.254       11.491      310.153      175.671      132.040        0.127        0.031       43.778        9.602        0.048      330.791       -1.609      864.327
12/18/2021  22:01:00       45.322       18.715       -9.076       13.605       18.119        9.604      185.107      328.303       92.238        0.155        0.030       49.034        7.281        0.022      330.780       -1.627      864.335
12/18/2021  22:02:00       46.290        5.333      -12.515       20.134       16.173        8.305      405.368      261.559       68.981        0.153        0.037       46.596        7.168        0.024      330.764       -1.654      864.335
12/18/2021  22:03:00       68.513       24.591      -20.039       38.143       24.223       22.856     1454.913      586.767      522.399        0.413        0.128       72.793       19.700        0.073      330.815       -1.571      864.321
12/18/2021  22:04:00      113.512       55.251      -18.402       19.057       18.155       15.274      363.176      329.591      233.309        0.860        0.046      126.245        7.300        0.003      330.807       -1.582      864.296
12/18/2021  22:05:00      113.369       51.094      -12.898       17.983       16.845        9.244      323.396      283.753       85.450        0.816        0.035      124.350        7.403        0.004      330.779       -1.628      864.275
12/18/2021  22:06:00      109.605       54.826      -18.432       11.551       14.053        7.506      133.437      197.498       56.347        0.787        0.019      122.552        4.466        0.001      330.730       -1.709      864.280
12/18/2021  22:07:00       99.349       26.032      -15.931       13.694       14.303        8.177      187.518      204.570       66.858        0.563        0.023      102.703        5.690        0.003      330.713       -1.736      864.292
12/18/2021  22:08:00       91.772       15.192      -12.474        9.127       12.506        7.162       83.297      156.405       51.291        0.455        0.015       93.021        4.750        0.003      330.701       -1.757      864.283
12/18/2021  22:09:00       96.128       13.156       -7.258       10.034        9.547       11.184      100.680       91.143      125.081        0.489        0.016       97.024        5.102        0.003      330.701       -1.757      864.265
12/18/2021  22:10:00       86.170       21.912      -11.447        8.272        5.634        6.956       68.425       31.742       48.383        0.409        0.007       88.912        4.919        0.003      330.719       -1.727      864.249
12/18/2021  22:11:00       72.696       28.441      -12.978        6.530        5.299        5.158       42.647       28.076       26.609        0.318        0.005       78.062        3.716        0.002      330.716       -1.730      864.233
12/18/2021  22:12:00       83.155       18.574      -13.772       12.614       10.754        7.787      159.112      115.644       60.643        0.389        0.017       85.204        5.670        0.004      330.749       -1.677      864.231
12/18/2021  22:13:00       38.602       20.771      -17.342       26.621       34.370       16.934      708.662     1181.267      286.749        0.220        0.109       43.836        9.172        0.044      330.779       -1.629      864.252
12/18/2021  22:14:00       24.717       35.425      -13.296       30.298       44.049       31.630      917.956     1940.270     1000.438        0.295        0.193       43.196       21.210        0.241      330.724       -1.719      864.271
12/18/2021  22:15:00       57.363       51.863       -1.290       14.872       16.474       13.490      221.164      271.392      181.980        0.333        0.034       77.333       10.667        0.019      330.755       -1.668      864.270
12/18/2021  22:16:00       45.224       28.280       -4.647        7.032        4.850        3.671       49.448       23.520       13.479        0.148        0.004       53.339        3.085        0.003      330.727       -1.715      864.264
12/18/2021  22:17:00       64.936       32.525      -13.765       10.251       10.042        8.747      105.084      100.845       76.511        0.287        0.014       72.626        3.583        0.002      330.753       -1.671      864.262
12/18/2021  22:18:00       48.814       12.172      -25.604       26.442       16.246       13.964      699.190      263.921      194.999        0.217        0.058       50.309        4.700        0.009      330.794       -1.604      864.270
12/18/2021  22:19:00        6.216       -8.902      -16.196       25.527       22.528       20.979      651.642      507.532      440.134        0.099        0.080       10.857       15.049        1.921      330.748       -1.680      864.284
12/18/2021  22:20:00      -20.389       -0.805       -8.824        9.452        8.576        9.964       89.344       73.544       99.272        0.038        0.013       20.405        3.048        0.022      330.649       -1.843      864.291
12/18/2021  22:21:00       54.175       23.677      -10.851       32.163       21.121       12.140     1034.431      446.111      147.378        0.262        0.081       59.123        5.371        0.008      330.766       -1.650      864.274
12/18/2021  22:22:00       60.695        9.793      -16.332       26.534       23.636       11.140      704.034      558.673      124.110        0.272        0.069       61.480        5.763        0.009      330.767       -1.649      864.275
12/18/2021  22:23:00       39.327       31.517       -6.589       14.202       11.381       10.625      201.690      129.519      112.883        0.151        0.022       50.398        8.793        0.030      330.727       -1.714      864.297
12/18/2021  22:24:00       53.758       50.383        0.479       22.065       18.973       10.971      486.873      359.962      120.372        0.320        0.048       73.678        7.837        0.011      330.678       -1.795      864.312
12/18/2021  22:25:00       37.941       51.167        3.709       28.374       34.503       20.420      805.072     1190.456      416.959        0.324        0.121       63.699       11.490        0.033      330.665       -1.817      864.301
12/18/2021  22:26:00      -27.251      -13.146      -21.666       29.908       17.739       12.678      894.476      314.681      160.733        0.138        0.068       30.256       10.558        0.122      330.691       -1.773      864.304
12/18/2021  22:27:00       13.021        6.975       -8.867       47.725       39.048       13.326     2277.715     1524.751      177.590        0.214        0.199       14.772       14.624        0.980      330.739       -1.694      864.303
12/18/2021  22:28:00      104.990       51.334      -19.396       26.448       32.043       18.985      699.473     1026.762      360.449        0.806        0.104      116.868       14.521        0.015      330.718       -1.730      864.266
12/18/2021  22:29:00       63.060        9.146      -27.959       30.848       28.669       18.804      951.599      821.919      353.607        0.348        0.106       63.719       10.089        0.025      330.771       -1.641      864.247
12/18/2021  22:30:00      -18.579       31.923       -5.949       42.175       22.492       16.958     1778.691      505.886      287.557        0.199        0.129       36.936       14.178        0.147      330.680       -1.793      864.296
12/18/2021  22:31:00      -40.973       46.724       -9.076       20.905       18.402       12.190      437.015      338.621      148.603        0.243        0.046       62.145       10.804        0.030      330.599       -1.924      864.310
12/18/2021  22:32:00       17.093       45.317       -8.421       18.845       16.969       13.238      355.119      287.962      175.247        0.162        0.041       48.433        8.138        0.028      330.612       -1.903      864.287
12/18/2021  22:33:00       68.374       37.459       -8.776        7.775       12.469        6.109       60.445      155.469       37.324        0.320        0.013       77.963        3.887        0.002      330.861       -1.495      864.258
12/18/2021  22:34:00       56.759       20.532      -15.521       13.127        9.928        8.531      172.308       98.566       72.776        0.211        0.017       60.358        2.724        0.002      330.823       -1.556      864.261
12/18/2021  22:35:00       69.683        1.161      -13.728       19.037       17.468       11.240      362.390      305.120      126.330        0.292        0.040       69.692        4.252        0.004      330.750       -1.675      864.263
12/18/2021  22:36:00       29.055       19.265        1.876       32.269       40.068       30.679     1041.308     1605.442      941.211        0.240        0.179       34.861       13.698        0.154      330.822       -1.558      864.263
12/18/2021  22:37:00       32.600        6.305      -21.657       37.987       42.766       33.811     1443.009     1828.951     1143.162        0.299        0.221       33.204       22.769        0.470      330.732       -1.706      864.252
12/18/2021  22:38:00       38.317       -2.177      -21.034       33.592       34.896       26.307     1128.444     1217.754      692.037        0.248        0.152       38.378       20.030        0.272      330.675       -1.799      864.263
12/18/2021  22:39:00       54.737      -26.519      -21.554       32.748       27.261       20.647     1072.439      743.164      426.312        0.320        0.112       60.823       16.832        0.077      330.735       -1.702      864.302
12/18/2021  22:40:00       31.439      -29.030       -7.588       26.973       28.681       21.499      727.517      822.579      462.216        0.195        0.101       42.792       18.793        0.193      330.710       -1.743      864.311
12/18/2021  22:41:00       56.052      -13.810      -13.392       43.173       26.353       24.288     1863.872      694.505      589.886        0.333        0.157       57.729       23.490        0.166      330.663       -1.821      864.286
12/18/2021  22:42:00       41.745       -7.912      -23.888       41.735       45.679       25.392     1741.800     2086.548      644.778        0.342        0.224       42.488       20.946        0.243      330.663       -1.820      864.239
12/18/2021  22:43:00       15.788       -6.276       -6.329       31.700       45.671       24.800     1004.894     2085.856      615.020        0.202        0.185       16.989       14.907        0.770      330.707       -1.748      864.210
12/18/2021  22:44:00       56.661      -18.581      -28.908       34.937       32.146       23.142     1220.625     1033.375      535.568        0.359        0.139       59.630       19.412        0.106      330.717       -1.729      864.209
12/18/2021  22:45:00       57.336      -13.331      -29.569       40.645       47.875       24.787     1652.056     2292.057      614.375        0.445        0.228       58.866       20.200        0.118      330.653       -1.836      864.215
12/18/2021  22:46:00       -4.812      -42.551      -16.066       31.650       33.164       21.674     1001.702     1099.831      469.742        0.233        0.129       42.823       12.375        0.084      330.843       -1.525      864.229
12/18/2021  22:47:00       24.204       22.484       -5.200       41.765       29.255       20.238     1744.287      855.862      409.561        0.206        0.150       33.036       15.900        0.232      330.674       -1.801      864.229
12/18/2021  22:48:00       68.268       38.803      -16.336       24.972       26.255       16.657      623.591      689.343      277.440        0.401        0.080       78.525        6.424        0.007      330.594       -1.933      864.209
12/18/2021  22:49:00       44.008       -8.501      -10.208       34.077       23.477       19.289     1161.220      551.172      372.063        0.210        0.104       44.822       16.904        0.142      330.630       -1.874      864.198
12/18/2021  22:50:00       48.327        6.134      -15.214       24.112       22.753       20.790      581.377      517.721      432.217        0.207        0.077       48.714       11.313        0.054      330.637       -1.863      864.199
12/18/2021  22:51:00       79.079       18.947      -16.992       26.963       27.071       11.525      726.994      732.816      132.817        0.425        0.080       81.317        7.195        0.008      330.573       -1.968      864.179
12/18/2021  22:52:00       86.278        8.698      -10.363       25.745       18.984       14.803      662.810      360.400      219.141        0.443        0.062       86.715       17.116        0.039      330.526       -2.046      864.149
12/18/2021  22:53:00       75.961        8.397       -7.699       31.240       20.286       14.573      975.927      411.507      212.367        0.375        0.080       76.423        9.019        0.014      330.598       -1.928      864.152
12/18/2021  22:54:00       52.693       -3.797      -13.061       25.882       20.639       16.899      669.878      425.972      285.567        0.217        0.069       52.830        8.905        0.028      330.626       -1.880      864.177
12/18/2021  22:55:00       73.988        8.312      -18.534       17.600       17.826       10.631      309.751      317.755      113.008        0.331        0.037       74.453        6.865        0.009      330.624       -1.885      864.193
12/18/2021  22:56:00       85.981       17.538      -17.970       21.989       16.271       15.501      483.530      264.757      240.269        0.451        0.049       87.752       14.224        0.026      330.633       -1.867      864.178
12/18/2021  22:57:00       35.198       -9.366      -10.740       31.061       37.036       32.093      964.764     1371.699     1029.938        0.240        0.168       36.423       19.923        0.299      330.650       -1.841      864.142
12/18/2021  22:58:00       37.662      -11.541      -21.728       32.487       39.504       30.801     1055.400     1560.558      948.697        0.279        0.178       39.391       23.238        0.348      330.763       -1.655      864.153
12/18/2021  22:59:00       40.555       -8.382      -18.662       17.089       30.336       14.853      292.020      920.271      220.616        0.175        0.072       41.412        8.436        0.041      330.702       -1.755      864.178
12/18/2021  23:00:00       83.232       22.987      -13.357       19.492       23.011       13.314      379.951      529.520      177.249        0.436        0.054       86.348       11.631        0.018      330.767       -1.649      864.166
12/18/2021  23:01:00       74.333       46.774      -12.198       34.503       31.377       19.254     1190.484      984.499      370.731        0.520        0.127       87.825       13.320        0.023      330.623       -1.885      864.137
12/18/2021  23:02:00        2.240       18.811      -23.905       36.158       36.217       21.020     1307.385     1311.704      441.822        0.200        0.153       18.944        6.182        0.106      330.598       -1.927      864.128
12/18/2021  23:03:00      -77.762        5.683      -21.568       21.877       22.654       21.805      478.598      513.185      475.460        0.401        0.073       77.969       14.557        0.035      330.703       -1.753      864.143
12/18/2021  23:04:00       15.739       10.627      -17.847       48.715       24.054       11.277     2373.115      578.613      127.164        0.188        0.154       18.991       11.821        0.387      330.643       -1.853      864.151
12/18/2021  23:05:00       38.295       14.017      -11.673       33.726       32.260       21.916     1137.439     1040.677      480.328        0.223        0.133       40.780       11.089        0.074      330.684       -1.785      864.145
12/18/2021  23:06:00       15.909        2.492       -9.651       28.193       24.801       14.992      794.820      615.090      224.774        0.099        0.082       16.103        9.218        0.328      330.651       -1.840      864.150
12/18/2021  23:07:00      -48.311       23.184       -6.393       17.566       17.691        9.745      308.548      312.981       94.964        0.181        0.036       53.586        7.841        0.021      330.593       -1.936      864.168
12/18/2021  23:08:00      -37.431       20.809      -15.709       19.663       17.713       11.666      386.632      313.762      136.102        0.146        0.042       42.826        4.566        0.011      330.495       -2.097      864.180
12/18/2021  23:09:00       -2.730      -21.991      -15.903       12.468       17.201       12.514      155.454      295.867      156.599        0.068        0.030       22.160        6.459        0.085      330.577       -1.960      864.173
12/18/2021  23:10:00        0.457       10.539       -7.778       35.512       28.420       21.317     1261.068      807.691      454.423        0.135        0.126       10.549        7.466        0.501      330.704       -1.752      864.149
12/18/2021  23:11:00      -11.458        1.138       -3.718       21.958       21.244       15.816      482.144      451.299      250.141        0.066        0.059       11.515       11.736        1.039      330.592       -1.938      864.142
12/18/2021  23:12:00      -23.590       11.187      -15.965       26.307       21.111       16.635      692.066      445.680      276.728        0.118        0.071       26.108       13.581        0.271      330.460       -2.153      864.163
12/18/2021  23:13:00       -1.136        1.149       -8.058       22.374       12.232       12.164      500.588      149.633      147.957        0.043        0.040        1.616       10.325       40.845      330.324       -2.375      864.178
12/18/2021  23:14:00       11.081       17.622       -6.089       22.950       15.030        9.234      526.695      225.890       85.267        0.065        0.042       20.817        4.806        0.053      330.468       -2.140      864.162
12/18/2021  23:15:00      -52.386       24.179       -9.510       24.827       14.758       13.448      616.369      217.795      180.857        0.222        0.051       57.696       11.769        0.042      330.512       -2.068      864.153
12/18/2021  23:16:00      -26.857       -1.754       -3.826       28.196       25.247       20.639      795.040      637.411      425.963        0.130        0.093       26.914       12.006        0.199      330.382       -2.280      864.177
12/18/2021  23:17:00      -36.397        5.188        2.096       28.218       21.455       13.285      796.253      460.308      176.504        0.139        0.072       36.765       13.508        0.135      330.404       -2.244      864.180
12/18/2021  23:18:00      -19.805        0.068      -11.656       18.862       10.962        9.756      355.777      120.168       95.187        0.055        0.029       19.805        6.006        0.092      330.471       -2.135      864.174
12/18/2021  23:19:00      -32.277        0.096       -3.251       30.533       21.293       16.276      932.283      453.396      264.921        0.135        0.083       32.277       10.364        0.103      330.461       -2.150      864.171
12/18/2021  23:20:00       12.133        4.939      -10.048       15.821       19.698       15.650      250.293      388.009      244.932        0.058        0.044       13.100        7.660        0.342      330.435       -2.194      864.176
12/18/2021  23:21:00       25.899       22.792      -16.341       16.198       21.275       12.600      262.360      452.613      158.763        0.117        0.044       34.500       10.627        0.095      330.415       -2.227      864.151
12/18/2021  23:22:00      -18.447       -7.473       -8.606       17.614       19.570       12.809      310.263      382.970      164.082        0.066        0.043       19.904        5.324        0.072      330.445       -2.177      864.141
12/18/2021  23:23:00      -38.806       21.394      -13.183       22.823       31.600       18.513      520.886      998.571      342.718        0.200        0.093       44.313       14.419        0.106      330.442       -2.184      864.171
12/18/2021  23:24:00      -16.075        1.754       -3.988       34.818       29.892       18.460     1212.288      893.527      340.758        0.136        0.122       16.170        6.309        0.152      330.407       -2.239      864.201
12/18/2021  23:25:00      -37.801       10.231       -0.792       25.856       14.559       15.993      668.552      211.968      255.760        0.134        0.057       39.161        9.200        0.055      330.351       -2.330      864.210
12/18/2021  23:26:00      -40.107       35.123        2.564       25.781       15.830       14.529      664.641      250.575      211.078        0.199        0.056       53.313       14.699        0.076      330.237       -2.518      864.204
12/18/2021  23:27:00      -70.477       23.013      -19.070       15.851       17.129       15.634      251.257      293.406      244.424        0.332        0.039       74.139        8.863        0.014      330.266       -2.470      864.182
12/18/2021  23:28:00       -7.856       -8.683      -11.775       16.619       12.504       10.405      276.177      156.352      108.273        0.041        0.027       11.709        7.213        0.379      330.303       -2.409      864.175
12/18/2021  23:29:00      -14.624      -40.813      -21.170       22.879       17.201       15.871      523.432      295.876      251.882        0.170        0.054       43.354       13.295        0.094      330.466       -2.144      864.194
12/18/2021  23:30:00       -1.833       -4.697      -13.662       18.029       25.580       17.344      325.038      654.331      300.801        0.075        0.064        5.042       16.130       10.235      330.430       -2.202      864.203
12/18/2021  23:31:00      -34.912       36.884        0.072       53.738       23.767       20.016     2887.808      564.884      400.653        0.322        0.193       50.786       21.519        0.180      330.259       -2.483      864.190
12/18/2021  23:32:00      -76.049       46.841       -8.717       32.455       29.428       21.094     1053.299      866.015      444.951        0.521        0.118       89.317       21.657        0.059      330.077       -2.780      864.185
12/18/2021  23:33:00      -34.801       37.922       -6.552       31.168       24.992       14.920      971.463      624.581      222.595        0.226        0.091       51.471       13.912        0.073      330.072       -2.790      864.194
12/18/2021  23:34:00       41.417       22.570       -8.532       29.954       14.826       11.907      897.226      219.815      141.777        0.178        0.063       47.167       10.682        0.051      330.190       -2.596      864.194
12/18/2021  23:35:00       40.849       40.411       -9.371       13.442       16.875        8.682      180.674      284.754       75.378        0.197        0.027       57.460        5.212        0.008      330.130       -2.694      864.174
12/18/2021  23:36:00       18.349       36.767       -7.927       13.567       18.090       10.286      184.063      327.264      105.793        0.118        0.031       41.091        9.248        0.051      330.223       -2.542      864.194
12/18/2021  23:37:00        6.124       -6.345       -5.501        8.481       16.155       12.047       71.933      260.975      145.126        0.029        0.024        8.818        8.171        0.859      330.256       -2.488      864.240
12/18/2021  23:38:00        3.745      -42.151      -21.058       15.934       16.604       10.573      253.885      275.682      111.780        0.144        0.032       42.317        2.665        0.004      330.236       -2.519      864.255
12/18/2021  23:39:00       21.605       10.201       -5.975       17.139       31.529       10.974      293.729      994.099      120.434        0.101        0.070       23.892        7.800        0.107      330.196       -2.586      864.202
12/18/2021  23:40:00       36.355       14.912       -3.427       14.434       15.321        4.653      208.335      234.718       21.648        0.101        0.023       39.294        5.226        0.018      330.147       -2.666      864.147
12/18/2021  23:41:00        8.145      -30.271      -22.133       38.869       22.107       14.758     1510.833      488.737      217.792        0.184        0.111       31.348       14.397        0.211      330.278       -2.450      864.150
12/18/2021  23:42:00      -38.762      -40.257      -22.803       30.336       31.141       13.029      920.303      969.752      169.751        0.285        0.103       55.885       12.793        0.052      330.280       -2.447      864.169
12/18/2021  23:43:00      -20.618        4.819      -10.815       28.039       15.433       12.170      786.181      238.186      148.117        0.087        0.059       21.174        7.487        0.125      330.220       -2.547      864.132
12/18/2021  23:44:00       42.136       28.181      -20.826       27.154       18.191       15.759      737.347      330.922      248.351        0.216        0.066       50.692       10.027        0.039      330.211       -2.563      864.071
12/18/2021  23:45:00       82.133      -11.680      -16.250       27.644       30.567       21.465      764.174      934.313      460.734        0.465        0.108       82.959       14.915        0.032      330.139       -2.681      864.035
12/18/2021  23:46:00       14.167      -25.507      -20.609       44.146       30.658       20.119     1948.862      939.891      404.794        0.228        0.165       29.178        8.547        0.086      330.274       -2.458      864.037
12/18/2021  23:47:00      -18.588      -43.243      -22.524       18.766       21.948       15.232      352.155      481.733      232.028        0.189        0.053       47.069       10.200        0.047      330.330       -2.366      864.033
12/18/2021  23:48:00       -4.885      -38.280      -16.100       19.445       26.357       15.788      378.109      694.707      249.249        0.154        0.066       38.590        9.362        0.059      330.395       -2.261      864.006
12/18/2021  23:49:00      -28.460        0.666       -6.687       12.640       14.626        8.420      159.759      213.913       70.890        0.065        0.022       28.468        5.105        0.032      330.211       -2.562      863.989
12/18/2021  23:50:00        9.437       -5.216        4.341       14.236       11.307        8.731      202.657      127.856       76.229        0.027        0.020       10.782        7.826        0.527      330.172       -2.625      864.002
12/18/2021  23:51:00      -11.308      -11.678       -2.832       27.423       12.040       12.343      752.029      144.964      152.346        0.066        0.052       16.256        5.707        0.123      330.166       -2.636      864.022
12/18/2021  23:52:00        4.322      -16.212       -9.703       19.241       20.698       10.938      370.206      428.426      119.649        0.065        0.046       16.778        4.021        0.057      330.273       -2.458      864.013
12/18/2021  23:53:00        7.338        0.899       -7.789        7.040       11.490        6.859       49.562      132.032       47.049        0.017        0.011        7.393        4.232        0.328      330.251       -2.496      863.981
12/18/2021  23:54:00       -2.273        1.349       -3.686       12.930       13.281       12.723      167.177      176.397      161.865        0.026        0.025        2.643       10.970       17.229      330.275       -2.455      863.961
12/18/2021  23:55:00        8.127      -12.698       -4.874       17.507       20.032       12.894      306.501      401.300      166.248        0.056        0.044       15.077        9.090        0.364      330.296       -2.420      863.962
12/18/2021  23:56:00       -3.656      -12.745       -5.315       27.147       24.600       20.105      736.937      605.179      404.225        0.097        0.087       13.259        9.799        0.546      330.165       -2.637      863.961
12/18/2021  23:57:00      -28.219      -16.228        1.695       47.671       32.292       27.011     2272.540     1042.748      729.620        0.255        0.202       32.552       21.625        0.441      330.063       -2.805      863.944
12/18/2021  23:58:00      -16.799       -9.100       -5.177       37.468       24.323       22.953     1403.826      591.597      526.817        0.146        0.126       19.105       22.485        1.385      330.056       -2.817      863.920
12/18/2021  23:59:00      -23.387        2.291       -7.417       26.532       18.357       15.632      703.959      336.961      244.358        0.095        0.064       23.498        9.597        0.167      330.137       -2.684      863.901
12/19/2021  00:00:00       -5.948      -10.256       -6.938       22.363       20.804       19.839      500.118      432.814      393.604        0.076        0.066       11.856       16.018        1.825      330.033       -2.854      863.903
12/19/2021  00:01:00      -12.067       -6.198        2.420       14.223       19.297       16.336      202.302      372.383      266.854        0.052        0.042       13.566       10.156        0.560      330.077       -2.782      863.909
12/19/2021  00:02:00       -2.711       -2.560       -2.520       22.591       16.509       10.864      510.355      272.555      118.031        0.046        0.045        3.729        7.510        4.057      330.010       -2.892      863.897
12/19/2021  00:03:00      -12.857        0.638      -10.725       21.368       13.633       11.269      456.573      185.864      126.987        0.052        0.038       12.873        7.442        0.334      329.986       -2.930      863.870
12/19/2021  00:04:00      -22.984       -5.245      -12.326       19.962       16.218       13.033      398.493      263.022      169.856        0.077        0.042       23.575        7.535        0.102      330.087       -2.764      863.855
12/19/2021  00:05:00      -16.734       -1.931      -15.517       24.037       21.692       16.732      577.768      470.525      279.948        0.093        0.066       16.845       13.494        0.642      330.084       -2.771      863.857
12/19/2021  00:06:00       -9.842       -1.782       -3.153       11.712       19.236       12.790      137.169      370.030      163.593        0.039        0.034       10.002        8.480        0.719      330.020       -2.876      863.850
12/19/2021  00:07:00       17.678       -6.293       -8.164       13.699       12.451       10.963      187.666      155.026      120.181        0.044        0.023       18.764        7.727        0.170      330.116       -2.718      863.836
12/19/2021  00:08:00        2.535      -12.930       -8.449       10.815       12.164       10.312      116.959      147.968      106.333        0.031        0.019       13.176        5.847        0.197      330.009       -2.893      863.844
12/19/2021  00:09:00      -35.891      -10.138       -5.759       19.937       22.586       15.654      397.487      510.111      245.054        0.129        0.058       37.296       10.515        0.079      330.034       -2.853      863.864
12/19/2021  00:10:00       -8.618       -2.353      -10.473       20.976       25.405       18.135      440.003      645.406      328.893        0.080        0.071        8.934       18.180        4.141      330.005       -2.899      863.869
12/19/2021  00:11:00      -16.201      -18.085       -3.850       28.631       20.575       15.785      819.739      423.329      249.178        0.105        0.075       24.280       13.269        0.299      330.042       -2.839      863.855
12/19/2021  00:12:00      -53.736        9.879       -7.459       25.918       23.364       19.776      671.730      545.876      391.072        0.232        0.080       54.636       12.215        0.050      329.979       -2.942      863.827
12/19/2021  00:13:00      -36.583        0.535        0.731       16.623       20.272       12.316      276.337      410.954      151.680        0.109        0.042       36.586        5.877        0.026      329.988       -2.928      863.803
12/19/2021  00:14:00      -45.352       -0.291       -5.534       20.408       19.187       16.017      416.468      368.151      256.545        0.156        0.052       45.353        6.453        0.020      330.001       -2.905      863.796
12/19/2021  00:15:00       -0.005      -25.259      -10.661       10.816       16.975       13.831      116.990      288.155      191.310        0.067        0.030       25.259        5.731        0.051      330.044       -2.838      863.805
12/19/2021  00:16:00       -4.838       -3.819       -2.235       14.920       14.425       10.223      222.611      208.091      104.509        0.029        0.027        6.164        4.509        0.535      329.977       -2.943      863.822
12/19/2021  00:17:00        6.417       -8.842       -6.094        9.347       11.396       11.089       87.363      129.878      122.959        0.025        0.017       10.925        6.773        0.384      329.970       -2.956      863.833
12/19/2021  00:18:00       -6.493       13.158        2.531       17.706       17.683        9.252      313.503      312.700       85.600        0.047        0.036       14.673        6.705        0.209      329.902       -3.067      863.840
12/19/2021  00:19:00      -39.961       24.979      -14.464       10.768        8.967        7.874      115.960       80.411       61.998        0.134        0.013       47.126        5.213        0.012      329.846       -3.160      863.833
12/19/2021  00:20:00      -67.895       28.867      -12.966       17.931       18.959       12.874      321.528      359.437      165.731        0.323        0.042       73.777        8.733        0.014      329.817       -3.209      863.827
12/19/2021  00:21:00      -22.708       -8.092       -4.360       29.229       24.120       18.313      854.363      581.751      335.356        0.119        0.089       24.107       16.612        0.475      329.813       -3.213      863.838
12/19/2021  00:22:00        5.282       -1.608        0.210       13.602       13.864       10.588      185.013      192.214      112.106        0.026        0.024        5.521        6.355        1.325      329.789       -3.254      863.831
12/19/2021  00:23:00      -78.129       12.627      -15.856       22.103       20.883       18.393      488.549      436.086      338.296        0.389        0.063       79.142        9.841        0.015      329.824       -3.195      863.819
12/19/2021  00:24:00      -19.134        5.228       -4.241       42.337       14.448       17.033     1792.406      208.748      290.139        0.135        0.115       19.836       19.931        1.010      329.807       -3.223      863.818
12/19/2021  00:25:00       -6.564       -8.197       -4.459       21.627       21.156       16.023      467.717      447.585      256.725        0.065        0.059       10.502        8.735        0.692      329.769       -3.287      863.850
12/19/2021  00:26:00       -1.704        9.111        2.472       24.538       17.904       20.784      602.100      320.558      431.965        0.072        0.068        9.269       13.357        2.077      329.717       -3.370      863.862
12/19/2021  00:27:00      -27.035       18.366      -11.402       16.065       12.201       12.980      258.097      148.859      168.470        0.089        0.029       32.684        5.918        0.033      329.701       -3.396      863.839
12/19/2021  00:28:00       -9.911       29.745       -5.632       12.196        9.340       10.085      148.755       87.229      101.706        0.068        0.017       31.353        8.964        0.082      329.723       -3.361      863.809
12/19/2021  00:29:00        3.997       11.753       -5.449       10.466       11.329        5.472      109.547      128.344       29.940        0.023        0.013       12.414        2.140        0.030      329.840       -3.170      863.839
12/19/2021  00:30:00        6.171       -0.288       -8.452        6.627        3.973        6.956       43.921       15.786       48.381        0.011        0.005        6.178        4.805        0.605      329.916       -3.045      863.880
12/19/2021  00:31:00       19.936       18.768      -16.099       24.910       33.007       17.324      620.511     1089.494      300.124        0.151        0.101       27.380       10.312        0.142      330.001       -2.904      863.883
12/19/2021  00:32:00       23.868       24.747      -10.595       17.961       18.289       11.601      322.602      334.480      134.584        0.104        0.040       34.381        7.872        0.052      329.900       -3.069      863.877
12/19/2021  00:33:00       25.955       28.259       -9.598       11.544       13.362        9.069      133.255      178.554       82.253        0.098        0.020       38.370        6.279        0.027      329.859       -3.137      863.864
12/19/2021  00:34:00       54.779       22.490       -7.977       17.631       12.631        7.823      310.840      159.554       61.193        0.205        0.027       59.216        3.925        0.004      329.816       -3.208      863.837
12/19/2021  00:35:00        4.255      -14.972      -11.427       24.529       16.038       16.793      601.689      257.212      281.996        0.076        0.057       15.565       11.864        0.581      329.955       -2.980      863.846
12/19/2021  00:36:00       -8.304       -9.072       -8.373       30.201       32.455       15.334      912.090     1053.301      235.145        0.121        0.110       12.299       16.452        1.789      329.942       -3.002      863.878
12/19/2021  00:37:00      -43.753       26.776      -12.830       19.302       14.810       11.830      372.561      219.326      139.940        0.176        0.037       51.296        8.083        0.025      329.755       -3.307      863.851
12/19/2021  00:38:00       -0.915       14.621        2.452        5.683        8.852        6.303       32.296       78.364       39.728        0.019        0.008       14.649        2.448        0.028      329.736       -3.341      863.784
12/19/2021  00:39:00       54.955       21.924      -11.557       22.321       22.329       11.519      498.233      498.572      132.681        0.238        0.056       59.167        9.340        0.025      329.979       -2.941      863.764
12/19/2021  00:40:00       13.390        0.423       -4.861       15.924       18.714       13.178      253.573      350.216      173.655        0.049        0.039       13.397       10.190        0.579      329.926       -3.028      863.788
12/19/2021  00:41:00       27.883       16.198      -10.886       15.185       15.154        9.485      230.594      229.633       89.973        0.085        0.028       32.247        6.389        0.039      329.839       -3.171      863.811
12/19/2021  00:42:00       23.316       26.625       -5.454        9.119        6.642        7.376       83.158       44.118       54.399        0.073        0.009       35.391        4.317        0.015      329.847       -3.159      863.820
12/19/2021  00:43:00        0.500       20.211       -6.275        7.420        6.220        6.788       55.051       38.694       46.081        0.029        0.007       20.217        4.069        0.041      329.851       -3.152      863.838
12/19/2021  00:44:00       20.545       23.479       -4.405       24.562        8.721        7.528      603.309       76.051       56.664        0.086        0.037       31.199        7.710        0.061      329.874       -3.113      863.834
12/19/2021  00:45:00       52.360        2.918       -8.337       34.580       22.036       11.932     1195.759      485.584      142.372        0.232        0.091       52.441       14.507        0.077      329.967       -2.961      863.807
12/19/2021  00:46:00       61.568        0.645       -8.030       29.867       23.464       15.902      892.053      550.549      252.862        0.278        0.085       61.571       13.437        0.048      329.905       -3.062      863.794
12/19/2021  00:47:00       63.158       18.835      -14.779       23.805       26.747       16.867      566.673      715.380      284.497        0.306        0.078       65.906       11.441        0.030      329.834       -3.180      863.808
12/19/2021  00:48:00       80.341       28.348       -7.723        8.852        6.301        4.512       78.352       39.698       20.355        0.373        0.007       85.196        2.211        0.001      329.761       -3.300      863.811
12/19/2021  00:49:00       52.153       44.945        0.580       27.127       19.414       13.548      735.891      376.913      183.559        0.302        0.065       68.848       14.273        0.043      329.623       -3.526      863.803
12/19/2021  00:50:00       52.087       31.108       -9.895       36.786       23.179       15.595     1353.216      537.254      243.201        0.296        0.107       60.670       11.980        0.039      329.699       -3.399      863.789
12/19/2021  00:51:00       86.564       22.712      -19.735       21.990       19.219       12.715      483.560      369.353      161.672        0.471        0.051       89.494        7.114        0.006      329.791       -3.249      863.783
12/19/2021  00:52:00       65.847       27.376      -16.093       12.754       18.933        9.948      162.663      358.443       98.966        0.298        0.031       71.311        6.024        0.007      329.796       -3.242      863.816
12/19/2021  00:53:00       60.332       26.505      -14.027       21.490       36.120       17.989      461.805     1304.635      323.604        0.331        0.105       65.898       19.215        0.085      329.769       -3.286      863.836
12/19/2021  00:54:00       74.394        5.800      -30.509       35.665       31.246       19.255     1272.028      976.311      370.747        0.456        0.131       74.620       12.537        0.028      329.782       -3.264      863.787
12/19/2021  00:55:00       69.144       -6.128       -4.035       33.130       27.034       17.841     1097.582      730.836      318.288        0.349        0.107       69.415       14.068        0.041      329.671       -3.445      863.750
12/19/2021  00:56:00       68.258       12.565       -9.979       15.514       12.699        9.855      240.681      161.273       97.131        0.271        0.025       69.405        7.909        0.013      329.641       -3.492      863.782
12/19/2021  00:57:00       37.186        2.186      -28.651       19.110       36.639       18.304      365.207     1342.405      335.027        0.213        0.102       37.250       21.009        0.318      329.738       -3.334      863.814
12/19/2021  00:58:00       56.671      -38.317      -17.783       40.416       22.556       21.921     1633.458      508.776      480.546        0.381        0.131       68.409        9.626        0.020      329.823       -3.198      863.800
12/19/2021  00:59:00       47.965        6.177       -5.129       48.105       28.095       17.609     2314.081      789.316      310.060        0.289        0.171       48.361       15.210        0.099      329.729       -3.350      863.770
12/19/2021  01:00:00       43.041       56.641        9.203       46.036       42.058       23.552     2119.320     1768.869      554.703        0.479        0.222       71.139       25.449        0.128      329.623       -3.524      863.745
12/19/2021  01:01:00       10.210      -14.176      -35.193       53.204       53.586       25.639     2830.681     2871.491      657.360        0.395        0.318       17.470       20.320        1.353      329.913       -3.050      863.744
12/19/2021  01:02:00      -30.453      -39.180      -14.049       27.215       32.051       28.029      740.682     1027.298      785.603        0.261        0.128       49.623       19.179        0.149      329.982       -2.937      863.781
12/19/2021  01:03:00       -8.872      -65.549       -3.153       36.583       37.083       31.211     1338.285     1375.140      974.137        0.404        0.184       66.146       13.712        0.043      330.223       -2.542      863.812
12/19/2021  01:04:00       23.000       -4.457      -15.439       24.294       40.445       19.274      590.212     1635.832      371.483        0.169        0.130       23.428       15.897        0.460      329.797       -3.238      863.779
12/19/2021  01:05:00       83.274      -18.885       -8.624       34.879       22.464       27.272     1216.540      504.653      743.751        0.491        0.123       85.389       20.244        0.056      329.666       -3.452      863.753
12/19/2021  01:06:00       55.055      -21.302      -12.346       30.344       31.187       23.869      920.730      972.659      569.726        0.305        0.123       59.032       11.104        0.035      329.702       -3.393      863.759
12/19/2021  01:07:00       55.086       -8.670      -18.022       33.913       29.849       21.160     1150.111      890.983      447.754        0.296        0.124       55.764       14.497        0.068      329.841       -3.168      863.748
12/19/2021  01:08:00       42.942       -1.873      -11.142       32.074       31.913       24.953     1028.727     1018.463      622.651        0.232        0.133       42.983       19.338        0.202      329.707       -3.387      863.717
12/19/2021  01:09:00       21.274      -27.497      -12.913       21.622       23.068        9.852      467.505      532.127       97.066        0.124        0.055       34.767        4.686        0.018      329.790       -3.251      863.719
12/19/2021  01:10:00       24.351      -13.822      -14.364       35.007       37.443       21.194     1225.484     1401.963      449.175        0.203        0.154       28.001       19.332        0.477      329.888       -3.091      863.711
12/19/2021  01:11:00       50.892       -1.521       -7.998       46.261       35.621       26.492     2140.107     1268.838      701.834        0.338        0.206       50.915       28.680        0.317      329.678       -3.434      863.680
12/19/2021  01:12:00       28.985      -12.554      -20.552       25.716       55.853       23.934      661.291     3119.503      572.835        0.289        0.218       31.587       20.722        0.430      329.747       -3.322      863.673
12/19/2021  01:13:00      -13.074      -42.302       -1.238       30.183       31.233       20.607      911.010      975.530      424.664        0.214        0.116       44.276       15.849        0.128      329.813       -3.213      863.706
12/19/2021  01:14:00       44.453       -6.447      -27.861       38.888       41.417       37.727     1512.298     1715.362     1423.353        0.372        0.233       44.918        6.355        0.020      329.884       -3.099      863.707
12/19/2021  01:15:00      -40.281      -43.136      -12.987       52.601       43.422       30.933     2766.887     1885.485      956.828        0.463        0.280       59.019       28.805        0.238      329.937       -3.011      863.686
12/19/2021  01:16:00      -21.709      -35.162        2.515       48.081       45.121       30.447     2311.796     2035.892      927.008        0.349        0.264       41.324       20.931        0.257      329.796       -3.243      863.655
12/19/2021  01:17:00        9.211       12.732       -1.069       43.897       32.148       20.866     1926.919     1033.514      435.387        0.182        0.170       15.715        8.059        0.263      329.648       -3.483      863.619
12/19/2021  01:18:00      -11.244      -66.149       -8.577       66.308       58.580       33.042     4396.773     3431.595     1091.795        0.675        0.446       67.098       40.018        0.356      329.723       -3.361      863.635
12/19/2021  01:19:00       35.138     -132.475      -15.359       31.634       31.360       22.439     1000.727      983.476      503.513        1.075        0.124      137.056       17.260        0.016      329.707       -3.386      863.650
12/19/2021  01:20:00       18.770      -98.527      -17.475       38.938       59.052       31.269     1516.159     3487.100      977.735        0.817        0.299      100.299       27.885        0.077      329.991       -2.922      863.636
12/19/2021  01:21:00      -28.788        3.351        7.297       26.146       24.983       23.493      683.599      624.147      551.935        0.138        0.093       28.982       10.117        0.122      329.794       -3.244      863.605
12/19/2021  01:22:00      -44.632       14.184      -24.915       41.000       33.281       30.536     1680.990     1107.631      932.467        0.327        0.186       46.832       21.240        0.206      329.749       -3.319      863.595
12/19/2021  01:23:00      -57.052      -26.338        1.826       27.884       27.762       19.384      777.529      770.719      375.742        0.294        0.096       62.838        8.685        0.019      329.766       -3.290      863.608
12/19/2021  01:24:00      -33.451       -1.788      -19.096       36.277       24.439       20.120     1316.031      597.258      404.810        0.190        0.116       33.499       15.974        0.227      329.760       -3.301      863.629
12/19/2021  01:25:00      -32.402      -21.379        2.042       32.341       28.869       29.651     1045.947      833.444      879.190        0.213        0.138       38.819       19.303        0.247      329.764       -3.294      863.644
12/19/2021  01:26:00       34.215      -54.416       -1.446       26.347       45.987       19.787      694.156     2114.805      391.508        0.367        0.160       64.279       14.712        0.052      329.707       -3.387      863.644
12/19/2021  01:27:00       56.886       25.854       -6.646       33.472       51.958       25.606     1120.396     2699.621      655.680        0.421        0.224       62.485       14.569        0.054      329.576       -3.600      863.606
12/19/2021  01:28:00       85.415      -32.777      -19.426       48.214       35.763       20.611     2324.608     1279.007      424.832        0.639        0.201       91.488       20.711        0.051      329.636       -3.503      863.603
12/19/2021  01:29:00       10.063       -9.268      -11.770       19.328       29.356       11.998      373.586      861.749      143.945        0.085        0.069       13.681        7.495        0.300      329.647       -3.484      863.645
12/19/2021  01:30:00       67.231       -5.293       -4.981       32.857       31.463       24.798     1079.605      989.938      614.956        0.363        0.134       67.439       20.979        0.097      329.553       -3.638      863.654
12/19/2021  01:31:00       76.083       24.598       -8.257       43.932       45.913       22.556     1930.014     2107.999      508.791        0.550        0.227       79.961       13.442        0.028      329.513       -3.705      863.634
12/19/2021  01:32:00       36.834       13.628       -4.245       27.422       25.060       14.218      751.947      627.991      202.151        0.157        0.079       39.274       15.475        0.155      329.479       -3.760      863.634
12/19/2021  01:33:00       47.412        4.564       -9.656       14.526       10.148        7.989      211.009      102.975       63.830        0.137        0.019       47.631        5.374        0.013      329.448       -3.812      863.628
12/19/2021  01:34:00       67.947       12.845      -11.066       10.743       14.441        9.517      115.412      208.555       90.566        0.266        0.021       69.151        5.903        0.007      329.434       -3.836      863.599
12/19/2021  01:35:00       40.020       26.698       -6.510       13.391       14.281       10.842      179.319      203.938      117.541        0.143        0.025       48.108        5.781        0.014      329.404       -3.882      863.597
12/19/2021  01:36:00       49.494       37.464      -12.833       21.184       12.075        8.527      448.753      145.815       72.716        0.234        0.033       62.074        7.471        0.014      329.355       -3.966      863.617
12/19/2021  01:37:00       64.651        7.929       -7.307       47.178       28.807       19.341     2225.749      829.845      374.079        0.386        0.171       65.136       28.485        0.191      329.416       -3.864      863.624
12/19/2021  01:38:00       34.870       11.409        3.201       32.106       18.055       21.700     1030.769      325.995      470.872        0.159        0.091       36.689       20.108        0.300      329.420       -3.858      863.636
12/19/2021  01:39:00       77.407       20.673      -11.167       11.987       10.970        6.179      143.698      120.335       38.176        0.342        0.015       80.120        4.386        0.003      329.332       -4.001      863.635
12/19/2021  01:40:00       97.840       30.957      -14.384       13.130       13.332        8.461      172.400      177.749       71.597        0.558        0.021      102.620        6.143        0.004      329.338       -3.990      863.604
12/19/2021  01:41:00      119.019       15.764      -13.861       12.298       10.463       10.500      151.244      109.468      110.252        0.749        0.019      120.059        6.403        0.003      329.323       -4.012      863.583
12/19/2021  01:42:00       90.017       10.439       -8.592       17.495        8.849        9.723      306.091       78.311       94.528        0.438        0.024       90.620        5.581        0.004      329.295       -4.062      863.602
12/19/2021  01:43:00       44.874       17.282      -11.354       12.907        4.083        5.700      166.593       16.674       32.490        0.133        0.011       48.087        3.429        0.005      329.284       -4.080      863.644
12/19/2021  01:44:00       55.152       16.086       -6.710       11.212        6.687        6.902      125.719       44.711       47.640        0.178        0.011       57.450        6.039        0.011      329.323       -4.014      863.627
12/19/2021  01:45:00       63.855       11.119       -6.308       26.938       24.295       13.670      725.637      590.225      186.881        0.287        0.075       64.816       14.368        0.049      329.370       -3.938      863.582
12/19/2021  01:46:00       47.360       35.291       -4.840       20.404       26.838       20.804      416.309      720.258      432.805        0.254        0.078       59.063        6.967        0.014      329.518       -3.695      863.598
12/19/2021  01:47:00       48.280       38.996       -1.654       21.486       15.696       14.227      461.652      246.357      202.408        0.238        0.046       62.062       11.276        0.033      329.337       -3.993      863.630
12/19/2021  01:48:00       62.050       42.592      -11.100       12.903       10.782        9.684      166.497      116.242       93.776        0.308        0.019       75.261        6.999        0.009      329.341       -3.987      863.614
12/19/2021  01:49:00       35.577       21.586      -16.586       30.808       23.228       16.219      949.116      539.545      263.066        0.188        0.088       41.613        9.272        0.050      329.374       -3.931      863.579
12/19/2021  01:50:00       33.501        1.421       -4.268       31.475        8.945       13.657      990.662       80.007      186.517        0.120        0.063       33.531       17.430        0.270      329.382       -3.918      863.597
12/19/2021  01:51:00       42.065        5.189       -8.352        8.238        5.569        4.668       67.859       31.011       21.787        0.099        0.006       42.384        3.447        0.007      329.314       -4.028      863.624
12/19/2021  01:52:00       64.079       24.299      -12.996       18.402       10.565        5.052      338.624      111.611       25.522        0.267        0.024       68.532        6.050        0.008      329.319       -4.018      863.595
12/19/2021  01:53:00       58.393       24.152      -24.290       27.088       23.029        8.767      733.745      530.312       76.853        0.296        0.067       63.191        5.958        0.009      329.353       -3.967      863.561
12/19/2021  01:54:00        9.737        7.483        2.505       13.511       11.300        9.476      182.561      127.699       89.787        0.028        0.020       12.280        7.718        0.395      329.341       -3.985      863.599
12/19/2021  01:55:00       -0.656       27.198       -2.032       14.656       13.342       15.398      214.791      178.005      237.101        0.069        0.031       27.206        6.579        0.058      329.375       -3.930      863.645
12/19/2021  01:56:00        0.476       26.237        3.825        6.653        8.730        6.692       44.267       76.218       44.783        0.043        0.008       26.241        4.580        0.030      329.371       -3.936      863.641
12/19/2021  01:57:00       37.416       43.588       -3.235       23.814       22.180       15.270      567.129      491.954      233.178        0.230        0.065       57.444       10.577        0.034      329.396       -3.896      863.622
12/19/2021  01:58:00       29.628       37.953       -8.370       27.819       32.624       17.133      773.874     1064.320      293.543        0.226        0.107       48.148       19.233        0.160      329.328       -4.006      863.626
12/19/2021  01:59:00        4.290        8.634       -4.818       18.934       21.062       16.298      358.505      443.624      265.623        0.059        0.053        9.641        7.737        0.644      329.452       -3.804      863.635
12/19/2021  02:00:00       35.452       21.416       -7.420       10.636        8.705        7.711      113.135       75.773       59.461        0.101        0.012       41.418        6.503        0.025      329.335       -3.995      863.640
12/19/2021  02:01:00       73.187       14.894       -8.944       21.558       16.873       14.464      464.758      284.687      209.209        0.331        0.048       74.687       10.914        0.021      329.327       -4.008      863.601
12/19/2021  02:02:00      113.378        6.230       -9.387       17.298       15.611       12.125      299.215      243.711      147.018        0.684        0.034      113.549       10.479        0.009      329.253       -4.131      863.573
12/19/2021  02:03:00      107.942       12.368      -19.426       19.519       17.131       12.409      380.988      293.465      153.975        0.650        0.041      108.648        9.433        0.008      329.242       -4.149      863.578
12/19/2021  02:04:00       62.075       16.737      -17.630       27.453       24.667       17.922      753.640      608.474      321.202        0.306        0.084       64.292       11.277        0.031      329.235       -4.158      863.584
12/19/2021  02:05:00       92.919       14.357      -14.504       24.396       20.898       17.409      595.163      436.740      303.082        0.519        0.067       94.021        8.387        0.008      329.207       -4.204      863.582
12/19/2021  02:06:00       86.765       14.643       -8.850       19.811       14.396       13.550      392.471      207.247      183.606        0.430        0.039       87.992        3.059        0.001      329.162       -4.280      863.585
12/19/2021  02:07:00       85.388       14.762      -12.058       16.068       13.551       11.290      258.165      183.631      127.472        0.411        0.028       86.654        5.139        0.004      329.152       -4.294      863.589
12/19/2021  02:08:00       67.216       30.120      -12.920       31.646       33.116       19.607     1001.480     1096.682      384.439        0.404        0.124       73.657        9.272        0.016      329.179       -4.252      863.563
12/19/2021  02:09:00       39.521       27.559       -8.296       34.362       37.947       26.429     1180.746     1439.996      698.485        0.285        0.166       48.181        7.489        0.024      329.189       -4.234      863.560
12/19/2021  02:10:00       45.126       28.809      -17.971       28.292       21.750       16.279      800.416      473.056      265.001        0.236        0.077       53.538        8.804        0.027      329.190       -4.232      863.586
12/19/2021  02:11:00       45.016       14.428      -11.969       13.819       11.896       12.703      190.965      141.507      161.365        0.144        0.025       47.272        5.833        0.015      329.136       -4.320      863.620
12/19/2021  02:12:00       66.688       16.495       -7.888       22.061       14.471       11.278      486.706      209.411      127.193        0.280        0.041       68.697       10.825        0.025      329.139       -4.316      863.611
12/19/2021  02:13:00       12.734        5.742        6.253       19.191       26.068       19.985      368.296      679.545      399.397        0.084        0.072       13.969        8.709        0.389      329.142       -4.311      863.571
12/19/2021  02:14:00       46.010      -11.520      -16.198       29.848       34.136       20.641      890.884     1165.276      426.053        0.250        0.124       47.430       17.378        0.134      329.178       -4.250      863.565
12/19/2021  02:15:00       10.607        0.696       -7.128       22.071       16.481       10.309      487.116      271.622      106.285        0.051        0.043       10.630       10.339        0.946      329.194       -4.225      863.595
12/19/2021  02:16:00       35.884       19.019       -8.683       18.748       10.270        6.875      351.488      105.468       47.271        0.111        0.025       40.613        5.920        0.021      329.084       -4.406      863.592
12/19/2021  02:17:00       69.099       15.595      -12.700       33.418       19.419       15.414     1116.773      377.103      237.593        0.345        0.087       70.837       11.179        0.025      329.135       -4.323      863.546
12/19/2021  02:18:00       63.094       24.462      -10.980       25.422       21.007       13.553      646.294      441.308      183.681        0.299        0.064       67.670        7.394        0.012      329.116       -4.352      863.522
12/19/2021  02:19:00       59.745       18.024       -7.907       17.118       15.975       13.463      293.025      255.202      181.262        0.234        0.036       62.404        6.038        0.009      329.109       -4.364      863.521
12/19/2021  02:20:00       29.265       25.590        0.853       18.158       17.089       13.754      329.702      292.041      189.184        0.116        0.041       38.875       10.386        0.071      329.088       -4.399      863.523
12/19/2021  02:21:00       16.980        3.112       -8.332       17.495       19.750       12.843      306.091      390.074      164.940        0.061        0.043       17.263       12.406        0.516      329.128       -4.334      863.532
12/19/2021  02:22:00       39.692       10.263       -7.540       28.553       27.414       21.128      815.280      751.515      446.373        0.188        0.101       40.997       11.545        0.079      329.160       -4.281      863.505
12/19/2021  02:23:00       11.436        8.184        3.990       15.829       20.880       13.526      250.571      435.955      182.944        0.054        0.043       14.063        5.739        0.167      329.149       -4.300      863.485
12/19/2021  02:24:00        7.940        1.806      -10.628       12.471        9.514        9.720      155.517       90.517       94.482        0.026        0.017        8.142        7.654        0.884      329.115       -4.354      863.510
12/19/2021  02:25:00       40.399       34.210       -6.331       29.338       16.391       10.109      860.707      268.658      102.187        0.204        0.062       52.938        9.799        0.034      329.133       -4.326      863.505
12/19/2021  02:26:00       44.756       31.652       -5.848       25.727       18.455       13.849      661.886      340.575      191.801        0.212        0.060       54.817        9.342        0.029      329.068       -4.432      863.485
12/19/2021  02:27:00       77.292       22.469       -5.755       24.254       16.404       10.714      588.256      269.077      114.794        0.374        0.049       80.492        3.803        0.002      329.095       -4.387      863.459
12/19/2021  02:28:00       91.131       13.374      -11.278       28.019       22.688       18.552      785.041      514.733      344.178        0.513        0.082       92.107       10.757        0.014      329.120       -4.346      863.431
12/19/2021  02:29:00       70.368       25.367       -3.908       22.388       19.968       11.769      501.216      398.717      138.504        0.332        0.052       74.800       12.685        0.029      329.100       -4.379      863.433
12/19/2021  02:30:00       47.085       35.672        0.956       17.198       14.097        9.931      295.765      198.723       98.629        0.204        0.030       59.072        6.562        0.012      329.071       -4.427      863.443
12/19/2021  02:31:00       31.360       40.696        1.303       25.684       13.127       14.195      659.673      172.308      201.492        0.184        0.052       51.377       11.118        0.047      329.093       -4.391      863.406
12/19/2021  02:32:00       55.193       49.526       -2.345       19.284       12.812       12.335      371.886      164.141      152.141        0.310        0.034       74.156       12.352        0.028      329.123       -4.342      863.377
12/19/2021  02:33:00       69.363       28.664      -13.847       18.961       23.918       12.396      359.524      572.082      153.666        0.345        0.054       75.052        9.488        0.016      329.159       -4.284      863.358
12/19/2021  02:34:00       45.233       17.761      -11.428       28.764       18.280       12.739      827.391      334.152      162.286        0.191        0.066       48.596       12.711        0.068      329.154       -4.291      863.359
12/19/2021  02:35:00       64.475       15.274       -5.303       16.726       18.052       10.774      279.752      325.882      116.082        0.257        0.036       66.260        4.449        0.005      329.102       -4.374      863.361
12/19/2021  02:36:00       44.392       22.630       -5.810       18.222       17.007       11.395      332.025      289.251      129.847        0.163        0.038       49.828        5.253        0.011      329.065       -4.438      863.340
12/19/2021  02:37:00       32.342       25.048       -8.552       18.629        9.053        8.045      347.031       81.956       64.723        0.112        0.025       40.908        6.423        0.025      329.091       -4.393      863.321
12/19/2021  02:38:00        4.940       22.348       -4.923        8.905        8.421        6.325       79.301       70.914       40.004        0.037        0.010       22.888        4.693        0.042      329.133       -4.326      863.304
12/19/2021  02:39:00       14.071       16.585       -6.968       12.018       12.346        9.742      144.444      152.411       94.916        0.046        0.020       21.750        8.687        0.160      329.130       -4.330      863.280
12/19/2021  02:40:00      -24.700       12.299      -10.401       25.270       30.260       15.891      638.587      915.667      252.513        0.134        0.090       27.593       10.748        0.152      329.182       -4.245      863.297
12/19/2021  02:41:00       -0.391      -10.890        5.081       17.855       26.215       14.752      318.808      687.221      217.628        0.068        0.061       10.897        9.102        0.698      329.201       -4.213      863.299
12/19/2021  02:42:00      -34.983       32.546       -5.315       17.514       16.101       11.583      306.751      259.227      134.162        0.151        0.035       47.781        9.150        0.037      329.119       -4.349      863.272
12/19/2021  02:43:00      -34.704       14.264       -6.951       16.579       14.605       12.384      274.863      213.300      153.367        0.105        0.032       37.521        7.521        0.040      329.114       -4.358      863.249
12/19/2021  02:44:00       -8.536       -2.308       -6.690       20.617       19.345       15.204      425.061      374.226      231.162        0.058        0.052        8.842        8.446        0.912      329.124       -4.340      863.258
12/19/2021  02:45:00       -2.691       -7.179      -16.731       24.303       18.407       14.010      590.618      338.807      196.284        0.073        0.056        7.667       10.708        1.951      329.186       -4.239      863.278
12/19/2021  02:46:00      -22.532       -0.950      -11.371       13.877       16.384        7.027      192.581      268.434       49.374        0.057        0.026       22.552        7.354        0.106      329.106       -4.367      863.247
12/19/2021  02:47:00       19.398        6.806      -13.240       15.122       24.961       15.212      228.675      623.035      231.418        0.084        0.054       20.558        2.052        0.010      329.138       -4.318      863.200
12/19/2021  02:48:00      -15.813      -11.801       -5.121       22.601       22.516       18.190      510.807      506.990      330.878        0.088        0.067       19.731        8.937        0.205      329.290       -4.068      863.196
12/19/2021  02:49:00      -25.191       29.273       -7.176       26.105       30.123       11.445      681.474      907.413      130.984        0.163        0.086       38.620        8.686        0.051      329.186       -4.241      863.213
12/19/2021  02:50:00      -36.988       36.858      -17.664       29.582       19.289       11.457      875.080      372.084      131.273        0.221        0.069       52.217       13.032        0.062      329.107       -4.366      863.185
12/19/2021  02:51:00        6.812       19.389      -22.548       19.781       22.885       12.884      391.293      523.714      166.009        0.101        0.054       20.551        8.184        0.159      329.147       -4.303      863.151
12/19/2021  02:52:00      -39.792      -14.943      -11.913       35.160       30.838       18.909     1236.224      950.978      357.567        0.225        0.127       42.505       16.503        0.151      329.261       -4.117      863.166
12/19/2021  02:53:00      -24.175      -37.024      -30.193       28.189       27.260       14.593      794.594      743.129      212.958        0.231        0.088       44.218        9.942        0.051      329.246       -4.141      863.173
12/19/2021  02:54:00       19.089      -29.071      -20.513       30.897       35.494       19.895      954.620     1259.812      395.821        0.212        0.131       34.778       20.127        0.335      329.305       -4.043      863.126
12/19/2021  02:55:00       22.699       14.144       11.523       34.193       38.467       24.049     1169.130     1479.683      578.378        0.204        0.161       26.745       17.278        0.417      329.250       -4.134      863.095
12/19/2021  02:56:00       80.539       15.848       -9.298       20.991       27.313       20.100      440.604      745.987      404.024        0.421        0.080       82.084        8.412        0.011      329.125       -4.338      863.095
12/19/2021  02:57:00       37.577        4.697       -9.567       30.662       40.804       25.109      940.136     1664.935      630.451        0.238        0.162       37.870       10.877        0.082      329.215       -4.191      863.091
12/19/2021  02:58:00       66.958       21.905      -21.843       37.905       35.847       24.239     1436.816     1285.005      587.525        0.437        0.165       70.450       16.412        0.054      329.103       -4.375      863.092
12/19/2021  02:59:00       69.600      -28.349      -14.626       35.859       30.018       23.812     1285.867      901.080      567.030        0.431        0.138       75.152        8.589        0.013      329.084       -4.405      863.091
12/19/2021  03:00:00       74.550       22.950      -26.871       35.370       43.726       19.791     1251.018     1911.979      391.683        0.518        0.178       78.002       17.846        0.052      329.074       -4.424      863.090
12/19/2021  03:01:00      120.870       61.865      -25.380       33.618       36.577       20.853     1130.175     1337.853      434.827        1.099        0.145      135.782       18.887        0.019      328.909       -4.692      863.089
12/19/2021  03:02:00       68.582       42.083      -35.083       41.966       74.380       38.171     1761.173     5532.373     1456.997        0.823        0.438       80.464       26.164        0.106      329.052       -4.457      863.074
12/19/2021  03:03:00       57.107       33.287      -38.257       39.871       57.142       31.308     1589.673     3265.181      980.207        0.583        0.292       66.100       10.790        0.027      329.087       -4.401      863.072
12/19/2021  03:04:00       20.771       27.259       -5.708       45.268       56.221       28.869     2049.179     3160.840      833.438        0.362        0.302       34.270       17.177        0.251      328.922       -4.668      863.059
12/19/2021  03:05:00       39.206      -36.207      -34.017       40.505       49.370       32.685     1640.617     2437.385     1068.289        0.457        0.257       53.367       11.373        0.045      329.038       -4.481      863.063
12/19/2021  03:06:00       99.959      -53.679      -47.833       41.567       47.490       37.302     1727.848     2255.300     1391.443        1.027        0.269      113.460       24.909        0.048      329.026       -4.499      863.078
12/19/2021  03:07:00       87.546       20.128      -24.805       48.111       66.324       37.413     2314.640     4398.908     1399.754        0.840        0.406       89.830       29.685        0.109      328.821       -4.835      863.041
12/19/2021  03:08:00       50.349       17.241      -26.012       40.634       51.851       25.530     1651.119     2688.515      651.774        0.425        0.250       53.219       22.487        0.179      328.696       -5.040      863.023
12/19/2021  03:09:00       27.021      -24.098      -28.447       26.376       37.327       18.470      695.683     1393.315      341.130        0.227        0.122       36.205       10.966        0.092      328.781       -4.898      863.066
12/19/2021  03:10:00       40.957        5.482      -30.958       39.290       48.159       26.771     1543.711     2319.285      716.687        0.362        0.229       41.323       21.007        0.258      328.698       -5.035      863.060
12/19/2021  03:11:00       89.909       -9.107      -17.794       49.060       39.050       26.913     2406.931     1524.878      724.321        0.657        0.233       90.369       27.390        0.092      328.623       -5.158      863.019
12/19/2021  03:12:00       89.625       11.569      -23.498       22.952       20.377       15.738      526.788      415.238      247.685        0.495        0.059       90.369       13.853        0.024      328.535       -5.300      863.030
12/19/2021  03:13:00      127.149       21.253      -15.448       17.616       13.676       10.811      310.308      187.043      116.870        0.874        0.031      128.913        7.063        0.003      328.451       -5.436      863.022
12/19/2021  03:14:00      128.197       30.538       -9.855       18.878       24.090       21.858      356.377      580.319      477.788        0.944        0.071      131.785        8.987        0.005      328.484       -5.386      862.988
12/19/2021  03:15:00       49.608        6.068      -12.426       37.995       25.011       20.904     1443.650      625.526      436.965        0.258        0.125       49.977       14.555        0.085      328.573       -5.239      863.024
12/19/2021  03:16:00       61.254       39.586       -7.866       45.736       29.540       14.153     2091.810      872.636      200.303        0.427        0.158       72.933       10.698        0.022      328.520       -5.326      863.070
12/19/2021  03:17:00       99.523       59.994      -20.090       20.541       17.614       15.988      421.950      310.245      255.608        0.745        0.049      116.208       11.118        0.009      328.437       -5.462      863.020
12/19/2021  03:18:00      117.413       16.935      -14.305       24.125       25.761       16.394      582.039      663.621      268.766        0.790        0.076      118.629       14.464        0.015      328.457       -5.430      862.968
12/19/2021  03:19:00       66.810       -2.184      -10.912       35.129       32.523       16.773     1234.081     1057.741      281.332        0.358        0.129       66.846        9.345        0.020      328.501       -5.358      862.995
12/19/2021  03:20:00       68.709       13.057      -14.693       37.828       34.567       17.915     1430.978     1194.859      320.956        0.403        0.147       69.938        9.487        0.018      328.539       -5.294      863.009
12/19/2021  03:21:00      128.831       30.702      -15.924       19.937       16.816       12.913      397.473      282.765      166.748        0.932        0.042      132.439        9.667        0.005      328.417       -5.494      862.992
12/19/2021  03:22:00      135.535       14.275      -27.127       29.082       38.190       18.152      845.784     1458.451      329.485        1.097        0.132      136.285       18.845        0.019      328.459       -5.426      862.968
12/19/2021  03:23:00      112.967       21.919      -19.137       26.484       27.379       18.375      701.410      749.636      337.631        0.770        0.089      115.074       10.926        0.009      328.465       -5.415      862.950
12/19/2021  03:24:00       75.548       28.434      -12.617       12.013       13.304        8.200      144.319      177.003       67.234        0.353        0.019       80.722        3.739        0.002      328.338       -5.617      862.937
12/19/2021  03:25:00      113.561       26.640      -15.485       16.339       16.197        9.440      266.958      262.339       89.120        0.723        0.031      116.644        5.936        0.003      328.363       -5.580      862.914
12/19/2021  03:26:00       95.846       35.984      -14.558       36.680       19.616       14.718     1345.450      384.781      216.610        0.632        0.097      102.378       13.630        0.018      328.392       -5.534      862.864
12/19/2021  03:27:00       55.256       55.434      -12.871       28.306       22.457       20.797      801.214      504.308      432.535        0.401        0.087       78.270       14.543        0.035      328.411       -5.503      862.856
12/19/2021  03:28:00       57.797       38.524      -27.479       18.477       15.800       16.853      341.384      249.650      284.024        0.323        0.044       69.460        7.011        0.010      328.439       -5.456      862.883
12/19/2021  03:29:00       66.164       32.128      -31.033       24.906       25.304       21.591      620.299      640.286      466.183        0.405        0.086       73.551        9.468        0.017      328.403       -5.514      862.863
12/19/2021  03:30:00       63.480        2.873       -5.280       32.828       27.810       24.074     1077.675      773.377      579.558        0.325        0.122       63.545       12.775        0.040      328.532       -5.305      862.824
12/19/2021  03:31:00       84.712       35.442      -20.139       27.829       13.688       11.727      774.431      187.356      137.531        0.497        0.055       91.827        7.059        0.006      328.308       -5.673      862.831
12/19/2021  03:32:00       27.112       27.755       -3.303       22.998       16.274       14.834      528.892      264.859      220.049        0.126        0.051       38.799        9.732        0.063      328.365       -5.577      862.839
12/19/2021  03:33:00       54.095       24.872       -3.080       26.555       21.352       14.971      705.151      455.912      224.145        0.247        0.069       59.539       13.643        0.053      328.378       -5.556      862.822
12/19/2021  03:34:00       39.271        6.355       -4.425       32.572       41.206       20.208     1060.946     1697.918      408.367        0.238        0.158       39.782       16.298        0.168      328.477       -5.395      862.821
12/19/2021  03:35:00       56.087       12.900      -11.007       16.656       15.623        8.873      277.417      244.071       78.738        0.202        0.030       57.551        2.074        0.001      328.386       -5.544      862.836
12/19/2021  03:36:00       61.847        5.798      -10.613       22.256       19.665       12.043      495.334      386.699      145.034        0.250        0.051       62.118       11.706        0.036      328.429       -5.473      862.829
12/19/2021  03:37:00       72.363       10.759       -7.997       33.565       23.893       20.030     1126.617      570.872      401.196        0.376        0.105       73.159       17.740        0.059      328.437       -5.462      862.821
12/19/2021  03:38:00       91.962       45.844      -22.729       18.237       14.246        7.783      332.601      202.940       60.578        0.584        0.030      102.756        4.471        0.002      328.387       -5.542      862.855
12/19/2021  03:39:00       63.943       39.890      -17.683       12.443       10.477        9.083      154.817      109.760       82.509        0.317        0.017       75.366        3.930        0.003      328.401       -5.519      862.875
12/19/2021  03:40:00      102.508       24.143      -17.137       28.283       24.666       11.453      799.949      608.428      131.167        0.646        0.077      105.312        9.151        0.008      328.410       -5.504      862.836
12/19/2021  03:41:00       69.753       18.583      -16.775       16.675       16.730       12.505      278.061      279.905      156.384        0.310        0.036       72.186       12.969        0.032      328.419       -5.493      862.805
12/19/2021  03:42:00       83.788       22.434      -10.195       29.663       14.006       15.424      879.894      196.172      237.897        0.447        0.066       86.739       11.690        0.018      328.427       -5.478      862.808
12/19/2021  03:43:00       91.604       13.344      -14.834       19.527       17.491       13.321      381.287      305.918      177.461        0.483        0.043       92.571        6.964        0.006      328.462       -5.420      862.789
12/19/2021  03:44:00       10.763       -0.592       -4.482       28.134       11.988       15.420      791.499      143.718      237.772        0.065        0.059       10.779       11.148        1.070      328.545       -5.283      862.828
12/19/2021  03:45:00       41.542       37.529      -12.658       43.762       40.449       15.033     1915.089     1636.149      225.982        0.354        0.189       55.984       17.360        0.096      328.578       -5.231      862.863
12/19/2021  03:46:00       89.704       29.284      -23.948       41.871       30.961       23.251     1753.195      958.614      540.602        0.636        0.163       94.363       11.169        0.014      328.614       -5.174      862.784
12/19/2021  03:47:00       24.945        9.533      -13.513       33.465       31.420       11.887     1119.887      987.190      141.311        0.157        0.112       26.705        6.177        0.054      328.538       -5.297      862.785
12/19/2021  03:48:00       24.493       37.170       -9.996       32.284       16.714       12.259     1042.264      279.367      150.286        0.178        0.074       44.514       13.190        0.088      328.594       -5.205      862.838
12/19/2021  03:49:00      121.566       60.784      -32.300       38.455       38.081       20.163     1478.772     1450.189      406.548        1.143        0.167      135.915       13.936        0.011      328.611       -5.178      862.725
12/19/2021  03:50:00       37.867        1.779       -4.780       41.496       37.020       24.707     1721.928     1370.507      610.413        0.258        0.185       37.908       20.251        0.285      328.633       -5.142      862.661
12/19/2021  03:51:00       13.270       -2.256      -10.805       15.104       37.343       17.640      228.143     1394.534      311.177        0.112        0.097       13.460       16.161        1.442      328.673       -5.077      862.747
12/19/2021  03:52:00       67.516       51.917      -17.056       42.027       29.213       25.175     1766.254      853.428      633.771        0.540        0.163       85.169       25.686        0.091      328.549       -5.277      862.749
12/19/2021  03:53:00       88.931        9.936      -26.306       36.978       23.452       17.220     1367.355      550.013      296.532        0.546        0.111       89.484       10.751        0.014      328.601       -5.193      862.674
12/19/2021  03:54:00       13.081        3.777       -7.342       22.692       15.095       10.954      514.931      227.865      119.988        0.055        0.043       13.616        8.800        0.418      328.646       -5.120      862.686
12/19/2021  03:55:00        8.312       15.540       -4.000       11.077       13.805       10.228      122.705      190.574      104.609        0.037        0.021       17.623        5.748        0.106      328.637       -5.135      862.710
12/19/2021  03:56:00       71.303       53.448       -5.278       44.494       41.865       25.711     1979.698     1752.716      661.077        0.618        0.220       89.111       22.379        0.063      328.596       -5.201      862.666
12/19/2021  03:57:00       38.491        1.214       -9.614       47.518       29.983       18.332     2257.961      898.973      336.080        0.253        0.175       38.510       12.158        0.100      328.670       -5.080      862.652
12/19/2021  03:58:00        4.029       13.232       -6.768       21.655       16.451        9.362      468.922      270.620       87.643        0.053        0.041       13.832        7.098        0.263      328.586       -5.217      862.734
12/19/2021  03:59:00      -53.981       44.518      -18.766       31.994       26.944       18.038     1023.604      725.974      325.367        0.366        0.104       69.970       12.703        0.033      328.706       -5.023      862.754
12/19/2021  04:00:00       -7.991       56.827       -1.454       34.653       22.747       18.163     1200.861      517.406      329.891        0.267        0.102       57.386       11.187        0.038      328.608       -5.182      862.676
12/19/2021  04:01:00      -19.142       32.527       -6.734       21.289       19.837       11.398      453.203      393.515      129.904        0.122        0.049       37.741        8.731        0.054      328.633       -5.141      862.663
12/19/2021  04:02:00      -43.480       36.014      -17.518       39.134       20.722       29.681     1531.487      429.381      880.986        0.317        0.142       56.458       25.124        0.198      328.657       -5.103      862.706
12/19/2021  04:03:00       73.655       34.760      -15.678       58.081       23.942       12.340     3373.359      573.230      152.280        0.549        0.205       81.445       13.713        0.028      328.606       -5.185      862.694
12/19/2021  04:04:00       79.893       31.115      -13.104       42.760       20.584       17.079     1828.443      423.710      291.678        0.503        0.127       85.738       19.346        0.051      328.534       -5.301      862.704
12/19/2021  04:05:00        5.595       46.845       -1.993       23.112       22.305       15.074      534.142      497.519      227.226        0.174        0.063       47.177       15.336        0.106      328.542       -5.290      862.746
12/19/2021  04:06:00       75.681       33.674      -17.342       29.058       20.015       13.049      844.380      400.599      170.282        0.429        0.071       82.834       14.295        0.030      328.565       -5.249      862.708
12/19/2021  04:07:00       96.129       29.018      -19.673       31.743       31.065       19.397     1007.621      965.064      376.229        0.641        0.117      100.413       10.450        0.011      328.604       -5.186      862.655
12/19/2021  04:08:00       28.137       -0.642      -13.380       30.497       40.336       14.382      930.085     1627.011      206.835        0.187        0.138       28.145       13.070        0.216      328.654       -5.107      862.696
12/19/2021  04:09:00       37.266      -34.153      -26.953       21.380       53.464       19.221      457.110     2858.396      369.452        0.348        0.184       50.549       15.720        0.097      328.747       -4.957      862.730
12/19/2021  04:10:00       50.103      -74.051      -24.311       22.425       43.785       15.702      502.877     1917.149      246.555        0.563        0.133       89.408       12.802        0.021      328.586       -5.218      862.732
12/19/2021  04:11:00       70.107       24.310      -35.283       56.715       58.490       26.649     3216.574     3421.071      710.175        0.705        0.367       74.202       19.119        0.066      328.706       -5.023      862.699
12/19/2021  04:12:00       96.904       96.427      -15.456       55.354       59.500       36.997     3064.018     3540.194     1368.806        1.345        0.399      136.706       22.364        0.027      328.760       -4.934      862.665
12/19/2021  04:13:00       25.602       17.069      -11.573       58.830       33.374       28.211     3460.965     1113.819      795.847        0.322        0.269       30.771       14.398        0.219      328.752       -4.947      862.671
12/19/2021  04:14:00       10.135        9.366      -23.957       46.693       39.287       26.686     2180.264     1543.481      712.132        0.260        0.222       13.800       15.097        1.197      328.760       -4.936      862.701
12/19/2021  04:15:00      103.422       30.603      -19.634       47.771       37.383       19.430     2282.037     1397.507      377.531        0.804        0.203      107.854       17.641        0.027      328.517       -5.331      862.698
12/19/2021  04:16:00       39.074      -16.634      -28.824       54.220       34.700       17.077     2939.852     1204.075      291.624        0.353        0.222       42.467       13.972        0.108      328.810       -4.852      862.735
12/19/2021  04:17:00       55.773       -4.422      -25.902       33.402       53.717       21.433     1115.677     2885.524      459.393        0.413        0.223       55.948       15.096        0.073      328.613       -5.174      862.753
12/19/2021  04:18:00       56.498       -4.779      -24.214       44.146       50.698       30.146     1948.859     2570.308      908.801        0.461        0.271       56.700       11.912        0.044      328.604       -5.188      862.708
12/19/2021  04:19:00       43.754       11.355      -11.779       27.702       34.909       21.387      767.408     1218.626      457.398        0.231        0.122       45.204       19.846        0.193      328.542       -5.290      862.709
12/19/2021  04:20:00       96.875       12.619      -14.184       39.359       22.650       13.907     1549.113      513.014      193.400        0.600        0.113       97.694       11.809        0.015      328.415       -5.497      862.701
12/19/2021  04:21:00       53.907       14.777      -16.535       43.490       34.757       22.864     1891.345     1208.044      522.775        0.351        0.181       55.896       12.263        0.048      328.548       -5.279      862.682
12/19/2021  04:22:00       24.027        2.970      -10.504       32.389       47.064       22.826     1049.052     2215.006      521.026        0.224        0.189       24.210       12.669        0.274      328.611       -5.177      862.715
12/19/2021  04:23:00       95.780       57.105      -20.393       31.486       32.370       17.573      991.361     1047.816      308.823        0.760        0.117      111.511       13.194        0.014      328.438       -5.456      862.735
12/19/2021  04:24:00       71.863       39.835       -9.419       33.355       51.595       26.018     1112.575     2662.000      676.960        0.564        0.223       82.165       19.135        0.054      328.477       -5.396      862.726
12/19/2021  04:25:00       44.873       15.151       -1.945       25.510       29.759       17.641      650.743      885.579      311.214        0.205        0.092       47.362       13.471        0.081      328.454       -5.434      862.739
12/19/2021  04:26:00       37.265       49.742      -12.235       19.158       15.713       14.470      367.024      246.908      209.370        0.242        0.041       62.153       12.025        0.037      328.366       -5.573      862.716
12/19/2021  04:27:00       93.478       38.274      -11.130       17.619       16.150       12.259      310.433      260.822      150.271        0.552        0.036      101.010        8.329        0.007      328.383       -5.548      862.644
12/19/2021  04:28:00       83.525       31.731       -4.584       42.398       21.258       21.591     1797.625      451.919      466.181        0.536        0.136       89.349       20.055        0.050      328.430       -5.474      862.616
12/19/2021  04:29:00       74.842       22.746      -20.074       25.068       11.263       18.584      628.415      126.850      345.363        0.381        0.055       78.222       10.057        0.017      328.358       -5.588      862.634
12/19/2021  04:30:00      103.589       47.242      -19.505       29.758       28.921       19.912      885.523      836.427      396.496        0.773        0.106      113.853       11.411        0.010      328.362       -5.584      862.654
12/19/2021  04:31:00       27.451       29.289      -11.035       38.101       53.434       26.445     1451.700     2855.148      699.360        0.337        0.250       40.142       23.716        0.349      328.488       -5.377      862.684
12/19/2021  04:32:00       39.880       12.442       -8.142       34.551       20.441       16.207     1193.752      417.841      262.657        0.184        0.094       41.776       13.724        0.108      328.475       -5.396      862.673
12/19/2021  04:33:00       55.041       30.335      -13.276       16.017       23.064       17.876      256.529      531.965      319.540        0.262        0.055       62.847       11.846        0.036      328.385       -5.544      862.627
12/19/2021  04:34:00       62.017       38.355      -22.505       29.310       21.733       20.797      859.049      472.326      432.500        0.379        0.088       72.919       16.241        0.050      328.463       -5.418      862.609
12/19/2021  04:35:00       60.629       46.601      -14.980       19.667       14.167       17.838      386.807      200.714      318.195        0.349        0.045       76.469       12.297        0.026      328.392       -5.536      862.645
12/19/2021  04:36:00       70.225       43.116      -15.283       10.848       14.407       11.174      117.672      207.563      124.851        0.374        0.023       82.404        7.041        0.007      328.378       -5.556      862.631
12/19/2021  04:37:00       69.285       41.843      -17.967       18.083       11.576       10.289      327.000      133.995      105.860        0.372        0.028       80.940        7.291        0.008      328.381       -5.551      862.596
12/19/2021  04:38:00       93.126       32.347      -10.936       13.917       13.697        9.454      193.689      187.619       89.374        0.515        0.024       98.584        3.904        0.002      328.384       -5.548      862.564
12/19/2021  04:39:00       79.562       21.686      -13.136       19.951       22.198       15.155      398.038      492.773      229.664        0.405        0.056       82.464       10.923        0.018      328.345       -5.606      862.547
12/19/2021  04:40:00       37.006      -18.341      -12.986       23.464       20.791       13.821      550.555      432.273      191.007        0.152        0.059       41.302        9.109        0.049      328.512       -5.338      862.538
12/19/2021  04:41:00       29.868       10.733      -10.476       29.542       37.218       20.667      872.721     1385.144      427.119        0.190        0.134       31.738       14.441        0.207      328.530       -5.309      862.515
12/19/2021  04:42:00       44.234        9.989      -11.186       35.876       31.619       17.805     1287.054      999.779      317.005        0.239        0.130       45.348       15.235        0.113      328.488       -5.377      862.510
12/19/2021  04:43:00       -2.999      -12.586      -16.371       13.672       23.111       13.624      186.929      534.095      185.622        0.067        0.045       12.938       10.439        0.651      328.619       -5.165      862.548
12/19/2021  04:44:00      -23.792       47.109       -2.905       26.064       26.247       19.573      679.324      688.896      383.091        0.227        0.088       52.776       15.117        0.082      328.684       -5.056      862.547
12/19/2021  04:45:00       22.227       62.290       -4.247       34.722       31.268       19.207     1205.611      977.702      368.920        0.347        0.128       66.137       16.015        0.059      328.518       -5.328      862.480
12/19/2021  04:46:00       52.049       45.303      -17.498       19.212       27.395       14.820      369.106      750.496      219.624        0.320        0.067       69.004       14.236        0.043      328.327       -5.638      862.437
12/19/2021  04:47:00       28.236        2.383       -8.548        9.117       13.455        9.963       83.113      181.032       99.256        0.062        0.018       28.336        6.823        0.058      328.362       -5.581      862.468
12/19/2021  04:48:00       23.105        9.696       -2.105       17.253       12.383        8.094      297.683      153.345       65.516        0.057        0.026       25.057        3.340        0.018      328.423       -5.486      862.486
12/19/2021  04:49:00      -24.175       35.257      -11.834       18.756        9.502       12.418      351.805       90.286      154.204        0.128        0.030       42.749        7.687        0.032      328.441       -5.456      862.513
12/19/2021  04:50:00      -42.414       42.135      -14.305       14.224       19.421       11.308      202.325      377.159      127.881        0.224        0.035       59.785        7.467        0.016      328.466       -5.414      862.562
12/19/2021  04:51:00      -18.825        5.659       -8.686       11.421        7.977       11.004      130.446       63.635      121.086        0.039        0.016       19.657       10.341        0.277      328.477       -5.395      862.566
12/19/2021  04:52:00       -4.282        8.855       -8.721       17.791        9.015       13.018      316.526       81.275      169.473        0.037        0.028        9.836        9.963        1.026      328.473       -5.403      862.541
12/19/2021  04:53:00        5.097       25.517       -6.560       22.946       18.241       12.542      526.540      332.735      157.311        0.087        0.051       26.021        9.465        0.132      328.514       -5.336      862.536
12/19/2021  04:54:00      -18.871       33.528       -8.603       15.338       26.271       13.523      235.241      690.140      182.871        0.133        0.055       38.474       10.543        0.075      328.573       -5.239      862.569
12/19/2021  04:55:00      -12.068       43.080       -3.382       13.902       18.685       10.349      193.278      349.126      107.112        0.133        0.032       44.739        8.282        0.034      328.578       -5.230      862.571
12/19/2021  04:56:00       36.506       35.071       -7.022       37.745       22.875       20.691     1424.721      523.276      428.109        0.249        0.119       50.623       21.633        0.183      328.479       -5.394      862.531
12/19/2021  04:57:00      109.050       56.373      -17.403       21.368       19.175       16.198      456.593      367.665      262.377        0.823        0.054      122.759       11.536        0.009      328.486       -5.382      862.490
12/19/2021  04:58:00       27.109        5.530      -11.269       39.008       29.031       24.340     1521.651      842.809      592.444        0.192        0.148       27.667       21.345        0.595      328.788       -4.889      862.504
12/19/2021  04:59:00       57.865       29.851      -21.970       22.394       23.963       15.610      501.512      574.226      243.670        0.302        0.066       65.111       11.782        0.033      328.582       -5.224      862.516
12/19/2021  05:00:00       89.785       29.330      -19.606       14.594       22.120       13.185      212.995      489.297      173.831        0.509        0.044       94.454        9.669        0.010      328.475       -5.399      862.499
12/19/2021  05:01:00       58.789       26.704      -16.485       25.646       18.163       14.946      657.731      329.886      223.377        0.283        0.061       64.570        6.881        0.011      328.535       -5.300      862.503
12/19/2021  05:02:00       68.928       40.175      -14.299       12.826       13.001       10.598      164.503      169.014      112.311        0.351        0.022       79.782        5.767        0.005      328.437       -5.464      862.516
12/19/2021  05:03:00       46.341       43.391      -12.287       22.810       15.444       14.879      520.287      238.511      221.390        0.258        0.049       63.484       13.167        0.043      328.452       -5.438      862.511
12/19/2021  05:04:00       91.823       42.048      -16.537       14.977       15.664       13.267      224.323      245.365      176.009        0.556        0.032      100.993        8.935        0.008      328.432       -5.471      862.493
12/19/2021  05:05:00       88.669       51.923      -11.628       15.070       18.756       16.589      227.110      351.779      275.210        0.577        0.043      102.753        9.961        0.009      328.432       -5.471      862.474
12/19/2021  05:06:00       26.775       26.989        0.628       29.051       19.041       14.685      843.954      362.557      215.641        0.143        0.071       38.017       15.512        0.166      328.455       -5.432      862.486
12/19/2021  05:07:00       27.638       49.576      -11.836       31.761       15.111       13.606     1008.732      228.329      185.117        0.239        0.071       56.759        9.479        0.028      328.565       -5.253      862.492
12/19/2021  05:08:00       63.591       38.967      -26.062       33.990       19.404       16.994     1155.323      376.531      288.810        0.403        0.091       74.581        8.905        0.014      328.690       -5.048      862.500
12/19/2021  05:09:00       95.274       23.835      -30.383       50.814       30.971       23.453     2582.050      959.229      550.025        0.733        0.205       98.210       18.051        0.034      328.580       -5.229      862.499
12/19/2021  05:10:00      107.345       35.527      -17.473       34.602       11.575       16.659     1197.318      133.969      277.530        0.735        0.080      113.071       11.497        0.010      328.422       -5.485      862.498
12/19/2021  05:11:00       61.723       30.639      -12.707       18.152        9.740        8.746      329.512       94.872       76.487        0.271        0.025       68.909        5.494        0.006      328.397       -5.526      862.518
12/19/2021  05:12:00       44.425       23.410       -9.504       19.179       12.044        9.730      367.833      145.063       94.675        0.161        0.030       50.216        7.756        0.024      328.428       -5.477      862.543
12/19/2021  05:13:00       96.322        7.479      -15.752       27.136       35.984       23.230      736.341     1294.818      539.628        0.608        0.129       96.612       17.348        0.032      328.527       -5.315      862.523
12/19/2021  05:14:00       96.310       12.859      -21.749       47.388       41.650       25.085     2245.589     1734.730      629.251        0.726        0.230       97.164       15.192        0.024      328.474       -5.399      862.495
12/19/2021  05:15:00       75.973       26.961      -18.190       20.751       15.603        7.746      430.604      243.466       59.996        0.378        0.037       80.615        8.411        0.011      328.332       -5.629      862.508
12/19/2021  05:16:00       62.994       48.008      -18.249       16.351       12.742       11.853      267.370      162.370      140.496        0.359        0.029       79.203        3.953        0.002      328.357       -5.589      862.507
12/19/2021  05:17:00       57.297       57.888      -14.617       23.722       19.068       14.587      562.714      363.574      212.795        0.399        0.057       81.449       11.652        0.020      328.377       -5.557      862.494
12/19/2021  05:18:00       15.254       38.830       -1.540       15.180       20.214       15.530      230.419      408.597      241.173        0.131        0.044       41.719       12.299        0.087      328.413       -5.500      862.494
12/19/2021  05:19:00       22.586       53.441      -10.007       19.040       16.130       13.681      362.509      260.169      187.183        0.214        0.040       58.018       11.546        0.040      328.443       -5.451      862.495
12/19/2021  05:20:00       56.737       41.295       -9.676       42.497       19.155       18.442     1805.957      366.907      340.089        0.376        0.126       70.174       18.101        0.067      328.420       -5.490      862.474
12/19/2021  05:21:00       85.555       15.661      -22.206       31.039       29.340       15.726      963.395      860.859      247.319        0.506        0.104       86.977       12.514        0.021      328.521       -5.325      862.423
12/19/2021  05:22:00       71.743        1.240      -15.052       20.516       26.910       16.010      420.908      724.145      256.324        0.339        0.070       71.754       10.761        0.022      328.430       -5.474      862.426
12/19/2021  05:23:00        7.131       -8.992      -16.121       12.483       16.956       15.618      155.818      287.493      243.918        0.054        0.034       11.476       12.296        1.148      328.454       -5.434      862.468
12/19/2021  05:24:00       -5.443      -12.580      -22.151       25.355       23.455       21.073      642.887      550.144      444.052        0.116        0.082       13.707       21.322        2.420      328.548       -5.281      862.517
12/19/2021  05:25:00       28.043      -45.611      -27.732       62.638       34.981       21.264     3923.549     1223.647      452.152        0.462        0.280       53.543       26.181        0.239      328.498       -5.361      862.554
12/19/2021  05:26:00       38.286       29.291      -10.853       21.726       30.771       20.106      472.014      946.883      404.266        0.213        0.091       48.206        6.917        0.021      328.501       -5.355      862.507
12/19/2021  05:27:00        5.311       24.740       -7.443       14.672       13.160       12.842      215.270      173.180      164.923        0.062        0.028       25.304       11.156        0.194      328.395       -5.527      862.412
12/19/2021  05:28:00       18.843       -9.022       -9.219       27.562       25.236       16.089      759.662      636.835      258.854        0.109        0.083       20.891        9.278        0.197      328.585       -5.218      862.372
12/19/2021  05:29:00       50.759      -17.949      -30.725       45.356       55.719       41.210     2057.145     3104.573     1698.246        0.535        0.343       53.839       21.167        0.155      328.794       -4.878      862.365
12/19/2021  05:30:00       38.286      -34.296      -20.524       39.774       37.882       34.004     1582.008     1435.023     1156.276        0.362        0.209       51.400       22.280        0.188      328.819       -4.839      862.367
12/19/2021  05:31:00       48.288       -1.451       -5.450       23.525       17.556       16.152      553.440      308.217      260.879        0.174        0.056       48.310        8.733        0.033      328.493       -5.369      862.391
12/19/2021  05:32:00       69.267        3.349       -3.248       19.156       19.327       13.850      366.940      373.531      191.815        0.288        0.047       69.348        7.354        0.011      328.366       -5.576      862.370
12/19/2021  05:33:00       50.955       42.116      -14.495       29.013       33.714       21.868      841.769     1136.629      478.221        0.352        0.123       66.107       14.581        0.049      328.503       -5.352      862.357
12/19/2021  05:34:00       32.636     -115.238      -33.062       34.409       50.750       22.422     1183.983     2575.532      502.728        0.985        0.213      119.771       23.076        0.037      328.409       -5.507      862.388
12/19/2021  05:35:00       -8.499      -69.975      -11.093       39.595       56.361       20.484     1567.764     3176.581      419.594        0.513        0.258       70.489       17.244        0.060      328.462       -5.420      862.424
12/19/2021  05:36:00      125.598       49.998      -23.791       21.212       20.790       16.526      449.959      432.238      273.099        1.000        0.058      135.184        9.252        0.005      328.357       -5.590      862.374
12/19/2021  05:37:00      120.018       48.745      -15.694       15.098       17.015       11.824      227.942      289.507      139.813        0.884        0.033      129.539        8.656        0.004      328.300       -5.684      862.310
12/19/2021  05:38:00       43.384       21.996       -8.582       27.377       13.107       12.769      749.493      171.799      163.046        0.176        0.054       48.641       12.237        0.063      328.392       -5.534      862.387
12/19/2021  05:39:00       51.031       49.008      -19.240       32.958       30.793       20.296     1086.213      948.179      411.943        0.391        0.122       70.753       13.162        0.035      328.471       -5.406      862.461
12/19/2021  05:40:00       42.698       36.559      -13.668       40.620       56.243       34.096     1649.970     3163.321     1162.509        0.466        0.299       56.211       25.440        0.205      328.452       -5.439      862.447
12/19/2021  05:41:00       58.882       31.958      -15.676       28.686       41.900       26.877      822.861     1755.597      722.369        0.402        0.165       66.996       10.030        0.022      328.567       -5.249      862.394
12/19/2021  05:42:00       60.839       41.119      -21.268       15.284       18.280       19.580      233.603      334.145      383.358        0.340        0.048       73.431        6.712        0.008      328.361       -5.584      862.365
12/19/2021  05:43:00       91.069       23.961      -11.719       26.153       20.288       11.043      683.991      411.606      121.958        0.511        0.061       94.168       10.864        0.013      328.398       -5.525      862.322
12/19/2021  05:44:00       25.533        5.808        1.258       40.248       35.173       24.619     1619.884     1237.125      606.085        0.207        0.173       26.185       21.982        0.705      328.520       -5.326      862.341
12/19/2021  05:45:00      108.416       15.255      -11.776       24.967       24.384       15.030      623.370      594.581      225.906        0.678        0.072      109.484       13.096        0.014      328.372       -5.566      862.399
12/19/2021  05:46:00       60.673       51.514      -11.848       33.127       21.810       17.127     1097.425      475.666      293.344        0.417        0.093       79.592       17.041        0.046      328.367       -5.574      862.393
12/19/2021  05:47:00       31.552       96.148       -5.643       29.599       36.730       22.034      876.088     1349.095      485.519        0.649        0.136      101.193       16.549        0.027      328.537       -5.299      862.364
12/19/2021  05:48:00       59.987       12.416      -17.281       43.049       47.127       24.328     1853.220     2220.910      591.844        0.436        0.233       61.259       18.029        0.087      328.556       -5.266      862.431
12/19/2021  05:49:00       65.633       38.035      -17.449       31.729       42.992       24.066     1006.712     1848.290      579.193        0.475        0.172       75.857       16.165        0.045      328.528       -5.312      862.506
12/19/2021  05:50:00       63.566       49.073      -13.214       45.294       47.901       30.172     2051.568     2294.508      910.372        0.594        0.263       80.305       21.607        0.072      328.628       -5.150      862.485
12/19/2021  05:51:00       73.721        7.185      -21.718       47.565       48.463       32.679     2262.428     2348.701     1067.884        0.582        0.284       74.070       20.326        0.075      328.694       -5.041      862.410
12/19/2021  05:52:00       58.537       -8.529      -22.107       39.576       64.995       32.068     1566.244     4224.309     1028.358        0.540        0.341       59.155       14.977        0.064      328.789       -4.887      862.388
12/19/2021  05:53:00       22.223      -81.186      -14.406       37.213       33.049       23.555     1384.812     1092.260      554.853        0.516        0.152       84.172       13.638        0.026      328.822       -4.831      862.435
12/19/2021  05:54:00        2.383      -60.182      -12.552       15.191       31.944       16.087      230.774     1020.430      258.790        0.265        0.075       60.229       15.990        0.070      328.387       -5.540      862.449
12/19/2021  05:55:00       73.231       40.499      -10.921       45.613       29.939       18.340     2080.512      896.365      336.355        0.522        0.166       83.684       19.594        0.055      328.434       -5.465      862.376
12/19/2021  05:56:00       85.925       18.349      -15.249       34.573       36.605       24.072     1195.317     1339.897      579.468        0.553        0.156       87.862       17.731        0.041      328.509       -5.343      862.332
12/19/2021  05:57:00       43.511      -25.006      -25.607       49.263       62.130       29.593     2426.863     3860.107      875.738        0.517        0.358       50.184       25.579        0.260      328.731       -4.981      862.379
12/19/2021  05:58:00       -5.312      -44.424      -25.648       27.921       28.929       17.147      779.591      836.891      294.024        0.228        0.096       44.740        9.516        0.045      328.674       -5.075      862.437
12/19/2021  05:59:00        7.691      -12.239      -12.560       16.920       33.889       17.361      286.272     1148.472      301.392        0.105        0.087       14.455       11.409        0.623      328.596       -5.201      862.439
12/19/2021  06:00:00       25.823      -20.519      -24.035       25.145       51.883       22.392      632.281     2691.844      501.421        0.274        0.191       32.982        7.762        0.055      328.666       -5.089      862.412
12/19/2021  06:01:00       37.579        7.225      -19.439       33.090       52.069       35.713     1094.931     2711.186     1275.441        0.346        0.254       38.267       19.444        0.258      328.704       -5.026      862.391
12/19/2021  06:02:00       68.829       48.150      -20.311       27.466       16.892       22.113      754.370      285.330      488.986        0.450        0.076       83.999       10.520        0.016      328.422       -5.485      862.388
12/19/2021  06:03:00       61.688       53.331      -14.459       32.893       19.034       17.423     1081.978      362.284      303.558        0.430        0.087       81.545        3.971        0.002      328.449       -5.442      862.408
12/19/2021  06:04:00       86.887       39.391      -20.721       16.601       14.485       14.155      275.595      209.829      200.375        0.511        0.034       95.399        7.800        0.007      328.308       -5.670      862.447
12/19/2021  06:05:00       84.830       55.795      -19.809       17.352       18.782       12.122      301.080      352.759      146.953        0.575        0.040      101.534        8.482        0.007      328.283       -5.711      862.443
12/19/2021  06:06:00       65.197       51.453      -17.161       12.521       11.737       11.902      156.765      137.748      141.663        0.381        0.022       83.054        7.123        0.007      328.242       -5.779      862.435
12/19/2021  06:07:00       61.322       46.612      -22.088        9.429        6.344        9.208       88.905       40.245       84.784        0.332        0.011       77.026        2.675        0.001      328.208       -5.834      862.418
12/19/2021  06:08:00       68.255       43.041      -18.738       12.152       14.209        9.661      147.677      201.902       93.335        0.365        0.022       80.693        6.199        0.006      328.223       -5.809      862.412
12/19/2021  06:09:00       44.328       23.496       -7.746       21.555        9.322       10.105      464.610       86.906      102.114        0.162        0.033       50.170        7.497        0.022      328.334       -5.628      862.442
12/19/2021  06:10:00        0.768       25.709       -2.439       15.899       12.152       10.141      252.777      147.661      102.830        0.059        0.025       25.721        3.762        0.021      328.320       -5.653      862.456
12/19/2021  06:11:00       92.156       47.259      -17.668       25.485       17.740       16.292      649.478      314.704      265.445        0.613        0.061      103.567        9.786        0.009      328.309       -5.668      862.402
12/19/2021  06:12:00       91.432        8.737      -16.018       64.838       39.204       23.936     4204.027     1536.948      572.920        0.750        0.316       91.849       21.347        0.054      328.561       -5.259      862.332
12/19/2021  06:13:00       76.799       13.642      -14.395       37.745       31.791       19.460     1424.679     1010.658      378.696        0.455        0.141       78.001       15.173        0.038      328.477       -5.395      862.346
12/19/2021  06:14:00       30.936       22.290      -13.341       33.535       18.007       12.920     1124.618      324.260      166.936        0.162        0.081       38.129       17.228        0.204      328.268       -5.737      862.406
12/19/2021  06:15:00      -23.062        7.145       -1.584       33.543       33.600       17.516     1125.108     1128.948      306.817        0.157        0.128       24.144       11.581        0.230      328.403       -5.516      862.453
12/19/2021  06:16:00       -6.435       -5.690      -15.410       16.775       10.166        8.124      281.390      103.348       65.997        0.038        0.023        8.590        6.328        0.543      328.424       -5.481      862.442
12/19/2021  06:17:00       16.516       46.371       -7.490       28.968       30.885       15.116      839.160      953.863      228.497        0.225        0.101       49.224       12.674        0.066      328.384       -5.547      862.390
12/19/2021  06:18:00       34.900      138.582      -11.215       41.311       31.703       24.478     1706.591     1005.107      599.178        1.193        0.166      142.909       23.468        0.027      328.412       -5.502      862.327
12/19/2021  06:19:00       67.765      127.794      -23.368       30.427       45.807       26.742      925.783     2098.315      715.140        1.260        0.187      144.650       20.347        0.020      328.434       -5.465      862.263
12/19/2021  06:20:00      104.405       70.762      -25.653       24.095       20.492       19.259      580.582      419.935      370.896        0.897        0.069      126.125       10.977        0.008      328.257       -5.754      862.226
12/19/2021  06:21:00       12.253       37.690      -12.079       28.216       17.078       16.034      796.163      291.654      257.098        0.153        0.067       39.632        7.805        0.039      328.269       -5.735      862.302
12/19/2021  06:22:00        6.923       15.906        2.991       27.066       27.773       22.005      732.581      771.331      484.226        0.115        0.099       17.348        8.602        0.246      328.477       -5.395      862.404
12/19/2021  06:23:00      -21.473       23.158      -15.552       37.128       14.967       11.343     1378.453      224.022      128.658        0.148        0.087       31.582        6.250        0.039      328.273       -5.728      862.410
12/19/2021  06:24:00       50.356       12.320      -13.938       30.427       29.394       23.231      925.828      864.021      539.674        0.261        0.116       51.842       10.810        0.043      328.384       -5.547      862.344
12/19/2021  06:25:00       94.354       34.879      -27.294       63.367       57.332       30.963     4015.385     3286.931      958.718        0.956        0.413      100.594       17.786        0.031      328.457       -5.428      862.274
12/19/2021  06:26:00      116.529       22.494      -18.537       42.643       38.529       19.287     1818.419     1484.493      371.991        0.905        0.184      118.680        7.990        0.005      328.212       -5.828      862.244
12/19/2021  06:27:00       91.525       15.173      -12.338       30.039       30.475       21.850      902.342      928.701      477.403        0.553        0.115       92.774       17.577        0.036      328.276       -5.722      862.291
12/19/2021  06:28:00       50.800       20.153      -20.153       15.069       13.661       13.091      227.084      186.635      171.387        0.199        0.029       54.652        5.747        0.011      328.234       -5.794      862.337
12/19/2021  06:29:00       68.907       28.826      -21.811       11.223       11.333        9.725      125.961      128.430       94.575        0.320        0.017       74.693        4.419        0.004      328.177       -5.887      862.317
12/19/2021  06:30:00       18.438       19.477       -0.646       27.475       18.319       14.741      754.890      335.568      217.294        0.101        0.065       26.820        8.085        0.091      328.269       -5.733      862.323
12/19/2021  06:31:00       -9.473       36.179        2.617       28.646       24.249       14.748      820.566      588.018      217.510        0.152        0.081       37.398        9.851        0.069      328.352       -5.600      862.363
12/19/2021  06:32:00      103.749       23.715      -20.768       33.071       26.775       21.346     1093.665      716.916      455.671        0.701        0.113      106.424       18.016        0.029      328.225       -5.805      862.360
12/19/2021  06:33:00      126.813        1.510      -32.739       51.284       41.691       30.312     2630.007     1738.118      918.809        1.122        0.264      126.822       18.520        0.021      328.430       -5.472      862.288
12/19/2021  06:34:00      138.834      -13.201      -28.497       58.510       47.107       37.180     3423.406     2219.081     1382.318        1.364        0.351      139.461       32.102        0.053      328.466       -5.414      862.238
12/19/2021  06:35:00       50.213       74.044      -16.305       47.302       38.079       23.795     2237.526     1449.999      566.214        0.626        0.213       89.465       21.111        0.056      328.218       -5.819      862.246
12/19/2021  06:36:00       12.049       34.593       -9.344       16.652       24.071       13.065      277.285      579.411      170.684        0.123        0.051       36.631       10.610        0.084      328.362       -5.583      862.322
12/19/2021  06:37:00      -16.942      -46.400      -30.168       36.738       36.216       28.043     1349.706     1311.621      786.385        0.340        0.172       49.396       20.393        0.170      328.342       -5.616      862.460
12/19/2021  06:38:00      -33.372      -11.790       -7.633       30.999       41.081       29.898      960.917     1687.615      893.897        0.243        0.177       35.394       22.898        0.419      328.323       -5.648      862.495
12/19/2021  06:39:00       78.818       -2.924       -3.456       72.158       33.501       25.781     5206.725     1122.301      664.667        0.661        0.350       78.872       29.926        0.144      328.262       -5.747      862.404
12/19/2021  06:40:00      155.461       31.999      -13.980       26.232       25.844       18.715      688.105      667.919      350.267        1.355        0.085      158.720       12.762        0.006      328.099       -6.012      862.304
12/19/2021  06:41:00       95.632       21.092      -16.066       35.584       26.126       23.317     1266.225      682.582      543.706        0.617        0.125       97.930       15.279        0.024      328.148       -5.931      862.276
12/19/2021  06:42:00       75.342       17.185      -22.408       26.736       26.832       22.196      714.806      719.932      492.656        0.420        0.096       77.277       13.446        0.030      328.375       -5.563      862.345
12/19/2021  06:43:00       70.119       44.019      -13.334       24.889       21.619       14.141      619.470      467.373      199.955        0.416        0.064       82.791       10.746        0.017      328.146       -5.936      862.409
12/19/2021  06:44:00       87.568        7.056       -8.585       29.260       21.364       14.903      856.165      456.425      222.086        0.466        0.077       87.852       10.359        0.014      328.169       -5.897      862.413
12/19/2021  06:45:00       93.786       19.027      -11.456       34.147       30.956       19.563     1166.028      958.293      382.701        0.590        0.125       95.696       16.990        0.032      328.257       -5.755      862.385
12/19/2021  06:46:00      119.977       61.564      -15.596       22.599       16.841       18.499      510.720      283.620      342.196        0.978        0.057      134.850       10.511        0.006      328.102       -6.008      862.317
12/19/2021  06:47:00       94.661       61.181      -19.975       34.665       21.759       15.964     1201.640      473.469      254.835        0.752        0.096      112.711       16.359        0.021      328.142       -5.941      862.251
12/19/2021  06:48:00       23.699       50.357      -19.023       30.629       14.431       16.740      938.148      208.253      280.242        0.244        0.071       55.655        9.299        0.028      328.124       -5.971      862.315
12/19/2021  06:49:00      -45.331       51.733       -1.846       37.856       31.619       24.502     1433.112      999.737      600.333        0.388        0.152       68.784       19.942        0.084      328.433       -5.467      862.415
12/19/2021  06:50:00      -49.828       69.630      -17.898       37.684       26.917       16.800     1420.089      724.499      282.253        0.504        0.121       85.622       13.112        0.023      328.292       -5.697      862.447
12/19/2021  06:51:00       -2.299       53.824      -11.523       33.011       22.611       16.884     1089.694      511.272      285.066        0.246        0.094       53.873       10.182        0.036      328.260       -5.749      862.375
12/19/2021  06:52:00      105.125       68.950      -18.433       34.827       21.818       19.400     1212.914      476.027      376.353        0.910        0.103      125.719       14.556        0.013      328.104       -6.001      862.249
12/19/2021  06:53:00      121.670       56.036      -14.127       33.501       33.821       21.234     1122.307     1143.843      450.884        1.043        0.136      133.954       20.167        0.023      328.137       -5.950      862.163
12/19/2021  06:54:00      116.590       51.728      -18.065       46.551       41.165       26.919     2166.969     1694.549      724.612        1.059        0.229      127.550       23.787        0.035      328.249       -5.767      862.140
12/19/2021  06:55:00       67.323       10.508      -17.549       38.611       22.170       17.977     1490.821      491.528      323.163        0.363        0.115       68.138        7.627        0.013      328.092       -6.024      862.213
12/19/2021  06:56:00       13.356        6.469       -5.862       19.188       22.404       14.398      368.198      501.953      207.316        0.067        0.054       14.840        7.830        0.278      328.150       -5.928      862.354
12/19/2021  06:57:00        8.627      -16.027       -7.312       34.371       37.130       17.476     1181.347     1378.656      305.421        0.162        0.143       18.201        2.464        0.018      328.286       -5.707      862.386
12/19/2021  06:58:00       51.083      -11.775       -3.502       62.575       67.884       54.454     3915.583     4608.244     2965.205        0.712        0.574       52.423       42.920        0.670      328.558       -5.265      862.208
12/19/2021  06:59:00      129.604       63.734      -24.070       64.870       58.813       40.264     4208.170     3459.004     1621.196        1.536        0.464      144.428       28.465        0.039      328.419       -5.490      862.090
12/19/2021  07:00:00       86.338       27.862      -16.913       76.923       31.063       25.484     5917.081      964.919      649.431        0.802        0.377       90.722       25.516        0.079      328.090       -6.026      862.207
12/19/2021  07:01:00      -15.936       17.310      -19.569       23.985       16.580       19.057      575.291      274.894      363.182        0.107        0.061       23.529       12.443        0.280      328.256       -5.758      862.389
12/19/2021  07:02:00      -37.459       22.464       -6.233       24.680       19.922       14.482      609.109      396.871      209.718        0.158        0.061       43.678        8.918        0.042      328.426       -5.479      862.434
12/19/2021  07:03:00       98.049       52.979      -24.311       59.382       43.652       23.926     3526.229     1905.491      572.470        0.951        0.300      111.447       11.791        0.011      328.232       -5.795      862.313
12/19/2021  07:04:00      136.116       42.204      -31.408       50.448       36.530       20.947     2544.996     1334.469      438.770        1.281        0.216      142.509        8.570        0.004      328.200       -5.848      862.218
12/19/2021  07:05:00       36.256        3.228      -18.533       59.735       21.661       18.265     3568.266      469.205      333.620        0.302        0.219       36.400       15.775        0.188      328.182       -5.876      862.334
12/19/2021  07:06:00      -42.334       45.823      -14.189       51.089       53.131       30.727     2610.063     2822.867      944.127        0.523        0.319       62.385       19.835        0.101      328.458       -5.427      862.508
12/19/2021  07:07:00      -29.456       44.795      -18.867       32.281       21.671       18.115     1042.063      469.629      328.140        0.253        0.092       53.612        8.909        0.028      328.228       -5.801      862.504
12/19/2021  07:08:00      127.290       48.721      -18.118       64.915       37.419       22.599     4213.955     1400.152      510.706        1.251        0.306      136.296       11.688        0.007      328.116       -5.983      862.320
12/19/2021  07:09:00       87.019       -5.300      -25.092       71.621       66.529       41.296     5129.580     4426.124     1705.341        0.974        0.563       87.180       11.180        0.016      328.492       -5.370      862.204
12/19/2021  07:10:00       15.479      -11.939       -9.257       63.683       48.586       34.876     4055.476     2360.590     1216.369        0.405        0.382       19.548       28.252        2.089      328.440       -5.456      862.279
12/19/2021  07:11:00      -24.702       46.974       -7.408       31.161       30.780       18.674      971.027      947.429      348.728        0.257        0.113       53.073       10.986        0.043      328.327       -5.639      862.406
12/19/2021  07:12:00      -40.324       26.037       -6.765       38.721       33.227       21.613     1499.346     1104.029      467.107        0.271        0.154       47.999       16.689        0.121      328.369       -5.570      862.432
12/19/2021  07:13:00        1.972       25.157      -12.053       11.271       11.587        9.341      127.031      134.249       87.253        0.057        0.017       25.235        6.027        0.057      328.187       -5.866      862.397
12/19/2021  07:14:00       29.264       22.827      -12.497       31.778       32.032       19.399     1009.872     1026.075      376.316        0.197        0.121       37.114       15.147        0.167      328.268       -5.736      862.370
12/19/2021  07:15:00      103.393        8.683      -16.184       37.263       40.392       23.779     1388.514     1631.482      565.451        0.731        0.179      103.757        9.871        0.009      328.223       -5.809      862.319
12/19/2021  07:16:00      115.393       16.376      -16.540       46.610       35.992       24.449     2172.495     1295.459      597.738        0.896        0.203      116.549       25.362        0.047      328.224       -5.807      862.270
12/19/2021  07:17:00       36.992       15.045       -6.992       30.460       21.525       16.482      927.787      463.308      271.651        0.165        0.083       39.934       12.878        0.104      328.133       -5.957      862.338
12/19/2021  07:18:00      -33.644      -13.197      -15.997       41.209       63.359       20.349     1698.210     4014.369      414.076        0.384        0.306       36.139       24.774        0.470      328.321       -5.651      862.445
12/19/2021  07:19:00      -10.392      -54.414      -17.159       35.074       31.612       22.283     1230.173      999.327      496.544        0.304        0.136       55.398       16.919        0.093      328.357       -5.591      862.463
12/19/2021  07:20:00       12.915       -7.747      -13.337       27.639       42.567       23.557      763.926     1811.986      554.921        0.177        0.157       15.060       20.105        1.782      328.471       -5.405      862.369
12/19/2021  07:21:00       29.253      -24.085      -24.177       36.336       56.895       36.096     1320.338     3237.033     1302.902        0.394        0.293       37.893       18.852        0.248      328.969       -4.593      862.260
12/19/2021  07:22:00       83.531       43.390      -16.252       67.064       55.836       30.497     4497.527     3117.672      930.073        0.883        0.427       94.128       23.073        0.060      328.470       -5.406      862.191
12/19/2021  07:23:00       81.165       28.165       -5.429       61.713       23.909       19.259     3808.453      571.618      370.896        0.608        0.238       85.913       22.051        0.066      328.209       -5.833      862.154
12/19/2021  07:24:00       59.415       50.151      -13.060       26.885       27.824       16.187      722.788      774.151      262.025        0.399        0.088       77.751       11.527        0.022      328.181       -5.880      862.165
12/19/2021  07:25:00       90.156       35.365      -12.890       16.548       18.529       12.274      273.836      343.317      150.653        0.516        0.038       96.844        3.487        0.001      328.140       -5.945      862.246
12/19/2021  07:26:00       15.866       39.536       -1.097       37.720       21.600       13.013     1422.804      466.573      169.330        0.194        0.103       42.601       15.634        0.135      328.180       -5.879      862.338
12/19/2021  07:27:00       18.545       54.233      -12.093       24.994       26.422       15.767      624.689      698.146      248.609        0.250        0.079       57.316       11.434        0.040      328.213       -5.824      862.341
12/19/2021  07:28:00      132.966       76.743      -20.781       45.795       17.670       16.631     2097.139      312.225      276.577        1.334        0.134      153.523       15.790        0.011      328.150       -5.928      862.211
12/19/2021  07:29:00      163.260       46.124      -23.059       41.181       35.942       24.893     1695.894     1291.805      619.659        1.646        0.180      169.651       15.187        0.008      328.332       -5.633      862.121
12/19/2021  07:30:00      113.464       29.849      -19.648       31.139       35.672       17.713      969.632     1272.477      313.733        0.835        0.128      117.325        9.966        0.007      328.245       -5.773      862.191
12/19/2021  07:31:00       88.524       36.439      -17.300       18.404       13.102       10.248      338.723      171.658      105.015        0.504        0.031       95.731        4.490        0.002      328.111       -5.993      862.297
12/19/2021  07:32:00      108.067       60.316      -26.473       38.827       28.133       18.135     1507.573      791.446      328.896        0.932        0.131      123.759        9.159        0.005      328.146       -5.937      862.309
12/19/2021  07:33:00       95.484       34.508      -24.975       38.743       31.900       24.190     1500.997     1017.637      585.136        0.702        0.155      101.528       26.046        0.066      328.195       -5.855      862.291
12/19/2021  07:34:00       64.281       40.252      -12.367       44.103       24.853       18.602     1945.076      617.670      346.036        0.441        0.145       75.843       22.799        0.090      328.122       -5.974      862.270
12/19/2021  07:35:00       90.434       42.936      -17.893       27.655       22.031       17.983      764.777      485.380      323.387        0.596        0.079      100.109       10.904        0.012      328.110       -5.994      862.274
12/19/2021  07:36:00      117.830       21.990      -15.403       48.139       33.701       24.532     2317.358     1135.757      601.830        0.933        0.203      119.864       15.034        0.016      328.123       -5.972      862.274
12/19/2021  07:37:00       56.597       59.934       -2.116       45.776       28.471       26.092     2095.435      810.592      680.783        0.519        0.179       82.433       22.286        0.073      328.112       -5.990      862.230
12/19/2021  07:38:00      117.887       52.699      -20.629       29.874       35.831       21.211      892.476     1283.828      449.887        0.986        0.131      129.130       13.706        0.011      328.079       -6.044      862.173
12/19/2021  07:39:00       53.398      -31.164      -24.044       39.698       61.392       35.284     1575.930     3768.940     1244.951        0.549        0.329       61.827       19.546        0.100      328.353       -5.597      862.207
12/19/2021  07:40:00       -1.474      -49.117      -14.293       21.460       30.317       15.438      460.511      919.120      238.323        0.212        0.081       49.140       12.642        0.066      328.055       -6.083      862.286
12/19/2021  07:41:00        2.832       -4.435      -12.862       15.584       17.439       14.068      242.850      304.111      197.904        0.047        0.037        5.263       13.827        6.903      328.259       -5.753      862.340
12/19/2021  07:42:00       21.810       42.079       -4.804       41.065       16.168       12.035     1686.320      261.389      144.832        0.218        0.105       47.395       13.176        0.077      328.200       -5.847      862.325
12/19/2021  07:43:00      112.456       61.064      -22.871       26.241       14.299       17.588      688.605      204.447      309.335        0.905        0.060      127.966       11.983        0.009      328.013       -6.151      862.235
12/19/2021  07:44:00      152.157       55.020      -33.795       60.813       65.975       26.201     3698.205     4352.742      686.474        1.803        0.437      161.799       18.687        0.013      328.196       -5.853      862.099
12/19/2021  07:45:00      134.268       61.675      -22.969       78.863       34.609       26.728     6219.412     1197.817      714.404        1.524        0.407      147.755       19.627        0.018      328.105       -6.002      862.055
12/19/2021  07:46:00      -38.598       60.366      -22.150       51.083       28.661       25.569     2609.500      821.432      653.773        0.485        0.204       71.651       23.495        0.108      328.240       -5.782      862.220
12/19/2021  07:47:00      -39.760       -8.406        7.673       73.051       54.576       32.724     5336.417     2978.547     1070.857        0.555        0.469       40.639       28.700        0.499      328.416       -5.496      862.368
12/19/2021  07:48:00       32.559       -8.874      -16.029       46.236       63.530       20.495     2137.753     4036.092      420.044        0.399        0.330       33.746        8.837        0.069      328.261       -5.748      862.271
12/19/2021  07:49:00      153.873       72.266      -25.129       37.256       37.045       27.476     1388.046     1372.363      754.927        1.652        0.176      169.997       16.688        0.010      328.219       -5.817      862.090
12/19/2021  07:50:00       66.972       -0.109      -11.354       84.808       27.391       19.695     7192.462      750.268      387.897        0.647        0.417       66.972       17.393        0.067      328.127       -5.967      862.071
12/19/2021  07:51:00      -45.483       47.853      -13.894       51.408       26.678       25.661     2642.780      711.698      658.480        0.428        0.201       66.020       20.645        0.098      328.249       -5.767      862.217
12/19/2021  07:52:00      -17.519       44.221       -9.220       46.685       28.330       23.357     2179.453      802.603      545.533        0.294        0.176       47.565        8.519        0.032      328.391       -5.535      862.290
12/19/2021  07:53:00      122.791       14.103      -17.646       76.570       55.579       30.914     5863.021     3089.031      955.699        1.275        0.495      123.598       21.278        0.030      328.241       -5.780      862.173
12/19/2021  07:54:00      185.090        8.792      -32.660       59.810       51.814       30.149     3577.290     2684.657      908.946        2.129        0.359      185.299       19.166        0.011      328.191       -5.863      862.004
12/19/2021  07:55:00       50.322        4.472      -13.775       86.314       46.909       28.298     7450.112     2200.440      800.783        0.659        0.523       50.520       32.131        0.405      328.398       -5.525      862.059
12/19/2021  07:56:00      -50.387      -25.932      -21.465       56.400       49.269       25.197     3180.912     2427.386      634.912        0.496        0.312       56.668       20.615        0.132      328.539       -5.294      862.279
12/19/2021  07:57:00      -21.517        0.162       -3.574       29.426       39.578       22.623      865.911     1566.440      511.797        0.171        0.147       21.517       21.116        0.963      328.499       -5.360      862.323
12/19/2021  07:58:00       24.018       49.489        0.130       45.632       38.409       25.691     2082.297     1475.261      660.047        0.362        0.211       55.009       25.127        0.209      328.456       -5.431      862.168
12/19/2021  07:59:00       68.603       21.349      -10.239       41.391       30.167       28.875     1713.241      910.077      833.738        0.436        0.173       71.848       10.401        0.021      328.430       -5.472      862.088
12/19/2021  08:00:00       74.343       46.586      -17.464       29.664       22.188       15.760      879.969      492.323      248.385        0.481        0.081       87.733       11.080        0.016      328.309       -5.670      862.122
12/19/2021  08:01:00       86.910       36.335      -22.111       17.864       16.848       13.338      319.113      283.871      177.905        0.507        0.039       94.200        9.987        0.011      328.227       -5.806      862.095
12/19/2021  08:02:00       60.706       28.225      -16.136       22.200       22.341       14.958      492.821      499.109      223.749        0.298        0.061       66.946       13.281        0.039      328.246       -5.774      862.093
12/19/2021  08:03:00       24.430      -14.798      -15.626       22.128       19.489       16.383      489.640      379.816      268.415        0.110        0.057       28.562        8.271        0.084      328.464       -5.416      862.241
12/19/2021  08:04:00     -101.380       27.330      -16.784       73.842       39.265       26.518     5452.626     1541.771      703.229        0.950        0.385      105.000       10.295        0.010      328.407       -5.511      862.282
12/19/2021  08:05:00      -31.118      106.574      -13.151       45.996       39.053       20.809     2115.590     1525.150      433.005        0.829        0.204      111.024       11.899        0.011      328.263       -5.744      862.148
12/19/2021  08:06:00       76.443       80.028      -15.279       36.192       48.211       27.870     1309.895     2324.282      776.741        0.845        0.221      110.671       27.710        0.063      328.358       -5.589      862.103
12/19/2021  08:07:00        7.509       33.474      -14.506       20.791       29.140       18.129      432.262      849.134      328.671        0.150        0.081       34.306       16.516        0.232      328.418       -5.492      862.187
12/19/2021  08:08:00       -0.128        8.548      -14.343       48.877       32.464       27.224     2388.960     1053.930      741.162        0.223        0.209        8.549       12.017        1.976      328.543       -5.287      862.293
12/19/2021  08:09:00      -18.665       28.226      -18.253       38.866       18.938       14.995     1510.563      358.657      224.849        0.179        0.105       33.839        6.963        0.042      328.265       -5.740      862.279
12/19/2021  08:10:00       58.913       25.271      -18.457       26.386       27.282       18.424      696.215      744.317      339.451        0.311        0.089       64.104       12.956        0.041      328.413       -5.500      862.186
12/19/2021  08:11:00       79.154       35.240      -15.488       18.108       12.644       11.219      327.891      159.870      125.864        0.418        0.031       86.644        7.879        0.008      328.302       -5.681      862.141
12/19/2021  08:12:00       19.649       15.722       -4.471       24.534       15.390       14.768      601.913      236.853      218.108        0.085        0.053       25.165       11.643        0.214      328.439       -5.457      862.117
12/19/2021  08:13:00      -40.899      128.215      -19.885       29.551       48.923       20.440      873.259     2393.486      417.797        1.110        0.184      134.580       17.102        0.016      328.428       -5.475      862.102
12/19/2021  08:14:00      -28.662       52.068      -18.252       33.948       45.749       16.721     1152.481     2092.943      279.601        0.369        0.176       59.436        7.464        0.016      328.527       -5.314      862.155
12/19/2021  08:15:00        4.059      -25.568       -9.198       24.616       28.156       20.912      605.941      792.753      437.329        0.130        0.092       25.888       13.653        0.278      328.683       -5.059      862.276
12/19/2021  08:16:00      -39.254        3.306      -11.941       33.509       19.979       20.982     1122.827      399.171      440.248        0.183        0.098       39.393       19.580        0.247      328.592       -5.209      862.305
12/19/2021  08:17:00       35.141       68.804      -16.965       28.430       43.397       18.840      808.246     1883.279      354.960        0.465        0.152       77.258       17.524        0.051      328.518       -5.329      862.141
12/19/2021  08:18:00       71.891       24.737      -29.005       61.436       52.450       29.877     3774.365     2750.993      892.613        0.702        0.371       76.027       18.924        0.062      328.614       -5.172      862.025
12/19/2021  08:19:00       43.146       -0.311       -1.010       36.119       34.653       21.397     1304.576     1200.854      457.829        0.241        0.148       43.147       13.459        0.097      328.589       -5.212      862.126
12/19/2021  08:20:00       24.595        3.417      -19.921       52.342       49.927       23.382     2739.635     2492.679      546.737        0.340        0.289       24.831       11.660        0.221      328.689       -5.048      862.153
12/19/2021  08:21:00       92.144       48.681      -17.391       42.290       39.211       23.278     1788.468     1537.494      541.876        0.751        0.193      104.213       17.277        0.027      328.484       -5.383      862.070
12/19/2021  08:22:00       27.209       40.237       -9.595       32.615       46.050       17.906     1063.755     2120.643      320.641        0.298        0.175       48.573       17.662        0.132      328.438       -5.460      862.138
12/19/2021  08:23:00      -20.578      -49.890      -15.821       44.694       38.013       19.098     1997.540     1444.976      364.727        0.348        0.190       53.968       14.649        0.074      328.510       -5.340      862.340
12/19/2021  08:24:00       -4.702       -4.359       -9.289       16.180       31.740        7.795      261.802     1007.422       60.769        0.073        0.066        6.412        6.987        1.188      328.401       -5.518      862.363
12/19/2021  08:25:00       32.673       68.301       -9.341       30.012       56.333       25.501      900.702     3173.368      650.314        0.527        0.236       75.714       32.082        0.180      328.484       -5.385      862.166
12/19/2021  08:26:00       78.859       61.192      -15.160       44.877       37.215       26.469     2013.919     1384.975      700.625        0.715        0.205       99.816       16.051        0.026      328.493       -5.369      862.029
12/19/2021  08:27:00       17.006       38.968       -9.084       36.956       52.757       21.853     1365.772     2783.293      477.549        0.326        0.231       42.517       13.552        0.102      328.648       -5.117      862.137
12/19/2021  08:28:00      -54.593      -12.367       -5.108       93.340       49.022       31.420     8712.325     2403.166      987.229        0.763        0.605       55.976       26.426        0.223      328.729       -4.985      862.381
12/19/2021  08:29:00      -90.253      -16.996      -17.779       73.627       47.943       29.370     5420.934     2298.541      862.569        0.866        0.429       91.840       25.084        0.075      328.567       -5.249      862.427
12/19/2021  08:30:00       84.647       54.047      -19.169       65.103       60.397       24.797     4238.422     3647.854      614.897        0.948        0.425      100.430       23.321        0.054      328.669       -5.082      862.156
12/19/2021  08:31:00       60.536       55.553      -12.182       58.174       27.435       19.910     3384.188      752.702      396.427        0.572        0.227       82.163       22.723        0.076      328.500       -5.358      862.016
12/19/2021  08:32:00      -86.732       43.585      -15.157       67.760       42.133       27.570     4591.434     1775.201      760.112        0.839        0.356       97.067       18.538        0.036      328.862       -4.768      862.191
12/19/2021  08:33:00        7.573      -21.337      -17.836       52.096       47.679       25.519     2713.942     2273.279      651.233        0.323        0.282       22.641       25.342        1.253      328.976       -4.582      862.360
12/19/2021  08:34:00       76.915       13.735      -27.442       71.677       59.444       30.636     5137.573     3533.606      938.562        0.823        0.480       78.132       21.293        0.074      328.893       -4.718      862.338
12/19/2021  08:35:00      191.964       65.214      -25.886       27.833       34.475       29.971      774.685     1188.536      898.277        2.232        0.143      202.739        5.692        0.001      328.398       -5.525      862.170
12/19/2021  08:36:00       67.252      103.631      -25.168       52.150       45.016       27.560     2719.625     2026.477      759.556        1.070        0.275      123.540       17.688        0.020      328.488       -5.378      862.061
12/19/2021  08:37:00      -20.195       26.898      -22.504       43.542       61.970       20.980     1895.882     3840.324      440.181        0.391        0.309       33.635       12.967        0.149      328.684       -5.057      862.168
12/19/2021  08:38:00       20.360      -22.466        5.734       51.298       56.242       36.505     2631.514     3163.116     1332.609        0.404        0.356       30.319       22.602        0.556      328.750       -4.950      862.352
12/19/2021  08:39:00       49.782      -14.014      -17.526       62.491       62.516       24.945     3905.105     3908.239      622.271        0.571        0.422       51.717       23.669        0.209      328.683       -5.058      862.380
12/19/2021  08:40:00      147.469       53.414      -33.702       42.552       42.109       33.304     1810.643     1773.182     1109.170        1.521        0.235      156.844       19.534        0.016      328.503       -5.355      862.153
12/19/2021  08:41:00       66.182       31.333       -7.863       31.168       42.767       21.423      971.461     1829.010      458.926        0.434        0.163       73.225       17.539        0.057      328.654       -5.108      861.986
12/19/2021  08:42:00      -11.880       34.080       -2.580       77.704       39.591       23.589     6037.840     1567.447      556.459        0.473        0.408       36.091       18.713        0.269      328.762       -4.932      862.064
12/19/2021  08:43:00      -10.032      -35.246       -4.159       75.155       63.030       41.921     5648.201     3972.765     1757.362        0.637        0.569       36.646       23.529        0.412      328.903       -4.701      862.347
12/19/2021  08:44:00     -144.240      -15.713        0.923      102.349       65.022       52.734    10475.335     4227.808     2780.859        1.927        0.874      145.093       54.740        0.142      328.604       -5.190      862.542
12/19/2021  08:45:00      -56.642       42.940       -8.725       76.754       46.060       24.505     5891.137     2121.547      600.483        0.687        0.431       71.078       17.177        0.058      328.459       -5.425      862.429
12/19/2021  08:46:00      100.923       76.734      -13.749       61.013       50.896       30.979     3722.542     2590.356      959.670        1.177        0.364      126.781       25.121        0.039      328.543       -5.288      862.086
12/19/2021  08:47:00      134.250      116.458      -30.980       53.602       56.614       44.903     2873.181     3205.109     2016.247        2.032        0.405      177.723       36.180        0.041      328.562       -5.258      861.883
12/19/2021  08:48:00       74.435       41.639      -23.867       66.574       69.280       31.823     4432.032     4799.769     1012.691        0.904        0.512       85.290       26.193        0.094      328.625       -5.154      862.083
12/19/2021  08:49:00      -47.378      -11.774       -4.753      114.853       59.350       45.863    13191.219     3522.478     2103.426        1.061        0.941       48.819       37.865        0.602      328.833       -4.816      862.505
12/19/2021  08:50:00     -186.738       30.297       -5.049      113.296       66.454       39.345    12836.026     4416.099     1548.048        2.730        0.940      189.180       41.459        0.048      328.672       -5.080      862.621
12/19/2021  08:51:00      -32.697       74.966       -6.649       38.261       24.603       21.557     1463.893      605.323      464.694        0.463        0.127       81.787       17.620        0.046      328.623       -5.157      862.431
12/19/2021  08:52:00       76.123       61.972      -20.810       44.727       26.633       22.785     2000.540      709.317      519.139        0.665        0.161       98.159       13.198        0.018      328.679       -5.067      862.264
12/19/2021  08:53:00      150.799       67.179      -16.231       43.668       33.559       27.769     1906.902     1126.192      771.096        1.566        0.190      165.086       18.311        0.012      328.622       -5.161      862.170
12/19/2021  08:54:00       95.561       23.147      -19.279       94.308       68.754       38.210     8894.070     4727.132     1459.994        1.256        0.754       98.324       24.276        0.061      328.939       -4.643      862.115
12/19/2021  08:55:00       50.898      -31.142      -25.858       59.169       95.631       22.971     3500.947     9145.317      527.676        0.870        0.659       59.669       25.973        0.189      328.776       -4.908      862.281
12/19/2021  08:56:00       30.920      -40.086      -15.631       23.725       54.674       18.304      562.877     2989.289      335.052        0.335        0.194       50.625       16.658        0.108      328.635       -5.139      862.572
12/19/2021  08:57:00      -37.887       34.623       -2.662       40.834       39.244       30.593     1667.377     1540.077      935.959        0.339        0.207       51.324       13.955        0.074      328.920       -4.674      862.573
12/19/2021  08:58:00       46.397       33.091      -22.577       35.536       39.381       23.340     1262.807     1550.898      544.741        0.356        0.168       56.988       17.351        0.093      328.926       -4.662      862.398
12/19/2021  08:59:00      154.531       53.480      -24.725       65.939       50.317       33.571     4348.010     2531.811     1127.005        1.768        0.400      163.524       35.484        0.047      328.766       -4.927      862.288
12/19/2021  09:00:00      167.796       49.282      -17.686       83.846       57.408       33.474     7030.101     3295.625     1120.480        2.117        0.572      174.883       26.079        0.022      328.709       -5.019      862.216
12/19/2021  09:01:00      172.279       45.183      -14.440       68.410       35.279       20.770     4679.875     1244.575      431.400        1.914        0.318      178.105       13.518        0.006      328.513       -5.339      862.243
12/19/2021  09:02:00       78.649       14.486      -10.206       29.280       26.113       20.549      857.317      681.908      422.272        0.423        0.098       79.972        8.719        0.012      328.562       -5.258      862.327
12/19/2021  09:03:00       33.672       14.887      -13.469       35.017       32.178       28.249     1226.187     1035.441      798.003        0.230        0.153       36.817       17.115        0.216      328.749       -4.952      862.359
12/19/2021  09:04:00       38.975       15.385      -30.168       31.032       45.510       21.280      962.992     2071.169      452.838        0.308        0.174       41.902       15.520        0.137      328.761       -4.932      862.394
12/19/2021  09:05:00       80.310      -23.222      -27.566       54.707       53.313       32.491     2992.893     2842.229     1055.651        0.732        0.345       83.600       28.445        0.116      328.684       -5.060      862.380
12/19/2021  09:06:00       55.556       11.169      -11.510       29.796       30.560       19.889      887.813      933.933      395.584        0.278        0.111       56.667       14.222        0.063      328.594       -5.204      862.314
12/19/2021  09:07:00       12.644       -2.996       -3.544       23.368       18.661       18.114      546.044      348.224      328.119        0.070        0.061       12.994       17.753        1.867      328.503       -5.353      862.359
12/19/2021  09:08:00       60.892       29.416      -10.433       26.476       35.707       19.408      700.971     1274.956      376.678        0.352        0.118       67.625       21.916        0.105      328.622       -5.159      862.490
12/19/2021  09:09:00       96.643       44.862      -19.456       51.690       42.779       23.569     2671.883     1830.055      555.484        0.839        0.253      106.548       11.612        0.012      328.587       -5.217      862.431
12/19/2021  09:10:00      177.881       26.367      -18.255       24.772       24.286       20.632      613.674      589.830      425.676        1.715        0.081      179.825       15.662        0.008      328.494       -5.370      862.219
12/19/2021  09:11:00      122.702       80.723      -20.308       41.998       41.132       30.731     1763.809     1691.809      944.371        1.319        0.220      146.875       16.919        0.013      328.518       -5.329      862.101
12/19/2021  09:12:00       27.469       25.004      -15.460       42.949       23.609       16.649     1844.635      557.382      277.183        0.215        0.134       37.145        9.402        0.064      328.737       -4.971      862.259
12/19/2021  09:13:00      -17.703      -59.596      -25.712       41.259       45.803       26.992     1702.332     2097.891      728.591        0.453        0.226       62.169       21.426        0.119      328.978       -4.579      862.541
12/19/2021  09:14:00       -1.489       30.164       -7.478       31.896       45.924       25.221     1017.356     2109.009      636.091        0.236        0.188       30.201       21.357        0.500      328.864       -4.765      862.553
12/19/2021  09:15:00      124.905       48.027      -17.280       72.951       66.681       34.196     5321.915     4446.345     1169.396        1.457        0.547      133.820       17.622        0.017      328.922       -4.671      862.224
12/19/2021  09:16:00       72.706       68.470      -12.540       58.844       43.791       29.987     3462.640     1917.639      899.214        0.820        0.314       99.872       24.917        0.062      328.767       -4.924      862.100
12/19/2021  09:17:00       25.158        5.864      -22.679       37.516       46.251       18.163     1407.450     2139.183      329.885        0.253        0.194       25.833       13.112        0.258      328.846       -4.793      862.265
12/19/2021  09:18:00        7.520      -79.880      -40.172       35.326       41.019       20.234     1247.953     1682.532      409.422        0.569        0.167       80.233       18.914        0.056      329.014       -4.519      862.447
12/19/2021  09:19:00       80.573     -120.640      -42.569       45.965       54.585       21.779     2112.810     2979.472      474.338        1.421        0.278      145.072       20.702        0.020      328.733       -4.979      862.453
12/19/2021  09:20:00       65.792      -24.837      -20.433       44.943       64.142       34.219     2019.847     4114.247     1170.926        0.633        0.365       70.324       30.694        0.190      328.688       -5.052      862.358
12/19/2021  09:21:00       82.104       20.427      -22.041       38.840       39.681       29.902     1508.579     1574.567      894.143        0.581        0.199       84.607       25.237        0.089      328.668       -5.084      862.338
12/19/2021  09:22:00       74.094       49.739      -29.139       39.939       37.596       23.550     1595.134     1413.459      554.579        0.619        0.178       89.241        8.950        0.010      328.790       -4.885      862.366
12/19/2021  09:23:00      105.704       43.924      -19.995       55.942       56.694       28.039     3129.463     3214.228      786.161        1.031        0.356      114.467       16.973        0.022      328.776       -4.908      862.288
12/19/2021  09:24:00       85.491       63.648      -14.789       41.030       35.002       23.492     1683.498     1225.112      551.890        0.752        0.173      106.582       21.465        0.041      328.598       -5.199      862.258
12/19/2021  09:25:00       45.066       53.429      -13.971       36.211       32.221       22.564     1311.240     1038.168      509.124        0.397        0.143       69.897       18.859        0.073      328.643       -5.124      862.349
12/19/2021  09:26:00       55.460       21.694       -5.540       31.022       26.550       14.384      962.346      704.901      206.909        0.273        0.094       59.552       13.894        0.054      328.569       -5.245      862.413
12/19/2021  09:27:00       34.495      -13.237      -17.593       34.228       14.983       15.882     1171.590      224.486      252.253        0.166        0.082       36.947       10.186        0.076      328.753       -4.946      862.435
12/19/2021  09:28:00       -5.194      -30.754       -9.755       16.607       32.495       22.135      275.806     1055.934      489.959        0.144        0.091       31.190       16.619        0.284      328.933       -4.651      862.511
12/19/2021  09:29:00      -49.659       85.047        1.506       32.165       55.017       18.703     1034.563     3026.882      349.808        0.706        0.221       98.484       19.067        0.037      328.722       -4.997      862.522
12/19/2021  09:30:00       97.116       78.811       -7.881       75.316       33.370       22.525     5672.481     1113.534      507.379        1.150        0.365      125.071       27.921        0.050      328.686       -5.054      862.348
12/19/2021  09:31:00      132.039       55.298       -9.670       54.314       38.495       35.711     2949.972     1481.841     1275.240        1.315        0.285      143.151       22.738        0.025      328.748       -4.954      862.211
12/19/2021  09:32:00      121.709       21.598      -15.934       37.276       37.250       18.775     1389.470     1387.544      352.489        0.933        0.156      123.611       10.944        0.008      328.564       -5.252      862.333
12/19/2021  09:33:00        7.484      -38.582      -20.625       23.542       22.720       13.462      554.244      516.192      181.233        0.161        0.063       39.301        9.197        0.055      328.848       -4.790      862.550
12/19/2021  09:34:00       65.574       40.246      -13.859       54.018       56.548       23.141     2917.937     3197.661      535.525        0.638        0.333       76.940       33.838        0.193      328.679       -5.065      862.560
12/19/2021  09:35:00      155.681       96.903      -28.761       36.863       26.083       18.344     1358.885      680.298      336.505        1.841        0.119      183.376       10.618        0.003      328.607       -5.185      862.326
12/19/2021  09:36:00       85.701      104.515      -23.837       45.123       34.927       27.554     2036.066     1219.911      759.206        1.143        0.201      135.160       17.843        0.017      328.683       -5.060      862.151
12/19/2021  09:37:00       -5.333       75.707      -15.728       40.141       57.910       24.777     1611.275     3353.562      613.907        0.579        0.279       75.894       19.774        0.068      328.972       -4.587      862.268
12/19/2021  09:38:00       -3.200      -29.720      -14.583       34.723       40.651       21.398     1205.664     1652.542      457.883        0.221        0.166       29.892       13.557        0.206      329.008       -4.529      862.454
12/19/2021  09:39:00      -28.860       12.238       -3.549       29.914       35.809       24.512      894.837     1282.288      600.819        0.189        0.139       31.347       18.364        0.343      328.857       -4.775      862.491
12/19/2021  09:40:00      -18.325       52.322       -5.666       26.928       26.304       12.636      725.095      691.923      159.676        0.234        0.079       55.438       12.778        0.053      328.803       -4.865      862.417
12/19/2021  09:41:00      -66.893       40.417      -21.651       35.685       36.782       22.884     1273.423     1352.883      523.664        0.486        0.157       78.155       16.883        0.047      328.768       -4.922      862.400
12/19/2021  09:42:00       15.005      -26.711        7.069       31.793       27.219       23.831     1010.788      740.875      567.913        0.165        0.116       30.637       13.013        0.180      328.991       -4.558      862.463
12/19/2021  09:43:00       -7.565      -10.762       -4.983       23.333       22.974       20.623      544.425      527.789      425.311        0.085        0.075       13.155       11.999        0.832      329.113       -4.357      862.483
12/19/2021  09:44:00      -14.470       13.848       -0.432       42.170       37.988       19.694     1778.288     1443.075      387.855        0.200        0.180       20.029       16.618        0.688      329.120       -4.346      862.459
12/19/2021  09:45:00       -3.624       92.874      -10.290       36.082       36.028       21.240     1301.928     1298.026      451.128        0.590        0.153       92.945       19.960        0.046      328.982       -4.571      862.412
12/19/2021  09:46:00       27.188       56.007       -8.404       23.929       43.039       22.052      572.620     1852.363      486.278        0.343        0.146       62.258       12.344        0.039      329.062       -4.441      862.418
12/19/2021  09:47:00       42.286       29.319      -12.898       28.359       14.082       13.795      804.217      198.312      190.315        0.200        0.060       51.456        9.214        0.032      328.856       -4.776      862.402
12/19/2021  09:48:00      -44.927       10.481      -15.666       57.584       34.110       19.573     3315.884     1163.525      383.100        0.362        0.243       46.133       25.874        0.315      328.968       -4.594      862.468
12/19/2021  09:49:00        6.571      -21.462       -3.605       56.954       33.760       23.773     3243.729     1139.746      565.137        0.273        0.247       22.445       14.550        0.420      329.212       -4.196      862.625
12/19/2021  09:50:00      -93.221       37.937      -13.569       36.707       47.034       23.646     1347.422     2212.201      559.145        0.722        0.206      100.645       18.430        0.034      328.837       -4.809      862.622
12/19/2021  09:51:00      -16.425       80.391      -10.821       26.246       46.247       16.176      688.835     2138.795      261.672        0.497        0.154       82.051       13.680        0.028      328.818       -4.838      862.439
12/19/2021  09:52:00       39.592      120.250      -10.302       38.867       46.506       24.542     1510.644     2162.796      602.289        1.020        0.214      126.600       22.289        0.031      328.981       -4.574      862.290
12/19/2021  09:53:00       60.657      101.781      -19.167       26.185       43.155       22.667      685.648     1862.397      513.793        0.873        0.153      118.485       17.914        0.023      328.975       -4.585      862.242
12/19/2021  09:54:00       14.006      -16.265       -7.925       29.062       27.118       18.584      844.617      735.368      345.380        0.122        0.096       21.464        9.879        0.212      329.138       -4.316      862.337
12/19/2021  09:55:00       14.958      -29.499      -26.603       56.036       43.314       29.608     3140.048     1876.100      876.631        0.385        0.295       33.074       18.397        0.309      329.194       -4.226      862.565
12/19/2021  09:56:00      -72.690       24.396       -5.650       42.745       43.749       26.701     1827.100     1914.007      712.934        0.518        0.223       76.675       16.229        0.045      329.007       -4.532      862.596
12/19/2021  09:57:00       70.911       91.398      -15.571       53.662       36.417       24.123     2879.587     1326.198      581.931        0.921        0.239      115.681       17.471        0.023      329.159       -4.281      862.354
12/19/2021  09:58:00      129.501       60.045      -15.417       80.994       40.506       31.306     6560.044     1640.733      980.079        1.490        0.459      142.744       19.331        0.018      329.062       -4.442      862.230
12/19/2021  09:59:00       52.662       15.098       -5.377       45.159       21.047       18.095     2039.326      442.971      327.442        0.292        0.140       54.783       21.552        0.155      328.994       -4.553      862.361
12/19/2021  10:00:00       10.509       -6.636      -26.087       17.826       18.261       14.041      317.766      333.467      197.148        0.084        0.042       12.429        9.681        0.607      328.976       -4.582      862.526
12/19/2021  10:01:00       20.215       42.014      -23.489       33.310       39.829       21.826     1109.540     1586.367      476.374        0.295        0.159       46.625       13.976        0.090      329.001       -4.541      862.571
12/19/2021  10:02:00       73.826       95.441      -19.339       29.086       35.267       20.687      846.013     1243.776      427.970        0.873        0.126      120.662       11.178        0.009      328.914       -4.682      862.457
12/19/2021  10:03:00       64.548      126.709      -17.340       37.296       37.845       24.272     1391.000     1432.251      589.124        1.197        0.171      142.202       15.897        0.012      329.014       -4.521      862.307
12/19/2021  10:04:00       77.527       73.682      -19.878       40.512       33.212       20.602     1641.186     1103.051      424.442        0.750        0.158      106.956       23.038        0.046      329.047       -4.465      862.257
12/19/2021  10:05:00       21.457       47.770      -13.576       33.372       55.364       22.341     1113.680     3065.133      499.134        0.380        0.234       52.368       24.746        0.223      329.159       -4.281      862.363
12/19/2021  10:06:00       11.207       43.292       -8.040       20.992       15.252       18.268      440.651      232.627      333.729        0.154        0.050       44.719        9.322        0.043      329.131       -4.328      862.479
12/19/2021  10:07:00        2.671       43.138        0.882       15.020       29.819       19.307      225.588      889.167      372.749        0.168        0.074       43.221       13.951        0.104      329.219       -4.184      862.458
12/19/2021  10:08:00       38.663       96.114       -2.496       43.779       78.312       26.045     1916.628     6132.718      678.358        0.973        0.436      103.599       35.329        0.116      329.193       -4.227      862.333
12/19/2021  10:09:00       58.584      108.114      -14.866       33.274       43.177       27.031     1107.151     1864.255      730.677        0.952        0.185      122.966       22.073        0.032      329.165       -4.273      862.245
12/19/2021  10:10:00       19.667      100.045      -16.386       32.900       44.586       20.644     1082.403     1987.868      426.166        0.708        0.175      101.959        9.921        0.009      329.128       -4.334      862.280
12/19/2021  10:11:00       -2.586      -12.113      -10.480       36.044       34.284       22.103     1299.142     1175.424      488.526        0.161        0.148       12.386       20.738        2.803      329.527       -3.681      862.408
12/19/2021  10:12:00      -44.967      -22.356      -18.607       33.476       50.119       21.283     1120.654     2511.873      452.984        0.348        0.204       50.218       14.587        0.084      329.382       -3.919      862.448
12/19/2021  10:13:00       -4.551       52.057       -9.293       26.104       37.287       17.504      681.433     1390.317      306.406        0.260        0.119       52.255       10.534        0.041      329.187       -4.239      862.395
12/19/2021  10:14:00        2.360       59.188        7.882       37.721       35.039       23.993     1422.841     1227.750      575.671        0.340        0.161       59.235       12.112        0.042      329.222       -4.180      862.315
12/19/2021  10:15:00       -6.962       69.574       -3.283       30.700       35.527       17.318      942.476     1262.146      299.915        0.370        0.125       69.921        9.796        0.020      329.282       -4.082      862.235
12/19/2021  10:16:00       36.872      103.393      -11.753       33.930       36.551       22.610     1151.212     1335.989      511.229        0.759        0.150      109.771       22.580        0.042      329.287       -4.074      862.197
12/19/2021  10:17:00       32.042       33.408      -13.185       43.800       23.954       22.040     1918.422      573.787      485.770        0.265        0.149       46.290       13.170        0.081      329.249       -4.136      862.244
12/19/2021  10:18:00        4.281       -7.684      -10.421       27.024       38.148       18.076      730.276     1455.275      326.737        0.135        0.126        8.796       14.980        2.901      329.567       -3.616      862.445
12/19/2021  10:19:00        9.062      -19.690      -19.510       28.986       46.102       23.678      840.214     2125.405      560.669        0.219        0.176       21.675       25.163        1.348      329.605       -3.554      862.587
12/19/2021  10:20:00       48.251       30.862      -14.768       71.419       36.673       33.796     5100.649     1344.916     1142.142        0.554        0.379       57.277       36.295        0.402      329.457       -3.796      862.450
12/19/2021  10:21:00       91.846       75.092      -20.891       50.475       30.112       24.972     2547.696      906.740      623.605        0.929        0.204      118.636       19.511        0.027      329.249       -4.137      862.221
12/19/2021  10:22:00       79.888       36.594      -10.983       68.622       46.829       29.958     4709.040     2192.999      897.456        0.782        0.390       87.871       21.873        0.062      329.308       -4.040      862.160
12/19/2021  10:23:00       98.744       74.153      -23.777       53.963       14.419       15.349     2912.000      207.918      235.598        0.958        0.168      123.487       14.189        0.013      329.058       -4.447      862.255
12/19/2021  10:24:00       32.645       35.804      -11.581       20.179       20.388       11.523      407.198      415.684      132.771        0.172        0.048       48.452        4.170        0.007      329.130       -4.329      862.374
12/19/2021  10:25:00       64.288      -52.705       -6.452       33.870       37.194       30.350     1147.206     1383.398      921.098        0.520        0.173       83.131       24.486        0.087      329.331       -4.003      862.477
12/19/2021  10:26:00       67.765      -73.048      -25.115       21.624       38.960       24.358      467.597     1517.902      593.330        0.657        0.129       99.640       17.047        0.029      329.177       -4.253      862.481
12/19/2021  10:27:00       98.071       66.316      -14.024       36.365       46.352       18.462     1322.441     2148.521      340.852        0.901        0.191      118.388        7.326        0.004      329.250       -4.134      862.304
12/19/2021  10:28:00       55.981       57.376       -5.955       52.842       38.257       28.524     2792.231     1463.606      813.641        0.576        0.253       80.161       27.478        0.118      329.313       -4.030      862.134
12/19/2021  10:29:00       -9.079      115.017      -14.438       32.801       44.510       21.787     1075.885     1981.164      474.669        0.853        0.177      115.375        4.422        0.001      329.384       -3.915      862.149
12/19/2021  10:30:00       43.508      101.654      -18.292       40.548       43.075       24.069     1644.163     1855.414      579.318        0.832        0.204      110.573       26.844        0.059      329.517       -3.698      862.272
12/19/2021  10:31:00      -15.273       25.707       -2.270       45.776       29.936       18.600     2095.458      896.154      345.958        0.212        0.167       29.901       17.171        0.330      329.586       -3.584      862.423
12/19/2021  10:32:00      -14.347       33.744      -22.557       42.423       22.742       14.799     1799.741      517.195      219.025        0.219        0.127       36.667        9.150        0.062      329.203       -4.212      862.439
12/19/2021  10:33:00       89.690       72.322      -21.388       42.639       27.440       20.275     1818.061      752.945      411.085        0.836        0.149      115.216       11.714        0.010      329.178       -4.251      862.298
12/19/2021  10:34:00       84.980       92.634      -26.428       39.017       26.110       19.914     1522.294      681.742      396.587        0.955        0.130      125.708       16.405        0.017      329.210       -4.199      862.138
12/19/2021  10:35:00       94.524       52.747      -18.601       54.974       35.555       30.022     3022.097     1264.161      901.318        0.862        0.259      108.245       27.212        0.063      329.366       -3.944      862.075
12/19/2021  10:36:00      124.757       68.167      -14.268       42.366       37.429       23.475     1794.846     1400.901      551.056        1.208        0.187      142.165       23.297        0.027      329.160       -4.281      862.153
12/19/2021  10:37:00       92.594       78.487      -25.544       16.453       27.614       15.185      270.704      762.546      230.569        0.832        0.063      121.383        6.896        0.003      329.054       -4.455      862.210
12/19/2021  10:38:00       81.466       57.109      -18.089       30.934       23.319       17.939      956.906      543.771      321.809        0.602        0.091       99.490       10.133        0.010      329.074       -4.421      862.174
12/19/2021  10:39:00        0.873       50.693      -14.545       36.650       29.623       13.511     1343.214      877.494      182.560        0.259        0.120       50.700        6.367        0.016      329.227       -4.171      862.195
12/19/2021  10:40:00       14.069        5.156        0.427       17.735       22.249       22.249      314.526      495.026      495.024        0.076        0.065       14.984       15.795        1.111      329.552       -3.641      862.318
12/19/2021  10:41:00       -4.852        0.288      -18.674       38.943       23.566       13.160     1516.582      555.336      173.194        0.131        0.112        4.860       11.531        5.629      329.483       -3.754      862.333
12/19/2021  10:42:00      104.401       65.821      -18.279       66.227       55.949       33.671     4386.031     3130.323     1133.718        1.211        0.433      123.418       33.922        0.076      329.582       -3.591      862.139
12/19/2021  10:43:00      114.751       57.527      -30.167       48.835       48.229       26.143     2384.845     2326.021      683.474        1.139        0.270      128.363       15.933        0.015      329.518       -3.695      861.970
12/19/2021  10:44:00       16.675       36.892      -13.832       33.394       31.471       18.039     1115.152      990.410      325.405        0.213        0.122       40.485       11.439        0.080      329.544       -3.655      862.075
12/19/2021  10:45:00       -0.465      -75.360      -16.865       43.630       60.722       22.786     1903.558     3687.123      519.200        0.604        0.305       75.362        9.745        0.017      329.603       -3.557      862.227
12/19/2021  10:46:00       28.140      -16.801       -8.223       30.530       40.285       22.154      932.084     1622.885      490.803        0.209        0.152       32.774       16.767        0.262      329.351       -3.968      862.239
12/19/2021  10:47:00      104.967       73.204      -16.044       48.350       24.406       21.818     2337.715      595.656      476.013        1.002        0.170      127.972       22.963        0.032      329.324       -4.013      862.153
12/19/2021  10:48:00      119.921       58.750      -20.786       45.757       34.176       25.079     2093.693     1167.968      628.943        1.108        0.195      133.539       18.439        0.019      329.447       -3.811      862.036
12/19/2021  10:49:00       83.266       48.841      -15.303       30.610       22.765       16.795      936.994      518.225      282.078        0.564        0.087       96.534       17.410        0.033      329.377       -3.926      862.014
12/19/2021  10:50:00       17.410       30.272      -14.553       24.557       20.173       17.593      603.051      406.961      309.511        0.138        0.066       34.922        9.375        0.072      329.499       -3.728      862.047
12/19/2021  10:51:00        6.466       24.589       -1.588       21.040       21.095       14.187      442.691      444.986      201.264        0.087        0.054       25.425        8.576        0.114      329.821       -3.201      862.025
12/19/2021  10:52:00        5.274       29.300        1.759       26.004       25.837       20.373      676.209      667.563      415.072        0.132        0.088       29.770       12.711        0.182      329.817       -3.207      861.989
12/19/2021  10:53:00        1.173       83.961       -1.995       26.353       28.903       25.018      694.501      835.384      625.911        0.460        0.108       83.969       16.709        0.040      329.681       -3.429      861.989
12/19/2021  10:54:00        5.899       18.241       -0.168       13.747       37.153       18.097      188.976     1380.349      327.508        0.113        0.095       19.171       14.110        0.542      329.861       -3.134      862.005
12/19/2021  10:55:00       -1.594       19.693       -8.931       17.836       20.103       10.777      318.122      404.115      116.144        0.065        0.042       19.758       12.434        0.396      329.896       -3.078      861.982
12/19/2021  10:56:00       76.248       -0.590      -15.279       44.536       47.644       26.290     1983.431     2269.959      691.187        0.550        0.247       76.250       21.090        0.077      329.959       -2.974      861.925
12/19/2021  10:57:00      105.051        7.396       -8.542       43.678       27.308       28.909     1907.762      745.718      835.758        0.733        0.174      105.311       24.427        0.054      329.609       -3.546      861.931
12/19/2021  10:58:00       92.927       15.901      -14.138       29.766       30.205       16.158      886.004      912.331      261.090        0.557        0.103       94.278        9.652        0.010      329.640       -3.496      861.947
12/19/2021  10:59:00       58.093       -4.085       -8.314       75.611       66.024       36.553     5717.040     4359.137     1336.149        0.743        0.571       58.237       29.627        0.259      330.030       -2.858      861.862
12/19/2021  11:00:00      132.280        9.709      -31.241       70.437       65.906       39.889     4961.430     4343.609     1591.168        1.473        0.545      132.636       22.564        0.029      330.085       -2.768      861.750
12/19/2021  11:01:00      119.775       47.870      -18.185       41.069       41.806       22.080     1686.654     1747.704      487.540        1.044        0.196      128.987        9.782        0.006      329.706       -3.389      861.786
12/19/2021  11:02:00      118.124       69.483      -20.349       49.213       46.803       27.926     2421.951     2190.485      779.881        1.229        0.270      137.044       18.220        0.018      329.695       -3.406      861.843
12/19/2021  11:03:00      118.013       65.559      -21.738       32.409       30.947       21.307     1050.314      957.719      454.007        1.058        0.123      135.001       16.183        0.014      329.470       -3.774      861.849
12/19/2021  11:04:00       73.023      -23.514      -30.296       58.116       53.983       44.934     3377.479     2914.114     2019.107        0.756        0.416       76.716       23.381        0.093      330.134       -2.686      861.845
12/19/2021  11:05:00       44.472      -45.974      -44.818       44.634       70.969       33.885     1992.156     5036.538     1148.172        0.714        0.409       63.964       21.913        0.117      330.320       -2.383      861.836
12/19/2021  11:06:00      102.469       17.288      -21.160       45.614       43.059       23.999     2080.607     1854.092      575.933        0.788        0.226      103.917       17.910        0.030      329.911       -3.052      861.757
12/19/2021  11:07:00       17.373       43.014       -8.277       40.088       24.986       20.090     1607.030      624.299      403.620        0.243        0.132       46.390       17.602        0.144      329.789       -3.253      861.752
12/19/2021  11:08:00      -17.921       43.211      -17.032       33.631       29.579       15.473     1131.055      874.906      239.405        0.236        0.112       46.780       10.987        0.055      329.826       -3.192      861.825
12/19/2021  11:09:00       50.417       29.150       -7.053       44.569       25.826       24.530     1986.392      666.997      601.703        0.335        0.163       58.237       25.000        0.184      329.831       -3.184      861.795
12/19/2021  11:10:00       65.973       69.210      -21.677       37.921       20.535       20.663     1438.007      421.685      426.957        0.595        0.114       95.617       13.921        0.021      329.753       -3.312      861.753
12/19/2021  11:11:00       20.817       68.427       -5.022       37.402       25.178       19.417     1398.918      633.917      377.006        0.377        0.120       71.523       17.842        0.062      329.895       -3.078      861.729
12/19/2021  11:12:00       43.330       54.691       -4.029       30.936       36.559       24.617      957.066     1336.590      605.992        0.389        0.145       69.775        9.775        0.020      329.985       -2.932      861.674
12/19/2021  11:13:00       35.134       91.115      -12.469       31.005       22.220       19.857      961.315      493.742      394.300        0.577        0.092       97.654        7.990        0.007      330.004       -2.901      861.651
12/19/2021  11:14:00       90.031       26.150      -22.113       38.433       38.593       22.016     1477.129     1489.382      484.701        0.636        0.173       93.752       14.301        0.023      330.095       -2.751      861.649
12/19/2021  11:15:00      123.020       33.309       -9.190       37.123       46.683       25.113     1378.132     2179.256      630.655        1.026        0.209      127.450       16.303        0.016      329.824       -3.196      861.639
12/19/2021  11:16:00       71.805       72.197       -1.961       36.055       23.581       18.923     1299.968      556.057      358.099        0.629        0.111      101.825       12.883        0.016      329.821       -3.200      861.643
12/19/2021  11:17:00       34.209       37.627      -13.775       26.498       28.951       16.941      702.166      838.183      286.990        0.230        0.091       50.853       10.744        0.045      329.928       -3.025      861.576
12/19/2021  11:18:00       96.617       34.384      -23.504       53.124       36.221       22.728     2822.201     1311.970      516.554        0.786        0.233      102.553       18.935        0.034      330.089       -2.761      861.549
12/19/2021  11:19:00       46.494       29.314      -24.025       60.811       42.631       17.901     3697.977     1817.389      320.456        0.472        0.292       54.964       14.155        0.066      329.970       -2.955      861.659
12/19/2021  11:20:00      -12.161      -69.669      -22.856       39.536       41.039       27.727     1563.070     1684.212      768.779        0.477        0.201       70.723       24.794        0.123      330.286       -2.438      861.758
12/19/2021  11:21:00       58.264       57.297      -11.459       38.818       27.878       17.129     1506.832      777.181      293.419        0.469        0.129       81.717       10.025        0.015      329.955       -2.982      861.739
12/19/2021  11:22:00      131.057       80.830      -17.378       60.667       36.133       26.813     3680.457     1305.603      718.914        1.486        0.285      153.979       25.126        0.027      330.230       -2.531      861.621
12/19/2021  11:23:00       82.168      114.398      -13.879       50.389       60.312       31.334     2539.005     3637.579      981.834        1.359        0.358      140.850       28.559        0.041      330.108       -2.731      861.482
12/19/2021  11:24:00       68.697       59.979      -23.075       35.647       64.167       25.732     1270.694     4117.346      662.145        0.745        0.303       91.197       14.581        0.026      330.259       -2.483      861.479
12/19/2021  11:25:00       31.758       23.424       -3.984       24.457       24.056       22.816      598.124      578.697      520.588        0.163        0.085       39.462        6.790        0.030      330.357       -2.321      861.596
12/19/2021  11:26:00       85.247       74.749       -9.913       44.871       36.583       34.888     2013.408     1338.308     1217.157        0.876        0.228      113.378       20.164        0.032      330.356       -2.324      861.600
12/19/2021  11:27:00       55.438       35.961      -26.100       37.152       44.165       20.422     1380.291     1950.532      417.073        0.440        0.187       66.080       15.893        0.058      330.235       -2.522      861.542
12/19/2021  11:28:00       20.649       38.739       -7.003       37.620       22.036       19.729     1415.252      485.588      389.238        0.213        0.115       43.898       19.306        0.193      330.495       -2.095      861.479
12/19/2021  11:29:00       84.483       29.280      -16.771       37.108       39.994       24.773     1376.969     1599.537      613.699        0.593        0.180       89.413       19.488        0.048      330.361       -2.316      861.483
12/19/2021  11:30:00       78.530       28.133      -14.707       38.490       31.488       23.987     1481.503      991.491      575.374        0.511        0.152       83.418       22.421        0.072      330.290       -2.432      861.521
12/19/2021  11:31:00       80.060       14.511      -28.052       16.611       25.321       18.152      275.939      641.136      329.496        0.433        0.062       81.365        9.282        0.013      330.093       -2.755      861.594
12/19/2021  11:32:00       93.100       42.892      -26.704       29.413       27.052       16.369      865.114      731.810      267.943        0.654        0.093      102.505       10.832        0.011      330.151       -2.661      861.590
12/19/2021  11:33:00      145.651       68.381      -26.478       38.310       68.940       30.741     1467.651     4752.678      945.019        1.688        0.358      160.904       15.015        0.009      330.329       -2.370      861.450
12/19/2021  11:34:00      192.265       39.868      -22.552       46.908       32.343       27.502     2200.323     1046.067      756.371        2.153        0.200      196.355       14.066        0.005      330.327       -2.372      861.339
12/19/2021  11:35:00      190.105       63.105      -23.678       43.364       34.234       23.895     1880.395     1171.939      570.965        2.215        0.181      200.305       12.052        0.004      330.368       -2.307      861.370
12/19/2021  11:36:00      104.498       11.524      -33.401       61.946       61.021       28.278     3837.286     3723.601      799.666        1.026        0.418      105.132       20.547        0.038      330.521       -2.054      861.425
12/19/2021  11:37:00       15.411      -22.886      -19.298       29.840       31.453       24.288      890.454      989.306      589.897        0.180        0.123       27.591       17.065        0.383      330.698       -1.762      861.479
12/19/2021  11:38:00       64.117     -111.066      -36.680       35.007       33.666       26.292     1225.491     1133.396      691.267        1.042        0.153      128.244       18.795        0.021      330.642       -1.855      861.544
12/19/2021  11:39:00       30.796      -48.033      -25.112       42.067       55.187       31.904     1769.669     3045.630     1017.846        0.486        0.292       57.057       22.763        0.159      331.159       -1.004      861.504
12/19/2021  11:40:00       91.674      -17.995      -22.653       61.968       48.286       44.470     3840.003     2331.543     1977.618        0.869        0.407       93.423       32.132        0.118      331.248       -0.860      861.379
12/19/2021  11:41:00      139.507       62.645      -38.765       77.143       66.262       37.120     5951.103     4390.621     1377.906        1.830        0.586      152.927       16.993        0.012      330.675       -1.803      861.289
12/19/2021  11:42:00       95.642       21.790      -13.587       57.181       38.554       28.484     3269.714     1486.388      811.352        0.769        0.278       98.093       25.154        0.066      330.727       -1.716      861.316
12/19/2021  11:43:00       85.005       36.036      -19.955       36.985       37.448       20.925     1367.903     1402.354      437.864        0.606        0.160       92.328       12.648        0.019      330.701       -1.758      861.376
12/19/2021  11:44:00       98.000       14.326      -22.949       25.176       35.157       16.473      633.833     1236.041      271.375        0.624        0.107       99.042       11.552        0.014      330.400       -2.250      861.444
12/19/2021  11:45:00       45.640       26.476      -23.329       50.458       44.988       22.346     2546.001     2023.938      499.322        0.420        0.253       52.763       26.921        0.260      330.520       -2.055      861.460
12/19/2021  11:46:00      158.546       64.977      -32.418       44.523       30.535       22.429     1982.266      932.382      503.075        1.691        0.171      171.344       18.729        0.012      330.523       -2.050      861.366
12/19/2021  11:47:00      101.185       81.703      -15.399       54.636       36.605       31.342     2985.069     1339.899      982.345        1.123        0.265      130.053       25.472        0.038      330.689       -1.777      861.269
12/19/2021  11:48:00       85.589       46.224      -24.597       32.883       26.126       27.070     1081.312      682.578      732.776        0.628        0.125       97.274       14.173        0.021      330.785       -1.619      861.277
12/19/2021  11:49:00      100.221       30.338      -36.825       59.210       62.781       29.182     3505.778     3941.426      851.612        1.031        0.415      104.712       19.609        0.035      330.879       -1.465      861.270
12/19/2021  11:50:00      151.114       39.493      -23.960       64.792       41.558       22.275     4197.996     1727.055      496.183        1.569        0.321      156.190       19.815        0.016      330.593       -1.935      861.205
12/19/2021  11:51:00       48.809       12.111      -28.201       56.678       62.531       32.951     3212.381     3910.097     1085.795        0.576        0.410       50.289       22.799        0.206      331.254       -0.849      861.220
12/19/2021  11:52:00       20.208      -18.619      -16.120       19.398       35.747       19.470      376.283     1277.826      379.093        0.152        0.102       27.478        9.235        0.113      331.113       -1.080      861.325
12/19/2021  11:53:00      -34.116       35.746       -4.030       38.213       30.900       22.119     1460.215      954.797      489.243        0.268        0.145       49.413       13.714        0.077      331.174       -0.980      861.321
12/19/2021  11:54:00       38.757       59.458      -13.116       62.039       36.067       27.054     3848.857     1300.858      731.895        0.554        0.294       70.974       25.362        0.128      331.038       -1.205      861.213
12/19/2021  11:55:00       84.354       18.749      -31.464       52.926       40.830       22.940     2801.137     1667.123      526.254        0.672        0.250       86.413       20.627        0.057      330.978       -1.303      861.153
12/19/2021  11:56:00      100.650       19.487      -31.136       53.528       70.960       37.832     2865.236     5035.365     1431.241        1.040        0.467      102.519       36.680        0.128      331.219       -0.906      861.161
12/19/2021  11:57:00      102.261      -29.367      -31.404       77.352       62.862       50.176     5983.361     3951.668     2517.622        1.238        0.623      106.394       40.088        0.142      331.226       -0.896      861.169
12/19/2021  11:58:00       85.010       -5.419      -13.154       82.474       55.980       45.304     6801.948     3133.750     2052.422        0.971        0.599       85.182       28.095        0.109      331.289       -0.791      861.174
12/19/2021  11:59:00      121.642       16.584      -28.206      105.671       60.571       32.713    11166.302     3668.864     1070.124        1.588        0.795      122.767       40.503        0.109      331.177       -0.978      861.171
12/19/2021  12:00:00       58.788       33.163      -11.164       50.385       53.362       31.359     2538.609     2847.466      983.357        0.552        0.318       67.497       18.288        0.073      331.240       -0.872      861.162
12/19/2021  12:01:00       61.570       25.707      -26.358       22.971       14.168       22.395      527.670      200.734      501.553        0.319        0.061       66.721        8.956        0.018      330.880       -1.463      861.152
12/19/2021  12:02:00       78.786       18.263       -8.513       63.475       37.702       30.831     4029.021     1421.427      950.559        0.651        0.320       80.875       29.656        0.134      331.220       -0.906      861.095
12/19/2021  12:03:00      101.241       58.034      -20.567       63.481       55.926       40.974     4029.821     3127.723     1678.908        1.144        0.442      116.694       22.728        0.038      331.253       -0.851      861.056
12/19/2021  12:04:00      138.763       69.331      -25.748       30.919       38.402       22.190      955.981     1474.752      492.386        1.382        0.146      155.119       11.515        0.006      331.017       -1.240      861.078
12/19/2021  12:05:00       71.180       24.923      -17.154       60.813       55.363       30.341     3698.184     3065.036      920.583        0.683        0.384       75.417       26.291        0.122      331.357       -0.679      861.075
12/19/2021  12:06:00      133.243       59.896      -17.959       45.557       48.267       27.265     2075.481     2329.748      743.390        1.341        0.257      146.087       22.183        0.023      331.258       -0.843      861.000
12/19/2021  12:07:00       25.478        8.160        9.041       42.333       42.810       36.597     1792.046     1832.662     1339.364        0.288        0.248       26.753       26.006        0.945      332.024        0.418      860.949
12/19/2021  12:08:00       87.071       25.257      -12.152       38.454       45.990       28.885     1478.685     2115.048      834.326        0.640        0.221       90.660       17.951        0.039      331.349       -0.693      860.955
12/19/2021  12:09:00       87.702       40.562      -15.863       51.649       34.490       20.192     2667.649     1189.570      407.721        0.693        0.213       96.628       13.450        0.019      331.105       -1.095      861.000
12/19/2021  12:10:00       29.630       25.665      -14.804       34.779       36.830       24.400     1209.581     1356.448      595.342        0.246        0.158       39.200       11.722        0.089      331.639       -0.216      861.030
12/19/2021  12:11:00      113.984       45.329      -36.031       49.353       74.067       27.992     2435.695     5485.944      783.526        1.252        0.435      122.667       28.141        0.053      331.231       -0.888      860.988
12/19/2021  12:12:00       44.679      -23.210       -3.277       48.473       42.928       32.775     2349.646     1842.798     1074.228        0.391        0.263       50.348       25.126        0.249      331.563       -0.341      860.946
12/19/2021  12:13:00      128.419       34.253       -8.166       65.567       64.113       27.833     4299.069     4110.414      774.673        1.346        0.459      132.909       32.308        0.059      331.299       -0.775      860.890
12/19/2021  12:14:00      184.039       42.994      -24.891       71.631       56.350       38.137     5131.001     3175.323     1454.446        2.305        0.488      188.994       33.389        0.031      331.397       -0.615      860.728
12/19/2021  12:15:00      130.346        9.726      -30.182       95.572       92.003       41.056     9134.026     8464.600     1685.633        1.864        0.964      130.708       42.883        0.108      331.737       -0.056      860.720
12/19/2021  12:16:00       40.576     -113.079      -28.922       44.534       51.711       33.832     1983.238     2673.998     1144.601        1.053        0.290      120.138       21.424        0.032      331.743       -0.043      860.904
12/19/2021  12:17:00        9.455      -49.210      -17.889       24.633       22.174       19.110      606.787      491.708      365.206        0.215        0.073       50.110       10.930        0.048      331.675       -0.157      861.033
12/19/2021  12:18:00       14.835      -26.131      -17.762       43.435       77.566       26.443     1886.556     6016.443      699.255        0.491        0.430       30.049       29.193        0.944      331.945        0.289      860.973
12/19/2021  12:19:00      -14.457      -49.700       -6.097       36.478       58.136       28.862     1330.610     3379.838      832.994        0.413        0.277       51.760       17.854        0.119      332.003        0.383      860.817
12/19/2021  12:20:00      -30.049      -49.709      -23.504       47.267       45.928       28.189     2234.130     2109.383      794.599        0.453        0.257       58.085       24.802        0.182      331.937        0.274      860.818
12/19/2021  12:21:00       46.733        6.439       -3.599       43.139       45.907       37.180     1861.013     2107.474     1382.330        0.379        0.268       47.174       10.186        0.047      331.821        0.083      860.914
12/19/2021  12:22:00       42.947      -22.119      -22.055       42.770       57.397       33.093     1829.240     3294.461     1095.173        0.452        0.311       48.308       10.189        0.044      331.727       -0.070      860.925
12/19/2021  12:23:00       26.410      -30.848       -8.923       35.134       80.811       35.539     1234.368     6530.422     1263.033        0.538        0.451       40.609       25.646        0.399      331.804        0.056      860.847
12/19/2021  12:24:00       92.050      -62.160      -28.775       69.724       64.120       37.868     4861.503     4111.378     1433.979        1.178        0.520      111.072       29.536        0.071      331.973        0.334      860.755
12/19/2021  12:25:00       43.596       -6.028      -29.006       55.016       70.275       36.252     3026.718     4938.541     1314.191        0.603        0.464       44.011       28.362        0.415      332.165        0.650      860.754
12/19/2021  12:26:00       45.231      -58.319      -27.139       52.979       68.995       44.809     2806.810     4760.325     2007.886        0.788        0.479       73.803       28.271        0.147      332.155        0.634      860.753
12/19/2021  12:27:00       41.530       17.957      -14.240       44.568       52.143       28.110     1986.347     2718.881      790.198        0.387        0.275       45.246        5.293        0.014      331.819        0.080      860.755
12/19/2021  12:28:00       52.676      -97.356      -35.063       34.055       23.672       18.469     1159.757      560.353      341.119        0.777        0.103      110.693        9.346        0.007      331.482       -0.475      860.714
12/19/2021  12:29:00       43.287     -130.083      -32.485       32.470       32.529       20.277     1054.332     1058.140      411.151        1.119        0.126      137.096       10.626        0.006      331.713       -0.093      860.740
12/19/2021  12:30:00       10.089     -112.135      -19.947       20.804       31.300       20.212      432.799      979.679      408.533        0.745        0.091      112.588       17.679        0.025      331.413       -0.588      860.784
12/19/2021  12:31:00       24.678      -54.580      -21.100       41.670       58.413       30.493     1736.365     3412.098      929.824        0.505        0.304       59.900       24.630        0.169      331.976        0.340      860.746
12/19/2021  12:32:00       68.831       32.405      -20.672       41.274       54.060       37.509     1703.563     2922.443     1406.962        0.612        0.302       76.078       27.323        0.129      331.810        0.067      860.662
12/19/2021  12:33:00       89.315       -1.583      -21.174       39.979       32.079       31.257     1598.284     1029.047      977.019        0.602        0.180       89.329       25.489        0.081      331.801        0.049      860.643
12/19/2021  12:34:00       53.848       -2.364      -27.997       59.885       42.693       31.949     3586.268     1822.697     1020.759        0.506        0.321       53.900       27.402        0.258      332.268        0.820      860.638
12/19/2021  12:35:00       79.816      -38.726      -26.126       47.216       47.193       26.952     2229.379     2227.151      726.395        0.687        0.259       88.715       20.482        0.053      332.058        0.473      860.621
12/19/2021  12:36:00       11.354      -40.862       -6.957       52.493       51.380       34.526     2755.474     2639.949     1192.049        0.422        0.329       42.410       25.702        0.367      332.563        1.307      860.665
12/19/2021  12:37:00       37.671      -76.921      -34.386       63.662       49.213       41.658     4052.836     2421.915     1735.351        0.836        0.411       85.650       30.013        0.123      332.189        0.689      860.617
12/19/2021  12:38:00       71.843      -30.634      -14.393       72.778       60.862       34.408     5296.657     3704.129     1183.912        0.824        0.509       78.102       29.222        0.140      332.108        0.557      860.537
12/19/2021  12:39:00       83.235        6.700      -33.381       64.122       57.888       31.698     4111.586     3351.002     1004.762        0.828        0.423       83.504       26.367        0.100      332.103        0.549      860.524
12/19/2021  12:40:00        7.127       -3.945      -29.443       62.547       35.647       35.713     3912.119     1270.717     1275.444        0.369        0.323        8.146       32.837       16.249      332.543        1.275      860.575
12/19/2021  12:41:00       54.336      -26.312      -22.773       43.073       74.154       31.430     1855.254     5498.812      987.861        0.625        0.417       60.372       20.200        0.112      332.058        0.474      860.592
12/19/2021  12:42:00       18.582       32.867      -10.355       48.097       30.945       18.340     2313.334      957.591      336.366        0.257        0.180       37.756       16.284        0.186      331.794        0.038      860.539
12/19/2021  12:43:00        8.964       52.658      -10.274       22.825       29.524       18.787      521.000      871.656      352.955        0.235        0.087       53.416        8.806        0.027      332.027        0.422      860.478
12/19/2021  12:44:00      -35.983       14.396      -19.408       29.472       33.524       26.817      868.592     1123.880      719.162        0.229        0.136       38.756       15.020        0.150      332.294        0.864      860.494
12/19/2021  12:45:00       37.349      -19.418      -20.481       50.107       35.193       32.228     2510.681     1238.580     1038.661        0.349        0.239       42.096       23.651        0.316      332.119        0.575      860.551
12/19/2021  12:46:00       10.390      -36.773      -13.785       33.255       25.813       23.474     1105.907      666.310      551.020        0.199        0.116       38.213       10.294        0.073      332.258        0.804      860.613
12/19/2021  12:47:00       13.421       23.379       -3.308       33.686       32.339       15.519     1134.768     1045.811      240.843        0.158        0.121       26.957       18.618        0.477      332.394        1.029      860.610
12/19/2021  12:48:00       83.718       14.245      -16.252       58.901       35.747       25.384     3469.347     1277.846      644.337        0.643        0.270       84.921       13.115        0.024      332.251        0.793      860.531
12/19/2021  12:49:00      124.576       23.744      -32.743       60.849       74.081       35.081     3702.550     5488.005     1230.666        1.379        0.521      126.819       26.900        0.045      332.356        0.965      860.451
12/19/2021  12:50:00       93.716       -7.286      -29.040       82.095       57.740       54.453     6739.671     3333.952     2965.169        1.136        0.652       93.999       42.949        0.209      332.535        1.260      860.396
12/19/2021  12:51:00       63.496        9.289      -10.764       49.526       43.914       34.334     2452.842     1928.483     1178.796        0.490        0.278       64.172       28.240        0.194      332.548        1.282      860.386
12/19/2021  12:52:00       14.333       -0.631       -0.246       51.511       91.960       33.075     2653.389     8456.733     1093.943        0.620        0.610       14.347       15.648        1.190      332.580        1.335      860.355
12/19/2021  12:53:00       25.850      -68.570      -10.849       37.959       50.974       30.555     1440.857     2598.380      933.608        0.523        0.249       73.281       26.425        0.130      332.611        1.387      860.304
12/19/2021  12:54:00       80.400       15.183       -3.178       49.586       70.989       25.417     2458.747     5039.473      646.021        0.742        0.407       81.821       28.100        0.118      332.451        1.123      860.290
12/19/2021  12:55:00      112.207       35.956      -24.910       39.987       26.080       18.347     1598.950      680.191      336.600        0.856        0.131      117.827       17.356        0.022      332.032        0.431      860.360
12/19/2021  12:56:00       24.857       30.616       -1.247       25.682       26.530       22.625      659.550      703.858      511.879        0.172        0.094       39.436       21.893        0.308      332.338        0.935      860.470
12/19/2021  12:57:00       14.214       16.368        0.665       31.543       34.523       26.348      994.992     1191.837      694.241        0.168        0.144       21.678       17.136        0.625      332.568        1.315      860.480
12/19/2021  12:58:00       11.697      -25.354      -21.881       46.840       35.012       32.150     2193.960     1225.835     1033.599        0.286        0.223       27.922       16.626        0.355      332.679        1.500      860.439
12/19/2021  12:59:00      140.914       32.605      -19.931       72.725       47.231       16.973     5288.882     2230.802      288.082        1.456        0.390      144.637       22.511        0.024      332.253        0.795      860.353
12/19/2021  13:00:00      190.985       53.335      -27.398       44.450       39.472       26.562     1975.809     1558.034      705.519        2.215        0.212      198.292       15.111        0.006      332.241        0.773      860.249
12/19/2021  13:01:00      134.586       70.642       -7.911       63.642       36.161       28.183     4050.323     1307.619      794.285        1.466        0.308      151.999       29.925        0.039      332.216        0.731      860.252
12/19/2021  13:02:00      115.210       57.026      -15.194       26.024       19.481       15.818      677.225      379.506      250.194        0.903        0.065      128.551        9.544        0.006      332.239        0.771      860.321
12/19/2021  13:03:00       28.372       44.503      -17.565       33.617       35.553       20.052     1130.113     1264.051      402.097        0.294        0.140       52.778       13.795        0.068      332.410        1.055      860.425
12/19/2021  13:04:00       19.906      -18.132       12.354       40.099       68.636       35.281     1607.938     4710.903     1244.728        0.422        0.378       26.926       29.366        1.189      332.876        1.826      860.427
12/19/2021  13:05:00       27.669        5.273       -4.058       39.764       42.061       33.377     1581.174     1769.096     1114.044        0.264        0.223       28.167       23.142        0.675      332.863        1.804      860.355
12/19/2021  13:06:00       55.067       43.607      -28.453       51.494       51.134       36.472     2651.665     2614.721     1330.181        0.617        0.330       70.242       15.619        0.049      332.726        1.575      860.325
12/19/2021  13:07:00       85.865       -1.345      -16.107       41.561       44.722       26.133     1727.358     2000.018      682.918        0.602        0.221       85.876       18.198        0.045      332.416        1.063      860.269
12/19/2021  13:08:00       45.442       15.031      -13.971       27.701       37.927       23.242      767.335     1438.451      540.173        0.262        0.137       47.863       14.665        0.094      332.733        1.589      860.226
12/19/2021  13:09:00      -19.517        8.607      -12.541       18.831       19.944       19.934      354.607      397.775      397.348        0.088        0.057       21.331        9.774        0.210      332.898        1.862      860.298
12/19/2021  13:10:00       41.483       23.010      -14.156       43.059       42.949       22.249     1854.074     1844.577      495.005        0.332        0.210       47.437       17.116        0.130      332.757        1.628      860.279
12/19/2021  13:11:00       99.604        4.544      -34.036       74.437       98.832       48.969     5540.917     9767.758     2397.965        1.440        0.885       99.708       35.550        0.127      333.027        2.073      860.166
12/19/2021  13:12:00      157.104       24.325      -24.632       55.500       67.466       44.300     3080.196     4551.628     1962.510        1.774        0.480      158.976       27.911        0.031      332.439        1.102      860.128
12/19/2021  13:13:00       64.031       20.921      -24.184       61.997       40.107       23.066     3843.687     1608.571      532.029        0.555        0.299       67.362       22.030        0.107      332.582        1.337      860.170
12/19/2021  13:14:00      -17.633       64.355      -15.094       39.074       32.771       16.546     1526.744     1073.932      273.757        0.378        0.144       66.727       13.545        0.041      332.776        1.659      860.237
12/19/2021  13:15:00      -31.900       53.165      -26.227       54.626       28.621       22.114     2983.974      819.172      489.037        0.441        0.215       62.001       16.098        0.067      332.514        1.227      860.239
12/19/2021  13:16:00      115.777       50.339      -27.702       48.607       33.030       23.462     2362.612     1090.960      550.451        1.035        0.200      126.247       20.428        0.026      332.479        1.167      860.169
12/19/2021  13:17:00      116.512       -2.069       -8.695       78.337       61.269       38.219     6136.755     3753.890     1460.730        1.250        0.568      116.530       32.242        0.077      332.822        1.734      860.043
12/19/2021  13:18:00       47.770      -23.691      -22.122       49.826       61.040       39.608     2482.596     3725.863     1568.824        0.555        0.389       53.322       22.773        0.182      333.171        2.312      860.048
12/19/2021  13:19:00       89.901      -24.290      -25.336       98.515       94.241       51.789     9705.284     8881.368     2682.118        1.529        1.063       93.125       38.361        0.170      333.106        2.203      860.107
12/19/2021  13:20:00       51.557        8.548       -1.326       76.003       72.675       38.902     5776.431     5281.652     1513.350        0.765        0.629       52.261       28.675        0.301      333.085        2.169      860.137
12/19/2021  13:21:00       38.125        1.494      -19.806       73.875       34.067       22.815     5457.443     1160.584      520.526        0.449        0.357       38.154       22.672        0.353      333.066        2.138      860.193
12/19/2021  13:22:00        6.094       29.972        6.692       22.750       28.431       20.223      517.575      808.315      408.974        0.136        0.087       30.585        7.446        0.059      333.397        2.687      860.192
12/19/2021  13:23:00       24.200       39.268      -10.007       19.465       17.441       19.142      378.879      304.184      366.419        0.164        0.052       46.126       12.682        0.076      333.092        2.181      860.169
12/19/2021  13:24:00       10.554       23.410       -6.246       30.777       20.013       20.294      947.225      400.504      411.862        0.123        0.088       25.678       11.665        0.206      333.175        2.318      860.181
12/19/2021  13:25:00       -1.189       30.345        5.087       28.263       19.334       19.433      798.779      373.819      377.652        0.125        0.078       30.368       14.300        0.222      333.316        2.553      860.161
12/19/2021  13:26:00       42.746       65.773      -11.745       38.484       22.258       21.572     1480.980      495.416      465.364        0.437        0.122       78.443       20.576        0.069      332.980        1.996      860.119
12/19/2021  13:27:00       94.476       48.977      -22.241       53.301       43.169       26.973     2841.026     1863.587      727.549        0.862        0.272      106.417       15.289        0.021      332.915        1.889      860.092
12/19/2021  13:28:00       83.281       35.154      -20.006       38.071       26.147       22.331     1449.413      683.643      498.656        0.560        0.132       90.396       16.118        0.032      332.750        1.616      860.121
12/19/2021  13:29:00       -8.239      -43.160      -22.785       25.372       30.373       12.917      643.727      922.532      166.840        0.209        0.087       43.939       11.115        0.064      332.819        1.730      860.192
12/19/2021  13:30:00        6.482      -18.874      -19.619       26.566       37.573       21.508      705.771     1411.702      462.606        0.168        0.129       19.956       12.854        0.415      333.234        2.416      860.186
12/19/2021  13:31:00      101.339       36.628      -11.197       37.897       50.348       27.065     1436.183     2534.904      732.513        0.822        0.235      107.756       15.493        0.021      333.088        2.175      860.094
12/19/2021  13:32:00      101.154        3.162      -22.052       93.263       53.223       39.052     8698.078     2832.740     1525.081        1.189        0.653      101.204       36.105        0.127      333.262        2.460      859.986
12/19/2021  13:33:00      161.126       52.368      -16.709       57.810       40.049       28.919     3341.945     1603.888      836.325        1.738        0.289      169.423       27.248        0.026      332.847        1.775      859.948
12/19/2021  13:34:00       49.610      -22.657      -16.377       63.537       64.904       45.098     4036.963     4212.557     2033.808        0.676        0.514       54.539       29.755        0.298      333.467        2.802      860.007
12/19/2021  13:35:00       60.170     -129.712      -39.700       37.101       69.296       34.834     1376.499     4801.981     1213.423        1.471        0.370      142.988       21.952        0.024      333.168        2.305      860.139
12/19/2021  13:36:00       31.546      -64.322      -20.748       37.010       48.901       25.204     1369.709     2391.293      635.256        0.498        0.220       71.641       21.868        0.093      333.106        2.205      860.176
12/19/2021  13:37:00       33.937       25.431      -15.414       59.933       48.840       32.356     3591.935     2385.372     1046.909        0.453        0.351       42.409       38.522        0.825      333.210        2.376      860.204
12/19/2021  13:38:00      -16.664       47.487       -2.057       38.255       27.808       22.472     1463.444      773.297      504.971        0.264        0.137       50.327       10.589        0.044      333.340        2.592      860.213
12/19/2021  13:39:00       23.631      -89.733      -29.441       57.447       52.777       28.816     3300.115     2785.394      830.364        0.820        0.346       92.792       32.007        0.119      333.247        2.438      860.292
12/19/2021  13:40:00       45.508        7.088      -15.798       58.542       50.828       38.324     3427.145     2583.436     1468.712        0.492        0.374       46.057       37.793        0.673      333.447        2.770      860.364
12/19/2021  13:41:00       77.980       39.791      -17.038       47.254       35.696       22.135     2232.977     1274.213      489.965        0.598        0.200       87.546       15.202        0.030      333.199        2.359      860.324
12/19/2021  13:42:00      194.825       71.049      -18.782       52.127       44.243       31.208     2717.182     1957.410      973.924        2.450        0.282      207.376       22.473        0.012      332.982        1.996      860.181
12/19/2021  13:43:00       95.833       68.430      -12.771       50.476       32.287       28.290     2547.830     1042.434      800.306        0.921        0.220      117.756       30.387        0.067      333.160        2.294      860.073
12/19/2021  13:44:00       75.139       87.805      -17.302       32.832       39.230       23.693     1077.967     1538.978      561.375        0.842        0.159      115.566       20.248        0.031      333.122        2.232      860.093
12/19/2021  13:45:00       19.656       38.912       -9.015       23.998       12.845       13.428      575.886      164.992      180.315        0.145        0.046       43.595        7.547        0.030      333.114        2.219      860.169
12/19/2021  13:46:00       25.847        5.101      -11.710       21.941       20.829       12.487      481.387      433.865      155.930        0.095        0.054       26.346       10.281        0.152      333.288        2.506      860.209
12/19/2021  13:47:00       12.735      -34.294       -8.102       37.997       44.457       27.806     1443.753     1976.438      773.180        0.280        0.210       36.582       21.087        0.332      333.664        3.127      860.225
12/19/2021  13:48:00        7.988      -62.882      -14.089       26.421       47.419       24.210      698.059     2248.523      586.140        0.387        0.177       63.387       15.447        0.059      333.736        3.248      860.234
12/19/2021  13:49:00       22.142      -52.822      -12.639       20.663       33.555       22.438      426.954     1125.944      503.444        0.275        0.103       57.275       10.040        0.031      333.656        3.115      860.244
12/19/2021  13:50:00       12.286       -9.700        6.160       14.990       23.252       18.693      224.714      540.665      349.434        0.070        0.056       15.653        9.904        0.400      334.079        3.817      860.291
12/19/2021  13:51:00      -16.863        2.276        4.979       42.843       38.920       24.203     1835.555     1514.744      585.798        0.212        0.197       17.016       15.425        0.822      333.862        3.457      860.352
12/19/2021  13:52:00       14.582      -57.842       -1.794       40.020       45.673       24.975     1601.611     2085.981      623.741        0.394        0.216       59.652       17.435        0.085      333.806        3.362      860.371
12/19/2021  13:53:00        1.902       -5.326      -20.190       29.763       38.832       18.066      885.835     1507.899      326.383        0.158        0.136        5.655       18.528       10.735      333.907        3.531      860.322
12/19/2021  13:54:00       78.726       33.133      -17.192       74.329       49.042       39.697     5524.756     2405.085     1575.884        0.855        0.475       85.414       23.353        0.075      333.765        3.296      860.236
12/19/2021  13:55:00      161.906       69.715      -25.160       72.181       49.212       31.931     5210.167     2421.810     1019.599        2.018        0.433      176.277       22.729        0.017      333.369        2.637      860.216
12/19/2021  13:56:00      -35.738      -33.787      -28.457       43.154       59.078       24.029     1862.263     3490.262      577.396        0.458        0.296       49.181       11.189        0.052      333.810        3.368      860.223
12/19/2021  13:57:00       -8.487       -9.672      -11.801       29.396       35.007       16.798      864.153     1225.521      282.175        0.134        0.119       12.867       15.995        1.545      333.916        3.546      860.251
12/19/2021  13:58:00       10.680       44.419      -15.866       26.251       17.050       21.941      689.095      290.711      481.420        0.190        0.073       45.685        9.932        0.047      334.021        3.718      860.243
12/19/2021  13:59:00       58.307       49.307      -17.545       30.063       18.736       17.785      903.796      351.032      316.318        0.385        0.079       76.360       13.640        0.032      333.557        2.950      860.203
12/19/2021  14:00:00       51.738       38.862      -22.583       21.786       18.565       12.974      474.609      344.661      168.327        0.284        0.049       64.708        2.886        0.002      333.598        3.017      860.172
12/19/2021  14:01:00       60.699       23.460      -13.755       30.491       33.430       32.637      929.720     1117.549     1065.154        0.377        0.156       65.075       18.843        0.084      333.702        3.190      860.161
12/19/2021  14:02:00       58.283      -65.722      -17.924       54.293       57.056       31.508     2947.726     3255.399      992.726        0.762        0.360       87.842       35.851        0.167      333.876        3.478      860.167
12/19/2021  14:03:00      129.792     -101.039      -36.868       61.172       69.558       41.270     3741.955     4838.297     1703.227        1.935        0.514      164.484       37.448        0.052      333.772        3.305      860.157
12/19/2021  14:04:00      127.938      -43.381      -27.106       81.070       80.795       33.204     6572.347     6527.763     1102.505        1.659        0.710      135.093       20.087        0.022      333.742        3.255      860.130
12/19/2021  14:05:00       94.317       52.199      -18.066       55.110       38.433       29.950     3037.136     1477.096      897.000        0.868        0.271      107.798       26.564        0.061      333.771        3.305      860.101
12/19/2021  14:06:00       86.286       62.695      -13.689       51.066       49.549       27.000     2607.764     2455.089      729.005        0.868        0.290      106.658       23.448        0.048      333.919        3.550      860.096
12/19/2021  14:07:00       35.198        9.835      -15.584       37.508       32.574       26.532     1406.850     1061.046      703.934        0.237        0.159       36.546       22.007        0.363      334.051        3.768      860.120
12/19/2021  14:08:00      -35.548      -19.543       -4.147       30.616       35.622       25.927      937.322     1268.921      672.216        0.227        0.144       40.566       17.259        0.181      334.298        4.177      860.145
12/19/2021  14:09:00        1.211      -66.393      -20.763       38.089       26.944       20.026     1450.787      725.990      401.039        0.371        0.129       66.404       16.172        0.059      334.215        4.041      860.166
12/19/2021  14:10:00      -10.267      -67.690      -40.670       37.896       29.042       25.567     1436.082      843.431      653.655        0.464        0.147       68.464        9.792        0.020      334.147        3.928      860.188
12/19/2021  14:11:00       33.270      -52.685      -33.114       44.484       52.672       37.360     1978.805     2774.323     1395.798        0.556        0.307       62.310       22.503        0.130      334.216        4.042      860.221
12/19/2021  14:12:00      132.603      -79.577      -34.045       77.459       73.614       52.917     5999.860     5419.088     2800.235        1.964        0.711      154.648       40.406        0.068      333.880        3.483      860.145
12/19/2021  14:13:00      100.777      -45.110      -41.968       70.328       83.651       53.916     4946.077     6997.496     2906.890        1.440        0.743      110.412       38.906        0.124      333.926        3.562      860.015
12/19/2021  14:14:00       60.757        1.943       -8.583       70.603       60.809       45.618     4984.804     3697.726     2080.963        0.726        0.538       60.788       39.993        0.433      333.941        3.587      859.947
12/19/2021  14:15:00       87.171       -5.692      -10.354       33.953       32.692       25.940     1152.812     1068.775      672.858        0.532        0.145       87.357       17.621        0.041      333.854        3.443      859.911
12/19/2021  14:16:00       80.640      -50.882      -18.554       69.675       67.892       44.390     4854.554     4609.326     1970.438        1.043        0.572       95.351       42.212        0.196      334.248        4.094      859.926
12/19/2021  14:17:00       56.124      -57.843       -5.176       59.461       64.966       39.578     3535.630     4220.522     1566.416        0.792        0.466       80.596       25.085        0.097      334.250        4.098      859.996
12/19/2021  14:18:00       27.578        9.588        3.709       46.795       73.458       35.969     2189.748     5396.047     1293.784        0.487        0.444       29.197       30.945        1.123      334.348        4.260      860.036
12/19/2021  14:19:00       52.971        1.117      -11.808       38.528       43.818       19.903     1484.428     1919.979      396.143        0.337        0.190       52.982       11.903        0.050      334.165        3.957      860.075
12/19/2021  14:20:00       17.589      -59.845      -27.754       39.227       25.721       38.621     1538.769      661.558     1491.579        0.418        0.185       62.376       13.085        0.044      334.035        3.743      860.112
12/19/2021  14:21:00       10.083       27.649        6.495       43.437       47.320       22.141     1886.780     2239.207      490.226        0.276        0.231       29.430       20.870        0.503      333.948        3.597      860.085
12/19/2021  14:22:00      130.672       13.189      -11.746       49.175       42.637       30.562     2418.213     1817.932      934.006        1.128        0.259      131.336       20.865        0.025      333.876        3.479      860.069
12/19/2021  14:23:00      -23.099      -36.435      -12.321       39.132       29.165       22.909     1531.346      850.589      524.823        0.246        0.145       43.140       21.539        0.249      334.260        4.115      860.156
12/19/2021  14:24:00       -8.319      -78.338      -16.681       73.314       69.285       34.039     5374.893     4800.420     1158.637        0.891        0.567       78.778       31.024        0.155      334.247        4.093      860.189
12/19/2021  14:25:00       72.763      -89.039      -40.237       55.104       94.550       49.089     3036.502     8939.641     2409.744        1.461        0.719      114.988       36.155        0.099      334.075        3.808      860.067
12/19/2021  14:26:00       93.688       13.973      -42.892       69.304       86.651       45.177     4803.082     7508.341     2040.957        1.258        0.718       94.724       25.537        0.073      334.171        3.965      859.928
12/19/2021  14:27:00       85.477      -40.417       -7.722       86.104       47.789       47.313     7413.919     2283.753     2238.488        1.047        0.597       94.551       46.495        0.242      334.147        3.927      859.935
12/19/2021  14:28:00      -27.546       -7.380       -9.220       25.314       38.580       21.714      640.807     1488.452      471.491        0.175        0.130       28.517       15.124        0.281      334.353        4.268      860.030
12/19/2021  14:29:00       14.718       -1.011        5.155       22.801       29.418       26.782      519.907      865.413      717.262        0.117        0.105       14.752       16.417        1.238      334.696        4.838      860.097
12/19/2021  14:30:00      -39.046      -16.725       -3.176       57.862       33.400       25.253     3347.954     1115.533      637.736        0.346        0.255       42.478       16.093        0.144      334.427        4.392      860.107
12/19/2021  14:31:00       37.107      -69.301      -38.173       36.515       52.267       28.988     1333.330     2731.864      840.326        0.627        0.245       78.610       15.035        0.037      334.228        4.062      860.054
12/19/2021  14:32:00      103.491     -110.145      -39.416       54.108       98.011       42.356     2927.644     9606.067     1793.994        1.936        0.716      151.137       49.849        0.109      334.202        4.017      859.975
12/19/2021  14:33:00       64.386     -122.938      -43.695       40.794       73.785       37.379     1664.147     5444.293     1397.160        1.484        0.425      138.778       25.938        0.035      334.110        3.864      859.903
12/19/2021  14:34:00       37.916     -103.931      -25.426       42.960       36.612       29.536     1845.568     1340.415      872.353        0.847        0.203      110.631       29.212        0.070      334.044        3.757      859.839
12/19/2021  14:35:00       30.874       13.451      -10.314       48.991       33.717       27.807     2400.132     1136.842      773.225        0.277        0.216       33.677       22.283        0.438      334.227        4.060      859.849
12/19/2021  14:36:00       59.933       -8.735       -4.641       42.188       31.136       22.707     1779.798      969.422      515.621        0.348        0.163       60.566       14.144        0.055      334.371        4.298      859.925
12/19/2021  14:37:00       56.380       14.095      -14.653       47.148       61.925       25.711     2222.960     3834.707      661.032        0.515        0.336       58.115       18.003        0.096      334.209        4.031      859.945
12/19/2021  14:38:00        3.149        8.209      -15.612       51.116       35.125       28.301     2612.888     1233.791      800.952        0.248        0.232        8.793       13.728        2.438      334.392        4.335      859.924
12/19/2021  14:39:00      123.779       -4.222      -17.865       40.246       28.895       20.161     1619.773      834.903      406.465        0.926        0.143      123.851        3.723        0.001      333.929        3.567      859.901
12/19/2021  14:40:00      123.729       17.339      -17.669       33.680       32.369       27.875     1134.319     1047.727      777.041        0.944        0.148      124.938       21.963        0.031      333.984        3.657      859.894
12/19/2021  14:41:00      125.414       54.127      -17.605       29.923       27.903       15.984      895.399      778.601      255.491        1.045        0.096      136.595       10.345        0.006      333.948        3.599      859.857
12/19/2021  14:42:00      105.173       45.965      -17.887       28.324       28.282       17.117      802.253      799.851      292.978        0.769        0.095      114.779       12.801        0.012      333.908        3.533      859.852
12/19/2021  14:43:00      100.247       51.053      -21.628       15.894       17.465       12.673      252.611      305.013      160.606        0.692        0.036      112.498        9.008        0.006      333.881        3.488      859.889
12/19/2021  14:44:00       35.493       32.292      -14.652       12.079       16.651       11.332      145.903      277.268      128.405        0.153        0.028       47.984        9.806        0.042      333.941        3.590      859.942
12/19/2021  14:45:00       43.698       22.633      -14.738       15.996       11.655       13.012      255.864      135.838      169.312        0.160        0.028       49.212        9.769        0.039      333.970        3.636      859.968
12/19/2021  14:46:00       84.837       40.288      -16.592       22.966       20.276       13.655      527.452      411.100      186.460        0.511        0.056       93.918        5.721        0.004      334.011        3.701      859.946
12/19/2021  14:47:00       95.466       54.414      -20.383       40.787       25.776       13.030     1663.562      664.390      169.773        0.749        0.125      109.884        9.760        0.008      334.057        3.780      859.910
12/19/2021  14:48:00       15.863      -67.826      -11.495       57.704       70.031       29.879     3329.736     4904.369      892.761        0.705        0.456       69.656       31.571        0.205      334.383        4.318      859.960
12/19/2021  14:49:00       79.350      -37.200      -23.919       71.727       48.063       37.073     5144.729     2310.072     1374.407        0.854        0.441       87.637       33.051        0.142      334.514        4.536      859.990
12/19/2021  14:50:00      104.950      -13.297      -15.937       78.401       59.065       46.497     6146.732     3488.627     2161.996        1.162        0.590      105.789       31.525        0.089      334.323        4.218      859.945
12/19/2021  14:51:00       96.250      -15.991      -10.584       81.421       50.758       48.581     6629.404     2576.385     2360.109        1.060        0.578       97.569       45.669        0.219      334.418        4.376      859.910
12/19/2021  14:52:00       94.302       15.129      -16.813       31.888       29.268       22.984     1016.858      856.614      528.259        0.590        0.120       95.508       10.435        0.012      334.118        3.879      859.946
12/19/2021  14:53:00       71.743       32.339      -18.532       21.156       23.948       19.407      447.574      573.504      376.622        0.397        0.070       78.695       13.089        0.028      334.118        3.880      859.986
12/19/2021  14:54:00       96.408       40.342      -24.176       39.327       24.106       15.116     1546.645      581.086      228.485        0.693        0.118      104.508        6.731        0.004      334.101        3.850      859.992
12/19/2021  14:55:00      134.350       31.818      -24.760       34.404       28.673       19.296     1183.633      822.128      372.334        1.103        0.119      138.066        9.661        0.005      334.178        3.978      859.958
12/19/2021  14:56:00       42.643       -0.125       -8.909       46.120       36.112       29.526     2127.035     1304.096      871.766        0.310        0.215       42.643       16.700        0.153      334.465        4.455      859.926
12/19/2021  14:57:00       41.872       -0.784      -25.124       47.591       54.414       29.993     2264.942     2960.909      899.556        0.425        0.306       41.879       19.227        0.211      334.483        4.484      859.931
12/19/2021  14:58:00       25.585      -84.618      -30.194       43.104       52.843       34.774     1857.947     2792.373     1209.261        0.729        0.293       88.402       23.324        0.070      334.707        4.857      859.930
12/19/2021  14:59:00       32.030       -1.420       -6.372       44.088       53.753       33.154     1943.795     2889.374     1099.196        0.350        0.297       32.061       23.173        0.522      334.518        4.543      859.909
12/19/2021  15:00:00       32.561       13.771      -20.176       33.411       30.971       25.729     1116.306      959.230      662.003        0.220        0.137       35.354       22.538        0.406      334.328        4.227      859.937
12/19/2021  15:01:00       51.549       69.132      -10.476       26.877       16.546       16.621      722.365      273.754      276.263        0.441        0.064       86.235       13.195        0.023      334.164        3.953      859.969
12/19/2021  15:02:00       67.820       51.971      -17.259       48.736       33.397       28.094     2375.167     1115.336      789.246        0.594        0.214       85.443       17.014        0.040      334.224        4.056      859.976
12/19/2021  15:03:00      121.684       32.394      -25.639       60.323       41.194       25.038     3638.858     1696.938      626.919        1.124        0.298      125.922       13.062        0.011      334.177        3.977      859.942
12/19/2021  15:04:00      196.619       53.070      -15.056       41.868       29.598       22.310     1752.945      876.021      497.733        2.241        0.156      203.655       13.427        0.004      334.052        3.768      859.875
12/19/2021  15:05:00      193.796       48.009      -24.247       45.963       34.131       22.874     2112.614     1164.911      523.200        2.212        0.190      199.654        9.484        0.002      334.141        3.916      859.812
12/19/2021  15:06:00       94.351       30.075      -22.728       56.450       40.537       24.460     3186.656     1643.250      598.269        0.787        0.271       99.028       29.008        0.086      334.273        4.137      859.831
12/19/2021  15:07:00        7.641      -12.460       -3.016       34.941       38.744       24.782     1220.891     1501.070      614.159        0.178        0.167       14.617       12.429        0.723      334.681        4.813      859.928
12/19/2021  15:08:00       97.477       46.512      -23.354       55.028       33.802       14.040     3028.135     1142.582      197.129        0.829        0.218      108.005       12.021        0.012      334.202        4.018      859.989
12/19/2021  15:09:00       74.385       57.874      -16.935       12.154        7.416        9.912      147.731       55.001       98.244        0.474        0.015       94.247        5.945        0.004      334.078        3.815      859.970
12/19/2021  15:10:00       78.311       51.046      -16.004       18.751       12.321       13.410      351.586      151.813      179.838        0.484        0.034       93.479        6.820        0.005      334.087        3.826      859.940
12/19/2021  15:11:00       50.051       17.007      -14.394       20.309       10.418       10.934      412.445      108.527      119.544        0.182        0.032       52.861       10.948        0.043      334.152        3.934      859.944
12/19/2021  15:12:00       34.157       35.251      -10.447       18.863       13.510       11.272      355.805      182.508      127.047        0.159        0.033       49.085        7.128        0.021      334.178        3.979      859.985
12/19/2021  15:13:00       63.049       57.645      -13.255       16.515       16.534       14.369      272.758      273.388      206.457        0.411        0.038       85.429       10.192        0.014      334.148        3.929      859.993
12/19/2021  15:14:00      111.960       66.800      -13.895       37.156       22.328       14.782     1380.569      498.537      218.513        0.964        0.105      130.373       12.216        0.009      334.166        3.959      859.931
12/19/2021  15:15:00      133.127       32.465      -30.195       39.645       38.068       24.651     1571.733     1449.165      607.677        1.166        0.181      137.028       13.326        0.009      334.196        4.008      859.899
12/19/2021  15:16:00       32.722       47.771       -7.932       55.407       47.498       25.108     3069.891     2256.047      630.432        0.468        0.298       57.903        5.698        0.010      334.293        4.169      859.935
12/19/2021  15:17:00       16.390       21.425      -18.717       49.637       42.050       25.247     2463.785     1768.166      637.401        0.297        0.243       26.975       24.379        0.817      334.472        4.466      859.971
12/19/2021  15:18:00       62.202       26.137      -13.024       24.938       27.067       17.591      621.910      732.648      309.431        0.319        0.083       67.470       14.356        0.045      334.252        4.100      859.989
12/19/2021  15:19:00       81.010       39.717      -11.100       27.728       14.876       12.851      768.824      221.307      165.149        0.471        0.058       90.222       11.695        0.017      334.236        4.075      859.991
12/19/2021  15:20:00       81.318       27.580      -24.359       31.325       33.766       18.553      981.235     1140.175      344.228        0.522        0.123       85.867       15.765        0.034      334.248        4.094      859.987
12/19/2021  15:21:00       47.927       20.726      -50.897       29.853       38.234       26.070      891.229     1461.832      679.660        0.417        0.152       52.217       10.786        0.043      334.334        4.236      860.005
12/19/2021  15:22:00       53.638       67.292       -6.552       54.789       37.510       32.927     3001.782     1407.033     1084.210        0.647        0.275       86.053       27.109        0.099      334.385        4.322      860.003
12/19/2021  15:23:00       10.409       27.798        1.367       37.600       30.051       27.621     1413.763      903.051      762.909        0.198        0.154       29.683       16.030        0.292      334.514        4.535      859.967
12/19/2021  15:24:00        3.353       38.632       -8.484       14.537       27.017       19.611      211.323      729.930      384.579        0.145        0.066       38.777       11.598        0.089      334.427        4.392      859.934
12/19/2021  15:25:00       37.874       39.611      -11.110       21.968        9.465        8.623      482.603       89.582       74.356        0.189        0.032       54.804        8.471        0.024      334.289        4.160      859.908
12/19/2021  15:26:00       95.005       58.927      -20.042       31.321       34.691       16.341      980.996     1203.497      267.034        0.768        0.123      111.796       10.664        0.009      334.275        4.139      859.854
12/19/2021  15:27:00       58.322       32.155      -16.990       41.018       53.323       25.153     1682.451     2843.350      632.652        0.494        0.258       66.598       17.845        0.072      334.320        4.214      859.798
12/19/2021  15:28:00       28.045      -21.125      -21.671       40.719       39.378       27.179     1658.022     1550.640      738.699        0.282        0.197       35.111       19.452        0.307      334.656        4.772      859.830
12/19/2021  15:29:00      -21.438       11.049      -15.637       27.858       24.496       13.128      776.053      600.072      172.348        0.119        0.077       24.118        8.338        0.120      334.752        4.931      859.890
12/19/2021  15:30:00       58.726       58.983       -2.873       32.224       19.880       17.727     1038.416      395.210      314.233        0.434        0.087       83.233       10.377        0.016      334.406        4.358      859.909
12/19/2021  15:31:00       96.831       32.407      -19.029       31.504       27.395       14.736      992.480      750.467      217.147        0.637        0.098      102.110       10.504        0.011      334.459        4.445      859.928
12/19/2021  15:32:00       66.366       11.441      -18.137       57.420       43.967       25.686     3297.055     1933.067      659.770        0.538        0.294       67.345       22.464        0.111      334.518        4.542      859.961
12/19/2021  15:33:00      -35.833        1.635      -18.405       21.553       23.381       17.853      464.514      546.656      318.733        0.148        0.066       35.870        5.987        0.028      334.798        5.008      859.996
12/19/2021  15:34:00       54.899       69.841       -5.342       50.543       25.967       19.372     2554.549      674.274      375.278        0.576        0.180       88.835       18.297        0.042      334.462        4.451      859.975
12/19/2021  15:35:00      112.611       42.547      -13.267       24.825       29.516       13.249      616.287      871.200      175.528        0.816        0.083      120.381       12.908        0.011      334.314        4.204      859.932
12/19/2021  15:36:00      131.154       13.804      -27.958       53.916       49.936       35.453     2906.964     2493.563     1256.884        1.241        0.333      131.879       25.355        0.037      334.458        4.443      859.904
12/19/2021  15:37:00       76.574      -82.096      -58.141       58.480       78.446       43.479     3419.967     6153.760     1890.384        1.372        0.573      112.265       20.900        0.035      334.779        4.975      859.917
12/19/2021  15:38:00       32.105       -6.540      -23.570       62.387       56.543       32.338     3892.085     3197.062     1045.768        0.488        0.407       32.764       23.778        0.527      334.706        4.855      859.957
12/19/2021  15:39:00        1.243       -8.049       -1.177       27.283       37.988       25.607      744.362     1443.115      655.709        0.145        0.142        8.144       11.814        2.104      334.837        5.074      859.982
12/19/2021  15:40:00       48.998       18.690      -14.320       36.182       23.358       21.326     1309.111      545.581      454.816        0.263        0.115       52.442       10.717        0.042      334.454        4.437      859.992
12/19/2021  15:41:00        3.072       13.291       -8.112       16.138       23.655       18.054      260.432      559.550      325.931        0.070        0.057       13.642       15.709        1.326      334.546        4.589      860.027
12/19/2021  15:42:00       62.033       33.999      -14.177       26.858       20.496       18.333      721.375      420.090      336.101        0.334        0.074       70.739       12.883        0.033      334.412        4.366      860.019
12/19/2021  15:43:00       89.653       65.879      -15.695       47.096       27.662       15.688     2218.074      765.176      246.098        0.793        0.161      111.255       17.690        0.025      334.320        4.214      859.992
12/19/2021  15:44:00      170.452       40.873      -16.828       40.217       24.343       20.802     1617.419      592.588      432.724        1.682        0.132      175.284       12.845        0.005      334.321        4.215      859.947
12/19/2021  15:45:00       65.822       13.146       -9.293       33.844       31.448       23.464     1145.447      989.007      550.554        0.364        0.134       67.122       13.125        0.038      334.406        4.356      859.912
12/19/2021  15:46:00       48.779       40.823      -12.455       40.121       26.792       23.366     1609.718      717.802      545.949        0.354        0.144       63.608       16.396        0.066      334.356        4.274      859.918
12/19/2021  15:47:00       23.546      -11.142      -17.858       39.014       34.648       25.093     1522.078     1200.466      629.644        0.217        0.168       26.049       12.920        0.246      334.524        4.554      859.957
12/19/2021  15:48:00       50.098        0.547      -23.350       46.150       60.717       36.052     2129.863     3686.541     1299.747        0.508        0.356       50.101       19.919        0.158      334.660        4.779      859.983
12/19/2021  15:49:00       95.750      -18.945      -34.270       55.088       66.309       38.135     3034.681     4396.882     1454.284        0.979        0.444       97.606       25.447        0.068      334.522        4.548      859.967
12/19/2021  15:50:00      103.529      -56.056      -55.189       56.471       62.539       38.128     3189.024     3911.067     1453.752        1.273        0.428      117.730       17.746        0.023      334.608        4.693      859.917
12/19/2021  15:51:00      139.868        6.116      -21.707       63.502       65.743       25.661     4032.516     4322.177      658.499        1.454        0.451      140.002       19.687        0.020      334.419        4.379      859.880
12/19/2021  15:52:00      142.479       47.306      -13.510       42.687       38.794       26.022     1822.139     1505.004      677.159        1.336        0.200      150.127       13.600        0.008      334.261        4.116      859.889
12/19/2021  15:53:00      109.827       30.664       -8.746       68.667       32.221       30.594     4715.215     1038.161      935.992        0.988        0.334      114.027       19.369        0.029      334.249        4.095      859.922
12/19/2021  15:54:00       90.688       76.957      -15.714       39.953       26.701       26.489     1596.248      712.949      701.672        0.870        0.151      118.940       12.984        0.012      334.289        4.162      859.965
12/19/2021  15:55:00      158.259       54.709      -16.636       42.156       38.848       25.273     1777.127     1509.175      638.733        1.612        0.196      167.449        8.459        0.003      334.216        4.040      859.979
12/19/2021  15:56:00      174.842       -2.360       -7.299       56.875       51.329       32.925     3234.794     2634.692     1084.088        1.879        0.348      174.858       28.644        0.027      334.226        4.056      859.943
12/19/2021  15:57:00       73.784        6.318      -15.505      101.986       50.127       36.958    10401.236     2512.706     1365.895        1.000        0.714       74.054       37.630        0.258      334.372        4.299      859.904
12/19/2021  15:58:00       19.605      -28.688      -23.537       31.691       55.432       30.915     1004.334     3072.672      955.746        0.340        0.252       34.746       23.568        0.460      334.535        4.571      859.920
12/19/2021  15:59:00       29.464     -117.750      -28.098       48.511       51.656       33.942     2353.315     2668.308     1152.082        1.085        0.309      121.381        8.851        0.005      334.485        4.488      860.010
12/19/2021  16:00:00       19.447      -71.234      -23.553       34.178       37.286       23.186     1168.111     1390.261      537.595        0.455        0.155       73.840       13.951        0.036      334.556        4.606      860.089
12/19/2021  16:01:00       30.758      -49.595      -22.538       22.311       34.734       17.035      497.792     1206.474      290.178        0.295        0.100       58.359       13.890        0.057      334.393        4.336      860.088
12/19/2021  16:02:00       73.062       21.241      -14.391       65.509       53.829       31.520     4291.389     2897.576      993.526        0.709        0.409       76.087       28.655        0.142      334.237        4.076      860.033
12/19/2021  16:03:00      110.228       29.402      -28.199       55.545       60.218       39.482     3085.213     3626.260     1558.796        1.104        0.414      114.082       19.511        0.029      334.221        4.048      859.955
12/19/2021  16:04:00       96.609       15.134      -35.837       57.523       61.900       33.338     3308.928     3831.584     1111.452        0.955        0.413       97.787        9.532        0.010      334.215        4.040      859.938
12/19/2021  16:05:00       39.096       -6.948      -10.350       42.716       86.731       49.389     1824.635     7522.194     2439.306        0.673        0.589       39.709       36.490        0.844      334.257        4.111      859.993
12/19/2021  16:06:00       50.079       24.171      -19.712       50.404       47.279       33.870     2540.603     2235.262     1147.185        0.470        0.296       55.607       23.331        0.176      334.188        3.996      860.029
12/19/2021  16:07:00      127.196       44.444      -15.382       37.781       51.788       27.333     1427.406     2681.948      747.085        1.162        0.243      134.737       14.900        0.012      333.990        3.668      860.040
12/19/2021  16:08:00      160.483       17.468      -18.209       32.956       52.122       23.074     1086.069     2716.680      532.408        1.536        0.217      161.431       14.053        0.008      334.036        3.742      860.053
12/19/2021  16:09:00      146.807       39.165      -20.295       31.097       36.442       25.713      967.046     1328.008      661.168        1.323        0.148      151.941       12.188        0.006      333.993        3.673      860.067
12/19/2021  16:10:00      120.656       -3.257      -18.515       27.229       34.361       18.194      741.405     1180.653      331.015        0.858        0.113      120.700       10.735        0.008      333.996        3.677      860.055
12/19/2021  16:11:00      124.916       36.420      -20.901       30.667       34.584       20.171      940.487     1196.038      406.855        0.995        0.127      130.117        7.800        0.004      334.054        3.772      860.037
12/19/2021  16:12:00       98.856        1.814       -6.408       70.812       58.825       38.134     5014.291     3460.435     1454.168        0.987        0.496       98.873       29.979        0.092      334.177        3.976      860.005
12/19/2021  16:13:00      107.367       10.789       -9.565       63.253       56.298       39.077     4000.915     3169.507     1527.018        1.021        0.435      107.908       30.845        0.082      334.170        3.964      859.967
12/19/2021  16:14:00      144.252       28.302      -27.837       33.235       34.885       22.817     1104.535     1216.950      520.622        1.261        0.142      147.002       14.775        0.010      334.003        3.689      859.930
12/19/2021  16:15:00      167.393       23.360      -26.027       32.387       43.112       25.585     1048.891     1858.622      654.569        1.640        0.178      169.015        9.343        0.003      333.907        3.531      859.928
12/19/2021  16:16:00      116.709       -5.456      -29.847       60.295       54.339       38.739     3635.523     2952.750     1500.718        1.131        0.404      116.837       24.547        0.044      334.037        3.745      859.928
12/19/2021  16:17:00      138.892      -58.100      -30.779       72.551       55.964       42.255     5263.601     3131.987     1785.504        1.690        0.509      150.554       19.657        0.017      334.162        3.951      859.927
12/19/2021  16:18:00       71.266      -42.192      -31.833       57.948       83.138       37.255     3357.929     6911.971     1387.915        0.976        0.583       82.819       32.272        0.152      334.163        3.952      859.931
12/19/2021  16:19:00      124.513        0.319      -26.523       53.010       73.981       40.898     2810.075     5473.124     1672.630        1.308        0.498      124.514       29.695        0.057      334.049        3.765      859.916
12/19/2021  16:20:00       95.390      -27.051      -33.652       50.593       62.167       32.159     2559.634     3864.757     1034.213        0.921        0.373       99.152       20.010        0.041      334.087        3.828      859.932
12/19/2021  16:21:00       98.989       13.995      -12.949       50.175       58.234       37.877     2517.545     3391.153     1434.682        0.875        0.367       99.973       28.650        0.082      333.946        3.593      859.955
12/19/2021  16:22:00      115.677       52.931      -13.632       41.845       28.498       21.665     1750.975      812.132      469.362        0.970        0.152      127.212       17.275        0.018      333.860        3.453      859.969
12/19/2021  16:23:00       37.680       30.467      -10.773       31.117       34.018       19.200      968.276     1157.191      368.640        0.248        0.125       48.456       16.141        0.111      333.873        3.473      860.004
12/19/2021  16:24:00       39.108       13.439      -17.707       25.811       23.374       18.962      666.226      546.338      359.547        0.180        0.079       41.352        7.264        0.031      333.915        3.543      860.084
12/19/2021  16:25:00       44.715      -77.568      -17.674       58.310       57.332       41.871     3400.091     3286.942     1753.159        0.838        0.422       89.533       33.689        0.142      334.214        4.038      860.124
12/19/2021  16:26:00       74.523      -14.953      -23.415       53.631       60.102       34.673     2876.249     3612.275     1202.205        0.701        0.385       76.009       18.806        0.061      334.049        3.765      860.091
12/19/2021  16:27:00      159.091        7.595      -17.776       50.250       33.139       24.725     2525.029     1098.184      611.331        1.496        0.212      159.272       16.750        0.011      333.819        3.384      860.027
12/19/2021  16:28:00      117.012       23.875        0.805       42.882       38.632       29.521     1838.885     1492.431      871.474        0.923        0.210      119.423       22.063        0.034      333.715        3.212      860.001
12/19/2021  16:29:00       87.136        2.943       -8.139       34.904       27.921       15.852     1218.298      779.579      251.296        0.496        0.112       87.186        6.796        0.006      333.751        3.272      860.055
12/19/2021  16:30:00       -8.583        1.577      -15.544       26.840       26.961       19.586      720.390      726.916      383.618        0.107        0.092        8.726       17.675        4.103      333.855        3.443      860.136
12/19/2021  16:31:00       -9.620       15.721       -1.101       18.769       16.476       11.631      352.260      271.465      135.280        0.055        0.038       18.430        6.753        0.134      333.875        3.478      860.191
12/19/2021  16:32:00      149.542       51.704      -19.213       54.717       22.002       15.077     2993.936      484.105      227.312        1.455        0.185      158.228       24.087        0.023      333.775        3.311      860.199
12/19/2021  16:33:00      146.688       22.817      -23.839       39.903       39.752       20.939     1592.257     1580.195      438.427        1.311        0.181      148.452       14.733        0.010      333.715        3.213      860.153
12/19/2021  16:34:00      126.321       25.484      -10.792       51.543       59.053       31.020     2656.716     3487.248      962.228        1.191        0.355      128.866       12.674        0.010      333.764        3.293      860.134
12/19/2021  16:35:00        9.982       -0.434      -26.784       43.565       36.075       23.513     1897.895     1301.387      552.848        0.228        0.188        9.992       12.211        1.493      333.796        3.347      860.153
12/19/2021  16:36:00       31.739      -95.081      -13.364       36.746       48.436       31.221     1350.269     2346.027      974.752        0.745        0.234      100.238       33.413        0.111      333.934        3.575      860.199
12/19/2021  16:37:00       28.011     -103.848      -16.635       17.304       22.897       18.788      299.413      524.269      352.988        0.651        0.059      107.559       10.607        0.010      333.840        3.419      860.192
12/19/2021  16:38:00       92.329        5.400      -13.607       69.766       42.575       23.565     4867.295     1812.667      555.302        0.799        0.362       92.486       30.280        0.107      333.793        3.341      860.134
12/19/2021  16:39:00      158.474       12.466      -14.432       25.600       24.510       17.266      655.339      600.728      298.131        1.352        0.078      158.964       12.120        0.006      333.693        3.176      860.051
12/19/2021  16:40:00      129.833        9.776      -13.295       43.674       31.039       23.971     1907.451      963.450      574.625        1.029        0.172      130.201       11.020        0.007      333.683        3.160      860.029
12/19/2021  16:41:00       38.728      -53.204      -25.214       52.981       65.115       32.575     2806.958     4239.987     1061.114        0.654        0.405       65.807       32.468        0.243      333.730        3.236      860.085
12/19/2021  16:42:00       12.100     -103.809      -18.451       30.360       33.952       18.917      921.712     1152.737      357.834        0.685        0.122      104.512        4.601        0.002      333.863        3.457      860.175
12/19/2021  16:43:00       12.606      -10.358      -12.418       23.364       37.935       16.534      545.860     1439.083      273.382        0.134        0.113       16.316       19.683        1.455      333.654        3.114      860.230
12/19/2021  16:44:00       24.108       49.430      -10.477       41.880       19.257       16.240     1753.935      370.830      263.749        0.276        0.119       54.995       14.255        0.067      333.703        3.191      860.194
12/19/2021  16:45:00       89.239       29.990      -24.191       43.632       48.581       23.352     1903.780     2360.159      545.324        0.713        0.240       94.144       16.944        0.032      333.675        3.146      860.156
12/19/2021  16:46:00       36.399      -41.950      -24.793       49.768       63.961       36.153     2476.837     4091.014     1307.052        0.579        0.394       55.540       29.450        0.281      333.986        3.661      860.176
12/19/2021  16:47:00       61.544     -147.271      -30.139       43.563       56.705       30.823     1897.707     3215.508      950.075        1.622        0.303      159.613       31.874        0.040      333.745        3.261      860.193
12/19/2021  16:48:00       39.634     -133.299      -17.271       25.755       43.449       27.586      663.335     1887.815      760.983        1.147        0.166      139.066       15.220        0.012      333.714        3.210      860.195
12/19/2021  16:49:00       27.349      -61.884      -23.661       17.170       31.842       14.004      294.806     1013.898      196.106        0.332        0.075       67.658       15.857        0.055      333.685        3.163      860.204
12/19/2021  16:50:00       13.278        9.912       -9.676       13.981       24.128       12.070      195.464      582.158      145.694        0.065        0.046       16.570        8.590        0.269      333.582        2.992      860.231
12/19/2021  16:51:00       10.988       -3.618       -7.642       52.108       33.738       19.889     2715.230     1138.220      395.570        0.222        0.212       11.568        6.396        0.306      333.618        3.052      860.263
12/19/2021  16:52:00       -8.183      -77.420      -12.006       44.801       30.088       21.758     2007.133      905.279      473.406        0.479        0.169       77.851       20.654        0.070      333.743        3.258      860.326
12/19/2021  16:53:00       24.298      -80.655      -19.592       40.128       51.385       32.308     1610.270     2640.408     1043.832        0.639        0.265       84.236       30.052        0.127      333.717        3.216      860.367
12/19/2021  16:54:00       98.457      -82.973      -37.089       31.080       47.570       28.776      965.966     2262.860      828.062        1.100        0.203      128.756       23.704        0.034      333.589        3.005      860.323
12/19/2021  16:55:00       30.941      -66.211      -19.741       30.899       58.143       27.024      954.733     3380.630      730.280        0.540        0.253       73.083       24.745        0.115      333.685        3.163      860.243
12/19/2021  16:56:00       -0.238      -39.501       -2.983       24.539       24.357       16.769      602.149      593.268      281.197        0.152        0.074       39.502       13.068        0.109      333.747        3.264      860.238
12/19/2021  16:57:00       10.530      -51.326      -14.535       18.861       34.589       16.482      355.743     1196.404      271.663        0.239        0.091       52.395       18.682        0.127      333.623        3.062      860.293
12/19/2021  16:58:00       58.587      -93.557      -26.599       39.110       22.281       21.723     1529.572      496.458      471.887        0.769        0.125      110.387       20.861        0.036      333.618        3.051      860.300
12/19/2021  16:59:00       97.483      -88.880      -38.122       28.106       38.979       19.393      789.950     1519.391      376.096        1.077        0.134      131.919       12.216        0.009      333.584        2.997      860.247
12/19/2021  17:00:00       39.404     -157.050      -26.320       29.536       43.352       23.848      872.381     1879.428      568.706        1.511        0.166      161.918       21.450        0.018      333.590        3.005      860.222
12/19/2021  17:01:00       42.027      -86.789      -14.309       26.674       34.770       21.406      711.490     1208.928      458.223        0.594        0.119       96.430       19.012        0.039      333.668        3.135      860.239
12/19/2021  17:02:00       26.021      -31.314       -8.827       26.285       24.925       15.001      690.917      621.253      225.035        0.164        0.077       40.714       11.416        0.079      333.696        3.181      860.214
12/19/2021  17:03:00      -16.246       -9.215       -9.240       25.783       36.227       20.846      664.763     1312.414      434.535        0.142        0.121       18.677        4.833        0.067      333.618        3.051      860.191
12/19/2021  17:04:00       13.387        0.487      -13.485       43.389       44.946       35.963     1882.649     2020.131     1293.327        0.278        0.260       13.396       20.808        2.413      333.510        2.873      860.185
12/19/2021  17:05:00       63.955      -24.306      -10.275       37.351       45.854       32.025     1395.122     2102.559     1025.586        0.465        0.226       68.418       18.872        0.076      333.700        3.186      860.215
12/19/2021  17:06:00       66.393       -4.649      -15.129       54.423       51.531       41.493     2961.854     2655.424     1721.649        0.600        0.367       66.556       31.112        0.219      333.568        2.968      860.200
12/19/2021  17:07:00       82.760        8.845      -34.827       43.677       59.078       37.435     1907.673     3490.230     1401.408        0.747        0.340       83.232       19.997        0.058      333.495        2.848      860.170
12/19/2021  17:08:00       48.443        0.007      -15.111       42.005       39.290       25.889     1764.460     1543.717      670.256        0.328        0.199       48.443        9.827        0.041      333.162        2.298      860.175
12/19/2021  17:09:00       57.599       13.613      -10.022       36.032       29.200       15.684     1298.282      852.654      245.990        0.300        0.120       59.186       11.775        0.040      333.042        2.099      860.205
12/19/2021  17:10:00       -0.104       -3.141      -14.273       26.079       34.107       15.275      680.116     1163.285      233.336        0.114        0.104        3.143       10.587       11.347      333.122        2.231      860.201
12/19/2021  17:11:00       39.390       31.827       -3.023       34.009       17.649        8.249     1156.591      311.491       68.038        0.205        0.077       50.641       11.263        0.049      332.993        2.017      860.213
12/19/2021  17:12:00      -17.156       10.336       -5.852       16.686       18.951        9.663      278.416      359.128       93.369        0.058        0.037       20.029        4.351        0.047      333.133        2.249      860.296
12/19/2021  17:13:00       25.172      -84.430      -28.549       30.276       25.396       14.368      916.622      644.968      206.427        0.517        0.088       88.103       12.541        0.020      333.238        2.425      860.376
12/19/2021  17:14:00       46.174      -59.808      -19.921       39.424       62.818       25.001     1554.250     3946.129      625.049        0.611        0.306       75.559       12.393        0.027      333.322        2.563      860.337
12/19/2021  17:15:00      104.061       36.421       -6.904       35.794       29.997       18.433     1281.231      899.798      339.761        0.736        0.126      110.251        4.943        0.002      333.008        2.043      860.187
12/19/2021  17:16:00       84.202       34.605       -2.390       38.629       27.712       17.358     1492.222      767.936      301.287        0.543        0.128       91.036       13.734        0.023      332.917        1.892      860.116
12/19/2021  17:17:00       26.386       25.888       -8.934       35.265       25.707       19.546     1243.623      660.839      382.051        0.187        0.114       36.965       17.771        0.231      332.925        1.905      860.218
12/19/2021  17:18:00      -38.019       43.112      -13.109       29.468       22.669       11.344      868.368      513.899      128.696        0.249        0.076       57.481        6.893        0.014      333.000        2.030      860.353
12/19/2021  17:19:00      -67.899       36.011      -21.819       26.342       27.581       16.937      693.882      760.712      286.849        0.406        0.087       76.858       16.071        0.044      332.997        2.024      860.411
12/19/2021  17:20:00      -13.814       24.209       -2.428       31.470       22.117       18.034      990.373      489.156      325.221        0.129        0.090       27.873        8.469        0.092      332.981        1.998      860.387
12/19/2021  17:21:00       44.673       25.286      -19.423       31.923       32.673       19.365     1019.048     1067.519      375.019        0.274        0.123       51.333       13.616        0.070      333.002        2.034      860.316
12/19/2021  17:22:00       50.627      -11.612      -29.485       44.711       46.717       36.682     1999.076     2182.475     1345.580        0.455        0.276       51.942       12.051        0.054      333.036        2.089      860.269
12/19/2021  17:23:00        9.804      -18.691      -17.263       29.031       28.833       19.777      842.806      831.361      391.119        0.140        0.103       21.107       13.743        0.424      333.162        2.298      860.337
12/19/2021  17:24:00      -18.011      -15.208      -16.269       12.683       10.010       11.808      160.861      100.205      139.425        0.061        0.020       23.573        6.367        0.073      333.060        2.128      860.437
12/19/2021  17:25:00       43.868       18.492       -7.656       46.814       37.406       23.250     2191.590     1399.207      540.570        0.323        0.207       47.606       15.992        0.113      333.018        2.060      860.475
12/19/2021  17:26:00       97.677       -9.854      -19.556       39.126       33.166       20.796     1530.872     1099.952      432.494        0.654        0.153       98.173       14.319        0.021      332.835        1.759      860.428
12/19/2021  17:27:00      108.701        1.997       -6.841       27.545       19.211       18.134      758.730      369.051      328.836        0.666        0.073      108.719       15.374        0.020      332.750        1.617      860.370
12/19/2021  17:28:00       92.346       18.630       -8.074       19.769       12.940       15.162      390.808      167.452      229.875        0.486        0.039       94.206       10.337        0.012      332.723        1.571      860.400
12/19/2021  17:29:00       -3.587       30.518       -6.658       40.976       12.050       13.432     1679.048      145.203      180.405        0.150        0.100       30.729        5.120        0.028      332.726        1.577      860.522
12/19/2021  17:30:00      -38.990        8.858      -14.193       24.052       18.842       12.870      578.493      355.038      165.632        0.145        0.055       39.984        6.606        0.027      332.794        1.689      860.610
12/19/2021  17:31:00      -20.330       42.180       -6.185       15.027       18.988       10.873      225.812      360.553      118.230        0.147        0.035       46.824        6.237        0.018      332.800        1.699      860.564
12/19/2021  17:32:00       16.007       69.544       -1.270       20.424       30.918       20.840      417.128      955.919      434.326        0.345        0.090       71.363       17.494        0.060      332.764        1.640      860.438
12/19/2021  17:33:00       54.173       38.647      -10.972       24.218       17.462       17.357      586.534      304.933      301.270        0.287        0.060       66.545       12.200        0.034      332.766        1.644      860.430
12/19/2021  17:34:00       38.556       35.541       -7.556       14.127       15.620       15.266      199.563      243.994      233.040        0.174        0.034       52.438       10.285        0.038      332.704        1.542      860.493
12/19/2021  17:35:00       34.324       32.760       -8.580       20.210       22.055       13.752      408.432      486.417      189.119        0.170        0.054       47.449       12.751        0.072      332.624        1.407      860.514
12/19/2021  17:36:00       17.160       15.929       -7.109       15.362       13.076       12.442      236.002      170.980      154.812        0.058        0.028       23.413        8.297        0.126      332.582        1.338      860.549
12/19/2021  17:37:00      -18.466      -13.749       -7.271       19.473       16.212       12.374      379.205      262.829      153.119        0.069        0.040       23.022       10.251        0.198      332.647        1.446      860.618
12/19/2021  17:38:00      -16.295       16.138       -0.944       28.886       15.598       11.514      834.409      243.305      132.583        0.087        0.061       22.934       11.842        0.267      332.658        1.465      860.639
12/19/2021  17:39:00      -41.023       31.668      -13.104       18.562        9.468        8.912      344.557       89.642       79.428        0.169        0.026       51.824        7.649        0.022      332.735        1.593      860.600
12/19/2021  17:40:00       19.903       36.251       -9.505       20.088        9.063        7.275      403.538       82.141       52.922        0.117        0.027       41.356        4.377        0.011      332.776        1.658      860.563
12/19/2021  17:41:00       94.327       39.724      -19.812       20.034       15.982       11.057      401.344      255.422      122.263        0.582        0.039      102.350        4.623        0.002      332.805        1.708      860.505
12/19/2021  17:42:00       77.606        9.282       -3.369       33.387       22.745       16.745     1114.706      517.316      280.402        0.402        0.096       78.160       10.427        0.018      332.541        1.270      860.443
12/19/2021  17:43:00       30.553       10.472       -6.955       25.874       13.998       13.857      669.445      195.956      192.005        0.107        0.053       32.298       10.061        0.097      332.525        1.245      860.463
12/19/2021  17:44:00      -14.479       16.375      -13.052       26.121       13.352       10.127      682.307      178.281      102.555        0.081        0.048       21.859       13.230        0.366      332.598        1.367      860.538
12/19/2021  17:45:00      -40.197       -8.143       -8.522       16.143       22.184       13.708      260.589      492.148      187.912        0.135        0.047       41.014       10.268        0.063      332.574        1.325      860.618
12/19/2021  17:46:00      -31.911      -19.049      -15.911       11.846       13.546        9.608      140.336      183.504       92.322        0.103        0.021       37.164        4.369        0.014      332.690        1.517      860.663
12/19/2021  17:47:00        7.531        7.651       -6.356       15.073       14.371        6.347      227.192      206.527       40.279        0.031        0.024       10.735        3.550        0.109      332.662        1.469      860.581
12/19/2021  17:48:00        7.505       28.122       -8.016       11.890        6.793        6.459      141.378       46.140       41.720        0.057        0.011       29.106        2.787        0.009      332.707        1.543      860.482
12/19/2021  17:49:00      -38.345       14.666      -11.890       17.487       11.485        9.543      305.808      131.895       91.065        0.118        0.026       41.054        8.429        0.042      332.784        1.672      860.517
12/19/2021  17:50:00      -17.837        5.118      -12.030       14.995       18.667        8.818      224.850      348.464       77.749        0.057        0.033       18.557        7.723        0.173      332.669        1.484      860.532
12/19/2021  17:51:00       39.533       33.510      -12.600       35.196       15.341        8.018     1238.747      235.336       64.292        0.219        0.077       51.825       10.004        0.037      332.707        1.545      860.447
12/19/2021  17:52:00       64.277       28.600      -12.724       29.075       30.787       15.733      845.343      947.864      247.541        0.358        0.102       70.352        7.991        0.013      332.797        1.693      860.390
12/19/2021  17:53:00      -32.184        6.249       -8.407       25.967       15.135       12.559      674.291      229.082      157.725        0.110        0.053       32.785        8.091        0.061      332.791        1.685      860.480
12/19/2021  17:54:00      -66.682       31.759      -15.101       28.496       24.214       17.657      811.997      586.341      311.769        0.370        0.086       73.859       10.285        0.019      332.669        1.482      860.579
12/19/2021  17:55:00      -27.050       40.873      -10.123       27.891       23.317       10.767      777.924      543.676      115.918        0.197        0.072       49.013       10.799        0.049      332.490        1.186      860.547
12/19/2021  17:56:00       40.128       43.479       -8.354       25.265       22.834       16.178      638.344      521.382      261.737        0.250        0.071       59.166       15.465        0.068      332.731        1.586      860.422
12/19/2021  17:57:00       13.143       40.161       -8.994       16.347       22.482       13.305      267.231      505.436      177.018        0.141        0.047       42.257        9.190        0.047      332.813        1.720      860.439
12/19/2021  17:58:00      -16.690       10.275      -17.085       24.164       21.345       16.250      583.910      455.604      264.054        0.099        0.065       19.600       10.415        0.282      332.677        1.495      860.556
12/19/2021  17:59:00      -20.480       21.191       -6.136       52.170       31.772       20.379     2721.735     1009.454      415.307        0.253        0.207       29.470       16.050        0.297      332.369        0.984      860.639
12/19/2021  18:00:00      -45.623       59.412      -12.530       18.969       17.333       14.405      359.829      300.446      207.516        0.332        0.043       74.909       10.334        0.019      332.308        0.886      860.657
12/19/2021  18:01:00      -14.757       54.215       -5.902       39.464       20.971       13.513     1557.380      439.800      182.589        0.269        0.109       56.187       12.347        0.048      332.484        1.176      860.624
12/19/2021  18:02:00       13.879       41.968      -13.073       11.772       19.479        8.899      138.574      379.420       79.199        0.136        0.030       44.204        5.616        0.016      332.575        1.326      860.617
12/19/2021  18:03:00       -6.313        2.904      -14.063       36.712       13.280       25.635     1347.791      176.367      657.145        0.121        0.109        6.949       24.176       12.105      332.399        1.035      860.737
12/19/2021  18:04:00      -17.376       -7.462       -1.745       36.247       29.368       22.596     1313.818      862.486      510.591        0.152        0.134       18.911       18.143        0.920      332.207        0.718      860.811
12/19/2021  18:05:00      -76.007       34.115       -9.306       53.205       44.613       27.409     2830.804     1990.344      751.229        0.630        0.279       83.312       26.240        0.099      332.076        0.503      860.756
12/19/2021  18:06:00      -61.858       21.548       -5.150       32.866       31.681       20.304     1080.196     1003.676      412.247        0.341        0.125       65.504       19.594        0.089      332.058        0.473      860.726
12/19/2021  18:07:00        0.917       10.206       -2.809       19.611       11.434       18.357      384.587      130.731      336.981        0.048        0.043       10.247        7.327        0.511      332.127        0.586      860.742
12/19/2021  18:08:00       69.673       14.750      -28.371       28.769       37.553       25.196      827.648     1410.198      634.856        0.437        0.144       71.217       18.171        0.065      332.218        0.737      860.637
12/19/2021  18:09:00      133.610       13.874       -7.187       73.075       62.913       36.626     5339.937     3958.087     1341.482        1.437        0.532      134.328       36.145        0.072      332.078        0.506      860.465
12/19/2021  18:10:00       54.233       45.599       -5.405       63.381       26.865       22.478     4017.208      721.712      505.264        0.515        0.262       70.855       19.162        0.073      332.027        0.423      860.475
12/19/2021  18:11:00       -8.999       30.979       -8.760       27.489       40.135       27.265      755.632     1610.830      743.392        0.211        0.155       32.259       22.770        0.498      332.339        0.937      860.704
12/19/2021  18:12:00        5.385       -2.745        4.011       44.975       23.478       30.503     2022.750      551.196      930.448        0.178        0.175        6.044       21.671       12.856      332.247        0.785      860.912
12/19/2021  18:13:00      -39.285       19.126        8.492       52.828       28.924       26.916     2790.804      836.625      724.493        0.317        0.218       43.693       23.912        0.300      332.249        0.788      860.886
12/19/2021  18:14:00       22.806       57.773       -3.246       27.154       18.171       13.574      737.355      330.175      184.242        0.256        0.063       62.111        9.786        0.025      332.270        0.822      860.694
12/19/2021  18:15:00      100.735       66.258      -14.126       37.703       15.021       10.535     1421.533      225.625      110.980        0.825        0.088      120.572        4.312        0.001      332.423        1.076      860.508
12/19/2021  18:16:00       65.360       23.514      -10.816       28.220       28.421       21.501      796.362      807.773      462.292        0.350        0.103       69.461       14.449        0.043      332.398        1.034      860.512
12/19/2021  18:17:00      -21.307       -4.022      -13.102       42.453       29.019       32.784     1802.227      842.131     1074.760        0.218        0.186       21.683       30.194        1.939      332.400        1.038      860.742
12/19/2021  18:18:00      -69.970        0.317       -3.585       79.624       31.496       30.014     6339.978      991.974      900.864        0.657        0.412       69.971       26.515        0.144      332.259        0.804      860.880
12/19/2021  18:19:00      -17.079       32.568       -6.177       58.307       23.677       22.367     3399.695      560.606      500.299        0.292        0.223       36.774        4.913        0.018      332.273        0.826      860.797
12/19/2021  18:20:00      124.786       21.802      -13.950       42.124       31.861       23.766     1774.441     1015.102      564.811        0.980        0.168      126.676       21.468        0.029      332.426        1.080      860.633
12/19/2021  18:21:00      112.528       16.364       -9.954       73.888       29.482       19.983     5459.508      869.196      399.303        0.988        0.336      113.712       10.365        0.008      332.521        1.238      860.674
12/19/2021  18:22:00      -62.169       25.273      -18.264       22.999       26.921       13.931      528.968      724.756      194.082        0.314        0.072       67.109       11.066        0.027      332.410        1.054      860.863
12/19/2021  18:23:00      -23.114       39.291       -7.161       34.145       25.545       14.398     1165.914      652.563      207.288        0.208        0.101       45.586        7.520        0.027      332.252        0.793      860.894
12/19/2021  18:24:00      117.399       47.664      -27.047       48.083       37.876       26.921     2311.982     1434.596      724.744        1.063        0.224      126.706       19.418        0.023      332.688        1.513      860.746
12/19/2021  18:25:00      166.335       19.631      -10.440       51.969       37.899       29.690     2700.798     1436.350      881.500        1.659        0.251      167.490       15.107        0.008      332.592        1.354      860.606
12/19/2021  18:26:00      111.586        4.178       -6.164       61.913       34.089       30.007     3833.234     1162.080      900.423        0.920        0.295      111.664       25.031        0.050      332.500        1.204      860.619
12/19/2021  18:27:00      -14.235       -7.212      -18.140       30.219       29.743       28.229      913.209      884.632      796.901        0.159        0.130       15.957       23.947        2.252      332.494        1.192      860.777
12/19/2021  18:28:00      -75.828       20.317       -2.514       83.123       43.552       35.983     6909.404     1896.735     1294.798        0.813        0.505       78.502       32.763        0.174      332.451        1.121      860.912
12/19/2021  18:29:00     -103.930       -2.597        2.317       65.740       36.663       26.854     4321.712     1344.164      721.135        0.860        0.319      103.963       14.682        0.020      332.560        1.301      860.964
12/19/2021  18:30:00        1.753       46.945       -5.442       30.234       22.702       20.153      914.068      515.361      406.152        0.204        0.092       46.978       12.982        0.076      332.456        1.130      860.891
12/19/2021  18:31:00       59.987       90.662      -13.574       27.449       23.985       12.552      753.461      575.288      157.559        0.674        0.074      108.711       11.474        0.011      332.621        1.404      860.780
12/19/2021  18:32:00       37.577       93.464       -8.766       26.386       32.948       18.225      696.211     1085.587      332.158        0.617        0.106      100.735       14.674        0.021      332.501        1.205      860.761
12/19/2021  18:33:00       44.228       51.649       -8.434       27.858       32.805       17.058      776.054     1076.177      290.959        0.342        0.107       67.998       11.024        0.026      332.517        1.231      860.767
12/19/2021  18:34:00      -26.237       16.020      -13.204       34.222       14.744       12.694     1171.162      217.386      161.132        0.133        0.077       30.741        8.314        0.073      332.406        1.047      860.814
12/19/2021  18:35:00      -23.532        3.755      -12.181       35.545       21.685       13.875     1263.441      470.224      192.509        0.132        0.096       23.830        4.200        0.031      332.337        0.934      860.870
12/19/2021  18:36:00      -31.944       30.490       -6.508       28.046       14.882       11.909      786.565      221.475      141.818        0.157        0.057       44.160       12.639        0.082      332.392        1.024      860.856
12/19/2021  18:37:00      -36.481       49.790       -8.094       29.068       20.555       13.811      844.971      422.490      190.743        0.267        0.073       61.724        4.391        0.005      332.228        0.754      860.830
12/19/2021  18:38:00      -14.222      -21.187      -14.061       15.015       35.452       10.907      225.457     1256.877      118.970        0.122        0.080       25.517       10.551        0.171      332.281        0.842      860.917
12/19/2021  18:39:00      -41.649      -19.539      -24.237       24.687       20.134       17.371      609.435      405.375      301.760        0.201        0.066       46.004       14.984        0.106      332.224        0.747      861.030
12/19/2021  18:40:00      -15.483       15.918      -11.130       19.480       31.236       22.205      379.485      975.711      493.059        0.123        0.092       22.207       21.206        0.912      332.355        0.962      861.025
12/19/2021  18:41:00       89.272       64.632       -5.045       58.668       22.301       23.980     3441.963      497.333      575.046        0.834        0.226      110.213       25.623        0.054      332.327        0.918      860.855
12/19/2021  18:42:00      135.525       68.645       -3.099       35.451       30.621       30.286     1256.797      937.620      917.258        1.310        0.156      151.918       15.493        0.010      332.118        0.572      860.630
12/19/2021  18:43:00      -12.424       36.804       -8.610       51.688       40.487       27.171     2671.694     1639.204      738.237        0.332        0.252       38.845       14.908        0.147      332.229        0.755      860.677
12/19/2021  18:44:00      -81.701      -15.653      -13.066       74.488       43.852       43.280     5548.518     1923.008     1873.197        0.822        0.467       83.187       34.870        0.176      331.999        0.378      860.945
12/19/2021  18:45:00      -47.744      -42.286       -4.617       63.993       48.194       44.581     4095.061     2322.644     1987.442        0.625        0.420       63.778       28.576        0.201      332.244        0.781      861.062
12/19/2021  18:46:00     -109.030        1.434       -6.098       67.998       44.169       34.620     4623.793     1950.915     1198.563        0.985        0.389      109.039       31.639        0.084      332.014        0.401      861.064
12/19/2021  18:47:00      -71.079       39.476      -10.832       39.773       25.173       17.629     1581.885      633.702      310.777        0.463        0.126       81.306       16.346        0.040      331.991        0.363      860.977
12/19/2021  18:48:00      -74.103       36.899      -20.197       23.895       17.035       13.604      570.990      290.175      185.075        0.415        0.052       82.781       11.622        0.020      332.060        0.478      860.912
12/19/2021  18:49:00      -24.585       11.689        0.400       31.429       30.647       22.512      987.775      939.232      506.775        0.159        0.122       27.222       15.579        0.327      332.026        0.421      860.982
12/19/2021  18:50:00      -27.887       21.476       -0.148       39.404       21.843       17.971     1552.697      477.133      322.972        0.180        0.118       35.198       20.458        0.338      331.980        0.344      860.990
12/19/2021  18:51:00     -120.873       39.820      -21.079       24.123       27.081       20.548      581.931      733.373      422.206        0.919        0.087      127.263       13.069        0.011      331.943        0.285      860.935
12/19/2021  18:52:00     -106.525       22.427       -9.119       60.627       39.018       34.471     3675.688     1522.383     1188.280        0.916        0.319      108.860       27.274        0.063      331.910        0.230      860.978
12/19/2021  18:53:00      -89.435       59.764       -9.557       41.773       27.777       22.314     1745.024      771.586      497.902        0.734        0.151      107.565       18.681        0.030      331.942        0.283      861.009
12/19/2021  18:54:00       -6.239      -14.340      -10.041       25.702       39.840       16.139      660.616     1587.211      260.469        0.143        0.125       15.638       17.921        1.313      332.121        0.576      861.012
12/19/2021  18:55:00        7.347      -61.162      -49.384       21.926       33.463       22.854      480.733     1119.779      522.285        0.418        0.106       61.602       13.403        0.047      332.227        0.752      861.004
12/19/2021  18:56:00      -43.604       -0.084      -11.350       53.870       27.817       21.914     2901.929      773.768      480.217        0.309        0.208       43.604       20.606        0.223      331.996        0.372      861.005
12/19/2021  18:57:00      -55.913       10.967       -5.116       36.927       31.623       24.816     1363.622     1000.026      615.855        0.313        0.149       56.978       10.080        0.031      331.870        0.165      861.015
12/19/2021  18:58:00      -56.216       -6.031       -4.228       49.209       29.616       23.711     2421.514      877.092      562.225        0.354        0.193       56.538       23.407        0.171      331.971        0.331      861.039
12/19/2021  18:59:00      -39.755        9.531       -1.693       31.352       28.594       22.606      982.930      817.644      511.052        0.199        0.116       40.881       13.812        0.114      331.967        0.324      861.025
12/19/2021  19:00:00      -70.608       20.637      -10.318       29.314       19.968       17.992      859.321      398.713      323.698        0.355        0.079       73.562       18.939        0.066      331.853        0.137      861.018
12/19/2021  19:01:00      -32.360       -9.961       -9.979       33.210       23.131       15.021     1102.880      535.058      225.620        0.155        0.093       33.859        9.667        0.082      331.866        0.159      861.032
12/19/2021  19:02:00      -27.841        4.826       -5.077       16.073        8.861        9.836      258.331       78.522       96.739        0.063        0.022       28.256        7.390        0.068      332.054        0.466      861.035
12/19/2021  19:03:00       36.602       30.805       -5.334       17.799       22.586       11.752      316.808      510.131      138.109        0.164        0.048       47.840       10.738        0.050      332.050        0.461      860.992
12/19/2021  19:04:00       70.560       37.115       -7.730       15.336       14.379       10.528      235.200      206.753      110.841        0.348        0.028       79.726        8.753        0.012      332.128        0.589      860.902
12/19/2021  19:05:00       -0.932        4.692      -13.856       38.629       26.668       13.759     1492.203      711.185      189.313        0.130        0.120        4.783       16.031       11.232      332.180        0.673      860.896
12/19/2021  19:06:00      -21.107       12.564        8.941       73.593       33.035       39.451     5415.994     1091.325     1556.410        0.437        0.403       24.563       21.436        0.762      331.883        0.186      861.011
12/19/2021  19:07:00     -120.738      -11.597       -1.279       66.921       44.932       39.807     4478.483     2018.891     1584.593        1.140        0.404      121.293       37.706        0.097      331.962        0.315      861.090
12/19/2021  19:08:00      -81.402       20.689        5.634       59.688       33.037       26.247     3562.640     1091.469      688.927        0.621        0.267       83.990       28.367        0.114      331.813        0.071      861.085
12/19/2021  19:09:00      -66.710       46.213       -5.085       32.403       28.773       16.134     1049.948      827.899      260.318        0.437        0.107       81.154       15.307        0.036      331.838        0.112      861.055
12/19/2021  19:10:00      -73.596       11.145       -7.261       51.386       40.028       27.308     2640.478     1602.226      745.727        0.529        0.249       74.435       13.790        0.034      331.778        0.013      861.069
12/19/2021  19:11:00       46.510      -12.237       10.928       33.246       46.868       24.037     1105.287     2196.563      577.755        0.316        0.194       48.093        8.924        0.034      331.739       -0.050      861.082
12/19/2021  19:12:00      -21.548        4.413      -26.095       40.020       47.269       37.040     1601.602     2234.345     1371.979        0.319        0.260       21.996       19.690        0.801      331.613       -0.258      861.103
12/19/2021  19:13:00      -31.519        3.404      -15.818       54.535       32.634       25.973     2974.096     1065.008      674.600        0.298        0.236       31.702       14.076        0.197      331.590       -0.295      861.152
12/19/2021  19:14:00       18.427       -0.088        1.153       46.537       29.342       26.146     2165.737      860.961      683.592        0.202        0.186       18.428       16.134        0.767      331.593       -0.292      861.233
12/19/2021  19:15:00      -94.653        7.376       -2.995       48.326       41.727       28.396     2335.436     1741.184      806.349        0.695        0.244       94.940       24.176        0.065      331.485       -0.470      861.222
12/19/2021  19:16:00      -43.273       50.747       -8.727       31.786       24.646       16.574     1010.329      607.435      274.714        0.321        0.095       66.692       11.735        0.031      331.496       -0.452      861.076
12/19/2021  19:17:00      -54.694       30.417      -16.316       32.659       30.022       21.344     1066.626      901.344      455.579        0.330        0.121       62.583       18.422        0.087      331.653       -0.192      861.011
12/19/2021  19:18:00       -6.567       10.687        0.026       59.095       38.665       28.495     3492.246     1494.977      811.983        0.298        0.290       12.544       22.192        3.130      331.565       -0.337      861.140
12/19/2021  19:19:00     -197.851      -20.785      -11.015       84.521       58.374       49.756     7143.740     3407.507     2475.620        2.636        0.651      198.940       47.745        0.058      331.697       -0.125      861.263
12/19/2021  19:20:00     -182.062      -13.988      -21.265       62.983       47.372       34.663     3966.847     2244.143     1201.490        2.060        0.371      182.598       28.851        0.025      331.782        0.017      861.281
12/19/2021  19:21:00     -118.889       -5.808       -4.706       58.306       39.008       37.028     3399.643     1521.656     1371.091        1.024        0.315      119.030       36.379        0.093      331.833        0.104      861.255
12/19/2021  19:22:00       10.194       49.021      -12.022       28.721       23.385       21.433      824.895      546.852      459.392        0.224        0.092       50.069       10.669        0.045      331.805        0.058      861.153
12/19/2021  19:23:00       52.501       81.330       -0.989       32.870       25.440       16.646     1080.456      647.207      277.090        0.569        0.100       96.803       13.169        0.019      331.880        0.181      861.024
12/19/2021  19:24:00       -9.861       36.816       -7.713       33.050       45.622       22.702     1092.291     2081.403      515.403        0.260        0.184       38.114       13.344        0.123      331.925        0.255      861.054
12/19/2021  19:25:00       21.496      -23.183       -2.753       49.509       42.080       31.611     2451.117     1770.733      999.231        0.311        0.261       31.616       13.285        0.177      331.784        0.022      861.194
12/19/2021  19:26:00     -112.498       -6.660       -0.615       79.912       41.461       43.704     6385.963     1719.013     1910.078        1.136        0.501      112.695       31.222        0.077      331.645       -0.206      861.249
12/19/2021  19:27:00     -159.121       17.617       -4.883       44.164       40.572       22.507     1950.503     1646.051      506.584        1.488        0.205      160.093       19.665        0.015      331.613       -0.260      861.228
12/19/2021  19:28:00     -144.290        2.893      -10.400       63.711       42.684       37.453     4059.070     1821.954     1402.742        1.411        0.364      144.319       34.585        0.057      331.731       -0.066      861.254
12/19/2021  19:29:00     -145.907       -3.611      -13.110       72.266       46.975       30.039     5222.403     2206.642      902.353        1.490        0.417      145.952       26.239        0.032      331.667       -0.169      861.268
12/19/2021  19:30:00     -111.254      105.876      -11.562       46.426       53.689       23.843     2155.371     2882.516      568.502        1.466        0.280      153.581       17.763        0.013      331.576       -0.321      861.151
12/19/2021  19:31:00       -9.957      103.751      -14.727       35.295       37.652       24.234     1245.749     1417.695      587.273        0.716        0.163      104.227       15.939        0.023      331.706       -0.106      861.044
12/19/2021  19:32:00      -39.589      -25.133      -14.467       33.490       69.434       23.702     1121.580     4821.088      561.769        0.446        0.325       46.893       23.397        0.249      331.719       -0.083      861.133
12/19/2021  19:33:00      -90.920      -43.999      -31.477       49.075       40.100       21.631     2408.340     1607.996      467.921        0.784        0.224      101.006       16.511        0.027      331.773        0.005      861.238
12/19/2021  19:34:00      -59.734       14.084      -21.333       31.553       30.478       20.048      995.596      928.885      401.928        0.327        0.116       61.372       12.468        0.041      331.771        0.000      861.217
12/19/2021  19:35:00      -39.809      -19.847        5.837       61.334       37.014       24.889     3761.852     1370.064      619.485        0.388        0.288       44.482       30.299        0.464      331.838        0.112      861.209
12/19/2021  19:36:00      -47.094      -33.050        1.221       31.767       30.666       22.500     1009.167      940.398      506.234        0.288        0.123       57.534       19.859        0.119      331.827        0.093      861.216
12/19/2021  19:37:00      -26.860      -31.260       -8.344       22.287       34.739       14.491      496.729     1206.787      209.988        0.184        0.096       41.215       16.684        0.164      331.809        0.064      861.203
12/19/2021  19:38:00        0.115       -1.060       -4.539       11.576       13.948        8.615      134.005      194.536       74.216        0.021        0.020        1.066        5.819       29.793      331.808        0.062      861.178
12/19/2021  19:39:00       17.780       22.313       -0.843       12.934       11.546        7.856      167.293      133.313       61.719        0.059        0.018       28.531        3.703        0.017      331.621       -0.245      861.128
12/19/2021  19:40:00       -9.345       35.576       -3.794       17.887       15.451        6.715      319.942      238.737       45.086        0.099        0.030       36.783        2.512        0.005      331.658       -0.186      861.171
12/19/2021  19:41:00       36.848       35.206       -6.671       15.480        7.969        9.226      239.642       63.505       85.123        0.151        0.019       50.963        8.309        0.027      331.578       -0.317      861.202
12/19/2021  19:42:00       54.562       19.747      -21.398       31.491       46.181       20.027      991.689     2132.681      401.066        0.367        0.176       58.025       15.781        0.074      331.553       -0.358      861.192
12/19/2021  19:43:00      106.857        8.005      -16.209       54.550       35.579       30.636     2975.665     1265.855      938.592        0.846        0.259      107.157       23.015        0.046      331.495       -0.455      861.104
12/19/2021  19:44:00      118.248      -12.853      -25.338       48.703       37.745       29.650     2371.969     1424.673      879.105        0.973        0.234      118.944       20.626        0.030      331.345       -0.699      861.035
12/19/2021  19:45:00       48.047       23.367       -5.991       37.053       16.731       16.069     1372.888      279.937      258.206        0.240        0.096       53.428       17.063        0.102      331.136       -1.044      861.128
12/19/2021  19:46:00      -10.393        9.012      -10.745       17.257       13.642       11.700      297.818      186.096      136.886        0.046        0.031       13.756        6.654        0.234      331.356       -0.680      861.264
12/19/2021  19:47:00        9.507       34.215       -0.618       21.634       19.488       11.963      468.027      379.778      143.118        0.113        0.050       35.511       10.206        0.083      331.355       -0.683      861.212
12/19/2021  19:48:00       25.953       75.153       -3.869       32.593       17.067       11.583     1062.296      291.268      134.170        0.391        0.074       79.508        5.220        0.004      331.401       -0.607      861.113
12/19/2021  19:49:00      -66.481       34.744      -18.424       47.826       37.992       21.043     2287.315     1443.407      442.812        0.507        0.209       75.013       21.457        0.082      331.437       -0.548      861.150
12/19/2021  19:50:00        5.678       -3.918        3.257       26.183       25.298       22.266      685.540      640.011      495.772        0.094        0.091        6.899       10.164        2.171      331.446       -0.533      861.263
12/19/2021  19:51:00       40.348       43.158      -18.727       54.880       36.514       24.931     3011.851     1333.305      621.545        0.440        0.248       59.082       13.250        0.050      331.641       -0.214      861.205
12/19/2021  19:52:00       62.031        4.299      -36.627       58.986       52.167       39.160     3479.396     2721.417     1533.468        0.647        0.387       62.180       28.069        0.204      331.749       -0.033      861.055
12/19/2021  19:53:00       12.288      -24.211      -25.035       40.541       47.702       36.504     1643.571     2275.514     1332.568        0.331        0.263       27.150        9.657        0.127      331.809        0.064      861.049
12/19/2021  19:54:00      -21.200      -18.984      -16.551       25.910       43.211       18.561      671.348     1867.179      344.514        0.198        0.144       28.457       21.981        0.597      331.643       -0.211      861.217
12/19/2021  19:55:00       15.810        8.490        6.197       34.273       26.401       23.653     1174.623      697.000      559.445        0.140        0.122       17.946       12.933        0.519      331.596       -0.287      861.366
12/19/2021  19:56:00      -58.330        0.493        7.836       42.860       25.046       21.015     1836.989      627.314      441.619        0.318        0.145       58.332       14.407        0.061      331.640       -0.215      861.419
12/19/2021  19:57:00       -3.155      -15.453        0.546       15.282       18.920       12.167      233.536      357.961      148.032        0.049        0.037       15.772       10.586        0.451      331.701       -0.114      861.432
12/19/2021  19:58:00       10.751       39.930      -11.543       16.423       43.339       10.256      269.729     1878.239      105.194        0.205        0.113       41.352        3.535        0.007      331.593       -0.292      861.392
12/19/2021  19:59:00       78.523      125.907      -15.654       41.439       39.743       24.539     1717.224     1579.517      602.156        1.308        0.195      148.386       19.606        0.017      331.547       -0.367      861.226
12/19/2021  20:00:00       67.183       97.070      -10.131       44.683       41.035       27.504     1996.566     1683.909      756.494        0.924        0.222      118.051       25.294        0.046      331.339       -0.709      861.163
12/19/2021  20:01:00       14.814       22.321      -16.036       27.267       58.268       18.087      743.499     3395.156      327.141        0.272        0.223       26.790       19.136        0.510      331.430       -0.560      861.361
12/19/2021  20:02:00      -59.949       -6.114       -8.303       62.069       36.081       46.810     3852.603     1301.854     2191.146        0.552        0.367       60.260       33.865        0.316      331.428       -0.563      861.527
12/19/2021  20:03:00      -51.817       13.027        3.338       42.627       27.556       24.844     1817.058      759.308      617.219        0.303        0.160       53.430       21.029        0.155      331.521       -0.410      861.508
12/19/2021  20:04:00       73.809       20.741      -14.241       55.951       45.714       23.548     3130.520     2089.764      554.487        0.593        0.289       76.668       23.116        0.091      331.546       -0.371      861.282
12/19/2021  20:05:00       99.201       -5.173       -8.167       69.911       29.194       27.055     4887.524      852.283      731.982        0.820        0.324       99.335       25.459        0.066      331.421       -0.574      861.150
12/19/2021  20:06:00       12.096        6.340      -17.803       42.487       23.807       15.002     1805.131      566.777      225.062        0.155        0.130       13.657       14.189        1.080      331.337       -0.714      861.286
12/19/2021  20:07:00        2.837        0.151        5.140       27.196       37.736       19.176      739.611     1424.027      367.738        0.128        0.127        2.841       13.647       23.075      331.611       -0.262      861.420
12/19/2021  20:08:00      -23.930        7.591        9.612       38.289       26.584       21.747     1466.077      706.734      472.918        0.168        0.132       25.105       14.750        0.345      331.448       -0.530      861.461
12/19/2021  20:09:00      -18.597       -1.155       -2.421       27.317       29.090       18.066      746.206      846.248      326.382        0.114        0.096       18.633       17.147        0.847      331.497       -0.451      861.475
12/19/2021  20:10:00      -15.701       -1.068        0.829       25.156       22.294       15.020      632.828      497.023      225.595        0.080        0.068       15.737       13.433        0.729      331.507       -0.434      861.511
12/19/2021  20:11:00       -4.856       19.905        1.921       41.564       42.853       15.055     1727.575     1836.339      226.662        0.211        0.190       20.489       15.834        0.597      331.485       -0.470      861.475
12/19/2021  20:12:00      111.806      105.528      -16.283       47.734       28.755       25.291     2278.526      826.855      639.644        1.382        0.187      153.742       20.045        0.017      331.337       -0.713      861.276
12/19/2021  20:13:00       96.835       83.748       -2.573       56.778       42.373       31.620     3223.717     1795.431      999.843        1.121        0.301      128.027       26.085        0.042      331.333       -0.720      861.148
12/19/2021  20:14:00       17.770        9.143      -16.611       34.397       46.673       21.546     1183.140     2178.398      464.252        0.225        0.191       19.984       20.874        1.091      331.368       -0.661      861.369
12/19/2021  20:15:00      -45.912       -9.968        0.284       85.516       52.868       46.195     7313.054     2795.036     2134.005        0.722        0.612       46.982       25.306        0.290      331.457       -0.516      861.571
12/19/2021  20:16:00       18.298        8.440       -5.574       43.394       21.355       23.652     1883.075      456.015      559.404        0.167        0.145       20.151       13.247        0.432      331.460       -0.510      861.480
12/19/2021  20:17:00       83.850       24.935       -5.686       55.901       54.556       40.336     3124.960     2976.303     1627.003        0.771        0.386       87.479       22.935        0.069      331.505       -0.438      861.207
12/19/2021  20:18:00       90.266        1.642       -3.345       82.304       55.680       39.328     6773.931     3100.275     1546.663        0.979        0.571       90.281       41.037        0.207      331.319       -0.743      861.211
12/19/2021  20:19:00      -16.530      -63.371      -35.183       45.367       29.446       22.381     2058.180      867.051      500.893        0.448        0.171       65.492       20.492        0.098      331.587       -0.303      861.449
12/19/2021  20:20:00      -58.253       12.002       -8.338       54.076       57.298       32.583     2924.255     3283.089     1061.681        0.544        0.363       59.477       33.541        0.318      331.557       -0.351      861.523
12/19/2021  20:21:00        9.651        8.039      -12.708       25.505       28.367       19.646      650.499      804.668      385.948        0.108        0.092       12.561       15.071        1.440      331.569       -0.331      861.485
12/19/2021  20:22:00      -25.252       -8.882      -10.333       20.420       20.133       20.972      416.973      405.333      439.828        0.104        0.063       26.769       12.471        0.217      331.511       -0.428      861.491
12/19/2021  20:23:00      -21.559       -5.245      -12.330       31.328       26.635       19.379      981.470      709.443      375.559        0.136        0.103       22.188       12.452        0.315      331.484       -0.471      861.564
12/19/2021  20:24:00      -41.213       -5.620       -8.197       43.847       34.496       19.974     1922.561     1189.989      398.954        0.265        0.176       41.594       12.453        0.090      331.354       -0.685      861.632
12/19/2021  20:25:00      -67.321       15.638      -15.923       28.254       25.269       17.080      798.295      638.530      291.712        0.338        0.086       69.113       13.197        0.036      331.306       -0.763      861.641
12/19/2021  20:26:00        6.435       55.464      -11.840       52.576       16.320       10.607     2764.262      266.357      112.499        0.320        0.157       55.836       12.414        0.049      331.291       -0.789      861.548
12/19/2021  20:27:00       88.639       49.479      -16.785       41.597       39.332       21.457     1730.298     1546.990      460.412        0.716        0.187      101.514       14.534        0.020      331.104       -1.096      861.424
12/19/2021  20:28:00       10.553      -39.025      -22.941       32.737       32.252       22.961     1071.681     1040.198      527.206        0.240        0.132       40.427       15.016        0.138      331.249       -0.857      861.489
12/19/2021  20:29:00        3.713      -55.900       -7.850       36.220       51.790       25.158     1311.874     2682.194      632.922        0.391        0.231       56.023       20.962        0.140      331.322       -0.738      861.656
12/19/2021  20:30:00      -30.985       18.342       -1.348       66.893       33.476       24.858     4474.701     1120.653      617.916        0.375        0.311       36.007       10.556        0.086      331.395       -0.618      861.661
12/19/2021  20:31:00      -18.740       62.022       -8.820       24.604       26.192       21.175      605.369      686.031      448.364        0.301        0.087       64.791       12.232        0.036      331.288       -0.793      861.535
12/19/2021  20:32:00     -101.339       77.481      -21.897       51.418       32.791       22.951     2643.810     1075.281      526.755        1.050        0.212      127.566       23.512        0.034      331.207       -0.928      861.521
12/19/2021  20:33:00     -147.350       20.373      -36.811       82.014       61.131       38.648     6726.255     3736.952     1493.650        1.772        0.598      148.751       20.144        0.018      331.091       -1.120      861.601
12/19/2021  20:34:00       26.748      -12.663        7.245       61.280       53.115       38.357     3755.199     2821.199     1471.285        0.449        0.402       29.594       26.672        0.812      331.130       -1.055      861.658
12/19/2021  20:35:00      -30.164       18.297       -3.104       66.062       29.032       31.877     4364.154      842.829     1016.161        0.374        0.311       35.279       23.775        0.454      331.163       -0.998      861.673
12/19/2021  20:36:00       -6.190       34.253       -6.528       41.718       16.118       19.234     1740.389      259.779      369.955        0.181        0.119       34.807        5.846        0.028      331.068       -1.156      861.566
12/19/2021  20:37:00       58.219       46.368      -16.105       32.929       27.089       18.940     1084.320      733.834      358.713        0.399        0.109       74.427       13.258        0.032      331.015       -1.243      861.455
12/19/2021  20:38:00       42.548       27.367      -10.915       29.017       33.064       24.689      841.974     1093.236      609.565        0.261        0.127       50.589       15.752        0.097      331.008       -1.255      861.477
12/19/2021  20:39:00        1.662       27.396      -10.593       36.700       24.489       18.551     1346.871      599.704      344.136        0.158        0.115       27.446        8.229        0.090      331.039       -1.203      861.559
12/19/2021  20:40:00      -15.726        0.931      -17.192       48.366       57.966       37.296     2339.298     3360.038     1391.024        0.382        0.355       15.753       15.254        0.938      331.095       -1.110      861.688
12/19/2021  20:41:00      -41.579      -11.451        7.829       97.097       57.138       52.157     9427.776     3264.804     2720.330        0.866        0.771       43.127       48.344        1.257      331.016       -1.242      861.841
12/19/2021  20:42:00     -146.506        6.503      -10.509       85.771       52.009       51.404     7356.705     2704.953     2642.409        1.716        0.635      146.650       45.229        0.095      331.047       -1.191      861.837
12/19/2021  20:43:00        1.537       12.566       -9.506       39.882       22.543       19.040     1590.591      508.188      362.534        0.136        0.123       12.659       20.952        2.739      331.080       -1.135      861.627
12/19/2021  20:44:00       28.289       25.993       -1.236       31.465       21.923       15.495      990.042      480.636      240.089        0.159        0.086       38.418       12.139        0.100      331.012       -1.247      861.469
12/19/2021  20:45:00        5.099       -7.067       -4.760       22.790       15.366       17.436      519.406      236.108      304.005        0.058        0.053        8.715        6.905        0.628      331.128       -1.057      861.540
12/19/2021  20:46:00       13.596       -5.816       13.538       44.599       51.473       38.553     1989.067     2649.470     1486.357        0.326        0.306       14.788       16.988        1.320      331.130       -1.053      861.719
12/19/2021  20:47:00      -80.937        6.617        2.277       67.499       44.104       37.635     4556.142     1945.141     1416.430        0.726        0.396       81.207       31.445        0.150      331.063       -1.165      861.834
12/19/2021  20:48:00      -19.957      -58.897      -24.562       40.095       44.275       27.653     1607.614     1960.315      764.702        0.440        0.217       62.186       16.342        0.069      331.291       -0.788      861.773
12/19/2021  20:49:00       17.987        9.546      -14.224       31.234       51.102       28.130      975.587     2611.429      791.309        0.250        0.219       20.363       20.970        1.060      331.401       -0.607      861.622
12/19/2021  20:50:00      -26.032      -15.073       -4.570       27.173       35.617       25.847      738.387     1268.576      668.077        0.180        0.134       30.081        7.943        0.070      331.332       -0.720      861.623
12/19/2021  20:51:00      -20.098      -44.808        0.882       61.118       35.350       27.184     3735.468     1249.653      738.976        0.407        0.286       49.109       17.818        0.132      331.330       -0.724      861.795
12/19/2021  20:52:00     -104.898       -1.835       -9.038       46.316       34.746       31.541     2145.192     1207.273      994.817        0.772        0.217      104.914       17.606        0.028      331.199       -0.939      861.881
12/19/2021  20:53:00       -1.690       44.813      -13.139       53.063       22.001       18.563     2815.703      484.053      344.601        0.291        0.182       44.845       11.370        0.064      331.228       -0.891      861.770
12/19/2021  20:54:00       77.057       72.029      -11.751       35.569       30.233       22.711     1265.151      914.058      515.778        0.698        0.135      105.479       21.239        0.041      331.068       -1.156      861.626
12/19/2021  20:55:00        5.476       35.207       -5.725       54.303       38.730       22.280     2948.789     1499.975      496.401        0.312        0.247       35.630       17.589        0.244      331.127       -1.058      861.675
12/19/2021  20:56:00      -12.544       11.325       -0.254       44.509       39.711       34.644     1981.016     1576.938     1200.179        0.252        0.238       16.900       28.324        2.809      331.087       -1.124      861.848
12/19/2021  20:57:00      -32.906       -6.060        0.981       64.104       36.971       28.238     4109.292     1366.837      797.365        0.370        0.314       33.459       24.805        0.550      331.087       -1.125      861.931
12/19/2021  20:58:00       23.757       30.259       -8.852       29.673       28.871       17.594      880.474      833.532      309.556        0.179        0.101       38.471       16.101        0.175      330.967       -1.321      861.843
12/19/2021  20:59:00      120.593       37.579      -25.797       49.445       38.579       27.710     2444.823     1488.361      767.821        1.066        0.235      126.313       15.067        0.014      331.084       -1.128      861.629
12/19/2021  21:00:00      116.119       19.653      -16.453       37.606       37.005       26.283     1414.209     1369.406      690.819        0.881        0.174      117.770       20.980        0.032      331.028       -1.222      861.522
12/19/2021  21:01:00       37.187       20.595       -8.061       30.257       17.812       16.451      915.471      317.268      270.650        0.169        0.075       42.509       13.052        0.094      330.866       -1.487      861.575
12/19/2021  21:02:00       -4.517       17.674      -16.802       28.228       20.416       14.389      796.833      416.829      207.034        0.102        0.071       18.242       16.574        0.825      331.082       -1.132      861.668
12/19/2021  21:03:00      -19.488      -35.137      -16.871       45.368       20.808       18.898     2058.259      432.983      357.152        0.237        0.142       40.179       14.063        0.123      331.134       -1.046      861.783
12/19/2021  21:04:00       25.603      -26.690      -12.315       40.179       41.216       28.744     1614.323     1698.742      826.197        0.283        0.207       36.985       13.961        0.142      331.257       -0.845      861.838
12/19/2021  21:05:00       53.118      -39.772      -26.142       59.853       75.385       29.538     3582.421     5682.954      872.491        0.761        0.507       66.358       37.393        0.318      331.331       -0.723      861.807
12/19/2021  21:06:00      123.368       10.414      -19.300       70.623       49.570       29.485     4987.659     2457.207      869.352        1.201        0.416      123.807       31.415        0.064      331.103       -1.098      861.668
12/19/2021  21:07:00       58.637       31.996       -9.465       64.101       33.645       33.289     4108.915     1132.004     1108.152        0.545        0.317       66.799       24.894        0.139      330.640       -1.858      861.545
12/19/2021  21:08:00      -26.987      -11.985       -8.435       62.025       74.413       40.902     3847.110     5537.294     1672.962        0.600        0.553       29.529       35.694        1.461      330.853       -1.508      861.712
12/19/2021  21:09:00      -67.338      -20.447       13.165      131.052       63.892       57.194    17174.711     4082.177     3271.171        1.482        1.226       70.374       62.787        0.796      331.042       -1.199      862.030
12/19/2021  21:10:00     -234.583        9.485      -10.097       74.051       62.682       44.119     5483.563     3928.990     1946.460        3.329        0.568      234.775       36.772        0.025      331.107       -1.095      862.171
12/19/2021  21:11:00      -60.626       62.058       -4.073       83.802       35.891       33.220     7022.816     1288.166     1103.546        0.848        0.471       86.756       26.149        0.091      331.093       -1.115      862.053
12/19/2021  21:12:00      122.113      130.790      -24.466       62.433       41.321       29.797     3897.869     1707.433      887.891        1.955        0.325      178.935       21.110        0.014      331.172       -0.987      861.732
12/19/2021  21:13:00      158.414       67.180      -11.306       59.620       62.047       39.625     3554.545     3849.776     1570.140        1.935        0.449      172.070       29.002        0.028      330.951       -1.348      861.511
12/19/2021  21:14:00       34.573      -67.139      -37.298       49.798       60.488       32.197     2479.867     3658.825     1036.673        0.713        0.359       75.518       25.532        0.114      331.009       -1.252      861.665
12/19/2021  21:15:00        4.572      -63.725      -19.435       42.461       56.634       28.192     1802.917     3207.416      794.797        0.513        0.290       63.889       21.383        0.112      331.235       -0.880      861.904
12/19/2021  21:16:00       -0.547      -25.019      -22.863       36.953       52.036       32.557     1365.523     2707.789     1059.981        0.314        0.257       25.025       26.422        1.115      331.308       -0.759      861.982
12/19/2021  21:17:00       74.188       89.979      -16.921       49.062       33.637       21.173     2407.108     1131.415      448.289        0.894        0.199      116.620       15.915        0.019      331.248       -0.858      861.815
12/19/2021  21:18:00       74.011       75.663       -5.859       54.245       49.387       29.879     2942.483     2439.062      892.746        0.875        0.314      105.842       25.616        0.059      331.138       -1.040      861.607
12/19/2021  21:19:00       13.342       31.640       -3.593       22.086       35.922       20.842      487.790     1290.387      434.401        0.170        0.111       34.338        7.615        0.049      331.147       -1.025      861.708
12/19/2021  21:20:00      -21.161      -21.109       -3.042       36.138       33.868       21.830     1305.959     1147.035      476.569        0.192        0.146       29.890       14.642        0.240      331.183       -0.966      861.953
12/19/2021  21:21:00      -67.597       14.495        3.161       50.884       55.108       31.945     2589.206     3036.838     1020.508        0.572        0.332       69.134       21.630        0.098      331.134       -1.047      862.034
12/19/2021  21:22:00     -101.722       10.809       -1.886       60.035       35.301       20.752     3604.172     1246.142      430.635        0.787        0.264      102.295       27.215        0.071      331.105       -1.096      862.038
12/19/2021  21:23:00      -25.746        0.343       -1.768       30.881       27.356       23.301      953.630      748.323      542.926        0.146        0.112       25.748       19.251        0.559      331.227       -0.892      862.054
12/19/2021  21:24:00       31.171       22.257      -15.210       41.232       32.938       20.579     1700.100     1084.905      423.495        0.245        0.160       38.302       17.477        0.208      331.153       -1.015      861.979
12/19/2021  21:25:00       65.190       15.951       -2.845       42.881       34.036       31.520     1838.775     1158.434      993.492        0.425        0.200       67.113       12.640        0.035      330.864       -1.490      861.741
12/19/2021  21:26:00       44.996       67.709       -7.091       60.219       60.640       32.698     3626.369     3677.168     1069.127        0.751        0.419       81.297       22.859        0.079      330.816       -1.568      861.585
12/19/2021  21:27:00       18.261       -7.362        4.518       48.781       75.613       39.515     2379.552     5717.303     1561.443        0.503        0.483       19.689       24.517        1.551      330.914       -1.408      861.786
12/19/2021  21:28:00     -158.277      -25.774       -0.669      138.414       60.113       40.612    19158.366     3613.618     1649.375        2.506        1.221      160.361       52.134        0.106      330.861       -1.496      862.044
12/19/2021  21:29:00      -63.147      -93.918      -25.373       72.112       56.952       40.375     5200.197     3243.551     1630.119        1.176        0.504      113.173       29.331        0.067      331.041       -1.199      862.058
12/19/2021  21:30:00       76.830       10.739      -55.914       55.629       70.868       49.201     3094.538     5022.310     2420.730        0.984        0.527       77.577       25.163        0.105      331.005       -1.260      861.902
12/19/2021  21:31:00       85.492        8.599       -5.454       68.140       67.477       49.070     4643.016     4553.129     2407.825        0.951        0.580       85.923       31.040        0.130      330.945       -1.357      861.727
12/19/2021  21:32:00       72.853       41.293      -15.279       96.887       41.671       29.406     9387.078     1736.461      864.711        0.961        0.599       83.741       27.334        0.107      330.813       -1.575      861.687
12/19/2021  21:33:00      -36.374       19.040      -24.381       85.380       38.052       30.484     7289.746     1447.939      929.267        0.597        0.483       41.056       21.372        0.271      330.880       -1.465      861.817
12/19/2021  21:34:00       -4.245      -31.032       -6.866       38.630       48.587       33.170     1492.240     2360.673     1100.246        0.299        0.248       31.321       17.999        0.330      330.910       -1.415      861.924
12/19/2021  21:35:00      -33.382       -1.471       -5.025       17.871       22.996       18.148      319.360      528.804      329.333        0.116        0.059       33.415       11.115        0.111      330.946       -1.356      861.899
12/19/2021  21:36:00      -49.751      -36.084      -22.293       26.449       36.159       14.181      699.535     1307.467      201.089        0.324        0.110       61.459       16.614        0.073      331.020       -1.236      861.942
12/19/2021  21:37:00      -35.388      -46.264      -25.272       49.589       40.007       34.359     2459.024     1600.525     1180.548        0.463        0.262       58.246       11.446        0.039      331.156       -1.011      862.094
12/19/2021  21:38:00      -15.744       10.421      -12.677       55.659       41.146       17.897     3097.897     1692.958      320.310        0.281        0.256       18.880        9.284        0.242      331.117       -1.073      862.066
12/19/2021  21:39:00      127.454       74.536      -14.779       44.152       31.778       23.871     1949.426     1009.825      569.840        1.277        0.176      147.649       18.756        0.016      330.974       -1.311      861.817
12/19/2021  21:40:00       58.177       10.116        5.376       64.741       40.680       28.699     4191.415     1654.878      823.627        0.509        0.333       59.050       28.098        0.226      330.893       -1.442      861.668
12/19/2021  21:41:00       -7.014       50.610      -19.521       28.635       41.747       24.375      819.937     1742.811      594.123        0.307        0.158       51.094       11.743        0.053      330.908       -1.417      861.797
12/19/2021  21:42:00      -42.797      -12.893        5.142       74.344       47.802       38.665     5526.982     2285.015     1494.966        0.566        0.465       44.697       32.905        0.542      330.904       -1.426      861.994
12/19/2021  21:43:00      -37.684      -15.679        2.602       85.700       58.372       52.986     7344.557     3407.334     2807.531        0.761        0.678       40.816       44.357        1.181      330.812       -1.577      862.143
12/19/2021  21:44:00      -82.875       27.532        0.639       48.359       32.483       25.710     2338.547     1055.165      660.999        0.584        0.203       87.328       12.547        0.021      330.806       -1.585      862.163
12/19/2021  21:45:00       59.999       65.910       -9.903       41.343       18.225       21.431     1709.265      332.167      459.282        0.527        0.125       89.129       18.378        0.043      330.783       -1.622      862.014
12/19/2021  21:46:00       80.758       54.432       -9.567       36.383       33.647       28.718     1323.687     1132.098      824.731        0.643        0.164       97.390       17.548        0.032      330.723       -1.720      861.852
12/19/2021  21:47:00        4.309       41.680       -9.383       31.658       23.643       23.194     1002.206      558.992      537.951        0.197        0.105       41.902       16.780        0.160      330.789       -1.614      861.884
12/19/2021  21:48:00      -25.450        1.384       -9.021       53.712       42.531       27.634     2884.954     1808.850      763.631        0.309        0.273       25.488       23.293        0.835      330.766       -1.652      862.030
12/19/2021  21:49:00       -3.603      -19.412      -13.964       26.179       45.203       20.117      685.325     2043.332      404.703        0.186        0.157       19.743       12.185        0.381      330.809       -1.580      862.081
12/19/2021  21:50:00       57.762       18.727      -12.847       55.700       37.363       29.947     3102.502     1396.016      896.808        0.462        0.270       60.722       11.805        0.038      330.711       -1.741      861.947
12/19/2021  21:51:00      104.223       21.476      -17.924       49.275       41.962       28.896     2427.982     1760.796      834.980        0.833        0.251      106.413       23.343        0.048      330.762       -1.657      861.839
12/19/2021  21:52:00       -0.282       10.110      -10.295       40.779       27.662       21.066     1662.899      765.187      443.797        0.154        0.144       10.114       15.268        2.279      330.805       -1.586      861.924
12/19/2021  21:53:00      -13.967        0.634       -6.320       41.034       44.862       30.563     1683.765     2012.567      934.126        0.243        0.232       13.981       25.940        3.442      330.832       -1.543      862.051
12/19/2021  21:54:00      -53.389        1.009        5.456       50.084       35.350       27.587     2508.400     1249.655      761.029        0.370        0.226       53.398       22.999        0.186      330.861       -1.495      862.076
12/19/2021  21:55:00       -9.611       -1.841        5.165       35.621       25.608       21.349     1268.847      655.765      455.784        0.125        0.119        9.786       18.069        3.409      330.885       -1.455      862.074
12/19/2021  21:56:00       34.384       13.715      -18.136       32.649       37.722       18.349     1065.986     1422.965      336.676        0.226        0.141       37.018       13.080        0.125      330.876       -1.470      862.079
12/19/2021  21:57:00       83.315       -5.328       -3.507       81.182       59.956       34.612     6590.512     3594.672     1197.996        0.918        0.569       83.486       27.148        0.106      330.775       -1.636      861.931
12/19/2021  21:58:00      140.309       21.014       -7.581       80.793       64.523       51.274     6527.584     4163.210     2628.980        1.675        0.666      141.874       34.835        0.060      330.562       -1.987      861.720
12/19/2021  21:59:00       -6.475       19.642      -20.699      132.647       35.328       23.867    17595.213     1248.047      569.630        1.013        0.971       20.682       32.845        2.522      330.587       -1.945      861.744
12/19/2021  22:00:00      -53.256        1.580       -1.723      106.133       58.228       59.002    11264.271     3390.489     3481.266        1.049        0.907       53.280       44.451        0.696      330.688       -1.779      862.008
12/19/2021  22:01:00     -176.638       -2.948        1.959      143.109       74.417       67.984    20480.205     5537.863     4621.804        3.092        1.532      176.663       75.988        0.185      330.828       -1.550      862.179
12/19/2021  22:02:00       36.807       14.218       -9.519       58.707       40.897       34.803     3446.463     1672.529     1211.277        0.399        0.317       39.458       16.909        0.184      330.960       -1.332      862.058
12/19/2021  22:03:00      148.835        9.402      -19.028      109.576       65.706       48.242    12007.005     4317.279     2327.338        2.062        0.933      149.132       41.101        0.076      330.970       -1.319      861.770
12/19/2021  22:04:00      147.632       21.071       -4.653       95.154       50.220       39.921     9054.345     2522.005     1593.702        1.771        0.659      149.128       33.094        0.049      330.867       -1.487      861.652
12/19/2021  22:05:00      -11.140       -1.777      -15.211       31.453       24.198       23.887      989.294      585.532      570.580        0.125        0.107       11.280       13.197        1.369      330.807       -1.583      861.819
12/19/2021  22:06:00     -129.115       -8.981        3.171      127.055       50.113       45.473    16143.044     2511.308     2067.777        1.874        1.036      129.427       31.911        0.061      330.907       -1.422      862.007
12/19/2021  22:07:00     -156.933       11.767      -14.040       82.338       47.540       39.349     6779.495     2260.005     1548.367        1.777        0.529      157.373       42.715        0.074      330.952       -1.347      862.042
12/19/2021  22:08:00      -80.000       30.635      -12.890       40.452       29.626       21.058     1636.354      877.687      443.458        0.523        0.148       85.665        7.864        0.008      330.851       -1.511      861.990
12/19/2021  22:09:00      -49.285       15.168      -11.168       41.641       24.287       19.609     1734.003      589.842      384.497        0.275        0.135       51.567       14.932        0.084      330.920       -1.398      862.013
12/19/2021  22:10:00      -49.538       -8.328       -0.148       55.459       34.179       25.832     3075.667     1168.195      667.309        0.372        0.246       50.233       19.415        0.149      330.931       -1.382      862.087
12/19/2021  22:11:00      -55.456       25.085       -3.584       45.773       39.174       23.204     2095.171     1534.609      538.417        0.394        0.208       60.866       22.955        0.142      330.735       -1.703      862.070
12/19/2021  22:12:00       12.381       64.835       -7.131       38.348       30.749       21.933     1470.566      945.490      481.069        0.365        0.145       66.006       16.421        0.062      330.502       -2.085      861.911
12/19/2021  22:13:00       65.501       76.723      -17.159       30.562       33.588       17.950      934.066     1128.123      322.191        0.643        0.119      100.880       12.986        0.017      330.581       -1.955      861.816
12/19/2021  22:14:00        0.053        0.889       -8.737       26.432       46.232       19.894      698.664     2137.430      395.772        0.165        0.162        0.891       18.380      425.741      330.775       -1.638      861.945
12/19/2021  22:15:00      -36.592       -3.737        9.320       73.779       46.163       34.651     5443.340     2131.035     1200.684        0.511        0.439       36.782       28.583        0.604      330.728       -1.714      862.036
12/19/2021  22:16:00     -127.244       26.824        0.997       62.339       56.461       31.448     3886.203     3187.852      988.992        1.249        0.403      130.041       29.826        0.053      330.577       -1.961      861.977
12/19/2021  22:17:00     -168.108       55.657        2.252       51.008       43.540       27.328     2601.822     1895.746      746.811        1.830        0.262      177.082       25.088        0.020      330.509       -2.073      861.921
12/19/2021  22:18:00     -124.517       17.221       -5.236       60.255       39.401       30.891     3630.642     1552.433      954.239        1.098        0.307      125.702       26.699        0.045      330.575       -1.965      861.950
12/19/2021  22:19:00      -18.431       13.900       -0.044       25.878       32.534       24.280      669.658     1058.469      589.501        0.142        0.116       23.085       13.886        0.362      330.579       -1.957      861.982
12/19/2021  22:20:00      -44.666      -17.242       -1.201       27.366       16.672       12.613      748.882      277.970      159.079        0.174        0.059       47.878       10.171        0.045      330.745       -1.684      861.995
12/19/2021  22:21:00       -7.138       34.995      -10.662       19.824       12.561       17.340      392.982      157.775      300.670        0.112        0.043       35.715        8.506        0.057      330.617       -1.896      862.012
12/19/2021  22:22:00      -40.451       36.638       -9.804       13.737       17.454        8.125      188.705      304.647       66.020        0.182        0.028       54.576        7.538        0.019      330.609       -1.908      862.012
12/19/2021  22:23:00      -72.457       43.649      -13.887       38.349       23.019       17.526     1470.629      529.892      307.164        0.483        0.115       84.589       16.611        0.039      330.511       -2.070      862.004
12/19/2021  22:24:00      -76.543       11.583       -7.858       76.771       36.633       28.255     5893.727     1342.001      798.364        0.704        0.402       77.414       28.134        0.132      330.446       -2.176      862.047
12/19/2021  22:25:00       -6.044        7.840      -10.247       51.069       30.399       29.534     2608.008      924.122      872.253        0.230        0.220        9.899       24.728        6.240      330.469       -2.139      862.095
12/19/2021  22:26:00       -5.737        7.214       -7.180       17.572       18.902       19.730      308.776      357.287      389.268        0.060        0.053        9.217        5.685        0.380      330.438       -2.189      862.041
12/19/2021  22:27:00       41.122       64.128       -5.584       41.983       32.999       24.777     1762.532     1088.910      613.900        0.465        0.173       76.181       18.616        0.060      330.379       -2.286      861.888
12/19/2021  22:28:00        8.297       80.568      -23.445       60.501       52.935       20.344     3660.384     2802.081      413.867        0.699        0.344       80.994       14.976        0.034      330.514       -2.064      861.841
12/19/2021  22:29:00        0.570      -20.839       -3.212       78.262       51.718       45.775     6124.899     2674.728     2095.317        0.567        0.545       20.847       47.884        5.276      330.521       -2.055      862.037
12/19/2021  22:30:00      -79.449       -8.617        0.347      117.789       45.311       40.071    13874.247     2053.078     1605.698        1.196        0.877       79.915       44.471        0.310      330.355       -2.326      862.192
12/19/2021  22:31:00      -96.665       51.931      -22.606       54.978       48.364       24.866     3022.618     2339.047      618.338        0.926        0.299      109.731       17.948        0.027      330.272       -2.460      862.098
12/19/2021  22:32:00       22.162       72.916      -12.296       55.168       29.834       17.366     3043.465      890.083      301.585        0.510        0.212       76.210       17.042        0.050      330.333       -2.361      861.903
12/19/2021  22:33:00       50.895       11.102      -17.800       42.970       50.836       21.061     1846.395     2584.309      443.584        0.395        0.244       52.091       13.144        0.064      330.317       -2.385      861.871
12/19/2021  22:34:00       16.119      -66.711      -20.948       32.046       22.450       25.164     1026.926      504.004      633.239        0.366        0.108       68.631       15.848        0.053      330.441       -2.184      862.048
12/19/2021  22:35:00      -75.515      -15.210      -18.202       56.404       49.542       37.631     3181.448     2454.392     1416.110        0.666        0.353       77.031       25.250        0.107      330.614       -1.901      862.208
12/19/2021  22:36:00     -110.976       22.076       -9.311       61.624       32.895       22.385     3797.513     1082.083      501.080        0.913        0.269      113.150       23.467        0.043      330.531       -2.037      862.171
12/19/2021  22:37:00     -111.478       86.804      -21.146       16.053       16.544       14.580      257.696      273.689      212.566        1.058        0.037      141.288        5.643        0.002      330.411       -2.233      862.006
12/19/2021  22:38:00     -126.435       84.089      -27.777       27.405       40.810       20.982      751.032     1665.465      440.247        1.334        0.143      151.845       13.331        0.008      330.369       -2.301      861.970
12/19/2021  22:39:00     -101.926       24.311       -9.609       69.676       33.896       28.727     4854.800     1148.909      825.258        0.895        0.341      104.785       29.614        0.080      330.341       -2.348      862.035
12/19/2021  22:40:00      -85.580       34.775      -20.211       42.412       25.208       23.424     1798.795      635.438      548.680        0.596        0.149       92.376       19.426        0.044      330.364       -2.311      862.032
12/19/2021  22:41:00      -83.213       -8.145      -11.670       65.299       36.362       33.124     4263.905     1322.209     1097.172        0.690        0.334       83.611       28.763        0.118      330.295       -2.422      862.109
12/19/2021  22:42:00      -85.504      -11.229       -3.687       42.256       41.440       27.389     1785.580     1717.268      750.152        0.585        0.213       86.238       24.277        0.079      330.324       -2.375      862.204
12/19/2021  22:43:00      -84.989       14.186      -12.448       35.556       35.182       21.019     1264.264     1237.738      441.793        0.526        0.147       86.165       21.749        0.064      330.318       -2.387      862.170
12/19/2021  22:44:00      -22.335       34.765       -5.982        9.067       10.215        8.706       82.205      104.346       75.787        0.100        0.013       41.321        5.810        0.020      330.401       -2.252      862.107
12/19/2021  22:45:00       10.915       25.120       -8.985       17.763        8.370        6.980      315.515       70.049       48.718        0.063        0.022       27.389        4.865        0.032      330.481       -2.120      862.113
12/19/2021  22:46:00       36.762       34.819       -5.613       13.276       15.510        7.871      176.243      240.550       61.947        0.154        0.024       50.634        5.860        0.013      330.433       -2.197      862.101
12/19/2021  22:47:00       -3.123      -24.654       -5.154       13.400       25.045       15.955      179.553      627.258      254.563        0.085        0.053       24.851       13.402        0.291      330.556       -1.995      862.122
12/19/2021  22:48:00        5.975      -13.865       -0.803       26.995       22.817       18.415      728.722      520.605      339.118        0.091        0.079       15.098        3.584        0.056      330.546       -2.013      862.214
12/19/2021  22:49:00      -78.629       -1.927        2.301       39.289       36.791       25.391     1543.649     1353.569      644.704        0.487        0.177       78.653       16.564        0.044      330.488       -2.106      862.248
12/19/2021  22:50:00      -12.792       24.877       -8.164       39.990       13.658       11.198     1599.191      186.535      125.388        0.138        0.096       27.973        7.255        0.067      330.610       -1.906      862.142
12/19/2021  22:51:00       62.993       36.934       -7.699       18.748       34.541       10.969      351.492     1193.070      120.311        0.353        0.083       73.022        8.364        0.013      330.408       -2.237      862.033
12/19/2021  22:52:00       35.729      -49.833      -27.334       28.768       26.669       18.235      827.611      711.242      332.533        0.319        0.094       61.318       16.466        0.072      330.354       -2.326      862.103
12/19/2021  22:53:00      -28.280      -35.771      -26.665       32.666       28.229       15.619     1067.044      796.890      243.954        0.245        0.105       45.600        4.603        0.010      330.517       -2.059      862.235
12/19/2021  22:54:00        8.024       22.746        1.942       31.504       22.261       13.456      992.498      495.548      181.066        0.113        0.083       24.120       15.061        0.390      330.455       -2.161      862.230
12/19/2021  22:55:00       87.411       37.856       -9.777       19.724       20.449       11.455      389.018      418.145      131.221        0.505        0.047       95.256        4.600        0.002      330.359       -2.317      862.148
12/19/2021  22:56:00       31.275        6.851       -3.652       21.044       11.404        9.291      442.844      130.047       86.324        0.085        0.033       32.017        9.129        0.081      330.249       -2.499      862.157
12/19/2021  22:57:00        3.270        6.707       -5.183        8.015        5.179        4.821       64.247       26.821       23.241        0.010        0.006        7.461        2.929        0.154      330.292       -2.430      862.227
12/19/2021  22:58:00      -16.396       45.360       -6.104       14.758       14.958        5.665      217.795      223.754       32.096        0.142        0.024       48.233        4.752        0.010      330.343       -2.343      862.221
12/19/2021  22:59:00      -12.874       55.735       -4.969       14.163       19.236        9.862      200.585      370.035       97.260        0.198        0.033       57.202        5.264        0.008      330.380       -2.285      862.142
12/19/2021  23:00:00      -55.624       20.404      -12.202       41.775       28.496       17.105     1745.158      812.017      292.567        0.325        0.142       59.249       19.819        0.112      330.370       -2.301      862.139
12/19/2021  23:01:00      -22.151      -15.215        7.340       40.059       31.710       28.348     1604.709     1005.555      803.613        0.209        0.171       26.873       23.583        0.770      330.366       -2.309      862.188
12/19/2021  23:02:00      -24.036       15.032       -0.667       35.951       25.629       19.686     1292.445      656.834      387.519        0.157        0.117       28.350       14.502        0.262      330.406       -2.241      862.177
12/19/2021  23:03:00      -59.812       47.789       -3.269       31.840       23.763       18.988     1013.804      564.697      360.562        0.391        0.097       76.559       14.143        0.034      330.394       -2.260      862.169
12/19/2021  23:04:00      -99.703       77.212      -20.317       30.333       27.579       16.654      920.082      760.620      277.369        0.914        0.098      126.104       13.254        0.011      330.256       -2.487      862.186
12/19/2021  23:05:00      -70.798       34.761      -23.031       29.360       23.842       16.962      862.032      568.450      287.719        0.423        0.086       78.872       10.009        0.016      330.215       -2.555      862.195
12/19/2021  23:06:00      -19.700       -3.450       -9.253       31.560       30.831       16.287      996.063      950.557      265.279        0.135        0.111       20.000       13.143        0.432      330.210       -2.564      862.240
12/19/2021  23:07:00      -68.253       -7.287        4.184       46.851       27.030       24.676     2195.032      730.627      608.896        0.413        0.177       68.641       23.789        0.120      330.176       -2.620      862.321
12/19/2021  23:08:00       -7.328       29.265      -10.517       30.832       26.395       19.929      950.630      696.699      397.160        0.153        0.102       30.168       12.951        0.184      330.283       -2.443      862.329
12/19/2021  23:09:00       81.146       71.222      -16.582       24.929       33.663       22.100      621.461     1133.207      488.406        0.709        0.112      107.969       11.423        0.011      330.434       -2.195      862.247
12/19/2021  23:10:00       13.770       52.401       -8.375       36.684       29.145       17.260     1345.740      849.404      297.915        0.275        0.125       54.180       14.608        0.073      330.328       -2.369      862.240
12/19/2021  23:11:00      -61.354       14.021      -24.880       75.755       37.005       25.197     5738.785     1369.342      634.891        0.616        0.387       62.935       19.218        0.093      330.249       -2.500      862.339
12/19/2021  23:12:00      -19.116      -27.773        1.319       36.613       27.151       29.627     1340.515      737.193      877.733        0.205        0.148       33.716       18.953        0.316      330.336       -2.355      862.366
12/19/2021  23:13:00       68.165       12.381      -24.803       48.400       55.708       34.337     2342.549     3103.410     1179.055        0.602        0.331       69.280       18.456        0.071      330.231       -2.528      862.205
12/19/2021  23:14:00       32.213       -3.652      -25.802       59.654       60.888       38.586     3558.635     3707.313     1488.857        0.523        0.438       32.419       22.485        0.481      330.107       -2.733      862.068
12/19/2021  23:15:00      -14.012      -37.656      -11.661       37.121       27.205       21.492     1378.000      740.107      461.887        0.216        0.129       40.178       15.764        0.154      330.089       -2.761      862.159
12/19/2021  23:16:00        9.559      -15.650      -15.423       27.990       52.086       21.166      783.431     2712.979      447.995        0.226        0.197       18.338       14.399        0.617      330.289       -2.433      862.336
12/19/2021  23:17:00      -46.592       10.471      -17.316       75.915       24.024       17.009     5763.131      577.135      289.292        0.460        0.331       47.755       12.632        0.070      330.364       -2.309      862.422
12/19/2021  23:18:00       59.528       51.645      -12.617       59.085       41.703       21.533     3490.990     1739.151      463.688        0.603        0.285       78.808       24.441        0.096      330.235       -2.522      862.302
12/19/2021  23:19:00      121.125       20.565      -16.452       63.831       58.363       44.460     4074.394     3406.187     1976.698        1.241        0.473      122.859       28.131        0.052      330.174       -2.622      862.077
12/19/2021  23:20:00       39.459      -63.881      -29.217       45.985       86.649       37.561     2114.583     7508.057     1410.854        0.876        0.552       75.085       34.003        0.205      330.018       -2.878      862.101
12/19/2021  23:21:00       -0.289      -57.083       -9.589       40.868       35.657       35.911     1670.162     1271.452     1289.568        0.379        0.212       57.083       20.770        0.132      330.212       -2.558      862.398
12/19/2021  23:22:00      -28.946       -7.140       -9.680       48.164       40.478       35.175     2319.729     1638.491     1237.246        0.309        0.260       29.814       10.463        0.123      330.440       -2.185      862.591
12/19/2021  23:23:00      -31.528       35.287       -5.868       68.882       38.263       31.124     4744.696     1464.081      968.702        0.472        0.359       47.321       19.101        0.163      330.334       -2.360      862.502
12/19/2021  23:24:00       27.779       59.465       -3.612       31.293       29.991       21.820      979.239      899.454      476.120        0.334        0.118       65.633       13.441        0.042      330.261       -2.480      862.303
12/19/2021  23:25:00      -40.719       47.257      -18.723       34.747       18.212       13.242     1207.372      331.678      175.359        0.298        0.086       62.380        9.380        0.023      330.326       -2.374      862.272
12/19/2021  23:26:00      -14.239       -6.309      -10.603       41.096       22.055       22.274     1688.877      486.424      496.148        0.151        0.134       15.575       19.364        1.546      330.297       -2.418      862.333
12/19/2021  23:27:00       41.019       17.227      -19.360       42.719       43.447       25.090     1824.902     1887.681      629.514        0.335        0.217       44.490       11.207        0.063      330.196       -2.585      862.311
12/19/2021  23:28:00       29.771        2.998      -32.380       47.175       52.443       41.626     2225.479     2750.259     1732.752        0.432        0.335       29.922       27.990        0.875      330.045       -2.831      862.318
12/19/2021  23:29:00       28.372      -64.327      -29.516       44.262       65.749       31.274     1959.111     4322.989      978.083        0.654        0.363       70.307       14.605        0.043      330.101       -2.742      862.415
12/19/2021  23:30:00       23.005      -63.151      -19.923       34.110       40.156       35.381     1163.504     1612.519     1251.795        0.447        0.201       67.211       28.188        0.176      330.327       -2.370      862.522
12/19/2021  23:31:00     -120.462        6.128       -6.979       60.188       52.893       36.676     3622.542     2797.696     1345.135        1.118        0.388      120.618       18.302        0.023      330.190       -2.595      862.558
12/19/2021  23:32:00      -32.606       42.443       -8.381       72.852       33.037       21.670     5307.362     1091.422      469.589        0.490        0.343       53.522       20.026        0.140      330.137       -2.684      862.429
12/19/2021  23:33:00      124.686       93.176      -17.597       43.710       33.446       22.623     1910.562     1118.649      511.806        1.404        0.177      155.655       13.968        0.008      330.167       -2.635      862.173
12/19/2021  23:34:00       92.520        7.884      -21.228       52.319       44.274       29.249     2737.268     1960.227      855.483        0.731        0.278       92.855       22.416        0.058      329.987       -2.931      862.105
12/19/2021  23:35:00       31.748       13.443       -4.219       41.745       28.711       16.827     1742.612      824.304      283.132        0.203        0.143       34.477       16.891        0.240      329.890       -3.087      862.215
12/19/2021  23:36:00       18.818      -55.538      -31.169       15.949       17.874       13.525      254.362      319.478      182.933        0.258        0.038       58.640        8.076        0.019      329.949       -2.989      862.350
12/19/2021  23:37:00      -65.279      -16.661      -12.713       89.260       41.194       33.347     7967.414     1696.930     1112.003        0.774        0.539       67.371        9.894        0.022      330.173       -2.625      862.512
12/19/2021  23:38:00      -72.880        9.063       -7.233       39.779       48.905       32.188     1582.339     2391.690     1036.077        0.523        0.251       73.442       18.095        0.061      330.322       -2.378      862.535
12/19/2021  23:39:00      -64.494       97.804       -9.396       25.510       27.192       16.688      650.739      739.396      278.496        0.774        0.083      117.154       14.573        0.015      330.188       -2.599      862.407
12/19/2021  23:40:00      -35.710      129.909       -4.596       36.938       37.327       24.884     1364.440     1393.274      619.194        1.077        0.169      134.728       15.250        0.013      330.200       -2.580      862.325
12/19/2021  23:41:00      -62.399       21.588      -11.231       42.575       55.867       22.663     1812.658     3121.091      513.614        0.497        0.272       66.027       18.066        0.075      330.153       -2.658      862.427
12/19/2021  23:42:00       18.644        8.625      -20.864       27.403       35.847       21.550      750.905     1285.021      464.383        0.168        0.125       20.542        8.253        0.161      330.073       -2.788      862.503
12/19/2021  23:43:00      103.466        8.459      -36.787       67.938       56.705       32.225     4615.513     3215.500     1038.429        1.050        0.443      103.811        7.745        0.006      330.025       -2.866      862.331
12/19/2021  23:44:00      222.035       36.798      -11.987       55.080       41.652       32.669     3033.844     1734.881     1067.248        2.832        0.292      225.063       28.912        0.017      329.929       -3.028      862.154
12/19/2021  23:45:00       62.569       -1.798      -16.814       65.759       15.700       15.809     4324.192      246.497      249.937        0.451        0.241       62.595        9.910        0.025      329.905       -3.064      862.315
12/19/2021  23:46:00       -3.608      -14.085       -5.074       63.436       56.912       35.088     4024.125     3238.944     1231.135        0.436        0.425       14.540       24.621        2.867      330.139       -2.680      862.572
12/19/2021  23:47:00      -50.508      -17.259        4.502       69.272       45.237       34.789     4798.661     2046.350     1210.296        0.546        0.403       53.376       33.323        0.390      330.136       -2.685      862.646
12/19/2021  23:48:00       -9.291       42.974      -19.940       75.374       55.103       26.271     5681.282     3036.320      690.159        0.587        0.470       43.967       21.196        0.232      330.024       -2.869      862.498
12/19/2021  23:49:00       50.175       51.995      -15.269       34.730       36.048       18.845     1206.206     1299.433      355.134        0.416        0.143       72.257       16.022        0.049      329.934       -3.017      862.296
12/19/2021  23:50:00      -18.036      -40.327      -15.439       29.545       28.732       20.996      872.883      825.528      440.821        0.216        0.107       44.176       15.119        0.117      329.958       -2.975      862.326
12/19/2021  23:51:00      -12.510       -3.179      -16.062       37.242       55.856       26.151     1386.967     3119.925      683.868        0.281        0.260       12.908       17.949        1.934      330.154       -2.655      862.441
12/19/2021  23:52:00     -110.695       -7.713       -8.320       64.926       46.129       34.044     4215.355     2127.855     1159.019        0.994        0.375      110.963       27.030        0.059      330.042       -2.839      862.441
12/19/2021  23:53:00      -30.813      -12.507       -1.991       36.603       24.740       24.483     1339.810      612.080      599.404        0.183        0.128       33.254       13.941        0.176      330.059       -2.811      862.408
12/19/2021  23:54:00      -43.324      -39.134      -13.048       22.801       23.026       19.741      519.867      530.211      389.713        0.251        0.072       58.381       11.305        0.037      330.169       -2.633      862.478
12/19/2021  23:55:00       26.821      -69.578      -25.297       48.499       57.144       29.349     2352.124     3265.427      861.341        0.634        0.324       74.569       25.669        0.119      330.154       -2.655      862.584
12/19/2021  23:56:00       98.975      -27.471      -24.807       38.314       46.237       24.480     1467.956     2137.891      599.248        0.768        0.210      102.716       12.639        0.015      330.015       -2.882      862.530
12/19/2021  23:57:00      129.065       35.276      -15.259       15.705       33.590       13.778      246.648     1128.258      189.829        0.985        0.078      133.799        6.440        0.002      329.979       -2.942      862.297
12/19/2021  23:58:00       15.265       32.800       -1.589       64.247       35.394       22.223     4127.641     1252.750      493.871        0.359        0.294       36.178       27.120        0.562      329.929       -3.023      862.183
12/19/2021  23:59:00        7.835        0.817       -9.741       38.524       36.500       29.397     1484.076     1332.218      864.179        0.192        0.184        7.878       21.660        7.559      330.123       -2.707      862.363
12/20/2021  00:00:00       21.401      -34.839        2.064       33.556       45.658       24.190     1126.023     2084.696      585.164        0.274        0.190       40.887       15.385        0.142      330.121       -2.710      862.519
12/20/2021  00:01:00       17.147      -13.406       -7.232       19.653       24.590       25.167      386.242      604.666      633.400        0.107        0.081       21.766        9.234        0.180      330.127       -2.699      862.458
12/20/2021  00:02:00       62.023      -12.864      -31.358       57.586       50.227       47.819     3316.164     2522.782     2286.636        0.656        0.406       63.343       36.856        0.339      330.219       -2.548      862.323
12/20/2021  00:03:00       35.180      -14.460      -17.548       33.802       38.325       29.786     1142.567     1468.784      887.177        0.263        0.175       38.036       21.809        0.329      330.150       -2.662      862.303
12/20/2021  00:04:00       -3.288       -7.179       -9.290       25.381       16.907       12.329      644.171      285.859      151.997        0.062        0.054        7.896        6.661        0.712      330.143       -2.672      862.403
12/20/2021  00:05:00      -53.067       26.708       -9.599       28.922       29.665       19.468      836.505      880.042      379.019        0.286        0.105       59.409       14.034        0.056      330.103       -2.741      862.481
12/20/2021  00:06:00      -37.793      -32.970       -5.987       70.969       38.733       30.597     5036.585     1500.268      936.167        0.501        0.374       50.153       28.327        0.319      330.082       -2.774      862.510
12/20/2021  00:07:00     -150.063        9.547       -7.227       79.070       50.384       43.796     6252.105     2538.539     1918.116        1.668        0.535      150.367       42.443        0.080      329.847       -3.158      862.529
12/20/2021  00:08:00     -133.093        8.540       -6.253       54.347       32.009       30.565     2953.639     1024.560      934.191        1.137        0.246      133.366       26.174        0.039      329.849       -3.156      862.520
12/20/2021  00:09:00      -59.961       61.532      -10.940       29.485       19.547       15.763      869.393      382.086      248.471        0.450        0.075       85.915       10.192        0.014      329.844       -3.162      862.456
12/20/2021  00:10:00       17.692       46.668       -5.102       21.379       18.057       11.302      457.067      326.041      127.726        0.171        0.046       49.909        4.636        0.009      329.892       -3.084      862.385
12/20/2021  00:11:00      100.715       63.853      -15.934       32.374       24.288       17.328     1048.092      589.896      300.254        0.821        0.097      119.251       14.365        0.015      329.832       -3.183      862.260
12/20/2021  00:12:00       83.448       45.717      -13.419       40.364       37.453       25.566     1629.265     1402.700      653.596        0.646        0.184       95.150       15.079        0.025      329.824       -3.196      862.157
12/20/2021  00:13:00       -7.933       17.908      -10.973       33.227       28.535       19.345     1104.015      814.228      374.217        0.140        0.115       19.587       11.148        0.324      329.955       -2.981      862.273
12/20/2021  00:14:00      -65.253      -39.146        2.146      155.964       61.701       45.485    24324.672     3807.051     2068.844        1.799        1.510       76.095       49.355        0.421      329.885       -3.095      862.513
12/20/2021  00:15:00     -205.658        6.590       -5.092      118.122       55.544       44.433    13952.787     3085.104     1974.327        3.068        0.951      205.763       43.917        0.046      329.788       -3.256      862.674
12/20/2021  00:16:00     -163.715      -30.333       -6.067       83.399       53.244       49.854     6955.359     2834.890     2485.442        2.002        0.614      166.501       48.101        0.083      329.782       -3.266      862.677
12/20/2021  00:17:00      -40.347       12.861       -5.880       76.892       28.130       20.605     5912.408      791.287      424.567        0.448        0.356       42.347       12.950        0.094      329.781       -3.268      862.514
12/20/2021  00:18:00      133.276       51.285      -23.533       45.089       61.076       27.237     2033.062     3730.242      741.874        1.372        0.325      142.803       19.748        0.019      329.805       -3.228      862.237
12/20/2021  00:19:00      170.178       34.684       -5.419       85.015       63.516       44.376     7227.548     4034.262     1969.221        2.171        0.662      173.677       45.693        0.069      329.789       -3.256      862.029
12/20/2021  00:20:00       96.826       29.121      -17.059       66.601       41.487       27.036     4435.653     1721.197      730.949        0.870        0.344      101.111       17.743        0.031      329.684       -3.423      862.057
12/20/2021  00:21:00      -10.355       -8.282       -8.139       36.644       50.281       34.904     1342.762     2528.148     1218.255        0.266        0.254       13.260       20.104        2.299      329.860       -3.136      862.251
12/20/2021  00:22:00      -90.198      -30.554       -4.847       89.454       55.834       44.534     8001.981     3117.445     1983.321        1.110        0.655       95.232       39.620        0.173      329.921       -3.037      862.423
12/20/2021  00:23:00     -117.020      -31.031      -22.081       70.444       71.978       51.191     4962.390     5180.832     2620.527        1.395        0.638      121.064       38.204        0.100      330.005       -2.900      862.517
12/20/2021  00:24:00     -240.544      -13.182      -30.634       77.563       57.628       39.689     6015.985     3320.944     1575.209        3.494        0.546      240.905       22.476        0.009      329.779       -3.270      862.556
12/20/2021  00:25:00     -108.138      -13.522       -6.226       99.495       49.445       25.646     9899.311     2444.772      657.705        1.246        0.650      108.980       28.721        0.069      329.690       -3.415      862.500
12/20/2021  00:26:00       21.998      -28.510      -23.494       61.039       41.915       25.996     3725.780     1756.842      675.788        0.400        0.308       36.010       34.014        0.892      329.852       -3.150      862.375
12/20/2021  00:27:00       72.651       -1.704      -16.600       41.381       42.843       29.794     1712.375     1835.510      887.691        0.500        0.222       72.671       24.624        0.115      329.793       -3.247      862.285
12/20/2021  00:28:00       29.992       31.408       -4.047       24.138       18.781       15.155      582.635      352.708      229.664        0.153        0.058       43.428        8.586        0.039      329.771       -3.283      862.274
12/20/2021  00:29:00       94.591       20.393       -9.731       35.546       30.950       23.902     1263.503      957.932      571.309        0.612        0.140       96.765       14.663        0.023      329.716       -3.372      862.211
12/20/2021  00:30:00       39.907       23.864       -5.651       32.172       30.370       19.202     1035.053      922.312      368.706        0.226        0.116       46.498       15.105        0.106      329.649       -3.482      862.180
12/20/2021  00:31:00       -2.551       -2.444      -15.338       47.152       41.480       28.555     2223.351     1720.565      815.383        0.250        0.238        3.533       18.739       28.137      329.795       -3.244      862.322
12/20/2021  00:32:00      -40.620       -0.739        7.567      101.857       51.145       53.600    10374.947     2615.782     2872.931        0.878        0.793       40.626       42.504        1.095      329.867       -3.127      862.556
12/20/2021  00:33:00     -179.792      -18.478      -10.917       99.497       46.795       46.271     9899.614     2189.758     2141.013        2.351        0.712      180.739       38.676        0.046      329.780       -3.271      862.636
12/20/2021  00:34:00       85.449       34.786      -27.345       48.719       64.296       39.638     2373.507     4133.989     1571.198        0.867        0.404       92.258       26.515        0.083      329.889       -3.089      862.399
12/20/2021  00:35:00      228.315       32.928      -21.663      114.290       63.090       49.527    13062.256     3980.294     2452.935        3.658        0.975      230.677       23.500        0.010      329.809       -3.221      862.027
12/20/2021  00:36:00       23.866      -29.782      -33.878      111.546       56.138       48.145    12442.551     3151.477     2317.940        1.025        0.896       38.165       28.970        0.576      329.748       -3.319      862.137
12/20/2021  00:37:00     -138.168       12.503       -5.014      172.823       81.252       62.236    29867.780     6601.968     3873.299        2.980        2.017      138.732       40.030        0.083      329.901       -3.072      862.519
12/20/2021  00:38:00     -304.730        9.024      -25.421      124.794       95.442       60.966    15573.435     9109.159     3716.830        6.099        1.420      304.863       51.988        0.029      329.776       -3.278      862.681
12/20/2021  00:39:00      -55.566      -30.797        1.109       68.071       85.914       39.407     4633.648     7381.209     1552.906        0.880        0.678       63.529       26.384        0.172      329.659       -3.464      862.581
12/20/2021  00:40:00       26.597       62.674      -21.182       34.311       44.883       29.459     1177.251     2014.520      867.813        0.457        0.203       68.084       25.766        0.143      329.717       -3.371      862.299
12/20/2021  00:41:00      -23.217      105.106      -23.589       35.251       41.767       27.420     1242.667     1744.502      751.855        0.794        0.187      107.640       12.768        0.014      329.782       -3.264      862.205
12/20/2021  00:42:00      -31.776       17.508       -7.141       41.287       53.167       31.008     1704.589     2826.697      961.521        0.343        0.275       36.281       27.390        0.570      329.713       -3.377      862.339
12/20/2021  00:43:00      -23.172      -50.348      -26.564       33.090       43.457       24.897     1094.927     1888.468      619.885        0.369        0.180       55.425       23.663        0.182      329.717       -3.371      862.467
12/20/2021  00:44:00      -29.810      -10.189       -9.070       54.258       56.793       22.300     2943.928     3225.390      497.305        0.387        0.333       31.503       15.949        0.256      329.811       -3.216      862.490
12/20/2021  00:45:00       36.180        0.366      -32.599       37.053       28.259       28.624     1372.927      798.588      819.343        0.268        0.150       36.182       18.654        0.266      329.760       -3.300      862.370
12/20/2021  00:46:00      -25.025       55.313       -5.343       46.897       40.309       18.661     2199.306     1624.794      348.217        0.394        0.209       60.711       21.685        0.128      329.726       -3.356      862.259
12/20/2021  00:47:00     -167.059       66.059      -38.556       53.649       40.853       27.601     2878.233     1668.965      761.821        1.953        0.265      179.645       19.604        0.012      329.710       -3.385      862.264
12/20/2021  00:48:00      -44.992       23.001      -13.844       85.082       67.244       44.675     7239.007     4521.790     1995.886        0.825        0.688       50.530       43.768        0.750      329.629       -3.513      862.311
12/20/2021  00:49:00      -59.827      -43.972      -17.824       41.154       53.160       27.246     1693.622     2826.030      742.345        0.555        0.263       74.249       18.136        0.060      329.571       -3.610      862.415
12/20/2021  00:50:00      -66.223      -48.665      -17.250       45.461       23.820       25.181     2066.674      567.414      634.062        0.516        0.163       82.181       18.678        0.052      329.806       -3.224      862.524
12/20/2021  00:51:00       41.207      -19.445       -0.388       51.502       54.193       39.076     2652.507     2936.893     1526.946        0.460        0.356       45.565       32.049        0.495      329.805       -3.226      862.534
12/20/2021  00:52:00      117.851       63.393      -24.133       40.068       57.790       25.629     1605.419     3339.687      656.869        1.204        0.280      133.819       15.135        0.013      329.701       -3.396      862.352
12/20/2021  00:53:00       93.817      147.564      -20.395       44.077       46.034       38.322     1942.769     2119.152     1468.613        1.826        0.277      174.862       31.503        0.032      329.835       -3.178      862.118
12/20/2021  00:54:00       -2.710       41.267      -21.612       47.879      119.754       35.188     2292.363    14341.133     1238.210        1.002        0.894       41.356       36.575        0.782      329.748       -3.321      862.239
12/20/2021  00:55:00     -116.459      -76.632      -12.939      104.477       90.257       38.387    10915.516     8146.299     1473.558        2.007        1.027      139.410       37.557        0.073      329.775       -3.278      862.576
12/20/2021  00:56:00     -167.709      -85.440      -28.063       74.479      102.265       64.008     5547.158    10458.042     4097.073        2.815        1.005      188.219       39.446        0.044      329.840       -3.172      862.744
12/20/2021  00:57:00       -2.747       32.630       -6.838       46.092       33.716       28.905     2124.507     1136.739      835.492        0.261        0.205       32.745       18.674        0.325      329.833       -3.181      862.625
12/20/2021  00:58:00       -0.498       61.101      -14.877       43.505       20.270       18.046     1892.675      410.886      325.663        0.329        0.131       61.103       16.319        0.071      329.945       -2.998      862.504
12/20/2021  00:59:00      -18.232      -10.587      -13.320       47.295       36.091       28.542     2236.827     1302.549      814.626        0.249        0.218       21.083       25.070        1.414      329.966       -2.964      862.606
12/20/2021  01:00:00      -62.829      -15.522        4.554       87.661       42.564       46.445     7684.422     1811.658     2157.155        0.793        0.583       64.718       38.232        0.349      329.838       -3.172      862.689
12/20/2021  01:01:00      -91.135       23.539      -10.100       63.029       24.344       22.023     3972.654      592.629      485.034        0.701        0.253       94.126        9.447        0.010      329.699       -3.400      862.569
12/20/2021  01:02:00       63.587       90.847      -19.587       28.767       41.273       16.167      827.527     1703.427      261.379        0.774        0.140      110.889       13.657        0.015      329.781       -3.265      862.333
12/20/2021  01:03:00       22.933      127.492      -17.176       35.040       40.364       23.209     1227.777     1629.282      538.650        1.023        0.170      129.538       16.744        0.017      329.909       -3.054      862.303
12/20/2021  01:04:00      -17.968      -17.840      -12.124       41.211       41.680       41.628     1698.341     1737.249     1732.922        0.298        0.258       25.320       27.896        1.214      329.816       -3.209      862.517
12/20/2021  01:05:00      -80.337       -8.908       -0.396      105.291       59.817       41.102    11086.272     3578.117     1689.396        1.144        0.818       80.829       45.199        0.313      329.764       -3.296      862.732
12/20/2021  01:06:00     -116.793     -102.487      -22.275       50.607       70.819       40.587     2561.105     5015.338     1647.284        1.693        0.461      155.384       28.174        0.033      329.826       -3.194      862.783
12/20/2021  01:07:00       36.276       31.901       -2.121       65.613       59.377       19.394     4305.001     3525.677      376.131        0.527        0.410       48.308       31.716        0.431      329.855       -3.145      862.582
12/20/2021  01:08:00      129.881      139.976      -19.893       46.531       41.869       28.343     2165.094     1753.001      803.332        2.079        0.236      190.951       16.493        0.007      329.913       -3.050      862.214
12/20/2021  01:09:00       34.960      170.266      -31.185       86.588       81.957       38.067     7497.430     6717.004     1449.088        2.342        0.783      173.818       31.739        0.033      329.810       -3.222      862.084
12/20/2021  01:10:00      -14.464       -5.271      -27.156       73.458       62.506       44.117     5396.148     3906.970     1946.345        0.611        0.562       15.394       38.739        6.332      329.789       -3.253      862.263
12/20/2021  01:11:00        6.125      -60.433        6.161       53.190       61.162       41.290     2829.141     3740.814     1704.877        0.600        0.414       60.742       28.898        0.226      329.793       -3.246      862.472
12/20/2021  01:12:00        8.293      -93.604      -22.753       91.558       73.906       38.955     8382.920     5462.101     1517.454        1.235        0.768       93.971       41.942        0.199      329.918       -3.042      862.614
12/20/2021  01:13:00      102.873     -140.612      -52.901       88.998      124.734       67.538     7920.675    15558.506     4561.322        3.059        1.402      174.226       57.042        0.107      329.908       -3.060      862.680
12/20/2021  01:14:00      106.879      -39.390      -46.911       56.851       95.691       50.057     3232.001     9156.794     2505.742        1.503        0.745      113.907       36.526        0.103      329.858       -3.139      862.602
12/20/2021  01:15:00      157.647       59.885      -16.040       62.247       58.489       43.160     3874.685     3420.921     1862.809        1.893        0.458      168.638       23.731        0.020      329.895       -3.080      862.336
12/20/2021  01:16:00       92.251      105.346      -22.258       64.746       76.776       41.696     4192.058     5894.607     1738.550        1.596        0.591      140.029       25.736        0.034      329.840       -3.170      862.142
12/20/2021  01:17:00       17.311       97.743       -9.011       66.535       46.512       28.920     4426.841     2163.352      836.362        0.868        0.371       99.264       21.445        0.047      329.923       -3.033      862.205
12/20/2021  01:18:00        0.259       10.550       12.273       73.466       64.592       43.664     5397.253     4172.086     1906.577        0.587        0.574       10.553       26.238        6.182      329.923       -3.033      862.480
12/20/2021  01:19:00     -221.992      -44.967      -32.973       98.713       63.269       51.903     9744.261     4003.012     2693.966        3.441        0.822      226.501       38.091        0.028      329.961       -2.974      862.691
12/20/2021  01:20:00     -171.693      -40.543      -25.710       74.926       78.477       42.085     5613.862     6158.684     1771.168        2.266        0.677      176.414       23.464        0.018      329.757       -3.307      862.671
12/20/2021  01:21:00     -117.779       12.262      -23.782       51.597       27.400       22.151     2662.291      750.747      490.660        0.925        0.195      118.416       11.903        0.010      329.652       -3.475      862.521
12/20/2021  01:22:00      -54.427       37.244      -15.475       27.351       49.639       20.244      748.054     2464.049      409.803        0.410        0.181       65.950       14.088        0.046      329.686       -3.421      862.511
12/20/2021  01:23:00      -62.803       -3.952       -7.283       53.324       40.605       32.104     2843.398     1648.805     1030.656        0.477        0.276       62.927       16.621        0.070      329.702       -3.396      862.574
12/20/2021  01:24:00       19.738       29.044      -22.450       65.063       28.689       22.459     4233.243      823.065      504.429        0.365        0.278       35.116       23.131        0.434      329.640       -3.496      862.495
12/20/2021  01:25:00      138.048       25.593      -19.516       56.618       42.514       27.906     3205.555     1807.417      778.747        1.294        0.290      140.400       18.249        0.017      329.631       -3.511      862.309
12/20/2021  01:26:00       35.304       20.649      -14.446       74.725       41.729       26.947     5583.805     1741.289      726.148        0.496        0.403       40.899       23.707        0.336      329.677       -3.435      862.301
12/20/2021  01:27:00      -46.303       17.012      -23.096       39.875       26.918       16.395     1590.055      724.557      268.795        0.277        0.129       49.329        9.681        0.039      329.779       -3.269      862.492
12/20/2021  01:28:00      -23.020      -36.568      -13.549       64.974       41.805       29.096     4221.667     1747.680      846.593        0.443        0.341       43.211       17.891        0.171      329.809       -3.220      862.677
12/20/2021  01:29:00      -60.586       16.623        1.376       66.885       45.333       33.235     4473.572     2055.092     1104.576        0.579        0.382       62.825       35.358        0.317      329.687       -3.421      862.719
12/20/2021  01:30:00      -13.980       37.008      -11.501       42.464       22.462       12.871     1803.232      504.545      165.670        0.208        0.124       39.561        9.203        0.054      329.651       -3.477      862.688
12/20/2021  01:31:00       80.235       55.440      -16.434       29.774       27.680       13.365      886.490      766.172      178.628        0.581        0.092       97.526        6.151        0.004      329.795       -3.244      862.633
12/20/2021  01:32:00       92.485       83.817      -12.476       34.255       22.756       21.654     1173.392      517.846      468.913        0.895        0.108      124.815       17.024        0.019      329.649       -3.482      862.472
12/20/2021  01:33:00      -30.504       81.094      -25.011       76.946       66.120       26.561     5920.666     4371.915      705.488        0.956        0.550       86.641       27.829        0.103      329.843       -3.165      862.381
12/20/2021  01:34:00       -6.811      -33.326       -5.615       50.395       56.198       32.369     2539.690     3158.259     1047.754        0.397        0.337       34.015       14.909        0.192      329.748       -3.320      862.540
12/20/2021  01:35:00      -54.872     -119.601      -40.861      148.247       73.732       49.861    21977.278     5436.434     2486.152        2.444        1.495      131.588       62.798        0.228      329.958       -2.976      862.748
12/20/2021  01:36:00      113.631      -87.475      -61.123       89.732      124.838       67.007     8051.870    15584.564     4489.987        2.621        1.406      143.401       46.179        0.104      329.757       -3.308      862.677
12/20/2021  01:37:00      124.787        9.588       -4.385       63.655       85.150       49.313     4051.964     7250.448     2431.739        1.471        0.687      125.155       38.264        0.093      329.739       -3.334      862.503
12/20/2021  01:38:00       -9.065       51.562      -20.741       36.221       52.928       29.663     1311.968     2801.364      879.895        0.408        0.250       52.353       14.337        0.075      329.835       -3.177      862.564
12/20/2021  01:39:00      -35.395      -75.601      -21.487       62.730       38.657       25.802     3935.080     1494.396      665.767        0.676        0.305       83.477       25.141        0.091      329.919       -3.038      862.699
12/20/2021  01:40:00       -3.203      -43.608      -21.993       71.446       49.244       36.064     5104.595     2424.928     1300.587        0.561        0.442       43.726       18.512        0.179      330.009       -2.892      862.691
12/20/2021  01:41:00       29.390       26.144        0.134       44.199       29.788       22.612     1953.551      887.335      511.320        0.245        0.168       39.335       14.235        0.131      329.836       -3.177      862.643
12/20/2021  01:42:00      -54.796       43.161      -22.822       77.132       60.637       32.129     5949.405     3676.846     1032.297        0.802        0.533       69.753       30.186        0.187      329.804       -3.230      862.680
12/20/2021  01:43:00      -69.135       12.737       -4.573      133.221       55.581       39.953    17747.873     3089.288     1596.266        1.369        1.122       70.298       15.605        0.049      329.649       -3.483      862.720
12/20/2021  01:44:00      -70.077       12.175      -12.604       45.053       24.325       26.373     2029.772      591.726      695.519        0.427        0.166       71.126       25.568        0.129      329.470       -3.775      862.669
12/20/2021  01:45:00       -4.150        8.144      -13.523       16.268       20.490       19.224      264.643      419.860      369.566        0.066        0.053        9.140       15.357        2.823      329.549       -3.644      862.617
12/20/2021  01:46:00      -66.394       24.597       -8.946       39.809       24.580       17.709     1584.759      604.170      313.611        0.380        0.125       70.804       10.556        0.022      329.634       -3.507      862.652
12/20/2021  01:47:00       24.134      -32.669       -7.934       26.780       24.863       17.409      717.166      618.174      303.061        0.168        0.082       40.617       12.324        0.092      329.704       -3.391      862.703
12/20/2021  01:48:00      -51.535       10.966       -6.412       48.279       30.430       22.730     2330.861      925.968      516.659        0.329        0.189       52.689       16.152        0.094      329.597       -3.568      862.654
12/20/2021  01:49:00      -33.903       68.530       -7.917       39.953       31.807       16.899     1596.239     1011.681      285.576        0.440        0.145       76.457        8.623        0.013      329.497       -3.731      862.527
12/20/2021  01:50:00      -34.530       55.707      -20.256       28.698       72.652       20.799      823.593     5278.366      432.583        0.562        0.327       65.540       14.444        0.049      329.623       -3.525      862.549
12/20/2021  01:51:00      -81.739      -92.473      -38.508       48.391       39.919       19.950     2341.674     1593.500      397.991        1.052        0.217      123.420       20.154        0.027      329.660       -3.463      862.791
12/20/2021  01:52:00      -98.932      -84.493      -31.507       67.627       62.603       37.521     4573.407     3919.106     1407.850        1.391        0.495      130.102       14.394        0.012      329.835       -3.177      862.969
12/20/2021  01:53:00       27.216       32.783        2.398       47.195       55.240       24.781     2227.328     3051.405      614.101        0.386        0.295       42.608       19.748        0.215      329.709       -3.383      862.822
12/20/2021  01:54:00      112.375      139.476      -16.052       52.260       55.978       40.869     2731.065     3133.502     1670.253        1.994        0.377      179.114       36.398        0.041      329.696       -3.406      862.431
12/20/2021  01:55:00       26.516      188.975      -22.446       69.018       97.164       44.102     4763.500     9440.811     1945.025        2.653        0.807      190.826       21.149        0.012      329.735       -3.343      862.253
12/20/2021  01:56:00      -26.184       -1.311      -15.878       57.363       87.479       38.782     3290.549     7652.658     1504.010        0.669        0.622       26.217       20.880        0.634      329.689       -3.415      862.532
12/20/2021  01:57:00     -224.055     -176.162      -27.915       93.188      136.543       59.877     8684.095    18644.014     3585.269        5.646        1.546      285.015       59.747        0.044      329.746       -3.325      862.895
12/20/2021  01:58:00       -9.731      -62.152      -27.750      108.740       87.164       56.867    11824.383     7597.489     3233.887        1.369        1.133       62.909       59.924        0.907      329.866       -3.126      863.020
12/20/2021  01:59:00       31.219       49.090      -13.605       37.305       39.999       36.323     1391.685     1599.943     1319.391        0.394        0.216       58.176       10.979        0.036      329.718       -3.369      862.903
12/20/2021  02:00:00       42.143       27.428      -17.701       40.928       26.008       19.388     1675.068      676.442      375.894        0.278        0.136       50.282       11.899        0.056      329.677       -3.435      862.772
12/20/2021  02:01:00      106.586       25.640      -18.702       49.206       41.139       20.865     2421.248     1692.456      435.347        0.846        0.227      109.626       17.990        0.027      329.703       -3.393      862.647
12/20/2021  02:02:00      135.435       64.527      -17.007       53.924       42.333       27.656     2907.828     1792.083      764.876        1.413        0.273      150.021       19.534        0.017      329.622       -3.526      862.433
12/20/2021  02:03:00       49.647       88.692        0.868       39.345       51.056       30.727     1548.062     2606.766      944.147        0.771        0.255      101.642       26.012        0.065      329.724       -3.358      862.333
12/20/2021  02:04:00       33.167       30.880       -4.390       26.516       50.327       18.223      703.086     2532.764      332.077        0.282        0.178       45.317       18.608        0.169      329.806       -3.225      862.502
12/20/2021  02:05:00     -130.444      -60.895       -7.555      104.886       72.046       44.763    11001.045     5190.581     2003.690        1.948        0.910      143.958       35.573        0.061      329.827       -3.193      862.848
12/20/2021  02:06:00     -202.316      -46.155      -22.097      112.809       99.231       56.031    12725.849     9846.765     3139.509        3.463        1.286      207.514       37.689        0.033      329.808       -3.223      863.031
12/20/2021  02:07:00     -219.289       63.747      -21.314       93.031       94.787       46.039     8654.860     8984.590     2119.613        3.618        0.988      228.367       38.716        0.029      329.496       -3.736      862.920
12/20/2021  02:08:00     -188.287       87.604      -30.967       85.617       46.200       41.700     7330.221     2134.476     1738.932        2.764        0.560      207.669       32.581        0.025      329.206       -4.208      862.688
12/20/2021  02:09:00      -18.419       85.239      -12.594       49.252       36.543       32.259     2425.776     1335.412     1040.630        0.628        0.240       87.206       20.343        0.054      329.395       -3.897      862.561
12/20/2021  02:10:00       14.640       31.702      -10.171       30.724       37.109       23.140      943.970     1377.089      535.449        0.209        0.143       34.919       21.527        0.380      329.492       -3.740      862.582
12/20/2021  02:11:00       41.972       19.693      -23.722       40.021       30.828       20.801     1601.712      950.384      432.684        0.285        0.149       46.362       12.533        0.073      329.485       -3.751      862.548
12/20/2021  02:12:00       -5.968      -18.372      -18.540       34.973       23.990       20.430     1223.089      575.513      417.370        0.147        0.111       19.317       22.167        1.317      329.477       -3.763      862.545
12/20/2021  02:13:00      -39.472      -38.830      -13.672       54.391       37.205       20.845     2958.435     1384.232      434.506        0.401        0.239       55.370        6.888        0.015      329.711       -3.381      862.668
12/20/2021  02:14:00      -56.188      -78.850      -31.695       54.552       51.068       34.054     2975.940     2607.901     1159.695        0.856        0.337       96.822       25.093        0.067      329.789       -3.254      862.744
12/20/2021  02:15:00       -0.989      -85.324      -33.009       64.528       64.374       46.017     4163.866     4143.978     2117.601        0.940        0.521       85.330       38.665        0.205      329.810       -3.219      862.775
12/20/2021  02:16:00       -5.483      -61.616      -14.879       62.904       80.435       34.283     3956.898     6469.847     1175.352        0.782        0.580       61.860       22.062        0.127      329.682       -3.429      862.806
12/20/2021  02:17:00       17.030       -0.834      -16.109       37.720       38.378       25.716     1422.823     1472.843      661.296        0.205        0.178       17.051       18.613        1.192      329.551       -3.643      862.793
12/20/2021  02:18:00       -9.374      103.103       -7.558       38.493       40.348       29.566     1481.694     1627.950      874.127        0.738        0.199      103.528       19.537        0.036      329.578       -3.598      862.741
12/20/2021  02:19:00      -38.897      134.792      -12.267       36.381       44.060       27.753     1323.606     1941.246      770.228        1.193        0.202      140.292       22.452        0.026      329.660       -3.463      862.696
12/20/2021  02:20:00      -42.604       55.900       -9.750       41.018       27.250       20.288     1682.504      742.540      411.612        0.394        0.142       70.284       15.293        0.047      329.580       -3.595      862.643
12/20/2021  02:21:00        2.154      -45.718       -6.010       39.193       43.416       23.232     1536.053     1884.908      539.716        0.305        0.198       45.769       17.054        0.139      329.571       -3.609      862.684
12/20/2021  02:22:00     -134.974      -14.496       -4.946      123.130       68.275       48.263    15160.997     4661.487     2329.354        2.030        1.108      135.750       52.888        0.152      329.393       -3.903      862.753
12/20/2021  02:23:00     -121.834        6.959      -19.103       92.747       43.748       29.716     8602.012     1913.878      883.064        1.333        0.570      122.033       34.459        0.080      329.311       -4.035      862.745
12/20/2021  02:24:00        0.571       35.531       -6.918       40.549       31.371       15.936     1644.196      984.138      253.960        0.210        0.144       35.536        7.288        0.042      329.256       -4.125      862.675
12/20/2021  02:25:00      -10.899       -8.255      -11.424       17.075       10.703       10.545      291.544      114.544      111.192        0.042        0.026       13.672        5.638        0.170      329.242       -4.146      862.623
12/20/2021  02:26:00      -13.030      -59.409      -27.545       30.066       31.087       20.180      903.955      966.390      407.217        0.337        0.114       60.821        8.750        0.021      329.431       -3.840      862.679
12/20/2021  02:27:00       -8.171      -42.970      -34.973       27.133       29.030       19.724      736.191      842.750      389.034        0.255        0.098       43.740       14.003        0.102      329.524       -3.686      862.775
12/20/2021  02:28:00       -4.538       12.046      -13.664       13.643       24.174       22.126      186.121      584.375      489.561        0.081        0.063       12.873       15.886        1.523      329.553       -3.639      862.829
12/20/2021  02:29:00      -44.407      -12.596       -7.779       42.086       30.454       23.393     1771.252      927.476      547.219        0.272        0.162       46.158       19.013        0.170      329.572       -3.606      862.835
12/20/2021  02:30:00      -61.821       -4.824       -0.884       42.508       35.302       25.822     1806.941     1246.208      666.791        0.378        0.186       62.009       18.569        0.090      329.469       -3.777      862.844
12/20/2021  02:31:00      -57.063       -0.071       -8.361       27.334       37.899       16.894      747.151     1436.347      285.400        0.290        0.123       57.063       11.599        0.041      329.464       -3.784      862.826
12/20/2021  02:32:00       -7.966       -2.808      -10.822       11.943       13.004       11.969      142.642      169.109      143.264        0.032        0.023        8.447        8.499        1.012      329.495       -3.734      862.814
12/20/2021  02:33:00       -6.039       20.500       -7.811       25.889       16.016       12.010      670.230      256.517      144.252        0.079        0.054       21.371       10.710        0.251      329.442       -3.822      862.759
12/20/2021  02:34:00       10.216       27.495       -7.260       14.804       19.109       11.401      219.168      365.152      129.994        0.081        0.036       29.332       12.384        0.178      329.393       -3.900      862.684
12/20/2021  02:35:00      -30.777        2.011      -16.181       41.283       26.330       13.111     1704.263      693.272      171.894        0.189        0.128       30.842       11.670        0.143      329.452       -3.805      862.710
12/20/2021  02:36:00       -9.319      -16.875        8.660       36.787       25.889       28.649     1353.276      670.234      820.770        0.164        0.142       19.277       15.756        0.668      329.429       -3.841      862.824
12/20/2021  02:37:00     -168.325      -30.995      -22.601       45.927       43.795       34.982     2109.269     1917.963     1223.758        1.753        0.263      171.155       20.961        0.015      329.380       -3.922      862.891
12/20/2021  02:38:00      -81.974       29.662      -12.621       61.787       27.610       14.689     3817.640      762.334      215.764        0.628        0.240       87.175       16.005        0.034      329.363       -3.950      862.810
12/20/2021  02:39:00      115.400       90.108      -19.312       60.443       37.157       23.457     3653.356     1380.613      550.210        1.370        0.279      146.413       20.154        0.019      329.290       -4.069      862.605
12/20/2021  02:40:00      147.034       44.107      -10.832       73.316       57.811       37.288     5375.224     3342.141     1390.399        1.689        0.505      153.507       31.175        0.041      329.240       -4.152      862.416
12/20/2021  02:41:00      142.461       24.059      -11.690       89.231       45.895       29.786     7962.136     2106.371      887.196        1.598        0.548      144.478       13.435        0.009      329.167       -4.271      862.436
12/20/2021  02:42:00       19.903      -46.646      -21.359       34.326       34.086       21.553     1178.260     1161.830      464.546        0.292        0.140       50.714       14.092        0.077      329.339       -3.989      862.667
12/20/2021  02:43:00     -130.553      -49.603       -0.624      104.703       76.839       55.658    10962.710     5904.259     3097.864        1.973        0.998      139.658       55.447        0.158      329.578       -3.599      862.892
12/20/2021  02:44:00     -229.487       -2.321      -22.350      140.387       97.149       54.450    19708.540     9437.852     2964.832        4.263        1.606      229.499       37.147        0.026      329.385       -3.916      862.974
12/20/2021  02:45:00     -167.491       16.691        0.889      117.692       66.493       43.036    13851.383     4421.260     1852.092        2.422        1.006      168.320       50.599        0.090      329.106       -4.369      862.934
12/20/2021  02:46:00      -75.845       28.852       -5.093       37.466       25.751       19.094     1403.707      663.102      364.582        0.452        0.122       81.147       17.934        0.049      329.074       -4.419      862.865
12/20/2021  02:47:00        6.290        4.276      -12.549       36.660       34.325       13.175     1343.953     1178.199      173.577        0.146        0.135        7.606       14.416        3.592      329.175       -4.257      862.753
12/20/2021  02:48:00       96.879       43.018      -26.527       47.463       37.939       28.946     2252.696     1439.338      837.893        0.823        0.226      106.001       19.449        0.034      329.220       -4.181      862.642
12/20/2021  02:49:00       29.522      -19.861      -10.833       50.879       33.432       24.515     2588.667     1117.674      600.976        0.284        0.215       35.581       17.344        0.238      329.244       -4.143      862.701
12/20/2021  02:50:00        4.074      -36.069      -13.395       15.567       18.617       14.145      242.319      346.601      200.078        0.114        0.039       36.298        8.985        0.061      329.336       -3.993      862.830
12/20/2021  02:51:00       13.149      -11.316       -1.705       33.176       31.784       25.446     1100.617     1010.218      647.503        0.153        0.138       17.348        6.017        0.120      329.425       -3.849      862.882
12/20/2021  02:52:00     -100.633       28.485       -7.758       53.018       40.720       27.058     2810.903     1658.141      732.116        0.810        0.260      104.587       22.538        0.046      329.307       -4.042      862.786
12/20/2021  02:53:00      -91.615       97.989      -11.130       37.248       41.985       24.571     1387.405     1762.725      603.713        1.094        0.188      134.146       25.488        0.036      329.206       -4.206      862.651
12/20/2021  02:54:00      -21.730       12.440       -3.860       24.860       57.766       13.211      618.033     3336.911      174.534        0.238        0.206       25.039        8.405        0.113      329.307       -4.041      862.706
12/20/2021  02:55:00     -115.856      -58.524      -29.446       50.730       47.133       28.781     2573.512     2221.502      828.360        1.167        0.281      129.799       26.378        0.041      329.416       -3.864      862.931
12/20/2021  02:56:00      -26.648       -6.823      -14.731       28.310       29.402       27.141      801.439      864.480      736.642        0.169        0.120       27.508       13.126        0.228      329.495       -3.734      862.996
12/20/2021  02:57:00      -24.277       52.844        3.001       28.757       35.978       21.192      826.992     1294.440      449.098        0.298        0.129       58.154       13.354        0.053      329.296       -4.057      862.807
12/20/2021  02:58:00       37.037       95.048      -10.220       37.154       59.742       30.065     1380.388     3569.118      903.884        0.818        0.293      102.009       28.711        0.079      329.392       -3.902      862.562
12/20/2021  02:59:00       29.172       20.372      -26.169       56.086       52.228       21.721     3145.619     2727.784      471.813        0.415        0.317       35.581       17.636        0.246      329.317       -4.025      862.578
12/20/2021  03:00:00       26.523      -91.847      -44.203       29.241       21.682       22.707      855.052      470.090      515.611        0.647        0.092       95.600       11.346        0.014      329.353       -3.966      862.772
12/20/2021  03:01:00        5.973      -20.467      -10.169       26.695       33.277       19.605      712.619     1107.368      384.352        0.138        0.110       21.320        4.898        0.053      329.507       -3.712      862.901
12/20/2021  03:02:00      -48.404       14.292       -3.884       52.160       38.722       26.072     2720.620     1499.377      679.743        0.373        0.245       50.470       20.564        0.166      329.450       -3.808      862.911
12/20/2021  03:03:00        5.719       40.792      -11.941       25.884       34.079       31.434      670.005     1161.344      988.081        0.233        0.141       41.191       14.261        0.120      329.361       -3.954      862.802
12/20/2021  03:04:00       20.639      -10.280      -11.732       33.442       41.965       42.289     1118.388     1761.103     1788.378        0.267        0.233       23.058       25.801        1.252      329.325       -4.010      862.710
12/20/2021  03:05:00        2.392       -4.967       -9.460       40.002       31.024       29.067     1600.146      962.470      844.871        0.176        0.170        5.513       12.750        5.349      329.215       -4.191      862.756
12/20/2021  03:06:00        0.203      -48.560      -21.133       37.716       49.354       29.826     1422.532     2435.805      889.568        0.378        0.237       48.560       23.931        0.243      329.230       -4.167      862.828
12/20/2021  03:07:00      -22.771      -35.417      -20.737       47.664       36.584       26.309     2271.857     1338.406      692.167        0.325        0.215       42.106       23.084        0.301      329.351       -3.971      862.870
12/20/2021  03:08:00      -30.749       16.456       -7.201       44.419       31.876       23.616     1973.077     1016.106      557.727        0.241        0.177       34.876       14.581        0.175      329.289       -4.070      862.879
12/20/2021  03:09:00       -7.202      -29.480       -9.902       17.001       27.270       16.275      289.024      743.657      264.871        0.116        0.065       30.347        6.945        0.052      329.246       -4.140      862.906
12/20/2021  03:10:00      -18.634      -14.783      -15.135       29.100       24.562       12.447      846.829      603.277      154.932        0.120        0.080       23.786        6.121        0.066      329.313       -4.031      862.922
12/20/2021  03:11:00       61.944       21.730      -12.609       58.290       45.743       26.652     3397.761     2092.393      710.333        0.533        0.310       65.645       17.534        0.071      328.993       -4.552      862.816
12/20/2021  03:12:00      155.328       30.276      -15.248       54.747       37.953       22.041     2997.249     1440.463      485.785        1.510        0.246      158.251       19.246        0.015      328.814       -4.846      862.755
12/20/2021  03:13:00       15.197      -12.122       -7.265       39.706       22.942       21.241     1576.595      526.338      451.187        0.149        0.128       19.439       20.908        1.157      328.911       -4.688      862.909
12/20/2021  03:14:00      -23.424      -46.835      -15.112       52.004       41.455       23.758     2704.382     1718.499      564.456        0.398        0.249       52.366       15.596        0.089      329.154       -4.291      863.080
12/20/2021  03:15:00       -2.568       22.224       -4.437       20.257       21.641       15.219      410.341      468.347      231.611        0.082        0.056       22.372       10.278        0.211      329.075       -4.419      863.076
12/20/2021  03:16:00       50.263       52.471      -10.664       28.516       19.262       10.601      813.155      371.018      112.384        0.334        0.065       72.661        7.745        0.011      328.987       -4.565      862.948
12/20/2021  03:17:00       97.846       46.471       -7.078       40.102       43.280       26.913     1608.195     1873.200      724.293        0.799        0.210      108.320       20.427        0.036      328.759       -4.935      862.826
12/20/2021  03:18:00      103.284       19.219      -10.258       44.153       31.022       19.147     1949.531      962.337      366.606        0.721        0.164      105.057       20.371        0.038      328.774       -4.912      862.785
12/20/2021  03:19:00      114.586       47.734      -18.792       27.636       40.625       22.380      763.747     1650.400      500.844        0.934        0.146      124.131       12.816        0.011      328.774       -4.912      862.828
12/20/2021  03:20:00       93.560       30.107      -22.116       47.886       56.018       21.638     2293.076     3138.022      468.210        0.802        0.295       98.285       11.866        0.015      328.869       -4.756      862.874
12/20/2021  03:21:00        2.933      -28.248      -20.786       24.869       26.455       19.659      618.449      699.856      386.483        0.147        0.085       28.400       12.134        0.183      328.866       -4.761      862.949
12/20/2021  03:22:00       81.524      -75.614      -32.864       35.605       33.545       17.357     1267.721     1125.297      301.277        0.807        0.135      111.192       12.849        0.013      328.708       -5.019      863.026
12/20/2021  03:23:00      107.321      -44.813      -36.928       47.421       61.575       23.248     2248.730     3791.505      540.489        1.073        0.329      116.302       13.735        0.014      328.678       -5.068      862.968
12/20/2021  03:24:00      147.217       23.184      -15.835       39.839       38.394       30.402     1587.118     1474.073      924.305        1.322        0.199      149.032       17.143        0.013      328.519       -5.328      862.860
12/20/2021  03:25:00       31.562       13.280       -4.359       48.262       28.941       18.428     2329.268      837.570      339.607        0.235        0.175       34.242       20.743        0.367      328.442       -5.452      862.885
12/20/2021  03:26:00       34.813       -8.382      -12.469       15.856       15.927       13.347      251.425      253.684      178.140        0.106        0.034       35.808        6.176        0.030      328.539       -5.293      862.928
12/20/2021  03:27:00       81.251       22.530      -12.675       54.731       59.087       45.750     2995.526     3491.247     2093.065        0.792        0.429       84.317       33.810        0.161      328.633       -5.141      862.830
12/20/2021  03:28:00       48.110      -25.994      -28.186       51.398       51.843       41.679     2641.753     2687.727     1737.159        0.542        0.353       54.684       29.352        0.288      328.525       -5.317      862.797
12/20/2021  03:29:00       24.577      -53.668       -7.876       40.549       53.830       26.171     1644.232     2897.629      684.934        0.439        0.261       59.028       18.547        0.099      328.673       -5.076      862.939
12/20/2021  03:30:00      -29.524       18.165       -1.196       37.752       37.525       27.137     1425.205     1408.151      736.420        0.239        0.178       34.665       22.159        0.409      328.764       -4.928      862.978
12/20/2021  03:31:00      -63.575       61.914      -12.086       46.294       30.814       19.311     2143.105      949.510      372.901        0.574        0.173       88.741       14.947        0.028      328.673       -5.078      862.914
12/20/2021  03:32:00       49.572        3.753      -14.011       41.750       34.279       26.244     1743.095     1175.027      688.772        0.314        0.180       49.714        6.908        0.019      328.656       -5.103      862.859
12/20/2021  03:33:00       21.405        5.458       -1.855       47.974       62.465       47.225     2301.523     3901.858     2230.238        0.446        0.422       22.090       35.235        2.544      328.583       -5.222      862.817
12/20/2021  03:34:00       29.910      -16.919      -20.863       31.052       42.607       24.766      964.233     1815.334      613.360        0.250        0.170       34.363       20.434        0.354      328.536       -5.299      862.901
12/20/2021  03:35:00       -0.717        5.942       -2.519       19.869       15.554       18.435      394.772      241.921      339.852        0.051        0.049        5.985       11.335        3.587      328.465       -5.415      862.997
12/20/2021  03:36:00       64.819        4.312      -14.626       40.031       35.090       19.739     1602.474     1231.313      389.614        0.383        0.161       64.963       12.991        0.040      328.480       -5.391      862.936
12/20/2021  03:37:00       75.899       -2.955      -10.313       59.812       40.466       25.124     3577.448     1637.536      631.233        0.586        0.292       75.957       24.308        0.102      328.521       -5.324      862.853
12/20/2021  03:38:00       67.247        9.942       -4.865       50.662       53.053       46.955     2566.666     2814.592     2204.767        0.611        0.379       67.978       35.592        0.274      328.347       -5.607      862.842
12/20/2021  03:39:00       77.944      -21.847      -37.174       58.198       62.850       47.557     3386.987     3950.062     2261.706        0.876        0.480       80.948       34.489        0.182      328.325       -5.642      862.845
12/20/2021  03:40:00       91.421       -6.825      -15.712       81.394       52.357       49.276     6624.910     2741.305     2428.126        1.022        0.590       91.675       35.070        0.146      328.293       -5.696      862.790
12/20/2021  03:41:00       74.825       27.330      -13.769       55.823       45.267       27.550     3116.171     2049.118      758.992        0.623        0.296       79.660       18.335        0.053      328.266       -5.739      862.790
12/20/2021  03:42:00      -30.375       15.907      -15.739       39.329       33.502       17.149     1546.751     1122.392      294.084        0.219        0.148       34.288       11.839        0.119      328.309       -5.669      862.942
12/20/2021  03:43:00      -10.631      -24.860      -12.093       18.613       41.466       18.233      346.452     1719.427      332.428        0.164        0.120       27.037       13.279        0.241      328.407       -5.509      863.071
12/20/2021  03:44:00       99.075        8.406      -15.233       66.577       48.319       36.067     4432.552     2334.699     1300.855        0.909        0.403       99.431       27.536        0.077      328.263       -5.744      862.996
12/20/2021  03:45:00      130.892       34.561      -30.727       75.369       61.766       46.848     5680.436     3814.993     2194.717        1.548        0.585      135.377       22.398        0.027      328.150       -5.930      862.795
12/20/2021  03:46:00      132.291       22.835       -6.944       66.306       34.157       33.152     4396.517     1166.702     1099.041        1.237        0.333      134.248       28.980        0.047      328.061       -6.074      862.776
12/20/2021  03:47:00      -13.881      -42.279       -8.392       27.301       23.798       20.161      745.340      566.347      406.485        0.188        0.086       44.499       11.494        0.067      328.086       -6.033      862.939
12/20/2021  03:48:00       49.203      -30.364      -18.549       27.518       30.030       18.197      757.244      901.817      331.131        0.284        0.100       57.818       18.399        0.101      328.111       -5.993      863.078
12/20/2021  03:49:00      120.382      -19.060      -23.398       23.800       36.097       19.187      566.458     1302.964      368.137        0.882        0.112      121.882       11.342        0.009      328.105       -6.002      863.034
12/20/2021  03:50:00       88.910       32.840       -2.027       56.558       51.790       34.231     3198.839     2682.251     1171.763        0.802        0.353       94.781       31.269        0.109      328.049       -6.092      862.892
12/20/2021  03:51:00        8.267      -18.361       -8.403       30.986       24.210       22.330      960.104      586.103      498.627        0.126        0.102       20.136       15.516        0.594      328.171       -5.895      862.931
12/20/2021  03:52:00       79.228      -51.654      -42.567       40.125       46.511       28.809     1610.037     2163.318      829.975        0.768        0.230       94.579       19.488        0.042      328.072       -6.057      863.001
12/20/2021  03:53:00       65.585      -12.864      -38.739       66.366       63.050       62.788     4404.462     3975.364     3942.365        0.914        0.616       66.835       44.807        0.449      328.027       -6.130      862.919
12/20/2021  03:54:00       49.038      -19.189        1.057       69.669       52.689       48.640     4853.749     2776.150     2365.880        0.638        0.500       52.659       38.424        0.532      327.821       -6.464      862.822
12/20/2021  03:55:00      -48.523       11.770       -0.001       43.054       71.047       36.424     1853.652     5047.694     1326.721        0.536        0.411       49.930       29.841        0.357      327.881       -6.366      863.003
12/20/2021  03:56:00      -77.231      -64.415        2.794      113.172       74.625       43.448    12808.011     5568.888     1887.737        1.519        1.013      100.568       41.490        0.170      328.148       -5.933      863.278
12/20/2021  03:57:00      -45.261      -71.238      -28.337       71.269       75.565       31.652     5079.234     5710.132     1001.861        0.986        0.590       84.401        4.834        0.003      328.289       -5.703      863.250
12/20/2021  03:58:00      202.578       20.317      -39.785      122.452       83.250       59.504    14994.578     6930.554     3540.672        3.424        1.273      203.594       25.818        0.016      328.128       -5.967      862.836
12/20/2021  03:59:00      157.712       77.903      -17.428      112.787       71.694       51.003    12720.822     5140.069     2601.349        2.585        1.023      175.904       31.034        0.031      327.883       -6.365      862.549
12/20/2021  04:00:00      -71.065       15.097      -28.923       72.936       63.590       38.919     5319.713     4043.651     1514.689        0.849        0.544       72.651       30.743        0.179      328.105       -6.002      862.793
12/20/2021  04:01:00     -108.517      -12.721        5.298      135.342       84.841       72.734    18317.577     7198.050     5290.172        2.138        1.540      109.260       69.467        0.404      328.223       -5.811      863.176
12/20/2021  04:02:00     -223.977     -168.452      -26.750      103.179      120.019       57.128    10645.827    14404.615     3263.598        5.378        1.416      280.253       54.198        0.037      328.364       -5.583      863.377
12/20/2021  04:03:00       60.874       38.381      -11.082      120.654       80.483       39.351    14557.472     6477.467     1548.535        1.394        1.129       71.963       43.309        0.362      328.444       -5.451      863.128
12/20/2021  04:04:00      211.346       52.532       -7.301       92.006       60.885       59.735     8465.170     3706.945     3568.255        3.161        0.787      217.777       53.921        0.061      328.319       -5.656      862.619
12/20/2021  04:05:00      140.457       26.691      -10.569      128.870       68.249       45.425    16607.603     4657.925     2063.437        2.194        1.166      142.970       41.897        0.086      328.228       -5.802      862.518
12/20/2021  04:06:00       26.515     -107.663      -34.003       36.262       75.740       34.373     1314.897     5736.578     1181.482        1.084        0.412      110.880       26.658        0.058      328.428       -5.477      862.807
12/20/2021  04:07:00       18.464     -100.113      -35.693       50.135       39.744       38.361     2513.504     1579.558     1471.602        0.860        0.278      101.802       13.090        0.017      328.456       -5.430      863.048
12/20/2021  04:08:00      -75.712      -16.027      -11.733       87.201       48.214       39.144     7603.948     2324.606     1532.268        0.879        0.573       77.390       28.672        0.137      328.381       -5.552      863.095
12/20/2021  04:09:00      -33.199      -12.588        4.351       66.406       29.013       19.277     4409.785      841.752      371.592        0.345        0.281       35.505       17.957        0.256      328.261       -5.748      863.031
12/20/2021  04:10:00       43.034        0.077      -32.854       53.816       48.556       39.334     2896.203     2357.677     1547.148        0.486        0.340       43.034       32.013        0.553      328.265       -5.742      862.944
12/20/2021  04:11:00       55.123       21.516      -19.766       55.715       66.049       48.274     3104.185     4362.457     2330.349        0.684        0.490       59.174       20.214        0.117      328.199       -5.849      862.893
12/20/2021  04:12:00       26.927      -14.018       -2.955       62.748       50.917       50.663     3937.322     2592.532     2566.736        0.501        0.455       30.358       39.166        1.664      328.053       -6.087      862.884
12/20/2021  04:13:00       64.738      -39.185      -14.680       62.003       52.216       42.170     3844.348     2726.509     1778.271        0.714        0.417       75.673       37.000        0.239      327.844       -6.427      862.883
12/20/2021  04:14:00       74.621        3.874      -10.751       66.647       52.972       47.317     4441.830     2806.035     2238.876        0.759        0.474       74.722       42.886        0.329      327.962       -6.235      862.842
12/20/2021  04:15:00       54.379      -20.274      -12.418       79.029       49.081       47.165     6245.643     2408.937     2224.502        0.720        0.544       58.035       41.274        0.506      327.804       -6.492      862.859
12/20/2021  04:16:00       31.272      -54.944      -19.656       55.112       48.168       39.118     3037.296     2320.175     1530.252        0.563        0.344       63.220       28.049        0.197      327.880       -6.368      863.038
12/20/2021  04:17:00      -13.024       -0.864      -13.329       39.440       48.826       22.630     1555.521     2383.936      512.134        0.240        0.223       13.053       17.233        1.743      328.096       -6.017      863.122
12/20/2021  04:18:00       76.732      122.616      -18.768       48.267       31.517       20.497     2329.748      993.349      420.139        1.251        0.187      144.646       19.648        0.018      327.936       -6.276      862.922
12/20/2021  04:19:00      133.004       83.000      -10.841       60.718       69.198       40.500     3686.649     4788.357     1640.232        1.740        0.506      156.777       32.259        0.042      327.815       -6.476      862.710
12/20/2021  04:20:00       51.686      -11.730      -11.893       49.241       43.643       27.386     2424.657     1904.736      749.983        0.401        0.254       53.000       17.993        0.115      327.891       -6.350      862.842
12/20/2021  04:21:00       32.046      -73.461      -20.144       27.256       38.722       24.106      742.898     1499.411      581.078        0.483        0.141       80.147       11.993        0.022      327.734       -6.607      863.053
12/20/2021  04:22:00        8.751       40.120       -4.582       26.435       31.695       10.474      698.820     1004.559      109.705        0.176        0.091       41.064        9.026        0.048      327.597       -6.829      863.077
12/20/2021  04:23:00      -77.814       49.839      -18.618       46.059       37.638       25.384     2121.404     1416.591      644.336        0.653        0.209       92.407       20.495        0.049      327.962       -6.234      863.068
12/20/2021  04:24:00      -26.998      -58.870      -13.655       42.004       29.691       19.183     1764.326      881.570      368.005        0.370        0.151       64.766       19.290        0.089      327.993       -6.185      863.156
12/20/2021  04:25:00       -1.824       34.375       -5.951       69.314       43.006       17.930     4804.395     1849.530      321.476        0.410        0.349       34.424       15.781        0.210      328.027       -6.128      863.103
12/20/2021  04:26:00      149.282       71.705      -17.783       67.986       56.103       30.536     4622.035     3147.540      932.448        1.822        0.435      165.610       28.229        0.029      327.685       -6.687      862.796
12/20/2021  04:27:00      178.833       64.497       -9.510       53.453       41.410       34.074     2857.266     1714.789     1161.051        2.098        0.287      190.108       19.411        0.010      327.570       -6.872      862.745
12/20/2021  04:28:00       62.308      -15.192      -14.352       59.471       37.688       15.155     3536.760     1420.359      229.674        0.475        0.259       64.133       13.425        0.044      327.585       -6.848      863.032
12/20/2021  04:29:00       26.121      -26.945       -4.726       27.092       34.525       19.888      733.959     1191.990      395.524        0.188        0.116       37.528       15.355        0.167      327.895       -6.345      863.194
12/20/2021  04:30:00      -14.393       55.856       -8.985       36.318       28.388       14.652     1318.995      805.874      214.690        0.287        0.117       57.681        7.738        0.018      327.874       -6.375      863.073
12/20/2021  04:31:00       13.804       91.541       -5.013       24.938       32.172       20.149      621.889     1035.014      405.986        0.533        0.103       92.576       16.059        0.030      327.861       -6.399      862.966
12/20/2021  04:32:00       87.122       49.871      -19.836       29.578       24.419       21.870      874.831      596.308      478.294        0.621        0.097      100.387       16.641        0.027      327.591       -6.838      863.036
12/20/2021  04:33:00      123.603       45.150      -23.047       31.235       16.276       11.256      975.599      264.892      126.694        0.961        0.068      131.591       11.498        0.008      327.583       -6.852      863.117
12/20/2021  04:34:00       76.861       54.346      -13.870       37.059       25.654       22.181     1373.384      658.125      492.017        0.579        0.126       94.134       18.857        0.040      327.599       -6.826      863.048
12/20/2021  04:35:00       16.227       45.919      -20.142       29.873       16.826       17.320      892.400      283.124      299.973        0.213        0.074       48.701       11.228        0.053      327.545       -6.913      862.996
12/20/2021  04:36:00       65.743       25.294      -12.292       29.389       39.417       21.935      863.718     1553.666      481.128        0.401        0.145       70.441       15.982        0.051      327.663       -6.721      862.988
12/20/2021  04:37:00       79.053        8.456      -16.385       64.530       68.153       50.382     4164.156     4644.789     2538.362        0.897        0.567       79.504       30.966        0.152      327.649       -6.745      862.894
12/20/2021  04:38:00       72.411       19.281       -5.425       75.823       60.734       49.441     5749.055     3688.587     2444.456        0.876        0.594       74.934       30.044        0.161      327.619       -6.793      862.832
12/20/2021  04:39:00      130.503       40.831      -20.424       79.784       40.481       26.965     6365.461     1638.697      727.114        1.392        0.437      136.742       26.992        0.039      327.476       -7.026      862.873
12/20/2021  04:40:00      -11.248       17.750       -1.751       24.203       19.283       16.280      585.765      371.825      265.028        0.083        0.061       21.014        8.905        0.180      327.512       -6.969      862.952
12/20/2021  04:41:00        3.431      -18.181       -6.855       16.967       20.868       20.306      287.878      435.492      412.351        0.076        0.057       18.502       14.338        0.601      327.597       -6.830      863.017
12/20/2021  04:42:00       31.634       10.157       -9.621       32.909       26.533       19.797     1083.006      704.023      391.923        0.169        0.109       33.225       12.139        0.133      327.580       -6.855      863.077
12/20/2021  04:43:00       21.511       26.407      -12.117       27.091       28.100       17.018      733.914      789.584      289.627        0.156        0.091       34.059       13.402        0.155      327.521       -6.950      863.069
12/20/2021  04:44:00        0.588       52.862        1.187       24.040       17.957       11.868      577.940      322.442      140.856        0.192        0.052       52.866        6.288        0.014      327.644       -6.753      863.036
12/20/2021  04:45:00       43.913       61.182      -10.186       48.711       23.181       16.104     2372.754      537.379      259.335        0.447        0.158       75.310       16.121        0.046      327.592       -6.836      862.990
12/20/2021  04:46:00       94.370       49.361      -23.831       15.947       21.369       10.402      254.303      456.621      108.196        0.636        0.041      106.500        4.804        0.002      327.493       -6.999      862.947
12/20/2021  04:47:00       30.104       22.923       -7.899       26.649       21.457       19.805      710.147      460.419      392.225        0.153        0.078       37.838       18.560        0.241      327.560       -6.888      863.015
12/20/2021  04:48:00       -0.293       -8.596       -6.050       10.704       20.105       13.111      114.578      404.214      171.887        0.040        0.035        8.601        5.380        0.391      327.679       -6.697      863.089
12/20/2021  04:49:00       74.073       66.819      -10.819       47.179       26.297       16.496     2225.895      691.522      272.126        0.663        0.159       99.758       22.800        0.052      327.522       -6.950      862.994
12/20/2021  04:50:00      136.745       74.970      -24.582       35.788       43.276       26.085     1280.748     1872.847      680.425        1.438        0.192      155.948       13.709        0.008      327.500       -6.987      862.831
12/20/2021  04:51:00       73.263        1.004      -11.985       35.619       31.793       24.371     1268.710     1010.800      593.942        0.419        0.144       73.270       13.955        0.036      327.601       -6.821      862.846
12/20/2021  04:52:00       19.369      -40.831      -23.024       17.181       27.263       23.300      295.204      743.256      542.876        0.208        0.079       45.193       10.634        0.055      327.666       -6.717      862.985
12/20/2021  04:53:00        9.806       -0.440       -9.715       14.443       25.973       11.083      208.614      674.574      122.837        0.060        0.050        9.816        6.903        0.495      327.658       -6.730      863.050
12/20/2021  04:54:00      -16.349       53.159       -5.562       28.877       15.070       10.665      833.897      227.090      113.737        0.215        0.059       55.616       11.358        0.042      327.606       -6.814      863.038
12/20/2021  04:55:00       27.428       41.335       -9.028       30.182       11.795        8.815      910.954      139.125       77.709        0.183        0.056       49.607        7.220        0.021      327.542       -6.919      863.011
12/20/2021  04:56:00       83.117       69.882      -15.745       25.323       12.470       13.419      641.265      155.513      180.069        0.651        0.049      108.590       10.277        0.009      327.507       -6.974      862.883
12/20/2021  04:57:00       29.379       85.439       -5.601       28.460       36.290       23.476      809.991     1316.992      551.143        0.544        0.134       90.349       15.947        0.031      327.646       -6.748      862.781
12/20/2021  04:58:00      -29.026       52.231      -13.376       58.200       34.996       17.933     3387.212     1224.712      321.609        0.434        0.247       59.754        8.538        0.020      327.742       -6.593      862.923
12/20/2021  04:59:00       -5.285        3.116      -16.665       28.659       26.978       14.603      821.359      727.814      213.243        0.104        0.088        6.135        9.703        2.501      327.840       -6.434      863.057
12/20/2021  05:00:00      114.630       72.820      -22.303       74.346       35.091       23.553     5527.362     1231.358      554.747        1.313        0.366      135.804       29.880        0.048      327.702       -6.659      862.940
12/20/2021  05:01:00      150.562       25.159      -24.966       58.061       73.568       38.265     3371.131     5412.307     1464.196        1.708        0.512      152.649       27.403        0.032      327.634       -6.769      862.663
12/20/2021  05:02:00       30.071       -9.876      -13.049       69.280       66.633       30.512     4799.766     4440.011      930.953        0.567        0.509       31.651       23.616        0.557      327.727       -6.617      862.669
12/20/2021  05:03:00      -79.407      -44.828      -22.668       66.054       69.072       38.019     4363.092     4770.953     1445.413        0.970        0.529       91.187       29.813        0.107      327.937       -6.276      862.978
12/20/2021  05:04:00      -83.441       -1.208       -6.154       40.622       37.466       27.326     1650.150     1403.682      746.729        0.540        0.190       83.449       12.958        0.024      327.971       -6.219      863.085
12/20/2021  05:05:00       41.549        8.655      -19.553       40.554       32.572       18.771     1644.638     1060.960      352.358        0.262        0.153       42.441       17.552        0.171      327.922       -6.300      863.003
12/20/2021  05:06:00       22.162       -8.407      -15.404       31.707       45.578       31.689     1005.359     2077.358     1004.189        0.244        0.204       23.703       21.039        0.788      327.930       -6.286      862.984
12/20/2021  05:07:00       20.396       12.264        0.635       29.031       19.594       14.931      842.777      383.935      222.922        0.101        0.072       23.799        8.443        0.126      327.801       -6.497      863.026
12/20/2021  05:08:00       51.589        8.999      -10.119       33.280       36.198       21.630     1107.546     1310.279      467.851        0.286        0.144       52.368       20.989        0.161      327.744       -6.591      863.073
12/20/2021  05:09:00       70.913       11.651      -13.170       63.534       65.343       57.041     4036.520     4269.675     3253.653        0.845        0.578       71.864       43.611        0.368      327.747       -6.585      863.026
12/20/2021  05:10:00       49.208      -15.048        6.497       83.110       64.085       54.361     6907.315     4106.914     2955.108        0.833        0.698       51.458       49.103        0.911      327.638       -6.763      862.922
12/20/2021  05:11:00       17.404       -5.028       -9.574       42.714       28.535       22.116     1824.467      814.225      489.114        0.177        0.156       18.116       14.875        0.674      327.700       -6.661      862.955
12/20/2021  05:12:00       18.150        5.387       -1.476       14.195        8.772        9.058      201.493       76.940       82.044        0.036        0.018       18.932        6.035        0.102      327.632       -6.772      863.089
12/20/2021  05:13:00       83.926       18.465      -17.908       35.191       27.549       15.921     1238.431      758.932      253.487        0.498        0.113       85.933       15.221        0.031      327.665       -6.718      863.091
12/20/2021  05:14:00       92.188       14.859      -22.574       61.844       56.500       42.361     3824.661     3192.293     1794.438        0.902        0.441       93.378       13.465        0.021      327.640       -6.759      862.916
12/20/2021  05:15:00       85.482       20.928      -14.172       76.686       63.953       40.137     5880.752     4090.028     1610.948        0.976        0.579       88.006       29.496        0.112      327.675       -6.703      862.773
12/20/2021  05:16:00      135.688       25.829      -12.565       56.700       37.525       32.406     3214.846     1408.160     1050.118        1.245        0.284      138.124       14.324        0.011      327.589       -6.841      862.803
12/20/2021  05:17:00        9.372      -36.560      -20.962       28.149       40.614       20.746      792.385     1649.468      430.388        0.237        0.144       37.742       16.102        0.182      327.821       -6.464      863.065
12/20/2021  05:18:00       -3.911      -66.087      -24.096       26.893       39.432       24.647      723.250     1554.845      607.498        0.392        0.144       66.203       16.579        0.063      328.140       -5.945      863.274
12/20/2021  05:19:00       74.126        9.526      -22.292       78.236       63.949       26.766     6120.887     4089.414      716.430        0.850        0.546       74.735       21.493        0.083      327.955       -6.246      863.199
12/20/2021  05:20:00      138.877       16.588      -22.701       66.679       59.747       43.895     4446.058     3569.697     1926.802        1.501        0.497      139.864       32.625        0.054      327.787       -6.519      862.881
12/20/2021  05:21:00      113.873       52.360      -10.093       81.186       48.808       34.325     6591.141     2382.225     1178.233        1.298        0.508      125.334       37.355        0.089      327.642       -6.758      862.653
12/20/2021  05:22:00       -1.975       23.768      -10.671       43.197       42.877       32.273     1866.002     1838.472     1041.577        0.271        0.237       23.850       20.993        0.775      327.860       -6.400      862.860
12/20/2021  05:23:00      -30.522      -27.551       -1.760      100.860       63.163       55.488    10172.792     3989.568     3078.937        0.946        0.862       41.118       34.456        0.702      327.918       -6.308      863.214
12/20/2021  05:24:00     -162.748      -34.651      -10.129       86.013       58.631       30.535     7398.296     3437.580      932.386        1.978        0.588      166.396       33.425        0.040      327.820       -6.466      863.371
12/20/2021  05:25:00      -17.148        3.033      -17.087       76.143       72.294       30.583     5797.788     5226.440      935.315        0.628        0.598       17.414       31.142        3.198      327.971       -6.219      863.234
12/20/2021  05:26:00       77.885       17.169      -20.370       66.629       54.876       29.772     4439.469     3011.367      886.360        0.755        0.417       79.755       25.066        0.099      328.042       -6.105      862.994
12/20/2021  05:27:00       11.229      -20.327      -12.156       18.166       27.518       22.550      329.993      757.245      508.501        0.114        0.080       23.222       15.805        0.463      327.952       -6.250      862.937
12/20/2021  05:28:00       11.818      -24.070      -22.076       16.331       21.690       16.128      266.710      470.468      260.106        0.110        0.050       26.814       12.949        0.233      327.997       -6.177      863.067
12/20/2021  05:29:00      -21.581      -48.483      -14.850       38.744       50.166       21.135     1501.093     2516.654      446.689        0.375        0.223       53.069       19.775        0.139      328.103       -6.005      863.213
12/20/2021  05:30:00       -6.985      -13.223      -13.523       37.456       29.134       20.530     1402.916      848.775      421.469        0.154        0.134       14.955       13.332        0.795      328.115       -5.985      863.277
12/20/2021  05:31:00      -22.409       11.000       -0.132       28.467       20.626       21.886      810.358      425.445      478.987        0.117        0.086       24.963        8.319        0.111      328.010       -6.156      863.211
12/20/2021  05:32:00       70.408       23.580      -13.270       46.582       41.958       35.225     2169.845     1760.455     1240.807        0.543        0.259       74.252       21.754        0.086      328.018       -6.144      862.983
12/20/2021  05:33:00      167.006       29.930      -13.739       73.478       38.570       29.169     5399.050     1487.646      850.857        1.836        0.387      169.666       23.251        0.019      327.829       -6.454      862.795
12/20/2021  05:34:00       -0.673       36.054      -11.247       32.536       34.649       24.828     1058.621     1200.533      616.417        0.215        0.144       36.060       16.284        0.204      328.038       -6.112      862.948
12/20/2021  05:35:00       17.837      -75.955      -20.311       37.511       42.107       29.254     1407.095     1773.018      855.815        0.527        0.202       78.022       14.290        0.034      328.153       -5.923      863.178
12/20/2021  05:36:00       21.927        2.456      -16.819       78.921       47.515       27.363     6228.501     2257.703      748.712        0.500        0.462       22.064       11.766        0.284      327.998       -6.177      863.099
12/20/2021  05:37:00      165.835       77.619      -22.683       58.610       66.667       37.925     3435.101     4444.431     1438.321        2.168        0.466      183.100       15.020        0.007      327.965       -6.231      862.799
12/20/2021  05:38:00       66.189      -19.751      -18.357       91.287       57.469       31.314     8333.291     3302.688      980.581        0.886        0.631       69.073       31.375        0.206      327.953       -6.250      862.899
12/20/2021  05:39:00      -87.557      -41.503       -7.855       88.780       61.196       44.153     7881.857     3744.928     1949.473        1.151        0.679       96.896       33.187        0.117      328.258       -5.753      863.258
12/20/2021  05:40:00     -184.623      -43.963      -33.824       75.234       90.024       47.231     5660.124     8104.345     2230.779        2.658        0.800      189.785       37.802        0.040      328.077       -6.050      863.333
12/20/2021  05:41:00       33.039      102.219       -3.342       77.329       58.589       39.158     5979.820     3432.693     1533.377        1.125        0.547      107.426       27.583        0.066      328.029       -6.126      863.089
12/20/2021  05:42:00      127.015      115.249      -19.954       54.769       71.024       34.098     2999.599     5044.353     1162.659        1.951        0.460      171.508       27.866        0.026      328.098       -6.014      862.884
12/20/2021  05:43:00       28.451      -30.931      -13.706       53.978       60.286       30.802     2913.671     3634.427      948.751        0.472        0.375       42.026       23.650        0.317      328.099       -6.011      863.065
12/20/2021  05:44:00      -98.236      -20.701       -7.370      108.406       65.052       42.513    11751.768     4231.824     1807.320        1.396        0.890      100.394       41.773        0.173      328.176       -5.888      863.354
12/20/2021  05:45:00     -116.721       -5.554      -11.367       80.414       89.279       39.885     6466.445     7970.732     1590.815        1.490        0.801      116.853       36.702        0.099      328.065       -6.068      863.426
12/20/2021  05:46:00      -52.289       60.550       -6.057       80.485       32.344       24.692     6477.912     1046.114      609.710        0.728        0.407       80.003       25.470        0.101      327.918       -6.306      863.172
12/20/2021  05:47:00       55.538      104.909      -13.022       41.192       53.708       35.364     1696.774     2884.552     1250.637        1.004        0.292      118.703       28.745        0.059      328.018       -6.143      862.911
12/20/2021  05:48:00       28.724      -35.652      -25.570       30.734       49.457       21.481      944.585     2445.990      461.443        0.330        0.193       45.783       20.669        0.204      328.094       -6.021      863.000
12/20/2021  05:49:00       23.103      -61.412      -14.523       42.009       39.135       27.134     1764.729     1531.527      736.272        0.427        0.202       65.614       18.582        0.080      328.118       -5.981      863.189
12/20/2021  05:50:00       -3.940      -11.906       -7.091       37.948       38.397       21.583     1440.061     1474.304      465.842        0.179        0.169       12.541       19.952        2.531      328.173       -5.891      863.250
12/20/2021  05:51:00      -21.243       -1.005        0.892       29.624       17.714       12.099      877.561      313.779      146.394        0.090        0.067       21.267        8.066        0.144      327.998       -6.177      863.226
12/20/2021  05:52:00        9.982       22.125       -5.603       11.734       13.702        8.324      137.681      187.751       69.288        0.051        0.020       24.272        7.771        0.103      327.972       -6.218      863.190
12/20/2021  05:53:00      -16.442       32.694       -7.202       23.567       15.972       13.749      555.408      255.097      189.046        0.120        0.050       36.596        6.889        0.035      328.002       -6.168      863.208
12/20/2021  05:54:00       18.241       19.925       -7.120       39.628       20.718       11.557     1570.389      429.253      133.554        0.146        0.107       27.014        7.774        0.083      328.057       -6.081      863.233
12/20/2021  05:55:00       35.072       -9.593      -13.567       36.375       42.810       30.443     1323.152     1832.726      926.749        0.279        0.204       36.360       19.495        0.287      327.947       -6.259      863.276
12/20/2021  05:56:00      -13.505      -38.911      -15.993       40.929       48.248       25.083     1675.194     2327.835      629.144        0.329        0.232       41.188       19.580        0.226      328.051       -6.088      863.388
12/20/2021  05:57:00      -61.475      -25.033      -27.680       56.498       53.513       31.411     3192.018     2863.639      986.679        0.611        0.352       66.376       29.648        0.200      328.192       -5.859      863.444
12/20/2021  05:58:00      -30.868       40.001      -16.512       57.339       31.421       33.919     3287.738      987.266     1150.517        0.412        0.271       50.526       18.733        0.137      328.113       -5.990      863.300
12/20/2021  05:59:00       57.074       68.714       -6.584       45.394       40.064       28.211     2060.589     1605.149      795.884        0.624        0.223       89.325       25.585        0.082      328.005       -6.163      863.083
12/20/2021  06:00:00        4.994       15.408      -21.464       31.047       36.038       17.884      963.944     1298.708      319.837        0.165        0.129       16.197       19.989        1.523      328.145       -5.937      863.103
12/20/2021  06:01:00        5.031      -13.717       -8.269       37.148       45.043       41.015     1379.966     2028.865     1682.245        0.269        0.255       14.611       15.471        1.121      328.129       -5.962      863.335
12/20/2021  06:02:00     -102.157      -12.126        8.921      143.396       62.855       56.460    20562.380     3950.701     3187.681        1.918        1.385      102.874       63.212        0.378      327.986       -6.197      863.508
12/20/2021  06:03:00     -123.039       -1.434      -20.818       85.894       49.636       29.815     7377.837     2463.700      888.952        1.315        0.537      123.048       16.620        0.018      327.699       -6.662      863.477
12/20/2021  06:04:00       86.173       73.436      -25.286       72.330       58.732       33.078     5231.643     3449.426     1094.122        1.161        0.489      113.220       23.067        0.042      327.757       -6.569      863.215
12/20/2021  06:05:00       99.409       19.006      -15.179       73.452       50.368       34.082     5395.227     2536.971     1161.564        0.978        0.455      101.209       27.352        0.073      327.796       -6.505      863.091
12/20/2021  06:06:00        0.459       -9.504        4.562       51.475       45.421       42.502     2649.717     2063.067     1806.410        0.331        0.326        9.515       31.733       11.123      328.033       -6.119      863.333
12/20/2021  06:07:00      -99.838      -27.116       -7.767       90.701       92.403       42.488     8226.596     8538.266     1805.228        1.466        0.929      103.454       36.443        0.124      327.965       -6.230      863.498
12/20/2021  06:08:00       80.020       -6.128      -30.691       79.771       68.766       31.997     6363.466     4728.725     1023.794        0.975        0.606       80.254       25.896        0.104      328.089       -6.028      863.357
12/20/2021  06:09:00       79.361       33.137      -21.694       68.448       55.284       27.643     4685.083     3056.330      764.130        0.818        0.425       86.001       29.350        0.116      328.049       -6.093      863.186
12/20/2021  06:10:00        0.098      -14.535       -7.571       30.395       33.511       27.098      923.851     1122.999      734.295        0.152        0.139       14.535       17.113        1.386      328.027       -6.129      863.292
12/20/2021  06:11:00      -47.728      -40.574       -2.338      123.748       52.834       37.709    15313.489     2791.457     1421.992        1.172        0.976       62.643       44.413        0.503      328.072       -6.056      863.504
12/20/2021  06:12:00      -92.568      -71.602      -18.420       67.893       64.794       40.544     4609.457     4198.267     1643.800        1.224        0.523      117.028       33.084        0.080      328.015       -6.149      863.590
12/20/2021  06:13:00       26.120       38.695      -10.293       72.885       38.239       29.032     5312.220     1462.219      842.831        0.495        0.381       46.686       15.528        0.111      327.928       -6.290      863.372
12/20/2021  06:14:00      121.840       61.299      -17.337       56.468       59.201       38.803     3188.645     3504.739     1505.645        1.355        0.410      136.391       30.731        0.051      328.039       -6.110      863.086
12/20/2021  06:15:00       12.179       38.085      -22.266       92.523       45.306       26.992     8560.446     2052.677      728.560        0.672        0.567       39.985       12.711        0.101      327.999       -6.174      863.146
12/20/2021  06:16:00      -80.708       -4.581        2.463       97.101       63.702       58.969     9428.512     4057.913     3477.393        1.175        0.848       80.838       41.124        0.259      328.055       -6.083      863.419
12/20/2021  06:17:00     -116.967       -8.089       -0.519       96.785       85.487       68.490     9367.392     7307.969     4690.838        1.755        1.068      117.247       61.443        0.275      327.866       -6.393      863.578
12/20/2021  06:18:00     -119.103       -6.845        8.873       68.123       48.331       43.158     4640.806     2335.909     1862.645        1.157        0.442      119.300       38.298        0.103      327.802       -6.496      863.527
12/20/2021  06:19:00      -28.393       -4.131      -14.534       29.778       24.894       16.159      886.707      619.708      261.113        0.140        0.088       28.692       12.502        0.190      327.710       -6.645      863.445
12/20/2021  06:20:00      -83.854        4.437      -13.360       46.213       27.643       28.596     2135.686      764.127      817.715        0.547        0.186       83.971       25.840        0.095      327.755       -6.572      863.453
12/20/2021  06:21:00      -86.975       14.120        1.429       54.507       33.092       27.297     2971.051     1095.092      745.133        0.629        0.241       88.113       20.221        0.053      327.776       -6.536      863.447
12/20/2021  06:22:00       15.557       81.510       -5.641       70.401       54.138       29.598     4956.370     2930.933      876.033        0.784        0.438       82.982       29.157        0.123      327.751       -6.579      863.319
12/20/2021  06:23:00       79.179       74.018      -13.762       32.663       43.961       21.513     1066.846     1932.589      462.828        0.770        0.173      108.388        9.924        0.008      327.824       -6.458      863.228
12/20/2021  06:24:00        8.885      -33.069      -16.547       26.113       54.837       24.445      681.863     3007.136      597.574        0.287        0.214       34.242       18.690        0.298      327.864       -6.394      863.390
12/20/2021  06:25:00      -63.318      -22.022        1.271       68.107       87.130       38.725     4638.607     7591.683     1499.638        0.911        0.686       67.038       39.878        0.354      328.012       -6.154      863.603
12/20/2021  06:26:00       38.520       41.089      -10.360       45.917       65.457       22.179     2108.341     4284.666      491.926        0.508        0.344       56.322       23.323        0.171      328.078       -6.046      863.576
12/20/2021  06:27:00      123.803       10.542      -27.618       29.361       46.919       25.081      862.052     2201.385      629.043        0.995        0.185      124.252       10.962        0.008      327.871       -6.383      863.382
12/20/2021  06:28:00       38.106       45.372      -11.621       59.676       28.677       20.972     3561.252      822.369      439.835        0.423        0.241       59.251       16.878        0.081      327.831       -6.450      863.324
12/20/2021  06:29:00      -27.190        9.531      -27.078       47.795       38.524       32.096     2284.390     1484.068     1030.160        0.318        0.240       28.812       15.134        0.276      328.114       -5.987      863.435
12/20/2021  06:30:00      -80.385       12.194        4.011       86.266       66.734       42.699     7441.868     4453.413     1823.234        1.017        0.686       81.305       32.132        0.156      327.966       -6.228      863.527
12/20/2021  06:31:00      -52.851       45.026      -11.874       70.964       44.294       29.278     5035.894     1961.929      857.229        0.641        0.393       69.430       20.878        0.090      327.848       -6.420      863.487
12/20/2021  06:32:00       19.027       53.054       -4.982       45.670       36.302       22.743     2085.756     1317.828      517.232        0.356        0.196       56.363       21.917        0.151      327.816       -6.471      863.361
12/20/2021  06:33:00       71.830       42.059      -19.223       40.018       36.595       19.825     1601.421     1339.201      393.021        0.532        0.167       83.238        7.977        0.009      327.850       -6.419      863.338
12/20/2021  06:34:00       31.135      -12.126      -27.423       30.560       19.726       12.920      933.943      389.127      166.914        0.168        0.074       33.413       14.493        0.188      327.871       -6.383      863.392
12/20/2021  06:35:00      -30.724       32.013       -6.170       34.214       28.606       20.315     1170.578      818.293      412.690        0.220        0.120       44.371       13.297        0.090      327.947       -6.258      863.430
12/20/2021  06:36:00      -28.658       11.617      -17.376       41.249       40.302       20.119     1701.509     1624.244      404.775        0.249        0.187       30.923       14.692        0.226      328.018       -6.145      863.508
12/20/2021  06:37:00       -6.941      -49.167      -24.000       49.322       33.437       22.931     2432.663     1118.044      525.824        0.356        0.204       49.655       16.813        0.115      328.023       -6.135      863.622
12/20/2021  06:38:00       18.126      -52.776      -30.481       32.209       35.144       21.951     1037.404     1235.108      481.834        0.340        0.138       55.802       16.510        0.088      328.001       -6.171      863.667
12/20/2021  06:39:00        9.239       48.970       -1.421       36.274       52.915       29.925     1315.835     2800.043      895.497        0.375        0.251       49.834       24.292        0.238      327.946       -6.260      863.554
12/20/2021  06:40:00       62.299       53.778       -8.550       43.935       50.037       23.758     1930.273     2503.740      564.436        0.592        0.250       82.300       19.813        0.058      327.863       -6.396      863.391
12/20/2021  06:41:00      -12.399       70.668       -1.560       50.185       33.595       22.917     2518.515     1128.627      525.186        0.466        0.209       71.747       15.154        0.045      328.117       -5.982      863.420
12/20/2021  06:42:00        2.253      -16.025        8.170       50.674       52.620       27.060     2567.809     2768.872      732.220        0.320        0.303       16.183       14.485        0.801      328.087       -6.031      863.650
12/20/2021  06:43:00      -97.688      -22.456       -0.110       86.493       46.744       42.563     7481.103     2185.038     1811.605        1.076        0.574      100.236       40.615        0.164      327.917       -6.307      863.821
12/20/2021  06:44:00       -4.250       41.631        2.862       32.854       31.207       20.597     1079.362      973.897      424.228        0.212        0.124       41.848       12.481        0.089      327.898       -6.337      863.780
12/20/2021  06:45:00       27.001       59.374      -12.745       34.851       21.810       24.648     1214.565      475.692      607.547        0.336        0.115       65.225       18.266        0.078      327.841       -6.432      863.606
12/20/2021  06:46:00       12.507       99.607      -15.503       45.137       34.605       20.530     2037.313     1197.507      421.499        0.699        0.183      100.389       13.308        0.018      328.056       -6.081      863.499
12/20/2021  06:47:00      -12.820        4.479      -15.402       51.252       51.734       28.653     2626.808     2676.361      821.010        0.327        0.306       13.580       23.901        3.098      327.998       -6.176      863.605
12/20/2021  06:48:00      -90.875      -14.388       -5.245      110.971       59.075       42.179    12314.648     3489.806     1779.049        1.303        0.879       92.007       31.873        0.120      327.857       -6.405      863.780
12/20/2021  06:49:00     -109.910       47.194        4.449       86.115       70.307       49.500     7415.711     4943.142     2450.202        1.457        0.740      119.614       52.077        0.190      327.596       -6.833      863.841
12/20/2021  06:50:00      -84.799       73.954      -11.881       40.478       49.101       24.772     1638.485     2410.868      613.670        0.873        0.233      112.517       24.169        0.046      327.520       -6.954      863.778
12/20/2021  06:51:00       23.602       20.156       -7.030       23.012       32.279       16.119      529.531     1041.928      259.823        0.142        0.092       31.037       17.983        0.336      327.559       -6.889      863.669
12/20/2021  06:52:00       59.453       72.502       -8.051       36.428       31.176       17.840     1326.999      971.948      318.270        0.574        0.131       93.761       17.927        0.037      327.582       -6.853      863.551
12/20/2021  06:53:00       -9.467       79.391      -20.568       68.675       53.070       32.260     4716.312     2816.440     1040.727        0.769        0.429       79.953       18.700        0.055      327.788       -6.519      863.570
12/20/2021  06:54:00        3.055      -21.610        1.219       67.233       60.323       46.104     4520.267     3638.847     2125.601        0.538        0.514       21.825       26.687        1.495      327.833       -6.444      863.803
12/20/2021  06:55:00      -94.230       -6.477      -10.580       70.353       45.795       44.732     4949.600     2097.182     2000.951        0.904        0.452       94.453       26.987        0.082      327.782       -6.528      863.920
12/20/2021  06:56:00       37.228       69.576      -14.352       71.876       43.550       26.147     5166.096     1896.646      683.674        0.709        0.387       78.910       25.011        0.100      327.794       -6.509      863.691
12/20/2021  06:57:00      111.932      100.416       -5.086       83.717       60.069       46.898     7008.464     3608.340     2199.384        1.772        0.641      150.373       44.043        0.086      327.839       -6.438      863.400
12/20/2021  06:58:00        4.716       18.265      -20.896       55.422       46.740       34.583     3071.581     2184.672     1196.014        0.362        0.323       18.864       12.894        0.467      327.929       -6.288      863.571
12/20/2021  06:59:00     -179.185      -36.457      -13.018      156.382       66.206       55.943    24455.390     4383.175     3129.603        3.278        1.598      182.856       69.052        0.143      327.902       -6.336      863.903
12/20/2021  07:00:00     -175.178       10.684      -14.912       94.006       89.224       51.509     8837.209     7960.836     2653.146        2.523        0.973      175.503       43.210        0.061      327.900       -6.338      863.987
12/20/2021  07:01:00     -102.831       41.361      -22.000       90.404       42.668       25.213     8172.861     1820.522      635.671        1.170        0.531      110.838       35.102        0.100      327.737       -6.601      863.803
12/20/2021  07:02:00      -22.367       85.066      -13.487       24.412       29.106       15.677      595.953      847.152      245.779        0.480        0.084       87.957       13.988        0.025      327.756       -6.570      863.619
12/20/2021  07:03:00       -5.523       15.086       -4.965       12.225       16.826       10.403      149.455      283.123      108.222        0.041        0.027       16.065        6.044        0.142      327.889       -6.354      863.628
12/20/2021  07:04:00      -20.536      -28.282      -10.619       18.462       32.076       16.824      340.855     1028.869      283.060        0.149        0.083       34.951        7.527        0.046      328.050       -6.091      863.713
12/20/2021  07:05:00       -7.815       -0.046       -0.640       31.660       18.693       16.731     1002.371      349.418      279.941        0.085        0.082        7.815       15.613        3.991      328.024       -6.134      863.784
12/20/2021  07:06:00      -30.390      -12.225       -3.982       36.360       22.311       15.772     1322.033      497.766      248.749        0.158        0.103       32.757       14.340        0.192      327.855       -6.408      863.815
12/20/2021  07:07:00      -43.595       20.600        3.260       32.666       21.634       17.952     1067.067      468.016      322.272        0.210        0.093       48.217       13.826        0.082      327.747       -6.584      863.840
12/20/2021  07:08:00      -28.958       -9.004       -2.859       47.912       29.300       24.322     2295.588      858.485      591.580        0.234        0.187       30.326       19.946        0.433      327.901       -6.334      863.841
12/20/2021  07:09:00      -81.379      -20.633      -10.027       61.784       43.431       35.374     3817.295     1886.225     1251.340        0.705        0.348       83.954       25.001        0.089      327.860       -6.400      863.811
12/20/2021  07:10:00      -95.549       -0.954       -1.313       47.160       34.839       25.469     2224.075     1213.773      648.678        0.661        0.204       95.554       27.697        0.084      327.705       -6.653      863.758
12/20/2021  07:11:00      -79.250        5.198       -7.197       50.266       27.376       30.206     2526.626      749.431      912.394        0.527        0.209       79.420       29.616        0.139      327.671       -6.707      863.684
12/20/2021  07:12:00      -86.163       12.484       -6.765       81.106       56.332       38.227     6578.136     3173.278     1461.286        0.942        0.561       87.063       34.664        0.159      327.747       -6.584      863.696
12/20/2021  07:13:00      -47.850        2.277       -1.876       75.987       47.758       37.872     5774.060     2280.816     1434.308        0.589        0.474       47.904       33.371        0.485      327.828       -6.453      863.799
12/20/2021  07:14:00      -49.985        8.148       -5.779       62.772       43.552       41.033     3940.327     1896.785     1683.723        0.506        0.376       50.645       26.802        0.280      327.697       -6.665      863.909
12/20/2021  07:15:00        5.655       -8.242       -5.161       36.610       54.508       26.194     1340.275     2971.097      686.138        0.256        0.250        9.996       22.808        5.206      327.849       -6.419      863.889
12/20/2021  07:16:00       -4.504        6.812       -5.907       33.320       52.281       29.071     1110.221     2733.255      845.108        0.239        0.234        8.166       27.551       11.383      327.837       -6.438      863.733
12/20/2021  07:17:00      -14.169       34.792       -4.241       29.324       32.160       24.745      859.876     1034.255      612.297        0.197        0.125       37.566       19.225        0.262      327.876       -6.375      863.644
12/20/2021  07:18:00       11.514      -33.125      -17.136       39.310       36.099       25.880     1545.289     1303.136      669.790        0.252        0.176       35.069       17.969        0.263      327.912       -6.317      863.768
12/20/2021  07:19:00     -132.558      -18.020       -7.399       90.208       54.765       38.548     8137.441     2999.163     1485.917        1.528        0.631      133.778       37.721        0.080      327.797       -6.504      863.916
12/20/2021  07:20:00     -200.813       -0.059      -22.411       48.397       41.012       28.460     2342.279     1682.002      809.955        2.283        0.242      200.813       19.732        0.010      327.667       -6.715      863.901
12/20/2021  07:21:00      -65.329       17.895       -4.835       58.862       23.093       15.312     3464.778      533.275      234.458        0.442        0.212       67.736       23.416        0.120      327.609       -6.809      863.814
12/20/2021  07:22:00      -22.311       29.897       -7.835       26.396       41.910       11.002      696.752     1756.452      121.054        0.201        0.129       37.304       14.187        0.145      327.651       -6.741      863.782
12/20/2021  07:23:00      -36.235       50.299       -8.960       21.298       19.305       16.616      453.610      372.700      276.094        0.251        0.055       61.992       13.219        0.045      327.785       -6.522      863.736
12/20/2021  07:24:00      -43.709       81.743       -5.714       25.689       32.259       16.484      659.938     1040.629      271.728        0.530        0.099       92.696       10.678        0.013      327.817       -6.471      863.706
12/20/2021  07:25:00      -52.023        0.911       -5.571       66.420       44.587       33.622     4411.655     1987.995     1130.444        0.513        0.377       52.031       20.724        0.159      327.849       -6.417      863.792
12/20/2021  07:26:00      -54.439        2.558       -4.526       60.779       38.848       37.608     3694.115     1509.195     1414.347        0.480        0.331       54.499       35.162        0.416      327.735       -6.604      863.909
12/20/2021  07:27:00      -54.314       33.656       -6.873       50.108       41.403       28.385     2510.803     1714.232      805.719        0.458        0.252       63.896       25.489        0.159      327.709       -6.647      863.902
12/20/2021  07:28:00      -64.281       35.013      -10.547       53.739       26.920       27.312     2887.918      724.666      745.940        0.491        0.218       73.198       28.192        0.148      327.526       -6.943      863.776
12/20/2021  07:29:00      -35.414       64.953       -1.720       27.008       27.874       21.139      729.453      776.981      446.848        0.371        0.098       73.980       13.021        0.031      327.586       -6.848      863.642
12/20/2021  07:30:00       42.431       32.958      -11.869       38.976       24.796       16.834     1519.090      614.833      283.383        0.272        0.121       53.727       10.248        0.036      327.550       -6.904      863.620
12/20/2021  07:31:00       17.179        2.556      -11.083       18.557       15.983       14.878      344.345      255.460      221.365        0.062        0.041       17.369        6.201        0.127      327.690       -6.677      863.763
12/20/2021  07:32:00     -100.557       -9.531        7.666       90.701       44.797       38.371     8226.648     2006.776     1472.304        1.098        0.585      101.008       31.822        0.099      327.758       -6.567      863.887
12/20/2021  07:33:00     -109.940       -0.591      -17.170       74.430       69.691       26.750     5539.814     4856.835      715.565        1.175        0.556      109.942       30.792        0.078      327.612       -6.806      863.854
12/20/2021  07:34:00        1.502       39.110       -7.812       17.317       26.667       15.213      299.880      711.141      231.443        0.142        0.062       39.139       11.938        0.093      327.631       -6.774      863.729
12/20/2021  07:35:00       42.032        9.190      -18.104       33.520       20.450       21.087     1123.563      418.219      444.667        0.208        0.099       43.025       11.468        0.071      327.681       -6.692      863.650
12/20/2021  07:36:00       27.273       27.548      -15.067       27.506       27.296       15.431      756.585      745.092      238.106        0.173        0.087       38.765       12.722        0.108      327.639       -6.761      863.652
12/20/2021  07:37:00      -73.086       11.893      -30.253       66.420       36.638       28.543     4411.627     1342.320      814.724        0.648        0.328       74.047       21.763        0.086      327.883       -6.362      863.762
12/20/2021  07:38:00        0.818      -33.443       -1.479      102.539       54.532       42.470    10514.298     2973.685     1803.717        0.820        0.765       33.453       26.088        0.608      327.933       -6.283      863.923
12/20/2021  07:39:00     -201.345        5.653      -12.510       90.391       50.677       41.452     8170.593     2568.167     1718.235        2.659        0.623      201.424       41.412        0.042      327.689       -6.682      863.952
12/20/2021  07:40:00        1.426       54.826      -18.130       65.443       64.670       28.099     4282.722     4182.174      789.536        0.629        0.463       54.844       23.685        0.187      327.699       -6.662      863.765
12/20/2021  07:41:00       13.466       61.578       -8.979       34.596       33.212       24.527     1196.876     1103.014      601.555        0.348        0.145       63.033       17.546        0.077      327.578       -6.860      863.590
12/20/2021  07:42:00       20.285       26.201      -11.406       58.609       38.742       18.116     3435.039     1500.974      328.196        0.325        0.263       33.136       14.808        0.200      327.758       -6.566      863.633
12/20/2021  07:43:00        0.918      -11.049      -11.672       53.281       45.027       33.062     2838.862     2027.400     1093.126        0.311        0.298       11.087       29.104        6.891      327.861       -6.399      863.816
12/20/2021  07:44:00      -92.101       -1.328      -10.084       56.478       41.418       31.260     3189.773     1715.431      977.186        0.723        0.294       92.110       25.855        0.079      327.799       -6.500      863.925
12/20/2021  07:45:00      -51.678       22.565       -2.758       55.846       24.138       22.331     3118.738      582.659      498.671        0.369        0.210       56.390       16.234        0.083      327.637       -6.763      863.812
12/20/2021  07:46:00       62.304       64.288       -9.764       31.801       26.401       22.227     1011.323      697.016      494.048        0.516        0.110       89.525       12.763        0.020      327.786       -6.520      863.623
12/20/2021  07:47:00       -1.236       33.461      -14.216       37.562       27.045       18.255     1410.927      731.410      333.247        0.190        0.124       33.483       14.683        0.192      327.841       -6.433      863.665
12/20/2021  07:48:00       11.208        4.425       -5.935       68.786       44.128       36.272     4731.472     1947.296     1315.635        0.409        0.400       12.050       24.168        4.023      328.008       -6.160      863.852
12/20/2021  07:49:00      -61.207       33.966      -16.647      103.295       50.381       43.495    10669.932     2538.248     1891.849        1.014        0.755       70.000       47.221        0.455      327.848       -6.420      863.892
12/20/2021  07:50:00      -10.895       85.810        0.514       35.581       35.074       29.418     1266.017     1230.191      865.409        0.542        0.168       86.499       19.637        0.052      327.850       -6.418      863.784
12/20/2021  07:51:00        8.777       33.590      -11.741       19.384       50.593       17.210      375.755     2559.603      296.181        0.229        0.162       34.718        8.376        0.058      327.533       -6.932      863.725
12/20/2021  07:52:00       10.670       10.668       -8.398       22.712       16.945       15.452      515.826      287.125      238.777        0.067        0.052       15.088       11.660        0.597      327.646       -6.748      863.797
12/20/2021  07:53:00       -2.279       -8.114       -1.078       38.198       41.139       31.019     1459.069     1692.436      962.207        0.209        0.206        8.428       25.163        8.915      327.758       -6.568      863.824
12/20/2021  07:54:00      -79.052       23.656       -6.209       72.064       55.063       33.893     5193.264     3031.886     1148.757        0.811        0.469       82.516       37.140        0.203      327.794       -6.508      863.788
12/20/2021  07:55:00      -32.727       -0.241        1.834       54.452       30.590       24.325     2965.038      935.768      591.686        0.278        0.225       32.728       15.827        0.234      327.679       -6.696      863.774
12/20/2021  07:56:00       21.986       69.062      -13.858       33.192       45.228       18.823     1101.718     2045.560      354.314        0.447        0.175       72.477       16.429        0.051      327.752       -6.577      863.748
12/20/2021  07:57:00       -7.602       87.140      -18.904       30.198       40.293       22.457      911.913     1623.499      504.314        0.552        0.152       87.471        8.654        0.010      327.738       -6.601      863.744
12/20/2021  07:58:00      -45.498       -8.284      -17.113       43.557       40.563       30.624     1897.192     1645.339      937.813        0.346        0.224       46.246       18.143        0.154      327.849       -6.420      863.832
12/20/2021  07:59:00      -87.868       18.667       -4.697       41.252       42.032       27.610     1701.739     1766.659      762.324        0.616        0.212       89.829       22.613        0.063      327.743       -6.592      863.912
12/20/2021  08:00:00      -34.135       64.613       -7.101       21.866       16.492       11.038      478.109      271.979      121.838        0.313        0.044       73.076        8.118        0.012      327.581       -6.853      863.891
12/20/2021  08:01:00      -34.877       56.915      -10.604       17.628       21.497       18.738      310.761      462.106      351.108        0.285        0.056       66.752       10.823        0.026      327.670       -6.711      863.818
12/20/2021  08:02:00      -96.795       35.944      -24.225       45.562       37.082       25.413     2075.885     1375.039      645.833        0.767        0.205      103.253       18.638        0.033      327.861       -6.399      863.831
12/20/2021  08:03:00      -49.376       14.818       -3.676       52.707       48.336       26.935     2778.043     2336.361      725.512        0.425        0.292       51.552       25.616        0.247      327.796       -6.505      863.870
12/20/2021  08:04:00      -53.362       37.195      -17.100       29.713       24.127       15.728      882.883      582.089      247.364        0.312        0.086       65.046       15.803        0.059      327.617       -6.796      863.834
12/20/2021  08:05:00      -59.106       60.225      -19.173       39.630       20.236       22.859     1570.575      409.516      522.520        0.499        0.125       84.384       18.731        0.049      327.717       -6.633      863.798
12/20/2021  08:06:00      -36.755       90.996       -2.211       37.031       40.663       15.669     1371.326     1653.504      245.521        0.645        0.164       98.139        8.835        0.008      327.785       -6.523      863.792
12/20/2021  08:07:00     -128.323       44.139      -27.746       71.081       46.728       28.481     5052.558     2183.483      811.163        1.361        0.402      135.702       32.008        0.056      327.664       -6.720      863.816
12/20/2021  08:08:00       -7.346       26.262        0.992       45.765       30.364       32.659     2094.433      921.967     1066.586        0.241        0.204       27.270       10.836        0.158      327.840       -6.435      863.841
12/20/2021  08:09:00      -20.577      -29.938       -7.618       32.431       54.037       29.034     1051.768     2919.995      842.976        0.310        0.241       36.327       14.921        0.169      327.882       -6.365      863.837
12/20/2021  08:10:00      -43.556      -35.281      -19.428       30.617       28.879       24.288      937.408      834.004      589.896        0.294        0.118       56.052       19.906        0.126      327.809       -6.484      863.866
12/20/2021  08:11:00      -54.735      -10.988      -11.359       31.907       20.769       21.159     1018.033      431.351      447.714        0.257        0.095       55.827       12.767        0.052      327.548       -6.910      863.866
12/20/2021  08:12:00      -23.041       13.794       -7.894       26.466       11.272       13.004      700.471      127.068      169.101        0.089        0.050       26.854        9.439        0.124      327.496       -6.993      863.783
12/20/2021  08:13:00       32.060       64.301        0.590       36.838       44.212       23.473     1357.004     1954.702      550.971        0.451        0.193       71.850       19.516        0.074      327.687       -6.684      863.727
12/20/2021  08:14:00       10.713       20.700        7.179       24.658       33.749       16.985      608.039     1139.010      288.506        0.131        0.102       23.308        9.000        0.149      327.737       -6.600      863.769
12/20/2021  08:15:00      -32.774        8.196      -14.273       20.523       20.059       23.284      421.198      402.369      542.128        0.136        0.068       33.783       15.622        0.214      327.735       -6.602      863.868
12/20/2021  08:16:00      -48.939        2.845      -15.178       67.710       28.166       17.472     4584.612      793.298      305.286        0.416        0.284       49.022       23.634        0.232      327.703       -6.656      863.898
12/20/2021  08:17:00      -72.050       -2.638       -7.924       60.163       34.166       23.571     3619.646     1167.312      555.602        0.530        0.267       72.098       27.844        0.149      327.757       -6.569      863.873
12/20/2021  08:18:00      -41.663       47.903       -3.713       37.695       36.391       21.640     1420.943     1324.338      468.279        0.363        0.161       63.486       13.972        0.048      327.785       -6.523      863.818
12/20/2021  08:19:00      -26.163       47.219       -6.495       29.114       27.991       12.980      847.602      783.493      168.478        0.238        0.090       53.983       12.599        0.054      327.722       -6.624      863.769
12/20/2021  08:20:00      -45.020       13.116       -5.886       47.958       43.521       31.197     2299.991     1894.051      973.283        0.370        0.258       46.892       23.251        0.246      327.777       -6.537      863.815
12/20/2021  08:21:00       -7.250        0.296        6.766       49.086       35.751       31.127     2409.387     1278.139      968.910        0.238        0.233        7.256       17.888        6.077      327.878       -6.371      863.864
12/20/2021  08:22:00        7.443       -5.475      -21.609       25.693       27.005       17.432      660.146      729.280      303.883        0.112        0.085        9.240       11.583        1.571      327.737       -6.601      863.899
12/20/2021  08:23:00       -8.071       22.157      -11.258       17.665       23.188       12.500      312.055      537.677      156.247        0.084        0.050       23.581        6.525        0.077      327.918       -6.307      863.894
12/20/2021  08:24:00      -19.361       31.039      -16.022       25.145       24.539       12.842      632.280      602.140      164.910        0.150        0.070       36.582       11.084        0.092      327.758       -6.567      863.846
12/20/2021  08:25:00        8.583       31.779       -0.837       12.872       12.627       15.027      165.676      159.430      225.824        0.082        0.028       32.918        8.064        0.060      327.718       -6.633      863.792
12/20/2021  08:26:00       25.344       33.041       -9.341       19.692       12.337       15.828      387.792      152.207      250.532        0.131        0.040       41.641       11.251        0.073      327.747       -6.584      863.796
12/20/2021  08:27:00       -3.687       26.475        6.457       22.162       24.003       10.990      491.134      576.141      120.787        0.097        0.059       26.730        9.709        0.132      327.938       -6.275      863.892
12/20/2021  08:28:00      -90.624       52.808      -32.532       30.251       30.056       27.662      915.152      903.386      765.202        0.732        0.129      104.888       23.013        0.048      327.736       -6.603      863.999
12/20/2021  08:29:00      -53.159       60.420      -16.740       21.575       24.886       21.080      465.486      619.302      444.383        0.414        0.076       80.476       14.062        0.031      327.587       -6.843      863.977
12/20/2021  08:30:00       30.652      108.856      -19.909       49.509       49.153       20.657     2451.122     2415.978      426.716        0.924        0.265      113.089       29.276        0.067      327.695       -6.668      863.867
12/20/2021  08:31:00       27.367       95.936      -24.116       37.871       48.019       22.446     1434.209     2305.853      503.826        0.739        0.212       99.763       22.695        0.052      327.857       -6.405      863.863
12/20/2021  08:32:00        0.067       -6.817      -18.299       23.280       25.470       18.274      541.966      648.709      333.935        0.095        0.076        6.818       12.122        3.161      327.935       -6.279      864.007
12/20/2021  08:33:00      -23.444       -4.205       -4.251       33.965       30.011       29.044     1153.601      900.678      843.564        0.174        0.145       23.818       22.677        0.906      328.036       -6.115      864.090
12/20/2021  08:34:00       14.504       -0.182        0.061       16.474       22.716       21.954      271.379      516.036      481.989        0.074        0.063       14.505       11.378        0.615      328.015       -6.148      864.066
12/20/2021  08:35:00       18.352       37.923      -14.164       18.833       29.390       18.244      354.671      863.768      332.849        0.176        0.078       42.130       14.947        0.126      327.748       -6.583      863.967
12/20/2021  08:36:00       55.491       32.545       -9.810       19.763       22.434       12.187      390.587      503.299      148.526        0.264        0.052       64.331        6.918        0.012      327.822       -6.462      863.899
12/20/2021  08:37:00       -6.350       25.245      -10.780       26.014       15.022       11.194      676.742      225.669      125.307        0.091        0.051       26.031        4.765        0.034      327.842       -6.430      863.988
12/20/2021  08:38:00      -79.585       16.768      -10.907       34.986       35.166       26.846     1223.987     1236.651      720.721        0.496        0.159       81.333       19.602        0.058      327.985       -6.198      864.108
12/20/2021  08:39:00      -16.510       -8.659       -7.196       56.318       41.764       28.357     3171.732     1744.258      804.096        0.306        0.286       18.642       16.257        0.760      327.946       -6.261      864.104
12/20/2021  08:40:00      -56.977      -26.337      -12.127       20.785       23.815       20.437      432.005      567.152      417.663        0.275        0.071       62.769       13.135        0.044      327.805       -6.492      864.010
12/20/2021  08:41:00      -16.434      -24.119      -13.739       20.591       30.349       18.299      423.994      921.079      334.863        0.136        0.084       29.185       14.191        0.236      327.995       -6.182      863.928
12/20/2021  08:42:00       54.272       30.426      -16.725       41.587       30.975       20.112     1729.450      959.441      404.481        0.362        0.155       62.219       13.981        0.050      327.920       -6.303      863.903
12/20/2021  08:43:00       44.803       37.562      -16.928       21.689       21.451       12.976      470.406      460.149      168.384        0.240        0.055       58.466       10.925        0.035      327.797       -6.503      863.923
12/20/2021  08:44:00       -0.664        5.083      -13.787       19.014       14.971       11.889      361.539      224.130      141.349        0.047        0.036        5.126        8.152        2.529      327.967       -6.226      863.982
12/20/2021  08:45:00        6.852      -56.744      -15.722       22.677       37.313       23.772      514.229     1392.244      565.119        0.299        0.124       57.157       11.524        0.041      328.182       -5.876      864.054
12/20/2021  08:46:00      -92.054      -25.102       -2.576       71.543       33.188       31.332     5118.377     1101.411      981.709        0.815        0.360       95.415       36.653        0.148      327.981       -6.203      864.104
12/20/2021  08:47:00      -24.339      -14.019       10.515       58.419       33.859       23.064     3412.732     1146.437      531.955        0.299        0.255       28.088       26.635        0.899      327.995       -6.180      864.080
12/20/2021  08:48:00      -65.085       -7.403       -4.792       39.741       33.679       19.985     1579.380     1134.305      399.414        0.371        0.156       65.505        7.364        0.013      327.992       -6.186      864.046
12/20/2021  08:49:00     -108.382       -8.804       -9.431       39.787       27.566       26.858     1583.010      759.904      721.342        0.749        0.153      108.739       24.380        0.050      327.880       -6.368      864.056
12/20/2021  08:50:00      -67.996        0.114      -13.292       47.465       49.022       33.082     2252.883     2403.146     1094.442        0.527        0.288       67.996       19.982        0.086      327.950       -6.254      864.084
12/20/2021  08:51:00      -73.694        7.250      -10.671       38.790       34.496       25.757     1504.657     1189.956      663.423        0.448        0.168       74.049       21.526        0.085      327.921       -6.302      864.089
12/20/2021  08:52:00      -64.248       -5.594       -7.171       52.492       38.115       24.571     2755.428     1452.783      603.743        0.451        0.241       64.491       25.634        0.158      327.965       -6.230      864.072
12/20/2021  08:53:00      -55.674      -24.908       -1.668       41.424       25.312       22.172     1715.948      640.690      491.610        0.329        0.142       60.992       18.788        0.095      327.897       -6.341      864.065
12/20/2021  08:54:00      -14.971       16.828       -7.020       19.325       12.170       12.530      373.467      148.113      157.003        0.062        0.034       22.524        5.992        0.071      327.802       -6.497      864.057
12/20/2021  08:55:00      -49.118       12.421       -7.273       29.372       25.609       13.032      862.698      655.811      169.841        0.215        0.084       50.664       11.810        0.054      327.870       -6.383      864.075
12/20/2021  08:56:00      -35.112       -5.451       -8.449       42.942       32.955       22.473     1843.997     1086.017      505.028        0.238        0.172       35.532       15.662        0.194      328.074       -6.052      864.182
12/20/2021  08:57:00      -42.148       -3.734       12.905       58.917       40.867       30.358     3471.159     1670.108      921.596        0.401        0.303       42.313       13.353        0.100      328.054       -6.085      864.267
12/20/2021  08:58:00      -35.242      -27.833       -4.123       28.446       26.166       21.077      809.176      684.663      444.230        0.199        0.097       44.907       16.608        0.137      328.174       -5.890      864.244
12/20/2021  08:59:00      -18.627      -10.421      -15.489       32.132       40.693       23.848     1032.494     1655.925      568.712        0.198        0.163       21.344       22.415        1.103      328.149       -5.930      864.165
12/20/2021  09:00:00       -2.942       -7.727      -11.983       28.225       23.372       16.618      796.676      546.241      276.159        0.092        0.081        8.268        9.646        1.361      328.196       -5.854      864.162
12/20/2021  09:01:00       14.666       -6.663       -9.668       37.550       25.898       27.984     1410.002      670.700      783.127        0.161        0.143       16.109       16.008        0.988      328.233       -5.792      864.229
12/20/2021  09:02:00      -93.127      -11.470       -3.499       69.279       55.650       35.566     4799.624     3096.948     1264.968        0.899        0.458       93.831       29.969        0.102      327.899       -6.338      864.262
12/20/2021  09:03:00     -101.964       22.449       -0.903       63.483       46.585       28.125     4030.048     2170.165      791.035        0.895        0.350      104.406       19.545        0.035      327.879       -6.369      864.264
12/20/2021  09:04:00      -22.584       21.088       -8.154       26.095       22.191       16.330      680.925      492.460      266.670        0.123        0.072       30.899       11.000        0.127      327.684       -6.686      864.246
12/20/2021  09:05:00      -35.037       14.143      -10.526       24.128       20.729        9.594      582.152      429.672       92.038        0.132        0.055       37.784        6.146        0.026      327.742       -6.592      864.237
12/20/2021  09:06:00        6.753       -0.823        1.245       21.714       18.659       19.214      471.495      348.177      369.187        0.062        0.059        6.803       11.047        2.637      328.024       -6.135      864.269
12/20/2021  09:07:00      -22.498       -9.803        3.038       52.422       28.966       23.754     2748.020      839.017      564.236        0.238        0.208       24.541       24.087        0.963      327.988       -6.192      864.303
12/20/2021  09:08:00      -12.030       -7.953       -6.294       32.267       30.218       25.161     1041.178      913.125      633.088        0.142        0.129       14.421       17.033        1.395      328.066       -6.067      864.319
12/20/2021  09:09:00      -74.164      -26.691      -13.208       38.016       26.705       23.106     1445.196      713.156      533.884        0.454        0.135       78.821       16.633        0.045      328.003       -6.167      864.337
12/20/2021  09:10:00      -85.663      -27.551       -3.523       56.266       43.636       31.720     3165.819     1904.082     1006.153        0.709        0.304       89.984       25.919        0.083      328.018       -6.143      864.317
12/20/2021  09:11:00      -51.205       23.830      -26.117       36.758       30.411       24.645     1351.146      924.834      607.360        0.338        0.144       56.479       14.782        0.069      328.011       -6.154      864.234
12/20/2021  09:12:00      -25.373       -4.625       -3.100       18.145       16.935       14.989      329.236      286.801      224.672        0.076        0.042       25.791        6.464        0.063      328.020       -6.141      864.197
12/20/2021  09:13:00      -25.539       -0.911       -7.673       16.106       12.305       13.159      259.394      151.411      173.166        0.065        0.029       25.555       10.064        0.155      327.975       -6.214      864.188
12/20/2021  09:14:00      -41.061        6.342       -9.462       37.623       18.212       19.795     1415.527      331.670      391.858        0.198        0.107       41.548       18.768        0.204      328.098       -6.012      864.212
12/20/2021  09:15:00      -27.242        7.389        3.733       44.616       17.778       17.793     1990.626      316.051      316.581        0.172        0.131       28.226        7.737        0.075      328.233       -5.793      864.269
12/20/2021  09:16:00      -66.352        9.594       -8.699       35.634       23.514       27.273     1269.796      552.892      743.811        0.357        0.128       67.042       20.935        0.098      328.079       -6.044      864.277
12/20/2021  09:17:00      -13.146      -12.437      -18.846       56.535       27.802       18.422     3196.174      772.948      339.369        0.249        0.215       18.097       15.899        0.772      328.094       -6.020      864.236
12/20/2021  09:18:00      -16.517       15.563      -21.444       25.093       14.778       14.558      629.639      218.403      211.921        0.102        0.053       22.694       14.392        0.402      328.085       -6.034      864.189
12/20/2021  09:19:00      -67.995        7.863      -13.312       42.513       28.086       24.777     1807.375      788.801      613.890        0.404        0.161       68.448       20.979        0.094      328.123       -5.973      864.208
12/20/2021  09:20:00      -33.203        6.445        1.030       72.727       39.590       34.006     5289.240     1567.347     1156.414        0.458        0.401       33.823       34.340        1.031      328.187       -5.868      864.300
12/20/2021  09:21:00      -89.407       45.268       -0.620       36.916       25.415       20.532     1362.766      645.935      421.567        0.624        0.122      100.214       13.587        0.018      328.032       -6.120      864.334
12/20/2021  09:22:00      -40.194       64.775       -2.628       40.183       28.345       18.749     1614.689      803.445      351.517        0.429        0.138       76.232       16.449        0.047      328.070       -6.059      864.273
12/20/2021  09:23:00        1.739       53.265       -5.512       19.393       26.818       20.944      376.089      719.232      438.645        0.220        0.077       53.294        9.979        0.035      328.062       -6.071      864.180
12/20/2021  09:24:00       85.074       50.893      -21.438       33.659       38.513       19.845     1132.946     1483.219      393.819        0.665        0.150       99.135       18.629        0.035      328.096       -6.017      864.123
12/20/2021  09:25:00      -18.959      -45.967      -12.017       29.209       25.156       24.875      853.153      632.825      618.784        0.236        0.105       49.723       15.329        0.095      328.341       -5.617      864.179
12/20/2021  09:26:00      -52.832      -65.159      -36.745       33.374       24.580       18.926     1113.795      604.185      358.180        0.523        0.104       83.886       11.216        0.018      328.200       -5.846      864.313
12/20/2021  09:27:00      -52.229       14.010      -10.660       61.092       41.103       27.967     3732.227     1689.481      782.170        0.462        0.310       54.075       25.060        0.215      328.366       -5.576      864.377
12/20/2021  09:28:00      -28.183       17.138        5.928       34.076       36.941       28.966     1161.156     1364.617      839.021        0.224        0.168       32.985       29.510        0.800      328.348       -5.605      864.317
12/20/2021  09:29:00       -7.551       29.668        5.371       17.032       15.126       12.559      290.082      228.788      157.741        0.082        0.034       30.614        8.250        0.073      328.298       -5.688      864.260
12/20/2021  09:30:00       12.528       36.653        4.264       27.367       24.705       22.504      748.955      610.319      506.412        0.169        0.093       38.735        7.734        0.040      328.719       -5.000      864.259
12/20/2021  09:31:00      -24.005      -10.751      -12.719       20.765       39.491       16.778      431.180     1559.549      281.498        0.156        0.114       26.303       18.041        0.470      328.545       -5.284      864.320
12/20/2021  09:32:00      -15.746       -3.015       -7.428       24.693       47.167       17.350      609.746     2224.727      301.011        0.172        0.157       16.032       23.415        2.133      328.702       -5.030      864.372
12/20/2021  09:33:00      -11.337      -18.379      -24.296       26.773       30.140       14.005      716.785      908.408      196.136        0.144        0.091       21.594        8.778        0.165      328.683       -5.060      864.363
12/20/2021  09:34:00      -12.586      -27.963       -4.853       24.868       26.372       17.262      618.426      695.459      297.961        0.129        0.081       30.665        9.589        0.098      328.830       -4.821      864.362
12/20/2021  09:35:00      -12.656       13.398        6.749       28.861       28.204       19.134      832.970      795.490      366.103        0.119        0.100       18.430       13.864        0.566      328.821       -4.835      864.357
12/20/2021  09:36:00       -0.969       10.174       -8.018       28.722       20.199       22.980      824.974      407.983      528.093        0.096        0.088       10.220       19.308        3.569      328.677       -5.070      864.335
12/20/2021  09:37:00       32.746        5.273      -18.058       29.553       44.070       30.204      873.362     1942.165      912.291        0.258        0.186       33.167       23.247        0.491      328.805       -4.860      864.336
12/20/2021  09:38:00       46.071      -66.237      -32.419       34.286       54.471       27.234     1175.525     2967.094      741.686        0.622        0.244       80.684       23.497        0.085      328.736       -4.972      864.414
12/20/2021  09:39:00       34.038      -46.018      -13.058       33.635       28.316       17.540     1131.324      801.819      307.639        0.284        0.112       57.239       16.983        0.088      328.675       -5.073      864.477
12/20/2021  09:40:00      -10.490       13.922      -11.187       31.460       23.467       20.255      989.723      550.717      410.274        0.119        0.098       17.432       11.834        0.461      328.694       -5.042      864.490
12/20/2021  09:41:00       29.116       38.697      -12.992       23.151       33.331       19.370      535.986     1110.934      375.214        0.227        0.101       48.428       14.746        0.093      328.710       -5.017      864.496
12/20/2021  09:42:00       28.824        1.868      -12.919       28.600       38.466       31.669      817.987     1479.670     1002.912        0.215        0.165       28.885       21.518        0.555      328.800       -4.870      864.450
12/20/2021  09:43:00       26.335      -15.735      -16.702       42.284       58.109       56.521     1787.939     3376.662     3194.655        0.479        0.418       30.677       20.550        0.449      329.135       -4.322      864.346
12/20/2021  09:44:00       15.213      -64.081      -39.055       54.031       50.819       32.867     2919.345     2582.527     1080.208        0.622        0.329       65.862       23.209        0.124      329.004       -4.536      864.350
12/20/2021  09:45:00       47.713      -23.118      -18.218       35.444       40.557       29.576     1256.281     1644.910      874.739        0.346        0.189       53.019       20.641        0.152      329.004       -4.535      864.416
12/20/2021  09:46:00       33.631       -5.018      -17.734       34.426       29.681       17.060     1185.149      880.979      291.059        0.191        0.118       34.003       14.090        0.172      328.745       -4.957      864.440
12/20/2021  09:47:00       -9.645      -16.046      -12.740       12.448       16.014       11.220      154.957      256.447      125.890        0.052        0.027       18.721        6.814        0.132      329.107       -4.368      864.452
12/20/2021  09:48:00       29.421       43.278       -6.429       38.130       48.076       24.473     1453.919     2311.343      598.939        0.357        0.218       52.331       18.252        0.122      329.210       -4.200      864.435
12/20/2021  09:49:00       40.507        9.769      -23.130       48.120       60.538       42.709     2315.534     3664.896     1824.029        0.504        0.390       41.669       29.268        0.493      329.094       -4.388      864.383
12/20/2021  09:50:00       22.469       18.483       -5.496       59.982       39.050       35.040     3597.866     1524.906     1227.773        0.361        0.318       29.094       25.916        0.793      329.012       -4.523      864.334
12/20/2021  09:51:00       26.131      -11.503      -11.235       38.657       40.069       27.203     1494.383     1605.499      739.989        0.239        0.192       28.551       24.679        0.747      329.228       -4.169      864.330
12/20/2021  09:52:00       73.870       13.293      -19.229       42.911       48.566       23.567     1841.369     2358.682      555.392        0.538        0.238       75.056       17.421        0.054      328.877       -4.744      864.363
12/20/2021  09:53:00      114.212       53.656      -23.983       55.816       40.610       25.966     3115.466     1649.161      674.248        1.097        0.272      126.188       31.117        0.061      328.650       -5.113      864.371
12/20/2021  09:54:00       98.843       25.354      -17.896       47.615       35.128       33.454     2267.213     1233.988     1119.156        0.768        0.231      102.043       22.277        0.048      328.683       -5.060      864.334
12/20/2021  09:55:00       88.507       44.324      -21.442       55.796       44.191       30.654     3113.149     1952.826      939.677        0.813        0.300       98.985       21.882        0.049      328.909       -4.690      864.301
12/20/2021  09:56:00       94.460       61.672      -15.759       30.099       52.644       29.062      905.940     2771.411      844.571        0.875        0.226      112.811       27.076        0.058      328.850       -4.787      864.310
12/20/2021  09:57:00      105.143       70.149      -17.243       41.093       39.733       17.655     1688.669     1578.713      311.686        0.993        0.179      126.395       10.787        0.007      328.785       -4.894      864.289
12/20/2021  09:58:00       92.097        4.849       -8.330       40.987       49.914       26.745     1679.943     2491.391      715.311        0.673        0.244       92.225       18.025        0.038      328.883       -4.733      864.282
12/20/2021  09:59:00       83.731        6.777      -14.676       69.325       60.329       43.146     4806.022     3639.623     1861.577        0.879        0.515       84.004       39.259        0.218      328.995       -4.550      864.282
12/20/2021  10:00:00      104.533        0.247      -17.124       58.519       59.280       49.533     3424.482     3514.174     2453.567        1.030        0.470      104.534       31.992        0.094      329.019       -4.512      864.276
12/20/2021  10:01:00       57.444       13.448       -3.176       52.224       61.591       33.214     2727.312     3793.465     1103.188        0.556        0.381       58.997       29.422        0.249      329.057       -4.450      864.281
12/20/2021  10:02:00       33.061       32.414       -6.367       34.120       29.166       22.638     1164.172      850.657      512.461        0.236        0.126       46.300       12.003        0.067      328.999       -4.545      864.352
12/20/2021  10:03:00       86.112      -44.713      -35.367       60.521       69.107       30.884     3662.767     4775.728      953.796        1.003        0.470       97.029       24.611        0.064      328.917       -4.678      864.381
12/20/2021  10:04:00       64.057      -18.124      -16.504       39.977       36.825       34.207     1598.193     1356.102     1170.136        0.441        0.206       66.572       25.106        0.142      329.008       -4.529      864.318
12/20/2021  10:05:00       18.890       13.512      -14.806       50.601       67.037       43.429     2560.417     4493.908     1886.042        0.485        0.447       23.225       25.946        1.248      329.223       -4.178      864.299
12/20/2021  10:06:00       74.874       -9.646      -27.162       60.704       58.168       53.092     3684.958     3383.573     2818.715        0.816        0.494       75.493       38.230        0.256      329.139       -4.318      864.296
12/20/2021  10:07:00       53.538      -32.131      -13.324       49.445       52.229       38.821     2444.782     2727.835     1507.037        0.538        0.334       62.439       28.442        0.207      329.044       -4.471      864.235
12/20/2021  10:08:00      127.162        5.284      -15.549       83.606       64.599       31.549     6990.028     4173.087      995.362        1.430        0.608      127.272       31.067        0.060      328.892       -4.719      864.234
12/20/2021  10:09:00       33.493       24.393        7.545       50.336       24.832       25.522     2533.725      616.613      651.361        0.279        0.190       41.434       26.918        0.422      329.250       -4.134      864.338
12/20/2021  10:10:00       28.627        0.339      -29.555       34.557       46.411       37.438     1194.202     2153.936     1401.589        0.322        0.237       28.629       27.800        0.943      328.846       -4.795      864.420
12/20/2021  10:11:00       63.953       11.786      -18.103       57.271       48.933       17.509     3280.004     2394.437      306.579        0.527        0.299       65.030       13.126        0.041      328.939       -4.642      864.402
12/20/2021  10:12:00      191.677       47.853      -28.835       65.083       37.007       28.221     4235.778     1369.530      796.397        2.313        0.320      197.561        9.868        0.002      328.876       -4.746      864.312
12/20/2021  10:13:00      163.621       32.817      -21.363       63.907       59.648       33.579     4084.105     3557.935     1127.565        1.854        0.438      166.879       19.501        0.014      328.937       -4.647      864.257
12/20/2021  10:14:00      118.509       55.828      -12.824       58.679       45.028       27.078     3443.222     2027.523      733.236        1.176        0.310      131.001       16.600        0.016      328.950       -4.623      864.335
12/20/2021  10:15:00       34.694       31.052       -7.705       42.729       40.553       23.636     1825.743     1644.547      558.676        0.313        0.201       46.561       24.788        0.283      329.089       -4.397      864.441
12/20/2021  10:16:00      -15.213        3.689       -6.759       26.555       31.796       23.566      705.161     1010.989      555.362        0.128        0.114       15.654       19.098        1.488      329.251       -4.132      864.431
12/20/2021  10:17:00      143.611       62.699      -34.350       83.625       41.008       30.909     6993.074     1681.689      955.386        1.768        0.482      156.701       30.720        0.038      329.015       -4.520      864.316
12/20/2021  10:18:00      161.295       41.198      -35.602       51.881       43.712       29.446     2691.676     1910.712      867.078        1.722        0.273      166.473       20.224        0.015      328.885       -4.730      864.246
12/20/2021  10:19:00       83.860       37.717      -20.049       26.309       25.707       20.407      692.142      660.844      416.463        0.531        0.088       91.952       12.522        0.019      328.965       -4.600      864.298
12/20/2021  10:20:00       22.411       18.694      -11.042       27.811       11.763       17.563      773.450      138.377      308.469        0.110        0.061       29.184        6.085        0.043      329.030       -4.493      864.389
12/20/2021  10:21:00       41.768      -17.436      -20.129       45.864       31.277       23.660     2103.523      978.267      559.811        0.305        0.182       45.261       21.051        0.216      329.142       -4.311      864.406
12/20/2021  10:22:00       60.963      -18.420      -22.303       45.498       37.724       37.248     2070.099     1423.124     1387.431        0.472        0.244       63.685       25.509        0.160      329.050       -4.461      864.355
12/20/2021  10:23:00       76.895      -53.547      -41.149       38.602       54.259       31.444     1490.129     2944.045      988.720        0.795        0.271       93.702       17.239        0.034      329.140       -4.314      864.309
12/20/2021  10:24:00      127.618       52.630      -24.836       46.392       48.633       38.750     2152.208     2365.139     1501.575        1.284        0.301      138.045       10.275        0.006      329.157       -4.287      864.236
12/20/2021  10:25:00      155.803       54.558      -21.573       50.427       48.064       27.179     2542.922     2310.140      738.671        1.665        0.280      165.079       13.425        0.007      329.073       -4.423      864.164
12/20/2021  10:26:00       77.780       -7.750      -23.781       55.938       64.965       31.211     3129.081     4220.512      974.096        0.750        0.416       78.165        9.798        0.016      329.233       -4.161      864.204
12/20/2021  10:27:00       69.043      -25.145      -30.544       38.840       50.883       25.126     1508.512     2589.099      631.309        0.553        0.236       73.479       16.649        0.051      329.231       -4.164      864.250
12/20/2021  10:28:00       34.182       29.558       -3.370       37.479       37.879       26.660     1404.683     1434.856      710.778        0.280        0.178       45.190       16.416        0.132      329.052       -4.457      864.277
12/20/2021  10:29:00      -12.290       -4.102      -12.980       22.397       26.087       19.818      501.637      680.516      392.765        0.096        0.079       12.956       14.950        1.332      329.384       -3.914      864.366
12/20/2021  10:30:00        7.287       13.810       -1.546       28.886       13.491       18.645      834.413      182.008      347.624        0.080        0.068       15.614        4.009        0.066      329.518       -3.697      864.404
12/20/2021  10:31:00       27.008       -2.290      -17.324       35.812       37.064       24.864     1282.482     1373.746      618.226        0.215        0.164       27.105       18.595        0.471      329.138       -4.317      864.334
12/20/2021  10:32:00       29.591        1.158      -14.245       28.440       51.217       23.909      808.827     2623.225      571.625        0.254        0.200       29.614       19.962        0.454      329.424       -3.849      864.244
12/20/2021  10:33:00      -30.222        6.388      -11.455       35.619       33.493       17.161     1268.741     1121.795      294.492        0.188        0.134       30.890       14.111        0.209      329.732       -3.347      864.216
12/20/2021  10:34:00       96.664       77.722      -16.454       35.233       26.369       22.630     1241.376      695.346      512.109        0.905        0.122      124.035       16.220        0.017      329.165       -4.272      864.249
12/20/2021  10:35:00       35.654       30.158      -11.799       27.645       20.389       22.024      764.225      415.711      485.055        0.199        0.083       46.699       10.323        0.049      329.362       -3.950      864.277
12/20/2021  10:36:00        2.023       11.224       -6.775       25.331       18.670       19.130      641.661      348.579      365.947        0.077        0.068       11.405        9.186        0.649      329.674       -3.440      864.276
12/20/2021  10:37:00       10.583      -44.315      -24.582       38.613       49.798       31.544     1490.952     2479.835      995.047        0.382        0.248       45.561       14.351        0.099      329.773       -3.280      864.243
12/20/2021  10:38:00       49.170      -58.946      -33.443       33.004       45.854       29.396     1089.250     2102.572      864.099        0.553        0.203       76.762       22.758        0.088      329.424       -3.848      864.204
12/20/2021  10:39:00       33.732      -54.606      -26.497       42.019       40.564       32.925     1765.624     1645.468     1084.026        0.466        0.225       64.185       11.590        0.033      329.609       -3.547      864.221
12/20/2021  10:40:00       60.191       27.252      -12.836       53.390       53.753       37.125     2850.447     2889.396     1378.299        0.582        0.356       66.073       21.152        0.102      329.702       -3.396      864.232
12/20/2021  10:41:00       14.400       47.858        1.649       32.697       25.119       22.033     1069.114      630.988      485.433        0.234        0.109       49.978       17.801        0.127      329.679       -3.431      864.227
12/20/2021  10:42:00       28.341       45.276       -0.588       23.820       28.905       23.897      567.392      835.477      571.046        0.241        0.099       53.415       17.903        0.112      329.764       -3.293      864.201
12/20/2021  10:43:00       45.769        6.930      -10.218       50.383       50.566       38.133     2538.415     2556.920     1454.101        0.440        0.327       46.290       26.599        0.330      329.761       -3.299      864.139
12/20/2021  10:44:00       26.072      -28.018      -16.336       46.941       41.341       36.309     2203.442     1709.085     1318.352        0.348        0.262       38.272       15.233        0.158      329.948       -2.992      864.130
12/20/2021  10:45:00      -33.524      -61.961      -31.566       48.279       27.550       26.002     2330.890      759.004      676.111        0.486        0.188       70.449       20.762        0.087      329.736       -3.340      864.122
12/20/2021  10:46:00       20.203      -67.528      -25.834       37.594       32.082       13.653     1413.287     1029.281      186.411        0.413        0.131       70.485        7.920        0.013      329.387       -3.910      864.122
12/20/2021  10:47:00       -1.917       -8.859       -6.435       12.825       15.555       18.642      164.486      241.970      347.515        0.044        0.038        9.065       11.358        1.570      329.985       -2.931      864.145
12/20/2021  10:48:00       -6.326        1.841       -8.022       38.752       32.983       14.897     1501.725     1087.906      221.915        0.146        0.141        6.588       10.087        2.344      329.796       -3.241      864.146
12/20/2021  10:49:00      105.066       33.908      -11.753       40.309       35.933       16.725     1624.793     1291.207      279.733        0.776        0.160      110.402       10.518        0.009      329.508       -3.712      864.038
12/20/2021  10:50:00       61.773       40.488      -33.062       69.591       59.539       41.146     4842.928     3544.916     1692.997        0.831        0.504       73.859       24.588        0.111      330.013       -2.886      863.940
12/20/2021  10:51:00        9.486      -25.926      -23.241       43.866       47.765       35.186     1924.240     2281.513     1238.056        0.337        0.272       27.607       12.037        0.190      330.066       -2.798      863.952
12/20/2021  10:52:00        2.620       17.071       -4.810       24.234       28.495       21.385      587.293      811.986      457.301        0.109        0.093       17.271       14.592        0.714      329.849       -3.154      864.023
12/20/2021  10:53:00       -5.664       -3.025        4.150       15.334       29.729       14.467      235.136      883.824      209.298        0.069        0.066        6.421        9.598        2.234      329.901       -3.069      864.052
12/20/2021  10:54:00       55.006      -24.096      -22.457       37.043       37.731       29.681     1372.182     1423.603      880.983        0.389        0.184       60.052       18.031        0.090      329.903       -3.066      863.994
12/20/2021  10:55:00       30.407       -0.035       -9.667       53.715       56.177       44.379     2885.249     3155.910     1969.481        0.451        0.401       30.407       28.307        0.867      330.080       -2.775      863.923
12/20/2021  10:56:00       79.091      -21.541      -24.526       52.051       46.339       35.672     2709.283     2147.290     1272.525        0.672        0.306       81.972       16.585        0.041      329.938       -3.009      863.904
12/20/2021  10:57:00       75.230        1.549      -17.624       46.499       49.566       37.123     2162.121     2456.809     1378.123        0.598        0.300       75.246       21.438        0.081      329.869       -3.121      863.902
12/20/2021  10:58:00       71.466      -11.956      -18.709       59.094       42.172       42.332     3492.095     1778.492     1791.959        0.633        0.353       72.459       38.281        0.279      329.901       -3.068      863.928
12/20/2021  10:59:00       65.110      -11.442      -15.512       30.711       30.914       19.047      943.187      955.656      362.800        0.344        0.113       66.108       12.690        0.037      329.822       -3.198      863.997
12/20/2021  11:00:00       -1.162       56.984        0.163       24.046       27.531       18.886      578.193      757.972      356.662        0.247        0.085       56.996       12.078        0.045      329.792       -3.248      864.023
12/20/2021  11:01:00       29.927       67.881      -10.484       34.098       20.266       20.623     1162.689      410.691      425.325        0.381        0.100       74.185       10.010        0.018      329.739       -3.334      863.965
12/20/2021  11:02:00       82.912       53.756      -26.191       39.376       38.203       23.463     1550.463     1459.438      550.519        0.700        0.178       98.813       11.077        0.013      329.818       -3.205      863.896
12/20/2021  11:03:00       92.914       11.544      -14.957       87.297       66.219       41.051     7620.696     4384.947     1685.156        1.134        0.685       93.628       30.792        0.108      330.308       -2.402      863.854
12/20/2021  11:04:00      159.517       28.551      -26.102       51.467       42.517       30.912     2648.876     1807.684      955.559        1.618        0.271      162.052       24.028        0.022      329.797       -3.240      863.807
12/20/2021  11:05:00      146.010       41.176      -17.465       77.921       60.729       36.361     6071.687     3687.974     1322.112        1.720        0.554      151.705       32.260        0.045      329.911       -3.054      863.775
12/20/2021  11:06:00      115.849      -67.915      -28.272       49.799       46.742       30.492     2479.981     2184.852      929.757        1.221        0.280      134.288       30.478        0.052      329.762       -3.297      863.857
12/20/2021  11:07:00       65.605      -37.336      -20.979       31.662       23.498       25.089     1002.499      552.163      629.483        0.416        0.109       75.485       20.095        0.071      329.758       -3.302      863.944
12/20/2021  11:08:00       39.855        0.918      -16.563       17.722       30.289       22.746      314.079      917.414      517.389        0.181        0.087       39.865        5.384        0.018      329.850       -3.152      863.883
12/20/2021  11:09:00      117.850       18.622      -31.453       46.844       27.705       21.962     2194.321      767.564      482.318        0.933        0.172      119.312       10.129        0.007      329.778       -3.270      863.783
12/20/2021  11:10:00       70.604       12.760      -27.341       41.035       46.812       25.546     1683.848     2191.335      652.594        0.521        0.226       71.748       13.536        0.036      330.064       -2.803      863.762
12/20/2021  11:11:00      -10.351      -16.787      -27.517       44.077       75.051       26.364     1942.759     5632.704      695.042        0.471        0.414       19.722       21.849        1.227      330.197       -2.583      863.830
12/20/2021  11:12:00       21.716      -65.279      -21.885       26.445       30.837       21.052      699.341      950.913      443.207        0.365        0.105       68.796       20.029        0.085      330.013       -2.886      863.888
12/20/2021  11:13:00       11.991      -39.779       -6.043       23.506       30.061       29.707      552.547      903.687      882.479        0.205        0.117       41.547       10.636        0.066      330.240       -2.513      863.854
12/20/2021  11:14:00       63.779        6.681      -23.654       45.508       66.783       35.864     2071.020     4459.911     1286.226        0.624        0.391       64.128       18.221        0.081      330.477       -2.125      863.744
12/20/2021  11:15:00      108.603       84.921      -23.678       80.324       71.446       36.471     6451.994     5104.495     1330.151        1.622        0.644      137.863       28.709        0.043      330.452       -2.167      863.679
12/20/2021  11:16:00       57.194        0.965      -26.052       57.704       60.259       42.675     3329.776     3631.102     1821.121        0.636        0.439       57.202       20.578        0.129      330.647       -1.846      863.697
12/20/2021  11:17:00       34.781      -24.078       -7.227       26.986       17.300       25.398      728.262      299.301      645.046        0.176        0.084       42.302       17.827        0.178      330.435       -2.193      863.738
12/20/2021  11:18:00        6.220      -20.737      -11.111       34.749       33.755       25.271     1207.464     1139.386      638.625        0.179        0.149       21.649       17.820        0.678      330.756       -1.668      863.769
12/20/2021  11:19:00       47.328       19.305      -25.445       42.204       47.492       30.038     1781.142     2255.515      902.260        0.410        0.247       51.114       28.215        0.305      330.417       -2.224      863.791
12/20/2021  11:20:00       11.708        8.831       -1.737       38.380       39.730       30.229     1473.005     1578.470      913.813        0.209        0.198       14.665       22.905        2.439      330.913       -1.410      863.734
12/20/2021  11:21:00       62.483        7.788      -12.788       34.566       63.448       37.073     1194.793     4025.612     1374.376        0.536        0.330       62.967       18.364        0.085      330.397       -2.257      863.691
12/20/2021  11:22:00       84.760       61.786      -23.583       31.970       26.198       20.049     1022.063      686.331      401.959        0.683        0.106      104.890       11.611        0.012      330.188       -2.601      863.692
12/20/2021  11:23:00       59.452      -75.234      -43.126       40.889       57.450       26.325     1671.937     3300.491      692.985        0.836        0.283       95.889       21.564        0.051      330.511       -2.068      863.705
12/20/2021  11:24:00       51.447       -6.756      -16.977       32.841       39.869       21.727     1078.499     1589.534      472.044        0.306        0.157       51.889       16.957        0.107      330.524       -2.048      863.717
12/20/2021  11:25:00        3.613        9.804        3.400       20.402       28.770       17.203      416.229      827.685      295.941        0.083        0.077       10.448        6.679        0.409      330.650       -1.841      863.686
12/20/2021  11:26:00       63.132       -2.663      -29.788       43.136       61.149       37.444     1860.734     3739.156     1402.034        0.594        0.350       63.188       21.701        0.118      330.605       -1.915      863.679
12/20/2021  11:27:00       52.050       -3.362       -7.483       52.495       60.625       39.179     2755.751     3675.398     1535.021        0.537        0.398       52.158       29.597        0.322      330.630       -1.874      863.701
12/20/2021  11:28:00      133.676       46.010      -22.447       30.731       37.947       19.259      944.366     1439.972      370.894        1.162        0.138      141.372       15.455        0.012      330.318       -2.387      863.681
12/20/2021  11:29:00       99.044       15.835      -13.699       55.965       66.203       25.352     3132.031     4382.846      642.706        0.920        0.408      100.302       22.447        0.050      330.712       -1.739      863.642
12/20/2021  11:30:00       25.088        8.313      -22.398       41.754       35.349       29.534     1743.429     1249.547      872.237        0.253        0.193       26.429       26.318        0.992      331.155       -1.011      863.657
12/20/2021  11:31:00       10.689      -22.376      -11.717       50.046       48.281       30.784     2504.608     2331.089      947.648        0.327        0.289       24.798       16.472        0.441      331.069       -1.153      863.667
12/20/2021  11:32:00       48.313      -33.705      -24.710       35.236       39.166       27.004     1241.552     1533.970      729.232        0.379        0.175       58.908       21.076        0.128      330.861       -1.495      863.658
12/20/2021  11:33:00       45.432       -6.731      -43.389       56.850       63.279       36.163     3231.978     4004.219     1307.745        0.627        0.427       45.928       26.612        0.336      330.978       -1.303      863.645
12/20/2021  11:34:00      101.410        1.763      -14.976       78.019       64.446       43.538     6087.017     4153.240     1895.570        1.132        0.607      101.425       38.062        0.141      330.634       -1.868      863.629
12/20/2021  11:35:00       60.629       -9.409      -23.272       72.765       54.443       47.575     5294.744     2964.068     2263.345        0.741        0.526       61.355       39.133        0.407      330.686       -1.783      863.607
12/20/2021  11:36:00       63.849      -17.297      -15.690       78.028       51.174       50.794     6088.343     2618.820     2580.014        0.795        0.564       66.151       36.837        0.310      330.933       -1.376      863.543
12/20/2021  11:37:00       27.340      -28.298        2.850       62.585       38.273       37.939     3916.896     1464.793     1439.397        0.419        0.341       39.347       30.101        0.585      331.057       -1.174      863.529
12/20/2021  11:38:00       95.295      -16.891      -18.155       43.221       45.968       30.021     1868.096     2113.051      901.240        0.729        0.244       96.781       21.767        0.051      330.664       -1.819      863.543
12/20/2021  11:39:00       85.667       -6.979       -6.168       39.215       42.568       27.403     1537.835     1812.039      750.948        0.576        0.205       85.951       21.679        0.064      330.716       -1.732      863.522
12/20/2021  11:40:00       33.282        9.068      -18.013       36.081       41.181       31.318     1301.868     1695.901      980.834        0.275        0.199       34.496       16.838        0.238      331.106       -1.093      863.471
12/20/2021  11:41:00       22.040       -3.013        1.159       66.137       31.200       28.397     4374.045      973.451      806.415        0.332        0.308       22.245       28.770        1.673      331.196       -0.944      863.388
12/20/2021  11:42:00       70.510       10.470      -23.440       41.296       74.222       43.957     1705.395     5508.886     1932.201        0.739        0.457       71.283       32.731        0.211      331.114       -1.079      863.314
12/20/2021  11:43:00       39.301        4.260      -19.013       49.864       61.030       34.172     2486.455     3724.690     1167.736        0.465        0.369       39.531       17.269        0.191      331.060       -1.169      863.327
12/20/2021  11:44:00       69.669      -41.074      -19.630       59.111       71.648       39.074     3494.155     5133.479     1526.786        0.854        0.508       80.876       29.371        0.132      331.042       -1.198      863.382
12/20/2021  11:45:00       84.503       -7.861      -15.931       50.588       42.559       30.190     2559.110     1811.288      911.437        0.637        0.264       84.868       24.940        0.086      330.806       -1.587      863.380
12/20/2021  11:46:00      106.221       28.797      -25.784       31.750       33.344       20.198     1008.062     1111.795      407.968        0.765        0.126      110.056       11.680        0.011      330.633       -1.869      863.338
12/20/2021  11:47:00       48.069      -22.007      -22.943       57.424       65.167       38.398     3297.518     4246.761     1474.425        0.617        0.451       52.867       26.432        0.250      331.030       -1.217      863.351
12/20/2021  11:48:00       74.357        6.455      -29.476       94.520       78.611       48.521     8933.950     6179.673     2354.324        1.195        0.873       74.637       36.187        0.235      330.924       -1.392      863.336
12/20/2021  11:49:00      116.730      -47.602      -47.845       57.338       49.702       43.086     3287.680     2470.272     1856.394        1.290        0.381      126.063       31.796        0.064      330.853       -1.510      863.322
12/20/2021  11:50:00      112.956       -9.601      -37.424       66.958       56.170       42.192     4483.438     3155.115     1780.127        1.183        0.471      113.363       29.528        0.068      330.709       -1.743      863.350
12/20/2021  11:51:00      106.752       11.011      -18.147       36.855       35.219       20.954     1358.316     1240.412      439.062        0.744        0.152      107.319        9.410        0.008      330.552       -2.002      863.355
12/20/2021  11:52:00       74.717       44.861      -11.391       21.117       16.999       12.577      445.937      288.972      158.170        0.431        0.045       87.151        9.358        0.012      330.550       -2.004      863.352
12/20/2021  11:53:00      108.265       34.023      -23.005       28.914       25.100       21.759      836.012      629.989      473.434        0.767        0.097      113.485       14.729        0.017      330.671       -1.808      863.348
12/20/2021  11:54:00      130.935       55.060      -24.730       45.268       36.541       26.338     2049.222     1335.219      693.715        1.243        0.204      142.041       12.814        0.008      330.777       -1.633      863.328
12/20/2021  11:55:00       88.615       29.688      -33.553       60.546       72.223       33.719     3665.770     5216.225     1136.944        0.994        0.501       93.456       22.358        0.057      331.059       -1.170      863.332
12/20/2021  11:56:00       52.455        7.966      -32.446       52.169       59.787       35.422     2721.583     3574.460     1254.721        0.571        0.378       53.056       15.452        0.085      331.030       -1.218      863.296
12/20/2021  11:57:00      113.880      -72.843      -28.757       57.332       55.772       36.711     3286.917     3110.541     1347.714        1.342        0.387      135.184       28.610        0.045      330.956       -1.340      863.289
12/20/2021  11:58:00       98.393       10.439      -19.490       65.543       49.457       33.457     4295.881     2445.989     1119.359        0.901        0.393       98.945       24.619        0.062      331.033       -1.212      863.313
12/20/2021  11:59:00       98.985      -18.322      -24.620       50.483       74.329       35.045     2548.504     5524.812     1228.149        1.002        0.465      100.666       22.507        0.050      331.074       -1.147      863.317
12/20/2021  12:00:00      122.295      -58.947      -34.610       70.952       61.795       37.402     5034.197     3818.681     1398.895        1.494        0.513      135.760       28.347        0.044      331.022       -1.233      863.340
12/20/2021  12:01:00       98.631      -35.876      -11.118       59.518       41.040       34.473     3542.415     1684.269     1188.366        0.878        0.321      104.953       26.321        0.063      330.985       -1.291      863.358
12/20/2021  12:02:00       69.311      -47.054      -15.743       75.616       34.831       24.188     5717.798     1213.183      585.081        0.739        0.376       83.774       10.360        0.015      330.995       -1.275      863.368
12/20/2021  12:03:00       18.819      -18.528       -3.865       64.062       59.989       33.386     4103.926     3598.661     1114.654        0.476        0.441       26.409       24.518        0.862      331.316       -0.747      863.365
12/20/2021  12:04:00       70.212       -8.944      -21.886       57.112       41.818       26.749     3261.776     1748.710      715.529        0.561        0.286       70.779       15.973        0.051      331.106       -1.093      863.284
12/20/2021  12:05:00       18.782      -18.487      -21.637       54.353       49.682       42.383     2954.246     2468.335     1796.302        0.419        0.361       26.354       35.087        1.773      331.330       -0.724      863.251
12/20/2021  12:06:00      120.258      -23.433      -19.556       63.043       42.771       40.862     3974.450     1829.340     1669.743        1.143        0.374      122.520       32.962        0.072      330.860       -1.497      863.244
12/20/2021  12:07:00      176.934       40.664      -23.577       41.449       39.200       20.996     1718.031     1536.620      440.841        1.860        0.185      181.547       13.530        0.006      330.820       -1.563      863.210
12/20/2021  12:08:00      101.484       43.997      -24.192       50.791       60.445       33.553     2579.727     3653.552     1125.805        1.009        0.368      110.611       29.013        0.069      331.098       -1.106      863.217
12/20/2021  12:09:00       28.538       42.585       10.845       56.849       67.166       34.500     3231.763     4511.237     1190.271        0.584        0.447       51.263       25.657        0.251      331.400       -0.609      863.203
12/20/2021  12:10:00       91.297       22.374      -26.808       66.753       76.764       42.454     4455.963     5892.687     1802.378        1.085        0.608       93.998       27.809        0.088      331.338       -0.711      863.169
12/20/2021  12:11:00       60.342      -59.934      -31.442       44.157       58.898       38.873     1949.847     3468.936     1511.084        0.757        0.346       85.048       31.575        0.138      331.300       -0.774      863.164
12/20/2021  12:12:00       90.541      -39.128      -34.399       60.513       75.590       39.029     3661.849     5713.840     1523.232        1.090        0.545       98.634       33.080        0.112      331.130       -1.052      863.172
12/20/2021  12:13:00       95.980      -23.223      -40.021       54.467       52.341       41.455     2966.624     2739.556     1718.498        0.939        0.371       98.750       18.764        0.036      331.114       -1.078      863.165
12/20/2021  12:14:00       88.135      -26.324      -23.902       65.895       53.088       32.904     4342.151     2818.361     1082.650        0.864        0.412       91.982       25.273        0.075      331.145       -1.029      863.167
12/20/2021  12:15:00       77.751      -14.316      -19.518       46.273       44.174       38.291     2141.157     1951.366     1466.180        0.609        0.278       79.058       21.335        0.073      331.068       -1.157      863.171
12/20/2021  12:16:00       64.247      -34.843      -11.885       71.895       47.640       46.736     5168.838     2269.594     2184.255        0.755        0.481       73.087       40.940        0.314      331.470       -0.493      863.145
12/20/2021  12:17:00       41.490      -18.736        2.958       67.941       54.620       48.180     4616.036     2983.302     2321.272        0.600        0.496       45.524       43.538        0.915      331.508       -0.432      863.142
12/20/2021  12:18:00       52.468      -24.664      -11.842       59.105       64.668       39.119     3493.360     4181.981     1530.271        0.635        0.460       57.976       32.763        0.319      331.432       -0.556      863.184
12/20/2021  12:19:00       34.283      -23.715       -7.797       34.165       39.305       21.492     1167.245     1544.910      461.893        0.249        0.159       41.686       11.639        0.078      331.455       -0.519      863.195
12/20/2021  12:20:00       34.244        4.701       -7.515       59.263       86.156       45.358     3512.061     7422.818     2057.359        0.712        0.650       34.565       35.033        1.027      331.659       -0.183      863.166
12/20/2021  12:21:00      118.701       41.660      -26.867       78.507       65.211       37.901     6163.380     4252.528     1436.455        1.420        0.593      125.800       34.667        0.076      331.376       -0.649      863.131
12/20/2021  12:22:00      149.029       67.121      -19.695       54.121       36.272       27.223     2929.081     1315.662      741.074        1.604        0.249      163.447       28.025        0.029      331.148       -1.024      863.100
12/20/2021  12:23:00       82.292      -20.438      -22.246       60.248       61.194       42.538     3629.813     3744.685     1809.444        0.843        0.459       84.792       31.536        0.138      331.362       -0.671      863.132
12/20/2021  12:24:00      108.899      -20.525      -17.849       29.954       35.672       16.575      897.217     1272.456      274.724        0.752        0.122      110.816       12.244        0.012      331.237       -0.877      863.196
12/20/2021  12:25:00       34.629       26.642        3.174       35.625       44.784       26.088     1269.158     2005.638      680.596        0.294        0.198       43.691       22.005        0.254      331.543       -0.374      863.204
12/20/2021  12:26:00      128.035       21.443      -17.629       68.395       44.765       33.616     4677.835     2003.942     1130.057        1.249        0.391      129.818       28.307        0.048      331.340       -0.709      863.151
12/20/2021  12:27:00      171.865       28.462      -21.880       46.935       42.336       25.862     2202.854     1792.317      668.836        1.774        0.233      174.205       14.222        0.007      331.265       -0.832      863.113
12/20/2021  12:28:00       60.574        2.256      -15.642       58.421       47.369       28.129     3413.001     2243.858      791.248        0.518        0.322       60.616       16.637        0.075      331.605       -0.272      863.107
12/20/2021  12:29:00       56.138       20.978       -7.423       57.509       67.562       34.814     3307.288     4564.588     1212.043        0.636        0.454       59.929       26.824        0.200      331.794        0.039      863.117
12/20/2021  12:30:00       79.534      -19.534      -24.814       42.074       60.331       21.311     1770.261     3639.803      454.150        0.659        0.293       81.898       17.866        0.048      331.555       -0.356      863.153
12/20/2021  12:31:00       58.120       41.732      -12.050       51.680       58.877       39.512     2670.852     3466.529     1561.226        0.648        0.385       71.551       24.286        0.115      331.861        0.149      863.163
12/20/2021  12:32:00      -11.788       -1.975      -13.144       49.930       39.809       29.473     2493.003     1584.761      868.679        0.263        0.247       11.952       13.573        1.290      332.051        0.462      863.111
12/20/2021  12:33:00       87.120      -38.276       -8.350       65.157       53.655       36.493     4245.410     2878.877     1331.716        0.879        0.423       95.157       38.533        0.164      331.410       -0.593      863.062
12/20/2021  12:34:00       95.365       -3.625      -16.414       51.216       45.649       24.225     2623.033     2083.839      586.843        0.733        0.265       95.434       20.489        0.046      331.452       -0.524      863.093
12/20/2021  12:35:00       11.130      -19.556       -4.176       28.828       34.736       17.671      831.078     1206.584      312.270        0.144        0.117       22.501       15.096        0.450      331.941        0.281      863.120
12/20/2021  12:36:00       67.414      -98.552      -32.639       36.037       44.348       26.538     1298.680     1966.710      704.284        0.965        0.198      119.404       20.759        0.030      331.624       -0.241      863.094
12/20/2021  12:37:00       39.185      -84.858      -22.776       36.887       35.990       28.566     1360.646     1295.278      815.998        0.636        0.174       93.468       13.967        0.022      331.662       -0.179      863.037
12/20/2021  12:38:00       55.942      -45.972      -10.930       72.658       41.710       28.859     5279.243     1739.757      832.865        0.661        0.393       72.408       24.446        0.114      331.625       -0.238      863.014
12/20/2021  12:39:00       29.566       33.377       -1.772       40.769       44.387       27.974     1662.123     1970.204      782.559        0.320        0.221       44.588       19.252        0.186      331.935        0.270      863.020
12/20/2021  12:40:00       70.344      -31.373      -28.312       62.950       47.985       46.299     3962.647     2302.532     2143.553        0.757        0.420       77.023       38.005        0.243      331.692       -0.129      863.001
12/20/2021  12:41:00      148.049      -20.523      -18.632       51.240       47.002       23.933     2625.573     2209.213      572.808        1.405        0.270      149.465       14.821        0.010      331.334       -0.717      863.021
12/20/2021  12:42:00      100.924        4.677      -20.841       42.998       47.091       26.151     1848.839     2217.596      683.880        0.770        0.238      101.032       13.366        0.018      331.506       -0.434      863.056
12/20/2021  12:43:00       15.703      -24.065       -3.899       44.652       32.888       32.684     1993.788     1081.637     1068.248        0.249        0.207       28.735       18.898        0.433      332.039        0.441      863.064
12/20/2021  12:44:00      102.545      -10.905      -28.703       56.979       38.021       34.166     3246.587     1445.583     1167.295        0.866        0.293      103.123       29.910        0.084      331.622       -0.243      863.058
12/20/2021  12:45:00       89.815      -27.557      -19.291       54.874       20.612       20.087     3011.122      424.857      403.507        0.652        0.192       93.947       11.128        0.014      331.412       -0.589      863.046
12/20/2021  12:46:00       27.885       -6.111      -13.384       18.325       26.463       16.765      335.815      700.307      281.056        0.116        0.066       28.547       11.908        0.174      331.675       -0.157      863.050
12/20/2021  12:47:00       13.324      -33.406      -17.068       31.867       40.970       22.256     1015.494     1678.522      495.338        0.239        0.159       35.965       17.643        0.241      332.237        0.768      863.049
12/20/2021  12:48:00       24.501      -31.586       -8.382       51.609       42.122       21.789     2663.507     1774.230      474.778        0.329        0.246       39.975       23.976        0.360      332.066        0.488      863.014
12/20/2021  12:49:00       78.017      -18.139      -24.434       55.734       61.333       39.645     3106.296     3761.682     1571.733        0.772        0.422       80.098       32.118        0.161      331.912        0.234      862.956
12/20/2021  12:50:00       15.474        4.059      -14.873       42.265       51.523       32.230     1786.319     2654.664     1038.761        0.298        0.274       15.997       29.822        3.475      332.211        0.727      862.925
12/20/2021  12:51:00       22.990      -44.247       -4.231       56.899       55.625       40.374     3237.533     3094.171     1630.032        0.523        0.398       49.863       27.313        0.300      332.234        0.764      862.907
12/20/2021  12:52:00       83.467      -44.452      -27.541       44.242       37.019       31.409     1957.381     1370.426      986.519        0.701        0.216       94.566       31.093        0.108      331.688       -0.136      862.876
12/20/2021  12:53:00       47.385      -28.226      -12.860       43.117       36.758       28.237     1859.049     1351.148      797.355        0.361        0.200       55.155       19.605        0.126      332.042        0.448      862.866
12/20/2021  12:54:00       52.332      -11.957      -16.148       54.100       52.259       32.412     2926.826     2731.019     1050.526        0.492        0.335       53.680       26.412        0.242      332.018        0.408      862.839
12/20/2021  12:55:00       89.979      -16.138      -34.168       62.902       53.036       45.734     3956.632     2812.858     2091.561        0.919        0.443       91.414       29.117        0.101      331.926        0.257      862.798
12/20/2021  12:56:00       80.844      -34.844      -22.046       62.872       44.078       41.838     3952.854     1942.873     1750.427        0.794        0.382       88.034       30.731        0.122      331.828        0.094      862.783
12/20/2021  12:57:00      109.792      -17.206      -28.344       59.868       50.940       34.815     3584.167     2594.930     1212.062        1.027        0.370      111.132       26.532        0.057      331.815        0.073      862.796
12/20/2021  12:58:00       68.023        1.906      -14.139       55.788       28.924       24.045     3112.307      836.578      578.173        0.468        0.226       68.049       19.021        0.078      331.843        0.119      862.782
12/20/2021  12:59:00      108.676      -47.279      -24.397       65.095       51.992       40.718     4237.343     2703.158     1657.958        1.162        0.430      118.515       26.232        0.049      331.882        0.183      862.736
12/20/2021  13:00:00       52.775       -3.792      -17.549       51.925       55.707       35.259     2696.237     3103.279     1243.205        0.507        0.352       52.911       16.103        0.093      332.132        0.595      862.739
12/20/2021  13:01:00      135.176        6.906      -29.193       41.837       42.698       29.156     1750.363     1823.114      850.050        1.180        0.221      135.352       22.765        0.028      331.750       -0.034      862.762
12/20/2021  13:02:00      103.314       21.748      -22.851       49.492       56.024       27.823     2449.419     3138.726      774.126        0.901        0.318      105.579       25.102        0.057      331.894        0.205      862.744
12/20/2021  13:03:00       72.806      -16.116      -19.642       44.759       41.614       30.579     2003.375     1731.763      935.075        0.531        0.234       74.568       22.001        0.087      331.972        0.333      862.732
12/20/2021  13:04:00       25.624      -22.039      -17.070       43.145       42.716       29.864     1861.534     1824.679      891.888        0.301        0.229       33.799       27.933        0.683      332.124        0.583      862.764
12/20/2021  13:05:00       48.653      -15.404      -13.639       50.371       47.407       33.156     2537.232     2247.443     1099.309        0.434        0.294       51.034       30.168        0.349      332.358        0.968      862.766
12/20/2021  13:06:00       82.587      -35.031      -11.491       78.997       32.022       31.301     6240.495     1025.379      979.752        0.821        0.412       89.710       35.881        0.160      332.057        0.472      862.769
12/20/2021  13:07:00       36.377      -27.797      -18.396       32.697       32.733       21.535     1069.114     1071.449      463.766        0.252        0.130       45.782       14.064        0.094      332.119        0.574      862.794
12/20/2021  13:08:00       42.518      -28.486      -11.224       55.584       34.072       28.586     3089.631     1160.876      817.167        0.391        0.253       51.178       23.772        0.216      332.230        0.757      862.840
12/20/2021  13:09:00       58.126       15.699      -19.959       41.048       33.740       27.121     1684.903     1138.404      735.529        0.379        0.178       60.209       17.447        0.084      332.150        0.625      862.855
12/20/2021  13:10:00      116.564       31.146      -37.223       49.918       58.901       30.724     2491.763     3469.322      943.947        1.142        0.345      120.654       25.213        0.044      332.107        0.554      862.820
12/20/2021  13:11:00       46.404       -7.923      -14.361       66.227       48.598       43.877     4386.031     2361.802     1925.228        0.555        0.434       47.075       32.043        0.463      332.216        0.735      862.780
12/20/2021  13:12:00       57.853      -44.798      -18.820       54.520       36.677       28.395     2972.401     1345.189      806.263        0.541        0.256       73.170       23.379        0.102      331.938        0.277      862.809
12/20/2021  13:13:00       57.310      -63.439      -26.541       30.900       35.298       19.853      954.817     1245.936      394.156        0.530        0.130       85.492       19.856        0.054      332.090        0.527      862.803
12/20/2021  13:14:00       83.887      -32.156      -18.623       85.857       52.142       55.865     7371.375     2718.757     3120.916        1.081        0.661       89.839       52.514        0.342      332.279        0.838      862.754
12/20/2021  13:15:00        4.036      -55.415      -25.716       70.362       65.736       31.291     4950.746     4321.164      979.120        0.700        0.513       55.561       24.852        0.200      332.553        1.291      862.755
12/20/2021  13:16:00       11.505      -13.690      -14.053       57.818       21.448       24.064     3342.919      460.036      579.090        0.245        0.219       17.882       16.746        0.877      332.627        1.414      862.801
12/20/2021  13:17:00       20.743       20.679      -19.032       25.366       28.731       22.677      643.451      825.443      514.257        0.160        0.099       29.290       21.694        0.549      332.154        0.630      862.806
12/20/2021  13:18:00       44.422       -7.846      -11.124       56.916       58.314       29.936     3239.454     3400.516      896.178        0.485        0.377       45.109       25.139        0.311      332.468        1.151      862.755
12/20/2021  13:19:00       67.682      -18.311      -17.034       54.903       53.753       31.396     3014.289     2889.372      985.698        0.605        0.344       70.116       26.449        0.142      332.400        1.037      862.730
12/20/2021  13:20:00       76.132      -44.147      -33.350       64.295       69.308       44.739     4133.796     4803.616     2001.541        0.990        0.547       88.005       37.476        0.181      332.317        0.900      862.750
12/20/2021  13:21:00      120.317      -60.937      -34.957       45.288       63.503       34.298     2050.974     4032.628     1176.344        1.333        0.363      134.869       18.120        0.018      332.232        0.761      862.774
12/20/2021  13:22:00      109.170      -24.083      -18.382       60.855       51.618       43.143     3703.374     2664.397     1861.300        1.053        0.411      111.795       38.134        0.116      332.360        0.972      862.779
12/20/2021  13:23:00       89.082      -42.257      -19.023       50.850       51.935       37.167     2585.699     2697.196     1381.405        0.837        0.333       98.596       18.893        0.037      332.341        0.940      862.765
12/20/2021  13:24:00       69.296      -22.612      -14.282       36.860       49.513       23.573     1358.659     2451.533      555.679        0.494        0.218       72.892       20.987        0.083      332.385        1.014      862.771
12/20/2021  13:25:00       28.329      -12.052      -16.593       40.340       35.903       25.475     1627.278     1289.045      648.964        0.239        0.178       30.786       10.686        0.120      332.640        1.435      862.788
12/20/2021  13:26:00       59.274       11.376      -21.252       42.032       39.953       25.616     1766.654     1596.218      656.184        0.406        0.201       60.356       15.030        0.062      332.641        1.435      862.800
12/20/2021  13:27:00      112.410      -94.705      -32.575       67.078       62.313       26.388     4499.393     3882.875      696.315        1.587        0.454      146.986       24.708        0.028      332.511        1.220      862.767
12/20/2021  13:28:00       95.247      -53.994      -32.700       57.787       57.476       33.088     3339.363     3303.510     1094.824        1.040        0.387      109.487       27.014        0.061      332.563        1.307      862.763
12/20/2021  13:29:00      127.939        5.190      -22.594       82.331       52.380       31.011     6778.475     2743.666      961.702        1.369        0.524      128.044       25.069        0.038      332.467        1.149      862.763
12/20/2021  13:30:00       41.170      -50.859      -27.616       45.960       77.468       40.448     2112.290     6001.221     1636.023        0.740        0.487       65.434       32.218        0.242      332.754        1.623      862.744
12/20/2021  13:31:00       24.141        1.315       -1.151       52.076       41.137       34.363     2711.947     1692.255     1180.785        0.308        0.279       24.177       28.682        1.407      332.721        1.568      862.737
12/20/2021  13:32:00       61.612      -15.317       -7.095       60.732       43.116       49.196     3688.393     1859.018     2420.229        0.602        0.398       63.487       41.893        0.435      332.725        1.574      862.729
12/20/2021  13:33:00       71.147      -56.845      -20.532       53.612       51.055       37.856     2874.246     2606.563     1433.104        0.781        0.346       91.067       26.905        0.087      332.684        1.507      862.713
12/20/2021  13:34:00      104.071      -37.184       -9.849       73.879       40.971       43.338     5458.045     1678.593     1878.206        1.066        0.451      110.514       41.877        0.144      332.569        1.318      862.670
12/20/2021  13:35:00       55.996      -18.407       -5.828       57.722       44.325       38.263     3331.865     1964.743     1464.043        0.513        0.338       58.944       29.594        0.252      332.887        1.843      862.634
12/20/2021  13:36:00       67.708       -9.538      -17.237       58.045       63.616       44.333     3369.254     4047.011     1965.408        0.718        0.469       68.377       33.416        0.239      332.688        1.513      862.626
12/20/2021  13:37:00       77.463      -34.636      -18.183       66.429       54.487       48.896     4412.752     2968.793     2390.858        0.865        0.489       84.854       40.876        0.232      332.626        1.411      862.625
12/20/2021  13:38:00       79.332      -38.017      -28.693       59.608       65.056       51.207     3553.101     4232.292     2622.186        0.948        0.520       87.971       36.465        0.172      332.802        1.703      862.616
12/20/2021  13:39:00       69.194      -12.519      -25.428       79.481       59.173       50.409     6317.289     3501.474     2541.033        0.897        0.618       70.318       36.446        0.269      332.845        1.773      862.630
12/20/2021  13:40:00       99.849       -6.395      -18.563       57.870       51.435       29.913     3348.901     2645.556      894.813        0.862        0.344      100.054       19.239        0.037      332.697        1.529      862.627
12/20/2021  13:41:00      107.466       -4.682      -14.924       46.004       50.059       24.837     2116.354     2505.870      616.898        0.852        0.262      107.568       10.009        0.009      332.688        1.515      862.622
12/20/2021  13:42:00      104.557       10.539       -9.096       60.815       60.268       35.790     3698.468     3632.220     1280.916        0.987        0.431      105.087       24.571        0.055      332.782        1.668      862.658
12/20/2021  13:43:00       92.519      -20.500      -13.290       86.944       50.700       48.348     7559.237     2570.448     2337.501        1.081        0.623       94.763       46.816        0.244      332.754        1.623      862.693
12/20/2021  13:44:00      130.503      -32.901      -18.139       56.927       38.305       36.313     3240.736     1467.306     1318.639        1.223        0.301      134.586       23.015        0.029      332.836        1.759      862.686
12/20/2021  13:45:00       55.864      -24.314      -16.136       63.454       63.200       49.011     4026.351     3994.254     2402.110        0.720        0.521       60.926       47.947        0.619      332.826        1.742      862.667
12/20/2021  13:46:00       61.551      -28.730       -8.206       62.124       54.147       50.265     3859.352     2931.931     2526.607        0.700        0.466       67.926       31.010        0.208      332.976        1.991      862.657
12/20/2021  13:47:00       43.861      -10.102      -21.451       63.828       52.259       37.091     4073.964     2731.000     1375.769        0.533        0.409       45.009       29.359        0.425      332.837        1.761      862.677
12/20/2021  13:48:00       99.526      -63.941      -28.762       51.055       51.503       31.381     2606.584     2652.535      984.737        1.053        0.312      118.296       33.536        0.080      332.802        1.703      862.702
12/20/2021  13:49:00       88.865      -16.183      -27.801       51.388       48.665       31.725     2640.714     2368.292     1006.495        0.747        0.301       90.326       13.639        0.023      332.899        1.863      862.736
12/20/2021  13:50:00       73.290      -16.854      -11.571       56.461       68.532       35.549     3187.806     4696.628     1263.741        0.747        0.457       75.203       31.894        0.180      333.018        2.058      862.752
12/20/2021  13:51:00       73.721      -20.067       -7.128       48.963       31.176       21.536     2397.394      971.972      463.808        0.486        0.192       76.403       11.666        0.023      333.026        2.072      862.778
12/20/2021  13:52:00      -16.784      -27.206       -7.320       35.075       35.782       24.369     1230.276     1280.330      593.843        0.209        0.155       31.967        8.320        0.068      333.328        2.572      862.791
12/20/2021  13:53:00       40.361      -70.478      -18.167       51.170       58.363       34.827     2618.384     3406.216     1212.888        0.708        0.362       81.217       31.093        0.147      333.140        2.261      862.776
12/20/2021  13:54:00       62.322      -13.860      -18.500       62.019       61.386       31.861     3846.359     3768.191     1015.095        0.652        0.431       63.845       23.691        0.138      333.147        2.273      862.763
12/20/2021  13:55:00       46.732      -47.549      -23.761       19.933       24.993       17.567      397.323      624.665      308.604        0.317        0.067       66.670        7.000        0.011      332.963        1.969      862.782
12/20/2021  13:56:00       46.155       28.882       -8.720       19.631       27.317       13.029      385.373      746.223      169.762        0.217        0.065       54.447        7.391        0.018      332.753        1.622      862.795
12/20/2021  13:57:00       62.317       31.397       -9.474       43.715       52.460       21.626     1911.029     2752.038      467.683        0.504        0.257       69.779       13.804        0.039      333.024        2.070      862.758
12/20/2021  13:58:00       69.347       -8.962       -3.951       75.615       54.345       34.662     5717.558     2953.396     1201.434        0.739        0.494       69.924       33.400        0.228      333.138        2.259      862.726
12/20/2021  13:59:00       51.035      -18.649      -14.219       61.031       39.260       32.557     3724.806     1541.343     1059.943        0.474        0.316       54.336       22.021        0.164      333.115        2.220      862.742
12/20/2021  14:00:00      100.412       34.972      -20.973       56.175       62.979       28.632     3155.585     3966.309      819.790        0.984        0.397      106.328       19.026        0.032      333.088        2.174      862.784
12/20/2021  14:01:00       89.516      -27.787      -24.197       36.005       42.703       22.269     1296.338     1823.546      495.928        0.649        0.181       93.729       10.425        0.012      333.038        2.091      862.821
12/20/2021  14:02:00       16.888        2.272       -2.328       35.198       32.368       25.639     1238.902     1047.670      657.380        0.162        0.147       17.041       22.381        1.725      333.168        2.308      862.861
12/20/2021  14:03:00       61.391      -12.735      -16.524       56.899       31.635       29.877     3237.482     1000.801      892.624        0.467        0.257       62.698       18.917        0.091      333.098        2.191      862.880
12/20/2021  14:04:00       34.895       10.598      -12.227       64.396       47.224       48.312     4146.853     2230.138     2334.031        0.509        0.436       36.469       40.694        1.245      333.242        2.429      862.856
12/20/2021  14:05:00       94.690       10.585       -9.517       57.301       43.040       30.712     3283.458     1852.478      943.229        0.762        0.304       95.280       23.034        0.058      333.108        2.207      862.836
12/20/2021  14:06:00       37.385       30.748       -4.226       54.449       46.379       26.791     2964.657     2150.967      717.742        0.410        0.292       48.406       22.525        0.217      333.253        2.449      862.844
12/20/2021  14:07:00       55.798       14.828      -22.928       39.519       38.163       28.010     1561.756     1456.429      784.586        0.383        0.190       57.735       15.430        0.071      333.251        2.444      862.843
12/20/2021  14:08:00       45.368       -1.415      -10.740       26.973       21.667       18.107      727.568      469.462      327.853        0.185        0.076       45.390       11.074        0.060      333.053        2.117      862.828
12/20/2021  14:09:00       39.058       48.009       -2.989       15.466       19.935       14.631      239.200      397.397      214.073        0.234        0.043       61.890       11.239        0.033      333.019        2.059      862.816
12/20/2021  14:10:00       64.675       -0.941      -20.627       35.155       49.735       21.523     1235.841     2473.550      463.220        0.439        0.209       64.682        5.835        0.008      333.148        2.274      862.826
12/20/2021  14:11:00       80.732       37.455      -19.857       51.102       49.832       25.026     2611.365     2483.241      626.290        0.702        0.286       88.997       17.202        0.037      333.228        2.407      862.826
12/20/2021  14:12:00       64.305        7.500      -18.812       46.724       56.420       26.857     2183.148     3183.210      721.285        0.532        0.304       64.740       23.729        0.134      333.339        2.588      862.817
12/20/2021  14:13:00      103.204       31.127      -22.459       42.557       33.857       17.216     1811.128     1146.271      296.406        0.769        0.163      107.796       10.980        0.010      333.144        2.267      862.785
12/20/2021  14:14:00       22.195       -4.961      -23.326       38.225       48.903       32.960     1461.181     2391.484     1086.347        0.300        0.247       22.742       22.307        0.962      333.338        2.588      862.745
12/20/2021  14:15:00       95.862       15.976       -6.520       71.142       38.559       27.574     5061.124     1486.822      760.327        0.840        0.365       97.184       30.836        0.101      333.250        2.441      862.757
12/20/2021  14:16:00       69.019       -8.338       -4.425       43.361       26.563       25.838     1880.183      705.599      667.609        0.405        0.163       69.521       30.312        0.190      333.175        2.319      862.791
12/20/2021  14:17:00       70.422      -26.070      -16.773       45.429       36.897       31.928     2063.755     1361.423     1019.426        0.518        0.222       75.093       29.237        0.152      333.195        2.351      862.806
12/20/2021  14:18:00       60.825       -1.568      -28.455       62.431       58.932       48.009     3897.684     3473.031     2304.886        0.709        0.484       60.845       38.802        0.407      333.231        2.411      862.801
12/20/2021  14:19:00       81.288      -45.829      -16.677       64.502       47.887       36.275     4160.555     2293.159     1315.859        0.838        0.388       93.317       20.460        0.048      333.149        2.276      862.799
12/20/2021  14:20:00       97.500      -11.640      -13.954       51.458       44.089       39.537     2647.977     1943.839     1563.166        0.799        0.308       98.192       30.231        0.095      333.174        2.317      862.792
12/20/2021  14:21:00      103.749      -41.411      -13.665       25.621       14.052       21.860      656.458      197.466      477.851        0.700        0.067      111.708        7.535        0.005      333.069        2.144      862.803
12/20/2021  14:22:00       53.074       -1.303      -12.991       40.238       29.755       28.378     1619.087      885.370      805.324        0.315        0.165       53.090       23.901        0.203      333.373        2.646      862.833
12/20/2021  14:23:00       63.106       -3.591      -13.745       62.375       52.954       41.667     3890.673     2804.074     1736.130        0.631        0.422       63.208       40.838        0.417      333.415        2.716      862.853
12/20/2021  14:24:00       50.329        6.254      -23.452       41.727       63.145       31.980     1741.113     3987.330     1022.692        0.494        0.338       50.716       19.657        0.150      333.342        2.594      862.864
12/20/2021  14:25:00       76.326       -2.488       -2.632       39.293       32.098       27.968     1543.970     1030.276      782.219        0.460        0.168       76.367       25.124        0.108      333.200        2.361      862.877
12/20/2021  14:26:00      107.417       39.001      -12.837       34.006       28.592       17.326     1156.378      817.492      300.182        0.775        0.114      114.278       14.718        0.017      333.228        2.406      862.890
12/20/2021  14:27:00       62.617      -21.208      -14.248       50.212       45.857       40.533     2521.249     2102.845     1642.919        0.542        0.313       66.111       33.024        0.250      333.396        2.684      862.892
12/20/2021  14:28:00       81.823       -9.278      -14.465       36.967       35.787       22.730     1366.544     1280.738      516.671        0.508        0.158       82.347       18.477        0.050      333.223        2.397      862.888
12/20/2021  14:29:00       66.189       -2.300       -9.145       39.528       35.872       19.073     1562.496     1286.785      363.788        0.384        0.161       66.229        5.324        0.006      333.259        2.458      862.877
12/20/2021  14:30:00       15.947       -1.856       -9.804       28.091       20.838       16.805      789.127      434.229      282.395        0.093        0.075       16.055       16.785        1.093      333.230        2.408      862.883
12/20/2021  14:31:00       87.093       28.551      -16.108       24.464       16.402       13.596      598.499      269.019      184.864        0.486        0.053       91.654        9.642        0.011      333.063        2.132      862.873
12/20/2021  14:32:00       46.561       -3.648       -7.472       43.728       22.874       17.808     1912.126      523.237      317.129        0.249        0.138       46.704       19.797        0.180      333.233        2.415      862.859
12/20/2021  14:33:00       72.632      -12.217      -13.423       54.720       39.953       31.604     2994.244     1596.256      998.832        0.560        0.279       73.653       24.787        0.113      333.256        2.452      862.860
12/20/2021  14:34:00       61.205       51.389      -13.614       30.364       30.272       22.177      921.971      916.399      491.815        0.445        0.117       79.918       16.084        0.041      333.202        2.365      862.857
12/20/2021  14:35:00       57.922       38.395       -4.363       43.816       48.346       27.671     1919.848     2337.335      765.698        0.493        0.251       69.492       16.722        0.058      333.360        2.624      862.838
12/20/2021  14:36:00       76.431       22.921      -13.299       33.481       36.352       21.820     1120.947     1321.470      476.091        0.473        0.146       79.794       10.565        0.018      333.286        2.502      862.831
12/20/2021  14:37:00       45.529       24.429       -7.234       35.704       37.004       25.883     1274.790     1369.279      669.933        0.302        0.166       51.669        8.173        0.025      333.310        2.542      862.844
12/20/2021  14:38:00       69.017       68.242      -25.272       28.911       21.040       18.124      835.864      442.695      328.489        0.583        0.080       97.059        4.301        0.002      333.236        2.419      862.825
12/20/2021  14:39:00       25.784        5.416       -9.857       25.779       48.644       20.086      664.556     2366.227      403.449        0.211        0.172       26.346       19.946        0.573      333.455        2.781      862.802
12/20/2021  14:40:00       60.890      -57.677      -25.110       37.448       36.856       17.047     1402.371     1358.384      290.595        0.536        0.153       83.870       14.505        0.030      333.421        2.727      862.815
12/20/2021  14:41:00       45.983      -10.066      -20.253       37.566       37.518       24.126     1411.178     1407.611      582.057        0.301        0.170       47.072       12.523        0.071      333.465        2.797      862.840
12/20/2021  14:42:00       65.280      -37.329      -17.742       40.723       34.776       28.070     1658.402     1209.337      787.908        0.481        0.183       75.199       26.933        0.128      333.325        2.568      862.857
12/20/2021  14:43:00       83.966      -42.313      -16.599       33.200       24.003       17.755     1102.229      576.125      315.225        0.555        0.100       94.025       15.106        0.026      333.251        2.445      862.876
12/20/2021  14:44:00       59.694      -25.070      -14.374       22.212       10.708        9.263      493.379      114.666       85.811        0.255        0.035       64.744       10.154        0.025      333.176        2.321      862.888
12/20/2021  14:45:00       45.831       19.155      -15.689       16.845       23.702        8.137      283.740      561.804       66.214        0.181        0.046       49.673        8.342        0.028      333.190        2.343      862.889
12/20/2021  14:46:00       31.622       -8.387      -21.012       36.157       39.448       21.732     1307.335     1556.109      472.300        0.242        0.167       32.715       17.731        0.294      333.485        2.833      862.888
12/20/2021  14:47:00       89.323      -17.855      -22.675       38.827       33.147       24.615     1507.572     1098.747      605.882        0.601        0.161       91.090       20.354        0.050      333.418        2.721      862.863
12/20/2021  14:48:00       65.725      -19.871      -10.865       34.404       21.519       19.079     1183.642      463.081      364.006        0.342        0.101       68.664       17.887        0.068      333.377        2.653      862.812
12/20/2021  14:49:00       27.606      -17.951       -4.909       36.015       46.742       25.729     1297.057     2184.840      661.998        0.263        0.207       32.929       18.840        0.327      333.528        2.901      862.780
12/20/2021  14:50:00       -6.076       -5.629      -11.871       26.528       27.997       24.367      703.741      783.845      593.766        0.115        0.104        8.283       14.408        3.026      333.672        3.141      862.781
12/20/2021  14:51:00       42.849      -20.640       -6.802       29.109       41.623       23.722      847.335     1732.451      562.744        0.272        0.157       47.561       19.671        0.171      333.552        2.942      862.789
12/20/2021  14:52:00       64.462      -10.553       -3.015       29.392       27.273       18.868      863.868      743.834      356.016        0.312        0.098       65.320       16.099        0.061      333.349        2.606      862.763
12/20/2021  14:53:00       62.580       33.016       -8.010       21.488       13.871       12.313      461.732      192.402      151.601        0.294        0.040       70.755        7.169        0.010      333.297        2.519      862.742
12/20/2021  14:54:00       28.563      -15.756      -13.003       27.028       34.735       20.518      730.495     1206.495      420.974        0.180        0.118       32.620       12.423        0.145      333.570        2.971      862.723
12/20/2021  14:55:00       -3.970      -14.202       -7.473       23.735       31.826       17.890      563.370     1012.891      320.063        0.108        0.095       14.746        4.061        0.076      333.668        3.135      862.716
12/20/2021  14:56:00       40.642      -31.273      -13.875       36.968       48.669       33.890     1366.598     2368.709     1148.528        0.385        0.244       51.282       23.320        0.207      333.601        3.023      862.716
12/20/2021  14:57:00       47.967       -0.944       -9.307       34.807       51.145       37.316     1211.546     2615.795     1392.487        0.380        0.261       47.977       17.576        0.134      333.563        2.961      862.722
12/20/2021  14:58:00       48.005       12.134      -10.334       27.908       42.882       22.190      778.884     1838.832      492.384        0.283        0.156       49.515       17.567        0.126      333.389        2.672      862.732
12/20/2021  14:59:00      108.603       26.661      -12.968       35.825       21.235       19.335     1283.411      450.906      373.855        0.739        0.105      111.828       12.087        0.012      333.305        2.536      862.750
12/20/2021  15:00:00      121.907       27.533      -14.325       24.586       16.474       13.750      604.464      271.402      189.051        0.844        0.053      124.978       11.262        0.008      333.270        2.473      862.760
12/20/2021  15:01:00       69.581      -15.870       -3.258       27.238       34.465       25.421      741.905     1187.846      646.241        0.384        0.129       71.368       20.315        0.081      333.385        2.667      862.748
12/20/2021  15:02:00       42.905       18.304      -13.096       33.105       31.255       30.109     1095.943      976.879      906.527        0.266        0.149       46.646       20.499        0.193      333.467        2.801      862.768
12/20/2021  15:03:00       52.255       25.342      -20.299       40.826       31.341       19.801     1666.730      982.253      392.090        0.341        0.152       58.076       15.562        0.072      333.478        2.817      862.788
12/20/2021  15:04:00       38.503      -15.873      -26.283       37.193       46.185       30.028     1383.287     2133.066      901.673        0.342        0.221       41.647       21.928        0.277      333.471        2.807      862.802
12/20/2021  15:05:00       84.648      -11.054      -29.127       53.338       42.718       35.130     2844.964     1824.845     1234.131        0.702        0.295       85.366       28.264        0.110      333.387        2.669      862.817
12/20/2021  15:06:00       95.616      -27.183       -8.829       46.589       33.455       23.712     2170.569     1119.234      562.248        0.690        0.193       99.405       20.293        0.042      333.347        2.604      862.820
12/20/2021  15:07:00      109.578      -48.719      -16.941       34.205       30.013       30.526     1169.950      900.763      931.864        0.883        0.150      119.920       21.205        0.031      333.412        2.713      862.816
12/20/2021  15:08:00       67.143       -8.391      -17.805       39.663       52.739       30.213     1573.140     2781.414      912.837        0.508        0.263       67.665       24.117        0.127      333.532        2.908      862.818
12/20/2021  15:09:00       53.840      -20.827       -7.414       49.901       51.032       42.603     2490.093     2604.244     1814.974        0.515        0.345       57.728       35.759        0.384      333.494        2.846      862.784
12/20/2021  15:10:00       47.459      -23.892      -24.989       43.401       52.221       39.878     1883.609     2727.074     1590.237        0.482        0.310       53.133       32.577        0.376      333.373        2.647      862.747
12/20/2021  15:11:00       92.448      -43.136      -30.397       39.812       43.981       34.044     1584.966     1934.304     1158.998        0.800        0.234      102.017       17.998        0.031      333.321        2.562      862.719
12/20/2021  15:12:00       67.520      -24.224      -13.986       53.000       28.509       23.383     2808.960      812.755      546.749        0.475        0.208       71.734       25.489        0.126      333.339        2.592      862.715
12/20/2021  15:13:00       51.539       -1.707      -24.079       33.211       30.980       26.345     1102.957      959.738      694.043        0.300        0.138       51.567       17.665        0.117      333.407        2.701      862.716
12/20/2021  15:14:00       70.412      -13.328      -12.046       51.732       33.624       25.813     2676.238     1130.549      666.295        0.488        0.224       71.662       21.502        0.090      333.469        2.805      862.736
12/20/2021  15:15:00       77.765      -21.784      -23.082       38.152       41.096       25.935     1455.575     1688.881      672.630        0.544        0.191       80.759       12.055        0.022      333.434        2.746      862.741
12/20/2021  15:16:00       89.351      -18.239      -14.482       39.593       27.600       27.963     1567.626      761.759      781.919        0.582        0.156       91.193       15.962        0.031      333.396        2.684      862.749
12/20/2021  15:17:00       83.532      -47.186       -9.190       45.851       34.724       28.768     2102.327     1205.761      827.610        0.671        0.207       95.939       27.447        0.082      333.392        2.680      862.756
12/20/2021  15:18:00       99.404      -36.469       -9.705       37.704       26.118       28.323     1421.629      682.168      802.196        0.711        0.145      105.883       26.423        0.062      333.346        2.601      862.788
12/20/2021  15:19:00       84.312      -40.566      -37.738       47.651       38.207       27.809     2270.602     1459.801      773.315        0.734        0.225       93.563       20.284        0.047      333.440        2.758      862.806
12/20/2021  15:20:00       78.995       -2.415      -24.383       37.732       50.281       30.781     1423.668     2528.170      947.440        0.587        0.245       79.032       28.804        0.133      333.528        2.903      862.825
12/20/2021  15:21:00       92.065       65.169      -16.314       23.603       30.067       21.456      557.110      904.000      460.340        0.745        0.096      112.796       15.577        0.019      333.460        2.790      862.833
12/20/2021  15:22:00       92.443       22.953      -12.608       18.980       23.699       11.331      360.247      561.642      128.399        0.514        0.053       95.250        7.648        0.006      333.362        2.630      862.824
12/20/2021  15:23:00       72.127        4.906      -12.943       32.574       22.470       15.305     1061.035      504.921      234.242        0.360        0.090       72.293        9.756        0.018      333.450        2.773      862.819
12/20/2021  15:24:00       51.370        5.654      -14.684       26.925       30.501       17.652      724.952      930.316      311.590        0.243        0.098       51.680       15.141        0.086      333.466        2.798      862.816
12/20/2021  15:25:00       47.917       -1.681      -14.237       38.637       37.932       20.724     1492.797     1438.840      429.486        0.293        0.168       47.947       19.973        0.174      333.533        2.912      862.823
12/20/2021  15:26:00       36.805      -17.626      -10.284       28.516       19.553       17.935      813.177      382.315      321.646        0.164        0.076       40.807       15.930        0.152      333.492        2.841      862.829
12/20/2021  15:27:00       37.808       14.036      -14.049       17.345       25.148       12.237      300.833      632.442      149.754        0.145        0.054       40.329       10.083        0.063      333.474        2.813      862.832
12/20/2021  15:28:00       14.821       -4.035       -6.082       19.159       20.572       15.737      367.055      423.199      247.649        0.066        0.052       15.361       11.980        0.608      333.527        2.900      862.844
12/20/2021  15:29:00       15.439        3.445       -5.821       14.891       22.941       10.461      221.750      526.299      109.436        0.057        0.043       15.819        9.087        0.330      333.509        2.870      862.867
12/20/2021  15:30:00       50.277       22.461      -12.678       14.343        9.825       13.761      205.730       96.525      189.371        0.184        0.025       55.066        8.392        0.023      333.427        2.735      862.884
12/20/2021  15:31:00       28.876       42.017       -2.876       22.035       19.438       16.830      485.558      377.849      283.244        0.188        0.057       50.983        6.675        0.017      333.496        2.850      862.894
12/20/2021  15:32:00        6.922        6.825       -6.070       25.254       25.066       18.755      637.781      628.311      351.761        0.087        0.081        9.721       17.559        3.263      333.574        2.980      862.912
12/20/2021  15:33:00       28.563       31.997      -15.373       14.042       10.164       12.062      197.173      103.300      145.480        0.126        0.022       42.892        5.588        0.017      333.517        2.883      862.917
12/20/2021  15:34:00        1.768       19.353       -6.788        9.396       15.263       10.719       88.283      232.953      114.891        0.043        0.022       19.434        9.004        0.215      333.508        2.865      862.913
12/20/2021  15:35:00       13.680        3.389       -7.923       14.646       16.817       10.653      214.520      282.823      113.493        0.044        0.031       14.093        5.069        0.129      333.525        2.897      862.913
12/20/2021  15:36:00        7.945      -21.859       -9.881       17.186       19.181       16.693      295.373      367.921      278.662        0.079        0.047       23.258       11.566        0.247      333.587        2.999      862.921
12/20/2021  15:37:00       10.011      -17.541       -8.916       21.667       25.510       17.368      469.445      650.779      301.653        0.095        0.071       20.197       11.974        0.351      333.598        3.019      862.929
12/20/2021  15:38:00       15.570       -3.551      -11.732       24.573       23.107       20.721      603.821      533.937      429.361        0.098        0.078       15.970       14.439        0.817      333.565        2.963      862.918
12/20/2021  15:39:00       47.667       12.549      -24.949       29.172       37.659       25.810      851.017     1418.190      666.136        0.299        0.147       49.291       12.654        0.066      333.539        2.920      862.926
12/20/2021  15:40:00       59.306      -12.305       -3.429       39.751       27.094       21.579     1580.138      734.106      465.654        0.323        0.139       60.569       23.964        0.157      333.521        2.891      862.937
12/20/2021  15:41:00       20.984      -37.382       -6.152       33.163       32.693       32.230     1099.789     1068.864     1038.805        0.254        0.160       42.869       24.436        0.325      333.642        3.092      862.953
12/20/2021  15:42:00       55.953      -27.728      -28.358       31.355       43.321       24.076      983.166     1876.719      579.632        0.407        0.172       62.447       19.156        0.094      333.632        3.074      862.971
12/20/2021  15:43:00       26.103       -0.134       -6.924       32.505       24.858       24.722     1056.544      617.925      611.169        0.151        0.114       26.104       20.101        0.593      333.549        2.937      862.980
12/20/2021  15:44:00       52.104        3.681      -12.756       25.063       25.660       17.748      628.144      658.412      315.006        0.225        0.080       52.234       11.370        0.047      333.484        2.830      862.971
12/20/2021  15:45:00       91.489      -11.581      -11.602       21.530       20.555       14.772      463.530      422.516      218.200        0.487        0.055       92.219       10.445        0.013      333.475        2.815      862.953
12/20/2021  15:46:00       56.390      -15.193       -9.483       31.262       23.869       15.777      977.302      569.730      248.921        0.265        0.090       58.401       18.435        0.100      333.478        2.820      862.955
12/20/2021  15:47:00       40.719        4.437       -5.132       22.188       28.170       15.149      492.321      793.533      229.505        0.161        0.076       40.960        8.136        0.039      333.507        2.867      862.971
12/20/2021  15:48:00       60.601      -15.320       -6.741       29.302       26.993       18.887      858.614      728.599      356.715        0.295        0.097       62.508        6.254        0.010      333.502        2.861      862.970
12/20/2021  15:49:00       41.982        9.395       -7.527       32.826       30.632       21.225     1077.524      938.332      450.519        0.219        0.123       43.020       15.601        0.132      333.476        2.815      862.971
12/20/2021  15:50:00       45.525       -7.799       -4.711       25.257       18.249       22.462      637.936      333.040      504.519        0.182        0.074       46.188       14.439        0.098      333.505        2.865      862.989
12/20/2021  15:51:00       30.615      -10.537       -3.239       43.743       31.724       29.472     1913.408     1006.399      868.577        0.242        0.189       32.377       28.695        0.786      333.542        2.926      863.005
12/20/2021  15:52:00       30.240        5.000      -12.303       38.959       42.801       29.430     1517.766     1831.958      866.101        0.265        0.211       30.650       24.632        0.646      333.675        3.147      863.029
12/20/2021  15:53:00       25.495       -4.923      -22.612       25.954       24.374       27.242      673.591      594.098      742.135        0.160        0.100       25.966       13.280        0.262      333.740        3.253      863.048
12/20/2021  15:54:00       39.414      -10.405        0.149       38.272       22.156       27.780     1464.710      490.900      771.733        0.219        0.136       40.765       23.266        0.326      333.582        2.991      863.057
12/20/2021  15:55:00       51.185       -4.686       -4.898       29.521       23.974       16.105      871.479      574.753      259.368        0.219        0.085       51.399       15.429        0.090      333.502        2.861      863.067
12/20/2021  15:56:00       42.676      -11.558       -2.367       33.277       24.582       21.935     1107.358      604.263      481.124        0.208        0.110       44.213       22.930        0.269      333.535        2.916      863.070
12/20/2021  15:57:00       52.182        7.942      -10.149       20.220       22.739       16.071      408.843      517.052      258.285        0.204        0.059       52.783       14.502        0.075      333.469        2.805      863.075
12/20/2021  15:58:00       49.741        0.101      -11.240       18.326       18.159       10.656      335.853      329.755      113.547        0.169        0.039       49.741        6.706        0.018      333.501        2.858      863.090
12/20/2021  15:59:00       28.889       -1.094       -7.093       24.693       21.218       13.698      609.746      450.185      187.627        0.107        0.062       28.909       15.074        0.272      333.462        2.792      863.091
12/20/2021  16:00:00       51.358       13.243       -7.824       18.465       16.393       13.391      340.953      268.722      179.332        0.183        0.039       53.038        9.823        0.034      333.472        2.810      863.077
12/20/2021  16:01:00       11.119      -12.636       -4.769       14.238       16.171       11.628      202.718      261.486      135.219        0.045        0.030       16.832        6.574        0.153      333.560        2.954      863.058
12/20/2021  16:02:00       22.609       -1.649      -11.317       26.561       26.755       13.874      705.497      715.834      192.496        0.113        0.081       22.670        9.243        0.166      333.508        2.869      863.048
12/20/2021  16:03:00       40.433       14.308      -15.051       29.086       25.490       15.581      845.979      649.744      242.753        0.190        0.087       42.890       10.979        0.066      333.487        2.834      863.049
12/20/2021  16:04:00       20.453      -18.843        0.332       37.501       21.338       22.357     1406.327      455.316      499.856        0.157        0.118       27.810       18.274        0.432      333.664        3.128      863.066
12/20/2021  16:05:00       49.325      -12.478      -16.438       24.024       20.573       18.152      577.155      423.261      329.503        0.209        0.066       50.879       14.045        0.076      333.499        2.854      863.076
12/20/2021  16:06:00       41.703      -13.036      -14.088       22.337       27.613       14.023      498.933      762.498      196.647        0.178        0.073       43.693        6.811        0.024      333.496        2.848      863.079
12/20/2021  16:07:00       31.162      -12.577       -8.522       30.152       13.506       12.723      909.173      182.409      161.870        0.123        0.063       33.604       12.040        0.128      333.506        2.865      863.068
12/20/2021  16:08:00       53.073       23.802       -9.160       19.341       13.001        9.124      374.064      169.014       83.250        0.205        0.031       58.166        9.335        0.026      333.513        2.877      863.060
12/20/2021  16:09:00       45.881       12.115      -11.640       11.408        9.530        6.880      130.136       90.819       47.339        0.133        0.013       47.453        2.285        0.002      333.451        2.774      863.052
12/20/2021  16:10:00       45.524        7.186       -8.873       12.641       11.033        7.043      159.799      121.726       49.604        0.127        0.017       46.088        3.071        0.004      333.493        2.844      863.067
12/20/2021  16:11:00       50.440      -20.826      -11.144        9.467       10.886        7.989       89.617      118.507       63.828        0.169        0.014       54.570        4.650        0.007      333.529        2.905      863.087
12/20/2021  16:12:00       50.021       -3.997       -8.427       18.073       21.549       13.295      326.629      464.359      176.746        0.178        0.048       50.180        4.518        0.008      333.534        2.913      863.095
12/20/2021  16:13:00       26.884        3.101      -20.185       28.169       35.350       20.247      793.512     1249.654      409.934        0.180        0.123       27.062        8.884        0.108      333.564        2.960      863.090
12/20/2021  16:14:00       45.451       -6.785      -31.028       29.314       33.716       23.598      859.336     1136.738      556.867        0.281        0.128       45.954        9.642        0.044      333.612        3.043      863.085
12/20/2021  16:15:00       60.241       -5.455       -2.728       30.057       24.843       25.439      903.421      617.188      647.143        0.292        0.108       60.488       19.367        0.103      333.514        2.878      863.096
12/20/2021  16:16:00       64.950      -16.943       -2.540       24.193       19.471       15.180      585.281      379.124      230.432        0.285        0.060       67.123       11.467        0.029      333.490        2.839      863.121
12/20/2021  16:17:00       43.424       -3.308        3.886       30.339       27.249       19.115      920.454      742.530      365.367        0.197        0.101       43.550       18.110        0.173      333.465        2.797      863.120
12/20/2021  16:18:00       78.057        9.999       -1.807       28.990       14.009       14.803      840.401      196.253      219.136        0.373        0.063       78.695       13.495        0.029      333.449        2.770      863.115
12/20/2021  16:19:00      103.234       11.000       -6.578       16.765       14.823       13.491      281.063      219.716      182.019        0.575        0.034      103.818       11.065        0.011      333.426        2.731      863.092
12/20/2021  16:20:00       86.252        2.351      -10.861       31.012       29.521       19.769      961.753      871.462      390.796        0.489        0.111       86.284       18.668        0.047      333.452        2.776      863.078
12/20/2021  16:21:00       57.977       10.592       -0.748       20.792       23.791       14.646      432.293      566.031      214.503        0.234        0.061       58.936        8.524        0.021      333.407        2.702      863.086
12/20/2021  16:22:00       47.417       -4.853       -4.417       22.722       29.674       18.546      516.301      880.570      343.971        0.202        0.087       47.665       10.158        0.045      333.432        2.744      863.094
12/20/2021  16:23:00       35.035       14.380        0.407       33.669       42.000       25.888     1133.595     1763.976      670.191        0.250        0.178       37.871       19.145        0.256      333.452        2.776      863.094
12/20/2021  16:24:00       25.692       19.499      -10.280       29.470       40.048       33.906      868.473     1603.809     1149.640        0.238        0.181       32.254       20.319        0.397      333.543        2.926      863.073
12/20/2021  16:25:00       43.735        4.474       -4.254       29.950       42.195       30.506      897.026     1780.429      930.588        0.278        0.180       43.963       18.017        0.168      333.514        2.880      863.065
12/20/2021  16:26:00       63.872       -6.813       -6.960       32.551       23.106       17.944     1059.536      533.878      321.986        0.304        0.096       64.234       15.670        0.060      333.479        2.821      863.059
12/20/2021  16:27:00       72.862        4.288       -6.590       34.112       16.472       16.413     1163.662      271.323      269.394        0.354        0.085       72.988       14.832        0.041      333.441        2.759      863.058
12/20/2021  16:28:00       91.935       15.067       -6.351       12.125       10.693       12.119      147.025      114.335      146.876        0.456        0.020       93.161        8.931        0.009      333.451        2.778      863.063
12/20/2021  16:29:00       55.183        4.202       -4.754       27.833       15.775       15.108      774.650      248.863      228.246        0.217        0.063       55.343        9.775        0.031      333.464        2.797      863.070
12/20/2021  16:30:00       51.515        8.385      -11.436       22.537       15.062       10.518      507.906      226.878      110.621        0.185        0.042       52.193        7.263        0.019      333.459        2.789      863.089
12/20/2021  16:31:00       57.563        3.159       -2.569       26.953       19.134       15.139      726.455      366.109      229.184        0.233        0.066       57.650       14.498        0.063      333.455        2.781      863.104
12/20/2021  16:32:00       80.886        5.963       -8.912       20.962       15.781       14.596      439.418      249.025      213.046        0.378        0.045       81.106        7.782        0.009      333.458        2.786      863.102
12/20/2021  16:33:00       52.912        9.423      -13.841       18.992       16.793       12.521      360.711      282.014      156.782        0.194        0.040       53.745        7.450        0.019      333.477        2.818      863.104
12/20/2021  16:34:00       29.078        2.078      -11.451       16.138       16.167       10.517      260.420      261.362      110.607        0.081        0.032       29.152        7.951        0.074      333.488        2.837      863.114
12/20/2021  16:35:00       56.590       25.059      -15.161       21.910       20.782       12.209      480.039      431.907      149.052        0.256        0.053       61.890        5.972        0.009      333.475        2.816      863.126
12/20/2021  16:36:00       72.955       30.481      -12.413       16.752       20.434        8.899      280.620      417.549       79.192        0.359        0.039       79.067        8.829        0.012      333.466        2.803      863.128
12/20/2021  16:37:00       51.054        0.730       -5.003       28.186       28.630       18.319      794.437      819.691      335.577        0.229        0.097       51.059       14.797        0.084      333.486        2.832      863.125
12/20/2021  16:38:00       58.193        8.895      -12.849       17.078       13.576       12.038      291.668      184.308      144.912        0.213        0.031       58.869        7.850        0.018      333.432        2.742      863.122
12/20/2021  16:39:00        8.396       -4.176       -7.299       17.273       23.337       14.039      298.368      544.612      197.092        0.059        0.052        9.377        7.487        0.638      333.448        2.770      863.136
12/20/2021  16:40:00       19.271        3.918       -3.383       22.713       22.483       13.080      515.875      505.487      171.090        0.080        0.060       19.665       10.865        0.305      333.395        2.682      863.149
12/20/2021  16:41:00       69.636        2.963       -8.174       25.109       20.954       12.228      630.475      439.090      149.519        0.307        0.061       69.699        9.391        0.018      333.411        2.706      863.157
12/20/2021  16:42:00       85.870       10.253       -7.634       12.871        7.075        8.228      165.667       50.054       67.696        0.391        0.014       86.480        5.126        0.004      333.411        2.706      863.152
12/20/2021  16:43:00       76.082        2.156      -11.275       19.268       13.991       11.140      371.241      195.749      124.093        0.331        0.035       76.113        6.313        0.007      333.423        2.727      863.153
12/20/2021  16:44:00       44.602        5.091       -0.897       22.578       20.956       14.049      509.768      439.170      197.363        0.158        0.057       44.891       13.350        0.088      333.435        2.746      863.148
12/20/2021  16:45:00       40.270       -0.063       -9.211       16.835       20.801        9.321      283.418      432.678       86.877        0.125        0.040       40.270        3.494        0.008      333.401        2.693      863.157
12/20/2021  16:46:00       59.304       23.034       -6.210       26.510       35.827       17.170      702.774     1283.599      294.792        0.318        0.114       63.620       11.518        0.033      333.416        2.719      863.158
12/20/2021  16:47:00       86.540       42.391       -5.709       22.477       21.895       16.304      505.196      479.380      265.829        0.528        0.063       96.365       12.532        0.017      333.410        2.708      863.149
12/20/2021  16:48:00       37.868        5.318       -3.065       21.247       24.980       13.881      451.431      624.024      192.692        0.137        0.063       38.239        4.823        0.016      333.362        2.628      863.146
12/20/2021  16:49:00       54.413       -1.868       -7.968       30.904       16.142       10.886      955.049      260.555      118.512        0.218        0.067       54.445        6.571        0.015      333.379        2.655      863.159
12/20/2021  16:50:00       82.702        0.737       -7.583       19.586       11.260       12.142      383.596      126.797      147.436        0.378        0.033       82.705        7.815        0.009      333.367        2.637      863.177
12/20/2021  16:51:00       45.363       -1.587       -0.107       32.012       24.418       17.513     1024.756      596.259      306.716        0.199        0.096       45.391       16.772        0.137      333.373        2.648      863.199
12/20/2021  16:52:00       48.700      -16.449       -5.891       38.426       31.311       22.042     1476.536      980.396      485.831        0.281        0.147       51.402       20.433        0.158      333.337        2.589      863.227
12/20/2021  16:53:00       45.358      -12.374       -0.941       32.063       19.991       21.157     1028.026      399.651      447.631        0.204        0.094       47.016       20.277        0.186      333.306        2.536      863.248
12/20/2021  16:54:00       35.548       -1.464        0.332       24.942       16.726       14.132      622.127      279.752      199.701        0.118        0.055       35.579       12.738        0.128      333.302        2.529      863.257
12/20/2021  16:55:00       61.420       10.065       -3.373       19.117       11.063       11.706      365.461      122.380      137.032        0.225        0.031       62.239       11.636        0.035      333.290        2.511      863.263
12/20/2021  16:56:00       55.425        0.821      -10.660       26.907       14.440       10.423      723.982      208.505      108.637        0.211        0.052       55.431       11.174        0.041      333.343        2.595      863.277
12/20/2021  16:57:00       78.295       49.670       -6.054       25.911       21.374       20.513      671.359      456.859      420.788        0.509        0.077       92.721        8.127        0.008      333.377        2.653      863.294
12/20/2021  16:58:00       64.051       51.375       10.433       26.360       24.800       21.327      694.853      615.027      454.835        0.431        0.088       82.109       14.400        0.031      333.304        2.533      863.299
12/20/2021  16:59:00      101.093       26.208       -8.608       10.163       12.186        9.217      103.279      148.501       84.955        0.566        0.017      104.435        5.057        0.002      333.307        2.538      863.282
12/20/2021  17:00:00       78.354       16.572       -7.546       26.917       11.407        8.572      724.498      130.120       73.475        0.370        0.046       80.087        9.703        0.015      333.250        2.442      863.268
12/20/2021  17:01:00       56.288       17.417       -5.665       13.569       13.083        8.618      184.116      171.166       74.265        0.197        0.021       58.921        5.178        0.008      333.226        2.402      863.268
12/20/2021  17:02:00       67.182       19.650       -6.026       16.917       12.400        8.544      286.178      153.767       72.994        0.272        0.026       69.996        8.787        0.016      333.255        2.451      863.267
12/20/2021  17:03:00       67.114       23.854       -4.650       12.827       12.101        7.947      164.523      146.444       63.155        0.273        0.019       71.227        6.505        0.008      333.249        2.441      863.258
12/20/2021  17:04:00       68.494       17.491       -5.000       15.074       13.095       11.111      227.214      171.482      123.443        0.277        0.026       70.692        8.457        0.014      333.221        2.395      863.254
12/20/2021  17:05:00       77.268       18.315       -4.852       23.609       17.988       15.204      557.376      323.563      231.174        0.372        0.056       79.409        9.502        0.014      333.210        2.375      863.257
12/20/2021  17:06:00       85.226       11.197       -7.306       24.147       16.636       18.776      583.102      276.768      352.535        0.433        0.061       85.958       15.319        0.032      333.199        2.359      863.263
12/20/2021  17:07:00       93.684       43.480      -17.096       14.146       20.278       13.743      200.123      411.182      188.867        0.588        0.040      103.282        8.114        0.006      333.226        2.401      863.248
12/20/2021  17:08:00       91.735       43.626      -23.196       17.066       15.784       14.109      291.252      249.133      199.066        0.580        0.037      101.580        9.862        0.009      333.246        2.436      863.229
12/20/2021  17:09:00       84.224       24.439      -15.829       26.437       20.614       14.265      698.930      424.922      203.493        0.463        0.066       87.698        6.231        0.005      333.259        2.459      863.225
12/20/2021  17:10:00       64.179        1.526       -4.747       33.345       15.240       18.090     1111.869      232.244      327.252        0.291        0.084       64.197       18.091        0.079      333.215        2.384      863.239
12/20/2021  17:11:00       46.502       -2.623       -2.859       20.412       19.933       12.397      416.642      397.316      153.679        0.157        0.048       46.576       11.415        0.060      333.248        2.438      863.250
12/20/2021  17:12:00       35.068        5.024        1.459       25.858       15.618       16.347      668.660      243.916      267.233        0.122        0.059       35.426       13.465        0.144      333.231        2.412      863.251
12/20/2021  17:13:00       39.224       -2.195       -1.914       29.150       18.318       13.241      849.747      335.551      175.325        0.145        0.068       39.285       12.355        0.099      333.233        2.413      863.250
12/20/2021  17:14:00       27.021        3.837       -3.567       23.567       21.927       17.886      555.390      480.775      319.914        0.106        0.068       27.292       13.409        0.241      333.222        2.397      863.250
12/20/2021  17:15:00       58.693        2.123       -1.403       49.627       18.193       17.838     2462.806      331.002      318.200        0.328        0.156       58.732       21.429        0.133      333.204        2.364      863.239
12/20/2021  17:16:00       58.719        0.025       -7.981       28.870       23.365       15.660      833.504      545.924      245.237        0.257        0.081       58.719       11.388        0.038      333.195        2.351      863.245
12/20/2021  17:17:00       44.004       -6.392        9.447       26.033       27.401       24.633      677.699      750.837      606.790        0.205        0.102       44.466       13.970        0.099      333.179        2.324      863.256
12/20/2021  17:18:00       75.065       35.326      -12.439       38.171       38.777       26.489     1457.028     1503.659      701.653        0.535        0.183       82.962        4.996        0.004      333.201        2.360      863.267
12/20/2021  17:19:00       26.128       -4.809      -17.894       43.931       44.658       29.425     1929.977     1994.344      865.820        0.291        0.240       26.567       19.436        0.535      333.237        2.420      863.289
12/20/2021  17:20:00       55.903      -10.639      -19.004       30.171       34.091       19.467      910.276     1162.209      378.956        0.303        0.123       56.906       10.124        0.032      333.216        2.387      863.310
12/20/2021  17:21:00       63.029      -11.167       -7.225       23.039       22.385       17.593      530.807      501.075      309.502        0.275        0.067       64.010        8.658        0.018      333.160        2.292      863.321
12/20/2021  17:22:00       47.113      -11.729        2.797       30.906       22.239       17.843      955.182      494.552      318.373        0.207        0.088       48.551       16.942        0.122      333.158        2.291      863.323
12/20/2021  17:23:00       20.422        4.520       -2.109       18.687       18.431       14.076      349.193      339.716      198.138        0.066        0.044       20.916        3.780        0.033      333.116        2.222      863.332
12/20/2021  17:24:00       36.288      -12.988       -3.508       23.572       16.333        9.452      555.636      266.775       89.344        0.120        0.046       38.542        8.437        0.048      333.125        2.238      863.353
12/20/2021  17:25:00       64.228      -26.336       -7.981       17.049       14.296       11.751      290.672      204.379      138.088        0.276        0.032       69.418        7.970        0.013      333.126        2.237      863.375
12/20/2021  17:26:00       59.579      -13.273      -10.098       37.147       17.026       15.728     1379.878      289.883      247.367        0.287        0.096       61.039       15.810        0.067      333.164        2.300      863.387
12/20/2021  17:27:00       23.117      -26.801       -8.540       28.809       26.277       25.619      829.984      690.476      656.312        0.175        0.109       35.393       17.140        0.235      333.148        2.274      863.400
12/20/2021  17:28:00       41.711       -9.776       -6.957       44.445       18.094       23.367     1975.397      327.407      546.022        0.237        0.142       42.841       24.465        0.326      333.156        2.286      863.406
12/20/2021  17:29:00       -2.396       -5.798       -8.510       31.419       26.876       24.120      987.133      722.305      581.751        0.120        0.115        6.274       18.305        8.513      333.178        2.325      863.416
12/20/2021  17:30:00       13.378      -26.354      -12.087       21.789       23.050       19.192      474.778      531.308      368.351        0.120        0.069       29.555        8.540        0.083      333.325        2.566      863.410
12/20/2021  17:31:00        9.361      -31.977      -10.193       16.938       19.933       16.658      286.893      397.308      277.501        0.109        0.048       33.319        8.924        0.072      333.335        2.585      863.415
12/20/2021  17:32:00       -2.857       -3.047       -3.051        9.102       18.225       10.253       82.848      332.149      105.115        0.027        0.026        4.177        7.039        2.840      333.229        2.408      863.431
12/20/2021  17:33:00       -1.831        0.204        3.323       10.122       13.826        9.741      102.460      191.162       94.886        0.020        0.019        1.842        3.946        4.587      333.339        2.591      863.434
12/20/2021  17:34:00       -7.747       -0.747       -0.861        9.184       14.105       10.635       84.342      198.942      113.102        0.023        0.020        7.783        8.486        1.189      333.179        2.324      863.447
12/20/2021  17:35:00        3.351        1.738       -4.178        9.883        6.640        6.683       97.666       44.088       44.665        0.011        0.009        3.775        3.402        0.812      333.034        2.087      863.472
12/20/2021  17:36:00      -21.686        3.947       -8.467       14.923        7.775        7.993      222.701       60.445       63.882        0.045        0.017       22.042        4.077        0.034      332.919        1.897      863.501
12/20/2021  17:37:00       -0.726       -7.064       -2.158        8.242        6.210        9.367       67.936       38.563       87.749        0.012        0.010        7.101        4.730        0.444      332.912        1.886      863.528
12/20/2021  17:38:00       -8.301        5.281       -0.336       14.039        9.219        8.460      197.107       84.995       71.572        0.023        0.018        9.838        8.641        0.771      332.850        1.784      863.540
12/20/2021  17:39:00      -34.347        8.642       -7.291        9.396       12.507        8.227       88.290      156.424       67.678        0.081        0.016       35.418        2.072        0.003      332.903        1.871      863.564
12/20/2021  17:40:00      -45.994       19.927       -9.238       13.313       10.278        7.475      177.226      105.646       55.876        0.147        0.017       50.125        4.262        0.007      332.839        1.764      863.588
12/20/2021  17:41:00      -51.087       33.896       -9.965       12.770       10.862        7.902      163.083      117.973       62.448        0.210        0.017       61.310        1.259        0.000      332.797        1.694      863.600
12/20/2021  17:42:00      -40.090       16.001      -14.259       12.278        6.999        9.924      150.755       48.983       98.490        0.118        0.015       43.165        4.359        0.010      332.864        1.804      863.609
12/20/2021  17:43:00      -56.774       12.413      -17.453       14.592       12.166       10.191      212.937      148.012      103.865        0.207        0.023       58.115        2.225        0.001      332.873        1.818      863.626
12/20/2021  17:44:00      -50.632       23.557       -7.831       17.540       17.684        8.589      307.647      312.718       73.776        0.194        0.035       55.844        8.720        0.024      332.795        1.690      863.635
12/20/2021  17:45:00      -23.484        2.307       -3.559       22.073       24.317       13.321      487.200      591.320      177.436        0.091        0.063       23.597       11.615        0.242      332.816        1.725      863.651
12/20/2021  17:46:00      -25.213        6.742       -8.739       17.969       17.136       10.293      322.872      293.650      105.942        0.074        0.036       26.099        8.445        0.105      332.899        1.863      863.672
12/20/2021  17:47:00       -2.225       25.908       -4.783       10.616       14.778        5.988      112.710      218.385       35.862        0.053        0.018       26.004        3.323        0.016      332.851        1.784      863.678
12/20/2021  17:48:00       19.734       17.916       -5.111       17.091       17.651        9.796      292.111      311.575       95.959        0.072        0.035       26.654        9.946        0.139      332.900        1.864      863.682
12/20/2021  17:49:00       27.806       24.150       -3.973       16.900       12.764       11.893      285.624      162.912      141.443        0.098        0.029       36.829       10.284        0.078      332.878        1.828      863.686
12/20/2021  17:50:00       33.521       25.086       -5.587       19.019       10.974       10.043      361.713      120.433      100.871        0.118        0.029       41.868        9.207        0.048      332.757        1.627      863.679
12/20/2021  17:51:00       16.906       45.105       -7.972       12.666       18.282       12.808      160.438      334.224      164.052        0.152        0.033       48.169        7.428        0.024      332.850        1.783      863.671
12/20/2021  17:52:00       11.161       59.352      -13.994       23.185       18.988       16.829      537.533      360.545      283.228        0.251        0.059       60.393       12.859        0.045      332.903        1.869      863.678
12/20/2021  17:53:00       -2.038       45.206       -7.758       19.616       17.896       13.266      384.789      320.284      175.981        0.149        0.044       45.252       11.502        0.065      332.921        1.899      863.682
12/20/2021  17:54:00      -14.205       23.885       -9.261       31.098       15.026       14.485      967.072      225.768      209.804        0.113        0.070       27.790       13.085        0.222      332.765        1.642      863.695
12/20/2021  17:55:00      -39.236        9.296      -11.583       11.036       13.902        8.204      121.787      193.278       67.306        0.107        0.019       40.322        4.196        0.011      332.646        1.445      863.705
12/20/2021  17:56:00      -22.842        2.881      -10.418       21.144       11.881       13.011      447.077      141.154      169.293        0.070        0.038       23.023        7.347        0.102      332.630        1.418      863.714
12/20/2021  17:57:00      -43.062       10.825       -2.306       29.397       14.643       14.965      864.179      214.411      223.954        0.164        0.065       44.402       16.195        0.133      332.676        1.495      863.729
12/20/2021  17:58:00      -42.634       -6.808       -5.260       27.876       26.229       12.461      777.064      687.950      155.264        0.176        0.081       43.174       11.282        0.068      332.642        1.438      863.747
12/20/2021  17:59:00      -10.550       -9.771       -6.888       17.713       19.930       12.801      313.760      397.200      163.868        0.056        0.044       14.380       11.876        0.682      332.672        1.487      863.757
12/20/2021  18:00:00      -34.928        4.418       -3.373       34.274       21.948       14.531     1174.689      481.714      211.151        0.156        0.093       35.206       12.888        0.134      332.661        1.470      863.769
12/20/2021  18:01:00      -32.937       10.571      -10.635       13.974        8.661       10.924      195.277       75.005      119.343        0.085        0.019       34.592        7.721        0.050      332.663        1.473      863.781
12/20/2021  18:02:00      -25.911       25.887      -10.676        8.997       13.518        6.408       80.943      182.742       41.065        0.088        0.015       36.627        8.113        0.049      332.707        1.544      863.777
12/20/2021  18:03:00      -28.643       28.707       -7.706        6.149        7.042        5.933       37.810       49.596       35.202        0.091        0.006       40.553        2.583        0.004      332.709        1.550      863.789
12/20/2021  18:04:00      -34.361       12.333       -8.225       10.537       10.363        8.985      111.037      107.391       80.726        0.085        0.015       36.507        6.566        0.032      332.740        1.600      863.807
12/20/2021  18:05:00      -27.016        1.635       -6.761       14.857       14.951       11.023      220.716      223.535      121.498        0.067        0.028       27.065        8.972        0.110      332.799        1.698      863.811
12/20/2021  18:06:00      -69.104       14.901      -12.928       23.849       17.140       15.088      568.763      293.783      227.648        0.313        0.055       70.692       12.439        0.031      332.744        1.607      863.812
12/20/2021  18:07:00      -11.664        5.055       -9.301       23.775       21.353       17.211      565.240      455.962      296.234        0.078        0.066       12.712       13.071        1.057      332.603        1.374      863.814
12/20/2021  18:08:00      -22.356      -12.336       -8.279       26.288       21.067       15.989      691.043      443.834      255.653        0.106        0.070       25.534       13.754        0.290      332.565        1.312      863.818
12/20/2021  18:09:00      -29.545        5.184       -7.867       27.164       26.029       10.821      737.893      677.497      117.094        0.125        0.077       29.996        5.080        0.029      332.642        1.437      863.811
12/20/2021  18:10:00      -67.772       26.257       -9.662       21.919       16.491       11.873      480.445      271.961      140.966        0.313        0.045       72.680       10.357        0.020      332.620        1.403      863.792
12/20/2021  18:11:00      -30.580        4.859       -6.435       20.909       18.211       11.556      437.184      331.640      133.536        0.095        0.045       30.963       11.102        0.129      332.671        1.486      863.759
12/20/2021  18:12:00      -26.048       19.993       -4.140       14.720       11.997        8.842      216.673      143.932       78.186        0.077        0.022       32.836        4.099        0.016      332.802        1.703      863.728
12/20/2021  18:13:00        3.101       10.591       -2.933       12.158        6.871        5.362      147.829       47.204       28.755        0.018        0.011       11.035        3.462        0.098      332.854        1.789      863.713
12/20/2021  18:14:00       15.078       14.088       -3.983        7.429        5.656        4.684       55.188       31.985       21.939        0.028        0.005       20.635        3.134        0.023      332.890        1.848      863.712
12/20/2021  18:15:00       10.140       12.267       -4.710       10.807        5.498        7.183      116.801       30.230       51.596        0.024        0.010       15.915        7.580        0.227      332.860        1.799      863.712
12/20/2021  18:16:00      -32.167       19.263       -9.192       24.399       16.350        7.318      595.312      267.336       53.555        0.120        0.046       37.494        3.806        0.010      332.739        1.598      863.722
12/20/2021  18:17:00      -47.132        4.185      -12.710       31.225       17.259       13.399      974.979      297.869      179.530        0.193        0.073       47.317        8.311        0.031      332.598        1.365      863.737
12/20/2021  18:18:00      -83.343       10.162      -12.852       20.815       15.585       13.618      433.259      242.882      185.461        0.404        0.043       83.960        6.511        0.006      332.625        1.411      863.749
12/20/2021  18:19:00      -76.858       21.236      -12.788       21.667       24.275       13.726      469.455      589.267      188.395        0.388        0.062       79.738       10.188        0.016      332.622        1.406      863.765
12/20/2021  18:20:00      -86.242       32.601       -7.217       17.602       15.225       12.980      309.819      231.815      168.473        0.463        0.036       92.198       10.380        0.013      332.555        1.296      863.801
12/20/2021  18:21:00      -52.063       18.653       -3.407       22.700       16.461       10.817      515.284      270.964      117.009        0.199        0.045       55.303        9.474        0.029      332.583        1.340      863.812
12/20/2021  18:22:00      -18.387       13.711       -2.757       15.810       17.007       10.191      249.945      289.250      103.847        0.059        0.032       22.936        8.417        0.135      332.503        1.208      863.751
12/20/2021  18:23:00      -16.947       -2.061       -2.320       14.744       16.176        7.532      217.372      261.650       56.724        0.042        0.027       17.072        5.697        0.111      332.661        1.468      863.760
12/20/2021  18:24:00       -3.422        0.658      -10.014       10.315       14.475        8.324      106.390      209.523       69.288        0.025        0.019        3.485        3.644        1.093      332.643        1.440      863.795
12/20/2021  18:25:00       -0.817        8.030       -9.281        6.757       10.681       13.231       45.659      114.085      175.068        0.024        0.017        8.071        7.115        0.777      332.597        1.363      863.816
12/20/2021  18:26:00       -7.521       17.725      -17.272        7.567        8.959        6.825       57.263       80.256       46.580        0.043        0.009       19.254        5.186        0.073      332.608        1.384      863.811
12/20/2021  18:27:00      -21.947       27.942       -5.089        8.195        9.637        7.158       67.157       92.868       51.234        0.075        0.011       35.530        6.660        0.035      332.633        1.425      863.810
12/20/2021  18:28:00      -29.270       29.096      -15.166       10.254        9.733        9.347      105.136       94.722       87.372        0.111        0.014       41.271        6.734        0.027      332.620        1.402      863.798
12/20/2021  18:29:00      -42.914       22.910       -5.130       14.692       12.259       14.226      215.842      150.293      202.386        0.148        0.028       48.646       10.126        0.043      332.669        1.482      863.796
12/20/2021  18:30:00      -25.335       23.081       -7.167       11.044        9.905        9.897      121.968       98.100       97.953        0.077        0.016       34.273        8.061        0.055      332.626        1.410      863.805
12/20/2021  18:31:00      -12.594       31.643       -5.970       11.071       12.201        7.853      122.565      148.866       61.666        0.076        0.017       34.057        7.082        0.043      332.630        1.419      863.797
12/20/2021  18:32:00        0.829       40.505       -6.317       11.362        8.173        6.730      129.089       66.797       45.291        0.096        0.012       40.514        6.694        0.027      332.662        1.471      863.798
12/20/2021  18:33:00        0.705       31.908       -5.950        7.386       11.436        8.271       54.555      130.777       68.402        0.065        0.013       31.916        7.687        0.058      332.699        1.531      863.789
12/20/2021  18:34:00      -14.013       23.821       -5.931       10.787        7.451        5.789      116.354       55.523       33.510        0.050        0.010       27.637        2.867        0.011      332.684        1.505      863.785
12/20/2021  18:35:00      -35.050       19.561      -14.570        8.369       13.118       11.186       70.040      172.077      125.116        0.110        0.018       40.139        5.659        0.020      332.586        1.346      863.801
12/20/2021  18:36:00      -57.389        5.225      -14.860       26.494       28.338       16.893      701.932      803.031      285.375        0.267        0.090       57.626       16.198        0.079      332.453        1.127      863.824
12/20/2021  18:37:00      -11.401        7.603       -5.139       34.079       25.774       25.787     1161.364      664.275      664.944        0.135        0.125       13.704       23.905        3.043      332.364        0.977      863.852
12/20/2021  18:38:00      -77.846       36.343      -15.653       29.554       22.455       18.056      873.450      504.238      326.021        0.466        0.085       85.912        6.603        0.006      332.327        0.918      863.870
12/20/2021  18:39:00      -94.113       25.460      -31.794       19.482       19.323       15.592      379.533      373.373      243.117        0.576        0.050       97.496        7.912        0.007      332.269        0.820      863.874
12/20/2021  18:40:00     -107.700       28.843       -9.034       27.837       22.501       19.248      774.900      506.287      370.489        0.708        0.083      111.495       15.180        0.019      332.288        0.853      863.895
12/20/2021  18:41:00      -90.652       31.683       -4.196       41.563       32.209       23.185     1727.472     1037.403      537.533        0.627        0.165       96.030       23.692        0.061      332.278        0.836      863.912
12/20/2021  18:42:00      -91.628       27.068       -8.169       30.742       23.547       20.031      945.072      554.483      401.224        0.555        0.095       95.543       17.499        0.034      332.275        0.830      863.930
12/20/2021  18:43:00      -91.007       23.071       -7.226       27.092       23.068       17.901      734.000      532.143      320.458        0.523        0.079       93.886       15.200        0.026      332.309        0.885      863.929
12/20/2021  18:44:00      -91.605       26.049      -14.181       26.754       27.347       13.494      715.759      747.864      182.101        0.546        0.082       95.237        9.045        0.009      332.335        0.929      863.933
12/20/2021  18:45:00      -50.438        5.887       -7.534       30.305       19.552       16.275      918.392      382.288      264.862        0.210        0.078       50.780       13.866        0.075      332.401        1.039      863.972
12/20/2021  18:46:00      -24.500      -17.526       -8.204       32.741       21.143       13.836     1071.966      447.008      191.421        0.134        0.086       30.123       13.268        0.194      332.405        1.045      864.017
12/20/2021  18:47:00      -38.689      -15.233       -3.079       34.334       20.990       12.714     1178.817      440.575      161.645        0.176        0.089       41.580       14.167        0.116      332.443        1.110      864.050
12/20/2021  18:48:00       -3.040        0.423        6.377       28.315       16.903       13.924      801.765      285.715      193.873        0.067        0.064        3.069       13.137       18.321      332.505        1.211      864.070
12/20/2021  18:49:00        8.067       -5.102        2.356       18.130       19.365       17.447      328.712      375.021      304.396        0.055        0.050        9.545       13.099        1.883      332.506        1.213      864.093
12/20/2021  18:50:00      -21.455        8.034       -6.726       40.278       18.241       11.922     1622.280      332.720      142.126        0.133        0.105       22.909       10.188        0.198      332.459        1.136      864.083
12/20/2021  18:51:00      -37.918        0.046        0.078       20.765       18.360       12.417      431.188      337.107      154.178        0.118        0.046       37.918        9.531        0.063      332.442        1.107      864.066
12/20/2021  18:52:00      -10.725       -6.784        2.918       14.248       13.872       14.325      203.016      192.422      205.206        0.038        0.030       12.691        8.906        0.492      332.440        1.104      864.068
12/20/2021  18:53:00       -6.154      -14.890        5.226       14.186       10.368       15.020      201.242      107.500      225.605        0.041        0.027       16.111       10.085        0.392      332.455        1.130      864.092
12/20/2021  18:54:00      -11.959      -16.963      -11.960       15.894       16.816       11.181      252.604      282.769      125.009        0.062        0.033       20.755        8.994        0.188      332.376        0.997      864.122
12/20/2021  18:55:00       -8.175       21.558       -3.245       17.684       15.378       11.310      312.709      236.489      127.926        0.061        0.034       23.056        4.189        0.033      332.340        0.937      864.140
12/20/2021  18:56:00      -39.424       19.972       -8.321       11.474       13.889        8.810      131.644      192.893       77.610        0.121        0.020       44.194        5.773        0.017      332.342        0.942      864.156
12/20/2021  18:57:00      -62.757       19.988       -6.101       16.764       16.645       12.118      281.046      277.043      146.857        0.254        0.035       65.864        9.983        0.023      332.304        0.879      864.173
12/20/2021  18:58:00      -38.080       11.078       -7.415       30.065       15.044       13.104      903.926      226.307      171.704        0.146        0.065       39.658       14.098        0.126      332.330        0.921      864.191
12/20/2021  18:59:00      -71.837       10.790      -16.012       18.759       24.089       15.535      351.891      580.285      241.348        0.335        0.059       72.643       12.760        0.031      332.396        1.031      864.203
12/20/2021  19:00:00       -9.074      -15.692      -12.034       19.655       15.074        9.040      386.310      227.225       81.718        0.058        0.035       18.127        3.009        0.028      332.425        1.079      864.206
12/20/2021  19:01:00      -25.990       -5.547       -8.729       26.133       22.253       21.194      682.935      495.206      449.173        0.120        0.081       26.575       19.448        0.536      332.423        1.075      864.206
12/20/2021  19:02:00        1.421       30.299       -1.695       19.339       12.540       10.588      374.014      157.255      112.103        0.078        0.032       30.333        7.243        0.057      332.295        0.864      864.180
12/20/2021  19:03:00       -1.983       17.969       -5.664       11.396       11.848        8.477      129.866      140.376       71.864        0.035        0.017       18.079        6.691        0.137      332.325        0.914      864.175
12/20/2021  19:04:00      -16.131       15.350       -7.470       21.253       10.262        8.558      451.697      105.318       73.235        0.059        0.032       22.268        7.852        0.124      332.395        1.028      864.186
12/20/2021  19:05:00      -34.239       23.447      -12.960        8.243        7.555        5.981       67.952       57.077       35.770        0.103        0.008       41.497        3.253        0.006      332.348        0.952      864.171
12/20/2021  19:06:00      -15.924       10.874       -2.147        9.293        9.625       11.441       86.367       92.643      130.904        0.034        0.015       19.283        5.587        0.084      332.386        1.014      864.154
12/20/2021  19:07:00        4.241       -4.566        3.272        7.038        6.178        5.152       49.535       38.173       26.544        0.008        0.006        6.232        3.031        0.237      332.394        1.028      864.159
12/20/2021  19:08:00      -11.515       -8.181       -9.007       13.755       13.725       12.376      189.205      188.386      153.177        0.041        0.027       14.126        8.247        0.341      332.479        1.168      864.167
12/20/2021  19:09:00      -14.164       -4.627       -4.992       12.600       14.596       14.698      158.753      213.034      216.042        0.042        0.029       14.901        6.553        0.193      332.380        1.003      864.198
12/20/2021  19:10:00       -1.008       -2.076       -2.756       18.659       15.648       14.159      348.161      244.865      200.486        0.040        0.040        2.308       11.969       26.894      332.369        0.987      864.223
12/20/2021  19:11:00      -60.001       21.986       -6.694       22.657       19.226       12.515      513.359      369.636      156.614        0.258        0.052       63.903        8.254        0.017      332.360        0.972      864.212
12/20/2021  19:12:00      -72.622       37.660      -10.741       10.410       11.387        9.361      108.378      129.667       87.624        0.357        0.016       81.806        4.057        0.002      332.348        0.953      864.179
12/20/2021  19:13:00      -66.228       12.970      -17.190       17.138       17.027       11.227      293.713      289.905      126.036        0.278        0.035       67.486        7.312        0.012      332.414        1.061      864.194
12/20/2021  19:14:00      -22.680        4.845       -7.386       20.274       14.563       17.362      411.021      212.095      301.453        0.076        0.046       23.192        9.274        0.160      332.421        1.071      864.211
12/20/2021  19:15:00      -43.101       17.554      -14.089       11.462       12.530        8.760      131.376      156.992       76.738        0.136        0.018       46.539        6.694        0.021      332.329        0.922      864.223
12/20/2021  19:16:00      -39.378        6.468       -9.240       15.574       15.583       13.680      242.538      242.826      187.136        0.118        0.034       39.906        6.029        0.023      332.349        0.953      864.252
12/20/2021  19:17:00      -12.200        0.893       -6.012       16.855       11.945       12.627      284.078      142.678      159.440        0.039        0.029       12.232        4.195        0.118      332.326        0.914      864.294
12/20/2021  19:18:00      -42.357       26.682      -11.107       32.009       19.794       13.949     1024.591      391.817      194.561        0.212        0.081       50.060       13.374        0.071      332.249        0.788      864.306
12/20/2021  19:19:00      -55.671       17.214       -7.979       16.252       16.480       13.570      264.122      271.584      184.132        0.209        0.036       58.272        9.196        0.025      332.189        0.688      864.294
12/20/2021  19:20:00      -39.542       18.307      -13.695        8.299        7.932        6.917       68.878       62.912       47.842        0.113        0.009       43.574        0.621        0.000      332.164        0.649      864.302
12/20/2021  19:21:00      -11.001       15.834      -15.948       15.224        6.126        5.026      231.758       37.528       25.264        0.046        0.015       19.280        5.046        0.069      332.244        0.780      864.311
12/20/2021  19:22:00       18.733        0.547       -5.821        9.168       10.296        7.742       84.053      106.007       59.944        0.032        0.013       18.741        4.036        0.046      332.435        1.095      864.310
12/20/2021  19:23:00       14.593       -2.334       -5.332       15.495       10.818       11.965      240.093      117.038      143.162        0.037        0.025       14.778       11.812        0.639      332.365        0.980      864.314
12/20/2021  19:24:00        2.168       -5.731       -8.263       12.750        9.003       11.233      162.554       81.051      126.177        0.024        0.018        6.127        6.165        1.012      332.377        0.998      864.337
12/20/2021  19:25:00        6.680       -8.358       -5.402        4.730        7.058        6.029       22.372       49.814       36.345        0.013        0.005       10.699        3.973        0.138      332.295        0.866      864.343
12/20/2021  19:26:00       16.642        4.149       -6.350       10.163        6.207        5.616      103.281       38.522       31.539        0.025        0.009       17.151        2.542        0.022      332.330        0.921      864.340
12/20/2021  19:27:00       22.151        3.986       -7.856       11.791       10.344        6.567      139.029      106.993       43.124        0.043        0.014       22.507        4.570        0.041      332.369        0.986      864.335
12/20/2021  19:28:00        2.406       10.825       -4.546       10.845        9.059       11.460      117.616       82.059      131.323        0.024        0.017       11.089        8.525        0.591      332.343        0.943      864.333
12/20/2021  19:29:00       10.612       22.187       -8.091       11.829       17.229        7.373      139.920      296.846       54.364        0.058        0.025       24.594        3.801        0.024      332.452        1.122      864.355
12/20/2021  19:30:00       -9.850       18.091       -7.986       12.877        8.516        8.045      165.823       72.522       64.720        0.040        0.015       20.599        3.399        0.027      332.324        0.911      864.390
12/20/2021  19:31:00      -37.447       26.376      -11.419       14.041        9.463        9.945      197.147       89.557       98.911        0.131        0.019       45.804        8.132        0.032      332.134        0.599      864.420
12/20/2021  19:32:00      -42.968       19.715        1.228       19.355       12.411       11.104      374.612      154.021      123.290        0.144        0.033       47.275        5.989        0.016      332.232        0.760      864.439
12/20/2021  19:33:00       -6.800       21.706        0.773       15.181       13.097       13.938      230.462      171.526      194.280        0.056        0.030       22.746        9.996        0.193      332.309        0.888      864.447
12/20/2021  19:34:00        4.051       16.963       -5.143       11.025       11.155        8.545      121.558      124.444       73.017        0.032        0.016       17.440        3.198        0.034      332.416        1.064      864.442
12/20/2021  19:35:00       33.812       21.363       -6.534       11.623        8.784        7.259      135.104       77.166       52.698        0.095        0.013       39.995        5.243        0.017      332.422        1.074      864.434
12/20/2021  19:36:00       45.139       15.450       -5.708       12.575        9.280        6.919      158.135       86.115       47.873        0.130        0.015       47.710        6.296        0.017      332.442        1.105      864.428
12/20/2021  19:37:00        6.118       -1.641       -6.625       12.338        3.980        6.996      152.235       15.843       48.947        0.015        0.011        6.334        5.694        0.808      332.378        1.000      864.454
12/20/2021  19:38:00       12.407        0.374       -6.999        6.027        3.232        7.032       36.322       10.444       49.455        0.015        0.005       12.412        1.761        0.020      332.471        1.156      864.486
12/20/2021  19:39:00      -39.937       23.574      -12.692       21.663       10.626       10.840      469.299      112.916      117.504        0.151        0.035       46.375       11.911        0.066      332.250        0.790      864.517
12/20/2021  19:40:00      -31.538       -4.092       -8.260       14.902       17.332       14.080      222.076      300.382      198.233        0.090        0.036       31.802       10.015        0.099      332.148        0.620      864.542
12/20/2021  19:41:00       -2.683        2.025        1.257       11.309       11.981        7.704      127.898      143.544       59.350        0.017        0.017        3.361        6.384        3.608      332.209        0.723      864.563
12/20/2021  19:42:00      -53.677       23.414       -7.332       13.633       15.761        8.028      185.860      248.405       64.443        0.199        0.025       58.561        7.226        0.015      332.177        0.669      864.579
12/20/2021  19:43:00      -59.522       19.198       -3.404       19.057       15.966       13.153      363.158      254.917      173.011        0.236        0.040       62.542       10.370        0.027      332.189        0.688      864.606
12/20/2021  19:44:00      -67.519       23.654       -7.296       17.107       13.361        9.297      292.634      178.508       86.439        0.286        0.028       71.543        7.037        0.010      332.203        0.713      864.617
12/20/2021  19:45:00      -47.710       19.107       -8.131       16.937       15.611       11.936      286.859      243.702      142.466        0.169        0.034       51.394       10.080        0.038      332.218        0.737      864.598
12/20/2021  19:46:00      -22.457       19.951       -9.389       19.473        7.468        7.325      379.211       55.766       53.649        0.074        0.024       30.039        6.088        0.041      332.146        0.619      864.564
12/20/2021  19:47:00      -15.328       20.485      -11.909       12.838       10.134        9.565      164.823      102.702       91.488        0.058        0.018       25.585        7.538        0.087      332.236        0.767      864.547
12/20/2021  19:48:00      -24.468        9.764      -13.011       19.205       12.453       11.132      368.821      155.073      123.911        0.076        0.032       26.344        6.303        0.057      332.158        0.639      864.558
12/20/2021  19:49:00      -29.642        1.906      -11.672       37.811       18.582       13.560     1429.678      345.287      183.878        0.149        0.098       29.703       12.989        0.191      332.108        0.555      864.565
12/20/2021  19:50:00      -41.783       12.867       -3.745       47.079       35.814       23.667     2216.460     1282.673      560.149        0.299        0.203       43.719       23.449        0.288      332.106        0.551      864.583
12/20/2021  19:51:00      -67.591        4.816      -18.911       47.994       30.749       16.142     2303.430      945.508      260.549        0.423        0.175       67.762       11.831        0.030      332.124        0.582      864.614
12/20/2021  19:52:00      -61.141       20.816      -10.900       36.315       25.298       17.158     1318.744      639.971      294.396        0.327        0.113       64.587       16.978        0.069      332.116        0.567      864.632
12/20/2021  19:53:00      -44.395       19.462       -4.504       26.820       23.233       15.378      719.294      539.792      236.469        0.193        0.075       48.473       14.246        0.086      332.149        0.623      864.636
12/20/2021  19:54:00      -76.184       15.211      -18.605       25.662       15.952       17.080      658.532      254.458      291.717        0.379        0.060       77.688       12.489        0.026      332.293        0.862      864.646
12/20/2021  19:55:00      -78.279       16.296      -14.920       23.300       18.225       18.444      542.901      332.150      340.169        0.392        0.061       79.957       10.142        0.016      332.362        0.976      864.656
12/20/2021  19:56:00      -21.587        4.034      -16.766       39.350       22.026       14.862     1548.391      485.129      220.874        0.151        0.113       21.961       14.960        0.464      332.363        0.977      864.676
12/20/2021  19:57:00      -51.927        9.603      -19.784       24.803       16.504       17.785      615.214      272.395      316.320        0.219        0.060       52.807       13.028        0.061      332.293        0.860      864.679
12/20/2021  19:58:00      -73.592       18.541      -15.928       14.444       17.650       15.094      208.640      311.520      227.829        0.338        0.037       75.892        6.609        0.008      332.271        0.825      864.672
12/20/2021  19:59:00      -49.049       16.585       -6.617       18.596       13.258       11.236      345.815      175.787      126.239        0.169        0.032       51.777        9.469        0.033      332.321        0.906      864.675
12/20/2021  20:00:00      -54.877       20.428       -9.595       23.835       13.319       11.106      568.126      177.389      123.350        0.219        0.043       58.556       11.747        0.040      332.297        0.869      864.670
12/20/2021  20:01:00      -45.097       18.326       -7.619       17.686       12.070       15.244      312.789      145.686      232.369        0.156        0.035       48.678       10.044        0.043      332.373        0.992      864.688
12/20/2021  20:02:00      -20.658        1.110      -13.462       21.835       22.836       11.705      476.747      521.484      137.003        0.087        0.057       20.688        7.321        0.125      332.345        0.946      864.704
12/20/2021  20:03:00      -75.791       22.761      -15.058       13.550       21.078       12.542      183.597      444.298      157.295        0.364        0.039       79.135        7.200        0.008      332.341        0.940      864.707
12/20/2021  20:04:00      -68.341       16.519      -13.061       18.840       17.992       13.203      354.936      323.730      174.316        0.298        0.043       70.309        7.247        0.011      332.385        1.011      864.711
12/20/2021  20:05:00      -77.243       32.773      -11.668       19.016       15.506       10.580      361.624      240.445      111.927        0.395        0.036       83.908        8.919        0.011      332.364        0.980      864.714
12/20/2021  20:06:00      -57.840       24.612      -10.200       15.903       19.289       16.559      252.900      372.071      274.213        0.248        0.045       62.859        9.147        0.021      332.358        0.969      864.706
12/20/2021  20:07:00      -41.740        4.221       -4.437       22.312       17.712       17.557      497.814      313.705      308.249        0.145        0.056       41.953        6.629        0.025      332.344        0.947      864.717
12/20/2021  20:08:00      -17.662       -3.160       -0.590       21.145       14.232       13.173      447.105      202.544      173.534        0.057        0.041       17.942       11.611        0.419      332.423        1.075      864.721
12/20/2021  20:09:00      -18.992        5.013        5.357       35.924       20.364       16.084     1290.505      414.699      258.688        0.119        0.098       19.643       20.995        1.142      332.436        1.097      864.735
12/20/2021  20:10:00      -33.870        2.707       -1.888       42.587       20.126       15.075     1813.670      405.039      227.263        0.180        0.122       33.978       17.122        0.254      332.450        1.120      864.754
12/20/2021  20:11:00      -46.320       -1.105       -8.100       52.084       30.557       19.871     2712.733      933.726      394.859        0.313        0.202       46.334       16.280        0.123      332.338        0.935      864.763
12/20/2021  20:12:00      -98.045       -6.413      -14.993       29.197       16.681       15.625      852.467      278.250      244.128        0.563        0.069       98.255        9.807        0.010      332.318        0.901      864.769
12/20/2021  20:13:00      -62.842      -10.047      -14.849       27.735       13.615       16.003      769.250      185.371      256.110        0.274        0.061       63.640       11.455        0.032      332.339        0.936      864.772
12/20/2021  20:14:00      -14.797       -9.943      -12.116       19.297       14.179       12.068      372.385      201.050      145.648        0.059        0.036       17.827        8.765        0.242      332.388        1.018      864.763
12/20/2021  20:15:00       -7.179      -10.229       -8.615       12.132       22.991       11.622      147.179      528.580      135.061        0.052        0.041       12.497        5.224        0.175      332.375        0.997      864.750
12/20/2021  20:16:00      -13.018      -12.687       -8.090       22.049       18.222       13.294      486.164      332.041      176.726        0.070        0.050       18.178        9.638        0.281      332.425        1.078      864.734
12/20/2021  20:17:00        4.951       -3.811       -1.334        9.484        8.509       11.359       89.952       72.406      129.026        0.017        0.015        6.249        3.737        0.358      332.394        1.027      864.732
12/20/2021  20:18:00      -19.413        7.273       -2.806       23.691       17.521       13.805      561.243      306.987      190.572        0.075        0.053       20.731        7.361        0.126      332.341        0.939      864.744
12/20/2021  20:19:00      -55.726       12.240       -8.329       21.063       18.475       12.071      443.648      341.314      145.716        0.213        0.047       57.054        6.554        0.013      332.335        0.929      864.760
12/20/2021  20:20:00      -50.597       10.907       -2.148       31.958       19.830       14.370     1021.291      393.225      206.500        0.215        0.081       51.759       12.943        0.063      332.268        0.819      864.774
12/20/2021  20:21:00      -63.810       16.686       -5.519       30.062       24.283       14.160      903.724      589.659      200.493        0.304        0.085       65.956       10.497        0.025      332.295        0.864      864.784
12/20/2021  20:22:00      -48.413        8.326      -11.097       28.735       21.121       14.368      825.713      446.096      206.436        0.201        0.074       49.124        8.485        0.030      332.318        0.901      864.809
12/20/2021  20:23:00      -38.274        8.513       -4.124       40.026       20.824       15.143     1602.075      433.629      229.320        0.191        0.113       39.209       16.056        0.168      332.330        0.922      864.842
12/20/2021  20:24:00      -60.924        5.426       -2.849       29.660       19.085       17.154      879.699      364.245      294.248        0.264        0.077       61.165       15.528        0.064      332.301        0.874      864.866
12/20/2021  20:25:00      -40.635        3.278       -4.454       42.650       33.665       23.366     1818.989     1133.359      545.986        0.259        0.175       40.767       13.231        0.105      332.267        0.819      864.878
12/20/2021  20:26:00      -71.265       16.654       -3.527       65.170       40.582       20.950     4247.137     1646.922      438.923        0.585        0.317       73.185       20.337        0.077      332.201        0.710      864.881
12/20/2021  20:27:00     -100.718       33.970      -10.305       42.909       35.607       22.722     1841.224     1267.889      516.272        0.751        0.181      106.293       17.002        0.026      332.192        0.694      864.883
12/20/2021  20:28:00      -98.727        2.061       -4.165       43.451       29.890       21.443     1887.971      893.396      459.785        0.650        0.162       98.748       15.550        0.025      332.163        0.646      864.882
12/20/2021  20:29:00     -166.306        1.373      -23.926       22.570       23.564       15.692      509.423      555.276      246.238        1.477        0.066      166.312        8.510        0.003      332.130        0.591      864.886
12/20/2021  20:30:00      -87.441      -13.166      -12.377       40.997       35.107       23.962     1680.713     1232.499      574.200        0.573        0.174       88.427       19.489        0.049      332.195        0.699      864.898
12/20/2021  20:31:00      -88.405       11.967      -10.617       52.418       28.718       19.200     2747.675      824.735      368.643        0.601        0.197       89.211       23.845        0.071      332.128        0.589      864.918
12/20/2021  20:32:00      -72.044      -11.135        2.776       70.235       35.277       45.331     4932.988     1244.480     2054.940        0.678        0.412       72.900       39.490        0.293      332.117        0.571      864.947
12/20/2021  20:33:00     -129.985      -12.411       -8.915       57.325       41.732       33.421     3286.161     1741.543     1116.971        1.164        0.307      130.576       31.400        0.058      332.090        0.527      865.001
12/20/2021  20:34:00      -84.185        2.989        0.502       57.684       49.355       34.996     3327.490     2435.867     1224.696        0.704        0.349       84.238       31.411        0.139      332.108        0.554      865.029
12/20/2021  20:35:00      -90.391       -6.875       -6.018       52.240       34.061       27.463     2729.050     1160.152      754.232        0.645        0.232       90.652       26.472        0.085      332.096        0.537      865.055
12/20/2021  20:36:00      -93.543      -15.639       -8.944       38.548       26.417       21.628     1485.983      697.844      467.780        0.586        0.133       94.841       22.014        0.054      332.163        0.647      865.072
12/20/2021  20:37:00      -86.082      -26.989       -3.271       30.907       26.847       19.262      955.214      720.740      371.020        0.510        0.102       90.214       17.113        0.036      332.189        0.689      865.081
12/20/2021  20:38:00      -52.285      -20.063       -9.502       52.690       25.973       13.756     2776.277      674.589      189.232        0.343        0.182       56.002        7.274        0.017      332.274        0.829      865.087
12/20/2021  20:39:00      -68.711        1.677      -11.564       25.202       27.723       18.380      635.150      768.557      337.840        0.330        0.087       68.731       13.298        0.037      332.218        0.735      865.091
12/20/2021  20:40:00      -45.681      -21.991      -12.869       22.266       18.291       16.165      495.791      334.563      261.319        0.191        0.055       50.699       10.994        0.047      332.303        0.877      865.088
12/20/2021  20:41:00      -41.644       11.852      -10.325       18.096       17.414       11.570      327.452      303.256      133.871        0.137        0.038       43.298        3.978        0.008      332.279        0.839      865.092
12/20/2021  20:42:00      -54.357       10.403       -9.730       14.894       11.601       12.588      221.833      134.585      158.449        0.184        0.026       55.343       10.172        0.034      332.242        0.778      865.090
12/20/2021  20:43:00      -47.866      -10.859       -9.122       24.299       19.078       19.104      590.452      363.980      364.974        0.191        0.066       49.082       16.323        0.111      332.389        1.021      865.085
12/20/2021  20:44:00      -21.111        5.124       -3.709       26.381       20.694       17.657      695.973      428.252      311.754        0.096        0.072       21.724       12.905        0.353      332.345        0.946      865.091
12/20/2021  20:45:00       -7.391       10.525       11.689       19.114       24.400       12.068      365.356      595.349      145.635        0.070        0.055       12.861        6.461        0.252      332.294        0.863      865.095
12/20/2021  20:46:00        6.035        7.334       -7.451        8.449       11.131        9.591       71.381      123.900       91.978        0.022        0.014        9.498        6.214        0.428      332.259        0.805      865.095
12/20/2021  20:47:00      -22.499       18.560       -8.437       18.747       17.524       12.018      351.464      307.084      144.422        0.086        0.040       29.167        7.568        0.067      332.254        0.796      865.108
12/20/2021  20:48:00      -40.790       21.235       -9.920       17.752       14.261        9.404      315.117      203.377       88.441        0.141        0.030       45.986        5.620        0.015      332.232        0.760      865.118
12/20/2021  20:49:00      -45.332       25.059      -14.443       11.680       12.816        9.179      136.413      164.244       84.258        0.164        0.019       51.797        6.518        0.016      332.243        0.780      865.121
12/20/2021  20:50:00      -40.751       14.784       -8.698       12.597       15.804        8.270      158.690      249.781       68.398        0.122        0.024       43.350        4.078        0.009      332.262        0.810      865.115
12/20/2021  20:51:00      -19.145      -16.297      -18.478       19.574       14.017       11.542      383.159      196.473      133.225        0.084        0.036       25.142        5.923        0.056      332.361        0.972      865.128
12/20/2021  20:52:00        3.166       -1.411       -7.634        8.928        8.524       10.330       79.704       72.665      106.700        0.016        0.013        3.466        3.432        0.980      332.291        0.855      865.162
12/20/2021  20:53:00        4.667      -15.239       -5.922       14.735       11.106       19.194      217.111      123.342      368.404        0.050        0.035       15.937       15.698        0.970      332.262        0.810      865.180
12/20/2021  20:54:00        6.061       -1.990       -1.613        6.826        8.795        6.413       46.590       77.359       41.131        0.010        0.008        6.379        3.992        0.392      332.247        0.785      865.182
12/20/2021  20:55:00       -0.478        7.774        0.841        5.172        8.788        6.709       26.752       77.231       45.012        0.011        0.007        7.789        3.625        0.217      332.141        0.611      865.177
12/20/2021  20:56:00        0.423       10.220       -4.691        6.126        5.827        5.158       37.528       33.951       26.606        0.011        0.005       10.229        3.884        0.144      332.092        0.527      865.178
12/20/2021  20:57:00        3.476       -1.226       -1.577        6.661        9.189        5.906       44.369       84.439       34.876        0.009        0.008        3.686        3.640        0.976      332.049        0.459      865.203
12/20/2021  20:58:00        2.488       20.047       -1.786       13.598       17.021       11.242      184.909      289.719      126.393        0.051        0.030       20.201       10.867        0.289      332.074        0.501      865.219
12/20/2021  20:59:00       -8.340       13.268       -8.559        9.071        9.023        5.591       82.283       81.413       31.254        0.026        0.010       15.672        3.983        0.065      332.122        0.576      865.227
12/20/2021  21:00:00      -12.036       14.625       -2.132        7.512       13.463        4.136       56.433      181.254       17.104        0.031        0.013       18.941        3.557        0.035      332.182        0.677      865.231
12/20/2021  21:01:00      -15.033       28.249       -5.075        7.488        6.509        5.206       56.072       42.371       27.106        0.059        0.006       32.000        2.688        0.007      332.183        0.679      865.246
12/20/2021  21:02:00      -38.598       21.763      -11.326       17.083        7.629        6.595      291.823       58.195       43.489        0.124        0.020       44.311        3.645        0.007      332.220        0.739      865.276
12/20/2021  21:03:00      -18.697        3.094      -10.315       22.065       10.610        6.300      486.849      112.570       39.686        0.055        0.032       18.952        1.689        0.008      332.205        0.715      865.300
12/20/2021  21:04:00      -25.436       10.711       -7.615       12.355        9.528        6.815      152.658       90.789       46.448        0.055        0.014       27.599        4.536        0.027      332.132        0.593      865.308
12/20/2021  21:05:00       -7.741       17.001       -6.807        7.403        7.622        6.783       54.811       58.102       46.011        0.028        0.008       18.681        3.368        0.033      332.129        0.590      865.308
12/20/2021  21:06:00        3.817       22.893       -5.979        8.902        5.924        5.879       79.247       35.097       34.563        0.036        0.007       23.209        4.330        0.035      332.143        0.613      865.297
12/20/2021  21:07:00        8.261       22.363       -3.958        7.315        6.795        6.711       53.506       46.178       45.043        0.036        0.007       23.840        4.585        0.037      332.159        0.639      865.283
12/20/2021  21:08:00       41.911       25.643       -4.310       12.208       11.858        7.043      149.045      140.623       49.607        0.139        0.017       49.134        5.974        0.015      332.105        0.550      865.291
12/20/2021  21:09:00       50.883       39.652       -6.486        9.785        9.222        7.208       95.744       85.041       51.949        0.222        0.012       64.508        3.974        0.004      332.172        0.661      865.309
12/20/2021  21:10:00       50.150       41.856       -5.613        8.191        6.206        4.965       67.085       38.514       24.650        0.221        0.007       65.322        3.027        0.002      332.198        0.703      865.313
12/20/2021  21:11:00       60.288       31.709       -9.834        5.520        6.263        4.447       30.475       39.224       19.776        0.241        0.004       68.118        2.045        0.001      332.187        0.689      865.313
12/20/2021  21:12:00       62.085       25.394      -11.680        6.272        4.686        4.362       39.342       21.955       19.026        0.236        0.004       67.077        2.469        0.001      332.196        0.700      865.308
12/20/2021  21:13:00       58.492       28.029      -13.205        4.882        6.004        4.331       23.836       36.042       18.758        0.223        0.004       64.861        1.353        0.000      332.201        0.709      865.311
12/20/2021  21:14:00       61.338       17.463       -8.194        5.249        4.986        4.529       27.551       24.858       20.510        0.210        0.004       63.775        2.710        0.002      332.173        0.664      865.310
12/20/2021  21:15:00       51.337       12.713      -10.874       17.890       11.851        7.140      320.039      140.453       50.987        0.171        0.026       52.888        8.958        0.029      332.210        0.725      865.300
12/20/2021  21:16:00        2.543      -13.711       -8.736        9.233       15.320        7.253       85.242      234.710       52.605        0.032        0.019       13.945        4.763        0.117      332.219        0.737      865.308
12/20/2021  21:17:00       10.828      -15.998       -9.527        7.821        9.466        7.169       61.167       89.596       51.398        0.033        0.010       19.318        2.608        0.018      332.224        0.747      865.307
12/20/2021  21:18:00       15.704       -3.659       -9.642        7.372       14.066        9.972       54.344      197.864       99.436        0.035        0.018       16.125        7.286        0.204      332.190        0.691      865.304
12/20/2021  21:19:00        6.047       17.036       -4.217       13.093       13.770       14.460      171.431      189.611      209.082        0.046        0.029       18.078        8.909        0.243      332.165        0.647      865.310
12/20/2021  21:20:00      -16.389        1.648       -5.126       10.463       11.870       13.877      109.484      140.890      192.558        0.037        0.022       16.472        8.155        0.245      332.251        0.793      865.314
12/20/2021  21:21:00        7.117       -5.628       -0.270       15.857        8.553        9.779      251.431       73.149       95.625        0.025        0.021        9.074        6.406        0.499      332.230        0.757      865.299
12/20/2021  21:22:00       23.126       -6.635       -4.228       14.259       11.952        8.945      203.330      142.852       80.012        0.051        0.021       24.059        9.251        0.148      332.231        0.759      865.288
12/20/2021  21:23:00       24.636       -0.877       -7.542       17.026       12.765       11.969      289.870      162.958      143.252        0.063        0.030       24.652        7.569        0.094      332.071        0.496      865.283
12/20/2021  21:24:00        7.180       -6.549       -2.330       12.579       16.113       10.384      158.219      259.641      107.837        0.031        0.026        9.718        7.975        0.673      332.118        0.573      865.291
12/20/2021  21:25:00       15.995        6.561        0.472       14.694       13.148        9.106      215.913      172.877       82.927        0.039        0.024       17.289        7.325        0.180      332.032        0.431      865.303
12/20/2021  21:26:00       -3.376       -0.219       -2.462        7.685        8.656        7.822       59.063       74.926       61.187        0.011        0.010        3.383        4.489        1.760      332.054        0.469      865.315
12/20/2021  21:27:00      -16.408      -22.931      -16.705       10.701       13.120        8.530      114.517      172.141       72.760        0.072        0.018       28.197        5.506        0.038      332.261        0.807      865.331
12/20/2021  21:28:00      -16.808        3.537       -8.657        9.110       12.293        6.942       82.996      151.120       48.197        0.033        0.014       17.176        3.690        0.046      332.231        0.758      865.365
12/20/2021  21:29:00      -22.409       14.582       -5.519       12.461        6.913        5.777      155.283       47.784       33.374        0.049        0.012       26.736        4.050        0.023      332.133        0.595      865.394
12/20/2021  21:30:00       -8.760      -13.168        2.918       12.619       14.349       16.271      159.243      205.901      264.735        0.044        0.031       15.816       12.779        0.653      332.192        0.694      865.416
12/20/2021  21:31:00       -2.895      -11.811       -1.457        8.489       17.838        9.662       72.064      318.197       93.346        0.032        0.024       12.161        7.951        0.428      332.254        0.797      865.414
12/20/2021  21:32:00       22.510       30.433      -13.450       24.547       27.858       18.960      602.564      776.084      359.480        0.168        0.087       37.853       12.083        0.102      332.153        0.628      865.380
12/20/2021  21:33:00       39.820       50.136      -17.397       18.932       18.392       16.506      358.414      338.255      272.459        0.269        0.048       64.026       10.314        0.026      332.005        0.386      865.341
12/20/2021  21:34:00       27.070       14.162       -7.232       22.770       16.543       13.916      518.452      273.687      193.643        0.099        0.049       30.550        4.340        0.020      331.943        0.286      865.323
12/20/2021  21:35:00       42.260       12.751       -1.460       31.536       20.903       15.152      994.510      436.915      229.568        0.181        0.083       44.142       16.165        0.134      331.860        0.148      865.340
12/20/2021  21:36:00       40.066       17.631       -7.547       28.077       20.429       11.499      788.291      417.348      132.223        0.166        0.067       43.774        4.872        0.012      331.854        0.138      865.382
12/20/2021  21:37:00       39.065       34.847       -0.161       27.935       20.225       18.564      780.353      409.067      344.620        0.214        0.077       52.348       13.752        0.069      331.839        0.114      865.381
12/20/2021  21:38:00       48.026       42.322       -5.218       39.083       17.738       13.427     1527.456      314.634      180.286        0.307        0.101       64.013       12.351        0.037      331.908        0.226      865.385
12/20/2021  21:39:00       44.438       47.021       -7.347       20.197       15.051       10.874      407.900      226.521      118.238        0.250        0.038       64.697        5.463        0.007      331.939        0.277      865.395
12/20/2021  21:40:00       44.088       35.202        1.895       19.567       11.847       10.800      382.886      140.343      116.632        0.191        0.032       56.418        8.740        0.024      331.954        0.303      865.391
12/20/2021  21:41:00       75.485       54.408       -7.067       23.286       16.561        9.025      542.245      274.250       81.453        0.480        0.045       93.050       13.346        0.021      332.016        0.403      865.389
12/20/2021  21:42:00       86.776       48.502      -15.832       24.872       18.319       10.290      618.618      335.588      105.886        0.560        0.053       99.411        8.813        0.008      332.026        0.420      865.377
12/20/2021  21:43:00       89.683       27.436       -9.818       25.211       30.957       14.692      635.586      958.316      215.869        0.535        0.090       93.786        8.602        0.008      332.024        0.419      865.372
12/20/2021  21:44:00       71.033       16.423       -6.778       32.016       21.807       15.918     1025.021      475.533      253.392        0.356        0.088       72.907       14.733        0.041      331.958        0.310      865.396
12/20/2021  21:45:00       53.382       13.132       -5.571       30.795       19.215       13.324      948.333      369.202      177.529        0.227        0.075       54.973       14.192        0.067      331.944        0.286      865.426
12/20/2021  21:46:00       42.069       13.213       -4.368       23.699       21.346       15.154      561.653      455.644      229.635        0.160        0.062       44.095       11.765        0.071      331.940        0.277      865.441
12/20/2021  21:47:00       70.215        6.083       -7.475       17.055       17.592       13.192      290.862      309.462      174.029        0.290        0.039       70.478        5.366        0.006      331.958        0.309      865.415
12/20/2021  21:48:00       89.187        5.711       -7.412       18.348       18.753       17.391      336.639      351.680      302.450        0.452        0.050       89.369       10.681        0.014      331.990        0.361      865.388
12/20/2021  21:49:00       76.579        5.994      -12.568       35.649       23.448       18.606     1270.839      549.792      346.168        0.411        0.108       76.814       13.787        0.032      332.026        0.420      865.385
12/20/2021  21:50:00       32.468        0.939      -13.451       29.608       28.050       19.852      876.624      786.797      394.090        0.165        0.103       32.481       12.020        0.137      332.122        0.577      865.391
12/20/2021  21:51:00       28.904        3.174       -5.356       24.169       30.651       18.598      584.144      939.504      345.875        0.137        0.093       29.078       12.898        0.197      332.051        0.462      865.390
12/20/2021  21:52:00       -3.846      -16.577       -2.566       22.147       30.168       21.888      490.505      910.137      479.075        0.109        0.094       17.017       13.596        0.638      332.157        0.638      865.424
12/20/2021  21:53:00      -37.651      -22.436      -12.920       23.645       31.792       14.653      559.064     1010.732      214.703        0.194        0.089       43.829        7.337        0.028      332.187        0.687      865.445
12/20/2021  21:54:00      -12.415       30.736      -12.848       20.342       20.765       11.771      413.785      431.191      138.557        0.112        0.049       33.148       11.029        0.111      331.997        0.373      865.432
12/20/2021  21:55:00      -11.466       40.138       -8.636       25.859       14.384       18.650      668.698      206.903      347.816        0.152        0.061       41.744       13.852        0.110      331.942        0.282      865.424
12/20/2021  21:56:00      -38.164       15.599       -8.643       17.221       17.221        9.698      296.555      296.571       94.050        0.123        0.034       41.228        5.911        0.021      332.024        0.419      865.411
12/20/2021  21:57:00        4.117       -6.149       -3.680       18.649       20.750       10.269      347.795      430.546      105.459        0.048        0.044        7.400        6.562        0.786      331.977        0.339      865.396
12/20/2021  21:58:00        1.051       35.010      -10.477       15.902       15.329       10.713      252.883      234.985      114.760        0.097        0.030       35.026        6.299        0.032      331.934        0.268      865.376
12/20/2021  21:59:00       -3.961       28.183      -16.494       14.523       20.233       13.380      210.916      409.383      179.036        0.094        0.040       28.460        8.994        0.100      332.000        0.377      865.380
12/20/2021  22:00:00      -20.801       28.676      -13.106       13.646       13.823       24.804      186.226      191.071      615.261        0.121        0.050       35.426        8.376        0.056      331.978        0.342      865.402
12/20/2021  22:01:00       -9.999      -21.444      -29.464       21.420       17.728       18.241      458.824      314.284      332.722        0.127        0.055       23.661        2.835        0.014      332.050        0.458      865.415
12/20/2021  22:02:00      -17.452        8.134      -10.821       12.683       18.377       20.484      160.860      337.705      419.579        0.070        0.046       19.254       11.413        0.351      332.007        0.388      865.429
12/20/2021  22:03:00       -2.123      -29.179       -9.230       11.513       25.837       16.974      132.541      667.532      288.132        0.101        0.054       29.257       12.534        0.184      332.056        0.470      865.446
12/20/2021  22:04:00        4.714       -1.465       -6.008       21.898       15.539       15.563      479.534      241.473      242.213        0.051        0.048        4.936        6.765        1.878      332.034        0.435      865.441
12/20/2021  22:05:00       -5.525      -24.413      -12.597       20.325       41.169       26.082      413.113     1694.894      680.263        0.179        0.139       25.031       21.414        0.732      332.035        0.434      865.448
12/20/2021  22:06:00      -16.556      -13.765      -22.038       21.539       22.178       17.607      463.945      491.869      309.993        0.111        0.063       21.531       10.750        0.249      332.003        0.381      865.474
12/20/2021  22:07:00      -25.227      -13.656       -4.955       27.881       30.176       15.881      777.365      910.576      252.191        0.139        0.097       28.687       12.108        0.178      332.043        0.449      865.502
12/20/2021  22:08:00       -7.875      -27.454        0.602       27.261       29.317       18.229      743.186      859.511      332.313        0.138        0.097       28.561       15.298        0.287      332.064        0.485      865.528
12/20/2021  22:09:00      -30.668      -19.924        3.518       40.438       27.115       27.398     1635.217      735.250      750.649        0.223        0.156       36.571       23.100        0.399      332.082        0.513      865.551
12/20/2021  22:10:00      -63.718       11.410       -2.898       39.676       27.290       21.492     1574.174      744.731      461.926        0.349        0.139       64.732       16.063        0.062      332.033        0.433      865.560
12/20/2021  22:11:00      -85.351      -18.239       -7.346       52.007       34.320       27.757     2704.704     1177.840      770.441        0.616        0.233       87.278       28.497        0.107      331.983        0.351      865.563
12/20/2021  22:12:00      -86.239       34.283       -5.865       33.993       23.686       18.994     1155.548      561.019      360.756        0.536        0.104       92.803        8.559        0.009      331.941        0.282      865.560
12/20/2021  22:13:00     -127.891       51.779       -1.375       49.098       26.450       28.538     2410.656      699.582      814.436        1.148        0.196      137.975       27.814        0.041      331.835        0.107      865.558
12/20/2021  22:14:00     -154.197       -3.933       -4.091       56.612       52.693       34.251     3204.916     2776.594     1173.143        1.548        0.358      154.247       23.841        0.024      331.856        0.141      865.604
12/20/2021  22:15:00     -156.097      -15.051      -18.027      105.632       64.094       50.596    11158.130     4107.988     2560.003        2.137        0.891      156.821       53.521        0.116      331.807        0.058      865.682
12/20/2021  22:16:00     -158.479       27.164      -13.553       67.681       49.740       33.985     4580.772     2474.031     1154.966        1.712        0.410      160.791       25.645        0.025      331.748       -0.037      865.721
12/20/2021  22:17:00     -188.028       21.578      -10.011       71.549       52.360       30.785     5119.320     2741.519      947.712        2.236        0.440      189.262       30.095        0.025      331.690       -0.133      865.716
12/20/2021  22:18:00     -102.600       23.376       -6.120       76.881       36.145       34.852     5910.669     1306.431     1214.674        0.977        0.422      105.229       30.567        0.084      331.718       -0.085      865.712
12/20/2021  22:19:00     -167.247       27.023      -12.505       40.806       35.489       27.110     1665.170     1259.469      734.933        1.626        0.183      169.416       15.405        0.008      331.697       -0.121      865.706
12/20/2021  22:20:00     -133.840       34.286       -4.544       55.630       49.210       39.616     3094.689     2421.643     1569.391        1.310        0.354      138.162       28.119        0.041      331.696       -0.123      865.714
12/20/2021  22:21:00     -137.654        3.185        2.928       65.089       39.985       34.094     4236.639     1598.805     1162.421        1.298        0.350      137.690       36.308        0.070      331.658       -0.186      865.739
12/20/2021  22:22:00      -85.520       19.186       -3.150       41.093       42.643       21.219     1688.657     1818.455      450.251        0.582        0.198       87.646       23.282        0.071      331.669       -0.167      865.734
12/20/2021  22:23:00      -73.114        9.882        5.380       56.183       40.216       25.097     3156.544     1617.338      629.839        0.544        0.270       73.779       22.497        0.093      331.714       -0.092      865.722
12/20/2021  22:24:00      -40.404      -14.646       -3.026       46.641       24.987       26.007     2175.342      624.330      676.351        0.267        0.174       42.977       17.164        0.160      331.733       -0.061      865.722
12/20/2021  22:25:00      -63.620       22.404       -8.997       21.632       22.202       16.419      467.944      492.950      269.584        0.293        0.062       67.450        5.997        0.008      331.763       -0.011      865.717
12/20/2021  22:26:00      -40.892       -7.551       -3.890       26.062       21.679       18.359      679.250      469.965      337.044        0.161        0.074       41.583       11.146        0.072      331.788        0.029      865.707
12/20/2021  22:27:00      -25.021       -0.773       -6.296       24.168       21.820       20.015      584.085      476.124      400.590        0.106        0.073       25.033       15.122        0.365      331.811        0.068      865.696
12/20/2021  22:28:00      -50.337       -7.201       -3.607       38.110       22.880       15.264     1452.375      523.513      232.994        0.240        0.110       50.850       14.867        0.085      331.874        0.171      865.709
12/20/2021  22:29:00      -82.439       13.750       -6.394       37.373       21.593       19.628     1396.726      466.242      385.273        0.464        0.112       83.578       14.333        0.029      331.822        0.085      865.729
12/20/2021  22:30:00      -63.703      -15.233       -3.079       43.049       30.095       30.186     1853.191      905.705      911.189        0.398        0.184       65.499       24.161        0.136      331.813        0.073      865.749
12/20/2021  22:31:00      -48.223        6.748        0.010       39.871       25.294       24.682     1589.726      639.767      609.194        0.260        0.142       48.692       26.129        0.288      331.764       -0.012      865.778
12/20/2021  22:32:00      -76.152       18.253       -3.447       39.166       33.194       20.448     1533.976     1101.851      418.117        0.460        0.153       78.309       16.442        0.044      331.751       -0.032      865.801
12/20/2021  22:33:00     -113.617       19.623       -9.622       34.017       24.779       17.082     1157.164      613.978      291.799        0.772        0.103      115.299       17.740        0.024      331.717       -0.088      865.807
12/20/2021  22:34:00      -41.528       22.969       -5.343       25.906       26.786       21.842      671.103      717.479      477.093        0.207        0.093       47.456       14.339        0.091      331.701       -0.111      865.801
12/20/2021  22:35:00      -57.282       35.105       -6.594       26.764       24.994       16.804      716.289      624.684      282.363        0.309        0.081       67.183       16.238        0.058      331.620       -0.248      865.806
12/20/2021  22:36:00      -27.216        4.631       -2.391       34.518       20.553       15.889     1191.463      422.422      252.451        0.132        0.093       27.607       16.204        0.345      331.673       -0.159      865.815
12/20/2021  22:37:00      -49.408       11.829       -8.206       26.029       14.572       17.279      677.506      212.347      298.578        0.192        0.059       50.804       14.625        0.083      331.793        0.037      865.830
12/20/2021  22:38:00      -27.737       12.053        1.662       27.235       21.682       11.904      741.729      470.115      141.698        0.114        0.068       30.242        7.845        0.067      331.748       -0.036      865.813
12/20/2021  22:39:00      -37.207        6.419       -4.232       19.531       13.489       11.713      381.449      181.941      137.191        0.107        0.035       37.757        8.011        0.045      331.700       -0.115      865.799
12/20/2021  22:40:00      -30.249       -5.258       -8.363       24.896       20.423       12.700      619.797      417.087      161.294        0.111        0.060       30.703        8.997        0.086      331.848        0.129      865.816
12/20/2021  22:41:00      -15.816       -7.049       -1.524       33.361       21.755       16.481     1112.986      473.270      271.623        0.108        0.093       17.316       15.355        0.786      331.783        0.021      865.827
12/20/2021  22:42:00      -21.821       -0.421       -1.479       26.593       21.363       23.085      707.167      456.361      532.934        0.109        0.085       21.825       18.379        0.709      331.738       -0.054      865.825
12/20/2021  22:43:00      -68.061       13.279       -9.428       45.025       23.125       18.088     2027.254      534.766      327.179        0.389        0.144       69.344       20.702        0.089      331.712       -0.095      865.817
12/20/2021  22:44:00      -64.314       13.872       -0.613       32.210       32.752       20.979     1037.488     1072.697      440.136        0.344        0.128       65.793       20.403        0.096      331.753       -0.029      865.805
12/20/2021  22:45:00      -45.689       13.414        0.236       37.395       24.300       22.953     1398.411      590.472      526.854        0.239        0.126       47.618       17.422        0.134      331.736       -0.055      865.792
12/20/2021  22:46:00      -51.376       -7.896        4.043       36.612       30.724       19.206     1340.410      943.982      368.883        0.269        0.133       51.979       16.154        0.097      331.872        0.168      865.785
12/20/2021  22:47:00      -66.634       -4.271       -1.559       26.825       30.946       20.124      719.580      957.656      404.993        0.327        0.104       66.770       14.664        0.048      331.854        0.138      865.783
12/20/2021  22:48:00      -19.423        8.194       -6.399       15.668       23.086       14.482      245.492      532.961      209.726        0.074        0.049       21.080        8.958        0.181      331.908        0.226      865.787
12/20/2021  22:49:00      -33.979       -0.434       -7.409       26.085       16.417       14.094      680.443      269.529      198.653        0.118        0.057       33.982        9.006        0.070      331.880        0.181      865.764
12/20/2021  22:50:00      -30.110       15.162        0.123       19.244       18.934        9.575      370.319      358.491       91.674        0.098        0.041       33.712        7.348        0.048      331.837        0.110      865.730
12/20/2021  22:51:00      -13.524       17.080      -10.872       12.413       11.087        8.315      154.072      122.911       69.135        0.047        0.017       21.786        4.552        0.044      331.868        0.163      865.701
12/20/2021  22:52:00      -37.646       16.849       -9.189       24.317       11.332       10.997      591.308      128.425      120.933        0.131        0.042       41.245       10.647        0.067      331.836        0.109      865.710
12/20/2021  22:53:00      -45.014       14.669       -0.550       33.503       22.341       16.679     1122.443      499.141      278.198        0.207        0.095       47.344       17.413        0.135      331.798        0.046      865.740
12/20/2021  22:54:00      -26.320       39.768      -11.217       23.370       19.991       10.502      546.138      399.646      110.286        0.173        0.053       47.689        8.434        0.031      331.716       -0.089      865.732
12/20/2021  22:55:00      -29.471       61.010       -4.966       21.612       19.319       14.108      467.060      373.240      199.043        0.283        0.052       67.755       10.108        0.022      331.754       -0.025      865.704
12/20/2021  22:56:00       -1.962       60.029       -8.073       16.118       18.762       12.345      259.775      352.014      152.397        0.222        0.038       60.061        6.403        0.011      331.826        0.093      865.693
12/20/2021  22:57:00       26.376       24.650       -9.190       23.080       10.002       11.341      532.692      100.038      128.614        0.107        0.038       36.102        5.524        0.023      331.893        0.204      865.698
12/20/2021  22:58:00       -0.096       34.038       -2.346       17.828       14.287        8.264      317.845      204.105       68.299        0.088        0.030       34.038        6.984        0.042      331.931        0.264      865.701
12/20/2021  22:59:00        6.128       37.793       -7.477       13.089       11.571       11.194      171.330      133.889      125.299        0.098        0.022       38.287        8.119        0.045      331.929        0.260      865.710
12/20/2021  23:00:00        7.789       18.172       -4.370        8.056       10.203        4.772       64.893      104.103       22.776        0.030        0.010       19.771        3.664        0.034      331.892        0.200      865.724
12/20/2021  23:01:00       43.431       10.816      -12.767       20.556        9.871        8.634      422.529       97.434       74.539        0.138        0.030       44.757        4.905        0.012      331.748       -0.036      865.722
12/20/2021  23:02:00       66.298       22.896      -10.100       11.231        6.447        5.351      126.126       41.564       28.631        0.261        0.010       70.140        3.147        0.002      331.723       -0.077      865.713
12/20/2021  23:03:00       70.416       30.679      -10.121        9.638        8.767        8.702       92.886       76.853       75.733        0.312        0.012       76.809        2.650        0.001      331.742       -0.047      865.703
12/20/2021  23:04:00       79.176       26.476      -12.549        7.079       11.331        6.718       50.112      128.387       45.136        0.368        0.011       83.485        3.996        0.002      331.831        0.100      865.702
12/20/2021  23:05:00       80.974       16.673       -5.182       18.019       14.838        9.312      324.693      220.162       86.714        0.375        0.032       82.673        8.975        0.012      331.702       -0.112      865.687
12/20/2021  23:06:00       72.885       30.146       -8.422       20.706       14.559       11.629      428.725      211.962      135.225        0.353        0.039       78.874        8.699        0.012      331.640       -0.214      865.664
12/20/2021  23:07:00       88.041       29.893      -13.378       17.810       15.962       14.071      317.195      254.796      197.984        0.480        0.038       92.977       10.883        0.014      331.686       -0.138      865.652
12/20/2021  23:08:00       82.595       12.887      -15.021       23.992       23.125       12.963      575.600      534.745      168.033        0.425        0.064       83.595       11.484        0.019      331.721       -0.080      865.655
12/20/2021  23:09:00       69.606       23.797      -11.630       22.493       15.342       12.716      505.928      235.380      161.709        0.322        0.045       73.561        9.894        0.018      331.742       -0.046      865.662
12/20/2021  23:10:00       56.024       37.167      -12.886       17.158       15.978        9.631      294.397      255.287       92.762        0.266        0.032       67.232        4.922        0.005      331.786        0.024      865.688
12/20/2021  23:11:00       56.936       47.816      -17.237       19.468       12.657       12.755      379.006      160.200      162.690        0.326        0.035       74.351        7.419        0.010      331.841        0.119      865.730
12/20/2021  23:12:00       42.599       38.740       -5.140       14.071        9.069       10.324      198.000       82.240      106.593        0.186        0.019       57.581        7.577        0.017      331.858        0.146      865.770
12/20/2021  23:13:00       52.888       30.515       -6.615       12.153        8.451        8.474      147.690       71.427       71.814        0.203        0.015       61.060        3.977        0.004      331.878        0.178      865.779
12/20/2021  23:14:00       63.737       25.131       -7.881        7.962       10.210        6.869       63.396      104.237       47.180        0.249        0.011       68.512        2.236        0.001      331.842        0.120      865.760
12/20/2021  23:15:00       67.516       20.199       -5.629        6.092        7.601        5.073       37.117       57.774       25.732        0.256        0.006       70.473        2.921        0.002      331.843        0.121      865.748
12/20/2021  23:16:00       83.274       14.569      -13.726        7.584        9.542        6.378       57.523       91.055       40.677        0.376        0.009       84.539        4.074        0.002      331.829        0.099      865.754
12/20/2021  23:17:00       87.405       19.494      -12.961       16.294       16.997        9.638      265.500      288.881       92.881        0.442        0.032       89.552        4.901        0.003      331.825        0.092      865.761
12/20/2021  23:18:00       73.093       31.009       -6.137       10.421       12.480        7.889      108.606      155.745       62.236        0.333        0.016       79.399        4.841        0.004      331.801        0.052      865.779
12/20/2021  23:19:00       57.141       37.882      -10.966       16.450       12.631       11.967      270.602      159.538      143.219        0.270        0.029       68.557        7.662        0.012      331.806        0.062      865.791
12/20/2021  23:20:00       21.924       55.572       -3.241       21.969       20.784       16.197      482.642      431.986      262.334        0.238        0.059       59.741       12.124        0.041      331.892        0.201      865.793
12/20/2021  23:21:00       46.142       58.273      -14.016       27.080       25.639       18.390      733.351      657.357      338.179        0.372        0.086       74.330       13.521        0.033      331.886        0.192      865.823
12/20/2021  23:22:00       78.510       56.430      -24.348       11.085       10.173       10.204      122.880      103.482      104.128        0.514        0.017       96.686        5.388        0.003      331.859        0.145      865.827
12/20/2021  23:23:00       86.160       35.793      -15.934        7.397       15.275        7.074       54.709      233.316       50.037        0.465        0.017       93.299        0.960        0.000      331.893        0.203      865.800
12/20/2021  23:24:00       96.875        0.204      -13.380       19.890       15.839       12.637      395.614      250.885      159.682        0.518        0.040       96.875        4.479        0.002      331.890        0.198      865.796
12/20/2021  23:25:00       96.023       10.302      -10.007       10.311        8.484        9.006      106.319       71.973       81.116        0.484        0.013       96.574        4.673        0.002      331.920        0.247      865.804
12/20/2021  23:26:00      104.130       10.303      -13.070       14.207       13.017       11.325      201.837      169.439      128.258        0.581        0.025      104.639        4.743        0.002      331.889        0.195      865.793
12/20/2021  23:27:00      110.415        7.508      -16.620       14.758       16.433       11.943      217.805      270.039      142.646        0.658        0.032      110.670        7.019        0.004      331.884        0.187      865.801
12/20/2021  23:28:00       86.281        7.172      -15.304       22.555       18.634       14.928      508.715      347.221      222.836        0.440        0.054       86.578        9.045        0.011      331.886        0.191      865.826
12/20/2021  23:29:00       56.667        6.482      -16.406       24.937       29.670       20.053      621.849      880.282      402.138        0.271        0.095       57.036       13.217        0.054      331.889        0.197      865.840
12/20/2021  23:30:00       74.074        0.843      -10.785       27.676       14.153       13.159      765.942      200.293      173.163        0.337        0.057       74.079        5.632        0.006      331.912        0.233      865.840
12/20/2021  23:31:00       94.153       14.018      -12.186        8.473        9.320       10.369       71.799       86.868      107.515        0.474        0.013       95.191        7.064        0.006      331.885        0.188      865.833
12/20/2021  23:32:00       87.608       37.281      -17.525       16.877       15.894       10.875      284.843      252.622      118.258        0.501        0.033       95.210        8.482        0.008      331.945        0.287      865.835
12/20/2021  23:33:00       84.160       30.556      -19.692       19.237       21.114       13.435      370.043      445.819      180.486        0.470        0.050       89.535        6.783        0.006      331.975        0.337      865.838
12/20/2021  23:34:00       89.343       14.822      -10.820       12.434       13.657        7.381      154.606      186.509       54.484        0.436        0.020       90.564        5.659        0.004      331.902        0.217      865.829
12/20/2021  23:35:00       64.497       21.623       -8.794       21.560        8.268        4.862      464.827       68.358       23.642        0.263        0.028       68.025        5.236        0.006      331.879        0.181      865.830
12/20/2021  23:36:00       47.828       33.605       -7.056       14.715       10.681       10.878      216.534      114.089      118.337        0.196        0.022       58.453        5.869        0.010      331.848        0.130      865.838
12/20/2021  23:37:00       51.242       32.716       -8.985       11.701        9.460        8.256      136.914       89.484       68.156        0.204        0.015       60.795        5.244        0.007      331.875        0.172      865.822
12/20/2021  23:38:00       56.559       43.317      -11.246       20.822       14.038        9.474      433.564      197.055       89.756        0.296        0.036       71.241        7.428        0.011      331.881        0.183      865.799
12/20/2021  23:39:00       56.547       32.772      -11.653       13.526       12.189        8.756      182.947      148.564       76.671        0.241        0.020       65.357        5.634        0.007      331.887        0.193      865.807
12/20/2021  23:40:00       19.273       23.004       -9.471        9.610        8.502        7.378       92.355       72.288       54.428        0.060        0.011       30.011        5.002        0.028      331.886        0.193      865.859
12/20/2021  23:41:00        5.694        7.032       -3.866       10.007        4.274        5.076      100.144       18.267       25.767        0.012        0.007        9.048        3.034        0.112      331.891        0.198      865.893
12/20/2021  23:42:00        4.939       18.272       -1.198        8.116       12.227        6.315       65.868      149.500       39.878        0.031        0.013       18.928        3.556        0.035      331.895        0.207      865.866
12/20/2021  23:43:00       59.688       30.297       -8.117       25.903       17.267       11.830      670.977      298.135      139.956        0.283        0.055       66.936       15.560        0.054      331.881        0.184      865.824
12/20/2021  23:44:00       64.469       35.375      -16.584       19.107       11.378       13.982      365.074      129.460      195.507        0.319        0.035       73.537        8.081        0.012      331.948        0.294      865.791
12/20/2021  23:45:00       22.709        1.766      -16.599       23.946       10.334       11.587      573.420      106.782      134.256        0.080        0.041       22.777       13.879        0.371      331.967        0.322      865.799
12/20/2021  23:46:00        2.756        0.976       -4.850        4.336        2.918        5.358       18.798        8.516       28.713        0.004        0.003        2.923        3.322        1.291      331.966        0.321      865.808
12/20/2021  23:47:00       19.465        2.895       -3.591       10.076        2.861        6.180      101.526        8.188       38.189        0.027        0.007       19.679        7.175        0.133      331.988        0.359      865.795
12/20/2021  23:48:00       11.519       -4.011       -6.128       18.726       10.785        6.753      350.645      116.325       45.609        0.035        0.026       12.197        5.050        0.171      332.067        0.486      865.813
12/20/2021  23:49:00      -22.665       13.930       -8.670       19.483       15.181        7.242      379.591      230.448       52.449        0.072        0.033       26.603        7.807        0.086      332.038        0.440      865.863
12/20/2021  23:50:00       -1.301        0.463      -11.575        7.912        7.743        5.456       62.594       59.955       29.767        0.014        0.008        1.381        3.945        8.164      331.978        0.342      865.881
12/20/2021  23:51:00        3.835       17.448       -8.993       16.165       15.977       11.128      261.320      255.269      123.843        0.052        0.032       17.864        6.436        0.130      332.042        0.447      865.866
12/20/2021  23:52:00      -33.614      -14.825      -12.181       26.182       20.848       11.956      685.486      434.654      142.945        0.138        0.063       36.738        6.013        0.027      332.059        0.476      865.881
12/20/2021  23:53:00      -36.529      -24.939      -16.322       19.062       29.577       11.193      363.357      874.826      125.280        0.179        0.068       44.230        6.224        0.020      332.080        0.510      865.913
12/20/2021  23:54:00        0.054       14.188        0.801        8.216       10.277        8.065       67.500      105.608       65.046        0.022        0.012       14.188        4.767        0.113      332.049        0.458      865.911
12/20/2021  23:55:00       -5.709       32.391       -4.296       11.045        8.860        7.256      121.994       78.494       52.652        0.068        0.013       32.891        4.938        0.023      331.975        0.336      865.902
12/20/2021  23:56:00      -12.855       39.465       -6.616       16.523       10.799        8.073      273.006      116.612       65.174        0.111        0.023       41.506        7.412        0.032      331.959        0.309      865.911
12/20/2021  23:57:00      -46.719       26.428      -11.480       22.436       12.849       11.381      503.381      165.095      129.535        0.191        0.040       53.676        9.276        0.030      331.982        0.348      865.937
12/20/2021  23:58:00      -60.561       22.325      -10.740       21.488       17.041       14.322      461.731      290.396      205.134        0.262        0.048       64.544       12.561        0.038      331.958        0.309      865.981
12/20/2021  23:59:00      -35.234       22.309      -10.322       19.029       25.391       10.827      362.098      644.704      117.222        0.148        0.056       41.703       13.278        0.101      332.005        0.387      865.998
12/21/2021  00:00:00       -8.265       21.229       -0.356       13.599       14.034        7.871      184.939      196.950       61.952        0.048        0.022       22.781        6.951        0.093      331.908        0.228      865.958
12/21/2021  00:01:00       18.694       22.381       -2.877       18.571       15.322       13.707      344.865      234.768      187.885        0.081        0.038       29.161        7.550        0.067      331.807        0.062      865.950
12/21/2021  00:02:00       -9.443       20.567      -13.886       11.680       11.290        7.877      136.415      127.462       62.053        0.052        0.016       22.631        3.311        0.021      331.838        0.113      865.996
12/21/2021  00:03:00      -45.221       26.016      -13.270       22.821       18.521       11.127      520.815      343.017      123.821        0.194        0.049       52.170        7.152        0.019      332.027        0.421      866.006
12/21/2021  00:04:00      -27.575       24.103       -8.094       14.701       10.372        9.465      216.122      107.572       89.581        0.091        0.021       36.624        7.567        0.043      331.977        0.339      865.957
12/21/2021  00:05:00        8.293       22.810      -12.154       20.554       12.281       10.545      422.478      150.830      111.196        0.071        0.034       24.270        3.478        0.021      331.877        0.177      865.925
12/21/2021  00:06:00       34.072       27.640       -5.364       11.309       13.594       11.841      127.900      184.809      140.209        0.120        0.023       43.873        2.887        0.004      331.835        0.108      865.914
12/21/2021  00:07:00        6.432       20.487       -6.340       15.600       14.441       11.794      243.347      208.529      139.106        0.055        0.030       21.473        8.587        0.160      331.854        0.138      865.934
12/21/2021  00:08:00      -16.856       19.769       -5.990       20.274       21.248       14.034      411.021      451.484      196.945        0.088        0.053       25.980       11.123        0.183      331.939        0.276      865.975
12/21/2021  00:09:00        4.595       -5.919       -9.187       10.139       13.827       10.512      102.803      191.199      110.493        0.027        0.020        7.493        7.945        1.124      331.979        0.345      865.961
12/21/2021  00:10:00       -7.625      -18.546       -7.475       13.403       15.174       12.929      179.639      230.250      167.154        0.052        0.029       20.052        9.508        0.225      332.023        0.417      865.925
12/21/2021  00:11:00      -12.809      -24.971      -17.776       18.454       22.055       14.522      340.552      486.441      210.892        0.107        0.052       28.065        9.216        0.108      332.072        0.497      865.905
12/21/2021  00:12:00       -0.256        4.466       -0.972       10.041       11.862        8.059      100.813      140.716       64.945        0.016        0.015        4.474        6.010        1.805      332.006        0.387      865.863
12/21/2021  00:13:00      -28.324       16.183       -2.595       17.142        8.877       12.128      293.852       78.807      147.100        0.080        0.026       32.621        5.886        0.033      331.965        0.320      865.807
12/21/2021  00:14:00       -3.329      -34.322       -7.951       22.970       26.880       14.959      527.624      722.537      223.782        0.136        0.074       34.483        8.700        0.064      332.088        0.523      865.833
12/21/2021  00:15:00       -3.334      -16.991      -13.063       30.052       28.534       15.425      903.099      814.197      237.938        0.121        0.098       17.315       12.305        0.505      332.036        0.436      865.894
12/21/2021  00:16:00      -62.399      -19.769        0.240       59.141       31.200       22.943     3497.685      973.448      526.363        0.464        0.250       65.455       11.070        0.029      332.023        0.416      865.906
12/21/2021  00:17:00      -97.650       -4.454       -4.552       32.702       36.323       24.091     1069.453     1319.326      580.372        0.627        0.148       97.752       16.305        0.028      332.014        0.400      865.864
12/21/2021  00:18:00       -8.921       -6.655       -1.173       20.598       18.736       14.883      424.262      351.033      221.495        0.056        0.050       11.130        7.992        0.516      332.012        0.395      865.816
12/21/2021  00:19:00      -20.039      -10.145       -6.105       20.360       20.396       17.455      414.540      415.985      304.664        0.084        0.057       22.461       13.517        0.362      332.102        0.546      865.798
12/21/2021  00:20:00      -18.441        7.744       -5.081       42.969       23.902       26.527     1846.378      571.301      703.666        0.177        0.156       20.001       20.197        1.020      332.072        0.497      865.828
12/21/2021  00:21:00      -32.568      -10.081       -2.627       29.337       30.873       21.104      860.637      953.144      445.359        0.171        0.113       34.092       11.087        0.106      332.004        0.384      865.868
12/21/2021  00:22:00      -58.045       -1.586       -7.161       34.461       32.585       21.863     1187.566     1061.812      477.987        0.307        0.136       58.067       18.627        0.103      331.968        0.325      865.883
12/21/2021  00:23:00      -58.813       -7.816      -14.453       51.259       37.604       31.840     2627.456     1414.058     1013.779        0.439        0.253       59.330       25.105        0.179      331.959        0.311      865.901
12/21/2021  00:24:00      -51.578       -7.027       -2.612       39.023       32.025       24.925     1522.791     1025.571      621.247        0.294        0.158       52.055       21.165        0.165      331.938        0.276      865.890
12/21/2021  00:25:00      -53.935        4.943       -8.247       19.873        8.899       11.317      394.921       79.187      128.080        0.180        0.030       54.161       11.713        0.047      331.928        0.259      865.890
12/21/2021  00:26:00      -47.254       11.133       -7.894       15.086       20.454        9.357      227.583      418.373       87.562        0.158        0.037       48.547        4.005        0.007      331.952        0.299      865.900
12/21/2021  00:27:00      -27.334       -7.134       -5.658       17.755       15.518       11.196      315.239      240.820      125.344        0.076        0.034       28.250       10.274        0.132      332.023        0.417      865.883
12/21/2021  00:28:00      -13.205       12.968       -7.545       16.961       11.910       11.260      287.681      141.836      126.783        0.048        0.028       18.508       10.197        0.304      332.038        0.440      865.872
12/21/2021  00:29:00       -4.105       -9.040       -6.009       12.111       14.250        8.305      146.687      203.067       68.977        0.028        0.021        9.928        5.202        0.275      332.097        0.537      865.862
12/21/2021  00:30:00        5.172       -2.964       -1.040        8.870        6.157        5.928       78.677       37.907       35.138        0.009        0.008        5.961        4.495        0.569      332.098        0.538      865.853
12/21/2021  00:31:00       -4.216       10.316       -2.585       14.036       11.510        7.156      196.997      132.490       51.208        0.026        0.019       11.144        7.444        0.446      331.988        0.358      865.844
12/21/2021  00:32:00      -18.998       21.206        2.729       23.312       14.399        9.724      543.465      207.333       94.556        0.083        0.042       28.471        4.818        0.029      331.951        0.297      865.831
12/21/2021  00:33:00       22.734       41.559        2.612       18.868       16.574       10.776      355.995      274.689      116.121        0.150        0.037       47.370        7.087        0.022      331.877        0.177      865.831
12/21/2021  00:34:00       16.816       26.634      -11.333       15.810       11.622        9.120      249.942      135.081       83.169        0.079        0.023       31.499        7.688        0.060      331.865        0.157      865.846
12/21/2021  00:35:00       30.866       34.655      -16.823        9.436        7.249       11.944       89.032       52.541      142.670        0.136        0.014       46.407        5.348        0.013      331.916        0.240      865.840
12/21/2021  00:36:00       28.633       19.986       -4.983       15.668        8.495        7.307      245.492       72.157       53.396        0.081        0.019       34.919        4.913        0.020      331.824        0.089      865.829
12/21/2021  00:37:00       10.299       10.645       -5.449       10.515        7.620        4.932      110.559       58.070       24.321        0.022        0.010       14.812        3.816        0.066      331.794        0.038      865.848
12/21/2021  00:38:00      -13.928       18.004      -11.311        9.447        6.383        6.798       89.238       40.747       46.214        0.041        0.009       22.762        1.843        0.007      331.880        0.180      865.858
12/21/2021  00:39:00       -8.042       37.778       -7.235       10.455       12.178        7.314      109.301      148.304       53.490        0.093        0.016       38.624        5.953        0.024      331.977        0.341      865.859
12/21/2021  00:40:00      -22.723       48.067       -8.349       12.572       11.096       11.708      158.054      123.116      137.085        0.166        0.021       53.168        8.289        0.024      331.907        0.224      865.817
12/21/2021  00:41:00       11.707       30.402       -0.172       24.559       19.408       13.888      603.161      376.656      192.886        0.112        0.059       32.578       13.580        0.174      331.867        0.162      865.757
12/21/2021  00:42:00       -6.743       40.958      -10.306       19.169       14.909       12.240      367.439      222.273      149.818        0.128        0.037       41.510        7.527        0.033      331.925        0.254      865.758
12/21/2021  00:43:00      -22.310        2.458      -14.714       24.537       19.109       13.686      602.068      365.168      187.305        0.094        0.058       22.445        7.509        0.112      331.903        0.219      865.816
12/21/2021  00:44:00      -34.101        4.732      -13.619       26.827       25.681       16.643      719.679      659.498      276.996        0.151        0.083       34.428       11.725        0.116      331.881        0.183      865.823
12/21/2021  00:45:00      -66.801       30.097      -11.382       23.515       13.296       12.488      552.948      176.793      155.946        0.319        0.044       73.268       13.726        0.035      331.764       -0.010      865.776
12/21/2021  00:46:00        1.362       16.601       -3.401       22.325       17.468       10.970      498.421      305.121      120.346        0.061        0.046       16.657        6.992        0.176      331.707       -0.105      865.723
12/21/2021  00:47:00       24.408        7.314      -17.455       17.759       16.831       11.743      315.374      283.281      137.903        0.085        0.037       25.481        7.493        0.086      331.845        0.123      865.735
12/21/2021  00:48:00        6.098       -0.511      -15.516       11.646       12.744        9.368      135.635      162.421       87.761        0.033        0.019        6.119        4.453        0.530      331.827        0.094      865.798
12/21/2021  00:49:00       -3.358      -16.922       -3.569       17.992       15.796       16.106      323.707      249.513      259.392        0.057        0.042       17.252       12.205        0.500      331.932        0.266      865.839
12/21/2021  00:50:00      -13.560       22.154        0.427       23.460       20.693       15.342      550.364      428.199      235.368        0.094        0.061       25.974        8.391        0.104      331.826        0.091      865.820
12/21/2021  00:51:00       33.535       39.954       -4.221       19.437       16.809       18.958      377.810      282.549      359.424        0.188        0.051       52.162       14.525        0.078      331.711       -0.097      865.768
12/21/2021  00:52:00        8.917       17.721       -0.892       20.644       16.822       11.992      426.182      282.989      143.798        0.062        0.043       19.838        7.743        0.152      331.630       -0.230      865.756
12/21/2021  00:53:00       19.554       26.249       -2.179       22.272       11.199       14.790      496.055      125.413      218.757        0.096        0.042       32.732        8.688        0.070      331.611       -0.260      865.786
12/21/2021  00:54:00        9.790       26.601       -3.775       14.339        9.763       15.280      205.595       95.316      233.471        0.068        0.027       28.345       10.393        0.134      331.621       -0.245      865.802
12/21/2021  00:55:00       27.189       29.828       -9.506       21.846       24.028       13.870      477.265      577.336      192.373        0.148        0.062       40.361       14.807        0.135      331.712       -0.095      865.765
12/21/2021  00:56:00       40.849       -9.893       -8.329       40.290       27.364       19.858     1623.282      748.785      394.350        0.230        0.138       42.030       19.616        0.218      331.681       -0.148      865.717
12/21/2021  00:57:00       46.042        2.704       -9.768       51.405       25.618       21.494     2642.461      656.286      462.007        0.299        0.188       46.121       21.593        0.219      331.653       -0.192      865.683
12/21/2021  00:58:00       99.813       22.593      -17.407       44.122       47.867       26.354     1946.717     2291.204      694.535        0.785        0.247      102.339       18.183        0.032      331.661       -0.179      865.670
12/21/2021  00:59:00       83.997       30.060       -4.639       33.252       31.616       19.933     1105.705      999.572      397.341        0.524        0.125       89.214       13.710        0.024      331.601       -0.278      865.689
12/21/2021  01:00:00       21.421      -29.980      -20.495       25.814       28.377       17.062      666.341      805.232      291.096        0.177        0.088       36.847       13.151        0.127      331.869        0.163      865.711
12/21/2021  01:01:00      -25.328       20.096      -10.374       21.351       27.607       13.349      455.870      762.147      178.194        0.127        0.070       32.331        9.294        0.083      331.784        0.024      865.752
12/21/2021  01:02:00      -47.392       37.308      -16.298       15.251       10.887       10.801      232.603      118.518      116.667        0.219        0.023       60.315        9.054        0.023      331.663       -0.176      865.760
12/21/2021  01:03:00       13.376       38.285       -9.134       28.067       16.194       10.193      787.747      262.253      103.895        0.144        0.058       40.555        6.530        0.026      331.667       -0.168      865.727
12/21/2021  01:04:00       64.058       23.696      -13.946       16.500       22.333       12.338      272.241      498.762      152.234        0.289        0.046       68.300        9.828        0.021      331.649       -0.200      865.706
12/21/2021  01:05:00       74.737        3.717       -9.571       29.437       17.641       14.329      866.543      311.215      205.314        0.354        0.069       74.830       11.612        0.024      331.622       -0.244      865.737
12/21/2021  01:06:00       49.336       17.977       -9.882       26.658       24.418       15.687      710.664      596.248      246.082        0.220        0.078       52.509       13.256        0.064      331.593       -0.291      865.780
12/21/2021  01:07:00       -4.478       15.050       -3.134       13.484       17.259       13.491      181.819      297.857      181.996        0.046        0.033       15.702        8.672        0.305      331.596       -0.287      865.812
12/21/2021  01:08:00      -19.574       27.148      -12.176       29.649       17.623       15.486      879.089      310.583      239.809        0.135        0.071       33.469        4.097        0.015      331.629       -0.233      865.835
12/21/2021  01:09:00       47.092       41.901      -10.371       15.740       13.247       10.569      247.753      175.478      111.697        0.231        0.027       63.035        5.153        0.007      331.557       -0.355      865.824
12/21/2021  01:10:00       34.359        4.923      -11.202       20.307       18.973       18.143      412.366      359.964      329.165        0.122        0.055       34.710       12.449        0.129      331.604       -0.275      865.798
12/21/2021  01:11:00       21.824       -3.601       -8.675       31.365       26.618       20.740      983.735      708.513      430.153        0.134        0.106       22.120        9.687        0.192      331.647       -0.202      865.791
12/21/2021  01:12:00       40.357       30.886       -2.172       25.778       23.858       20.834      664.518      569.212      434.061        0.213        0.083       50.820        8.314        0.027      331.603       -0.276      865.830
12/21/2021  01:13:00      -13.902       25.946       -8.489       14.410       12.793       10.015      207.646      163.663      100.290        0.070        0.024       29.435        4.463        0.023      331.571       -0.330      865.907
12/21/2021  01:14:00      -45.467       17.313      -11.846       21.335        9.863       11.088      455.188       97.285      122.941        0.159        0.034       48.651       11.750        0.058      331.683       -0.143      865.968
12/21/2021  01:15:00      -37.660       -4.668      -10.005       26.737       31.931       18.580      714.884     1019.573      345.210        0.181        0.104       37.948        5.635        0.022      331.740       -0.050      865.985
12/21/2021  01:16:00      -25.782       -1.183       -9.252       27.221       24.098       20.470      741.007      580.715      419.015        0.125        0.087       25.809       17.464        0.458      331.719       -0.083      865.968
12/21/2021  01:17:00      -56.210       18.251       -4.734       32.444       21.736       16.005     1052.629      472.469      256.159        0.265        0.089       59.098       15.831        0.072      331.730       -0.065      865.925
12/21/2021  01:18:00     -111.708       44.324       -6.496       30.848       24.562       21.206      951.602      603.272      449.706        0.824        0.100      120.180       20.077        0.028      331.671       -0.164      865.889
12/21/2021  01:19:00      -86.128       17.970       -1.947       35.164       27.882       21.141     1236.501      777.398      446.958        0.510        0.123       87.983       17.768        0.041      331.709       -0.100      865.871
12/21/2021  01:20:00      -82.706       34.523      -11.394       27.062       25.744       18.095      732.339      662.777      327.433        0.494        0.086       89.622       12.819        0.020      331.674       -0.158      865.859
12/21/2021  01:21:00      -52.638       38.368       -8.125       23.894       19.443       12.688      570.906      378.015      160.982        0.271        0.055       65.137        5.754        0.008      331.661       -0.180      865.828
12/21/2021  01:22:00      -39.189       32.697       -9.712       13.672       17.173       11.105      186.936      294.923      123.331        0.165        0.030       51.038        7.899        0.024      331.710       -0.098      865.795
12/21/2021  01:23:00      -23.238        2.071       -2.231       22.931        9.938       15.876      525.822       98.763      252.040        0.071        0.044       23.331       15.448        0.438      331.735       -0.058      865.815
12/21/2021  01:24:00      -23.125       -2.359        0.002       39.011       22.786       19.798     1521.867      519.197      391.955        0.149        0.122       23.245       19.772        0.723      331.802        0.052      865.855
12/21/2021  01:25:00      -57.479       21.721       -4.357       53.855       22.649       22.693     2900.389      512.962      514.962        0.386        0.196       61.447       27.773        0.204      331.724       -0.075      865.885
12/21/2021  01:26:00     -111.859       28.641        0.144       43.626       26.593       22.818     1903.230      707.163      520.677        0.823        0.157      115.467       24.269        0.044      331.662       -0.179      865.891
12/21/2021  01:27:00     -128.720       44.578       -8.976       40.151       24.670       14.905     1612.112      608.596      222.145        1.054        0.122      136.221        4.601        0.001      331.609       -0.264      865.891
12/21/2021  01:28:00      -86.442       26.020      -17.425       32.828       21.323       19.829     1077.684      454.674      393.194        0.519        0.096       90.273       14.427        0.026      331.650       -0.198      865.906
12/21/2021  01:29:00      -68.259       26.433       -8.459       32.601       27.132       16.879     1062.819      736.146      284.900        0.376        0.104       73.198       12.391        0.029      331.613       -0.258      865.931
12/21/2021  01:30:00      -75.798       75.978      -14.155       14.644       13.596        7.830      214.442      184.848       61.309        0.609        0.023      107.322        4.306        0.002      331.584       -0.306      865.923
12/21/2021  01:31:00      -45.982       60.025       -8.690       25.758       18.274       11.005      663.492      333.945      121.117        0.346        0.056       75.613        9.453        0.016      331.622       -0.244      865.907
12/21/2021  01:32:00      -27.553       32.268       -7.763        9.826       12.477        7.580       96.552      155.674       57.462        0.109        0.015       42.431        3.231        0.006      331.685       -0.138      865.913
12/21/2021  01:33:00      -12.737       28.695       -5.877        6.343        5.969        7.327       40.231       35.626       53.691        0.057        0.006       31.395        3.319        0.011      331.724       -0.074      865.937
12/21/2021  01:34:00       -6.309       17.388       -4.045        5.503        7.521        4.411       30.283       56.564       19.453        0.023        0.005       18.497        2.941        0.025      331.754       -0.026      865.959
12/21/2021  01:35:00       -2.472       20.787       -6.158       11.588       10.567        9.172      134.278      111.657       84.128        0.040        0.017       20.933        8.906        0.181      331.747       -0.041      865.957
12/21/2021  01:36:00       -2.259       12.215      -12.725       10.759       15.223       12.127      115.750      231.748      147.075        0.041        0.025       12.422        6.023        0.235      331.620       -0.248      865.949
12/21/2021  01:37:00       -2.524       12.574       -7.962       12.519       10.984        9.029      156.714      120.642       81.527        0.029        0.018       12.824        7.493        0.341      331.632       -0.227      865.931
12/21/2021  01:38:00       17.736        7.409       -5.718       11.393        6.948        8.056      129.796       48.271       64.907        0.032        0.012       19.221        5.746        0.089      331.577       -0.317      865.907
12/21/2021  01:39:00       34.961        2.620       -8.798        7.616        6.416        8.575       58.009       41.162       73.523        0.074        0.009       35.059        5.279        0.023      331.622       -0.243      865.908
12/21/2021  01:40:00       30.393        0.605      -10.574       13.580       12.803        7.163      184.418      163.927       51.308        0.072        0.020       30.399        5.471        0.032      331.604       -0.272      865.932
12/21/2021  01:41:00       45.696       18.150      -11.372        9.490        8.635        6.948       90.065       74.561       48.270        0.138        0.011       49.169        5.866        0.014      331.645       -0.205      865.953
12/21/2021  01:42:00       42.684       10.756       -6.304        4.545        4.004        3.416       20.656       16.029       11.672        0.101        0.002       44.019        2.708        0.004      331.686       -0.137      865.946
12/21/2021  01:43:00       28.060       16.157       -1.368       17.502       13.449        9.955      306.311      180.876       99.093        0.082        0.029       32.379        8.319        0.066      331.677       -0.154      865.914
12/21/2021  01:44:00       34.552       33.687       -0.997       15.969       13.258       10.001      254.994      175.771      100.014        0.143        0.027       48.256        3.237        0.005      331.572       -0.327      865.889
12/21/2021  01:45:00       57.389       34.622      -12.201       17.167       13.738        9.400      294.716      188.745       88.355        0.261        0.029       67.024        6.527        0.009      331.500       -0.447      865.886
12/21/2021  01:46:00       55.360       19.893       -9.733       18.778       11.085       11.909      352.619      122.873      141.830        0.209        0.031       58.826       11.211        0.036      331.501       -0.444      865.896
12/21/2021  01:47:00       47.681       12.867       -4.025       11.150       10.262        5.738      124.315      105.319       32.927        0.136        0.013       49.387        5.792        0.014      331.544       -0.371      865.930
12/21/2021  01:48:00       57.630       17.922       -9.859       10.841       10.078        9.423      117.533      101.557       88.794        0.202        0.015       60.352        4.468        0.005      331.642       -0.211      865.968
12/21/2021  01:49:00       60.344       31.775      -12.314       10.853       11.312        7.804      117.792      127.969       60.903        0.255        0.015       68.199        4.397        0.004      331.609       -0.263      865.984
12/21/2021  01:50:00       52.951       14.886      -11.068       16.147       18.478       11.356      260.723      341.433      128.948        0.194        0.037       55.003        5.736        0.011      331.631       -0.228      865.988
12/21/2021  01:51:00       36.988       18.070       -5.674       23.023       12.281        9.030      530.060      150.819       81.542        0.124        0.038       41.166        1.989        0.002      331.592       -0.295      865.993
12/21/2021  01:52:00       16.194       18.592       -2.196        9.674        8.053        8.257       93.593       64.847       68.183        0.042        0.011       24.655        4.268        0.030      331.581       -0.313      865.996
12/21/2021  01:53:00       14.768       34.421       -1.535        9.213        8.584        7.966       84.885       73.693       63.450        0.081        0.011       37.455        4.059        0.012      331.598       -0.285      865.969
12/21/2021  01:54:00       36.223       40.571       -7.515       14.251        8.728        7.083      203.097       76.180       50.166        0.167        0.016       54.389        3.823        0.005      331.587       -0.304      865.927
12/21/2021  01:55:00       53.334       48.307       -7.340        9.193        6.554        8.533       84.513       42.961       72.807        0.272        0.010       71.959        3.781        0.003      331.576       -0.321      865.906
12/21/2021  01:56:00       35.787       30.387       -6.077        9.503       10.099        7.131       90.315      101.998       50.856        0.124        0.012       46.947        4.108        0.008      331.578       -0.317      865.910
12/21/2021  01:57:00       43.078        8.793       -8.413        9.283        8.164        7.062       86.175       66.651       49.870        0.110        0.010       43.966        4.328        0.010      331.604       -0.270      865.899
12/21/2021  01:58:00       48.648       21.419       -7.067       11.905        6.595        6.458      141.734       43.493       41.709        0.155        0.011       53.154        6.160        0.013      331.598       -0.285      865.890
12/21/2021  01:59:00       23.306       23.648      -11.097       11.477       11.109        7.915      131.715      123.399       62.646        0.077        0.016       33.203        7.315        0.049      331.610       -0.260      865.909
12/21/2021  02:00:00      -23.497       14.989      -11.864       19.987       14.895       13.131      399.485      221.853      172.428        0.086        0.040       27.871       10.697        0.147      331.652       -0.193      865.945
12/21/2021  02:01:00       -5.194       31.645      -10.787       23.891       11.304       11.266      570.766      127.788      126.929        0.098        0.041       32.069        8.587        0.072      331.639       -0.214      865.977
12/21/2021  02:02:00       49.877       34.358       -4.494       23.685        8.047       10.033      560.982       64.757      100.662        0.221        0.036       60.566       11.854        0.038      331.620       -0.245      865.981
12/21/2021  02:03:00       79.325       32.997      -13.114       11.987       11.455        9.799      143.681      131.208       96.030        0.396        0.019       85.915        5.118        0.004      331.623       -0.240      865.954
12/21/2021  02:04:00       66.781       22.234      -10.878       17.348       16.932        8.987      300.954      286.691       80.769        0.287        0.033       70.385        6.255        0.008      331.650       -0.199      865.919
12/21/2021  02:05:00       77.001       43.131      -17.135       29.638       29.494       19.513      878.389      869.906      380.767        0.511        0.106       88.258        7.702        0.008      331.726       -0.072      865.926
12/21/2021  02:06:00       81.075       47.529      -19.826        8.119       10.632        7.961       65.915      113.042       63.382        0.473        0.012       93.980        3.611        0.001      331.633       -0.225      865.961
12/21/2021  02:07:00       73.572       27.249      -15.527        6.237        6.994        6.758       38.906       48.920       45.666        0.326        0.007       78.456        4.271        0.003      331.626       -0.234      865.978
12/21/2021  02:08:00       77.318       21.340       -8.657        9.844        7.555        6.079       96.899       57.080       36.955        0.335        0.010       80.209        2.860        0.001      331.618       -0.248      865.982
12/21/2021  02:09:00       87.755       22.697      -14.692        9.013        7.830        5.412       81.233       61.305       29.294        0.430        0.009       90.643        3.083        0.001      331.637       -0.219      865.975
12/21/2021  02:10:00       86.463       20.189      -13.340       25.374       15.586        8.787      643.829      242.929       77.206        0.451        0.048       88.789        6.489        0.005      331.634       -0.224      865.962
12/21/2021  02:11:00       87.019        3.154      -13.316       19.393       21.924       11.873      376.102      480.671      140.968        0.438        0.050       87.076        5.827        0.004      331.630       -0.231      865.968
12/21/2021  02:12:00      104.816       10.731      -13.064       10.881       13.450        9.802      118.392      180.907       96.077        0.583        0.020      105.364        7.732        0.005      331.615       -0.256      866.010
12/21/2021  02:13:00      119.975       20.641      -17.925       11.053       10.333        7.194      122.159      106.765       51.752        0.771        0.014      121.738        7.142        0.003      331.638       -0.217      866.035
12/21/2021  02:14:00      129.663        6.181      -12.947       13.926       11.490       16.876      193.929      132.028      284.802        0.881        0.031      129.810        8.033        0.004      331.619       -0.249      866.015
12/21/2021  02:15:00      109.265       25.151      -17.952       38.712       35.168       25.535     1498.624     1236.792      652.034        0.814        0.169      112.123        9.023        0.006      331.653       -0.192      865.965
12/21/2021  02:16:00      107.958       40.102      -18.592       45.230       29.922       24.496     2045.785      895.353      600.048        0.857        0.177      115.166       16.977        0.022      331.709       -0.101      865.925
12/21/2021  02:17:00       76.337        8.716        1.964       45.963       28.695       24.137     2112.642      823.417      582.574        0.471        0.176       76.833       26.166        0.116      331.611       -0.262      865.915
12/21/2021  02:18:00      119.263        0.085       -8.335       22.185       17.935       16.778      492.182      321.657      281.512        0.769        0.055      119.263       13.883        0.014      331.564       -0.339      865.904
12/21/2021  02:19:00      106.933        3.567       -7.283       18.244       10.506       13.359      332.828      110.369      178.469        0.606        0.031      106.992        9.920        0.009      331.562       -0.344      865.885
12/21/2021  02:20:00      110.233       -0.441       -7.080       26.916       15.061       13.152      724.446      226.823      172.962        0.666        0.056      110.234       11.467        0.011      331.543       -0.375      865.874
12/21/2021  02:21:00      131.813        4.917      -12.087       14.205       13.027       12.944      201.795      169.716      167.538        0.904        0.027      131.905        8.437        0.004      331.516       -0.421      865.875
12/21/2021  02:22:00      108.978        6.744      -16.031       35.221       20.305       16.780     1240.493      412.288      281.582        0.706        0.097      109.187        7.680        0.005      331.519       -0.416      865.870
12/21/2021  02:23:00      114.269       11.296       -3.970       24.755       14.167       16.692      612.808      200.699      278.613        0.715        0.055      114.826       14.939        0.017      331.518       -0.417      865.856
12/21/2021  02:24:00      117.412       16.771       -7.705       14.217       13.700        8.134      202.121      187.682       66.164        0.729        0.023      118.603        6.477        0.003      331.533       -0.393      865.860
12/21/2021  02:25:00       89.563       28.356      -16.032       13.762       11.132        8.503      189.399      123.922       72.305        0.473        0.019       93.944        6.522        0.005      331.528       -0.400      865.887
12/21/2021  02:26:00       86.079       43.464      -12.588       14.738       20.894        9.692      217.195      436.552       93.942        0.510        0.037       96.429        3.851        0.002      331.566       -0.337      865.922
12/21/2021  02:27:00       68.580       42.577      -16.887       28.036       34.641       17.838      785.993     1200.000      318.181        0.455        0.115       80.722       14.668        0.033      331.687       -0.137      865.946
12/21/2021  02:28:00       51.899       20.299      -19.015       25.282       27.275       16.790      639.158      743.936      281.889        0.257        0.083       55.727       12.730        0.052      331.660       -0.182      865.954
12/21/2021  02:29:00       64.154       12.758      -15.257       22.869       19.128       12.385      522.991      365.870      153.378        0.278        0.052       65.410        9.037        0.019      331.671       -0.162      865.957
12/21/2021  02:30:00       47.588       25.068      -14.941       25.089       25.913       15.945      629.466      671.491      254.257        0.234        0.078       53.787       15.335        0.081      331.704       -0.109      865.942
12/21/2021  02:31:00       31.081       16.771      -19.369       26.959       30.957       15.260      726.806      958.307      232.881        0.177        0.096       35.317        9.204        0.068      331.750       -0.031      865.925
12/21/2021  02:32:00       28.536        2.275      -11.492       22.996       20.116       12.794      528.839      404.665      163.677        0.102        0.055       28.627        6.771        0.056      331.677       -0.153      865.903
12/21/2021  02:33:00       53.775       17.988       -7.266       10.539       10.766        7.370      111.076      115.910       54.314        0.177        0.014       56.704        4.051        0.005      331.647       -0.203      865.901
12/21/2021  02:34:00       29.762       19.768       -3.173       19.297        9.718        8.130      372.365       94.441       66.090        0.091        0.027       35.729        9.901        0.077      331.632       -0.227      865.918
12/21/2021  02:35:00       17.773       12.930       -2.389       10.726        6.381        8.161      115.040       40.722       66.608        0.036        0.011       21.979        6.586        0.090      331.622       -0.246      865.929
12/21/2021  02:36:00       -2.579       13.404       -9.621       16.395        5.806        7.720      268.787       33.711       59.605        0.032        0.018       13.650        9.097        0.444      331.641       -0.212      865.936
12/21/2021  02:37:00      -22.719        5.784       -5.924       14.601       14.199        9.553      213.181      201.616       91.261        0.055        0.025       23.443        6.279        0.072      331.669       -0.166      865.940
12/21/2021  02:38:00       -4.004       -2.780       -3.274       18.023       13.712        9.727      324.811      188.014       94.606        0.032        0.030        4.874        9.443        3.753      331.694       -0.125      865.940
12/21/2021  02:39:00      -37.349       13.538       -4.994       29.619       17.819       12.361      877.310      317.503      152.793        0.148        0.067       39.727       12.677        0.102      331.682       -0.144      865.941
12/21/2021  02:40:00      -26.212       20.411       -0.602       17.982       12.647       10.281      323.369      159.937      105.693        0.085        0.029       33.221       10.431        0.099      331.636       -0.220      865.948
12/21/2021  02:41:00      -40.264       42.816       -6.486       10.562       17.313        8.661      111.554      299.733       75.011        0.199        0.024       58.774        5.432        0.009      331.663       -0.175      865.913
12/21/2021  02:42:00      -35.488       34.029       -6.809        8.843       10.929        7.193       78.205      119.444       51.746        0.136        0.012       49.167        6.854        0.019      331.695       -0.125      865.891
12/21/2021  02:43:00      -45.489       24.036      -13.760       10.251        8.242        7.323      105.078       67.933       53.621        0.153        0.011       51.449        5.033        0.010      331.733       -0.062      865.901
12/21/2021  02:44:00      -43.279       19.151       -9.691       12.145        8.429        6.785      147.508       71.050       46.043        0.130        0.013       47.327        6.552        0.019      331.734       -0.059      865.921
12/21/2021  02:45:00      -42.319       10.554      -10.769       22.653       13.571       12.978      513.139      184.163      168.437        0.144        0.043       43.615        4.683        0.012      331.803        0.054      865.947
12/21/2021  02:46:00      -24.255        2.541       -5.063       30.272       15.068        9.845      916.404      227.037       96.919        0.093        0.062       24.388        9.557        0.154      331.717       -0.088      865.964
12/21/2021  02:47:00      -13.504       -5.407        4.291       21.937       20.373       11.920      481.226      415.077      142.090        0.063        0.052       14.547       10.163        0.488      331.729       -0.067      865.973
12/21/2021  02:48:00      -11.618        0.094       -4.937       14.794       17.285       14.741      218.852      298.767      217.291        0.045        0.037       11.618       10.602        0.833      331.705       -0.105      865.969
12/21/2021  02:49:00      -11.544      -21.496       -8.782       32.152       20.420       13.347     1033.752      416.960      178.143        0.115        0.081       24.399        9.321        0.146      331.734       -0.060      865.951
12/21/2021  02:50:00      -31.055       -6.272      -16.545       14.563        5.765        5.595      212.076       33.237       31.300        0.078        0.014       31.682        4.404        0.019      331.693       -0.126      865.965
12/21/2021  02:51:00       -4.269        4.069      -10.335        5.545        7.002        7.843       30.743       49.030       61.520        0.014        0.007        5.897        2.079        0.124      331.708       -0.102      865.998
12/21/2021  02:52:00      -16.972        1.552       -7.353       17.619       12.930       10.497      310.431      167.193      110.187        0.047        0.029       17.043        9.883        0.336      331.764       -0.009      866.001
12/21/2021  02:53:00       -6.275       19.076       -9.270       15.913       15.515        9.161      253.229      240.718       83.922        0.053        0.029       20.082        9.560        0.227      331.698       -0.120      866.008
12/21/2021  02:54:00        7.506        5.964        0.489       10.117       12.556       10.552      102.360      157.653      111.339        0.023        0.019        9.587        4.861        0.257      331.694       -0.124      866.023
12/21/2021  02:55:00      -27.163      -18.688      -11.831       24.970       19.627       15.972      623.493      385.206      255.091        0.125        0.063       32.970       10.370        0.099      331.732       -0.063      866.044
12/21/2021  02:56:00       -2.187       -4.698       -8.986       13.092       16.905       16.481      171.406      285.794      271.612        0.042        0.036        5.182        9.334        3.245      331.769       -0.001      866.034
12/21/2021  02:57:00      -25.673      -33.042       -6.721       26.181       26.408       19.731      685.446      697.401      389.313        0.178        0.089       41.843        7.982        0.036      331.764       -0.010      866.004
12/21/2021  02:58:00      -65.361        1.141        0.219       45.032       35.616       23.494     2027.881     1268.502      551.984        0.406        0.192       65.371       21.317        0.106      331.582       -0.310      865.976
12/21/2021  02:59:00      -48.694      -20.291       -2.956       41.939       27.577       20.129     1758.893      760.490      405.176        0.286        0.146       52.752       18.283        0.120      331.582       -0.310      865.963
12/21/2021  03:00:00      -43.119       -2.575        3.462       35.987       23.553       18.152     1295.044      554.748      329.499        0.203        0.109       43.196       18.973        0.193      331.583       -0.308      865.965
12/21/2021  03:01:00      -28.569      -14.208       -8.127       31.446       24.484       18.805      988.851      599.488      353.610        0.151        0.097       31.907       10.030        0.099      331.646       -0.203      865.939
12/21/2021  03:02:00        5.784        6.494       -5.739       19.660       19.956       17.140      386.523      398.227      293.765        0.059        0.054        8.697       14.845        2.914      331.532       -0.392      865.902
12/21/2021  03:03:00       -9.408      -12.944       -5.551       18.430       18.223       12.195      339.675      332.083      148.718        0.055        0.041       16.002        9.510        0.353      331.466       -0.503      865.877
12/21/2021  03:04:00      -36.503      -12.566        2.167       31.591       19.076       16.730      998.005      363.891      279.883        0.157        0.082       38.605       17.568        0.207      331.545       -0.372      865.867
12/21/2021  03:05:00      -51.103      -21.238        0.296       43.919       21.136       22.800     1928.862      446.738      519.845        0.298        0.145       55.341       25.332        0.210      331.520       -0.414      865.862
12/21/2021  03:06:00      -18.412       10.758       -1.657       21.679       21.725       14.210      469.979      471.973      201.936        0.080        0.057       21.325       13.250        0.386      331.532       -0.394      865.867
12/21/2021  03:07:00      -29.280        1.832        2.099       30.312       23.891       19.668      918.802      570.784      386.847        0.137        0.094       29.338       15.740        0.288      331.460       -0.512      865.874
12/21/2021  03:08:00      -58.036       -2.126       -6.223       39.231       27.616       23.261     1539.046      762.668      541.086        0.313        0.142       58.075       23.123        0.159      331.464       -0.504      865.897
12/21/2021  03:09:00      -60.245       16.606      -17.434       41.868       31.496       18.983     1752.921      992.015      360.356        0.366        0.155       62.492       11.382        0.033      331.428       -0.565      865.931
12/21/2021  03:10:00      -73.399        8.149      -10.856       33.267       42.736       21.494     1106.715     1826.352      461.980        0.448        0.170       73.850       11.202        0.023      331.373       -0.654      865.940
12/21/2021  03:11:00      -84.073       18.906       -9.631       39.656       26.226       16.022     1572.621      687.821      256.714        0.502        0.126       86.172       15.679        0.033      331.336       -0.715      865.941
12/21/2021  03:12:00      -66.836       17.844       -1.908       29.628       25.269       19.871      877.790      638.508      394.847        0.335        0.096       69.177       14.377        0.043      331.332       -0.722      865.930
12/21/2021  03:13:00      -47.228       30.955        0.656       33.267       22.161       16.845     1106.725      491.093      283.751        0.254        0.094       56.469       14.664        0.067      331.339       -0.709      865.916
12/21/2021  03:14:00      -31.621        8.972       -4.439       31.622       22.583       16.170      999.971      509.984      261.463        0.144        0.089       32.869       14.273        0.189      331.371       -0.657      865.911
12/21/2021  03:15:00      -87.191       14.496       -1.731       41.355       24.193       20.910     1710.261      585.324      437.212        0.527        0.137       88.388       15.039        0.029      331.421       -0.576      865.908
12/21/2021  03:16:00      -89.840       17.088       -2.715       42.426       23.075       19.952     1800.008      532.443      398.063        0.555        0.137       91.451       14.844        0.026      331.430       -0.562      865.893
12/21/2021  03:17:00      -67.324        6.516       -2.951       52.607       40.567       25.114     2767.497     1645.693      630.705        0.481        0.252       67.639       26.277        0.151      331.340       -0.707      865.893
12/21/2021  03:18:00      -90.410       21.493       -3.693       61.929       44.334       29.659     3835.249     1965.486      879.627        0.766        0.334       92.930       30.404        0.107      331.280       -0.807      865.870
12/21/2021  03:19:00      -88.141        0.953       -5.795       49.840       38.907       25.778     2484.051     1513.721      664.518        0.623        0.233       88.147       20.712        0.055      331.243       -0.867      865.831
12/21/2021  03:20:00      -69.329        5.574      -17.096       59.866       29.989       19.808     3583.928      899.322      392.376        0.500        0.244       69.553       14.519        0.044      331.262       -0.835      865.781
12/21/2021  03:21:00        0.422       18.628      -14.775        7.749       11.353       16.258       60.047      128.901      264.316        0.051        0.023       18.633        9.496        0.260      331.287       -0.795      865.745
12/21/2021  03:22:00      -24.524       38.605       -7.716       13.031       12.611        9.941      169.796      159.041       98.823        0.129        0.021       45.736        8.880        0.038      331.303       -0.769      865.709
12/21/2021  03:23:00      -26.428       10.106      -10.408       10.366        6.189        9.290      107.449       38.304       86.305        0.057        0.012       28.294        3.451        0.015      331.306       -0.764      865.684
12/21/2021  03:24:00      -50.224       15.202       -6.439        7.429       11.228        9.997       55.192      126.064       99.936        0.154        0.014       52.474        3.673        0.005      331.322       -0.738      865.661
12/21/2021  03:25:00      -39.556       16.309       -9.829        9.522        6.321        6.931       90.677       39.955       48.045        0.105        0.009       42.787        5.458        0.016      331.289       -0.793      865.662
12/21/2021  03:26:00      -16.899       15.164       -4.167       14.835        8.239        7.920      220.077       67.878       62.731        0.044        0.018       22.705        5.700        0.063      331.341       -0.707      865.659
12/21/2021  03:27:00       21.310        9.715       -7.221       18.284       11.185        8.461      334.302      125.101       71.586        0.057        0.027       23.420        7.335        0.098      331.347       -0.696      865.626
12/21/2021  03:28:00       36.704        7.642      -13.767       24.069       41.600       18.028      579.326     1730.585      325.026        0.211        0.132       37.492       10.338        0.076      331.302       -0.770      865.587
12/21/2021  03:29:00       29.942      -21.205      -18.761       22.407       26.526       19.734      502.067      703.632      389.444        0.165        0.080       36.690       16.117        0.193      331.199       -0.939      865.594
12/21/2021  03:30:00       31.410       -5.636       -8.745       28.878       21.241       13.484      833.925      451.179      181.819        0.128        0.073       31.912       16.084        0.254      331.236       -0.878      865.618
12/21/2021  03:31:00       40.067        3.919       -8.355       11.624       11.791        6.707      135.112      139.027       44.990        0.100        0.016       40.258        4.726        0.014      331.264       -0.832      865.637
12/21/2021  03:32:00       46.228       13.720       -5.529        8.393       10.914        6.412       70.446      119.123       41.118        0.129        0.012       48.221        4.701        0.010      331.267       -0.828      865.630
12/21/2021  03:33:00       43.065       12.190      -12.061       21.789       24.050       12.549      474.769      578.386      157.472        0.168        0.061       44.757       10.662        0.057      331.229       -0.890      865.600
12/21/2021  03:34:00        8.411      -13.968       -9.922       26.846       25.389       22.659      720.721      644.623      513.414        0.112        0.094       16.305       12.066        0.548      331.251       -0.854      865.571
12/21/2021  03:35:00       59.381       -4.894      -11.005       24.044       15.688       11.219      578.114      246.111      125.866        0.231        0.048       59.583        7.732        0.017      331.177       -0.975      865.547
12/21/2021  03:36:00       64.130       21.946       -7.758       16.092       16.496        9.133      258.953      272.127       83.408        0.263        0.031       67.782        7.634        0.013      331.107       -1.091      865.504
12/21/2021  03:37:00       51.751       28.937       -8.136        7.337        8.256        8.573       53.834       68.158       73.491        0.189        0.010       59.291        4.727        0.006      330.987       -1.288      865.490
12/21/2021  03:38:00       51.286       13.764       -7.208       17.661        9.033        8.343      311.908       81.591       69.606        0.167        0.023       53.101        8.785        0.027      331.018       -1.238      865.483
12/21/2021  03:39:00       52.763        9.817       -6.068       15.346       12.852        9.549      235.511      165.175       91.175        0.170        0.025       53.669        7.144        0.018      331.030       -1.218      865.474
12/21/2021  03:40:00       39.248       17.916       -5.158       17.998       12.394        9.174      323.916      153.600       84.169        0.122        0.028       43.144        5.852        0.018      331.013       -1.246      865.470
12/21/2021  03:41:00       36.424       15.005       -5.564       12.989       11.434        8.548      168.713      130.743       73.073        0.098        0.019       39.394        4.402        0.012      331.001       -1.265      865.478
12/21/2021  03:42:00       81.504       29.641       -4.513       32.799       18.195        9.942     1075.806      331.056       98.843        0.452        0.075       86.727       14.323        0.027      331.071       -1.150      865.480
12/21/2021  03:43:00      113.744       34.113       -9.492       14.408       18.032       12.423      207.594      325.152      154.333        0.744        0.034      118.749       10.154        0.007      331.111       -1.084      865.474
12/21/2021  03:44:00       94.987       41.518      -10.039       30.434       24.061       12.535      926.229      578.935      157.139        0.625        0.083      103.664       10.255        0.010      331.111       -1.086      865.477
12/21/2021  03:45:00       16.486        3.010      -12.161       20.709       32.319       20.528      428.844     1044.546      421.413        0.116        0.095       16.759       12.158        0.526      331.077       -1.140      865.504
12/21/2021  03:46:00       51.525       -7.100       -6.712       24.125       23.115       13.966      582.011      534.287      195.047        0.203        0.066       52.012        8.954        0.030      331.101       -1.100      865.514
12/21/2021  03:47:00       64.992       21.583       -5.189       13.332       13.898        9.530      177.742      193.155       90.814        0.259        0.023       68.482        6.224        0.008      331.046       -1.191      865.490
12/21/2021  03:48:00       68.113       30.373       -5.144       13.240       16.626        7.775      175.285      276.417       60.458        0.305        0.026       74.578        9.157        0.015      331.051       -1.183      865.478
12/21/2021  03:49:00       74.029       31.416       -9.918       14.352       13.968       10.043      205.969      195.111      100.856        0.353        0.025       80.419        5.997        0.006      331.071       -1.150      865.469
12/21/2021  03:50:00       87.687       44.978      -10.198        9.460       13.518        7.525       89.500      182.745       56.620        0.507        0.016       98.549        4.506        0.002      331.051       -1.182      865.430
12/21/2021  03:51:00       91.798       48.674      -10.637       15.741       13.855       12.396      247.779      191.973      153.661        0.575        0.030      103.904        8.213        0.006      331.028       -1.222      865.386
12/21/2021  03:52:00       63.876       12.632      -15.044       31.281       21.771       14.657      978.496      473.974      214.821        0.307        0.083       65.114       13.240        0.041      331.064       -1.164      865.377
12/21/2021  03:53:00       74.118       19.130       -9.053       22.151       16.618       12.574      490.649      276.156      158.103        0.343        0.046       76.547       10.862        0.020      331.007       -1.257      865.408
12/21/2021  03:54:00       88.460       35.573      -13.724        7.277        8.914        8.491       52.953       79.453       72.103        0.474        0.010       95.345        3.400        0.001      331.014       -1.244      865.421
12/21/2021  03:55:00       88.576       47.097      -15.962       13.545       18.728       11.952      183.460      350.739      142.840        0.550        0.034      100.319        3.424        0.001      331.028       -1.224      865.421
12/21/2021  03:56:00       66.713       41.568      -12.238       29.924       23.731       19.177      895.459      563.161      367.761        0.408        0.091       78.604       12.568        0.026      331.005       -1.259      865.422
12/21/2021  03:57:00       70.755       34.601      -12.241       31.382       21.283       16.948      984.850      452.981      287.240        0.404        0.086       78.762       14.361        0.033      330.999       -1.269      865.404
12/21/2021  03:58:00       60.456        9.530       -8.776       21.214       23.151        9.688      450.045      535.972       93.863        0.245        0.054       61.203        6.429        0.011      330.981       -1.299      865.355
12/21/2021  03:59:00       82.589       49.222       -8.914       13.304       13.867       10.410      176.990      192.305      108.375        0.490        0.024       96.144        8.336        0.008      330.980       -1.302      865.326
12/21/2021  04:00:00       67.635       53.295       -8.885       16.474        9.039        7.918      271.380       81.707       62.695        0.395        0.021       86.110        6.565        0.006      330.973       -1.311      865.323
12/21/2021  04:01:00       65.774       55.400      -11.029       17.207       12.156       11.961      296.066      147.759      143.067        0.405        0.029       85.996        8.800        0.010      330.981       -1.299      865.321
12/21/2021  04:02:00       62.739       48.346       -4.977       20.182        9.815        9.712      407.315       96.341       94.316        0.345        0.030       79.205        7.940        0.010      330.979       -1.302      865.325
12/21/2021  04:03:00       80.648       51.737       -8.723       22.690       10.731        8.342      514.845      115.163       69.594        0.498        0.035       95.816        6.843        0.005      330.998       -1.270      865.320
12/21/2021  04:04:00       98.076       33.931      -11.591       14.828       19.036        6.959      219.880      362.373       48.425        0.577        0.032      103.780        4.710        0.002      330.993       -1.276      865.292
12/21/2021  04:05:00       92.899       16.130       -8.883       19.058       17.080       11.299      363.206      291.722      127.673        0.488        0.039       94.289        9.045        0.009      330.979       -1.301      865.274
12/21/2021  04:06:00       42.628       15.063       -2.150       32.494       23.959       19.300     1055.888      574.052      372.496        0.203        0.100       45.211       16.472        0.133      330.976       -1.308      865.276
12/21/2021  04:07:00       14.506       11.866      -16.158       19.591       21.967       14.244      383.797      482.569      202.878        0.084        0.053       18.741       10.631        0.322      330.971       -1.316      865.270
12/21/2021  04:08:00       20.237        6.878      -13.203       19.320       28.829       13.057      373.275      831.111      170.472        0.100        0.069       21.374        9.069        0.180      330.978       -1.304      865.248
12/21/2021  04:09:00       24.847       30.326        0.762       15.442       17.883       14.788      238.457      319.793      218.695        0.116        0.039       39.206       10.960        0.078      330.929       -1.384      865.208
12/21/2021  04:10:00       26.982       20.011       -5.743       17.223       12.517       11.171      296.632      156.686      124.789        0.087        0.029       33.592        9.186        0.075      330.946       -1.356      865.180
12/21/2021  04:11:00       49.377       22.292       -3.534       19.378       14.311        9.610      375.500      204.812       92.357        0.181        0.034       54.175        8.014        0.022      330.946       -1.355      865.156
12/21/2021  04:12:00       85.671       20.531       -7.218       25.836       18.654        9.768      667.490      347.984       95.413        0.446        0.056       88.097        5.012        0.003      330.957       -1.337      865.108
12/21/2021  04:13:00       95.139       10.598       -7.603       22.100       14.571       13.119      488.400      212.310      172.108        0.505        0.044       95.727       11.489        0.014      330.942       -1.364      865.075
12/21/2021  04:14:00       78.532       10.355       -4.945       18.762       17.598       13.054      352.027      309.705      170.410        0.357        0.042       79.212        6.545        0.007      330.882       -1.461      865.059
12/21/2021  04:15:00       83.664       32.664      -10.782       13.947        7.307        6.096      194.520       53.389       37.158        0.423        0.014       89.814        5.997        0.004      330.948       -1.352      865.069
12/21/2021  04:16:00       59.024       40.694      -11.677        8.860       11.901        8.396       78.502      141.638       70.494        0.278        0.015       71.693        5.512        0.006      330.938       -1.370      865.077
12/21/2021  04:17:00       36.909       40.878       -8.909       15.309       10.214       10.278      234.367      104.329      105.637        0.178        0.022       55.075        8.458        0.024      330.948       -1.352      865.077
12/21/2021  04:18:00       24.182       22.684       -6.564       12.099       14.006        8.754      146.381      196.158       76.625        0.078        0.021       33.156        8.647        0.068      331.002       -1.266      865.086
12/21/2021  04:19:00       21.552       16.173       -0.918       16.245       11.395        5.741      263.900      129.851       32.954        0.058        0.021       26.946        5.365        0.040      330.975       -1.309      865.098
12/21/2021  04:20:00       32.551       25.267       -3.226       11.808        9.285        6.724      139.440       86.213       45.211        0.099        0.014       41.207        5.910        0.021      330.961       -1.334      865.098
12/21/2021  04:21:00       32.376       31.129       -7.414       10.299       14.079        7.552      106.066      198.214       57.039        0.122        0.018       44.913        6.839        0.023      330.973       -1.312      865.110
12/21/2021  04:22:00       18.888       18.907       -4.512        7.725        9.534        6.182       59.683       90.891       38.217        0.046        0.009       26.725        4.340        0.026      330.979       -1.302      865.125
12/21/2021  04:23:00       -0.040       14.119       -1.360       13.678       10.959        9.742      187.077      120.109       94.912        0.030        0.020       14.119        9.947        0.496      330.914       -1.409      865.132
12/21/2021  04:24:00      -31.946        4.086      -17.842       16.614       12.739        9.308      276.031      162.290       86.639        0.094        0.026       32.207        7.913        0.060      330.722       -1.722      865.141
12/21/2021  04:25:00      -34.713       18.288       -5.968       16.634       13.060       12.103      276.678      170.564      146.479        0.108        0.030       39.235        7.120        0.033      330.596       -1.930      865.145
12/21/2021  04:26:00      -26.220       19.806       -8.221        7.960       10.169        7.298       63.367      103.404       53.256        0.068        0.011       32.860        5.683        0.030      330.526       -2.047      865.127
12/21/2021  04:27:00      -25.699       15.930      -15.503       16.900       10.078        9.517      285.596      101.556       90.564        0.082        0.024       30.236        9.351        0.096      330.636       -1.864      865.118
12/21/2021  04:28:00      -46.324       28.522      -15.347       11.566       10.095        9.714      133.766      101.912       94.364        0.176        0.017       54.401        4.029        0.005      330.546       -2.015      865.118
12/21/2021  04:29:00      -54.074       20.516      -10.570       10.234       11.562       10.347      104.734      133.672      107.066        0.190        0.017       57.835        5.824        0.010      330.476       -2.127      865.121
12/21/2021  04:30:00      -15.460       -1.497      -11.881       20.887       16.418       11.626      436.268      269.559      135.158        0.061        0.042       15.532        6.795        0.191      330.547       -2.011      865.136
12/21/2021  04:31:00      -64.326       21.559      -17.036       15.844       11.941       11.541      251.027      142.578      133.204        0.271        0.026       67.842        7.854        0.013      330.559       -1.992      865.142
12/21/2021  04:32:00      -54.052        5.920      -16.426       33.232       18.648       18.977     1104.371      347.750      360.135        0.252        0.091       54.376       12.604        0.054      330.578       -1.961      865.152
12/21/2021  04:33:00      -85.006       26.486      -10.718       39.265       22.098       16.393     1541.756      488.343      268.715        0.517        0.115       89.037       16.492        0.034      330.530       -2.038      865.156
12/21/2021  04:34:00     -126.611       29.394      -14.889       21.646       23.147       16.684      468.558      535.766      278.365        0.920        0.064      129.978        8.737        0.005      330.421       -2.218      865.145
12/21/2021  04:35:00     -104.106       44.253      -12.552       48.851       38.755       29.143     2386.398     1501.935      849.334        0.884        0.237      113.121       25.010        0.049      330.266       -2.472      865.134
12/21/2021  04:36:00     -164.964       42.763      -15.111       39.625       37.915       24.508     1570.117     1437.545      600.654        1.644        0.180      170.416       16.435        0.009      330.273       -2.460      865.145
12/21/2021  04:37:00     -113.984       40.655      -12.289       43.196       38.545       23.435     1865.862     1485.737      549.215        0.935        0.195      121.018       19.972        0.027      330.217       -2.553      865.174
12/21/2021  04:38:00     -107.796       44.582      -15.748       34.568       21.378       16.628     1194.922      457.020      276.497        0.789        0.096      116.651       15.154        0.017      330.322       -2.380      865.180
12/21/2021  04:39:00      -71.749       48.181      -11.836       36.452       20.737       17.807     1328.765      430.034      317.091        0.484        0.104       86.425       12.444        0.021      330.277       -2.453      865.153
12/21/2021  04:40:00      -91.346       30.372      -11.736       44.493       22.339       20.706     1979.653      499.035      428.735        0.616        0.145       96.263       14.110        0.021      330.302       -2.412      865.129
12/21/2021  04:41:00     -128.616       47.241      -15.495       43.352       34.031       23.937     1879.422     1158.126      572.986        1.131        0.181      137.018       15.373        0.013      330.267       -2.470      865.118
12/21/2021  04:42:00     -130.656       30.997      -31.829       26.433       23.319       22.389      698.710      543.766      501.254        1.039        0.087      134.282        9.730        0.005      330.250       -2.498      865.105
12/21/2021  04:43:00     -115.077       31.718      -20.906       41.432       25.477       22.863     1716.577      649.087      522.720        0.879        0.144      119.368        9.673        0.007      330.260       -2.480      865.106
12/21/2021  04:44:00      -65.010       15.892       -8.184       47.900       20.399       20.655     2294.366      416.131      426.633        0.384        0.157       66.924       21.113        0.100      330.237       -2.519      865.120
12/21/2021  04:45:00     -113.633       30.239      -15.324       23.912       21.568       19.263      571.794      465.165      371.059        0.773        0.070      117.588        9.709        0.007      330.268       -2.467      865.104
12/21/2021  04:46:00      -78.972       22.586      -12.276       49.458       31.195       19.051     2446.055      973.140      362.939        0.534        0.189       82.139       20.756        0.064      330.251       -2.495      865.069
12/21/2021  04:47:00      -40.652        6.662       -9.103       34.999       29.331       23.972     1224.946      860.317      574.646        0.222        0.133       41.194       18.792        0.208      330.248       -2.500      865.057
12/21/2021  04:48:00     -101.563       21.341      -16.774       47.490       33.835       20.303     2255.329     1144.815      412.198        0.743        0.191      103.781       12.979        0.016      330.189       -2.598      865.042
12/21/2021  04:49:00      -23.500       -8.498       -2.450       32.991       21.132       17.310     1088.384      446.554      299.645        0.123        0.092       24.989       13.643        0.298      330.253       -2.492      865.044
12/21/2021  04:50:00      -19.390       13.685      -15.087       17.197       16.643       15.417      295.737      276.979      237.682        0.080        0.041       23.733       11.967        0.254      330.204       -2.574      865.027
12/21/2021  04:51:00        1.696       -3.361       -8.472       13.407       14.153        8.545      179.737      200.311       73.018        0.027        0.023        3.765        5.777        2.354      330.330       -2.365      864.978
12/21/2021  04:52:00       32.570       19.809      -10.960       27.633       19.491       13.040      763.570      379.885      170.054        0.144        0.066       38.121       10.212        0.072      330.578       -1.960      864.933
12/21/2021  04:53:00       71.280        3.869      -29.697       15.153       26.888       15.961      229.599      722.950      254.740        0.359        0.060       71.384       12.478        0.031      330.602       -1.921      864.899
12/21/2021  04:54:00        6.412       10.855      -12.192       28.491       14.178        9.822      811.754      201.009       96.469        0.071        0.055       12.608        6.330        0.252      330.439       -2.187      864.928
12/21/2021  04:55:00      -30.531       -4.036      -16.517       33.156       20.952       27.874     1099.327      438.970      776.937        0.177        0.116       30.796       18.613        0.365      330.419       -2.221      865.009
12/21/2021  04:56:00       -4.884        8.156       -8.446       23.439       26.783       17.956      549.365      717.327      322.421        0.088        0.079        9.506       14.714        2.396      330.213       -2.557      865.025
12/21/2021  04:57:00      -32.275       27.865       -3.465       18.954       14.229       12.672      359.246      202.468      160.580        0.128        0.036       42.640       11.475        0.072      330.198       -2.583      864.965
12/21/2021  04:58:00      -57.632       29.023      -10.848       12.522       18.449       10.692      156.802      340.368      114.324        0.245        0.031       64.528        9.654        0.022      330.302       -2.411      864.918
12/21/2021  04:59:00      -57.699       18.469      -13.049       12.501       12.904        7.899      156.274      166.502       62.401        0.211        0.019       60.582        3.558        0.003      330.305       -2.408      864.911
12/21/2021  05:00:00      -41.644       17.305       -5.585       10.332        9.947        7.431      106.759       98.945       55.225        0.116        0.013       45.097        4.726        0.011      330.369       -2.302      864.908
12/21/2021  05:01:00      -23.143       -0.684       -9.530       16.139       15.232        9.532      260.482      232.001       90.850        0.060        0.029       23.153        9.081        0.154      330.459       -2.155      864.914
12/21/2021  05:02:00        7.481        2.078        1.343       20.529       15.062       15.872      421.420      226.855      251.934        0.048        0.045        7.764       10.546        1.845      330.387       -2.272      864.933
12/21/2021  05:03:00      -64.354       22.748      -14.313       30.072       18.452       12.466      904.351      340.494      155.399        0.313        0.070       68.256        9.269        0.018      330.273       -2.460      864.943
12/21/2021  05:04:00      -62.569       28.892       -9.762       30.784       22.106       17.420      947.683      488.664      303.463        0.329        0.087       68.917       17.184        0.062      330.237       -2.519      864.952
12/21/2021  05:05:00     -120.231       25.062       -4.533       61.433       45.016       33.404     3773.964     2026.475     1115.851        1.101        0.346      122.815       30.882        0.063      330.112       -2.724      864.992
12/21/2021  05:06:00      -92.177       12.472       -5.594       80.283       42.367       39.792     6445.426     1794.984     1583.373        0.925        0.491       93.017       37.032        0.158      330.042       -2.840      865.062
12/21/2021  05:07:00     -112.103       43.576       -2.024       41.976       35.276       24.756     1761.945     1244.404      612.841        0.904        0.181      120.275       17.826        0.022      329.994       -2.917      865.110
12/21/2021  05:08:00      -98.064       52.997      -11.793       43.499       37.300       21.008     1892.201     1391.271      441.329        0.814        0.186      111.469       22.195        0.040      329.940       -3.006      865.075
12/21/2021  05:09:00     -101.792       37.050      -15.872       40.092       23.376       20.205     1607.376      546.440      408.238        0.727        0.128      108.325       22.343        0.043      330.013       -2.887      865.022
12/21/2021  05:10:00      -35.562       12.308       -9.391       56.867       25.584       22.428     3233.840      654.542      503.033        0.295        0.220       37.632       23.697        0.397      330.044       -2.834      865.009
12/21/2021  05:11:00      -62.871       13.712       -0.198       54.020       26.675       27.788     2918.178      711.571      772.197        0.427        0.220       64.349       28.091        0.191      330.021       -2.873      865.030
12/21/2021  05:12:00      -14.479       15.050       -3.392       38.036       23.847       27.350     1446.752      568.671      748.000        0.161        0.138       20.884       22.711        1.183      329.973       -2.950      865.050
12/21/2021  05:13:00     -109.473       21.895       -5.871       69.888       31.958       21.103     4884.350     1021.327      445.335        0.942        0.318      111.641       20.188        0.033      330.051       -2.824      865.058
12/21/2021  05:14:00      -85.016       37.026        2.841       67.303       35.945       29.180     4529.634     1292.008      851.459        0.764        0.334       92.729       33.375        0.130      329.954       -2.983      865.051
12/21/2021  05:15:00     -120.963       45.772       -9.296       49.253       37.324       25.945     2425.878     1393.117      673.129        1.065        0.225      129.334       27.055        0.044      329.852       -3.150      865.027
12/21/2021  05:16:00     -128.359       54.723      -17.236       30.951       26.162       22.349      957.957      684.474      499.478        1.095        0.107      139.538        9.851        0.005      329.898       -3.074      865.010
12/21/2021  05:17:00      -78.829       11.112      -11.163       44.137       34.613       23.818     1948.103     1198.088      567.317        0.509        0.186       79.608       15.451        0.038      329.922       -3.033      865.013
12/21/2021  05:18:00      -81.181       11.927      -17.564       32.133       32.794       21.796     1032.528     1075.457      475.074        0.481        0.129       82.053       12.079        0.022      329.981       -2.939      865.020
12/21/2021  05:19:00      -26.968       43.686       -9.324       30.627       42.457       21.389      937.995     1802.564      457.475        0.296        0.160       51.339       17.221        0.113      329.989       -2.924      865.018
12/21/2021  05:20:00      -18.146       -7.267       -5.779       19.693       19.879       20.026      387.826      395.192      401.032        0.080        0.059       19.547       13.207        0.457      329.933       -3.016      865.002
12/21/2021  05:21:00       -7.346      -15.885       -0.227       13.791       15.692        8.143      190.205      246.236       66.317        0.040        0.025       17.501        7.321        0.175      330.128       -2.698      865.007
12/21/2021  05:22:00      -17.565       -2.792        0.671       19.938       15.276        9.250      397.514      233.345       85.560        0.052        0.036       17.785        4.550        0.065      330.194       -2.587      865.017
12/21/2021  05:23:00        2.818       12.486       -8.261       16.650       16.897       11.694      277.219      285.512      136.741        0.047        0.035       12.800        8.804        0.473      330.071       -2.791      865.025
12/21/2021  05:24:00        6.762       -7.912      -15.625        7.861       11.906        9.870       61.799      141.755       97.412        0.033        0.015       10.408        7.058        0.460      330.128       -2.699      865.045
12/21/2021  05:25:00        2.413        0.486       -7.357        5.933       11.802        8.298       35.199      139.283       68.860        0.015        0.012        2.461        4.373        3.156      330.168       -2.632      865.035
12/21/2021  05:26:00       -4.135       -1.797       -3.300        5.400        4.498        4.119       29.156       20.228       16.967        0.005        0.003        4.508        2.696        0.358      330.184       -2.605      865.052
12/21/2021  05:27:00      -10.867       -5.684       -7.935       22.416       13.361       15.774      502.497      178.518      248.818        0.057        0.046       12.264       12.312        1.008      330.160       -2.646      865.086
12/21/2021  05:28:00      -46.205       -1.861       -7.689       42.269       27.785       22.443     1786.656      771.984      503.674        0.263        0.153       46.243       10.474        0.051      330.072       -2.791      865.105
12/21/2021  05:29:00      -96.101       25.939       -9.651       46.212       26.183       24.325     2135.595      685.524      591.699        0.671        0.171       99.540       25.333        0.065      330.069       -2.795      865.103
12/21/2021  05:30:00      -78.523       15.064       -2.263       48.650       32.901       18.099     2366.808     1082.472      327.564        0.509        0.189       79.955       18.410        0.053      330.033       -2.853      865.088
12/21/2021  05:31:00      -83.545       15.764       -7.312       30.729       29.566       18.821      944.270      874.130      354.237        0.473        0.109       85.019       19.815        0.054      330.097       -2.748      865.067
12/21/2021  05:32:00      -72.677       23.249       -9.496       23.670       16.496       14.886      560.292      272.122      221.582        0.348        0.053       76.305       10.722        0.020      330.092       -2.758      865.044
12/21/2021  05:33:00      -30.888       13.889        3.754       22.613       13.086       16.259      511.339      171.250      264.354        0.105        0.047       33.867       14.657        0.187      330.094       -2.753      865.014
12/21/2021  05:34:00      -52.293       17.568       -9.786       29.843       16.395       15.459      890.583      268.787      238.969        0.227        0.070       55.165       12.688        0.053      330.120       -2.712      865.035
12/21/2021  05:35:00     -106.009       25.854      -13.840       39.659       23.281       17.927     1572.856      541.984      321.383        0.727        0.122      109.116       11.918        0.012      330.074       -2.786      865.102
12/21/2021  05:36:00      -38.215       -4.166      -15.800       39.898       26.497       24.868     1591.859      702.068      618.419        0.232        0.146       38.442       20.490        0.284      330.048       -2.829      865.146
12/21/2021  05:37:00      -50.978       10.344      -13.126       35.469       28.899       20.393     1258.055      835.133      415.871        0.269        0.125       52.016       16.972        0.106      330.075       -2.785      865.125
12/21/2021  05:38:00      -58.911       22.365      -13.194       21.125       13.388       12.551      446.276      179.239      157.535        0.246        0.039       63.013        7.857        0.016      330.012       -2.890      865.069
12/21/2021  05:39:00      -97.353       27.416       -5.569       18.927       15.722       14.233      358.228      247.187      202.576        0.553        0.040      101.139        8.738        0.007      330.041       -2.841      865.049
12/21/2021  05:40:00      -67.653        1.231      -13.711       50.894       31.270       25.027     2590.217      977.829      626.366        0.448        0.210       67.664       16.280        0.058      330.040       -2.841      865.086
12/21/2021  05:41:00      -16.147       10.165       -0.122       85.899       40.398       28.603     7378.618     1632.004      818.126        0.509        0.491       19.080       11.872        0.387      329.974       -2.949      865.139
12/21/2021  05:42:00     -151.090       27.716        2.328       62.211       56.203       37.845     3870.233     3158.787     1432.216        1.603        0.423      153.611       39.343        0.066      329.940       -3.006      865.140
12/21/2021  05:43:00     -101.868       16.532      -14.261       60.375       34.929       26.446     3645.126     1220.060      699.372        0.821        0.278      103.200       23.790        0.053      329.819       -3.203      865.108
12/21/2021  05:44:00     -111.957       57.309       -9.835       67.167       29.529       29.319     4511.472      871.972      859.619        1.108        0.312      125.773       36.456        0.084      329.766       -3.291      865.095
12/21/2021  05:45:00     -127.699       34.105      -20.186       29.625       30.427       21.738      877.660      925.808      472.523        1.008        0.114      132.175       13.582        0.011      329.829       -3.188      865.141
12/21/2021  05:46:00     -106.130       16.970      -10.016       49.943       36.930       24.720     2494.312     1363.855      611.066        0.806        0.223      107.478       22.663        0.044      329.845       -3.160      865.166
12/21/2021  05:47:00     -109.725       32.877       -8.768       50.992       33.033       23.563     2600.176     1091.151      555.194        0.872        0.212      114.545       22.972        0.040      329.864       -3.129      865.126
12/21/2021  05:48:00     -117.403       15.558       -8.344       35.551       25.957       18.853     1263.838      673.791      355.443        0.819        0.115      118.429       17.055        0.021      329.897       -3.074      865.097
12/21/2021  05:49:00     -101.644       22.238       -7.365       34.225       31.525       18.528     1171.339      993.799      343.295        0.669        0.125      104.048       16.947        0.027      329.848       -3.156      865.086
12/21/2021  05:50:00      -81.064       18.964        2.456       56.324       25.593       19.808     3172.427      654.978      392.374        0.558        0.211       83.253       21.850        0.069      329.805       -3.227      865.061
12/21/2021  05:51:00      -38.280       28.352        0.620       40.659       28.785       21.397     1653.165      828.569      457.845        0.260        0.147       47.636       24.712        0.269      329.835       -3.178      865.031
12/21/2021  05:52:00      -68.347       38.010       -5.247       36.513       28.017       22.612     1333.197      784.946      511.287        0.439        0.131       78.205       17.686        0.051      329.659       -3.465      865.009
12/21/2021  05:53:00      -74.596       15.495      -12.192       25.302       26.482       16.746      640.196      701.318      280.437        0.379        0.081       76.189       12.399        0.026      329.744       -3.325      865.034
12/21/2021  05:54:00      -60.513       27.731       -4.124       34.447       23.816       16.485     1186.629      567.182      271.768        0.324        0.101       66.565       14.216        0.046      329.822       -3.201      865.072
12/21/2021  05:55:00      -32.278        5.886      -10.359       20.634       24.757       17.809      425.765      612.920      317.156        0.127        0.068       32.811       13.525        0.170      329.791       -3.250      865.095
12/21/2021  05:56:00      -13.148        0.702       -6.374       16.329       14.436       11.866      266.634      208.388      140.803        0.041        0.031       13.167        7.799        0.351      329.818       -3.207      865.105
12/21/2021  05:57:00      -25.394       26.952       -8.109       11.931       10.850        8.905      142.351      117.721       79.301        0.089        0.017       37.030        5.338        0.021      329.883       -3.098      865.114
12/21/2021  05:58:00      -12.757       12.298       -1.234       11.846       14.628        8.529      140.323      213.992       72.739        0.037        0.021       17.720        7.521        0.180      329.867       -3.126      865.091
12/21/2021  05:59:00       -7.583       13.160      -14.423       11.554        9.677       10.697      133.488       93.646      114.423        0.039        0.017       15.189        7.806        0.264      329.906       -3.062      865.058
12/21/2021  06:00:00      -23.341        8.541       -6.101       16.841       16.065       12.874      283.628      258.080      165.741        0.068        0.035       24.855        9.962        0.161      329.992       -2.921      865.077
12/21/2021  06:01:00       -9.184        6.543       -7.719       35.814       24.039       16.130     1282.628      577.873      260.169        0.115        0.106       11.277       14.509        1.655      329.965       -2.964      865.120
12/21/2021  06:02:00      -95.195       26.957      -15.349       52.669       25.835       21.086     2774.060      667.459      444.602        0.695        0.194       98.938       24.401        0.061      329.887       -3.093      865.121
12/21/2021  06:03:00      -38.665       33.479       -1.796       46.003       45.120       31.613     2116.301     2035.791      999.351        0.388        0.258       51.145       27.108        0.281      329.777       -3.272      865.120
12/21/2021  06:04:00     -126.551       19.525      -15.712       32.692       29.986       21.524     1068.757      899.175      463.263        0.954        0.122      128.048       11.953        0.009      329.824       -3.197      865.110
12/21/2021  06:05:00     -103.128       43.041      -15.175       52.815       33.933       19.362     2789.451     1151.475      374.873        0.852        0.216      111.749       20.311        0.033      329.787       -3.257      865.087
12/21/2021  06:06:00     -122.241       14.610      -11.788       39.078       29.797       24.574     1527.079      887.867      603.892        0.916        0.151      123.111       17.523        0.020      329.798       -3.239      865.073
12/21/2021  06:07:00     -105.594       30.076      -22.715       62.805       34.809       27.316     3944.468     1211.648      746.175        0.924        0.295      109.794       18.856        0.029      329.838       -3.173      865.063
12/21/2021  06:08:00      -79.664       19.663      -20.396       46.699       36.926       21.857     2180.775     1363.495      477.719        0.558        0.201       82.055       21.843        0.071      329.782       -3.265      865.047
12/21/2021  06:09:00     -100.337       29.361      -14.040       35.917       31.058       21.371     1290.054      964.582      456.738        0.692        0.136      104.544       19.473        0.035      329.677       -3.436      865.036
12/21/2021  06:10:00     -105.361       16.642      -22.239       49.637       26.956       18.211     2463.865      726.604      331.637        0.770        0.176      106.667        7.444        0.005      329.760       -3.303      865.037
12/21/2021  06:11:00      -66.174       36.960       -8.292       50.546       35.675       26.897     2554.893     1272.700      723.432        0.518        0.228       75.796       18.269        0.058      329.786       -3.258      865.064
12/21/2021  06:12:00     -124.414       57.667      -23.409       32.019       24.643       24.277     1025.207      607.257      589.354        1.079        0.111      137.128       13.017        0.009      329.750       -3.318      865.079
12/21/2021  06:13:00      -78.371       47.088       -6.992       51.973       35.758       26.397     2701.174     1278.664      696.782        0.654        0.234       91.430       28.623        0.098      329.657       -3.468      865.070
12/21/2021  06:14:00      -98.423       33.224       -0.865       54.257       30.943       27.346     2943.868      957.446      747.789        0.772        0.232      103.879       26.086        0.063      329.679       -3.432      865.098
12/21/2021  06:15:00       -1.377        7.212       -0.562       29.885       26.257       22.795      893.086      689.431      519.600        0.108        0.105        7.342       13.443        3.352      329.723       -3.362      865.147
12/21/2021  06:16:00      -54.207       10.381      -18.031       69.127       31.432       25.762     4778.594      987.989      663.661        0.490        0.322       55.192       16.748        0.092      329.793       -3.246      865.157
12/21/2021  06:17:00      -78.547       35.721      -11.568       42.761       33.672       24.568     1828.498     1133.829      603.585        0.557        0.178       86.288       21.689        0.063      329.710       -3.384      865.137
12/21/2021  06:18:00     -150.266       57.047       -5.084       50.479       42.117       35.491     2548.127     1773.863     1259.580        1.572        0.279      160.730       31.807        0.039      329.549       -3.645      865.165
12/21/2021  06:19:00      -38.126       37.108        1.587       48.005       35.811       31.159     2304.472     1282.461      970.885        0.369        0.228       53.204       21.897        0.169      329.588       -3.581      865.197
12/21/2021  06:20:00      -53.528       18.286      -18.737       42.489       41.499       23.441     1805.289     1722.147      549.475        0.381        0.204       56.565       11.525        0.042      329.635       -3.504      865.191
12/21/2021  06:21:00      -55.985       27.224      -18.243       29.351       23.761       18.451      861.507      564.606      340.433        0.299        0.088       62.254       13.764        0.049      329.706       -3.389      865.204
12/21/2021  06:22:00      -91.779       32.842      -23.054       28.682       23.529       23.907      822.661      553.631      571.541        0.599        0.097       97.478       20.248        0.043      329.710       -3.380      865.207
12/21/2021  06:23:00      -20.367       25.906       -5.696       19.793       29.217       15.917      391.766      853.654      253.351        0.131        0.075       32.953        9.998        0.092      329.721       -3.365      865.159
12/21/2021  06:24:00        0.431       78.376      -10.912       29.576       42.319       16.947      874.733     1790.872      287.206        0.461        0.148       78.377       14.580        0.035      330.009       -2.892      865.110
12/21/2021  06:25:00      -41.189       49.715      -11.848       36.591       38.488       22.675     1338.935     1481.352      514.171        0.382        0.167       64.561       18.984        0.086      330.045       -2.832      865.148
12/21/2021  06:26:00      -21.485        0.536       -4.097       50.019       27.773       24.552     2501.915      771.358      602.824        0.218        0.194       21.492       21.605        1.011      329.847       -3.158      865.214
12/21/2021  06:27:00     -128.797       44.014      -29.086       32.077       26.996       20.318     1028.917      728.760      412.825        1.077        0.109      136.110       11.108        0.007      329.751       -3.316      865.225
12/21/2021  06:28:00      -99.671       53.330      -26.417       34.426       21.091       24.079     1185.182      444.840      579.783        0.784        0.110      113.042       22.048        0.038      329.669       -3.450      865.198
12/21/2021  06:29:00      -45.747       19.379       -4.906       39.311       25.679       21.120     1545.374      659.417      446.065        0.257        0.133       49.682       11.909        0.057      329.765       -3.291      865.175
12/21/2021  06:30:00      -31.304       31.922       -5.054       21.640       15.550       19.743      468.276      241.790      389.799        0.156        0.055       44.710       13.048        0.085      329.847       -3.159      865.175
12/21/2021  06:31:00      -18.179       42.029      -19.930       25.991       17.885       15.906      675.535      319.890      252.997        0.187        0.062       45.792       11.259        0.060      329.898       -3.073      865.193
12/21/2021  06:32:00      -57.254       38.626      -23.218       29.769       30.885       18.750      886.222      953.872      351.576        0.375        0.110       69.065       15.034        0.047      329.913       -3.048      865.206
12/21/2021  06:33:00      -95.163       43.364      -33.707       41.864       15.925       19.113     1752.608      253.614      365.323        0.722        0.119      104.578       15.353        0.022      329.893       -3.081      865.224
12/21/2021  06:34:00      -87.604       36.441      -36.968       33.573       26.241       25.300     1127.121      688.589      640.114        0.641        0.123       94.881       19.350        0.042      329.861       -3.136      865.243
12/21/2021  06:35:00      -58.563       22.219      -26.794       42.238       26.472       28.450     1784.039      700.751      809.388        0.397        0.165       62.636       21.802        0.121      329.845       -3.162      865.249
12/21/2021  06:36:00      -81.537       36.254       -8.015       36.111       34.272       21.156     1304.013     1174.594      447.592        0.548        0.146       89.234       18.223        0.042      329.801       -3.233      865.251
12/21/2021  06:37:00      -80.946       43.760      -23.617       26.081       22.890       20.680      680.224      523.958      427.674        0.533        0.082       92.017       12.848        0.019      329.858       -3.141      865.284
12/21/2021  06:38:00     -136.068       47.230      -29.473       24.048       20.197       14.735      578.313      407.906      217.109        1.141        0.060      144.031        8.507        0.003      329.835       -3.178      865.325
12/21/2021  06:39:00     -131.130       45.282      -25.021       32.528       28.861       24.798     1058.056      832.960      614.937        1.119        0.125      138.728       10.647        0.006      329.772       -3.281      865.334
12/21/2021  06:40:00      -55.229       27.913       -7.243       30.095       26.132       17.649      905.724      682.892      311.481        0.289        0.095       61.882       15.716        0.065      329.755       -3.310      865.325
12/21/2021  06:41:00      -15.354        5.944      -10.285       16.655        8.458        7.824      277.393       71.545       61.222        0.039        0.021       16.464        6.182        0.141      329.768       -3.288      865.293
12/21/2021  06:42:00       47.275       39.061      -11.956       31.242       22.016       22.187      976.047      484.710      492.260        0.293        0.098       61.324       20.027        0.107      330.068       -2.796      865.263
12/21/2021  06:43:00       67.733       21.784       -8.692       21.708       16.986       14.412      471.244      288.519      207.693        0.305        0.048       71.149        8.812        0.015      329.934       -3.015      865.274
12/21/2021  06:44:00       15.064       14.317       -5.009       16.546        9.612        9.494      273.786       92.394       90.136        0.046        0.023       20.782        6.292        0.092      329.843       -3.166      865.321
12/21/2021  06:45:00       -2.947        3.364       -3.167        7.914        7.613        6.366       62.637       57.964       40.527        0.010        0.008        4.472        4.869        1.185      329.813       -3.213      865.367
12/21/2021  06:46:00       -4.071        4.975       -1.184        5.704        5.029        5.432       32.535       25.292       29.507        0.007        0.004        6.428        2.902        0.204      329.858       -3.142      865.397
12/21/2021  06:47:00        5.197        4.996        0.882        5.850        7.520        4.368       34.225       56.546       19.082        0.008        0.005        7.209        4.245        0.347      329.912       -3.051      865.407
12/21/2021  06:48:00       -3.166       21.539       -6.870        5.664       13.972        5.452       32.083      195.216       29.726        0.039        0.013       21.771        3.667        0.028      329.825       -3.193      865.381
12/21/2021  06:49:00       65.710       48.295      -11.774       26.203       23.429       15.092      686.597      548.907      227.783        0.413        0.073       81.549       11.783        0.021      329.919       -3.041      865.329
12/21/2021  06:50:00       65.988       44.113      -15.606       23.314       22.346       15.384      543.560      499.355      236.655        0.391        0.064       79.374       17.640        0.049      329.918       -3.041      865.332
12/21/2021  06:51:00       19.124       23.018       -9.144       21.168       12.606        9.782      448.104      158.899       95.682        0.084        0.035       29.926        6.213        0.043      329.958       -2.975      865.421
12/21/2021  06:52:00      -27.504       26.312      -11.230       20.001       14.889       14.036      400.032      221.680      197.013        0.120        0.041       38.063        3.850        0.010      329.956       -2.978      865.505
12/21/2021  06:53:00      -20.563       47.203      -10.290       11.102       10.741        9.132      123.253      115.362       83.396        0.154        0.016       51.488        7.523        0.021      329.823       -3.198      865.511
12/21/2021  06:54:00      -31.509       39.843       -9.890       21.519       13.810        9.421      463.064      190.724       88.751        0.171        0.037       50.797        8.344        0.027      329.785       -3.259      865.502
12/21/2021  06:55:00       22.110       35.615      -10.048       12.956       12.870        7.900      167.858      165.642       62.404        0.113        0.020       41.920        3.762        0.008      329.995       -2.914      865.504
12/21/2021  06:56:00       48.947       37.668       -4.028       16.282       11.718        7.804      265.109      137.309       60.899        0.215        0.023       61.763        3.339        0.003      330.008       -2.894      865.481
12/21/2021  06:57:00       48.822       46.010      -10.881       21.710       26.479       14.729      471.342      701.122      216.949        0.300        0.069       67.086       11.497        0.029      330.049       -2.828      865.436
12/21/2021  06:58:00       13.276        4.195       -0.330       20.785       34.110       20.307      432.001     1163.486      412.378        0.110        0.100       13.923        7.162        0.265      330.037       -2.847      865.417
12/21/2021  06:59:00       33.099       -3.610      -16.663       18.928       20.872       15.999      358.254      435.647      255.968        0.122        0.052       33.295        9.292        0.078      330.050       -2.827      865.442
12/21/2021  07:00:00       25.846      -15.887       -4.849       26.533       22.003       15.164      703.994      484.142      229.933        0.118        0.071       30.338       19.406        0.409      330.008       -2.896      865.463
12/21/2021  07:01:00       14.100        2.254        1.452       20.657       15.877        9.784      426.712      252.088       95.727        0.049        0.039       14.279       10.461        0.537      330.028       -2.861      865.467
12/21/2021  07:02:00       55.779       15.329       -9.136       11.493       13.297        7.322      132.092      176.799       53.613        0.190        0.018       57.847        2.683        0.002      329.932       -3.016      865.460
12/21/2021  07:03:00       47.753        6.053       -2.725       32.081       25.511       12.379     1029.190      650.835      153.231        0.208        0.092       48.135       12.914        0.072      329.957       -2.976      865.438
12/21/2021  07:04:00       48.244       37.249      -20.881       39.534       53.464       24.411     1562.925     2858.390      595.912        0.458        0.251       60.950       12.030        0.039      330.048       -2.828      865.450
12/21/2021  07:05:00      -16.673      -28.308      -10.587       62.476       61.587       30.547     3903.308     3792.907      933.147        0.491        0.431       32.854       31.246        0.905      330.173       -2.623      865.500
12/21/2021  07:06:00       51.540     -115.693      -19.611       35.194       34.824       23.068     1238.615     1212.718      532.149        0.970        0.149      126.654       22.444        0.031      330.036       -2.847      865.532
12/21/2021  07:07:00       55.904     -107.171      -15.231       31.942       34.749       26.613     1020.282     1207.498      708.276        0.889        0.147      120.876       26.040        0.046      329.991       -2.921      865.505
12/21/2021  07:08:00       16.218       -2.808       -1.156       33.228       37.988       24.050     1104.106     1443.063      578.419        0.170        0.156       16.459       13.911        0.714      330.048       -2.829      865.445
12/21/2021  07:09:00       21.031        0.673       -2.175       43.895       43.035       21.471     1926.729     1852.038      461.018        0.234        0.212       21.042       17.131        0.663      329.940       -3.005      865.439
12/21/2021  07:10:00      -21.528      -24.926      -12.893       39.415       33.369       21.092     1553.530     1113.472      444.883        0.218        0.156       32.936       16.047        0.237      330.021       -2.874      865.501
12/21/2021  07:11:00       28.758     -109.726      -15.910       54.368       58.724       36.213     2955.862     3448.551     1311.365        1.042        0.386      113.432       31.646        0.078      330.062       -2.806      865.570
12/21/2021  07:12:00       44.558      -62.473      -24.874       45.686       88.652       36.042     2087.204     7859.128     1299.051        0.887        0.562       76.735       21.879        0.081      329.910       -3.054      865.550
12/21/2021  07:13:00       37.615       20.788      -26.363       41.643       39.082       30.801     1734.168     1527.426      948.674        0.338        0.211       42.977       13.310        0.096      329.889       -3.089      865.473
12/21/2021  07:14:00       -9.183       -8.954      -17.594       38.448       20.885       19.416     1478.242      436.180      376.998        0.138        0.115       12.826        7.332        0.327      330.067       -2.799      865.465
12/21/2021  07:15:00      -15.952       -0.538        1.393       23.342       20.808       26.170      544.854      432.953      684.848        0.096        0.083       15.961       14.520        0.828      330.166       -2.635      865.514
12/21/2021  07:16:00       11.243      -74.959      -19.829       45.777       40.771       18.231     2095.572     1662.279      332.366        0.511        0.205       75.798       16.468        0.047      330.017       -2.877      865.542
12/21/2021  07:17:00       55.284      -87.048      -13.333       24.240       38.193       21.099      587.591     1458.704      445.184        0.665        0.125      103.120       18.633        0.033      329.876       -3.112      865.562
12/21/2021  07:18:00       67.729     -111.633      -29.027       21.407       25.158       16.685      458.250      632.950      278.396        0.963        0.068      130.572       10.340        0.006      329.850       -3.154      865.609
12/21/2021  07:19:00       57.926     -100.140      -22.294       38.072       36.084       31.660     1449.461     1302.061     1002.366        0.882        0.188      115.687       19.519        0.028      329.965       -2.964      865.685
12/21/2021  07:20:00        8.713        0.066       -7.094       29.936       31.537       18.378      896.165      994.596      337.756        0.118        0.111        8.713       10.976        1.587      330.059       -2.810      865.719
12/21/2021  07:21:00       -7.537       31.733       -5.074       31.624       17.180       15.875     1000.081      295.154      252.015        0.132        0.077       32.616        8.137        0.062      329.998       -2.912      865.697
12/21/2021  07:22:00       14.061       19.461       -4.806       33.270       28.015       14.415     1106.862      784.850      207.799        0.135        0.105       24.009       15.421        0.413      329.944       -2.999      865.643
12/21/2021  07:23:00       65.457       57.189       -6.597       15.762       11.550        9.330      248.456      133.394       87.053        0.403        0.023       86.921        7.705        0.008      329.879       -3.103      865.596
12/21/2021  07:24:00       28.080       21.158      -12.086       17.755       19.299       13.624      315.257      372.456      185.603        0.113        0.044       35.159       10.241        0.085      329.880       -3.103      865.611
12/21/2021  07:25:00       23.237       26.081       -9.595       13.229       14.518       12.705      175.003      210.762      161.410        0.093        0.027       34.931        2.497        0.005      329.902       -3.066      865.660
12/21/2021  07:26:00       46.700       36.044      -15.620       27.124       35.033       26.437      735.734     1227.311      698.897        0.319        0.133       58.991       19.017        0.104      329.971       -2.954      865.685
12/21/2021  07:27:00       28.083      -30.493      -19.806       32.013       45.641       31.663     1024.828     2083.100     1002.553        0.311        0.206       41.454       18.109        0.191      330.221       -2.545      865.666
12/21/2021  07:28:00       78.384       -8.190      -19.774       52.571       47.132       45.337     2763.723     2221.441     2055.481        0.682        0.352       78.811       31.731        0.162      329.978       -2.942      865.617
12/21/2021  07:29:00       42.755        6.205       -6.028       48.541       34.672       32.895     2356.274     1202.155     1082.087        0.327        0.232       43.202       29.516        0.467      329.842       -3.166      865.582
12/21/2021  07:30:00       27.925       -0.196        1.578       36.807       18.267       13.345     1354.743      333.677      178.096        0.132        0.093       27.925       17.899        0.411      329.954       -2.983      865.650
12/21/2021  07:31:00      -13.894        4.526       -7.242       17.782       22.633       14.153      316.208      512.234      200.310        0.065        0.051       14.613       10.660        0.532      329.904       -3.063      865.759
12/21/2021  07:32:00       -3.520       17.654       -7.282       16.288       13.839        8.459      265.287      191.506       71.554        0.045        0.026       18.002        3.861        0.046      329.898       -3.074      865.779
12/21/2021  07:33:00       35.729       37.439       -7.110       28.773       24.778       15.005      827.903      613.953      225.155        0.220        0.083       51.752       13.722        0.070      329.937       -3.008      865.701
12/21/2021  07:34:00       82.275       27.240      -21.621       29.870       32.036       17.374      892.194     1026.322      301.857        0.510        0.111       86.667       10.046        0.013      329.981       -2.939      865.604
12/21/2021  07:35:00       65.161        7.039      -12.683       35.420       22.573       18.847     1254.607      509.522      355.218        0.329        0.106       65.540       18.379        0.079      329.921       -3.036      865.604
12/21/2021  07:36:00        2.996       31.485       -7.603       42.543       25.942       16.358     1809.944      673.001      267.569        0.190        0.138       31.627       11.754        0.138      329.933       -3.016      865.687
12/21/2021  07:37:00        2.826      -13.591      -12.639       31.684       19.176       22.453     1003.866      367.723      504.124        0.111        0.094       13.882        9.062        0.426      330.141       -2.677      865.780
12/21/2021  07:38:00       19.566       -5.919      -13.925       46.330       37.624       29.809     2146.487     1415.562      888.547        0.253        0.223       20.441       20.559        1.012      330.091       -2.759      865.858
12/21/2021  07:39:00      -70.360       -3.833      -12.137       32.660       22.274       13.981     1066.644      496.122      195.458        0.344        0.088       70.464       12.031        0.029      330.039       -2.844      865.822
12/21/2021  07:40:00       44.811       37.527      -13.010       40.420       27.028       14.671     1633.768      730.539      215.226        0.308        0.129       58.449       12.255        0.044      329.963       -2.966      865.721
12/21/2021  07:41:00       25.590       41.144      -11.343       17.043       29.075       14.017      290.452      845.338      196.484        0.190        0.067       48.453        8.605        0.032      329.972       -2.953      865.676
12/21/2021  07:42:00        9.135        1.953       -8.100       11.214       10.547        8.763      125.751      111.244       76.786        0.023        0.016        9.342        3.789        0.164      330.008       -2.895      865.709
12/21/2021  07:43:00       17.355      -25.235      -22.286       34.457       48.633       21.640     1187.288     2365.167      468.296        0.273        0.201       30.627       24.683        0.650      330.139       -2.679      865.774
12/21/2021  07:44:00       33.343      -80.950      -22.576       40.439       39.303       30.440     1635.291     1544.747      926.579        0.614        0.205       87.548       23.764        0.074      330.098       -2.748      865.809
12/21/2021  07:45:00       26.798      -43.194      -29.794       30.252       35.527       24.718      915.163     1262.157      610.955        0.313        0.139       50.832       17.985        0.125      330.125       -2.704      865.788
12/21/2021  07:46:00       -0.326       -3.043       -0.309       27.592       34.812       19.662      761.345     1211.860      386.598        0.118        0.118        3.060       14.739       23.197      330.083       -2.771      865.755
12/21/2021  07:47:00       -6.059      -51.899      -24.643       25.880       29.376       13.848      669.759      862.967      191.780        0.253        0.086       52.251       10.795        0.043      330.194       -2.591      865.772
12/21/2021  07:48:00      -26.804       -6.839      -23.483       44.035       19.994       14.009     1939.065      399.762      196.258        0.193        0.127       27.663        7.291        0.069      330.129       -2.697      865.844
12/21/2021  07:49:00        7.507      -30.830      -20.363       28.100       48.199       21.171      789.623     2323.120      448.228        0.249        0.178       31.731       21.560        0.462      330.105       -2.736      865.905
12/21/2021  07:50:00        4.377        6.550       -5.537       40.192       52.390       39.565     1615.369     2744.761     1565.384        0.301        0.296        7.878       31.011       15.497      330.243       -2.510      865.890
12/21/2021  07:51:00       11.394      -24.000      -21.198       42.252       42.446       28.890     1785.207     1801.645      834.611        0.279        0.221       26.567       11.163        0.177      330.354       -2.328      865.887
12/21/2021  07:52:00        0.340      -38.901      -23.583       37.116       55.827       32.476     1377.568     3116.604     1054.706        0.381        0.277       38.903       12.889        0.110      330.307       -2.404      865.948
12/21/2021  07:53:00       -0.416      -25.706       -9.111       37.050       45.826       22.925     1372.669     2100.019      525.578        0.237        0.200       25.710       17.720        0.475      330.248       -2.502      865.989
12/21/2021  07:54:00       45.795      -16.566      -15.119       56.331       51.998       38.077     3173.231     2703.830     1449.863        0.496        0.366       48.699       27.250        0.313      330.228       -2.532      865.950
12/21/2021  07:55:00       41.538      -25.435       -6.361       45.082       47.858       39.712     2032.395     2290.367     1577.044        0.416        0.295       48.707       23.772        0.238      330.137       -2.683      865.941
12/21/2021  07:56:00       11.515      -35.527      -30.055       29.719       51.629       19.258      883.238     2665.546      370.883        0.311        0.196       37.346       17.370        0.216      330.172       -2.624      866.039
12/21/2021  07:57:00      -69.984      -21.311       -3.840       79.683       43.342       33.251     6349.426     1878.534     1105.617        0.735        0.467       73.157        7.718        0.011      330.246       -2.504      866.115
12/21/2021  07:58:00      -76.563       13.336        0.030       49.211       39.245       31.136     2421.686     1540.160      969.461        0.548        0.247       77.716       32.484        0.175      330.169       -2.632      866.109
12/21/2021  07:59:00      -12.308       34.726       -7.273       32.505       33.272       19.287     1056.590     1107.025      371.996        0.197        0.127       36.843       20.499        0.310      330.129       -2.697      866.037
12/21/2021  08:00:00        3.322      -29.336       -6.999       22.007       29.689       20.048      484.304      881.434      401.933        0.134        0.088       29.523       13.822        0.219      330.236       -2.521      865.984
12/21/2021  08:01:00      -18.359        3.223       -8.630       18.469       26.541       17.733      341.114      704.404      314.461        0.089        0.068       18.640        8.269        0.197      330.200       -2.579      866.008
12/21/2021  08:02:00      -15.799        9.697       -3.507       20.898       15.662       16.781      436.737      245.298      281.590        0.066        0.048       18.538        4.374        0.056      330.004       -2.903      866.037
12/21/2021  08:03:00       20.453        8.090      -13.928       37.847       46.397       28.808     1432.422     2152.708      829.920        0.255        0.221       21.995       25.465        1.340      330.051       -2.825      866.029
12/21/2021  08:04:00       52.753       26.361      -35.068       47.024       56.537       36.795     2211.224     3196.426     1353.858        0.573        0.338       58.973       20.416        0.120      330.224       -2.541      866.020
12/21/2021  08:05:00      -12.121      -14.912       -9.547       38.695       27.334       28.021     1497.327      747.165      785.156        0.174        0.151       19.217       14.346        0.557      330.345       -2.342      866.057
12/21/2021  08:06:00       14.486       12.775       -5.491       26.795       37.216       27.678      717.988     1385.009      766.067        0.164        0.143       19.314        6.965        0.130      330.223       -2.541      866.093
12/21/2021  08:07:00      -58.205       40.048      -11.603       70.053       28.425       21.553     4907.482      807.966      464.517        0.565        0.309       70.652       19.788        0.078      330.065       -2.801      866.067
12/21/2021  08:08:00       72.905        6.357      -14.930       41.311       40.369       26.225     1706.588     1629.638      687.731        0.480        0.201       73.182       16.817        0.053      330.065       -2.803      865.951
12/21/2021  08:09:00       56.097      -14.306      -29.236       69.195       71.442       52.083     4787.926     5103.918     2712.687        0.840        0.630       57.892       44.211        0.583      330.550       -2.005      865.875
12/21/2021  08:10:00      -29.936      -15.945      -33.963       40.470       40.151       21.047     1637.801     1612.141      442.993        0.300        0.185       33.918        9.537        0.079      330.448       -2.173      865.967
12/21/2021  08:11:00       19.186      -10.445      -11.634       46.520       43.665       34.356     2164.150     1906.609     1180.313        0.293        0.263       21.844       10.687        0.239      330.325       -2.373      866.092
12/21/2021  08:12:00      -95.581       36.816       -2.105       65.501       51.992       30.855     4290.416     2703.136      952.001        0.922        0.397      102.426       20.395        0.040      330.097       -2.748      866.112
12/21/2021  08:13:00      -52.984       19.751       -6.282       38.532       33.156       21.935     1484.705     1099.327      481.151        0.315        0.153       56.546       21.270        0.141      330.073       -2.787      866.069
12/21/2021  08:14:00      -86.546       29.070      -10.941       19.094       21.624       16.201      364.577      467.596      262.481        0.477        0.055       91.298       12.781        0.020      329.894       -3.081      866.086
12/21/2021  08:15:00     -102.946       40.655      -22.398       26.444       12.115       11.773      699.287      146.764      138.612        0.687        0.049      110.683        8.972        0.007      329.901       -3.069      866.109
12/21/2021  08:16:00      -34.167       40.609      -14.270       26.607       19.288       10.839      707.911      372.038      117.479        0.211        0.060       53.071        4.804        0.008      329.905       -3.061      866.044
12/21/2021  08:17:00       58.576       25.551       -8.912       36.539       27.956       19.757     1335.112      781.530      390.321        0.333        0.125       63.906       14.281        0.050      330.083       -2.771      865.966
12/21/2021  08:18:00       16.586       18.813      -13.792       26.938       30.582       20.680      725.676      935.237      427.653        0.145        0.104       25.080       10.337        0.170      330.277       -2.454      866.020
12/21/2021  08:19:00       19.534      -30.825      -19.959       20.827       34.561       24.148      433.774     1194.442      583.120        0.197        0.111       36.494        9.302        0.065      330.257       -2.487      866.089
12/21/2021  08:20:00       -3.944       14.834      -14.562       39.247       22.229       16.638     1540.322      494.140      276.837        0.138        0.116       15.349       11.889        0.600      330.133       -2.689      866.047
12/21/2021  08:21:00        7.436       42.472      -14.447       25.119       34.373       12.849      630.947     1181.475      165.091        0.202        0.099       43.118       10.974        0.065      330.026       -2.864      865.972
12/21/2021  08:22:00        3.919       29.983       -9.262       11.446       21.665        8.914      131.002      469.352       79.454        0.084        0.034       30.238        9.004        0.089      330.070       -2.793      865.971
12/21/2021  08:23:00       12.706      -19.293       -1.845       14.911       29.943       20.192      222.323      896.564      407.722        0.103        0.076       23.101       17.943        0.603      330.270       -2.464      866.059
12/21/2021  08:24:00      -59.889       -0.533       -6.933       45.721       37.189       18.676     2090.385     1383.048      348.794        0.373        0.191       59.892       12.289        0.042      330.226       -2.537      866.170
12/21/2021  08:25:00     -100.640       13.782      -17.063       33.904       33.073       23.096     1149.471     1093.831      533.437        0.669        0.139      101.579       16.410        0.026      330.143       -2.673      866.202
12/21/2021  08:26:00      -23.234       23.494       -9.975       28.583        8.180        9.180      817.008       66.914       84.279        0.108        0.048       33.043        4.978        0.023      329.977       -2.944      866.158
12/21/2021  08:27:00        8.405       13.378       -4.028       19.728       13.119       14.125      389.187      172.099      199.512        0.051        0.038       15.799        7.872        0.248      330.146       -2.670      866.166
12/21/2021  08:28:00       15.523        9.341       -6.243       18.345       18.615       13.022      336.546      346.527      169.570        0.061        0.043       18.117        5.973        0.109      330.212       -2.561      866.226
12/21/2021  08:29:00       -2.927       16.748       -6.197       16.082       26.012       14.305      258.644      676.603      204.625        0.073        0.057       17.002       13.016        0.586      330.147       -2.668      866.189
12/21/2021  08:30:00       50.976       49.319      -16.144       21.372       13.969       13.727      456.755      195.142      188.428        0.307        0.042       70.929        7.996        0.013      330.096       -2.751      866.068
12/21/2021  08:31:00      -25.034       24.212      -14.418       48.188       25.110       19.276     2322.092      630.527      371.560        0.237        0.166       34.827        7.985        0.053      330.207       -2.568      866.104
12/21/2021  08:32:00        7.476        2.480      -12.572       59.573       49.872       29.811     3548.905     2487.251      888.693        0.357        0.346        7.876       21.446        7.414      330.315       -2.390      866.257
12/21/2021  08:33:00     -164.764       48.183      -13.482       83.874       83.052       49.368     7034.881     6897.633     2437.162        2.301        0.818      171.664       47.148        0.075      330.047       -2.832      866.263
12/21/2021  08:34:00      -30.306       22.899      -19.002       61.382       26.658       20.959     3767.741      710.636      439.287        0.336        0.246       37.984       21.229        0.312      329.967       -2.961      866.108
12/21/2021  08:35:00      117.277       50.121      -30.466       59.442       44.603       22.538     3533.378     1989.455      507.970        1.161        0.302      127.539       18.727        0.022      330.140       -2.676      866.041
12/21/2021  08:36:00      -21.332       10.474      -16.831       36.130       22.160       12.495     1305.371      491.085      156.123        0.140        0.098       23.765        8.354        0.124      330.141       -2.677      866.180
12/21/2021  08:37:00      -75.702       40.686      -23.459       46.456       42.429       32.563     2158.131     1800.194     1060.378        0.648        0.251       85.942       19.922        0.054      330.236       -2.521      866.259
12/21/2021  08:38:00      -32.127        2.990      -10.933       44.110       32.047       19.282     1945.726     1027.033      371.813        0.225        0.167       32.266       12.203        0.143      330.220       -2.546      866.204
12/21/2021  08:39:00       -9.840       -8.641        3.381       22.763       10.201        9.324      518.158      104.065       86.934        0.045        0.035       13.095        4.507        0.118      330.345       -2.343      866.144
12/21/2021  08:40:00       -7.112       34.563       -5.364       53.343       23.636       18.730     2845.489      558.663      350.805        0.251        0.188       35.288       17.376        0.242      330.261       -2.480      866.130
12/21/2021  08:41:00        0.701       56.317      -10.243       19.187       19.265       15.051      368.153      371.129      226.518        0.212        0.048       56.321        9.978        0.031      330.224       -2.542      866.121
12/21/2021  08:42:00       12.041       37.582       -2.741       18.626       20.367       14.552      346.940      414.811      211.748        0.127        0.049       39.464       10.439        0.070      330.266       -2.470      866.151
12/21/2021  08:43:00       16.759       26.801      -13.653       14.200       13.895       13.757      201.652      193.082      189.257        0.088        0.029       31.609        8.192        0.067      330.258       -2.484      866.225
12/21/2021  08:44:00      -15.704       13.146       -5.912       37.454       23.083       18.020     1402.797      532.809      324.736        0.136        0.113       20.481        8.531        0.174      330.287       -2.436      866.211
12/21/2021  08:45:00      -36.981       -9.462       -4.832       20.606       19.188       17.948      424.590      368.181      322.125        0.130        0.056       38.172        9.593        0.063      330.455       -2.162      866.122
12/21/2021  08:46:00      -43.214      -53.450      -13.187       29.318       29.111       17.916      859.541      847.433      320.975        0.346        0.101       68.734        9.191        0.018      330.385       -2.275      866.140
12/21/2021  08:47:00        4.450      -13.274      -13.531       16.368       17.644       15.363      267.918      311.298      236.012        0.060        0.041       14.000       10.802        0.595      330.420       -2.218      866.240
12/21/2021  08:48:00       -6.190      -15.775       -2.643       43.398       33.556       30.132     1883.353     1126.001      907.947        0.210        0.196       16.946       13.237        0.610      330.480       -2.122      866.314
12/21/2021  08:49:00       -2.294       25.444      -11.403       38.806       31.362       27.004     1505.884      983.554      729.193        0.200        0.161       25.547       12.697        0.247      330.419       -2.222      866.224
12/21/2021  08:50:00       54.333       53.266       -4.080       37.721       39.052       29.817     1422.866     1525.042      889.046        0.482        0.192       76.088       24.381        0.103      330.314       -2.393      866.004
12/21/2021  08:51:00       60.211       20.798       -8.145       44.197       32.404       30.135     1953.353     1050.019      908.145        0.402        0.196       63.701       15.822        0.062      330.315       -2.392      865.938
12/21/2021  08:52:00       55.197        9.116      -22.559       35.899       23.762       18.486     1288.732      564.644      341.719        0.292        0.110       55.945        9.503        0.029      330.270       -2.465      866.041
12/21/2021  08:53:00      -10.379      -17.271      -17.976       19.208       21.476       18.588      368.948      461.231      345.528        0.095        0.059       20.150        8.880        0.194      330.430       -2.204      866.111
12/21/2021  08:54:00       -3.539       13.000        6.671       19.512       18.826       13.086      380.728      354.411      171.243        0.057        0.045       13.473       12.196        0.819      330.351       -2.330      866.098
12/21/2021  08:55:00       55.688       46.434      -11.427       22.453       15.940       14.636      504.131      254.093      214.227        0.318        0.049       72.508        9.793        0.018      330.226       -2.537      866.039
12/21/2021  08:56:00       70.377       59.802       -8.213       22.962       18.598       15.770      527.267      345.876      248.696        0.486        0.056       92.354        7.134        0.006      330.248       -2.500      865.975
12/21/2021  08:57:00       52.912       47.882       -4.090       36.307       19.966       15.113     1318.222      398.628      228.415        0.353        0.097       71.361       17.211        0.058      330.214       -2.556      865.936
12/21/2021  08:58:00       62.685       34.153      -12.442       16.254       16.598       10.343      264.191      275.498      106.981        0.295        0.032       71.385        7.219        0.010      330.246       -2.503      865.910
12/21/2021  08:59:00       88.737       35.055      -18.269       19.162       25.954       16.016      367.183      673.603      256.505        0.537        0.065       95.410        7.912        0.007      330.270       -2.465      865.922
12/21/2021  09:00:00       70.597       38.633      -13.497       35.286       26.049       16.345     1245.084      678.547      267.173        0.442        0.110       80.476       11.591        0.021      330.324       -2.375      865.960
12/21/2021  09:01:00       81.530       57.480      -13.284       18.551       16.161       11.119      344.150      261.172      123.639        0.543        0.036       99.756        9.718        0.009      330.141       -2.676      865.985
12/21/2021  09:02:00       47.732       40.365      -10.834        8.799        9.258        9.080       77.431       85.713       82.445        0.214        0.012       62.511        2.864        0.002      330.139       -2.681      865.985
12/21/2021  09:03:00       60.905       40.938      -11.663       16.830       20.820       11.770      283.261      433.462      138.527        0.319        0.043       73.385        8.316        0.013      330.191       -2.595      865.955
12/21/2021  09:04:00       62.864       18.072      -12.076       26.491       22.494       15.076      701.765      505.984      227.289        0.293        0.072       65.410       11.249        0.030      330.269       -2.466      865.920
12/21/2021  09:05:00       55.870       17.041      -16.105       25.132       23.396       16.548      631.639      547.383      273.843        0.256        0.073       58.411       11.406        0.038      330.298       -2.420      865.924
12/21/2021  09:06:00       59.310       18.382      -11.745       19.684       14.332        9.635      387.470      205.417       92.826        0.234        0.034       62.094        5.915        0.009      330.147       -2.669      865.918
12/21/2021  09:07:00       72.795       49.901      -16.121       12.848       13.147        9.120      165.058      172.841       83.178        0.424        0.021       88.257        5.004        0.003      330.160       -2.651      865.887
12/21/2021  09:08:00       54.853       51.500      -20.138       18.496       19.349       15.826      342.090      374.392      250.472        0.352        0.048       75.240        9.328        0.015      330.287       -2.438      865.856
12/21/2021  09:09:00       68.252       43.903      -19.465       30.214       35.436       15.797      912.912     1255.728      249.533        0.469        0.121       81.153        8.423        0.011      330.305       -2.408      865.845
12/21/2021  09:10:00      101.856        4.135       -7.968       39.859       27.586       23.547     1588.763      760.961      554.474        0.668        0.145      101.940       18.851        0.034      330.284       -2.443      865.822
12/21/2021  09:11:00      112.242        0.596      -18.517       30.368       30.519       20.045      922.231      931.408      401.789        0.760        0.113      112.244        9.068        0.007      330.356       -2.324      865.837
12/21/2021  09:12:00       89.684       10.351      -16.979       19.953       27.324       16.112      398.104      746.576      259.587        0.492        0.070       90.279       11.270        0.016      330.200       -2.582      865.888
12/21/2021  09:13:00       68.808       42.440      -20.996       17.914       13.907       11.927      320.915      193.393      142.245        0.382        0.033       80.844        8.872        0.012      330.233       -2.524      865.936
12/21/2021  09:14:00       69.010       34.149      -20.641       47.072       40.948       21.769     2215.757     1676.767      473.879        0.536        0.218       76.997       19.762        0.066      330.424       -2.213      865.922
12/21/2021  09:15:00      113.323      -23.551      -34.450       48.020       38.278       25.625     2305.883     1465.223      656.648        0.950        0.221      115.744       17.393        0.023      330.436       -2.194      865.844
12/21/2021  09:16:00      107.142       -5.179      -29.637       39.229       50.578       31.829     1538.919     2558.098     1013.102        0.875        0.256      107.267       18.578        0.030      330.482       -2.118      865.854
12/21/2021  09:17:00      100.571       26.697      -17.610       21.895       39.439       14.652      479.396     1555.448      214.670        0.669        0.112      104.054       15.958        0.024      330.235       -2.522      865.940
12/21/2021  09:18:00       94.072       58.292      -11.026       38.939       36.822       19.616     1516.251     1355.830      384.799        0.781        0.163      110.669       12.330        0.012      330.315       -2.391      865.970
12/21/2021  09:19:00       88.413       77.948      -15.483       30.372       29.340       16.680      922.457      860.832      278.218        0.810        0.103      117.868       14.621        0.015      330.321       -2.380      865.966
12/21/2021  09:20:00       59.474       66.063       -0.160       34.015       25.139       20.861     1156.990      631.964      435.171        0.506        0.111       88.890       21.152        0.057      330.332       -2.362      865.937
12/21/2021  09:21:00       82.639       50.416      -20.395       25.488       21.393       19.199      649.648      457.641      368.588        0.563        0.074       96.804       13.502        0.019      330.331       -2.363      865.881
12/21/2021  09:22:00       77.223        9.712      -17.830       22.821       15.541       15.291      520.801      241.536      233.803        0.369        0.050       77.831        9.363        0.014      330.275       -2.456      865.824
12/21/2021  09:23:00       75.115        6.948      -11.272       23.484       19.038       12.745      551.481      362.432      162.428        0.345        0.054       75.435        7.348        0.009      330.271       -2.464      865.787
12/21/2021  09:24:00       32.413        7.270       -6.321       26.265       23.098       16.014      689.850      533.530      256.459        0.131        0.074       33.218       15.515        0.218      330.362       -2.312      865.806
12/21/2021  09:25:00        9.209       15.817       -6.110       11.246        9.591        8.885      126.463       91.986       78.936        0.033        0.015       18.303        6.711        0.134      330.310       -2.396      865.867
12/21/2021  09:26:00       14.016       12.428      -10.014       14.843        8.215        9.390      220.305       67.481       88.167        0.041        0.019       18.733        9.034        0.233      330.321       -2.380      865.902
12/21/2021  09:27:00       45.936       27.382      -15.095       11.927       14.713        9.595      142.252      216.472       92.070        0.177        0.023       53.478        5.324        0.010      330.399       -2.253      865.911
12/21/2021  09:28:00        8.030       13.328        1.375       26.868       28.091       16.774      721.916      789.085      281.379        0.102        0.090       15.560       11.065        0.506      330.540       -2.023      865.916
12/21/2021  09:29:00       46.233        8.164      -12.424       30.824       34.950       25.866      950.143     1221.507      669.046        0.260        0.142       46.949        9.730        0.043      330.507       -2.076      865.917
12/21/2021  09:30:00       39.548       53.210      -15.404       32.876       51.040       28.967     1080.840     2605.064      839.064        0.458        0.226       66.297       17.236        0.068      330.545       -2.013      865.936
12/21/2021  09:31:00      -28.505      -16.912      -13.754       24.798       21.378       18.193      614.957      457.031      330.981        0.135        0.070       33.145       11.539        0.121      330.753       -1.672      865.946
12/21/2021  09:32:00       -5.080        4.470        3.394       31.475       20.445       17.179      990.677      417.991      295.118        0.088        0.085        6.767       12.079        3.187      330.750       -1.678      865.935
12/21/2021  09:33:00      -11.936       28.955       -5.484       21.806       15.623       21.010      475.503      244.064      441.434        0.109        0.058       31.318       17.243        0.303      330.446       -2.176      865.963
12/21/2021  09:34:00      -53.808       38.244      -18.756       44.646       14.564       18.803     1993.306      212.123      353.563        0.363        0.128       66.014       14.855        0.051      330.527       -2.045      866.013
12/21/2021  09:35:00      -13.927       50.777        4.510       14.530       17.947       13.203      211.120      322.094      174.320        0.175        0.035       52.652       12.625        0.057      330.612       -1.905      866.023
12/21/2021  09:36:00       21.468       29.839       -3.376       22.765       17.035       10.179      518.235      290.180      103.622        0.114        0.046       36.760       12.146        0.109      330.676       -1.797      866.002
12/21/2021  09:37:00       39.452       45.426       -9.114       14.617       18.159       14.524      213.647      329.753      210.945        0.223        0.038       60.166        8.700        0.021      330.622       -1.885      865.974
12/21/2021  09:38:00       39.565       51.922      -12.630       20.285       12.889       11.964      411.480      166.116      143.130        0.257        0.036       65.278        9.286        0.020      330.551       -2.004      865.928
12/21/2021  09:39:00      -14.543       37.972       -3.652       50.311       23.694       19.863     2531.220      561.425      394.531        0.258        0.174       40.662       18.006        0.196      330.736       -1.701      865.889
12/21/2021  09:40:00      -77.566        2.712      -18.343       38.972       47.849       19.884     1518.813     2289.570      395.354        0.528        0.210       77.614       18.109        0.054      330.634       -1.867      865.905
12/21/2021  09:41:00      -63.476      -10.621      -19.774       18.095       23.909       14.465      327.427      571.642      209.236        0.282        0.055       64.358        9.268        0.021      330.552       -2.003      865.935
12/21/2021  09:42:00      -19.003        2.040      -14.152       12.757       12.770        9.371      162.729      163.061       87.819        0.049        0.021       19.112        3.504        0.034      330.669       -1.810      865.930
12/21/2021  09:43:00        4.093       30.652      -15.949       48.921       44.789       22.056     2393.303     2006.027      486.468        0.305        0.244       30.924        4.448        0.021      330.879       -1.465      865.918
12/21/2021  09:44:00       11.293       48.378        0.372       26.156       18.601       15.496      684.116      345.982      240.124        0.187        0.064       49.678       12.585        0.064      330.747       -1.681      865.894
12/21/2021  09:45:00       15.899       35.411       -7.470       27.414       17.438       15.464      751.513      304.070      239.144        0.143        0.065       38.816        8.730        0.051      330.697       -1.764      865.859
12/21/2021  09:46:00       67.487       51.733       -8.703       26.349       21.627       16.312      694.284      467.710      266.097        0.437        0.071       85.034        9.560        0.013      330.729       -1.709      865.851
12/21/2021  09:47:00       42.861       49.475       -5.857       32.814       14.503       15.706     1076.756      210.331      246.683        0.293        0.077       65.459        5.816        0.008      330.760       -1.661      865.822
12/21/2021  09:48:00       48.669       42.554       -3.357       43.357       26.349       21.615     1879.828      694.279      467.223        0.362        0.152       64.650       18.113        0.078      330.907       -1.420      865.807
12/21/2021  09:49:00       38.727       29.304       -3.810       30.122       28.955       28.236      907.318      838.369      797.253        0.246        0.127       48.565       22.915        0.223      330.906       -1.421      865.802
12/21/2021  09:50:00       50.742       10.779      -18.289       48.435       51.166       27.821     2345.986     2617.917      774.008        0.438        0.287       51.874       27.718        0.286      330.927       -1.388      865.720
12/21/2021  09:51:00      108.033        7.827      -14.751       55.167       36.970       29.087     3043.360     1366.782      846.054        0.860        0.263      108.316       25.093        0.054      330.760       -1.661      865.637
12/21/2021  09:52:00       85.573       24.896      -25.406       26.900       33.705       19.359      723.591     1136.042      374.788        0.541        0.112       89.121       10.463        0.014      330.729       -1.712      865.657
12/21/2021  09:53:00       41.341       51.768       -8.499       27.230       25.495       16.697      741.487      650.018      278.793        0.307        0.084       66.250       13.701        0.043      330.729       -1.711      865.703
12/21/2021  09:54:00       37.479       -7.588      -18.564       34.429       40.184       27.990     1185.339     1614.774      783.423        0.269        0.179       38.239       10.444        0.075      330.919       -1.400      865.742
12/21/2021  09:55:00       87.377       -3.558      -26.574       51.664       35.454       29.788     2669.121     1256.952      887.352        0.658        0.241       87.450       21.019        0.058      330.889       -1.448      865.727
12/21/2021  09:56:00      129.797       34.432      -22.085       21.396       22.090       16.206      457.780      487.957      262.621        0.986        0.060      134.287        8.548        0.004      330.544       -2.015      865.666
12/21/2021  09:57:00       96.576       33.992      -13.906       27.002       17.036       18.277      729.133      290.213      334.061        0.601        0.068      102.383       11.226        0.012      330.521       -2.055      865.625
12/21/2021  09:58:00       43.511       24.127      -11.818       22.137       13.205       10.859      490.041      174.365      117.926        0.170        0.039       49.753        7.114        0.020      330.552       -2.004      865.642
12/21/2021  09:59:00       83.469       49.535      -11.053       13.849       10.361        9.649      191.782      107.360       93.098        0.497        0.020       97.061        6.239        0.004      330.577       -1.961      865.648
12/21/2021  10:00:00       97.773        2.022      -20.670       26.613       42.199       19.165      708.255     1780.794      367.280        0.642        0.143       97.793       10.890        0.012      330.747       -1.683      865.634
12/21/2021  10:01:00       96.235       21.523      -20.960       29.056       27.192       18.511      844.237      739.431      342.664        0.604        0.096       98.612       13.437        0.019      330.777       -1.634      865.644
12/21/2021  10:02:00       84.913       21.225      -20.350       22.008       18.662       14.772      484.335      348.288      218.213        0.456        0.053       87.526        4.147        0.002      330.638       -1.861      865.666
12/21/2021  10:03:00       98.670       47.909      -17.752       20.853       21.261       12.465      434.847      452.009      155.377        0.669        0.052      109.686        5.631        0.003      330.656       -1.831      865.666
12/21/2021  10:04:00       59.475       42.685      -21.726       56.938       47.967       22.541     3241.956     2300.805      508.117        0.594        0.303       73.207       17.158        0.055      330.992       -1.280      865.668
12/21/2021  10:05:00       69.702       35.990      -18.329       70.035       57.912       28.317     4904.881     3353.755      801.857        0.777        0.453       78.445       23.157        0.087      330.886       -1.454      865.660
12/21/2021  10:06:00       78.227       48.089      -17.397       24.052       16.814       11.494      578.508      282.705      132.115        0.486        0.050       91.826        8.816        0.009      330.695       -1.769      865.635
12/21/2021  10:07:00       78.230       31.922      -16.006       44.116       33.639       20.005     1946.226     1131.553      400.190        0.544        0.174       84.492       14.996        0.032      330.777       -1.633      865.627
12/21/2021  10:08:00       99.233       43.260      -16.576       17.421       16.386       11.111      303.495      268.502      123.460        0.634        0.035      108.252        7.439        0.005      330.671       -1.808      865.646
12/21/2021  10:09:00       78.667       42.538      -18.272       17.288       20.173       12.250      298.880      406.965      150.059        0.459        0.043       89.432        6.804        0.006      330.677       -1.798      865.648
12/21/2021  10:10:00       94.856       51.234      -23.670       13.958       11.797       10.560      194.821      139.165      111.506        0.631        0.022      107.808        8.834        0.007      330.626       -1.883      865.601
12/21/2021  10:11:00      109.050        2.123      -14.959       23.328       21.290       16.170      544.198      453.253      261.471        0.669        0.063      109.071        7.904        0.005      330.758       -1.664      865.544
12/21/2021  10:12:00       99.163       24.947      -17.497       33.664       30.719       20.936     1133.248      943.672      438.332        0.664        0.126      102.253       10.158        0.010      330.875       -1.471      865.541
12/21/2021  10:13:00       77.233       27.496      -19.844       18.331       20.882       14.871      336.010      436.071      221.137        0.405        0.050       81.982        6.820        0.007      330.804       -1.588      865.570
12/21/2021  10:14:00       92.513       36.401      -19.560       21.129       21.017       19.467      446.444      441.694      378.949        0.577        0.063       99.417       14.117        0.020      330.796       -1.602      865.610
12/21/2021  10:15:00       96.796       33.318      -17.030       27.921       28.064       14.540      779.596      787.591      211.425        0.627        0.089      102.370       10.574        0.011      330.773       -1.639      865.630
12/21/2021  10:16:00       64.513       39.042      -23.559       35.007       37.035       23.829     1225.502     1371.619      567.812        0.470        0.158       75.407       15.995        0.045      331.051       -1.182      865.670
12/21/2021  10:17:00       31.614       44.365       -1.288       29.944       22.800       21.961      896.656      519.848      482.286        0.243        0.095       54.477       21.172        0.151      330.948       -1.352      865.746
12/21/2021  10:18:00       51.100       52.659       -9.493       34.443       32.966       24.848     1186.313     1086.731      617.414        0.418        0.145       73.377       23.088        0.099      330.916       -1.406      865.794
12/21/2021  10:19:00       -4.477       65.101       -8.732       26.285       32.793       20.939      690.902     1075.400      438.435        0.327        0.110       65.255       18.350        0.079      331.023       -1.229      865.818
12/21/2021  10:20:00      -13.074       84.868      -17.062       19.426       26.096       23.391      377.367      681.013      547.159        0.463        0.080       85.869       11.975        0.019      330.899       -1.432      865.794
12/21/2021  10:21:00       42.750       35.101       -8.250       53.231       24.124       20.615     2833.549      581.991      424.973        0.348        0.192       55.314       16.880        0.093      331.031       -1.217      865.731
12/21/2021  10:22:00      110.652       20.071      -20.771       36.552       30.944       21.272     1336.051      957.518      452.483        0.791        0.137      112.458       10.084        0.008      330.970       -1.315      865.658
12/21/2021  10:23:00       98.951       -1.884      -17.877       34.980       38.997       24.604     1223.622     1520.801      605.359        0.673        0.167       98.969       13.451        0.018      330.920       -1.397      865.632
12/21/2021  10:24:00       45.101       -0.732      -13.780       22.190       14.549       15.314      492.408      211.664      234.508        0.158        0.047       45.107        6.091        0.018      330.893       -1.442      865.678
12/21/2021  10:25:00       11.531       -9.048       -4.183        7.154        7.709       10.481       51.186       59.424      109.854        0.023        0.011       14.657        3.155        0.046      330.919       -1.401      865.716
12/21/2021  10:26:00       12.475        7.755       -5.622       11.991       14.512       10.973      143.775      210.607      120.417        0.036        0.024       14.689        7.224        0.242      331.009       -1.252      865.741
12/21/2021  10:27:00       18.444       32.695      -12.745       15.880       11.237       13.622      252.188      126.277      185.552        0.107        0.028       37.538        4.855        0.017      331.009       -1.251      865.757
12/21/2021  10:28:00       11.217       45.275       -9.015       16.743       21.368       15.323      280.321      456.576      234.795        0.161        0.049       46.644       10.213        0.048      331.073       -1.147      865.746
12/21/2021  10:29:00       46.699       42.849      -14.593       31.359       27.647       18.924      983.398      764.377      358.120        0.317        0.105       63.379       14.716        0.054      331.082       -1.131      865.662
12/21/2021  10:30:00       71.222       11.058      -15.483       60.734       34.546       31.842     3688.586     1193.421     1013.906        0.566        0.295       72.075       26.963        0.140      331.227       -0.894      865.571
12/21/2021  10:31:00       91.286       40.866      -11.914       43.935       43.180       27.760     1930.305     1864.531      770.608        0.735        0.228      100.016       18.085        0.033      331.199       -0.940      865.555
12/21/2021  10:32:00       73.954       28.873      -10.362       29.488       46.416       18.405      869.513     2154.447      338.739        0.489        0.168       79.391       14.827        0.035      331.138       -1.039      865.568
12/21/2021  10:33:00       78.008       26.936      -15.796       14.495       14.639       11.838      210.096      214.310      140.135        0.381        0.028       82.527        7.215        0.008      330.911       -1.413      865.577
12/21/2021  10:34:00       47.981        8.009      -17.172       23.137       17.917       14.429      535.309      321.017      208.185        0.186        0.053       48.645       10.063        0.043      331.154       -1.014      865.589
12/21/2021  10:35:00       62.144       12.549      -13.137       16.796       18.018       16.103      282.118      324.648      259.312        0.253        0.043       63.399        8.256        0.017      331.023       -1.229      865.593
12/21/2021  10:36:00       51.662       12.124      -16.683       16.481       20.633       13.098      271.634      425.709      171.571        0.198        0.043       53.066       11.397        0.046      331.057       -1.173      865.604
12/21/2021  10:37:00       58.349       19.903      -17.438       26.412       22.790       13.269      697.615      519.397      176.078        0.275        0.070       61.650        8.792        0.020      331.133       -1.048      865.625
12/21/2021  10:38:00       10.968       38.468       -1.004       42.999       34.145       28.391     1848.918     1165.899      806.041        0.271        0.191       40.001       17.174        0.184      331.407       -0.598      865.648
12/21/2021  10:39:00      -29.600      -35.688      -19.172       60.192       32.152       27.243     3623.062     1033.736      742.180        0.396        0.270       46.366       20.676        0.199      331.654       -0.191      865.664
12/21/2021  10:40:00       29.298       46.393       -2.078       31.471       31.543       19.951      990.416      994.953      398.035        0.270        0.119       54.870        5.010        0.008      331.424       -0.568      865.677
12/21/2021  10:41:00       51.036       58.270       -4.385       28.501       24.843       16.531      812.319      617.167      273.262        0.386        0.085       77.460       11.979        0.024      331.315       -0.748      865.678
12/21/2021  10:42:00       39.012       57.267      -17.810       24.655       31.666       18.247      607.880     1002.748      332.941        0.353        0.097       69.292       12.716        0.034      331.389       -0.628      865.656
12/21/2021  10:43:00       53.253       63.854       -7.862       32.294       31.899       17.028     1042.924     1017.546      289.956        0.466        0.118       83.146       13.639        0.027      331.352       -0.689      865.599
12/21/2021  10:44:00       42.578       44.460       -5.736       27.095       22.447       20.234      734.164      503.863      409.429        0.273        0.082       61.559       14.434        0.055      331.554       -0.357      865.554
12/21/2021  10:45:00       57.050       14.737      -18.747       36.117       27.034       25.709     1304.470      730.819      660.932        0.326        0.135       58.922       14.789        0.063      331.644       -0.208      865.538
12/21/2021  10:46:00       57.315       31.339      -14.732       20.472       21.577       19.379      419.095      465.551      375.526        0.287        0.063       65.323       11.680        0.032      331.583       -0.308      865.540
12/21/2021  10:47:00       79.180       54.218      -16.453       17.751       26.732       18.455      315.089      714.626      340.593        0.542        0.069       95.964       10.299        0.012      331.391       -0.623      865.556
12/21/2021  10:48:00       70.432       51.593      -20.977       24.970       31.132       17.000      623.519      969.190      289.001        0.497        0.094       87.307        4.971        0.003      331.289       -0.792      865.546
12/21/2021  10:49:00       52.214       27.703      -22.594       41.175       30.934       25.284     1695.400      956.938      639.300        0.365        0.165       59.108       14.867        0.063      331.406       -0.598      865.473
12/21/2021  10:50:00       71.365       28.175      -10.352       50.577       53.624       33.182     2558.026     2875.568     1101.060        0.626        0.327       76.726       30.571        0.159      331.668       -0.169      865.391
12/21/2021  10:51:00       78.324       40.163      -15.849       39.717       62.747       22.745     1577.449     3937.225      517.351        0.701        0.302       88.022       19.176        0.047      331.757       -0.022      865.372
12/21/2021  10:52:00       -8.749      -49.194      -12.822       40.383       77.122       43.340     1630.777     5947.878     1878.379        0.606        0.473       49.966       30.475        0.372      332.176        0.668      865.375
12/21/2021  10:53:00       56.376        1.719      -17.251       29.649       45.517       20.615      879.060     2071.794      424.992        0.343        0.169       56.403       11.634        0.043      331.894        0.205      865.346
12/21/2021  10:54:00       35.525       -7.488      -19.010       57.661       49.465       32.249     3324.754     2446.750     1040.029        0.424        0.341       36.306       29.938        0.680      331.953        0.302      865.292
12/21/2021  10:55:00      102.227      -78.798      -45.712       48.922       60.968       36.267     2393.395     3717.150     1315.294        1.309        0.371      129.072       15.761        0.015      331.730       -0.067      865.247
12/21/2021  10:56:00      127.251       19.702      -20.980       42.112       67.881       30.124     1773.391     4607.784      907.460        1.215        0.364      128.767       25.775        0.040      331.656       -0.188      865.221
12/21/2021  10:57:00       69.406      -13.995      -14.889       33.193       47.046       22.239     1101.795     2213.307      494.553        0.452        0.190       70.803       17.930        0.064      331.553       -0.358      865.244
12/21/2021  10:58:00      -23.598      -26.544       -2.544       30.520       41.777       22.350      931.476     1745.287      499.525        0.222        0.159       35.517       13.497        0.144      331.985        0.354      865.249
12/21/2021  10:59:00      -13.945      -17.935      -11.014       45.958       78.035       28.312     2112.112     6089.523      801.555        0.482        0.450       22.719       22.278        0.962      332.293        0.861      865.231
12/21/2021  11:00:00        4.791        0.802      -24.015       36.711       21.970       27.945     1347.673      482.671      780.946        0.161        0.131        4.858       21.618       19.801      332.420        1.071      865.190
12/21/2021  11:01:00       -0.818       -0.992      -15.874       52.417       41.225       28.991     2747.498     1699.493      840.498        0.277        0.264        1.286       22.881      316.818      332.334        0.927      865.162
12/21/2021  11:02:00      -31.608      -11.911       -7.764       45.461       35.127       30.302     2066.718     1233.888      918.229        0.271        0.211       33.778       20.958        0.385      332.503        1.208      865.166
12/21/2021  11:03:00       13.970     -126.486      -31.773       43.572       43.433       24.871     1898.547     1886.383      618.574        1.080        0.220      127.256       19.970        0.025      332.040        0.443      865.192
12/21/2021  11:04:00       55.431     -143.375      -33.925       50.909       58.621       34.264     2591.777     3436.439     1174.047        1.599        0.360      153.718       30.014        0.038      332.137        0.602      865.216
12/21/2021  11:05:00      116.789        3.467      -30.461       54.678       63.375       38.550     2989.637     4016.414     1486.112        1.153        0.425      116.841       13.795        0.014      332.090        0.528      865.249
12/21/2021  11:06:00       80.611       -2.673      -29.124       36.481       24.339       17.224     1330.850      592.363      296.676        0.479        0.111       80.655       13.420        0.028      331.604       -0.276      865.258
12/21/2021  11:07:00       79.902       -0.530      -15.576       68.382       47.554       39.569     4676.032     2261.421     1565.691        0.756        0.425       79.904       23.577        0.087      332.247        0.785      865.262
12/21/2021  11:08:00      108.430      -52.394      -44.427       70.104       56.778       53.648     4914.555     3223.725     2878.145        1.374        0.551      120.425       40.149        0.111      332.422        1.074      865.264
12/21/2021  11:09:00       53.932       17.670       -2.677       47.556       75.511       36.955     2261.591     5701.959     1365.698        0.628        0.466       56.753       35.877        0.400      332.200        0.708      865.266
12/21/2021  11:10:00      112.551       46.999      -18.591       40.631       51.753       26.844     1650.893     2678.395      720.599        1.014        0.252      121.970       22.265        0.033      331.904        0.220      865.277
12/21/2021  11:11:00       67.072       44.231      -22.513       33.000       44.901       17.390     1088.996     2016.121      302.397        0.518        0.170       80.343       21.467        0.071      331.946        0.290      865.295
12/21/2021  11:12:00       63.744     -104.387      -21.718       58.515       61.027       41.253     3423.985     3724.309     1701.809        1.214        0.443      122.311       26.012        0.045      332.233        0.762      865.285
12/21/2021  11:13:00       42.878      -19.607      -13.402       57.849       64.784       53.042     3346.479     4196.931     2813.436        0.638        0.518       47.148       37.925        0.647      332.502        1.206      865.241
12/21/2021  11:14:00       59.753      -46.073      -28.617       57.204       65.620       43.711     3272.345     4306.023     1910.621        0.800        0.474       75.453       32.810        0.189      332.560        1.303      865.204
12/21/2021  11:15:00       27.108      -43.989      -20.159       45.224       46.617       43.411     2045.247     2173.117     1884.487        0.459        0.305       51.671       27.032        0.274      332.415        1.064      865.193
12/21/2021  11:16:00       18.482       25.037      -17.562       32.118       43.061       26.974     1031.590     1854.266      727.605        0.244        0.181       31.120       14.769        0.225      332.529        1.251      865.199
12/21/2021  11:17:00       27.676      -13.687      -19.359       74.077       37.044       28.920     5487.457     1372.251      836.364        0.451        0.385       30.875       19.923        0.416      332.495        1.197      865.237
12/21/2021  11:18:00       69.809       -6.857      -57.772       52.710       64.259       37.395     2778.294     4129.181     1398.354        0.828        0.415       70.145       22.287        0.101      332.539        1.267      865.224
12/21/2021  11:19:00       94.034      -22.903      -26.061       63.806       71.130       42.804     4071.197     5059.460     1832.164        1.050        0.548       96.783       35.242        0.133      332.437        1.099      865.164
12/21/2021  11:20:00       81.536       -8.391      -30.583       32.587       59.128       29.417     1061.885     3496.071      865.384        0.654        0.271       81.966       16.128        0.039      332.171        0.662      865.127
12/21/2021  11:21:00       86.262     -125.738       -9.718       68.764       90.384       48.223     4728.494     8169.210     2325.457        1.928        0.761      152.483       42.157        0.076      332.484        1.174      865.156
12/21/2021  11:22:00       47.941       22.274      -13.477       53.765       60.534       37.728     2890.673     3664.380     1423.367        0.548        0.399       52.863       24.812        0.220      332.511        1.222      865.190
12/21/2021  11:23:00       84.602       75.285      -24.313       23.244       27.848       25.195      540.301      775.527      634.803        0.768        0.098      113.249        9.495        0.007      331.916        0.241      865.196
12/21/2021  11:24:00       63.871       23.413      -20.556       32.690       58.056       27.605     1068.616     3370.531      762.026        0.512        0.260       68.027       29.828        0.192      332.016        0.405      865.160
12/21/2021  11:25:00       -3.328       -5.197      -24.571       37.442       29.418       27.040     1401.938      865.438      731.170        0.182        0.150        6.171       14.988        5.899      332.267        0.819      865.140
12/21/2021  11:26:00       44.784      -28.543      -13.707       34.037       64.235       29.953     1158.542     4126.101      897.154        0.459        0.309       53.107       10.689        0.041      332.792        1.685      865.181
12/21/2021  11:27:00       92.481      -51.297      -34.903       66.390       50.138       42.970     4407.676     2513.806     1846.401        1.058        0.438      105.756       20.524        0.038      332.599        1.367      865.188
12/21/2021  11:28:00       80.581       47.165      -10.820       58.429       62.876       45.819     3413.897     3953.430     2099.357        0.915        0.473       93.369       34.045        0.133      332.508        1.215      865.137
12/21/2021  11:29:00       76.630      -51.374      -33.209       59.846       91.456       40.146     3581.589     8364.207     1611.674        1.158        0.678       92.257       20.093        0.047      332.734        1.591      865.108
12/21/2021  11:30:00       23.779      -54.766      -20.954       34.706       55.597       39.819     1204.498     3091.030     1585.590        0.494        0.294       59.706       20.207        0.115      332.826        1.741      865.111
12/21/2021  11:31:00        3.066      -75.445      -24.648       44.859       46.733       23.238     2012.338     2184.006      540.010        0.552        0.237       75.508       14.729        0.038      332.552        1.289      865.161
12/21/2021  11:32:00      105.279       22.693      -10.388       57.547       29.409       26.893     3311.605      864.916      723.239        0.830        0.245      107.697       14.426        0.018      332.178        0.671      865.163
12/21/2021  11:33:00      115.057       28.844      -14.884       59.592       47.740       21.164     3551.239     2279.122      447.931        1.028        0.314      118.617       13.715        0.013      332.094        0.534      865.137
12/21/2021  11:34:00      177.919       -4.451      -35.830       79.700       62.845       41.262     6352.011     3949.449     1702.564        2.248        0.600      177.975       25.621        0.021      332.219        0.737      865.120
12/21/2021  11:35:00      107.751        5.337      -23.878       65.029       58.625       39.889     4228.808     3436.915     1591.161        1.073        0.463      107.883       40.303        0.140      332.355        0.965      865.122
12/21/2021  11:36:00       71.722       18.836      -17.979       74.061       39.215       24.856     5485.085     1537.789      617.825        0.673        0.382       74.154       33.352        0.202      332.175        0.667      865.114
12/21/2021  11:37:00       45.338      -35.970      -22.298       53.822       71.480       28.479     2896.851     5109.325      811.054        0.633        0.441       57.874       20.608        0.127      332.387        1.017      865.094
12/21/2021  11:38:00       57.838       57.017      -19.513       31.602       24.577       22.008      998.709      604.012      484.334        0.453        0.104       81.217       16.396        0.041      332.265        0.815      865.100
12/21/2021  11:39:00       33.304       29.543      -11.198       28.609       34.105       27.240      818.500     1163.175      742.033        0.242        0.136       44.519       15.856        0.127      332.557        1.298      865.116
12/21/2021  11:40:00      112.978       48.786      -25.923       64.390       57.223       27.111     4146.011     3274.509      735.006        1.198        0.408      123.061       25.455        0.043      332.434        1.095      865.108
12/21/2021  11:41:00      110.946      -26.570      -10.642       80.888       62.224       54.798     6542.897     3871.862     3002.870        1.327        0.671      114.083       52.073        0.208      332.673        1.488      865.079
12/21/2021  11:42:00      119.683      -21.753      -13.218       92.296       54.291       49.019     8518.594     2947.492     2402.833        1.442        0.693      121.644       51.206        0.177      332.611        1.386      865.051
12/21/2021  11:43:00       15.494       12.638      -16.822       46.796       58.837       34.343     2189.901     3461.743     1179.430        0.376        0.342       19.994       11.456        0.328      332.847        1.776      865.032
12/21/2021  11:44:00       90.661       27.833      -14.998       37.661       56.247       29.209     1418.386     3163.766      853.160        0.733        0.272       94.837       19.409        0.042      332.596        1.362      865.031
12/21/2021  11:45:00      106.230       62.610      -25.534       34.921       32.807       12.581     1219.457     1076.322      158.271        0.915        0.123      123.308       14.598        0.014      331.939        0.277      865.041
12/21/2021  11:46:00       65.982       21.458      -19.558       18.391       16.989       16.853      338.234      288.637      284.016        0.305        0.046       69.384       10.421        0.023      331.986        0.354      865.038
12/21/2021  11:47:00      120.574       26.445      -25.252       23.764       21.873       13.853      564.731      478.423      191.897        0.855        0.062      123.440        9.844        0.006      331.996        0.371      865.005
12/21/2021  11:48:00       87.004        6.021      -22.642       32.812       42.588       18.253     1076.596     1813.758      333.188        0.567        0.161       87.212        8.963        0.011      332.152        0.628      864.966
12/21/2021  11:49:00       37.571       -3.575      -16.934       42.160       72.883       41.145     1777.505     5311.902     1692.923        0.525        0.439       37.740       19.998        0.281      332.842        1.768      864.924
12/21/2021  11:50:00       27.022      -63.208      -20.544       50.504       60.953       35.996     2550.621     3715.281     1295.703        0.635        0.378       68.742       33.182        0.233      332.523        1.241      864.932
12/21/2021  11:51:00       36.800       22.639       -5.394       32.920       51.216       27.569     1083.727     2623.028      760.065        0.318        0.223       43.206       16.476        0.145      332.772        1.653      864.939
12/21/2021  11:52:00       68.295       62.738      -24.391       20.906       25.692       19.369      437.077      660.058      375.161        0.533        0.074       92.738        6.109        0.004      332.300        0.873      864.908
12/21/2021  11:53:00       61.678       57.952      -17.591       37.989       18.429       21.569     1443.170      339.617      465.224        0.486        0.112       84.632       22.690        0.072      332.281        0.841      864.882
12/21/2021  11:54:00       -0.168       -6.294      -21.702       41.374       33.981       20.048     1711.808     1154.681      401.911        0.189        0.163        6.296       11.935        3.593      332.852        1.785      864.900
12/21/2021  11:55:00       46.035       42.712      -27.169       62.923       43.052       27.528     3959.327     1853.460      757.785        0.562        0.329       62.797       16.518        0.069      332.864        1.804      864.944
12/21/2021  11:56:00       70.460        9.882      -24.946       57.331       67.852       41.545     3286.882     4603.892     1725.997        0.765        0.481       71.150       28.869        0.165      332.830        1.748      864.932
12/21/2021  11:57:00      158.889       29.916      -39.073       50.240       52.487       35.043     2524.059     2754.847     1228.020        1.709        0.325      161.681       21.315        0.017      332.633        1.422      864.804
12/21/2021  11:58:00      112.624       23.249      -29.143       63.640       72.196       37.257     4050.090     5212.208     1388.105        1.236        0.533      114.998       20.655        0.032      332.740        1.600      864.651
12/21/2021  11:59:00       98.448       48.652      -13.841       67.853       48.670       32.065     4603.962     2368.727     1028.175        1.012        0.400      109.813       17.010        0.024      332.718        1.563      864.631
12/21/2021  12:00:00       -1.853      -59.884       -6.645       60.255       76.912       40.591     3630.622     5915.490     1647.642        0.741        0.560       59.912       19.106        0.102      333.069        2.142      864.769
12/21/2021  12:01:00        1.510       24.091       -5.070       42.069       26.117       27.834     1769.811      682.090      774.714        0.192        0.161       24.139        9.640        0.160      332.993        2.018      864.875
12/21/2021  12:02:00       73.396       72.831       -7.762       40.814       49.660       39.964     1665.764     2466.150     1597.132        0.824        0.286      103.399       22.624        0.048      332.945        1.939      864.820
12/21/2021  12:03:00       85.331        8.685      -24.606       72.168       66.022       33.677     5208.287     4358.970     1134.126        0.933        0.535       85.771       23.848        0.077      333.064        2.135      864.643
12/21/2021  12:04:00       13.038       -9.417        3.374       73.593       51.058       43.948     5415.907     2606.927     1931.414        0.511        0.498       16.084       30.338        3.558      333.664        3.127      864.553
12/21/2021  12:05:00       61.993       35.335      -29.784       31.147       39.603       33.286      970.113     1568.386     1107.989        0.481        0.182       71.357       12.393        0.030      332.839        1.762      864.599
12/21/2021  12:06:00       21.554      -25.835      -19.574       32.127       25.339       20.141     1032.141      642.054      405.659        0.180        0.104       33.646        9.773        0.084      333.173        2.315      864.651
12/21/2021  12:07:00       62.115      -76.405      -24.960       47.791       54.970       30.808     2283.948     3021.727      949.138        0.829        0.313       98.468       21.442        0.047      332.998        2.026      864.628
12/21/2021  12:08:00       17.114      -30.216      -17.351       37.798       55.906       37.617     1428.688     3125.514     1415.036        0.374        0.298       34.726       30.054        0.749      333.191        2.345      864.542
12/21/2021  12:09:00       49.407       10.509      -18.191       69.772       72.302       60.361     4868.192     5227.573     3643.401        0.831        0.687       50.512       40.874        0.655      333.262        2.463      864.478
12/21/2021  12:10:00      114.136       55.444      -16.731       89.631       53.219       37.409     8033.666     2832.296     1399.430        1.432        0.613      126.890       36.411        0.082      332.939        1.928      864.514
12/21/2021  12:11:00      162.901       68.756      -24.563       50.190       40.121       28.484     2519.012     1609.670      811.337        1.840        0.247      176.817       13.979        0.006      332.552        1.287      864.549
12/21/2021  12:12:00       60.683      116.683       -9.844       37.556       45.921       30.720     1410.470     2108.699      943.709        1.093        0.223      131.519       22.181        0.028      332.698        1.530      864.529
12/21/2021  12:13:00       42.362      134.469      -15.296       41.356       48.835       46.900     1710.290     2384.904     2199.613        1.320        0.315      140.983       43.023        0.093      332.761        1.635      864.468
12/21/2021  12:14:00      -14.684       91.050      -10.074       37.723       24.577       28.059     1422.992      604.012      787.291        0.571        0.141       92.227       20.871        0.051      332.646        1.443      864.435
12/21/2021  12:15:00       32.476      -11.052      -18.957       56.523       62.653       29.388     3194.813     3925.370      863.639        0.476        0.399       34.305       23.383        0.465      333.082        2.165      864.447
12/21/2021  12:16:00       48.361      -25.252      -17.288       57.181       54.029       37.910     3269.631     2919.182     1437.199        0.545        0.381       54.557       24.823        0.207      333.314        2.547      864.445
12/21/2021  12:17:00       99.667      -13.096      -40.907       61.689       62.310       33.240     3805.502     3882.587     1104.898        1.028        0.440      100.524       25.649        0.065      333.120        2.228      864.437
12/21/2021  12:18:00      114.254       18.333      -17.126       50.518       73.934       32.946     2552.039     5466.179     1085.440        1.139        0.455      115.715       12.332        0.011      332.981        1.998      864.418
12/21/2021  12:19:00      104.108       23.814      -23.883       89.591      103.789       32.172     8026.585    10772.152     1035.012        1.590        0.992      106.797       21.396        0.040      333.141        2.260      864.397
12/21/2021  12:20:00       57.298     -107.127      -21.430       75.562       69.656       40.327     5709.644     4851.956     1626.280        1.370        0.609      121.487       42.036        0.120      333.191        2.344      864.405
12/21/2021  12:21:00       72.119     -147.336      -36.143       39.029       52.555       36.363     1523.229     2762.027     1322.279        1.691        0.280      164.040       28.778        0.031      332.831        1.749      864.400
12/21/2021  12:22:00       12.148        8.989      -14.676       54.341       40.038       29.182     2952.970     1603.027      851.585        0.292        0.270       15.112       23.006        2.318      333.538        2.920      864.385
12/21/2021  12:23:00       17.958       17.330      -23.941       40.269       45.136       24.776     1621.563     2037.222      613.860        0.273        0.214       24.956       19.782        0.628      333.327        2.570      864.375
12/21/2021  12:24:00       39.839       19.527        0.551       44.631       32.442       33.265     1991.970     1052.468     1106.534        0.306        0.208       44.367       19.530        0.194      333.179        2.326      864.385
12/21/2021  12:25:00       16.597       17.929      -11.635       30.078       26.565       18.476      904.665      705.687      341.362        0.134        0.098       24.431        9.082        0.138      333.135        2.253      864.372
12/21/2021  12:26:00       18.999       -6.596      -13.286       27.897       30.939       18.241      778.249      957.210      332.729        0.132        0.103       20.112       13.032        0.420      333.375        2.650      864.351
12/21/2021  12:27:00        8.851       -9.274      -25.201       34.835       43.193       26.198     1213.474     1865.593      686.321        0.228        0.188       12.820       10.194        0.632      333.624        3.062      864.322
12/21/2021  12:28:00       68.000     -106.128      -34.179       47.952       61.523       44.349     2299.361     3785.050     1966.866        1.255        0.403      126.044       28.341        0.051      333.736        3.249      864.306
12/21/2021  12:29:00       99.604      -62.346      -48.160       64.625       83.621       42.211     4176.388     6992.503     1781.750        1.454        0.648      117.508       34.986        0.089      333.382        2.660      864.297
12/21/2021  12:30:00      109.116      -13.168      -25.740       78.086       62.176       41.682     6097.347     3865.906     1737.417        1.222        0.585      109.908       32.882        0.090      333.349        2.606      864.250
12/21/2021  12:31:00      116.032      -13.256      -30.876       53.339       69.975       30.688     2844.996     4896.501      941.738        1.164        0.434      116.787       24.110        0.043      333.300        2.527      864.204
12/21/2021  12:32:00       60.802      -76.697      -25.382       55.160       46.474       33.540     3042.616     2159.842     1124.935        0.827        0.316       97.874       20.200        0.043      333.615        3.046      864.209
12/21/2021  12:33:00        3.260      -56.173      -22.008       44.675       40.184       27.261     1995.838     1614.714      743.137        0.400        0.218       56.268       16.460        0.086      333.263        2.464      864.292
12/21/2021  12:34:00      -27.639      -78.804      -21.864       23.528       50.165       28.418      553.564     2516.497      807.577        0.566        0.194       83.511       19.056        0.052      333.149        2.276      864.359
12/21/2021  12:35:00       77.864     -139.876      -42.749       78.927       69.318       46.608     6229.510     4804.930     2172.309        2.033        0.660      160.088       40.937        0.065      333.393        2.678      864.375
12/21/2021  12:36:00      137.336     -145.668      -35.771       81.321      103.186       51.898     6613.137    10647.302     2693.420        3.065        0.998      200.201       53.553        0.072      333.287        2.501      864.309
12/21/2021  12:37:00      121.529       -5.673       -2.339       91.964       75.569       56.917     8457.368     5710.748     3239.596        1.610        0.870      121.661       50.295        0.171      333.586        2.998      864.227
12/21/2021  12:38:00       66.320       41.712      -13.900       47.973       42.832       25.254     2301.454     1834.576      637.773        0.555        0.239       78.347       18.220        0.054      333.477        2.818      864.224
12/21/2021  12:39:00      130.522        1.232      -14.465       35.872       42.374       25.339     1286.768     1795.532      642.086        1.048        0.186      130.528       19.995        0.023      333.234        2.416      864.283
12/21/2021  12:40:00       33.802      -31.205      -19.044       50.169       62.383       28.340     2516.888     3891.649      803.145        0.484        0.361       46.004       29.572        0.413      333.603        3.027      864.331
12/21/2021  12:41:00       82.545     -141.420      -38.461       47.547       70.380       37.205     2260.715     4953.369     1384.178        1.844        0.430      163.747       35.395        0.047      333.432        2.743      864.346
12/21/2021  12:42:00       52.505      -97.505      -30.046       35.150       96.077       26.846     1235.505     9230.859      720.727        1.217        0.559      110.743       13.207        0.014      333.132        2.246      864.290
12/21/2021  12:43:00       93.106      -61.953      -34.192       66.948       96.489       57.356     4482.080     9310.200     3289.687        1.538        0.854      111.835       50.130        0.201      333.666        3.130      864.196
12/21/2021  12:44:00       56.975       18.645      -31.481       71.774       64.936       31.721     5151.511     4216.739     1006.211        0.748        0.519       59.948       10.163        0.029      333.676        3.148      864.152
12/21/2021  12:45:00        7.712       -0.495      -18.338       59.211       43.830       35.769     3505.977     1921.077     1279.443        0.355        0.335        7.728       28.520       13.621      333.796        3.347      864.159
12/21/2021  12:46:00       43.144      -94.927      -18.092       39.565       49.567       35.627     1565.396     2456.893     1269.252        0.824        0.265      104.272       26.861        0.066      333.442        2.762      864.167
12/21/2021  12:47:00       39.832      -33.554      -15.467       26.469       23.498       21.522      700.618      552.161      463.192        0.233        0.086       52.081       13.672        0.069      333.329        2.574      864.143
12/21/2021  12:48:00       86.287      -12.900      -33.309       86.759       81.620       46.248     7527.158     6661.899     2138.841        1.252        0.816       87.246       37.944        0.189      333.554        2.945      864.116
12/21/2021  12:49:00       74.384     -206.794      -43.836       68.997       57.897       30.362     4760.554     3352.049      921.881        2.962        0.452      219.765       24.684        0.013      333.229        2.405      864.130
12/21/2021  12:50:00       78.989     -141.151      -30.987       49.667       44.631       32.079     2466.780     1991.939     1029.061        1.630        0.274      161.749       21.645        0.018      333.435        2.749      864.160
12/21/2021  12:51:00       72.903      -94.981      -42.258       43.941       53.615       27.029     1930.818     2874.545      730.565        1.083        0.277      119.734       19.267        0.026      333.302        2.528      864.158
12/21/2021  12:52:00       47.584        8.494       -9.098       65.849       66.446       51.919     4336.105     4415.117     2695.536        0.693        0.572       48.336       37.436        0.600      333.485        2.831      864.096
12/21/2021  12:53:00      104.247       -6.010      -17.905       68.727       46.206       32.873     4723.382     2134.961     1080.643        0.958        0.397      104.421       36.191        0.120      333.407        2.702      864.027
12/21/2021  12:54:00      196.407       35.696      -20.257       82.614       62.977       29.629     6825.072     3966.110      877.848        2.596        0.583      199.624       31.493        0.025      333.287        2.501      863.996
12/21/2021  12:55:00       93.152        5.846      -25.145       46.582       45.624       31.468     2169.880     2081.510      990.242        0.729        0.262       93.335       24.766        0.070      333.539        2.921      864.011
12/21/2021  12:56:00      111.239       66.288      -38.800       35.393       56.664       27.557     1252.685     3210.847      759.392        1.175        0.261      129.492       14.724        0.013      333.318        2.555      864.038
12/21/2021  12:57:00       81.747     -153.109      -33.781       44.610       66.276       31.095     1990.070     4392.453      966.880        1.931        0.367      173.565       21.656        0.016      333.199        2.356      864.043
12/21/2021  12:58:00       96.248     -217.359      -51.682       66.037       53.453       28.708     4360.942     2857.170      824.135        3.361        0.402      237.715       25.195        0.011      333.345        2.596      864.048
12/21/2021  12:59:00       93.252     -130.849      -49.417       51.491       44.168       23.172     2651.346     1950.814      536.936        1.670        0.257      160.677       24.329        0.023      333.144        2.268      864.046
12/21/2021  13:00:00      -22.241      -81.277      -25.616       45.254       35.675       35.889     2047.956     1272.716     1288.046        0.618        0.230       84.265       29.104        0.119      333.440        2.757      864.040
12/21/2021  13:01:00      -11.196      -48.136      -36.665       24.085       29.950       21.782      580.072      896.989      474.449        0.287        0.098       49.421       13.443        0.074      333.558        2.952      864.046
12/21/2021  13:02:00      -30.650       -2.645       -2.261       42.257       45.121       29.436     1785.676     2035.913      866.470        0.282        0.234       30.764       25.118        0.667      334.039        3.749      864.015
12/21/2021  13:03:00       51.713       25.282      -28.683       76.297       62.902       42.309     5821.289     3956.605     1790.072        0.785        0.578       57.562       39.534        0.472      333.907        3.530      863.954
12/21/2021  13:04:00       92.732     -106.496      -40.186       61.112      102.602       54.060     3734.664    10527.264     2922.484        1.937        0.859      141.211       39.431        0.078      333.895        3.509      863.937
12/21/2021  13:05:00       74.786      -29.184      -11.052       88.617       91.314       50.876     7852.917     8338.282     2588.386        1.267        0.939       80.278       45.928        0.327      333.923        3.556      863.956
12/21/2021  13:06:00       25.396      -10.421      -23.199       46.734       39.159       36.098     2184.092     1533.432     1303.100        0.316        0.251       27.451       26.404        0.925      334.018        3.715      863.987
12/21/2021  13:07:00       45.813       14.567      -12.488       53.828       48.139       33.005     2897.467     2317.339     1089.331        0.438        0.315       48.073       19.375        0.162      333.765        3.296      863.999
12/21/2021  13:08:00       65.631      -10.529      -25.959       91.706       60.607       35.180     8409.991     3673.215     1237.608        0.920        0.666       66.470       28.279        0.181      333.774        3.309      863.959
12/21/2021  13:09:00      122.912      -19.484      -29.310       85.505       58.850       28.649     7311.089     3463.328      820.753        1.397        0.580      124.447       23.973        0.037      333.524        2.894      863.892
12/21/2021  13:10:00      -16.333      -75.642      -13.316       38.330       29.639       34.050     1469.208      878.477     1159.432        0.484        0.175       77.386       13.755        0.032      333.723        3.224      863.860
12/21/2021  13:11:00      -16.287      -27.130      -34.937       39.812       39.870       34.051     1584.981     1589.623     1159.439        0.328        0.217       31.643       22.126        0.489      333.979        3.650      863.900
12/21/2021  13:12:00       -1.315      -77.164      -43.694       41.469       52.296       31.850     1719.681     2734.861     1014.423        0.667        0.273       77.175       20.895        0.073      333.928        3.564      863.949
12/21/2021  13:13:00      115.836     -101.648      -33.210       90.042       77.942       49.164     8107.548     6075.021     2417.106        2.072        0.830      154.111       49.624        0.104      333.892        3.503      863.963
12/21/2021  13:14:00      103.294     -180.353      -36.595       57.273       61.836       35.578     3280.184     3823.737     1265.824        2.645        0.418      207.839       34.980        0.028      333.561        2.955      863.941
12/21/2021  13:15:00      102.785      -74.544      -46.450       58.203       89.186       49.600     3387.581     7954.165     2460.169        1.604        0.690      126.971       23.833        0.035      333.820        3.386      863.910
12/21/2021  13:16:00      127.811      -23.764      -19.935       74.687       63.327       46.872     5578.222     4010.305     2196.980        1.454        0.589      130.001       37.573        0.084      333.572        2.976      863.877
12/21/2021  13:17:00       62.723      -28.783      -15.974       43.578       63.510       29.011     1899.027     4033.578      841.655        0.589        0.339       69.012       26.593        0.148      333.787        3.330      863.840
12/21/2021  13:18:00       79.504        7.413      -12.019       60.290       65.621       43.415     3634.860     4306.178     1884.844        0.817        0.491       79.849       40.764        0.261      333.925        3.560      863.821
12/21/2021  13:19:00       58.454     -110.968      -26.265       45.974       71.007       42.157     2113.599     5042.058     1777.195        1.268        0.447      125.422       26.642        0.045      333.875        3.476      863.830
12/21/2021  13:20:00      122.111      -67.220      -32.408       79.361       60.802       52.765     6298.113     3696.891     2784.137        1.663        0.639      139.390       35.841        0.066      333.969        3.630      863.836
12/21/2021  13:21:00      101.095      -28.280      -27.789       97.157       84.630       60.773     9439.501     7162.168     3693.406        1.604        1.015      104.976       50.994        0.236      333.934        3.572      863.826
12/21/2021  13:22:00      105.075      -50.737      -31.817       75.732       70.166       46.342     5735.356     4923.226     2147.597        1.371        0.640      116.683       40.200        0.119      333.938        3.580      863.833
12/21/2021  13:23:00       75.876      -71.368      -19.932       40.627       70.298       34.656     1650.542     4941.879     1201.060        0.952        0.390      104.166       32.382        0.097      333.825        3.394      863.867
12/21/2021  13:24:00       74.680        5.606      -21.411       47.256       46.145       29.985     2233.094     2129.396      899.126        0.566        0.263       74.891       17.443        0.054      333.709        3.202      863.875
12/21/2021  13:25:00       74.350      -25.999       -9.371       75.836       57.306       45.709     5751.161     3284.006     2089.329        0.871        0.556       78.765       42.355        0.289      334.029        3.732      863.821
12/21/2021  13:26:00       64.521       14.337      -21.548       62.747       74.648       38.300     3937.143     5572.363     1466.859        0.790        0.549       66.095       15.932        0.058      333.971        3.638      863.790
12/21/2021  13:27:00       38.542      -15.388      -18.936       57.905       53.673       37.274     3352.957     2880.808     1389.366        0.485        0.381       41.500       17.891        0.186      334.070        3.800      863.820
12/21/2021  13:28:00       42.766       18.308      -11.512       47.990       36.658       24.650     2303.039     1343.803      607.598        0.327        0.213       46.520       14.408        0.096      334.014        3.707      863.863
12/21/2021  13:29:00       39.240       22.871       -7.081       50.928       26.041       13.178     2593.630      678.124      173.652        0.278        0.172       45.418       12.834        0.080      333.936        3.579      863.869
12/21/2021  13:30:00       77.977       48.847      -36.819       44.931       58.200       32.752     2018.831     3387.247     1072.725        0.815        0.324       92.013       30.260        0.108      333.948        3.598      863.800
12/21/2021  13:31:00      -13.359        9.174       -6.996       27.609       49.581       33.563      762.284     2458.276     1126.488        0.233        0.217       16.206       17.545        1.172      334.385        4.322      863.688
12/21/2021  13:32:00      120.350       24.915      -13.550       86.922       54.784       37.229     7555.400     3001.256     1386.016        1.361        0.597      122.902       26.237        0.046      334.010        3.699      863.639
12/21/2021  13:33:00       89.773       16.277       -9.783       47.586       61.367       28.603     2264.420     3765.917      818.128        0.763        0.342       91.237       24.885        0.074      333.897        3.513      863.681
12/21/2021  13:34:00       83.175        9.982      -12.270       44.022       52.869       23.897     1937.980     2795.159      571.090        0.624        0.265       83.772       17.882        0.046      333.912        3.539      863.728
12/21/2021  13:35:00       60.534       60.886       -6.582       43.536       38.245       26.259     1895.367     1462.668      689.546        0.573        0.202       85.857       21.419        0.062      333.795        3.345      863.744
12/21/2021  13:36:00       50.516       59.905       -3.528       33.377       41.183       29.023     1114.003     1696.058      842.312        0.490        0.183       78.361       24.828        0.100      333.785        3.328      863.727
12/21/2021  13:37:00      -13.595       12.838       -5.717       30.988       15.330       17.819      960.287      235.019      317.521        0.095        0.076       18.699       12.624        0.456      333.970        3.634      863.692
12/21/2021  13:38:00       66.034       13.694      -14.951       33.944       30.245       18.292     1152.210      914.762      334.585        0.359        0.120       67.439        8.893        0.017      333.866        3.463      863.697
12/21/2021  13:39:00      105.465       25.699      -16.239       61.310       64.516       28.199     3758.873     4162.335      795.185        1.038        0.436      108.551       29.935        0.076      334.016        3.711      863.727
12/21/2021  13:40:00      126.802       23.291      -20.175       59.470       36.772       25.068     3536.691     1352.158      628.425        1.127        0.276      128.924        9.942        0.006      333.863        3.457      863.743
12/21/2021  13:41:00       65.557       20.486      -31.232       42.831       42.454       28.552     1834.506     1802.376      815.229        0.507        0.223       68.684       18.484        0.072      333.964        3.624      863.738
12/21/2021  13:42:00        1.389      -58.987        4.515       49.789       66.324       43.847     2478.905     4398.868     1922.558        0.615        0.440       59.003       24.280        0.169      334.289        4.162      863.713
12/21/2021  13:43:00       25.807      -10.633      -12.667       21.102       51.470       18.895      445.287     2649.208      357.031        0.219        0.173       27.912       19.933        0.510      334.152        3.937      863.692
12/21/2021  13:44:00       51.869       60.358       -4.391       49.213       30.040       23.090     2421.953      902.390      533.159        0.510        0.193       79.583       22.000        0.076      334.130        3.898      863.684
12/21/2021  13:45:00      102.045       59.891      -15.421       50.844       35.727       26.118     2585.092     1276.398      682.167        0.939        0.227      118.323       21.463        0.033      333.940        3.585      863.675
12/21/2021  13:46:00       89.532       71.386      -19.968       45.397       44.256       27.213     2060.861     1958.590      740.550        0.913        0.238      114.507       15.601        0.019      334.102        3.854      863.663
12/21/2021  13:47:00       72.227       68.702      -19.494       55.846       35.330       23.421     3118.807     1248.229      548.563        0.762        0.246       99.683       16.815        0.028      333.953        3.607      863.661
12/21/2021  13:48:00       14.642       69.306      -11.512       18.736       46.591       19.317      351.043     2170.756      373.161        0.402        0.145       70.836       12.880        0.033      334.095        3.842      863.666
12/21/2021  13:49:00       44.372      -41.052      -22.607       38.173       60.081       33.204     1457.192     3609.678     1102.502        0.517        0.308       60.450       23.399        0.150      334.419        4.378      863.673
12/21/2021  13:50:00       88.817      -47.549      -29.112       57.482       52.428       39.054     3304.222     2748.648     1525.230        0.929        0.379      100.744       32.078        0.101      334.446        4.423      863.698
12/21/2021  13:51:00       99.554       -6.753      -25.622       53.863       47.477       27.431     2901.247     2254.075      752.448        0.826        0.295       99.783       18.711        0.035      334.086        3.827      863.729
12/21/2021  13:52:00       66.648      -18.902      -13.913       58.707       70.759       35.254     3446.509     5006.870     1242.832        0.734        0.485       69.277       33.529        0.234      334.216        4.041      863.754
12/21/2021  13:53:00       90.889       49.101      -14.607       28.251       41.760       18.888      798.144     1743.868      356.766        0.689        0.145      103.304        6.660        0.004      333.855        3.445      863.772
12/21/2021  13:54:00       27.558       44.805       -6.424       19.507       26.880       18.148      380.527      722.557      329.352        0.212        0.072       52.602        7.615        0.021      334.038        3.747      863.788
12/21/2021  13:55:00       55.715       12.187      -26.895       30.865       43.479       25.565      952.631     1890.452      653.553        0.374        0.175       57.032       21.365        0.140      334.055        3.775      863.802
12/21/2021  13:56:00       42.138      -38.424      -19.156       27.985       76.157       41.073      783.181     5799.847     1687.009        0.594        0.414       57.026       43.936        0.594      334.061        3.784      863.810
12/21/2021  13:57:00       39.065      -52.025      -24.519       17.818       20.772       19.259      317.479      431.480      370.921        0.298        0.056       65.059       10.024        0.024      333.941        3.587      863.812
12/21/2021  13:58:00        4.580       16.968      -10.868       39.367       19.888       20.191     1549.760      395.517      407.680        0.139        0.118       17.575       24.153        1.889      333.998        3.682      863.832
12/21/2021  13:59:00      -18.011       48.358      -25.222       18.370       19.322       16.570      337.456      373.348      274.561        0.214        0.049       51.603        8.552        0.027      333.916        3.545      863.836
12/21/2021  14:00:00       25.152       68.077      -23.120       26.266       26.610       20.004      689.896      708.113      400.155        0.380        0.090       72.575       14.064        0.038      333.947        3.597      863.812
12/21/2021  14:01:00       67.548       81.085      -27.930       44.099       34.922       30.492     1944.720     1219.544      929.777        0.801        0.205      105.534       13.260        0.016      334.018        3.714      863.776
12/21/2021  14:02:00       91.895       56.118      -25.373       21.441       36.140       14.179      459.718     1306.101      201.057        0.710        0.098      107.675        5.444        0.003      333.903        3.525      863.741
12/21/2021  14:03:00       52.716       40.495      -31.032       38.964       23.364       22.040     1518.177      545.891      485.747        0.397        0.127       66.474       11.607        0.030      333.944        3.591      863.712
12/21/2021  14:04:00        2.950       45.895      -12.952       21.273       18.622       28.284      452.553      346.785      799.957        0.194        0.080       45.990       17.384        0.143      334.077        3.812      863.674
12/21/2021  14:05:00      -40.697       46.564      -21.648       36.916       56.878       20.362     1362.815     3235.122      414.597        0.465        0.251       61.842       15.404        0.062      334.378        4.310      863.611
12/21/2021  14:06:00      -78.695       64.871      -15.637       44.080       44.702       27.871     1943.031     1998.235      776.766        0.768        0.236      101.986       22.258        0.048      334.220        4.047      863.536
12/21/2021  14:07:00       -2.668      -10.225        0.589       23.986       32.146       22.966      575.309     1033.335      527.445        0.112        0.107       10.567       17.541        2.756      334.577        4.640      863.452
12/21/2021  14:08:00       42.743       15.072       -6.026       36.866       16.957       21.233     1359.083      287.552      450.856        0.209        0.105       45.323       20.511        0.205      334.253        4.105      863.414
12/21/2021  14:09:00      123.198       21.847      -10.150       37.715       36.754       21.472     1422.419     1350.868      461.055        0.950        0.162      125.120       14.237        0.013      334.169        3.966      863.384
12/21/2021  14:10:00      147.540       21.935      -10.393       92.188       56.911       32.404     8498.676     3238.876     1050.022        1.757        0.639      149.162       29.894        0.040      334.464        4.452      863.389
12/21/2021  14:11:00      127.958       82.837      -15.947       50.111       38.536       25.450     2511.127     1485.035      647.726        1.407        0.232      152.431       24.382        0.026      334.204        4.020      863.443
12/21/2021  14:12:00       17.437      -67.850      -28.945       42.105       41.426       23.731     1772.809     1716.152      563.179        0.490        0.203       70.055       16.535        0.056      334.289        4.163      863.488
12/21/2021  14:13:00        0.876       -5.733      -16.459       40.156       55.324       24.164     1612.516     3060.693      583.897        0.278        0.263        5.799        8.497        2.147      334.696        4.840      863.515
12/21/2021  14:14:00        1.506      -68.986       -5.191       25.487       45.439       21.288      649.565     2064.694      453.197        0.398        0.158       69.002       11.261        0.027      334.514        4.536      863.519
12/21/2021  14:15:00       24.357       31.188       -4.488       18.305       31.440       18.199      335.071      988.459      331.220        0.162        0.083       39.572       15.378        0.151      334.567        4.624      863.492
12/21/2021  14:16:00       86.949       22.609      -31.280       56.519       56.006       21.318     3194.380     3136.713      454.453        0.792        0.339       89.840       13.082        0.021      334.572        4.633      863.435
12/21/2021  14:17:00      139.458       56.766      -20.183       46.088       60.277       37.523     2124.063     3633.282     1407.975        1.512        0.358      150.569       19.981        0.018      334.357        4.276      863.390
12/21/2021  14:18:00       41.636       29.824       -9.148       42.818       44.968       26.418     1833.384     2022.137      697.937        0.363        0.228       51.215       22.102        0.186      334.426        4.391      863.415
12/21/2021  14:19:00        9.696        3.133       -9.827       21.766       56.302       22.190      473.742     3169.939      492.383        0.217        0.207       10.190       18.892        3.437      334.471        4.464      863.478
12/21/2021  14:20:00       72.450     -123.533      -23.121       47.661       60.142       43.079     2271.586     3617.067     1855.815        1.439        0.387      143.211       33.053        0.053      334.686        4.822      863.533
12/21/2021  14:21:00       66.278      -53.023      -35.839       51.001       75.602       42.114     2601.129     5715.706     1773.619        0.929        0.505       84.878       29.371        0.120      334.674        4.802      863.553
12/21/2021  14:22:00       58.032       12.149      -10.455       49.305       30.086       26.800     2430.947      905.185      718.235        0.384        0.203       59.290       17.006        0.082      334.394        4.337      863.530
12/21/2021  14:23:00      108.619       30.717      -12.665       43.895       47.535       29.187     1926.762     2259.551      851.909        0.897        0.252      112.878       14.405        0.016      334.317        4.210      863.495
12/21/2021  14:24:00       60.948      -95.045      -27.199       61.038       64.795       39.469     3725.672     4198.331     1557.792        1.148        0.474      112.908       32.700        0.084      334.611        4.696      863.479
12/21/2021  14:25:00       20.078     -139.883      -29.168       26.407       36.806       20.053      697.343     1354.683      402.140        1.164        0.123      141.317       18.328        0.017      334.267        4.126      863.512
12/21/2021  14:26:00       10.369      -79.233      -16.743       26.541       41.249       25.556      704.411     1701.465      653.127        0.486        0.153       79.908       24.420        0.093      334.722        4.881      863.558
12/21/2021  14:27:00       -8.630      -96.890       -7.474       24.557       28.439       29.054      603.047      808.784      844.124        0.589        0.113       97.274       12.030        0.015      334.697        4.840      863.597
12/21/2021  14:28:00       18.935      -58.669      -13.369       19.141       42.903       27.241      366.363     1840.658      742.087        0.346        0.147       61.649       22.952        0.139      334.432        4.400      863.594
12/21/2021  14:29:00      -10.281       13.803      -15.946       30.193       25.416       19.762      911.593      645.998      390.535        0.125        0.097       17.211       11.044        0.412      334.361        4.282      863.564
12/21/2021  14:30:00       71.970       48.483      -18.319       43.838       26.082       18.981     1921.734      680.267      360.273        0.541        0.148       86.777       10.208        0.014      334.261        4.116      863.508
12/21/2021  14:31:00       82.681       22.144      -12.082       36.996       22.407       20.162     1368.712      502.067      406.506        0.487        0.114       85.595       16.767        0.038      334.327        4.227      863.456
12/21/2021  14:32:00       39.235       26.323       -5.469       28.495       26.711       21.436      811.978      713.463      459.522        0.212        0.099       47.247       11.526        0.060      334.443        4.416      863.461
12/21/2021  14:33:00       56.408       36.310       -3.695       41.454       31.071       21.025     1718.445      965.411      442.052        0.382        0.156       67.084       22.206        0.110      334.330        4.231      863.502
12/21/2021  14:34:00       67.087       46.651       -5.727       43.429       28.183       22.766     1886.072      794.278      518.297        0.495        0.160       81.713        6.968        0.007      334.437        4.408      863.505
12/21/2021  14:35:00       14.961       -5.125       -7.772       33.756       24.446       26.728     1139.452      597.605      714.409        0.138        0.123       15.814       13.113        0.688      334.836        5.070      863.469
12/21/2021  14:36:00       93.532       39.261      -14.479       49.206       51.914       35.898     2421.215     2695.094     1288.680        0.845        0.320      101.438       14.962        0.022      334.549        4.596      863.435
12/21/2021  14:37:00      101.919       54.810      -15.325       37.692       43.826       25.057     1420.689     1920.748      627.844        0.880        0.198      115.722       13.975        0.015      334.504        4.520      863.404
12/21/2021  14:38:00       35.861       14.803      -13.814       47.170       40.148       19.258     2225.022     1611.861      370.877        0.295        0.210       38.796       14.835        0.146      334.633        4.733      863.402
12/21/2021  14:39:00       -1.282      -52.821      -30.618       25.275       38.579       17.903      638.835     1488.313      320.520        0.309        0.122       52.836       12.694        0.058      334.885        5.153      863.433
12/21/2021  14:40:00       13.008      -87.151      -18.731       23.446       28.258       18.733      549.722      798.493      350.931        0.491        0.085       88.116       11.190        0.016      334.556        4.606      863.455
12/21/2021  14:41:00       64.232      -19.717       -7.433       62.941       53.842       24.082     3961.546     2899.005      579.938        0.600        0.372       67.190       20.020        0.089      334.704        4.853      863.458
12/21/2021  14:42:00       85.411       28.557      -22.723       37.806       46.605       28.939     1429.279     2172.044      837.463        0.653        0.222       90.059       17.146        0.036      334.509        4.528      863.469
12/21/2021  14:43:00       63.645       57.499      -20.761       56.341       36.205       39.150     3174.335     1310.772     1532.684        0.690        0.301       85.772       30.384        0.125      334.560        4.611      863.514
12/21/2021  14:44:00       22.810      -55.553       -9.539       37.946       52.812       31.089     1439.908     2789.102      966.542        0.445        0.260       60.054       23.804        0.157      334.918        5.207      863.581
12/21/2021  14:45:00       43.295     -134.268      -25.178       37.604       41.346       27.294     1414.098     1709.509      744.955        1.220        0.193      141.076       21.286        0.023      334.794        5.003      863.619
12/21/2021  14:46:00       41.110      -49.437      -33.491       50.926       57.874       45.188     2593.486     3349.370     2041.992        0.662        0.399       64.296       29.440        0.210      335.074        5.466      863.618
12/21/2021  14:47:00       85.319      -76.399      -23.988       63.749      101.313       39.659     4063.877    10264.412     1572.809        1.479        0.795      114.526       37.264        0.106      334.936        5.236      863.576
12/21/2021  14:48:00       94.784        5.365       -7.533       88.358       76.316       49.466     7807.071     5824.067     2446.922        1.257        0.804       94.935       43.174        0.207      334.859        5.109      863.500
12/21/2021  14:49:00       73.238      -72.579      -37.792       55.115       52.131       31.662     3037.628     2717.599     1002.490        0.941        0.338      103.110       20.260        0.039      334.859        5.109      863.447
12/21/2021  14:50:00       52.326      -41.255      -32.918       43.332       56.120       33.880     1877.654     3149.491     1147.872        0.585        0.309       66.633       13.239        0.039      334.927        5.223      863.459
12/21/2021  14:51:00        5.003      -64.161      -27.892       49.396       26.564       22.206     2439.998      705.651      493.127        0.428        0.182       64.355       20.689        0.103      334.608        4.691      863.467
12/21/2021  14:52:00       -7.184       14.661       -8.404       21.852       29.110       17.568      477.494      847.373      308.634        0.099        0.082       16.327       14.160        0.752      334.872        5.132      863.454
12/21/2021  14:53:00       38.818       51.729       -2.670       30.265       36.225       16.152      915.959     1312.244      260.872        0.334        0.124       64.674       10.022        0.024      334.633        4.733      863.424
12/21/2021  14:54:00       29.907      -58.953      -36.666       47.668       82.393       27.653     2272.213     6788.607      764.714        0.777        0.491       66.105        9.499        0.021      334.761        4.947      863.385
12/21/2021  14:55:00       50.796     -110.125      -24.566       33.212       53.949       36.530     1103.032     2910.546     1334.420        1.033        0.267      121.276       19.051        0.025      334.754        4.934      863.388
12/21/2021  14:56:00       59.220       -9.752      -23.727       76.314       74.988       33.971     5823.895     5623.236     1154.038        0.838        0.630       60.018       25.221        0.177      334.812        5.033      863.430
12/21/2021  14:57:00       38.462      -64.199      -12.273       42.137       50.345       30.874     1775.528     2534.642      953.200        0.551        0.263       74.838       20.155        0.073      334.928        5.225      863.477
12/21/2021  14:58:00       58.919       -4.003      -21.164       39.095       42.120       28.043     1528.422     1774.088      786.418        0.401        0.204       59.055       17.092        0.084      334.738        4.909      863.494
12/21/2021  14:59:00      116.531       51.213      -22.978       34.251       32.713       21.804     1173.118     1070.165      475.422        0.972        0.136      127.288       18.696        0.022      334.474        4.471      863.498
12/21/2021  15:00:00       90.062       41.855      -20.377       16.135       18.960       10.389      260.340      359.470      107.935        0.550        0.036       99.313        7.033        0.005      334.444        4.419      863.487
12/21/2021  15:01:00       72.927      -77.410      -30.946       45.483       90.429       37.619     2068.700     8177.380     1415.201        1.196        0.583      106.352       35.316        0.110      334.715        4.869      863.460
12/21/2021  15:02:00       74.739      -94.467      -36.629       42.869       64.661       31.674     1837.764     4180.991     1003.263        1.144        0.351      120.457       27.465        0.052      334.855        5.103      863.430
12/21/2021  15:03:00       51.329      -69.089      -14.706       55.314       53.573       46.786     3059.648     2870.034     2188.886        0.787        0.406       86.069       37.689        0.192      334.816        5.039      863.405
12/21/2021  15:04:00       12.016        4.327       -6.944       38.396       47.558       22.091     1474.238     2261.790      488.002        0.222        0.211       12.771       21.187        2.752      334.856        5.106      863.402
12/21/2021  15:05:00      160.631       42.453      -18.790       26.123       26.167       22.538      682.403      684.724      507.951        1.492        0.094      166.146       12.495        0.006      334.552        4.600      863.379
12/21/2021  15:06:00      135.836       55.202      -12.869       21.947       23.442       13.221      481.681      549.535      174.805        1.143        0.060      146.625        9.236        0.004      334.456        4.440      863.347
12/21/2021  15:07:00      116.494       28.418      -24.781       44.033       38.694       16.705     1938.892     1497.200      279.060        0.935        0.186      119.910       10.405        0.008      334.463        4.452      863.301
12/21/2021  15:08:00       86.079       55.921       -9.935       25.090       25.887       16.503      629.500      670.115      272.344        0.610        0.079      102.649        4.802        0.002      334.487        4.490      863.265
12/21/2021  15:09:00       45.860        7.019       -6.174       49.670       48.534       34.031     2467.122     2355.517     1158.092        0.408        0.299       46.394       18.635        0.161      334.736        4.906      863.255
12/21/2021  15:10:00       43.232       37.514       -7.293       54.614       32.290       25.770     2982.736     1042.655      664.089        0.401        0.234       57.239       24.281        0.180      334.514        4.538      863.257
12/21/2021  15:11:00       26.500     -104.037      -23.565       32.611       38.450       24.029     1063.504     1478.379      577.386        0.760        0.156      107.359       18.499        0.030      334.584        4.652      863.265
12/21/2021  15:12:00       15.595     -119.246      -23.374       31.310       40.677       23.810      980.327     1654.634      566.905        0.910        0.160      120.261       13.485        0.013      334.640        4.746      863.284
12/21/2021  15:13:00       13.286        8.654      -25.673       64.796       46.258       24.532     4198.501     2139.800      601.825        0.392        0.347       15.856       21.065        1.765      334.772        4.965      863.289
12/21/2021  15:14:00       56.084       -9.733      -17.996       64.011       46.185       22.784     4097.413     2133.044      519.107        0.516        0.337       56.922       23.189        0.166      334.651        4.763      863.276
12/21/2021  15:15:00      108.871       35.489      -11.223       47.641       62.217       26.796     2269.702     3870.967      718.012        1.005        0.343      114.509       20.137        0.031      334.623        4.716      863.251
12/21/2021  15:16:00       56.882      -38.637      -28.709       38.753       70.385       40.528     1501.758     4954.069     1642.547        0.682        0.405       68.763       28.993        0.178      334.776        4.971      863.236
12/21/2021  15:17:00       81.901        4.641      -37.657       45.527       63.578       37.931     2072.720     4042.200     1438.749        0.785        0.378       82.032       16.662        0.041      334.634        4.735      863.224
12/21/2021  15:18:00       53.469       -4.856      -34.740       56.550       60.429       29.305     3197.867     3651.687      858.769        0.590        0.385       53.689       22.162        0.170      334.715        4.870      863.235
12/21/2021  15:19:00       25.946       23.334      -22.462       41.053       43.015       30.726     1685.387     1850.291      944.112        0.310        0.224       34.895       15.738        0.203      334.773        4.967      863.253
12/21/2021  15:20:00       94.665       30.076      -16.126       53.164       57.286       32.552     2826.368     3281.738     1059.647        0.865        0.358       99.328       14.915        0.023      334.655        4.770      863.253
12/21/2021  15:21:00      145.042       34.018      -34.126       51.556       44.255       21.350     2658.072     1958.526      455.833        1.421        0.254      148.978        6.690        0.002      334.542        4.582      863.238
12/21/2021  15:22:00      138.426       46.179      -21.661       50.995       38.178       23.892     2600.513     1457.522      570.807        1.320        0.231      145.925       15.661        0.012      334.524        4.553      863.202
12/21/2021  15:23:00      156.937       21.693      -18.163       28.075       23.890       16.891      788.196      570.737      285.295        1.354        0.082      158.429        8.929        0.003      334.439        4.415      863.175
12/21/2021  15:24:00      140.700       14.621      -17.513       52.220       35.010       24.979     2726.945     1225.693      623.929        1.245        0.229      141.458       18.593        0.017      334.488        4.494      863.143
12/21/2021  15:25:00      121.815        8.208      -14.515       41.066       41.793       28.148     1686.391     1746.668      792.289        0.967        0.211      122.091       16.387        0.018      334.591        4.663      863.130
12/21/2021  15:26:00      101.232       15.477      -29.047       55.184       30.040       22.038     3045.283      902.417      485.695        0.788        0.222      102.408       12.990        0.016      334.569        4.627      863.121
12/21/2021  15:27:00       51.372       39.670      -23.031       31.097       39.262       21.400      967.043     1541.531      457.962        0.385        0.148       64.906        8.929        0.019      334.552        4.597      863.093
12/21/2021  15:28:00       11.331       16.623      -29.258       52.255       42.728       24.620     2730.607     1825.691      606.148        0.321        0.258       20.118       17.259        0.736      334.714        4.870      863.062
12/21/2021  15:29:00      -10.845       10.914      -13.867       39.544       40.357       22.969     1563.754     1628.663      527.575        0.207        0.186       15.386       15.723        1.044      334.891        5.162      863.041
12/21/2021  15:30:00       32.852       15.684      -26.414       31.795       47.763       23.270     1010.935     2281.302      541.480        0.293        0.192       36.404       14.498        0.159      334.862        5.115      863.052
12/21/2021  15:31:00       -2.294        1.882      -18.533       39.785       31.254       27.973     1582.830      976.836      782.476        0.185        0.167        2.967       23.503       62.752      335.043        5.415      863.098
12/21/2021  15:32:00       24.617      -74.979      -24.196       39.768       61.746       26.973     1581.509     3812.529      727.547        0.647        0.306       78.917       20.343        0.066      334.950        5.261      863.165
12/21/2021  15:33:00       49.380      -62.590      -31.448       40.620       45.046       27.445     1650.002     2029.172      753.236        0.589        0.222       79.723       24.511        0.095      334.866        5.120      863.218
12/21/2021  15:34:00       23.584       42.130       -7.748       35.789       32.847       22.759     1280.859     1078.926      517.994        0.263        0.144       48.281       19.239        0.159      334.809        5.025      863.241
12/21/2021  15:35:00      114.368       46.885      -31.282       31.102       34.695       23.235      967.362     1203.738      539.878        0.948        0.136      123.605       12.268        0.010      334.544        4.585      863.233
12/21/2021  15:36:00      106.798       34.420      -14.691       19.600       25.862       13.839      384.172      668.839      191.505        0.703        0.062      112.208        8.896        0.006      334.535        4.569      863.228
12/21/2021  15:37:00      101.889       52.257      -14.038       18.907       17.768       11.816      357.476      315.684      139.622        0.706        0.041      114.508        5.520        0.002      334.547        4.590      863.228
12/21/2021  15:38:00       59.098       21.138      -22.522       36.627       38.816       18.132     1341.502     1506.652      328.753        0.381        0.159       62.765       13.966        0.050      334.637        4.740      863.241
12/21/2021  15:39:00       66.048       54.635      -11.133       37.785       42.691       24.974     1427.743     1822.506      623.694        0.567        0.194       85.717        7.810        0.008      334.663        4.783      863.251
12/21/2021  15:40:00       42.649        2.365      -40.706       39.130       61.972       31.496     1531.193     3840.590      992.022        0.492        0.318       42.714       30.953        0.525      334.871        5.130      863.223
12/21/2021  15:41:00        3.479       -3.460      -17.082       26.340       45.376       26.831      693.777     2058.946      719.903        0.189        0.174        4.907       19.494       15.785      334.836        5.071      863.182
12/21/2021  15:42:00       56.777       64.369        1.097       38.010       29.770       23.658     1444.788      886.240      559.682        0.513        0.145       85.831       15.457        0.032      334.699        4.844      863.156
12/21/2021  15:43:00       26.793       85.993       -8.412       24.604       23.460       14.995      605.371      550.375      224.858        0.478        0.069       90.070        9.435        0.011      334.708        4.859      863.166
12/21/2021  15:44:00      -26.833       64.306      -11.511       50.922       46.954       19.867     2593.090     2204.716      394.712        0.509        0.260       69.680       22.553        0.105      334.847        5.089      863.188
12/21/2021  15:45:00       29.091       22.187      -12.032       59.822       43.186       15.207     3578.696     1865.010      231.258        0.358        0.284       36.586       10.437        0.081      334.719        4.876      863.191
12/21/2021  15:46:00       93.016       53.749      -16.264       18.161       12.983       13.046      329.804      168.547      170.202        0.624        0.033      107.429        6.627        0.004      334.576        4.637      863.201
12/21/2021  15:47:00       87.057       39.511      -13.566       42.476       22.764       16.469     1804.201      518.204      271.220        0.596        0.130       95.604        7.064        0.005      334.617        4.707      863.200
12/21/2021  15:48:00      108.656       27.456      -19.428       28.170       22.049       14.766      793.569      486.171      218.034        0.722        0.075      112.071        7.903        0.005      334.661        4.779      863.187
12/21/2021  15:49:00       81.158       53.906      -11.272       32.399       23.228       17.405     1049.727      539.548      302.935        0.576        0.095       97.429        4.776        0.002      334.643        4.749      863.183
12/21/2021  15:50:00       50.721       61.524      -13.617       21.974       33.345       13.959      482.837     1111.887      194.861        0.417        0.089       79.736       10.694        0.018      334.580        4.643      863.165
12/21/2021  15:51:00       75.732       19.414       -7.680       44.652       43.339       20.648     1993.771     1878.234      426.360        0.523        0.215       78.181       13.156        0.028      334.653        4.765      863.133
12/21/2021  15:52:00      108.108        0.690      -12.624       70.661       33.802       22.813     4992.991     1142.559      520.425        0.925        0.333      108.110       21.791        0.041      334.699        4.844      863.097
12/21/2021  15:53:00       42.577       -4.828      -31.688       35.763       61.587       29.461     1278.980     3792.909      867.934        0.439        0.297       42.850       17.503        0.167      334.815        5.037      863.078
12/21/2021  15:54:00       19.225       -1.556      -24.937       33.050       49.857       28.719     1092.333     2485.719      824.800        0.270        0.220       19.288       22.762        1.393      334.842        5.083      863.074
12/21/2021  15:55:00      -13.142        9.114       -9.765       33.116       36.998       24.274     1096.679     1368.870      589.204        0.170        0.153       15.993       15.980        0.998      334.828        5.059      863.099
12/21/2021  15:56:00       12.623        6.711      -17.792       24.771       24.451       16.485      613.611      597.841      271.768        0.100        0.074       14.296       12.539        0.769      334.777        4.972      863.130
12/21/2021  15:57:00       59.004       53.598       -9.791       15.649       15.172       10.782      244.905      230.192      116.256        0.352        0.030       79.713        1.975        0.001      334.589        4.659      863.158
12/21/2021  15:58:00       51.416       46.990        3.949       27.744       22.089       15.070      769.755      487.935      227.102        0.318        0.074       69.654       13.101        0.035      334.610        4.694      863.186
12/21/2021  15:59:00       92.175       63.594       -6.291       23.673       25.217       17.079      560.388      635.898      291.685        0.703        0.074      111.984       10.065        0.008      334.582        4.649      863.186
12/21/2021  16:00:00       65.139       52.142      -23.743       38.918       27.956       35.095     1514.623      781.537     1231.642        0.553        0.176       83.438       23.628        0.080      334.564        4.618      863.170
12/21/2021  16:01:00       42.017       45.216      -12.473       29.500       35.301       20.878      870.241     1246.130      435.882        0.326        0.128       61.725       16.855        0.075      334.515        4.536      863.155
12/21/2021  16:02:00       -6.551      -11.685      -13.974       27.699       22.436       20.272      767.255      503.372      410.957        0.103        0.084       13.396       11.668        0.759      334.726        4.888      863.139
12/21/2021  16:03:00      -21.656       -8.093      -13.458       17.385       16.755       17.706      302.244      280.737      313.492        0.081        0.045       23.119        8.011        0.120      334.871        5.130      863.149
12/21/2021  16:04:00        7.007        2.837        3.458       12.034       14.051       22.357      144.823      197.431      499.845        0.046        0.042        7.559        8.721        1.331      334.742        4.917      863.168
12/21/2021  16:05:00       11.127       28.931       -1.531       24.042       18.717       15.493      578.028      350.328      240.035        0.107        0.058       30.997       13.100        0.179      334.605        4.687      863.188
12/21/2021  16:06:00       30.296       24.482      -11.597       19.140        7.431        8.119      366.341       55.216       65.915        0.107        0.024       38.951        7.900        0.041      334.540        4.578      863.187
12/21/2021  16:07:00       67.627       10.188      -12.654       14.697       12.154       11.278      216.015      147.728      127.200        0.266        0.025       68.390        9.221        0.018      334.564        4.618      863.169
12/21/2021  16:08:00       95.510       24.479      -23.759       28.017       29.790       21.168      784.925      887.464      448.084        0.620        0.106       98.597       10.404        0.011      334.525        4.553      863.122
12/21/2021  16:09:00       61.849       30.338      -25.791       38.144       55.532       30.141     1454.929     3083.755      908.505        0.543        0.272       68.889       28.183        0.167      334.493        4.500      863.061
12/21/2021  16:10:00       61.012       51.084      -11.284       39.341       35.734       26.233     1547.688     1276.939      688.179        0.499        0.176       79.575       10.101        0.016      334.479        4.476      863.007
12/21/2021  16:11:00       61.396       41.862      -17.171       31.960       33.064       23.196     1021.426     1093.216      538.074        0.423        0.133       74.310       13.949        0.035      334.455        4.438      862.978
12/21/2021  16:12:00       79.998       22.507      -26.768       47.209       30.585       18.397     2228.700      935.413      338.442        0.556        0.175       83.104       12.755        0.024      334.486        4.489      862.960
12/21/2021  16:13:00      128.782       28.976      -16.237       11.451       13.335        9.763      131.121      177.825       95.313        0.905        0.020      132.001        5.632        0.002      334.479        4.478      862.936
12/21/2021  16:14:00      143.658       12.808      -21.224       14.489       21.335       11.157      209.931      455.166      124.471        1.102        0.039      144.228        9.011        0.004      334.482        4.484      862.921
12/21/2021  16:15:00      122.047       15.831      -10.259       50.684       37.852       23.636     2568.829     1432.775      558.655        0.990        0.228      123.069       18.383        0.022      334.505        4.521      862.935
12/21/2021  16:16:00      134.775       43.231      -20.819       37.296       33.268       21.260     1390.990     1106.787      451.993        1.171        0.147      141.539       15.099        0.011      334.496        4.508      862.967
12/21/2021  16:17:00      112.069       35.793      -10.560       26.755       13.077        8.769      715.849      171.013       76.894        0.746        0.048      117.646        6.416        0.003      334.448        4.426      863.026
12/21/2021  16:18:00       69.700       40.765       -7.537       12.873        8.848        7.437      165.721       78.281       55.312        0.344        0.015       80.746        5.087        0.004      334.473        4.470      863.092
12/21/2021  16:19:00       69.053       40.331       -4.737       15.625        8.778        8.053      244.151       77.057       64.851        0.340        0.019       79.969        7.602        0.009      334.500        4.509      863.142
12/21/2021  16:20:00       92.185       32.061      -18.268       20.717       15.866       16.874      429.175      251.730      284.731        0.541        0.048       97.601        8.961        0.008      334.460        4.447      863.161
12/21/2021  16:21:00       75.809       40.517      -25.465       36.196       31.499       22.673     1310.176      992.190      514.062        0.543        0.141       85.957       13.830        0.026      334.395        4.339      863.167
12/21/2021  16:22:00       99.049       14.395      -24.144       35.560       23.588       16.808     1264.512      556.386      282.519        0.635        0.105      100.090       11.377        0.013      334.437        4.409      863.166
12/21/2021  16:23:00      124.973       23.932       -9.774       21.263       18.461       17.600      452.136      340.816      309.752        0.869        0.055      127.244        6.517        0.003      334.441        4.415      863.136
12/21/2021  16:24:00       79.309       52.189       -4.632       44.136       21.453       16.546     1948.000      460.223      273.770        0.586        0.134       94.940       15.865        0.028      334.344        4.253      863.098
12/21/2021  16:25:00       57.564       52.424       -3.155       43.749       19.026       12.670     1913.967      361.994      160.524        0.425        0.122       77.858        8.166        0.011      334.390        4.332      863.069
12/21/2021  16:26:00       35.228       31.064       -9.540       17.738       16.467       13.332      314.625      271.162      177.743        0.153        0.038       46.968       10.043        0.046      334.411        4.366      863.061
12/21/2021  16:27:00       23.383       34.854       -5.454       16.723       13.284        8.616      279.669      176.470       74.237        0.116        0.027       41.971        5.723        0.019      334.439        4.413      863.079
12/21/2021  16:28:00        9.813        3.692       -2.071       17.520       11.825       15.909      306.959      139.825      253.084        0.041        0.035       10.485       14.839        2.003      334.408        4.359      863.120
12/21/2021  16:29:00        7.739       74.428      -12.471       21.818       26.998       19.931      476.024      728.908      397.261        0.368        0.080       74.829        6.935        0.009      334.600        4.680      863.165
12/21/2021  16:30:00       10.566       85.920      -11.762       15.561       22.799       12.913      242.157      519.803      166.740        0.428        0.046       86.567       10.864        0.016      334.538        4.576      863.168
12/21/2021  16:31:00       52.205       49.527       -8.232       23.192       20.597       16.802      537.889      424.240      282.295        0.325        0.062       71.960       11.771        0.027      334.478        4.477      863.152
12/21/2021  16:32:00       45.249       33.632       -8.184       20.346       14.255       12.847      413.958      203.212      165.039        0.201        0.039       56.380        9.220        0.027      334.419        4.379      863.156
12/21/2021  16:33:00       30.394       37.569       -9.185       16.324       13.878       11.156      266.467      192.587      124.467        0.150        0.029       48.324        8.130        0.028      334.427        4.392      863.189
12/21/2021  16:34:00       35.615       34.307       -8.250       16.878       16.215       12.493      284.866      262.910      156.065        0.161        0.035       49.451        8.734        0.031      334.444        4.420      863.219
12/21/2021  16:35:00       32.691       58.887       -5.395       22.338       19.597       12.119      498.991      384.039      146.872        0.280        0.051       67.353       11.808        0.031      334.483        4.485      863.228
12/21/2021  16:36:00       38.485       42.667       -6.516       18.332       20.305       14.209      336.051      412.276      201.906        0.215        0.048       57.459        9.494        0.027      334.466        4.455      863.226
12/21/2021  16:37:00       21.651       36.450       -9.748       16.062       21.670       10.339      257.992      469.586      106.891        0.136        0.042       42.395        5.911        0.019      334.492        4.501      863.220
12/21/2021  16:38:00       26.745       24.826       -2.844       16.466       12.889       12.595      271.114      166.121      158.626        0.097        0.030       36.491       11.223        0.095      334.434        4.405      863.220
12/21/2021  16:39:00       29.353       35.384       -2.574       14.226        7.568        9.553      202.379       57.270       91.251        0.124        0.018       45.974        4.066        0.008      334.477        4.476      863.222
12/21/2021  16:40:00       18.418       35.670      -16.594        5.667        7.890        9.680       32.117       62.260       93.700        0.104        0.009       40.144        4.342        0.012      334.448        4.429      863.227
12/21/2021  16:41:00      -33.076       38.903      -11.236       34.122       14.118       10.336     1164.322      199.317      106.841        0.210        0.074       51.063        1.867        0.001      334.381        4.314      863.230
12/21/2021  16:42:00      -91.030       39.544       -3.814       51.712       41.456       28.023     2674.178     1718.564      785.305        0.752        0.259       99.248       23.323        0.055      334.059        3.782      863.211
12/21/2021  16:43:00     -126.473       40.176      -11.832       58.846       32.297       24.866     3462.875     1043.069      618.331        1.144        0.256      132.701       28.588        0.046      334.002        3.688      863.198
12/21/2021  16:44:00     -102.978       59.778       -8.846       56.476       34.296       31.059     3189.546     1176.191      964.663        0.979        0.267      119.071       30.391        0.065      333.913        3.540      863.146
12/21/2021  16:45:00      -79.197       62.160      -13.192       41.525       20.952       20.326     1724.352      438.981      413.151        0.644        0.129      100.678       19.187        0.036      333.979        3.649      863.061
12/21/2021  16:46:00      -32.701       72.025      -16.036       40.162       24.288       19.431     1612.985      589.887      377.582        0.455        0.129       79.101       10.344        0.017      334.190        3.998      862.975
12/21/2021  16:47:00      -24.118       38.867      -12.026       26.778       29.487       20.648      717.065      869.479      426.348        0.212        0.101       45.742       11.446        0.063      334.089        3.832      862.950
12/21/2021  16:48:00        2.013      -12.894      -20.162       19.501       37.115       15.950      380.307     1377.530      254.406        0.129        0.101       13.050       11.712        0.805      333.895        3.511      863.000
12/21/2021  16:49:00       12.913      -38.502       -1.033       43.331       38.011       28.337     1877.577     1444.864      802.993        0.289        0.206       40.609       20.009        0.243      333.873        3.474      863.079
12/21/2021  16:50:00      -95.060      -11.591        3.047       84.460       44.828       34.209     7133.450     2009.541     1170.269        0.974        0.516       95.764       35.540        0.138      333.765        3.294      863.130
12/21/2021  16:51:00      -95.392       -3.701      -15.804       48.478       42.679       27.663     2350.160     1821.495      765.251        0.715        0.247       95.464       18.468        0.037      333.830        3.403      863.134
12/21/2021  16:52:00      -79.262        5.597      -10.963       25.437       23.605       15.189      647.021      557.185      230.699        0.393        0.072       79.460       13.048        0.027      333.928        3.566      863.072
12/21/2021  16:53:00      -45.281       54.471      -10.506       21.990       16.909       12.284      483.576      285.907      150.901        0.302        0.046       70.834       10.205        0.021      333.968        3.632      863.002
12/21/2021  16:54:00        3.210       57.299       -3.989       24.190       22.155        9.709      585.149      490.847       94.256        0.224        0.059       57.389        5.759        0.010      333.941        3.586      862.971
12/21/2021  16:55:00      -42.395       10.364       -0.189       30.573       22.284       17.814      934.732      496.585      317.330        0.183        0.087       43.643       12.730        0.085      334.088        3.830      862.986
12/21/2021  16:56:00      -34.418        7.065       -3.262       37.342       21.166       18.869     1394.430      447.992      356.056        0.172        0.110       35.136       15.468        0.194      334.097        3.845      863.007
12/21/2021  16:57:00      -41.920      -13.523       -2.395       35.618       29.605       21.082     1268.619      876.463      444.468        0.227        0.129       44.047       15.441        0.123      333.916        3.546      863.016
12/21/2021  16:58:00      -23.838        0.757        2.546       36.057       21.932       19.782     1300.129      480.991      391.334        0.137        0.109       23.850       15.925        0.446      333.823        3.391      863.021
12/21/2021  16:59:00      -56.023       -2.364       -4.219       31.802       26.814       18.040     1011.380      719.006      325.453        0.261        0.103       56.073       12.843        0.052      333.765        3.295      863.013
12/21/2021  17:00:00      -34.312       10.787       -2.176       13.548       12.537        9.588      183.536      157.184       91.934        0.087        0.022       35.967        6.327        0.031      333.974        3.642      863.006
12/21/2021  17:01:00       15.053       14.439       -5.664       25.853       12.156        7.942      668.402      147.778       63.080        0.067        0.044       20.858        6.266        0.090      333.948        3.599      862.991
12/21/2021  17:02:00       54.981       43.728      -13.172       19.951       15.747       10.469      398.048      247.955      109.607        0.293        0.038       70.250        6.996        0.010      333.896        3.513      862.970
12/21/2021  17:03:00       63.837       34.929       -8.282       15.645       15.437        8.974      244.772      238.307       80.529        0.296        0.028       72.768        6.953        0.009      333.889        3.500      862.975
12/21/2021  17:04:00       -5.644       15.824      -12.198       21.180       16.030       10.474      448.593      256.965      109.695        0.062        0.041       16.800        8.402        0.250      333.964        3.625      863.015
12/21/2021  17:05:00      -24.243      -17.073       -9.279       38.109       29.396       26.113     1452.261      864.106      681.866        0.198        0.150       29.651       22.701        0.586      333.628        3.069      863.072
12/21/2021  17:06:00      -74.461        3.037       -7.961       60.363       26.729       22.112     3643.744      714.421      488.955        0.523        0.242       74.523       23.107        0.096      333.644        3.093      863.108
12/21/2021  17:07:00      -61.606      -56.649       -4.769       30.657       27.254       12.995      939.833      742.775      168.876        0.444        0.093       83.692        9.564        0.013      334.038        3.745      863.085
12/21/2021  17:08:00      -17.264      -11.065      -13.545       30.936       35.897       13.359      957.018     1288.575      178.451        0.151        0.121       20.506        9.375        0.209      334.114        3.872      863.005
12/21/2021  17:09:00       62.965       55.976       -7.187       34.336       23.614       20.189     1178.969      557.620      407.608        0.465        0.107       84.249       16.838        0.040      333.642        3.092      862.889
12/21/2021  17:10:00       27.718       53.077      -18.324       22.635       22.226       18.743      512.322      493.983      351.286        0.264        0.068       59.878       16.999        0.081      333.787        3.331      862.841
12/21/2021  17:11:00      -56.534       21.209      -10.168       31.275       14.043       17.120      978.126      197.206      293.079        0.261        0.073       60.382        7.841        0.017      333.685        3.164      862.895
12/21/2021  17:12:00       -7.431        6.295        0.133       24.086       25.013       23.088      580.116      625.647      533.040        0.092        0.087        9.739       17.227        3.129      333.552        2.942      862.963
12/21/2021  17:13:00      -67.976       -0.244      -13.032       56.814       23.124       19.411     3227.807      534.712      376.802        0.446        0.207       67.976       23.037        0.115      333.683        3.159      862.974
12/21/2021  17:14:00      -12.740       47.379       -7.460       18.089       24.978       12.723      327.212      623.887      161.871        0.179        0.056       49.062        7.475        0.023      333.553        2.946      862.953
12/21/2021  17:15:00       14.854       34.450       -4.863       16.945       12.041       11.066      287.140      144.989      122.453        0.099        0.028       37.516        8.033        0.046      333.472        2.810      862.920
12/21/2021  17:16:00      -16.101       35.610      -10.525       33.962       11.945       13.133     1153.384      142.676      172.471        0.155        0.073       39.080       10.475        0.072      333.568        2.971      862.908
12/21/2021  17:17:00      -40.126       -5.372      -11.174       48.011       32.617       24.490     2305.056     1063.884      599.777        0.287        0.198       40.484       23.867        0.348      333.316        2.551      862.921
12/21/2021  17:18:00      -26.578       -6.855        6.545       73.057       48.989       38.077     5337.394     2399.892     1449.885        0.499        0.459       27.447       30.886        1.266      333.313        2.547      862.945
12/21/2021  17:19:00      -52.764       18.327       -7.098       76.849       29.134       23.881     5905.710      848.817      570.325        0.525        0.366       55.856       25.628        0.211      333.240        2.425      862.953
12/21/2021  17:20:00      -36.488       50.986       -5.761       39.559       21.610       16.782     1564.883      466.976      281.622        0.314        0.116       62.697        7.870        0.016      333.179        2.326      862.909
12/21/2021  17:21:00       27.563       80.429       -8.010       28.389       31.933       17.145      805.909     1019.713      293.961        0.471        0.106       85.021        9.833        0.013      333.338        2.589      862.818
12/21/2021  17:22:00       42.026      128.760      -23.828       26.619       25.159       18.542      708.568      632.956      343.808        1.030        0.084      135.445       11.190        0.007      333.422        2.726      862.738
12/21/2021  17:23:00       -6.657       44.948      -10.334       19.612       40.614       19.542      384.636     1649.497      381.883        0.229        0.121       45.438       12.869        0.080      333.242        2.429      862.740
12/21/2021  17:24:00      -35.320      -10.291       -6.988       60.563       33.986       38.563     3667.930     1155.078     1487.091        0.386        0.316       36.789       26.262        0.510      333.055        2.121      862.796
12/21/2021  17:25:00      -17.223       22.767       10.767       63.411       42.606       34.075     4020.914     1815.242     1161.126        0.396        0.350       28.547       25.793        0.816      332.984        2.002      862.844
12/21/2021  17:26:00     -134.945      -19.189      -20.759       79.920       37.981       33.844     6387.279     1442.553     1145.443        1.399        0.449      136.303       39.497        0.084      332.952        1.948      862.844
12/21/2021  17:27:00      -94.856       50.864       -7.254       52.869       54.667       28.289     2795.083     2988.494      800.291        0.911        0.329      107.633       16.295        0.023      332.849        1.780      862.798
12/21/2021  17:28:00      -30.975       82.280      -13.925       28.855       26.148       18.579      832.593      683.706      345.197        0.489        0.093       87.917        6.490        0.005      332.957        1.959      862.736
12/21/2021  17:29:00       21.510       35.988       -4.506       22.624       28.666       13.635      511.866      821.732      185.907        0.165        0.076       41.926       13.386        0.102      333.021        2.064      862.742
12/21/2021  17:30:00        6.163        3.464       -5.306       18.934       14.749       10.161      358.498      217.529      103.241        0.038        0.034        7.070        8.617        1.485      333.213        2.381      862.819
12/21/2021  17:31:00        0.195       -1.398       -4.386       36.207       22.737       26.644     1310.966      516.971      709.906        0.128        0.127        1.412       12.317       76.093      333.093        2.184      862.910
12/21/2021  17:32:00     -182.528       37.712       -0.961       62.911       56.191       38.622     3957.754     3157.384     1491.624        2.167        0.430      186.383       34.217        0.034      332.928        1.909      862.983
12/21/2021  17:33:00     -150.256       51.856       -9.631       69.963       45.272       30.052     4894.804     2049.546      903.141        1.660        0.392      158.953       34.465        0.047      332.777        1.660      863.048
12/21/2021  17:34:00      -81.577       17.442       -1.221       48.873       39.925       29.288     2388.533     1594.017      857.761        0.590        0.242       83.420       31.234        0.140      332.883        1.835      863.109
12/21/2021  17:35:00      -47.159       30.642       -8.018       18.789       14.273       16.824      353.009      203.726      283.053        0.203        0.042       56.240        7.084        0.016      332.957        1.960      863.142
12/21/2021  17:36:00       -7.622       21.866        2.932       13.394       12.377        7.569      179.400      153.186       57.285        0.047        0.019       23.156        6.081        0.069      332.971        1.981      863.125
12/21/2021  17:37:00      -19.690       16.287       -8.591       22.001       12.065        8.838      484.026      145.558       78.109        0.072        0.035       25.553        7.016        0.075      332.927        1.908      863.114
12/21/2021  17:38:00      -90.749       28.538      -22.726       20.829       13.919       10.044      433.868      193.731      100.878        0.515        0.036       95.130        6.863        0.005      332.949        1.945      863.116
12/21/2021  17:39:00      -80.478       28.375      -26.150       42.425       35.684       18.817     1799.868     1273.356      354.086        0.570        0.171       85.333       15.307        0.032      332.824        1.739      863.130
12/21/2021  17:40:00     -100.732       18.599      -23.744       57.818       34.491       25.605     3342.955     1189.611      655.633        0.812        0.259      102.435       20.462        0.040      332.762        1.636      863.148
12/21/2021  17:41:00      -73.002       38.070       -1.584       42.577       34.993       25.578     1812.769     1224.545      654.237        0.524        0.185       82.332       21.900        0.071      332.707        1.546      863.127
12/21/2021  17:42:00      -33.774       23.012       -4.761       31.947       35.548       19.751     1020.630     1263.683      390.100        0.218        0.134       40.869       16.947        0.172      332.814        1.722      863.111
12/21/2021  17:43:00       -0.132       -2.821        0.892       25.381       31.494       18.262      644.218      991.890      333.511        0.099        0.098        2.824       13.014       21.230      332.794        1.689      863.138
12/21/2021  17:44:00      -54.594        4.144      -14.269       69.637       41.424       32.016     4849.312     1715.942     1025.026        0.539        0.380       54.751       30.260        0.305      332.676        1.493      863.177
12/21/2021  17:45:00      -67.340       22.982       -5.840       60.105       40.944       30.865     3612.578     1676.384      952.648        0.567        0.312       71.153       22.964        0.104      332.708        1.546      863.165
12/21/2021  17:46:00      -96.040       19.634        1.035       55.992       34.747       24.419     3135.136     1207.387      596.281        0.727        0.247       98.026       27.971        0.081      332.716        1.560      863.066
12/21/2021  17:47:00      -32.751      111.355       -5.904       46.617       48.876       29.058     2173.127     2388.834      844.364        0.946        0.270      116.071       23.973        0.043      332.810        1.716      862.925
12/21/2021  17:48:00       65.774       89.327      -13.442       44.411       38.346       27.833     1972.351     1470.418      774.655        0.835        0.211      110.930       19.036        0.029      332.794        1.690      862.817
12/21/2021  17:49:00       25.001       21.812      -16.840       44.967       44.762       36.214     2022.008     2003.644     1311.460        0.336        0.267       33.179       22.914        0.477      332.880        1.831      862.827
12/21/2021  17:50:00       20.463        7.998      -20.354       28.047       26.374       16.364      786.649      695.575      267.785        0.132        0.088       21.970       10.221        0.216      332.718        1.565      862.897
12/21/2021  17:51:00      -41.410       22.865      -13.798       59.227       52.484       38.453     3507.842     2754.579     1478.641        0.508        0.387       47.303       20.475        0.187      332.875        1.823      862.963
12/21/2021  17:52:00     -142.641       -1.433       -2.928       58.206       61.318       40.290     3387.935     3759.874     1623.321        1.456        0.439      142.648       33.568        0.055      332.737        1.594      863.005
12/21/2021  17:53:00     -115.818       36.822       -9.657       76.578       40.489       28.404     5864.168     1639.390      806.792        1.159        0.416      121.530       38.992        0.103      332.666        1.476      863.005
12/21/2021  17:54:00        1.430       24.470       -1.135       11.002       20.028       12.615      121.039      401.118      159.147        0.064        0.034       24.511       10.119        0.170      332.777        1.662      862.951
12/21/2021  17:55:00        8.417       57.194       -4.398       19.126       17.846       11.207      365.797      318.465      125.595        0.209        0.040       57.810        9.248        0.026      333.071        2.148      862.904
12/21/2021  17:56:00      -66.219       30.730      -27.157       44.206       30.821       21.132     1954.147      949.913      446.571        0.471        0.168       73.002       19.616        0.072      332.958        1.959      862.920
12/21/2021  17:57:00      -30.512        3.718      -13.043       93.632       48.391       35.154     8766.867     2341.704     1235.817        0.673        0.617       30.738       32.203        1.098      332.734        1.590      862.954
12/21/2021  17:58:00      -55.665        4.999      -20.981       63.616       37.082       27.440     4047.035     1375.107      752.942        0.487        0.309       55.889       18.688        0.112      332.783        1.671      862.980
12/21/2021  17:59:00      -19.225       56.266       -9.746       46.737       32.314       18.191     2184.301     1044.211      330.921        0.359        0.178       59.459       11.489        0.037      332.648        1.448      862.969
12/21/2021  18:00:00       59.920       49.540      -20.287       43.420       27.652       21.498     1885.284      764.615      462.178        0.478        0.156       77.747       14.272        0.034      332.807        1.712      862.952
12/21/2021  18:01:00       21.136      -22.590      -20.299       31.008       24.056       19.046      961.510      578.691      362.744        0.164        0.095       30.936       18.559        0.360      332.826        1.743      862.996
12/21/2021  18:02:00      -44.097       12.467      -33.721       44.125       40.716       31.028     1947.046     1657.777      962.762        0.390        0.228       45.826       25.030        0.298      332.957        1.958      863.119
12/21/2021  18:03:00     -138.539       39.881      -14.317      132.499       72.828       35.035    17556.001     5303.853     1227.429        2.253        1.204      144.165       33.395        0.054      332.719        1.560      863.220
12/21/2021  18:04:00     -241.673       30.419       -7.197       90.190       60.095       42.841     8134.246     3611.374     1835.377        3.648        0.679      243.580       44.518        0.033      332.576        1.325      863.305
12/21/2021  18:05:00     -117.605        0.985       -9.346       76.468       37.824       32.441     5847.336     1430.658     1052.398        1.112        0.417      117.609       15.947        0.018      332.519        1.234      863.322
12/21/2021  18:06:00       14.057       -2.543      -10.104       13.781       24.150       19.213      189.924      583.236      369.137        0.072        0.057       14.285       10.781        0.570      332.722        1.569      863.322
12/21/2021  18:07:00       10.612       38.769       -2.305       16.545       18.922       16.782      273.742      358.050      281.624        0.127        0.046       40.195        6.712        0.028      332.782        1.670      863.320
12/21/2021  18:08:00      -15.468       51.243      -12.509       32.282       12.327        9.029     1042.138      151.961       81.515        0.215        0.064       53.527        9.704        0.033      332.835        1.757      863.309
12/21/2021  18:09:00      -71.954        6.592      -18.506       35.993       25.766       19.583     1295.502      663.862      383.485        0.395        0.117       72.255       18.522        0.066      332.820        1.733      863.308
12/21/2021  18:10:00       -1.115        2.134       -3.661       50.018       32.148       29.598     2501.781     1033.488      876.018        0.221        0.221        2.408       18.827       61.115      332.741        1.601      863.339
12/21/2021  18:11:00      -94.558        5.600       -7.205       59.676       35.594       30.193     3561.197     1266.935      911.624        0.738        0.287       94.724       27.024        0.081      332.713        1.554      863.380
12/21/2021  18:12:00      -62.141       -3.607       -4.561       53.416       37.427       35.930     2853.276     1400.748     1290.934        0.472        0.277       62.246       34.662        0.310      332.743        1.605      863.393
12/21/2021  18:13:00       -9.805        8.411       -2.481       31.837       17.095       21.388     1013.569      292.256      457.442        0.097        0.088       12.918       16.636        1.658      332.800        1.699      863.372
12/21/2021  18:14:00       -6.067       15.905       -7.890       19.969       13.623        9.203      398.775      185.599       84.687        0.051        0.033       17.022        9.651        0.321      332.806        1.712      863.330
12/21/2021  18:15:00        5.308       20.078      -12.458       29.426        9.753        8.688      865.905       95.130       75.480        0.081        0.052       20.767        7.173        0.119      332.807        1.711      863.297
12/21/2021  18:16:00      -69.697       15.363      -18.430       27.421       24.458       18.074      751.933      598.200      326.663        0.355        0.084       71.370        9.652        0.018      332.877        1.827      863.257
12/21/2021  18:17:00      -40.427        8.572       -8.489       39.462       17.858       18.697     1557.248      318.898      349.596        0.200        0.111       41.325       11.956        0.084      332.770        1.649      863.219
12/21/2021  18:18:00        9.507      -20.447       -4.120       15.207       18.834       15.947      231.242      354.733      254.319        0.068        0.042       22.549        8.909        0.156      332.807        1.710      863.169
12/21/2021  18:19:00       26.870        2.363      -15.263       32.760       39.275       20.367     1073.208     1542.523      414.805        0.199        0.152       26.974       17.579        0.425      332.917        1.893      863.129
12/21/2021  18:20:00       33.931        8.955      -16.302       26.557       28.273       20.254      705.262      799.380      410.221        0.171        0.096       35.093        8.269        0.056      332.815        1.723      863.096
12/21/2021  18:21:00       44.560       20.836       -9.352       40.729       31.588       21.873     1658.881      997.788      478.409        0.282        0.157       49.190       10.806        0.048      332.736        1.593      863.068
12/21/2021  18:22:00       31.841        9.369      -18.923       36.344       46.651       21.918     1320.868     2176.274      480.380        0.272        0.199       33.191        8.024        0.058      332.871        1.818      863.040
12/21/2021  18:23:00       45.419      -98.928      -35.012       36.463       33.469       22.959     1329.569     1120.148      527.117        0.803        0.149      108.856        9.072        0.007      333.044        2.102      863.056
12/21/2021  18:24:00       63.523     -133.850      -26.015       43.926       46.181       28.356     1929.503     2132.655      804.056        1.375        0.243      148.159       32.706        0.049      332.910        1.880      863.109
12/21/2021  18:25:00       22.509      -89.919      -16.751       51.179       46.736       26.270     2619.310     2184.233      690.101        0.718        0.275       92.693       27.309        0.087      332.944        1.936      863.173
12/21/2021  18:26:00       16.089      -50.208       -1.097       28.728       50.922       22.147      825.312     2593.070      490.502        0.334        0.195       52.723       29.639        0.316      332.964        1.970      863.215
12/21/2021  18:27:00       -2.160       22.491       -2.253       17.845       20.683       15.190      318.435      427.803      230.747        0.075        0.049       22.594        7.431        0.108      332.880        1.833      863.209
12/21/2021  18:28:00      -14.338       64.925       -2.162       28.448       24.728       17.810      809.260      611.470      317.194        0.308        0.087       66.489       13.893        0.044      332.729        1.582      863.213
12/21/2021  18:29:00      -68.416       73.637      -18.373       23.728       23.118       11.900      562.995      534.434      141.621        0.584        0.062      100.514       10.402        0.011      332.813        1.721      863.293
12/21/2021  18:30:00      -80.483       24.439      -19.475       32.098       37.087       19.664     1030.285     1375.454      386.669        0.512        0.140       84.111       16.306        0.038      332.845        1.773      863.424
12/21/2021  18:31:00      -51.160        2.982       -8.897       62.814       38.895       32.037     3945.587     1512.855     1026.345        0.459        0.324       51.247       23.498        0.210      332.842        1.769      863.539
12/21/2021  18:32:00     -126.396      -37.853       -7.866       88.479       61.042       46.031     7828.600     3726.160     2118.863        1.557        0.684      131.943       39.917        0.092      332.804        1.703      863.604
12/21/2021  18:33:00     -149.138      -20.858      -18.336       65.342       41.175       31.992     4269.601     1695.374     1023.470        1.500        0.349      150.589       34.505        0.053      332.730        1.583      863.610
12/21/2021  18:34:00      -52.943       25.657        4.467       47.640       22.680       20.676     2269.573      514.372      427.481        0.335        0.161       58.833        6.907        0.014      332.687        1.511      863.548
12/21/2021  18:35:00       93.284       95.955      -15.494       37.793       33.969       21.166     1428.282     1153.883      448.009        1.059        0.152      133.826       11.617        0.008      332.695        1.523      863.432
12/21/2021  18:36:00       55.388      153.878      -24.536       44.730       49.967       22.230     2000.778     2496.709      494.192        1.617        0.250      163.543       15.066        0.008      332.810        1.715      863.378
12/21/2021  18:37:00      -50.154       60.424      -27.962       56.370       75.340       38.592     3177.617     5676.133     1489.311        0.864        0.517       78.527       27.253        0.120      332.760        1.634      863.514
12/21/2021  18:38:00       31.313      -12.704        2.410       46.163       41.646       34.207     2130.994     1734.425     1170.147        0.309        0.252       33.792       20.941        0.384      332.804        1.705      863.677
12/21/2021  18:39:00     -122.032      -75.282      -10.478       98.949       45.305       35.301     9790.943     2052.527     1246.142        1.688        0.654      143.385       30.151        0.044      332.625        1.408      863.722
12/21/2021  18:40:00       -5.561       -2.967      -19.727       23.204       43.432       16.466      538.427     1886.328      271.145        0.156        0.135        6.303       13.984        4.922      332.711        1.552      863.598
12/21/2021  18:41:00      141.786       24.119      -10.973       69.216       45.907       33.387     4790.876     2107.473     1114.688        1.441        0.401      143.823       26.732        0.035      332.730        1.583      863.406
12/21/2021  18:42:00        1.149       51.668      -19.693       46.973       36.926       26.388     2206.456     1363.550      696.341        0.366        0.213       51.680       13.100        0.064      332.699        1.532      863.381
12/21/2021  18:43:00      -16.240      -16.521       -6.065       65.820       59.541       49.984     4332.329     3545.133     2498.440        0.547        0.519       23.167       35.469        2.344      332.762        1.635      863.504
12/21/2021  18:44:00      -84.054      -24.007       -7.067      115.896       67.160       56.222    13431.814     4510.449     3160.866        1.439        1.055       87.415       49.540        0.321      332.696        1.527      863.618
12/21/2021  18:45:00     -137.349        8.035        4.049       69.469       38.674       37.267     4825.893     1495.640     1388.816        1.333        0.386      137.584       30.401        0.049      332.501        1.202      863.647
12/21/2021  18:46:00       -6.988       50.950      -12.391       35.893       16.834       17.252     1288.276      283.372      297.624        0.233        0.093       51.427       12.702        0.061      332.745        1.608      863.568
12/21/2021  18:47:00       81.255       34.074      -19.201       21.596       26.665       20.324      466.379      710.996      413.072        0.486        0.080       88.110        5.929        0.005      332.675        1.491      863.458
12/21/2021  18:48:00       30.369      -10.812       -5.701       31.212       40.648       23.643      974.194     1652.223      558.971        0.213        0.159       32.236       18.999        0.347      332.683        1.506      863.449
12/21/2021  18:49:00       11.729       -5.168       -2.310       20.389       16.840       14.724      415.703      283.600      216.803        0.054        0.046       12.817        9.363        0.534      332.823        1.738      863.500
12/21/2021  18:50:00      -11.369      -22.882      -17.417       20.660       32.047       13.954      426.852     1027.032      194.708        0.130        0.082       25.550        6.663        0.068      332.825        1.740      863.533
12/21/2021  18:51:00       16.460        4.454       -4.758       11.454       22.237        9.287      131.187      494.494       86.239        0.051        0.036       17.052        9.841        0.333      332.836        1.758      863.512
12/21/2021  18:52:00        7.041        5.848      -11.240        7.473        8.492        9.649       55.843       72.106       93.099        0.022        0.011        9.153        3.374        0.136      332.807        1.710      863.462
12/21/2021  18:53:00       24.289       21.317       -6.305       20.374        8.267        8.116      415.086       68.350       65.863        0.082        0.027       32.317        2.420        0.006      332.708        1.548      863.427
12/21/2021  18:54:00       50.022       25.956      -10.616       11.415       14.617        7.877      130.311      213.663       62.053        0.185        0.020       56.355        6.909        0.015      332.702        1.536      863.425
12/21/2021  18:55:00       36.763       17.535      -10.941       29.565       37.496       15.284      874.087     1405.972      233.608        0.215        0.126       40.730       16.617        0.166      332.587        1.348      863.446
12/21/2021  18:56:00       -1.124      -14.219       -0.359       12.955       22.756       12.200      167.839      517.819      148.841        0.052        0.042       14.263        8.180        0.329      332.746        1.610      863.443
12/21/2021  18:57:00       22.145       22.858       -5.822       17.265       17.008        8.072      298.067      289.263       65.150        0.085        0.033       31.826        8.082        0.064      332.538        1.266      863.404
12/21/2021  18:58:00       59.765       58.574      -11.948       19.541       19.830       13.419      381.857      393.230      180.076        0.405        0.048       83.682       10.541        0.016      332.507        1.215      863.316
12/21/2021  18:59:00       93.601       66.994       -9.610       20.576       17.479       16.128      423.363      305.502      260.117        0.717        0.049      115.106       11.924        0.011      332.512        1.223      863.239
12/21/2021  19:00:00       72.781       62.133      -11.714       28.433       17.198       16.652      808.410      295.773      277.304        0.534        0.069       95.695       11.014        0.013      332.535        1.261      863.201
12/21/2021  19:01:00       24.512       61.276       -5.716       22.958       23.485       17.025      527.055      551.526      289.856        0.288        0.068       65.997       11.403        0.030      332.713        1.556      863.243
12/21/2021  19:02:00      -14.016        2.876       -8.576       20.214       19.020       19.658      408.600      361.743      386.428        0.072        0.058       14.308       13.728        0.921      332.622        1.405      863.229
12/21/2021  19:03:00       -4.105        6.404        9.078       28.738       20.890       19.411      825.873      436.407      376.774        0.089        0.082        7.606       11.102        2.130      332.446        1.114      863.208
12/21/2021  19:04:00      -19.114       -7.675       -3.455       28.840       16.983       12.308      831.767      288.423      151.476        0.085        0.064       20.598        9.619        0.218      332.716        1.561      863.165
12/21/2021  19:05:00      -31.367      -14.677      -14.761       14.598       13.535       10.844      213.097      183.186      117.582        0.097        0.026       34.631        4.000        0.013      332.877        1.826      863.166
12/21/2021  19:06:00      -54.786      -17.313      -16.062       24.765       18.217       16.063      613.327      331.868      258.029        0.238        0.060       57.456        8.393        0.021      332.850        1.781      863.201
12/21/2021  19:07:00      -35.281       -5.319       -5.053       39.464       24.706       24.954     1557.402      610.391      622.677        0.204        0.140       35.680       21.794        0.373      332.814        1.722      863.216
12/21/2021  19:08:00      -96.202      -24.061       -7.405       50.907       29.394       24.110     2591.503      864.026      581.302        0.696        0.202       99.166       17.465        0.031      332.767        1.644      863.202
12/21/2021  19:09:00        4.965        0.392       -6.342       18.243       37.010       21.253      332.801     1369.773      451.709        0.111        0.108        4.980       12.216        6.016      332.712        1.553      863.178
12/21/2021  19:10:00       29.680       10.108      -32.436       39.460       56.970       39.287     1557.127     3245.566     1543.495        0.419        0.317       31.353       31.914        1.036      332.617        1.397      863.172
12/21/2021  19:11:00       20.269      -31.573      -18.701       31.472       44.785       30.475      990.494     2005.686      928.734        0.284        0.196       37.519       16.841        0.201      332.689        1.516      863.221
12/21/2021  19:12:00        2.946      -36.562      -12.652       29.829       30.020       17.733      889.798      901.219      314.451        0.181        0.105       36.681       13.851        0.143      332.738        1.597      863.305
12/21/2021  19:13:00      -16.379       -6.513       -7.766       25.038       22.611       16.840      626.916      511.248      283.585        0.090        0.071       17.626       12.561        0.508      332.617        1.396      863.399
12/21/2021  19:14:00      -46.378        4.438       -2.975       39.952       23.891       23.767     1596.152      570.794      564.869        0.246        0.137       46.590       22.360        0.230      332.583        1.341      863.423
12/21/2021  19:15:00      -61.254       34.196       -7.755       35.014       32.021       19.969     1225.982     1025.367      398.779        0.382        0.133       70.153       14.315        0.042      332.512        1.223      863.374
12/21/2021  19:16:00      -57.925       12.652       -8.701       33.108       21.728       16.198     1096.158      472.091      262.376        0.271        0.092       59.291       13.622        0.053      332.493        1.191      863.331
12/21/2021  19:17:00      -25.091        5.946      -11.138       31.579       21.869       13.207      997.234      478.260      174.424        0.122        0.082       25.786        9.202        0.127      332.528        1.250      863.347
12/21/2021  19:18:00       -4.259      -44.869      -25.909       23.103       23.243       22.971      533.741      540.229      527.647        0.215        0.080       45.071       15.686        0.121      332.565        1.309      863.382
12/21/2021  19:19:00      -23.113        4.756      -21.021       24.612       22.202       16.563      605.726      492.916      274.345        0.119        0.069       23.597       12.721        0.291      332.655        1.458      863.388
12/21/2021  19:20:00      -12.306       30.961       -0.104       37.623       24.442       22.694     1415.517      597.394      515.027        0.182        0.126       33.317       12.499        0.141      332.650        1.450      863.357
12/21/2021  19:21:00       34.125       30.700       -8.411       31.126       18.010       13.715      968.850      324.349      188.097        0.183        0.074       45.903        9.406        0.042      332.535        1.261      863.313
12/21/2021  19:22:00      -43.885       22.553       -5.076       42.417       21.686       13.289     1799.221      470.284      176.593        0.245        0.122       49.341       15.459        0.098      332.606        1.378      863.327
12/21/2021  19:23:00       -3.594      -21.510       -0.274       35.607       31.308       24.771     1267.861      980.182      613.608        0.167        0.143       21.808       15.987        0.537      332.473        1.158      863.363
12/21/2021  19:24:00     -115.757      -87.790       -6.717       58.294       75.504       35.965     3398.157     5700.912     1293.480        1.577        0.520      145.282       35.854        0.061      332.519        1.232      863.344
12/21/2021  19:25:00      -28.836      -49.387       -8.384       50.309       41.453       20.993     2531.004     1718.313      440.699        0.401        0.235       57.189        8.316        0.021      332.548        1.283      863.245
12/21/2021  19:26:00       37.528       48.417       -8.810       49.288       29.715       21.543     2429.321      882.973      464.107        0.380        0.189       61.258       15.585        0.065      332.494        1.192      863.119
12/21/2021  19:27:00       54.135       23.146      -14.149       44.246       23.116       15.535     1957.679      534.352      241.327        0.320        0.137       58.876       19.700        0.112      332.343        0.944      863.100
12/21/2021  19:28:00      -37.985        8.888       -7.168       50.628       41.647       35.341     2563.174     1734.472     1249.009        0.356        0.277       39.011       25.357        0.422      332.395        1.029      863.258
12/21/2021  19:29:00      -29.315      -25.442        2.711       94.706       51.785       52.458     8969.232     2681.736     2751.872        0.796        0.720       38.815       44.827        1.334      332.447        1.114      863.442
12/21/2021  19:30:00     -105.098      -14.945      -12.724      124.070       80.609       66.567    15393.376     6497.733     4431.128        1.887        1.316      106.155       54.859        0.267      332.092        0.530      863.535
12/21/2021  19:31:00      -82.014        1.729        6.672       79.156       49.240       40.721     6265.643     2424.540     1658.221        0.856        0.517       82.032       35.924        0.192      331.932        0.266      863.525
12/21/2021  19:32:00        7.257       41.454       -9.560       28.044       20.693       16.917      786.470      428.201      286.170        0.168        0.075       42.084        8.768        0.043      331.954        0.303      863.454
12/21/2021  19:33:00       -4.350       22.049       -7.971       21.151       17.632       10.159      447.344      310.891      103.200        0.071        0.043       22.474       11.143        0.246      332.031        0.429      863.436
12/21/2021  19:34:00      -40.445       -8.056       -5.283       46.568       30.687       33.194     2168.549      941.676     1101.829        0.297        0.211       41.240       29.662        0.517      332.068        0.489      863.528
12/21/2021  19:35:00      -79.228        1.085       -8.093       78.978       49.896       40.281     6237.587     2489.564     1622.538        0.834        0.517       79.235       33.161        0.175      332.008        0.393      863.644
12/21/2021  19:36:00       12.353        9.383        7.516       59.789       44.131       30.945     3574.710     1947.560      957.563        0.339        0.324       15.513       22.948        2.188      332.014        0.401      863.689
12/21/2021  19:37:00      -11.032       37.145       -7.807       26.237       18.100       17.477      688.357      327.595      305.459        0.144        0.066       38.748       13.036        0.113      332.044        0.450      863.633
12/21/2021  19:38:00       -5.741       72.000       -6.534       21.889       18.048       11.905      479.138      325.746      141.726        0.310        0.047       72.229        7.875        0.012      332.148        0.622      863.561
12/21/2021  19:39:00      -36.113       50.507      -21.606       34.067       29.264       18.635     1160.530      856.382      347.270        0.334        0.118       62.089       19.163        0.095      332.218        0.736      863.580
12/21/2021  19:40:00        4.774       -7.496       -6.571       43.319       31.345       28.778     1876.528      982.483      828.187        0.190        0.184        8.887       25.821        8.441      332.155        0.633      863.655
12/21/2021  19:41:00      -29.891       14.718       -5.172       73.966       43.800       32.193     5470.912     1918.450     1036.400        0.478        0.421       33.318       29.961        0.809      332.058        0.474      863.706
12/21/2021  19:42:00      -68.036       55.790      -10.121       28.947       17.211       13.588      837.954      296.203      184.631        0.458        0.066       87.985        8.430        0.009      331.926        0.257      863.653
12/21/2021  19:43:00      -37.749       37.667      -10.533       17.504       15.550        9.853      306.394      241.818       97.073        0.180        0.032       53.327        7.556        0.020      331.947        0.291      863.573
12/21/2021  19:44:00      -44.327       57.426      -16.192       37.729       32.100       16.753     1423.456     1030.379      280.669        0.413        0.137       72.544       11.446        0.025      332.048        0.457      863.552
12/21/2021  19:45:00      -95.892       26.075      -31.417       33.379       26.775       23.442     1114.150      716.918      549.530        0.662        0.119       99.374       13.334        0.018      331.972        0.332      863.542
12/21/2021  19:46:00     -115.466       37.720      -23.895       44.924       38.046       28.663     2018.186     1447.524      821.587        0.981        0.214      121.471       24.865        0.042      331.915        0.238      863.505
12/21/2021  19:47:00     -105.668       61.623      -15.444       36.848       38.017       27.563     1357.788     1445.283      759.696        0.938        0.178      122.324       20.772        0.029      331.951        0.296      863.466
12/21/2021  19:48:00      -34.028       -0.030      -18.794       45.369       42.296       23.066     2058.388     1788.927      532.057        0.294        0.219       34.028       23.218        0.466      332.017        0.406      863.474
12/21/2021  19:49:00        9.754        0.932       -5.646       13.155       23.649       13.905      173.060      559.260      193.339        0.053        0.046        9.798        9.009        0.845      332.033        0.433      863.447
12/21/2021  19:50:00       -6.790        5.075       -2.239       12.598       11.598       10.804      158.698      134.512      116.736        0.024        0.020        8.477        4.796        0.320      331.970        0.330      863.352
12/21/2021  19:51:00      -14.475       -8.007      -16.964       20.847       21.904       12.265      434.580      479.791      150.421        0.081        0.053       16.542       12.380        0.560      332.061        0.478      863.316
12/21/2021  19:52:00      -15.571      -15.341      -19.626       23.210       34.828       23.869      538.717     1213.000      569.742        0.159        0.116       21.858       13.556        0.385      332.024        0.417      863.414
12/21/2021  19:53:00     -174.143      -40.403      -18.625       85.239       47.095       45.375     7265.685     2217.947     2058.848        2.192        0.577      178.769       45.695        0.065      332.142        0.610      863.504
12/21/2021  19:54:00      -94.742       19.968      -10.112       50.203       50.937       35.287     2520.370     2594.603     1245.206        0.792        0.318       96.824       21.321        0.048      332.066        0.487      863.413
12/21/2021  19:55:00       33.238      109.444       -7.117       50.744       55.838       25.831     2574.911     3117.860      667.263        0.975        0.318      114.380       32.470        0.081      332.067        0.489      863.089
12/21/2021  19:56:00      145.810      198.147      -28.505       48.177       71.352       31.875     2321.042     5091.149     1016.046        3.488        0.421      246.014       34.539        0.020      332.055        0.466      862.668
12/21/2021  19:57:00      187.961      134.411      -22.908       73.988       59.222       42.185     5474.210     3507.229     1779.586        3.234        0.538      231.075       32.231        0.019      331.894        0.200      862.465
12/21/2021  19:58:00      134.745       39.284      -25.889       53.791       52.291       37.790     2893.455     2734.333     1428.104        1.371        0.353      140.355       29.139        0.043      331.948        0.292      862.537
12/21/2021  19:59:00       16.614     -108.769      -33.138       55.140       45.335       29.195     3040.474     2055.278      852.362        0.958        0.297      110.031       17.259        0.025      332.221        0.744      862.708
12/21/2021  20:00:00       73.756     -156.935      -45.690       39.685       59.287       31.573     1574.934     3514.986      996.826        1.912        0.304      173.403       22.963        0.018      332.235        0.764      862.827
12/21/2021  20:01:00       91.828     -150.354      -47.999       72.842       93.003       54.177     5306.005     8649.465     2935.110        2.511        0.845      176.178       36.085        0.042      332.348        0.948      862.823
12/21/2021  20:02:00       70.353     -164.523      -30.932       35.528       64.344       32.182     1262.261     4140.088     1035.710        1.970        0.322      178.933       30.701        0.029      332.170        0.657      862.743
12/21/2021  20:03:00      101.539       46.221       -8.774       64.023       62.831       38.273     4098.938     3947.735     1464.798        1.102        0.476      111.564       35.564        0.102      332.305        0.880      862.609
12/21/2021  20:04:00       63.358       62.832      -14.859       49.306       18.189       17.834     2431.093      330.832      318.060        0.563        0.154       89.231       14.864        0.028      332.082        0.513      862.573
12/21/2021  20:05:00        5.452       17.454       -1.118       31.354       26.680       19.569      983.096      711.819      382.948        0.121        0.104       18.286       10.744        0.345      332.167        0.651      862.672
12/21/2021  20:06:00      -12.339       -5.532       -5.851       67.349       51.744       34.103     4535.945     2677.468     1163.036        0.430        0.419       13.522       16.093        1.416      332.170        0.658      862.839
12/21/2021  20:07:00     -178.628      -37.447       -8.493      115.470       59.613       52.293    13333.410     3553.740     2734.607        2.650        0.981      182.511       40.435        0.049      332.196        0.700      862.965
12/21/2021  20:08:00     -135.210      -11.235        0.120      124.206       67.177       71.558    15427.146     4512.770     5120.568        2.173        1.253      135.676       61.862        0.208      331.995        0.369      863.019
12/21/2021  20:09:00     -145.979       -6.510       -1.450      102.748       46.507       40.031    10557.152     2162.890     1602.520        1.784        0.716      146.124       42.592        0.085      331.934        0.269      863.019
12/21/2021  20:10:00      -14.761       25.374        2.259       23.014       25.128       19.908      529.639      631.423      396.314        0.121        0.078       29.355       12.165        0.172      331.950        0.296      862.987
12/21/2021  20:11:00       12.269       46.256       -2.590       25.836       19.975       13.385      667.503      398.990      179.164        0.177        0.062       47.856        9.984        0.044      332.052        0.463      862.955
12/21/2021  20:12:00      -87.043       33.278      -31.087       63.821       33.779       26.649     4073.101     1141.051      710.181        0.779        0.296       93.187       31.086        0.111      332.082        0.514      862.983
12/21/2021  20:13:00      -55.127       -8.920       -5.609      115.962       61.678       43.225    13447.189     3804.197     1868.428        1.113        0.956       55.844       18.040        0.104      332.009        0.392      863.079
12/21/2021  20:14:00     -248.604       53.079      -17.259      111.057       86.296       57.469    12333.615     7446.943     3302.640        4.400        1.154      254.207       52.441        0.043      331.834        0.102      863.155
12/21/2021  20:15:00     -182.437        4.265        1.927      122.067       88.669       51.667    14900.338     7862.244     2669.498        2.936        1.272      182.487       57.464        0.099      331.754       -0.030      863.152
12/21/2021  20:16:00      -84.756      -19.398      -12.611       73.896       53.961       28.801     5460.602     2911.795      829.482        0.846        0.460       86.947       24.903        0.082      331.824        0.088      863.110
12/21/2021  20:17:00      -15.882        3.401       -6.107       26.926       24.772       13.000      725.034      613.653      168.998        0.090        0.075       16.242       10.088        0.386      331.820        0.082      863.036
12/21/2021  20:18:00       38.992       57.454        2.225       29.261       25.620       20.996      856.219      656.394      440.823        0.339        0.098       69.436       16.819        0.059      331.859        0.146      863.001
12/21/2021  20:19:00      -59.334       49.841      -19.024       68.558       33.814       28.699     4700.188     1143.391      823.652        0.652        0.333       77.490       33.882        0.191      331.909        0.230      863.021
12/21/2021  20:20:00      -11.782       -5.201      -19.634       50.543       39.356       24.654     2554.625     1548.887      607.805        0.263        0.236       12.879       13.575        1.111      331.866        0.158      863.083
12/21/2021  20:21:00      -34.676      -33.751       16.681       84.743       38.598       37.301     7181.376     1489.825     1391.335        0.634        0.503       48.390       27.573        0.325      331.934        0.270      863.170
12/21/2021  20:22:00     -167.418      -26.949      -21.098       78.559       73.078       41.345     6171.479     5340.369     1709.388        2.121        0.661      169.573       31.289        0.034      331.770       -0.002      863.216
12/21/2021  20:23:00      -77.062       48.387        0.486       38.701       47.754       28.929     1497.754     2280.408      836.899        0.645        0.231       90.993       25.439        0.078      331.693       -0.126      863.173
12/21/2021  20:24:00      -26.667       95.905       -9.030       22.944       16.505       13.140      526.423      272.415      172.667        0.548        0.049       99.544        6.972        0.005      331.934        0.271      863.070
12/21/2021  20:25:00      -70.254       59.032      -19.376       45.214       35.223       27.629     2044.329     1240.656      763.345        0.642        0.202       91.762       22.250        0.059      331.932        0.267      863.050
12/21/2021  20:26:00     -128.772       50.017      -21.874       94.539       48.228       42.472     8937.615     2325.971     1803.903        1.631        0.653      138.145       36.701        0.071      331.708       -0.106      863.105
12/21/2021  20:27:00     -146.202       34.432        0.775       89.233       51.785       44.305     7962.596     2681.681     1962.905        1.758        0.630      150.202       37.163        0.061      331.696       -0.125      863.158
12/21/2021  20:28:00      -66.710       26.136       -0.111       71.145       49.446       36.948     5061.543     2444.865     1365.135        0.700        0.444       71.647       36.420        0.258      331.617       -0.252      863.207
12/21/2021  20:29:00      -62.224       32.405       -7.588       74.003       29.291       23.934     5476.488      857.986      572.849        0.594        0.345       70.156       28.433        0.164      331.747       -0.036      863.194
12/21/2021  20:30:00       12.794       18.887       -7.461       12.083       24.519       10.487      145.989      601.188      109.970        0.072        0.043       22.812        4.334        0.036      331.880        0.179      863.130
12/21/2021  20:31:00        6.054       68.025       -6.722       20.690       32.407       18.067      428.089     1050.182      326.428        0.326        0.090       68.294       18.948        0.077      332.119        0.572      863.040
12/21/2021  20:32:00      -74.255       54.341      -17.292       32.909       17.948       20.512     1082.984      322.124      420.741        0.530        0.091       92.015       20.436        0.049      332.083        0.514      862.953
12/21/2021  20:33:00     -177.894       27.874      -27.037       61.819       46.966       41.458     3821.622     2205.810     1718.803        2.045        0.387      180.065       21.188        0.014      331.766       -0.008      862.885
12/21/2021  20:34:00     -144.529       53.718      -30.185       53.038       54.810       29.958     2813.051     3004.175      897.476        1.570        0.336      154.189       26.979        0.031      331.845        0.124      862.839
12/21/2021  20:35:00       12.331       67.433      -19.105       57.295       31.637       19.504     3282.723     1000.896      380.402        0.486        0.233       68.551       13.617        0.039      332.066        0.487      862.789
12/21/2021  20:36:00      103.937       32.533      -29.151       37.314       36.141       19.740     1392.352     1306.142      389.665        0.790        0.154      108.910       10.379        0.009      332.200        0.708      862.769
12/21/2021  20:37:00       50.354       16.208      -14.957       39.119       30.466       27.314     1530.273      928.196      746.037        0.311        0.160       52.898       14.542        0.076      332.147        0.622      862.820
12/21/2021  20:38:00      -13.139       41.059       -5.931       44.591       22.076       14.861     1988.398      487.370      220.857        0.229        0.135       43.110        9.099        0.045      332.023        0.415      862.919
12/21/2021  20:39:00      -35.366       -3.843      -17.094       65.354       36.315       29.000     4271.191     1318.763      841.025        0.399        0.322       35.575       28.393        0.637      332.133        0.596      863.012
12/21/2021  20:40:00      -72.918      -22.514        0.956       97.335       65.863       42.988     9474.160     4337.972     1847.956        1.074        0.783       76.314       44.222        0.336      332.068        0.490      863.099
12/21/2021  20:41:00      -80.171      -18.229       -9.993       52.061       36.971       33.418     2710.334     1366.863     1116.789        0.603        0.260       82.217       21.861        0.071      332.070        0.493      863.167
12/21/2021  20:42:00     -129.490       -8.302      -23.900       37.714       36.193       26.823     1422.323     1309.958      719.491        1.043        0.173      129.755       25.699        0.039      332.138        0.604      863.192
12/21/2021  20:43:00      -75.578       -3.605      -16.335       50.906       32.323       32.209     2591.444     1044.757     1037.428        0.533        0.234       75.664       29.805        0.155      332.088        0.523      863.161
12/21/2021  20:44:00      -70.308       -4.190      -15.617       41.649       15.934       20.537     1734.676      253.883      421.751        0.381        0.121       70.433       22.264        0.100      332.122        0.579      863.068
12/21/2021  20:45:00       18.105       61.973       -8.840       36.311       36.493       17.343     1318.453     1331.758      300.789        0.360        0.148       64.564       17.067        0.070      331.982        0.349      862.919
12/21/2021  20:46:00      101.791       45.867      -20.152       47.761       51.921       43.416     2281.076     2695.739     1884.906        0.987        0.343      111.647       22.587        0.041      332.044        0.451      862.738
12/21/2021  20:47:00       84.826       -2.117        6.515       82.619       37.418       32.146     6825.869     1400.135     1033.379        0.825        0.463       84.853       36.498        0.185      331.912        0.233      862.624
12/21/2021  20:48:00       16.314        4.905      -17.849       50.827       25.597       24.294     2583.367      655.200      590.219        0.222        0.191       17.036       12.368        0.527      331.899        0.212      862.668
12/21/2021  20:49:00      -18.321      -15.898      -19.592       53.138       54.224       42.720     2823.599     2940.204     1824.984        0.428        0.379       24.257       25.308        1.089      332.024        0.418      862.792
12/21/2021  20:50:00      -60.514        7.296        0.038       87.568       61.978       53.309     7668.108     3841.264     2841.862        0.903        0.718       60.953       46.163        0.574      332.030        0.428      862.878
12/21/2021  20:51:00      -87.542       23.906       -8.263       53.703       41.984       36.039     2883.975     1762.683     1298.816        0.712        0.297       90.747       25.543        0.079      332.049        0.459      862.844
12/21/2021  20:52:00      -23.478       83.467      -13.551       36.395       29.936       19.824     1324.618      896.178      393.005        0.516        0.131       86.706       14.401        0.028      331.970        0.330      862.729
12/21/2021  20:53:00       32.616       98.759       -5.119       33.319       31.791       24.462     1110.185     1010.686      598.372        0.678        0.136      104.006       20.083        0.037      332.148        0.622      862.631
12/21/2021  20:54:00        1.299       38.956      -10.587       22.710       46.399       19.410      515.761     2152.865      376.729        0.234        0.152       38.978        9.639        0.061      332.193        0.697      862.669
12/21/2021  20:55:00       16.479       -2.856       10.666       43.289       35.865       24.691     1873.925     1286.321      609.653        0.208        0.188       16.725       10.035        0.360      332.107        0.554      862.764
12/21/2021  20:56:00     -101.383      -28.928       -2.414       67.054       45.127       45.478     4496.273     2036.419     2068.282        0.986        0.430      105.430       31.112        0.087      331.963        0.317      862.788
12/21/2021  20:57:00      -85.231        3.224       -9.840       33.832       25.414       17.748     1144.591      645.895      314.975        0.474        0.105       85.292        6.021        0.005      332.008        0.392      862.735
12/21/2021  20:58:00      -22.007       -1.508       -5.135       14.265       13.535       11.544      203.499      183.206      133.274        0.052        0.026       22.058        9.630        0.191      332.086        0.519      862.680
12/21/2021  20:59:00      -40.087      -29.151      -20.954       22.498       32.715       17.745      506.141     1070.255      314.880        0.239        0.095       49.566       15.727        0.101      332.132        0.594      862.725
12/21/2021  21:00:00      -44.980      -19.314      -33.133       40.581       35.445       27.999     1646.784     1256.373      783.933        0.359        0.184       48.952       29.998        0.376      332.029        0.426      862.819
12/21/2021  21:01:00      -92.937      -41.017      -22.066       73.654       53.598       32.778     5424.920     2872.703     1074.400        1.009        0.469      101.586       27.128        0.071      331.964        0.320      862.916
12/21/2021  21:02:00      -72.175      -22.937        1.802       77.434       44.763       34.724     5996.021     2003.712     1205.769        0.747        0.460       75.732       34.666        0.210      331.792        0.036      862.961
12/21/2021  21:03:00      -68.021        7.272       -1.414       43.680       41.503       30.594     1907.960     1722.498      936.003        0.462        0.228       68.409       28.702        0.176      331.701       -0.113      862.918
12/21/2021  21:04:00        0.606       21.896       -3.390       16.632       28.488       22.154      276.633      811.563      490.798        0.103        0.079       21.904       15.905        0.527      331.786        0.025      862.811
12/21/2021  21:05:00        3.327      -52.600      -15.182       30.397       41.946       21.561      923.949     1759.468      464.866        0.308        0.157       52.705       17.107        0.105      331.943        0.284      862.785
12/21/2021  21:06:00       -0.518        3.850      -11.187       34.293       19.383       18.616     1175.979      375.715      346.562        0.102        0.095        3.884       18.611       22.956      331.925        0.255      862.821
12/21/2021  21:07:00     -106.849       10.157       -5.644       67.098       46.320       28.843     4502.181     2145.512      831.939        0.951        0.374      107.330       23.664        0.049      331.774        0.006      862.797
12/21/2021  21:08:00     -139.791       50.137       -4.740       80.823       47.333       38.055     6532.318     2240.406     1448.187        1.615        0.511      148.510       29.635        0.040      331.723       -0.080      862.730
12/21/2021  21:09:00      -78.084       27.659      -11.108       94.589       50.074       41.009     8947.151     2507.431     1681.722        1.006        0.657       82.838       30.891        0.139      331.726       -0.073      862.736
12/21/2021  21:10:00     -107.619      -19.449       -7.043       93.662       49.955       37.512     8772.618     2495.520     1407.125        1.234        0.634      109.362       37.493        0.118      331.676       -0.156      862.873
12/21/2021  21:11:00     -158.055      -79.510      -22.273       49.740       53.238       30.009     2474.115     2834.291      900.529        1.900        0.310      176.927       27.823        0.025      331.654       -0.193      863.041
12/21/2021  21:12:00      -69.717      -21.063        1.890       63.727       63.307       42.705     4061.188     4007.773     1823.754        0.760        0.495       72.829       40.903        0.315      331.704       -0.109      863.138
12/21/2021  21:13:00     -135.928      -13.095      -18.903       84.167       52.605       30.081     7084.152     2767.306      904.867        1.488        0.538      136.557       26.653        0.038      331.656       -0.189      863.143
12/21/2021  21:14:00     -176.855       29.663       -1.753       65.930       42.178       31.606     4346.707     1778.953      998.970        1.964        0.356      179.326       27.406        0.023      331.611       -0.264      863.094
12/21/2021  21:15:00     -135.097       32.213       -4.560       71.901       43.006       36.471     5169.704     1849.514     1330.129        1.383        0.417      138.884       19.281        0.019      331.633       -0.226      863.038
12/21/2021  21:16:00      -42.108       17.828       -6.844       46.555       28.409       20.034     2167.413      807.076      401.349        0.276        0.169       45.726       11.941        0.068      331.725       -0.074      863.002
12/21/2021  21:17:00      -80.679       27.993      -14.216       23.265       22.677       17.139      541.245      514.259      293.759        0.442        0.067       85.398       11.257        0.017      331.673       -0.159      862.995
12/21/2021  21:18:00      -39.943      -15.757      -19.834       90.236       34.390       30.330     8142.611     1182.701      919.887        0.624        0.512       42.938       29.025        0.457      331.786        0.025      863.096
12/21/2021  21:19:00      -92.044        8.422       -2.758       67.198       37.177       36.358     4515.619     1382.104     1321.897        0.788        0.361       92.429       31.942        0.119      331.668       -0.168      863.167
12/21/2021  21:20:00      -47.219       53.021      -14.455       53.129       41.628       18.358     2822.680     1732.889      337.034        0.507        0.245       70.999       18.361        0.067      331.632       -0.226      863.072
12/21/2021  21:21:00      109.651       98.033      -15.367       56.683       38.583       25.712     3212.931     1488.661      661.114        1.362        0.268      147.085       20.635        0.020      331.661       -0.179      862.793
12/21/2021  21:22:00      103.244       -5.990      -18.553       70.696       61.648       27.220     4997.940     3800.445      740.943        1.029        0.477      103.418       17.378        0.028      331.626       -0.239      862.673
12/21/2021  21:23:00      -27.636      -64.872      -34.344       33.277       36.534       23.643     1107.375     1334.729      558.997        0.458        0.150       70.514       18.764        0.071      331.713       -0.093      862.840
12/21/2021  21:24:00       20.942      -10.505      -17.199       23.824       16.741       19.862      567.566      280.258      394.510        0.104        0.062       23.429       16.807        0.515      331.740       -0.048      862.992
12/21/2021  21:25:00       96.142       25.117      -17.546       33.183       13.170        9.222     1101.128      173.450       85.037        0.577        0.068       99.369        9.000        0.008      331.754       -0.026      863.001
12/21/2021  21:26:00       76.271       19.902      -13.141       41.996       17.595       12.680     1763.642      309.568      160.789        0.431        0.112       78.825        9.451        0.014      331.776        0.011      862.999
12/21/2021  21:27:00       -6.517      -34.092      -21.156       16.696       23.902       19.884      278.754      571.308      395.378        0.145        0.062       34.709       12.522        0.130      331.894        0.204      863.132
12/21/2021  21:28:00      -13.961      -18.313       -0.632       44.321       49.445       27.333     1964.390     2444.823      747.080        0.284        0.258       23.028       16.813        0.533      331.975        0.336      863.245
12/21/2021  21:29:00       46.233       12.221      -10.133       42.040       40.938       23.466     1767.394     1675.922      550.658        0.319        0.200       47.821       18.880        0.156      331.943        0.285      863.219
12/21/2021  21:30:00      151.272       22.321      -19.110       65.849       51.548       31.376     4336.121     2657.209      984.478        1.586        0.399      152.910       23.211        0.023      331.780        0.015      863.057
12/21/2021  21:31:00      133.451       14.137      -17.133       66.545       60.826       36.178     4428.290     3699.749     1308.863        1.387        0.472      134.198       28.943        0.047      331.736       -0.056      862.940
12/21/2021  21:32:00       45.254       39.608       -8.437       67.879       42.022       25.125     4607.534     1765.887      631.243        0.534        0.350       60.139       26.771        0.198      331.687       -0.137      862.900
12/21/2021  21:33:00     -112.725       31.547      -25.272       70.951       46.552       28.324     5034.005     2167.105      802.251        1.117        0.400      117.056       14.646        0.016      331.864        0.156      862.991
12/21/2021  21:34:00      -67.195      -14.611       -3.940      125.771       78.995       55.311    15818.427     6240.278     3059.338        1.493        1.256       68.765       45.518        0.438      331.909        0.229      863.177
12/21/2021  21:35:00     -293.303       23.468      -14.172      100.321       75.076       46.701    10064.319     5636.432     2180.962        5.233        0.894      294.241       32.643        0.012      331.859        0.144      863.351
12/21/2021  21:36:00      -91.368      -45.411      -18.575       86.523       64.796       47.261     7486.300     4198.476     2233.616        1.233        0.696      102.031       32.684        0.103      331.816        0.076      863.381
12/21/2021  21:37:00        9.442        7.338      -16.038       32.733       31.624       26.606     1071.452     1000.076      707.880        0.159        0.139       11.958       10.292        0.741      331.901        0.215      863.273
12/21/2021  21:38:00       48.368       19.759      -16.815       48.436       71.457       32.322     2346.010     5106.060     1044.718        0.575        0.425       52.248       17.963        0.118      332.072        0.497      863.206
12/21/2021  21:39:00      -23.567       -4.055        2.270       26.928       27.526       19.378      725.141      757.668      375.489        0.122        0.093       23.913        8.411        0.124      332.053        0.467      863.324
12/21/2021  21:40:00      -72.244       45.026      -15.200       52.290       25.972       21.245     2734.204      674.528      451.356        0.567        0.193       85.127       20.326        0.057      332.061        0.479      863.481
12/21/2021  21:41:00      -41.725       16.679       -7.583       49.508       37.001       29.241     2451.077     1369.072      855.044        0.338        0.234       44.935       25.298        0.317      331.951        0.297      863.560
12/21/2021  21:42:00      -69.529       34.113       -4.236       25.780       22.331       17.242      664.626      498.677      297.291        0.374        0.073       77.446       13.832        0.032      331.980        0.345      863.557
12/21/2021  21:43:00      -69.554       48.867      -12.238       22.317       26.548       13.261      498.047      704.809      175.866        0.438        0.069       85.004        9.169        0.012      331.990        0.360      863.532
12/21/2021  21:44:00      -25.159       40.412      -16.223       34.036       14.221       12.349     1158.455      202.250      152.502        0.202        0.076       47.603       10.335        0.047      332.015        0.403      863.497
12/21/2021  21:45:00       -8.327       52.835       -9.056       16.711       25.568       15.495      279.260      653.705      240.090        0.206        0.059       53.487        5.360        0.010      332.161        0.643      863.475
12/21/2021  21:46:00        5.580       47.721      -15.053       17.994       22.519       16.601      323.801      507.094      275.605        0.182        0.055       48.046        8.189        0.029      332.149        0.622      863.494
12/21/2021  21:47:00       32.288       13.314       -8.430       23.490       12.644       13.976      551.802      159.875      195.337        0.110        0.045       34.925       12.472        0.128      331.994        0.369      863.515
12/21/2021  21:48:00       79.186       32.552      -16.595       30.872       30.151       18.261      953.109      909.066      333.478        0.490        0.110       85.616       11.945        0.019      331.931        0.264      863.502
12/21/2021  21:49:00      101.241       63.178      -19.125       36.504       19.069       20.750     1332.529      363.608      430.562        0.837        0.106      119.336       16.319        0.019      331.784        0.022      863.478
12/21/2021  21:50:00       37.095       35.802       -7.106       31.652       17.370       19.199     1001.821      301.721      368.585        0.219        0.084       51.554       17.025        0.109      331.709       -0.101      863.531
12/21/2021  21:51:00       -3.965        8.855       -5.010       10.285       13.767       18.067      105.778      189.535      326.429        0.037        0.031        9.702        9.983        1.059      331.868        0.161      863.613
12/21/2021  21:52:00       32.549        4.148      -14.430       20.221       19.087       14.784      408.878      364.295      218.574        0.114        0.050       32.812        9.532        0.084      331.870        0.166      863.642
12/21/2021  21:53:00       80.011       31.909      -11.463       17.084       16.229       14.939      291.854      263.392      223.175        0.416        0.039       86.139        6.596        0.006      331.839        0.114      863.583
12/21/2021  21:54:00       94.436       51.486       -9.721       28.233       21.855       15.446      797.084      477.623      238.584        0.659        0.076      107.559       10.000        0.009      331.762       -0.011      863.495
12/21/2021  21:55:00       67.730       76.141      -15.444       32.440       36.315       21.276     1052.348     1318.798      452.687        0.672        0.141      101.905       20.413        0.040      331.738       -0.053      863.434
12/21/2021  21:56:00       38.481      142.784      -19.256       44.607       47.814       22.532     1989.755     2286.148      507.679        1.351        0.239      147.879       20.069        0.018      332.085        0.518      863.430
12/21/2021  21:57:00      -40.576       50.125       -6.433       42.916       40.458       25.799     1841.766     1636.810      665.568        0.417        0.207       64.490       26.569        0.170      331.975        0.337      863.534
12/21/2021  21:58:00       12.197      -12.730       -6.116       23.192       25.918       20.695      537.866      671.755      428.300        0.099        0.082       17.630       10.967        0.387      331.944        0.285      863.746
12/21/2021  21:59:00       -7.654      -13.982        3.612       32.560       28.026       26.566     1060.165      785.473      705.732        0.141        0.128       15.940       15.645        0.963      332.003        0.381      863.879
12/21/2021  22:00:00       -6.148       18.603       -2.883       19.230       15.868       17.187      369.804      251.782      295.392        0.065        0.046       19.593        8.683        0.196      332.074        0.499      863.875
12/21/2021  22:01:00       -8.764       73.897       -4.993       22.207       21.376       13.909      493.172      456.918      193.471        0.335        0.057       74.415        9.551        0.016      332.131        0.591      863.790
12/21/2021  22:02:00      -33.159      113.415      -14.432       21.098       28.293       17.094      445.110      800.480      292.192        0.785        0.077      118.163       15.535        0.017      332.247        0.784      863.711
12/21/2021  22:03:00      -15.428       85.864      -18.886       26.422       37.004       25.890      698.118     1369.296      670.308        0.535        0.137       87.239       22.626        0.067      332.260        0.807      863.634
12/21/2021  22:04:00      -14.063       63.336      -13.721       24.796       28.881       21.651      614.820      834.124      468.756        0.316        0.096       64.878       11.191        0.030      332.224        0.748      863.577
12/21/2021  22:05:00        4.902        6.804       -6.587       12.208       12.579       12.380      149.036      158.220      153.257        0.029        0.023        8.386        7.928        0.894      332.141        0.607      863.526
12/21/2021  22:06:00       38.860       -2.292      -21.243       44.940       29.045       20.426     2019.648      843.589      417.221        0.262        0.164       38.927       22.819        0.344      332.076        0.505      863.451
12/21/2021  22:07:00       59.599      -11.174      -16.196       43.343       41.894       30.260     1878.609     1755.133      915.670        0.424        0.227       60.637       22.563        0.138      331.992        0.365      863.364
12/21/2021  22:08:00      131.440       13.562       -9.661       52.250       46.867       26.070     2730.025     2196.480      679.628        1.158        0.280      132.138       18.051        0.019      331.932        0.268      863.263
12/21/2021  22:09:00      113.556       41.093      -17.637       43.960       37.849       25.626     1932.460     1432.566      656.680        0.946        0.201      120.763        4.376        0.001      331.895        0.206      863.220
12/21/2021  22:10:00       44.398       36.615      -20.979       32.050       13.167       12.598     1027.200      173.378      158.721        0.256        0.068       57.549       10.578        0.034      331.939        0.277      863.265
12/21/2021  22:11:00      -14.004        9.305       -4.596       27.515       19.847       16.955      757.083      393.888      287.458        0.087        0.072       16.813       13.298        0.626      332.010        0.393      863.276
12/21/2021  22:12:00      -10.175      -13.948       -7.985       31.957       20.945       18.854     1021.224      438.698      355.485        0.109        0.091       17.265       18.215        1.113      331.999        0.378      863.236
12/21/2021  22:13:00        8.329      -28.902      -18.840       13.137       11.870       13.219      172.593      140.893      174.733        0.087        0.024       30.078        6.889        0.052      332.053        0.467      863.195
12/21/2021  22:14:00       10.945      -24.749      -21.672       10.340       12.656       11.661      106.917      160.163      135.974        0.080        0.020       27.061        7.968        0.087      332.109        0.558      863.184
12/21/2021  22:15:00      -22.292      -11.290       -8.392       22.781       27.153       17.700      518.955      737.285      313.284        0.113        0.078       24.988        9.823        0.155      332.222        0.743      863.311
12/21/2021  22:16:00        4.249      -17.143        2.791       45.314       37.756       31.200     2053.348     1425.517      973.470        0.239        0.223       17.662       21.207        1.442      332.204        0.713      863.467
12/21/2021  22:17:00      -61.845       -9.396       -7.064       82.803       26.275       27.265     6856.324      690.369      743.363        0.613        0.415       62.555       34.014        0.296      332.233        0.763      863.530
12/21/2021  22:18:00     -116.680      -27.593      -10.431       43.170       40.399       27.807     1863.637     1632.112      773.207        0.938        0.213      119.898       15.522        0.017      332.261        0.808      863.516
12/21/2021  22:19:00      -39.236       -3.085       -1.993       78.332       46.635       41.230     6135.871     2174.841     1699.941        0.578        0.501       39.357       43.614        1.228      332.259        0.807      863.555
12/21/2021  22:20:00      -29.932       32.116       -2.589       57.166       38.288       28.306     3267.926     1466.005      801.237        0.373        0.277       43.902       28.864        0.432      332.229        0.755      863.604
12/21/2021  22:21:00      -70.580       28.599       -7.885       46.874       42.837       22.380     2197.136     1835.001      500.853        0.520        0.227       76.154       24.851        0.106      332.166        0.652      863.586
12/21/2021  22:22:00      -83.284       44.358      -13.359       31.256       27.759       18.262      976.948      770.554      333.498        0.558        0.104       94.360       13.364        0.020      332.034        0.432      863.548
12/21/2021  22:23:00      -47.658      -13.164      -13.074       24.339       28.874       20.030      592.379      833.681      401.220        0.222        0.091       49.442        8.004        0.026      332.125        0.584      863.579
12/21/2021  22:24:00      -60.462      -55.853       -5.635       38.654       34.966       13.847     1494.164     1222.632      191.741        0.486        0.145       82.312        8.907        0.012      332.157        0.639      863.618
12/21/2021  22:25:00       -0.609      -97.114       -9.153       74.021       60.452       31.116     5479.073     3654.431      968.206        0.981        0.505       97.116       35.095        0.131      332.170        0.657      863.615
12/21/2021  22:26:00       51.967     -115.130      -42.510       55.066      105.059       40.120     3032.285    11037.368     1609.587        1.672        0.784      126.315       30.960        0.060      332.061        0.476      863.600
12/21/2021  22:27:00      -20.043       -7.389      -17.638       47.378       40.402       24.499     2244.718     1632.334      600.218        0.262        0.224       21.362       18.658        0.763      332.129        0.589      863.577
12/21/2021  22:28:00       14.907      -51.675      -30.601       59.206       54.754       32.648     3505.325     2998.015     1065.904        0.570        0.378       53.782       25.508        0.225      332.035        0.436      863.524
12/21/2021  22:29:00       28.457      -56.217      -20.398       28.136       55.227       19.444      791.637     3050.019      378.063        0.430        0.211       63.009       10.346        0.027      331.948        0.292      863.501
12/21/2021  22:30:00      -39.314       30.280      -14.405       45.135       18.459       17.275     2037.190      340.718      298.427        0.267        0.134       49.623       13.257        0.071      331.976        0.338      863.550
12/21/2021  22:31:00      -36.355       -0.340       -6.741       35.335       29.493       23.688     1248.534      869.813      561.127        0.202        0.134       36.357       10.495        0.083      331.957        0.307      863.666
12/21/2021  22:32:00      -14.014      -12.945      -12.470       17.077       21.927       20.421      291.633      480.790      417.011        0.085        0.059       19.078       11.333        0.353      331.983        0.351      863.687
12/21/2021  22:33:00      -37.115      -26.049      -15.821       29.653       33.734       18.863      879.291     1137.977      355.819        0.234        0.119       45.344       18.562        0.168      331.950        0.295      863.619
12/21/2021  22:34:00      -59.233        6.338       -8.343       46.971       24.904       23.716     2206.262      620.192      562.465        0.350        0.169       59.571       15.614        0.069      331.850        0.131      863.569
12/21/2021  22:35:00       62.045       19.386      -24.400       37.460       37.678       22.467     1403.260     1419.607      504.763        0.407        0.166       65.003       17.122        0.069      331.769       -0.004      863.482
12/21/2021  22:36:00       17.150        9.202      -12.330       29.274       11.713        9.470      856.993      137.196       89.688        0.081        0.054       19.463        7.679        0.156      331.828        0.096      863.433
12/21/2021  22:37:00       -4.303       -8.815      -11.005       48.251       47.336       22.400     2328.189     2240.743      501.738        0.264        0.254        9.809       14.387        2.152      331.926        0.257      863.579
12/21/2021  22:38:00     -129.596      -65.240      -10.182       89.233       54.817       43.726     7962.524     3004.937     1911.958        1.701        0.644      145.091       38.190        0.069      331.769       -0.004      863.770
12/21/2021  22:39:00      -27.566      -93.926      -43.490       77.350       68.788       39.768     5983.074     4731.801     1581.458        1.188        0.615       97.887       42.657        0.190      331.882        0.183      863.814
12/21/2021  22:40:00       71.939      -11.604      -54.701       50.327       48.783       39.385     2532.837     2379.827     1551.214        0.738        0.323       72.869       25.979        0.127      331.800        0.050      863.776
12/21/2021  22:41:00       72.527      -45.358      -34.787       32.665       40.416       24.058     1067.003     1633.446      578.778        0.590        0.164       85.542        9.557        0.012      331.879        0.179      863.645
12/21/2021  22:42:00       48.959       38.091       -7.084       33.472       28.195       22.113     1120.350      794.950      488.999        0.315        0.120       62.032       13.836        0.050      331.912        0.233      863.489
12/21/2021  22:43:00       62.268      -25.891      -28.380       54.043       45.991       40.459     2920.673     2115.195     1636.963        0.601        0.334       67.436       37.765        0.314      331.772        0.003      863.442
12/21/2021  22:44:00      102.182        6.398      -41.166       66.097       72.841       60.684     4368.752     5305.751     3682.505        1.276        0.668      102.382       43.517        0.181      331.632       -0.227      863.423
12/21/2021  22:45:00      128.616        0.045       -7.553       99.661       70.186       58.195     9932.267     4926.069     3386.704        1.742        0.912      128.616       54.324        0.178      331.572       -0.327      863.326
12/21/2021  22:46:00      218.841       26.403      -12.297      101.942       65.132       50.693    10392.208     4242.209     2569.742        3.297        0.860      220.428       54.050        0.060      331.505       -0.440      863.153
12/21/2021  22:47:00      194.184      103.208      -15.823       69.087       47.055       34.662     4772.978     2214.207     1201.444        2.840        0.409      219.907       21.794        0.010      331.505       -0.439      863.012
12/21/2021  22:48:00      226.410      139.248      -30.481       74.350       44.295       34.869     5527.921     1962.075     1215.862        4.014        0.435      265.804       24.201        0.008      331.569       -0.334      863.014
12/21/2021  22:49:00      186.341       84.097      -18.108       82.970       65.034       40.554     6884.026     4229.398     1644.586        2.744        0.638      204.439       38.978        0.036      331.593       -0.295      863.147
12/21/2021  22:50:00       61.852     -108.449      -16.704       45.768       73.306       37.977     2094.691     5373.774     1442.256        1.239        0.446      124.847       32.626        0.068      331.636       -0.222      863.305
12/21/2021  22:51:00      -11.781     -116.536      -32.084       57.189       63.571       48.208     3270.631     4041.330     2323.986        1.219        0.482      117.130       35.730        0.093      331.882        0.184      863.409
12/21/2021  22:52:00      -31.551       41.871      -13.034       27.938       36.114       18.259      780.537     1304.234      333.395        0.267        0.121       52.427       15.336        0.086      331.936        0.273      863.432
12/21/2021  22:53:00       19.539       -3.899      -15.678       27.474       35.038       15.737      754.819     1227.692      247.655        0.144        0.112       19.924       12.587        0.399      331.897        0.209      863.436
12/21/2021  22:54:00       32.343      -46.275      -11.730       35.997       46.707       18.114     1295.774     2181.584      328.127        0.356        0.190       56.457       17.537        0.096      331.772        0.004      863.374
12/21/2021  22:55:00       -4.105        8.129      -11.859       25.217       30.959       16.882      635.884      958.436      285.004        0.105        0.094        9.107       12.761        1.963      331.771        0.002      863.340
12/21/2021  22:56:00     -109.179       75.526      -22.313       31.123       29.333       20.934      968.646      860.406      438.222        1.019        0.113      132.756       15.581        0.014      331.796        0.042      863.291
12/21/2021  22:57:00     -162.184       85.223      -28.704       36.536       43.931       27.681     1334.878     1929.964      766.231        1.921        0.202      183.212       20.167        0.012      331.714       -0.094      863.194
12/21/2021  22:58:00      -51.945      -23.734       -9.879       86.286       42.940       32.546     7445.312     1843.880     1059.237        0.685        0.517       57.111       34.538        0.366      331.854        0.139      863.214
12/21/2021  22:59:00     -118.471      -78.974      -17.232       49.538       58.422       30.061     2454.042     3413.114      903.664        1.367        0.339      142.381       26.729        0.035      331.822        0.085      863.289
12/21/2021  23:00:00     -116.235       41.907      -12.547       36.551       23.755       19.866     1335.960      564.285      394.643        0.886        0.115      123.558       13.353        0.012      331.743       -0.043      863.234
12/21/2021  23:01:00      -14.929       84.133       -5.652       26.770       47.996       19.858      716.617     2303.609      394.347        0.537        0.171       85.448       20.870        0.060      331.765       -0.007      863.063
12/21/2021  23:02:00       13.091       95.319      -10.162       44.954       28.881       20.713     2020.833      834.123      429.039        0.632        0.164       96.213       15.083        0.025      331.863        0.153      862.953
12/21/2021  23:03:00        3.622      113.360       -7.339       30.676       48.563       39.052      940.989     2358.337     1525.034        0.887        0.241      113.418       38.161        0.113      331.850        0.132      862.987
12/21/2021  23:04:00       -9.115      -76.492      -31.029       34.794       52.730       35.145     1210.590     2780.437     1235.201        0.606        0.261       77.033       38.398        0.248      331.895        0.206      863.047
12/21/2021  23:05:00       20.871      -85.046      -19.301       83.846       65.876       40.772     7030.155     4339.641     1662.339        1.053        0.652       87.570       40.424        0.213      331.903        0.219      863.079
12/21/2021  23:06:00       -1.600       -6.014       -6.214       30.476       41.834       35.388      928.787     1750.087     1252.338        0.200        0.197        6.223       20.039       10.369      331.908        0.225      863.067
12/21/2021  23:07:00       13.636        5.619      -25.139       20.926       33.485       20.923      437.918     1121.225      437.751        0.142        0.100       14.748        8.863        0.361      331.872        0.170      863.063
12/21/2021  23:08:00       55.753     -140.490      -31.452       35.216       35.890       20.916     1240.143     1288.111      437.478        1.340        0.148      151.148       21.663        0.021      331.907        0.225      863.119
12/21/2021  23:09:00      136.387     -161.000      -58.508       34.061       67.131       30.994     1160.142     4506.514      960.634        2.729        0.331      211.004       13.416        0.004      331.847        0.123      863.152
12/21/2021  23:10:00      158.701     -210.790      -58.387       36.399       58.267       25.473     1324.886     3395.070      648.857        3.920        0.268      263.853       27.534        0.011      331.803        0.050      863.099
12/21/2021  23:11:00       51.301      -92.354      -13.526       42.301       45.276       27.057     1789.414     2049.886      732.066        0.796        0.229      105.646       24.460        0.054      331.822        0.087      863.057
12/21/2021  23:12:00      -11.130      -64.913      -35.212       36.747       53.743       19.834     1350.318     2888.341      393.386        0.510        0.232       65.860       19.979        0.092      332.009        0.392      863.068
12/21/2021  23:13:00       19.791       38.651       -5.221       23.213       29.670       16.133      538.859      880.295      260.259        0.180        0.084       43.423        8.681        0.040      331.755       -0.023      863.034
12/21/2021  23:14:00       53.952       60.695      -12.509       27.127       20.770       16.811      735.859      431.394      282.608        0.410        0.072       81.208        9.847        0.015      331.608       -0.266      862.934
12/21/2021  23:15:00       74.481       59.013      -18.289       32.533       21.341       19.563     1058.372      455.426      382.692        0.563        0.095       95.026       14.181        0.022      331.609       -0.267      862.864
12/21/2021  23:16:00       61.524       15.600      -14.129       45.558       29.250       19.835     2075.554      855.589      393.442        0.378        0.166       63.471       15.406        0.059      331.695       -0.123      862.873
12/21/2021  23:17:00       40.716       27.266      -10.294       45.966       57.960       43.150     2112.912     3359.392     1861.944        0.492        0.367       49.002       27.618        0.318      331.609       -0.266      862.910
12/21/2021  23:18:00       28.886        6.495       -7.518       47.430       43.083       50.014     2249.565     1856.144     2501.418        0.377        0.330       29.607       31.450        1.128      331.527       -0.401      862.926
12/21/2021  23:19:00       56.723       12.828       -7.810       30.875       24.697       19.017      953.271      609.942      361.653        0.268        0.096       58.156       19.628        0.114      331.413       -0.588      862.884
12/21/2021  23:20:00       41.042       86.888       -4.681       26.929       30.571       18.614      725.145      934.590      346.494        0.563        0.100       96.093       15.798        0.027      331.470       -0.494      862.785
12/21/2021  23:21:00       59.254       91.348       -7.971       46.534       36.194       24.109     2165.426     1309.997      581.221        0.799        0.203      108.883       21.848        0.040      331.587       -0.301      862.727
12/21/2021  23:22:00       63.391        3.485       -9.552       63.497       52.659       29.470     4031.875     2773.002      868.468        0.590        0.384       63.486       25.721        0.164      331.517       -0.416      862.755
12/21/2021  23:23:00       42.351      -41.566      -33.323       35.007       41.876       26.801     1225.504     1753.610      718.292        0.416        0.185       59.341       18.493        0.097      331.495       -0.455      862.823
12/21/2021  23:24:00      -38.669       22.139       -3.425       30.322       47.689       15.955      919.395     2274.256      254.558        0.272        0.172       44.558       10.816        0.059      331.677       -0.154      862.924
12/21/2021  23:25:00      -52.025       14.543       -9.749       48.614       46.805       21.089     2363.284     2190.730      444.752        0.401        0.250       54.019       17.850        0.109      331.660       -0.180      863.022
12/21/2021  23:26:00       -1.592      -40.623      -19.075       18.306       13.933       13.806      335.113      194.126      190.593        0.137        0.036       40.654        6.470        0.025      331.711       -0.097      863.061
12/21/2021  23:27:00       -2.194       13.072       -3.709       30.343       22.912       13.496      920.674      524.978      182.142        0.091        0.081       13.255       15.895        1.438      331.772        0.003      862.980
12/21/2021  23:28:00       -0.420       99.346      -11.383       23.080       26.314       13.449      532.689      692.433      180.866        0.570        0.070       99.347       12.012        0.015      331.688       -0.136      862.796
12/21/2021  23:29:00       16.873      121.309      -11.011       32.083       23.200       22.357     1029.317      538.239      499.835        0.859        0.103      122.477       15.816        0.017      331.798        0.047      862.611
12/21/2021  23:30:00       92.551       72.024      -18.319       43.875       37.231       26.085     1925.004     1386.143      680.412        0.904        0.200      117.274       17.645        0.023      331.559       -0.349      862.544
12/21/2021  23:31:00       52.361       11.012      -10.380       60.380       42.054       21.094     3645.705     1768.566      444.938        0.441        0.293       53.507       11.606        0.047      331.457       -0.517      862.637
12/21/2021  23:32:00       48.938      -44.073      -32.080       39.041       35.316       25.602     1524.170     1247.187      655.447        0.440        0.171       65.859       18.962        0.083      331.392       -0.623      862.771
12/21/2021  23:33:00       61.048      -26.424      -14.691       32.560       27.697       20.741     1060.177      767.109      430.176        0.345        0.113       66.521       16.514        0.062      331.406       -0.602      862.848
12/21/2021  23:34:00       45.831       23.118      -21.062       24.384       38.768       14.673      594.570     1502.923      215.301        0.270        0.116       51.332       18.380        0.128      331.432       -0.556      862.836
12/21/2021  23:35:00       52.314       61.133      -10.024       18.845       20.364       14.190      355.124      414.702      201.349        0.377        0.049       80.461        5.431        0.005      331.371       -0.657      862.796
12/21/2021  23:36:00        5.438       67.658       -1.537       24.866       27.168       16.294      618.293      738.091      265.505        0.312        0.081       67.876       15.478        0.052      331.469       -0.496      862.805
12/21/2021  23:37:00      -65.212       58.216      -15.849       29.857       29.092       19.821      891.449      846.359      392.875        0.501        0.107       87.417       11.036        0.016      331.476       -0.485      862.857
12/21/2021  23:38:00      -58.284      123.096      -11.328       27.440       25.561       19.100      752.936      653.379      364.811        1.022        0.089      136.197        8.241        0.004      331.520       -0.412      862.849
12/21/2021  23:39:00      -16.975      131.742      -22.408       16.510       33.642       12.396      272.571     1131.803      153.673        0.985        0.078      132.831        9.482        0.005      331.536       -0.385      862.835
12/21/2021  23:40:00       15.790        2.957      -13.250       14.849       30.755       16.539      220.504      945.878      273.524        0.094        0.072       16.064        5.716        0.127      331.546       -0.369      862.924
12/21/2021  23:41:00       16.150       21.383       -7.564       18.650       44.773       15.276      347.832     2004.615      233.346        0.168        0.129       26.797       11.626        0.188      331.544       -0.372      862.986
12/21/2021  23:42:00        6.146       45.757       -1.447       18.743       20.302       10.415      351.299      412.174      108.466        0.150        0.044       46.168        9.317        0.041      331.507       -0.433      862.959
12/21/2021  23:43:00       -2.773       74.685       -7.242       15.622       15.747       12.828      244.043      247.975      164.561        0.315        0.033       74.736        8.810        0.014      331.643       -0.208      862.909
12/21/2021  23:44:00       -6.688       36.804       -1.554       19.179       13.946       14.974      367.837      194.480      224.210        0.109        0.039       37.407        3.485        0.009      331.609       -0.265      862.870
12/21/2021  23:45:00      -70.390       29.535      -11.235       39.028       25.001       17.252     1523.217      625.055      297.618        0.420        0.122       76.335       17.563        0.053      331.632       -0.228      862.836
12/21/2021  23:46:00     -186.187       50.499      -43.204       47.475       25.076       34.498     2253.844      628.811     1190.124        2.158        0.204      192.914       17.709        0.008      331.551       -0.364      862.744
12/21/2021  23:47:00     -160.384       50.611        1.056       91.065       58.629       40.876     8292.810     3437.384     1670.816        2.084        0.670      168.180       39.077        0.054      331.517       -0.418      862.600
12/21/2021  23:48:00     -127.066       52.039      -26.911      124.901       61.145       42.163    15600.261     3738.722     1777.743        2.034        1.056      137.309       38.999        0.081      331.528       -0.402      862.453
12/21/2021  23:49:00     -144.102       52.310      -20.244       65.973       58.188       45.310     4352.395     3385.811     2053.004        1.685        0.490      153.303       32.747        0.046      331.489       -0.465      862.367
12/21/2021  23:50:00     -112.260       37.279       -8.438       80.976       55.283       38.259     6557.124     3056.165     1463.765        1.257        0.554      118.288       43.327        0.134      331.454       -0.522      862.428
12/21/2021  23:51:00      -24.754        9.354        4.686       54.313       47.623       30.433     2949.856     2267.983      926.145        0.343        0.307       26.462       23.191        0.768      331.446       -0.535      862.529
12/21/2021  23:52:00     -149.653       55.943      -19.187       73.496       56.136       27.538     5401.726     3151.253      758.358        1.760        0.466      159.767       22.749        0.020      331.427       -0.566      862.592
12/21/2021  23:53:00      -61.634       64.702      -13.455       36.391       45.867       23.761     1324.321     2103.818      564.585        0.608        0.200       89.360       13.585        0.023      331.401       -0.608      862.620
12/21/2021  23:54:00      -26.056       53.991       -8.437       35.475       44.415       23.292     1258.510     1972.667      542.496        0.372        0.189       59.950       14.549        0.059      331.349       -0.693      862.602
12/21/2021  23:55:00       19.158       15.735       -4.122       34.483       30.483       13.432     1189.098      929.212      180.412        0.146        0.115       24.792       13.763        0.308      331.370       -0.660      862.576
12/21/2021  23:56:00        8.726      105.383      -19.918       32.883       44.234       32.532     1081.309     1956.668     1058.315        0.784        0.205      105.744       17.448        0.027      331.505       -0.437      862.544
12/21/2021  23:57:00      -31.428      117.389      -10.332       29.887       29.404       19.955      893.205      864.598      398.204        0.851        0.108      121.523       12.232        0.010      331.550       -0.363      862.480
12/21/2021  23:58:00      -47.272      129.011      -13.113       37.496       45.814       18.949     1405.972     2098.935      359.062        1.146        0.193      137.399       17.387        0.016      331.528       -0.399      862.410
12/21/2021  23:59:00      -49.795      143.482      -15.885       49.060       38.282       25.955     2406.851     1465.474      673.651        1.393        0.227      151.876       22.490        0.022      331.529       -0.399      862.342
12/22/2021  00:00:00      -11.018       91.854      -14.819       34.102       55.828       26.473     1162.970     3116.727      700.837        0.688        0.249       92.512       22.123        0.057      331.584       -0.308      862.330
12/22/2021  00:01:00       -7.562       68.615      -16.837       25.610       45.255       23.264      655.881     2047.976      541.191        0.415        0.162       69.030       14.055        0.041      331.567       -0.336      862.306
12/22/2021  00:02:00       30.483       87.779      -14.133       55.044       66.067       30.304     3029.885     4364.879      918.355        0.857        0.416       92.921       33.011        0.126      331.547       -0.368      862.223
12/22/2021  00:03:00       85.377       20.813      -18.089       58.116       48.370       24.197     3377.500     2339.696      585.518        0.718        0.315       87.877       19.013        0.047      331.455       -0.521      862.185
12/22/2021  00:04:00      135.110       25.318      -24.880       67.010       38.489       26.415     4490.392     1481.371      697.752        1.309        0.333      137.462       12.041        0.008      331.302       -0.770      862.231
12/22/2021  00:05:00       23.465       -7.900      -10.326       40.792       16.215       10.501     1663.950      262.934      110.280        0.138        0.102       24.760       11.669        0.222      331.355       -0.684      862.304
12/22/2021  00:06:00       -9.456       24.320      -13.482       17.808       11.493       14.529      317.133      132.089      211.103        0.076        0.033       26.094        6.001        0.053      331.503       -0.441      862.326
12/22/2021  00:07:00      -33.164       60.195      -14.537       18.679       18.108       11.858      348.906      327.905      140.624        0.288        0.041       68.726       10.723        0.024      331.560       -0.346      862.326
12/22/2021  00:08:00      -35.622       36.280       -8.475       21.287       22.888       14.423      453.119      523.879      208.012        0.192        0.059       50.845       14.135        0.077      331.518       -0.415      862.356
12/22/2021  00:09:00      -58.046       30.115      -10.131       27.446       15.234       20.168      753.307      232.081      406.757        0.289        0.070       65.393       15.664        0.057      331.447       -0.533      862.364
12/22/2021  00:10:00      -90.143       66.394      -13.791       35.591       33.170       22.387     1266.735     1100.249      501.192        0.780        0.143      111.955       15.663        0.020      331.509       -0.430      862.313
12/22/2021  00:11:00      -23.435      128.697       -9.894       31.438       54.246       21.543      988.377     2942.672      464.087        1.080        0.220      130.813       27.598        0.045      331.599       -0.284      862.192
12/22/2021  00:12:00      -15.704       98.008      -13.647       32.496       35.462       20.136     1055.972     1257.586      405.455        0.638        0.136       99.258       15.901        0.026      331.709       -0.102      862.082
12/22/2021  00:13:00      -34.136       45.784      -19.644       49.323       31.552       24.173     2432.734      995.519      584.354        0.383        0.201       57.109       19.490        0.116      331.703       -0.110      862.009
12/22/2021  00:14:00      -84.630       30.532      -26.014       54.689       56.961       30.020     2990.854     3244.508      901.218        0.795        0.357       89.969        9.742        0.012      331.639       -0.216      861.935
12/22/2021  00:15:00       -7.111      -20.930        6.906       68.887       36.095       36.534     4745.357     1302.838     1334.759        0.396        0.369       22.105       39.680        3.222      331.650       -0.198      861.887
12/22/2021  00:16:00        1.668      -19.790        1.415       42.728       50.794       29.674     1825.685     2580.044      880.564        0.284        0.264       19.861       24.243        1.490      331.679       -0.149      861.904
12/22/2021  00:17:00      -45.885       -4.364       -9.350       50.520       32.494       18.371     2552.289     1055.892      337.496        0.308        0.197       46.092       15.952        0.120      331.730       -0.065      861.930
12/22/2021  00:18:00      -38.335      -48.049       -6.803       33.897       23.675       13.573     1149.029      560.494      184.233        0.286        0.095       61.467        9.210        0.022      331.720       -0.083      861.886
12/22/2021  00:19:00       -4.484       -2.759       -7.703       15.308       20.301        9.895      234.322      412.118       97.912        0.042        0.037        5.265        8.463        2.584      331.757       -0.022      861.800
12/22/2021  00:20:00       13.417       73.277       -9.273       24.178       35.613       13.112      584.568     1268.268      171.933        0.383        0.101       74.495       12.064        0.026      331.785        0.025      861.724
12/22/2021  00:21:00      -21.077      144.456      -18.712       21.625       30.632       14.761      467.630      938.299      217.885        1.164        0.081      145.986       12.895        0.008      331.819        0.081      861.687
12/22/2021  00:22:00      -42.855       70.330      -22.980       43.955       45.303       19.255     1932.069     2052.392      370.738        0.583        0.218       82.358       18.046        0.048      331.834        0.105      861.696
12/22/2021  00:23:00      -82.751       46.672      -28.756       19.603       19.634       18.243      384.296      385.476      332.797        0.548        0.055       95.005        8.972        0.009      331.725       -0.074      861.717
12/22/2021  00:24:00      -31.277       11.836      -16.711       38.079       21.741       22.963     1450.031      472.653      527.296        0.192        0.122       33.442       17.274        0.267      331.767       -0.004      861.723
12/22/2021  00:25:00       61.174       15.142      -12.069       28.013       19.725       13.685      784.739      389.089      187.271        0.274        0.068       63.020       10.698        0.029      331.808        0.062      861.713
12/22/2021  00:26:00       25.466       16.007       -9.281       24.430       18.814       12.569      596.834      353.963      157.970        0.105        0.055       30.079        8.936        0.088      331.737       -0.056      861.719
12/22/2021  00:27:00      -56.556       33.005       -9.437       40.672       21.589       21.030     1654.172      466.084      442.257        0.347        0.128       65.483       22.382        0.117      331.904        0.220      861.744
12/22/2021  00:28:00     -115.593       42.797      -22.059       37.913       25.396       28.733     1437.380      644.937      825.574        0.929        0.145      123.261       21.299        0.030      331.728       -0.070      861.760
12/22/2021  00:29:00      -45.027       25.444       -2.639       29.670       26.868       18.160      880.311      721.875      329.790        0.231        0.097       51.719       15.861        0.094      331.621       -0.244      861.756
12/22/2021  00:30:00        5.803       17.781       -4.487       12.064       14.679       15.757      145.550      215.467      248.299        0.049        0.030       18.704        9.623        0.265      331.680       -0.149      861.772
12/22/2021  00:31:00       34.231       42.899       -6.999       22.427       29.983       25.552      502.957      898.959      652.884        0.256        0.103       54.882       12.175        0.049      331.718       -0.086      861.762
12/22/2021  00:32:00        4.250        6.480       -9.396       20.173       15.109       15.344      406.961      228.268      235.431        0.051        0.044        7.750       10.949        1.996      331.618       -0.251      861.735
12/22/2021  00:33:00      -11.372        7.564       -5.874       24.871        8.256       10.982      618.590       68.168      120.599        0.051        0.040       13.658       10.773        0.622      331.613       -0.260      861.750
12/22/2021  00:34:00      -16.971      -47.895      -16.436       24.823       34.485       18.551      616.182     1189.239      344.155        0.250        0.107       50.813       20.158        0.157      331.801        0.052      861.854
12/22/2021  00:35:00       68.801     -119.151      -44.177       72.677      107.468       35.119     5281.919    11549.369     1233.370        1.947        0.903      137.588       35.120        0.065      331.745       -0.045      861.952
12/22/2021  00:36:00      109.594     -162.068      -53.596       50.078       78.446       34.904     2507.831     6153.745     1218.305        2.551        0.494      195.645       27.369        0.020      331.660       -0.184      861.962
12/22/2021  00:37:00       89.162     -109.209      -32.590       35.889       56.480       26.094     1288.017     3189.970      680.885        1.305        0.258      140.984       25.633        0.033      331.567       -0.337      861.889
12/22/2021  00:38:00       55.577      -19.822      -15.570       32.385       25.578       18.160     1048.802      654.254      329.775        0.288        0.102       59.006       12.280        0.043      331.487       -0.468      861.815
12/22/2021  00:39:00       50.463       -5.454      -16.132       31.723       37.099       22.768     1006.368     1376.310      518.363        0.287        0.145       50.757       15.421        0.092      331.390       -0.627      861.852
12/22/2021  00:40:00       26.633      -26.436      -22.884       25.205       34.092       26.525      635.278     1162.250      703.559        0.222        0.125       37.526       11.019        0.086      331.465       -0.503      861.967
12/22/2021  00:41:00       56.244      -26.407      -32.582       37.226       40.077       29.481     1385.753     1606.147      869.104        0.439        0.193       62.134       19.662        0.100      331.497       -0.450      862.021
12/22/2021  00:42:00       61.981       -2.614      -15.227       45.709       34.553       32.908     2089.338     1193.892     1082.934        0.422        0.218       62.036       22.181        0.128      331.385       -0.635      861.996
12/22/2021  00:43:00       34.386       -7.524        0.003       42.281       28.011       34.061     1787.697      784.634     1160.170        0.249        0.187       35.199       29.589        0.707      331.372       -0.657      861.964
12/22/2021  00:44:00       20.892      -10.261       -7.104       21.382       16.735       18.794      457.170      280.048      353.219        0.084        0.055       23.276       14.063        0.365      331.369       -0.660      861.991
12/22/2021  00:45:00       12.286      -34.362       -5.849       23.342       17.025       17.387      544.861      289.866      302.325        0.125        0.057       36.492       12.387        0.115      331.526       -0.403      862.064
12/22/2021  00:46:00       46.944      -47.759      -22.174       45.148       33.451       19.993     2038.306     1118.983      399.739        0.427        0.178       66.968       23.076        0.119      331.539       -0.381      862.106
12/22/2021  00:47:00       78.384      -75.581      -35.553       32.635       44.598       30.572     1065.055     1988.943      934.653        0.855        0.199      108.887       19.071        0.031      331.529       -0.397      862.085
12/22/2021  00:48:00       52.536      -51.727      -25.517       35.136       34.420       23.089     1234.555     1184.710      533.108        0.452        0.148       73.727       18.161        0.061      331.512       -0.427      862.056
12/22/2021  00:49:00        6.004       -2.402      -20.407       24.557       19.943       10.249      603.027      397.714      105.034        0.078        0.055        6.467        5.466        0.714      331.501       -0.445      861.990
12/22/2021  00:50:00       25.973       52.422       -9.296       31.228       24.125       12.152      975.210      581.993      147.670        0.261        0.085       58.504        8.016        0.019      331.442       -0.539      861.851
12/22/2021  00:51:00       78.114        6.112      -15.453       31.367       43.788       14.515      983.872     1917.423      210.680        0.474        0.156       78.352       12.338        0.025      331.429       -0.562      861.700
12/22/2021  00:52:00       39.424      -27.868      -27.101       32.202       42.140       23.866     1036.968     1775.773      569.564        0.322        0.169       48.279       17.038        0.125      331.527       -0.400      861.643
12/22/2021  00:53:00       10.406      -36.824      -19.295       21.721       28.380       16.255      471.820      805.432      264.221        0.169        0.077       38.266       13.233        0.120      331.608       -0.266      861.645
12/22/2021  00:54:00       -0.660       -1.652      -10.577       14.927       14.182       14.204      222.806      201.118      201.749        0.037        0.031        1.779       12.243       47.370      331.636       -0.221      861.637
12/22/2021  00:55:00      -28.375       -1.606       -5.174       27.512       19.977       16.351      756.898      399.079      267.342        0.113        0.071       28.421        5.637        0.039      331.640       -0.214      861.671
12/22/2021  00:56:00      -61.977      -23.232       -0.510       29.187       25.645       18.688      851.855      657.675      349.225        0.312        0.093       66.189       11.796        0.032      331.681       -0.147      861.791
12/22/2021  00:57:00       -6.975      -14.618       -9.846       16.830       19.892       13.419      283.237      395.693      180.061        0.061        0.043       16.197        8.105        0.250      331.630       -0.229      861.890
12/22/2021  00:58:00       17.444      -16.976      -11.821       54.058       60.146       27.561     2922.268     3617.502      759.604        0.401        0.365       24.340       33.151        1.855      331.560       -0.346      861.890
12/22/2021  00:59:00       77.081      -60.742      -31.144       45.404       53.444       29.572     2061.532     2856.298      874.516        0.820        0.290       98.138       28.499        0.084      331.460       -0.510      861.814
12/22/2021  01:00:00      100.447       -7.122      -12.397       64.303       54.475       44.115     4134.915     2967.510     1946.133        0.967        0.452      100.699       33.002        0.107      331.361       -0.672      861.709
12/22/2021  01:01:00      102.632       -7.678       -2.090       64.673       36.985       33.215     4182.590     1367.869     1103.265        0.862        0.333      102.919       31.279        0.092      331.258       -0.841      861.680
12/22/2021  01:02:00       53.670       -2.024       -7.610       39.715       21.121       17.387     1577.245      446.092      302.323        0.263        0.116       53.709       16.258        0.092      331.255       -0.848      861.767
12/22/2021  01:03:00      -29.969       19.544       -9.456       26.179       17.932       15.807      685.317      321.570      249.848        0.131        0.063       35.779       13.859        0.150      331.324       -0.734      861.884
12/22/2021  01:04:00       -7.928      -19.500      -22.989       24.409       19.387       13.837      595.805      375.867      191.456        0.107        0.058       21.050        3.096        0.022      331.349       -0.693      861.935
12/22/2021  01:05:00       26.576      -22.163      -15.636       30.194       39.244       31.992      911.670     1540.087     1023.500        0.246        0.174       34.605       21.524        0.387      331.430       -0.560      861.931
12/22/2021  01:06:00       61.360      -28.147      -43.176       37.719       40.263       28.381     1422.742     1621.126      805.487        0.513        0.192       67.508       13.652        0.041      331.339       -0.711      861.940
12/22/2021  01:07:00       82.968      -47.358      -41.555       27.826       47.501       21.339      774.298     2256.333      455.360        0.717        0.174       95.533        9.102        0.009      331.402       -0.607      861.934
12/22/2021  01:08:00       24.534       16.312       -0.620       32.183       35.663       37.934     1035.725     1271.872     1438.964        0.231        0.187       29.462       16.278        0.305      331.341       -0.706      861.872
12/22/2021  01:09:00       57.166       -7.819       -4.326       37.521       33.129       21.837     1407.802     1097.516      476.851        0.316        0.149       57.698       15.144        0.069      331.296       -0.780      861.781
12/22/2021  01:10:00       35.650       17.802       -6.515       22.840       12.209        7.938      521.673      149.056       63.008        0.118        0.037       39.847        3.691        0.009      331.232       -0.883      861.715
12/22/2021  01:11:00       24.893       20.829       -7.092       20.639       11.166       11.732      425.981      124.672      137.646        0.090        0.034       32.458       12.042        0.138      331.227       -0.890      861.716
12/22/2021  01:12:00       54.004        0.686       -7.869       34.555       30.959       27.335     1194.022      958.447      747.220        0.294        0.145       54.008       23.153        0.184      331.263       -0.834      861.699
12/22/2021  01:13:00       68.426       14.200      -33.179       49.588       46.386       39.521     2458.994     2151.619     1561.936        0.608        0.309       69.884       28.446        0.166      331.214       -0.914      861.685
12/22/2021  01:14:00       27.327       10.567       -3.257       55.815       53.260       46.738     3115.301     2836.608     2184.475        0.450        0.407       29.298       33.478        1.306      331.167       -0.993      861.659
12/22/2021  01:15:00       55.229       -7.968       -9.302       72.735       43.680       51.797     5290.413     1907.947     2682.891        0.654        0.494       55.801       46.393        0.691      331.169       -0.989      861.652
12/22/2021  01:16:00      121.977      -24.094      -12.411       77.100       51.544       46.328     5944.404     2656.735     2146.317        1.318        0.537      124.334       44.939        0.131      331.214       -0.915      861.647
12/22/2021  01:17:00       63.937      -23.026        0.454       68.427       40.793       41.491     4682.315     1664.034     1721.463        0.634        0.403       67.957       41.082        0.365      331.116       -1.077      861.608
12/22/2021  01:18:00       71.043       -9.392       -0.142       60.115       25.108       27.665     3613.842      630.427      765.334        0.507        0.250       71.661       30.503        0.181      330.955       -1.343      861.561
12/22/2021  01:19:00       62.276      -11.791       -7.255       21.751       21.979       13.892      473.093      483.063      192.986        0.261        0.057       63.383       10.606        0.028      330.911       -1.414      861.555
12/22/2021  01:20:00       60.020        7.852      -14.125       22.776       29.554       13.187      518.766      873.462      173.886        0.271        0.078       60.531        4.639        0.006      330.885       -1.456      861.521
12/22/2021  01:21:00       60.469       10.859      -10.578       33.749       23.178       16.009     1138.992      537.207      256.291        0.291        0.097       61.436        9.330        0.023      330.869       -1.483      861.458
12/22/2021  01:22:00       68.912       -8.697      -11.696       15.396       24.222       12.510      237.046      586.685      156.498        0.297        0.049       69.458       10.831        0.024      330.899       -1.433      861.470
12/22/2021  01:23:00       69.789      -80.321      -24.825       42.065       50.609       22.913     1769.479     2561.319      524.994        0.840        0.243      106.404       27.832        0.068      331.044       -1.196      861.552
12/22/2021  01:24:00       86.540      -49.229      -59.805       39.467       65.556       37.855     1557.631     4297.537     1433.038        1.039        0.364       99.562       13.476        0.018      331.051       -1.183      861.480
12/22/2021  01:25:00       80.797        5.115      -21.688       77.729       61.478       53.971     6041.837     3779.552     2912.828        0.988        0.637       80.959       41.721        0.266      331.020       -1.235      861.230
12/22/2021  01:26:00       85.907       -4.629        7.380       68.643       74.176       47.825     4711.908     5502.021     2287.257        0.998        0.625       86.031       37.640        0.191      330.911       -1.414      861.082
12/22/2021  01:27:00       29.742      -73.541      -18.774       37.151       31.260       28.178     1380.216      977.211      793.988        0.490        0.158       79.327       26.295        0.110      330.909       -1.417      861.261
12/22/2021  01:28:00       14.758      -59.330      -19.286       34.991       62.973       23.815     1224.338     3965.572      567.143        0.493        0.288       61.138       17.129        0.078      331.218       -0.909      861.505
12/22/2021  01:29:00      -62.633       15.047      -19.354       54.873       39.012       29.021     3011.079     1521.908      842.237        0.495        0.269       64.415       13.138        0.042      331.256       -0.844      861.587
12/22/2021  01:30:00      -18.230       20.767       -7.352       35.713       29.044       17.327     1275.431      843.572      300.228        0.162        0.121       27.633       16.418        0.353      331.176       -0.978      861.504
12/22/2021  01:31:00       66.592       -3.338      -15.921       28.814       31.059       18.941      830.225      964.666      358.778        0.343        0.108       66.675       11.732        0.031      331.171       -0.985      861.359
12/22/2021  01:32:00       84.330      -24.281      -35.270       45.903       65.016       28.908     2107.129     4227.108      835.664        0.806        0.358       87.755       28.539        0.106      331.124       -1.062      861.219
12/22/2021  01:33:00       18.223      -11.386       -7.947       17.750       26.289       13.777      315.047      691.097      189.812        0.086        0.060       21.488       11.858        0.305      331.089       -1.120      861.191
12/22/2021  01:34:00      -47.480      -18.840       -5.123       61.770       46.675       27.343     3815.581     2178.571      747.616        0.469        0.337       51.081       29.962        0.344      331.202       -0.934      861.382
12/22/2021  01:35:00     -151.108      -44.481      -17.887      135.752       64.492       61.450    18428.715     4159.205     3776.072        2.574        1.318      157.519       59.581        0.143      331.188       -0.959      861.648
12/22/2021  01:36:00      -68.706      -35.805       -6.008       59.206       55.600       41.072     3505.358     3091.386     1686.918        0.716        0.414       77.476       24.811        0.103      331.181       -0.969      861.708
12/22/2021  01:37:00       70.442       11.689      -10.937       66.371       52.714       32.386     4405.156     2778.800     1048.871        0.672        0.412       71.405       35.462        0.247      331.167       -0.990      861.431
12/22/2021  01:38:00      150.871       19.748      -14.257       96.230       67.051       41.382     9260.271     4495.841     1712.447        1.941        0.773      152.158       34.849        0.052      331.191       -0.955      861.093
12/22/2021  01:39:00       72.296        8.487      -26.478      116.714       49.428       37.903    13622.052     2443.135     1436.605        1.175        0.875       72.793       23.373        0.103      331.056       -1.176      861.162
12/22/2021  01:40:00      -86.164      -47.611      -12.083      117.659       98.544       56.287    13843.591     9710.928     3168.201        1.827        1.336       98.443       53.756        0.298      331.319       -0.744      861.542
12/22/2021  01:41:00     -175.806      -29.019      -21.900      126.080       71.084       52.413    15896.246     5052.937     2747.126        2.796        1.185      178.185       38.975        0.048      331.234       -0.885      861.554
12/22/2021  01:42:00       26.159       64.560      -17.705       47.235       33.477       27.952     2231.135     1120.739      781.288        0.465        0.207       69.658       17.339        0.062      331.167       -0.994      861.196
12/22/2021  01:43:00      -13.565      -26.486      -20.484       28.743       52.727       17.930      826.139     2780.156      321.500        0.262        0.196       29.758       21.750        0.534      331.248       -0.860      860.991
12/22/2021  01:44:00      -16.544      -38.868      -11.727       54.692       59.461       47.781     2991.202     3535.661     2283.060        0.536        0.440       42.242       25.034        0.351      331.306       -0.764      861.204
12/22/2021  01:45:00     -221.139      -12.343      -22.777       61.692       43.011       30.393     3805.876     1849.988      923.728        2.808        0.329      221.483       19.331        0.008      331.244       -0.868      861.290
12/22/2021  01:46:00     -181.953        2.688      -33.942       35.215       29.372       33.640     1240.108      862.722     1131.681        1.875        0.162      181.972       13.162        0.005      331.120       -1.070      861.172
12/22/2021  01:47:00     -150.705       22.121      -14.039       95.911       51.681       43.075     9198.876     2670.909     1855.452        1.856        0.686      152.320       38.587        0.064      331.153       -1.017      861.180
12/22/2021  01:48:00     -199.566       41.375        9.972      113.607       72.825       46.435    12906.560     5303.469     2156.235        3.100        1.018      203.810       54.112        0.070      330.995       -1.279      861.283
12/22/2021  01:49:00     -139.593       75.367      -10.137       57.014       36.289       35.068     3250.630     1316.914     1229.774        1.553        0.290      158.639       10.879        0.005      330.846       -1.519      861.255
12/22/2021  01:50:00       -6.182       66.975      -12.780       38.031       25.953       19.021     1446.333      673.583      361.800        0.358        0.124       67.259       11.285        0.028      330.847       -1.515      861.066
12/22/2021  01:51:00      -13.580       97.080      -11.036       20.950       23.941       16.909      438.891      573.153      285.901        0.551        0.065       98.026       13.157        0.018      331.011       -1.249      860.896
12/22/2021  01:52:00      -22.921        7.135       -6.896       48.441       60.468       41.344     2346.537     3656.424     1709.294        0.417        0.386       24.005       20.875        0.756      331.118       -1.072      861.060
12/22/2021  01:53:00     -125.921      -14.094      -12.410      167.320       75.405       64.018    27995.952     5685.890     4098.281        2.699        1.889      126.707       62.396        0.242      330.997       -1.273      861.373
12/22/2021  01:54:00     -148.675       34.223       -8.750      125.476       72.015       65.813    15744.274     5186.095     4331.364        2.430        1.263      152.563       64.985        0.181      330.889       -1.449      861.332
12/22/2021  01:55:00     -116.680      130.233      -20.151       51.072       63.119       28.369     2608.373     3984.054      804.817        1.919        0.370      174.857       22.530        0.017      330.857       -1.503      861.017
12/22/2021  01:56:00     -115.581       99.820      -19.542       40.214       61.978       38.409     1617.149     3841.254     1475.218        1.532        0.347      152.718       33.652        0.049      330.919       -1.401      860.857
12/22/2021  01:57:00      -93.601       -6.596        1.331       60.777       38.162       31.346     3693.876     1456.327      982.574        0.747        0.307       93.833       29.072        0.096      330.991       -1.282      860.956
12/22/2021  01:58:00      -86.026       24.454      -11.636       58.595       34.881       26.148     3433.344     1216.701      683.739        0.673        0.267       89.434       20.850        0.054      331.059       -1.169      861.112
12/22/2021  01:59:00      -53.625        3.047       -1.234       52.466       49.434       31.446     2752.695     2443.721      988.846        0.453        0.309       53.712       30.382        0.320      331.037       -1.208      861.227
12/22/2021  02:00:00     -127.473      -43.190      -18.060       62.421       35.692       33.265     3896.342     1273.921     1106.590        1.236        0.314      134.591       30.465        0.051      331.013       -1.247      861.308
12/22/2021  02:01:00     -105.761      -38.328      -17.460       39.685       42.573       23.387     1574.893     1812.462      546.930        0.845        0.197      112.492       18.751        0.028      331.081       -1.134      861.265
12/22/2021  02:02:00      -63.749      -10.453       -0.993       26.893       21.128       18.530      723.221      446.398      343.377        0.284        0.076       64.600       12.042        0.035      331.091       -1.118      861.178
12/22/2021  02:03:00      -89.092      -21.816      -12.394       29.543       34.019       22.764      872.779     1157.273      518.203        0.556        0.127       91.724       17.647        0.037      331.219       -0.908      861.193
12/22/2021  02:04:00      -91.831       -5.421       -4.311       42.855       34.887       25.648     1836.574     1217.137      657.798        0.610        0.186       91.991       19.839        0.047      331.276       -0.812      861.215
12/22/2021  02:05:00     -110.056        9.622       -6.548       52.912       36.405       28.727     2799.715     1325.307      825.250        0.860        0.248      110.476       23.256        0.044      331.157       -1.009      861.184
12/22/2021  02:06:00     -121.030       22.108       -1.505       48.816       36.149       34.843     2383.047     1306.724     1214.024        1.002        0.245      123.033       29.171        0.056      331.192       -0.950      861.104
12/22/2021  02:07:00     -130.769       39.428        1.462       85.899       45.340       28.060     7378.683     2055.745      787.369        1.444        0.511      136.584       29.460        0.047      331.181       -0.971      861.083
12/22/2021  02:08:00     -164.116       23.113       -3.944       78.154       42.029       31.621     6108.043     1766.474      999.895        1.818        0.444      165.736       24.003        0.021      331.130       -1.054      861.110
12/22/2021  02:09:00     -137.148       17.501      -14.295       72.579       52.525       32.278     5267.699     2758.917     1041.868        1.419        0.453      138.260       19.871        0.021      331.146       -1.027      861.144
12/22/2021  02:10:00     -160.530       46.723        1.796       55.338       35.302       28.319     3062.332     1246.234      801.975        1.653        0.256      167.192       24.216        0.021      331.097       -1.108      861.211
12/22/2021  02:11:00     -191.221       37.513        4.612       72.836       45.034       34.659     5305.149     2028.101     1201.278        2.326        0.427      194.866       35.941        0.034      331.126       -1.064      861.299
12/22/2021  02:12:00     -112.185       25.500       -2.247       86.928       46.789       42.060     7556.540     2189.225     1769.035        1.238        0.576      115.046       31.199        0.074      331.185       -0.964      861.409
12/22/2021  02:13:00     -185.326       21.214       -7.567      113.168       54.767       37.509    12807.024     2999.468     1406.906        2.603        0.861      186.536       39.720        0.045      331.194       -0.952      861.517
12/22/2021  02:14:00     -181.641       23.639       -3.792       69.638       50.435       34.375     4849.455     2543.677     1181.608        2.107        0.429      183.173       36.686        0.040      331.176       -0.979      861.577
12/22/2021  02:15:00     -212.008       26.833       -1.715       81.242       35.483       32.036     6600.240     1259.013     1026.280        2.728        0.444      213.699       35.792        0.028      331.220       -0.907      861.603
12/22/2021  02:16:00      -86.633       17.635        0.356      103.491       60.057       44.293    10710.468     3606.853     1961.855        1.204        0.814       88.410       30.169        0.116      331.268       -0.825      861.638
12/22/2021  02:17:00     -189.905       44.981        2.442      123.740       76.004       54.391    15311.666     5776.568     2958.375        3.107        1.202      195.159       51.804        0.070      331.278       -0.811      861.714
12/22/2021  02:18:00     -201.547       35.802      -11.505       99.399       80.020       41.198     9880.220     6403.246     1697.253        3.000        0.899      204.703       36.722        0.032      331.268       -0.828      861.753
12/22/2021  02:19:00      -82.470       31.512      -11.145       81.209       64.176       40.445     6594.944     4118.598     1635.827        1.013        0.617       88.285       31.049        0.124      331.353       -0.685      861.753
12/22/2021  02:20:00     -205.803       67.174       -5.377       77.782       72.850       46.642     6050.116     5307.128     2175.452        3.021        0.677      216.489       41.201        0.036      331.352       -0.690      861.728
12/22/2021  02:21:00     -275.769       56.103       -0.958      105.970       64.034       51.975    11229.730     4100.367     2701.353        4.861        0.902      281.418       30.741        0.012      331.353       -0.689      861.706
12/22/2021  02:22:00     -161.180       20.498        4.297      137.487       75.852       61.839    18902.752     5753.558     3824.035        2.744        1.424      162.478       64.613        0.158      331.388       -0.629      861.669
12/22/2021  02:23:00     -218.383       33.300        4.547      141.406       76.633       62.988    19995.549     5872.655     3967.524        3.932        1.492      220.908       57.631        0.068      331.417       -0.584      861.662
12/22/2021  02:24:00     -283.339       60.982      -17.675       79.169       66.765       49.925     6267.707     4457.567     2492.477        4.876        0.661      289.827       44.320        0.023      331.444       -0.543      861.659
12/22/2021  02:25:00     -254.095       12.994       -7.224       75.653       64.825       42.824     5723.374     4202.250     1833.897        3.827        0.588      254.427       31.869        0.016      331.469       -0.501      861.634
12/22/2021  02:26:00      -99.553       12.872       -9.769       85.996       58.619       43.001     7395.301     3436.174     1849.049        1.142        0.634      100.382       17.548        0.031      331.510       -0.431      861.628
12/22/2021  02:27:00     -134.305       26.150      -36.546       65.357       47.847       41.590     4271.479     2289.302     1729.769        1.417        0.415      136.827       29.931        0.048      331.516       -0.420      861.674
12/22/2021  02:28:00      -32.525        8.521        0.482       64.971       36.083       31.313     4221.239     1301.978      980.525        0.382        0.325       33.623       21.991        0.428      331.558       -0.349      861.734
12/22/2021  02:29:00       -2.861        6.078        0.120       32.110       35.957       20.836     1031.053     1292.898      434.124        0.140        0.138        6.718       16.599        6.105      331.622       -0.242      861.729
12/22/2021  02:30:00       45.159      -53.479      -35.205       34.245       63.352       31.870     1172.722     4013.524     1015.666        0.617        0.310       69.995       31.393        0.201      331.752       -0.030      861.698
12/22/2021  02:31:00       19.591      -35.830      -26.936       39.230       35.815       25.461     1539.016     1282.703      648.271        0.293        0.173       40.836       15.038        0.136      331.893        0.204      861.778
12/22/2021  02:32:00       38.025      -89.210      -37.426       84.798      101.866       46.513     7190.651    10376.628     2163.427        1.526        0.987       96.975       50.339        0.269      331.851        0.133      861.791
12/22/2021  02:33:00      135.287     -264.578      -62.346       60.040       52.560       35.345     3604.834     2762.529     1249.281        4.990        0.381      297.160       23.829        0.006      331.675       -0.162      861.910
12/22/2021  02:34:00      210.930     -106.568      -75.984      100.921      106.050       71.952    10185.128    11246.535     5177.041        4.411        1.330      236.323       55.449        0.055      331.721       -0.085      861.836
12/22/2021  02:35:00       91.073      -52.679      -18.050       98.984       92.706       57.553     9797.791     8594.485     3312.338        1.655        1.085      105.211       20.787        0.039      331.658       -0.186      861.741
12/22/2021  02:36:00      218.933      -35.904      -24.478      129.545       84.693       67.910    16781.955     7172.836     4611.729        3.919        1.428      221.858       74.775        0.114      331.552       -0.363      861.662
12/22/2021  02:37:00      149.123      -39.892      -23.022      108.050       77.959       64.765    11674.725     6077.631     4194.541        2.315        1.097      154.366       49.313        0.102      331.587       -0.303      861.548
12/22/2021  02:38:00      -31.361      -14.153      -27.486       71.020       66.566       39.907     5043.852     4430.985     1592.536        0.650        0.553       34.407       39.677        1.330      331.694       -0.126      861.612
12/22/2021  02:39:00       26.450       85.089      -20.882       66.333       31.623       29.479     4400.032     1000.012      869.000        0.732        0.313       89.106       19.097        0.046      331.747       -0.038      861.693
12/22/2021  02:40:00       21.986       60.318        0.068       80.740       44.454       31.470     6518.938     1976.148      990.367        0.680        0.474       64.200       14.816        0.053      331.905        0.221      861.680
12/22/2021  02:41:00       67.600       64.400      -13.698       45.741       20.334       21.997     2092.215      413.460      483.872        0.595        0.149       93.366       23.421        0.063      331.837        0.109      861.737
12/22/2021  02:42:00      142.275       40.453      -26.895       63.597       50.144       32.179     4044.540     2514.378     1035.482        1.510        0.380      147.915       20.701        0.020      331.794        0.039      861.611
12/22/2021  02:43:00      228.214       45.859      -17.047       53.801       42.268       32.512     2894.558     1786.601     1057.040        3.011        0.287      232.776       28.625        0.015      331.780        0.012      861.468
12/22/2021  02:44:00      180.447       37.051      -27.008       86.551       86.542       53.050     7491.082     7489.576     2814.295        2.623        0.890      184.211       45.036        0.060      331.845        0.120      861.398
12/22/2021  02:45:00      172.038       19.543      -56.304      107.879      120.571       91.653    11637.974    14537.287     8400.249        3.386        1.729      173.145       61.095        0.125      331.805        0.054      861.319
12/22/2021  02:46:00      198.225     -263.473      -57.884      143.638      185.381       93.429    20631.993    34366.068     8729.020        8.788        3.186      329.713       81.857        0.062      332.036        0.435      861.403
12/22/2021  02:47:00      161.900     -272.252      -55.652      109.390      108.714       58.898    11966.225    11818.679     3468.985        6.534        1.363      316.754       61.191        0.037      331.925        0.253      861.607
12/22/2021  02:48:00      175.470     -238.731      -63.297      135.715      144.215       81.691    18418.534    20797.914     6673.422        6.883        2.294      296.281       75.965        0.066      331.885        0.186      861.508
12/22/2021  02:49:00      -69.418      -38.438      -10.412       98.118       76.517       47.308     9627.207     5854.850     2238.079        1.206        0.886       79.349       28.183        0.126      332.123        0.580      861.351
12/22/2021  02:50:00     -115.485        3.285      -18.451       70.490       37.109       47.276     4968.849     1377.049     2235.059        1.113        0.429      115.532       28.631        0.061      332.121        0.576      861.353
12/22/2021  02:51:00      125.935     -184.519      -57.414       84.861      134.259       37.788     7201.362    18025.361     1427.969        3.992        1.333      223.399       59.601        0.071      332.122        0.578      861.381
12/22/2021  02:52:00      125.156     -186.830      -78.687      125.289      126.668       74.674    15697.424    16044.830     5576.215        4.703        1.866      224.876       68.020        0.091      332.372        0.991      861.308
12/22/2021  02:53:00       90.377     -221.052      -67.404       85.131       96.285       46.933     7247.345     9270.870     2202.744        4.014        0.936      238.814       33.888        0.020      332.505        1.209      861.300
12/22/2021  02:54:00      133.036     -184.098      -60.638       97.666       65.928       50.238     9538.662     4346.532     2523.888        3.584        0.820      227.136       47.488        0.044      332.020        0.408      861.304
12/22/2021  02:55:00       57.761     -210.604      -40.109       74.649       74.388       62.656     5572.422     5533.548     3925.812        3.216        0.752      218.382       36.927        0.029      331.973        0.331      861.351
12/22/2021  02:56:00      -24.933     -156.698      -37.279      105.481      107.619       45.638    11126.256    11581.848     2082.842        2.567        1.240      158.669       33.275        0.044      332.180        0.673      861.458
12/22/2021  02:57:00      -36.203     -130.997      -51.959      107.559       90.546       62.574    11568.891     8198.558     3915.512        2.242        1.184      135.908       39.668        0.085      332.037        0.439      861.609
12/22/2021  02:58:00       35.948      -96.630      -50.710      159.661      134.565       67.352    25491.641    18107.727     4536.345        3.066        2.407      103.100       63.544        0.380      331.760       -0.018      861.520
12/22/2021  02:59:00      154.026     -143.569      -52.908       89.592      109.917       63.405     8026.661    12081.709     4020.249        3.563        1.206      210.561       47.646        0.051      331.593       -0.296      861.217
12/22/2021  03:00:00       59.875      -53.849      -19.069       69.390       67.037       42.591     4814.913     4493.997     1813.999        0.898        0.556       80.528       38.231        0.225      331.612       -0.261      861.143
12/22/2021  03:01:00       23.816      -23.933      -11.098       34.905       30.311       30.756     1218.358      918.728      945.951        0.217        0.154       33.764       16.244        0.231      331.595       -0.288      861.221
12/22/2021  03:02:00      -34.468       10.024      -10.647       60.721       40.328       27.043     3686.997     1626.341      731.327        0.372        0.302       35.896       21.945        0.374      331.756       -0.023      861.366
12/22/2021  03:03:00       85.249       17.834      -15.577       79.549       46.477       30.759     6328.052     2160.138      946.131        0.863        0.472       87.094       37.825        0.189      331.645       -0.206      861.311
12/22/2021  03:04:00      183.332       14.138      -17.813      154.444       62.796       62.788    23852.868     3943.335     3942.274        3.293        1.587      183.876       57.066        0.096      331.499       -0.449      860.948
12/22/2021  03:05:00      300.083       45.447      -14.813      121.002       70.090       58.481    14641.399     4912.609     3420.071        5.765        1.149      303.505       61.037        0.040      331.227       -0.895      860.661
12/22/2021  03:06:00       91.686        0.476      -11.545       99.736       63.140       31.910     9947.278     3986.672     1018.219        1.174        0.748       91.688       42.890        0.219      331.254       -0.850      860.963
12/22/2021  03:07:00       21.338      -23.586      -12.085       31.427       40.408       23.718      987.664     1632.773      562.537        0.217        0.159       31.806       20.103        0.400      331.446       -0.534      861.333
12/22/2021  03:08:00      165.812        1.466      -20.824      108.314       59.001       49.279    11731.925     3481.090     2428.460        2.278        0.882      165.819       51.869        0.098      331.368       -0.663      861.141
12/22/2021  03:09:00      206.434       61.680      -14.305       77.762       56.860       35.389     6046.906     3233.116     1252.353        2.858        0.527      215.452       27.766        0.017      331.150       -1.024      860.920
12/22/2021  03:10:00      104.636       -0.939       -8.996       51.051       33.023       27.687     2606.243     1090.547      766.554        0.775        0.223      104.640       15.964        0.023      331.148       -1.020      861.137
12/22/2021  03:11:00       87.219       -9.188      -41.965       64.464       46.494       34.921     4155.558     2161.737     1219.487        0.849        0.377       87.701       34.761        0.157      331.205       -0.929      861.204
12/22/2021  03:12:00       94.480       -1.499      -33.857       85.479       97.677       76.149     7306.650     9540.842     5798.652        1.636        1.132       94.492       54.892        0.337      331.124       -1.065      861.072
12/22/2021  03:13:00      158.631      -15.044       -9.758      159.470       94.084       76.592    25430.799     8851.709     5866.270        3.281        2.007      159.343       62.518        0.154      331.070       -1.154      860.954
12/22/2021  03:14:00      169.268      -40.472      -17.057      123.404       69.127       73.737    15228.522     4778.570     5437.137        2.801        1.272      174.039       69.918        0.161      331.016       -1.243      860.970
12/22/2021  03:15:00      154.479      -60.913      -14.503       72.705       51.822       43.891     5286.022     2685.485     1926.451        1.884        0.495      166.054       38.247        0.053      331.038       -1.208      861.267
12/22/2021  03:16:00      172.054       -4.933      -10.376      111.040       74.337       51.464    12329.980     5525.984     2648.536        2.512        1.025      172.125       48.565        0.080      331.009       -1.255      861.202
12/22/2021  03:17:00      235.243       20.648      -21.758      125.027       70.710       40.756    15631.715     4999.836     1661.088        3.926        1.115      236.147       47.618        0.041      330.909       -1.419      861.004
12/22/2021  03:18:00       48.307        8.972       -9.810       54.313       48.575       34.543     2949.952     2359.531     1193.225        0.451        0.325       49.133        7.459        0.023      330.957       -1.339      861.208
12/22/2021  03:19:00      219.349       27.479      -21.904      175.035       79.690       53.661    30637.207     6350.448     2879.452        4.460        1.993      221.063       43.454        0.039      330.978       -1.306      861.093
12/22/2021  03:20:00      289.012       24.343      -18.942      146.970       93.376       73.067    21600.299     8719.037     5338.757        6.006        1.783      290.035       71.334        0.060      330.841       -1.531      860.573
12/22/2021  03:21:00      142.248       38.670      -26.647      103.726       77.536       47.038    10759.095     6011.757     2212.552        2.071        0.949      147.411       21.548        0.021      330.794       -1.606      860.674
12/22/2021  03:22:00      -29.739       14.744        7.679       26.041       51.528       25.884      678.143     2655.185      669.997        0.258        0.200       33.194       15.056        0.206      331.071       -1.150      861.065
12/22/2021  03:23:00       71.357       44.253      -16.456       45.609       27.780       19.643     2080.219      771.702      385.844        0.528        0.162       83.965       19.146        0.052      330.946       -1.355      861.193
12/22/2021  03:24:00      120.326       -8.762      -17.319       89.526       40.998       51.558     8014.857     1680.838     2658.207        1.360        0.618      120.644       47.401        0.154      330.904       -1.425      861.051
12/22/2021  03:25:00      111.434      -23.281       -3.546      126.310       80.048       85.958    15954.140     6407.688     7388.737        2.136        1.488      113.840       80.622        0.502      330.896       -1.439      860.683
12/22/2021  03:26:00      298.908       40.285      -13.223      115.726       88.577       61.468    13392.573     7845.948     3778.345        5.808        1.251      301.611       34.017        0.013      330.775       -1.638      860.337
12/22/2021  03:27:00       58.922      -28.162      -19.571      124.856       79.240       39.218    15589.026     6279.015     1538.033        1.402        1.170       65.306       27.659        0.179      330.864       -1.490      860.573
12/22/2021  03:28:00     -149.759       -8.518      -10.368      153.105       95.510       72.529    23441.129     9122.132     5260.425        3.021        1.891      150.001       48.975        0.107      331.069       -1.156      861.062
12/22/2021  03:29:00     -212.475      -23.740      -11.549      176.334       73.515       61.007    31093.847     5404.466     3721.856        4.302        2.011      213.797       73.131        0.117      331.088       -1.124      861.227
12/22/2021  03:30:00       68.215       47.068      -28.361       51.737       38.329       33.801     2676.695     1469.137     1142.514        0.648        0.264       82.877       27.598        0.111      331.137       -1.040      860.909
12/22/2021  03:31:00      218.632       46.186      -23.121       51.313       44.126       26.566     2633.074     1947.145      705.757        2.788        0.264      223.457       25.276        0.013      331.109       -1.092      860.524
12/22/2021  03:32:00      -17.673      -19.993       -5.369       56.481       61.794       39.816     3190.047     3818.487     1585.336        0.467        0.430       26.685       31.117        1.360      331.282       -0.804      860.746
12/22/2021  03:33:00       -8.691       -0.425       -1.060       69.749       71.563       50.276     4864.962     5121.214     2527.711        0.629        0.626        8.701       41.589       22.844      331.332       -0.722      861.024
12/22/2021  03:34:00     -166.438       66.422      -12.563       51.212       43.380       33.579     2622.662     1881.837     1127.535        1.895        0.282      179.202       24.892        0.019      331.224       -0.898      860.919
12/22/2021  03:35:00      -86.232       37.980       -9.243       46.393       56.764       21.775     2152.286     3222.192      474.139        0.741        0.292       94.225       24.141        0.066      331.264       -0.830      860.778
12/22/2021  03:36:00      -41.628        0.264      -14.614       37.589       35.408       23.393     1412.959     1253.707      547.246        0.258        0.161       41.629       14.653        0.124      331.400       -0.609      860.829
12/22/2021  03:37:00     -158.259      -10.377       -4.819       56.264       39.699       36.785     3165.600     1575.990     1353.131        1.563        0.305      158.599       32.049        0.041      331.448       -0.531      860.986
12/22/2021  03:38:00     -124.283       -9.893       -6.282       66.637       49.383       30.530     4440.538     2438.661      932.108        1.170        0.391      124.676       27.800        0.050      331.437       -0.552      860.929
12/22/2021  03:39:00     -155.218       18.346      -21.167       51.709       39.577       35.132     2673.858     1566.355     1234.225        1.517        0.274      156.299       25.861        0.027      331.454       -0.522      860.823
12/22/2021  03:40:00      -70.429      -15.527      -23.193       64.259       66.642       38.777     4129.191     4441.150     1503.678        0.790        0.504       72.120       13.604        0.036      331.472       -0.490      860.908
12/22/2021  03:41:00      -84.404        8.705       -7.431       69.589       54.308       30.935     4842.663     2949.361      956.946        0.800        0.437       84.852       26.792        0.100      331.373       -0.655      861.021
12/22/2021  03:42:00      -57.431       54.912       -9.866       25.730       49.252       25.429      662.018     2425.757      646.652        0.507        0.187       79.458       17.374        0.048      331.320       -0.741      860.979
12/22/2021  03:43:00     -114.818      116.857      -24.539       45.966       37.476       24.729     2112.829     1404.450      611.534        1.578        0.206      163.825       26.352        0.026      331.368       -0.662      860.868
12/22/2021  03:44:00      -81.974       31.661      -17.649      123.178       79.685       60.863    15172.867     6349.712     3704.306        1.663        1.261       87.876       52.640        0.359      331.453       -0.525      860.917
12/22/2021  03:45:00     -187.690       32.339       -7.960      148.282       66.206       59.592    21987.440     4383.285     3551.180        3.312        1.496      190.456       65.810        0.119      331.444       -0.540      861.032
12/22/2021  03:46:00     -142.855       34.794       -9.344      101.876       61.229       48.423    10378.773     3749.010     2344.767        1.909        0.824      147.031       44.779        0.093      331.462       -0.510      861.076
12/22/2021  03:47:00     -181.492       53.979        1.129       91.035       69.719       38.801     8287.381     4860.757     1505.553        2.525        0.733      189.349       38.802        0.042      331.542       -0.380      861.053
12/22/2021  03:48:00     -149.996       62.814      -24.008       52.044       38.358       34.307     2708.531     1471.366     1176.996        1.619        0.268      162.617       27.262        0.028      331.582       -0.311      860.973
12/22/2021  03:49:00     -151.006       26.666      -21.385       61.984       51.652       36.890     3841.970     2667.922     1360.850        1.592        0.394      153.342       34.330        0.050      331.650       -0.200      860.894
12/22/2021  03:50:00     -105.652       10.930      -25.359       54.214       53.796       35.489     2939.174     2893.972     1259.482        0.951        0.355      106.216       29.505        0.077      331.723       -0.077      860.897
12/22/2021  03:51:00     -196.742       82.761      -52.318       82.362       54.088       40.402     6783.519     2925.458     1632.291        2.982        0.567      213.441       29.802        0.019      331.845        0.119      860.875
12/22/2021  03:52:00      -65.130      114.211      -17.693       56.581       53.935       34.931     3201.384     2908.980     1220.181        1.246        0.367      131.477       26.619        0.041      331.946        0.291      860.725
12/22/2021  03:53:00       -8.381       64.599      -11.938       60.010       58.246       36.197     3601.208     3392.563     1310.205        0.634        0.415       65.140       29.867        0.210      332.153        0.630      860.713
12/22/2021  03:54:00      -85.223      -98.107      -39.913       44.725       44.625       35.215     2000.350     1991.429     1240.083        1.186        0.262      129.954       28.339        0.048      332.023        0.417      860.843
12/22/2021  03:55:00       70.963     -146.743      -47.871       68.749       65.231       40.294     4726.493     4255.143     1623.628        1.973        0.530      163.001       32.923        0.041      332.329        0.920      860.875
12/22/2021  03:56:00       26.163      -63.548      -23.861       74.917       61.737       36.163     5612.491     3811.511     1307.750        0.801        0.537       68.723       25.897        0.142      332.273        0.828      860.758
12/22/2021  03:57:00      -62.371      -47.250      -15.632       42.021       40.557       21.395     1765.804     1644.882      457.730        0.512        0.193       78.248       20.115        0.066      332.458        1.133      860.701
12/22/2021  03:58:00      -63.515        9.489       -8.954       62.211       39.182       36.906     3870.225     1535.221     1362.084        0.548        0.338       64.220       36.429        0.322      332.487        1.182      860.750
12/22/2021  03:59:00     -202.330       -9.899      -17.360      105.114       66.748       45.748    11049.023     4455.290     2092.888        2.946        0.880      202.572       39.015        0.037      332.326        0.912      860.783
12/22/2021  04:00:00     -128.844      -80.967      -19.240       70.241       71.283       38.810     4933.745     5081.311     1506.250        1.752        0.576      152.173       27.607        0.033      332.205        0.714      860.725
12/22/2021  04:01:00      -63.457      -51.669      -12.593       57.133      101.584       34.682     3264.216    10319.217     1202.829        1.082        0.739       81.832       37.714        0.212      332.162        0.645      860.596
12/22/2021  04:02:00      -75.820        0.117      -10.042       55.480       46.262       28.961     3078.001     2140.136      838.737        0.595        0.303       75.820       22.958        0.092      332.218        0.735      860.517
12/22/2021  04:03:00     -151.068      -27.849      -19.077       73.018       31.536       35.752     5331.583      994.488     1278.238        1.578        0.380      153.613       34.155        0.049      332.180        0.673      860.601
12/22/2021  04:04:00     -130.495      -54.805      -18.965       78.072       71.453       39.995     6095.166     5105.580     1599.634        1.659        0.640      141.537       27.077        0.037      332.204        0.713      860.674
12/22/2021  04:05:00      -32.931       12.047       -5.980       44.652       50.953       27.039     1993.826     2596.230      731.117        0.329        0.266       35.065       22.539        0.413      332.249        0.790      860.529
12/22/2021  04:06:00      -80.448       21.243      -13.651       26.137       21.617       16.958      683.167      467.294      287.584        0.427        0.072       83.206       11.122        0.018      332.223        0.745      860.387
12/22/2021  04:07:00      -45.244      -26.053      -12.874       76.843       44.563       31.959     5904.901     1985.887     1021.387        0.590        0.446       52.209       39.346        0.568      332.225        0.747      860.550
12/22/2021  04:08:00     -139.233      -89.763      -16.184       77.559       71.582       35.194     6015.329     5124.015     1238.644        2.004        0.619      165.660       25.370        0.023      332.230        0.755      860.741
12/22/2021  04:09:00       16.462      -32.528       -8.449       65.207       82.765       38.567     4251.914     6850.104     1487.419        0.699        0.629       36.456       14.890        0.167      332.210        0.724      860.569
12/22/2021  04:10:00       85.234       11.067      -17.384       75.092       77.182       45.843     5638.857     5957.020     2101.624        1.069        0.685       85.950       36.922        0.185      332.039        0.441      860.275
12/22/2021  04:11:00      225.330       45.164      -17.944       76.387       70.457       44.058     5835.011     4964.246     1941.086        3.294        0.637      229.812       31.192        0.018      331.953        0.298      860.261
12/22/2021  04:12:00      196.506       28.396      -12.519       77.843       52.045       41.000     6059.545     2708.635     1681.002        2.501        0.522      198.547       32.779        0.027      331.709       -0.103      860.492
12/22/2021  04:13:00       88.373      -44.481      -33.937       50.835       55.977       41.174     2584.189     3133.431     1695.258        0.918        0.371       98.936       20.941        0.045      331.751       -0.032      860.715
12/22/2021  04:14:00      122.565     -101.053      -50.528       51.521       75.887       36.350     2654.416     5758.773     1321.306        1.876        0.487      158.852       18.325        0.013      331.844        0.122      860.639
12/22/2021  04:15:00      115.441     -143.918      -38.891       30.861       65.553       24.832      952.390     4297.225      616.652        2.071        0.293      184.496       23.726        0.017      331.887        0.190      860.443
12/22/2021  04:16:00      104.192      -11.711      -21.707       79.810       44.842       41.019     6369.607     2010.845     1682.578        1.076        0.503      104.849       21.554        0.042      331.827        0.093      860.383
12/22/2021  04:17:00      164.454      -21.230       -7.101       81.542       57.725       47.968     6649.116     3332.215     2300.960        1.991        0.614      165.818       42.026        0.064      331.605       -0.273      860.353
12/22/2021  04:18:00      120.191      -12.210      -11.454       73.356       51.953       36.386     5381.088     2699.063     1323.955        1.206        0.470      120.810       32.049        0.070      331.541       -0.380      860.377
12/22/2021  04:19:00       42.873      -66.646      -20.238       38.112       41.519       25.650     1452.503     1723.818      657.915        0.526        0.192       79.245       23.211        0.086      331.598       -0.283      860.462
12/22/2021  04:20:00       35.961      -73.092      -15.997       39.035       33.958       24.754     1523.753     1153.148      612.749        0.509        0.164       81.460       22.700        0.078      331.804        0.056      860.429
12/22/2021  04:21:00      111.264       -7.547      -21.404       52.139       38.705       27.469     2718.490     1498.058      754.564        0.893        0.249      111.519       16.481        0.022      331.646       -0.205      860.382
12/22/2021  04:22:00       88.972      -16.965      -18.216       57.614       55.419       48.825     3319.346     3071.248     2383.862        0.865        0.439       90.575       38.540        0.181      331.718       -0.086      860.303
12/22/2021  04:23:00       66.609      -17.914      -17.539       96.834       63.146       61.514     9376.857     3987.395     3783.996        1.110        0.857       68.976       58.773        0.726      331.594       -0.290      860.195
12/22/2021  04:24:00      168.858       14.002      -13.945       55.908       51.771       37.459     3125.729     2680.283     1403.144        1.805        0.360      169.437       18.437        0.012      331.502       -0.444      860.123
12/22/2021  04:25:00       63.001      -21.402      -18.227       81.638       43.235       20.658     6664.837     1869.291      426.754        0.686        0.448       66.537       18.839        0.080      331.606       -0.273      860.288
12/22/2021  04:26:00      -23.981        3.177        5.940       50.302       40.810       33.345     2530.298     1665.455     1111.898        0.296        0.265       24.190       21.273        0.773      331.762       -0.013      860.557
12/22/2021  04:27:00      -28.973       72.197       -2.274       41.877       53.408       26.642     1753.719     2852.364      709.775        0.569        0.266       77.794       22.303        0.082      331.796        0.044      860.484
12/22/2021  04:28:00      119.955      116.518      -15.936       71.338       44.664       34.943     5089.160     1994.838     1221.047        1.826        0.415      167.229       24.931        0.022      331.763       -0.013      860.165
12/22/2021  04:29:00       70.466       -7.166      -10.932       72.070       59.850       39.931     5194.125     3582.009     1594.450        0.775        0.519       70.830       28.473        0.162      331.714       -0.092      860.097
12/22/2021  04:30:00       60.703      -73.361      -40.701       28.451       35.576       23.934      809.451     1265.619      572.829        0.669        0.132       95.219       16.335        0.029      331.676       -0.155      860.310
12/22/2021  04:31:00        3.941      -26.175       -1.671       17.673       17.341       17.549      312.347      300.725      307.981        0.081        0.046       26.470       12.750        0.232      331.730       -0.065      860.414
12/22/2021  04:32:00      -24.714      -15.860        1.242       37.193       22.373       21.102     1383.297      500.559      445.280        0.160        0.116       29.365       22.932        0.610      331.868        0.160      860.460
12/22/2021  04:33:00      -29.041       19.915       -8.962       34.594       26.563       19.557     1196.731      705.602      382.459        0.180        0.114       35.213       16.164        0.211      331.889        0.197      860.440
12/22/2021  04:34:00      -18.668      116.844      -11.028       24.241       37.073       16.151      587.623     1374.391      260.868        0.817        0.111      118.325       18.821        0.025      331.787        0.026      860.234
12/22/2021  04:35:00      -25.469      103.497      -17.722       15.383       31.671       19.435      236.636     1003.058      377.722        0.665        0.081      106.585       12.302        0.013      331.783        0.022      860.075
12/22/2021  04:36:00        6.407       12.955        2.165       27.191       32.866       31.905      739.342     1080.206     1017.949        0.153        0.142       14.453       19.249        1.774      331.818        0.080      860.246
12/22/2021  04:37:00      -25.362        4.083       -0.890       76.366       44.921       31.904     5831.739     2017.897     1017.863        0.476        0.443       25.689       29.139        1.287      331.886        0.190      860.424
12/22/2021  04:38:00      -54.513       27.217        3.876       51.129       37.047       25.238     2614.212     1372.457      636.947        0.417        0.231       60.930       14.871        0.060      331.903        0.220      860.279
12/22/2021  04:39:00      -40.477       26.674      -19.948       49.073       16.669       13.476     2408.134      277.844      181.612        0.281        0.143       48.476       17.211        0.126      331.909        0.228      860.131
12/22/2021  04:40:00     -153.405       56.064      -19.484       30.655       26.801       21.288      939.754      718.269      453.187        1.458        0.106      163.329       20.370        0.016      331.933        0.268      860.232
12/22/2021  04:41:00     -154.834       98.427      -25.662       36.913       47.555       24.542     1362.578     2261.509      602.309        1.927        0.211      183.470       18.006        0.010      331.845        0.124      860.258
12/22/2021  04:42:00     -132.511      148.199      -23.042       38.426       40.122       22.763     1476.537     1609.768      518.176        2.183        0.180      198.801       17.138        0.007      331.894        0.203      860.161
12/22/2021  04:43:00     -108.113       68.114      -20.464       49.693       46.660       28.658     2469.417     2177.121      821.274        1.111        0.273      127.781       20.247        0.025      331.992        0.365      860.113
12/22/2021  04:44:00      -79.647       57.539      -23.303       58.544       48.423       27.227     3427.378     2344.774      741.333        0.835        0.326       98.257       27.459        0.078      331.875        0.171      860.115
12/22/2021  04:45:00      -52.478       70.238       -8.012       27.341       24.912       20.662      747.543      620.602      426.924        0.477        0.090       87.677        9.366        0.011      332.012        0.398      859.999
12/22/2021  04:46:00     -120.593       80.426      -39.047       45.936       36.154       32.547     2110.124     1307.111     1059.319        1.351        0.224      144.952       24.377        0.028      332.011        0.396      859.887
12/22/2021  04:47:00     -153.746       43.937      -25.755      104.035       49.836       40.304    10823.325     2483.663     1624.418        2.058        0.747      159.901       32.486        0.041      331.879        0.177      859.936
12/22/2021  04:48:00     -151.084       67.365      -17.741       56.712       45.450       29.024     3216.273     2065.686      842.420        1.690        0.306      165.422       23.788        0.021      331.905        0.222      859.998
12/22/2021  04:49:00     -150.939       50.156      -37.642       43.827       41.668       37.659     1920.837     1736.224     1418.233        1.589        0.254      159.054       21.688        0.019      331.922        0.250      859.995
12/22/2021  04:50:00      -72.425       66.778      -23.378       62.456       45.056       32.688     3900.704     2030.083     1068.476        0.862        0.350       98.512       21.116        0.046      331.874        0.171      859.838
12/22/2021  04:51:00      -19.066       75.823      -12.404       37.761       55.226       31.287     1425.887     3049.925      978.877        0.586        0.273       78.183       19.126        0.060      331.930        0.263      859.664
12/22/2021  04:52:00       19.188       -5.438        4.137       24.702       25.362       20.473      610.202      643.245      419.159        0.104        0.084       19.944        6.454        0.105      331.991        0.363      859.760
12/22/2021  04:53:00     -107.244       22.710      -10.903      101.897       59.816       35.362    10383.072     3577.898     1250.495        1.367        0.761      109.622       32.793        0.089      331.931        0.264      859.921
12/22/2021  04:54:00     -155.667       81.847      -12.791       49.133       40.639       31.893     2414.047     1651.553     1017.179        1.809        0.254      175.873       29.605        0.028      331.895        0.206      859.841
12/22/2021  04:55:00     -114.014      124.966      -21.345       38.773       36.737       19.323     1503.331     1349.584      373.395        1.615        0.161      169.162       16.894        0.010      331.907        0.226      859.618
12/22/2021  04:56:00     -106.604       73.329      -30.230       44.693       36.596       26.240     1997.498     1339.272      688.542        1.084        0.201      129.389       24.350        0.035      332.013        0.401      859.542
12/22/2021  04:57:00      -41.722      -21.384      -14.178       76.252       70.908       45.445     5814.433     5028.002     2065.235        0.765        0.645       46.883       35.509        0.574      331.988        0.358      859.676
12/22/2021  04:58:00     -172.771       14.391       -0.879       77.921       47.868       36.782     6071.695     2291.351     1352.884        1.988        0.486      173.369       40.507        0.055      331.924        0.251      859.780
12/22/2021  04:59:00      -86.699       59.636      -14.082       49.538       48.342       31.867     2453.971     2336.923     1015.496        0.854        0.290      105.229       13.382        0.016      331.890        0.199      859.726
12/22/2021  05:00:00     -109.980       91.434      -26.065       35.102       32.154       21.821     1232.174     1033.893      476.155        1.194        0.137      143.024        9.885        0.005      332.043        0.450      859.631
12/22/2021  05:01:00     -110.832       49.130      -19.441       51.597       27.675       32.434     2662.278      765.895     1051.950        0.978        0.224      121.233       24.342        0.040      332.039        0.442      859.590
12/22/2021  05:02:00      -33.644       11.320      -10.880       91.340       47.205       52.111     8342.940     2228.276     2715.580        0.733        0.664       35.497       60.680        2.922      332.036        0.436      859.670
12/22/2021  05:03:00      -93.360       42.431      -19.957       66.308       45.721       31.860     4396.795     2090.422     1015.030        0.921        0.375      102.550       18.576        0.033      332.017        0.406      859.748
12/22/2021  05:04:00      -78.326       56.475      -12.731       47.510       26.714       18.429     2257.246      713.627      339.645        0.640        0.166       96.563       16.237        0.028      332.029        0.426      859.710
12/22/2021  05:05:00      -88.131       73.000      -11.985       29.006       27.605       18.380      841.342      762.008      337.808        0.759        0.097      114.438        9.481        0.007      332.119        0.573      859.674
12/22/2021  05:06:00      -86.107       15.661      -19.000       29.142       23.481       18.812      849.261      551.346      353.880        0.489        0.088       87.519       11.678        0.018      332.110        0.558      859.720
12/22/2021  05:07:00      -11.898      -20.067       -5.477       44.546       27.647       20.956     1984.309      764.361      439.144        0.188        0.159       23.329        9.457        0.164      332.193        0.695      859.805
12/22/2021  05:08:00       25.320      -60.304      -30.339       20.857       32.107       19.103      435.035     1030.840      364.941        0.351        0.092       65.404       10.586        0.026      332.293        0.860      859.869
12/22/2021  05:09:00       62.553      -58.438      -38.285       23.537       30.431       19.639      553.971      926.049      385.699        0.533        0.093       85.604        8.927        0.011      332.388        1.016      859.843
12/22/2021  05:10:00       16.888      -17.733      -16.436       21.983       36.543       17.620      483.231     1335.408      310.476        0.150        0.106       24.488       11.273        0.212      332.450        1.121      859.732
12/22/2021  05:11:00       33.592        3.247      -14.067       28.984       40.092       33.780      840.086     1607.338     1141.064        0.246        0.179       33.748       16.514        0.239      332.441        1.106      859.671
12/22/2021  05:12:00        7.961      -68.349       -4.486       44.134       52.227       27.823     1947.766     2727.654      774.138        0.510        0.272       68.811       27.688        0.162      332.227        0.752      859.848
12/22/2021  05:13:00      -79.933      -30.517      -18.801       75.351       40.806       38.916     5677.763     1665.135     1514.449        0.826        0.443       85.561       30.668        0.128      332.411        1.057      860.063
12/22/2021  05:14:00       -9.519       -9.646      -14.954       56.314       35.314       33.029     3171.220     1247.055     1090.946        0.296        0.275       13.552       18.257        1.815      332.420        1.072      860.082
12/22/2021  05:15:00      121.123      -96.013      -74.740       54.174       86.125       39.066     2934.852     7417.548     1526.182        2.067        0.594      154.561       18.932        0.015      332.156        0.634      859.920
12/22/2021  05:16:00      114.497       -0.526      -24.276       73.755       67.509       51.179     5439.831     4557.473     2619.294        1.316        0.631      114.498       35.867        0.098      332.178        0.670      859.764
12/22/2021  05:17:00       33.814      -27.869       -8.759       57.029       24.671       33.018     3252.300      608.642     1090.162        0.347        0.248       43.818       12.443        0.081      332.160        0.642      859.725
12/22/2021  05:18:00        8.894      -11.900        6.291       51.419       56.821       37.594     2643.945     3228.620     1413.281        0.377        0.364       14.856       27.007        3.305      332.291        0.856      859.849
12/22/2021  05:19:00      -86.192      -17.219        7.681      104.137       47.518       42.696    10844.597     2257.955     1822.920        1.135        0.746       87.895       46.255        0.277      332.322        0.907      859.998
12/22/2021  05:20:00      -47.879       28.633       -0.946       48.532       28.804       23.620     2355.400      829.684      557.918        0.343        0.187       55.787       21.975        0.155      332.351        0.957      859.946
12/22/2021  05:21:00       19.368        8.698      -14.412       31.880       57.583       30.072     1016.346     3315.772      904.347        0.295        0.262       21.231       20.088        0.895      332.451        1.121      859.788
12/22/2021  05:22:00       22.304      -51.292      -25.588       23.460       40.505       33.535      550.378     1640.620     1124.566        0.355        0.166       55.931       15.533        0.077      332.481        1.173      859.686
12/22/2021  05:23:00        9.483       10.383      -11.692       26.524       17.413       15.662      703.541      303.216      245.286        0.079        0.063       14.062       12.285        0.763      332.378        1.003      859.730
12/22/2021  05:24:00      -77.001       50.742      -17.268       50.669       22.860       20.003     2567.305      522.563      400.105        0.615        0.174       92.216       16.938        0.034      332.331        0.923      859.812
12/22/2021  05:25:00     -150.773       35.650      -14.499       68.682       43.625       32.414     4717.249     1903.099     1050.686        1.594        0.384      154.931       22.030        0.020      332.348        0.949      859.848
12/22/2021  05:26:00     -201.712      101.234      -22.353       64.134       55.993       49.968     4113.215     3135.191     2496.753        3.059        0.487      225.690       34.162        0.023      332.292        0.855      859.844
12/22/2021  05:27:00     -137.347       68.506      -24.422       54.049       39.952       45.180     2921.275     1596.127     2041.190        1.535        0.328      153.484       32.077        0.044      332.115        0.565      859.840
12/22/2021  05:28:00      -51.535        1.631       -8.356       34.722       40.838       24.807     1205.648     1667.773      615.368        0.311        0.174       51.561       15.456        0.090      332.201        0.708      859.840
12/22/2021  05:29:00      -39.413        2.245       -3.553       29.361       25.562       17.003      862.043      653.438      289.116        0.169        0.090       39.477       17.757        0.202      332.226        0.750      859.801
12/22/2021  05:30:00      -66.178       91.186      -13.133       19.929       28.511       12.491      397.162      812.902      156.019        0.712        0.068      112.669        9.199        0.007      332.188        0.687      859.698
12/22/2021  05:31:00     -122.416       93.613      -18.532       41.081       34.398       22.011     1687.664     1183.239      484.466        1.372        0.168      154.107       16.086        0.011      332.161        0.642      859.631
12/22/2021  05:32:00     -189.466       27.712      -29.694       62.579       54.089       32.451     3916.070     2925.657     1053.076        2.272        0.395      191.482       16.718        0.008      332.205        0.713      859.669
12/22/2021  05:33:00     -195.581       80.461      -37.791       61.892       49.038       39.682     3830.606     2404.723     1574.659        2.698        0.390      211.485       26.198        0.015      332.149        0.620      859.659
12/22/2021  05:34:00      -87.880       38.873      -29.306       73.121       58.278       36.374     5346.619     3396.331     1323.032        1.008        0.503       96.094       27.891        0.084      332.099        0.540      859.582
12/22/2021  05:35:00      -76.854       41.497      -29.748       57.971       67.438       38.797     3360.637     4547.891     1505.170        0.896        0.471       87.341       38.912        0.198      332.140        0.609      859.530
12/22/2021  05:36:00      -19.757      -57.105       -9.601       42.997       31.638       28.222     1848.728     1000.986      796.500        0.369        0.182       60.426       24.990        0.171      332.205        0.718      859.618
12/22/2021  05:37:00      -25.077       41.841      -10.933       22.189       37.886       21.601      492.332     1435.321      466.605        0.245        0.120       48.781       12.472        0.065      332.220        0.741      859.686
12/22/2021  05:38:00        4.462       66.329      -20.088       34.026       30.432       27.778     1157.793      926.081      771.592        0.384        0.143       66.478       12.200        0.034      332.279        0.837      859.616
12/22/2021  05:39:00      -30.173       31.689       -8.952       34.664       59.741       28.261     1201.565     3568.960      798.689        0.378        0.278       43.756       24.977        0.326      332.358        0.969      859.520
12/22/2021  05:40:00      -68.372        5.787      -20.677       26.537       40.916       22.094      704.233     1674.103      488.163        0.400        0.143       68.617       12.832        0.035      332.362        0.976      859.468
12/22/2021  05:41:00     -130.647       54.022      -10.426       31.805       25.862       20.132     1011.555      668.862      405.307        1.109        0.104      141.375       13.857        0.010      332.332        0.925      859.431
12/22/2021  05:42:00      -97.402       20.064       -7.484       57.493       39.681       31.241     3305.446     1574.593      975.986        0.790        0.293       99.447       29.931        0.091      332.367        0.982      859.411
12/22/2021  05:43:00      -78.542       -7.773       -7.019       95.824       48.454       36.104     9182.306     2347.833     1303.497        0.955        0.642       78.926       23.830        0.091      332.379        1.002      859.409
12/22/2021  05:44:00      -80.273        7.820       -4.595       73.123       39.113       36.501     5346.947     1529.824     1332.343        0.737        0.410       80.653       42.117        0.273      332.381        1.007      859.458
12/22/2021  05:45:00      -41.599       35.707       -9.521       34.672       18.988       19.028     1202.168      360.536      362.065        0.251        0.096       54.822       18.885        0.119      332.376        0.997      859.444
12/22/2021  05:46:00      -51.136       21.042       -4.941       32.975       23.436       15.371     1087.345      549.240      236.270        0.248        0.094       55.296       15.260        0.076      332.429        1.087      859.369
12/22/2021  05:47:00      -51.994        7.526       -4.351       49.897       35.693       31.796     2489.759     1274.001     1011.016        0.378        0.239       52.536       19.626        0.140      332.555        1.295      859.462
12/22/2021  05:48:00     -177.913      -18.926      -15.626       77.266       68.780       44.273     5970.004     4730.707     1960.095        2.246        0.633      178.917       27.039        0.023      332.536        1.259      859.584
12/22/2021  05:49:00     -159.583       -7.754      -13.151       46.128       46.196       28.324     2127.832     2134.060      802.260        1.538        0.253      159.772       20.313        0.016      332.446        1.115      859.600
12/22/2021  05:50:00      -69.580       27.159      -10.089       43.249       32.801       21.011     1870.435     1075.903      441.450        0.453        0.169       74.692       19.866        0.071      332.442        1.109      859.579
12/22/2021  05:51:00     -117.522       71.083      -11.303       59.084       39.346       26.115     3490.923     1548.109      681.991        1.236        0.286      137.347       23.486        0.029      332.454        1.124      859.651
12/22/2021  05:52:00      -94.815        8.549       -4.390       74.413       40.885       26.472     5537.261     1671.597      700.773        0.849        0.395       95.199       26.420        0.077      332.497        1.197      859.710
12/22/2021  05:53:00      -47.358       41.905       -7.863       47.549       33.926       25.865     2260.875     1150.941      668.996        0.407        0.204       63.236       16.206        0.066      332.493        1.192      859.690
12/22/2021  05:54:00      -87.497       32.496       -3.848       45.645       22.940       20.866     2083.423      526.233      435.399        0.589        0.152       93.337       19.261        0.043      332.518        1.232      859.633
12/22/2021  05:55:00      -37.375       38.052       -4.583       21.132       22.069       21.729      446.541      487.061      472.139        0.214        0.070       53.337        8.973        0.028      332.518        1.232      859.543
12/22/2021  05:56:00     -127.254       42.077      -10.431       60.240       32.758       24.815     3628.838     1073.114      615.770        1.169        0.266      134.030       13.139        0.010      332.538        1.265      859.491
12/22/2021  05:57:00     -149.471        8.802        5.813       92.026       47.744       42.226     8468.706     2279.520     1782.994        1.749        0.627      149.730       40.866        0.074      332.578        1.330      859.635
12/22/2021  05:58:00      -71.986       57.820       -4.886       53.236       54.556       22.601     2834.113     2976.390      510.799        0.743        0.316       92.332       11.572        0.016      332.605        1.375      859.644
12/22/2021  05:59:00      -81.295       84.528      -11.309       47.484       29.216       19.123     2254.688      853.550      365.696        0.868        0.174      117.277       19.229        0.027      332.558        1.299      859.464
12/22/2021  06:00:00     -127.149       21.626      -13.911       99.632       55.154       38.763     9926.464     3041.970     1502.576        1.565        0.724      128.975       48.850        0.143      332.531        1.253      859.531
12/22/2021  06:01:00     -161.042       35.966      -16.684       83.281       45.114       39.953     6935.764     2035.230     1596.273        1.903        0.528      165.009       29.878        0.033      332.565        1.307      859.650
12/22/2021  06:02:00      -55.828       40.331       -5.919       37.815       30.931       24.164     1429.940      956.696      583.911        0.387        0.149       68.872       18.568        0.073      332.585        1.343      859.563
12/22/2021  06:03:00       62.097      161.238      -15.732       51.120       93.620       35.754     2613.251     8764.778     1278.320        2.138        0.633      172.782       47.688        0.076      332.812        1.715      859.310
12/22/2021  06:04:00       55.249      198.885      -18.291       42.531       64.443       37.058     1808.866     4152.914     1373.304        2.514        0.367      206.417       33.836        0.027      332.958        1.956      859.065
12/22/2021  06:05:00      -56.588       86.491      -32.355       49.228       55.934       33.295     2423.441     3128.566     1108.575        0.919        0.333      103.358       12.110        0.014      332.895        1.856      859.063
12/22/2021  06:06:00      -93.796       33.765      -28.819       47.342       55.201       32.056     2241.235     3047.106     1027.571        0.854        0.316       99.688       25.871        0.067      332.941        1.932      859.185
12/22/2021  06:07:00      -29.299       11.305       -5.785       36.862       30.430       18.060     1358.806      925.964      326.161        0.181        0.131       31.404       19.020        0.367      333.046        2.106      859.250
12/22/2021  06:08:00      -30.528       52.673       -8.923       41.738       47.367       25.680     1742.093     2243.665      659.472        0.421        0.232       60.880       14.941        0.060      333.219        2.391      859.255
12/22/2021  06:09:00      -20.690       77.497      -13.665       30.614       25.179       16.127      937.193      633.977      260.089        0.423        0.092       80.212       10.572        0.017      333.436        2.751      859.274
12/22/2021  06:10:00      -26.798        1.661      -12.952       35.679       28.440       21.591     1272.980      808.836      466.157        0.172        0.127       26.849       17.975        0.448      333.275        2.484      859.334
12/22/2021  06:11:00        8.302      -33.196       -5.101       12.465       23.814       14.677      155.364      567.092      215.429        0.107        0.047       34.218        9.048        0.070      333.246        2.435      859.338
12/22/2021  06:12:00       29.654      -37.583       -1.117       13.616       23.479       17.456      185.385      551.265      304.702        0.167        0.052       47.873       15.762        0.108      333.295        2.516      859.310
12/22/2021  06:13:00       72.637      -47.431      -32.420       22.538       33.953       24.457      507.982     1152.798      598.169        0.542        0.113       86.752       15.472        0.032      333.133        2.248      859.300
12/22/2021  06:14:00       38.451      -39.180      -39.130       39.543       62.273       42.746     1563.625     3877.881     1827.257        0.591        0.363       54.896       27.763        0.256      332.935        1.922      859.269
12/22/2021  06:15:00       62.572      -63.716      -25.583       55.059       63.665       43.113     3031.544     4053.189     1858.719        0.878        0.447       89.303       30.613        0.118      332.894        1.855      859.286
12/22/2021  06:16:00       97.347      -78.433      -29.788       70.693       78.039       37.183     4997.512     6090.049     1382.539        1.449        0.624      125.013       34.485        0.076      332.896        1.855      859.387
12/22/2021  06:17:00       93.576      -47.691      -24.501       73.004       51.918       42.405     5329.588     2695.478     1798.221        1.073        0.491      105.028       37.358        0.127      332.828        1.745      859.407
12/22/2021  06:18:00      171.011      -40.747       -6.757       90.128       68.033       56.736     8123.074     4628.550     3218.924        2.346        0.799      175.798       45.875        0.068      332.582        1.337      859.205
12/22/2021  06:19:00      166.982        3.090       -0.462       91.603       69.156       56.019     8391.124     4782.491     3138.161        2.210        0.816      167.011       44.734        0.072      332.432        1.089      859.021
12/22/2021  06:20:00      100.142      -54.222       -6.810       75.619       41.704       28.909     5718.178     1739.220      835.752        1.065        0.415      113.879       17.815        0.024      332.398        1.034      859.246
12/22/2021  06:21:00       43.790      -73.065      -17.173       37.501       53.239       31.718     1406.310     2834.368     1006.054        0.640        0.262       85.183       18.903        0.049      332.597        1.363      859.483
12/22/2021  06:22:00       14.937       28.756      -13.912       36.262       37.799       28.987     1314.927     1428.748      840.271        0.241        0.179       32.404       16.221        0.251      332.560        1.303      859.476
12/22/2021  06:23:00       77.187      -11.766       -4.629       73.938       45.805       48.452     5466.836     2098.142     2347.608        0.801        0.496       78.079       38.397        0.242      332.594        1.357      859.335
12/22/2021  06:24:00      106.900      -10.314       -2.196       78.475       66.172       46.201     6158.302     4378.708     2134.527        1.210        0.634      107.396       45.819        0.182      332.455        1.128      859.232
12/22/2021  06:25:00       90.953      -31.798       -4.944       46.142       31.589       22.509     2129.127      997.872      506.676        0.647        0.182       96.351       11.011        0.013      332.308        0.886      859.325
12/22/2021  06:26:00       44.626      -40.680      -13.702       37.482       28.699       16.077     1404.922      823.626      258.471        0.316        0.124       60.385       17.392        0.083      332.394        1.027      859.496
12/22/2021  06:27:00       26.928      -54.378      -33.158       31.151       40.936       32.915      970.391     1675.769     1083.385        0.425        0.186       60.680       23.566        0.151      332.720        1.567      859.556
12/22/2021  06:28:00       87.951      -87.212      -35.658       42.123       46.631       32.420     1774.389     2174.466     1051.052        1.081        0.250      123.860        7.891        0.004      332.605        1.377      859.477
12/22/2021  06:29:00       48.593      -28.928      -34.337       45.332       49.635       37.597     2054.992     2463.675     1413.513        0.515        0.297       56.552       19.389        0.118      332.533        1.256      859.362
12/22/2021  06:30:00       12.781      -40.588      -18.584       37.162       36.450       20.022     1380.995     1328.570      400.883        0.263        0.156       42.552        3.745        0.008      332.623        1.406      859.377
12/22/2021  06:31:00      -46.947        9.491      -26.603       46.223       31.753       27.601     2136.540     1008.244      761.820        0.345        0.195       47.897       25.482        0.283      332.648        1.447      859.477
12/22/2021  06:32:00      -44.912       41.475      -12.014       32.293       26.480       15.412     1042.820      701.176      237.522        0.293        0.099       61.133        9.930        0.026      332.651        1.453      859.519
12/22/2021  06:33:00       -1.173       13.300       -9.136       10.500       15.884       10.109      110.249      252.306      102.197        0.036        0.023       13.352        4.222        0.100      332.692        1.519      859.511
12/22/2021  06:34:00       24.037      -74.722      -24.085       34.916       22.332       15.102     1219.145      498.707      228.065        0.434        0.097       78.493        9.061        0.013      332.776        1.659      859.558
12/22/2021  06:35:00      -54.134      -24.963      -16.137       31.635       31.284       32.630     1000.777      978.661     1064.748        0.343        0.152       59.612       20.097        0.114      332.722        1.572      859.617
12/22/2021  06:36:00       18.705       28.807      -11.818       28.975       29.000       21.636      839.531      840.994      468.111        0.173        0.107       34.347       20.256        0.348      332.662        1.470      859.529
12/22/2021  06:37:00       54.933       25.802       -9.293       29.237       38.749       24.565      854.785     1501.466      603.454        0.336        0.148       60.691        8.543        0.020      332.635        1.425      859.338
12/22/2021  06:38:00      -23.166        4.564       -8.311       46.136       24.769       24.614     2128.530      613.503      605.870        0.199        0.167       23.612       23.531        0.993      332.653        1.455      859.347
12/22/2021  06:39:00       -4.357      -14.985        6.781       74.727       39.726       39.259     5584.193     1578.163     1541.239        0.449        0.435       15.606       24.172        2.399      332.671        1.486      859.491
12/22/2021  06:40:00     -158.126        5.509       -8.113       84.947       49.134       30.083     7215.938     2414.174      905.015        1.782        0.527      158.222       28.536        0.033      332.587        1.344      859.498
12/22/2021  06:41:00      -37.263       14.635       -9.067       44.899       43.469       26.671     2015.935     1889.535      711.329        0.315        0.231       40.034       22.085        0.304      332.644        1.440      859.441
12/22/2021  06:42:00      -24.896        4.282        0.491       37.858       26.180       19.221     1433.240      685.372      369.447        0.156        0.124       25.261       14.097        0.311      332.710        1.551      859.528
12/22/2021  06:43:00      -75.380       12.517        0.995       61.830       41.705       28.198     3822.913     1739.310      795.102        0.610        0.318       76.412       31.560        0.171      332.678        1.497      859.645
12/22/2021  06:44:00     -114.915      -28.561       -4.327       73.030       41.070       39.054     5333.364     1686.781     1525.197        1.129        0.427      118.411       41.799        0.125      332.660        1.466      859.711
12/22/2021  06:45:00      -51.547       18.624       -8.227       49.499       33.056       20.676     2450.191     1092.721      427.480        0.352        0.199       54.809       21.110        0.148      332.620        1.403      859.601
12/22/2021  06:46:00       29.625       53.665       -2.891       39.482       26.714       18.230     1558.797      713.617      332.332        0.318        0.130       61.299       15.540        0.064      332.542        1.273      859.434
12/22/2021  06:47:00       42.179      -32.713      -16.728       38.023       41.773       20.197     1445.712     1744.980      407.935        0.336        0.180       53.378       19.849        0.138      332.576        1.331      859.466
12/22/2021  06:48:00       52.943      -95.145      -28.009       29.953       37.201       25.466      897.209     1383.894      648.540        0.778        0.146      108.883       23.145        0.045      332.598        1.366      859.559
12/22/2021  06:49:00       40.368      -74.005      -18.912       30.686       31.149       23.007      941.633      970.234      529.310        0.495        0.122       84.299       19.258        0.052      332.730        1.584      859.633
12/22/2021  06:50:00       17.844      -16.903      -10.146       17.712       30.004       16.151      313.726      900.221      260.849        0.109        0.074       24.579       13.678        0.310      332.794        1.689      859.669
12/22/2021  06:51:00       23.299       26.012       -6.940       14.742        9.534        5.610      217.315       90.895       31.473        0.080        0.017       34.921        3.217        0.008      332.641        1.437      859.676
12/22/2021  06:52:00      -22.633       25.298       -9.696       24.543       15.016       11.675      602.383      225.481      136.305        0.111        0.048       33.945        5.597        0.027      332.603        1.374      859.721
12/22/2021  06:53:00      -51.668       46.388      -10.398       23.835       17.315       11.603      568.112      299.813      134.624        0.297        0.050       69.436       11.807        0.029      332.585        1.345      859.730
12/22/2021  06:54:00      -90.861       29.400      -13.198       33.222       23.859       21.411     1103.700      569.267      458.445        0.571        0.107       95.500       15.577        0.027      332.612        1.389      859.730
12/22/2021  06:55:00      -70.078       -5.306       -2.589       58.094       50.449       29.332     3374.886     2545.054      860.359        0.586        0.339       70.279       24.613        0.123      332.605        1.378      859.767
12/22/2021  06:56:00      -29.180       -7.743        2.067       45.818       33.778       27.800     2099.304     1140.983      772.835        0.246        0.201       30.190       22.930        0.577      332.655        1.459      859.786
12/22/2021  06:57:00      -39.673       21.084       -4.811       28.680       12.953        9.428      822.525      167.776       88.885        0.156        0.054       44.928        5.028        0.013      332.710        1.550      859.736
12/22/2021  06:58:00       45.994       37.462       -9.194       30.777       18.461        8.203      947.245      340.812       67.295        0.248        0.068       59.320       10.257        0.030      332.628        1.414      859.636
12/22/2021  06:59:00       51.929       54.615      -11.680       26.738       17.501       11.396      714.912      306.271      129.876        0.348        0.058       75.362        6.890        0.008      332.648        1.446      859.579
12/22/2021  07:00:00       15.810       35.511       -9.976       11.840       16.141       11.547      140.193      260.528      133.327        0.107        0.027       38.872        6.129        0.025      332.742        1.604      859.638
12/22/2021  07:01:00       21.402       45.972       -5.764       14.376       15.912        7.244      206.660      253.208       52.478        0.156        0.026       50.709        6.001        0.014      332.741        1.601      859.675
12/22/2021  07:02:00       38.708       96.796       -5.395       31.665       30.701       24.146     1002.654      942.575      583.011        0.671        0.126      104.249       16.272        0.024      332.708        1.547      859.589
12/22/2021  07:03:00       31.211       83.519       -4.930       24.111       37.687       26.917      581.340     1420.297      724.511        0.535        0.136       89.160       17.541        0.039      332.758        1.630      859.541
12/22/2021  07:04:00       43.093       43.604       -9.399       39.327       29.831       18.412     1546.629      889.881      338.987        0.331        0.139       61.305       14.687        0.057      332.586        1.344      859.539
12/22/2021  07:05:00       90.071       39.360       -6.370       28.881       27.936       23.484      834.119      780.442      551.500        0.593        0.108       98.295       13.895        0.020      332.509        1.219      859.450
12/22/2021  07:06:00       87.439       28.483      -14.215       41.954       34.065       24.691     1760.104     1160.456      609.628        0.609        0.177       91.961       19.223        0.044      332.488        1.182      859.346
12/22/2021  07:07:00       42.587       24.498      -11.401       39.046       31.089       19.647     1524.611      966.521      386.023        0.271        0.144       49.130       12.569        0.065      332.429        1.087      859.343
12/22/2021  07:08:00       -3.172       14.311      -12.840       23.097       16.216       13.418      533.492      262.952      180.052        0.068        0.049       14.659       12.246        0.698      332.486        1.180      859.407
12/22/2021  07:09:00      -63.653       25.919       -9.296       27.901       25.564       15.083      778.480      653.512      227.510        0.323        0.083       68.728       15.762        0.053      332.488        1.182      859.428
12/22/2021  07:10:00      -36.426       -6.758       -5.649       26.564       23.431       12.735      705.649      549.028      162.169        0.141        0.071       37.048        8.756        0.056      332.595        1.361      859.445
12/22/2021  07:11:00      -36.698       -0.057       -2.996       25.101       17.098       13.807      630.053      292.349      190.638        0.123        0.056       36.698        9.960        0.074      332.599        1.366      859.453
12/22/2021  07:12:00       -6.757       -0.960       -0.132       20.686       11.826       12.436      427.915      139.846      154.659        0.038        0.036        6.825       10.407        2.325      332.702        1.536      859.430
12/22/2021  07:13:00      -40.811       -5.466      -12.116       28.288       26.454       18.907      800.193      699.824      357.467        0.185        0.093       41.175       13.140        0.102      332.860        1.798      859.497
12/22/2021  07:14:00      -72.637       14.940       -4.645       36.176       25.517       22.303     1308.698      651.136      497.403        0.399        0.123       74.158       20.624        0.077      332.771        1.651      859.563
12/22/2021  07:15:00      -12.665       32.332       -1.701       17.893       21.043       11.372      320.145      442.812      129.317        0.105        0.045       34.724       10.253        0.087      332.740        1.601      859.510
12/22/2021  07:16:00       36.013       12.037       -8.549       13.903       18.545       10.843      193.290      343.915      117.580        0.108        0.033       37.972       10.385        0.075      332.840        1.765      859.465
12/22/2021  07:17:00       39.441      -81.927      -21.659       21.650       38.821       15.585      468.733     1507.095      242.887        0.548        0.111       90.926       14.098        0.024      332.717        1.561      859.569
12/22/2021  07:18:00       33.165     -140.220      -20.758       59.356       45.431       45.366     3523.089     2063.995     2058.090        1.442        0.382      144.088       33.522        0.054      332.929        1.912      859.738
12/22/2021  07:19:00       53.802     -149.960      -50.645       74.995       63.383       44.800     5624.195     4017.365     2007.056        1.980        0.582      159.319       36.305        0.052      332.958        1.958      859.817
12/22/2021  07:20:00      108.404     -142.591      -37.334       62.302       90.591       57.387     3881.589     8206.729     3293.287        2.443        0.769      179.120       44.073        0.061      332.635        1.423      859.747
12/22/2021  07:21:00       65.513     -141.975      -46.999       64.853       57.922       45.596     4205.920     3354.930     2079.014        1.815        0.482      156.362       27.647        0.031      332.626        1.410      859.678
12/22/2021  07:22:00       13.031     -109.122      -46.118       59.919       52.443       31.551     3590.268     2750.221      995.451        1.077        0.367      109.897       20.074        0.033      332.741        1.602      859.717
12/22/2021  07:23:00       -8.932      -19.236      -28.671       24.787       22.240       19.851      614.410      494.615      394.057        0.139        0.075       21.209       12.367        0.340      332.775        1.656      859.724
12/22/2021  07:24:00      -20.386      -30.504       -7.051       33.748       26.983       16.001     1138.905      728.107      256.039        0.176        0.106       36.689        8.548        0.054      332.774        1.656      859.725
12/22/2021  07:25:00     -115.011      -35.733      -14.661       72.562       50.240       38.625     5265.187     2524.016     1491.893        1.200        0.464      120.434       26.599        0.049      332.776        1.660      859.853
12/22/2021  07:26:00     -107.971      -15.279      -15.229       64.849       37.384       36.054     4205.414     1397.578     1299.919        0.951        0.345      109.047       25.236        0.054      332.718        1.563      859.863
12/22/2021  07:27:00       21.585       66.253      -17.318       48.150       31.156       25.516     2318.418      970.722      651.083        0.455        0.197       69.680       18.763        0.073      332.663        1.475      859.633
12/22/2021  07:28:00      -52.994       21.826      -25.203       37.148       25.160       18.104     1379.972      633.026      327.744        0.313        0.117       57.313        9.555        0.028      332.682        1.505      859.568
12/22/2021  07:29:00      -87.218        6.462      -23.529      103.304       60.705       40.329    10671.689     3685.085     1626.462        1.209        0.799       87.457       42.969        0.241      332.745        1.606      859.703
12/22/2021  07:30:00     -240.322       42.764      -10.851      102.062      104.664       44.516    10416.719    10954.581     1981.695        4.152        1.168      244.097       46.830        0.037      332.673        1.486      859.788
12/22/2021  07:31:00     -116.801       44.681       -3.464      104.958       73.369       42.549    11016.099     5383.002     1810.386        1.693        0.910      125.055       34.856        0.078      332.543        1.273      859.705
12/22/2021  07:32:00       12.067      124.575      -14.452       58.417       58.568       32.246     3412.521     3430.228     1039.786        1.188        0.394      125.158       29.324        0.055      332.561        1.302      859.550
12/22/2021  07:33:00       81.038       78.741      -17.076       54.723       88.814       44.433     2994.599     7887.931     1974.249        1.296        0.643      112.992       45.144        0.160      332.655        1.458      859.480
12/22/2021  07:34:00      121.779       18.390      -22.007       70.675       45.297       34.196     4994.899     2051.787     1169.372        1.193        0.411      123.159       22.802        0.034      332.632        1.422      859.496
12/22/2021  07:35:00       47.205      -95.192      -29.496       34.060       42.035       30.778     1160.090     1766.954      947.296        0.802        0.194      106.253       21.957        0.043      332.612        1.388      859.580
12/22/2021  07:36:00        7.059      -70.437      -10.821       18.958       20.956       12.958      359.391      439.139      167.903        0.305        0.048       70.790        4.465        0.004      332.649        1.451      859.612
12/22/2021  07:37:00      -14.011      -17.003       -9.020       16.635       19.801       15.117      276.719      392.095      228.532        0.073        0.045       22.032        6.851        0.097      332.732        1.587      859.625
12/22/2021  07:38:00      -44.422       36.639      -11.446       30.672       25.132       12.563      940.787      631.603      157.823        0.259        0.087       57.583       11.351        0.039      332.818        1.729      859.655
12/22/2021  07:39:00      -78.490       23.075       -9.307       39.776       23.645       23.786     1582.105      559.098      565.756        0.474        0.135       81.812       16.245        0.039      332.763        1.638      859.684
12/22/2021  07:40:00      -32.471      -12.541       -5.997       48.040       37.058       29.873     2307.876     1373.274      892.419        0.291        0.229       34.808        8.034        0.053      332.819        1.731      859.645
12/22/2021  07:41:00      -26.117       13.186        4.724       52.205       42.155       34.958     2725.362     1777.085     1222.064        0.330        0.286       29.257       21.741        0.552      332.753        1.624      859.569
12/22/2021  07:42:00     -143.551       42.020        0.194       69.283       39.617       25.770     4800.126     1569.536      664.070        1.470        0.352      149.575       35.140        0.055      332.645        1.442      859.506
12/22/2021  07:43:00      -56.431        7.403       -4.371       51.212       29.842       19.268     2622.702      890.568      371.245        0.357        0.194       56.914       11.819        0.043      332.715        1.559      859.453
12/22/2021  07:44:00      -41.639      -25.252      -12.227       19.694       14.825       10.269      387.848      219.783      105.444        0.162        0.036       48.698        0.733        0.000      332.736        1.593      859.460
12/22/2021  07:45:00      -28.305        1.990      -10.320       27.024       31.508       26.694      730.284      992.750      712.568        0.167        0.122       28.375       23.566        0.690      332.862        1.802      859.535
12/22/2021  07:46:00      -54.547       -6.712       -7.030       57.137       42.257       41.081     3264.676     1785.649     1687.634        0.490        0.337       54.958       26.129        0.226      332.767        1.643      859.600
12/22/2021  07:47:00      -40.622       11.702       -4.343       44.234       25.359       23.957     1956.629      643.062      573.961        0.249        0.159       42.274       16.576        0.154      332.702        1.537      859.637
12/22/2021  07:48:00      -58.994      -38.717      -11.573       47.035       28.139       17.172     2212.286      791.786      294.863        0.421        0.165       70.565       10.933        0.024      332.742        1.603      859.669
12/22/2021  07:49:00      -70.678      -82.733      -25.530       35.204       31.188       19.810     1239.316      972.719      392.447        0.755        0.130      108.812       12.655        0.014      332.883        1.836      859.705
12/22/2021  07:50:00      -17.203      -58.398      -28.797       51.494       52.305       27.206     2651.592     2735.802      740.177        0.533        0.306       60.879       16.996        0.078      332.916        1.892      859.680
12/22/2021  07:51:00      -22.425       -8.004      -19.606       25.914       13.755       13.037      671.538      189.207      169.973        0.099        0.052       23.810        6.278        0.070      332.992        2.014      859.682
12/22/2021  07:52:00      -23.862      -23.757      -17.512       28.862       34.385       22.183      833.037     1182.334      492.107        0.197        0.125       33.672       17.737        0.277      333.084        2.169      859.733
12/22/2021  07:53:00      -31.053      -24.524        0.169       35.267       40.327       28.271     1243.763     1626.233      799.274        0.262        0.183       39.570       18.152        0.210      333.024        2.070      859.721
12/22/2021  07:54:00       49.190      -16.185      -22.740       48.909       52.440       37.301     2392.108     2749.964     1391.359        0.486        0.327       51.784       28.133        0.295      332.885        1.841      859.613
12/22/2021  07:55:00       25.274      -75.775      -26.555       45.550       36.036       25.326     2074.800     1298.597      641.415        0.555        0.201       79.879       28.411        0.127      332.922        1.901      859.577
12/22/2021  07:56:00      -40.603      -22.382       -8.199       78.108       53.023       41.181     6100.797     2811.438     1695.870        0.641        0.530       46.363       15.184        0.107      333.012        2.050      859.716
12/22/2021  07:57:00      -78.369      -87.806      -10.531       69.846       46.701       37.953     4878.457     2180.979     1440.424        1.123        0.425      117.693       29.243        0.062      333.037        2.090      859.776
12/22/2021  07:58:00       51.969       17.583      -26.990       40.422       50.186       21.879     1633.899     2518.587      478.706        0.418        0.232       54.862       10.402        0.036      333.041        2.097      859.630
12/22/2021  07:59:00       47.357       -9.706      -18.191       63.815       46.593       38.456     4072.339     2170.894     1478.860        0.519        0.386       48.342       28.289        0.342      333.000        2.029      859.475
12/22/2021  08:00:00       12.748      -20.728      -10.045       34.897       42.852       33.934     1217.829     1836.284     1151.511        0.245        0.210       24.335       18.683        0.589      333.027        2.074      859.482
12/22/2021  08:01:00        8.185      -37.380      -10.761       32.547       40.297       23.295     1059.325     1623.843      542.680        0.240        0.161       38.265       16.311        0.182      333.091        2.180      859.637
12/22/2021  08:02:00      -93.028      -20.670        1.404       75.690       51.681       31.554     5728.957     2670.931      995.626        0.924        0.470       95.297       29.290        0.094      333.088        2.175      859.660
12/22/2021  08:03:00      -34.779       -6.364       -3.412       38.327       21.194       19.802     1468.955      449.199      392.103        0.179        0.116       35.357       21.845        0.382      333.023        2.069      859.599
12/22/2021  08:04:00       16.039       -1.005      -24.426       40.742       22.915       24.506     1659.930      525.079      600.554        0.182        0.139       16.071       23.092        2.065      333.012        2.050      859.515
12/22/2021  08:05:00       55.612      -15.601      -11.812       42.130       27.383       23.852     1774.922      749.814      568.920        0.328        0.155       57.759       17.713        0.094      332.954        1.954      859.428
12/22/2021  08:06:00       -3.897       24.387       -6.223       25.118       15.896       11.975      630.934      252.677      143.395        0.084        0.051       24.696        5.135        0.043      332.985        2.003      859.453
12/22/2021  08:07:00      -33.640        3.149      -16.105       24.660       24.467       10.274      608.098      598.614      105.546        0.136        0.066       33.787        4.075        0.015      333.054        2.120      859.524
12/22/2021  08:08:00      -20.010       -6.334        7.050       14.666       12.783       14.059      215.080      163.406      197.647        0.053        0.029       20.988        6.334        0.091      333.057        2.125      859.541
12/22/2021  08:09:00       19.985       31.777       -4.963       30.356       19.189       14.091      921.502      368.204      198.552        0.146        0.074       37.539        7.957        0.045      332.982        1.999      859.484
12/22/2021  08:10:00       48.638       24.207      -14.514       28.006       23.971       21.087      784.356      574.630      444.665        0.248        0.090       54.329       16.650        0.094      332.905        1.874      859.428
12/22/2021  08:11:00       22.963       10.389      -20.594       21.646       28.848       28.244      468.542      832.186      797.737        0.158        0.105       25.203       14.783        0.344      332.896        1.858      859.434
12/22/2021  08:12:00       -5.425       15.661       -7.631       27.272       27.823        8.674      743.776      774.095       75.247        0.096        0.080       16.575        7.998        0.233      332.969        1.979      859.461
12/22/2021  08:13:00      -79.173       71.554       -8.317       21.742       16.688       17.774      472.733      278.503      315.909        0.626        0.053      106.716       11.417        0.011      332.810        1.716      859.460
12/22/2021  08:14:00     -117.345       37.818      -12.380       45.769       32.139       21.430     2094.814     1032.946      459.254        0.947        0.179      123.288       17.152        0.019      332.860        1.798      859.498
12/22/2021  08:15:00      -78.395       23.314       -8.245       36.384       30.032       23.682     1323.803      901.893      560.823        0.477        0.139       81.788       11.723        0.021      332.909        1.880      859.497
12/22/2021  08:16:00       15.042       -8.043      -17.995       42.209       54.627       34.278     1781.608     2984.159     1174.959        0.328        0.297       17.057       16.732        0.962      332.904        1.872      859.426
12/22/2021  08:17:00      -12.684      -48.712      -29.906       47.665       38.290       34.440     2271.918     1466.114     1186.104        0.418        0.246       50.336       13.189        0.069      332.944        1.937      859.560
12/22/2021  08:18:00      -45.354      -62.777      -35.432       55.909       67.208       41.767     3125.848     4516.874     1744.479        0.832        0.469       77.446       14.217        0.034      333.072        2.149      859.752
12/22/2021  08:19:00      -55.004      -17.803       -8.179       73.716       46.682       22.513     5434.044     2179.203      506.845        0.576        0.406       57.813       12.018        0.043      333.112        2.214      859.696
12/22/2021  08:20:00      137.973       -0.488      -16.258       79.736       53.452       35.759     6357.758     2857.095     1278.706        1.490        0.525      137.974       20.207        0.021      333.022        2.064      859.393
12/22/2021  08:21:00       74.212      -34.382      -30.895       57.063      101.859       43.151     3256.165    10375.254     1861.969        1.157        0.775       81.790       40.079        0.240      332.911        1.882      859.370
12/22/2021  08:22:00       14.515      -50.950      -28.817       27.899       42.019       24.997      778.351     1765.602      624.868        0.340        0.158       52.977       20.488        0.150      332.890        1.847      859.693
12/22/2021  08:23:00      -15.468       -8.827      -13.304       62.623       39.719       26.923     3921.599     1577.638      724.845        0.336        0.311       17.809       19.838        1.241      333.199        2.357      859.846
12/22/2021  08:24:00        9.452        9.692       -8.899       29.693       26.723       20.631      881.649      714.104      425.638        0.114        0.101       13.537       13.935        1.060      333.223        2.396      859.773
12/22/2021  08:25:00       27.705      -12.776      -15.685       43.250       29.585       21.827     1870.567      875.287      476.423        0.220        0.161       30.509       14.339        0.221      333.167        2.304      859.660
12/22/2021  08:26:00       69.372      -47.624      -28.344       49.771       57.594       24.150     2477.183     3317.026      583.231        0.713        0.319       84.146       18.917        0.051      332.960        1.963      859.601
12/22/2021  08:27:00       49.895      -82.881      -30.410       27.782       30.153       17.847      771.857      909.175      318.530        0.614        0.100       96.740       13.738        0.020      333.016        2.055      859.580
12/22/2021  08:28:00       -0.092      -56.938      -16.900       34.903       27.927       18.112     1218.224      779.927      328.039        0.293        0.116       56.938       16.693        0.086      333.154        2.284      859.661
12/22/2021  08:29:00       52.688      -13.387      -31.764       31.411       42.835       28.039      986.674     1834.835      786.181        0.379        0.180       54.362       16.614        0.093      333.227        2.405      859.722
12/22/2021  08:30:00       59.231       14.794      -22.646       45.875       61.519       48.174     2104.475     3784.617     2320.747        0.622        0.410       61.050       32.274        0.279      333.059        2.129      859.644
12/22/2021  08:31:00       83.253        2.683      -18.380       82.478       66.720       46.617     6802.595     4451.492     2173.107        1.035        0.671       83.296       42.089        0.255      332.856        1.791      859.523
12/22/2021  08:32:00      110.150        8.629       -4.545       75.180       73.970       46.529     5652.057     5471.534     2164.967        1.276        0.664      110.488       40.294        0.133      332.781        1.666      859.450
12/22/2021  08:33:00       48.394       17.511      -11.088       60.551       26.791       22.004     3666.364      717.742      484.185        0.382        0.243       51.465        9.667        0.035      332.775        1.657      859.551
12/22/2021  08:34:00      -52.460       38.273      -23.410       48.014       35.142       23.594     2305.386     1234.958      556.677        0.443        0.205       64.937       16.637        0.066      332.996        2.023      859.752
12/22/2021  08:35:00      -11.920       52.296       -2.010       37.802       44.058       25.077     1428.979     1941.120      628.832        0.344        0.200       53.637       17.396        0.105      332.963        1.967      859.748
12/22/2021  08:36:00       99.505       72.302       -3.210       56.594       34.809       31.457     3202.881     1211.684      989.551        1.027        0.270      122.999       23.707        0.037      332.912        1.885      859.551
12/22/2021  08:37:00       66.587       57.014      -10.554       48.612       45.614       30.128     2363.138     2080.672      907.712        0.657        0.268       87.661       21.623        0.061      332.894        1.853      859.562
12/22/2021  08:38:00       23.212       11.703       -7.063       13.422       15.628       17.175      180.139      244.227      294.967        0.072        0.036       25.996       10.828        0.173      332.847        1.777      859.763
12/22/2021  08:39:00       35.484        7.726      -12.996       26.267       21.928       24.667      689.955      480.835      608.465        0.163        0.089       36.315       19.485        0.288      332.852        1.786      859.875
12/22/2021  08:40:00       64.210       37.369      -22.262       51.594       62.739       34.106     2661.923     3936.175     1163.218        0.689        0.388       74.293       27.350        0.136      332.910        1.881      859.780
12/22/2021  08:41:00      135.724       25.180      -15.762       70.600       63.685       31.589     4984.340     4055.753      997.839        1.467        0.502      138.040       19.825        0.021      332.767        1.643      859.598
12/22/2021  08:42:00       61.841       63.749       -6.121       65.688       31.153       24.170     4314.890      970.491      584.180        0.690        0.293       88.816       24.463        0.076      332.804        1.705      859.548
12/22/2021  08:43:00      -34.243       33.039      -11.841       66.625       35.871       20.270     4438.906     1286.747      410.855        0.427        0.307       47.583       21.064        0.196      332.920        1.897      859.680
12/22/2021  08:44:00       -0.771        1.490       -7.414       50.694       36.653       25.856     2569.877     1343.409      668.547        0.232        0.229        1.678       19.535      135.525      333.005        2.037      859.868
12/22/2021  08:45:00      -15.636      -21.098      -16.910       38.443       18.645       18.738     1477.829      347.621      351.130        0.158        0.109       26.261       13.991        0.284      332.889        1.847      859.918
12/22/2021  08:46:00       63.322       31.445      -21.692       27.959       30.624       17.083      781.683      937.829      291.840        0.374        0.101       70.700       13.941        0.039      332.965        1.972      859.832
12/22/2021  08:47:00      142.323       54.745      -16.542       52.015       51.641       33.365     2705.554     2666.800     1113.203        1.500        0.324      152.489       25.523        0.028      332.928        1.910      859.648
12/22/2021  08:48:00      140.671       33.050        0.637       76.476       45.201       37.074     5848.539     2043.093     1374.492        1.507        0.463      144.502       37.295        0.067      332.907        1.876      859.520
12/22/2021  08:49:00       25.369      -10.640      -28.682       57.218       44.554       19.551     3273.885     1985.070      382.253        0.361        0.282       27.510       11.652        0.179      333.023        2.068      859.602
12/22/2021  08:50:00       22.803      -87.640      -36.886       38.904       48.399       20.218     1513.519     2342.423      408.752        0.691        0.213       90.558       11.136        0.015      333.042        2.100      859.770
12/22/2021  08:51:00       28.211      -26.620      -17.771       50.805       68.413       28.701     2581.151     4680.361      823.768        0.495        0.404       38.787       33.258        0.735      333.076        2.155      859.829
12/22/2021  08:52:00       61.588      -13.570       -6.599       80.182       80.065       55.185     6429.202     6410.431     3045.357        0.995        0.794       63.065       54.992        0.760      333.011        2.047      859.706
12/22/2021  08:53:00       79.694       -6.951       -3.585       90.326       82.086       56.672     8158.706     6738.144     3211.745        1.226        0.905       79.997       44.091        0.304      332.900        1.865      859.626
12/22/2021  08:54:00       62.939      -23.240      -12.592       54.663       43.248       35.741     2988.052     1870.348     1277.415        0.540        0.307       67.092       26.883        0.161      332.808        1.713      859.720
12/22/2021  08:55:00       27.524      -30.189      -13.276       32.021       42.405       24.727     1025.328     1798.160      611.449        0.264        0.172       40.853       20.439        0.250      333.100        2.193      859.862
12/22/2021  08:56:00       -6.189      -46.726      -20.777       33.404       43.124       22.109     1115.826     1859.650      488.799        0.306        0.173       47.134       16.542        0.123      333.179        2.324      859.935
12/22/2021  08:57:00       40.916     -102.328      -30.217       65.956       96.301       34.383     4350.143     9273.842     1182.192        1.393        0.740      110.205       39.778        0.130      333.214        2.382      859.960
12/22/2021  08:58:00      145.691     -217.804      -55.613       63.397       70.576       38.820     4019.197     4980.917     1507.010        4.113        0.525      262.039       37.337        0.020      332.925        1.898      859.938
12/22/2021  08:59:00      150.603      -47.663      -28.929       72.684       95.122       60.477     5282.973     9048.173     3657.527        2.189        0.899      157.965       45.765        0.084      332.953        1.950      859.819
12/22/2021  09:00:00      121.854      -12.022      -14.180       76.802       82.805       54.942     5898.603     6856.615     3018.619        1.548        0.789      122.446       44.458        0.132      332.899        1.861      859.647
12/22/2021  09:01:00       87.640      -25.038       -7.056       75.135       66.976       46.014     5645.241     4485.822     2117.245        1.030        0.612       91.146       35.343        0.150      332.899        1.862      859.642
12/22/2021  09:02:00       32.604      -71.675      -12.272       62.639       65.297       34.299     3923.615     4263.715     1176.427        0.786        0.468       78.742       25.064        0.101      332.942        1.934      859.842
12/22/2021  09:03:00      -30.044      -57.620       -8.062       70.430       84.452       41.282     4960.424     7132.076     1704.186        0.904        0.690       64.982       21.226        0.107      333.146        2.270      860.047
12/22/2021  09:04:00       88.908        2.867      -26.770       62.783       84.532       30.671     3941.677     7145.593      940.716        1.033        0.601       88.954       20.735        0.054      333.156        2.287      860.084
12/22/2021  09:05:00      130.947       -2.349      -11.416       77.324       72.448       48.373     5979.061     5248.733     2339.930        1.542        0.678      130.968       32.889        0.063      333.041        2.097      859.928
12/22/2021  09:06:00      255.655       38.395      -10.216      123.614       59.743       52.063    15280.413     3569.278     2710.544        4.425        1.078      258.522       41.737        0.026      332.898        1.859      859.722
12/22/2021  09:07:00      218.821       64.441      -12.350       89.825       69.434       42.099     8068.588     4821.099     1772.294        3.342        0.733      228.113       37.844        0.028      332.894        1.850      859.603
12/22/2021  09:08:00      246.590       48.356      -11.775       85.865       76.522       42.742     7372.850     5855.578     1826.893        3.917        0.753      251.286       27.193        0.012      332.822        1.732      859.603
12/22/2021  09:09:00       30.813      -49.053      -15.327       61.776       65.127       33.754     3816.239     4241.590     1139.339        0.639        0.460       57.928       32.981        0.324      332.929        1.912      859.713
12/22/2021  09:10:00      -31.043      -35.966       -9.313       89.260       69.684       44.606     7967.331     4855.863     1989.730        0.858        0.741       47.511       32.628        0.472      333.137        2.253      859.828
12/22/2021  09:11:00     -183.887       -6.078        2.309      124.410       73.987       57.783    15477.907     5474.105     3338.845        2.907        1.215      183.988       58.923        0.103      333.095        2.184      859.880
12/22/2021  09:12:00     -240.266       16.750       -6.154       92.785       73.577       56.037     8608.973     5413.523     3140.103        3.760        0.858      240.849       43.858        0.033      333.090        2.174      859.897
12/22/2021  09:13:00     -125.911       25.916       -2.969       67.457       43.857       28.286     4550.436     1923.405      800.093        1.190        0.364      128.550       28.726        0.050      333.108        2.206      859.963
12/22/2021  09:14:00      -13.232       -6.940       -1.578       41.279       27.921       21.333     1703.991      779.586      455.104        0.158        0.147       14.941       22.319        2.231      333.221        2.395      860.057
12/22/2021  09:15:00        7.522       45.116      -12.254       29.698       21.913       15.984      881.961      480.171      255.504        0.193        0.081       45.738        9.672        0.045      333.170        2.312      860.029
12/22/2021  09:16:00       70.285       -1.024      -10.088       76.472       57.524       36.489     5847.980     3309.033     1331.417        0.776        0.524       70.293       28.971        0.170      333.257        2.454      859.843
12/22/2021  09:17:00      233.571       26.100      -16.701       55.762       43.128       30.822     3109.378     1860.040      950.019        3.072        0.296      235.025       15.133        0.004      333.107        2.203      859.625
12/22/2021  09:18:00      211.536       67.245       -7.471       67.810       50.805       33.955     4598.153     2581.194     1152.915        2.883        0.417      221.966       26.220        0.014      333.104        2.198      859.505
12/22/2021  09:19:00      100.901       87.755       -3.418       83.100       41.471       30.873     6905.683     1719.836      953.124        1.373        0.479      133.724       29.354        0.048      333.096        2.188      859.535
12/22/2021  09:20:00     -114.151       52.554      -33.947       57.272       49.191       36.382     3280.043     2419.748     1323.667        1.198        0.351      125.667       28.520        0.052      333.297        2.520      859.621
12/22/2021  09:21:00     -201.049      107.166      -27.539       96.533       79.699       50.952     9318.557     6352.001     2596.113        3.546        0.913      227.827       32.868        0.021      333.252        2.442      859.733
12/22/2021  09:22:00     -147.356       13.459      -20.734      130.949       88.753       68.109    17147.709     7877.035     4638.898        2.599        1.483      147.970       52.749        0.127      333.266        2.467      859.791
12/22/2021  09:23:00     -135.486       49.676      -22.646      104.751       69.250       42.243    10972.668     4795.595     1784.455        1.944        0.878      144.306       32.759        0.052      333.157        2.288      859.766
12/22/2021  09:24:00      -88.590       69.484       -7.285       44.569       49.667       31.874     1986.383     2466.773     1015.926        0.910        0.273      112.588       24.882        0.049      333.132        2.248      859.677
12/22/2021  09:25:00      -62.052      163.041      -22.415       54.520       68.890       24.285     2972.385     4745.796      589.742        1.962        0.415      174.450       14.061        0.006      333.183        2.332      859.627
12/22/2021  09:26:00      -21.096      146.375       -8.966       50.286       51.999       37.109     2528.672     2703.907     1377.102        1.428        0.330      147.888       30.874        0.044      333.264        2.466      859.594
12/22/2021  09:27:00      -46.547      143.862      -20.900       49.948       64.518       28.635     2494.789     4162.580      819.976        1.539        0.374      151.205       19.631        0.017      333.247        2.437      859.593
12/22/2021  09:28:00      -53.216       33.819      -27.667       71.481       49.777       42.630     5109.565     2477.729     1817.277        0.707        0.470       63.053       35.542        0.318      333.352        2.613      859.645
12/22/2021  09:29:00      -61.943       -9.112      -10.125      117.518       58.656       59.596    13810.498     3440.500     3551.734        1.241        1.040       62.610       57.130        0.833      333.329        2.573      859.667
12/22/2021  09:30:00       -4.978        7.835       -7.569       66.862       56.312       37.132     4470.574     3171.057     1378.808        0.458        0.451        9.282       29.985       10.435      333.309        2.540      859.683
12/22/2021  09:31:00       29.200      -31.188      -21.954       41.044       40.384       25.110     1684.619     1630.856      630.492        0.313        0.197       42.724       18.837        0.194      333.420        2.724      859.723
12/22/2021  09:32:00       76.359      -84.070      -48.559       69.219       78.145       39.341     4791.323     6106.609     1547.737        1.385        0.622      113.572       43.445        0.146      333.523        2.893      859.827
12/22/2021  09:33:00      131.508     -292.264      -42.341       61.530       67.259       53.854     3785.937     4523.719     2900.248        5.786        0.560      320.488       42.559        0.018      333.488        2.833      859.921
12/22/2021  09:34:00      109.976     -355.027      -54.516       64.504       77.002       58.178     4160.722     5929.288     3384.698        7.729        0.674      371.670       47.248        0.016      333.492        2.839      859.998
12/22/2021  09:35:00      125.100     -340.541      -47.983       90.462      121.106       47.180     8183.341    14666.637     2225.919        7.949        1.254      362.792       45.793        0.016      333.535        2.911      860.054
12/22/2021  09:36:00      154.668     -311.162      -63.012       61.960       93.527       37.698     3839.022     8747.325     1421.159        6.936        0.700      347.483       26.106        0.006      333.481        2.821      860.068
12/22/2021  09:37:00      170.374     -259.002      -63.207       54.424       93.991       46.986     2961.991     8834.314     2207.649        5.705        0.700      310.015       32.442        0.011      333.488        2.833      860.009
12/22/2021  09:38:00      156.039      -12.149      -17.259       60.005       39.843       34.355     3600.572     1587.495     1180.239        1.558        0.318      156.511       22.066        0.020      333.468        2.802      859.944
12/22/2021  09:39:00       92.294      -27.558      -14.291       84.359       55.987       49.550     7116.490     3134.547     2455.173        1.109        0.635       96.320       45.419        0.222      333.509        2.870      859.956
12/22/2021  09:40:00       51.262      -88.835      -16.479       50.075       95.412       35.748     2507.521     9103.384     1277.932        1.184        0.644      102.565       35.890        0.122      333.585        2.995      860.054
12/22/2021  09:41:00      112.159     -230.746      -51.772       50.477       69.247       34.016     2547.950     4795.172     1157.094        3.850        0.425      256.561       21.968        0.007      333.568        2.962      860.130
12/22/2021  09:42:00      120.256      -82.135      -46.641       47.026       60.555       30.125     2211.412     3666.960      907.520        1.508        0.339      145.628       23.245        0.025      333.542        2.925      860.092
12/22/2021  09:43:00       76.699      -25.895      -26.135       51.756       47.343       27.659     2678.718     2241.354      765.033        0.646        0.284       80.952       21.099        0.068      333.639        3.086      860.020
12/22/2021  09:44:00        3.135      -41.485       -7.253       19.893       17.922       20.626      395.713      321.196      425.428        0.146        0.057       41.603       15.242        0.134      333.777        3.314      860.044
12/22/2021  09:45:00      -37.469      -43.587      -17.447       45.050       48.799       27.057     2029.475     2381.345      732.064        0.437        0.257       57.478       16.181        0.079      333.908        3.532      860.189
12/22/2021  09:46:00     -136.546      -36.930      -28.060       52.825       51.908       39.638     2790.532     2694.456     1571.149        1.392        0.353      141.452       15.372        0.012      333.797        3.347      860.302
12/22/2021  09:47:00      -86.456       23.132       -8.581       49.855       39.418       30.918     2485.479     1553.750      955.951        0.654        0.250       89.497       20.243        0.051      333.709        3.202      860.255
12/22/2021  09:48:00       34.989       64.424      -18.897       59.312       29.183       16.239     3517.909      851.641      263.708        0.518        0.232       73.312        4.575        0.004      333.655        3.113      860.028
12/22/2021  09:49:00      131.246       10.132       -9.148       60.224       76.153       46.217     3626.925     5799.332     2136.036        1.448        0.578      131.636       22.473        0.029      333.790        3.336      859.726
12/22/2021  09:50:00      193.001       29.244      -12.036       91.810       61.659       45.822     8429.047     3801.809     2099.656        2.629        0.717      195.204       30.225        0.024      333.683        3.155      859.572
12/22/2021  09:51:00       52.953       -3.963      -22.681       51.333       46.953       28.738     2635.111     2204.583      825.847        0.450        0.283       53.101       10.463        0.039      333.736        3.247      859.606
12/22/2021  09:52:00      -22.535      -41.619      -29.694       34.746       33.079       22.775     1207.283     1094.197      518.680        0.297        0.141       47.328        9.689        0.042      333.794        3.344      859.782
12/22/2021  09:53:00      -51.878      -13.817       -2.710       75.842       47.879       47.761     5752.002     2292.367     2281.155        0.661        0.516       53.686       39.132        0.531      333.945        3.592      860.035
12/22/2021  09:54:00     -181.334       -4.803        3.945      103.220       65.804       57.629    10654.430     4330.221     3321.076        2.561        0.915      181.398       54.505        0.090      333.894        3.505      860.179
12/22/2021  09:55:00     -193.381       15.656      -14.549       77.615       56.760       37.120     6024.130     3221.697     1377.921        2.424        0.531      194.013       35.209        0.033      333.780        3.316      860.122
12/22/2021  09:56:00      -43.344       76.121      -16.546       59.239       47.522       27.832     3509.230     2258.362      774.619        0.724        0.327       87.596       21.972        0.063      333.826        3.397      859.921
12/22/2021  09:57:00       -1.397       12.111       -6.499       17.061       18.690       20.086      291.080      349.319      403.458        0.062        0.052       12.192       10.223        0.703      333.904        3.524      859.753
12/22/2021  09:58:00      -12.120      -55.479      -37.425       28.912       36.139       22.464      835.932     1306.033      504.630        0.364        0.132       56.787       11.411        0.040      333.963        3.622      859.837
12/22/2021  09:59:00      -66.760      -42.545      -45.073       56.249       38.308       37.095     3163.975     1467.519     1376.051        0.715        0.300       79.165       25.639        0.105      334.043        3.756      859.996
12/22/2021  10:00:00      -13.910      -21.979       -4.858       50.558       43.346       31.019     2556.120     1878.905      962.152        0.305        0.270       26.011       23.767        0.835      334.195        4.008      860.088
12/22/2021  10:01:00      -66.103       21.890       -8.872       61.403       35.507       27.384     3770.296     1260.717      749.872        0.535        0.289       69.634       20.783        0.089      334.097        3.845      860.052
12/22/2021  10:02:00      -40.501       80.954       -8.145       42.362       57.508       20.731     1794.504     3307.190      429.771        0.689        0.277       90.520       16.010        0.031      334.048        3.763      859.931
12/22/2021  10:03:00       81.316      206.821      -34.263       57.064       47.080       25.588     3256.265     2216.504      654.737        2.834        0.306      222.232       24.737        0.012      334.134        3.902      859.726
12/22/2021  10:04:00       58.588       78.325      -17.356       45.028       73.748       34.286     2027.550     5438.752     1175.543        0.925        0.432       97.813       31.658        0.105      334.170        3.966      859.683
12/22/2021  10:05:00      -71.495      -18.003        6.248      153.394       65.066       45.938    23529.748     4233.585     2110.344        1.767        1.494       73.727       51.053        0.479      334.221        4.048      859.932
12/22/2021  10:06:00     -222.662      -42.772      -11.011      121.900       73.630       53.352    14859.708     5421.353     2846.407        3.732        1.156      226.733       55.994        0.061      334.080        3.814      860.084
12/22/2021  10:07:00     -171.006       -8.878      -15.141      101.596       53.943       33.382    10321.766     2909.803     1114.371        2.195        0.717      171.237       46.086        0.072      333.946        3.594      859.989
12/22/2021  10:08:00      -51.809      102.959      -15.398       36.864       58.044       25.223     1358.981     3369.084      636.218        0.944        0.268      115.259       20.297        0.031      333.969        3.632      859.763
12/22/2021  10:09:00      -43.896      164.823      -17.536       57.623       56.625       37.559     3320.427     3206.383     1410.716        1.867        0.397      170.568       34.352        0.041      334.093        3.837      859.626
12/22/2021  10:10:00      -18.610      187.437      -18.147       63.799       83.276       26.715     4070.312     6934.874      713.670        2.376        0.586      188.358       23.197        0.015      334.036        3.741      859.656
12/22/2021  10:11:00        6.363      142.699      -12.355       40.761       67.885       30.898     1661.493     4608.329      954.688        1.389        0.361      142.841       33.342        0.054      334.176        3.975      859.706
12/22/2021  10:12:00      106.137       79.099      -34.212       44.693       56.831       32.937     1997.494     3229.799     1084.850        1.250        0.316      132.370       19.329        0.021      334.141        3.918      859.711
12/22/2021  10:13:00       37.048        1.172       -4.741       66.222       46.478       33.274     4385.366     2160.180     1107.188        0.452        0.383       37.067       25.368        0.468      334.257        4.109      859.708
12/22/2021  10:14:00       -2.326       -4.329        2.295       59.716       45.426       42.882     3566.059     2063.492     1838.881        0.375        0.373        4.915       25.599       27.132      334.272        4.135      859.781
12/22/2021  10:15:00     -297.274      -24.653      -15.598      109.897       74.173       63.420    12077.290     5501.705     4022.075        5.541        1.080      298.295       58.959        0.039      334.132        3.900      859.782
12/22/2021  10:16:00     -177.172      -48.885      -10.896       85.736       97.005       50.791     7350.602     9409.898     2579.710        2.662        0.967      183.793       47.411        0.067      334.183        3.985      859.740
12/22/2021  10:17:00      -85.069     -119.241      -19.201       89.648       65.741       43.811     8036.770     4321.834     1919.378        1.805        0.714      146.476       30.067        0.042      334.372        4.300      859.735
12/22/2021  10:18:00       29.872      -74.267      -37.278       97.517       70.332       50.224     9509.536     4946.629     2522.432        1.238        0.849       80.050       43.552        0.296      334.416        4.374      859.741
12/22/2021  10:19:00      -21.840      -22.777      -10.557       46.830       49.677       37.323     2193.047     2467.825     1393.008        0.358        0.303       31.555       18.994        0.362      334.528        4.559      859.742
12/22/2021  10:20:00      -31.148       32.030       -8.983       29.720       20.508       21.093      883.287      420.588      444.919        0.191        0.087       44.678       13.775        0.095      334.596        4.672      859.739
12/22/2021  10:21:00      -56.929       31.058      -19.520       23.082       16.710       10.973      532.796      279.210      120.403        0.276        0.047       64.850        6.031        0.009      334.531        4.562      859.723
12/22/2021  10:22:00      -60.238       20.014      -18.038       14.367        6.905        8.271      206.414       47.676       68.407        0.234        0.016       63.476        3.600        0.003      334.406        4.357      859.714
12/22/2021  10:23:00      -45.654       12.864       -7.118       36.499       23.091       16.137     1332.160      533.215      260.391        0.221        0.106       47.432       15.664        0.109      334.527        4.557      859.684
12/22/2021  10:24:00      -55.359       -4.804      -11.581       45.772       23.864       19.668     2095.047      569.511      386.821        0.314        0.153       55.567        6.497        0.014      334.585        4.653      859.698
12/22/2021  10:25:00     -128.242        5.310       -9.923       92.119       36.066       29.336     8485.885     1300.765      860.624        1.361        0.532      128.352       22.108        0.030      334.556        4.604      859.768
12/22/2021  10:26:00     -106.143        2.092       -5.597       58.715       33.613       32.497     3447.487     1129.849     1056.045        0.847        0.282      106.163       30.429        0.082      334.485        4.488      859.784
12/22/2021  10:27:00      -17.300       11.530       -7.707       31.790       17.225       15.079     1010.612      296.692      227.383        0.101        0.077       20.790       17.535        0.711      334.522        4.550      859.722
12/22/2021  10:28:00       68.879       64.478      -18.342       44.886       31.110       18.732     2014.760      967.831      350.872        0.629        0.167       94.349       15.387        0.027      334.577        4.640      859.594
12/22/2021  10:29:00       47.679       43.770      -15.683       40.284       19.966       20.993     1622.766      398.653      440.687        0.345        0.123       64.723       22.963        0.126      334.605        4.686      859.549
12/22/2021  10:30:00       -8.188       -4.586      -16.947       33.444       12.270       14.352     1118.478      150.550      205.979        0.092        0.074        9.385        4.664        0.247      334.629        4.725      859.610
12/22/2021  10:31:00      -35.963      -41.252      -22.084       31.885       28.268       20.759     1016.628      799.093      430.932        0.286        0.112       54.727       15.033        0.075      334.777        4.974      859.710
12/22/2021  10:32:00      -64.356      -69.992      -22.593       46.694       35.117       31.963     2180.315     1233.181     1021.657        0.699        0.222       95.082       19.433        0.042      334.801        5.014      859.777
12/22/2021  10:33:00       37.668      -67.914      -20.962       79.813       76.846       37.063     6370.063     5905.301     1373.690        1.006        0.682       77.661       36.130        0.216      334.928        5.223      859.796
12/22/2021  10:34:00       75.452      -29.793      -48.366       54.862       77.941       41.017     3009.796     6074.848     1682.398        0.984        0.538       81.121       28.067        0.120      334.866        5.122      859.730
12/22/2021  10:35:00       91.294      -15.872      -19.357       55.760       75.022       42.104     3109.187     5628.305     1772.774        0.973        0.526       92.664       32.267        0.121      334.803        5.017      859.633
12/22/2021  10:36:00       92.482       17.585       -9.039       46.795       37.460       30.873     2189.789     1403.281      953.160        0.674        0.227       94.139       12.009        0.016      334.738        4.907      859.535
12/22/2021  10:37:00       11.146        1.580      -16.923       30.988       22.458       17.010      960.238      504.345      289.329        0.108        0.088       11.257       10.016        0.792      334.712        4.865      859.554
12/22/2021  10:38:00      -30.004       13.239       -2.016       28.353       24.086       16.403      803.870      580.126      269.056        0.137        0.083       32.795       11.037        0.113      334.783        4.985      859.647
12/22/2021  10:39:00       15.073       12.014       -1.181       10.814       15.585       13.905      116.944      242.896      193.353        0.046        0.028       19.275        7.822        0.165      334.871        5.132      859.711
12/22/2021  10:40:00       41.157       26.609      -20.476       25.866       23.609       19.370      669.054      557.388      375.180        0.221        0.080       49.009       12.168        0.062      334.853        5.099      859.713
12/22/2021  10:41:00       51.984      -10.517      -10.219       52.860       44.064       32.399     2794.209     1941.624     1049.692        0.435        0.289       53.037       21.244        0.160      334.758        4.942      859.667
12/22/2021  10:42:00       39.393      -27.368      -19.555       50.794       53.559       32.047     2580.030     2868.532     1027.039        0.458        0.324       47.967       30.724        0.410      334.710        4.863      859.675
12/22/2021  10:43:00       96.007      -76.452      -27.351       36.133       51.896       28.702     1305.600     2693.178      823.829        1.032        0.241      122.728       17.483        0.020      334.686        4.822      859.739
12/22/2021  10:44:00       85.627     -111.388      -33.357       24.500       30.841       21.625      600.227      951.142      467.639        1.144        0.101      140.496       14.028        0.010      334.594        4.668      859.766
12/22/2021  10:45:00       66.517      -44.517      -26.674       34.267       52.676       24.843     1174.207     2774.774      617.177        0.584        0.228       80.039       22.486        0.079      334.641        4.747      859.676
12/22/2021  10:46:00       76.308       -1.422       -2.168       68.591       40.082       32.409     4704.753     1606.586     1050.347        0.659        0.368       76.322       37.299        0.239      334.682        4.815      859.548
12/22/2021  10:47:00       48.018       12.107      -12.158       47.397       26.388       20.377     2246.446      696.328      415.231        0.298        0.168       49.521       16.389        0.110      334.664        4.786      859.485
12/22/2021  10:48:00       52.975      -18.894      -10.959       52.298       38.936       30.836     2735.114     1516.030      950.855        0.424        0.260       56.244       20.526        0.133      334.716        4.873      859.479
12/22/2021  10:49:00       98.259      -61.701      -40.029       55.148       54.359       41.580     3041.311     2954.927     1728.897        1.139        0.386      116.025       33.424        0.083      334.714        4.870      859.488
12/22/2021  10:50:00      132.220       -7.438      -32.263       66.415       69.276       54.170     4410.984     4799.221     2934.403        1.536        0.607      132.429       40.117        0.092      334.699        4.844      859.480
12/22/2021  10:51:00       67.463      -16.317        7.029       68.430       62.175       60.392     4682.710     3865.738     3647.164        0.853        0.610       69.409       53.728        0.599      334.652        4.764      859.443
12/22/2021  10:52:00       82.875      -11.520       -1.667       85.765       56.280       54.454     7355.597     3167.426     2965.228        1.024        0.674       83.672       55.504        0.440      334.646        4.753      859.418
12/22/2021  10:53:00       72.257      -18.067       -7.351       94.874       87.333       69.273     9001.106     7627.025     4798.813        1.351        1.071       74.482       63.059        0.717      334.632        4.731      859.361
12/22/2021  10:54:00       21.605      -22.420      -10.665       70.129       68.611       59.501     4918.044     4707.501     3540.361        0.712        0.658       31.136       41.878        1.809      334.617        4.706      859.273
12/22/2021  10:55:00       86.802       -4.782      -17.611       70.377       52.858       34.710     4952.901     2793.988     1204.768        0.841        0.448       86.934       33.667        0.150      334.563        4.617      859.236
12/22/2021  10:56:00        3.682       42.242       -3.763       47.936       38.263       26.598     2297.825     1464.040      707.431        0.314        0.223       42.402       17.509        0.171      334.557        4.608      859.305
12/22/2021  10:57:00      -81.666        7.525      -19.924       75.713       38.630       33.289     5732.471     1492.282     1108.190        0.773        0.417       82.012       30.013        0.134      334.868        5.125      859.418
12/22/2021  10:58:00       21.131       -9.443       -3.603       39.169       31.437       22.051     1534.191      988.285      486.258        0.178        0.150       23.145       17.058        0.543      334.868        5.127      859.478
12/22/2021  10:59:00      -18.072       -0.559       -6.029       23.190       10.773       11.713      537.766      116.054      137.189        0.058        0.040       18.080       11.324        0.392      334.786        4.988      859.443
12/22/2021  11:00:00       10.797       -4.041      -15.997       44.842       34.323       21.681     2010.803     1178.084      470.082        0.202        0.183       11.528       22.830        3.922      334.897        5.175      859.325
12/22/2021  11:01:00       71.286       10.475      -33.359       62.925       60.653       35.637     3959.610     3678.805     1269.966        0.760        0.445       72.051       33.041        0.210      334.901        5.181      859.178
12/22/2021  11:02:00       36.906       -4.308        6.787       43.045       37.967       27.107     1852.860     1441.520      734.813        0.273        0.201       37.157       21.472        0.334      334.929        5.226      859.103
12/22/2021  11:03:00       62.977       50.114       -4.297       52.480       34.541       18.687     2754.142     1193.099      349.213        0.540        0.215       80.483       21.280        0.070      334.754        4.934      859.113
12/22/2021  11:04:00       25.530       46.814      -11.277       17.810       31.013       14.568      317.182      961.830      212.226        0.223        0.075       53.323       12.901        0.059      334.683        4.815      859.131
12/22/2021  11:05:00      -23.655       47.916        2.627       45.074       32.188       20.066     2031.701     1036.052      402.651        0.317        0.174       53.437       17.460        0.107      334.988        5.323      859.129
12/22/2021  11:06:00       29.182      -14.095      -22.530       20.825       49.187       17.732      433.683     2419.407      314.439        0.236        0.158       32.408       22.618        0.487      334.783        4.983      859.128
12/22/2021  11:07:00       51.154      -33.640      -31.987       38.592       47.798       29.285     1489.310     2284.655      857.638        0.470        0.232       61.224       28.464        0.216      334.926        5.222      859.138
12/22/2021  11:08:00       56.703      -85.029      -34.784       47.224       37.381       26.283     2230.072     1397.373      690.795        0.799        0.216      102.201       25.411        0.062      334.811        5.031      859.186
12/22/2021  11:09:00       58.907     -115.200      -29.989       34.846       38.380       28.741     1214.216     1473.011      826.044        1.058        0.176      129.388       18.068        0.020      335.025        5.385      859.236
12/22/2021  11:10:00       50.142     -112.243      -25.485       43.773       37.227       36.650     1916.064     1385.814     1343.200        1.020        0.232      122.934       27.487        0.050      335.134        5.566      859.231
12/22/2021  11:11:00       93.117      -91.423      -30.444       33.886       59.120       30.312     1148.278     3495.191      918.793        1.176        0.278      130.496       33.845        0.067      335.060        5.444      859.199
12/22/2021  11:12:00       68.034     -115.830      -31.921       15.036       31.684       11.651      226.072     1003.888      135.739        1.021        0.068      134.333        7.569        0.003      334.993        5.332      859.143
12/22/2021  11:13:00       44.062      -19.752      -19.924       38.231       51.419       37.024     1461.630     2643.911     1370.791        0.410        0.274       48.287       29.606        0.376      335.086        5.487      859.093
12/22/2021  11:14:00       27.206       15.253      -12.855       55.640       50.921       42.445     3095.860     2592.936     1801.537        0.431        0.375       31.189       32.604        1.093      335.095        5.501      859.075
12/22/2021  11:15:00       25.295       12.919      -14.967       49.703       57.683       43.914     2470.433     3327.348     1928.459        0.438        0.386       28.404       23.374        0.677      335.137        5.573      859.090
12/22/2021  11:16:00       35.603      -19.989       -5.778       65.283       61.888       50.720     4261.895     3830.065     2572.525        0.618        0.533       40.831       30.693        0.565      335.162        5.614      859.068
12/22/2021  11:17:00       45.363      -47.159        5.064       77.058       58.272       61.775     5937.955     3395.629     3816.126        0.873        0.657       65.435       52.312        0.639      335.144        5.582      859.007
12/22/2021  11:18:00      121.201      -17.133      -19.959       89.631       57.912       41.252     8033.780     3353.803     1701.709        1.423        0.654      122.406       38.726        0.100      335.079        5.474      859.027
12/22/2021  11:19:00       86.119      -17.087      -10.564       43.691       43.806       26.586     1908.946     1918.928      706.789        0.618        0.227       87.798       14.565        0.028      335.056        5.436      859.081
12/22/2021  11:20:00       33.819       28.494        1.107       29.360       37.055       21.844      861.991     1373.055      477.171        0.233        0.136       44.222       10.975        0.062      335.103        5.515      859.094
12/22/2021  11:21:00      -18.483       78.356       -7.799       27.161       26.462       21.327      737.703      700.247      454.853        0.422        0.095       80.506        8.081        0.010      335.575        6.300      859.119
12/22/2021  11:22:00        0.429       59.609       -9.755       22.785       36.842       18.200      519.154     1357.340      331.246        0.293        0.110       59.610       12.806        0.046      335.325        5.883      859.116
12/22/2021  11:23:00       33.327       43.616       -9.983       21.089       16.505       14.613      444.745      272.399      213.538        0.202        0.047       54.892        7.370        0.018      335.254        5.765      859.051
12/22/2021  11:24:00       87.598       66.044      -16.960       45.976       25.221       23.173     2113.805      636.085      536.975        0.780        0.164      109.705       14.553        0.018      335.159        5.608      858.978
12/22/2021  11:25:00      114.361       53.129      -19.751       36.740       35.449       26.973     1349.834     1256.667      727.517        0.981        0.167      126.100       17.310        0.019      335.187        5.654      858.952
12/22/2021  11:26:00       63.097       10.851      -17.503       25.232       28.297       17.631      636.676      800.702      310.863        0.308        0.087       64.023       11.430        0.032      335.111        5.528      858.972
12/22/2021  11:27:00       33.515        1.105       -8.260       31.569       19.841       17.891      996.604      393.667      320.104        0.145        0.086       33.533       17.248        0.265      335.328        5.889      858.968
12/22/2021  11:28:00       56.692        4.897       -5.440       27.073       28.065       19.423      732.957      787.637      377.256        0.258        0.095       56.904       11.133        0.038      335.290        5.825      858.933
12/22/2021  11:29:00       59.806       18.780      -16.201       33.514       50.946       22.507     1123.204     2595.478      506.583        0.421        0.211       62.686       17.690        0.080      335.278        5.807      858.896
12/22/2021  11:30:00       36.327       23.508      -12.361       35.495       56.256       38.130     1259.922     3164.705     1453.925        0.395        0.294       43.269       18.252        0.178      335.459        6.109      858.855
12/22/2021  11:31:00       81.917       21.314      -16.922       68.611       51.706       39.874     4707.416     2673.479     1589.956        0.821        0.449       84.645       27.264        0.104      335.299        5.839      858.809
12/22/2021  11:32:00      145.996       51.687      -14.657       45.361       29.084       22.026     2057.642      845.866      485.126        1.379        0.169      154.875       15.830        0.010      335.139        5.574      858.761
12/22/2021  11:33:00      118.588       58.428      -20.634       53.838       39.636       23.992     2898.493     1571.028      575.607        1.147        0.252      132.200        8.509        0.004      335.228        5.722      858.737
12/22/2021  11:34:00      194.099       41.078      -28.425       48.198       47.637       30.673     2323.057     2269.249      940.845        2.285        0.277      198.398       13.595        0.005      335.221        5.711      858.700
12/22/2021  11:35:00      115.860       43.552      -19.286       55.146       32.512       28.043     3041.112     1057.060      786.425        1.029        0.244      123.775       19.639        0.025      335.121        5.546      858.699
12/22/2021  11:36:00       95.906       55.060      -10.311       51.910       38.069       24.195     2694.680     1449.233      585.401        0.853        0.236      110.587       21.084        0.036      335.185        5.650      858.717
12/22/2021  11:37:00       86.250       79.071      -18.767       31.994       28.941       23.344     1023.589      837.554      544.964        0.822        0.120      117.009       14.107        0.015      335.172        5.629      858.720
12/22/2021  11:38:00       80.492       71.974      -18.687       29.149       32.212       29.162      849.679     1037.644      850.420        0.737        0.137      107.977       23.463        0.047      335.171        5.628      858.725
12/22/2021  11:39:00       36.830       66.935      -14.627       28.072       31.348       19.720      788.052      982.692      388.864        0.410        0.108       76.398       17.379        0.052      335.351        5.927      858.695
12/22/2021  11:40:00       62.339       31.960       -7.140       38.165       38.777       15.491     1456.598     1503.685      239.980        0.408        0.160       70.054       10.333        0.022      335.320        5.874      858.639
12/22/2021  11:41:00       73.282       15.924      -17.200       50.387       50.196       26.849     2538.874     2519.623      720.883        0.585        0.289       74.992       17.831        0.057      335.405        6.017      858.593
12/22/2021  11:42:00      175.589       55.973      -17.996       61.410       50.957       26.783     3771.210     2596.574      717.340        2.069        0.354      184.294       23.939        0.017      335.350        5.924      858.525
12/22/2021  11:43:00      146.771       87.033      -19.722       74.567       38.866       37.756     5560.240     1510.541     1425.482        1.900        0.425      170.636       31.389        0.034      335.368        5.954      858.473
12/22/2021  11:44:00       79.190      112.072      -15.094       55.242       45.197       30.366     3051.635     2042.768      922.108        1.254        0.301      137.227       29.030        0.045      335.466        6.118      858.469
12/22/2021  11:45:00      104.632      171.202      -21.696       44.110       52.222       30.468     1945.723     2727.170      928.287        2.316        0.280      200.644       27.976        0.019      335.597        6.335      858.437
12/22/2021  11:46:00      100.439      167.090      -16.419       46.248       42.927       34.365     2138.867     1842.756     1180.947        2.172        0.258      194.954       26.261        0.018      335.679        6.471      858.391
12/22/2021  11:47:00       88.173      216.062      -28.368       28.420       29.030       22.820      807.674      842.740      520.759        2.872        0.109      233.360       15.511        0.004      335.563        6.278      858.392
12/22/2021  11:48:00       18.205      176.738      -10.334       42.419       32.860       24.671     1799.380     1079.802      608.642        1.758        0.174      177.673       18.530        0.011      335.808        6.689      858.435
12/22/2021  11:49:00      -27.955      236.803      -17.540       42.623       38.007       23.217     1816.714     1444.515      539.007        3.048        0.190      238.447       13.920        0.003      336.198        7.335      858.437
12/22/2021  11:50:00      -43.904      125.338      -15.870       45.730      109.124       24.334     2091.242    11907.945      592.166        1.624        0.730      132.805        8.468        0.004      337.145        8.922      858.389
12/22/2021  11:51:00        7.138     -139.788      -29.827      121.924       75.925       60.902    14865.487     5764.655     3709.079        2.241        1.217      139.970       61.916        0.196      336.171        7.292      858.366
12/22/2021  11:52:00       78.672     -203.488      -35.884       60.681      117.511       44.886     3682.195    13808.736     2014.719        3.419        0.975      218.167       43.644        0.040      335.808        6.686      858.259
12/22/2021  11:53:00       40.601      -23.721      -25.640       42.945       59.969       36.420     1844.310     3596.317     1326.382        0.482        0.338       47.022       31.519        0.449      335.846        6.752      858.174
12/22/2021  11:54:00      -35.163      -33.116       -8.210       37.540       40.204       28.808     1409.249     1616.402      829.890        0.313        0.193       48.302       18.227        0.142      335.854        6.765      858.219
12/22/2021  11:55:00        1.272       19.777       -2.218       44.166       40.107       28.790     1950.657     1608.560      828.885        0.239        0.219       19.818       18.955        0.915      336.018        7.038      858.306
12/22/2021  11:56:00     -144.610       26.050       -4.822      109.821       44.665       42.720    12060.620     1994.988     1825.022        1.874        0.794      146.938       35.729        0.059      335.903        6.844      858.314
12/22/2021  11:57:00     -111.972       -2.753      -20.468       70.168       47.582       41.567     4923.616     2264.031     1727.803        1.094        0.446      112.006       25.361        0.051      335.965        6.951      858.249
12/22/2021  11:58:00     -137.040       68.070      -35.763       54.936       37.525       30.047     3017.957     1408.117      902.851        1.501        0.266      153.015       21.776        0.020      336.098        7.171      858.206
12/22/2021  11:59:00     -115.238       46.376       -7.717       40.562       35.575       28.047     1645.244     1265.593      786.636        0.959        0.185      124.220       16.189        0.017      336.144        7.248      858.206
12/22/2021  12:00:00      -76.809       14.007      -10.017       35.310       21.215       19.081     1246.822      450.079      364.078        0.413        0.103       78.076       17.469        0.050      336.253        7.430      858.203
12/22/2021  12:01:00       -2.902        0.478       -3.984       38.747       18.957       10.466     1501.365      359.379      109.536        0.100        0.099        2.941        9.423       10.265      336.421        7.712      858.198
12/22/2021  12:02:00       62.079      -15.672      -21.362       36.935       24.804       20.540     1364.231      615.239      421.906        0.348        0.120       64.026       18.096        0.080      336.255        7.432      858.174
12/22/2021  12:03:00       40.994       -5.733      -20.878       47.837       35.409       35.164     2288.397     1253.762     1236.499        0.346        0.239       41.393       33.307        0.647      336.359        7.607      858.133
12/22/2021  12:04:00       26.655      -17.671      -27.339       34.945       40.855       32.474     1221.127     1669.114     1054.576        0.286        0.197       31.981       16.738        0.274      336.472        7.797      858.142
12/22/2021  12:05:00       60.642      -27.471      -42.599       43.045       43.983       24.295     1852.883     1934.516      590.265        0.531        0.219       66.574       18.077        0.074      336.543        7.915      858.165
12/22/2021  12:06:00       53.802      -52.798      -29.176       35.796       44.592       22.114     1281.324     1988.445      489.049        0.515        0.188       75.381        6.602        0.008      336.542        7.915      858.147
12/22/2021  12:07:00       62.737      -35.340      -34.550       22.240       35.967       22.241      494.639     1293.601      494.675        0.433        0.114       72.006       12.917        0.032      336.503        7.850      858.102
12/22/2021  12:08:00       49.384      -11.624      -16.905       34.594       32.687       18.693     1196.711     1068.453      349.438        0.274        0.131       50.734       12.260        0.058      336.497        7.838      858.057
12/22/2021  12:09:00       10.976        4.851        0.735       24.657       35.015       20.555      607.973     1226.068      422.493        0.120        0.113       12.000       16.875        1.977      336.611        8.031      858.024
12/22/2021  12:10:00       -9.808       31.239       -7.792       36.017       13.686       11.408     1297.233      187.296      130.140        0.137        0.081       32.743        4.497        0.019      336.517        7.871      858.023
12/22/2021  12:11:00     -122.111       22.729      -16.610       47.528       38.450       23.293     2258.958     1478.377      542.553        0.999        0.214      124.209       15.235        0.015      336.530        7.894      858.035
12/22/2021  12:12:00     -137.302       12.184       -3.855       47.426       41.585       23.420     2249.235     1729.351      548.495        1.177        0.226      137.842       18.761        0.019      336.679        8.143      858.037
12/22/2021  12:13:00     -132.830       19.295       -2.532       42.680       29.927       26.056     1821.561      895.650      678.897        1.071        0.170      134.224       26.102        0.038      336.770        8.296      858.037
12/22/2021  12:14:00     -101.534        8.338      -11.081       44.755       30.311       23.475     2003.032      918.767      551.086        0.699        0.174      101.876       25.619        0.063      336.823        8.382      858.024
12/22/2021  12:15:00      -94.491        7.823      -11.747       40.642       29.549       19.737     1651.808      873.137      389.560        0.602        0.146       94.814       14.803        0.024      336.804        8.351      857.988
12/22/2021  12:16:00      -18.692       27.764       -5.011       22.057       21.835       22.442      486.514      476.755      503.631        0.131        0.073       33.470       16.603        0.246      337.081        8.814      857.930
12/22/2021  12:17:00       -5.418       22.250        1.764       23.251       18.029       15.970      540.614      325.032      255.029        0.082        0.056       22.901       13.467        0.346      337.255        9.105      857.866
12/22/2021  12:18:00      -10.687       74.561       -6.122       22.814       22.781       15.225      520.476      518.985      231.792        0.349        0.064       75.323        6.159        0.007      337.371        9.302      857.818
12/22/2021  12:19:00      -67.834       30.333      -15.306       37.197       31.246       24.261     1383.583      976.291      588.613        0.435        0.147       74.307       21.236        0.082      337.266        9.124      857.821
12/22/2021  12:20:00      -77.620       20.903      -12.467       74.763       47.355       31.758     5589.568     2242.517     1008.583        0.773        0.442       80.386       17.064        0.045      337.247        9.093      857.856
12/22/2021  12:21:00     -169.008       34.664      -13.414       47.377       41.833       34.244     2244.598     1750.042     1172.668        1.756        0.258      172.526       27.348        0.025      337.198        9.010      857.867
12/22/2021  12:22:00      -92.219       23.388       -9.033       77.806       41.227       30.821     6053.810     1699.640      949.936        0.892        0.435       95.139       31.096        0.107      337.275        9.140      857.878
12/22/2021  12:23:00      -92.892       31.206      -19.807       58.566       38.616       23.395     3429.945     1491.193      547.307        0.773        0.273       97.994       25.804        0.069      337.341        9.249      857.873
12/22/2021  12:24:00      -80.016       18.819      -18.133       63.648       33.481       39.916     4051.080     1120.999     1593.265        0.692        0.338       82.199       31.773        0.149      337.363        9.288      857.865
12/22/2021  12:25:00     -162.638       87.569        2.294      111.213      109.218       59.598    12368.299    11928.598     3551.906        3.098        1.392      184.714       50.596        0.075      337.526        9.557      857.885
12/22/2021  12:26:00     -211.017     -119.770      -31.639      111.362      122.362       46.627    12401.390    14972.530     2174.069        4.471        1.477      242.638       32.247        0.018      337.399        9.344      857.891
12/22/2021  12:27:00       18.189      -92.945      -27.459      131.232       82.025       40.428    17221.816     6728.178     1634.416        1.765        1.279       94.709       33.686        0.127      337.307        9.194      857.892
12/22/2021  12:28:00       69.146      -52.793      -21.624       80.223      106.925       59.109     6435.742    11433.030     3493.850        1.470        1.068       86.996       54.921        0.399      337.419        9.377      857.836
12/22/2021  12:29:00      134.140     -157.582      -67.408       93.623      131.295       58.552     8765.319    17238.407     3428.388        3.840        1.472      206.944       47.681        0.053      337.373        9.301      857.736
12/22/2021  12:30:00        4.789      -55.537      -23.837       55.009       49.288       34.477     3026.011     2429.354     1188.676        0.516        0.332       55.743       16.550        0.088      337.451        9.432      857.728
12/22/2021  12:31:00     -170.644      -59.887      -23.147      142.480      123.988       70.491    20300.607    15372.947     4969.033        3.693        2.032      180.848       52.503        0.084      337.380        9.313      857.779
12/22/2021  12:32:00     -217.986      -45.671      -20.228      104.728       93.617       44.981    10968.002     8764.153     2023.309        3.588        1.088      222.719       43.164        0.038      337.256        9.107      857.809
12/22/2021  12:33:00     -243.454      -75.189      -29.258      126.628      101.728       66.177    16034.593    10348.620     4379.451        4.827        1.538      254.800       61.918        0.059      337.292        9.165      857.846
12/22/2021  12:34:00     -179.577      -13.546       -6.816      118.907       72.123       58.606    14138.818     5201.692     3434.629        2.762        1.139      180.087       59.327        0.109      337.337        9.240      857.881
12/22/2021  12:35:00     -153.400      -31.799      -23.812      146.320       52.987       45.593    21409.595     2807.675     2078.680        2.570        1.315      156.662       52.116        0.111      337.252        9.102      857.920
12/22/2021  12:36:00     -169.222      -27.695      -12.689      135.017       64.271       56.712    18229.538     4130.779     3216.303        2.757        1.279      171.473       65.059        0.144      337.296        9.172      857.945
12/22/2021  12:37:00     -151.048      -89.224      -13.831       48.087       92.041       35.067     2312.352     8471.573     1229.708        2.149        0.601      175.433       27.421        0.024      337.255        9.105      858.007
12/22/2021  12:38:00     -178.267       45.282        3.216      106.461       68.774       49.565    11333.900     4729.914     2456.712        2.618        0.926      183.928       48.866        0.071      337.285        9.154      857.970
12/22/2021  12:39:00      -46.484      -30.902      -11.238      115.687       64.689       50.064    13383.491     4184.623     2506.400        1.165        1.004       55.818       19.098        0.117      337.397        9.342      857.975
12/22/2021  12:40:00      -24.911     -141.221      -24.867       84.776       56.168       36.124     7186.921     3154.833     1304.955        1.641        0.582      143.401       33.854        0.056      337.302        9.184      857.959
12/22/2021  12:41:00       16.098     -171.112      -55.166       82.762       79.606       46.180     6849.507     6337.133     2132.610        2.395        0.766      171.868       33.354        0.038      337.190        8.994      857.992
12/22/2021  12:42:00       49.383     -144.127      -48.678       57.994       90.115       43.800     3363.307     8120.657     1918.460        1.949        0.670      152.353       38.718        0.065      337.193        9.000      857.959
12/22/2021  12:43:00       25.045     -142.164      -23.454       50.813       73.508       42.516     2581.993     5403.459     1807.627        1.559        0.490      144.353       14.632        0.010      337.131        8.897      857.920
12/22/2021  12:44:00       67.521       -3.577      -22.432       44.740       84.939       39.891     2001.639     7214.670     1591.259        0.794        0.540       67.615       34.670        0.263      337.133        8.901      857.843
12/22/2021  12:45:00       86.202     -199.530      -45.388       69.914       79.744       42.583     4887.937     6359.132     1813.343        3.118        0.653      217.354       41.023        0.036      337.100        8.844      857.818
12/22/2021  12:46:00       -9.000     -101.876      -50.768       77.396       57.896       42.971     5990.078     3351.928     1846.540        1.211        0.559      102.272       28.974        0.080      337.230        9.064      857.768
12/22/2021  12:47:00       28.859      -98.292      -44.068       61.310       54.372       28.670     3758.889     2956.345      821.954        0.999        0.377      102.441       17.555        0.029      337.392        9.336      857.698
12/22/2021  12:48:00       28.958      -88.651      -21.061       51.120       54.526       35.953     2613.273     2973.074     1292.587        0.801        0.344       93.261       16.794        0.032      337.265        9.124      857.683
12/22/2021  12:49:00      -56.181      -25.140       -5.593       86.828       77.776       36.998     7539.032     6049.124     1368.860        0.939        0.748       61.550       34.768        0.319      337.531        9.568      857.702
12/22/2021  12:50:00     -142.232       51.436       -4.354      124.947      109.489       86.387    15611.696    11987.852     7462.639        2.897        1.753      151.247       68.699        0.206      337.325        9.220      857.654
12/22/2021  12:51:00     -208.892       18.509      -18.054      145.701      109.587       61.401    21228.889    12009.385     3770.063        4.065        1.850      209.711       55.376        0.070      337.474        9.470      857.616
12/22/2021  12:52:00     -223.050      -97.692      -24.591      143.155       96.368       54.281    20493.222     9286.792     2946.378        4.631        1.636      243.506       69.106        0.081      337.227        9.056      857.642
12/22/2021  12:53:00     -159.480      -40.274      -20.006      123.973       94.857       51.435    15369.272     8997.877     2645.598        2.723        1.351      164.486       41.619        0.064      337.282        9.150      857.634
12/22/2021  12:54:00      -71.209      -58.522      -13.888       57.762       62.258       34.451     3336.396     3876.099     1186.896        0.854        0.420       92.171       18.664        0.041      337.360        9.282      857.633
12/22/2021  12:55:00     -205.990      -10.915      -15.506       68.100       55.292       40.261     4637.587     3057.235     1620.961        2.605        0.466      206.279       24.999        0.015      337.343        9.249      857.620
12/22/2021  12:56:00     -178.878       64.461        5.694      166.615      128.441       84.605    27760.477    16497.191     7158.080        4.379        2.571      190.138       79.501        0.175      337.491        9.499      857.598
12/22/2021  12:57:00     -240.983      -51.087      -48.076      147.179       96.422       69.787    21661.600     9297.223     4870.206        4.940        1.791      246.339       59.760        0.059      337.299        9.178      857.566
12/22/2021  12:58:00     -299.990      -57.724      -38.759      230.612      113.243      103.625    53181.765    12824.014    10738.141        8.577        3.837      305.493       94.681        0.096      337.257        9.105      857.530
12/22/2021  12:59:00     -412.091      -48.615      -26.550      212.308      145.647       96.368    45074.658    21213.144     9286.718       12.422        3.779      414.949       99.729        0.058      337.127        8.890      857.545
12/22/2021  13:00:00     -259.090       21.294      -30.648      184.436      148.262       78.096    34016.542    21981.592     6098.976        6.530        3.105      259.963       87.983        0.115      337.304        9.184      857.563
12/22/2021  13:01:00     -111.183       13.002      -32.422      145.739       78.351       69.719    21239.857     6138.948     4860.799        2.290        1.612      111.940       54.831        0.240      337.263        9.119      857.506
12/22/2021  13:02:00     -120.268       -9.877       -5.064       88.537       94.160       46.067     7838.728     8866.016     2122.208        1.670        0.941      120.673       46.688        0.150      337.459        9.445      857.472
12/22/2021  13:03:00     -105.033       -4.728      -24.955      134.772       76.462       55.384    18163.426     5846.511     3067.372        1.937        1.354      105.140       62.058        0.348      337.357        9.275      857.459
12/22/2021  13:04:00     -184.934       22.351      -18.951      140.632      118.610       80.939    19777.445    14068.254     6551.087        3.772        2.020      186.279       62.332        0.112      337.236        9.072      857.403
12/22/2021  13:05:00     -243.162      122.440      -10.027      146.342      111.194       69.419    21416.007    12364.025     4818.980        5.640        1.930      272.249       78.617        0.083      337.300        9.178      857.367
12/22/2021  13:06:00     -227.372      -41.501      -15.913      139.273      120.735       72.127    19397.055    14576.891     5202.270        4.642        1.959      231.128       41.386        0.032      337.223        9.049      857.422
12/22/2021  13:07:00     -247.037      -48.117      -12.463      155.165      128.030       86.592    24076.180    16391.782     7498.246        5.572        2.398      251.679       85.058        0.114      337.267        9.123      857.470
12/22/2021  13:08:00     -270.604       98.099        5.545      241.388      186.380      101.570    58268.058    34737.447    10316.415        9.308        5.166      287.837      117.708        0.167      337.325        9.220      857.385
12/22/2021  13:09:00     -333.862      -45.022      -20.586      219.472      128.756      103.887    48167.911    16578.110    10792.505        9.471        3.777      336.884      107.725        0.102      337.210        9.028      857.410
12/22/2021  13:10:00     -312.698      -42.860      -21.983      278.192      160.547      118.925    77390.851    25775.389    14143.082       10.868        5.865      315.622      127.436        0.163      337.116        8.870      857.381
12/22/2021  13:11:00     -298.633      -27.123      -31.548      189.810      138.884       87.296    36028.022    19288.843     7620.647        7.691        3.147      299.863       73.892        0.061      337.068        8.790      857.364
12/22/2021  13:12:00     -148.347        3.130      -15.420      139.195      124.769       76.490    19375.356    15567.315     5850.776        3.152        2.040      148.380       77.189        0.271      337.099        8.843      857.312
12/22/2021  13:13:00     -347.481       -9.339      -12.242      245.183      160.169       92.902    60114.823    25654.171     8630.719       10.767        4.720      347.606      114.404        0.108      337.007        8.688      857.273
12/22/2021  13:14:00     -131.748      -31.613       -3.777      148.401      101.070       75.529    22022.898    10215.224     5704.681        2.815        1.897      135.488       58.103        0.184      337.050        8.759      857.275
12/22/2021  13:15:00     -251.528      -30.654       -4.147      180.664      112.498       89.578    32639.409    12655.839     8024.216        5.876        2.666      253.389       89.463        0.125      337.002        8.679      857.284
12/22/2021  13:16:00     -220.230      -17.504      -21.533      148.188       90.161       67.209    21959.614     8129.056     4517.071        4.193        1.730      220.925       73.763        0.111      336.982        8.645      857.285
12/22/2021  13:17:00     -104.431       18.633       -8.320       96.090       74.040       57.330     9233.286     5481.894     3286.754        1.466        0.900      106.080       52.519        0.245      337.036        8.737      857.252
12/22/2021  13:18:00      -75.451       44.342      -15.783       73.801       77.415       36.512     5446.589     5993.141     1333.139        1.034        0.639       87.516       19.809        0.051      337.113        8.867      857.201
12/22/2021  13:19:00      -77.142      -72.536        0.624       57.597       85.990       37.647     3317.429     7394.336     1417.300        1.167        0.606      105.888       24.485        0.053      337.073        8.801      857.165
12/22/2021  13:20:00     -138.181       50.942      -26.573       82.559       62.008       55.345     6815.992     3844.995     3063.065        1.806        0.686      147.272       31.374        0.045      337.148        8.925      857.123
12/22/2021  13:21:00      -70.500      -43.536      -13.537       73.531       68.504       54.650     5406.810     4692.747     2986.632        1.007        0.654       82.859       42.733        0.266      337.018        8.710      857.087
12/22/2021  13:22:00     -131.463       -0.501       -4.831      131.591      134.164       65.587    17316.244    18000.073     4301.645        2.845        1.981      131.464       60.136        0.209      336.974        8.633      857.042
12/22/2021  13:23:00      -99.522       19.917       -0.004       98.800       73.815       41.963     9761.400     5448.648     1760.891        1.363        0.849      101.496       45.231        0.199      337.029        8.728      857.107
12/22/2021  13:24:00      -43.343       -8.284      -23.012       82.076       41.102       39.997     6736.514     1689.364     1599.791        0.625        0.501       44.128       32.694        0.549      337.049        8.760      857.088
12/22/2021  13:25:00      -50.709      -32.839      -17.120       92.781       81.354       56.774     8608.308     6618.538     3223.255        1.119        0.923       60.413       38.528        0.407      336.973        8.635      856.998
12/22/2021  13:26:00      -95.333      -15.599      -27.957       79.350       83.253       51.211     6296.407     6931.004     2622.579        1.298        0.792       96.601       28.923        0.090      337.120        8.880      856.952
12/22/2021  13:27:00     -109.821     -169.982      -25.285      141.236      133.313       42.703    19947.592    17772.379     1823.513        4.056        1.977      202.373       56.093        0.077      337.166        8.955      856.943
12/22/2021  13:28:00     -218.917     -234.348      -52.739      114.936      129.581       51.605    13210.329    16791.259     2663.111        6.914        1.633      320.692       32.250        0.010      337.170        8.959      856.939
12/22/2021  13:29:00     -351.716     -192.783      -55.429      174.416      129.252       76.991    30421.003    16705.988     5927.661       10.849        2.653      401.085       82.478        0.042      337.244        9.085      856.931
12/22/2021  13:30:00     -322.165     -112.032      -38.028      119.298      146.152       74.532    14231.942    21360.280     5555.022        7.946        2.057      341.089       69.025        0.041      337.385        9.320      856.942
12/22/2021  13:31:00     -185.324     -173.094      -10.465      107.826      119.225       60.480    11626.403    14214.653     3657.806        4.695        1.475      253.588       44.070        0.030      337.512        9.533      856.983
12/22/2021  13:32:00     -121.323      -90.904      -41.262      201.344       79.356       70.159    40539.561     6297.359     4922.241        3.821        2.588      151.600       57.758        0.145      337.605        9.690      856.971
12/22/2021  13:33:00     -152.436        3.842       -8.109      111.623       84.073       62.725    12459.695     7068.186     3934.421        2.339        1.173      152.485       58.810        0.149      337.624        9.722      857.022
12/22/2021  13:34:00     -132.696      -90.817      -14.598       61.533       62.011       39.377     3786.302     3845.368     1550.565        1.762        0.459      160.798       20.505        0.016      337.635        9.740      856.994
12/22/2021  13:35:00     -196.458      -48.357      -25.396       70.163       73.089       45.171     4922.807     5342.073     2040.442        2.694        0.615      202.322       31.761        0.025      337.662        9.785      856.930
12/22/2021  13:36:00      -80.078       -9.312      -11.847       85.971       70.501       42.560     7391.005     4970.394     1811.366        1.040        0.709       80.618       20.729        0.066      337.718        9.880      856.879
12/22/2021  13:37:00     -252.485       30.390       -2.587      135.282      113.188       64.982    18301.291    12811.628     4222.675        5.000        1.767      254.307       56.321        0.049      337.696        9.842      856.823
12/22/2021  13:38:00     -261.357       12.096      -22.146      138.227      160.752       82.034    19106.754    25841.229     6729.648        6.030        2.584      261.637       69.839        0.071      337.646        9.757      856.769
12/22/2021  13:39:00      -51.043      -29.217      -14.143       99.668       76.998       33.836     9933.698     5928.704     1144.853        1.033        0.850       58.813       17.131        0.085      337.747        9.929      856.767
12/22/2021  13:40:00     -360.976     -160.617      -28.570      171.863      251.792       84.122    29536.801    63398.973     7076.474       12.845        5.001      395.097       73.499        0.035      337.531        9.563      856.671
12/22/2021  13:41:00     -151.790     -133.765      -22.448      153.259      217.955       92.700    23488.215    47504.282     8593.229        6.050        3.979      202.320       86.062        0.181      337.684        9.822      856.621
12/22/2021  13:42:00     -452.615       11.759      -17.026      264.435      209.669      124.565    69925.906    43961.053    15516.430       16.732        6.470      452.768      109.797        0.059      337.540        9.578      856.676
12/22/2021  13:43:00     -313.670       36.564        2.312      193.816      141.001      100.872    37564.471    19881.420    10175.112        8.366        3.381      315.794       88.406        0.078      337.616        9.707      856.676
12/22/2021  13:44:00     -280.686      -17.830      -22.473      188.959      120.462      102.020    35705.335    14511.033    10408.015        7.010        3.031      281.252       92.389        0.108      337.624        9.720      856.688
12/22/2021  13:45:00     -354.307     -162.342      -37.621      154.473      192.629       96.411    23861.844    37105.849     9295.138       11.177        3.513      389.728       75.684        0.038      337.587        9.658      856.689
12/22/2021  13:46:00     -344.289     -104.781      -28.009      145.362      170.003       71.242    21130.169    28901.152     5075.431        9.269        2.755      359.880       72.153        0.040      337.575        9.637      856.698
12/22/2021  13:47:00     -372.247     -119.898      -39.925      156.914      164.281       99.177    24622.037    26988.206     9835.987       10.798        3.072      391.080       84.098        0.046      337.497        9.507      856.714
12/22/2021  13:48:00     -269.448     -134.091      -33.189      170.983      166.477       85.748    29235.095    27714.650     7352.762        7.798        3.215      300.969       86.096        0.082      337.489        9.495      856.712
12/22/2021  13:49:00     -416.763      -64.162      -44.973      220.153      183.411       85.081    48467.462    33639.753     7238.813       13.457        4.467      421.673       83.128        0.039      337.449        9.425      856.728
12/22/2021  13:50:00     -191.818      -46.228      -10.468      159.745       99.186       65.613    25518.424     9837.952     4305.053        3.934        1.983      197.309       74.386        0.142      337.538        9.578      856.758
12/22/2021  13:51:00     -357.877     -119.678      -59.757      193.736      136.807       96.667    37533.729    18716.057     9344.430       10.577        3.280      377.357       72.898        0.037      337.447        9.422      856.771
12/22/2021  13:52:00     -354.390     -142.790      -45.655      239.513      130.404       79.199    57366.329    17005.289     6272.428       11.434        4.032      382.075       92.017        0.058      337.469        9.460      856.781
12/22/2021  13:53:00     -322.878      -39.764      -30.325      220.321      141.322       68.377    48541.220    19971.791     4675.363        8.996        3.659      325.317       55.995        0.030      337.446        9.422      856.805
12/22/2021  13:54:00     -180.718      -25.221      -27.826      147.744       90.710       71.580    21828.165     8228.269     5123.641        3.462        1.759      182.469       58.034        0.101      337.569        9.629      856.877
12/22/2021  13:55:00     -124.929      -29.985      -26.643       86.146       73.419       51.891     7421.053     5390.349     2692.690        1.636        0.775      128.477       42.392        0.109      337.649        9.765      856.914
12/22/2021  13:56:00     -180.172      -54.145      -38.022      209.244       92.213       57.780    43782.951     8503.294     3338.574        4.622        2.781      188.132       64.838        0.119      337.653        9.770      856.943
12/22/2021  13:57:00     -333.516     -125.292      -34.784      137.666      148.430       86.758    18951.967    22031.366     7527.023        8.832        2.426      356.274       72.478        0.041      337.542        9.582      856.945
12/22/2021  13:58:00     -324.751      -97.927      -33.751      105.681      145.521       48.599    11168.560    21176.397     2361.852        7.544        1.735      339.195       38.797        0.013      337.520        9.545      856.961
12/22/2021  13:59:00     -281.483     -100.971      -24.915      149.334      126.595       62.030    22300.716    16026.221     3847.669        6.610        2.109      299.045       60.242        0.041      337.581        9.649      856.976
12/22/2021  14:00:00     -201.809      -10.730       -6.085      121.080       87.407       72.265    14660.342     7639.949     5222.205        3.420        1.376      202.094       74.956        0.138      337.643        9.754      857.005
12/22/2021  14:01:00     -155.571      -89.744      -22.120       94.483      123.928       57.203     8926.956    15358.034     3272.205        3.015        1.378      179.601       40.386        0.051      337.608        9.694      857.001
12/22/2021  14:02:00     -243.088     -198.425      -32.070      123.136      165.071       62.000    15162.391    27248.476     3844.027        7.287        2.313      313.790       53.203        0.029      337.517        9.540      856.968
12/22/2021  14:03:00     -272.155     -194.638      -35.616      137.885      137.553       68.229    19012.177    18920.901     4655.206        7.790        2.129      334.592       64.640        0.037      337.429        9.392      856.938
12/22/2021  14:04:00     -361.971     -323.357      -57.071      203.958      210.722      105.632    41598.780    44403.818    11158.137       16.798        4.858      485.369       76.687        0.025      337.334        9.236      856.875
12/22/2021  14:05:00     -291.904      -98.564      -21.363      190.702      173.037       70.251    36367.259    29941.853     4935.177        8.330        3.562      308.096       72.508        0.055      337.366        9.289      856.847
12/22/2021  14:06:00     -420.982       -8.126      -37.897      201.726      158.643       83.325    40693.472    25167.739     6943.032       12.575        3.640      421.060       68.984        0.027      337.292        9.165      856.884
12/22/2021  14:07:00     -302.140     -130.026      -39.141      152.430      141.109       82.820    23234.805    19911.612     6859.213        7.986        2.500      328.931       54.715        0.028      337.292        9.164      856.896
12/22/2021  14:08:00     -343.541      -30.374      -43.570      223.006      146.634      105.423    49731.722    21501.460    11113.914       10.158        4.117      344.881       96.738        0.079      337.248        9.091      856.812
12/22/2021  14:09:00     -443.381      -49.305      -40.267      216.665      156.153      102.048    46943.834    24383.670    10413.764       14.118        4.087      446.114       89.194        0.040      337.241        9.081      856.800
12/22/2021  14:10:00     -225.993      -11.160      -14.489      197.138      184.623       96.594    38863.325    34085.638     9330.378        6.683        4.114      226.269       54.665        0.058      337.244        9.086      856.784
12/22/2021  14:11:00     -503.025      -41.113      -49.622      373.916      203.234      130.186   139813.244    41304.039    16948.310       22.759        9.903      504.703      146.435        0.084      337.172        8.965      856.728
12/22/2021  14:12:00     -421.393      -17.134      -42.848      312.544      208.056      111.708    97683.647    43287.423    12478.670       16.655        7.672      421.741      129.789        0.095      337.141        8.913      856.709
12/22/2021  14:13:00     -107.492       32.438       10.649      167.472      138.057       98.279    28046.920    19059.854     9658.754        3.473        2.838      112.280       75.790        0.456      337.209        9.028      856.704
12/22/2021  14:14:00     -230.084        9.976       -0.353      285.779      125.261       99.468    81669.508    15690.347     9893.940        8.013        5.363      230.301      104.668        0.207      337.155        8.936      856.668
12/22/2021  14:15:00     -413.370       60.529      -38.015      241.448      174.918      101.879    58297.369    30596.467    10379.408       13.761        4.964      417.778       92.227        0.049      337.097        8.838      856.634
12/22/2021  14:16:00     -328.484       84.674        4.687      224.340      161.571       94.160    50328.467    26105.228     8866.023       10.018        4.265      339.222      100.539        0.088      337.123        8.881      856.664
12/22/2021  14:17:00     -356.222      -22.619      -21.184      261.165      127.646      111.989    68207.282    16293.440    12541.575       11.243        4.852      356.940      127.792        0.128      337.028        8.722      856.706
12/22/2021  14:18:00     -417.350       55.278      -24.083      183.129      148.237      101.984    33536.325    21974.309    10400.750       12.185        3.296      420.995       89.408        0.045      336.929        8.556      856.714
12/22/2021  14:19:00     -345.178       39.497       -9.336      141.907      177.841       84.808    20137.683    31627.352     7192.389        8.987        2.948      347.431       56.251        0.026      336.965        8.617      856.730
12/22/2021  14:20:00     -361.916       61.061       -6.580      279.171      169.917       96.851    77936.543    28871.900     9380.084       12.545        5.809      367.030       94.928        0.067      336.917        8.536      856.731
12/22/2021  14:21:00     -337.845       70.048        3.338      261.741      135.757      101.284    68508.407    18429.837    10258.546       10.811        4.860      345.030      105.335        0.093      336.913        8.531      856.760
12/22/2021  14:22:00     -392.399       98.251      -15.972      193.380      126.481       73.549    37395.807    15997.383     5409.525       11.133        2.940      404.513       69.395        0.029      336.925        8.549      856.748
12/22/2021  14:23:00     -638.925       65.041      -38.725      211.827      198.886      112.152    44870.746    39555.787    12578.110       25.546        4.850      642.227       99.741        0.024      336.764        8.282      856.738
12/22/2021  14:24:00     -233.025       26.437      -13.547      278.991      132.611      113.528    77835.875    17585.739    12888.565        8.173        5.416      234.519      104.864        0.200      336.819        8.373      856.734
12/22/2021  14:25:00     -327.398       87.308        2.014      216.522      164.456      100.726    46881.625    27045.744    10145.738        9.943        4.204      338.840      101.786        0.090      336.788        8.321      856.785
12/22/2021  14:26:00     -347.765       13.690      -18.769      172.575      134.407       86.423    29782.146    18065.337     7468.885        8.839        2.766      348.035       76.612        0.048      336.778        8.305      856.798
12/22/2021  14:27:00     -148.125       -6.540      -17.979      224.421      123.124       88.651    50364.622    15159.523     7859.020        4.783        3.669      148.269      102.887        0.482      336.819        8.373      856.809
12/22/2021  14:28:00     -516.443      -80.789      -32.717      249.518      196.742      138.391    62259.172    38707.364    19151.966       19.719        6.006      522.724      139.817        0.072      336.850        8.425      856.826
12/22/2021  14:29:00     -458.170      -20.958      -28.878      235.279      147.945      112.337    55356.084    21887.668    12619.679       15.051        4.493      458.649      113.979        0.062      336.951        8.593      856.876
12/22/2021  14:30:00     -280.000        7.857       -4.836      217.050      118.535       97.145    47110.856    14050.543     9437.082        7.453        3.530      280.110      103.681        0.137      337.020        8.710      856.880
12/22/2021  14:31:00     -363.702        6.370      -45.931      181.831      135.620       97.542    33062.668    18392.656     9514.390        9.769        3.048      363.758       98.685        0.074      336.954        8.601      856.877
12/22/2021  14:32:00     -521.743      -15.010      -62.157      140.207      143.193       68.037    19658.036    20504.187     4629.039       16.054        2.240      521.959       51.087        0.010      336.905        8.518      856.898
12/22/2021  14:33:00     -283.405      -22.863      -34.643      135.736       97.446       77.700    18424.351     9495.784     6037.253        5.799        1.698      284.326       61.229        0.046      336.948        8.589      856.906
12/22/2021  14:34:00     -420.465     -117.168      -36.522      291.699      181.971      136.284    85088.034    33113.501    18573.387       16.429        6.839      436.485      137.038        0.099      336.945        8.584      856.898
12/22/2021  14:35:00     -348.043      -18.011      -24.859      210.758      160.864       78.875    44418.770    25877.242     6221.340        9.928        3.826      348.509       70.897        0.041      336.993        8.663      856.867
12/22/2021  14:36:00     -309.305       23.881       -5.115      254.254      113.631       81.873    64644.952    12912.092     6703.213        9.025        4.213      310.225       94.706        0.093      337.046        8.752      856.825
12/22/2021  14:37:00     -282.048      -41.459      -11.235      173.868      151.033       86.990    30230.223    22811.039     7567.298        7.099        3.030      285.078       73.917        0.067      337.037        8.736      856.759
12/22/2021  14:38:00     -365.623     -111.433      -35.306      238.679      195.290       89.115    56967.813    38138.322     7941.523       12.518        5.152      382.227      105.509        0.076      337.050        8.759      856.677
12/22/2021  14:39:00     -539.904      -13.217      -17.325      267.389      189.742      103.839    71496.965    36002.104    10782.540       20.510        5.914      540.066      102.887        0.036      337.017        8.703      856.678
12/22/2021  14:40:00     -505.925       55.214      -27.275      352.659      196.732      121.978   124368.139    38703.509    14878.730       21.882        8.898      508.929      123.335        0.059      337.045        8.752      856.672
12/22/2021  14:41:00     -368.642      -58.165      -20.391      258.931      224.482      106.871    67045.345    50392.305    11421.458       13.425        6.443      373.203      110.389        0.087      337.025        8.717      856.655
12/22/2021  14:42:00     -485.872       27.099      -20.127      262.370      210.996      112.943    68838.180    44519.356    12756.059       18.164        6.306      486.627      112.357        0.053      337.011        8.694      856.689
12/22/2021  14:43:00     -632.713      -29.950      -22.831      292.533      211.229      122.926    85575.830    44617.795    15110.708       27.350        7.265      633.421      120.523        0.036      337.001        8.676      856.655
12/22/2021  14:44:00     -315.217       -7.841       -6.580      240.605      198.259      129.649    57890.778    39306.485    16808.974       10.672        5.700      315.315      100.680        0.102      337.091        8.827      856.655
12/22/2021  14:45:00     -529.507      -12.729      -23.824      295.949      198.751      136.165    87585.807    39501.861    18541.033       21.334        7.281      529.660      109.836        0.043      337.077        8.803      856.616
12/22/2021  14:46:00     -293.657       60.025        6.936      253.313      191.400      110.298    64167.718    36633.878    12165.611       10.141        5.648      299.729      104.916        0.123      337.128        8.892      856.638
12/22/2021  14:47:00     -556.604      -40.316      -20.458      432.750      216.572      169.331   187272.704    46903.418    28673.061       28.730       13.142      558.062      186.035        0.111      336.964        8.615      856.662
12/22/2021  14:48:00     -152.692       -2.523      -16.380      211.942      143.575      116.084    44919.436    20613.768    13475.474        5.128        3.950      152.713      100.188        0.430      337.011        8.695      856.657
12/22/2021  14:49:00     -331.681      -16.043      -14.384      263.971      178.577      113.714    69680.444    31889.605    12930.931       11.247        5.725      332.069      113.319        0.116      336.965        8.617      856.672
12/22/2021  14:50:00     -532.826       36.379      -24.229      362.651      217.009      145.934   131515.781    47093.042    21296.588       24.282        9.995      534.067      151.763        0.081      336.907        8.520      856.682
12/22/2021  14:51:00     -317.720       81.283       -2.116      318.118      196.958      137.662   101199.280    38792.596    18950.886       13.322        7.947      327.953      117.180        0.128      336.972        8.629      856.682
12/22/2021  14:52:00     -220.141        3.655      -14.241      279.353      139.973       93.123    78038.351    19592.455     8671.842        7.747        5.315      220.172      101.174        0.211      336.939        8.574      856.733
12/22/2021  14:53:00     -483.299       56.313      -22.869      305.661      185.079      110.823    93428.627    34254.373    12281.768       18.859        6.998      486.568       99.515        0.042      336.918        8.539      856.750
12/22/2021  14:54:00     -447.868       41.047        4.383      388.693      213.107      143.835   151081.922    45414.469    20688.638       20.970       10.859      449.745      143.711        0.102      336.972        8.630      856.743
12/22/2021  14:55:00     -734.766      -56.449      -40.406      349.682      253.017      160.815   122277.246    64017.526    25861.381       37.839       10.608      736.931      163.777        0.049      336.962        8.612      856.734
12/22/2021  14:56:00     -343.134        0.349      -21.639      263.529      169.319      118.875    69447.353    28668.935    14131.172       11.521        5.612      343.134      137.140        0.160      336.994        8.666      856.820
12/22/2021  14:57:00     -386.183      -98.795      -48.945      302.300      218.337      129.568    91385.182    47670.901    16787.918       15.854        7.792      398.620      104.649        0.069      336.935        8.568      856.781
12/22/2021  14:58:00     -528.898      -41.300      -34.251      229.980      185.795      122.663    52890.934    34519.653    15046.325       19.252        5.123      530.508      113.459        0.046      336.866        8.450      856.717
12/22/2021  14:59:00     -397.839      -16.590       -4.867      318.644      167.460      145.397   101534.178    28042.699    21140.165       15.462        7.536      398.184      161.389        0.164      336.786        8.318      856.660
12/22/2021  15:00:00     -386.844      -63.531      -30.449      246.166      138.235      108.680    60597.636    19109.015    11811.256       12.305        4.576      392.027      123.353        0.099      336.735        8.233      856.705
12/22/2021  15:01:00     -423.302       24.471      -21.033      251.471      138.062      101.906    63237.632    19061.133    10384.867       13.644        4.634      424.008      115.885        0.075      336.684        8.147      856.699
12/22/2021  15:02:00     -516.079      -32.627      -15.817      332.084      210.744      128.935   110279.660    44413.067    16624.312       21.945        8.566      517.110      125.501        0.059      336.683        8.147      856.704
12/22/2021  15:03:00     -581.803       43.708      -14.819      388.446      215.066      167.349   150890.679    46253.199    28005.779       28.285       11.257      583.442      193.710        0.110      336.669        8.123      856.678
12/22/2021  15:04:00     -480.361       -3.293       -2.574      316.108      182.379      154.079    99924.144    33262.268    23740.312       19.382        7.846      480.372      147.013        0.094      336.582        7.980      856.669
12/22/2021  15:05:00     -367.781       44.248      -10.635      251.649      179.497      126.074    63327.335    32219.233    15894.604       12.437        5.572      370.433      122.283        0.109      336.554        7.932      856.679
12/22/2021  15:06:00     -454.210       11.739       -3.301      310.223      174.797      137.478    96238.571    30554.162    18900.235       17.605        7.285      454.362      141.220        0.097      336.498        7.839      856.660
12/22/2021  15:07:00     -214.432       -8.689        3.922      332.918      197.450      173.137   110834.550    38986.525    29976.377       11.290        8.990      214.608      164.974        0.591      336.452        7.759      856.643
12/22/2021  15:08:00     -316.781       40.891      -15.442      346.738      185.360      136.318   120227.113    34358.216    18582.645       13.768        8.658      319.409       96.998        0.092      336.380        7.640      856.635
12/22/2021  15:09:00     -403.964       28.935        3.677      357.390      217.961      149.314   127727.278    47507.075    22294.819       18.075        9.876      404.999      155.226        0.147      336.286        7.481      856.616
12/22/2021  15:10:00     -300.853       22.165      -36.737      293.457      196.942      108.045    86117.049    38786.336    11673.636       11.444        6.829      301.668      101.359        0.113      336.319        7.537      856.659
12/22/2021  15:11:00     -314.577       -9.175      -40.109      273.549      170.507      113.578    74829.222    29072.700    12899.943       10.871        5.840      314.711      119.532        0.144      336.275        7.464      856.659
12/22/2021  15:12:00     -256.171       40.429      -35.307      308.468      210.647      124.929    95152.364    44372.291    15607.307       11.179        7.757      259.341      108.190        0.174      336.245        7.413      856.655
12/22/2021  15:13:00     -193.670       51.277       -0.100      231.982      187.976      101.872    53815.652    35334.980    10377.933        6.981        4.976      200.343       94.395        0.222      336.251        7.425      856.661
12/22/2021  15:14:00     -431.770       14.613       -4.459      290.340      182.501      116.379    84297.062    33306.509    13543.960       15.888        6.557      432.017      107.756        0.062      336.198        7.336      856.694
12/22/2021  15:15:00     -669.965       25.437      -23.061      293.875      171.357      134.184    86362.532    29363.258    18005.335       29.186        6.687      670.448      145.451        0.047      336.119        7.202      856.688
12/22/2021  15:16:00     -293.502      -31.404       -3.948      279.257      168.242      114.219    77984.314    28305.442    13045.868       10.322        5.967      295.177      130.462        0.195      336.172        7.292      856.708
12/22/2021  15:17:00     -421.962       -1.444        9.423      311.200      165.804      124.907    96845.399    27490.810    15601.757       15.901        6.997      421.965      137.823        0.107      336.163        7.277      856.771
12/22/2021  15:18:00     -463.414       29.860      -13.475      206.196      145.961       97.476    42516.837    21304.559     9501.481       14.456        3.666      464.375       95.825        0.043      336.148        7.252      856.794
12/22/2021  15:19:00     -206.133       66.577      -15.818      193.215      150.026       89.941    37332.053    22507.947     8089.454        5.754        3.396      216.618       81.126        0.140      336.222        7.374      856.731
12/22/2021  15:20:00     -317.107       41.182      -25.554      249.751      189.560      110.837    62375.729    35932.941    12284.784       10.673        5.530      319.770       89.801        0.079      336.245        7.414      856.634
12/22/2021  15:21:00     -496.603       -6.900       -3.835      343.124      209.863      150.514   117734.022    44042.543    22654.582       21.552        9.222      496.651      160.904        0.105      336.259        7.438      856.628
12/22/2021  15:22:00     -370.053      -48.436      -10.025      327.004      167.170      133.396   106931.903    27945.941    17794.421       14.600        7.634      373.209      130.927        0.123      336.304        7.511      856.584
12/22/2021  15:23:00     -104.648       19.580       -7.844      166.610       96.610       88.361    27758.737     9333.454     7807.754        2.814        2.245      106.464       77.948        0.536      336.341        7.576      856.600
12/22/2021  15:24:00     -221.962       -3.048      -21.999      180.375      120.345       85.741    32535.043    14482.926     7351.582        5.205        2.718      221.983       83.804        0.143      336.351        7.593      856.584
12/22/2021  15:25:00     -204.692       58.783       -6.052      208.865      117.082       86.525    43624.403    13708.148     7486.636        5.509        3.241      212.965       88.545        0.173      336.314        7.531      856.547
12/22/2021  15:26:00     -492.919      -15.143      -16.086      246.123      173.682       85.283    60576.413    30165.349     7273.142       17.072        4.901      493.152      101.979        0.043      336.268        7.452      856.573
12/22/2021  15:27:00     -334.168      -35.477      -43.801      197.772      166.680      107.207    39113.582    27782.315    11493.414        9.660        3.919      336.046       97.938        0.085      336.264        7.446      856.618
12/22/2021  15:28:00     -289.415      -12.947       -4.724      269.852      153.975      122.641    72819.982    23708.354    15040.721        9.774        5.578      289.704      122.345        0.178      336.203        7.345      856.634
12/22/2021  15:29:00     -350.268       42.435      -18.450      265.571      155.081      107.856    70527.869    24050.041    11632.975       11.550        5.311      352.829      121.449        0.118      336.202        7.342      856.629
12/22/2021  15:30:00     -397.583       92.668      -20.637      193.341      133.105       86.661    37380.581    17716.904     7510.151       11.483        3.130      408.239       81.502        0.040      336.250        7.423      856.620
12/22/2021  15:31:00     -274.536        4.903      -19.409      200.826      100.392       81.584    40330.982    10078.482     6655.914        6.641        2.853      274.579       71.736        0.068      336.218        7.369      856.641
12/22/2021  15:32:00     -481.859       17.369        0.183      350.441      152.971      122.626   122808.854    23400.059    15037.141       19.684        8.062      482.172      146.645        0.092      336.182        7.308      856.683
12/22/2021  15:33:00     -561.759      -59.355      -28.636      290.242      173.046      127.759    84240.413    29944.803    16322.437       22.519        6.525      564.886      127.361        0.051      336.156        7.264      856.626
12/22/2021  15:34:00     -422.302       63.976        2.389      292.929      137.779      119.969    85807.437    18982.962    14392.458       15.079        5.959      427.120      133.030        0.097      336.155        7.265      856.658
12/22/2021  15:35:00     -435.900       12.955      -13.326      245.792      152.006      106.728    60413.916    23105.744    11390.924       14.261        4.746      436.092      120.419        0.076      336.201        7.339      856.606
12/22/2021  15:36:00     -392.377       -2.329       -5.033      265.874      188.025      138.011    70689.093    35353.315    19047.001       13.952        6.254      392.384      157.347        0.161      336.166        7.281      856.639
12/22/2021  15:37:00     -434.847      -32.345      -24.337      276.603      203.024      111.244    76509.019    41218.577    12375.134       16.039        6.505      436.048      128.600        0.087      336.235        7.398      856.606
12/22/2021  15:38:00     -477.052       -8.685       -6.884      220.536      198.324      102.316    48636.222    39332.304    10468.538       16.305        4.922      477.131      104.592        0.048      336.165        7.281      856.652
12/22/2021  15:39:00     -321.264      -33.011      -27.876      225.631      142.938      106.099    50909.545    20431.219    11256.926        9.382        4.130      322.956      105.532        0.107      336.159        7.269      856.666
12/22/2021  15:40:00     -166.675       37.155      -16.391      159.740      126.054       83.845    25516.786    15889.642     7030.006        3.892        2.422      170.767       48.093        0.079      336.142        7.243      856.722
12/22/2021  15:41:00     -227.017        3.227       -1.905      164.237      121.741       93.968    26973.634    14820.942     8829.958        5.108        2.531      227.040       87.340        0.148      336.127        7.216      856.708
12/22/2021  15:42:00     -328.328      -16.490      -23.193      135.796      114.124       86.015    18440.614    13024.399     7398.660        7.373        1.943      328.742       80.239        0.060      336.129        7.219      856.730
12/22/2021  15:43:00     -412.841        7.567      -28.698      140.007      126.118       84.772    19601.954    15905.713     7186.254       10.700        2.135      412.910       84.519        0.042      336.082        7.142      856.691
12/22/2021  15:44:00     -204.643        4.750      -19.475      153.939      107.091       61.452    23697.327    11468.495     3776.317        4.060        1.947      204.698       49.221        0.058      336.096        7.166      856.659
12/22/2021  15:45:00     -440.419      -77.852      -25.230      186.557      164.524      104.429    34803.472    27068.087    10905.360       13.671        3.639      447.247       98.564        0.049      336.104        7.178      856.606
12/22/2021  15:46:00     -306.179       21.321      -15.029      163.929      145.473       88.168    26872.644    21162.512     7773.598        7.511        2.790      306.920       61.460        0.040      336.099        7.171      856.645
12/22/2021  15:47:00     -346.868      -21.530      -17.983      202.969      122.655       88.807    41196.609    15044.353     7886.764        9.260        3.206      347.536       74.323        0.046      336.093        7.159      856.658
12/22/2021  15:48:00     -163.812       30.526       13.230      140.179      121.014       63.094    19650.245    14644.457     3980.810        3.310        1.914      166.632       63.058        0.143      336.152        7.258      856.656
12/22/2021  15:49:00     -271.617        5.120      -30.034      158.689      183.166      100.875    25182.265    33549.751    10175.828        7.179        3.445      271.666       91.269        0.113      336.015        7.029      856.637
12/22/2021  15:50:00     -192.590      -50.010       -7.655      218.040      122.590      111.795    47541.298    15028.316    12498.064        5.735        3.753      198.978      113.887        0.328      336.001        7.008      856.639
12/22/2021  15:51:00     -184.153      -46.206      -22.468      205.673      124.798      104.150    42301.452    15574.619    10847.119        5.262        3.436      189.861       89.718        0.223      335.985        6.982      856.638
12/22/2021  15:52:00     -121.856       15.343       -1.380      211.203      101.809       78.434    44606.624    10365.091     6151.822        3.809        3.056      122.818       91.694        0.557      336.010        7.024      856.668
12/22/2021  15:53:00     -239.553       -8.277       -1.492      124.278      119.380       89.901    15444.924    14251.468     8082.235        4.761        1.889      239.696       69.474        0.084      335.977        6.965      856.656
12/22/2021  15:54:00     -290.697      -29.315      -17.170      222.049      106.967       88.142    49305.807    11441.874     7768.993        7.708        3.426      292.171       92.464        0.100      335.985        6.980      856.613
12/22/2021  15:55:00     -422.473       -8.452      -31.743      173.746      103.453       83.507    30187.543    10702.621     6973.394       11.370        2.393      422.558       88.193        0.044      335.969        6.952      856.604
12/22/2021  15:56:00     -314.951      -18.692      -12.797      148.928      122.316       84.214    22179.576    14961.257     7091.981        7.196        2.212      315.505       87.202        0.076      335.957        6.935      856.609
12/22/2021  15:57:00     -351.962      -41.053      -12.263      177.907      124.424       89.117    31650.876    15481.273     7941.837        9.038        2.754      354.349       80.956        0.052      335.948        6.920      856.597
12/22/2021  15:58:00     -155.727       21.783        1.847      173.983       85.857       66.122    30270.182     7371.423     4372.096        3.336        2.101      157.243       74.651        0.225      336.028        7.053      856.563
12/22/2021  15:59:00     -344.748       45.436       -7.912      177.252      100.152       75.517    31418.311    10030.379     5702.873        8.406        2.358      347.729       70.323        0.041      336.032        7.059      856.443
12/22/2021  16:00:00     -281.105      -31.576      -45.623      174.171      156.030       89.398    30335.436    24345.476     7991.936        7.237        3.134      282.873       74.513        0.069      336.108        7.185      856.446
12/22/2021  16:01:00     -317.710       29.654      -19.599      258.492      123.394       63.506    66817.950    15226.045     4033.060        9.412        4.304      319.090       52.725        0.027      336.162        7.275      856.365
12/22/2021  16:02:00     -178.472       52.446       -8.299      183.267       93.301       69.469    33586.755     8705.125     4825.934        4.089        2.356      186.019       67.457        0.132      336.177        7.300      856.408
12/22/2021  16:03:00     -401.510        2.520      -18.526      192.923      116.037       95.835    37219.268    13464.555     9184.402       11.070        2.993      401.518       90.475        0.051      336.125        7.213      856.382
12/22/2021  16:04:00     -307.275       14.565      -18.160      139.757      122.324       75.909    19531.937    14963.194     5762.226        6.760        2.013      307.620       67.950        0.049      336.154        7.263      856.413
12/22/2021  16:05:00     -312.164      -24.112      -23.182      158.006       89.871       77.168    24965.772     8076.727     5954.861        6.877        1.950      313.094       62.307        0.040      336.136        7.230      856.409
12/22/2021  16:06:00     -456.912      -28.212      -44.841      104.241       96.644       64.679    10866.181     9340.121     4183.388       11.798        1.219      457.782       46.845        0.010      336.166        7.282      856.387
12/22/2021  16:07:00     -144.720       29.423        0.657      158.371       90.271       73.084    25081.220     8148.801     5341.266        3.018        1.929      147.681       71.579        0.235      336.199        7.335      856.379
12/22/2021  16:08:00     -132.149      -45.214      -23.258      192.018       83.348       60.380    36870.878     6946.965     3645.706        3.375        2.373      139.670       71.446        0.262      336.145        7.249      856.375
12/22/2021  16:09:00     -280.504       -2.600      -10.336      127.694      104.190       64.645    16305.771    10855.643     4178.936        5.506        1.567      280.516       65.639        0.055      336.086        7.147      856.331
12/22/2021  16:10:00     -152.979       31.015       -7.580      108.020       86.341       53.118    11668.349     7454.686     2821.547        2.318        1.097      156.092       51.627        0.109      336.100        7.173      856.294
12/22/2021  16:11:00     -210.869      -14.620      -26.427       73.125       86.772       46.126     5347.324     7529.395     2127.586        3.019        0.750      211.376       30.925        0.021      336.053        7.094      856.286
12/22/2021  16:12:00      -92.592       -3.062        1.295       97.428       66.050       49.320     9492.135     4362.641     2432.510        1.243        0.814       92.643       48.598        0.275      336.084        7.146      856.284
12/22/2021  16:13:00     -178.008       46.083      -17.058       82.566       71.711       48.857     6817.096     5142.447     2386.972        2.422        0.717      183.877       46.750        0.065      336.094        7.162      856.296
12/22/2021  16:14:00      -92.791       16.116       -6.162       72.009       62.168       31.540     5185.238     3864.869      994.748        0.947        0.502       94.180       35.437        0.142      336.071        7.124      856.290
12/22/2021  16:15:00     -149.437       19.963       -3.352       82.433       60.911       38.340     6795.279     3710.187     1469.929        1.736        0.599      150.764       38.660        0.066      336.043        7.078      856.318
12/22/2021  16:16:00     -230.916        7.728       -9.481      105.700      108.980       47.476    11172.465    11876.720     2253.968        3.938        1.265      231.045       39.415        0.029      336.022        7.042      856.344
12/22/2021  16:17:00      -91.064      -36.690       -4.033      117.360       56.680       51.905    13773.412     3212.636     2694.161        1.466        0.984       98.177       56.493        0.331      336.000        7.007      856.323
12/22/2021  16:18:00     -206.338      -27.158      -11.187      118.857       76.231       58.279    14126.943     5811.236     3396.451        3.338        1.167      208.118       58.920        0.080      335.974        6.962      856.325
12/22/2021  16:19:00     -244.410      -26.087       -4.580      144.490       89.985       74.283    20877.249     8097.345     5518.007        4.746        1.725      245.799       76.319        0.096      335.955        6.930      856.326
12/22/2021  16:20:00     -164.455       28.066      -10.059      122.988       65.059       51.151    15126.059     4232.701     2616.423        2.495        1.099      166.833       52.660        0.100      335.956        6.935      856.281
12/22/2021  16:21:00     -165.222       72.293      -18.436       76.674       64.927       38.296     5878.928     4215.455     1466.549        2.221        0.578      180.346       27.556        0.023      335.973        6.962      856.215
12/22/2021  16:22:00     -327.547       84.161      -25.050      122.081       97.573       63.416    14903.817     9520.482     4021.618        7.172        1.422      338.186       61.143        0.033      335.973        6.959      856.161
12/22/2021  16:23:00     -320.435       41.704      -35.152      132.084       83.099       59.286    17446.064     6905.392     3514.873        6.675        1.393      323.137       57.407        0.032      335.960        6.939      856.172
12/22/2021  16:24:00     -306.953       78.971      -26.771      157.372      100.640       66.032    24765.814    10128.387     4360.237        7.021        1.963      316.949       63.471        0.040      335.986        6.982      856.152
12/22/2021  16:25:00     -312.224       65.942      -10.286      174.168       92.541       64.242    30334.340     8563.750     4127.096        7.247        2.151      319.112       77.611        0.059      336.026        7.048      856.146
12/22/2021  16:26:00     -305.827       16.891      -23.770      146.321      107.394       62.645    21409.812    11533.478     3924.438        6.562        1.843      306.293       62.071        0.041      336.031        7.056      856.159
12/22/2021  16:27:00     -201.365       62.122       -9.107      184.699      106.914       70.803    34113.814    11430.597     5013.088        4.751        2.528      210.730       63.474        0.091      336.106        7.181      856.164
12/22/2021  16:28:00     -262.737       -5.598      -32.594      200.407       98.101       64.114    40162.845     9623.739     4110.564        6.200        2.695      262.797       39.688        0.023      336.102        7.176      856.176
12/22/2021  16:29:00     -313.957       81.496       -2.018      142.768       77.880       57.374    20382.751     6065.225     3291.744        6.747        1.487      324.362       54.423        0.028      336.037        7.067      856.162
12/22/2021  16:30:00     -299.983      107.553       -6.451      148.713       87.585       72.005    22115.600     7671.093     5184.703        6.828        1.749      318.681       74.456        0.055      336.066        7.115      856.144
12/22/2021  16:31:00     -254.308       59.231      -10.179      110.177       81.013       51.995    12138.988     6563.055     2703.474        4.484        1.070      261.114       45.855        0.031      336.022        7.043      856.143
12/22/2021  16:32:00     -269.592       65.568      -23.499       93.609      112.702       56.035     8762.710    12701.785     3139.874        5.106        1.230      277.451       39.615        0.020      336.040        7.071      856.117
12/22/2021  16:33:00     -246.454       55.430       -0.545      130.448      104.177       68.645    17016.759    10852.808     4712.160        4.819        1.629      252.611       65.374        0.067      336.042        7.074      856.060
12/22/2021  16:34:00     -192.278       57.221      -14.149      161.899      108.942       56.172    26211.207    11868.270     3155.350        4.083        2.062      200.612       72.785        0.132      336.181        7.307      856.072
12/22/2021  16:35:00     -207.859       -1.393       -4.031      139.232      135.068       84.505    19385.423    18243.327     7141.116        4.399        2.238      207.864       77.372        0.139      336.101        7.173      856.132
12/22/2021  16:36:00     -249.981       22.712       -1.335      135.744       86.010       57.862    18426.314     7397.730     3347.987        4.608        1.459      251.011       57.320        0.052      336.102        7.174      856.180
12/22/2021  16:37:00     -392.117      -44.819      -21.712      169.287      142.448       99.794    28658.128    20291.378     9958.761       10.756        2.945      394.670       87.361        0.049      336.178        7.302      856.192
12/22/2021  16:38:00     -281.209       59.940      -23.506      268.936      161.012       89.144    72326.743    25924.835     7946.576        9.469        5.310      287.526      102.403        0.127      336.235        7.399      856.150
12/22/2021  16:39:00     -359.546      105.806        2.204      164.015      128.946       82.383    26901.056    16627.162     6786.885        9.538        2.516      374.790       81.655        0.047      336.227        7.384      856.139
12/22/2021  16:40:00     -273.531       30.248      -35.279      226.010      124.211       88.001    51080.700    15428.408     7744.198        7.560        3.713      275.198       86.906        0.100      336.236        7.400      856.121
12/22/2021  16:41:00      -89.710        4.093        0.046      126.193       95.811       71.202    15924.579     9179.753     5069.792        1.911        1.509       89.803       63.660        0.503      336.275        7.468      856.148
12/22/2021  16:42:00     -339.322       64.556      -23.652      209.110      171.070       90.822    43727.135    29265.072     8248.665       10.054        4.062      345.409       85.031        0.061      336.351        7.590      856.159
12/22/2021  16:43:00     -243.527       35.394       -2.194      176.545      145.934       77.436    31168.189    21296.839     5996.408        5.950        2.923      246.086       76.465        0.097      336.328        7.553      856.176
12/22/2021  16:44:00     -473.663      -24.347      -41.847      306.327      188.900      121.770    93836.495    35683.056    14827.815       18.550        7.217      474.288      124.842        0.069      336.471        7.792      856.233
12/22/2021  16:45:00     -465.758       62.837      -22.548      277.897      169.275      117.489    77226.968    28654.076    13803.580       17.051        5.984      469.977       97.113        0.043      336.555        7.933      856.243
12/22/2021  16:46:00     -227.474        9.131       -3.790      194.622      106.606       92.814    37877.813    11364.861     8614.423        5.484        2.893      227.657       85.956        0.143      336.486        7.817      856.261
12/22/2021  16:47:00     -320.105       34.265      -19.921      146.863      119.592       83.524    21568.636    14302.349     6976.332        7.343        2.142      321.934       77.544        0.058      336.483        7.812      856.223
12/22/2021  16:48:00     -378.556       74.037      -16.345      216.835      165.719       97.990    47017.620    27462.733     9602.025       11.655        4.204      385.728       84.832        0.048      336.537        7.902      856.192
12/22/2021  16:49:00     -202.791       35.675       -4.798      166.078      135.066       76.104    27581.815    18242.858     5791.797        4.701        2.581      205.905       74.455        0.131      336.496        7.836      856.186
12/22/2021  16:50:00     -169.170      -10.808      -19.286      165.935       95.971       76.368    27534.520     9210.377     5832.000        3.583        2.129      169.515       66.392        0.153      336.461        7.775      856.160
12/22/2021  16:51:00     -292.306      -31.104      -16.746      158.422      105.196       71.143    25097.613    11066.100     5061.329        6.395        2.061      293.956       72.652        0.061      336.434        7.728      856.173
12/22/2021  16:52:00     -200.648      -19.377        6.069      152.048      109.855       70.545    23118.447    12068.029     4976.637        4.041        2.008      201.581       74.506        0.137      336.417        7.701      856.152
12/22/2021  16:53:00     -270.907       94.793       20.208      236.171      144.657       88.672    55776.782    20925.580     7862.673        8.366        4.228      287.013      109.743        0.146      336.463        7.778      856.124
12/22/2021  16:54:00     -262.631       -8.503      -10.106      147.951      121.721       69.308    21889.640    14815.916     4803.569        5.532        2.075      262.769       79.337        0.091      336.456        7.765      856.127
12/22/2021  16:55:00     -343.393       -4.392      -20.186      196.159      156.219       80.763    38478.226    24404.382     6522.664        9.386        3.470      343.422       76.203        0.049      336.478        7.803      856.115
12/22/2021  16:56:00     -201.693       57.118       12.197      133.130      108.058       73.010    17723.514    11676.515     5330.525        3.940        1.737      209.625       60.631        0.084      336.393        7.659      856.095
12/22/2021  16:57:00     -303.586       36.014      -19.121      171.411       82.501       63.419    29381.668     6806.431     4021.908        6.701        2.011      305.714       80.203        0.069      336.349        7.586      856.069
12/22/2021  16:58:00     -356.514       13.217      -22.846       99.173       93.800       57.876     9835.299     8798.482     3349.681        7.489        1.099      356.759       45.731        0.016      336.292        7.493      856.057
12/22/2021  16:59:00     -301.226       22.436      -18.590      160.725      123.031       76.500    25832.565    15136.664     5852.249        6.920        2.341      302.060       51.523        0.029      336.262        7.441      856.061
12/22/2021  17:00:00     -290.835       59.633      -23.071      115.189       73.224       63.471    13268.561     5361.751     4028.596        5.566        1.133      296.885       61.671        0.043      336.256        7.433      856.062
12/22/2021  17:01:00     -227.944       69.182      -27.482      113.779       73.937       52.981    12945.706     5466.753     2806.961        3.936        1.061      238.211       61.211        0.066      336.225        7.381      856.019
12/22/2021  17:02:00     -299.191      -14.878      -33.287      170.378      107.365       73.630    29028.591    11527.197     5421.371        6.840        2.299      299.561       53.990        0.032      336.216        7.366      856.003
12/22/2021  17:03:00     -298.632        9.002      -20.386      190.046       85.907       76.382    36117.549     7379.959     5834.195        6.950        2.467      298.768       89.225        0.089      336.191        7.323      855.978
12/22/2021  17:04:00     -268.783       21.925      -35.723      239.639      116.515       67.944    57427.069    13575.785     4616.390        7.480        3.781      269.676       75.662        0.079      336.175        7.298      855.969
12/22/2021  17:05:00     -357.895      -17.148      -28.235      190.116      103.868       81.954    36144.009    10788.494     6716.378        9.140        2.682      358.306       81.468        0.052      336.178        7.302      855.983
12/22/2021  17:06:00     -369.476       76.235      -10.477      221.817      136.977       84.661    49202.975    18762.603     7167.504       10.877        3.757      377.259       70.686        0.035      336.163        7.279      856.018
12/22/2021  17:07:00     -218.163       57.245      -21.984      199.354      114.596       61.886    39742.121    13132.257     3829.867        5.402        2.835      225.548       48.949        0.047      336.181        7.308      856.037
12/22/2021  17:08:00     -399.811       70.965      -26.347      155.794      102.734       79.114    24271.711    10554.370     6259.041       10.332        2.054      406.060       66.644        0.027      336.187        7.317      855.995
12/22/2021  17:09:00     -298.469       16.187       -3.820      184.994      121.018       88.465    34222.671    14645.456     7826.143        7.302        2.835      298.908       89.612        0.090      336.152        7.259      856.024
12/22/2021  17:10:00     -219.310       63.326        9.432      165.801      135.030       95.010    27489.900    18233.139     9026.926        5.346        2.737      228.269       76.010        0.111      336.214        7.364      856.050
12/22/2021  17:11:00     -289.849       85.200      -25.680      117.351      101.370       71.615    13771.146    10275.782     5128.660        6.055        1.459      302.112       56.595        0.035      336.163        7.275      856.018
12/22/2021  17:12:00     -256.937       14.088       -7.688      120.522      102.203       62.511    14525.638    10445.388     3907.632        4.757        1.444      257.323       56.050        0.047      336.143        7.243      856.007
12/22/2021  17:13:00     -107.486      -18.334        7.964      154.690       92.956       78.907    23929.014     8640.834     6226.240        2.537        1.940      109.038       81.680        0.561      336.134        7.229      855.993
12/22/2021  17:14:00     -285.937       29.999      -20.260      229.125      131.390       69.854    52498.431    17263.213     4879.575        7.884        3.732      287.507       78.395        0.074      336.171        7.290      855.961
12/22/2021  17:15:00     -282.073       75.269       -4.405      203.194      116.952       81.368    41287.940    13677.730     6620.780        7.341        3.079      291.943       88.249        0.091      336.075        7.130      855.957
12/22/2021  17:16:00     -243.768       17.623       13.725      208.194      108.927       71.810    43344.732    11865.105     5156.710        6.013        3.018      244.404       88.128        0.130      336.034        7.062      855.971
12/22/2021  17:17:00     -235.408       37.075       -9.964      206.358      104.524       65.646    42583.519    10925.232     4309.442        5.734        2.891      238.309       69.458        0.085      336.049        7.085      856.008
12/22/2021  17:18:00     -284.535      -14.483      -35.317      183.685      135.700       96.743    33740.088    18414.499     9359.243        7.195        3.076      284.903       90.980        0.102      336.054        7.094      856.025
12/22/2021  17:19:00     -271.234       45.972      -26.140      113.245      119.989       51.579    12824.525    14397.345     2660.350        5.312        1.494      275.103       28.252        0.011      336.036        7.063      856.008
12/22/2021  17:20:00     -305.486       46.279      -11.154      194.146       88.497       62.330    37692.573     7831.637     3885.046        7.249        2.470      308.971       66.220        0.046      336.011        7.025      856.023
12/22/2021  17:21:00     -242.878       31.958      -18.792      163.371       94.832       67.446    26690.200     8993.090     4548.932        5.029        2.012      244.971       77.121        0.099      336.029        7.055      856.032
12/22/2021  17:22:00     -265.834      -62.805      -19.342      166.204      124.450       79.554    27623.731    15487.837     6328.837        6.220        2.472      273.152       80.665        0.087      336.035        7.063      856.035
12/22/2021  17:23:00     -254.699       -4.190      -16.886      167.255      105.017       74.649    27974.077    11028.492     5572.517        5.487        2.229      254.734       71.121        0.078      336.016        7.034      856.016
12/22/2021  17:24:00     -197.132       -4.619      -10.692      116.273       55.279       66.214    13519.326     3055.719     4384.288        2.997        1.048      197.186       49.284        0.062      336.004        7.013      856.009
12/22/2021  17:25:00     -220.684       30.408      -14.680       86.324       92.270       49.656     7451.848     8513.689     2465.749        3.413        0.922      222.769       46.176        0.043      336.001        7.007      856.084
12/22/2021  17:26:00     -122.474      -28.603       -6.997      109.843       86.304       66.279    12065.473     7448.372     4392.944        1.988        1.195      125.770       63.045        0.251      336.001        7.009      856.135
12/22/2021  17:27:00     -119.327       43.265        3.940      113.521       99.098       66.962    12887.110     9820.486     4483.848        2.165        1.360      126.929       55.322        0.190      336.038        7.070      856.101
12/22/2021  17:28:00     -283.945      -21.938      -25.331      140.466      100.477       50.833    19730.705    10095.689     2583.976        5.707        1.621      284.791       53.021        0.035      336.009        7.021      856.108
12/22/2021  17:29:00     -250.561      -65.384      -22.170       96.868       94.914       53.480     9383.373     9008.677     2860.077        4.440        1.063      258.952       45.844        0.031      336.021        7.039      856.115
12/22/2021  17:30:00     -266.355      -42.097      -26.601      114.753       73.227       53.455    13168.162     5362.245     2857.400        4.740        1.069      269.661       49.260        0.033      336.014        7.027      856.094
12/22/2021  17:31:00     -133.445      -10.004      -16.347       70.935       61.944       48.302     5031.775     3837.027     2333.079        1.469        0.560      133.820       40.803        0.093      335.985        6.983      856.091
12/22/2021  17:32:00     -204.025      -11.106      -17.098      115.467       93.392       56.118    13332.539     8722.055     3149.188        3.362        1.260      204.327       55.438        0.074      335.981        6.974      856.096
12/22/2021  17:33:00     -131.755       -1.910       -6.175      127.573       77.529       44.630    16274.804     6010.696     1991.799        2.083        1.214      131.769       55.380        0.177      335.960        6.942      856.113
12/22/2021  17:34:00      -89.492       61.868       11.287       90.297       80.772       53.981     8153.461     6524.127     2913.958        1.477        0.880      108.796       44.404        0.167      335.982        6.977      856.100
12/22/2021  17:35:00     -123.158       -4.401       -3.129       78.552       57.963       46.715     6170.464     3359.707     2182.249        1.345        0.586      123.237       45.157        0.134      335.971        6.960      856.115
12/22/2021  17:36:00      -65.320       29.507      -13.465       71.814       46.092       31.341     5157.213     2124.436      982.271        0.679        0.413       71.676       32.214        0.202      336.005        7.018      856.122
12/22/2021  17:37:00     -182.620       55.750      -10.402      140.967      133.807       85.611    19871.800    17904.370     7329.159        4.083        2.255      190.941       62.456        0.107      336.060        7.106      856.105
12/22/2021  17:38:00     -148.549       20.409       -0.764      135.028       73.522       66.033    18232.641     5405.454     4360.316        2.524        1.400      149.945       67.825        0.205      336.032        7.060      856.051
12/22/2021  17:39:00     -295.094      131.192      -14.232      195.136      128.029       92.848    38077.987    16391.422     8620.776        8.378        3.155      322.943       94.261        0.085      336.061        7.107      856.002
12/22/2021  17:40:00     -206.204       88.467        0.281      131.729      102.130       66.787    17352.599    10430.452     4460.528        4.129        1.612      224.381       64.796        0.083      336.055        7.097      855.972
12/22/2021  17:41:00     -224.883       31.090       -7.207      136.399       83.293       56.902    18604.631     6937.772     3237.808        4.018        1.439      227.021       52.548        0.054      335.993        6.995      856.040
12/22/2021  17:42:00     -296.097       43.481      -13.270      159.673      120.784       80.435    25495.622    14588.881     6469.720        6.814        2.328      299.272       84.549        0.080      336.048        7.084      856.031
12/22/2021  17:43:00     -284.530       95.545      -18.407      256.103      132.949       85.679    65588.722    17675.320     7340.939        9.050        4.530      300.144      103.960        0.120      336.192        7.326      855.959
12/22/2021  17:44:00     -304.126       21.013      -11.942      177.340      111.890       69.718    31449.627    12519.449     4860.658        7.094        2.441      304.851       65.565        0.046      336.159        7.270      855.911
12/22/2021  17:45:00     -292.692       -7.485      -14.726      201.105      137.598      104.711    40443.084    18933.125    10964.350        7.813        3.517      292.788      104.284        0.127      336.228        7.385      855.888
12/22/2021  17:46:00     -366.895       -1.250      -14.483      203.495      118.743       91.614    41410.240    14099.843     8393.150        9.935        3.195      366.897       84.621        0.053      336.214        7.363      855.887
12/22/2021  17:47:00     -222.254        5.626       -4.566      180.713      101.483       73.445    32657.185    10298.887     5394.203        4.889        2.418      222.325       70.774        0.101      336.198        7.337      855.895
12/22/2021  17:48:00     -145.737       41.988       -2.329       95.523       71.725       56.182     9124.736     5144.458     3156.392        2.021        0.871      151.665       49.653        0.107      336.196        7.333      855.883
12/22/2021  17:49:00      -87.765       18.542      -12.338      100.036       73.830       59.860    10007.170     5450.926     3583.220        1.362        0.952       89.703       51.862        0.334      336.126        7.216      855.883
12/22/2021  17:50:00     -331.736       20.281      -18.126      191.083       91.320       68.483    36512.893     8339.262     4689.899        8.016        2.477      332.356       83.141        0.063      336.108        7.185      855.901
12/22/2021  17:51:00     -370.063       50.189      -29.325      129.643       99.340       57.133    16807.396     9868.417     3264.138        8.513        1.497      373.451       52.982        0.020      336.080        7.137      855.916
12/22/2021  17:52:00     -227.335       24.300      -14.667      131.551       98.489       80.190    17305.673     9700.170     6430.409        4.296        1.672      228.630       74.336        0.106      336.039        7.071      855.900
12/22/2021  17:53:00     -192.745       24.448       -9.245       95.621       82.611       55.573     9143.303     6824.557     3088.388        2.844        0.953      194.289       46.907        0.058      335.997        7.001      855.922
12/22/2021  17:54:00     -212.323       52.860      -19.052       93.017       90.347       48.842     8652.141     8162.496     2385.520        3.372        0.960      218.804       39.211        0.032      335.969        6.953      855.945
12/22/2021  17:55:00      -77.346       36.757      -13.607       99.474       87.796       55.857     9895.049     7708.130     3119.959        1.412        1.036       85.636       34.889        0.166      336.005        7.015      855.945
12/22/2021  17:56:00      -72.287      -15.766       -7.171       99.887       98.459       63.514     9977.480     9694.164     4034.024        1.461        1.185       73.987       46.028        0.387      335.992        6.995      855.953
12/22/2021  17:57:00     -100.212      -22.399       -4.792      142.709       83.106       71.891    20365.970     6906.623     5168.379        2.150        1.622      102.685       41.970        0.167      335.881        6.810      855.985
12/22/2021  17:58:00     -207.839       -1.309      -22.617      144.481       83.308       66.442    20874.823     6940.248     4414.535        3.796        1.611      207.843       61.508        0.088      335.924        6.879      856.027
12/22/2021  17:59:00     -376.335      -28.567      -11.751      142.386      100.841       80.210    20273.850    10168.879     6433.693        8.972        1.844      377.417       82.748        0.048      335.998        7.001      856.087
12/22/2021  18:00:00     -190.970       24.502       -9.458      105.483       85.246       47.125    11126.610     7266.885     2220.727        2.888        1.031      192.535       45.970        0.057      335.956        6.934      856.138
12/22/2021  18:01:00     -275.440       27.946      -18.058       97.096      122.861       55.255     9427.552    15094.734     3053.092        5.227        1.379      276.854       46.037        0.028      335.961        6.939      856.149
12/22/2021  18:02:00     -350.124       30.585      -23.191      135.907       94.643       69.045    18470.755     8957.320     4767.280        7.812        1.610      351.458       66.920        0.036      335.944        6.912      856.213
12/22/2021  18:03:00     -242.000       -2.883      -17.760      129.544       88.501       61.831    16781.615     7832.382     3823.066        4.366        1.422      242.018       55.285        0.052      335.947        6.917      856.195
12/22/2021  18:04:00     -184.152       -7.284      -25.519      125.595      104.075       53.759    15774.208    10831.599     2890.067        3.205        1.475      184.296       57.424        0.097      336.139        7.235      856.179
12/22/2021  18:05:00     -259.359     -138.008      -29.567      106.850      154.955       61.083    11416.869    24011.126     3731.106        6.317        1.958      293.791       52.842        0.032      336.038        7.069      856.232
12/22/2021  18:06:00     -473.455     -261.204      -76.559      176.558      259.471       85.615    31172.832    67325.092     7329.863       20.202        5.291      540.728       79.926        0.022      336.364        7.613      856.138
12/22/2021  18:07:00     -364.269      -39.025      -34.665      129.008      143.000       68.588    16642.970    20448.966     4704.288        8.860        2.090      366.354       66.410        0.033      336.401        7.674      856.141
12/22/2021  18:08:00     -281.751       25.331       -6.870      187.926      101.435       80.526    35316.317    10289.075     6484.373        6.607        2.604      282.887       84.358        0.089      336.165        7.280      856.159
12/22/2021  18:09:00     -159.226      -30.579       -2.631      128.723       76.878       73.953    16569.493     5910.292     5469.040        2.712        1.397      162.135       77.961        0.231      336.016        7.034      856.174
12/22/2021  18:10:00     -193.764       53.983      -14.923      105.603       80.704       52.407    11152.091     6513.142     2746.501        3.054        1.021      201.143       47.072        0.055      335.910        6.855      856.166
12/22/2021  18:11:00     -252.974        1.917      -17.252      148.296      102.099       70.850    21991.572    10424.304     5019.741        5.086        1.872      252.981       58.912        0.054      335.875        6.797      856.133
12/22/2021  18:12:00     -153.697       13.158       -8.063      139.058       80.401       59.516    19337.061     6464.283     3542.156        2.660        1.467      154.259       48.285        0.098      335.920        6.873      856.109
12/22/2021  18:13:00     -313.249      -21.791      -25.367      132.049      117.048       82.169    17436.846    13700.326     6751.715        6.856        1.894      314.006       71.651        0.052      335.972        6.959      856.068
12/22/2021  18:14:00     -261.133       13.766      -12.880      155.180      103.493       75.183    24080.964    10710.820     5652.432        5.449        2.022      261.495       78.442        0.090      335.942        6.910      856.028
12/22/2021  18:15:00     -199.027        0.699       -2.470      193.364      131.827       72.496    37389.565    17378.486     5255.722        4.981        3.001      199.028       71.921        0.131      335.906        6.849      856.009
12/22/2021  18:16:00     -213.760       51.201       -2.533      145.855      124.413       60.797    21273.816    15478.533     3696.245        4.438        2.022      219.806       37.481        0.029      335.893        6.829      855.996
12/22/2021  18:17:00     -212.671        7.037      -18.956      138.469      111.027       65.632    19173.612    12326.959     4307.524        4.072        1.790      212.787       57.861        0.074      335.950        6.923      855.979
12/22/2021  18:18:00     -272.648        6.432      -15.760      168.620      107.844       71.023    28432.817    11630.309     5044.241        5.986        2.255      272.724       72.943        0.072      335.884        6.812      855.981
12/22/2021  18:19:00     -238.614       -1.031       11.660      172.300      104.376       81.237    29687.224    10894.410     6599.494        5.212        2.359      238.616       83.785        0.123      335.840        6.740      855.997
12/22/2021  18:20:00     -118.801       52.705        6.876      135.092       80.522       52.356    18249.916     6483.720     2741.181        2.220        1.374      129.967       58.915        0.205      335.825        6.716      856.028
12/22/2021  18:21:00     -156.180       -0.908       -6.927      135.212       83.794       67.975    18282.240     7021.479     4620.643        2.718        1.496      156.183       63.432        0.165      335.775        6.632      856.069
12/22/2021  18:22:00     -206.226       19.186      -29.276      157.733       94.766       60.232    24879.544     8980.672     3627.850        4.061        1.874      207.117       55.913        0.073      335.730        6.557      856.066
12/22/2021  18:23:00     -145.288       20.176        6.469       88.290      111.412       54.660     7795.104    12412.545     2987.678        2.237        1.160      146.682       51.798        0.125      335.774        6.629      856.064
12/22/2021  18:24:00     -214.402      -44.604      -30.163      153.192       72.556       59.638    23467.885     5264.372     3556.717        4.057        1.614      218.992       45.298        0.043      335.754        6.596      856.079
12/22/2021  18:25:00     -257.463       13.097      -18.029      109.054       94.201       54.536    11892.740     8873.809     2974.194        4.526        1.187      257.796       45.006        0.030      335.702        6.509      856.130
12/22/2021  18:26:00     -218.790       -1.806      -21.587      170.484       97.781       62.477    29064.697     9561.202     3903.321        4.543        2.126      218.797       60.458        0.076      335.669        6.454      856.238
12/22/2021  18:27:00     -167.861      -19.873      -19.968      166.551       95.153       73.343    27739.334     9054.166     5379.165        3.556        2.109      169.033       77.921        0.213      335.659        6.438      856.249
12/22/2021  18:28:00     -153.783       48.982      -14.956      113.672       65.638       46.784    12921.376     4308.373     2188.700        2.284        0.971      161.395       43.845        0.074      335.649        6.419      856.239
12/22/2021  18:29:00     -303.018       37.106       -3.322      154.644       97.420       69.263    23914.788     9490.660     4797.406        6.570        1.910      305.282       72.465        0.056      335.582        6.307      856.249
12/22/2021  18:30:00     -383.387       64.232      -26.414      117.412       79.869       62.688    13785.642     6379.000     3929.749        8.795        1.205      388.730       47.604        0.015      335.529        6.222      856.255
12/22/2021  18:31:00     -300.842       94.151      -15.578       85.021       71.395       47.124     7228.497     5097.305     2220.667        5.708        0.727      315.231       34.441        0.012      335.490        6.156      856.185
12/22/2021  18:32:00     -290.968       98.909      -23.791      141.119      108.458       63.349    19914.470    11763.221     4013.142        6.534        1.785      307.320       39.860        0.017      335.643        6.411      856.051
12/22/2021  18:33:00     -252.565       96.653      -11.998      132.495       95.792       65.369    17554.822     9176.050     4273.154        5.213        1.550      270.427       67.527        0.062      335.650        6.421      856.087
12/22/2021  18:34:00     -321.294       48.830       -1.831      187.305      113.005       70.938    35083.239    12770.214     5032.239        7.924        2.644      324.983       87.501        0.072      335.553        6.261      856.072
12/22/2021  18:35:00     -309.670       77.961        1.598      187.521      116.601       69.163    35164.275    13595.758     4783.524        7.775        2.677      319.333       68.866        0.047      335.660        6.439      855.958
12/22/2021  18:36:00     -410.587        2.795      -29.717      244.862      141.633      113.833    59957.501    20059.861    12957.971       13.121        4.649      410.597      118.270        0.083      335.889        6.822      855.901
12/22/2021  18:37:00     -523.826       95.431      -27.753      247.371      196.663      109.077    61192.490    38676.372    11897.736       19.800        5.588      532.448      106.987        0.040      335.883        6.810      855.737
12/22/2021  18:38:00     -367.300       70.474      -22.651      260.411      147.971       86.211    67814.004    21895.490     7432.405       11.875        4.857      374.000       86.027        0.053      335.853        6.761      855.683
12/22/2021  18:39:00     -255.961       99.645       -0.938      240.843      139.458       76.625    58005.159    19448.629     5871.442        7.937        4.166      274.672       71.849        0.068      335.683        6.477      855.701
12/22/2021  18:40:00     -314.054      111.193      -21.987      181.351      114.645       75.478    32888.047    13143.430     5696.925        8.159        2.586      333.158       64.352        0.037      335.562        6.275      855.724
12/22/2021  18:41:00     -280.257       60.976        6.392      214.142      105.363       89.520    45856.975    11101.420     8013.819        7.363        3.249      286.814       89.250        0.097      335.553        6.261      855.748
12/22/2021  18:42:00     -353.884       97.973      -12.016      255.187      132.308       85.666    65120.195    17505.275     7338.618       11.245        4.498      367.195       98.016        0.071      335.649        6.422      855.776
12/22/2021  18:43:00     -310.117       27.757       -6.014      260.639      140.857       97.447    67932.827    19840.748     9495.890        9.711        4.863      311.357       81.624        0.069      335.725        6.546      855.747
12/22/2021  18:44:00     -280.585      106.534       -6.729      188.442      135.069       84.934    35510.359    18243.721     7213.844        7.553        3.048      300.130       59.028        0.039      335.767        6.618      855.728
12/22/2021  18:45:00     -329.937       94.241      -10.083      198.146      120.911       98.563    39261.716    14619.533     9714.626        9.071        3.180      343.132       94.340        0.076      335.777        6.633      855.708
12/22/2021  18:46:00     -466.502      127.720      -24.483      192.980      196.512       92.115    37241.473    38617.150     8485.187       15.942        4.217      483.670       85.575        0.031      335.781        6.639      855.637
12/22/2021  18:47:00     -411.728      102.004        8.829      287.427      163.186      100.465    82614.035    26629.628    10093.292       14.965        5.967      424.175       95.815        0.051      335.899        6.837      855.613
12/22/2021  18:48:00     -274.731      141.553      -12.722      246.814      191.835      111.311    60917.134    36800.759    12390.094       10.287        5.505      309.054       84.044        0.074      335.944        6.913      855.609
12/22/2021  18:49:00     -337.803      106.194        1.867      290.331      140.680      108.567    84292.221    19790.741    11786.707       12.061        5.793      354.101      115.069        0.106      335.938        6.902      855.624
12/22/2021  18:50:00     -323.393       27.799      -27.378      286.779      139.816       99.548    82242.341    19548.448     9909.863       10.888        5.585      324.586      110.513        0.116      335.899        6.838      855.660
12/22/2021  18:51:00     -376.373      100.294      -14.477      293.790      143.478       98.323    86312.655    20585.793     9667.314       13.422        5.828      389.506       72.721        0.035      335.896        6.833      855.667
12/22/2021  18:52:00     -367.926       84.501        7.044      215.764      155.881       87.488    46553.975    24298.907     7654.154       11.052        3.925      377.505       83.129        0.048      335.874        6.796      855.641
12/22/2021  18:53:00     -269.434       32.364      -19.978      161.785      108.833       72.544    26174.450    11844.698     5262.646        5.865        2.164      271.370       60.837        0.050      335.914        6.863      855.610
12/22/2021  18:54:00     -406.181      105.408       -2.799      193.511      175.158       97.029    37446.403    30680.364     9414.723       12.681        3.877      419.635       81.246        0.037      335.962        6.941      855.604
12/22/2021  18:55:00     -290.219      137.001      -10.611      182.415      140.004       90.750    33275.155    19601.136     8235.545        8.210        3.056      320.930       75.159        0.055      336.001        7.006      855.591
12/22/2021  18:56:00     -334.740       42.646      -11.068      244.613      150.317       99.021    59835.515    22595.310     9805.143       10.310        4.612      337.446       93.656        0.077      335.879        6.805      855.561
12/22/2021  18:57:00     -470.063      102.903        3.986      311.375      130.153       98.623    96954.692    16939.735     9726.436       17.757        6.181      481.194       90.070        0.035      335.997        6.999      855.526
12/22/2021  18:58:00     -382.514       79.368      -12.224      171.913      126.950       79.702    29554.201    16116.405     6352.382       10.238        2.601      390.661       72.645        0.035      335.985        6.982      855.514
12/22/2021  18:59:00     -341.489       99.122      -13.177      228.379      115.748       78.628    52157.095    13397.600     6182.383        9.916        3.587      355.584       70.633        0.039      335.966        6.948      855.530
12/22/2021  19:00:00     -345.420       26.076       -0.921      229.534      143.823       93.809    52685.707    20684.933     8800.164       10.107        4.109      346.403       91.763        0.070      336.044        7.078      855.529
12/22/2021  19:01:00     -441.068       96.357      -23.290      153.857      137.060       88.041    23671.935    18785.460     7751.135       12.728        2.510      451.471       72.218        0.026      335.964        6.945      855.611
12/22/2021  19:02:00     -433.923       -2.407      -25.805      208.657      141.766       98.763    43537.853    20097.574     9754.155       13.116        3.669      433.930      100.203        0.053      335.998        7.002      855.622
12/22/2021  19:03:00     -310.097       53.117      -25.750      178.895      105.886       91.824    32003.280    11211.817     8431.592        7.564        2.582      314.613       74.504        0.056      335.984        6.977      855.636
12/22/2021  19:04:00     -302.586       53.446       14.391      262.352      140.781      108.649    68828.347    19819.330    11804.575        9.752        5.023      307.269      106.690        0.121      335.965        6.948      855.589
12/22/2021  19:05:00     -340.818       84.302       -4.883      207.910      142.450       93.505    43226.673    20292.059     8743.138        9.776        3.613      351.089      102.706        0.086      336.005        7.013      855.585
12/22/2021  19:06:00     -385.817       28.355      -13.673      251.054      125.617      101.383    63028.071    15779.644    10278.457       11.945        4.454      386.858      114.447        0.088      336.075        7.128      855.577
12/22/2021  19:07:00     -417.266       34.089      -20.367      259.724      151.442      107.720    67456.725    22934.632    11603.580       13.882        5.100      418.656       87.188        0.043      336.094        7.161      855.493
12/22/2021  19:08:00     -412.443       88.660       -6.337      170.624      146.272       98.430    29112.614    21395.642     9688.514       11.909        3.010      421.865       87.642        0.043      336.033        7.059      855.437
12/22/2021  19:09:00     -250.477       49.324       -7.605      198.708      136.122      102.481    39485.020    18529.069    10502.436        6.686        3.426      255.287       78.024        0.093      335.954        6.929      855.408
12/22/2021  19:10:00     -192.254       51.349        3.985      233.801      132.702      100.333    54663.063    17609.766    10066.675        6.096        4.117      198.993      103.899        0.273      335.862        6.775      855.403
12/22/2021  19:11:00     -280.145       59.233      -10.256      191.724      122.013       86.663    36758.182    14887.213     7510.404        7.061        2.958      286.339       81.848        0.082      335.835        6.731      855.396
12/22/2021  19:12:00     -246.538       34.485      -23.847      195.610      118.782       79.323    38263.333    14109.108     6292.193        6.059        2.933      248.938       61.075        0.060      335.744        6.578      855.451
12/22/2021  19:13:00     -300.783       64.691       -4.794      215.911      131.508      101.427    46617.774    17294.363    10287.492        8.443        3.710      307.661       97.969        0.101      335.663        6.444      855.501
12/22/2021  19:14:00     -228.867       73.432       -7.807      153.592      112.188       71.028    23590.356    12586.109     5044.954        4.952        2.061      240.359       69.662        0.084      335.653        6.427      855.507
12/22/2021  19:15:00     -188.823       64.506       -7.729      177.108      107.858       86.041    31367.417    11633.387     7403.045        4.513        2.520      199.537       81.721        0.168      335.611        6.357      855.517
12/22/2021  19:16:00     -332.675       69.786      -29.092      192.116      127.231       88.225    36908.633    16187.834     7783.622        8.862        3.044      339.916       61.300        0.033      335.569        6.288      855.544
12/22/2021  19:17:00     -491.982      144.355      -26.727      192.559      143.235       85.742    37078.874    20516.156     7351.702       16.426        3.247      512.723       76.668        0.022      335.500        6.172      855.561
12/22/2021  19:18:00     -288.434      106.719       -5.091      190.607      125.453       71.666    36331.125    15738.406     5136.020        7.590        2.860      307.544       67.068        0.048      335.495        6.164      855.553
12/22/2021  19:19:00     -244.562       79.663       -2.373      172.762      131.507       99.970    29846.798    17294.042     9994.046        6.164        2.857      257.210      102.952        0.160      335.511        6.190      855.518
12/22/2021  19:20:00     -280.328       64.737       -9.845      203.162      108.151       90.870    41274.812    11696.649     8257.321        7.204        3.061      287.706       89.167        0.096      335.467        6.117      855.497
12/22/2021  19:21:00     -187.532       37.820       -0.315      223.621      137.481       80.960    50006.250    18900.965     6554.441        5.602        3.773      191.307       84.975        0.197      335.492        6.161      855.526
12/22/2021  19:22:00     -351.421       87.456      -18.646      135.873      105.155       62.043    18461.412    11057.573     3849.353        8.242        1.668      362.139       53.612        0.022      335.494        6.163      855.566
12/22/2021  19:23:00     -224.274       80.204      -10.569      177.607      107.868       78.913    31544.153    11635.494     6227.272        5.312        2.470      238.183       71.747        0.091      335.496        6.165      855.654
12/22/2021  19:24:00     -362.969      119.512      -17.548      155.656      127.684       72.853    24228.927    16303.111     5307.506        9.608        2.292      382.138       73.128        0.037      335.477        6.132      855.680
12/22/2021  19:25:00     -206.694       91.743       -3.230      144.940      142.042       77.113    21007.747    20175.992     5946.470        4.913        2.357      226.140       70.127        0.096      335.533        6.227      855.688
12/22/2021  19:26:00     -298.496      131.498      -29.947      147.289      120.966       86.575    21694.051    14632.741     7495.238        7.555        2.191      326.177       72.761        0.050      335.477        6.133      855.681
12/22/2021  19:27:00     -279.274       90.794       -6.621      181.072      121.315       80.087    32787.202    14717.374     6413.923        7.009        2.696      293.662       79.241        0.073      335.506        6.182      855.704
12/22/2021  19:28:00     -211.787       98.979       -1.436      115.410      115.961       69.253    13319.400    13446.914     4796.034        4.310        1.578      233.775       59.262        0.064      335.496        6.167      855.672
12/22/2021  19:29:00     -280.968      128.352       -1.518      155.362      112.256       87.113    24137.488    12601.306     7588.728        6.987        2.216      308.897       75.834        0.060      335.460        6.106      855.598
12/22/2021  19:30:00     -299.967       59.301       -2.379      204.612      144.448      101.207    41866.003    20865.120    10242.957        8.323        3.649      305.773      117.045        0.147      335.484        6.145      855.599
12/22/2021  19:31:00     -302.644       52.025       -4.098      141.463       92.317       68.943    20011.770     8522.448     4753.189        6.380        1.664      307.083       64.314        0.044      335.452        6.091      855.611
12/22/2021  19:32:00     -304.182       80.721       -6.960      174.839      161.899       88.425    30568.630    26211.221     7818.966        8.183        3.230      314.710       96.720        0.094      335.518        6.201      855.635
12/22/2021  19:33:00     -336.377       70.237        8.997      175.294      115.471       68.262    30728.069    13333.560     4659.669        8.343        2.436      343.632       46.228        0.018      335.548        6.252      855.655
12/22/2021  19:34:00     -133.742       72.799        9.375      161.723      120.277       73.626    26154.187    14466.631     5420.800        3.465        2.302      152.271       75.512        0.246      335.539        6.238      855.672
12/22/2021  19:35:00     -291.199      102.834       -4.968      153.163      121.746       82.681    23458.798    14822.104     6836.113        7.025        2.256      308.823       60.449        0.038      335.549        6.254      855.632
12/22/2021  19:36:00     -298.618      155.536        1.723      169.773      128.640       77.373    28823.039    16548.358     5986.510        8.235        2.568      336.696       78.000        0.054      335.572        6.291      855.602
12/22/2021  19:37:00     -277.545      108.426       -7.224      165.834      122.316       86.092    27500.894    14961.093     7411.884        6.935        2.494      297.972       79.975        0.072      335.536        6.232      855.557
12/22/2021  19:38:00     -351.880       57.530      -22.153      159.979      169.059       89.030    25593.199    28580.961     7926.300        9.485        3.105      356.552       79.564        0.050      335.539        6.236      855.540
12/22/2021  19:39:00     -129.640       71.274       -4.685      169.206      115.738       79.036    28630.729    13395.217     6246.684        3.508        2.414      147.941       42.780        0.084      335.543        6.243      855.538
12/22/2021  19:40:00     -175.105       86.396       10.003      145.436      100.810       67.534    21151.739    10162.629     4560.792        3.704        1.794      195.259       78.579        0.162      335.565        6.281      855.499
12/22/2021  19:41:00     -225.816       74.604        8.960      169.580      114.601       81.551    28757.278    13133.297     6650.490        5.258        2.427      237.820       63.664        0.072      335.591        6.325      855.445
12/22/2021  19:42:00     -238.516       42.171      -18.839      159.738      110.213       74.469    25516.338    12146.949     5545.691        5.111        2.160      242.216       47.182        0.038      335.530        6.221      855.480
12/22/2021  19:43:00     -194.773       58.604      -11.662      107.244       96.287       49.767    11501.301     9271.180     2476.743        3.237        1.162      203.399       52.791        0.067      335.573        6.294      855.519
12/22/2021  19:44:00     -186.716      -17.923      -20.044      100.831       83.920       48.403    10166.877     7042.564     2342.803        2.757        0.978      187.575       52.796        0.079      335.555        6.265      855.555
12/22/2021  19:45:00     -116.390       37.711        6.036      128.105      109.241       59.751    16410.943    11933.674     3570.156        2.345        1.596      122.347       68.165        0.310      335.524        6.214      855.589
12/22/2021  19:46:00     -108.893       39.548      -12.475      117.854       80.184       51.853    13889.621     6429.471     2688.723        1.829        1.150      115.852       50.761        0.192      335.628        6.387      855.610
12/22/2021  19:47:00      -84.083       72.116      -10.274       69.793       64.796       46.782     4871.049     4198.578     2188.524        1.182        0.563      110.773       32.397        0.086      335.644        6.415      855.629
12/22/2021  19:48:00     -131.171      -18.514      -15.077       99.623       69.758       52.287     9924.834     4866.239     2733.980        1.765        0.876      132.471       49.147        0.138      335.660        6.437      855.652
12/22/2021  19:49:00     -215.988      -13.880      -14.708      117.784       84.213       70.311    13873.002     7091.780     4943.579        3.648        1.295      216.434       55.414        0.066      335.659        6.436      855.698
12/22/2021  19:50:00     -165.681      -76.876      -17.478       59.500       68.601       35.329     3540.236     4706.136     1248.139        2.158        0.475      182.647       29.757        0.027      335.704        6.513      855.748
12/22/2021  19:51:00     -169.365      -37.253      -17.661       67.370       52.987       41.116     4538.679     2807.578     1690.547        1.971        0.452      173.414       22.403        0.017      335.700        6.505      855.765
12/22/2021  19:52:00     -175.439      -72.931      -22.909       91.312       80.475       48.470     8337.856     6476.233     2349.350        2.689        0.858      189.994       49.032        0.067      335.720        6.538      855.758
12/22/2021  19:53:00     -225.628      -56.725      -20.579      100.544       95.819       59.087    10109.028     9181.217     3491.330        3.866        1.139      232.649       42.252        0.033      335.691        6.489      855.775
12/22/2021  19:54:00     -239.413      -35.027      -22.592       81.838       70.093       40.209     6697.474     4913.078     1616.744        3.614        0.661      241.961       30.792        0.016      335.709        6.519      855.773
12/22/2021  19:55:00     -197.047      -14.106       -4.122      140.336       74.725       54.021    19694.116     5583.770     2918.237        3.361        1.410      197.552       58.041        0.086      335.661        6.440      855.726
12/22/2021  19:56:00     -153.261       49.071      -11.189      138.119       56.680       40.371    19076.830     3212.620     1629.803        2.497        1.196      160.925       30.372        0.036      335.638        6.403      855.697
12/22/2021  19:57:00     -189.916       39.005        4.722       94.312       88.540       54.480     8894.798     7839.324     2968.096        2.865        0.985      193.880       47.124        0.059      335.662        6.443      855.643
12/22/2021  19:58:00     -321.336       82.876       -5.541      139.091      114.241       74.896    19346.219    13050.923     5609.384        7.407        1.900      331.851       71.403        0.046      335.787        6.651      855.605
12/22/2021  19:59:00     -234.722      100.601        1.537      130.359       90.873       57.282    16993.553     8257.959     3281.217        4.687        1.427      255.372       58.616        0.053      335.969        6.953      855.623
12/22/2021  20:00:00     -167.794       31.574       -4.209       76.331       81.473       37.918     5826.472     6637.787     1437.775        2.153        0.695      170.738       33.333        0.038      335.968        6.953      855.624
12/22/2021  20:01:00     -192.394      -81.199      -26.579       74.266       85.340       42.099     5515.433     7282.953     1772.367        2.944        0.729      208.827       39.514        0.036      335.920        6.872      855.668
12/22/2021  20:02:00     -157.946      -91.527      -25.062       42.820       79.448       32.450     1833.575     6311.990     1052.980        2.157        0.460      182.549       14.815        0.007      335.929        6.888      855.717
12/22/2021  20:03:00      -87.787      -63.139      -19.604       67.410       38.649       24.989     4544.089     1493.751      624.443        0.937        0.333      108.135       20.550        0.036      335.932        6.895      855.740
12/22/2021  20:04:00       39.618      -86.990      -20.503       55.118       64.302       35.673     3037.998     4134.809     1272.530        0.900        0.422       95.587       36.131        0.143      335.894        6.832      855.757
12/22/2021  20:05:00      -13.827      -64.374      -25.773       42.527       61.102       32.902     1808.523     3733.439     1082.572        0.581        0.331       65.843       35.758        0.295      335.966        6.952      855.794
12/22/2021  20:06:00      -31.137        6.520        3.167       48.217       39.105       30.025     2324.833     1529.169      901.487        0.289        0.238       31.812       21.418        0.453      335.821        6.710      855.806
12/22/2021  20:07:00     -140.581        5.654      -23.186       59.938       55.483       35.786     3592.532     3078.379     1280.634        1.414        0.398      140.694       21.209        0.023      335.749        6.590      855.726
12/22/2021  20:08:00     -212.401       21.261       -8.070       56.997       52.535       34.050     3248.653     2759.900     1159.401        2.640        0.358      213.463       20.152        0.009      335.684        6.477      855.578
12/22/2021  20:09:00     -125.637        5.034        4.134      118.503       55.396       57.727    14042.994     3068.726     3332.434        1.813        1.022      125.738       62.523        0.247      335.710        6.521      855.507
12/22/2021  20:10:00     -230.763       34.526       -7.421      158.865      101.043       64.477    25238.018    10209.608     4157.333        4.704        1.980      233.332       44.892        0.037      335.846        6.749      855.478
12/22/2021  20:11:00     -236.680       34.940        9.811      114.822       94.413       56.189    13184.056     8913.878     3157.187        4.129        1.263      239.245       51.901        0.047      336.025        7.047      855.479
12/22/2021  20:12:00     -130.265       53.891       -0.406       91.793       60.883       53.276     8425.902     3706.787     2838.377        1.742        0.749      140.973       51.000        0.131      335.992        6.993      855.498
12/22/2021  20:13:00     -177.717       39.251       -8.445       86.403       57.570       39.829     7465.454     3314.304     1586.361        2.278        0.618      182.000       34.637        0.036      335.902        6.844      855.479
12/22/2021  20:14:00     -182.596       11.527      -19.855       94.421       55.829       45.792     8915.264     3116.856     2096.885        2.400        0.706      182.959       46.677        0.065      335.811        6.691      855.494
12/22/2021  20:15:00     -270.970       18.773      -21.063      116.424       63.396       43.253    13554.471     4019.050     1870.829        4.683        0.972      271.619       45.278        0.028      335.971        6.958      855.536
12/22/2021  20:16:00     -142.321       15.578      -12.199       69.458       59.634       37.374     4824.447     3556.200     1396.830        1.521        0.489      143.171       33.387        0.054      335.910        6.859      855.542
12/22/2021  20:17:00     -177.293       -0.952       -6.091      104.162       78.026       42.399    10849.642     6088.037     1797.686        2.510        0.937      177.295       40.523        0.052      335.889        6.821      855.528
12/22/2021  20:18:00      -75.238      -10.804      -12.120       94.498       52.650       32.825     8929.834     2772.048     1077.477        0.935        0.639       76.010       37.260        0.240      335.883        6.813      855.522
12/22/2021  20:19:00     -102.527       -3.832      -10.742       36.096       46.189       22.885     1302.915     2133.395      523.721        0.730        0.198      102.599       18.289        0.032      335.953        6.929      855.518
12/22/2021  20:20:00      -76.687      -15.217       -9.181       35.908       40.548       22.738     1289.418     1644.132      516.997        0.482        0.173       78.183       14.503        0.034      335.969        6.958      855.506
12/22/2021  20:21:00     -128.210      -13.364      -19.006       59.530       37.792       32.161     3543.875     1428.235     1034.351        1.149        0.300      128.905       25.667        0.040      336.053        7.096      855.498
12/22/2021  20:22:00      -19.421       -8.307       -3.454       52.344       19.174       22.880     2739.909      367.644      523.479        0.204        0.182       21.123       29.843        1.996      336.008        7.022      855.505
12/22/2021  20:23:00      -21.307       24.679        1.195       35.951       24.576       18.938     1292.463      603.979      358.638        0.166        0.113       32.604       18.324        0.316      335.986        6.986      855.533
12/22/2021  20:24:00      -44.140        9.251        4.265       32.127       51.177       29.192     1032.128     2619.071      852.191        0.328        0.225       45.099       19.221        0.182      336.008        7.022      855.604
12/22/2021  20:25:00     -104.605      -17.845       -7.380       96.155       58.085       48.250     9245.836     3373.855     2328.074        1.313        0.747      106.116       47.641        0.202      335.955        6.933      855.643
12/22/2021  20:26:00     -118.413      -87.461      -20.405       56.391       80.781       37.580     3179.987     6525.620     1412.259        1.660        0.556      147.211       22.911        0.024      335.989        6.989      855.661
12/22/2021  20:27:00      -88.911      -11.343       -8.252       40.175       44.575       28.431     1614.036     1986.956      808.306        0.625        0.220       89.632       20.622        0.053      335.939        6.907      855.642
12/22/2021  20:28:00      -14.476      -31.641       -3.759       38.079       44.882       21.189     1450.029     2014.372      448.984        0.257        0.196       34.795       18.401        0.280      335.929        6.890      855.568
12/22/2021  20:29:00      -89.889      -38.097       -7.732       46.083       43.010       28.613     2123.642     1849.857      818.688        0.719        0.240       97.628       27.114        0.077      335.999        7.007      855.543
12/22/2021  20:30:00      -72.814      -63.041      -15.705       45.481       59.839       33.016     2068.528     3580.740     1090.054        0.813        0.337       96.312       25.340        0.069      335.936        6.902      855.568
12/22/2021  20:31:00      -61.056       -5.619      -10.723       29.240       34.347       21.225      854.986     1179.714      450.517        0.318        0.124       61.314       10.957        0.032      335.888        6.824      855.558
12/22/2021  20:32:00       -9.278       -6.888       -7.149       23.814       31.815       16.556      567.102     1012.175      274.109        0.102        0.093       11.556       17.214        2.219      335.902        6.847      855.529
12/22/2021  20:33:00     -103.973       -0.127      -12.776       35.740       41.171       22.699     1277.377     1695.040      515.265        0.723        0.174      103.973       12.825        0.015      335.934        6.899      855.518
12/22/2021  20:34:00      -75.032       14.579       -5.723       55.309       36.636       28.308     3059.130     1342.164      801.332        0.554        0.260       76.435       21.555        0.080      335.869        6.790      855.517
12/22/2021  20:35:00      -43.403      -13.105       -5.356       34.548       17.462       19.142     1193.587      304.908      366.402        0.197        0.093       45.338       21.637        0.228      335.902        6.845      855.485
12/22/2021  20:36:00        2.495       14.515      -11.646       11.564       17.540        8.513      133.730      307.650       72.479        0.043        0.026       14.727        6.231        0.179      335.851        6.760      855.410
12/22/2021  20:37:00       18.672       90.054       -6.212       16.882       24.037       16.947      285.003      577.795      287.207        0.482        0.058       91.970       10.910        0.014      335.982        6.979      855.307
12/22/2021  20:38:00        5.149      110.860      -14.971       27.907       20.970       15.032      778.785      439.743      225.962        0.699        0.072      110.979        5.499        0.002      336.165        7.285      855.211
12/22/2021  20:39:00      -74.549       33.597      -20.442       42.530       32.825       20.075     1808.829     1077.478      402.994        0.520        0.164       81.770       16.973        0.043      336.244        7.416      855.234
12/22/2021  20:40:00      -50.334       41.471      -10.280       49.452       42.320       19.810     2445.511     1791.018      392.426        0.449        0.231       65.218       14.951        0.053      335.984        6.982      855.267
12/22/2021  20:41:00        3.687       44.147      -15.638        8.789       27.733       14.070       77.248      769.101      197.978        0.163        0.052       44.301        4.611        0.011      336.274        7.464      855.278
12/22/2021  20:42:00       34.390       59.421      -18.767       18.321       37.840       25.218      335.643     1431.882      635.940        0.373        0.120       68.655       11.151        0.026      336.333        7.564      855.263
12/22/2021  20:43:00        1.591       -0.708      -12.538       11.351       14.258       11.811      128.841      203.295      139.501        0.032        0.024        1.741        5.585       10.292      336.249        7.424      855.262
12/22/2021  20:44:00       -0.860       24.619       -2.913       22.003       12.875        9.345      484.147      165.764       87.326        0.068        0.037       24.634        7.312        0.088      336.084        7.147      855.300
12/22/2021  20:45:00      -34.817       22.828       -8.380       23.266       24.875       14.684      541.325      618.779      215.615        0.159        0.069       41.634        5.912        0.020      336.053        7.097      855.326
12/22/2021  20:46:00      -38.948       38.072       -6.772       59.069       19.924       14.760     3489.197      396.970      217.862        0.356        0.205       54.465       22.216        0.166      336.136        7.235      855.267
12/22/2021  20:47:00       -7.092        1.108      -11.972       33.646       13.921       12.449     1132.042      193.794      154.972        0.084        0.074        7.178        7.368        1.054      336.221        7.376      855.251
12/22/2021  20:48:00       54.949      -13.973      -14.390       28.378       27.545       20.580      805.338      758.715      423.554        0.270        0.099       56.698       14.802        0.068      336.141        7.243      855.245
12/22/2021  20:49:00       46.735       -1.444      -12.037       41.395       37.605       34.276     1713.534     1414.147     1174.855        0.332        0.215       46.757       29.278        0.392      336.021        7.044      855.263
12/22/2021  20:50:00       24.670      -28.038      -29.354       51.144       60.593       39.514     2615.725     3671.571     1561.323        0.505        0.392       37.346       32.408        0.753      335.786        6.651      855.246
12/22/2021  20:51:00      109.289     -113.532      -29.071       69.640       59.157       39.703     4849.726     3499.580     1576.308        1.780        0.496      157.587       24.976        0.025      335.940        6.907      855.329
12/22/2021  20:52:00       55.344      -54.687      -15.273       52.485       46.360       33.405     2754.630     2149.236     1115.884        0.615        0.301       77.805       32.276        0.172      335.899        6.841      855.364
12/22/2021  20:53:00       86.320     -154.821      -34.641       47.800       53.243       31.852     2284.877     2834.810     1014.582        1.938        0.307      177.259       30.163        0.029      336.043        7.079      855.310
12/22/2021  20:54:00       84.478      -96.552      -20.822       61.263       56.242       38.749     3753.208     3163.139     1501.470        1.265        0.421      128.292       37.359        0.085      335.871        6.795      855.283
12/22/2021  20:55:00       89.389      -95.143      -48.343       36.364       55.276       22.479     1322.355     3055.443      505.317        1.213        0.244      130.547       19.057        0.021      335.888        6.822      855.263
12/22/2021  20:56:00       84.822     -136.195      -44.165       45.709       96.995       28.677     2089.353     9408.027      822.393        2.000        0.616      160.449       20.901        0.017      335.929        6.891      855.254
12/22/2021  20:57:00      124.169     -275.094      -53.693       44.039       71.002       32.651     1939.428     5041.218     1066.103        5.101        0.402      301.819       23.146        0.006      336.132        7.225      855.270
12/22/2021  20:58:00       38.789     -105.283      -39.914       56.019       75.613       37.545     3138.075     5717.335     1409.624        1.222        0.513      112.201       44.348        0.156      336.191        7.325      855.263
12/22/2021  20:59:00       37.479        6.786      -10.064       31.012       67.231       40.688      961.774     4519.969     1655.474        0.434        0.357       38.088       30.063        0.623      336.258        7.438      855.249
12/22/2021  21:00:00        5.747       -2.559      -17.588       33.049       20.568       13.797     1092.236      423.030      190.367        0.103        0.085        6.291       14.109        5.030      336.174        7.299      855.262
12/22/2021  21:01:00      -99.686       34.925      -18.269       30.876       27.304       17.760      953.321      745.495      315.435        0.675        0.101      105.627        9.140        0.007      336.012        7.028      855.255
12/22/2021  21:02:00      -99.171        4.093        6.690       68.799       38.667       33.197     4733.274     1495.166     1102.047        0.861        0.367       99.256       31.353        0.100      335.937        6.904      855.260
12/22/2021  21:03:00     -153.360        8.761       -6.103       66.481       49.631       30.876     4419.752     2463.192      953.352        1.573        0.392      153.610       18.102        0.014      335.968        6.954      855.276
12/22/2021  21:04:00     -126.951       24.540       -0.863       50.058       41.536       30.487     2505.853     1725.276      929.434        1.094        0.258      129.301       27.972        0.047      335.875        6.799      855.232
12/22/2021  21:05:00     -106.549       54.202      -20.392       41.368       40.498       41.425     1711.326     1640.054     1716.056        0.989        0.253      119.543       26.586        0.049      336.025        7.048      855.220
12/22/2021  21:06:00      -24.817       25.892       -2.300       14.817       49.204       15.038      219.545     2420.992      226.146        0.208        0.143       35.865       20.679        0.332      336.195        7.333      855.274
12/22/2021  21:07:00      -41.558        3.939      -11.199       14.723        7.300       13.353      216.759       53.284      178.296        0.116        0.022       41.744        7.436        0.032      335.910        6.860      855.285
12/22/2021  21:08:00      -35.586       -3.235      -11.277       17.516       30.279       17.167      306.814      916.790      294.711        0.146        0.076       35.733       13.051        0.133      335.991        6.994      855.276
12/22/2021  21:09:00      -20.722       -5.667       -6.123       23.244       23.328       19.809      540.264      544.182      392.411        0.099        0.074       21.483       11.433        0.283      335.794        6.663      855.312
12/22/2021  21:10:00      -36.944      -10.512       -0.319       31.486       22.368       14.573      991.378      500.312      212.369        0.159        0.085       38.410       12.106        0.099      335.863        6.780      855.297
12/22/2021  21:11:00        0.661        5.433      -14.247       24.727       26.437       19.791      611.424      698.927      391.699        0.097        0.085        5.473        9.518        3.024      335.621        6.376      855.276
12/22/2021  21:12:00      -71.276       21.384      -27.082       18.522       19.219       19.078      343.063      369.377      363.975        0.367        0.054       74.415       15.785        0.045      335.460        6.108      855.247
12/22/2021  21:13:00        2.504      -29.327      -19.621       25.244       18.313       19.158      637.262      335.373      367.012        0.130        0.067       29.434       12.789        0.189      335.437        6.071      855.222
12/22/2021  21:14:00       33.704       -9.736      -22.030       44.336       65.528       33.463     1965.662     4293.953     1119.805        0.455        0.369       35.082       20.428        0.339      335.484        6.149      855.162
12/22/2021  21:15:00       52.630     -124.220      -40.901       26.758       30.376       19.496      715.998      922.701      380.087        1.095        0.101      134.909        9.689        0.005      335.699        6.506      855.135
12/22/2021  21:16:00       22.317      -67.838      -24.834       32.660       39.847       21.346     1066.669     1587.777      455.652        0.441        0.156       71.414       12.711        0.032      335.889        6.823      855.107
12/22/2021  21:17:00      -92.658       41.140      -15.555       37.616       29.446       21.199     1414.981      867.039      449.385        0.663        0.137      101.380       16.626        0.027      335.551        6.260      855.067
12/22/2021  21:18:00     -102.062        1.234      -12.502       59.084       33.295       26.325     3490.941     1108.555      693.014        0.793        0.265      102.069       29.956        0.086      335.352        5.928      855.041
12/22/2021  21:19:00      -68.921      -18.836       -1.191       56.604       47.075       25.859     3204.057     2216.051      668.691        0.560        0.304       71.448       27.754        0.151      335.366        5.952      855.081
12/22/2021  21:20:00      -61.659       44.432       -0.989       48.966       33.590       26.405     2397.709     1128.266      697.204        0.500        0.211       76.000       22.927        0.091      335.287        5.819      855.109
12/22/2021  21:21:00      -11.761       19.062        1.191       40.856       27.361       18.864     1669.250      748.652      355.840        0.164        0.139       22.398       17.531        0.613      335.326        5.886      855.102
12/22/2021  21:22:00        8.120       32.885       -9.371       24.438       19.529       17.889      597.238      381.368      320.033        0.127        0.065       33.873       15.148        0.200      335.387        5.987      855.095
12/22/2021  21:23:00       -0.866       46.671      -12.841       30.138       36.044       20.804      908.323     1299.172      432.810        0.249        0.132       46.679        9.397        0.041      335.397        6.004      855.158
12/22/2021  21:24:00       66.346        5.592      -11.333       31.189       33.486       16.482      972.768     1121.302      271.643        0.346        0.118       66.581        8.001        0.014      335.219        5.707      855.165
12/22/2021  21:25:00       61.818       -6.199      -10.076       46.532       37.543       32.637     2165.213     1409.472     1065.142        0.430        0.232       62.128       25.914        0.174      335.322        5.877      855.200
12/22/2021  21:26:00       99.675      -14.461      -25.966       57.938       39.056       30.581     3356.765     1525.349      935.211        0.832        0.291      100.719       20.456        0.041      335.363        5.948      855.202
12/22/2021  21:27:00      103.106       22.803      -23.286       36.423       31.807       22.813     1326.614     1011.658      520.428        0.728        0.143      105.597       13.664        0.017      335.370        5.957      855.222
12/22/2021  21:28:00      116.339       64.022      -19.092       15.183       22.339       15.122      230.521      499.040      228.677        0.948        0.048      132.791        5.701        0.002      335.395        6.000      855.252
12/22/2021  21:29:00       91.654       68.791       -9.889       27.735       19.765       20.386      769.253      390.647      415.600        0.740        0.079      114.598       16.437        0.021      335.494        6.167      855.224
12/22/2021  21:30:00       60.065       63.091      -13.864       20.327       28.148       16.811      413.176      792.300      282.616        0.463        0.074       87.111       11.621        0.018      335.530        6.225      855.234
12/22/2021  21:31:00       50.783       56.661      -14.567       24.880       32.883       21.555      619.039     1081.281      464.617        0.408        0.108       76.089       23.129        0.092      335.533        6.232      855.252
12/22/2021  21:32:00       35.031       61.362       -4.558       21.158       25.204       10.132      447.670      635.224      102.659        0.310        0.059       70.658       10.277        0.021      335.667        6.453      855.237
12/22/2021  21:33:00       64.437      108.530       -9.829       27.012       28.879       18.658      729.632      833.971      348.118        0.897        0.096      126.218        9.403        0.006      335.752        6.595      855.212
12/22/2021  21:34:00      119.126       82.991       -7.699       54.042       38.282       30.392     2920.514     1465.501      923.645        1.322        0.265      145.184       15.731        0.012      335.336        5.900      855.192
12/22/2021  21:35:00       90.706       31.753      -23.863       59.399       57.550       27.308     3528.265     3311.987      745.729        0.869        0.379       96.104       23.201        0.058      335.383        5.979      855.209
12/22/2021  21:36:00        8.217      -53.160      -27.878       59.190       25.212       20.308     3503.446      635.654      412.411        0.411        0.228       53.791       20.109        0.140      335.330        5.892      855.252
12/22/2021  21:37:00       -5.685        4.872       -4.344       15.770       18.773       14.342      248.685      352.415      205.690        0.044        0.040        7.487       10.135        1.832      335.301        5.844      855.281
12/22/2021  21:38:00        0.116      -27.279      -14.924       19.289       14.701       14.452      372.084      216.107      208.857        0.088        0.040       27.279        5.486        0.040      335.440        6.076      855.269
12/22/2021  21:39:00      -67.499      -20.572      -12.777       25.024       18.547       17.092      626.224      343.982      292.152        0.320        0.063       70.564       16.418        0.054      335.561        6.277      855.277
12/22/2021  21:40:00      -66.328        2.523      -19.339       18.448       23.960       19.548      340.343      574.076      382.119        0.304        0.065       66.376       11.299        0.029      335.721        6.544      855.295
12/22/2021  21:41:00      -33.594       45.121      -10.372       38.184       22.240       16.911     1457.990      494.604      285.982        0.275        0.112       56.253       14.450        0.066      335.556        6.269      855.264
12/22/2021  21:42:00      169.384      103.629      -19.246       73.298       28.966       21.869     5372.580      839.014      478.269        2.324        0.334      198.570       19.488        0.010      335.484        6.146      855.146
12/22/2021  21:43:00      129.347       10.933      -21.308      101.044       69.412       31.230    10209.962     4818.000      975.341        1.665        0.800      129.808       35.028        0.073      335.341        5.907      855.012
12/22/2021  21:44:00      102.565        0.502        2.302       79.819       62.067       40.173     6371.102     3852.261     1613.883        1.118        0.592      102.566       40.685        0.157      335.253        5.762      854.999
12/22/2021  21:45:00      -36.478      -31.488      -39.867       34.508       21.683       29.166     1190.780      470.169      850.652        0.321        0.126       48.189       20.383        0.179      335.375        5.967      854.975
12/22/2021  21:46:00      -10.969      -35.847      -11.692       27.683       44.829       18.912      766.332     2009.616      357.667        0.234        0.157       37.488        7.108        0.036      335.419        6.041      854.970
12/22/2021  21:47:00      -22.012       -6.390        3.365       37.795       30.444       26.194     1428.445      926.855      686.123        0.179        0.152       22.921       16.722        0.532      335.392        5.996      855.055
12/22/2021  21:48:00      -97.045       57.613      -17.782       44.894       46.507       33.506     2015.516     2162.882     1122.667        0.918        0.265      112.858       28.299        0.063      335.472        6.128      855.036
12/22/2021  21:49:00      -94.352       13.970      -13.744       79.630       51.086       24.328     6340.959     2609.782      591.841        0.941        0.477       95.381       34.069        0.128      335.386        5.987      854.921
12/22/2021  21:50:00      -19.260      -32.580       -8.103       30.801       61.839       19.607      948.709     3824.111      384.444        0.333        0.258       37.847       16.760        0.196      335.575        6.301      854.863
12/22/2021  21:51:00     -100.625      -90.938      -24.659       50.871       91.409       35.234     2587.905     8355.674     1241.420        1.559        0.609      135.629       12.363        0.008      336.111        7.192      854.788
12/22/2021  21:52:00     -107.394      105.998      -11.095       59.082       60.491       36.167     3490.685     3659.145     1308.050        1.567        0.423      150.894       26.135        0.030      335.874        6.798      854.792
12/22/2021  21:53:00      -93.343      -49.005       -4.822       57.163       67.167       38.463     3267.597     4511.433     1479.375        1.020        0.463      105.425       31.270        0.088      335.887        6.822      854.715
12/22/2021  21:54:00      -84.559      -14.451       -9.454       56.215       45.369       33.739     3160.179     2058.387     1138.329        0.690        0.318       85.785       25.772        0.090      335.949        6.925      854.614
12/22/2021  21:55:00      -63.209       20.258      -13.086       66.742       75.119       33.955     4454.478     5642.833     1152.926        0.791        0.563       66.376       32.032        0.233      335.984        6.982      854.630
12/22/2021  21:56:00     -114.413      -65.861      -13.738       53.430       55.045       34.341     2854.770     3029.923     1179.336        1.234        0.353      132.016       23.638        0.032      336.097        7.170      854.762
12/22/2021  21:57:00     -103.446      -21.590       -7.653       73.521       47.176       34.649     5405.274     2225.536     1200.538        1.003        0.442      105.675       35.404        0.112      336.050        7.092      854.845
12/22/2021  21:58:00      -86.483      -90.910      -14.482       46.274       43.973       24.762     2141.300     1933.603      613.145        1.032        0.234      125.475       14.417        0.013      336.099        7.173      854.858
12/22/2021  21:59:00      -94.704      -59.800      -14.065       47.231       73.196       36.909     2230.794     5357.644     1362.255        1.085        0.448      112.004       23.210        0.043      336.072        7.128      854.886
12/22/2021  22:00:00      -31.511      -27.704       -4.768       54.361       43.932       27.692     2955.085     1930.010      766.820        0.372        0.283       41.958       23.021        0.301      336.003        7.015      854.926
12/22/2021  22:01:00      -93.822       36.695       -6.793       31.846       31.360       17.957     1014.167      983.450      322.464        0.626        0.116      100.743        5.734        0.003      335.870        6.793      854.951
12/22/2021  22:02:00      -44.989       93.750       -8.195       50.444       45.620       24.583     2544.633     2081.189      604.346        0.805        0.262      103.986       15.040        0.021      335.872        6.794      854.887
12/22/2021  22:03:00      -65.951       38.351      -16.161       48.043       75.522       28.950     2308.087     5703.609      838.130        0.746        0.442       76.292       26.325        0.119      335.701        6.509      854.845
12/22/2021  22:04:00      -38.829       62.449       -4.466       42.079       39.452       21.888     1770.627     1556.480      479.099        0.462        0.190       73.536       20.166        0.075      335.697        6.503      854.845
12/22/2021  22:05:00      -12.673       75.858      -10.253       44.886       57.211       29.478     2014.759     3273.075      868.939        0.609        0.308       76.909       20.470        0.071      335.539        6.241      854.785
12/22/2021  22:06:00      -13.979      130.840      -11.756       32.178       55.014       29.232     1035.427     3026.572      854.528        1.118        0.246      131.584       29.135        0.049      335.356        5.935      854.744
12/22/2021  22:07:00       21.780      103.928      -25.465       29.180       41.908       20.195      851.458     1756.308      407.852        0.747        0.151      106.186       16.449        0.024      335.391        5.993      854.764
12/22/2021  22:08:00       43.227       13.054       -4.650       15.812       22.040       13.704      250.019      485.758      187.809        0.149        0.046       45.155       10.066        0.050      335.273        5.796      854.803
12/22/2021  22:09:00       37.313       -4.898      -15.119       36.401       24.417       24.411     1325.015      596.200      595.915        0.208        0.126       37.633       20.506        0.297      335.192        5.660      854.843
12/22/2021  22:10:00       88.013      -33.710      -51.860       55.474       78.912       39.885     3077.345     6227.063     1590.823        1.123        0.545       94.248       17.518        0.035      335.192        5.662      854.841
12/22/2021  22:11:00       60.037      -31.718      -20.082       61.544       71.432       38.056     3787.650     5102.584     1448.235        0.767        0.517       67.900       31.489        0.215      335.276        5.800      854.860
12/22/2021  22:12:00       85.951        8.261      -26.033       56.365       41.319       28.874     3176.978     1707.280      833.718        0.692        0.286       86.347       20.550        0.057      335.323        5.880      854.869
12/22/2021  22:13:00      112.479       -0.113        0.628       55.955       41.132       39.820     3131.009     1691.860     1585.607        0.953        0.320      112.479       35.744        0.101      335.363        5.946      854.833
12/22/2021  22:14:00      128.495       56.045      -10.349       38.446       30.025       16.726     1478.105      901.474      279.746        1.121        0.133      140.186       11.614        0.007      335.468        6.121      854.841
12/22/2021  22:15:00      124.264       55.553      -13.479       32.062       33.152       15.305     1027.954     1099.050      234.233        1.053        0.118      136.116       15.670        0.013      335.495        6.168      854.836
12/22/2021  22:16:00       68.116       70.833      -20.252       35.879       22.867       17.427     1287.270      522.904      303.687        0.609        0.106       98.270       15.246        0.024      335.593        6.331      854.803
12/22/2021  22:17:00       37.186       66.567       -8.907       19.532       25.233       13.982      381.487      636.725      195.501        0.355        0.061       76.249        9.341        0.015      335.718        6.539      854.808
12/22/2021  22:18:00      -30.919       20.594       -8.862       44.142       22.299       13.518     1948.553      497.241      182.740        0.204        0.131       37.150       15.627        0.177      335.448        6.087      854.814
12/22/2021  22:19:00      -48.763       -4.301      -16.862       29.543       23.557       11.815      872.770      554.920      139.584        0.212        0.078       48.953       14.386        0.086      335.220        5.707      854.898
12/22/2021  22:20:00       -5.311      -37.714      -13.748       19.320       22.532       11.606      373.252      507.687      134.698        0.133        0.051       38.087        9.614        0.064      335.397        6.002      854.971
12/22/2021  22:21:00       57.609      -85.894      -42.687       42.773       59.483       27.199     1829.563     3538.219      739.760        0.931        0.305      103.424       19.411        0.035      335.613        6.364      854.980
12/22/2021  22:22:00       24.110      -69.681      -12.922       48.788       53.577       30.848     2380.268     2870.485      951.589        0.590        0.310       73.735       33.084        0.201      335.488        6.153      855.004
12/22/2021  22:23:00       54.652        0.390       -1.993       50.988       38.292       25.245     2599.746     1466.301      637.311        0.385        0.235       54.653       24.665        0.204      335.406        6.020      855.003
12/22/2021  22:24:00       89.173       24.534       -6.685       38.320       31.699       15.798     1468.431     1004.844      249.569        0.566        0.136       92.487       16.431        0.032      335.453        6.099      855.007
12/22/2021  22:25:00       72.019        8.662       -1.368       49.491       41.861       23.887     2449.364     1752.302      570.586        0.502        0.239       72.538       14.748        0.041      335.636        6.402      855.035
12/22/2021  22:26:00        3.001        3.477       -4.780       21.353       19.604       17.628      455.935      384.299      310.764        0.060        0.058        4.593       10.892        5.623      335.733        6.564      855.065
12/22/2021  22:27:00      -71.308      -31.175       -9.182       48.622       45.498       22.957     2364.103     2070.035      527.009        0.555        0.248       77.825       14.912        0.037      335.260        5.774      855.109
12/22/2021  22:28:00     -116.515      -51.735       -8.771       33.233       36.946       25.523     1104.455     1364.985      651.444        0.972        0.156      127.484        8.265        0.004      335.351        5.926      855.142
12/22/2021  22:29:00       -3.512      -41.369      -19.091       54.957       24.870       20.918     3020.221      618.520      437.578        0.308        0.204       41.518       12.079        0.085      335.645        6.415      855.148
12/22/2021  22:30:00       72.284     -106.158      -28.788       19.823       25.277       16.183      392.939      638.924      261.882        0.931        0.065      128.430        8.407        0.004      335.853        6.764      855.158
12/22/2021  22:31:00        4.575      -65.920       -9.398       48.478       47.883       19.408     2350.120     2292.766      376.678        0.474        0.251       66.079       18.995        0.083      335.584        6.315      855.178
12/22/2021  22:32:00      -34.410       -2.700       -4.526       38.075       22.100       28.461     1449.716      488.415      810.043        0.198        0.137       34.516       26.913        0.608      335.465        6.117      855.181
12/22/2021  22:33:00      -88.440      -16.753       -9.909       46.375       29.299       26.068     2150.599      858.437      679.528        0.594        0.184       90.013       14.675        0.027      335.643        6.413      855.160
12/22/2021  22:34:00     -108.891      -33.336       -9.807       30.949       34.588       24.592      957.819     1196.317      604.754        0.791        0.138      113.879        6.712        0.003      335.724        6.548      855.114
12/22/2021  22:35:00     -149.018      -74.109      -19.228       28.926       40.590       23.358      836.736     1647.508      545.590        1.555        0.151      166.429       17.385        0.011      335.950        6.926      855.090
12/22/2021  22:36:00     -121.360      -14.975      -15.568       47.368       42.447       30.257     2243.730     1801.787      915.483        1.008        0.248      122.280       20.140        0.027      335.800        6.675      855.057
12/22/2021  22:37:00      -90.385      -11.268      -16.659       48.631       29.372       23.214     2364.996      862.737      538.885        0.617        0.188       91.085       20.862        0.052      335.868        6.788      855.011
12/22/2021  22:38:00      -35.238      -26.853      -26.742       48.727       35.020       31.268     2374.302     1226.413      977.710        0.363        0.229       44.303       20.694        0.218      335.876        6.803      855.019
12/22/2021  22:39:00      -72.496        8.089       -7.696       29.592       32.109       22.484      875.662     1030.972      505.526        0.390        0.121       72.946       12.699        0.030      335.851        6.759      854.988
12/22/2021  22:40:00      -44.976        1.951       -8.418       22.896       17.280       16.954      524.216      298.595      287.429        0.160        0.056       45.018       11.725        0.068      335.833        6.730      854.949
12/22/2021  22:41:00      -22.775       13.417        3.218       26.640       25.254       12.114      709.698      637.750      146.742        0.110        0.075       26.433       15.525        0.345      335.751        6.593      854.963
12/22/2021  22:42:00      -36.092      -14.041       -1.096       45.399       23.275       21.353     2061.079      541.722      455.935        0.228        0.153       38.727       20.806        0.289      335.821        6.711      855.005
12/22/2021  22:43:00      -66.422       -8.432       -3.574       37.227       37.575       25.600     1385.874     1411.867      655.366        0.397        0.173       66.955       25.429        0.144      335.788        6.654      855.041
12/22/2021  22:44:00      -57.169       -2.594        1.646       39.729       25.569       22.950     1578.431      653.760      526.689        0.302        0.138       57.228       17.813        0.097      335.696        6.501      855.065
12/22/2021  22:45:00      -26.611        6.580       -5.410       19.656       26.761       17.800      386.340      716.178      316.845        0.110        0.071       27.412       16.718        0.372      335.642        6.413      855.083
12/22/2021  22:46:00        8.314      -19.002      -13.779       11.680       20.129       12.865      136.417      405.188      165.509        0.066        0.035       20.741       12.251        0.349      335.685        6.483      855.087
12/22/2021  22:47:00       47.891      -98.131      -31.374       35.346       29.597       18.424     1249.356      875.998      339.443        0.769        0.123      109.194       16.427        0.023      335.708        6.521      855.079
12/22/2021  22:48:00       60.455      -98.485      -24.610       42.311       30.655       27.077     1790.192      939.705      733.153        0.871        0.173      115.561       28.605        0.061      335.668        6.453      855.080
12/22/2021  22:49:00       87.131      -89.932      -42.643       37.572       28.580       26.778     1411.667      816.840      717.054        1.022        0.147      125.219       16.053        0.016      335.712        6.526      855.066
12/22/2021  22:50:00       39.052      -74.490      -30.606       47.922       49.347       29.794     2296.499     2435.107      887.675        0.681        0.281       84.106       27.719        0.109      335.743        6.581      855.090
12/22/2021  22:51:00       80.933     -121.357      -31.962       30.350       43.951       24.021      921.096     1931.728      577.003        1.286        0.171      145.868       17.226        0.014      335.782        6.647      855.121
12/22/2021  22:52:00       86.473     -108.731      -41.369       20.638       27.784       16.139      425.916      771.959      260.465        1.123        0.073      138.925        7.503        0.003      335.815        6.700      855.144
12/22/2021  22:53:00       70.201      -88.992      -29.910       32.467       39.748       22.051     1054.108     1579.903      486.236        0.843        0.156      113.347       19.893        0.031      335.793        6.663      855.168
12/22/2021  22:54:00       18.073      -56.925      -17.945       59.374       40.520       23.907     3525.252     1641.895      571.556        0.481        0.287       59.725       26.519        0.197      335.713        6.529      855.146
12/22/2021  22:55:00      -25.331      -11.098       -0.249       20.035       25.937       14.949      401.413      672.753      223.461        0.103        0.065       27.655       11.493        0.173      335.551        6.260      855.108
12/22/2021  22:56:00      -48.151      -18.550      -11.419       32.200       28.330       20.960     1036.845      802.609      439.333        0.254        0.114       51.601       13.238        0.066      335.655        6.433      855.095
12/22/2021  22:57:00      -26.606      -21.635      -10.222       17.974       18.484       17.088      323.069      341.674      292.002        0.112        0.048       34.292        6.330        0.034      335.639        6.406      855.074
12/22/2021  22:58:00      -20.659      -12.144      -10.439       26.705       20.434       16.450      713.150      417.566      270.594        0.104        0.070       23.965       10.467        0.191      335.613        6.363      855.045
12/22/2021  22:59:00       57.817      -50.852      -37.851       39.247       49.943       36.183     1540.346     2494.337     1309.240        0.635        0.267       76.999       30.111        0.153      335.613        6.364      855.017
12/22/2021  23:00:00       98.462      -78.923      -29.377       49.620       66.056       41.621     2462.193     4363.384     1732.300        1.267        0.428      126.189       42.904        0.116      335.606        6.352      854.983
12/22/2021  23:01:00      125.622     -130.493      -44.946       46.795       52.294       32.609     2189.786     2734.673     1063.341        2.041        0.299      181.133       27.072        0.022      335.637        6.401      854.939
12/22/2021  23:02:00      122.356     -182.770      -43.438       48.008       42.351       30.291     2304.761     1793.629      917.529        2.764        0.251      219.945       23.284        0.011      335.677        6.465      854.903
12/22/2021  23:03:00       97.859     -149.822      -44.599       43.091       46.136       26.245     1856.838     2128.497      688.823        1.934        0.234      178.950       22.818        0.016      335.715        6.534      854.916
12/22/2021  23:04:00       67.466     -159.793      -26.977       36.282       54.227       26.239     1316.387     2940.559      688.481        1.788        0.247      173.452       22.805        0.017      335.840        6.741      854.939
12/22/2021  23:05:00       50.031      -47.578      -22.900       55.881       53.825       35.151     3122.669     2897.139     1235.608        0.627        0.363       69.042       32.878        0.227      335.791        6.661      854.941
12/22/2021  23:06:00       11.581      -47.840       -7.480       51.730       38.867       33.520     2676.038     1510.632     1123.562        0.389        0.266       49.222       32.049        0.424      335.679        6.472      854.890
12/22/2021  23:07:00       76.437      -99.669      -13.453       56.025       80.949       47.366     3138.796     6552.805     2243.534        1.394        0.597      125.605       49.309        0.154      335.753        6.595      854.790
12/22/2021  23:08:00      102.742     -126.728      -41.159       46.671       52.189       30.464     2178.192     2723.697      928.057        1.707        0.291      163.144       25.576        0.025      335.749        6.589      854.727
12/22/2021  23:09:00       77.212     -107.307      -30.505       39.385       64.885       31.878     1551.165     4210.016     1016.210        1.259        0.339      132.199       21.256        0.026      335.674        6.464      854.726
12/22/2021  23:10:00       25.295     -101.589      -28.795       56.140       44.441       29.452     3151.725     1975.004      867.400        0.889        0.300      104.691       22.601        0.047      335.624        6.382      854.753
12/22/2021  23:11:00      -10.473       -4.777      -15.021       37.019       27.784       19.928     1370.403      771.963      397.141        0.145        0.127       11.511       14.203        1.522      335.568        6.288      854.774
12/22/2021  23:12:00      -37.181       30.308      -15.186       27.607       22.057       12.587      762.136      486.517      158.444        0.197        0.070       47.969        9.309        0.038      335.416        6.034      854.746
12/22/2021  23:13:00       -7.060       19.529      -14.593       20.600       22.421       24.733      424.344      502.718      611.744        0.109        0.077       20.766       12.161        0.343      335.509        6.190      854.694
12/22/2021  23:14:00      -67.852       29.509      -13.740       32.341       35.703       16.012     1045.929     1274.670      256.400        0.412        0.129       73.991       11.119        0.023      335.568        6.289      854.657
12/22/2021  23:15:00      -47.043       11.546      -16.185       25.330       24.245       13.964      641.602      587.810      195.007        0.202        0.071       48.439        9.944        0.042      335.440        6.075      854.595
12/22/2021  23:16:00      -17.384        6.969       -5.340       16.195       21.065       11.486      262.265      443.742      131.919        0.061        0.042       18.729        4.110        0.048      335.118        5.541      854.539
12/22/2021  23:17:00       35.674       28.822      -11.651       24.685       24.799       10.130      609.372      614.995      102.609        0.178        0.066       45.863       14.815        0.104      335.318        5.870      854.501
12/22/2021  23:18:00       51.401       33.824      -10.291        9.500       10.258        6.723       90.245      105.237       45.194        0.207        0.012       61.532        3.408        0.003      335.183        5.647      854.501
12/22/2021  23:19:00       49.523       30.769       -7.780       15.504       10.257        7.130      240.381      105.212       50.837        0.193        0.020       58.303        4.460        0.006      335.115        5.536      854.503
12/22/2021  23:20:00       83.454       30.468      -12.797       20.450       17.305       12.190      418.203      299.475      148.593        0.446        0.043       88.842       10.236        0.013      335.148        5.590      854.449
12/22/2021  23:21:00       80.536       22.737      -10.697       33.621       30.833       16.620     1130.364      950.688      276.240        0.474        0.118       83.684       11.620        0.019      335.091        5.494      854.423
12/22/2021  23:22:00       96.279       22.736       -4.612       37.776       27.167       16.832     1427.027      738.057      283.312        0.613        0.122       98.927       16.503        0.028      335.110        5.527      854.453
12/22/2021  23:23:00       -0.649        5.264       -2.286       25.326       16.231       11.048      641.402      263.455      122.060        0.053        0.051        5.303        2.394        0.204      335.058        5.440      854.479
12/22/2021  23:24:00      -28.169       25.741        0.356       16.945       14.639        8.618      287.140      214.291       74.267        0.102        0.029       38.159        4.277        0.013      335.095        5.503      854.475
12/22/2021  23:25:00      -28.188       20.546      -10.939       21.829       14.220       10.584      476.491      202.211      112.015        0.106        0.040       34.881        8.247        0.056      334.970        5.296      854.478
12/22/2021  23:26:00      -12.875       41.037      -11.871       43.100       21.639       12.405     1857.626      468.250      153.890        0.223        0.124       43.009        8.085        0.035      334.971        5.296      854.456
12/22/2021  23:27:00       55.447       50.817      -13.782       27.131       16.175       15.509      736.106      261.625      240.529        0.354        0.062       75.211        3.815        0.003      335.067        5.455      854.413
12/22/2021  23:28:00       25.091       44.977       -3.795       26.729       19.354       12.497      714.455      374.591      156.179        0.196        0.062       51.502        9.868        0.037      335.227        5.721      854.415
12/22/2021  23:29:00      -56.996       21.960      -20.956       32.889       32.358       19.694     1081.671     1047.014      387.851        0.334        0.126       61.080       14.192        0.054      334.831        5.063      854.426
12/22/2021  23:30:00      -58.504        9.587       -9.258       73.677       29.746       26.854     5428.264      884.795      721.119        0.532        0.352       59.284       35.477        0.358      334.566        4.621      854.424
12/22/2021  23:31:00      -72.613       30.270      -24.197       60.643       39.045       26.080     3677.527     1524.513      680.149        0.633        0.294       78.670       18.829        0.057      334.542        4.580      854.434
12/22/2021  23:32:00     -150.820       41.389      -18.567       66.508       32.703       20.089     4423.378     1069.506      403.551        1.535        0.295      156.396       14.297        0.008      334.556        4.606      854.474
12/22/2021  23:33:00     -117.961       29.173      -20.054       32.655       29.046       19.753     1066.327      843.662      390.165        0.873        0.115      121.514        6.363        0.003      334.668        4.792      854.456
12/22/2021  23:34:00      -42.965       21.429      -15.873       27.844       27.402       17.342      775.303      750.869      300.759        0.219        0.091       48.012        7.080        0.022      334.947        5.256      854.385
12/22/2021  23:35:00       54.836       33.506      -19.924       43.769       25.450       19.905     1915.722      647.712      396.220        0.374        0.148       64.262       19.946        0.096      335.239        5.740      854.325
12/22/2021  23:36:00       82.604       32.827      -17.168       35.975       37.685       27.662     1294.222     1420.153      765.190        0.584        0.174       88.888       12.559        0.020      335.131        5.563      854.297
12/22/2021  23:37:00       78.164       10.486       -7.246       48.418       37.743       21.515     2344.260     1424.565      462.903        0.525        0.212       78.864        4.814        0.004      335.184        5.650      854.286
12/22/2021  23:38:00      116.086        4.547       -5.722       37.673       36.829       19.168     1419.231     1356.402      367.425        0.834        0.157      116.175       17.578        0.023      335.128        5.558      854.239
12/22/2021  23:39:00       56.931       -5.181      -13.438       40.848       34.336       23.829     1668.586     1178.932      567.817        0.343        0.171       57.166       11.901        0.043      335.161        5.611      854.261
12/22/2021  23:40:00      102.473        8.546      -25.306       79.882       54.337       35.393     6381.075     2952.562     1252.645        1.090        0.529      102.828       24.005        0.054      335.107        5.520      854.238
12/22/2021  23:41:00       72.277      -52.571      -26.616      102.346       70.590       66.695    10474.701     4982.928     4448.164        1.430        0.995       89.374       54.402        0.371      335.185        5.650      854.085
12/22/2021  23:42:00      -40.547      -37.025      -14.562       37.377       30.111       40.108     1397.048      906.664     1608.649        0.357        0.196       54.908       27.105        0.244      335.245        5.751      854.221
12/22/2021  23:43:00       34.156      -90.393       -7.257       38.454       45.298       24.988     1478.687     2051.926      624.417        0.677        0.208       96.631       22.947        0.056      335.479        6.140      854.238
12/22/2021  23:44:00        0.355      -27.915       -1.243       31.190       28.056       21.264      972.811      787.123      452.154        0.150        0.111       27.917       16.372        0.344      335.356        5.936      854.187
12/22/2021  23:45:00       -1.990      -23.343       -6.182       37.731       55.031       33.682     1423.640     3028.404     1134.449        0.309        0.279       23.427       14.524        0.384      335.372        5.962      854.183
12/22/2021  23:46:00       48.824      -93.733      -22.912       39.583       35.670       18.688     1566.779     1272.343      349.250        0.744        0.159      105.687       20.635        0.038      335.473        6.130      854.176
12/22/2021  23:47:00       13.602       19.003       -2.947       29.918       30.647       22.191      895.106      939.251      492.447        0.144        0.116       23.369       10.622        0.207      335.350        5.925      854.122
12/22/2021  23:48:00      -56.469       30.081      -11.975       30.764       26.243       19.503      946.433      688.714      380.362        0.313        0.101       63.982       15.640        0.060      335.115        5.535      854.097
12/22/2021  23:49:00      -86.832       19.272      -19.289       68.130       39.108       23.934     4641.637     1529.428      572.813        0.751        0.337       88.945       20.041        0.051      334.557        4.607      854.084
12/22/2021  23:50:00     -120.093       50.318      -16.157       63.932       40.025       34.933     4087.320     1602.000     1220.329        1.206        0.345      130.208       19.335        0.022      334.537        4.576      854.030
12/22/2021  23:51:00     -123.670       47.576      -13.765       54.358       38.122       27.553     2954.760     1453.301      759.191        1.146        0.258      132.505       14.416        0.012      334.528        4.560      853.984
12/22/2021  23:52:00       -8.514       95.134       -8.368       46.151       34.763       18.425     2129.903     1208.452      339.493        0.643        0.184       95.514       14.711        0.024      335.005        5.352      853.877
12/22/2021  23:53:00       73.966       81.469      -12.233       29.459       22.747       13.579      867.828      517.413      184.394        0.691        0.078      110.037        8.649        0.006      335.278        5.807      853.786
12/22/2021  23:54:00       43.106       31.726       -5.866       19.765       26.928       16.410      390.650      725.115      269.273        0.214        0.069       53.523        8.519        0.025      335.469        6.125      853.813
12/22/2021  23:55:00       63.926       38.186       -8.720       26.024       22.274       11.739      677.251      496.149      137.799        0.347        0.066       74.463        3.246        0.002      335.320        5.875      853.814
12/22/2021  23:56:00       35.939       34.315      -14.221       26.740       21.107       16.663      715.043      445.511      277.646        0.205        0.072       49.691       10.502        0.045      335.309        5.857      853.772
12/22/2021  23:57:00       24.788       46.419       -9.739       24.962       16.789       14.186      623.105      281.877      201.239        0.198        0.055       52.623       11.967        0.052      335.210        5.693      853.702
12/22/2021  23:58:00       16.865       53.031       -1.435       29.922       20.095       21.465      895.322      403.826      460.767        0.243        0.088       55.648       13.657        0.060      335.211        5.693      853.617
12/22/2021  23:59:00      -71.868       12.358      -16.194       16.013       10.480        8.275      256.402      109.834       68.481        0.301        0.022       72.923        5.023        0.005      334.795        5.004      853.608
12/23/2021  00:00:00      -81.333       28.882      -13.004       12.047       13.930        9.507      145.141      194.040       90.378        0.402        0.021       86.309        6.306        0.005      334.915        5.204      853.618
12/23/2021  00:01:00      -77.560       51.631      -11.609       36.347       26.014       24.134     1321.127      676.723      582.437        0.570        0.129       93.174       17.653        0.036      334.820        5.046      853.569
12/23/2021  00:02:00      -62.064       20.013      -14.066       18.539       26.053       19.722      343.685      678.762      388.957        0.293        0.071       65.211       13.160        0.041      334.851        5.096      853.630
12/23/2021  00:03:00      -17.441        8.517       -5.955       19.727       11.646       10.185      389.145      135.627      103.729        0.052        0.031       19.410       10.081        0.270      334.845        5.087      853.673
12/23/2021  00:04:00       11.230       -3.373      -11.770       12.642       29.492       19.490      159.819      869.750      379.874        0.084        0.070       11.726       13.117        1.251      334.929        5.228      853.658
12/23/2021  00:05:00       39.678      -11.773       -4.025       46.681       37.231       25.918     2179.126     1386.158      671.761        0.298        0.212       41.388       16.359        0.156      335.063        5.450      853.615
12/23/2021  00:06:00        5.610      -18.442      -23.214       34.595       33.829       20.786     1196.802     1144.418      432.039        0.184        0.139       19.276       13.816        0.514      335.182        5.645      853.638
12/23/2021  00:07:00       54.380      -80.448      -22.150       49.079       68.707       37.948     2408.789     4720.618     1440.087        0.924        0.428       97.103       33.627        0.120      335.437        6.069      853.693
12/23/2021  00:08:00       23.332      -45.902       -6.283       31.473       39.799       35.876      990.526     1583.982     1287.098        0.328        0.193       51.492       24.438        0.225      335.372        5.961      853.714
12/23/2021  00:09:00       47.519       28.439      -10.369       38.467       44.828       19.556     1479.718     2009.519      382.434        0.352        0.194       55.379       15.749        0.081      335.147        5.589      853.701
12/23/2021  00:10:00       82.638       58.095      -10.322       12.037       17.128       14.810      144.897      293.384      219.337        0.548        0.033      101.015        7.484        0.005      335.147        5.586      853.661
12/23/2021  00:11:00       60.852       60.115      -13.061       33.521       21.633       14.764     1123.659      467.982      217.985        0.465        0.090       85.538       14.133        0.027      335.015        5.369      853.592
12/23/2021  00:12:00        8.264        8.255       -6.089       34.714       23.237       14.691     1205.078      539.943      215.814        0.107        0.098       11.681       15.461        1.752      334.956        5.273      853.642
12/23/2021  00:13:00       11.331       11.839       -7.256       29.358       15.133       11.684      861.890      229.020      136.510        0.077        0.061       16.388        5.319        0.105      335.057        5.439      853.657
12/23/2021  00:14:00       62.711       48.353       -4.875       20.463       19.646       14.025      418.746      385.972      196.704        0.365        0.050       79.187        8.915        0.013      335.100        5.510      853.605
12/23/2021  00:15:00      -20.970       31.042        4.351       17.451       19.436       13.526      304.549      377.748      182.947        0.114        0.043       37.462        8.806        0.055      335.129        5.559      853.590
12/23/2021  00:16:00       24.695       62.182        2.288       22.956       27.829       12.756      527.000      774.455      162.721        0.297        0.073       66.907        6.169        0.009      335.004        5.352      853.571
12/23/2021  00:17:00       61.825       68.276       -6.655       25.894       21.579       10.906      670.491      465.670      118.931        0.489        0.063       92.108        3.625        0.002      335.137        5.572      853.542
12/23/2021  00:18:00       81.129       57.990       -7.328       19.407       30.398       16.382      376.649      924.059      268.359        0.578        0.078       99.723        8.245        0.007      335.168        5.623      853.602
12/23/2021  00:19:00       99.723       33.375      -27.664       58.612       51.276       27.929     3435.384     2629.198      780.050        0.933        0.342      105.160        7.355        0.005      335.150        5.593      853.568
12/23/2021  00:20:00      137.669        1.373      -11.353       41.000       36.608       26.776     1680.986     1340.123      716.965        1.141        0.187      137.675        9.807        0.005      335.141        5.576      853.452
12/23/2021  00:21:00      104.058      -10.508       -8.131       60.680       38.645       25.187     3682.004     1493.442      634.368        0.841        0.290      104.587       14.398        0.019      335.058        5.441      853.412
12/23/2021  00:22:00       57.064        6.761      -17.999       32.257       41.222       25.158     1040.495     1699.212      632.945        0.350        0.169       57.463       15.305        0.071      334.957        5.273      853.398
12/23/2021  00:23:00       65.338       32.807      -16.941       35.906       47.174       29.861     1289.275     2225.404      891.690        0.502        0.220       73.112       16.894        0.053      335.024        5.384      853.372
12/23/2021  00:24:00       57.994        2.669      -17.729       30.419       35.889       28.257      925.293     1288.033      798.482        0.335        0.151       58.055       17.308        0.089      335.155        5.601      853.377
12/23/2021  00:25:00       21.402      -58.881      -22.787       40.772       30.047       25.832     1662.356      902.835      667.295        0.384        0.162       62.650       22.790        0.132      335.409        6.024      853.394
12/23/2021  00:26:00       23.747      -34.563       -9.774       35.528       47.988       25.450     1262.251     2302.855      647.705        0.303        0.211       41.934       18.085        0.186      335.427        6.054      853.380
12/23/2021  00:27:00       35.429        9.538      -13.753       53.036       40.236       29.935     2812.791     1618.900      896.109        0.343        0.266       36.691       17.902        0.238      335.316        5.869      853.338
12/23/2021  00:28:00       87.124        7.354        1.784       77.658       37.912       34.967     6030.811     1437.325     1222.656        0.817        0.435       87.434       31.235        0.128      335.250        5.757      853.283
12/23/2021  00:29:00      116.180      -37.059      -26.775       50.514       73.719       39.765     2551.659     5434.430     1581.260        1.258        0.478      121.948       26.379        0.047      335.353        5.929      853.285
12/23/2021  00:30:00       95.289      -67.596      -52.985       55.027       70.593       35.020     3027.964     4983.311     1226.372        1.285        0.462      116.830       20.648        0.031      335.334        5.897      853.269
12/23/2021  00:31:00      101.208     -127.326      -43.025       28.178       31.845       27.046      794.022     1014.134      731.488        1.542        0.127      162.650       18.716        0.013      335.370        5.958      853.265
12/23/2021  00:32:00       81.937     -117.286      -34.287       32.558       37.325       26.303     1060.055     1393.133      691.865        1.239        0.157      143.072       19.109        0.018      335.360        5.943      853.328
12/23/2021  00:33:00       71.597      -35.465      -26.510       62.435       85.388       36.891     3898.148     7291.140     1360.966        0.982        0.628       79.899       28.823        0.130      335.361        5.942      853.346
12/23/2021  00:34:00       94.085       52.337      -40.164       44.112       56.566       28.472     1945.889     3199.741      810.638        0.958        0.298      107.662       18.549        0.030      335.223        5.713      853.318
12/23/2021  00:35:00       90.505       26.559      -26.711       39.204       41.864       24.981     1536.989     1752.629      624.038        0.676        0.196       94.322       16.744        0.032      335.213        5.697      853.324
12/23/2021  00:36:00      130.194       20.430      -11.593       43.588       32.616       24.075     1899.906     1063.833      579.616        1.052        0.177      131.787       15.089        0.013      335.225        5.717      853.334
12/23/2021  00:37:00       92.073        7.131      -12.866       54.172       44.572       28.138     2934.571     1986.698      791.731        0.720        0.286       92.349        8.431        0.008      335.194        5.666      853.318
12/23/2021  00:38:00      113.348       48.946      -17.238       48.191       43.305       27.117     2322.350     1875.341      735.354        1.024        0.247      123.465       22.360        0.033      335.317        5.869      853.266
12/23/2021  00:39:00       30.123      -35.262      -29.754       26.747       41.840       29.970      715.390     1750.587      898.197        0.320        0.168       46.377       16.253        0.123      335.334        5.898      853.228
12/23/2021  00:40:00       50.379       26.044      -16.041       48.027       48.222       33.512     2306.558     2325.390     1123.036        0.461        0.288       56.712       16.252        0.082      335.158        5.606      853.197
12/23/2021  00:41:00       52.819      -23.329      -19.281       51.322       70.450       21.845     2633.990     4963.136      477.221        0.589        0.404       57.742       24.768        0.184      335.243        5.748      853.179
12/23/2021  00:42:00       11.163      -68.866      -11.815       53.923       24.591       18.207     2907.677      604.717      331.501        0.442        0.192       69.765       15.306        0.048      335.303        5.847      853.164
12/23/2021  00:43:00       -5.830      -46.364      -16.695       46.721       47.137       24.994     2182.807     2221.930      624.709        0.374        0.251       46.729       20.233        0.187      335.327        5.887      853.184
12/23/2021  00:44:00       -3.845      -42.449       -3.837       34.899       32.351       21.960     1217.942     1046.579      482.252        0.229        0.137       42.622       12.243        0.083      335.344        5.916      853.206
12/23/2021  00:45:00       13.168     -113.736      -32.576       81.862       58.179       42.687     6701.418     3384.834     1822.179        1.304        0.595      114.495       42.376        0.137      335.685        6.482      853.167
12/23/2021  00:46:00       94.145     -174.527      -36.315       46.986       70.527       38.489     2207.674     4974.004     1481.429        2.465        0.433      198.300       23.161        0.014      335.699        6.503      853.120
12/23/2021  00:47:00       50.180      -62.151      -26.056       51.803       66.571       37.341     2683.511     4431.635     1394.374        0.778        0.425       79.880       34.325        0.185      335.588        6.322      853.122
12/23/2021  00:48:00        4.042      -25.570      -19.292       86.371       90.517       60.549     7459.932     8193.265     3666.223        1.018        0.966       25.888       40.294        2.423      335.794        6.665      853.141
12/23/2021  00:49:00       -6.801      -63.782      -13.906       51.172       68.298       34.169     2618.616     4664.621     1167.523        0.638        0.423       64.144       26.874        0.176      335.780        6.641      853.138
12/23/2021  00:50:00      -68.160       -9.899       -8.356       45.043       26.152       25.477     2028.910      683.946      649.098        0.409        0.168       68.875       21.127        0.094      335.573        6.298      853.127
12/23/2021  00:51:00      -13.333       -9.531      -18.279       25.764       39.716       25.492      663.775     1577.392      649.827        0.175        0.145       16.389       23.397        2.038      335.667        6.452      853.080
12/23/2021  00:52:00      -34.866       65.044      -14.111       60.003       34.095       24.564     3600.399     1162.448      603.383        0.550        0.268       73.799       28.689        0.151      335.711        6.525      853.042
12/23/2021  00:53:00      -96.302       27.776      -17.475       50.176       29.344       19.379     2517.608      861.063      375.555        0.705        0.188      100.227       22.729        0.051      335.645        6.416      853.050
12/23/2021  00:54:00      -85.911      -15.929       -2.316       71.784       54.301       34.312     5153.003     2948.583     1177.347        0.846        0.464       87.375       32.685        0.140      335.747        6.587      853.027
12/23/2021  00:55:00       11.710      -69.032      -25.154       55.827       43.338       33.974     3116.649     1878.177     1154.257        0.584        0.307       70.018       24.593        0.123      335.753        6.597      853.013
12/23/2021  00:56:00       16.893      -83.148      -29.597       45.610       48.598       30.661     2080.255     2361.786      940.119        0.673        0.269       84.846       25.365        0.089      335.897        6.837      853.044
12/23/2021  00:57:00       26.920      -68.555      -30.503       33.409       29.541       22.996     1116.133      872.700      528.801        0.444        0.126       73.651       15.098        0.042      335.795        6.667      853.085
12/23/2021  00:58:00        7.148        0.611      -15.782       17.671       26.556       18.767      312.263      705.206      352.185        0.083        0.068        7.174       12.315        2.947      335.784        6.647      853.136
12/23/2021  00:59:00       -1.661       10.126        1.466       18.789       25.300       10.663      353.018      640.106      113.701        0.061        0.055       10.261       11.556        1.268      335.714        6.529      853.141
12/23/2021  01:00:00      -32.477       17.095       -1.323       26.266       28.838       11.626      689.920      831.612      135.165        0.150        0.083       36.701        8.483        0.053      335.743        6.579      853.081
12/23/2021  01:01:00       71.197        7.384      -20.268       33.788       31.120       20.747     1141.624      968.463      430.427        0.404        0.127       71.579       13.403        0.035      335.598        6.339      852.991
12/23/2021  01:02:00       19.162      -23.379        4.994       27.300       64.106       24.116      745.297     4109.596      581.599        0.319        0.272       30.228       24.461        0.655      335.655        6.432      852.933
12/23/2021  01:03:00       19.668      -28.682      -10.206       37.224       32.010       30.226     1385.606     1024.650      913.620        0.232        0.166       34.778       22.719        0.427      335.692        6.494      852.903
12/23/2021  01:04:00      -22.830      -50.144       -3.548       37.235       48.029       27.843     1386.448     2306.802      775.236        0.376        0.223       55.097       19.643        0.127      335.626        6.385      852.901
12/23/2021  01:05:00       68.722      -96.708      -34.464       61.775       40.058       43.078     3816.097     1604.667     1855.679        1.127        0.364      118.639       17.227        0.021      335.734        6.565      852.902
12/23/2021  01:06:00      101.095     -134.857      -30.400       53.010       51.821       42.842     2810.053     2685.437     1835.401        1.833        0.367      168.543       28.910        0.029      335.764        6.614      852.863
12/23/2021  01:07:00       71.556     -130.177      -33.486       39.884       39.387       20.861     1590.745     1551.336      435.182        1.338        0.179      148.547       15.249        0.011      335.780        6.640      852.843
12/23/2021  01:08:00       60.647      -89.397      -27.503       44.060       52.579       25.486     1941.289     2764.550      649.559        0.889        0.268      108.027       21.294        0.039      335.734        6.565      852.806
12/23/2021  01:09:00      101.218     -144.991      -38.578       40.051       39.617       20.826     1604.072     1569.525      433.710        1.818        0.180      176.826       14.926        0.007      335.723        6.545      852.726
12/23/2021  01:10:00       91.122      -98.922      -48.053       46.422       97.236       37.961     2154.986     9454.807     1441.019        1.672        0.653      134.494       20.029        0.022      335.784        6.646      852.665
12/23/2021  01:11:00      -18.184       -8.953       -8.803       39.473       41.306       27.046     1558.103     1706.152      731.472        0.224        0.200       20.269       15.906        0.616      335.546        6.252      852.637
12/23/2021  01:12:00      -42.415       25.736       -7.712       36.614       33.011       21.740     1340.592     1089.751      472.638        0.271        0.145       49.612       10.180        0.042      335.471        6.127      852.659
12/23/2021  01:13:00      -34.866       -9.367        3.430       36.259       35.238       27.536     1314.732     1241.739      758.236        0.231        0.166       36.103       16.143        0.200      335.482        6.145      852.706
12/23/2021  01:14:00      -77.758        6.745      -11.859       48.457       39.495       18.456     2348.075     1559.887      340.636        0.524        0.212       78.050       14.799        0.036      335.610        6.359      852.681
12/23/2021  01:15:00       57.157      -68.416      -28.916       33.343       67.223       33.967     1111.735     4518.990     1153.748        0.778        0.339       89.150       25.210        0.080      335.837        6.735      852.582
12/23/2021  01:16:00       12.696      -11.674      -16.955       23.605       41.050       20.734      557.201     1685.116      429.881        0.163        0.134       17.247       10.750        0.389      335.860        6.774      852.532
12/23/2021  01:17:00        3.398       24.188      -10.715       28.923       26.923       14.714      836.528      724.869      216.499        0.124        0.089       24.426       11.025        0.204      335.737        6.570      852.504
12/23/2021  01:18:00      -18.701        8.235      -10.644       32.612       23.998       26.990     1063.563      575.893      728.478        0.145        0.118       20.434       21.199        1.076      335.630        6.391      852.493
12/23/2021  01:19:00        5.483        4.001       -5.277       42.186       43.376       23.539     1779.650     1881.468      554.073        0.214        0.211        6.788       14.378        4.487      335.618        6.372      852.496
12/23/2021  01:20:00        1.628       12.220      -13.502       16.223       15.298       15.795      263.174      234.020      249.485        0.054        0.037       12.328       12.793        1.077      335.751        6.593      852.509
12/23/2021  01:21:00      -11.890       22.523      -14.328       27.055       16.096       10.506      731.952      259.090      110.383        0.098        0.055       25.469       10.855        0.182      335.728        6.555      852.517
12/23/2021  01:22:00      -54.841       24.695       -8.253       32.247       14.609       12.374     1039.894      213.423      153.127        0.255        0.070       60.144       12.200        0.041      335.519        6.207      852.487
12/23/2021  01:23:00      -61.157       34.119      -10.910       16.490       19.379       10.652      271.905      375.530      113.455        0.289        0.038       70.030        8.110        0.013      335.471        6.127      852.455
12/23/2021  01:24:00      -76.239       33.947       -6.698       24.788       24.140       16.266      614.449      582.718      264.570        0.424        0.073       83.456       10.667        0.016      335.542        6.245      852.427
12/23/2021  01:25:00      -17.355       -0.492       -3.278       39.647       27.075       14.860     1571.853      733.064      220.819        0.142        0.126       17.362       12.542        0.522      335.663        6.447      852.403
12/23/2021  01:26:00      -10.495       50.264       -3.422       39.724       21.643       17.287     1577.960      468.436      298.850        0.250        0.117       51.348       18.732        0.133      335.654        6.431      852.367
12/23/2021  01:27:00      -63.521       33.286      -23.507       32.491       35.261       22.031     1055.645     1243.307      485.370        0.424        0.139       71.714       10.357        0.021      335.276        5.802      852.386
12/23/2021  01:28:00      -33.487       24.864      -23.816       34.800       32.636       24.991     1211.047     1065.087      624.532        0.260        0.145       41.708       17.884        0.184      335.086        5.486      852.422
12/23/2021  01:29:00       -1.651       -0.869      -12.413       28.509       26.811       19.336      812.776      718.855      373.896        0.103        0.095        1.866       12.195       42.719      335.156        5.602      852.453
12/23/2021  01:30:00       22.942       56.867      -18.418       18.867       31.798       15.599      355.959     1011.137      243.324        0.285        0.081       61.320       11.443        0.035      335.391        5.993      852.397
12/23/2021  01:31:00       64.011       54.361        1.577       38.064       36.289       29.161     1448.881     1316.895      850.365        0.533        0.181       83.979       19.007        0.051      335.265        5.782      852.378
12/23/2021  01:32:00       70.030       20.362      -12.284       40.925       19.364       11.585     1674.830      374.975      134.214        0.383        0.109       72.930        9.886        0.018      335.270        5.791      852.352
12/23/2021  01:33:00      117.454       34.286      -12.771       18.448       10.943       10.477      340.332      119.741      109.774        0.785        0.028      122.356        4.385        0.001      335.281        5.811      852.324
12/23/2021  01:34:00      153.493       18.107       -9.144       28.054       29.024       15.195      787.012      842.404      230.874        1.292        0.093      154.557        9.437        0.004      335.234        5.733      852.285
12/23/2021  01:35:00       79.378        2.117      -21.093       56.755       42.389       30.257     3221.130     1796.786      915.510        0.634        0.297       79.406       14.569        0.034      335.084        5.482      852.276
12/23/2021  01:36:00       51.101       -2.557      -17.577       47.925       44.404       31.335     2296.834     1971.707      981.875        0.409        0.263       51.165       20.894        0.167      335.178        5.639      852.274
12/23/2021  01:37:00       88.391       12.671      -13.354       58.609       47.112       30.300     3435.071     2219.550      918.063        0.736        0.329       89.295       20.444        0.052      335.225        5.716      852.206
12/23/2021  01:38:00       20.244       -7.612      -14.896       36.501       31.186       25.973     1332.359      972.588      674.581        0.183        0.149       21.628       14.256        0.434      335.293        5.829      852.221
12/23/2021  01:39:00       49.034       13.263        0.521       56.769       44.838       35.206     3222.715     2010.454     1239.471        0.453        0.324       50.796       30.489        0.360      335.312        5.860      852.188
12/23/2021  01:40:00      123.922       20.564       -5.383       69.523       57.364       34.231     4833.445     3290.593     1171.762        1.255        0.465      125.617       30.638        0.059      335.346        5.919      852.068
12/23/2021  01:41:00       63.834       21.164      -13.297       55.897       66.730       44.145     3124.500     4452.849     1948.802        0.711        0.476       67.251       35.978        0.286      335.357        5.937      852.056
12/23/2021  01:42:00       81.352      -37.598      -43.163       40.514       82.823       37.490     1641.397     6859.580     1405.502        0.990        0.495       89.620       23.900        0.071      335.360        5.942      852.065
12/23/2021  01:43:00      161.992       17.237       -6.556       52.080       37.369       29.138     2712.336     1396.429      849.020        1.577        0.248      162.907       25.134        0.024      335.154        5.597      851.958
12/23/2021  01:44:00      104.431       54.277        0.398       34.987       17.464       12.193     1224.114      305.007      148.675        0.776        0.084      117.693       11.807        0.010      335.234        5.733      851.961
12/23/2021  01:45:00       16.757       54.332       -1.981       35.372       22.018       25.415     1251.164      484.790      645.942        0.281        0.119       56.858       13.470        0.056      335.356        5.935      852.019
12/23/2021  01:46:00      -62.696       20.098       -9.861       26.160       15.505       19.594      684.348      240.419      383.934        0.287        0.065       65.839        5.071        0.006      334.732        4.898      852.009
12/23/2021  01:47:00      -52.458       38.774      -12.836       24.180       10.311        8.595      584.662      106.326       73.869        0.259        0.038       65.232        8.273        0.016      334.941        5.247      851.922
12/23/2021  01:48:00       33.475       59.260       -7.944       24.798       22.225       16.293      614.936      493.953      265.465        0.303        0.069       68.061       11.717        0.030      335.368        5.954      851.834
12/23/2021  01:49:00       18.545       93.782      -14.000       21.939       19.443       14.464      481.328      378.021      209.216        0.520        0.053       95.598        8.715        0.008      335.405        6.017      851.794
12/23/2021  01:50:00      -19.289       22.364      -10.357       35.450       26.683       15.645     1256.721      711.978      244.752        0.160        0.111       29.534       10.144        0.118      335.023        5.381      851.793
12/23/2021  01:51:00       -9.153       29.028       -4.163       20.706       16.150       20.564      428.749      260.816      422.886        0.103        0.056       30.437       11.913        0.153      334.948        5.257      851.749
12/23/2021  01:52:00      -59.671       28.971      -25.618       41.887       20.478       21.945     1754.559      419.349      481.578        0.386        0.133       66.332       22.477        0.115      334.869        5.128      851.724
12/23/2021  01:53:00     -116.588       61.772      -26.880       39.458       34.221       25.910     1556.964     1171.054      671.344        1.076        0.170      131.941       15.705        0.014      334.873        5.132      851.676
12/23/2021  01:54:00     -102.839       50.650      -25.456       51.583       58.335       21.562     2660.825     3402.942      464.932        1.016        0.326      114.635       14.942        0.017      335.123        5.548      851.621
12/23/2021  01:55:00       10.889       62.121      -18.486       67.081       49.341       18.655     4499.803     2434.536      348.001        0.580        0.364       63.068       15.006        0.057      335.321        5.878      851.653
12/23/2021  01:56:00       66.379      150.804      -19.121       97.570       68.580       39.357     9519.824     4703.184     1548.973        2.164        0.789      164.766       31.405        0.036      335.335        5.899      851.497
12/23/2021  01:57:00      -40.131       65.222      -18.117       79.366       81.151       43.945     6298.915     6585.411     1931.202        1.050        0.741       76.579       24.603        0.103      334.997        5.340      851.548
12/23/2021  01:58:00       36.584       86.658      -16.838       47.167       62.547       27.373     2224.766     3912.142      749.308        0.801        0.344       94.064       22.707        0.058      335.280        5.807      851.469
12/23/2021  01:59:00       24.904      140.588      -22.957       74.906       69.630       29.196     5610.871     4848.275      852.428        1.611        0.566      142.777       19.415        0.018      335.463        6.114      851.397
12/23/2021  02:00:00       16.779       -2.254       -8.939       31.122       33.730       41.909      968.592     1137.698     1756.398        0.211        0.193       16.929       19.136        1.278      335.187        5.654      851.425
12/23/2021  02:01:00        8.340      -11.940       -5.427       33.273       59.885       26.373     1107.087     3586.225      695.523        0.281        0.269       14.564       16.344        1.259      335.271        5.795      851.436
12/23/2021  02:02:00      -43.931       44.383      -15.549       33.335       34.805       29.477     1111.249     1211.411      868.889        0.367        0.160       62.449       21.220        0.115      335.091        5.494      851.390
12/23/2021  02:03:00      -27.704       40.888      -17.641       53.836       30.442       25.040     2898.265      926.700      627.020        0.360        0.223       49.390       25.293        0.262      335.149        5.591      851.380
12/23/2021  02:04:00      -47.249       -8.627      -14.248      103.169       59.984       40.766    10643.800     3598.052     1661.851        0.920        0.795       48.030       47.224        0.967      335.017        5.372      851.450
12/23/2021  02:05:00      -93.438       54.471      -16.662       73.425       46.437       47.266     5391.225     2156.369     2234.072        1.088        0.489      108.156       38.387        0.126      334.918        5.208      851.518
12/23/2021  02:06:00     -110.913       91.482      -25.691       60.017       52.849       45.712     3602.075     2792.967     2089.570        1.491        0.424      143.773       34.355        0.057      334.940        5.242      851.498
12/23/2021  02:07:00      -63.680        9.685      -27.314      126.443       67.873       52.464    15987.728     4606.811     2752.429        1.412        1.167       64.412       60.673        0.887      334.861        5.113      851.482
12/23/2021  02:08:00     -177.819       58.626      -19.726       62.818       32.664       30.648     3946.048     1066.919      939.303        2.070        0.298      187.234       22.534        0.014      334.776        4.971      851.470
12/23/2021  02:09:00     -118.133       85.515      -20.488       72.870       67.744       30.601     5310.045     4589.206      936.397        1.626        0.542      145.836       34.562        0.056      334.795        5.003      851.442
12/23/2021  02:10:00      -98.537      146.817      -22.266       51.697       64.257       31.764     2672.576     4128.998     1008.972        1.978        0.391      176.819       17.855        0.010      334.992        5.328      851.332
12/23/2021  02:11:00      -96.801       64.132      -20.666       43.936       52.973       22.614     1930.390     2806.091      511.384        0.958        0.262      116.118       17.706        0.023      334.862        5.117      851.308
12/23/2021  02:12:00      -82.971      153.731      -25.187       58.880       37.970       25.907     3466.895     1441.683      671.159        1.836        0.279      174.692       25.702        0.022      335.051        5.429      851.268
12/23/2021  02:13:00      -18.345      208.877      -16.367       49.298       39.187       31.404     2430.264     1535.608      986.221        2.459        0.248      209.681       23.613        0.013      335.262        5.775      851.174
12/23/2021  02:14:00       -9.358       98.130       -9.751       40.055       61.469       29.741     1604.370     3778.401      884.532        0.804        0.313       98.575       19.875        0.041      335.208        5.689      851.142
12/23/2021  02:15:00      -25.015       36.487      -10.464       34.384       30.802       22.692     1182.291      948.767      514.919        0.236        0.132       44.239       12.819        0.084      335.147        5.589      851.206
12/23/2021  02:16:00       64.938       -6.730      -17.396       34.013       22.238       16.006     1156.861      494.508      256.207        0.324        0.095       65.286        4.767        0.005      335.342        5.912      851.251
12/23/2021  02:17:00       16.901      -12.597       -1.080       33.436       29.136       26.040     1117.942      848.907      678.105        0.154        0.132       21.080       20.078        0.907      335.173        5.630      851.349
12/23/2021  02:18:00      -24.722      -52.083      -12.083       18.945       19.949       21.898      358.910      397.954      479.536        0.235        0.062       57.652       14.250        0.061      335.334        5.898      851.418
12/23/2021  02:19:00      -53.204      -40.196      -27.418       23.996       32.750       16.745      575.821     1072.586      280.396        0.356        0.096       66.682        7.456        0.013      335.457        6.104      851.469
12/23/2021  02:20:00      -56.989        4.541       -6.382       16.993       20.287       14.264      288.762      411.553      203.449        0.211        0.045       57.169       11.456        0.040      335.347        5.920      851.534
12/23/2021  02:21:00      -12.062       -6.959       -9.971       26.314       11.272       10.487      692.439      127.069      109.984        0.061        0.046       13.925        9.284        0.444      335.480        6.139      851.589
12/23/2021  02:22:00       49.185      -91.182      -31.698       41.970       64.269       27.346     1761.506     4130.511      747.811        0.919        0.332      103.601       19.085        0.034      335.364        5.950      851.649
12/23/2021  02:23:00       11.461      -33.131      -11.550       42.302       60.410       34.864     1789.436     3649.344     1215.481        0.401        0.333       35.058       28.224        0.648      335.405        6.017      851.732
12/23/2021  02:24:00       94.324       -8.112      -29.184       92.249       70.018       62.582     8509.792     4902.559     3916.555        1.357        0.866       94.672       46.850        0.245      335.415        6.031      851.745
12/23/2021  02:25:00      146.296      -29.224      -24.015      102.534       91.409       64.464    10513.135     8355.692     4155.667        2.292        1.151      149.186       51.645        0.120      335.392        5.994      851.720
12/23/2021  02:26:00      102.011     -134.716      -39.160       51.728      102.659       49.695     2675.804    10538.910     2469.622        2.288        0.784      168.982       39.257        0.054      335.338        5.905      851.734
12/23/2021  02:27:00      118.828     -162.214      -52.537       65.796       89.260       44.047     4329.170     7967.414     1940.122        2.871        0.712      201.080       45.499        0.051      335.463        6.112      851.741
12/23/2021  02:28:00       69.679     -210.859      -27.259       59.064       65.505       36.167     3488.562     4290.846     1308.077        2.957        0.454      222.074       38.988        0.031      335.825        6.713      851.769
12/23/2021  02:29:00        6.520     -110.983      -26.937      155.313      108.729       50.522    24122.028    11822.026     2552.447        2.578        1.925      111.174       40.186        0.131      335.976        6.967      851.747
12/23/2021  02:30:00        9.100     -105.865      -20.643       76.081       96.884       47.591     5788.278     9386.602     2264.884        1.457        0.872      106.256       49.183        0.214      336.322        7.544      851.732
12/23/2021  02:31:00       25.663     -196.776      -37.303      118.571       91.605       54.305    14059.168     8391.548     2948.996        3.308        1.270      198.443       51.079        0.066      336.402        7.675      851.857
12/23/2021  02:32:00      -64.260      -67.715      -16.198       81.147      134.720       43.054     6584.794    18149.568     1853.624        1.778        1.329       93.353       40.592        0.189      336.485        7.817      851.962
12/23/2021  02:33:00       92.401     -220.422      -46.713       95.531      135.051       59.313     9126.231    18238.817     3517.992        4.509        1.544      239.006       72.850        0.093      336.354        7.597      852.018
12/23/2021  02:34:00      126.952     -275.060      -54.224       39.359       52.284       27.923     1549.105     2733.570      779.678        4.989        0.253      302.943       22.541        0.006      336.054        7.094      851.997
12/23/2021  02:35:00       71.467     -146.077      -28.461       43.985       81.000       33.955     1934.700     6560.976     1152.959        1.845        0.482      162.622       38.583        0.056      336.002        7.008      851.931
12/23/2021  02:36:00        0.091      -97.922      -24.545       55.504       63.200       31.805     3080.717     3994.273     1011.562        0.914        0.404       97.922       23.443        0.057      335.999        7.007      851.921
12/23/2021  02:37:00      -23.596      -50.059      -20.429       71.091       66.959       41.338     5053.899     4483.488     1708.806        0.736        0.562       55.341       28.164        0.259      336.059        7.106      851.953
12/23/2021  02:38:00      -57.851     -139.038      -17.680      124.649      115.165       62.948    15537.398    13262.957     3962.454        2.787        1.638      150.593       41.026        0.074      336.287        7.487      851.904
12/23/2021  02:39:00      111.000     -107.434      -30.960      115.435      109.184       66.429    13325.176    11921.166     4412.838        2.723        1.483      154.477       66.032        0.183      336.029        7.053      851.687
12/23/2021  02:40:00      143.274     -174.353      -48.474       87.026       80.483       58.020     7573.479     6477.464     3366.277        3.534        0.871      225.669       49.124        0.047      336.051        7.090      851.593
12/23/2021  02:41:00       60.677     -210.973      -33.086       97.585      106.091       52.731     9522.876    11255.259     2780.605        3.642        1.178      219.525       43.814        0.040      336.160        7.273      851.670
12/23/2021  02:42:00       79.508      -52.542      -30.941       66.296       69.072       51.204     4395.193     4770.927     2621.883        1.091        0.589       95.301       39.516        0.172      336.098        7.170      851.605
12/23/2021  02:43:00       69.299      -54.340      -35.302       71.205       82.182       63.158     5070.196     6753.961     3988.898        1.240        0.791       88.063       42.252        0.230      336.033        7.064      851.418
12/23/2021  02:44:00      193.984     -179.703      -64.647       89.662       91.907       54.570     8039.286     8446.925     2977.837        4.678        0.973      264.430       35.632        0.018      335.992        6.991      851.198
12/23/2021  02:45:00      105.790     -156.006      -32.206       86.463       84.237       39.892     7475.886     7095.955     1591.340        2.636        0.808      188.492       33.908        0.032      335.870        6.789      851.099
12/23/2021  02:46:00       29.067      -56.278        3.437       70.752       66.868       44.234     5005.810     4471.360     1956.646        0.773        0.572       63.341       31.748        0.251      335.826        6.716      851.180
12/23/2021  02:47:00       33.710     -150.037      -36.078       98.097      117.651       47.998     9623.012    13841.723     2303.780        2.535        1.288      153.777       50.673        0.109      335.838        6.737      851.361
12/23/2021  02:48:00       23.987      -36.183      -11.126       77.346       58.991       41.708     5982.429     3479.942     1739.566        0.660        0.560       43.412       25.113        0.335      335.840        6.743      851.374
12/23/2021  02:49:00       47.423      -70.404      -21.873       62.315       54.115       33.331     3883.173     2928.383     1110.927        0.780        0.396       84.886       30.491        0.129      335.886        6.817      851.338
12/23/2021  02:50:00       91.762     -149.472      -30.848       74.651       82.652       44.563     5572.717     6831.360     1985.863        2.305        0.719      175.392       41.269        0.055      335.877        6.801      851.352
12/23/2021  02:51:00       11.409      -93.270      -49.434      110.543       84.459       43.488    12219.753     7133.260     1891.176        1.625        1.062       93.966       44.534        0.225      335.829        6.722      851.376
12/23/2021  02:52:00       29.549     -106.694      -20.167       67.165      103.785       36.150     4511.076    10771.423     1306.787        1.462        0.829      110.710       40.549        0.134      335.872        6.794      851.295
12/23/2021  02:53:00       39.228     -192.791      -39.618       69.118       87.521       37.872     4777.254     7659.921     1434.283        2.707        0.694      196.741       39.277        0.040      335.929        6.888      851.283
12/23/2021  02:54:00       48.600     -145.423      -46.832      106.641       93.400       57.249    11372.338     8723.578     3277.476        2.453        1.169      153.329       35.191        0.053      335.944        6.914      851.338
12/23/2021  02:55:00       10.419      -75.264      -31.325       57.555       82.159       27.644     3312.525     6750.049      764.179        0.879        0.541       75.982       31.822        0.175      335.903        6.845      851.428
12/23/2021  02:56:00        7.380      -69.997      -16.198       85.772       76.232       35.756     7356.865     5811.244     1278.491        0.983        0.722       70.385       42.604        0.366      335.839        6.740      851.355
12/23/2021  02:57:00       23.658      -96.163      -36.892       47.187       80.258       36.936     2226.605     6441.286     1364.267        1.060        0.502       99.030       22.452        0.051      335.899        6.839      851.294
12/23/2021  02:58:00       -6.865      -27.775      -17.303       43.834       58.469       31.406     1921.404     3418.673      986.328        0.372        0.316       28.611       21.542        0.567      335.862        6.779      851.319
12/23/2021  02:59:00       66.217      -88.348      -31.093       78.076       57.462       33.402     6095.833     3301.921     1115.709        1.183        0.526      110.408       41.116        0.139      335.822        6.711      851.368
12/23/2021  03:00:00      -47.112      -62.494      -16.319       52.198       59.478       42.931     2724.642     3537.612     1843.036        0.725        0.405       78.262       26.866        0.118      335.847        6.753      851.405
12/23/2021  03:01:00      -40.463      -80.374      -23.500       76.914       80.119       44.484     5915.689     6418.990     1978.841        1.148        0.716       89.985       35.878        0.159      335.843        6.746      851.391
12/23/2021  03:02:00      -60.846     -164.463      -29.399      117.711      125.104       55.518    13855.904    15650.919     3082.205        3.210        1.629      175.358       54.074        0.095      335.826        6.716      851.375
12/23/2021  03:03:00      -57.721     -192.277      -49.505      108.536      126.736       68.066    11780.073    16061.949     4632.995        3.761        1.624      200.754       38.411        0.037      335.739        6.571      851.419
12/23/2021  03:04:00      -35.685      -47.879       -8.670      102.051      102.111       53.869    10414.365    10426.754     2901.894        1.369        1.187       59.715       41.509        0.483      335.736        6.568      851.450
12/23/2021  03:05:00       31.759     -156.138      -37.109       90.830       86.241       53.549     8250.154     7437.514     2867.464        2.266        0.928      159.335       38.720        0.059      335.801        6.674      851.452
12/23/2021  03:06:00       31.120     -135.847      -39.364       59.765       72.564       44.531     3571.802     5265.578     1982.968        1.589        0.541      139.366       33.394        0.057      335.689        6.488      851.430
12/23/2021  03:07:00      -59.677      -38.390       -1.619       86.916       66.008       41.618     7554.473     4357.056     1732.096        0.934        0.682       70.958       36.166        0.260      335.673        6.461      851.490
12/23/2021  03:08:00      -79.879      -80.766      -24.778       70.920       74.244       54.197     5029.681     5512.131     2937.273        1.350        0.674      113.595       31.828        0.079      335.755        6.599      851.543
12/23/2021  03:09:00       87.210     -129.563      -36.961      108.822       98.499       67.507    11842.157     9702.085     4557.253        2.593        1.305      156.180       56.548        0.131      335.588        6.320      851.390
12/23/2021  03:10:00       55.608     -164.694      -41.999      101.232      119.872       47.416    10247.942    14369.393     2248.313        2.942        1.343      173.829       40.660        0.055      335.607        6.351      851.204
12/23/2021  03:11:00       61.452     -165.224      -54.954      121.657      146.189       58.525    14800.422    21371.350     3425.210        3.684        1.980      176.282       51.101        0.084      335.629        6.388      851.229
12/23/2021  03:12:00       -2.639      -69.813      -52.035      149.587      129.898       58.274    22376.268    16873.380     3395.822        2.511        2.132       69.863       58.856        0.710      335.608        6.352      851.188
12/23/2021  03:13:00       13.751      -84.106       -6.433      115.080       62.790       60.134    13243.339     3942.550     3616.148        1.405        1.040       85.222       66.567        0.610      335.674        6.464      851.049
12/23/2021  03:14:00      152.055     -215.849      -67.322       71.634       79.126       43.864     5131.394     6261.000     1924.063        4.378        0.666      264.029       35.113        0.018      335.540        6.238      850.978
12/23/2021  03:15:00      144.536     -229.876      -63.459       57.187       97.982       51.719     3270.396     9600.499     2674.855        4.665        0.777      271.539       32.420        0.014      335.495        6.163      850.981
12/23/2021  03:16:00       42.487     -196.184      -38.258       76.208       89.700       37.252     5807.649     8046.161     1387.707        2.850        0.762      200.732       20.782        0.011      335.512        6.193      851.016
12/23/2021  03:17:00      -34.094     -118.896      -32.661       92.957       66.014       47.170     8641.072     4357.792     2225.023        1.579        0.761      123.688       34.323        0.077      335.533        6.231      851.100
12/23/2021  03:18:00       54.155     -116.346      -31.785       55.635       69.152       32.700     3095.300     4782.023     1069.273        1.321        0.447      128.333       19.612        0.023      335.571        6.293      851.160
12/23/2021  03:19:00       96.229     -201.116      -45.119       64.571       91.960       42.780     4169.471     8456.662     1830.125        3.310        0.723      222.952       22.725        0.010      335.497        6.168      851.160
12/23/2021  03:20:00       65.680     -139.697      -21.106       61.655       87.605       49.491     3801.315     7674.686     2449.315        1.910        0.696      154.367       44.456        0.083      335.461        6.109      851.022
12/23/2021  03:21:00      123.116     -112.209      -33.670      124.898      144.834       70.794    15599.578    20976.749     5011.730        3.523        2.079      166.578       80.026        0.231      335.411        6.025      850.880
12/23/2021  03:22:00      -18.929      -96.521      -54.693       97.174       62.527       52.191     9442.746     3909.619     2723.889        1.437        0.804       98.360       30.286        0.095      335.455        6.100      850.947
12/23/2021  03:23:00      -35.273       27.170      -22.836       56.346       63.592       30.330     3174.928     4043.981      919.915        0.532        0.407       44.524       22.997        0.267      335.490        6.160      851.045
12/23/2021  03:24:00       48.157     -101.015      -26.181      109.659       68.425       39.422    12025.144     4682.000     1554.076        1.573        0.913      111.907       46.844        0.175      335.545        6.249      850.969
12/23/2021  03:25:00       73.311     -157.714      -30.180       83.967      107.493       49.514     7050.423    11554.793     2451.679        2.610        1.053      173.920       53.660        0.095      335.426        6.050      850.971
12/23/2021  03:26:00       17.047      -77.544      -44.513       71.922       77.588       46.171     5172.717     6019.927     2131.771        1.080        0.666       79.395       32.121        0.164      335.462        6.111      851.084
12/23/2021  03:27:00      -47.357      -54.267      -21.994       50.954       52.694       30.728     2596.279     2776.646      944.182        0.599        0.316       72.025       16.982        0.056      335.476        6.135      851.215
12/23/2021  03:28:00      -52.129      -50.776      -16.839       61.539       52.637       41.016     3787.108     2770.704     1682.300        0.691        0.412       72.771       21.596        0.088      335.571        6.294      851.286
12/23/2021  03:29:00       -2.955      -83.086      -20.997       83.984       52.219       34.504     7053.360     2726.829     1190.496        0.916        0.549       83.138       21.002        0.064      335.555        6.266      851.246
12/23/2021  03:30:00       38.624     -164.990      -49.127      121.355       90.836       48.932    14726.915     8251.176     2394.386        2.825        1.269      169.451       43.761        0.067      335.525        6.215      851.215
12/23/2021  03:31:00      -17.560     -111.888      -35.231      122.575      122.565       46.237    15024.555    15022.120     2137.872        2.312        1.609      113.257       49.489        0.191      335.429        6.054      851.096
12/23/2021  03:32:00       25.535     -114.095      -39.492      104.271      101.822       38.771    10872.486    10367.811     1503.186        1.898        1.137      116.917       43.325        0.137      335.447        6.087      850.962
12/23/2021  03:33:00       36.386     -161.298      -22.033       62.103       67.457       45.235     3856.816     4550.474     2046.213        1.914        0.523      165.351       41.541        0.063      335.495        6.165      850.944
12/23/2021  03:34:00      -44.832     -138.055      -48.579      119.208       51.376       45.684    14210.571     2639.460     2087.059        2.118        0.947      145.152       31.568        0.047      335.606        6.350      851.028
12/23/2021  03:35:00       16.679     -105.870      -53.669       44.736       33.516       22.939     2001.347     1123.299      526.209        0.901        0.183      107.176       19.543        0.033      335.552        6.262      851.033
12/23/2021  03:36:00      -32.471      -21.747      -25.132       59.725       50.815       30.213     3567.106     2582.192      912.796        0.461        0.353       39.080       30.511        0.610      335.559        6.274      851.053
12/23/2021  03:37:00      -41.766        0.072      -13.205       50.513       46.624       28.754     2551.581     2173.787      826.796        0.373        0.278       41.766       23.266        0.310      335.472        6.129      850.924
12/23/2021  03:38:00        4.640       -7.879      -18.175       40.714       41.218       29.913     1657.619     1698.906      894.812        0.233        0.213        9.144       27.381        8.967      335.468        6.124      850.905
12/23/2021  03:39:00       80.439      -31.250      -23.764       74.205       71.736       45.268     5506.369     5146.050     2049.212        1.035        0.635       86.296       35.593        0.170      335.453        6.098      850.847
12/23/2021  03:40:00      136.874     -124.929      -46.673       87.255      117.176       62.117     7613.393    13730.179     3858.582        3.086        1.260      185.315       47.758        0.066      335.468        6.119      850.712
12/23/2021  03:41:00       87.188      -21.950      -38.861       71.577      130.573       47.458     5123.278    17049.326     2252.228        1.700        1.221       89.908       27.278        0.092      335.316        5.868      850.668
12/23/2021  03:42:00       45.454      -15.380      -15.477       62.380       56.369       39.322     3891.235     3177.436     1546.236        0.558        0.431       47.986       28.605        0.355      335.286        5.817      850.665
12/23/2021  03:43:00       98.385      -32.510      -23.315       85.645      103.074       39.857     7335.010    10624.167     1588.601        1.541        0.977      103.617       31.039        0.090      335.329        5.889      850.559
12/23/2021  03:44:00       40.662      -27.567      -17.390       39.412       60.908       34.301     1553.286     3709.788     1176.585        0.458        0.322       49.126       30.877        0.395      335.437        6.070      850.631
12/23/2021  03:45:00      -24.664        7.150       -8.130       32.221       30.164       20.364     1038.180      909.868      414.690        0.154        0.118       25.679       13.949        0.295      335.417        6.036      850.740
12/23/2021  03:46:00      -12.146      -14.782      -14.473       21.331       29.547       19.540      455.002      873.051      381.830        0.114        0.085       19.132        7.425        0.151      335.344        5.914      850.783
12/23/2021  03:47:00      -30.299       -2.781        0.956       66.476       31.578       38.939     4419.041      997.176     1516.212        0.393        0.347       30.426       29.091        0.914      335.328        5.888      850.815
12/23/2021  03:48:00      -81.811       26.198      -18.392       47.787       54.844       31.545     2283.601     3007.888      995.103        0.700        0.314       85.903       25.820        0.090      335.314        5.865      850.827
12/23/2021  03:49:00      -25.926      -24.543       -9.528       23.763       37.253       18.096      564.661     1387.771      327.461        0.182        0.114       35.700       10.046        0.079      335.355        5.933      850.802
12/23/2021  03:50:00      -82.448       -9.769      -20.780       37.161       36.167       21.304     1380.944     1308.024      453.872        0.523        0.157       83.025       13.054        0.025      335.368        5.955      850.727
12/23/2021  03:51:00      -95.876       76.284      -20.217       43.103       25.971       19.493     1857.853      674.511      379.963        0.917        0.146      122.521       19.406        0.025      335.327        5.885      850.673
12/23/2021  03:52:00     -115.412       31.282      -17.230       45.010       45.247       20.962     2025.922     2047.327      439.390        0.955        0.226      119.577       19.606        0.027      335.304        5.848      850.667
12/23/2021  03:53:00      -23.229       79.514       -8.275       39.767       34.096       26.061     1581.399     1162.525      679.176        0.518        0.171       82.837       23.838        0.083      335.453        6.098      850.589
12/23/2021  03:54:00       56.467       69.509       -7.756       41.446       38.287       26.242     1717.756     1465.867      688.643        0.598        0.194       89.555       17.493        0.038      335.366        5.952      850.504
12/23/2021  03:55:00       54.039        1.179      -11.211       40.801       46.034       25.362     1664.743     2119.102      643.210        0.374        0.221       54.052       16.701        0.095      335.336        5.902      850.458
12/23/2021  03:56:00       81.458     -116.673      -33.311       71.531       77.545       42.203     5116.671     6013.278     1781.089        1.713        0.646      142.296       50.243        0.125      335.327        5.885      850.500
12/23/2021  03:57:00       66.663     -154.443      -28.256       63.344       79.855       38.550     4012.485     6376.757     1486.066        2.048        0.594      168.216       31.393        0.035      335.409        6.022      850.520
12/23/2021  03:58:00      -57.158      -27.345      -29.804       81.098       70.273       28.212     6576.849     4938.325      795.935        0.860        0.616       63.363       17.963        0.080      335.504        6.181      850.568
12/23/2021  03:59:00      -11.713       27.052       -8.106       46.873       34.528       27.792     2197.087     1192.194      772.377        0.255        0.208       29.479       19.893        0.455      335.389        5.991      850.578
12/23/2021  04:00:00      -74.202       13.164       -1.161       45.834       28.407       21.072     2100.771      806.948      444.031        0.452        0.168       75.360       20.003        0.070      335.298        5.838      850.557
12/23/2021  04:01:00      -27.720       -2.697        4.629       23.723       11.661       12.455      562.800      135.982      155.127        0.083        0.043       27.851       10.781        0.150      335.361        5.944      850.522
12/23/2021  04:02:00       -8.438       48.746       -6.426       24.899       40.501       18.314      619.937     1640.306      335.406        0.254        0.130       49.470       21.054        0.181      335.356        5.934      850.452
12/23/2021  04:03:00        0.247       84.660      -20.452       25.779       38.480       14.959      664.568     1480.735      223.763        0.498        0.118       84.660       10.984        0.017      335.406        6.018      850.388
12/23/2021  04:04:00      -58.265      -12.849      -15.957       35.997       30.155       24.759     1295.811      909.354      613.011        0.332        0.141       59.665       20.526        0.118      335.416        6.035      850.423
12/23/2021  04:05:00      -42.544        4.521      -19.572       23.762       31.944       27.714      564.655     1020.421      768.046        0.228        0.118       42.784       14.078        0.108      335.426        6.052      850.519
12/23/2021  04:06:00      -91.905      -73.357      -26.613       68.803       82.367       47.973     4733.916     6784.261     2301.376        1.418        0.691      117.592       50.106        0.182      335.511        6.192      850.614
12/23/2021  04:07:00      -55.926       11.286        1.524       67.120       46.129       31.508     4505.137     2127.930      992.747        0.544        0.381       57.053       30.787        0.291      335.177        5.638      850.692
12/23/2021  04:08:00     -117.704       30.679        5.900       69.098       40.610       36.377     4774.537     1649.181     1323.306        1.129        0.387      121.636       40.807        0.113      335.356        5.936      850.689
12/23/2021  04:09:00     -157.951      -20.108       -8.090       68.193       52.613       41.921     4650.323     2768.172     1757.391        1.730        0.459      159.226       39.218        0.061      335.423        6.046      850.741
12/23/2021  04:10:00      -43.371      -14.560       -7.520       34.187       36.944       26.023     1168.726     1364.892      677.186        0.268        0.161       45.750       13.652        0.089      335.409        6.024      850.635
12/23/2021  04:11:00       49.163       -9.623      -16.158       47.053       81.297       44.903     2214.002     6609.274     2016.304        0.680        0.542       50.096       38.023        0.576      335.521        6.211      850.367
12/23/2021  04:12:00      127.952     -126.784      -55.338       82.324      104.815       63.674     6777.303    10986.122     4054.416        2.866        1.091      180.128       49.239        0.075      335.506        6.184      850.300
12/23/2021  04:13:00      163.904     -195.503      -48.664       69.125       67.780       41.981     4778.307     4594.186     1762.376        3.929        0.557      255.119       33.086        0.017      335.488        6.151      850.263
12/23/2021  04:14:00       44.557      -95.004      -33.841       93.563      100.826       47.300     8753.976    10165.902     2237.295        1.665        1.058      104.934       61.285        0.341      335.513        6.197      850.268
12/23/2021  04:15:00      112.413     -195.484      -49.368       69.445       85.123       34.437     4822.566     7245.997     1185.886        3.327        0.663      225.501       29.058        0.017      335.488        6.153      850.296
12/23/2021  04:16:00      136.436     -179.159      -51.186       60.551      102.755       48.381     3666.427    10558.576     2340.673        3.495        0.828      225.195       46.950        0.043      335.451        6.092      850.291
12/23/2021  04:17:00      136.667     -184.021      -58.007       62.111       94.485       54.319     3857.830     8927.397     2950.605        3.582        0.787      229.220       33.547        0.021      335.434        6.063      850.280
12/23/2021  04:18:00      126.003     -238.111      -45.466       66.782       76.707       43.205     4459.886     5883.998     1866.702        4.342        0.611      269.395       27.269        0.010      335.361        5.941      850.364
12/23/2021  04:19:00      122.393     -219.276      -59.837       77.534       68.349       36.614     6011.528     4671.593     1340.566        3.933        0.601      251.121       25.418        0.010      335.366        5.949      850.510
12/23/2021  04:20:00       24.791      -95.258      -30.036       60.970       48.400       43.401     3717.363     2342.545     1883.682        0.927        0.397       98.431       28.646        0.085      335.485        6.149      850.541
12/23/2021  04:21:00      -14.800      -48.097      -27.112       44.926       55.460       31.863     2018.310     3075.806     1015.227        0.469        0.305       50.323        7.638        0.023      335.562        6.280      850.549
12/23/2021  04:22:00       54.367      -87.357      -35.621       50.926       62.254       30.087     2593.503     3875.566      905.242        0.961        0.369      102.894       30.013        0.085      335.610        6.356      850.494
12/23/2021  04:23:00      -35.696       15.453       -0.871       54.059       33.912       25.034     2922.417     1150.018      626.683        0.311        0.235       38.898       21.671        0.310      335.496        6.169      850.463
12/23/2021  04:24:00       25.052     -123.440      -31.843      121.226       95.247       44.753    14695.704     9072.023     2002.818        2.132        1.289      125.957       56.129        0.199      335.617        6.368      850.420
12/23/2021  04:25:00       70.053     -111.200      -29.524       79.996      109.530       41.825     6399.381    11996.806     1749.309        1.914        1.007      131.427       33.830        0.066      335.617        6.369      850.345
12/23/2021  04:26:00       43.415     -112.762      -31.868       57.423       50.449       33.961     3297.370     2545.134     1153.328        1.130        0.350      120.831       27.424        0.052      335.633        6.396      850.321
12/23/2021  04:27:00       33.001      -89.121      -33.169       56.178       69.382       36.295     3155.959     4813.863     1317.309        0.971        0.464       95.035       18.947        0.040      335.708        6.521      850.286
12/23/2021  04:28:00       76.831     -134.303      -36.439       72.082       63.769       40.881     5195.780     4066.460     1671.232        1.810        0.547      154.726       34.744        0.050      335.679        6.472      850.280
12/23/2021  04:29:00       73.197     -134.050      -53.667      118.130      119.280       53.796    13954.649    14227.682     2894.023        2.864        1.554      152.732       28.391        0.035      335.712        6.525      850.242
12/23/2021  04:30:00       84.614      -95.552      -34.849       91.952       80.049       44.549     8455.166     6407.769     1984.617        1.717        0.842      127.631       48.390        0.144      335.729        6.555      850.196
12/23/2021  04:31:00      104.992     -195.821      -57.558       85.923      123.854       60.417     7382.794    15339.809     3650.266        3.952        1.319      222.192       48.524        0.048      335.685        6.479      850.201
12/23/2021  04:32:00       11.681     -233.541      -20.569      121.948      116.083       62.549    14871.352    13475.166     3912.328        4.367        1.613      233.833       37.983        0.026      335.776        6.631      850.264
12/23/2021  04:33:00        0.444     -135.563      -33.315      110.397       94.058       52.812    12187.388     8846.971     2789.094        2.165        1.191      135.564       43.095        0.101      335.773        6.630      850.298
12/23/2021  04:34:00      -16.850     -133.170      -46.405       84.843       67.525       53.479     7198.283     4559.592     2859.995        1.739        0.731      134.231       35.855        0.071      335.798        6.671      850.336
12/23/2021  04:35:00       27.450      -62.693      -31.776      101.604       81.773       46.363    10323.358     6686.809     2149.530        1.242        0.958       68.439       35.622        0.271      335.723        6.546      850.361
12/23/2021  04:36:00       20.621      -87.078      -13.051       60.240       47.411       34.126     3628.818     2247.760     1164.572        0.761        0.352       89.486       22.133        0.061      335.733        6.564      850.444
12/23/2021  04:37:00       71.276     -105.701      -30.065      111.115       87.944       47.164    12346.616     7734.082     2224.412        1.973        1.115      127.487       37.965        0.089      335.741        6.575      850.506
12/23/2021  04:38:00      146.571     -314.264      -56.257       73.232      166.400       51.141     5362.873    27688.933     2615.352        7.953        1.783      346.763       49.072        0.020      335.682        6.475      850.435
12/23/2021  04:39:00      124.568     -206.928      -58.209       79.675       85.481       42.563     6348.155     7306.968     1811.595        3.859        0.773      241.529       42.029        0.030      335.720        6.537      850.370
12/23/2021  04:40:00       50.809     -260.658      -30.537       71.675      117.060       42.300     5137.322    13703.004     1789.332        4.604        1.031      265.564       42.868        0.026      335.743        6.577      850.437
12/23/2021  04:41:00       60.689     -118.675      -30.975       94.778       53.879       55.382     8982.823     2902.994     3067.156        1.684        0.748      133.293       28.515        0.046      335.723        6.545      850.506
12/23/2021  04:42:00      122.716     -248.685      -46.475       84.364       98.307       49.987     7117.230     9664.351     2498.738        4.917        0.964      277.315       33.979        0.015      335.655        6.429      850.462
12/23/2021  04:43:00      117.800     -211.484      -36.870       75.019       87.816       45.844     5627.882     7711.672     2101.715        3.770        0.772      242.079       44.024        0.033      335.622        6.374      850.431
12/23/2021  04:44:00       94.488      -81.132      -19.566       65.368       81.346       63.125     4273.002     6617.181     3984.768        1.538        0.744      124.541       57.433        0.213      335.597        6.335      850.430
12/23/2021  04:45:00      111.982     -195.017      -32.310       86.040       94.414       62.326     7402.958     8913.937     3884.507        3.590        1.010      224.882       53.483        0.057      335.600        6.338      850.441
12/23/2021  04:46:00      105.958     -201.546      -53.193       58.126       83.637       39.387     3378.619     6995.171     1551.352        3.330        0.596      227.701       23.487        0.011      335.676        6.465      850.434
12/23/2021  04:47:00        6.026        0.136       -7.682       67.719       86.177       54.320     4585.830     7426.420     2950.665        0.753        0.748        6.028       43.059       51.029      335.639        6.405      850.402
12/23/2021  04:48:00       56.201      -90.099      -16.805       66.492      112.522       50.943     4421.200    12661.240     2595.141        1.561        0.984      106.190       57.213        0.290      335.661        6.441      850.425
12/23/2021  04:49:00       43.758     -163.086      -36.262      105.101      120.862       46.333    11046.269    14607.683     2146.752        2.881        1.390      168.855       46.936        0.077      335.579        6.305      850.476
12/23/2021  04:50:00       54.612     -151.427      -36.533       95.832       92.525       65.408     9183.721     8560.832     4278.259        2.463        1.101      160.974       43.604        0.073      335.575        6.298      850.466
12/23/2021  04:51:00       85.000     -212.622      -40.380       61.287      103.412       40.390     3756.135    10694.135     1631.357        3.507        0.804      228.983       31.457        0.019      335.543        6.245      850.448
12/23/2021  04:52:00      115.623     -198.046      -46.159       74.239      106.096       55.068     5511.376    11256.356     3032.522        3.726        0.990      229.327       49.610        0.047      335.464        6.112      850.429
12/23/2021  04:53:00      -18.135     -169.422      -55.949      136.201       88.478       62.015    18550.583     7828.361     3845.824        3.119        1.511      170.390       51.956        0.093      335.452        6.093      850.485
12/23/2021  04:54:00      -76.998     -120.244      -17.501      107.913       92.765       60.447    11645.116     8605.264     3653.808        2.229        1.195      142.784       53.827        0.142      335.583        6.311      850.524
12/23/2021  04:55:00      -41.072     -191.790      -56.978      107.382      128.184       57.746    11530.895    16431.208     3334.638        3.650        1.565      196.139       29.040        0.022      335.641        6.407      850.489
12/23/2021  04:56:00       66.864     -195.275      -34.405      102.161      138.173       55.066    10436.880    19091.883     3032.237        3.817        1.628      206.405       59.451        0.083      335.510        6.189      850.474
12/23/2021  04:57:00       21.237      -26.794      -41.149       78.658      106.012       42.034     6187.024    11238.542     1766.838        1.102        0.960       34.190       51.694        2.286      335.451        6.093      850.459
12/23/2021  04:58:00       96.331     -170.946      -41.560       96.218      116.870       60.224     9257.883    13658.639     3626.907        3.338        1.327      196.220       52.650        0.072      335.455        6.098      850.439
12/23/2021  04:59:00       89.479     -340.554      -64.160       86.266      165.600       63.661     7441.755    27423.253     4052.774        8.350        1.946      352.113       42.854        0.015      335.456        6.100      850.390
12/23/2021  05:00:00      115.842     -195.655      -40.935       76.821       75.475       40.564     5901.479     5696.411     1645.432        3.331        0.662      227.377       34.861        0.024      335.451        6.092      850.363
12/23/2021  05:01:00       55.532     -122.004      -35.801       55.462       75.162       37.534     3076.037     5649.260     1408.822        1.469        0.507      134.047       16.334        0.015      335.469        6.125      850.318
12/23/2021  05:02:00       58.506     -148.123      -46.033       72.643       62.783       48.314     5277.061     3941.651     2334.256        1.952        0.578      159.259       19.781        0.015      335.515        6.199      850.281
12/23/2021  05:03:00      149.539     -190.516      -59.015       72.671      124.802       57.556     5281.073    15575.482     3312.743        4.315        1.208      242.195       59.613        0.061      335.414        6.030      850.223
12/23/2021  05:04:00       61.846      -81.178      -37.964       87.173       80.233       55.998     7599.102     6437.311     3135.743        1.451        0.859      102.053       43.159        0.179      335.450        6.091      850.156
12/23/2021  05:05:00       74.881     -183.666      -58.662       76.639      125.644       47.431     5873.471    15786.513     2249.658        3.334        1.195      198.344       25.502        0.017      335.414        6.030      850.142
12/23/2021  05:06:00       46.156     -113.407      -27.860       79.543       63.417       36.611     6327.075     4021.778     1340.337        1.373        0.584      122.439       28.911        0.056      335.449        6.090      850.211
12/23/2021  05:07:00       27.499      -73.626      -24.048       58.501       77.913       35.717     3422.322     6070.447     1275.707        0.876        0.538       78.594       29.062        0.137      335.501        6.176      850.251
12/23/2021  05:08:00       50.211      -96.025      -47.290       72.653       63.875       43.890     5278.520     4080.027     1926.320        1.263        0.564      108.360       34.693        0.103      335.448        6.089      850.217
12/23/2021  05:09:00       95.923     -136.172      -30.189      116.303      107.847       60.760    13526.407    11630.879     3691.787        2.875        1.442      166.565       69.234        0.173      335.405        6.015      850.142
12/23/2021  05:10:00        7.267      -27.604      -15.292       88.973       92.915       52.452     7916.196     8633.141     2751.162        1.017        0.965       28.545       37.655        1.740      335.347        5.918      850.123
12/23/2021  05:11:00      121.070     -221.166      -44.106       64.911       83.996       41.691     4213.458     7055.338     1738.163        3.926        0.650      252.136       41.231        0.027      335.322        5.874      850.131
12/23/2021  05:12:00      134.289     -171.846      -38.122       91.747       96.066       61.940     8417.459     9228.661     3836.532        3.525        1.074      218.093       50.871        0.054      335.265        5.781      850.102
12/23/2021  05:13:00       82.008     -110.036      -30.265       84.438       80.111       74.498     7129.824     6417.745     5550.009        1.942        0.955      137.234       72.574        0.280      335.274        5.796      850.083
12/23/2021  05:14:00      114.101     -190.326      -51.846       74.159      118.793       54.969     5499.505    14111.842     3021.622        3.728        1.132      221.907       24.677        0.012      335.235        5.731      850.099
12/23/2021  05:15:00       12.361     -128.286      -37.268      112.751       67.602       50.650    12712.702     4570.016     2565.448        1.892        0.992      128.880       48.038        0.139      335.367        5.952      850.166
12/23/2021  05:16:00       20.928      -82.540      -44.204       70.651       71.905       49.943     4991.558     5170.397     2494.320        1.093        0.633       85.152       29.588        0.121      335.321        5.876      850.199
12/23/2021  05:17:00       74.227     -125.058      -36.975      119.699      103.088       75.604    14327.855    10627.194     5715.968        2.659        1.534      145.427       50.682        0.121      335.264        5.780      850.256
12/23/2021  05:18:00      112.022     -217.224      -41.396       69.839      151.923       55.517     4877.475    23080.672     3082.168        4.624        1.552      244.408       62.997        0.066      335.175        5.631      850.335
12/23/2021  05:19:00       49.012     -181.819      -33.312      104.772      110.682       64.722    10977.095    12250.506     4188.877        3.199        1.371      188.309       40.140        0.045      335.201        5.676      850.405
12/23/2021  05:20:00       95.495     -273.452      -54.462      120.186       75.092       54.982    14444.641     5638.810     3022.968        5.498        1.155      289.647       47.187        0.027      335.191        5.658      850.453
12/23/2021  05:21:00       35.066     -281.622      -69.791      112.544      129.252       73.625    12666.108    16706.135     5420.655        6.010        1.740      283.797       21.860        0.006      335.152        5.594      850.464
12/23/2021  05:22:00      126.331     -198.385      -65.001      124.633      127.035       64.704    15533.285    16137.820     4186.616        4.769        1.793      235.193       66.089        0.079      335.145        5.583      850.488
12/23/2021  05:23:00      124.769     -254.102      -50.503       77.857       76.192       51.272     6061.724     5805.229     2628.865        4.859        0.725      283.082       34.784        0.015      335.164        5.614      850.484
12/23/2021  05:24:00       75.347     -152.636      -40.025       88.761       83.003       40.343     7878.513     6889.432     1627.546        2.348        0.820      170.220       31.445        0.034      335.216        5.700      850.427
12/23/2021  05:25:00      153.712     -328.432      -61.496      100.319      209.693       66.863    10063.995    43971.201     4470.628        9.688        2.925      362.623       72.118        0.040      335.110        5.524      850.355
12/23/2021  05:26:00      197.393     -382.386      -70.384      113.179      135.065       68.452    12809.478    18242.537     4685.735       11.293        1.787      430.329       52.980        0.015      335.061        5.445      850.319
12/23/2021  05:27:00       80.389     -140.955      -27.736       87.253      154.574       57.616     7613.087    23893.053     3319.609        3.096        1.741      162.268       58.123        0.128      335.125        5.549      850.324
12/23/2021  05:28:00      -47.911      -67.990      -25.318       61.470       50.509       34.904     3778.603     2551.172     1218.308        0.755        0.377       83.175       17.806        0.046      335.160        5.608      850.332
12/23/2021  05:29:00      128.460     -254.473      -53.532      141.508      219.795       79.723    20024.466    48309.636     6355.683        7.939        3.734      285.059       86.105        0.091      335.081        5.478      850.344
12/23/2021  05:30:00       52.949     -243.868      -30.778       96.342       97.195       67.238     9281.695     9446.928     4520.935        4.323        1.162      249.550       55.453        0.049      335.098        5.504      850.338
12/23/2021  05:31:00       93.906     -411.144      -61.585      131.929      162.836       79.088    17405.324    26515.435     6254.919       11.590        2.509      421.732       54.874        0.017      335.086        5.486      850.334
12/23/2021  05:32:00       10.218     -186.046      -37.251       78.758       96.800       47.459     6202.820     9370.219     2252.323        2.696        0.891      186.326       20.047        0.012      335.118        5.538      850.346
12/23/2021  05:33:00        0.666     -149.443      -26.880      100.418      107.845       49.666    10083.864    11630.643     2466.687        2.361        1.209      149.444       45.615        0.093      335.089        5.490      850.367
12/23/2021  05:34:00      -69.181      -58.460      -16.106       89.354      123.557       55.253     7984.092    15266.311     3052.946        1.738        1.315       90.574       27.546        0.092      335.076        5.470      850.432
12/23/2021  05:35:00      108.134     -270.453      -49.523       65.276      102.451       48.088     4260.966    10496.275     2312.470        5.218        0.853      291.270       38.923        0.018      334.984        5.313      850.393
12/23/2021  05:36:00       71.392     -201.400      -37.119       94.637      109.605       53.163     8956.214    12013.168     2826.326        3.541        1.190      213.679       64.039        0.090      334.986        5.317      850.308
12/23/2021  05:37:00       76.759     -144.113      -33.693       58.422      136.380       47.477     3413.127    18599.552     2254.089        2.603        1.213      163.281       43.010        0.069      335.069        5.457      850.323
12/23/2021  05:38:00      -33.225     -158.214      -59.832      118.163      124.253       67.248    13962.528    15438.757     4522.304        3.181        1.696      161.665       54.132        0.112      334.999        5.342      850.348
12/23/2021  05:39:00       64.677     -247.954      -30.537       83.078      100.420       60.637     6901.991    10084.207     3676.831        4.363        1.033      256.251       51.750        0.041      335.058        5.438      850.331
12/23/2021  05:40:00       52.914     -212.664      -47.087      149.321      137.539       63.268    22296.687    18917.060     4002.786        4.772        2.261      219.148       70.759        0.104      335.041        5.410      850.349
12/23/2021  05:41:00       92.241     -160.670      -22.621       70.942       70.871       43.883     5032.775     5022.727     1925.695        2.341        0.599      185.265       39.581        0.046      334.964        5.283      850.398
12/23/2021  05:42:00       41.688      -42.714      -42.718       98.632       80.263       53.514     9728.185     6442.153     2863.726        1.221        0.952       59.685       37.859        0.402      335.031        5.394      850.412
12/23/2021  05:43:00       22.580      -37.476      -21.621       32.901       39.996       37.360     1082.462     1599.704     1395.789        0.323        0.204       43.753       25.856        0.349      334.980        5.310      850.492
12/23/2021  05:44:00      -48.215      -70.317      -23.676       58.871       81.953       54.432     3465.739     6716.216     2962.822        1.048        0.657       85.259       33.055        0.150      335.036        5.405      850.567
12/23/2021  05:45:00      -55.100      -31.689       -6.004       50.901       62.347       32.007     2590.955     3887.176     1024.418        0.579        0.375       63.562       25.978        0.167      334.959        5.276      850.618
12/23/2021  05:46:00     -100.495     -118.577      -17.152       70.688      114.530       45.376     4996.732    13117.058     2058.939        2.231        1.009      155.434       39.302        0.064      334.993        5.330      850.641
12/23/2021  05:47:00       89.892      -94.081      -32.834       49.426       48.470       34.202     2442.979     2349.294     1169.808        1.198        0.298      130.123       23.520        0.033      335.078        5.473      850.567
12/23/2021  05:48:00      -35.674       14.369       -1.180       48.798       48.283       31.923     2381.270     2331.245     1019.071        0.360        0.287       38.459       10.139        0.070      334.943        5.250      850.553
12/23/2021  05:49:00      -64.678       -3.452      -26.356       80.031       33.731       31.849     6405.016     1137.761     1014.374        0.672        0.428       64.770       22.659        0.122      334.888        5.158      850.641
12/23/2021  05:50:00      -74.368       14.406        2.612       51.314       42.717       28.978     2633.147     1824.749      839.736        0.552        0.265       75.751       25.941        0.117      334.888        5.157      850.650
12/23/2021  05:51:00     -115.717      -11.182      -16.983       56.658       44.326       31.815     3210.102     1964.778     1012.194        0.999        0.309      116.256       22.983        0.039      334.855        5.105      850.615
12/23/2021  05:52:00      -31.891      -14.941      -11.337       47.234       34.609       25.497     2231.085     1197.792      650.082        0.272        0.204       35.217       23.437        0.443      334.850        5.098      850.573
12/23/2021  05:53:00      -60.672        0.270       -8.567       29.978       44.205       18.378      898.676     1954.076      337.745        0.347        0.160       60.673       13.380        0.049      334.859        5.113      850.556
12/23/2021  05:54:00      -84.379        6.436       -7.315       45.066       36.318       24.863     2030.966     1318.973      618.146        0.559        0.198       84.624       24.137        0.081      334.840        5.079      850.547
12/23/2021  05:55:00      -72.489        8.955       -8.467       44.676       37.871       27.872     1995.971     1434.211      776.838        0.481        0.210       73.040       24.041        0.108      334.808        5.027      850.553
12/23/2021  05:56:00      -84.463      -18.334      -10.027       35.346       44.385       31.691     1249.359     1970.044     1004.343        0.590        0.211       86.430       25.188        0.085      334.784        4.986      850.556
12/23/2021  05:57:00      -68.135      -36.937      -22.615       42.501       26.084       23.149     1806.304      680.358      535.876        0.477        0.151       77.503       11.306        0.021      334.821        5.048      850.505
12/23/2021  05:58:00       -7.872       14.357       -6.278       10.038       15.129       12.477      100.761      228.873      155.668        0.040        0.024       16.373        9.971        0.371      334.820        5.046      850.430
12/23/2021  05:59:00      -10.223        5.219      -11.614       14.011       10.762       10.287      196.310      115.831      105.813        0.034        0.021       11.478        6.289        0.300      334.736        4.904      850.401
12/23/2021  06:00:00      -12.547      -16.446       -5.326       24.992       25.208       19.991      624.606      635.461      399.658        0.106        0.083       20.686       15.094        0.532      334.789        4.994      850.416
12/23/2021  06:01:00        1.786       -8.343       -5.844       23.813       20.271       14.027      567.074      410.906      196.765        0.064        0.059        8.532       10.747        1.586      334.768        4.958      850.420
12/23/2021  06:02:00        2.113        8.083       -7.577       21.160       10.814        9.667      447.754      116.951       93.446        0.039        0.033        8.354       10.128        1.470      334.710        4.862      850.387
12/23/2021  06:03:00       54.691     -102.327      -29.970       32.567       49.439       30.150     1060.605     2444.244      909.033        0.939        0.221      116.026       24.188        0.043      334.802        5.016      850.364
12/23/2021  06:04:00       38.989       -9.539      -40.563       81.240      101.076       44.425     6599.860    10216.398     1973.587        1.102        0.939       40.139       37.832        0.888      334.675        4.804      850.383
12/23/2021  06:05:00       59.684     -131.285      -35.093       61.648       77.498       36.673     3800.536     6005.981     1344.907        1.659        0.558      144.215       48.151        0.111      334.711        4.863      850.428
12/23/2021  06:06:00       12.249      -30.528       -8.370       66.810       44.951       27.114     4463.569     2020.629      735.172        0.418        0.361       32.894       24.155        0.539      334.771        4.963      850.517
12/23/2021  06:07:00       23.819       -8.538       -1.128       40.435       53.335       29.089     1635.024     2844.667      846.173        0.298        0.266       25.303       25.347        1.004      334.770        4.961      850.503
12/23/2021  06:08:00       39.894      -60.937      -24.157       34.870       81.076       27.764     1215.948     6573.287      770.859        0.722        0.428       72.834       15.577        0.046      334.756        4.938      850.417
12/23/2021  06:09:00       68.122     -155.752      -38.142       30.093       46.201       27.980      905.570     2134.561      782.896        1.709        0.191      169.998       19.669        0.013      334.829        5.059      850.425
12/23/2021  06:10:00       93.323     -158.039      -45.168       65.262       74.427       41.425     4259.147     5539.349     1716.038        2.362        0.576      183.536       28.428        0.024      334.633        4.731      850.498
12/23/2021  06:11:00      -23.457      -28.457       -6.530       48.615       40.797       29.432     2363.448     1664.378      866.265        0.315        0.245       36.878       21.178        0.330      334.723        4.882      850.537
12/23/2021  06:12:00       73.381     -166.853      -40.695       44.936       85.030       41.791     2019.225     7230.117     1746.477        2.294        0.550      182.276       31.026        0.029      334.719        4.875      850.544
12/23/2021  06:13:00      -10.966     -103.983      -18.280       97.971       76.429       51.422     9598.376     5841.389     2644.253        1.467        0.904      104.560       49.229        0.222      334.766        4.954      850.506
12/23/2021  06:14:00      -70.648      -41.558      -17.265       37.598       36.965       40.996     1413.586     1366.394     1680.667        0.574        0.223       81.965       19.221        0.055      334.728        4.892      850.495
12/23/2021  06:15:00      -50.293      -24.712       -3.771       39.018       37.356       26.224     1522.397     1395.492      687.710        0.338        0.180       56.036       23.348        0.174      334.757        4.940      850.556
12/23/2021  06:16:00      -32.518        2.087       -3.944       27.504       28.690       24.869      756.484      823.089      618.456        0.164        0.110       32.585       11.016        0.114      334.648        4.756      850.592
12/23/2021  06:17:00      -48.494        6.189       -1.810       26.943       25.241       16.788      725.912      637.116      281.823        0.202        0.082       48.887       12.680        0.067      334.628        4.724      850.583
12/23/2021  06:18:00      -20.557       12.184      -10.593       26.865       16.150       11.884      721.723      260.808      141.241        0.090        0.056       23.897        6.151        0.066      334.615        4.702      850.557
12/23/2021  06:19:00       52.033      -83.111      -23.104       42.442       52.132       29.814     1801.320     2717.731      888.898        0.778        0.270       98.055       29.700        0.092      334.838        5.074      850.536
12/23/2021  06:20:00       45.536     -115.745      -14.604       43.047       49.271       28.380     1853.047     2427.606      805.425        1.038        0.254      124.380       29.663        0.057      334.641        4.746      850.518
12/23/2021  06:21:00        4.474      -84.418      -17.202       26.781       50.066       20.951      717.207     2506.591      438.951        0.555        0.183       84.536       11.317        0.018      334.798        5.008      850.494
12/23/2021  06:22:00       20.123      -55.844      -15.852       41.106       50.821       21.575     1689.724     2582.725      465.484        0.426        0.237       59.359       31.293        0.278      334.726        4.888      850.412
12/23/2021  06:23:00       30.018      -51.942      -23.212       29.095       40.197       33.425      846.492     1615.829     1117.258        0.386        0.179       59.992       25.510        0.181      334.766        4.955      850.378
12/23/2021  06:24:00       55.705      -86.569      -15.648       56.228       91.438       34.165     3161.642     8360.857     1167.246        1.176        0.634      102.943       46.630        0.205      334.726        4.887      850.366
12/23/2021  06:25:00       22.201     -120.289      -21.874       46.258       56.471       32.760     2139.798     3189.001     1073.197        1.092        0.320      122.320       26.227        0.046      334.645        4.753      850.397
12/23/2021  06:26:00       18.791      -61.114       -6.896       42.543       43.258       28.455     1809.944     1871.284      809.664        0.431        0.225       63.938       23.905        0.140      334.595        4.669      850.425
12/23/2021  06:27:00      -27.585      -14.880      -15.596       30.930       32.561       24.708      956.654     1060.242      610.498        0.193        0.131       31.342       20.117        0.412      334.538        4.577      850.482
12/23/2021  06:28:00      -80.535      -32.899      -14.913       43.178       41.314       29.273     1864.381     1706.828      856.915        0.611        0.221       86.996       14.961        0.030      334.653        4.767      850.586
12/23/2021  06:29:00      -31.673      -59.729      -22.534       58.786       63.467       32.323     3455.761     4028.021     1044.774        0.680        0.426       67.607        9.761        0.021      334.682        4.814      850.625
12/23/2021  06:30:00       12.402     -144.636      -42.304       51.597       67.548       33.831     2662.271     4562.776     1144.541        1.561        0.418      145.167       35.082        0.058      334.647        4.755      850.588
12/23/2021  06:31:00       77.984     -122.425      -29.825       45.330       57.289       41.780     2054.778     3282.061     1745.581        1.452        0.354      145.153       21.589        0.022      334.742        4.916      850.532
12/23/2021  06:32:00       97.707     -129.568      -49.973       54.231       46.370       28.008     2941.051     2150.136      784.471        1.735        0.294      162.279       21.373        0.017      334.549        4.593      850.497
12/23/2021  06:33:00       97.148     -172.191      -40.578       37.859       42.127       28.391     1433.282     1774.673      806.039        2.237        0.201      197.706       26.783        0.018      334.496        4.505      850.475
12/23/2021  06:34:00       23.293      -48.505      -16.732       35.413       71.414       23.802     1254.065     5100.026      566.525        0.505        0.346       53.808       27.562        0.262      334.577        4.640      850.439
12/23/2021  06:35:00        4.221       -6.482      -18.508       28.428       36.493       20.731      808.143     1331.756      429.770        0.149        0.128        7.736       16.725        4.675      334.635        4.734      850.398
12/23/2021  06:36:00      -32.862      -18.783       -1.840       28.761       35.000       23.670      827.187     1224.978      560.289        0.202        0.131       37.851       18.546        0.240      334.639        4.744      850.412
12/23/2021  06:37:00      -12.925      -13.374       -7.510       37.901       38.463       20.947     1436.490     1479.388      438.779        0.188        0.168       18.599       17.883        0.925      334.628        4.726      850.435
12/23/2021  06:38:00       41.652      -88.607       -4.396       48.079       77.193       35.103     2311.635     5958.772     1232.253        0.955        0.475       97.908       31.237        0.102      334.704        4.852      850.443
12/23/2021  06:39:00       64.359      -93.935      -23.149       42.253       68.276       29.128     1785.323     4661.622      848.462        1.040        0.365      113.868       27.693        0.059      334.541        4.580      850.447
12/23/2021  06:40:00       75.063     -171.191      -44.788       45.433       64.850       32.575     2064.162     4205.512     1061.127        2.214        0.367      186.924       16.925        0.008      334.595        4.668      850.463
12/23/2021  06:41:00       63.592     -134.339      -37.056       54.351       57.171       35.927     2954.086     3268.473     1290.760        1.549        0.376      148.630       37.023        0.062      334.494        4.503      850.473
12/23/2021  06:42:00       92.949      -73.765      -36.866       59.929       77.210       35.790     3591.432     5961.453     1280.897        1.313        0.542      118.663       39.159        0.109      334.442        4.418      850.501
12/23/2021  06:43:00       92.665     -156.600      -39.593       54.161       40.167       29.116     2933.409     1613.418      847.759        2.004        0.270      181.963       30.510        0.028      334.398        4.345      850.506
12/23/2021  06:44:00       58.666     -114.865      -21.952       53.487       41.206       29.999     2860.872     1697.907      899.937        1.129        0.273      128.980       35.728        0.077      334.447        4.426      850.523
12/23/2021  06:45:00       65.369     -137.749      -43.695       39.222       36.098       25.135     1538.366     1303.100      631.765        1.431        0.174      152.472        9.272        0.004      334.412        4.367      850.531
12/23/2021  06:46:00       62.602     -110.775      -18.663       33.031       45.564       27.555     1091.064     2076.076      759.260        1.023        0.196      127.241       18.797        0.022      334.445        4.422      850.499
12/23/2021  06:47:00       68.764      -91.021      -34.364       49.923       48.453       31.141     2492.285     2347.677      969.780        1.000        0.290      114.076       28.678        0.063      334.445        4.421      850.458
12/23/2021  06:48:00       54.145      -35.029      -37.809       41.062       61.407       26.161     1686.095     3770.794      684.376        0.586        0.307       64.488       12.010        0.035      334.506        4.522      850.445
12/23/2021  06:49:00      -45.935      -19.141       -9.198       27.344       33.118       20.921      747.708     1096.804      437.670        0.242        0.114       49.763       17.519        0.124      334.489        4.494      850.437
12/23/2021  06:50:00       -5.034      -38.356      -14.590       24.387       44.973       24.219      594.731     2022.569      586.582        0.246        0.160       38.685       19.557        0.256      334.456        4.441      850.443
12/23/2021  06:51:00       28.996      -69.153      -20.738       38.916       46.569       34.050     1514.492     2168.676     1159.388        0.545        0.242       74.985       22.664        0.091      334.446        4.423      850.508
12/23/2021  06:52:00      -12.516      -25.420       -8.993       36.623       41.095       19.882     1341.220     1688.797      395.294        0.215        0.171       28.335        9.870        0.121      334.499        4.511      850.604
12/23/2021  06:53:00      -12.758      -24.687      -15.100       18.531       22.120       16.879      343.382      489.289      284.906        0.106        0.056       27.789        8.034        0.084      334.453        4.434      850.692
12/23/2021  06:54:00      -27.475        2.356       -6.691       26.597       18.344       16.892      707.425      336.495      285.337        0.107        0.066       27.576       10.347        0.141      334.435        4.407      850.725
12/23/2021  06:55:00      -13.217      -22.563      -14.540       21.588       21.335       15.574      466.028      455.167      242.555        0.103        0.058       26.149       10.401        0.158      334.506        4.521      850.697
12/23/2021  06:56:00       -7.164       13.868       -1.699       11.062       13.523       11.795      122.363      182.885      139.133        0.035        0.022       15.609        7.793        0.249      334.508        4.526      850.615
12/23/2021  06:57:00       67.505       50.267      -16.761       42.203       35.153       21.825     1781.075     1235.763      476.337        0.543        0.175       84.165       17.957        0.046      334.438        4.410      850.464
12/23/2021  06:58:00       78.191       68.131      -17.959       27.410       35.544       23.404      751.295     1263.357      547.769        0.682        0.128      103.709       10.563        0.010      334.491        4.497      850.292
12/23/2021  06:59:00       50.939       59.610      -20.300       35.395       32.805       24.462     1252.829     1076.190      598.366        0.474        0.146       78.410       22.364        0.081      334.358        4.277      850.279
12/23/2021  07:00:00      120.241       64.294      -14.427       40.350       27.304       20.401     1628.089      745.493      416.206        1.079        0.139      136.351       13.604        0.010      334.220        4.047      850.266
12/23/2021  07:01:00      113.653       16.728      -15.982       54.803       35.783       18.883     3003.328     1280.457      356.578        0.905        0.232      114.877        9.315        0.007      334.233        4.070      850.236
12/23/2021  07:02:00      103.812       46.516      -11.874       40.356       27.626       18.095     1628.578      763.196      327.426        0.790        0.136      113.757       17.623        0.024      334.104        3.857      850.218
12/23/2021  07:03:00       63.802       54.331       -8.177       29.277       29.994       18.333      857.153      899.659      336.107        0.459        0.105       83.801       16.040        0.037      334.114        3.873      850.194
12/23/2021  07:04:00       48.222       83.509       -4.573       25.810       33.149       23.016      666.131     1098.859      529.716        0.581        0.115       96.432       15.497        0.026      334.232        4.069      850.176
12/23/2021  07:05:00       43.848       93.403       -3.704       31.092       43.879       24.550      966.683     1925.399      602.716        0.708        0.175      103.183       23.438        0.052      334.328        4.227      850.182
12/23/2021  07:06:00       66.033       68.330       -9.057       31.026       29.446       19.280      962.609      867.085      371.719        0.566        0.110       95.023       15.564        0.027      334.228        4.063      850.124
12/23/2021  07:07:00       57.165       65.380       -5.921       31.486       33.033       23.987      991.374     1091.169      575.352        0.512        0.133       86.847       18.386        0.045      334.215        4.039      850.091
12/23/2021  07:08:00       37.832      102.049       -9.986       26.557       37.597       26.110      705.278     1413.526      681.720        0.737        0.140      108.836       23.614        0.047      334.393        4.336      850.180
12/23/2021  07:09:00       -9.503       69.885      -12.778       27.872       35.188       19.249      776.848     1238.198      370.518        0.376        0.119       70.529       12.200        0.030      334.394        4.337      850.304
12/23/2021  07:10:00      -27.175       29.979      -19.049       25.516       19.436       18.569      651.059      377.761      344.807        0.169        0.069       40.462       13.606        0.113      334.306        4.193      850.408
12/23/2021  07:11:00      -61.157       24.031      -17.303       18.568       20.434       14.713      344.756      417.563      216.460        0.280        0.049       65.709        5.743        0.008      334.256        4.107      850.509
12/23/2021  07:12:00      -23.577       -9.269       -6.081       18.039       16.867       14.284      325.393      284.488      204.039        0.075        0.041       25.334       12.154        0.230      334.290        4.166      850.587
12/23/2021  07:13:00      -24.111      -13.452      -15.420       10.032       10.796       10.535      100.637      116.547      110.993        0.066        0.016       27.610        3.829        0.019      334.331        4.233      850.612
12/23/2021  07:14:00      -22.053        8.448       -9.248       16.760       11.729        8.692      280.909      137.561       75.559        0.057        0.025       23.616        6.966        0.087      334.358        4.276      850.612
12/23/2021  07:15:00      -40.744       29.559      -12.021       15.276       15.830        8.471      233.370      250.604       71.763        0.162        0.028       50.337        8.224        0.027      334.361        4.284      850.602
12/23/2021  07:16:00      -50.509       37.199       -0.395       31.031       26.880       22.972      962.893      722.540      527.691        0.307        0.111       62.729       21.429        0.117      334.357        4.272      850.575
12/23/2021  07:17:00     -104.207       59.323      -21.472       25.005       26.121       16.528      625.271      682.314      273.160        0.821        0.079      119.910       11.939        0.010      334.371        4.299      850.552
12/23/2021  07:18:00     -125.961       90.555      -22.911       27.916       25.313       15.845      779.288      640.725      251.065        1.313        0.084      155.134       13.251        0.007      334.402        4.352      850.556
12/23/2021  07:19:00     -134.287      101.250      -28.386       44.064       44.994       26.179     1941.650     2024.420      685.346        1.687        0.233      168.180       18.048        0.012      334.340        4.247      850.561
12/23/2021  07:20:00     -118.901      127.097      -26.075       55.481       51.378       36.184     3078.195     2639.660     1309.316        1.900        0.351      174.043       20.228        0.014      334.247        4.091      850.524
12/23/2021  07:21:00     -105.993       95.774      -13.618       75.392       51.051       32.653     5683.951     2606.253     1066.225        1.497        0.468      142.854       25.554        0.032      334.244        4.088      850.509
12/23/2021  07:22:00      -58.306       96.546      -11.733       55.159       48.470       28.712     3042.472     2349.372      824.364        0.954        0.311      112.786       21.709        0.037      334.270        4.129      850.523
12/23/2021  07:23:00      -46.488      163.161      -15.993       45.359       38.436       29.688     2057.435     1477.327      881.404        1.673        0.221      169.654       22.023        0.017      334.291        4.164      850.540
12/23/2021  07:24:00      -60.930      117.296      -16.021       54.225       59.209       30.977     2940.403     3505.653      959.551        1.257        0.370      132.177       23.966        0.033      334.305        4.188      850.548
12/23/2021  07:25:00      -42.046       53.614      -30.911       42.260       35.123       26.529     1785.927     1233.592      703.806        0.466        0.186       68.135       12.752        0.035      334.299        4.179      850.524
12/23/2021  07:26:00       -6.747      117.789      -13.897       36.281       40.877       26.940     1316.346     1670.896      725.742        0.891        0.186      117.982       22.972        0.038      334.329        4.229      850.506
12/23/2021  07:27:00      -36.843       38.276       -5.259       37.579       39.692       33.512     1412.189     1575.469     1123.033        0.348        0.206       53.127       23.472        0.195      334.364        4.289      850.528
12/23/2021  07:28:00      -56.899       60.637      -23.728       28.083       39.463       29.013      788.628     1557.310      841.745        0.533        0.159       83.152       20.603        0.061      334.311        4.199      850.535
12/23/2021  07:29:00      -52.862       78.663      -20.892       55.188       35.028       28.818     3045.668     1226.958      830.502        0.726        0.255       94.775       12.995        0.019      334.273        4.137      850.492
12/23/2021  07:30:00      -20.301      104.353      -14.848       25.813       28.997       24.229      666.315      840.846      587.063        0.681        0.105      106.309       12.956        0.015      334.334        4.237      850.449
12/23/2021  07:31:00      -22.224      106.389      -14.567       22.894       43.744       15.655      524.145     1913.574      245.091        0.735        0.134      108.685       12.400        0.013      334.378        4.310      850.391
12/23/2021  07:32:00      -48.168      123.097      -12.350       35.341       49.346       21.668     1249.009     2435.041      469.491        1.089        0.208      132.186       19.367        0.021      334.401        4.347      850.322
12/23/2021  07:33:00      -47.263      129.517      -17.120       49.767       64.177       23.878     2476.762     4118.706      570.175        1.323        0.358      137.872       12.898        0.009      334.373        4.301      850.243
12/23/2021  07:34:00      -36.957      224.241      -22.735       40.898       48.167       26.944     1672.606     2320.012      725.978        2.844        0.236      227.266       25.047        0.012      334.359        4.277      850.183
12/23/2021  07:35:00      -35.262      187.905      -17.926       58.691       51.772       27.360     3444.654     2680.346      748.571        2.187        0.344      191.185       25.127        0.017      334.345        4.254      850.168
12/23/2021  07:36:00        1.110      167.351      -18.156       53.193       53.862       31.737     2829.530     2901.136     1007.226        1.754        0.337      167.355       31.135        0.035      334.283        4.150      850.180
12/23/2021  07:37:00      -35.981      170.510      -10.643       57.624       82.945       49.043     3320.513     6879.894     2405.172        2.154        0.630      174.265       34.704        0.040      334.192        4.001      850.199
12/23/2021  07:38:00      -61.353      111.561       -6.023       44.307       72.880       27.497     1963.076     5311.466      756.090        1.214        0.402      127.319       19.078        0.022      334.177        3.976      850.238
12/23/2021  07:39:00     -103.139       70.748      -17.605       33.132       41.341       27.436     1097.760     1709.097      752.735        0.976        0.178      125.072       21.958        0.031      334.099        3.847      850.326
12/23/2021  07:40:00      -93.856       35.881      -32.183       45.894       47.999       38.459     2106.227     2303.920     1479.063        0.851        0.294      100.480       31.051        0.095      334.117        3.877      850.410
12/23/2021  07:41:00     -104.931       73.854       -9.487       57.556       39.401       36.825     3312.677     1552.465     1356.067        1.139        0.311      128.316       35.589        0.077      334.074        3.806      850.487
12/23/2021  07:42:00      -99.203       64.837      -13.716       48.343       41.131       34.170     2337.076     1691.766     1167.618        0.971        0.260      118.512       32.099        0.073      333.946        3.595      850.537
12/23/2021  07:43:00      -92.635       48.134      -22.265       38.013       48.902       27.676     1445.008     2391.424      765.983        0.800        0.230      104.394       19.510        0.035      333.944        3.592      850.581
12/23/2021  07:44:00     -109.604       20.348      -15.560      111.785       38.162       40.646    12495.945     1456.353     1652.095        1.413        0.780      111.477       40.223        0.130      333.968        3.631      850.626
12/23/2021  07:45:00      -43.734       30.884      -15.071       72.424       44.982       33.262     5245.216     2023.399     1106.357        0.573        0.419       53.539       25.162        0.221      333.927        3.563      850.684
12/23/2021  07:46:00      -55.233       56.069      -18.964       57.771       53.959       46.478     3337.446     2911.596     2160.243        0.748        0.420       78.705       10.592        0.018      333.872        3.473      850.768
12/23/2021  07:47:00        5.679       30.970        2.938       30.095       69.341       38.850      905.702     4808.177     1509.309        0.411        0.361       31.486       17.134        0.296      333.859        3.452      850.819
12/23/2021  07:48:00     -116.768       67.337      -17.080      104.742       53.688       41.018    10970.826     2882.453     1682.510        1.700        0.777      134.793       17.605        0.017      333.725        3.226      850.849
12/23/2021  07:49:00      -73.295       42.736      -31.592       88.145       68.079       54.143     7769.508     4634.799     2931.412        1.176        0.767       84.844       32.699        0.149      333.633        3.076      850.880
12/23/2021  07:50:00     -127.797       77.543      -24.282      100.897      111.058       44.455    10180.140    12333.963     1976.253        2.371        1.225      149.482       51.282        0.118      333.459        2.786      850.905
12/23/2021  07:51:00      -30.850       32.162      -29.152       43.241       47.029       30.191     1869.767     2211.738      911.495        0.391        0.250       44.566       20.995        0.222      333.507        2.869      850.887
12/23/2021  07:52:00      -15.641       85.507       -9.958       48.260       42.118       29.121     2329.025     1773.947      848.032        0.630        0.248       86.925       22.711        0.068      333.519        2.887      850.889
12/23/2021  07:53:00      -21.876       14.356        6.895       50.693       45.500       28.951     2569.810     2070.269      838.139        0.310        0.274       26.166       16.251        0.386      333.479        2.821      850.933
12/23/2021  07:54:00       -3.981       21.256        9.015       45.770       40.400       27.123     2094.897     1632.168      735.680        0.251        0.223       21.626       18.765        0.753      333.458        2.786      850.962
12/23/2021  07:55:00       -0.936       -5.898      -17.564       45.547       44.389       33.122     2074.517     1970.410     1097.045        0.274        0.257        5.972       17.859        8.943      333.423        2.727      850.987
12/23/2021  07:56:00     -133.827       82.598      -16.805       62.244       60.644       34.618     3874.285     3677.686     1198.390        1.688        0.438      157.264       22.261        0.020      333.261        2.458      851.001
12/23/2021  07:57:00     -104.898       42.920      -20.626       54.817       61.647       36.993     3004.895     3800.293     1368.492        1.072        0.409      113.339       23.856        0.044      333.295        2.516      851.043
12/23/2021  07:58:00      -49.049       18.102      -33.753       75.878       52.841       39.199     5757.438     2792.184     1536.563        0.698        0.504       52.283       23.987        0.210      333.249        2.439      851.082
12/23/2021  07:59:00      -22.945      -13.674       -0.549       69.797       53.083       48.631     4871.599     2817.800     2364.983        0.538        0.503       26.711       43.462        2.648      333.259        2.456      851.090
12/23/2021  08:00:00      -60.647       63.458      -12.410       29.940       45.188       27.845      896.400     2041.915      775.332        0.579        0.186       87.778       18.633        0.045      333.246        2.435      851.082
12/23/2021  08:01:00      -17.566        7.257       -9.508       37.840       32.281       23.453     1431.872     1042.056      550.038        0.174        0.151       19.006       17.326        0.831      333.269        2.475      851.112
12/23/2021  08:02:00        1.694      -38.078      -15.251       34.681       29.357       28.763     1202.776      861.832      827.330        0.229        0.145       38.116       18.777        0.243      333.278        2.489      851.147
12/23/2021  08:03:00      -30.303       12.312      -12.362       62.902       48.168       27.322     3956.649     2320.179      746.476        0.412        0.351       32.709       28.730        0.771      333.265        2.468      851.195
12/23/2021  08:04:00      -36.051       66.262       -6.830       28.138       34.145       32.031      791.771     1165.868     1026.016        0.436        0.149       75.434       20.735        0.076      333.278        2.490      851.241
12/23/2021  08:05:00        8.974       -7.342        7.107       22.431       31.039       28.549      503.165      963.423      815.048        0.123        0.114       11.595       16.426        2.007      333.253        2.448      851.241
12/23/2021  08:06:00      -35.367       19.846      -12.927       34.416       69.605       25.021     1184.446     4844.862      626.047        0.423        0.333       40.555       17.575        0.188      333.187        2.338      851.206
12/23/2021  08:07:00        4.588       -0.057       -4.575       24.362       32.289       18.069      593.507     1042.608      326.481        0.100        0.098        4.589       16.104       12.316      333.247        2.437      851.182
12/23/2021  08:08:00      -64.798       82.137      -17.797       53.185       50.369       30.427     2828.662     2537.016      925.815        0.878        0.315      104.619       30.262        0.084      333.247        2.438      851.189
12/23/2021  08:09:00      -93.684       47.681      -26.611       67.419       82.414       34.167     4545.326     6792.078     1167.394        1.213        0.625      105.120       31.887        0.092      333.214        2.382      851.186
12/23/2021  08:10:00      -11.435       -4.665       -6.998       60.209       43.410       33.544     3625.094     1884.422     1125.229        0.342        0.332       12.349       23.576        3.644      333.180        2.326      851.143
12/23/2021  08:11:00     -105.401       43.306      -41.563       42.654       50.849       32.293     1819.329     2585.638     1042.847        1.008        0.272      113.951       20.755        0.033      333.164        2.300      851.118
12/23/2021  08:12:00      -18.214        7.621      -14.767       63.830       44.981       33.609     4074.271     2023.298     1129.557        0.392        0.361       19.744       32.988        2.792      333.187        2.336      851.121
12/23/2021  08:13:00      -65.940       39.765      -22.051       59.006       45.940       32.023     3481.658     2110.460     1025.468        0.652        0.331       77.002       30.201        0.154      333.135        2.253      851.148
12/23/2021  08:14:00      -96.990       20.963      -15.866       57.310       45.101       32.047     3284.381     2034.083     1026.989        0.822        0.317       99.229       25.419        0.066      333.146        2.270      851.139
12/23/2021  08:15:00       -7.616      -17.773      -13.171       31.573       65.684       32.663      996.841     4314.345     1066.891        0.346        0.319       19.336       24.449        1.599      333.146        2.273      851.138
12/23/2021  08:16:00       -7.238      -24.112       -6.475       40.819       27.753       27.234     1666.186      770.252      741.671        0.193        0.159       25.175       26.601        1.116      333.200        2.358      851.154
12/23/2021  08:17:00      -46.675      -14.235      -14.391       63.672       54.788       50.121     4054.078     3001.721     2512.147        0.608        0.478       48.798       37.322        0.585      333.157        2.288      851.215
12/23/2021  08:18:00      -91.788       51.275      -14.092       44.574       32.830       32.267     1986.877     1077.841     1041.165        0.768        0.205      105.139       23.827        0.051      333.144        2.268      851.264
12/23/2021  08:19:00     -111.547       38.718      -13.722       93.217       50.923       41.140     8689.496     2593.115     1692.497        1.355        0.649      118.075       44.125        0.140      333.194        2.348      851.253
12/23/2021  08:20:00     -135.454       38.810      -42.172       70.996       67.830       36.355     5040.402     4600.942     1321.671        1.630        0.548      140.905       26.045        0.034      333.155        2.284      851.246
12/23/2021  08:21:00     -142.704       14.086      -11.320       72.217       58.364       35.254     5215.265     3406.397     1242.825        1.528        0.493      143.397       32.124        0.050      333.206        2.368      851.305
12/23/2021  08:22:00     -147.511       32.457      -11.863       90.542       51.073       31.999     8197.861     2608.442     1023.949        1.739        0.592      151.040       24.417        0.026      333.218        2.388      851.327
12/23/2021  08:23:00     -181.963       47.902      -22.383       78.323       67.499       43.631     6134.424     4556.145     1903.678        2.425        0.630      188.163       32.034        0.029      333.259        2.454      851.281
12/23/2021  08:24:00     -160.253       39.935      -15.463      103.058       58.007       53.168    10620.895     3364.807     2826.832        2.216        0.841      165.154       49.247        0.089      333.275        2.481      851.276
12/23/2021  08:25:00     -107.983       20.767      -16.185      106.478       65.571       52.868    11337.555     4299.515     2795.010        1.539        0.922      109.962       51.835        0.222      333.284        2.498      851.345
12/23/2021  08:26:00     -228.320       89.176      -29.903       98.827       66.050       46.764     9766.833     4362.586     2186.899        3.864        0.816      245.117       34.063        0.019      333.287        2.499      851.402
12/23/2021  08:27:00     -119.428        8.201      -25.645      102.775       75.105       55.142    10562.734     5640.694     3040.616        1.711        0.962      119.709       55.260        0.213      333.342        2.594      851.463
12/23/2021  08:28:00     -121.553       39.072      -27.279      118.209       67.161       49.814    13973.405     4510.554     2481.460        1.900        1.048      127.678       19.508        0.023      333.340        2.591      851.532
12/23/2021  08:29:00     -201.250       41.123      -19.103      149.626       71.628       58.437    22388.024     5130.566     3414.893        3.674        1.547      205.408       55.048        0.072      333.353        2.612      851.569
12/23/2021  08:30:00     -246.730       91.809      -15.050      115.576       83.710       59.954    13357.924     7007.375     3594.424        4.674        1.198      263.257       60.571        0.053      333.358        2.617      851.576
12/23/2021  08:31:00     -235.076       28.339      -19.309      104.021       69.744       57.160    10820.318     4864.188     3267.319        3.769        0.948      236.778       33.689        0.020      333.357        2.618      851.572
12/23/2021  08:32:00     -175.849       46.565      -26.483      110.179       67.700       65.404    12139.498     4583.316     4277.637        2.739        1.050      181.909       50.947        0.078      333.385        2.663      851.503
12/23/2021  08:33:00     -188.424       52.796       -5.408      125.401       85.150       65.107    15725.312     7250.557     4238.964        3.276        1.361      195.681       63.870        0.107      333.380        2.655      851.404
12/23/2021  08:34:00     -205.483       59.953      -24.960      129.349       63.207       52.737    16731.071     3995.066     2781.187        3.497        1.175      214.051       56.722        0.070      333.398        2.684      851.366
12/23/2021  08:35:00     -227.547       87.317       -3.137      178.055      108.951       66.080    31703.503    11870.306     4366.630        5.367        2.397      243.725       84.626        0.121      333.474        2.811      851.323
12/23/2021  08:36:00     -225.828       85.772      -20.760       99.496       82.242       47.025     9899.495     6763.696     2211.382        3.883        0.944      241.568       23.323        0.009      333.452        2.772      851.253
12/23/2021  08:37:00     -217.361       63.079      -10.718      137.770       80.145       46.609    18980.474     6423.204     2172.365        3.945        1.379      226.329       49.674        0.048      333.451        2.772      851.148
12/23/2021  08:38:00     -229.431      173.226      -27.292       95.934       79.652       47.302     9203.367     6344.401     2237.468        5.058        0.889      287.482       35.983        0.016      333.384        2.662      851.027
12/23/2021  08:39:00     -123.110       53.365      -18.014       93.444       58.162       42.440     8731.748     3382.799     1801.136        1.612        0.696      134.178       43.947        0.107      333.357        2.619      850.979
12/23/2021  08:40:00     -194.823       36.103        4.890      106.713       52.373       46.025    11387.731     2742.906     2118.283        2.776        0.812      198.140       45.033        0.052      333.398        2.684      851.078
12/23/2021  08:41:00     -116.590       30.500      -13.057       96.067       75.938       43.960     9228.885     5766.562     1932.452        1.581        0.846      120.514       39.544        0.108      333.472        2.808      851.216
12/23/2021  08:42:00     -128.021       47.447       -7.131       78.932       49.272       36.867     6230.325     2427.721     1359.186        1.435        0.501      136.530       31.478        0.053      333.415        2.714      851.301
12/23/2021  08:43:00     -105.511       60.639      -11.594       52.810       64.706       34.617     2788.883     4186.865     1198.324        1.156        0.409      121.695       25.716        0.045      333.456        2.783      851.391
12/23/2021  08:44:00      -65.575        8.618        1.399       71.805       52.715       40.979     5155.979     2778.821     1679.287        0.699        0.481       66.138       34.362        0.270      333.478        2.818      851.509
12/23/2021  08:45:00     -148.048       70.403       -6.988       54.398       70.085       28.318     2959.137     4911.840      801.912        1.780        0.434      163.936       21.480        0.017      333.431        2.741      851.458
12/23/2021  08:46:00     -104.777       46.151      -14.487       54.028       33.582       24.332     2919.011     1127.775      592.069        0.898        0.232      114.490       26.811        0.055      333.422        2.724      851.343
12/23/2021  08:47:00      -87.195       66.495      -11.411       53.854       37.600       27.602     2900.245     1413.771      761.863        0.861        0.254      109.656       22.451        0.042      333.409        2.706      851.283
12/23/2021  08:48:00      -81.425       -7.060       -8.118       53.660       57.813       44.527     2879.398     3342.335     1982.631        0.747        0.410       81.731       35.424        0.188      333.429        2.738      851.391
12/23/2021  08:49:00       -7.260        7.741       -4.997       58.354       43.581       32.691     3405.161     1899.264     1068.719        0.325        0.319       10.613       31.506        8.813      333.470        2.805      851.581
12/23/2021  08:50:00      -27.327       13.263      -16.264       57.864       55.661       29.835     3348.219     3098.170      890.145        0.426        0.367       30.375       13.923        0.210      333.468        2.802      851.638
12/23/2021  08:51:00     -108.837       43.497       -8.445       45.525       33.854       26.229     2072.520     1146.112      687.970        0.886        0.195      117.207       23.932        0.042      333.405        2.699      851.641
12/23/2021  08:52:00      -96.811       15.839      -17.859       65.971       58.059       33.061     4352.158     3370.891     1093.038        0.938        0.441       98.098       21.644        0.049      333.423        2.729      851.688
12/23/2021  08:53:00      -63.668      -15.594       -4.989       79.025       45.539       29.532     6244.881     2073.836      872.142        0.675        0.460       65.549       30.459        0.216      333.409        2.705      851.735
12/23/2021  08:54:00      -48.337       31.659       -3.746       29.182       41.566       21.101      851.592     1727.700      445.240        0.319        0.151       57.782       13.664        0.056      333.401        2.691      851.739
12/23/2021  08:55:00      -81.301       88.612      -19.433       26.985       33.428       25.159      728.171     1117.453      632.953        0.866        0.124      120.258       21.080        0.031      333.337        2.587      851.659
12/23/2021  08:56:00     -136.236       71.284      -10.756       62.183       57.000       33.727     3866.688     3249.012     1137.492        1.600        0.413      153.758       34.265        0.050      333.320        2.557      851.637
12/23/2021  08:57:00     -119.903       71.544      -14.459       51.522       45.980       26.595     2654.531     2114.198      707.308        1.259        0.274      139.626       18.154        0.017      333.327        2.570      851.664
12/23/2021  08:58:00      -98.281       71.843       -9.674       46.474       55.730       27.030     2159.809     3105.888      730.633        1.045        0.300      121.740       21.574        0.031      333.343        2.597      851.664
12/23/2021  08:59:00     -139.105       48.767      -23.152       50.066       41.797       33.831     2506.608     1746.995     1144.505        1.383        0.270      147.406       16.354        0.012      333.329        2.573      851.647
12/23/2021  09:00:00      -28.079        9.099       -0.176       40.259       43.671       24.993     1620.785     1907.156      624.659        0.251        0.208       29.517       14.351        0.236      333.354        2.617      851.645
12/23/2021  09:01:00      -87.238       42.618      -18.071       51.023       22.420       30.945     2603.317      502.667      957.567        0.691        0.203       97.091       26.118        0.072      333.418        2.720      851.653
12/23/2021  09:02:00      -49.825       13.919       -7.132       43.694       37.980       26.649     1909.197     1442.457      710.175        0.339        0.203       51.733       21.019        0.165      333.467        2.801      851.713
12/23/2021  09:03:00     -114.090       43.254      -19.758       72.437       57.703       36.452     5247.174     3329.586     1328.720        1.259        0.495      122.014       37.968        0.097      333.416        2.718      851.799
12/23/2021  09:04:00      -10.507       61.257      -19.356       61.239       45.336       29.828     3750.255     2055.321      889.735        0.547        0.335       62.151       16.126        0.067      333.426        2.731      851.882
12/23/2021  09:05:00      -21.228       28.180        2.557       31.019       36.342       29.681      962.183     1320.712      880.962        0.221        0.158       35.281       17.503        0.246      333.437        2.750      851.921
12/23/2021  09:06:00      -29.582        7.447       -3.983       45.627       21.409       20.413     2081.800      458.344      416.709        0.195        0.148       30.505        5.548        0.033      333.362        2.629      851.924
12/23/2021  09:07:00       -7.992       95.385      -18.790       57.898       69.504       27.805     3352.228     4830.765      773.114        0.923        0.448       95.719       11.358        0.014      333.361        2.626      851.894
12/23/2021  09:08:00      -49.439      192.326      -16.064       43.944       57.287       34.176     1931.085     3281.746     1168.015        2.303        0.319      198.578       22.995        0.013      333.365        2.630      851.856
12/23/2021  09:09:00      -66.919      112.219       -7.896       66.107       72.780       33.598     4370.165     5296.961     1128.802        1.396        0.540      130.657       20.252        0.024      333.335        2.582      851.875
12/23/2021  09:10:00      -34.502       47.380      -20.662       32.406       47.908       29.877     1050.151     2295.190      892.635        0.405        0.212       58.611       11.989        0.042      333.319        2.558      851.891
12/23/2021  09:11:00      -37.319       72.259      -23.876       68.144       60.553       46.149     4643.660     3666.716     2129.713        0.881        0.522       81.327       41.203        0.257      333.288        2.508      851.867
12/23/2021  09:12:00      -57.237      107.914      -17.434       71.084       62.496       33.752     5052.895     3905.746     1139.199        1.266        0.505      122.154       23.661        0.038      333.288        2.504      851.846
12/23/2021  09:13:00      -16.117      142.557       -4.801       49.316       85.849       41.866     2432.106     7370.117     1752.753        1.608        0.578      143.465       33.074        0.053      333.335        2.584      851.824
12/23/2021  09:14:00      -22.623      149.036      -17.325       35.597       67.015       30.520     1267.113     4490.965      931.488        1.486        0.334      150.744        7.658        0.003      333.317        2.554      851.771
12/23/2021  09:15:00      -24.657      175.023      -14.505       48.410       62.074       34.810     2343.568     3853.215     1211.715        1.943        0.370      176.751       30.793        0.030      333.293        2.512      851.630
12/23/2021  09:16:00       -7.551      166.603      -11.550       38.281       39.903       27.432     1465.468     1592.239      752.529        1.588        0.191      166.774       15.976        0.009      333.318        2.555      851.525
12/23/2021  09:17:00       13.397      127.819      -22.414       30.423       42.370       34.599      925.544     1795.235     1197.075        1.047        0.196      128.519       24.082        0.035      333.304        2.532      851.486
12/23/2021  09:18:00       28.678      126.414      -13.183       61.781       40.897       31.032     3816.837     1672.589      963.003        1.171        0.323      129.626       24.140        0.035      333.340        2.591      851.431
12/23/2021  09:19:00      -14.605      120.661      -10.098       78.204       48.896       32.303     6115.936     2390.819     1043.475        1.221        0.478      121.542        9.195        0.006      333.406        2.701      851.456
12/23/2021  09:20:00      -25.704      115.221       -6.376       40.559       54.796       24.020     1645.050     3002.596      576.941        0.960        0.261      118.053       26.997        0.052      333.321        2.561      851.566
12/23/2021  09:21:00       -1.690      124.439      -12.423       56.845       47.075       33.817     3231.340     2216.074     1143.580        1.112        0.330      124.451       26.359        0.045      333.327        2.569      851.594
12/23/2021  09:22:00      -45.497       81.213       -5.222       44.982       29.717       28.573     2023.424      883.090      816.397        0.621        0.186       93.088       26.802        0.083      333.407        2.703      851.633
12/23/2021  09:23:00      -41.419      102.480      -13.957       40.865       35.186       21.112     1669.948     1238.020      445.730        0.788        0.168      110.534        5.658        0.003      333.318        2.554      851.693
12/23/2021  09:24:00      -19.121      145.447      -20.934       37.087       42.844       29.295     1375.476     1835.584      858.197        1.301        0.203      146.698       23.288        0.025      333.335        2.583      851.675
12/23/2021  09:25:00       -0.472      153.019      -19.943       60.532       46.401       30.803     3664.069     2153.039      948.808        1.529        0.338      153.019       20.770        0.018      333.335        2.583      851.637
12/23/2021  09:26:00       58.168       77.760       -5.586       39.868       39.135       31.770     1589.450     1531.575     1009.313        0.680        0.207       97.109       19.325        0.040      333.364        2.633      851.619
12/23/2021  09:27:00       66.375       66.197      -11.386       47.082       33.196       30.024     2216.728     1101.944      901.423        0.657        0.211       93.743       22.902        0.060      333.273        2.480      851.603
12/23/2021  09:28:00       88.935       72.870      -18.829       39.913       32.038       24.534     1593.062     1026.465      601.927        0.840        0.161      114.976       15.492        0.018      333.244        2.433      851.538
12/23/2021  09:29:00       66.521       44.378       -3.166       39.914       25.700       22.697     1593.154      660.468      515.157        0.459        0.138       79.966       15.446        0.037      333.180        2.325      851.489
12/23/2021  09:30:00      115.349       78.000      -15.900       45.452       31.578       24.550     2065.846      997.188      602.706        1.165        0.183      139.245       20.821        0.022      333.111        2.213      851.507
12/23/2021  09:31:00      108.258       56.541      -16.795       61.775       45.200       33.747     3816.111     2043.025     1138.861        1.110        0.350      122.134       29.567        0.059      333.186        2.337      851.537
12/23/2021  09:32:00      112.849       63.439      -16.854       46.562       47.707       29.577     2168.002     2275.976      874.788        1.118        0.266      129.458       22.380        0.030      333.202        2.362      851.553
12/23/2021  09:33:00      125.660       48.223       -9.464       35.460       33.203       22.220     1257.395     1102.415      493.710        1.053        0.143      134.595       17.626        0.017      333.111        2.214      851.598
12/23/2021  09:34:00      103.743       41.228      -11.486       46.273       43.698       17.353     2141.187     1909.541      301.118        0.847        0.218      111.635       19.095        0.029      333.047        2.109      851.683
12/23/2021  09:35:00      104.690       44.512      -12.175       31.761       21.665       18.748     1008.776      469.370      351.480        0.746        0.091      113.760        7.736        0.005      332.965        1.971      851.752
12/23/2021  09:36:00       77.945       54.661      -14.472       24.131       40.850       15.867      582.288     1668.746      251.757        0.589        0.125       95.201        5.308        0.003      332.972        1.982      851.746
12/23/2021  09:37:00      187.062       43.281      -14.711       46.819       36.649       28.357     2192.057     1343.148      804.131        2.071        0.217      192.004       17.845        0.009      332.980        1.994      851.707
12/23/2021  09:38:00      161.448       37.522      -19.917       30.021       21.234       22.949      901.280      450.877      526.648        1.487        0.094      165.751        9.784        0.003      332.965        1.970      851.716
12/23/2021  09:39:00       61.127       41.421      -15.776       40.269       32.385       22.690     1621.554     1048.777      514.821        0.444        0.159       73.839       18.061        0.060      333.012        2.050      851.815
12/23/2021  09:40:00       65.866       64.794      -16.606       29.973       40.835       23.631      898.375     1667.497      558.433        0.597        0.156       92.394       18.704        0.041      332.979        1.996      851.916
12/23/2021  09:41:00       36.218       24.489      -17.678       35.063       60.031       28.678     1229.380     3603.674      822.410        0.394        0.283       43.720       18.373        0.177      333.091        2.180      851.945
12/23/2021  09:42:00       18.080      -78.486      -18.308       32.903       29.909       24.905     1082.608      894.566      620.243        0.471        0.130       80.542       15.636        0.038      333.228        2.407      851.911
12/23/2021  09:43:00        2.188      -71.774       -8.510       29.321       40.141       22.914      859.734     1611.264      525.029        0.411        0.150       71.808        8.243        0.013      333.217        2.387      851.900
12/23/2021  09:44:00       -7.745      -29.050      -16.039       23.420       26.897       15.420      548.482      723.436      237.780        0.134        0.075       30.065        5.644        0.035      333.237        2.421      851.937
12/23/2021  09:45:00      -43.767       53.513      -13.327       26.367       23.355       14.890      695.203      545.462      221.698        0.321        0.073       69.132       12.439        0.032      333.094        2.185      851.966
12/23/2021  09:46:00      -64.646       27.852      -22.453       26.104       30.081       13.357      681.420      904.842      178.408        0.361        0.088       70.390       10.625        0.023      333.129        2.240      852.003
12/23/2021  09:47:00      -33.990        1.177      -16.054       37.428       17.307       15.818     1400.864      299.541      250.216        0.168        0.098       34.011        4.076        0.014      333.207        2.371      852.079
12/23/2021  09:48:00       -2.752       -8.327        2.164       18.067       20.763       15.292      326.400      431.096      233.831        0.054        0.050        8.770       11.826        1.818      333.192        2.347      852.120
12/23/2021  09:49:00      -34.747       37.638      -15.409       31.788       17.494       15.371     1010.491      306.027      236.254        0.221        0.078       51.225        9.291        0.033      333.019        2.059      852.107
12/23/2021  09:50:00      -12.820       34.861        1.858       19.665       24.858       15.891      386.724      617.932      252.536        0.132        0.063       37.143        9.958        0.072      333.113        2.216      852.050
12/23/2021  09:51:00       46.393       62.182      -10.055       34.378       26.624       17.884     1181.878      708.814      319.842        0.416        0.111       77.582       12.350        0.025      332.999        2.028      851.955
12/23/2021  09:52:00       68.934       70.211      -19.819       45.549       22.811       23.209     2074.690      520.343      538.657        0.660        0.157       98.394       20.676        0.044      332.968        1.976      851.904
12/23/2021  09:53:00      119.534       49.821      -22.139       50.812       37.037       26.807     2581.836     1371.767      718.601        1.097        0.234      129.501       17.947        0.019      332.997        2.024      851.896
12/23/2021  09:54:00      138.503       44.878       -9.117       32.645       25.081       21.228     1065.719      629.050      450.612        1.171        0.107      145.592       13.681        0.009      332.795        1.690      851.866
12/23/2021  09:55:00       60.829       29.491       -4.243       44.460       29.284       19.873     1976.654      857.580      394.930        0.391        0.161       67.601       13.037        0.037      332.795        1.692      851.822
12/23/2021  09:56:00       35.414       53.861       -8.609       21.337       34.179       18.652      455.256     1168.237      347.909        0.310        0.099       64.461       16.189        0.063      332.809        1.713      851.849
12/23/2021  09:57:00       53.546       63.358      -31.545       65.121       26.976       44.653     4240.754      727.712     1993.931        0.742        0.348       82.954       50.268        0.367      332.678        1.500      851.899
12/23/2021  09:58:00       22.229       26.559       -3.333       64.771       40.845       46.822     4195.238     1668.319     2192.328        0.463        0.403       34.634       45.275        1.709      331.318       -0.744      851.861
12/23/2021  09:59:00      217.959        6.291     -101.473       69.597        8.844       43.503     4843.719       78.222     1892.515        3.233        0.341      218.050       54.976        0.064      330.512       -2.078      851.831
12/23/2021  10:00:00      254.000        7.000     -124.000        0.000        0.000        0.000        0.000        0.000        0.000        3.997        0.000      254.096        0.000        0.000      330.640       -1.870      851.830
12/23/2021  10:01:00      254.000        7.000     -124.000        0.000        0.000        0.000        0.000        0.000        0.000        3.997        0.000      254.096        0.000        0.000      330.640       -1.870      851.830
12/23/2021  10:02:00      254.000        7.000     -124.000        0.000        0.000        0.000        0.000        0.000        0.000        3.997        0.000      254.096        0.000        0.000      330.640       -1.870      851.830
12/23/2021  10:03:00      254.000        7.000     -124.000        0.000        0.000        0.000        0.000        0.000        0.000        3.997        0.000      254.096        0.000        0.000      330.640       -1.870      851.830
12/23/2021  10:04:00      254.000        7.000     -124.000        0.000        0.000        0.000        0.000        0.000        0.000        3.997        0.000      254.096        0.000        0.000      330.640       -1.870      851.830
12/23/2021  10:05:00      254.000        7.000     -124.000        0.000        0.000        0.000        0.000        0.000        0.000        3.997        0.000      254.096        0.000        0.000      330.640       -1.870      851.830
12/23/2021  10:06:00      254.000        7.000     -124.000        0.000        0.000        0.000        0.000        0.000        0.000        3.997        0.000      254.096        0.000        0.000      330.640       -1.870      851.830
12/23/2021  10:07:00      254.000        7.000     -124.000        0.000        0.000        0.000        0.000        0.000        0.000        3.997        0.000      254.096        0.000        0.000      330.640       -1.870      851.830
12/23/2021  10:08:00      254.000        7.000     -124.000        0.000        0.000        0.000        0.000        0.000        0.000        3.997        0.000      254.096        0.000        0.000      330.640       -1.870      851.830
12/23/2021  10:09:00      254.000        7.000     -124.000        0.000        0.000        0.000        0.000        0.000        0.000        3.997        0.000      254.096        0.000        0.000      330.640       -1.870      851.830
12/23/2021  10:10:00      254.000        7.000     -124.000        0.000        0.000        0.000        0.000        0.000        0.000        3.997        0.000      254.096        0.000        0.000      330.640       -1.870      851.830
12/23/2021  10:11:00      254.000        7.000     -124.000        0.000        0.000        0.000        0.000        0.000        0.000        3.997        0.000      254.096        0.000        0.000      330.640       -1.870      851.830
12/23/2021  10:12:00      254.000        7.000     -124.000        0.000        0.000        0.000        0.000        0.000        0.000        3.997        0.000      254.096        0.000        0.000      330.640       -1.870      851.830
12/23/2021  10:13:00      254.000        7.000     -124.000        0.000        0.000        0.000        0.000        0.000        0.000        3.997        0.000      254.096        0.000        0.000      330.640       -1.870      851.830
12/23/2021  10:14:00      254.000        7.000     -124.000        0.000        0.000        0.000        0.000        0.000        0.000        3.997        0.000      254.096        0.000        0.000      330.640       -1.870      851.830
12/23/2021  10:15:00      254.000        7.000     -124.000        0.000        0.000        0.000        0.000        0.000        0.000        3.997        0.000      254.096        0.000        0.000      330.640       -1.870      851.830
12/23/2021  10:16:00      254.000        7.000     -124.000        0.000        0.000        0.000        0.000        0.000        0.000        3.997        0.000      254.096        0.000        0.000      330.640       -1.870      851.830
12/23/2021  10:17:00      254.000        7.000     -124.000        0.000        0.000        0.000        0.000        0.000        0.000        3.997        0.000      254.096        0.000        0.000      330.640       -1.870      851.830
12/23/2021  10:18:00      254.000        7.000     -124.000        0.000        0.000        0.000        0.000        0.000        0.000        3.997        0.000      254.096        0.000        0.000      330.640       -1.870      851.830
12/23/2021  10:19:00      254.000        7.000     -124.000        0.000        0.000        0.000        0.000        0.000        0.000        3.997        0.000      254.096        0.000        0.000      330.640       -1.870      851.830
12/23/2021  10:20:00      254.000        7.000     -124.000        0.000        0.000        0.000        0.000        0.000        0.000        3.997        0.000      254.096        0.000        0.000      330.640       -1.870      851.830
12/23/2021  10:21:00      254.000        7.000     -124.000        0.000        0.000        0.000        0.000        0.000        0.000        3.997        0.000      254.096        0.000        0.000      330.640       -1.870      851.830
12/23/2021  10:22:00      254.000        7.000     -124.000        0.000        0.000        0.000        0.000        0.000        0.000        3.997        0.000      254.096        0.000        0.000      330.640       -1.870      851.830
12/23/2021  10:23:00      254.000        7.000     -124.000        0.000        0.000        0.000        0.000        0.000        0.000        3.997        0.000      254.096        0.000        0.000      330.640       -1.870      851.830
12/23/2021  10:24:00      254.000        7.000     -124.000        0.000        0.000        0.000        0.000        0.000        0.000        3.997        0.000      254.096        0.000        0.000      330.640       -1.870      851.830
12/23/2021  10:25:00      254.000        7.000     -124.000        0.000        0.000        0.000        0.000        0.000        0.000        3.997        0.000      254.096        0.000        0.000      330.640       -1.870      851.830
12/23/2021  10:26:00      254.000        7.000     -124.000        0.000        0.000        0.000        0.000        0.000        0.000        3.997        0.000      254.096        0.000        0.000      330.640       -1.870      851.830
12/23/2021  10:27:00      160.051      -18.107      -80.265      113.904       30.440       53.024    12974.101      926.584     2811.569        2.455        0.836      161.072       79.054        0.241      330.907       -1.425      851.992
12/23/2021  10:28:00       22.000      -55.000      -16.000        0.000        0.000        0.000        0.000        0.000        0.000        0.188        0.000       59.237        0.000        0.000      331.300       -0.770      852.230
12/23/2021  10:29:00      -41.753       10.038       -1.145       85.405       60.087       42.364     7294.040     3610.423     1794.667        0.727        0.635       42.943       50.972        1.409      332.342        0.943      852.250
12/23/2021  10:30:00      -40.941      -69.906       -2.304        1.152        8.437        3.865        1.327       71.191       14.942        0.333        0.004       81.013        5.005        0.004      332.560        1.310      852.290
12/23/2021  10:31:00      -41.000      -71.000       -2.000        0.000        0.000        0.000        0.000        0.000        0.000        0.336        0.000       81.988        0.000        0.000      332.560        1.310      852.290
12/23/2021  10:32:00      -41.000      -71.000       -2.000        0.000        0.000        0.000        0.000        0.000        0.000        0.336        0.000       81.988        0.000        0.000      332.560        1.310      852.290
12/23/2021  10:33:00      -41.000      -71.000       -2.000        0.000        0.000        0.000        0.000        0.000        0.000        0.336        0.000       81.988        0.000        0.000      332.560        1.310      852.290
12/23/2021  10:34:00     -134.601       21.566      -17.631       63.680       55.653       27.448     4055.133     3097.263      753.410        1.340        0.395      136.318       27.879        0.042      332.550        1.286      852.262
12/23/2021  10:35:00      -37.480      -13.248       14.798       58.019       62.716       47.364     3366.247     3933.357     2243.343        0.567        0.477       39.752       46.270        1.355      332.476        1.163      852.240
12/23/2021  10:36:00     -128.900       70.889       -8.566       39.947       42.047       34.716     1595.759     1767.974     1205.183        1.314        0.228      147.107       25.178        0.029      332.123        0.575      852.201
12/23/2021  10:37:00     -121.045       26.357        5.431       66.738       58.345       46.424     4454.025     3404.161     2155.157        1.269        0.501      123.882       55.347        0.200      332.033        0.432      852.195
12/23/2021  10:38:00     -130.674       31.412       -6.682       82.911       65.543       56.568     6874.272     4295.856     3199.921        1.624        0.719      134.396       65.168        0.235      332.082        0.515      852.244
12/23/2021  10:39:00      -73.343      -13.829        6.466      102.227      102.640       56.590    10450.396    10535.063     3202.429        1.490        1.209       74.635       77.003        1.064      332.376        0.997      852.281
12/23/2021  10:40:00     -157.722       16.005       -1.600       77.420       57.989       43.834     5993.909     3362.678     1921.418        1.820        0.564      158.532       53.876        0.115      332.474        1.154      852.318
12/23/2021  10:41:00     -108.229       -6.986       20.920       67.766       70.151       48.313     4592.278     4921.170     2334.189        1.202        0.592      108.454       57.440        0.281      332.301        0.874      852.258
12/23/2021  10:42:00      -63.880        4.214       13.743       51.879       67.201       44.161     2691.404     4516.028     1950.231        0.672        0.458       64.018       52.380        0.669      332.399        1.036      852.179
12/23/2021  10:43:00     -114.526       43.638      -10.919       37.803       36.768       29.497     1429.068     1351.887      870.097        0.939        0.183      122.558       22.846        0.035      332.525        1.246      852.172
12/23/2021  10:44:00      -59.852       66.017       -4.554       32.466       39.500       27.557     1054.036     1560.250      759.404        0.567        0.169       89.109       17.058        0.037      332.530        1.251      852.150
12/23/2021  10:45:00      -84.948       34.897       -0.590       53.347       33.365       27.686     2845.889     1113.219      766.498        0.658        0.236       91.837       27.268        0.088      332.522        1.238      852.132
12/23/2021  10:46:00      -33.411       81.499      -18.877       35.292       51.547       25.924     1245.540     2657.062      672.069        0.634        0.229       88.082       15.975        0.033      332.572        1.321      852.051
12/23/2021  10:47:00       -9.420       37.172      -10.431       30.086       29.441       17.962      905.166      866.751      322.629        0.184        0.105       38.347        8.939        0.054      332.582        1.339      851.945
12/23/2021  10:48:00       15.642       55.334      -18.507       15.142       27.812       19.949      229.288      773.501      397.955        0.252        0.070       57.502        4.996        0.008      332.639        1.432      851.902
12/23/2021  10:49:00       11.206       27.588       -3.262       15.636       21.270       10.554      244.500      452.395      111.388        0.085        0.040       29.777        7.845        0.069      332.696        1.525      851.869
12/23/2021  10:50:00       11.434       41.667       -9.450       19.192       27.650       21.702      368.320      764.526      470.984        0.178        0.080       43.207       19.389        0.201      332.679        1.499      851.816
12/23/2021  10:51:00       43.200       70.254      -10.534       34.177       31.569       19.749     1168.059      996.594      390.011        0.473        0.128       82.473       12.392        0.023      332.800        1.698      851.773
12/23/2021  10:52:00       67.059       14.085      -22.379       52.555       50.376       29.163     2762.066     2537.772      850.454        0.567        0.308       68.522       21.547        0.099      332.724        1.572      851.706
12/23/2021  10:53:00       47.184        4.811      -23.125       43.608       47.218       44.905     1901.696     2229.534     2016.496        0.446        0.307       47.429       29.649        0.391      332.809        1.715      851.747
12/23/2021  10:54:00       26.099        9.775      -11.252       34.549       41.300       31.881     1193.643     1705.657     1016.415        0.241        0.196       27.869       20.422        0.537      332.752        1.620      851.838
12/23/2021  10:55:00       34.961      -28.380      -19.290       39.851       69.781       39.202     1588.099     4869.378     1536.768        0.520        0.400       45.030       26.588        0.349      332.988        2.010      851.932
12/23/2021  10:56:00       63.856      -22.549      -25.758       54.339       63.078       37.468     2952.723     3978.860     1403.821        0.679        0.417       67.720       24.921        0.135      332.739        1.599      852.015
12/23/2021  10:57:00      111.946      -35.606      -12.554       49.416       44.692       36.551     2441.913     1997.392     1336.005        0.987        0.289      117.472       33.417        0.081      332.539        1.267      852.078
12/23/2021  10:58:00       64.755      -35.544      -28.677       45.985       81.865       35.257     2114.586     6701.958     1243.035        0.817        0.503       73.869       26.567        0.129      332.892        1.851      852.060
12/23/2021  10:59:00       74.925        8.744      -41.997       43.559       56.574       39.032     1897.371     3200.594     1523.467        0.704        0.331       75.434       15.332        0.041      332.744        1.606      852.000
12/23/2021  11:00:00       34.877      -52.461      -16.950       50.548       62.919       45.359     2555.055     3958.760     2057.466        0.641        0.429       62.996       28.751        0.208      332.861        1.801      851.939
12/23/2021  11:01:00       79.177     -120.941      -25.225       74.477       79.535       54.970     5546.794     6325.855     3021.731        1.821        0.745      144.554       46.301        0.103      332.932        1.914      851.874
12/23/2021  11:02:00       25.459      -20.057       -5.991       42.148       73.869       57.432     1776.447     5456.689     3298.379        0.581        0.527       32.410       43.920        1.836      332.769        1.648      851.810
12/23/2021  11:03:00      101.945      -36.561      -23.234       80.128       52.011       38.678     6420.534     2705.151     1496.007        1.144        0.531      108.302       32.941        0.093      332.744        1.607      851.769
12/23/2021  11:04:00       83.025      -33.711      -13.581       75.710       59.748       35.899     5731.972     3569.770     1288.735        0.940        0.530       89.608       32.401        0.131      332.791        1.684      851.801
12/23/2021  11:05:00       40.658       -9.259      -31.457       41.133       72.857       39.681     1691.935     5308.079     1574.583        0.565        0.429       41.699       19.109        0.210      332.760        1.633      851.852
12/23/2021  11:06:00       46.204      -36.184       -4.057       55.874       72.247       37.031     3121.899     5219.629     1371.280        0.658        0.486       58.687       26.306        0.201      332.874        1.820      851.892
12/23/2021  11:07:00       58.983      -45.697      -43.525       57.797       62.420       22.799     3340.490     3896.272      519.802        0.761        0.388       74.614       26.287        0.124      332.498        1.203      851.884
12/23/2021  11:08:00      246.072       32.777       12.602       72.971       84.854       54.090     5324.783     7200.266     2925.741        3.861        0.773      248.245       65.911        0.070      332.164        0.648      851.783
12/23/2021  11:09:00      154.707       28.309       -4.407       60.959       40.046       27.805     3716.041     1603.711      773.117        1.542        0.305      157.276       25.103        0.025      332.331        0.922      851.700
12/23/2021  11:10:00      168.694        9.036      -11.548       47.396       52.282       30.708     2246.417     2733.379      942.994        1.730        0.296      168.936       25.812        0.023      332.328        0.916      851.637
12/23/2021  11:11:00      158.828       34.704       -2.059       56.656       54.018       30.205     3209.893     2917.994      912.337        1.674        0.352      162.575       28.859        0.032      332.327        0.916      851.558
12/23/2021  11:12:00      142.721       21.111      -11.062       63.043       51.826       27.148     3974.464     2685.931      737.030        1.417        0.370      144.274       14.954        0.011      332.401        1.037      851.541
12/23/2021  11:13:00      208.551       76.279      -21.967       56.153       45.965       26.827     3153.111     2112.812      719.685        2.789        0.299      222.063       24.085        0.012      332.339        0.933      851.549
12/23/2021  11:14:00      146.033       24.554      -10.212       64.385       46.455       27.700     4145.449     2158.082      767.297        1.455        0.354      148.083       29.571        0.040      332.440        1.103      851.567
12/23/2021  11:15:00      166.650       33.353      -18.175       37.778       34.138       27.887     1427.142     1165.377      777.695        1.629        0.169      169.955       19.534        0.013      332.355        0.962      851.633
12/23/2021  11:16:00      157.462       10.012      -15.481       66.374       38.734       27.216     4405.519     1500.306      740.705        1.589        0.332      157.780       20.414        0.017      332.455        1.127      851.720
12/23/2021  11:17:00      134.715       57.888      -31.229       46.711       36.856       29.260     2181.899     1358.337      856.147        1.343        0.220      146.625       27.012        0.034      332.432        1.090      851.801
12/23/2021  11:18:00      121.815       56.920      -22.665       29.159       34.150       19.418      850.233     1166.212      377.053        1.049        0.120      134.457       17.380        0.017      332.456        1.130      851.801
12/23/2021  11:19:00      142.185        1.444      -19.869       52.681       44.364       31.695     2775.264     1968.188     1004.546        1.318        0.287      142.193       21.838        0.024      332.487        1.180      851.815
12/23/2021  11:20:00      101.919        6.221      -25.885       43.600       56.542       27.768     1900.954     3196.984      771.053        0.848        0.293      102.109       17.537        0.029      332.658        1.464      851.828
12/23/2021  11:21:00      118.242        9.270      -13.759       54.749       50.562       25.661     2997.424     2556.554      658.509        1.023        0.311      118.605       13.637        0.013      332.583        1.341      851.776
12/23/2021  11:22:00       63.080       51.413      -14.202       47.405       56.428       26.652     2247.217     3184.123      710.341        0.648        0.307       81.378       17.681        0.047      332.484        1.177      851.694
12/23/2021  11:23:00       27.914       19.836      -16.274       39.946       46.918       20.055     1595.662     2201.309      402.194        0.282        0.210       34.245       12.951        0.143      332.555        1.293      851.589
12/23/2021  11:24:00       58.553        8.662      -18.928       33.347       43.027       22.538     1112.036     1851.302      507.956        0.367        0.174       59.190        5.145        0.008      332.578        1.333      851.492
12/23/2021  11:25:00       84.566       35.634      -17.250       28.331       29.742       14.871      802.644      884.559      221.154        0.531        0.095       91.767        7.532        0.007      332.459        1.135      851.465
12/23/2021  11:26:00       78.640       57.567       -9.306       29.693       24.707       23.138      881.666      610.420      535.360        0.581        0.101       97.459       19.675        0.041      332.130        0.593      851.367
12/23/2021  11:27:00       46.000       83.000       48.000        0.000        0.000        0.000        0.000        0.000        0.000        0.565        0.000       94.895        0.000        0.000      331.200       -0.950      851.330
12/23/2021  11:28:00       75.291       30.801        9.120       42.942       65.272       43.889     1844.021     4260.426     1926.270        0.736        0.402       81.347       45.130        0.308      331.813        0.065      851.280
12/23/2021  11:29:00       70.952       14.795      -59.179        2.068        2.717        9.084        4.275        7.381       82.511        0.442        0.005       72.478        2.842        0.002      332.370        0.997      851.240
12/23/2021  11:30:00       24.604       27.459      -16.020       50.752       22.532       24.837     2575.715      507.682      616.880        0.266        0.185       36.869       24.618        0.446      332.263        0.812      851.207
12/23/2021  11:31:00      103.730       20.209      -39.824        9.337       27.195        9.999       87.173      739.570       99.974        0.684        0.046      105.680       16.590        0.025      332.296        0.863      851.104
12/23/2021  11:32:00      105.364       35.527      -49.308        8.965       29.411        6.583       80.367      865.018       43.331        0.789        0.049      111.192       13.563        0.015      331.649       -0.203      851.040
12/23/2021  11:33:00      108.000       70.000      -57.000        0.000        0.000        0.000        0.000        0.000        0.000        0.991        0.000      128.701        0.000        0.000      330.860       -1.500      850.970
12/23/2021  11:34:00      108.000       70.000      -57.000        0.000        0.000        0.000        0.000        0.000        0.000        0.991        0.000      128.701        0.000        0.000      330.860       -1.500      850.970
12/23/2021  11:35:00      122.495       70.000      -37.928        8.082        0.000       10.635       65.325        0.000      113.098        1.076        0.009      141.085        9.270        0.004      329.807       -3.216      850.901
12/23/2021  11:36:00      115.404       46.481      -31.773       14.707       30.045        1.329      216.297      902.720        1.767        0.880        0.056      124.413        2.478        0.000      329.456       -3.790      850.876
12/23/2021  11:37:00      109.176      -22.828       -3.682       45.369       57.218       45.236     2058.382     3273.906     2046.301        0.992        0.369      111.537       56.246        0.254      329.888       -3.088      850.890
12/23/2021  11:38:00       50.658       42.257       -4.445       49.898       34.045       30.371     2489.809     1159.075      922.383        0.447        0.229       65.969       34.315        0.271      331.457       -0.511      850.922
12/23/2021  11:39:00       65.829       74.863       11.316       18.354       18.650       11.867      336.882      347.840      140.833        0.545        0.041       99.689       12.594        0.016      331.909        0.225      850.892
12/23/2021  11:40:00       69.000       85.000       13.000        0.000        0.000        0.000        0.000        0.000        0.000        0.608        0.000      109.481        0.000        0.000      331.900        0.210      850.890
12/23/2021  11:41:00       69.000       85.000       13.000        0.000        0.000        0.000        0.000        0.000        0.000        0.608        0.000      109.481        0.000        0.000      331.900        0.210      850.890
12/23/2021  11:42:00       69.000       85.000       13.000        0.000        0.000        0.000        0.000        0.000        0.000        0.608        0.000      109.481        0.000        0.000      331.900        0.210      850.890
12/23/2021  11:43:00       69.000       85.000       13.000        0.000        0.000        0.000        0.000        0.000        0.000        0.608        0.000      109.481        0.000        0.000      331.900        0.210      850.890
12/23/2021  11:44:00       69.000       85.000       13.000        0.000        0.000        0.000        0.000        0.000        0.000        0.608        0.000      109.481        0.000        0.000      331.900        0.210      850.890
12/23/2021  11:45:00       69.000       85.000       13.000        0.000        0.000        0.000        0.000        0.000        0.000        0.608        0.000      109.481        0.000        0.000      331.900        0.210      850.890
12/23/2021  11:46:00       69.000       85.000       13.000        0.000        0.000        0.000        0.000        0.000        0.000        0.608        0.000      109.481        0.000        0.000      331.900        0.210      850.890
12/23/2021  11:47:00       69.000       85.000       13.000        0.000        0.000        0.000        0.000        0.000        0.000        0.608        0.000      109.481        0.000        0.000      331.900        0.210      850.890
12/23/2021  11:48:00       69.000       85.000       13.000        0.000        0.000        0.000        0.000        0.000        0.000        0.608        0.000      109.481        0.000        0.000      331.900        0.210      850.890
12/23/2021  11:49:00       69.000       85.000       13.000        0.000        0.000        0.000        0.000        0.000        0.000        0.608        0.000      109.481        0.000        0.000      331.900        0.210      850.890
12/23/2021  11:50:00       69.000       85.000       13.000        0.000        0.000        0.000        0.000        0.000        0.000        0.608        0.000      109.481        0.000        0.000      331.900        0.210      850.890
12/23/2021  11:51:00       69.000       85.000       13.000        0.000        0.000        0.000        0.000        0.000        0.000        0.608        0.000      109.481        0.000        0.000      331.900        0.210      850.890
12/23/2021  11:52:00       51.921       65.627        8.642       43.816       50.080       26.442     1919.883     2508.006      699.199        0.610        0.256       83.683       28.829        0.119      331.811        0.064      850.999
12/23/2021  11:53:00      -28.133      -71.374      -25.414       79.029       66.922       43.684     6245.628     4478.597     1908.316        0.958        0.632       76.719       52.906        0.476      331.522       -0.409      851.671
12/23/2021  11:54:00     -129.648      -40.402       50.531      147.373       21.370       36.955    21718.807      456.698     1365.651        2.226        1.177      135.797       70.504        0.270      332.268        0.825      851.736
12/23/2021  11:55:00      -66.962      -72.199      -20.208      132.334       60.201       43.891    17512.205     3624.129     1926.396        1.658        1.153       98.471       63.462        0.415      332.351        0.956      851.802
12/23/2021  11:56:00      -56.672      -32.716       -6.300       70.374       68.184       28.998     4952.514     4649.055      840.859        0.738        0.522       65.437       24.654        0.142      332.471        1.154      851.712
12/23/2021  11:57:00       -1.186        7.536       -7.215       25.778       46.336       36.811      664.491     2147.031     1355.014        0.214        0.208        7.629       36.192       22.508      332.070        0.491      851.487
12/23/2021  11:58:00      -37.595      -17.420      -10.424      109.224       40.663       33.491    11929.959     1653.501     1121.680        0.826        0.735       41.434       44.524        1.155      331.412       -0.584      851.365
12/23/2021  11:59:00     -113.818     -119.572       35.032       54.100       37.296       53.690     2926.758     1390.983     2882.582        1.784        0.360      165.082       59.386        0.129      330.502       -2.095      851.371
12/23/2021  12:00:00     -142.000     -139.000       63.000        0.000        0.000        0.000        0.000        0.000        0.000        2.173        0.000      198.708        0.000        0.000      330.280       -2.460      851.380
12/23/2021  12:01:00     -142.000     -139.000       63.000        0.000        0.000        0.000        0.000        0.000        0.000        2.173        0.000      198.708        0.000        0.000      330.280       -2.460      851.380
12/23/2021  12:02:00     -142.000     -139.000       63.000        0.000        0.000        0.000        0.000        0.000        0.000        2.173        0.000      198.708        0.000        0.000      330.280       -2.460      851.380
12/23/2021  12:03:00     -142.000     -139.000       63.000        0.000        0.000        0.000        0.000        0.000        0.000        2.173        0.000      198.708        0.000        0.000      330.280       -2.460      851.380
12/23/2021  12:04:00     -142.000     -139.000       63.000        0.000        0.000        0.000        0.000        0.000        0.000        2.173        0.000      198.708        0.000        0.000      330.280       -2.460      851.380
12/23/2021  12:05:00     -142.000     -139.000       63.000        0.000        0.000        0.000        0.000        0.000        0.000        2.173        0.000      198.708        0.000        0.000      330.280       -2.460      851.380
12/23/2021  12:06:00     -142.000     -139.000       63.000        0.000        0.000        0.000        0.000        0.000        0.000        2.173        0.000      198.708        0.000        0.000      330.280       -2.460      851.380
12/23/2021  12:07:00     -142.000     -139.000       63.000        0.000        0.000        0.000        0.000        0.000        0.000        2.173        0.000      198.708        0.000        0.000      330.280       -2.460      851.380
12/23/2021  12:08:00     -142.000     -139.000       63.000        0.000        0.000        0.000        0.000        0.000        0.000        2.173        0.000      198.708        0.000        0.000      330.280       -2.460      851.380
12/23/2021  12:09:00     -142.000     -139.000       63.000        0.000        0.000        0.000        0.000        0.000        0.000        2.173        0.000      198.708        0.000        0.000      330.280       -2.460      851.380
12/23/2021  12:10:00     -142.000     -139.000       63.000        0.000        0.000        0.000        0.000        0.000        0.000        2.173        0.000      198.708        0.000        0.000      330.280       -2.460      851.380
12/23/2021  12:11:00     -142.000     -139.000       63.000        0.000        0.000        0.000        0.000        0.000        0.000        2.173        0.000      198.708        0.000        0.000      330.280       -2.460      851.380
12/23/2021  12:12:00     -142.000     -139.000       63.000        0.000        0.000        0.000        0.000        0.000        0.000        2.173        0.000      198.708        0.000        0.000      330.280       -2.460      851.380
12/23/2021  12:13:00     -142.000     -139.000       63.000        0.000        0.000        0.000        0.000        0.000        0.000        2.173        0.000      198.708        0.000        0.000      330.280       -2.460      851.380
12/23/2021  12:14:00     -142.000     -139.000       63.000        0.000        0.000        0.000        0.000        0.000        0.000        2.173        0.000      198.708        0.000        0.000      330.280       -2.460      851.380
12/23/2021  12:15:00     -142.000     -139.000       63.000        0.000        0.000        0.000        0.000        0.000        0.000        2.173        0.000      198.708        0.000        0.000      330.280       -2.460      851.380
12/23/2021  12:16:00     -142.000     -139.000       63.000        0.000        0.000        0.000        0.000        0.000        0.000        2.173        0.000      198.708        0.000        0.000      330.280       -2.460      851.380
12/23/2021  12:17:00     -142.000     -139.000       63.000        0.000        0.000        0.000        0.000        0.000        0.000        2.173        0.000      198.708        0.000        0.000      330.280       -2.460      851.380
12/23/2021  12:18:00     -142.000     -139.000       63.000        0.000        0.000        0.000        0.000        0.000        0.000        2.173        0.000      198.708        0.000        0.000      330.280       -2.460      851.380
12/23/2021  12:19:00     -142.000     -139.000       63.000        0.000        0.000        0.000        0.000        0.000        0.000        2.173        0.000      198.708        0.000        0.000      330.280       -2.460      851.380
12/23/2021  12:20:00     -142.000     -139.000       63.000        0.000        0.000        0.000        0.000        0.000        0.000        2.173        0.000      198.708        0.000        0.000      330.280       -2.460      851.380
12/23/2021  12:21:00     -142.000     -139.000       63.000        0.000        0.000        0.000        0.000        0.000        0.000        2.173        0.000      198.708        0.000        0.000      330.280       -2.460      851.380
12/23/2021  12:22:00     -142.000     -139.000       63.000        0.000        0.000        0.000        0.000        0.000        0.000        2.173        0.000      198.708        0.000        0.000      330.280       -2.460      851.380
12/23/2021  12:23:00     -142.000     -139.000       63.000        0.000        0.000        0.000        0.000        0.000        0.000        2.173        0.000      198.708        0.000        0.000      330.280       -2.460      851.380
12/23/2021  12:24:00     -142.000     -139.000       63.000        0.000        0.000        0.000        0.000        0.000        0.000        2.173        0.000      198.708        0.000        0.000      330.280       -2.460      851.380
12/23/2021  12:25:00     -142.000     -139.000       63.000        0.000        0.000        0.000        0.000        0.000        0.000        2.173        0.000      198.708        0.000        0.000      330.280       -2.460      851.380
12/23/2021  12:26:00     -142.000     -139.000       63.000        0.000        0.000        0.000        0.000        0.000        0.000        2.173        0.000      198.708        0.000        0.000      330.280       -2.460      851.380
12/23/2021  12:27:00     -142.000     -139.000       63.000        0.000        0.000        0.000        0.000        0.000        0.000        2.173        0.000      198.708        0.000        0.000      330.280       -2.460      851.380
12/23/2021  12:28:00     -142.000     -139.000       63.000        0.000        0.000        0.000        0.000        0.000        0.000        2.173        0.000      198.708        0.000        0.000      330.280       -2.460      851.380
12/23/2021  12:29:00     -142.000     -139.000       63.000        0.000        0.000        0.000        0.000        0.000        0.000        2.173        0.000      198.708        0.000        0.000      330.280       -2.460      851.380
12/23/2021  12:30:00     -142.000     -139.000       63.000        0.000        0.000        0.000        0.000        0.000        0.000        2.173        0.000      198.708        0.000        0.000      330.280       -2.460      851.380
12/23/2021  12:31:00     -142.000     -139.000       63.000        0.000        0.000        0.000        0.000        0.000        0.000        2.173        0.000      198.708        0.000        0.000      330.280       -2.460      851.380
12/23/2021  12:32:00     -142.000     -139.000       63.000        0.000        0.000        0.000        0.000        0.000        0.000        2.173        0.000      198.708        0.000        0.000      330.280       -2.460      851.380
12/23/2021  12:33:00     -142.000     -139.000       63.000        0.000        0.000        0.000        0.000        0.000        0.000        2.173        0.000      198.708        0.000        0.000      330.280       -2.460      851.380
12/23/2021  12:34:00     -142.000     -139.000       63.000        0.000        0.000        0.000        0.000        0.000        0.000        2.173        0.000      198.708        0.000        0.000      330.280       -2.460      851.380
12/23/2021  12:35:00     -142.000     -139.000       63.000        0.000        0.000        0.000        0.000        0.000        0.000        2.173        0.000      198.708        0.000        0.000      330.280       -2.460      851.380
12/23/2021  12:36:00     -142.000     -139.000       63.000        0.000        0.000        0.000        0.000        0.000        0.000        2.173        0.000      198.708        0.000        0.000      330.280       -2.460      851.380
12/23/2021  12:37:00     -142.000     -139.000       63.000        0.000        0.000        0.000        0.000        0.000        0.000        2.173        0.000      198.708        0.000        0.000      330.280       -2.460      851.380
12/23/2021  12:38:00     -142.000     -139.000       63.000        0.000        0.000        0.000        0.000        0.000        0.000        2.173        0.000      198.708        0.000        0.000      330.280       -2.460      851.380
12/23/2021  12:39:00     -142.000     -139.000       63.000        0.000        0.000        0.000        0.000        0.000        0.000        2.173        0.000      198.708        0.000        0.000      330.280       -2.460      851.380
12/23/2021  12:40:00     -142.000     -139.000       63.000        0.000        0.000        0.000        0.000        0.000        0.000        2.173        0.000      198.708        0.000        0.000      330.280       -2.460      851.380
12/23/2021  12:41:00     -142.000     -139.000       63.000        0.000        0.000        0.000        0.000        0.000        0.000        2.173        0.000      198.708        0.000        0.000      330.280       -2.460      851.380
12/23/2021  12:42:00     -142.000     -139.000       63.000        0.000        0.000        0.000        0.000        0.000        0.000        2.173        0.000      198.708        0.000        0.000      330.280       -2.460      851.380
12/23/2021  12:43:00     -142.000     -139.000       63.000        0.000        0.000        0.000        0.000        0.000        0.000        2.173        0.000      198.708        0.000        0.000      330.280       -2.460      851.380
12/23/2021  12:44:00     -142.000     -139.000       63.000        0.000        0.000        0.000        0.000        0.000        0.000        2.173        0.000      198.708        0.000        0.000      330.280       -2.460      851.380
12/23/2021  12:45:00     -142.000     -139.000       63.000        0.000        0.000        0.000        0.000        0.000        0.000        2.173        0.000      198.708        0.000        0.000      330.280       -2.460      851.380
12/23/2021  12:46:00     -142.000     -139.000       63.000        0.000        0.000        0.000        0.000        0.000        0.000        2.173        0.000      198.708        0.000        0.000      330.280       -2.460      851.380
12/23/2021  12:47:00     -142.000     -139.000       63.000        0.000        0.000        0.000        0.000        0.000        0.000        2.173        0.000      198.708        0.000        0.000      330.280       -2.460      851.380
12/23/2021  12:48:00      -59.817      -20.910       30.764       55.835       86.379       42.258     3117.568     7461.272     1785.748        0.866        0.618       63.367       25.879        0.167      331.114       -1.086      851.007
12/23/2021  12:49:00        4.227       32.790        5.556       42.459       55.126       28.281     1802.791     3038.841      799.788        0.338        0.282       33.062       37.185        1.265      331.320       -0.739      850.814
12/23/2021  12:50:00      -33.053       56.205        7.288       32.595       37.911       32.216     1062.405     1437.261     1037.869        0.392        0.177       65.204       25.017        0.147      331.301       -0.767      850.738
12/23/2021  12:51:00      -83.346       39.757      -12.931       27.879       29.597       20.104      777.214      875.963      404.184        0.538        0.103       92.342       20.292        0.048      331.219       -0.912      850.659
12/23/2021  12:52:00        5.398       47.440        4.096       19.160       13.230        9.124      367.121      175.028       83.247        0.146        0.031       47.746       14.573        0.093      331.234       -0.872      850.569
12/23/2021  12:53:00       -7.000       56.000       10.000        0.000        0.000        0.000        0.000        0.000        0.000        0.164        0.000       56.436        0.000        0.000      331.240       -0.860      850.560
12/23/2021  12:54:00       -7.000       56.000       10.000        0.000        0.000        0.000        0.000        0.000        0.000        0.164        0.000       56.436        0.000        0.000      331.240       -0.860      850.560
12/23/2021  12:55:00       -7.000       56.000       10.000        0.000        0.000        0.000        0.000        0.000        0.000        0.164        0.000       56.436        0.000        0.000      331.240       -0.860      850.560
12/23/2021  12:56:00       -7.000       56.000       10.000        0.000        0.000        0.000        0.000        0.000        0.000        0.164        0.000       56.436        0.000        0.000      331.240       -0.860      850.560
12/23/2021  12:57:00       -7.000       56.000       10.000        0.000        0.000        0.000        0.000        0.000        0.000        0.164        0.000       56.436        0.000        0.000      331.240       -0.860      850.560
12/23/2021  12:58:00       -7.000       56.000       10.000        0.000        0.000        0.000        0.000        0.000        0.000        0.164        0.000       56.436        0.000        0.000      331.240       -0.860      850.560
12/23/2021  12:59:00      -82.226       17.484       57.543       61.201       31.335       38.679     3745.559      981.876     1496.066        0.830        0.311       84.064       51.561        0.376      331.493       -0.457      850.434
12/23/2021  13:00:00     -132.000       -8.000       89.000        0.000        0.000        0.000        0.000        0.000        0.000        1.270        0.000      132.242        0.000        0.000      331.660       -0.190      850.350
12/23/2021  13:01:00     -111.984       -5.617       68.984       20.980        2.498       20.980      440.179        6.238      440.179        0.911        0.044      112.125       21.051        0.035      331.889        0.186      850.360
12/23/2021  13:02:00      -90.000       -3.000       47.000        0.000        0.000        0.000        0.000        0.000        0.000        0.516        0.000       90.050        0.000        0.000      332.140        0.600      850.370
12/23/2021  13:03:00       10.828       28.456        1.514       38.342       12.760       18.352     1470.120      162.824      336.802        0.145        0.098       30.446       25.734        0.714      331.239       -0.881      850.362
12/23/2021  13:04:00       26.000       32.000       -1.000        0.000        0.000        0.000        0.000        0.000        0.000        0.085        0.000       41.231        0.000        0.000      331.100       -1.110      850.360
12/23/2021  13:05:00       26.000       32.000       -1.000        0.000        0.000        0.000        0.000        0.000        0.000        0.085        0.000       41.231        0.000        0.000      331.100       -1.110      850.360
12/23/2021  13:06:00       50.218       26.176       -3.649       37.055       10.716       10.324     1373.088      114.836      106.593        0.241        0.080       56.631       14.011        0.061      331.431       -0.561      850.289
12/23/2021  13:07:00       66.218       24.290       -5.323       38.812       24.172       22.311     1506.350      584.309      497.764        0.380        0.129       70.533       22.383        0.101      332.196        0.703      850.111
12/23/2021  13:08:00       63.319       20.784       -5.807       38.111       11.128       23.125     1452.452      123.837      534.747        0.329        0.106       66.643       28.048        0.177      332.104        0.547      850.160
12/23/2021  13:09:00       75.351       18.979      -14.108       16.625       13.190       13.368      276.375      173.979      178.704        0.343        0.031       77.704       11.442        0.022      332.188        0.688      850.262
12/23/2021  13:10:00       44.242       45.572       -2.989       30.223       28.834       20.764      913.407      831.392      431.136        0.311        0.109       63.515       18.976        0.089      332.262        0.811      850.354
12/23/2021  13:11:00       76.388       54.900      -29.482       29.954       41.953       24.127      897.238     1760.066      582.127        0.648        0.162       94.070       11.020        0.014      332.319        0.905      850.356
12/23/2021  13:12:00       20.087      -42.861      -17.539       26.689       38.674       29.623      712.279     1495.659      877.496        0.282        0.154       47.334       19.317        0.167      332.556        1.295      850.354
12/23/2021  13:13:00       25.507      -26.695      -19.410       35.668       57.466       33.675     1272.215     3302.386     1133.973        0.372        0.285       36.922       16.909        0.210      332.589        1.349      850.411
12/23/2021  13:14:00        8.666      -54.822      -18.745       42.373       48.796       23.675     1795.459     2381.031      560.516        0.408        0.237       55.503       17.010        0.094      332.471        1.155      850.450
12/23/2021  13:15:00       26.403      -46.277      -20.375       45.377       57.305       40.459     2059.099     3283.828     1636.891        0.512        0.349       53.279       30.701        0.332      332.520        1.236      850.462
12/23/2021  13:16:00       88.182      -45.597      -60.737       21.452       51.062       31.357      460.182     2607.354      983.276        0.880        0.203       99.273       39.160        0.156      332.422        1.080      850.459
12/23/2021  13:17:00       80.339      -36.629      -47.388       21.780       40.970       33.902      474.348     1678.553     1149.349        0.667        0.165       88.295       36.978        0.175      332.396        1.035      850.474
12/23/2021  13:18:00       98.122       47.766      -21.767       39.065       51.539       28.046     1526.053     2656.292      786.554        0.868        0.248      109.131       24.726        0.051      332.186        0.687      850.525
12/23/2021  13:19:00       33.927      -34.990      -26.496       46.023       52.779       27.376     2118.114     2785.593      749.455        0.436        0.283       48.737       19.264        0.156      332.446        1.114      850.538
12/23/2021  13:20:00       48.524     -119.956      -25.344       27.975       29.631       20.491      782.614      878.004      419.872        0.973        0.104      129.399       14.661        0.013      332.232        0.760      850.528
12/23/2021  13:21:00       78.394     -119.938      -26.801       27.764       19.048       12.082      770.817      362.843      145.976        1.126        0.064      143.285       14.859        0.011      332.162        0.639      850.513
12/23/2021  13:22:00       69.632     -121.416      -22.347       39.254       50.512       24.154     1540.878     2551.502      583.397        1.238        0.234      139.965       25.961        0.034      332.336        0.929      850.431
12/23/2021  13:23:00       33.194      -14.460      -27.211       40.650       35.821       30.183     1652.434     1283.150      911.043        0.295        0.192       36.207       13.545        0.140      332.457        1.133      850.370
12/23/2021  13:24:00      103.746        5.504      -33.700       40.023       43.583       28.178     1601.835     1899.435      793.995        0.811        0.215      103.892       17.307        0.028      332.280        0.836      850.326
12/23/2021  13:25:00      152.000       30.000      -33.000        0.000        0.000        0.000        0.000        0.000        0.000        1.255        0.000      154.932        0.000        0.000      332.160        0.630      850.320
12/23/2021  13:26:00      104.000       11.143      -25.000       41.576       16.333        6.929     1728.578      266.783       48.016        0.680        0.102      104.595       17.591        0.028      331.474       -0.484      850.314
12/23/2021  13:27:00       68.000       -3.000      -19.000        0.000        0.000        0.000        0.000        0.000        0.000        0.250        0.000       68.066        0.000        0.000      330.960       -1.320      850.310
12/23/2021  13:28:00       68.000       -3.000      -19.000        0.000        0.000        0.000        0.000        0.000        0.000        0.250        0.000       68.066        0.000        0.000      330.960       -1.320      850.310
12/23/2021  13:29:00       68.000       -3.000      -19.000        0.000        0.000        0.000        0.000        0.000        0.000        0.250        0.000       68.066        0.000        0.000      330.960       -1.320      850.310
12/23/2021  13:30:00       68.000       -3.000      -19.000        0.000        0.000        0.000        0.000        0.000        0.000        0.250        0.000       68.066        0.000        0.000      330.960       -1.320      850.310
12/23/2021  13:31:00       68.000       -3.000      -19.000        0.000        0.000        0.000        0.000        0.000        0.000        0.250        0.000       68.066        0.000        0.000      330.960       -1.320      850.310
12/23/2021  13:32:00       68.000       -3.000      -19.000        0.000        0.000        0.000        0.000        0.000        0.000        0.250        0.000       68.066        0.000        0.000      330.960       -1.320      850.310
12/23/2021  13:33:00       68.000       -3.000      -19.000        0.000        0.000        0.000        0.000        0.000        0.000        0.250        0.000       68.066        0.000        0.000      330.960       -1.320      850.310
12/23/2021  13:34:00       68.000       -3.000      -19.000        0.000        0.000        0.000        0.000        0.000        0.000        0.250        0.000       68.066        0.000        0.000      330.960       -1.320      850.310
12/23/2021  13:35:00       68.000       -3.000      -19.000        0.000        0.000        0.000        0.000        0.000        0.000        0.250        0.000       68.066        0.000        0.000      330.960       -1.320      850.310
12/23/2021  13:36:00       68.000       -3.000      -19.000        0.000        0.000        0.000        0.000        0.000        0.000        0.250        0.000       68.066        0.000        0.000      330.960       -1.320      850.310
12/23/2021  13:37:00       68.000       -3.000      -19.000        0.000        0.000        0.000        0.000        0.000        0.000        0.250        0.000       68.066        0.000        0.000      330.960       -1.320      850.310
12/23/2021  13:38:00       68.000       -3.000      -19.000        0.000        0.000        0.000        0.000        0.000        0.000        0.250        0.000       68.066        0.000        0.000      330.960       -1.320      850.310
12/23/2021  13:39:00       68.000       -3.000      -19.000        0.000        0.000        0.000        0.000        0.000        0.000        0.250        0.000       68.066        0.000        0.000      330.960       -1.320      850.310
12/23/2021  13:40:00       68.000       -3.000      -19.000        0.000        0.000        0.000        0.000        0.000        0.000        0.250        0.000       68.066        0.000        0.000      330.960       -1.320      850.310
12/23/2021  13:41:00       68.000       -3.000      -19.000        0.000        0.000        0.000        0.000        0.000        0.000        0.250        0.000       68.066        0.000        0.000      330.960       -1.320      850.310
12/23/2021  13:42:00       68.000       -3.000      -19.000        0.000        0.000        0.000        0.000        0.000        0.000        0.250        0.000       68.066        0.000        0.000      330.960       -1.320      850.310
12/23/2021  13:43:00       68.000       -3.000      -19.000        0.000        0.000        0.000        0.000        0.000        0.000        0.250        0.000       68.066        0.000        0.000      330.960       -1.320      850.310
12/23/2021  13:44:00       68.000       -3.000      -19.000        0.000        0.000        0.000        0.000        0.000        0.000        0.250        0.000       68.066        0.000        0.000      330.960       -1.320      850.310
12/23/2021  13:45:00       68.000       -3.000      -19.000        0.000        0.000        0.000        0.000        0.000        0.000        0.250        0.000       68.066        0.000        0.000      330.960       -1.320      850.310
12/23/2021  13:46:00       68.000       -3.000      -19.000        0.000        0.000        0.000        0.000        0.000        0.000        0.250        0.000       68.066        0.000        0.000      330.960       -1.320      850.310
12/23/2021  13:47:00       68.000       -3.000      -19.000        0.000        0.000        0.000        0.000        0.000        0.000        0.250        0.000       68.066        0.000        0.000      330.960       -1.320      850.310
12/23/2021  13:48:00       68.000       -3.000      -19.000        0.000        0.000        0.000        0.000        0.000        0.000        0.250        0.000       68.066        0.000        0.000      330.960       -1.320      850.310
12/23/2021  13:49:00       68.000       -3.000      -19.000        0.000        0.000        0.000        0.000        0.000        0.000        0.250        0.000       68.066        0.000        0.000      330.960       -1.320      850.310
12/23/2021  13:50:00       68.000       -3.000      -19.000        0.000        0.000        0.000        0.000        0.000        0.000        0.250        0.000       68.066        0.000        0.000      330.960       -1.320      850.310
12/23/2021  13:51:00       68.000       -3.000      -19.000        0.000        0.000        0.000        0.000        0.000        0.000        0.250        0.000       68.066        0.000        0.000      330.960       -1.320      850.310
12/23/2021  13:52:00       68.000       -3.000      -19.000        0.000        0.000        0.000        0.000        0.000        0.000        0.250        0.000       68.066        0.000        0.000      330.960       -1.320      850.310
12/23/2021  13:53:00       68.000       -3.000      -19.000        0.000        0.000        0.000        0.000        0.000        0.000        0.250        0.000       68.066        0.000        0.000      330.960       -1.320      850.310
12/23/2021  13:54:00       68.000       -3.000      -19.000        0.000        0.000        0.000        0.000        0.000        0.000        0.250        0.000       68.066        0.000        0.000      330.960       -1.320      850.310
12/23/2021  13:55:00       68.000       -3.000      -19.000        0.000        0.000        0.000        0.000        0.000        0.000        0.250        0.000       68.066        0.000        0.000      330.960       -1.320      850.310
12/23/2021  13:56:00       68.000       -3.000      -19.000        0.000        0.000        0.000        0.000        0.000        0.000        0.250        0.000       68.066        0.000        0.000      330.960       -1.320      850.310
12/23/2021  13:57:00       68.000       -3.000      -19.000        0.000        0.000        0.000        0.000        0.000        0.000        0.250        0.000       68.066        0.000        0.000      330.960       -1.320      850.310
12/23/2021  13:58:00       68.000       -3.000      -19.000        0.000        0.000        0.000        0.000        0.000        0.000        0.250        0.000       68.066        0.000        0.000      330.960       -1.320      850.310
12/23/2021  13:59:00       68.000       -3.000      -19.000        0.000        0.000        0.000        0.000        0.000        0.000        0.250        0.000       68.066        0.000        0.000      330.960       -1.320      850.310
12/23/2021  14:00:00       68.000       -3.000      -19.000        0.000        0.000        0.000        0.000        0.000        0.000        0.250        0.000       68.066        0.000        0.000      330.960       -1.320      850.310
12/23/2021  14:01:00       68.000       -3.000      -19.000        0.000        0.000        0.000        0.000        0.000        0.000        0.250        0.000       68.066        0.000        0.000      330.960       -1.320      850.310
12/23/2021  14:02:00       68.000       -3.000      -19.000        0.000        0.000        0.000        0.000        0.000        0.000        0.250        0.000       68.066        0.000        0.000      330.960       -1.320      850.310
12/23/2021  14:03:00       68.000       -3.000      -19.000        0.000        0.000        0.000        0.000        0.000        0.000        0.250        0.000       68.066        0.000        0.000      330.960       -1.320      850.310
12/23/2021  14:04:00       85.225       42.515       31.851       15.278        4.640       22.666      233.421       21.529      513.741        0.543        0.038       95.241       18.390        0.037      331.084       -1.136      850.524
12/23/2021  14:05:00       78.000       44.000       43.000        0.000        0.000        0.000        0.000        0.000        0.000        0.493        0.000       89.554        0.000        0.000      331.100       -1.110      850.520
12/23/2021  14:06:00       78.000       44.000       43.000        0.000        0.000        0.000        0.000        0.000        0.000        0.493        0.000       89.554        0.000        0.000      331.100       -1.110      850.520
12/23/2021  14:07:00       78.000       44.000       43.000        0.000        0.000        0.000        0.000        0.000        0.000        0.493        0.000       89.554        0.000        0.000      331.100       -1.110      850.520
12/23/2021  14:08:00       78.000       44.000       43.000        0.000        0.000        0.000        0.000        0.000        0.000        0.493        0.000       89.554        0.000        0.000      331.100       -1.110      850.520
12/23/2021  14:09:00       78.000       44.000       43.000        0.000        0.000        0.000        0.000        0.000        0.000        0.493        0.000       89.554        0.000        0.000      331.100       -1.110      850.520
12/23/2021  14:10:00       78.000       44.000       43.000        0.000        0.000        0.000        0.000        0.000        0.000        0.493        0.000       89.554        0.000        0.000      331.100       -1.110      850.520
12/23/2021  14:11:00       77.877       44.425       42.329        1.046        3.605        5.697        1.095       12.993       32.461        0.494        0.002       89.657        4.624        0.003      331.098       -1.112      850.519
12/23/2021  14:12:00       69.000       75.000       -6.000        0.000        0.000        0.000        0.000        0.000        0.000        0.521        0.000      101.912        0.000        0.000      330.980       -1.290      850.480
12/23/2021  14:13:00       69.000       75.000       -6.000        0.000        0.000        0.000        0.000        0.000        0.000        0.521        0.000      101.912        0.000        0.000      330.980       -1.290      850.480
12/23/2021  14:14:00       70.514       88.753       -9.591        5.840       27.459        7.436       34.101      754.010       55.296        0.689        0.042      113.354       13.953        0.015      330.987       -1.280      850.438
12/23/2021  14:15:00       61.190      101.221      -16.748       29.466       43.073       14.968      868.266     1855.280      224.031        0.861        0.147      118.279       16.163        0.019      331.042       -1.197      850.261
12/23/2021  14:16:00       -0.395       89.612        1.356       31.498       28.225       22.152      992.148      796.625      490.704        0.516        0.114       89.613       20.168        0.051      331.253       -0.848      850.269
12/23/2021  14:17:00      -29.080       91.191       -3.318        7.659        9.990        9.657       58.656       99.792       93.250        0.471        0.013       95.715       11.023        0.013      331.330       -0.731      850.281
12/23/2021  14:18:00      -48.109       37.805      -11.327       21.660       21.453       18.080      469.140      460.226      326.885        0.256        0.063       61.186       21.076        0.119      331.147       -1.033      850.384
12/23/2021  14:19:00     -211.415       67.518       60.177       15.749        4.785        8.174      248.045       22.893       66.810        2.661        0.017      221.934       11.597        0.003      330.507       -2.069      850.420
12/23/2021  14:20:00     -155.168       50.247       42.440       95.354       29.271       30.602     9092.387      856.819      936.481        1.964        0.544      163.101       55.239        0.115      330.704       -1.749      850.425
12/23/2021  14:21:00       10.625      -14.303       -1.188       10.112       13.125       18.490      102.248      172.265      341.896        0.047        0.031       17.818       14.010        0.618      331.275       -0.826      850.492
12/23/2021  14:22:00       31.975       -7.082       27.362        8.604       11.488       11.423       74.037      131.963      130.475        0.108        0.017       32.750        9.063        0.077      331.353       -0.689      850.571
12/23/2021  14:23:00      -33.466       38.382       21.626       36.796       56.558       32.333     1353.980     3198.815     1045.454        0.433        0.280       50.923       43.187        0.719      331.329       -0.715      850.617
12/23/2021  14:24:00      -56.072        0.738       -6.507       21.869       11.533        2.309      478.234      133.019        5.332        0.190        0.031       56.077        5.825        0.011      331.270       -0.816      850.620
12/23/2021  14:25:00      -40.329       65.950      -19.103       18.417       22.936        7.082      339.187      526.062       50.156        0.363        0.046       77.304        7.452        0.009      331.237       -0.884      850.623
12/23/2021  14:26:00      -41.691       21.810       -8.012        9.483       24.967       14.853       89.929      623.359      220.612        0.161        0.047       47.051       15.859        0.114      331.154       -1.014      850.610
12/23/2021  14:27:00      -37.223       11.837      -14.862       13.809       15.707        9.299      190.700      246.726       86.479        0.114        0.026       39.060       10.838        0.077      331.211       -0.925      850.614
12/23/2021  14:28:00      -53.705       21.821       -5.416        3.663        4.539        6.202       13.417       20.599       38.462        0.173        0.004       57.969        4.468        0.006      331.254       -0.852      850.592
12/23/2021  14:29:00      -46.099       24.489      -11.263       16.291       16.351       10.379      265.397      267.339      107.726        0.175        0.032       52.200        7.274        0.019      331.276       -0.819      850.565
12/23/2021  14:30:00     -125.615       33.211       -5.197       33.035       24.075       14.350     1091.331      579.586      205.932        0.939        0.094      129.931       12.027        0.009      331.300       -0.777      850.587
12/23/2021  14:31:00      -39.042       14.409       -1.885       57.879       23.993        8.279     3350.026      575.669       68.542        0.286        0.200       41.616       22.101        0.282      331.428       -0.571      850.625
12/23/2021  14:32:00      -25.192      -27.129       -1.800       18.959       28.422       14.741      359.452      807.835      217.286        0.138        0.069       37.022       19.331        0.273      331.393       -0.614      850.700
12/23/2021  14:33:00       -4.522       -2.414       -9.956       11.875       10.447        9.997      141.027      109.135       99.931        0.024        0.018        5.126        6.760        1.739      331.332       -0.721      850.727
12/23/2021  14:34:00        9.019       23.651      -10.861       12.218       20.364       11.678      149.276      414.698      136.386        0.073        0.035       25.312       12.073        0.227      331.369       -0.661      850.732
12/23/2021  14:35:00        3.767       14.993       -7.104       24.359        9.375       10.381      593.344       87.883      107.768        0.054        0.039       15.459        7.931        0.263      331.394       -0.619      850.739
12/23/2021  14:36:00      -16.947       34.225      -12.941       12.187       15.805       15.480      148.530      249.798      239.623        0.113        0.032       38.191       10.244        0.072      331.390       -0.623      850.768
12/23/2021  14:37:00       41.031       45.549      -13.698       45.755       43.358       29.588     2093.548     1879.892      875.479        0.440        0.242       61.305       27.749        0.205      331.449       -0.532      850.754
12/23/2021  14:38:00       55.621      -32.616       -3.432       59.435       56.111       40.154     3532.531     3148.476     1612.369        0.623        0.415       64.479       44.578        0.478      331.680       -0.151      850.713
12/23/2021  14:39:00      -30.328      -17.064       11.390       54.673       36.072       21.202     2989.095     1301.176      449.546        0.304        0.237       34.799       25.905        0.554      331.644       -0.203      850.720
12/23/2021  14:40:00       45.909      -33.484        0.634       48.207       41.095       47.882     2323.922     1688.811     2292.647        0.477        0.315       56.823       36.430        0.411      331.679       -0.147      850.762
12/23/2021  14:41:00      -12.590      -94.491        7.899       36.722       78.950       48.419     1348.518     6233.047     2344.434        0.954        0.496       95.326       60.277        0.400      331.812        0.068      850.813
12/23/2021  14:42:00       22.086      -23.018        8.055       40.119       42.515       46.133     1609.547     1807.512     2128.238        0.331        0.277       31.900       39.634        1.544      331.673       -0.161      850.932
12/23/2021  14:43:00        1.926      -88.745       44.540       60.323       77.689       64.755     3638.921     6035.571     4193.225        1.186        0.693       88.765       61.124        0.474      331.884        0.188      851.008
12/23/2021  14:44:00       54.104        1.468       30.237       67.135      104.713       32.967     4507.163    10964.868     1086.835        1.020        0.828       54.124       56.236        1.080      331.788        0.028      850.948
12/23/2021  14:45:00       74.829     -126.757       36.357       62.173      128.061       48.630     3865.428    16399.717     2364.901        2.281        1.132      147.196       39.510        0.072      331.890        0.194      850.830
12/23/2021  14:46:00       79.145     -184.711       52.268       62.358      112.651       46.478     3888.569    12690.215     2160.181        3.092        0.937      200.953       55.378        0.076      331.885        0.186      850.797
12/23/2021  14:47:00       89.026     -109.185       56.235       56.587       74.630       45.134     3202.071     5569.605     2037.052        1.691        0.540      140.879       61.173        0.189      331.869        0.160      850.808
12/23/2021  14:48:00       12.923      -42.948       31.963       52.596       77.509       39.149     2766.293     6007.679     1532.668        0.667        0.515       44.850       56.725        1.600      331.768       -0.003      850.824
12/23/2021  14:49:00       48.785      -82.655       80.443       47.424       59.319       33.714     2248.997     3518.766     1136.613        1.129        0.345       95.978       44.271        0.213      332.025        0.415      850.783
12/23/2021  14:50:00      138.410      -65.178       35.137       52.797       82.270       49.667     2787.495     6768.345     2466.848        1.833        0.601      152.988       50.776        0.110      331.791        0.032      850.665
12/23/2021  14:51:00      136.526     -105.414       48.218       98.083       85.653       43.839     9620.270     7336.366     1921.874        2.547        0.944      172.486       39.496        0.052      332.050        0.459      850.575
12/23/2021  14:52:00      122.424     -130.215       67.295       54.961       84.344       62.281     3020.744     7113.905     3878.976        2.524        0.701      178.728       35.269        0.039      332.097        0.534      850.538
12/23/2021  14:53:00      171.855     -137.635       41.061       48.420       74.506       51.208     2344.472     5551.133     2622.298        3.034        0.526      220.176       48.453        0.048      332.118        0.569      850.521
12/23/2021  14:54:00      103.359     -123.826       72.981       56.955       74.171       51.700     3243.876     5501.268     2672.852        2.138        0.571      161.295       49.549        0.094      332.096        0.536      850.500
12/23/2021  14:55:00       59.702     -128.923       71.166       57.592       77.177       50.278     3316.794     5956.231     2527.909        1.852        0.590      142.076       61.764        0.189      332.152        0.629      850.569
12/23/2021  14:56:00       96.802     -128.805       54.309       43.608       63.215       43.446     1901.636     3996.179     1887.527        1.835        0.389      161.125       53.103        0.109      332.114        0.563      850.605
12/23/2021  14:57:00      126.628      -95.250       50.811       50.451       80.545       44.623     2545.298     6487.544     1991.193        1.935        0.551      158.453       50.959        0.103      332.057        0.470      850.530
12/23/2021  14:58:00       94.028     -160.219       64.053       53.071       71.689       41.297     2816.537     5139.257     1705.456        2.414        0.483      185.772       30.159        0.026      332.326        0.913      850.440
12/23/2021  14:59:00       15.257      -70.431       50.142       50.220       60.680       41.026     2522.017     3682.070     1683.158        0.780        0.394       72.065       47.089        0.427      332.156        0.636      850.407
12/23/2021  15:00:00       43.684     -105.896       81.209       33.687       45.358       33.946     1134.819     2057.370     1152.333        1.203        0.217      114.553       38.287        0.112      332.018        0.406      850.380
12/23/2021  15:01:00       64.221      -68.987       80.763       46.393       58.371       32.263     2152.341     3407.142     1040.929        1.100        0.330       94.252       39.486        0.176      332.145        0.616      850.323
12/23/2021  15:02:00       83.244      -34.153       78.775       50.340       58.582       38.126     2534.161     3431.823     1453.616        1.086        0.371       89.978       41.735        0.215      332.088        0.526      850.304
12/23/2021  15:03:00       59.492      -16.308       71.735       34.527       55.817       33.906     1192.100     3115.482     1149.584        0.720        0.273       61.687       42.431        0.473      332.047        0.457      850.341
12/23/2021  15:04:00       44.206      -57.320       71.031       27.755       56.541       35.643      770.366     3196.902     1270.444        0.776        0.262       72.386       39.272        0.294      332.197        0.704      850.385
12/23/2021  15:05:00       -5.998      -75.270       70.616       44.570       53.597       35.554     1986.515     2872.674     1264.118        0.840        0.306       75.509       35.510        0.221      332.142        0.613      850.378
12/23/2021  15:06:00      -53.253       -8.823       65.519       43.593       51.322       31.736     1900.325     2633.932     1007.143        0.637        0.277       53.979       32.113        0.354      332.126        0.586      850.276
12/23/2021  15:07:00      -13.481      -42.688       80.930       26.100       49.763       29.009      681.203     2476.318      841.512        0.628        0.200       44.767       27.433        0.376      332.156        0.636      850.149
12/23/2021  15:08:00        3.068      -45.790       75.355       41.194       70.723       37.925     1696.962     5001.759     1438.331        0.796        0.407       45.892       42.156        0.844      332.209        0.721      850.051
12/23/2021  15:09:00       37.281       38.570       69.737       32.135       61.484       34.307     1032.677     3780.284     1177.002        0.686        0.299       53.643       45.868        0.731      332.120        0.576      849.939
12/23/2021  15:10:00       60.223      -61.115       80.237       30.532       38.350       24.521      932.233     1470.687      601.297        0.840        0.150       85.802       28.768        0.112      332.363        0.975      849.938
12/23/2021  15:11:00       52.960     -109.341       67.167       37.172       58.128       32.970     1381.794     3378.811     1087.029        1.256        0.292      121.492       42.772        0.124      332.236        0.769      850.018
12/23/2021  15:12:00       80.174     -136.828       82.553       36.957       56.411       31.974     1365.843     3182.193     1022.354        1.877        0.279      158.587       42.081        0.070      332.248        0.786      850.097
12/23/2021  15:13:00       34.979     -138.495       86.754       42.091       56.521       36.616     1771.622     3194.606     1340.747        1.712        0.315      142.844       40.328        0.080      332.419        1.070      850.174
12/23/2021  15:14:00      -40.013     -110.765       90.554       85.223       58.049       28.011     7262.905     3369.740      784.627        1.674        0.571      117.770       28.563        0.059      332.280        0.840      850.229
12/23/2021  15:15:00       -4.279     -104.020       76.107       69.286       56.586       38.878     4800.570     3201.983     1511.487        1.307        0.476      104.108       44.373        0.182      332.194        0.699      850.203
12/23/2021  15:16:00       73.392     -140.758       68.967       43.962       34.024       30.672     1932.669     1157.602      940.797        1.699        0.202      158.743       34.577        0.047      332.251        0.795      850.102
12/23/2021  15:17:00       65.247     -126.656       72.941       40.503       37.368       31.018     1640.530     1396.381      962.135        1.481        0.200      142.474       32.962        0.054      332.345        0.948      850.082
12/23/2021  15:18:00      105.176     -152.541       71.560       38.933       42.352       28.231     1515.803     1793.706      797.015        2.178        0.205      185.285       30.280        0.027      332.389        1.018      850.086
12/23/2021  15:19:00      116.519     -132.657       52.712       48.105       57.888       37.226     2314.085     3351.028     1385.764        2.050        0.353      176.563       48.973        0.077      332.322        0.912      850.050
12/23/2021  15:20:00       57.296     -104.821       66.019       41.087       71.249       40.292     1688.181     5076.355     1623.474        1.351        0.419      119.458       44.902        0.141      332.282        0.847      850.094
12/23/2021  15:21:00       44.626     -145.739       70.195       43.124       53.815       40.084     1859.653     2896.064     1606.733        1.726        0.318      152.418       34.105        0.050      332.354        0.959      850.107
12/23/2021  15:22:00       19.532     -114.971       75.743       46.299       46.119       27.814     2143.616     2126.964      773.612        1.219        0.252      116.619       29.740        0.065      332.338        0.935      850.060
12/23/2021  15:23:00       37.527     -123.463       85.165       36.060       46.473       33.419     1300.355     2159.708     1116.805        1.424        0.229      129.040       34.545        0.072      332.375        0.996      850.001
12/23/2021  15:24:00       73.451     -149.888       85.554       37.441       47.182       27.933     1401.864     2226.161      780.271        1.979        0.220      166.918       31.899        0.037      332.422        1.072      849.970
12/23/2021  15:25:00       39.103     -140.222       83.330       55.644       56.060       43.650     3096.266     3142.682     1905.324        1.814        0.407      145.572       40.676        0.078      332.393        1.026      849.971
12/23/2021  15:26:00       76.341     -130.218       69.742       41.831       63.287       51.807     1749.824     4005.228     2683.988        1.804        0.422      150.946       47.092        0.097      332.415        1.060      850.000
12/23/2021  15:27:00       30.904     -131.569       75.666       52.337       42.364       30.802     2739.208     1794.688      948.775        1.474        0.274      135.149       35.639        0.070      332.407        1.049      849.953
12/23/2021  15:28:00       38.322     -127.917       67.711       39.812       58.696       35.064     1584.996     3445.208     1229.507        1.434        0.313      133.534       43.301        0.105      332.485        1.177      849.884
12/23/2021  15:29:00       -7.559      -70.830       83.991       36.839       42.278       34.534     1357.075     1787.409     1192.564        0.823        0.217       71.232       28.045        0.155      332.408        1.050      849.831
12/23/2021  15:30:00       28.165     -124.733       61.033       68.170       70.316       36.297     4647.083     4944.340     1317.501        1.549        0.545      127.874       31.672        0.061      332.474        1.160      849.777
12/23/2021  15:31:00       77.844     -139.565       79.454       70.739       59.681       49.346     5003.987     3561.863     2434.983        2.142        0.550      159.806       33.237        0.043      332.519        1.233      849.705
12/23/2021  15:32:00      -91.254      -34.434       32.388       71.668       74.929       76.380     5136.347     5614.417     5833.900        1.357        0.829       97.534       68.646        0.495      332.626        1.410      849.665
12/23/2021  15:33:00      -35.128      -82.028       51.054       58.956       60.699       44.947     3475.773     3684.343     2020.221        0.987        0.459       89.233       41.720        0.219      332.490        1.188      849.605
12/23/2021  15:34:00      -36.255      -32.838       85.080       57.819       35.270       37.627     3343.027     1244.004     1415.766        0.782        0.300       48.916       37.498        0.588      332.417        1.066      849.536
12/23/2021  15:35:00      -61.773      -28.890       59.673       41.713       54.962       42.352     1739.986     3020.857     1793.722        0.738        0.328       68.195       45.016        0.436      332.514        1.228      849.491
12/23/2021  15:36:00       28.181      -47.054       76.918       55.465       52.116       29.313     3076.405     2716.110      859.277        0.779        0.333       54.848       27.706        0.255      332.569        1.316      849.436
12/23/2021  15:37:00       10.832      -59.936       72.530       60.949       65.517       48.591     3714.748     4292.433     2361.079        0.967        0.518       60.907       45.202        0.551      332.650        1.449      849.363
12/23/2021  15:38:00        5.724     -112.103       57.135       56.862       63.229       47.627     3233.246     3997.962     2268.337        1.268        0.475      112.249       53.711        0.229      332.688        1.515      849.350
12/23/2021  15:39:00       75.343     -111.766       79.596       63.472       71.405       43.062     4028.740     5098.651     1854.311        1.774        0.549      134.790       50.370        0.140      332.628        1.413      849.379
12/23/2021  15:40:00      -26.827      -96.026       52.767       67.392       85.884       55.878     4541.620     7376.021     3122.338        1.388        0.752       99.703       57.918        0.337      332.667        1.477      849.440
12/23/2021  15:41:00       21.672     -109.607       85.358       78.710       66.878       37.028     6195.210     4472.705     1371.093        1.590        0.602      111.729       42.801        0.147      332.560        1.299      849.542
12/23/2021  15:42:00      -10.427      -91.953       53.082       61.811       81.861       48.492     3820.605     6701.237     2351.435        1.213        0.644       92.542       64.408        0.484      332.620        1.402      849.671
12/23/2021  15:43:00       40.141     -105.632       69.911       26.710       47.299       33.382      713.421     2237.180     1114.355        1.086        0.203      113.002       29.125        0.066      332.567        1.315      849.787
12/23/2021  15:44:00       81.653     -123.335       63.525       37.656       63.741       37.038     1418.000     4062.914     1371.808        1.638        0.343      147.915       49.363        0.111      332.656        1.460      849.856
12/23/2021  15:45:00       19.630     -134.308       56.925       37.977       64.553       38.851     1442.266     4167.059     1509.387        1.439        0.356      135.735       48.655        0.128      332.796        1.691      849.926
12/23/2021  15:46:00       34.426     -100.098       57.623       41.783       67.664       43.097     1745.828     4578.471     1857.351        1.135        0.409      105.852       51.565        0.237      332.835        1.756      849.981
12/23/2021  15:47:00       -3.905      -78.813       68.579       30.760       49.202       35.531      946.193     2420.845     1262.423        0.778        0.231       78.910       41.839        0.281      332.873        1.818      849.981
12/23/2021  15:48:00       71.035     -117.548       82.392       43.239       60.466       45.165     1869.571     3656.094     2039.839        1.661        0.378      137.345       46.088        0.113      332.902        1.864      850.016
12/23/2021  15:49:00       28.812     -143.051       33.272       46.364       71.690       42.351     2149.613     5139.403     1793.622        1.574        0.454      145.924       53.816        0.136      333.008        2.038      850.078
12/23/2021  15:50:00       20.504      -82.023       46.417       54.200       71.066       47.781     2937.669     5050.411     2283.049        0.979        0.514       84.547       59.010        0.487      333.078        2.156      850.039
12/23/2021  15:51:00       35.233      -86.673       49.190       45.857       74.205       46.497     2102.835     5506.449     2161.951        1.047        0.489       93.560       56.483        0.364      333.017        2.057      849.932
12/23/2021  15:52:00       32.699      -80.209       48.823       47.332       71.618       42.043     2240.314     5129.136     1767.638        0.951        0.457       86.618       56.123        0.420      332.989        2.009      849.804
12/23/2021  15:53:00       33.026      -81.125       58.124       42.506       63.793       43.852     1806.783     4069.591     1922.969        0.942        0.390       87.589       55.418        0.400      332.805        1.706      849.713
12/23/2021  15:54:00       34.671     -105.704       57.792       29.584       58.092       35.981      875.230     3374.702     1294.616        1.063        0.277      111.245       47.742        0.184      332.739        1.598      849.712
12/23/2021  15:55:00       72.489     -128.018       72.818       37.653       66.330       35.720     1417.763     4399.730     1275.930        1.702        0.355      147.116       47.662        0.105      332.816        1.725      849.763
12/23/2021  15:56:00       54.897     -115.479       51.658       52.530       73.862       56.163     2759.353     5455.602     3154.338        1.519        0.568      127.863       64.375        0.253      332.808        1.710      849.802
12/23/2021  15:57:00       39.391     -145.888       60.307       47.554       76.585       38.518     2261.372     5865.260     1483.661        1.804        0.481      151.112       55.321        0.134      332.866        1.805      849.783
12/23/2021  15:58:00       81.433      -88.314       64.176       46.780       67.772       42.949     2188.343     4593.073     1844.604        1.359        0.431      120.128       56.296        0.220      332.814        1.721      849.690
12/23/2021  15:59:00       21.194     -114.302       59.746       63.246       63.755       50.484     4000.058     4064.753     2548.636        1.385        0.531      116.250       59.468        0.262      332.809        1.713      849.721
12/23/2021  16:00:00       75.800     -116.396       73.098       48.153       70.762       39.759     2318.709     5007.215     1580.787        1.677        0.445      138.902       46.752        0.113      332.850        1.779      849.789
12/23/2021  16:01:00       90.637      -54.313       24.856       58.502       91.958       53.506     3422.536     8456.264     2862.877        1.326        0.737      105.664       60.338        0.326      333.175        2.315      849.683
12/23/2021  16:02:00       87.045     -163.141       32.984       77.275      139.334       55.115     5971.484    19414.034     3037.660        3.185        1.421      184.910       60.000        0.105      333.381        2.656      849.607
12/23/2021  16:03:00       18.343     -134.092       28.584       68.033      108.719       57.732     4628.508    11819.856     3332.948        1.945        0.989      135.341       44.503        0.108      333.250        2.439      849.749
12/23/2021  16:04:00       34.188      -64.356       74.414       92.438       81.665       48.362     8544.874     6669.106     2338.848        1.420        0.878       72.874       58.852        0.652      332.996        2.021      849.832
12/23/2021  16:05:00        5.382      -91.032       57.505       52.530       69.231       41.450     2759.453     4792.951     1718.073        1.044        0.464       91.191       51.606        0.320      332.936        1.922      849.822
12/23/2021  16:06:00       43.285     -133.226       72.222       30.333       48.433       33.763      920.071     2345.779     1139.951        1.462        0.220      140.082       35.573        0.064      332.817        1.724      849.840
12/23/2021  16:07:00      -15.582      -93.515       58.256       43.211       64.458       43.494     1867.154     4154.775     1891.707        1.015        0.396       94.804       54.168        0.326      332.872        1.816      849.876
12/23/2021  16:08:00       -7.181     -123.066       87.471       49.358       50.246       29.844     2436.214     2524.654      890.687        1.435        0.293      123.275       33.975        0.076      332.763        1.641      849.888
12/23/2021  16:09:00       -6.954      -75.000       66.488       58.042       63.304       51.469     3368.849     4007.338     2649.027        1.006        0.501       75.322       60.164        0.638      332.856        1.790      849.887
12/23/2021  16:10:00      -19.858     -112.893       88.821       44.425       78.919       44.500     1973.541     6228.187     1980.262        1.560        0.509      114.626       50.129        0.191      332.714        1.558      849.914
12/23/2021  16:11:00       12.278      -99.044       62.485       47.259       80.504       46.455     2233.366     6480.886     2158.033        1.237        0.544       99.802       54.051        0.293      332.942        1.933      849.995
12/23/2021  16:12:00       59.307     -128.937       77.569       34.773       45.963       34.527     1209.143     2112.603     1192.117        1.534        0.226      141.922       37.655        0.070      332.891        1.849      850.024
12/23/2021  16:13:00      127.810      -72.887       51.193       68.596       75.865       48.514     4705.366     5755.568     2353.633        1.854        0.641      147.133       56.383        0.147      333.028        2.071      849.975
12/23/2021  16:14:00      189.619      -59.222       42.689       45.890       79.908       41.541     2105.914     6385.248     1725.695        2.575        0.511      198.652       54.065        0.074      333.039        2.092      849.898
12/23/2021  16:15:00       63.395     -139.571       46.197       52.572       69.835       48.917     2763.800     4876.896     2392.921        1.783        0.502      153.294       53.384        0.121      333.095        2.181      849.933
12/23/2021  16:16:00       73.531     -133.414       47.500       48.353       79.234       49.019     2337.967     6278.092     2402.856        1.824        0.551      152.335       45.979        0.091      333.191        2.344      850.002
12/23/2021  16:17:00       50.344     -107.932       49.368       51.923       73.892       42.426     2696.009     5460.048     1799.950        1.329        0.498      119.096       55.679        0.219      333.169        2.307      850.027
12/23/2021  16:18:00       70.824     -116.443       71.379       46.906       69.087       45.617     2200.146     4773.042     2080.872        1.636        0.453      136.290       52.636        0.149      333.033        2.081      849.981
12/23/2021  16:19:00      154.242     -195.394       16.520       55.390       80.984       57.579     3067.999     6558.375     3315.340        3.759        0.647      248.937       43.657        0.031      333.230        2.406      849.912
12/23/2021  16:20:00      182.158     -205.989      -13.542       52.024       94.702       50.165     2706.454     8968.526     2516.493        4.499        0.710      274.978       40.082        0.021      333.383        2.657      849.837
12/23/2021  16:21:00      119.120     -154.621       21.047       96.485      103.945       53.770     9309.387    10804.610     2891.196        3.077        1.150      195.185       39.633        0.041      333.354        2.612      849.795
12/23/2021  16:22:00       19.191     -122.417       46.006       71.003       73.478       49.968     5041.490     5399.090     2496.782        1.520        0.647      123.912       50.886        0.169      333.123        2.229      849.833
12/23/2021  16:23:00       83.936     -148.331       70.703       55.003       70.829       39.204     3025.372     5016.712     1536.972        2.181        0.479      170.433       39.386        0.053      333.143        2.264      849.852
12/23/2021  16:24:00      -62.433     -103.381       50.256       99.353       89.214       64.301     9871.063     7959.091     4134.617        1.953        1.098      120.770       77.735        0.414      333.234        2.415      849.858
12/23/2021  16:25:00      -27.191     -100.978       49.908       49.729       79.576       49.475     2472.942     6332.388     2447.769        1.234        0.563      104.575       57.970        0.307      333.171        2.312      849.891
12/23/2021  16:26:00       46.952      -85.405       57.330       73.553       75.330       34.881     5410.036     5674.639     1216.675        1.254        0.615       97.460       44.721        0.211      332.930        1.914      849.882
12/23/2021  16:27:00      159.729     -140.711       48.187       62.795       82.220       52.813     3943.179     6760.168     2789.262        3.056        0.675      212.869       27.277        0.016      333.165        2.296      849.847
12/23/2021  16:28:00      151.761     -184.010       18.982       74.699      103.006       68.118     5579.997    10610.183     4640.027        3.904        1.042      238.519       35.058        0.022      333.385        2.660      849.791
12/23/2021  16:29:00      153.332     -214.417       22.361       65.107       94.622       49.470     4238.954     8953.408     2447.281        4.281        0.782      263.600       48.825        0.034      333.399        2.688      849.761
12/23/2021  16:30:00       98.025     -251.349       29.507       65.471       79.459       58.948     4286.461     6313.753     3474.923        4.386        0.704      269.787       51.268        0.036      333.334        2.582      849.813
12/23/2021  16:31:00      100.154     -231.146       54.294       50.926       77.754       43.640     2593.461     6045.756     1904.457        3.847        0.527      251.911       28.636        0.013      333.143        2.261      849.885
12/23/2021  16:32:00       70.204     -156.319       88.933       48.412       51.193       29.880     2343.760     2620.704      892.820        2.156        0.293      171.360       30.484        0.032      333.044        2.100      849.923
12/23/2021  16:33:00       65.213     -128.577       88.022       31.181       51.068       37.956      972.278     2607.916     1440.677        1.678        0.251      144.169       41.133        0.081      333.058        2.124      849.928
12/23/2021  16:34:00       55.599     -137.698       83.996       35.641       38.819       27.529     1270.287     1506.937      757.823        1.632        0.177      148.499       29.635        0.040      332.950        1.946      849.895
12/23/2021  16:35:00       69.484     -128.100       83.844       46.592       42.347       37.483     2170.827     1793.295     1404.991        1.682        0.268      145.731       40.784        0.078      332.961        1.963      849.881
12/23/2021  16:36:00       41.141     -148.055       68.069       43.724       52.262       35.233     1911.773     2731.324     1241.396        1.706        0.294      153.665       38.499        0.063      332.771        1.648      849.873
12/23/2021  16:37:00       40.823     -103.698       79.302       37.953       51.406       31.030     1440.446     2642.619      962.889        1.188        0.252      111.445       35.765        0.103      332.667        1.475      849.855
12/23/2021  16:38:00       78.107     -167.507       77.723       29.089       56.431       27.984      846.184     3184.442      783.091        2.251        0.241      184.822       35.675        0.037      332.731        1.580      849.834
12/23/2021  16:39:00      101.288     -152.213       77.844       46.860       53.887       27.718     2195.827     2903.828      768.278        2.268        0.293      182.834       34.387        0.035      332.810        1.713      849.823
12/23/2021  16:40:00      196.280     -116.711       71.022       39.106       47.134       27.350     1529.314     2221.591      748.025        3.084        0.225      228.358       35.612        0.024      332.659        1.461      849.779
12/23/2021  16:41:00      179.401     -140.270       75.754       47.604       54.107       33.033     2266.184     2927.591     1091.160        3.194        0.314      227.729       33.147        0.021      332.726        1.572      849.737
12/23/2021  16:42:00      132.576     -153.100       74.521       47.278       57.627       32.206     2235.168     3320.857     1037.229        2.658        0.330      202.524       36.897        0.033      332.689        1.512      849.702
12/23/2021  16:43:00      107.640     -140.042       75.998       32.242       54.834       31.154     1039.545     3006.719      970.543        2.099        0.251      176.630       35.328        0.040      332.620        1.400      849.671
12/23/2021  16:44:00       84.503      -90.325       85.167       49.913       50.423       39.227     2491.261     2542.446     1538.779        1.456        0.329      123.690       40.637        0.108      332.632        1.420      849.644
12/23/2021  16:45:00       33.501     -102.321       78.698       23.581       35.598       17.660      556.055     1267.241      311.873        0.996        0.107      107.665       13.870        0.017      332.551        1.285      849.646
12/23/2021  16:46:00       32.705      -92.026       69.465       39.043       69.909       34.061     1524.348     4887.219     1160.167        1.097        0.379       97.665       42.248        0.187      332.603        1.373      849.669
12/23/2021  16:47:00      -22.180     -123.950       69.610       49.626       53.070       38.651     2462.712     2816.459     1493.899        1.374        0.339      125.919       35.610        0.080      332.524        1.243      849.707
12/23/2021  16:48:00      -28.540      -72.784       71.119       50.780       56.575       40.413     2578.630     3200.732     1633.220        0.929        0.371       78.179       46.206        0.349      332.601        1.372      849.695
12/23/2021  16:49:00        0.780      -99.331       70.173       50.363       56.420       34.342     2536.464     3183.250     1179.405        1.084        0.345       99.334       40.952        0.170      332.504        1.211      849.668
12/23/2021  16:50:00       45.210      -96.905       75.569       46.001       51.980       28.943     2116.058     2701.910      837.689        1.140        0.283      106.932       31.556        0.087      332.671        1.483      849.635
12/23/2021  16:51:00       84.070      -96.946       78.750       33.897       46.534       24.799     1149.005     2165.413      614.973        1.330        0.196      128.321       29.375        0.052      332.881        1.832      849.616
12/23/2021  16:52:00      100.963     -143.159       62.854       33.301       48.107       31.481     1108.931     2314.324      991.046        1.953        0.221      175.180       38.843        0.049      332.904        1.869      849.623
12/23/2021  16:53:00      140.506     -126.633       78.254       43.349       47.687       28.736     1879.117     2274.017      825.764        2.344        0.249      189.151       32.667        0.030      332.814        1.718      849.626
12/23/2021  16:54:00      123.892     -126.385       66.178       37.221       50.349       37.869     1385.368     2534.972     1434.034        2.053        0.268      176.981       42.431        0.057      332.743        1.603      849.631
12/23/2021  16:55:00       70.692     -147.412       83.409       31.195       59.304       27.737      973.107     3516.907      769.359        1.947        0.263      163.486       29.402        0.032      332.835        1.755      849.583
12/23/2021  16:56:00       76.423     -193.904       85.034       44.835       51.465       35.217     2010.173     2648.622     1240.238        2.828        0.295      208.420       24.642        0.014      333.118        2.221      849.548
12/23/2021  16:57:00      141.527     -288.853       47.761       40.842       62.809       41.315     1668.092     3944.935     1706.927        5.653        0.366      321.661       43.494        0.018      333.282        2.490      849.510
12/23/2021  16:58:00      138.022     -236.089       58.234       42.094       78.157       32.638     1771.908     6108.541     1065.257        4.356        0.447      273.474       35.991        0.017      333.250        2.439      849.460
12/23/2021  16:59:00       81.268     -137.565       71.877       43.847       73.525       39.009     1922.532     5405.906     1521.694        1.977        0.443      159.777       46.596        0.085      333.091        2.177      849.432
12/23/2021  17:00:00       51.836      -75.027       89.490       41.169       45.620       25.069     1694.886     2081.199      628.479        1.036        0.220       91.192       32.364        0.126      332.836        1.758      849.418
12/23/2021  17:01:00        2.974      -78.921       72.543       38.956       39.780       27.850     1517.563     1582.474      775.643        0.769        0.194       78.977       30.115        0.145      332.632        1.424      849.412
12/23/2021  17:02:00       34.647      -78.015       79.300       29.501       42.771       26.492      870.338     1829.329      701.812        0.849        0.170       85.362       33.521        0.154      332.680        1.500      849.396
12/23/2021  17:03:00       66.159      -52.032       76.492       28.090       54.202       32.045      789.059     2937.874     1026.857        0.884        0.238       84.169       41.846        0.247      332.900        1.865      849.385
12/23/2021  17:04:00       79.133      -55.259       89.366       24.311       48.171       29.602      591.038     2320.464      876.260        1.054        0.189       96.517       36.488        0.143      332.987        2.008      849.370
12/23/2021  17:05:00      119.122      -90.374       87.305       27.983       30.911       19.315      783.039      955.463      373.060        1.605        0.106      149.524       17.532        0.014      332.984        2.001      849.361
12/23/2021  17:06:00      125.998     -104.189       73.624       39.863       47.663       35.750     1589.075     2271.753     1278.065        1.864        0.257      163.496       43.144        0.070      333.062        2.130      849.396
12/23/2021  17:07:00      105.738      -86.670       85.283       35.607       48.875       35.884     1267.831     2388.794     1287.697        1.545        0.247      136.720       40.784        0.089      332.928        1.911      849.399
12/23/2021  17:08:00       57.306      -91.712       86.227       34.167       44.702       27.948     1167.357     1998.278      781.110        1.154        0.197      108.144       35.954        0.111      332.746        1.611      849.411
12/23/2021  17:09:00       51.347     -133.571       73.198       35.461       52.933       36.632     1257.504     2801.913     1341.930        1.562        0.270      143.101       44.390        0.096      332.497        1.200      849.438
12/23/2021  17:10:00        8.373     -101.215       72.687       30.903       45.467       33.892      955.023     2067.249     1148.657        0.988        0.209      101.561       37.169        0.134      332.491        1.187      849.421
12/23/2021  17:11:00      -15.723      -73.422       79.800       37.242       43.503       25.155     1387.002     1892.489      632.750        0.796        0.196       75.087       32.225        0.184      332.488        1.184      849.381
12/23/2021  17:12:00       -2.174     -108.699       79.596       41.000       41.229       30.719     1681.025     1699.835      943.668        1.124        0.216      108.721       31.777        0.085      332.523        1.241      849.343
12/23/2021  17:13:00       -6.869     -102.147       63.939       43.080       54.169       39.013     1855.887     2934.255     1522.018        1.044        0.316      102.378       44.823        0.192      332.467        1.148      849.308
12/23/2021  17:14:00       38.228     -104.071       79.363       27.945       40.437       25.473      780.942     1635.132      648.883        1.083        0.153      110.870       27.925        0.063      332.404        1.043      849.261
12/23/2021  17:15:00       62.238     -103.166       73.632       39.699       53.444       37.593     1576.019     2856.281     1413.196        1.289        0.292      120.486       45.714        0.144      332.512        1.223      849.214
12/23/2021  17:16:00       28.743      -93.796       64.609       38.760       54.902       35.952     1502.332     3014.201     1292.524        0.980        0.290       98.101       43.387        0.196      332.539        1.265      849.192
12/23/2021  17:17:00       -8.851     -108.175       66.752       29.518       44.437       31.337      871.291     1974.683      982.012        1.003        0.191      108.536       34.041        0.098      332.316        0.899      849.205
12/23/2021  17:18:00       27.041     -123.194       68.758       45.349       69.686       34.795     2056.528     4856.157     1210.677        1.438        0.406      126.127       45.300        0.129      332.326        0.919      849.252
12/23/2021  17:19:00       45.407     -101.997       75.088       45.559       42.406       24.874     2075.624     1798.254      618.718        1.130        0.225      111.647       26.201        0.055      332.395        1.029      849.244
12/23/2021  17:20:00      176.559     -110.060       69.967       40.733       46.330       27.618     1659.207     2146.473      762.741        2.637        0.228      208.053       35.425        0.029      332.855        1.782      849.126
12/23/2021  17:21:00      126.916     -109.301       76.621       39.622       66.060       39.672     1569.937     4363.907     1573.903        2.072        0.375      167.495       50.218        0.090      332.724        1.573      849.112
12/23/2021  17:22:00      103.041     -155.050       76.720       33.260       23.909       16.538     1106.251      571.636      273.519        2.125        0.098      186.166       21.967        0.014      332.714        1.557      849.166
12/23/2021  17:23:00       31.329     -110.264       63.151       35.691       58.381       38.106     1273.849     3408.317     1452.064        1.163        0.307      114.628       45.521        0.158      332.494        1.194      849.180
12/23/2021  17:24:00        7.748      -87.801       69.212       29.575       51.827       36.059      874.663     2685.990     1300.276        0.871        0.243       88.142       44.922        0.260      332.431        1.090      849.157
12/23/2021  17:25:00        3.632      -92.434       76.308       37.804       52.812       31.557     1429.117     2789.088      995.860        0.980        0.261       92.505       40.121        0.188      332.384        1.012      849.122
12/23/2021  17:26:00       57.901     -139.879       86.357       42.870       37.649       18.092     1837.864     1417.462      327.317        1.698        0.179      151.389       15.355        0.010      332.430        1.086      849.112
12/23/2021  17:27:00       84.065     -136.589       57.612       40.154       68.579       39.699     1612.361     4703.051     1575.985        1.847        0.395      160.386       54.463        0.115      332.588        1.350      849.081
12/23/2021  17:28:00      100.780     -158.319       67.874       41.331       60.256       36.196     1708.270     3630.784     1310.124        2.324        0.332      187.674       37.698        0.040      332.811        1.716      849.042
12/23/2021  17:29:00      137.238     -121.775       79.497       56.964       60.300       34.531     3244.855     3636.077     1192.378        2.403        0.404      183.476       28.875        0.025      332.904        1.868      849.042
12/23/2021  17:30:00      167.115     -150.370       84.678       59.190       53.566       33.230     3503.418     2869.325     1104.204        3.259        0.374      224.808       35.985        0.026      333.156        2.284      849.043
12/23/2021  17:31:00       68.987     -149.589       70.337       45.027       47.062       32.609     2027.453     2214.825     1063.340        1.869        0.265      164.730       38.609        0.055      332.894        1.854      849.038
12/23/2021  17:32:00       48.129     -111.565       80.076       38.949       62.160       39.150     1517.038     3863.811     1532.722        1.404        0.346      121.503       45.758        0.142      332.378        1.001      849.058
12/23/2021  17:33:00       27.503     -108.192       73.312       25.581       48.179       28.355      654.372     2321.252      803.990        1.081        0.189      111.633       37.511        0.113      332.423        1.080      849.070
12/23/2021  17:34:00       32.394     -116.713       76.868       27.612       46.298       29.473      762.396     2143.530      868.650        1.218        0.189      121.125       38.384        0.100      332.541        1.270      849.096
12/23/2021  17:35:00       39.873     -120.627       80.047       23.706       28.918       18.460      561.964      836.237      340.790        1.214        0.087      127.046       23.695        0.035      332.687        1.513      849.094
12/23/2021  17:36:00        2.366     -142.244       81.452       39.543       46.131       28.849     1563.641     2128.081      832.242        1.570        0.226      142.264       34.951        0.060      332.484        1.177      849.077
12/23/2021  17:37:00      -26.329     -110.956       57.825       43.518       69.196       40.849     1893.825     4788.047     1668.662        1.235        0.418      114.037       45.261        0.158      332.333        0.927      849.101
12/23/2021  17:38:00       18.912     -101.584       66.444       45.088       46.457       28.685     2032.959     2158.225      822.813        1.005        0.251      103.330       34.833        0.114      332.810        1.718      849.095
12/23/2021  17:39:00      130.073     -190.585       59.136       48.804       84.042       44.887     2381.861     7063.078     2014.866        3.410        0.573      230.741       31.064        0.018      333.395        2.677      849.047
12/23/2021  17:40:00      225.033     -322.243       21.735       59.278       85.947       44.328     3513.843     7386.887     1964.951        8.391        0.643      393.040       35.493        0.008      333.445        2.765      848.998
12/23/2021  17:41:00      235.010     -274.755       23.229       58.256      111.174       59.522     3393.813    12359.565     3542.836        7.527        0.965      361.552       58.506        0.026      333.467        2.799      849.002
12/23/2021  17:42:00      176.883     -284.346       31.048       51.106       77.747       40.199     2611.866     6044.611     1615.990        6.169        0.514      334.874       49.986        0.022      333.487        2.831      849.055
12/23/2021  17:43:00      100.330     -266.472       41.086       71.105       92.719       52.435     5055.897     8596.778     2749.427        4.958        0.820      284.734       54.518        0.037      333.488        2.831      849.107
12/23/2021  17:44:00      104.129     -203.858       70.984       57.279       96.863       43.419     3280.864     9382.346     1885.195        3.599        0.727      228.912       43.557        0.036      333.362        2.623      849.148
12/23/2021  17:45:00      122.815     -215.843       24.865       73.101       94.850       43.840     5343.704     8996.442     1921.973        3.927        0.813      248.338       39.437        0.025      333.253        2.444      849.119
12/23/2021  17:46:00        8.940      -76.735       68.507       53.298       63.735       34.738     2840.720     4062.190     1206.758        0.938        0.405       77.254       33.618        0.189      332.937        1.922      849.121
12/23/2021  17:47:00      -22.279      -15.472       79.826       28.370       40.278       25.394      804.855     1622.333      644.854        0.509        0.154       27.125       29.197        1.159      332.814        1.721      849.133
12/23/2021  17:48:00       20.843      -54.181       60.715       59.387       67.928       39.441     3526.799     4614.183     1555.567        0.837        0.485       58.052       12.688        0.048      333.538        2.917      849.156
12/23/2021  17:49:00      126.675     -149.649       75.055       48.800       54.284       33.598     2381.481     2946.715     1128.847        2.526        0.323      196.064       37.246        0.036      333.618        3.048      849.187
12/23/2021  17:50:00      182.616      -92.063       55.621       67.772       91.358       49.619     4593.043     8346.206     2462.011        3.016        0.770      204.510       56.773        0.077      333.647        3.095      849.198
12/23/2021  17:51:00       94.746     -180.671       71.130       60.335       51.039       30.529     3640.261     2604.939      932.019        2.693        0.359      204.007       26.173        0.016      333.500        2.853      849.219
12/23/2021  17:52:00       52.997     -116.144       72.000       44.019       56.071       29.292     1937.685     3143.957      858.039        1.371        0.297      127.664       24.855        0.038      333.100        2.195      849.223
12/23/2021  17:53:00       32.224     -102.228       92.304       34.828       49.641       28.414     1213.009     2464.230      807.346        1.225        0.224      107.187       34.018        0.101      333.087        2.173      849.229
12/23/2021  17:54:00      115.586     -131.997       77.700       62.207       62.519       35.761     3869.658     3908.682     1278.838        2.294        0.453      175.452       30.904        0.031      333.318        2.553      849.245
12/23/2021  17:55:00      244.946     -128.714       66.195       47.298       76.939       36.850     2237.068     5919.589     1357.912        4.523        0.476      276.705       51.645        0.035      333.471        2.806      849.246
12/23/2021  17:56:00      163.964     -120.594       60.582       54.927       61.231       36.206     3016.971     3749.200     1310.838        2.659        0.404      203.536       45.127        0.049      333.432        2.740      849.229
12/23/2021  17:57:00      104.996     -155.012       73.966       31.441       43.067       22.700      988.539     1854.760      515.283        2.194        0.168      187.224       24.472        0.017      333.246        2.433      849.241
12/23/2021  17:58:00       91.533     -197.010       76.493       26.839       43.571       22.731      720.319     1898.426      516.715        2.809        0.157      217.236       26.239        0.015      333.253        2.446      849.256
12/23/2021  17:59:00       60.403     -130.804       79.929       41.936       67.207       37.026     1758.648     4516.833     1370.953        1.740        0.382      144.077       31.625        0.048      333.075        2.153      849.266
12/23/2021  18:00:00       57.954     -143.824       78.636       53.779       47.194       36.299     2892.201     2227.274     1317.647        1.833        0.322      155.061       23.359        0.023      333.033        2.082      849.260
12/23/2021  18:01:00      137.732     -180.284       70.566       50.969       57.055       34.818     2597.848     3255.277     1212.321        3.176        0.353      226.875       26.539        0.014      333.414        2.710      849.244
12/23/2021  18:02:00      167.415     -186.830       45.557       63.802       74.239       50.874     4070.711     5511.373     2588.147        3.859        0.609      250.865       28.146        0.013      333.547        2.929      849.200
12/23/2021  18:03:00      169.356     -198.608       23.801       55.788       96.035       47.808     3112.255     9222.674     2285.564        4.165        0.731      261.011       41.724        0.026      333.744        3.259      849.133
12/23/2021  18:04:00       99.444     -165.242       81.507       48.163       46.404       40.853     2319.715     2153.296     1668.931        2.499        0.307      192.858       25.313        0.017      333.552        2.939      849.086
12/23/2021  18:05:00       52.266     -146.046       87.987       46.515       49.009       34.014     2163.628     2401.922     1156.933        1.876        0.286      155.116       40.839        0.069      333.155        2.284      849.078
12/23/2021  18:06:00       53.937     -162.223       79.480       35.356       33.492       22.491     1250.064     1121.685      505.843        1.921        0.144      170.955       25.013        0.021      332.993        2.017      849.064
12/23/2021  18:07:00       34.237     -125.865       80.573       77.408       60.386       46.681     5991.922     3646.431     2179.077        1.766        0.591      130.438       53.533        0.168      332.884        1.838      849.103
12/23/2021  18:08:00      -10.691      -80.973       85.734       76.417       64.553       46.710     5839.634     4167.052     2181.782        1.310        0.609       81.676       54.101        0.439      332.791        1.681      849.102
12/23/2021  18:09:00      119.328     -115.960       59.581       61.451       66.774       38.513     3776.253     4458.790     1483.272        2.048        0.486      166.390       44.519        0.072      333.413        2.709      849.046
12/23/2021  18:10:00      151.661     -165.033       69.366       73.796       62.225       40.142     5445.917     3871.916     1611.394        3.299        0.546      224.136       21.333        0.009      333.387        2.667      849.006
12/23/2021  18:11:00       47.012     -136.789       52.209       78.903       80.241       45.113     6225.762     6438.690     2035.160        1.917        0.735      144.642       48.844        0.114      333.281        2.493      849.026
12/23/2021  18:12:00       -9.287     -144.819       82.823       77.073       71.835       51.077     5940.184     5160.202     2608.831        2.081        0.685      145.117       53.631        0.137      333.148        2.271      849.030
12/23/2021  18:13:00       91.647     -186.901       54.889       62.096       91.079       65.731     3855.950     8295.357     4320.616        3.141        0.824      208.161       37.419        0.032      333.644        3.090      849.029
12/23/2021  18:14:00      149.277     -186.703       19.048       82.167       92.890       79.164     6751.480     8628.467     6266.980        3.957        1.082      239.043       55.086        0.053      333.545        2.927      848.905
12/23/2021  18:15:00       10.768     -142.427       53.589       76.186      106.315       63.675     5804.276    11302.787     4054.547        2.221        1.058      142.834       73.241        0.263      333.390        2.673      848.892
12/23/2021  18:16:00       46.962     -129.314       81.953       38.871       31.238       20.674     1510.941      975.807      427.425        1.428        0.146      137.578       16.596        0.015      333.036        2.088      848.921
12/23/2021  18:17:00       53.494     -142.617       80.807       46.343       42.862       30.307     2147.632     1837.181      918.511        1.732        0.245      152.320       38.866        0.065      333.377        2.653      848.930
12/23/2021  18:18:00      190.510     -132.844       61.216       52.410       34.936       32.181     2746.817     1220.554     1035.633        3.135        0.250      232.253       19.670        0.007      333.815        3.373      848.866
12/23/2021  18:19:00       50.465     -135.600       74.285       54.063       43.533       33.141     2922.849     1895.122     1098.354        1.618        0.296      144.686       33.876        0.055      333.350        2.608      848.913
12/23/2021  18:20:00      -14.399     -143.979       87.166       87.798       65.514       44.713     7708.529     4292.107     1999.244        2.127        0.700      144.697       46.277        0.102      333.057        2.120      848.943
12/23/2021  18:21:00      -11.627     -149.062       84.961       60.585       67.527       51.750     3670.536     4559.850     2678.087        2.024        0.545      149.514       47.901        0.103      333.438        2.752      848.968
12/23/2021  18:22:00       53.542     -199.708       64.659       64.648       60.758       47.077     4179.332     3691.587     2216.250        2.851        0.504      206.761       45.878        0.049      333.781        3.316      848.961
12/23/2021  18:23:00       42.804     -184.020       49.133       51.313       54.967       45.292     2633.011     3021.358     2051.345        2.291        0.385      188.933       34.023        0.032      333.486        2.830      848.992
12/23/2021  18:24:00      122.592     -216.442       60.004       59.156       68.602       37.924     3499.420     4706.167     1438.239        3.756        0.482      248.748       20.123        0.007      333.734        3.239      848.998
12/23/2021  18:25:00      148.706     -269.549       56.929       55.219       67.832       44.353     3049.136     4601.212     1967.221        5.381        0.481      307.847       31.467        0.010      333.585        2.992      848.966
12/23/2021  18:26:00      115.428     -287.409       61.885       80.534       68.053       51.181     6485.776     4631.232     2619.528        5.674        0.687      309.722       30.513        0.010      333.737        3.243      848.955
12/23/2021  18:27:00       99.156     -214.124       60.468       76.920       94.480       59.880     5916.761     8926.533     3585.588        3.888        0.921      235.968       29.541        0.016      333.527        2.899      848.932
12/23/2021  18:28:00      105.771     -171.010       80.433       61.881       62.039       44.898     3829.264     3848.814     2015.829        2.830        0.485      201.076       25.043        0.016      333.561        2.953      848.872
12/23/2021  18:29:00       -2.880     -144.546       75.644       61.953       65.704       52.035     3838.160     4317.037     2707.599        1.874        0.543      144.575       56.493        0.153      333.223        2.395      848.911
12/23/2021  18:30:00      -51.505     -172.549       64.574       74.390       50.313       45.649     5533.906     2531.370     2083.827        2.337        0.507      180.072       51.801        0.083      333.611        3.036      848.891
12/23/2021  18:31:00       -8.948     -173.825       70.016       63.654       60.845       39.738     4051.870     3702.125     1579.138        2.226        0.467      174.055       45.201        0.067      333.932        3.569      848.869
12/23/2021  18:32:00      -18.101     -182.575       69.350       65.811       87.153       47.882     4331.140     7595.640     2292.687        2.634        0.711      183.470       40.272        0.048      333.766        3.293      848.870
12/23/2021  18:33:00       -4.080     -255.720       35.126       86.917       98.847       65.035     7554.609     9770.744     4229.508        4.410        1.078      255.753       69.545        0.074      334.109        3.863      848.844
12/23/2021  18:34:00      117.842     -230.675       34.889       62.300       94.518       49.612     3881.292     8933.630     2461.387        4.179        0.764      259.032       17.242        0.004      334.064        3.788      848.805
12/23/2021  18:35:00       57.196     -136.641       65.523       49.684       63.781       42.245     2468.541     4068.031     1784.620        1.728        0.416      148.129       39.463        0.071      333.561        2.952      848.804
12/23/2021  18:36:00       55.471     -130.683       83.146       48.834       52.937       33.369     2384.734     2802.322     1113.466        1.668        0.315      141.969       28.928        0.042      333.490        2.834      848.849
12/23/2021  18:37:00       55.341     -187.202       72.004       68.686       57.630       33.292     4717.765     3321.258     1108.338        2.622        0.457      195.210       33.076        0.029      333.710        3.199      848.822
12/23/2021  18:38:00       28.495     -186.561       59.739       66.585       83.796       55.512     4433.611     7021.757     3081.535        2.686        0.727      188.725       53.979        0.082      333.717        3.212      848.828
12/23/2021  18:39:00       32.245     -134.250       76.443       52.941       63.543       48.535     2802.768     4037.768     2355.609        1.705        0.460      138.068       47.248        0.117      333.410        2.707      848.817
12/23/2021  18:40:00      -17.481     -148.976       77.130       87.782       68.161       60.335     7705.665     4645.897     3640.252        2.222        0.800      149.999       65.071        0.188      333.545        2.928      848.814
12/23/2021  18:41:00      -16.871     -113.054       67.873       59.263       60.957       48.736     3512.059     3715.813     2375.217        1.364        0.480      114.306       54.494        0.227      333.663        3.124      848.786
12/23/2021  18:42:00       15.675     -126.967       85.735       59.216       58.192       37.792     3506.586     3386.332     1428.198        1.602        0.416      127.930       46.284        0.131      333.223        2.397      848.722
12/23/2021  18:43:00       83.159     -167.769       72.647       55.744       50.132       30.972     3107.370     2513.233      959.249        2.346        0.329      187.248       35.177        0.035      333.250        2.438      848.678
12/23/2021  18:44:00       82.877     -187.862       64.929       51.801       71.603       41.516     2683.313     5126.924     1723.559        2.795        0.477      205.331       48.041        0.055      333.937        3.576      848.626
12/23/2021  18:45:00       30.022     -121.711       76.832       87.534       72.168       66.485     7662.179     5208.254     4420.306        1.945        0.865      125.359       75.459        0.362      333.353        2.611      848.686
12/23/2021  18:46:00     -138.222     -131.522       51.244       65.040       78.321       71.252     4230.252     6134.170     5076.835        2.723        0.772      190.796       72.213        0.143      333.802        3.351      848.751
12/23/2021  18:47:00      -65.396     -131.576       40.784      101.737       89.317       55.018    10350.439     7977.558     3027.030        2.230        1.068      146.931       66.514        0.205      333.956        3.609      848.755
12/23/2021  18:48:00      -41.403     -153.855       56.238       64.661       81.184       45.071     4181.093     6590.881     2031.424        2.067        0.640      159.328       63.612        0.159      334.117        3.876      848.746
12/23/2021  18:49:00      -19.242     -121.962       60.877       84.245       65.475       63.321     7097.258     4287.011     4009.573        1.717        0.770      123.471       72.116        0.341      333.702        3.188      848.757
12/23/2021  18:50:00     -112.626     -115.769       43.144       76.631       82.629       63.758     5872.252     6827.560     4065.109        2.235        0.838      161.515       77.759        0.232      334.158        3.941      848.762
12/23/2021  18:51:00     -185.717      -47.715       23.678       64.021       77.402       56.355     4098.652     5991.096     3175.862        2.529        0.663      191.749       64.190        0.112      334.367        4.291      848.729
12/23/2021  18:52:00      -98.686      -49.807       63.606       92.466      104.600       66.649     8549.890    10941.193     4442.113        2.010        1.197      110.542       81.402        0.542      334.184        3.987      848.672
12/23/2021  18:53:00       -3.266      -96.008       66.408       75.663       79.328       49.448     5724.856     6292.908     2445.058        1.405        0.723       96.063       61.632        0.412      334.199        4.010      848.618
12/23/2021  18:54:00      -38.029     -115.377       80.250       88.739       58.974       58.968     7874.559     3477.927     3477.202        1.801        0.741      121.483       59.790        0.242      334.100        3.849      848.583
12/23/2021  18:55:00       13.525     -119.746       80.827       92.751       76.155       56.581     8602.668     5799.622     3201.426        1.933        0.880      120.507       68.275        0.321      333.925        3.557      848.597
12/23/2021  18:56:00      -60.599     -108.361       45.021       73.501       72.636       47.960     5402.439     5275.957     2300.140        1.521        0.649      124.155       62.587        0.254      334.248        4.094      848.563
12/23/2021  18:57:00      -98.824      -62.388       65.673      163.029      127.665       71.529    26578.456    16298.421     5116.378        3.297        2.400      116.869       96.091        0.676      334.159        3.942      848.554
12/23/2021  18:58:00     -158.142      -34.283       42.148      132.527      130.659       74.768    17563.517    17071.839     5590.323        3.409        2.011      161.815       88.766        0.301      334.319        4.211      848.560
12/23/2021  18:59:00       10.271     -117.642       71.688       55.150       88.381       47.355     3041.549     7811.267     2242.510        1.609        0.655      118.089       63.047        0.285      333.971        3.635      848.573
12/23/2021  19:00:00      -34.076     -115.493       57.694       53.725       85.868       50.271     2886.356     7373.383     2527.169        1.531        0.639      120.416       60.554        0.253      334.231        4.066      848.572
12/23/2021  19:01:00      -56.932     -137.656       55.871       64.172       76.581       49.390     4117.997     5864.610     2439.335        1.886        0.621      148.965       63.663        0.183      334.297        4.175      848.604
12/23/2021  19:02:00      -74.067     -162.457       30.870       73.875       89.783       49.348     5457.481     8061.063     2435.259        2.439        0.798      178.545       62.703        0.123      334.523        4.551      848.630
12/23/2021  19:03:00     -126.468      -67.343       26.701       74.484       84.692       57.853     5547.860     7172.749     3346.975        1.865        0.803      143.280       68.062        0.226      334.343        4.251      848.686
12/23/2021  19:04:00     -104.878      -78.361       22.325       81.206       86.869       56.072     6594.340     7546.269     3144.053        1.746        0.864      130.919       68.501        0.274      334.291        4.165      848.723
12/23/2021  19:05:00     -127.974      -80.258       28.997       78.275       83.346       61.789     6126.931     6946.617     3817.868        2.027        0.845      151.059       72.617        0.231      334.357        4.273      848.721
12/23/2021  19:06:00     -124.703     -140.056       17.788       55.042      108.513       52.101     3029.594    11775.063     2714.559        2.650        0.876      187.528       60.397        0.104      334.485        4.489      848.724
12/23/2021  19:07:00     -169.661     -150.498      -21.424       62.170       86.275       59.046     3865.076     7443.333     3486.441        3.334        0.740      226.792       60.987        0.072      334.643        4.748      848.737
12/23/2021  19:08:00      -68.277     -136.854        3.509      113.423      108.432       65.958    12864.827    11757.415     4350.404        2.618        1.449      152.940       86.886        0.323      334.501        4.515      848.768
12/23/2021  19:09:00      -95.856      -51.305       18.446       93.919       87.006       57.181     8820.770     7570.122     3269.663        1.591        0.983      108.723       66.062        0.369      334.462        4.446      848.810
12/23/2021  19:10:00       -9.437      -85.098       19.567       67.403       89.280       66.196     4543.121     7970.911     4381.878        1.230        0.845       85.620       61.249        0.512      334.393        4.335      848.772
12/23/2021  19:11:00      -77.342     -172.787        7.610       83.477      110.916       58.070     6968.333    12302.301     3372.100        2.926        1.132      189.307       70.156        0.137      334.706        4.851      848.728
12/23/2021  19:12:00     -150.229     -203.509      -26.276      181.019      108.680       73.203    32767.760    11811.285     5358.730        5.730        2.497      252.952       46.359        0.034      335.002        5.346      848.715
12/23/2021  19:13:00       64.085     -158.936       12.026       77.724      120.322       63.259     6041.047    14477.422     4001.643        2.701        1.226      171.370       58.282        0.116      334.619        4.708      848.635
12/23/2021  19:14:00      -71.422     -132.027        5.560      123.184      158.119       60.364    15174.405    25001.544     3643.846        3.318        2.191      150.107       54.102        0.130      334.777        4.970      848.592
12/23/2021  19:15:00     -177.154     -126.549      -21.603      131.766       95.706       76.391    17362.402     9159.621     5835.553        4.011        1.618      217.711       51.568        0.056      334.814        5.033      848.583
12/23/2021  19:16:00     -111.343       -3.682        1.005      105.052       60.689       52.759    11035.880     3683.209     2783.496        1.495        0.875      111.404       57.290        0.264      334.733        4.901      848.597
12/23/2021  19:17:00      -94.312      -44.812       14.503       92.583       78.214       57.626     8571.617     6117.475     3320.767        1.456        0.900      104.417       58.904        0.318      334.722        4.880      848.613
12/23/2021  19:18:00     -120.540     -116.202        7.243       85.368      108.682       59.544     7287.705    11811.772     3545.464        2.536        1.132      167.430       57.819        0.119      334.837        5.071      848.644
12/23/2021  19:19:00     -153.927       -2.267       -9.857       58.659       71.694       46.791     3440.868     5140.012     2189.399        1.728        0.539      153.944       35.435        0.053      334.844        5.085      848.667
12/23/2021  19:20:00     -156.029      -17.563      -13.748       65.800       60.898       38.687     4329.588     3708.558     1496.705        1.719        0.477      157.015       24.474        0.024      334.834        5.068      848.668
12/23/2021  19:21:00     -215.704        1.715      -26.084       50.393       57.224       37.844     2539.432     3274.564     1432.138        2.723        0.362      215.710       20.707        0.009      334.858        5.105      848.667
12/23/2021  19:22:00     -125.039      -18.760       -5.430       55.229       71.109       29.680     3050.245     5056.537      880.882        1.250        0.449      126.439       28.936        0.052      334.786        4.989      848.621
12/23/2021  19:23:00     -119.076       -2.202      -17.904       46.141       48.199       27.388     2128.949     2323.185      750.109        0.985        0.260      119.097       16.916        0.020      334.748        4.925      848.617
12/23/2021  19:24:00     -125.731       -1.800        7.305       84.593       68.620       42.710     7155.904     4708.687     1824.119        1.477        0.684      125.743       40.923        0.106      334.707        4.855      848.653
12/23/2021  19:25:00     -260.848      -45.893      -26.546      134.187       73.123       56.483    18006.024     5347.024     3190.333        4.869        1.327      264.855       58.716        0.049      334.877        5.136      848.654
12/23/2021  19:26:00     -303.944      -33.080      -20.559      166.838       97.855       72.763    27834.763     9575.582     5294.467        6.829        2.135      305.739       85.538        0.078      334.907        5.188      848.595
12/23/2021  19:27:00     -137.211       17.666      -12.922       98.901       83.432       47.806     9781.426     6960.842     2285.401        1.916        0.951      138.343       25.249        0.033      334.778        4.973      848.583
12/23/2021  19:28:00     -199.508        6.368      -13.237       98.190       79.771       52.879     9641.259     6363.454     2796.178        2.941        0.940      199.609       48.838        0.060      334.831        5.061      848.615
12/23/2021  19:29:00     -282.157        1.073       -6.943      107.381       73.077       60.496    11530.723     5340.199     3659.733        5.009        1.027      282.159       52.810        0.035      334.914        5.197      848.693
12/23/2021  19:30:00     -141.821      -17.041      -22.087       87.736       68.420       38.573     7697.613     4681.237     1487.839        1.738        0.693      142.841       42.363        0.088      334.882        5.148      848.744
12/23/2021  19:31:00     -102.270     -114.922      -10.049       60.587       81.980       38.860     3670.839     6720.753     1510.077        1.783        0.595      153.838       20.894        0.018      334.945        5.251      848.764
12/23/2021  19:32:00      -16.549      -74.734      -17.951       67.984       60.073       34.182     4621.789     3608.772     1168.424        0.779        0.470       76.544        7.035        0.008      334.894        5.168      848.768
12/23/2021  19:33:00      -34.396      -60.516      -10.757       60.640       43.403       24.093     3677.151     1883.831      580.453        0.555        0.307       69.608       22.075        0.101      334.963        5.283      848.775
12/23/2021  19:34:00       16.865      -50.233      -32.046       54.841       45.029       19.127     3007.549     2027.596      365.844        0.462        0.270       52.989       22.309        0.177      334.622        4.716      848.756
12/23/2021  19:35:00       23.690       38.204      -17.102       17.880       18.346       11.231      319.694      336.567      126.133        0.155        0.039       44.953        7.938        0.031      334.271        4.133      848.749
12/23/2021  19:36:00       56.375       47.098      -15.154       19.909       12.558       14.938      396.363      157.707      223.151        0.320        0.039       73.460        5.002        0.005      334.073        3.804      848.753
12/23/2021  19:37:00       32.901       23.790       -4.161       25.742       17.771       13.847      662.638      315.804      191.728        0.142        0.059       40.601        6.645        0.027      334.081        3.819      848.776
12/23/2021  19:38:00       40.361       15.792       -7.487       32.714       16.062       10.685     1070.233      258.003      114.161        0.169        0.072       43.340       10.290        0.056      334.183        3.986      848.819
12/23/2021  19:39:00        4.348       14.650       -3.976       10.608       10.919        5.504      112.535      119.235       30.290        0.026        0.013       15.282        6.250        0.167      334.196        4.008      848.852
12/23/2021  19:40:00      -48.233        3.085      -12.480       15.660       14.295       12.776      245.226      204.359      163.235        0.155        0.031       48.332       10.340        0.046      334.142        3.919      848.860
12/23/2021  19:41:00      -46.356       16.669       -6.133       13.358       14.598        8.738      178.440      213.114       76.361        0.147        0.023       49.262        8.681        0.031      334.176        3.976      848.861
12/23/2021  19:42:00      -22.787       14.212       13.664       38.115       38.197       25.817     1452.733     1459.008      666.536        0.224        0.179       26.856       13.671        0.259      334.369        4.296      848.865
12/23/2021  19:43:00       -1.402      -12.938       -6.402       15.316       13.622       13.583      234.595      185.553      184.486        0.041        0.030       13.014        9.157        0.495      334.366        4.291      848.840
12/23/2021  19:44:00        8.823      -23.518       -3.200       26.346       40.697       16.467      694.130     1656.250      271.165        0.163        0.131       25.118       14.051        0.313      334.432        4.400      848.853
12/23/2021  19:45:00      -53.383       -6.207      -18.424       15.658       18.373       12.010      245.172      337.583      144.245        0.198        0.036       53.743        3.129        0.003      334.514        4.536      848.897
12/23/2021  19:46:00      -66.539       -1.999       -2.547       34.297       26.534       11.798     1176.272      704.050      139.183        0.323        0.101       66.569        7.247        0.012      334.400        4.347      848.917
12/23/2021  19:47:00      -56.744      -12.649      -13.196       32.281       23.211       15.894     1042.052      538.745      252.630        0.269        0.092       58.137       14.331        0.061      334.590        4.661      848.903
12/23/2021  19:48:00      -82.678      -40.681       -7.267       51.652       47.424       18.817     2667.960     2248.995      354.098        0.691        0.264       92.144       15.659        0.029      334.606        4.689      848.911
12/23/2021  19:49:00     -126.722       -8.006       -9.231       47.514       36.518       26.102     2257.613     1333.583      681.289        1.024        0.214      126.975       19.176        0.023      334.404        4.353      848.956
12/23/2021  19:50:00     -123.025      -12.556       -5.115       53.053       28.742       20.589     2814.636      826.089      423.916        0.969        0.203      123.664       20.212        0.027      334.425        4.389      848.934
12/23/2021  19:51:00     -112.332      -15.897      -11.587       61.070       43.516       41.724     3729.536     1893.668     1740.882        1.018        0.368      113.451       40.504        0.127      334.567        4.622      848.921
12/23/2021  19:52:00     -160.809      -19.732       -6.027       57.736       35.352       36.953     3333.473     1249.788     1365.512        1.612        0.297      162.015       28.191        0.030      334.416        4.375      848.924
12/23/2021  19:53:00     -155.169      -12.541       -6.448       72.785       40.665       36.195     5297.710     1653.620     1310.111        1.627        0.413      155.675       35.910        0.053      334.427        4.391      848.924
12/23/2021  19:54:00     -155.232       29.036        0.575       89.879       63.985       38.347     8078.186     4094.084     1470.474        1.929        0.682      157.924       31.121        0.039      334.343        4.250      848.911
12/23/2021  19:55:00     -264.449       27.137      -10.721      139.593       63.794       50.515    19486.077     4069.651     2551.748        4.844        1.305      265.838       41.054        0.024      334.384        4.318      848.895
12/23/2021  19:56:00     -165.635        5.834       -1.241       94.673       77.882       48.302     8962.998     6065.676     2333.107        2.241        0.868      165.738       36.594        0.049      334.296        4.173      848.887
12/23/2021  19:57:00     -163.405        5.449       -1.531       87.354       64.751       39.017     7630.742     4192.744     1522.296        2.004        0.667      163.496       31.897        0.038      334.340        4.247      848.896
12/23/2021  19:58:00     -160.310      -20.631      -10.458       63.504       81.689       38.209     4032.717     6673.078     1459.903        1.920        0.608      161.632       34.004        0.044      334.488        4.491      848.898
12/23/2021  19:59:00     -136.597       16.877        1.382       76.668       69.543       36.329     5877.932     4836.164     1319.824        1.549        0.602      137.635       28.934        0.044      334.370        4.296      848.893
12/23/2021  20:00:00     -185.461      -10.330      -20.110       76.594       79.123       36.199     5866.702     6260.372     1310.354        2.417        0.672      185.748       30.023        0.026      334.436        4.406      848.846
12/23/2021  20:01:00     -132.724       -2.965      -11.714       45.338       42.229       36.577     2055.517     1783.291     1337.893        1.147        0.259      132.757        8.633        0.004      334.472        4.466      848.793
12/23/2021  20:02:00     -148.932       -3.699        9.505      113.092       65.963       50.267    12789.900     4351.075     2526.750        2.097        0.983      148.977       59.494        0.159      334.320        4.213      848.786
12/23/2021  20:03:00     -149.337       -4.724       -7.963       63.895       48.500       38.533     4082.515     2352.286     1484.807        1.515        0.396      149.411       30.686        0.042      334.284        4.154      848.809
12/23/2021  20:04:00     -162.232       51.345       -3.064       97.213       54.413       44.520     9450.321     2960.733     1982.012        2.168        0.720      170.163       45.469        0.071      334.216        4.038      848.824
12/23/2021  20:05:00      -66.329       -9.841        2.858       76.718       75.431       46.046     5885.604     5689.797     2120.248        0.910        0.685       67.055       42.009        0.392      334.172        3.969      848.835
12/23/2021  20:06:00      -89.270      -24.211        1.885       59.693       64.479       34.339     3563.251     4157.546     1179.178        0.873        0.445       92.495       29.656        0.103      334.240        4.081      848.825
12/23/2021  20:07:00     -152.084       16.463       -5.228      100.268       57.206       46.512    10053.696     3272.514     2163.331        1.946        0.774      152.973       45.294        0.088      334.167        3.959      848.815
12/23/2021  20:08:00     -136.445       54.941      -11.380       75.113       68.390       43.826     5641.911     4677.153     1920.728        1.700        0.612      147.091       22.528        0.023      334.079        3.812      848.819
12/23/2021  20:09:00     -253.802       67.469       -4.968      113.183       74.129       56.977    12810.327     5495.137     3246.334        4.527        1.078      262.616       49.853        0.036      334.108        3.859      848.822
12/23/2021  20:10:00     -134.213       19.821       -5.786       86.686       78.024       53.805     7514.424     6087.799     2894.980        1.747        0.825      135.669       40.514        0.089      334.060        3.783      848.818
12/23/2021  20:11:00     -168.756       -8.490       -5.910      130.426       69.981       51.482    17010.926     4897.280     2650.437        2.657        1.228      168.969       54.811        0.105      334.157        3.939      848.806
12/23/2021  20:12:00     -190.817       10.800      -13.428      131.699       82.327       54.253    17344.663     6777.745     2943.408        3.188        1.353      191.122       42.574        0.050      334.143        3.919      848.819
12/23/2021  20:13:00      -70.876       26.955       11.038      104.254       84.025       48.618    10868.928     7060.148     2363.675        1.308        1.015       75.829       32.821        0.187      334.152        3.934      848.829
12/23/2021  20:14:00     -259.073      -24.195      -27.381      130.923       95.553       60.704    17140.962     9130.438     3684.958        4.920        1.498      260.201       53.888        0.043      334.274        4.135      848.840
12/23/2021  20:15:00     -202.310       42.024      -15.195      148.839       91.339       58.962    22152.948     8342.722     3476.517        3.844        1.699      206.628       63.079        0.093      334.209        4.027      848.849
12/23/2021  20:16:00     -262.211       55.683        0.139      166.823      121.992       75.202    27829.922    14881.978     5655.302        6.010        2.418      268.058       77.862        0.084      334.309        4.193      848.847
12/23/2021  20:17:00     -299.919       13.269      -18.680      137.666       85.891       66.665    18951.923     7377.181     4444.229        6.062        1.539      300.212       63.177        0.044      334.341        4.247      848.842
12/23/2021  20:18:00     -248.131       20.627       -2.509      126.116       73.158       52.800    15905.153     5352.165     2787.791        4.302        1.202      248.987       53.939        0.047      334.226        4.055      848.848
12/23/2021  20:19:00     -180.420       -9.643       -7.205      121.206       57.738       42.633    14690.908     3333.707     1817.583        2.627        0.992      180.677       47.168        0.068      334.231        4.065      848.838
12/23/2021  20:20:00     -188.763      -22.113      -16.956       87.853       50.677       32.958     7718.153     2568.180     1086.253        2.389        0.569      190.054       29.241        0.024      334.336        4.240      848.821
12/23/2021  20:21:00     -167.039      -17.926       -6.403       74.889       49.995       42.156     5608.302     2499.473     1777.100        1.907        0.494      167.998       38.411        0.052      334.276        4.141      848.798
12/23/2021  20:22:00     -160.167      -33.447      -10.435       87.886       51.101       50.276     7723.994     2611.290     2527.719        1.987        0.643      163.623       55.408        0.115      334.270        4.129      848.789
12/23/2021  20:23:00     -238.676      -51.101      -24.539      122.425       93.810       52.786    14987.944     8800.352     2786.412        4.337        1.329      244.085       53.408        0.048      334.247        4.091      848.811
12/23/2021  20:24:00     -175.168        5.540      -17.555       82.789       58.890       41.588     6853.967     3468.032     1729.522        2.153        0.603      175.256       35.555        0.041      334.187        3.991      848.835
12/23/2021  20:25:00     -139.371        0.379      -13.348       55.549       56.351       32.219     3085.685     3175.421     1038.069        1.345        0.365      139.371       28.397        0.042      334.194        4.005      848.839
12/23/2021  20:26:00     -222.319        1.538       -8.122       85.949       69.007       47.175     7387.243     4761.900     2225.476        3.193        0.719      222.324       41.884        0.035      334.226        4.055      848.838
12/23/2021  20:27:00     -133.106        8.181       -0.395       46.556       40.904       31.389     2167.415     1673.111      985.264        1.130        0.241      133.357       23.220        0.030      334.293        4.169      848.823
12/23/2021  20:28:00     -142.215      -47.712      -24.007       68.388       57.663       37.082     4676.891     3325.039     1375.051        1.623        0.469      150.005       38.814        0.067      334.348        4.259      848.796
12/23/2021  20:29:00     -163.732      -35.230      -14.147       58.693       50.639       35.138     3444.918     2564.333     1234.655        1.775        0.362      167.480       36.540        0.048      334.293        4.169      848.802
12/23/2021  20:30:00     -120.371      -75.721      -16.465       60.403       49.295       31.419     3648.543     2430.036      987.158        1.378        0.353      142.207       20.219        0.020      334.308        4.193      848.788
12/23/2021  20:31:00     -103.043       -6.235       -5.596       57.833       46.930       38.421     3344.603     2202.467     1476.197        0.885        0.351      103.231       31.484        0.093      334.210        4.032      848.794
12/23/2021  20:32:00     -166.208        4.034      -11.363       40.329       54.129       28.951     1626.444     2929.989      838.154        1.658        0.270      166.257       18.941        0.013      334.223        4.053      848.795
12/23/2021  20:33:00     -132.905       -0.263       -8.212       87.157       45.308       38.074     7596.277     2052.811     1449.619        1.441        0.555      132.905       40.983        0.095      334.182        3.984      848.765
12/23/2021  20:34:00     -197.426       40.600       -7.322       46.499       53.089       37.609     2162.196     2818.418     1414.429        2.354        0.320      201.558       23.727        0.014      334.354        4.270      848.729
12/23/2021  20:35:00     -133.902       -5.432       -5.699       54.381       39.768       28.701     2957.261     1581.475      823.734        1.168        0.268      134.012       26.581        0.039      334.298        4.177      848.708
12/23/2021  20:36:00     -105.763      -21.820      -13.354       55.150       33.012       30.259     3041.574     1089.766      915.590        0.844        0.252      107.991       24.989        0.054      334.213        4.037      848.707
12/23/2021  20:37:00     -123.040       -1.801       -5.117       71.947       52.811       29.343     5176.404     2788.963      861.031        1.200        0.441      123.054       33.901        0.076      334.294        4.171      848.709
12/23/2021  20:38:00      -91.120       -4.672       -5.212       64.033       39.146       29.176     4100.162     1532.438      851.247        0.742        0.324       91.239       29.546        0.105      334.373        4.303      848.710
12/23/2021  20:39:00     -117.618       -0.722      -11.135       64.042       42.956       29.282     4101.407     1845.253      857.451        1.038        0.340      117.620       25.223        0.046      334.370        4.296      848.708
12/23/2021  20:40:00     -102.325       11.889       -6.661       48.656       33.961       28.696     2367.401     1153.340      823.482        0.750        0.217      103.013       24.095        0.055      334.368        4.295      848.713
12/23/2021  20:41:00     -154.341       12.330      -13.466       89.857       41.437       33.750     8074.358     1717.024     1139.093        1.754        0.547      154.833       35.921        0.054      334.392        4.331      848.730
12/23/2021  20:42:00     -114.814      -20.721      -13.277       56.251       37.071       31.971     3164.170     1374.273     1022.133        0.967        0.278      116.669       29.714        0.065      334.343        4.254      848.728
12/23/2021  20:43:00     -139.263      -14.600       -8.505       70.489       45.700       28.592     4968.680     2088.477      817.486        1.378        0.394      140.026       27.376        0.038      334.428        4.393      848.729
12/23/2021  20:44:00      -75.510      -24.838       -8.108       48.206       29.066       21.749     2323.792      844.805      473.027        0.501        0.182       79.490       25.693        0.104      334.478        4.479      848.705
12/23/2021  20:45:00     -177.954       20.112      -19.654       53.193       38.148       24.143     2829.525     1455.281      582.887        1.866        0.243      179.087       16.233        0.008      334.397        4.341      848.709
12/23/2021  20:46:00      -94.576       12.367       -6.786       47.323       46.605       29.535     2239.474     2172.033      872.339        0.721        0.264       95.381       19.984        0.044      334.233        4.069      848.692
12/23/2021  20:47:00     -224.856       20.589        2.914      101.080       75.040       50.299    10217.081     5630.939     2530.037        3.468        0.919      225.797       55.097        0.060      334.254        4.103      848.697
12/23/2021  20:48:00     -236.916       27.088      -12.500      121.805       95.735       57.232    14836.499     9165.263     3275.446        4.214        1.364      238.459       57.717        0.059      334.372        4.299      848.714
12/23/2021  20:49:00     -228.953       12.372       -9.029       95.696       63.622       56.490     9157.737     4047.808     3191.119        3.452        0.820      229.287       47.329        0.043      334.496        4.503      848.711
12/23/2021  20:50:00     -142.867      -37.584      -12.597       74.608       53.900       46.658     5566.414     2905.253     2176.965        1.631        0.532      147.727       42.903        0.084      334.516        4.539      848.695
12/23/2021  20:51:00     -107.201      -58.660       -9.435       66.360       36.730       23.792     4403.611     1349.074      566.076        1.067        0.316      122.201       25.106        0.042      334.510        4.527      848.680
12/23/2021  20:52:00      -35.290        5.110       -6.300       30.646       34.550       18.823      939.195     1193.703      354.318        0.190        0.124       35.658       11.586        0.106      334.454        4.437      848.643
12/23/2021  20:53:00      -43.806       -5.989       -5.443       28.101       22.252       14.095      789.672      495.149      198.672        0.173        0.074       44.214       15.687        0.126      334.447        4.424      848.625
12/23/2021  20:54:00     -151.915      -38.856       -5.875       50.067       57.179       26.430     2506.749     3269.402      698.568        1.555        0.324      156.805       23.514        0.022      334.409        4.362      848.620
12/23/2021  20:55:00     -118.508       24.147       -3.808       68.258       39.710       25.970     4659.109     1576.883      674.451        1.077        0.346      120.943       25.163        0.043      334.112        3.870      848.632
12/23/2021  20:56:00     -167.690       19.404       -3.412      116.528       57.398       43.132    13578.764     3294.563     1860.389        2.362        0.937      168.809       49.650        0.087      334.196        4.008      848.654
12/23/2021  20:57:00      -86.553       47.175       -7.826       69.352       49.500       35.526     4809.663     2450.227     1262.099        0.915        0.426       98.574       30.776        0.097      334.176        3.975      848.653
12/23/2021  20:58:00     -236.639       41.236      -10.009      124.854       98.539       52.981    15588.528     9709.938     2806.944        4.295        1.405      240.205       58.199        0.059      334.323        4.216      848.675
12/23/2021  20:59:00     -155.945       83.650        7.472      103.279       69.062       48.070    10666.474     4769.498     2310.764        2.456        0.887      176.963       56.571        0.102      334.190        3.996      848.715
12/23/2021  21:00:00     -197.213       29.528      -12.399       78.795       60.366       37.445     6208.593     3644.030     1402.102        2.558        0.563      199.411       36.033        0.033      334.256        4.106      848.757
12/23/2021  21:01:00     -150.358       -6.956       -8.061       65.139       69.133       40.141     4243.126     4779.374     1611.262        1.668        0.532      150.519       35.373        0.055      334.253        4.101      848.775
12/23/2021  21:02:00     -136.324      -28.275       -2.458      125.656       62.097       50.970    15789.394     3856.088     2597.981        2.081        1.112      139.226       60.976        0.192      334.262        4.118      848.800
12/23/2021  21:03:00      -88.213        4.042       -7.196      124.008       76.125       48.898    15377.999     5794.996     2390.976        1.570        1.178       88.306       49.120        0.309      334.221        4.047      848.830
12/23/2021  21:04:00     -242.611       65.751      -11.485      128.056       72.380       58.268    16398.211     5238.914     3395.149        4.417        1.252      251.363       53.901        0.046      334.199        4.010      848.822
12/23/2021  21:05:00     -230.982       56.957       -8.869      121.245       69.423       55.295    14700.418     4819.577     3057.504        3.962        1.129      237.901       60.779        0.065      334.401        4.346      848.790
12/23/2021  21:06:00     -201.189       95.208        1.743      140.492       73.277       51.650    19738.008     5369.561     2667.722        3.865        1.389      222.579       38.677        0.030      334.297        4.173      848.773
12/23/2021  21:07:00     -247.575       66.483        5.269      157.904       81.892       53.426    24933.695     6706.292     2854.351        5.011        1.725      256.346       66.596        0.067      334.290        4.162      848.807
12/23/2021  21:08:00     -157.309       33.609      -11.471      118.236       80.214       50.409    13979.799     6434.209     2541.084        2.448        1.148      160.860       54.600        0.115      334.248        4.093      848.827
12/23/2021  21:09:00     -228.728       83.833       -6.238      111.283       78.441       49.544    12383.853     6152.915     2454.636        4.018        1.050      243.608       40.855        0.028      334.244        4.084      848.848
12/23/2021  21:10:00     -212.035       32.158       -6.670      140.094       71.773       61.656    19626.386     5151.344     3801.457        3.730        1.429      214.460       68.223        0.101      334.306        4.188      848.854
12/23/2021  21:11:00     -236.670       43.995       -4.705      104.770       81.047       57.909    10976.762     6568.611     3353.433        3.943        1.045      240.724       57.878        0.058      334.314        4.200      848.860
12/23/2021  21:12:00     -151.555       14.770      -20.435      111.974       83.959       58.107    12538.247     7049.183     3376.379        2.328        1.148      152.273       54.036        0.126      334.291        4.166      848.858
12/23/2021  21:13:00     -187.425       22.437       -7.182      121.808       85.441       56.085    14837.250     7300.174     3145.530        3.048        1.264      188.763       55.082        0.085      334.416        4.372      848.865
12/23/2021  21:14:00     -185.538       54.750        3.383      118.064       86.444       58.310    13939.058     7472.525     3400.081        3.112        1.241      193.448       50.152        0.067      334.356        4.272      848.896
12/23/2021  21:15:00     -222.642       34.838      -38.135       89.041       75.786       44.121     7928.335     5743.571     1946.635        3.393        0.781      225.351       36.631        0.026      334.401        4.347      848.901
12/23/2021  21:16:00      -92.953       48.952       -8.430       64.393       68.342       40.971     4146.518     4670.657     1678.590        1.080        0.525      105.056       35.029        0.111      334.398        4.345      848.903
12/23/2021  21:17:00      -39.577        7.885      -34.145       47.432       54.625       29.296     2249.780     2983.917      858.274        0.444        0.305       40.354       20.739        0.264      334.430        4.395      848.919
12/23/2021  21:18:00       21.103      -73.511      -24.236       41.682       38.333       23.113     1737.410     1469.441      534.190        0.509        0.187       76.480        8.637        0.013      334.339        4.245      848.975
12/23/2021  21:19:00       46.277        8.598      -15.832       53.844       48.871       34.262     2899.140     2388.344     1173.916        0.446        0.323       47.069       19.284        0.168      334.273        4.135      849.060
12/23/2021  21:20:00       70.967        4.839      -15.057       61.070       42.208       28.425     3729.596     1781.536      807.954        0.580        0.316       71.131       22.947        0.104      334.019        3.717      849.102
12/23/2021  21:21:00       57.944      -14.567       -6.131       39.813       31.723       21.703     1585.053     1006.365      471.017        0.333        0.153       59.747       17.767        0.088      333.920        3.550      849.118
12/23/2021  21:22:00       54.959       21.487       -9.954       31.102       24.078       12.979      967.323      579.755      168.446        0.265        0.086       59.011        9.668        0.027      333.808        3.365      849.133
12/23/2021  21:23:00       74.421       46.813       -5.844       32.591       34.270       22.530     1062.152     1174.414      507.583        0.525        0.137       87.920       17.662        0.040      333.777        3.314      849.138
12/23/2021  21:24:00      101.777       50.152      -18.398       18.836       17.032       13.407      354.807      290.100      179.750        0.702        0.041      113.463        5.563        0.002      333.707        3.198      849.122
12/23/2021  21:25:00       89.630       28.976       -9.154       30.144       28.519       21.536      908.666      813.359      463.794        0.557        0.109       94.197       10.516        0.012      333.768        3.301      849.113
12/23/2021  21:26:00       86.154       11.445       -4.368       19.474       17.167       12.219      379.239      294.714      149.302        0.420        0.041       86.910        4.691        0.003      333.882        3.490      849.123
12/23/2021  21:27:00       71.735       -8.154       -5.446       25.635       26.988       17.271      657.158      728.370      298.296        0.346        0.084       72.197        6.818        0.009      333.859        3.451      849.120
12/23/2021  21:28:00       75.258       -9.046       -7.213       66.457       39.142       33.763     4416.538     1532.064     1139.951        0.644        0.354       75.800       26.190        0.119      333.790        3.336      849.076
12/23/2021  21:29:00       55.002       -9.121       -1.613       51.874       34.873       37.180     2690.943     1216.098     1382.343        0.420        0.264       55.753       33.024        0.351      333.732        3.240      849.030
12/23/2021  21:30:00       93.873       37.575       -4.970       42.156       23.768       21.158     1777.091      564.908      447.648        0.652        0.139      101.114       14.765        0.021      333.796        3.346      849.016
12/23/2021  21:31:00       85.681       58.226       -7.703       34.368       20.887       18.276     1181.143      436.269      334.008        0.637        0.098      103.593       18.264        0.031      333.817        3.382      849.036
12/23/2021  21:32:00       47.890       45.432      -11.987       15.174       15.519       12.639      230.265      240.839      159.732        0.257        0.032       66.011        8.648        0.017      333.813        3.375      849.061
12/23/2021  21:33:00       35.052       54.678       -4.759       25.047       25.615       16.035      627.350      656.107      257.133        0.289        0.077       64.948       17.361        0.071      333.872        3.472      849.064
12/23/2021  21:34:00      -38.539       49.983      -12.152       24.062       22.495       11.958      579.000      506.045      142.995        0.268        0.061       63.116        7.559        0.014      333.831        3.406      849.086
12/23/2021  21:35:00      -34.137       29.597      -10.695       21.613       13.387       16.331      467.121      179.202      266.716        0.153        0.046       45.181       12.549        0.077      333.638        3.083      849.107
12/23/2021  21:36:00      -71.724       15.469       -7.422       33.535       29.108       19.551     1124.573      847.264      382.248        0.390        0.118       73.373       13.339        0.033      333.650        3.105      849.126
12/23/2021  21:37:00        2.032       46.983      -16.263       32.309       15.645       16.795     1043.871      244.751      282.077        0.202        0.079       47.027       15.768        0.112      334.019        3.715      849.102
12/23/2021  21:38:00        8.429       25.924      -12.707       15.487       13.484       10.629      239.838      181.810      112.966        0.072        0.027       27.260        9.016        0.109      334.065        3.792      849.037
12/23/2021  21:39:00      -50.046       14.250      -18.452       37.963       28.760       20.303     1441.187      827.137      412.203        0.286        0.134       52.035       18.271        0.123      333.864        3.459      849.027
12/23/2021  21:40:00      -55.798       18.976      -16.968       69.335       25.347       22.770     4807.281      642.456      518.458        0.486        0.298       58.936       26.433        0.201      333.822        3.389      849.043
12/23/2021  21:41:00       -5.314       14.446        8.363       22.806       15.247       17.685      520.129      232.460      312.772        0.069        0.053       15.393       15.140        0.967      334.001        3.686      849.029
12/23/2021  21:42:00      -28.412       -4.109       -5.925       30.384       19.095       19.758      923.192      364.611      390.379        0.127        0.084       28.708       19.952        0.483      333.990        3.667      849.024
12/23/2021  21:43:00      -75.685       46.144       -9.291       31.517       28.161       17.711      993.323      793.056      313.695        0.502        0.105       88.643       16.368        0.034      333.854        3.442      849.013
12/23/2021  21:44:00      -33.647       29.614       -8.900       24.075       66.793       17.877      579.592     4461.317      319.601        0.372        0.268       44.823       16.478        0.135      333.988        3.664      848.969
12/23/2021  21:45:00      -42.563       42.628       -2.712       48.617       40.442       21.155     2363.653     1635.538      447.548        0.404        0.222       60.240       24.319        0.163      334.253        4.105      848.952
12/23/2021  21:46:00      -62.790       13.588      -17.346       41.587       34.688       27.064     1729.516     1203.275      732.470        0.405        0.183       64.244       25.829        0.162      334.063        3.790      848.974
12/23/2021  21:47:00     -103.453       35.217      -20.118       43.292       42.001       32.904     1874.170     1764.046     1082.672        0.853        0.236      109.283       31.781        0.085      334.478        4.476      848.974
12/23/2021  21:48:00     -106.966       28.015      -16.270       32.533       23.022       24.621     1058.379      530.027      606.203        0.734        0.110      110.574       19.742        0.032      334.225        4.058      849.003
12/23/2021  21:49:00     -178.374        6.396      -13.424       74.093       46.463       37.675     5489.831     2158.839     1419.425        2.055        0.453      178.488       38.769        0.047      334.295        4.170      849.054
12/23/2021  21:50:00     -130.099       14.251        4.409       81.008       58.859       45.062     6562.263     3464.329     2030.566        1.460        0.603      130.878       41.305        0.100      334.329        4.228      849.095
12/23/2021  21:51:00     -102.182       36.393        4.664       47.413       44.199       26.943     2248.020     1953.517      725.932        0.836        0.246      108.469       18.474        0.029      334.270        4.131      849.142
12/23/2021  21:52:00     -149.592       22.786       -5.657       76.122       33.859       26.096     5794.521     1146.460      681.003        1.527        0.381      151.317       34.424        0.052      334.311        4.200      849.195
12/23/2021  21:53:00      -44.975       -8.429       -2.758       45.909       28.724       22.804     2107.672      825.047      520.001        0.278        0.173       45.758       20.035        0.192      334.214        4.038      849.249
12/23/2021  21:54:00      -66.679       -0.726       -2.257       45.127       37.638       22.990     2036.411     1416.624      528.538        0.422        0.199       66.683       24.085        0.130      334.195        4.007      849.281
12/23/2021  21:55:00      -82.926       -5.883       -0.914       44.820       28.296       28.549     2008.825      800.646      815.057        0.527        0.181       83.134       28.860        0.121      334.274        4.138      849.291
12/23/2021  21:56:00     -103.868       24.786        3.177       37.985       40.337       26.693     1442.895     1627.056      712.512        0.760        0.189      106.785       20.495        0.037      334.178        3.980      849.295
12/23/2021  21:57:00      -58.884       22.285        9.764       53.472       32.549       24.061     2859.283     1059.437      578.917        0.428        0.225       62.960       25.862        0.169      334.118        3.881      849.310
12/23/2021  21:58:00     -117.391       11.905       -6.780       63.398       34.958       22.607     4019.369     1222.029      511.057        0.986        0.288      117.993       26.779        0.052      334.158        3.944      849.338
12/23/2021  21:59:00     -103.672        9.470       -6.691       45.619       43.122       26.315     2081.083     1859.487      692.466        0.776        0.232      104.104       19.186        0.034      334.192        4.003      849.391
12/23/2021  22:00:00     -125.783      -21.452       -5.268       87.982       42.352       37.195     7740.843     1793.713     1383.501        1.361        0.546      127.600       33.216        0.068      334.229        4.061      849.429
12/23/2021  22:01:00     -237.270       22.101        0.559       85.965       59.549       47.780     7389.930     3546.108     2282.891        3.500        0.661      238.297       44.425        0.035      334.138        3.907      849.478
12/23/2021  22:02:00     -351.828       48.769       -5.075      103.727       88.057       62.812    10759.195     7753.954     3945.362        7.432        1.123      355.192       43.668        0.015      334.167        3.955      849.499
12/23/2021  22:03:00     -285.438       46.706      -15.780      108.422       83.043       53.253    11755.402     6896.064     2835.884        5.269        1.074      289.234       45.026        0.024      334.080        3.814      849.515
12/23/2021  22:04:00     -299.405       40.676      -18.524      191.397      117.064       64.819    36632.633    13703.879     4201.495        7.308        2.727      302.155       73.024        0.058      334.153        3.934      849.508
12/23/2021  22:05:00     -263.935        0.532       -8.090      183.524       88.663       77.202    33681.166     7861.105     5960.097        5.861        2.375      263.936       81.948        0.096      334.028        3.728      849.482
12/23/2021  22:06:00     -219.697       20.206        0.380      154.177       92.831       76.798    23770.682     8617.601     5897.943        4.347        1.914      220.624       79.822        0.131      334.001        3.682      849.482
12/23/2021  22:07:00     -276.941      -10.999      -14.406      159.470      100.124       78.768    25430.734    10024.881     6204.385        5.933        2.083      277.159       79.560        0.082      333.996        3.674      849.498
12/23/2021  22:08:00     -269.708       14.300      -20.819      129.730      109.437       70.476    16829.955    11976.479     4966.899        5.357        1.689      270.087       57.734        0.046      333.959        3.612      849.534
12/23/2021  22:09:00     -265.416       16.623      -19.941      138.412      108.299       70.492    19157.819    11728.580     4969.075        5.348        1.793      265.936       62.408        0.055      333.822        3.387      849.566
12/23/2021  22:10:00     -210.020       29.311       -2.262      141.500       74.328       52.586    20022.284     5524.602     2765.254        3.664        1.416      212.056       51.353        0.059      333.795        3.342      849.567
12/23/2021  22:11:00     -163.423       51.237      -13.210       66.181       59.819       44.241     4379.949     3578.298     1957.282        1.971        0.496      171.267       36.267        0.045      333.730        3.234      849.533
12/23/2021  22:12:00     -164.337       23.757      -16.475       96.059       90.387       48.568     9227.300     8169.725     2358.802        2.380        0.988      166.045       29.090        0.031      333.707        3.197      849.498
12/23/2021  22:13:00     -129.357       39.026       -3.227       86.774       69.005       46.585     7529.661     4761.739     2170.205        1.636        0.723      135.115       41.750        0.095      333.638        3.084      849.507
12/23/2021  22:14:00     -235.932        0.171       -9.601      110.651       79.458       54.882    12243.749     6313.503     3011.980        3.866        1.078      235.932       55.110        0.055      333.773        3.304      849.531
12/23/2021  22:15:00     -235.536      -10.893       -6.810      112.091       82.202       57.697    12564.378     6757.217     3328.924        3.914        1.133      235.788       56.237        0.057      333.787        3.328      849.542
12/23/2021  22:16:00     -154.190       44.904       10.980      175.738      107.229       70.259    30883.973    11498.020     4936.332        3.661        2.366      160.595       72.397        0.203      333.733        3.237      849.545
12/23/2021  22:17:00     -235.204       16.550       -8.183      153.946       78.451       60.132    23699.444     6154.614     3615.887        4.456        1.673      235.786       74.932        0.101      333.705        3.192      849.551
12/23/2021  22:18:00     -325.411      -17.296      -43.716       77.605       93.549       37.858     6022.485     8751.429     1433.260        6.215        0.810      325.870       24.154        0.005      333.751        3.266      849.549
12/23/2021  22:19:00     -226.493       13.278       -2.926      121.612       72.323       52.618    14789.576     5230.551     2768.684        3.713        1.139      226.881       64.970        0.082      333.762        3.286      849.528
12/23/2021  22:20:00     -158.575        9.787        4.056       77.296       51.134       40.899     5974.636     2614.649     1672.741        1.776        0.513      158.877       35.781        0.051      333.743        3.255      849.545
12/23/2021  22:21:00     -141.522      -14.179      -13.021       67.651       45.534       34.181     4576.664     2073.371     1168.336        1.411        0.391      142.231       33.178        0.054      333.751        3.270      849.588
12/23/2021  22:22:00     -158.781      -27.102       -6.948       80.178       63.439       32.374     6428.572     4024.517     1048.078        1.875        0.575      161.078       22.694        0.020      333.791        3.336      849.599
12/23/2021  22:23:00     -179.362       -7.793      -11.821       68.421       57.282       43.173     4681.380     3281.178     1863.874        2.110        0.491      179.531       42.084        0.055      333.756        3.278      849.616
12/23/2021  22:24:00     -130.012        0.009      -13.312       63.014       40.181       31.005     3970.733     1614.515      961.315        1.181        0.327      130.012       31.631        0.059      333.716        3.213      849.637
12/23/2021  22:25:00      -97.570       38.158       -5.017       53.426       34.877       27.501     2854.332     1216.393      756.332        0.791        0.241      104.766       21.690        0.043      333.622        3.058      849.644
12/23/2021  22:26:00     -152.220        6.781       -3.724      112.693       59.557       46.517    12699.705     3547.043     2163.849        2.082        0.921      152.371       48.665        0.102      333.663        3.123      849.669
12/23/2021  22:27:00     -215.473       -0.878      -11.024       54.385       64.694       34.314     2957.755     4185.368     1177.463        2.743        0.416      215.475       22.311        0.011      333.513        2.875      849.701
12/23/2021  22:28:00      -82.320       13.238       -1.696       62.733       59.942       43.468     3935.474     3593.059     1889.497        0.818        0.471       83.378       41.283        0.245      333.478        2.819      849.704
12/23/2021  22:29:00      -76.410       -3.599      -10.397       67.725       56.343       34.497     4586.714     3174.517     1190.030        0.745        0.448       76.495       36.445        0.227      333.478        2.819      849.702
12/23/2021  22:30:00     -143.911       -4.578      -12.802       61.542       40.891       28.527     3787.451     1672.097      813.762        1.358        0.314      143.984       26.599        0.034      333.421        2.723      849.704
12/23/2021  22:31:00      -76.463        2.063        1.678       63.409       41.656       26.215     4020.733     1735.263      687.209        0.615        0.322       76.491       32.469        0.180      333.402        2.694      849.694
12/23/2021  22:32:00     -154.664       -1.859      -14.801       67.304       48.881       34.853     4529.869     2389.316     1214.727        1.614        0.407      154.676       26.979        0.030      333.404        2.696      849.705
12/23/2021  22:33:00     -162.662        3.844       -8.009       70.218       51.143       39.120     4930.526     2615.625     1530.393        1.781        0.454      162.708       29.390        0.033      333.372        2.643      849.765
12/23/2021  22:34:00     -164.306        3.622      -13.099       58.374       65.498       28.939     3407.579     4290.028      837.457        1.786        0.427      164.346       27.854        0.029      333.373        2.645      849.730
12/23/2021  22:35:00     -121.804        5.034       -3.460       94.187       50.914       41.773     8871.254     2592.284     1745.001        1.404        0.660      121.908       36.006        0.087      333.407        2.702      849.779
12/23/2021  22:36:00     -177.225      -31.555      -13.976       97.185       51.523       36.749     9444.831     2654.583     1350.472        2.302        0.672      180.012       42.764        0.056      333.420        2.723      849.795
12/23/2021  22:37:00     -151.460       -0.536        0.980       75.114       73.320       42.974     5642.055     5375.772     1846.801        1.790        0.643      151.461       40.577        0.072      333.416        2.716      849.764
12/23/2021  22:38:00     -137.007      -37.434      -10.930      100.552       82.259       51.097    10110.643     6766.505     2610.902        1.989        0.974      142.029       47.212        0.110      333.582        2.990      849.706
12/23/2021  22:39:00     -180.181     -157.996      -30.570       90.224      119.730       63.195     8140.418    14335.183     3993.628        4.241        1.323      239.642       49.082        0.042      333.851        3.434      849.687
12/23/2021  22:40:00     -316.153     -103.253      -21.525      152.849      175.493       76.422    23362.955    30797.831     5840.345        8.553        3.000      332.586       70.050        0.044      333.783        3.321      849.725
12/23/2021  22:41:00     -357.058     -150.589      -29.588      203.353      172.702       93.961    41352.352    29826.046     8828.715       11.551        4.000      387.515      106.174        0.075      333.729        3.230      849.727
12/23/2021  22:42:00     -218.244     -126.383      -27.675      142.329      150.714       87.597    20257.625    22714.642     7673.170        5.750        2.532      252.196       57.216        0.051      333.672        3.139      849.776
12/23/2021  22:43:00     -301.156      -59.475       -6.989      142.611      120.720       63.052    20337.936    14573.322     3975.602        6.658        1.944      306.972       76.363        0.062      333.655        3.109      849.783
12/23/2021  22:44:00     -280.089      -94.834      -21.083      131.213      109.671       64.792    17216.739    12027.756     4197.951        6.066        1.672      295.709       39.805        0.018      333.641        3.087      849.770
12/23/2021  22:45:00     -255.877      -84.925      -26.371      152.804      126.305       66.844    23349.091    15953.002     4468.166        5.857        2.189      269.602       66.990        0.062      333.609        3.033      849.773
12/23/2021  22:46:00     -123.321      -15.985      -12.974       84.838       81.677       50.032     7197.533     6671.164     2503.242        1.600        0.819      124.353       38.022        0.093      333.560        2.955      849.731
12/23/2021  22:47:00     -215.915     -154.106      -31.503      102.448      129.156       57.571    10495.693    16681.344     3314.382        5.092        1.525      265.270       37.471        0.020      333.511        2.870      849.678
12/23/2021  22:48:00     -189.572      -11.246       -3.673      135.782      100.871       62.181    18436.752    10174.981     3866.520        3.427        1.624      189.906       59.031        0.097      333.390        2.673      849.714
12/23/2021  22:49:00     -216.064       57.356       -5.838      154.943       85.046       54.640    24007.298     7232.797     2985.580        4.211        1.711      223.548       63.887        0.082      333.231        2.409      849.713
12/23/2021  22:50:00     -209.427       -5.083      -13.245      143.048       69.926       59.849    20462.671     4889.637     3581.955        3.649        1.447      209.489       63.024        0.091      333.246        2.433      849.715
12/23/2021  22:51:00     -244.765       -5.101       -7.752      138.353       83.896       68.358    19141.619     7038.482     4672.781        4.542        1.543      244.818       68.553        0.078      333.173        2.312      849.745
12/23/2021  22:52:00      -91.586        8.743      -14.324       88.401       59.589       53.822     7814.822     3550.888     2896.845        1.146        0.713       92.002       45.783        0.248      333.163        2.297      849.714
12/23/2021  22:53:00     -343.894      -47.439      -29.983      104.529       99.366       53.402    10926.294     9873.533     2851.732        7.253        1.183      347.151       54.740        0.025      333.130        2.240      849.742
12/23/2021  22:54:00     -185.069        6.192       -8.875       91.384       83.293       50.463     8351.021     6937.655     2546.536        2.610        0.892      185.172       46.856        0.064      333.054        2.117      849.727
12/23/2021  22:55:00     -214.078       72.168       -0.312      133.557       78.517       70.872    17837.538     6164.985     5022.879        4.003        1.451      225.915       58.260        0.067      333.115        2.217      849.738
12/23/2021  22:56:00     -355.238       17.007      -13.860      209.960       91.460       83.177    44083.026     8364.861     6918.352        9.301        2.968      355.645       91.723        0.067      333.216        2.383      849.755
12/23/2021  22:57:00     -249.198      -20.186      -22.802       96.836      135.882       59.396     9377.171    18463.989     3527.865        4.719        1.568      250.015       44.629        0.032      333.209        2.371      849.788
12/23/2021  22:58:00     -188.192      -15.532      -11.693      148.116      108.654       71.189    21938.383    11805.596     5067.838        3.730        1.941      188.832       71.184        0.142      333.132        2.245      849.785
12/23/2021  22:59:00     -323.607       -3.916      -20.909      136.859      102.458       69.357    18730.453    10497.680     4810.341        6.960        1.702      323.631       65.213        0.041      333.118        2.222      849.813
12/23/2021  23:00:00     -236.427      -51.608      -24.004      134.935       80.572       74.088    18207.563     6491.803     5489.013        4.466        1.509      241.994       69.946        0.084      333.144        2.266      849.826
12/23/2021  23:01:00     -289.270      -19.712      -10.972      146.962      127.614       67.150    21597.762    16285.234     4509.077        6.328        2.120      289.941       51.407        0.031      333.172        2.311      849.836
12/23/2021  23:02:00     -368.125      -33.177      -38.126      181.957       96.751       87.428    33108.428     9360.809     7643.613        9.408        2.506      369.617       88.729        0.058      333.130        2.242      849.840
12/23/2021  23:03:00     -121.464       34.908        2.797       82.675       64.912       51.751     6835.099     4213.532     2678.213        1.485        0.686      126.381       47.770        0.143      333.007        2.040      849.841
12/23/2021  23:04:00     -172.747      -37.280        7.276      108.150      101.148       64.671    11696.459    10230.977     4182.391        2.869        1.305      176.724       63.409        0.129      333.016        2.052      849.819
12/23/2021  23:05:00     -178.747      -26.926      -22.526       97.839      103.531       62.070     9572.487    10718.618     3852.740        2.866        1.207      180.763       49.171        0.074      333.040        2.092      849.803
12/23/2021  23:06:00     -198.775       10.446      -10.671      123.358       71.785       51.818    15217.082     5153.055     2685.085        3.139        1.153      199.049       55.268        0.077      333.021        2.060      849.817
12/23/2021  23:07:00     -207.073     -127.467      -22.509      106.799      118.299       52.275    11406.017    13994.564     2732.663        4.388        1.407      243.160       47.201        0.038      333.013        2.047      849.803
12/23/2021  23:08:00     -211.101      -85.069      -20.378       67.990       93.150       36.869     4622.637     8676.834     1359.347        3.343        0.733      227.597       29.548        0.017      333.014        2.048      849.789
12/23/2021  23:09:00     -208.182      -68.354      -11.557       91.355       93.814       66.369     8345.660     8801.104     4404.906        3.484        1.078      219.116       44.759        0.042      332.973        1.980      849.794
12/23/2021  23:10:00     -149.709      -59.595       13.635      110.725      115.165       50.663    12260.031    13262.937     2566.779        2.712        1.404      161.135       61.266        0.145      331.927        0.258      849.777
12/23/2021  23:11:00      -53.179     -108.751       37.551       80.389       96.488       59.078     6462.416     9309.887     3490.230        1.766        0.963      121.057       59.357        0.240      332.311        0.892      849.784
12/23/2021  23:12:00      -17.865     -129.848       36.005       89.662       99.767       55.101     8039.325     9953.400     3036.113        1.975        1.051      131.071       66.826        0.260      332.667        1.477      849.750
12/23/2021  23:13:00      -38.055      -71.424       35.441       72.621       78.910       48.735     5273.827     6226.811     2375.133        1.084        0.694       80.929       59.363        0.538      332.777        1.661      849.715
12/23/2021  23:14:00       10.432      -41.874       28.192       65.760       98.591       38.557     4324.402     9720.245     1486.664        0.909        0.777       43.154       51.502        1.424      332.719        1.564      849.692
12/23/2021  23:15:00      -23.501      -37.157      -17.093       34.124       36.753       29.898     1164.426     1350.767      893.905        0.282        0.170       43.966       18.062        0.169      333.173        2.315      849.691
12/23/2021  23:16:00      -79.981      -12.894       -7.485       43.490       80.648       28.874     1891.353     6504.062      833.737        0.792        0.461       81.014       24.047        0.088      332.993        2.017      849.664
12/23/2021  23:17:00      -79.001      -33.427      -12.825       50.408       38.621       32.116     2541.012     1491.573     1031.468        0.629        0.253       85.782       24.626        0.082      332.988        2.010      849.620
12/23/2021  23:18:00     -142.156       13.009       -0.906       80.702       47.338       35.336     6512.855     2240.872     1248.634        1.519        0.500      142.750       35.662        0.062      332.969        1.976      849.570
12/23/2021  23:19:00     -124.710      -23.030       -6.038       65.639       44.626       38.436     4308.502     1991.492     1477.291        1.195        0.389      126.818       37.792        0.089      332.995        2.020      849.540
12/23/2021  23:20:00     -151.977        1.190       -1.878       65.914       45.769       34.769     4344.660     2094.806     1208.870        1.537        0.382      151.981       24.126        0.025      332.989        2.009      849.528
12/23/2021  23:21:00     -124.520      -24.044      -14.073       72.438       59.080       36.491     5247.244     3490.455     1331.558        1.317        0.503      126.820       23.428        0.034      333.010        2.045      849.555
12/23/2021  23:22:00     -123.501      -42.919       -9.723       44.217       39.905       30.003     1955.135     1592.402      900.163        1.082        0.222      130.746       26.256        0.040      333.054        2.116      849.569
12/23/2021  23:23:00     -161.267      -26.239      -20.497       62.014       38.346       22.774     3845.687     1470.426      518.642        1.647        0.292      163.388       21.336        0.017      332.999        2.029      849.564
12/23/2021  23:24:00      -73.683      -52.824        5.374       56.933       77.967       40.781     3241.339     6078.927     1663.061        0.961        0.549       90.662       50.554        0.311      332.881        1.832      849.545
12/23/2021  23:25:00      -67.694      -99.557       11.879       52.743       79.670       43.470     2781.859     6347.324     1889.626        1.283        0.551      120.391       54.900        0.208      332.713        1.556      849.494
12/23/2021  23:26:00      -90.576      -46.658       20.788       76.722      104.285       67.265     5886.304    10875.355     4524.644        1.605        1.064      101.888       83.388        0.670      332.504        1.210      849.474
12/23/2021  23:27:00      -28.210      -88.756       39.536       57.027       90.689       42.339     3252.126     8224.437     1792.612        1.175        0.663       93.131       58.516        0.395      332.514        1.226      849.448
12/23/2021  23:28:00     -112.093     -101.160       18.602       82.802      112.843       60.652     6856.223    12733.522     3678.658        2.320        1.163      150.991       82.520        0.299      332.510        1.217      849.426
12/23/2021  23:29:00      -62.500      -60.719       32.416       81.386      100.604       58.170     6623.716    10121.236     3383.737        1.438        1.006       87.138       76.263        0.766      332.576        1.329      849.400
12/23/2021  23:30:00      -76.418     -119.046       25.085       59.570       94.666       54.908     3548.621     8961.695     3014.901        1.808        0.776      141.463       70.846        0.251      332.638        1.428      849.357
12/23/2021  23:31:00      -30.880     -118.256       38.049       72.993       94.711       53.965     5327.930     8970.116     2912.213        1.679        0.861      122.221       66.877        0.299      332.616        1.393      849.328
12/23/2021  23:32:00      -64.598      -24.993       29.225       71.874       84.854       53.275     5165.814     7200.253     2838.191        1.043        0.760       69.264       67.647        0.954      332.596        1.364      849.297
12/23/2021  23:33:00      -16.993      -99.667       50.674       57.940       81.237       47.114     3357.095     6599.486     2219.715        1.248        0.609      101.105       61.839        0.374      332.639        1.432      849.249
12/23/2021  23:34:00      -54.644      -46.218       39.116       58.109       93.898       53.172     3376.686     8816.792     2827.217        1.083        0.751       71.569       68.553        0.917      332.715        1.558      849.213
12/23/2021  23:35:00      -62.503      -24.383       21.995       61.526       81.193       51.624     3785.392     6592.367     2665.041        0.901        0.652       67.090       66.608        0.986      332.665        1.474      849.201
12/23/2021  23:36:00     -135.225       56.606       -0.165       64.290      100.462       60.304     4133.145    10092.548     3636.625        1.967        0.893      146.595       79.992        0.298      332.490        1.187      849.222
12/23/2021  23:37:00       28.868      -80.034       44.073       75.161       74.306       43.353     5649.127     5521.366     1879.519        1.111        0.653       85.081       57.210        0.452      332.541        1.272      849.236
12/23/2021  23:38:00     -123.127        1.546       22.428       63.005       74.177       44.426     3969.674     5502.244     1973.627        1.355        0.572      123.136       51.711        0.176      332.557        1.296      849.238
12/23/2021  23:39:00      -91.765      -13.042       29.084       93.122       80.442       56.238     8671.625     6470.992     3162.676        1.387        0.915       92.687       73.522        0.629      332.446        1.112      849.241
12/23/2021  23:40:00      -37.841      -46.538       40.253       66.969       86.444       47.618     4484.901     7472.622     2267.497        0.972        0.711       59.981       58.432        0.949      332.465        1.146      849.218
12/23/2021  23:41:00      -49.589      -31.983       34.246       48.627       76.411       46.923     2364.576     5838.654     2201.759        0.753        0.520       59.008       62.082        1.107      332.486        1.184      849.165
12/23/2021  23:42:00      -20.169      -30.412       29.435       75.881       78.292       53.356     5757.898     6129.695     2846.907        0.846        0.737       36.492       70.160        3.696      332.483        1.176      849.125
12/23/2021  23:43:00     -117.311        8.468        3.790       74.930       97.420       61.017     5614.468     9490.622     3723.028        1.633        0.941      117.617       74.643        0.403      332.386        1.016      849.132
12/23/2021  23:44:00      -30.445      -73.730       30.592       95.875      109.630       62.326     9191.993    12018.827     3884.470        1.619        1.255       79.768       80.991        1.031      332.378        1.001      849.142
12/23/2021  23:45:00      -24.097      -74.221       40.687       92.058      103.918       65.232     8474.643    10798.966     4255.190        1.563        1.176       78.035       82.422        1.116      332.291        0.859      849.140
12/23/2021  23:46:00      -70.743        5.027       22.812      109.963      134.154       69.908    12091.781    17997.189     4887.125        2.026        1.749       70.922       82.532        1.354      332.119        0.570      849.151
12/23/2021  23:47:00      -51.779      -52.085       -1.791      119.757      142.782       60.612    14341.780    20386.766     3673.832        2.189        1.920       73.444       95.055        1.675      331.970        0.329      849.148
12/23/2021  23:48:00       74.122     -110.646       69.203       40.833       77.187       54.886     1667.373     5957.882     3012.498        1.658        0.532      133.179       46.526        0.122      332.071        0.493      849.124
12/23/2021  23:49:00        9.026      -81.444       49.243       57.788       64.696       48.253     3339.441     4185.635     2328.307        0.949        0.493       81.942       58.829        0.515      332.005        0.391      849.131
12/23/2021  23:50:00     -112.170        1.333       -6.254       96.439      118.914       56.842     9300.435    14140.532     3231.066        1.964        1.334      112.178       80.363        0.513      331.828        0.100      849.169
12/23/2021  23:51:00      -77.337      -69.852        2.526       78.555      142.671       55.379     6170.852    20355.062     3066.880        2.022        1.480      104.213       71.271        0.468      332.022        0.414      849.199
12/23/2021  23:52:00      -89.527        0.177       -4.010       97.129      129.546       80.902     9434.034    16782.230     6545.168        2.039        1.638       89.527      102.604        1.313      331.804        0.058      849.175
12/23/2021  23:53:00      -11.185      -81.790       33.310       86.897      106.912       74.218     7551.169    11430.282     5508.354        1.620        1.224       82.551       88.829        1.158      331.965        0.316      849.160
12/23/2021  23:54:00      -46.879     -133.188       57.236       65.739       71.755       48.774     4321.601     5148.733     2378.898        1.753        0.592      141.197       50.913        0.130      331.974        0.336      849.153
12/23/2021  23:55:00       32.348     -105.316       56.347       81.530       79.196       52.395     6647.113     6272.050     2745.219        1.549        0.783      110.172       62.365        0.320      331.969        0.327      849.156
12/23/2021  23:56:00      -52.922      -70.582       51.803       42.647       75.088       59.527     1818.761     5638.260     3543.450        1.073        0.550       88.219       55.265        0.392      331.902        0.216      849.187
12/23/2021  23:57:00      -40.985       18.519       31.022       74.542       74.615       34.029     5556.481     5567.377     1157.972        0.763        0.614       44.974       45.401        1.019      332.209        0.726      849.205
12/23/2021  23:58:00      -96.044      -73.449       49.107       94.830      112.236       52.876     8992.741    12596.982     2795.866        2.070        1.219      120.910       64.243        0.282      332.211        0.722      849.220
12/23/2021  23:59:00      -87.254      -22.374       38.109      108.382       99.306       58.652    11746.552     9861.690     3440.112        1.730        1.252       90.077       82.277        0.834      332.055        0.468      849.231
12/24/2021  00:00:00       -3.750      -82.308       68.093       67.340       73.851       44.413     4534.625     5453.962     1972.496        1.169        0.598       82.393       60.812        0.545      332.120        0.578      849.229
12/24/2021  00:01:00       33.122     -100.786       64.805       59.571       90.091       59.969     3548.661     8116.362     3596.265        1.536        0.763      106.089       75.987        0.513      332.171        0.662      849.228
12/24/2021  00:02:00        9.723      -34.911       52.374       52.113       79.741       43.085     2715.788     6358.667     1856.331        0.749        0.547       36.240       61.660        2.895      332.017        0.407      849.149
12/24/2021  00:03:00        4.023      -76.686       59.350       38.048       68.680       48.835     1447.652     4716.898     2384.836        0.898        0.427       76.792       59.466        0.600      332.227        0.754      849.146
12/24/2021  00:04:00        8.022      -72.340       53.694       41.793       65.773       44.093     1746.687     4326.142     1944.217        0.810        0.401       72.784       55.684        0.585      332.356        0.965      849.160
12/24/2021  00:05:00       27.250      -66.715       40.146       43.924       75.085       47.311     1929.334     5637.736     2238.307        0.830        0.490       72.065       62.309        0.748      332.418        1.069      849.177
12/24/2021  00:06:00       80.300     -121.098       51.982       42.496       70.068       40.370     1805.880     4909.511     1629.742        1.608        0.417      145.303       55.513        0.146      332.412        1.057      849.180
12/24/2021  00:07:00       79.330     -138.859       58.693       42.361       74.118       40.031     1794.482     5493.414     1602.521        1.895        0.445      159.922       55.646        0.121      332.533        1.254      849.178
12/24/2021  00:08:00        1.564      -38.565       37.484       42.302       71.224       45.066     1789.460     5072.869     2030.950        0.589        0.445       38.597       58.715        2.314      332.630        1.419      849.177
12/24/2021  00:09:00      -53.589       -2.226       18.007       43.157       68.320       44.582     1862.494     4667.619     1987.516        0.586        0.426       53.635       57.499        1.149      332.656        1.461      849.167
12/24/2021  00:10:00      -78.712      -11.084       15.594       42.194       69.182       42.049     1780.363     4786.085     1768.142        0.745        0.417       79.489       53.894        0.460      332.645        1.441      849.140
12/24/2021  00:11:00     -100.189       46.300        1.349       53.013       83.975       46.882     2810.418     7051.872     2197.938        1.212        0.603      110.370       58.076        0.277      332.712        1.551      849.107
12/24/2021  00:12:00     -127.057       42.971       -8.097       56.619       75.646       47.682     3205.750     5722.377     2273.550        1.463        0.560      134.127       60.524        0.204      332.670        1.485      849.083
12/24/2021  00:13:00     -112.043       25.778        6.265       56.369       62.086       40.868     3177.467     3854.715     1670.203        1.098        0.435      114.970       47.398        0.170      332.667        1.479      849.076
12/24/2021  00:14:00     -105.093       63.704       -6.178       52.767       74.531       45.221     2784.381     5554.843     2044.935        1.276        0.519      122.893       53.433        0.189      332.691        1.519      849.058
12/24/2021  00:15:00      -96.553       44.734       -1.126       48.033       62.993       43.111     2307.186     3968.115     1858.533        0.973        0.407      106.412       47.203        0.197      332.693        1.523      849.052
12/24/2021  00:16:00      -71.321       -9.999       11.568       57.500       63.287       43.121     3306.195     4005.221     1859.439        0.724        0.459       72.019       45.728        0.403      332.742        1.602      849.049
12/24/2021  00:17:00      -79.233       12.972       -0.228       48.696       56.660       41.372     2371.254     3210.323     1711.680        0.687        0.365       80.288       44.863        0.312      332.788        1.679      849.053
12/24/2021  00:18:00       15.853       -0.679       15.756       34.703       50.649       34.068     1204.316     2565.300     1160.624        0.271        0.247       15.867       36.145        5.189      332.805        1.707      849.056
12/24/2021  00:19:00       33.922      -32.481       20.085       40.871       57.580       41.457     1670.439     3315.436     1718.684        0.466        0.335       46.965       46.759        0.991      332.828        1.745      849.058
12/24/2021  00:20:00      -41.643      -23.185        4.787       43.484       57.395       34.831     1890.823     3294.229     1213.205        0.435        0.320       47.662       39.475        0.686      332.903        1.868      849.030
12/24/2021  00:21:00        3.784      -24.639       10.794       33.827       56.113       30.632     1144.255     3148.671      938.316        0.298        0.262       24.927       24.170        0.940      332.918        1.894      848.990
12/24/2021  00:22:00      -21.503      -17.310       -3.102       45.619       66.887       37.518     2081.069     4473.813     1407.632        0.437        0.398       27.604       45.646        2.734      332.919        1.896      848.979
12/24/2021  00:23:00       -7.577      -20.883        8.825       33.894       49.539       34.304     1148.773     2454.106     1176.763        0.267        0.239       22.215       32.551        2.147      332.980        1.996      848.975
12/24/2021  00:24:00        5.407       -8.772        8.300       38.958       64.687       38.147     1517.712     4184.421     1455.172        0.366        0.358       10.304       42.619       17.107      332.949        1.945      848.973
12/24/2021  00:25:00        8.546      -54.794       17.235       43.421       69.023       34.791     1885.389     4764.226     1210.443        0.561        0.393       55.456       47.139        0.723      332.981        1.998      848.969
12/24/2021  00:26:00      -60.058      -56.841        1.605       63.067       46.624       33.011     3977.505     2173.840     1089.699        0.704        0.362       82.691       38.062        0.212      333.077        2.157      848.956
12/24/2021  00:27:00      -35.073      -54.850        1.278       51.473       52.912       34.828     2649.453     2799.729     1213.001        0.545        0.333       65.104       40.453        0.386      333.054        2.118      848.912
12/24/2021  00:28:00      -25.751      -12.489        1.918       34.637       46.535       27.155     1199.691     2165.466      737.408        0.246        0.205       28.620       31.884        1.241      333.051        2.115      848.852
12/24/2021  00:29:00      -58.635        8.445       -3.379       31.403       41.884       27.192      986.150     1754.295      739.404        0.350        0.174       59.240       31.460        0.282      333.051        2.116      848.820
12/24/2021  00:30:00      -62.343      -11.824        9.643       64.932       60.503       31.899     4216.144     3660.637     1017.552        0.651        0.445       63.454       42.252        0.443      333.014        2.053      848.831
12/24/2021  00:31:00      -42.159       -7.396       15.390       51.479       50.292       31.538     2650.086     2529.328      994.632        0.412        0.309       42.803       36.813        0.740      333.057        2.124      848.835
12/24/2021  00:32:00      -62.039      -12.409       11.962       37.874       52.698       32.388     1434.427     2777.112     1048.983        0.470        0.263       63.268       39.254        0.385      333.054        2.119      848.804
12/24/2021  00:33:00      -47.122       -1.335        8.438       34.910       44.854       28.916     1218.733     2011.911      836.120        0.318        0.203       47.141       36.457        0.598      333.109        2.210      848.764
12/24/2021  00:34:00        4.544      -66.297       10.276       36.361       53.472       34.285     1322.151     2859.307     1175.491        0.494        0.268       66.452       41.856        0.397      333.108        2.208      848.740
12/24/2021  00:35:00      -18.738      -16.192        6.589       34.805       57.164       31.691     1211.412     3267.737     1004.303        0.307        0.274       24.765       38.108        2.368      333.076        2.155      848.738
12/24/2021  00:36:00       -5.464      -42.703       16.006       56.140       62.091       39.551     3151.714     3855.301     1564.318        0.534        0.429       43.051       48.037        1.245      333.042        2.099      848.763
12/24/2021  00:37:00      -16.503      -72.697       23.765       66.125       67.841       44.017     4372.473     4602.386     1937.495        0.852        0.546       74.547       57.279        0.590      333.019        2.060      848.784
12/24/2021  00:38:00       -9.268       -7.124       11.585       50.472       56.831       34.153     2547.472     3229.723     1166.427        0.361        0.347       11.690       44.655       14.592      333.001        2.031      848.777
12/24/2021  00:39:00      -59.964        2.291       10.457       43.996       42.290       32.821     1935.677     1788.442     1077.240        0.425        0.240       60.008       38.924        0.421      333.016        2.056      848.775
12/24/2021  00:40:00        3.917      -28.095        9.411       33.771       56.672       34.579     1140.469     3211.753     1195.699        0.322        0.277       28.367       44.735        2.487      332.973        1.984      848.757
12/24/2021  00:41:00      -18.717      -16.675        6.168       32.336       52.994       32.791     1045.617     2808.369     1075.220        0.280        0.246       25.067       43.437        3.003      332.956        1.956      848.738
12/24/2021  00:42:00      -72.791       11.621       -2.450       24.968       36.791       26.093      623.397     1353.566      680.865        0.405        0.133       73.712       31.383        0.181      333.013        2.051      848.732
12/24/2021  00:43:00      -73.649       10.233        4.727       31.334       43.330       28.375      981.825     1877.523      805.149        0.461        0.183       74.357       36.710        0.244      332.980        1.998      848.733
12/24/2021  00:44:00      -59.968       -9.215        8.219       53.006       46.635       33.408     2809.672     2174.858     1116.097        0.492        0.305       60.672       40.854        0.453      333.028        2.076      848.731
12/24/2021  00:45:00      -51.117       -6.046        8.361       39.726       50.877       29.696     1578.121     2588.468      881.882        0.388        0.252       51.473       33.038        0.412      333.026        2.072      848.729
12/24/2021  00:46:00       -7.955       13.795        9.875       33.062       45.458       30.295     1093.120     2066.390      917.760        0.221        0.204       15.924       37.133        5.438      332.958        1.959      848.703
12/24/2021  00:47:00      -37.956       31.062        9.130       37.835       51.724       34.423     1431.514     2675.377     1184.955        0.389        0.265       49.046       42.388        0.747      332.990        2.014      848.662
12/24/2021  00:48:00        4.094       15.090        4.133       31.760       52.481       32.346     1008.683     2754.229     1046.267        0.253        0.240       15.635       38.064        5.927      333.033        2.085      848.640
12/24/2021  00:49:00      -31.056      -12.821        2.764       47.839       45.784       33.011     2288.576     2096.158     1089.745        0.330        0.274       33.598       30.311        0.814      333.011        2.048      848.647
12/24/2021  00:50:00     -116.004       16.334      -13.054       64.867       45.990       36.329     4207.712     2115.124     1319.762        1.077        0.382      117.148       32.251        0.076      332.932        1.917      848.645
12/24/2021  00:51:00      -83.780       32.936      -24.252       65.568       58.162       43.816     4299.108     3382.789     1919.804        0.915        0.480       90.021       44.519        0.245      332.880        1.832      848.624
12/24/2021  00:52:00      -90.902       47.859      -39.004       66.480       54.396       52.357     4419.548     2958.915     2741.256        1.110        0.506      102.731       42.751        0.173      332.892        1.851      848.604
12/24/2021  00:53:00     -130.619       35.547      -10.456       95.647       60.148       40.820     9148.255     3617.758     1666.282        1.643        0.722      135.369       40.128        0.088      332.858        1.794      848.598
12/24/2021  00:54:00     -132.768       62.787       -2.585       55.350       46.201       35.369     3063.597     2134.573     1250.969        1.401        0.322      146.866       37.806        0.066      332.838        1.762      848.589
12/24/2021  00:55:00      -75.844       66.978        0.602       42.793       47.915       35.519     1831.210     2295.827     1261.597        0.781        0.269      101.185       39.657        0.154      332.903        1.869      848.562
12/24/2021  00:56:00        2.351       96.727        9.667       33.131       56.379       35.803     1097.646     3178.572     1281.890        0.751        0.278       96.756       43.635        0.203      333.261        2.461      848.520
12/24/2021  00:57:00       43.621       67.069        8.404       37.400       53.808       29.470     1398.769     2895.292      868.479        0.582        0.258       80.007       33.381        0.174      333.490        2.841      848.487
12/24/2021  00:58:00        7.639        2.475       -1.839       56.784       48.498       34.043     3224.402     2352.014     1158.897        0.340        0.337        8.030       37.712       22.058      333.245        2.434      848.486
12/24/2021  00:59:00        5.352      -13.973       -2.006       28.490       41.903       25.732      811.674     1755.871      662.129        0.173        0.161       14.963       30.285        4.097      333.189        2.340      848.508
12/24/2021  01:00:00       21.074      -16.774       10.469       26.848       45.298       24.864      720.816     2051.917      618.224        0.211        0.170       26.935       34.439        1.635      333.206        2.370      848.523
12/24/2021  01:01:00       26.760      -47.428       -1.841       30.780       51.817       29.363      947.389     2685.043      862.165        0.373        0.225       54.457       40.525        0.554      332.994        2.020      848.510
12/24/2021  01:02:00       16.316      -21.335        5.395       24.822       38.758       22.968      616.137     1502.181      527.513        0.170        0.132       26.859       26.982        1.009      333.065        2.137      848.515
12/24/2021  01:03:00      -21.572      -16.062        1.535       33.298       47.950       27.190     1108.754     2299.224      739.270        0.244        0.207       26.895       29.033        1.165      333.132        2.245      848.507
12/24/2021  01:04:00     -112.372       77.426      -11.914       34.913       58.418       26.384     1218.925     3412.699      696.121        1.205        0.266      136.464       31.153        0.052      333.116        2.220      848.497
12/24/2021  01:05:00     -101.373       92.921      -10.600       44.942       53.539       32.787     2019.746     2866.423     1074.976        1.249        0.298      137.517       38.474        0.078      333.177        2.322      848.499
12/24/2021  01:06:00      -66.178       40.358       -8.411       49.753       49.757       35.544     2475.341     2475.756     1263.388        0.615        0.311       77.514       35.573        0.211      333.188        2.339      848.501
12/24/2021  01:07:00     -102.731       34.314      -26.185       37.745       43.017       36.904     1424.699     1850.481     1361.910        0.853        0.232      108.310       26.327        0.059      333.135        2.251      848.524
12/24/2021  01:08:00      -14.296      -18.516        7.522       48.296       57.839       35.042     2332.473     3345.397     1227.951        0.375        0.345       23.393       33.028        1.994      333.067        2.139      848.536
12/24/2021  01:09:00      -48.478       10.247       -4.071       39.790       55.464       29.785     1583.228     3076.257      887.137        0.401        0.277       49.549       30.473        0.378      333.037        2.091      848.514
12/24/2021  01:10:00      -23.790       38.171       -4.146       47.630       34.522       25.484     2268.637     1191.785      649.421        0.307        0.205       44.978       31.680        0.496      333.229        2.409      848.477
12/24/2021  01:11:00       17.627       -6.917        7.012       37.654       47.878       24.058     1417.841     2292.280      578.775        0.235        0.214       18.936       29.432        2.416      333.460        2.790      848.434
12/24/2021  01:12:00       17.803       -9.265       13.032       25.572       36.306       21.854      653.940     1318.106      477.578        0.151        0.122       20.069       27.087        1.822      333.277        2.488      848.417
12/24/2021  01:13:00        3.662       42.954       -6.194       36.533       46.841       26.439     1334.637     2194.104      699.018        0.306        0.211       43.110       32.379        0.564      333.449        2.772      848.418
12/24/2021  01:14:00      -32.056      -12.606       -9.746       23.150       37.079       22.570      535.936     1374.861      509.386        0.185        0.121       34.445       29.321        0.725      333.206        2.370      848.415
12/24/2021  01:15:00      -23.486       -1.800        1.231       15.556       26.366       16.738      241.984      695.183      280.153        0.089        0.061       23.555       19.186        0.663      333.124        2.234      848.419
12/24/2021  01:16:00      -10.953       -4.325       -5.145       18.997       26.495       15.554      360.889      702.007      241.939        0.073        0.065       11.775       20.718        3.096      332.986        2.007      848.421
12/24/2021  01:17:00      -37.777        6.590       -6.031       24.746       27.463       16.643      612.356      754.237      276.999        0.157        0.082       38.348       17.817        0.216      333.039        2.094      848.434
12/24/2021  01:18:00      -96.948       20.515       -6.665       50.210       43.388       21.100     2521.040     1882.521      445.205        0.736        0.242       99.095       21.898        0.049      333.152        2.282      848.462
12/24/2021  01:19:00     -113.037       57.114       -2.134       43.998       38.124       23.009     1935.830     1453.423      529.431        0.998        0.196      126.646       24.406        0.037      333.144        2.268      848.493
12/24/2021  01:20:00      -70.782       42.813        0.838       38.017       38.082       28.366     1445.302     1450.250      804.602        0.527        0.185       82.723       23.858        0.083      333.148        2.274      848.498
12/24/2021  01:21:00      -47.862       38.735       -0.128       34.406       32.263       17.090     1183.752     1040.922      292.075        0.315        0.126       61.572       22.517        0.134      333.239        2.424      848.474
12/24/2021  01:22:00      -31.491       -5.738       -2.097       35.564       44.559       21.978     1264.813     1985.490      483.015        0.238        0.187       32.009       21.073        0.433      333.320        2.558      848.469
12/24/2021  01:23:00       10.233      -10.154        2.114       39.752       33.632       36.617     1580.227     1131.087     1340.824        0.213        0.203       14.416       32.690        5.142      333.268        2.472      848.505
12/24/2021  01:24:00      -91.070       27.387        2.374       52.425       35.440       28.460     2748.350     1255.981      809.993        0.693        0.241       95.099       26.530        0.078      333.110        2.211      848.513
12/24/2021  01:25:00      -55.816        5.410       -0.761       33.558       27.974       14.642     1126.144      782.553      214.374        0.263        0.106       56.077       15.642        0.078      333.129        2.242      848.498
12/24/2021  01:26:00      -97.283       -6.681      -15.464       37.448       21.109       21.133     1402.365      445.585      446.618        0.602        0.115       97.512       21.016        0.046      333.240        2.425      848.492
12/24/2021  01:27:00      -47.465       18.045       -2.294       31.180       24.151       20.351      972.219      583.277      414.168        0.228        0.098       50.779       20.481        0.163      333.236        2.418      848.477
12/24/2021  01:28:00      -43.784        5.631       -8.287       22.410       29.529       18.454      502.188      871.953      340.566        0.187        0.086       44.145       22.494        0.260      333.196        2.352      848.466
12/24/2021  01:29:00      -74.423        0.742       -5.280       37.864       29.976       21.671     1433.699      898.544      469.642        0.418        0.140       74.427       20.815        0.078      333.239        2.423      848.477
12/24/2021  01:30:00      -95.575       11.997        1.124       35.874       35.432       24.167     1286.966     1255.429      584.029        0.620        0.156       96.325       25.680        0.071      333.233        2.415      848.474
12/24/2021  01:31:00      -79.377       -4.276       12.155       43.431       45.922       35.824     1886.212     2108.818     1283.331        0.587        0.264       79.492       37.829        0.226      333.180        2.327      848.469
12/24/2021  01:32:00      -88.813        9.578        9.996       44.402       48.478       31.783     1971.545     2350.073     1010.160        0.670        0.267       89.328       40.801        0.209      333.126        2.238      848.473
12/24/2021  01:33:00      -41.059        7.419        2.789       33.292       44.229       29.046     1108.376     1956.167      843.691        0.283        0.195       41.724       37.623        0.813      333.029        2.077      848.468
12/24/2021  01:34:00      -37.394        5.890        1.491       26.659       42.885       26.226      710.717     1839.157      687.827        0.234        0.162       37.855       33.914        0.803      333.133        2.247      848.447
12/24/2021  01:35:00      -47.012       -2.891       -4.428       23.708       35.659       23.389      562.080     1271.578      547.031        0.231        0.119       47.100       29.235        0.385      333.213        2.380      848.439
12/24/2021  01:36:00      -32.163       -5.720        8.117       42.390       40.207       24.748     1796.886     1616.584      612.463        0.258        0.201       32.668       31.525        0.931      333.232        2.412      848.431
12/24/2021  01:37:00      -16.231      -16.092       -0.642       37.401       39.517       24.190     1398.855     1561.554      585.174        0.203        0.177       22.856       30.367        1.765      333.261        2.461      848.432
12/24/2021  01:38:00      -28.576      -24.844        5.006       48.769       36.240       25.689     2378.417     1313.319      659.944        0.290        0.218       37.866       30.793        0.661      333.223        2.398      848.442
12/24/2021  01:39:00      -42.217      -17.995       11.368       39.319       38.036       28.891     1545.974     1446.761      834.667        0.303        0.191       45.892       31.544        0.472      333.236        2.418      848.428
12/24/2021  01:40:00      -65.846       -7.776        2.944       61.502       32.818       29.930     3782.455     1077.037      895.803        0.508        0.288       66.304       32.217        0.236      333.188        2.340      848.393
12/24/2021  01:41:00      -73.512       26.455       -5.910       24.702       22.788       18.399      610.207      519.308      338.524        0.380        0.073       78.128       17.816        0.052      333.120        2.229      848.371
12/24/2021  01:42:00      -53.923       20.015       -0.096       28.170       39.536       27.269      793.571     1563.131      743.622        0.320        0.155       57.518       33.018        0.330      333.112        2.214      848.375
12/24/2021  01:43:00      -30.395        6.861        1.384       22.203       31.468       20.887      492.954      990.207      436.247        0.145        0.096       31.160       24.497        0.618      333.106        2.206      848.399
12/24/2021  01:44:00        3.508      -27.081       -7.897       21.008       42.890       19.650      441.347     1839.567      386.117        0.174        0.133       27.308       24.356        0.795      333.196        2.350      848.391
12/24/2021  01:45:00       27.588      -16.765      -14.476       27.817       39.965       23.376      773.760     1597.207      546.440        0.208        0.146       32.282       26.207        0.659      333.142        2.264      848.365
12/24/2021  01:46:00       14.452      -19.780        0.928       27.077       36.499       26.146      733.178     1332.202      683.638        0.167        0.137       24.497       18.466        0.568      333.122        2.232      848.341
12/24/2021  01:47:00       46.164      -23.278       -6.556       37.863       49.135       30.405     1433.625     2414.254      924.482        0.374        0.239       51.701       33.834        0.428      333.137        2.254      848.322
12/24/2021  01:48:00       50.307      -26.190       -6.656       52.179       53.704       35.282     2722.602     2884.166     1244.829        0.506        0.343       56.716       28.252        0.248      333.122        2.229      848.305
12/24/2021  01:49:00       83.980      -11.214        8.586       59.618       50.514       32.789     3554.302     2551.662     1075.140        0.722        0.359       84.725       28.389        0.112      332.927        1.907      848.266
12/24/2021  01:50:00      114.821       -4.113       -0.392       31.949       49.406       23.962     1020.743     2440.958      574.184        0.862        0.202      114.894       29.917        0.068      332.822        1.736      848.228
12/24/2021  01:51:00       77.887       16.196       -6.263       36.336       35.124       19.275     1320.276     1233.720      371.508        0.465        0.146       79.553       23.265        0.086      332.877        1.825      848.201
12/24/2021  01:52:00       44.000       29.993        0.594       34.946       31.318       21.655     1221.247      980.819      468.932        0.275        0.134       53.250       21.724        0.166      332.867        1.811      848.189
12/24/2021  01:53:00       37.348       15.604        1.855       37.048       33.071       21.890     1372.554     1093.665      479.176        0.229        0.147       40.476       23.329        0.332      332.979        1.995      848.184
12/24/2021  01:54:00       75.945       32.311       -2.593       29.527       35.830       22.602      871.853     1283.806      510.848        0.474        0.133       82.533       28.320        0.118      333.045        2.104      848.166
12/24/2021  01:55:00       67.644       24.669       -5.462       29.592       46.394       27.240      875.695     2152.416      742.009        0.449        0.189       72.002       36.425        0.256      333.063        2.133      848.144
12/24/2021  01:56:00       78.049       26.969       -5.821       22.127       31.546       19.139      489.597      995.139      366.312        0.435        0.093       82.577       24.504        0.088      333.055        2.122      848.120
12/24/2021  01:57:00       69.324       27.555       -9.556       25.158       32.227       20.252      632.943     1038.594      410.158        0.387        0.104       74.599       22.333        0.090      333.019        2.061      848.122
12/24/2021  01:58:00       22.374       25.335       -8.088       22.100       31.462       18.679      488.427      989.870      348.920        0.152        0.091       33.800       19.820        0.344      333.070        2.147      848.159
12/24/2021  01:59:00       14.469        0.268       -0.060       18.298       29.715       18.755      334.815      882.957      351.767        0.089        0.078       14.471       22.535        2.425      333.080        2.163      848.167
12/24/2021  02:00:00       21.896      -27.636       -4.326       23.519       33.869       15.792      553.160     1147.105      249.382        0.161        0.097       35.259       17.761        0.254      333.041        2.098      848.168
12/24/2021  02:01:00       57.085      -39.916      -11.617       27.631       42.594       22.972      763.495     1814.232      527.691        0.405        0.155       69.657       30.284        0.189      332.939        1.928      848.151
12/24/2021  02:02:00       23.051      -13.475      -11.609       20.795       31.805       18.756      432.431     1011.539      351.779        0.132        0.090       26.701       22.781        0.728      332.920        1.896      848.136
12/24/2021  02:03:00       -2.596       -3.208       -7.117       19.129       26.207       16.500      365.928      686.817      272.253        0.070        0.066        4.127       20.337       24.283      332.930        1.914      848.130
12/24/2021  02:04:00      -32.894        7.234       -3.224       27.118       35.208       22.464      735.407     1239.597      504.647        0.181        0.124       33.680       24.903        0.547      333.050        2.113      848.154
12/24/2021  02:05:00      -16.445       -6.483       -9.182       29.597       26.029       18.424      876.000      677.483      339.432        0.114        0.095       17.676       16.237        0.844      333.036        2.088      848.183
12/24/2021  02:06:00       32.172        2.314       -0.487       43.271       42.180       21.123     1872.377     1779.112      446.166        0.257        0.205       32.255       22.827        0.501      333.038        2.090      848.146
12/24/2021  02:07:00       91.383      -24.172      -10.346       70.574       86.815       46.129     4980.646     7536.925     2127.854        1.184        0.732       94.526       24.669        0.068      333.132        2.247      848.009
12/24/2021  02:08:00       82.543      -42.646       -8.371      100.830       84.869       63.213    10166.603     7202.780     3995.935        1.503        1.068       92.909       44.335        0.228      332.978        1.992      847.866
12/24/2021  02:09:00      101.438      -33.939        3.418       81.017       59.888       41.402     6563.817     3586.522     1714.096        1.166        0.593      106.965       32.767        0.094      332.848        1.778      847.834
12/24/2021  02:10:00       11.333      -17.615        1.729       29.640       39.084       20.149      878.532     1527.536      405.971        0.163        0.141       20.946       10.817        0.267      333.021        2.065      847.895
12/24/2021  02:11:00      -13.568        3.223       -7.871       46.841       57.344       33.335     2194.062     3288.384     1111.236        0.342        0.330       13.946       26.889        3.718      333.062        2.132      848.000
12/24/2021  02:12:00     -146.823       17.401       -5.894       94.248       75.855       49.798     8882.755     5754.039     2479.876        1.950        0.856      147.851       40.718        0.076      333.181        2.325      848.101
12/24/2021  02:13:00     -263.884       99.565        2.059       93.308       65.730       51.771     8706.448     4320.431     2680.257        4.763        0.785      282.042       45.895        0.026      333.051        2.110      848.159
12/24/2021  02:14:00     -273.927       -7.111      -11.764      110.100       69.332       56.453    12122.087     4806.897     3186.931        4.767        1.006      274.020       48.364        0.031      332.962        1.961      848.198
12/24/2021  02:15:00     -250.432      -14.100       -7.888       94.394       60.612       49.853     8910.141     3673.825     2485.353        3.902        0.753      250.828       45.964        0.034      332.912        1.879      848.228
12/24/2021  02:16:00     -158.987       12.518      -18.600       66.705       60.322       36.854     4449.556     3638.705     1358.212        1.761        0.472      159.479       37.571        0.056      332.978        1.991      848.227
12/24/2021  02:17:00      -28.518      -65.339        6.773       32.863       43.562       27.467     1079.984     1897.691      754.435        0.443        0.187       71.292       22.684        0.101      333.054        2.118      848.186
12/24/2021  02:18:00       53.927      -84.837       -9.220      110.987       66.983       39.859    12318.106     4486.744     1588.709        1.429        0.920      100.526       34.094        0.115      333.151        2.280      848.103
12/24/2021  02:19:00       95.848      -66.799      -31.317       70.137       76.889       45.151     4919.204     5911.855     2038.573        1.375        0.643      116.828       33.711        0.083      333.050        2.113      848.018
12/24/2021  02:20:00      111.434     -148.389      -18.658       52.193       87.913       38.482     2724.131     7728.764     1480.827        2.336        0.597      185.572       41.330        0.050      333.320        2.557      847.982
12/24/2021  02:21:00      115.388     -110.812      -22.183       68.530       87.300       38.932     4696.300     7621.276     1515.732        1.996        0.692      159.980       38.193        0.057      333.307        2.533      847.952
12/24/2021  02:22:00       78.613      -29.735      -33.937       67.466       93.865       42.208     4551.719     8810.675     1781.506        1.168        0.757       84.049       31.495        0.140      333.157        2.288      847.941
12/24/2021  02:23:00      125.127     -172.934       -4.784       61.860       76.350       41.543     3826.630     5829.397     1725.860        2.848        0.569      213.454       42.370        0.039      333.213        2.380      847.946
12/24/2021  02:24:00      124.729     -142.003      -18.074       64.313       89.168       41.680     4136.103     7950.970     1737.242        2.493        0.691      189.003       34.959        0.034      333.178        2.321      847.938
12/24/2021  02:25:00      120.133     -120.765      -31.049       72.381      113.840       41.754     5238.962    12959.551     1743.413        2.496        0.997      170.341       38.681        0.052      333.205        2.366      847.901
12/24/2021  02:26:00       84.343     -116.728      -29.303       70.928      112.797       53.327     5030.796    12723.251     2843.822        2.109        1.030      144.011       24.532        0.029      333.200        2.357      847.869
12/24/2021  02:27:00      152.909     -163.719      -24.544      117.181      135.036       60.725    13731.282    18234.799     3687.518        4.321        1.783      224.021       36.408        0.026      333.140        2.259      847.823
12/24/2021  02:28:00      162.836     -361.722        1.002       93.847      129.162       55.952     8807.271    16682.763     3130.595        9.298        1.431      396.684       44.481        0.013      333.140        2.257      847.828
12/24/2021  02:29:00      133.816     -338.067       -4.096       76.803      117.147       53.668     5898.719    13723.457     2880.225        7.735        1.125      363.588       41.334        0.013      333.389        2.670      847.862
12/24/2021  02:30:00      161.798     -315.153      -21.353       78.591       99.231       55.009     6176.598     9846.699     3026.035        7.250        0.952      354.260       45.810        0.017      333.408        2.700      847.862
12/24/2021  02:31:00       93.174     -226.227       -7.032       85.173      115.041       45.406     7254.511    13234.401     2061.669        4.123        1.128      244.663       27.529        0.013      333.543        2.926      847.888
12/24/2021  02:32:00      -14.230       -1.909        5.112       45.136       42.883       24.883     2037.216     1838.944      619.148        0.236        0.225       14.357       17.992        1.570      333.545        2.930      847.919
12/24/2021  02:33:00      -28.028      -17.215       10.751       44.960       41.603       25.769     2021.394     1730.836      664.039        0.281        0.221       32.893       23.063        0.492      333.433        2.743      847.911
12/24/2021  02:34:00        0.703       -3.995       13.682       34.161       40.400       24.510     1167.006     1632.184      600.726        0.180        0.170        4.056       20.747       26.163      333.483        2.827      847.890
12/24/2021  02:35:00        0.347       24.395       -6.640       45.733       25.516       15.094     2091.496      651.063      227.827        0.180        0.149       24.398       14.723        0.364      333.514        2.880      847.866
12/24/2021  02:36:00       -8.206       -8.277        1.332       30.954       37.476       23.736      958.175     1404.474      563.391        0.153        0.146       11.656       21.581        3.428      333.460        2.788      847.831
12/24/2021  02:37:00       -9.487      -13.006       10.225       34.993       47.362       26.536     1224.513     2243.138      704.134        0.227        0.209       16.098       27.896        3.003      333.413        2.712      847.821
12/24/2021  02:38:00       -7.773      -30.359        6.715       37.206       46.487       28.544     1384.270     2161.016      814.776        0.269        0.218       31.338       17.042        0.296      333.471        2.807      847.859
12/24/2021  02:39:00      -67.842       -4.410        7.308       51.050       36.884       28.088     2606.067     1360.461      788.949        0.471        0.238       67.985       22.094        0.106      333.515        2.880      847.860
12/24/2021  02:40:00      -14.102       13.949        7.280       15.805       24.548       14.751      249.794      602.588      217.591        0.076        0.053       19.835       11.950        0.363      333.451        2.774      847.826
12/24/2021  02:41:00        4.324        0.167       -0.637       22.152       26.367       18.000      490.732      695.195      324.010        0.076        0.075        4.327       12.812        8.767      333.454        2.778      847.833
12/24/2021  02:42:00       16.616        9.332       -8.935       30.923       29.953       12.041      956.248      897.196      144.980        0.122        0.100       19.057        8.930        0.220      333.516        2.883      847.840
12/24/2021  02:43:00      -27.077       -1.462       -2.168       16.394       21.198       14.851      268.748      449.337      220.557        0.084        0.047       27.117       15.536        0.328      333.504        2.861      847.811
12/24/2021  02:44:00        4.578      -29.578      -22.966       49.226       35.179       18.076     2423.230     1237.579      326.758        0.270        0.199       29.930        6.282        0.044      333.616        3.049      847.781
12/24/2021  02:45:00       -2.238      -27.700      -13.277       36.502       44.768       18.032     1332.377     2004.175      325.152        0.230        0.183       27.790       18.792        0.457      333.580        2.991      847.779
12/24/2021  02:46:00      -51.810       -0.896       -1.561       19.816       17.881       15.595      392.672      319.717      243.218        0.182        0.048       51.818       12.519        0.058      333.606        3.032      847.766
12/24/2021  02:47:00      -29.786       -0.978       -5.408       23.719       17.984       12.049      562.586      323.429      145.178        0.097        0.052       29.803       11.779        0.156      333.673        3.142      847.752
12/24/2021  02:48:00       -7.673        4.693       -8.937       14.464       19.930       10.453      209.206      397.185      109.258        0.044        0.036        8.995       10.606        1.390      333.550        2.939      847.718
12/24/2021  02:49:00      -22.273        3.482        2.529       23.106       23.142       17.936      533.906      535.563      321.683        0.095        0.070       22.544       13.680        0.368      333.507        2.866      847.697
12/24/2021  02:50:00      -24.161        1.817       -0.902       16.902       18.936       15.536      285.679      358.587      241.370        0.074        0.044       24.229        8.075        0.111      333.585        2.996      847.683
12/24/2021  02:51:00       -9.884      -23.474       -9.946       17.498       19.618       14.331      306.182      384.873      205.371        0.082        0.045       25.470        9.506        0.139      333.679        3.153      847.678
12/24/2021  02:52:00      -58.951       -9.102       -4.975       39.316       30.102       24.802     1545.757      906.105      615.124        0.332        0.153       59.650       16.739        0.079      333.644        3.096      847.693
12/24/2021  02:53:00      -56.811      -11.415       -0.606       45.218       27.066       19.698     2044.669      732.571      387.992        0.326        0.158       57.947       21.671        0.140      333.590        3.005      847.719
12/24/2021  02:54:00        1.152      -10.344        4.568       31.970       24.265       15.849     1022.091      588.791      251.205        0.100        0.093       10.407       14.454        1.929      333.684        3.158      847.687
12/24/2021  02:55:00      -14.860       -1.075       -4.689       18.821       13.874       10.518      354.220      192.496      110.634        0.045        0.033       14.899        6.426        0.186      333.688        3.167      847.643
12/24/2021  02:56:00      -17.689       -2.008        0.832       24.285       15.986       10.342      589.766      255.554      106.958        0.063        0.048       17.803        2.620        0.022      333.677        3.149      847.618
12/24/2021  02:57:00      -28.352        9.464       -5.191       14.349       17.543       13.112      205.898      307.745      171.936        0.080        0.034       29.890        8.771        0.086      333.674        3.146      847.613
12/24/2021  02:58:00      -35.169       -8.364       -2.334       33.014       23.076       14.489     1089.922      532.480      209.918        0.157        0.092       36.150       14.247        0.155      333.636        3.081      847.591
12/24/2021  02:59:00      -30.401       -1.824        3.304       23.420       27.169       16.599      548.510      738.129      275.529        0.125        0.078       30.456       14.594        0.230      333.601        3.025      847.558
12/24/2021  03:00:00      -59.327       11.279       -5.457       61.705       24.098       21.834     3807.546      580.711      476.740        0.427        0.243       60.390       21.617        0.128      333.543        2.928      847.554
12/24/2021  03:01:00      -47.753       -2.469       -6.470       57.206       36.441       24.094     3272.551     1327.954      580.519        0.375        0.259       47.817       20.569        0.185      333.418        2.720      847.581
12/24/2021  03:02:00      -83.112       15.191        2.129       44.522       30.800       22.233     1982.194      948.624      494.316        0.528        0.171       84.489       22.340        0.070      333.326        2.568      847.598
12/24/2021  03:03:00      -67.807       17.771        1.573       40.752       22.789       19.188     1660.685      519.337      368.197        0.373        0.127       70.097       11.716        0.028      333.339        2.592      847.601
12/24/2021  03:04:00      -33.275       12.471        3.891       39.258       20.946       16.479     1541.180      438.741      271.570        0.176        0.113       35.536       22.377        0.397      333.360        2.625      847.597
12/24/2021  03:05:00      -31.109        7.308       -0.420       15.693       17.480       13.496      246.264      305.535      182.142        0.088        0.037       31.956        7.473        0.055      333.406        2.701      847.580
12/24/2021  03:06:00       -8.638        9.210       -4.219       22.825       13.865        7.597      520.982      192.239       57.712        0.047        0.039       12.626        8.684        0.473      333.382        2.663      847.548
12/24/2021  03:07:00        3.052       14.617       -6.079       20.410       10.915        9.539      416.556      119.127       90.994        0.044        0.031       14.932        4.493        0.091      333.289        2.506      847.519
12/24/2021  03:08:00       41.076       33.819       -9.399        8.285        7.187        8.628       68.637       51.658       74.441        0.156        0.010       53.207        4.354        0.007      333.314        2.549      847.473
12/24/2021  03:09:00       19.456       21.253       -7.685       13.839       11.545       12.941      191.505      133.278      167.464        0.069        0.025       28.814        8.365        0.084      333.334        2.583      847.446
12/24/2021  03:10:00       -3.225        5.050       -2.387        7.962        8.924        5.727       63.387       79.630       32.800        0.011        0.009        5.992        4.305        0.516      333.403        2.694      847.471
12/24/2021  03:11:00      -60.443       12.845      -14.463       25.890       24.821       14.664      670.273      616.097      215.041        0.276        0.075       61.792        9.738        0.025      333.251        2.444      847.496
12/24/2021  03:12:00      -16.429      -15.594       -6.820       50.289       34.381       29.683     2529.027     1182.054      881.083        0.258        0.230       22.652       23.476        1.074      333.214        2.382      847.544
12/24/2021  03:13:00      -75.875       21.173        7.713       77.310       39.479       28.325     5976.881     1558.593      802.286        0.730        0.417       78.774       35.961        0.208      333.233        2.413      847.559
12/24/2021  03:14:00      -36.035      -17.283        3.198       52.268       33.640       21.786     2731.941     1131.670      474.636        0.297        0.217       39.965       17.726        0.197      333.233        2.413      847.476
12/24/2021  03:15:00       40.197        2.235      -15.910       21.618       30.931       18.681      467.353      956.721      348.985        0.182        0.089       40.260       14.084        0.122      333.190        2.340      847.385
12/24/2021  03:16:00       25.135       28.404      -16.163       29.490       36.290       22.623      869.644     1316.943      511.800        0.220        0.135       37.928       16.832        0.197      333.243        2.430      847.357
12/24/2021  03:17:00      -18.126       47.465       -5.968       22.961       21.061       14.579      527.224      443.563      212.557        0.190        0.059       50.808       11.266        0.049      333.258        2.455      847.349
12/24/2021  03:18:00      -87.804       63.659      -16.641       21.221       20.678       13.315      450.317      427.595      177.276        0.655        0.053      108.452       10.569        0.009      333.205        2.368      847.383
12/24/2021  03:19:00     -107.189       47.371       -6.462       38.156       24.743       22.617     1455.916      612.202      511.516        0.818        0.129      117.190       15.141        0.017      333.146        2.270      847.396
12/24/2021  03:20:00     -101.389       30.443       -9.555       31.343       33.979       19.050      982.394     1154.576      362.906        0.690        0.125      105.861        8.540        0.007      333.128        2.240      847.375
12/24/2021  03:21:00      -92.861       53.747      -15.619       44.083       22.651       16.867     1943.270      513.067      284.511        0.725        0.137      107.294       11.077        0.011      333.138        2.256      847.369
12/24/2021  03:22:00      -52.011       39.852      -10.446       20.123       14.689        8.616      404.935      215.765       74.230        0.255        0.035       65.523       10.232        0.024      333.139        2.260      847.352
12/24/2021  03:23:00     -122.942       37.425      -31.869       31.949       23.753       22.584     1020.723      564.198      510.022        0.981        0.105      128.512       17.364        0.018      333.193        2.347      847.376
12/24/2021  03:24:00      -86.252       16.791      -14.530       64.882       30.210       25.345     4209.661      912.647      642.381        0.685        0.288       87.872       24.503        0.078      333.124        2.234      847.401
12/24/2021  03:25:00      -24.182       -6.358        2.584       23.031       14.629       13.124      530.439      213.999      172.240        0.077        0.046       25.004        5.826        0.054      333.240        2.425      847.367
12/24/2021  03:26:00      -20.760      -15.789       -1.853       22.145       17.999       15.175      490.396      323.946      230.268        0.086        0.052       26.082       11.149        0.183      333.314        2.548      847.379
12/24/2021  03:27:00        7.609        0.424      -15.415       18.088       34.623       16.088      327.180     1198.748      258.808        0.104        0.089        7.621       10.119        1.763      333.312        2.547      847.317
12/24/2021  03:28:00        0.519      -44.262      -22.516       54.282       46.128       23.711     2946.497     2127.780      562.199        0.405        0.282       44.266       18.956        0.183      333.288        2.505      847.253
12/24/2021  03:29:00       -5.460      -29.264      -26.767       46.364       26.903       15.784     2149.649      723.767      249.139        0.236        0.156       29.769       16.486        0.307      333.380        2.658      847.287
12/24/2021  03:30:00      -12.681       25.420       -8.772       46.981       29.773       18.793     2207.228      886.445      353.161        0.216        0.172       28.407       10.921        0.148      333.388        2.671      847.304
12/24/2021  03:31:00      -97.424       21.171      -10.888       75.870       40.031       29.285     5756.324     1602.491      857.615        0.914        0.411       99.698       21.878        0.048      333.202        2.363      847.389
12/24/2021  03:32:00     -145.944       65.728       -5.232       65.627       48.318       40.364     4306.897     2334.659     1629.222        1.696        0.414      160.062       34.582        0.047      333.123        2.232      847.390
12/24/2021  03:33:00     -132.675       46.130      -22.555       54.520       36.067       26.878     2972.406     1300.855      722.432        1.262        0.250      140.465       13.029        0.009      333.086        2.173      847.378
12/24/2021  03:34:00      -39.922        1.926       -5.750       56.649       42.334       22.496     3209.133     1792.173      506.081        0.357        0.275       39.968       26.107        0.427      333.136        2.254      847.376
12/24/2021  03:35:00      -50.528       38.470      -10.950       26.826       16.917       17.611      719.656      286.171      310.152        0.273        0.066       63.506       17.640        0.077      333.070        2.144      847.370
12/24/2021  03:36:00      -68.681       50.103       -3.635       49.477       25.591       25.438     2448.010      654.898      647.081        0.549        0.187       85.014       19.671        0.054      333.143        2.266      847.355
12/24/2021  03:37:00     -105.336       43.580       -2.970       54.260       30.470       27.701     2944.162      928.407      767.344        0.882        0.232      113.995       25.929        0.052      333.503        2.861      847.372
12/24/2021  03:38:00      -71.720      -20.363      -12.983       38.593       34.905       21.348     1489.405     1218.331      455.757        0.444        0.158       74.555       21.006        0.079      333.359        2.622      847.370
12/24/2021  03:39:00      -69.318      -49.669       -8.222       61.937       53.156       28.189     3836.153     2825.578      794.635        0.740        0.373       85.276       25.255        0.088      333.465        2.797      847.331
12/24/2021  03:40:00      -28.124       28.323      -12.476       22.904       23.769       19.826      524.575      564.973      393.077        0.162        0.074       39.914        9.582        0.058      333.553        2.943      847.286
12/24/2021  03:41:00      -18.590       16.081       -8.799       30.786       16.705       17.353      947.772      279.064      301.125        0.110        0.076       24.580       17.063        0.482      333.525        2.896      847.293
12/24/2021  03:42:00      -56.647        7.685       -1.358       39.229       28.852       19.218     1538.888      832.426      369.323        0.300        0.137       57.166       17.992        0.099      333.514        2.879      847.299
12/24/2021  03:43:00      -88.187       36.300      -11.756       23.777       13.701       14.335      565.334      187.715      205.488        0.510        0.048       95.366        7.551        0.006      333.487        2.835      847.279
12/24/2021  03:44:00      -76.465        6.617      -10.156       42.119       30.969       17.353     1774.008      959.067      301.114        0.451        0.152       76.751       16.876        0.048      333.463        2.796      847.278
12/24/2021  03:45:00     -102.024       15.078       -5.298       20.425       17.790       15.282      417.171      316.473      233.539        0.582        0.048      103.132       13.852        0.018      333.459        2.788      847.301
12/24/2021  03:46:00     -109.911       -8.398       -9.706       22.471       33.027       14.667      504.954     1090.790      215.111        0.703        0.091      110.232        8.930        0.007      333.500        2.857      847.318
12/24/2021  03:47:00      -71.536       21.499       -9.729       31.448       23.913       18.626      988.978      571.823      346.929        0.379        0.095       74.696       17.629        0.056      333.456        2.785      847.322
12/24/2021  03:48:00      -30.035        5.234       -0.022       15.557       14.369       10.301      242.031      206.476      106.116        0.074        0.028       30.487        9.015        0.087      333.417        2.718      847.302
12/24/2021  03:49:00       -1.353       -1.628       -2.487       25.548       37.589       15.623      652.700     1412.902      244.077        0.116        0.115        2.117       14.359       46.006      333.479        2.820      847.283
12/24/2021  03:50:00      -41.950      -14.584      -11.801       36.631       22.278       18.097     1341.834      496.307      327.485        0.214        0.108       44.413       19.642        0.196      333.515        2.881      847.271
12/24/2021  03:51:00      -18.710       -2.818        2.891       14.718       27.078       10.680      216.618      733.210      114.069        0.071        0.053       18.921        9.383        0.246      333.426        2.731      847.270
12/24/2021  03:52:00        0.517      -34.482      -17.566       23.018       16.580       14.401      529.831      274.910      207.389        0.125        0.051       34.486       14.524        0.177      333.452        2.776      847.287
12/24/2021  03:53:00       18.386       12.910      -10.631       19.612       20.665       19.117      384.625      427.042      365.477        0.090        0.059       22.466        7.398        0.108      333.307        2.535      847.297
12/24/2021  03:54:00      -16.460        3.383       -8.807       27.666       25.809       16.740      765.381      666.084      280.220        0.104        0.086       16.804        6.322        0.142      333.293        2.514      847.298
12/24/2021  03:55:00        5.654        9.488       -2.804       34.268       17.148       13.817     1174.266      294.064      190.922        0.089        0.083       11.045        8.281        0.562      333.361        2.628      847.316
12/24/2021  03:56:00      -16.971       12.847        5.056       36.316       15.466       19.062     1318.860      239.183      363.378        0.120        0.096       21.285       21.475        1.018      333.273        2.480      847.334
12/24/2021  03:57:00       -5.460       -2.555       -4.709       12.807       12.406        5.329      164.027      153.915       28.395        0.020        0.017        6.028        2.995        0.247      333.276        2.485      847.329
12/24/2021  03:58:00       29.553        7.149       -1.156       22.217       21.816       13.247      493.584      475.927      175.475        0.104        0.057       30.405       13.298        0.191      333.247        2.437      847.308
12/24/2021  03:59:00       29.455       10.001      -10.419       12.840       13.004       11.210      164.868      169.110      125.661        0.077        0.023       31.107        8.240        0.070      333.294        2.517      847.286
12/24/2021  04:00:00       20.130       -4.654       -9.419       12.911       14.723        6.557      166.700      216.760       42.997        0.047        0.021       20.661        1.735        0.007      333.251        2.442      847.262
12/24/2021  04:01:00        3.318       28.440      -10.956        9.701       11.961       10.875       94.109      143.073      118.275        0.065        0.018       28.633        7.533        0.069      333.207        2.371      847.253
12/24/2021  04:02:00       -0.537       15.793       -5.453        7.182       13.250       11.748       51.585      175.549      138.015        0.032        0.018       15.802        6.619        0.175      333.261        2.460      847.247
12/24/2021  04:03:00      -33.763       42.133       -1.530       33.871       24.578       14.437     1147.234      604.090      208.428        0.244        0.098       53.992       12.538        0.054      333.344        2.600      847.246
12/24/2021  04:04:00      -39.945        7.784        0.767       38.138       31.932       19.925     1454.534     1019.682      397.018        0.226        0.144       40.697       13.111        0.104      333.320        2.558      847.246
12/24/2021  04:05:00      -66.202      -15.261        3.377       46.848       28.448       23.207     2194.707      809.274      538.553        0.408        0.177       67.938        7.335        0.012      333.397        2.686      847.236
12/24/2021  04:06:00     -106.518       -1.202       -0.379       37.927       31.551       21.182     1438.426      995.483      448.662        0.711        0.144      106.525       18.857        0.031      333.395        2.682      847.214
12/24/2021  04:07:00      -48.739      -10.130        6.378       34.161       28.470       18.797     1167.005      810.529      353.317        0.242        0.117       49.780       15.864        0.102      333.420        2.726      847.186
12/24/2021  04:08:00      -77.070       -5.598       -3.218       40.413       22.079       15.350     1633.220      487.462      235.615        0.417        0.118       77.273       17.262        0.050      333.455        2.780      847.160
12/24/2021  04:09:00      -67.613       11.665       -8.063       32.556       19.690       16.153     1059.905      387.680      260.909        0.324        0.085       68.612       16.032        0.055      333.436        2.750      847.142
12/24/2021  04:10:00      -27.497       26.775       -0.013       29.719       24.466       17.095      883.195      598.573      292.250        0.162        0.089       38.379       10.320        0.072      333.451        2.774      847.144
12/24/2021  04:11:00      -58.733        9.554      -10.368       35.310       31.780       15.608     1246.830     1009.994      243.614        0.307        0.125       59.505       13.757        0.053      333.461        2.790      847.160
12/24/2021  04:12:00      -30.701        9.859        1.963       24.557       23.151       18.770      603.059      535.964      352.310        0.127        0.075       32.245        9.721        0.091      333.425        2.733      847.189
12/24/2021  04:13:00      -82.128       -3.014       -2.218       34.330       28.772       17.020     1178.533      827.854      289.681        0.453        0.115       82.184       12.390        0.023      333.430        2.740      847.202
12/24/2021  04:14:00      -94.971       19.357       -1.817       37.017       32.216       23.745     1370.281     1037.859      563.832        0.618        0.149       96.923       19.292        0.040      333.392        2.680      847.211
12/24/2021  04:15:00      -35.450       18.044        2.762       38.203       35.802       20.158     1459.438     1281.796      406.342        0.237        0.157       39.778       15.358        0.149      333.385        2.667      847.192
12/24/2021  04:16:00      -42.903       -5.101       -0.720       38.210       33.223       19.547     1460.022     1103.754      382.100        0.241        0.147       43.206        9.112        0.044      333.373        2.646      847.200
12/24/2021  04:17:00      -44.221       11.902       -7.729       41.488       31.880       24.076     1721.220     1016.341      579.676        0.274        0.166       45.795       21.807        0.227      333.357        2.621      847.199
12/24/2021  04:18:00      -97.786       49.089       -9.987       55.152       31.080       25.231     3041.704      965.988      636.602        0.836        0.232      109.416       23.110        0.045      333.199        2.356      847.178
12/24/2021  04:19:00     -113.976       28.477       -4.807       45.277       28.284       22.249     2050.044      799.971      495.009        0.858        0.167      117.480       20.596        0.031      333.284        2.500      847.157
12/24/2021  04:20:00      -75.808        8.510       -0.973       61.346       36.698       29.076     3763.355     1346.743      845.437        0.589        0.298       76.284       34.087        0.200      333.281        2.493      847.154
12/24/2021  04:21:00      -91.011       22.062        5.019       62.012       49.539       30.819     3845.442     2454.090      949.820        0.802        0.362       93.647       31.785        0.115      333.362        2.629      847.189
12/24/2021  04:22:00     -108.246       32.393        9.472       75.624       36.888       32.690     5718.972     1360.704     1068.658        1.050        0.407      112.989       33.022        0.085      333.376        2.650      847.232
12/24/2021  04:23:00     -121.097       39.898       -1.960       68.490       60.991       37.252     4690.890     3719.955     1387.699        1.303        0.490      127.500       34.463        0.073      333.371        2.642      847.237
12/24/2021  04:24:00     -161.335       21.439      -13.301       58.843       51.512       27.473     3462.472     2653.459      754.782        1.677        0.344      162.753       15.885        0.010      333.405        2.697      847.222
12/24/2021  04:25:00     -119.253       12.747        1.418       47.255       39.497       24.554     2233.068     1560.042      602.902        0.939        0.220      119.933       22.688        0.036      333.373        2.647      847.227
12/24/2021  04:26:00     -125.611      -16.642       -0.170       77.564       44.409       41.671     6016.109     1972.136     1736.514        1.289        0.486      126.708       37.718        0.089      333.394        2.681      847.336
12/24/2021  04:27:00     -166.338     -114.518      -43.471       97.547       83.545       54.333     9515.381     6979.845     2952.077        3.106        0.972      201.948       28.787        0.020      333.488        2.832      847.315
12/24/2021  04:28:00       28.215     -102.880      -51.969       92.725       59.110       46.118     8597.936     3494.022     2126.889        1.415        0.711      106.679       56.036        0.276      333.430        2.741      847.232
12/24/2021  04:29:00       55.258      -80.690      -41.664       56.619       93.255       42.653     3205.689     8696.465     1819.294        1.251        0.686       97.797       18.215        0.035      333.285        2.501      847.187
12/24/2021  04:30:00       25.595      -93.241      -42.341       95.974       87.388       46.868     9211.070     7636.577     2196.631        1.509        0.952       96.690       32.813        0.115      333.366        2.633      847.118
12/24/2021  04:31:00     -137.738      -49.515      -25.360      107.143       61.989       46.118    11479.557     3842.640     2126.891        1.975        0.872      146.368       34.303        0.055      333.554        2.946      847.120
12/24/2021  04:32:00      -27.023      -28.603      -15.448       45.535       61.205       39.642     2073.449     3746.095     1571.490        0.459        0.370       39.349       36.013        0.838      333.615        3.045      847.087
12/24/2021  04:33:00      -21.846      -39.052      -18.589       66.683       71.175       43.628     4446.663     5065.900     1903.378        0.688        0.571       44.747       24.609        0.302      333.703        3.193      847.059
12/24/2021  04:34:00     -131.512      -73.292       -9.492       61.291       81.552       51.717     3756.559     6650.678     2674.647        1.792        0.654      150.557       32.348        0.046      333.552        2.941      847.026
12/24/2021  04:35:00     -121.690       -2.457       -4.436       94.636       61.445       46.587     8955.989     3775.549     2170.322        1.487        0.745      121.714       40.106        0.109      333.380        2.658      847.094
12/24/2021  04:36:00     -113.648       -5.333       -6.339       99.231       53.198       44.027     9846.721     2830.052     1938.376        1.380        0.731      113.773       42.196        0.138      333.356        2.618      847.065
12/24/2021  04:37:00     -192.428      -20.127      -12.238       84.133       53.030       49.372     7078.362     2812.206     2437.556        2.495        0.616      193.478       41.624        0.046      333.345        2.596      847.069
12/24/2021  04:38:00     -128.933       38.815        4.246      112.897       67.960       53.844    12745.627     4618.519     2899.183        1.920        1.013      134.648       44.996        0.112      333.201        2.359      847.054
12/24/2021  04:39:00      -85.837      -43.403      -10.092       60.229       43.458       26.139     3627.480     1888.637      683.258        0.778        0.310       96.186       32.321        0.113      333.278        2.489      847.034
12/24/2021  04:40:00        6.807       12.901      -11.577       55.358       54.988       26.278     3064.481     3023.735      690.551        0.356        0.339       14.586       23.156        2.520      333.292        2.512      847.007
12/24/2021  04:41:00      -24.650      -20.256       -9.674       35.998       36.721       20.371     1295.834     1348.408      414.979        0.208        0.153       31.905       14.595        0.209      333.333        2.581      846.992
12/24/2021  04:42:00      -21.681      -17.289       10.342       30.563       39.883       28.842      934.067     1590.622      831.884        0.212        0.168       27.731        5.786        0.044      333.371        2.642      846.990
12/24/2021  04:43:00       -0.977       -0.521      -14.484       32.109       26.686       24.417     1031.019      712.142      596.207        0.127        0.117        1.107        3.480        9.877      333.406        2.702      846.982
12/24/2021  04:44:00      -17.398       23.442      -11.253       30.280       56.617       20.774      916.885     3205.484      431.565        0.277        0.228       29.193       10.484        0.129      333.351        2.611      846.966
12/24/2021  04:45:00      -15.455      -20.597       -6.162       23.575       39.871       19.266      555.780     1589.728      371.196        0.161        0.126       25.750        7.276        0.080      333.378        2.654      846.956
12/24/2021  04:46:00      -48.702       -9.385       -2.150       33.002       22.432       17.258     1089.146      503.184      297.825        0.218        0.095       49.598       15.069        0.092      333.351        2.609      846.934
12/24/2021  04:47:00      -61.143       -2.491      -18.808       36.568       33.825       22.357     1337.227     1144.103      499.847        0.354        0.149       61.194       13.617        0.050      333.368        2.639      846.931
12/24/2021  04:48:00       30.819       31.569       -5.828       27.493       34.241       20.378      755.860     1172.452      415.258        0.216        0.117       44.118       20.018        0.206      333.345        2.602      846.919
12/24/2021  04:49:00      -30.620        5.242      -16.489       27.599       42.581       25.691      761.723     1813.150      660.052        0.224        0.162       31.065       20.438        0.433      333.386        2.668      846.883
12/24/2021  04:50:00      -14.070      -10.213       -4.673       19.386       24.689       16.939      375.836      609.522      286.935        0.080        0.064       17.385        6.704        0.149      333.345        2.601      846.922
12/24/2021  04:51:00      -13.543       12.926       -0.054       28.363       18.532       11.608      804.448      343.445      134.738        0.082        0.064       18.721       10.020        0.286      333.262        2.461      846.941
12/24/2021  04:52:00      -25.843      -12.524       -0.461       42.213       27.228       18.815     1781.921      741.358      354.023        0.185        0.144       28.718       10.736        0.140      333.306        2.535      846.930
12/24/2021  04:53:00      -97.130      -48.223       -9.108       88.469       54.240       29.812     7826.725     2941.933      888.767        1.175        0.583      108.442       28.818        0.071      333.305        2.533      846.944
12/24/2021  04:54:00      -97.271      -40.991      -15.111       69.497       41.275       25.477     4829.844     1703.608      649.071        0.928        0.359      105.555       18.776        0.032      333.357        2.621      846.924
12/24/2021  04:55:00     -124.130      -48.800      -20.976       53.718       48.340       34.035     2885.619     2336.794     1158.408        1.230        0.319      133.378       22.513        0.028      333.338        2.588      846.928
12/24/2021  04:56:00      -90.345      -14.027      -10.265       54.367       49.995       41.776     2955.807     2499.462     1745.224        0.783        0.360       91.427       28.378        0.096      333.298        2.522      846.942
12/24/2021  04:57:00     -104.545      -20.316      -14.282       64.524       33.997       25.260     4163.316     1155.790      638.069        0.875        0.298      106.501       25.225        0.056      333.252        2.444      846.904
12/24/2021  04:58:00      -66.541        2.074      -12.544       41.729       31.062       19.496     1741.290      964.855      380.082        0.384        0.154       66.573       15.088        0.051      333.254        2.448      846.863
12/24/2021  04:59:00      -75.776       10.437        8.483       59.317       39.636       24.274     3518.501     1571.024      589.227        0.580        0.284       76.491       27.658        0.131      333.211        2.377      846.824
12/24/2021  05:00:00     -120.238      -73.436      -19.217       63.563       63.545       35.985     4040.199     4037.965     1294.913        1.479        0.469      140.890       29.322        0.043      333.221        2.394      846.876
12/24/2021  05:01:00      -90.222      -25.445       -7.967       94.824       66.471       34.896     8991.497     4418.405     1217.698        1.174        0.731       93.741       36.895        0.155      333.187        2.336      846.936
12/24/2021  05:02:00     -126.954      -59.441      -17.406       60.739       70.460       38.886     3689.258     4964.608     1512.144        1.506        0.508      140.180       29.394        0.044      333.186        2.335      846.931
12/24/2021  05:03:00     -100.749      -66.326      -10.637       86.133       55.029       27.641     7418.834     3028.182      763.999        1.293        0.561      120.622       22.809        0.036      333.211        2.377      846.900
12/24/2021  05:04:00      -24.356      -54.739      -27.240       54.540       41.208       25.371     2974.609     1698.070      643.677        0.482        0.266       59.913       16.231        0.073      333.263        2.464      846.898
12/24/2021  05:05:00      -72.449       31.113      -11.683       45.938       42.977       20.959     2110.343     1847.058      439.271        0.537        0.220       78.847       15.163        0.037      333.243        2.431      846.884
12/24/2021  05:06:00      -75.248      -19.146       -3.474      102.903       50.865       37.661    10589.089     2587.246     1418.337        1.032        0.730       77.645       36.246        0.218      333.155        2.284      846.957
12/24/2021  05:07:00     -207.587      -19.833      -10.502       71.969       44.884       29.187     5179.512     2014.598      851.898        2.582        0.402      208.533       32.275        0.024      333.055        2.117      846.998
12/24/2021  05:08:00     -123.107      -85.979      -14.385       77.043       71.749       45.860     5935.636     5147.982     2103.108        1.797        0.659      150.159       36.887        0.060      333.061        2.129      846.991
12/24/2021  05:09:00      -32.384      -77.505      -51.952       71.198       69.412       36.247     5069.193     4817.989     1313.850        1.048        0.560       83.998       23.820        0.080      333.134        2.250      846.895
12/24/2021  05:10:00      -88.261     -145.135      -23.024       93.180       90.829       49.301     8682.593     8249.917     2430.632        2.437        0.968      169.865       39.769        0.055      333.266        2.467      846.856
12/24/2021  05:11:00      -25.256     -106.133      -28.135       64.039       60.509       40.165     4101.009     3661.327     1613.238        1.103        0.469      109.097       35.270        0.105      333.303        2.530      846.848
12/24/2021  05:12:00       -6.485      -57.244      -27.475       53.549       46.509       33.002     2867.448     2163.060     1089.108        0.510        0.306       57.610       26.726        0.215      333.315        2.549      846.845
12/24/2021  05:13:00      -89.626      -82.155      -38.209       53.967       81.113       33.148     2912.417     6579.312     1098.816        1.341        0.530      121.583       30.944        0.065      333.331        2.576      846.882
12/24/2021  05:14:00       26.435      -68.434      -31.455       81.667       84.796       51.775     6669.437     7190.441     2680.633        1.145        0.827       73.362       42.071        0.329      333.321        2.559      846.857
12/24/2021  05:15:00       86.394     -101.269      -46.297       85.151       92.590       59.522     7250.698     8572.846     3542.914        1.961        0.968      133.115       38.080        0.082      333.255        2.450      846.754
12/24/2021  05:16:00      146.513     -303.848      -67.673       73.643      115.277       46.278     5423.344    13288.675     2141.668        6.961        1.043      337.327       36.909        0.012      333.214        2.380      846.776
12/24/2021  05:17:00      120.139     -196.909      -49.776       54.515       86.828       45.549     2971.913     7539.128     2074.710        3.413        0.629      230.666       23.451        0.010      333.372        2.641      846.745
12/24/2021  05:18:00       63.426     -136.765      -29.396       51.356       89.438       44.303     2637.393     7999.079     1962.742        1.809        0.630      150.757       37.112        0.061      333.277        2.485      846.680
12/24/2021  05:19:00       19.942     -132.112      -62.156       76.354       57.232       50.268     5829.946     3275.504     2526.869        1.667        0.582      133.608       26.611        0.040      333.299        2.524      846.704
12/24/2021  05:20:00       19.219     -121.930      -43.356      116.388       86.478       43.715    13546.091     7478.492     1910.974        2.002        1.147      123.436       32.620        0.070      333.466        2.797      846.761
12/24/2021  05:21:00       37.296     -127.890      -40.026      113.105       99.396       47.659    12792.810     9879.578     2271.372        2.214        1.247      133.218       39.525        0.088      333.614        3.044      846.763
12/24/2021  05:22:00      -75.525       44.539       -5.494       87.415       59.572       33.991     7641.299     3548.866     1155.394        1.003        0.617       87.680       24.593        0.079      333.588        3.002      846.751
12/24/2021  05:23:00     -141.306      -17.367      -11.436       95.521       73.554       29.155     9124.241     5410.264      850.035        1.789        0.769      142.370       31.251        0.048      333.627        3.066      846.755
12/24/2021  05:24:00     -236.737      -36.341       -6.740      149.296       91.227       72.159    22289.440     8322.365     5206.895        4.661        1.791      239.510       79.780        0.111      333.450        2.770      846.820
12/24/2021  05:25:00     -231.039      -40.762      -18.533      140.391       79.521       50.061    19709.710     6323.626     2506.150        4.196        1.427      234.607       58.828        0.063      333.269        2.470      846.822
12/24/2021  05:26:00     -105.296      -28.252       -0.772       85.414       87.175       42.401     7295.599     7599.506     1797.869        1.429        0.835      109.020       43.197        0.157      333.403        2.696      846.810
12/24/2021  05:27:00     -102.377       22.737      -11.031       53.578       46.716       30.549     2870.561     2182.338      933.270        0.855        0.299      104.872       26.064        0.062      333.266        2.471      846.783
12/24/2021  05:28:00     -144.822      -16.681      -15.482       48.784       42.707       27.618     2379.892     1823.930      762.756        1.323        0.248      145.780       16.195        0.012      333.334        2.582      846.800
12/24/2021  05:29:00     -257.872      -25.329      -17.831      116.904      100.972       69.414    13666.454    10195.424     4818.268        4.806        1.434      259.113       44.407        0.029      333.496        2.846      846.794
12/24/2021  05:30:00     -249.481       10.956      -15.568      101.520       54.386       50.279    10306.400     2957.851     2528.008        3.919        0.790      249.722       46.422        0.035      333.553        2.941      846.776
12/24/2021  05:31:00     -149.408        8.144      -28.087       48.095       27.937       30.603     2313.087      780.470      936.544        1.360        0.202      149.630       17.711        0.014      333.538        2.918      846.801
12/24/2021  05:32:00     -147.808       -6.873       -6.424       44.876       53.480       32.149     2013.834     2860.157     1033.565        1.392        0.295      147.967       20.258        0.019      333.479        2.820      846.781
12/24/2021  05:33:00     -120.746        1.080       -2.227       82.782       61.379       30.464     6852.869     3767.331      928.037        1.306        0.577      120.751       33.273        0.076      333.500        2.855      846.792
12/24/2021  05:34:00     -193.358      -57.462      -15.822      106.070       77.336       49.681    11250.757     5980.800     2468.224        3.032        0.985      201.716       43.596        0.047      333.629        3.067      846.803
12/24/2021  05:35:00     -103.746      -21.375       -1.231       63.903       89.873       28.701     4083.560     8077.076      823.720        1.210        0.649      105.925       21.017        0.039      333.633        3.075      846.808
12/24/2021  05:36:00     -116.015     -106.104      -28.516       66.048       75.274       33.931     4362.277     5666.113     1151.337        1.835        0.559      157.218       26.974        0.029      333.675        3.144      846.836
12/24/2021  05:37:00     -244.865      -39.661      -36.538      114.174       98.604       64.687    13035.780     9722.748     4184.371        4.490        1.347      248.056       50.823        0.042      333.739        3.246      846.817
12/24/2021  05:38:00     -343.465      -25.691      -34.926       95.402       83.945       55.514     9101.560     7046.834     3081.786        6.954        0.962      344.425       33.166        0.009      333.735        3.241      846.838
12/24/2021  05:39:00     -106.672       26.068       -7.026       85.475       65.365       39.574     7306.016     4272.642     1566.135        1.262        0.657      109.811       41.403        0.142      333.702        3.189      846.844
12/24/2021  05:40:00     -275.277      -66.536      -22.299      159.052      101.141       65.830    25297.534    10229.500     4333.603        6.027        1.993      283.204       68.824        0.059      333.773        3.304      846.826
12/24/2021  05:41:00     -382.290      -65.126      -30.475      194.658      159.188       75.834    37891.563    25340.872     5750.755       11.014        3.449      387.798       80.694        0.043      333.788        3.329      846.787
12/24/2021  05:42:00     -336.075      -11.543      -11.199      165.540      146.802       89.180    27403.434    21550.914     7953.030        8.505        2.845      336.273       71.201        0.045      333.770        3.299      846.820
12/24/2021  05:43:00     -380.548      -12.386      -16.993      185.122      129.950       88.242    34270.237    16887.130     7786.698       10.209        2.947      380.749       77.966        0.042      333.768        3.295      846.818
12/24/2021  05:44:00     -300.701      -77.831       -3.340      193.876      150.729       79.700    37587.821    22719.282     6352.031        8.156        3.333      310.611       86.186        0.077      333.744        3.256      846.790
12/24/2021  05:45:00     -187.678       17.431        0.620      136.316      115.016       70.849    18582.005    13228.750     5019.529        3.617        1.842      188.485       56.211        0.089      333.681        3.152      846.814
12/24/2021  05:46:00     -198.054        9.573       -1.403      149.627      102.300       72.122    22388.184    10465.275     5201.595        3.868        1.903      198.286       64.221        0.105      333.662        3.122      846.839
12/24/2021  05:47:00     -326.974      -38.209      -38.321      172.674      123.179       64.873    29816.467    15173.048     4208.446        7.951        2.460      329.199       66.275        0.041      333.686        3.160      846.802
12/24/2021  05:48:00     -199.279      -23.338        3.411      132.023      116.734       71.893    17430.037    13626.896     5168.595        3.824        1.811      200.641       74.124        0.136      333.642        3.089      846.841
12/24/2021  05:49:00     -310.672       18.982      -12.639      120.424      106.308       61.738    14501.899    11301.347     3811.573        6.332        1.481      311.251       47.328        0.023      333.632        3.071      846.835
12/24/2021  05:50:00     -182.130       10.797      -17.504      105.872       79.941       45.815    11208.875     6390.612     2098.996        2.664        0.985      182.449       41.391        0.051      333.609        3.035      846.825
12/24/2021  05:51:00     -145.234       49.953       -9.509      182.933       97.544       64.715    33464.408     9514.881     4187.977        3.541        2.358      153.584       62.751        0.167      333.565        2.963      846.832
12/24/2021  05:52:00     -383.608       30.780      -16.591      215.319      148.777       75.615    46362.255    22134.527     5717.583       11.128        3.711      384.841       86.388        0.050      333.570        2.969      846.835
12/24/2021  05:53:00     -331.081      -48.404      -10.082      153.274      112.188       82.480    23492.770    12586.036     6802.923        7.746        2.144      334.601       75.868        0.051      333.600        3.016      846.798
12/24/2021  05:54:00     -264.860       23.358      -10.735      180.678      116.948       92.038    32644.658    13676.806     8471.026        6.279        2.740      265.888       97.797        0.135      333.566        2.963      846.797
12/24/2021  05:55:00     -251.073      -15.682      -23.664      123.095      106.215       64.586    15152.386    11281.557     4171.394        4.722        1.530      251.562       48.871        0.038      333.551        2.936      846.786
12/24/2021  05:56:00     -194.215      -24.846      -18.260      109.368       86.453       60.651    11961.389     7474.055     3678.561        3.089        1.156      195.797       58.800        0.090      333.557        2.948      846.768
12/24/2021  05:57:00     -323.010       -7.735      -19.954      153.754       93.240       72.256    23640.283     8693.739     5220.898        7.117        1.878      323.102       83.278        0.066      333.561        2.953      846.737
12/24/2021  05:58:00     -157.493       -3.201       -7.699       94.747       57.365       46.066     8976.963     3290.722     2122.054        1.963        0.719      157.526       46.401        0.087      333.523        2.892      846.725
12/24/2021  05:59:00     -136.907      -31.831       -9.048       68.051       89.978       34.253     4630.878     8096.036     1173.295        1.687        0.695      140.559       29.725        0.045      333.595        3.012      846.713
12/24/2021  06:00:00     -204.075      -48.248      -12.569       79.672      106.142       48.696     6347.603    11266.027     2371.320        3.206        0.999      209.701       38.158        0.033      333.601        3.019      846.680
12/24/2021  06:01:00     -270.048     -148.781      -35.926       81.533      128.558       69.495     6647.592    16527.162     4829.516        6.217        1.400      308.321       43.109        0.020      333.620        3.050      846.676
12/24/2021  06:02:00     -131.759      -39.504      -15.684       91.964       77.462       55.351     8457.358     6000.382     3063.735        1.834        0.876      137.554       40.731        0.088      333.616        3.046      846.704
12/24/2021  06:03:00     -142.555       -5.183       -4.687       92.031       51.079       37.377     8469.634     2609.014     1397.021        1.642        0.624      142.649       38.188        0.072      333.561        2.956      846.738
12/24/2021  06:04:00     -231.397      -67.716      -30.639      107.125       76.285       56.583    11475.711     5819.357     3201.606        3.978        1.025      241.102       46.701        0.038      333.631        3.069      846.726
12/24/2021  06:05:00     -220.263      -62.509      -20.143      138.643       93.210       55.481    19221.937     8688.133     3078.103        4.190        1.549      228.961       57.906        0.064      333.631        3.070      846.732
12/24/2021  06:06:00     -184.852       39.987       -4.388       96.535       69.632       53.373     9319.030     4848.672     2848.714        2.640        0.851      189.128       52.341        0.077      333.571        2.970      846.766
12/24/2021  06:07:00     -214.295      -33.115      -16.623      108.924      145.125       59.233    11864.467    21061.391     3508.516        4.186        1.822      216.838       56.139        0.067      333.597        3.013      846.791
12/24/2021  06:08:00     -161.926       41.276        1.215       72.513       73.430       45.231     5258.086     5391.930     2045.874        2.031        0.635      167.104       36.065        0.047      333.548        2.934      846.769
12/24/2021  06:09:00     -168.937        4.131      -10.462       80.072       51.094       32.183     6411.468     2610.632     1035.717        1.936        0.503      168.987       21.825        0.017      333.580        2.987      846.754
12/24/2021  06:10:00     -176.787      -41.511      -24.124       93.046       88.593       47.631     8657.590     7848.763     2268.748        2.616        0.939      181.596       56.824        0.098      333.615        3.044      846.748
12/24/2021  06:11:00     -141.747      -12.804       -6.460       67.723       75.132       32.637     4586.420     5644.833     1065.148        1.580        0.565      142.325       34.940        0.060      333.615        3.046      846.743
12/24/2021  06:12:00      -71.501       -1.196       -4.153       93.647       57.686       42.695     8769.684     3327.642     1822.887        0.952        0.696       71.511       41.677        0.340      333.576        2.981      846.714
12/24/2021  06:13:00     -142.393      -52.265       -8.238       81.721       72.722       46.703     6678.247     5288.496     2181.196        1.861        0.707      151.682       45.729        0.091      333.598        3.016      846.689
12/24/2021  06:14:00     -177.903       17.340      -10.726      107.325       55.743       39.313    11518.561     3107.295     1545.486        2.412        0.809      178.746       33.648        0.035      333.570        2.971      846.698
12/24/2021  06:15:00     -174.744        5.197      -27.285       87.125       58.103       35.732     7590.683     3375.981     1276.775        2.177        0.612      174.821       26.812        0.024      333.554        2.946      846.724
12/24/2021  06:16:00      -78.852      -18.184       -0.700       68.339       82.696       44.304     4670.178     6838.572     1962.842        1.001        0.674       80.922       39.383        0.237      333.552        2.942      846.704
12/24/2021  06:17:00     -178.761       29.951        3.767       96.683       82.502       43.524     9347.566     6806.601     1894.376        2.545        0.902      181.253       46.274        0.065      333.531        2.906      846.694
12/24/2021  06:18:00     -135.485      -60.509       -5.966       90.291       91.189       57.825     8152.427     8315.488     3343.754        2.093        0.991      148.383       51.808        0.122      333.594        3.010      846.697
12/24/2021  06:19:00     -203.894      -26.569      -16.238      129.975       62.961       53.374    16893.590     3964.148     2848.779        3.312        1.185      205.618       57.339        0.078      333.603        3.024      846.701
12/24/2021  06:20:00     -245.685      -71.861      -27.013       96.385       77.525       46.915     9289.976     6010.200     2201.023        4.187        0.875      255.978       30.202        0.014      333.551        2.937      846.733
12/24/2021  06:21:00     -206.430      -33.197      -17.479      101.734       79.915       61.163    10349.784     6386.485     3740.859        3.225        1.024      209.082       55.153        0.070      333.540        2.920      846.733
12/24/2021  06:22:00     -228.013      -22.840      -27.050      119.944       66.615       49.113    14386.492     4437.612     2412.116        3.724        1.062      229.154       44.598        0.038      333.526        2.895      846.763
12/24/2021  06:23:00     -199.671       14.526       -0.147       86.476       42.262       47.990     7478.079     1786.084     2303.088        2.582        0.578      200.199       49.552        0.061      333.510        2.868      846.789
12/24/2021  06:24:00     -175.635      -24.253      -17.956       44.390       65.095       30.247     1970.441     4237.409      914.854        1.944        0.356      177.302       13.671        0.006      333.507        2.866      846.788
12/24/2021  06:25:00     -198.757       27.014      -22.750       72.207       57.679       39.923     5213.813     3326.888     1593.818        2.544        0.507      200.585       20.014        0.010      333.484        2.827      846.769
12/24/2021  06:26:00     -107.735        3.142        2.936       80.403       48.620       38.076     6464.642     2363.878     1449.746        1.095        0.514      107.780       39.344        0.133      333.449        2.771      846.783
12/24/2021  06:27:00     -127.440      -51.405       -5.638      116.254       72.378       37.316    13515.086     5238.542     1392.459        1.953        1.007      137.417       50.540        0.135      333.504        2.862      846.765
12/24/2021  06:28:00     -210.478        9.892      -14.226      117.294       65.355       57.841    13757.967     4271.314     3345.554        3.298        1.069      210.710       54.105        0.066      333.546        2.929      846.686
12/24/2021  06:29:00      -29.141       25.588        1.841      126.238       96.290       62.908    15936.042     9271.779     3957.431        1.533        1.458       38.780       60.973        2.472      333.508        2.868      846.693
12/24/2021  06:30:00     -172.099       29.668      -10.143       81.422       43.333       36.920     6629.550     1877.743     1363.112        2.023        0.494      174.638       37.796        0.047      333.471        2.806      846.715
12/24/2021  06:31:00     -199.055       26.666       -4.302      106.175       62.970       46.327    11273.124     3965.164     2146.223        2.887        0.869      200.833       48.268        0.058      333.439        2.752      846.757
12/24/2021  06:32:00     -270.041      -19.782      -17.802      110.035       76.085       63.603    12107.713     5788.964     4045.388        4.778        1.097      270.764       57.221        0.045      333.469        2.801      846.808
12/24/2021  06:33:00     -207.929      -57.925      -26.272       95.642       77.424       44.078     9147.352     5994.514     1942.905        3.218        0.854      215.846       45.214        0.044      333.494        2.843      846.812
12/24/2021  06:34:00     -204.111      -12.346      -22.710       95.791       58.883       46.992     9175.858     3467.173     2208.213        2.859        0.743      204.484       40.406        0.039      333.463        2.791      846.811
12/24/2021  06:35:00     -160.424      -31.341      -17.439       69.277       45.468       42.033     4799.288     2067.300     1766.804        1.783        0.432      163.457       38.278        0.055      333.466        2.797      846.838
12/24/2021  06:36:00     -119.901       19.785      -12.966       57.900       39.089       31.235     3352.376     1527.972      975.616        1.039        0.293      121.523       30.727        0.064      333.408        2.703      846.831
12/24/2021  06:37:00     -274.695       26.915        2.275      112.647       76.168       51.320    12689.439     5801.615     2633.694        4.865        1.056      276.010       47.757        0.030      333.377        2.649      846.840
12/24/2021  06:38:00     -306.910       14.680      -14.961      120.202       87.351       56.879    14448.419     7630.231     3235.166        5.997        1.266      307.261       56.345        0.034      333.352        2.607      846.883
12/24/2021  06:39:00     -169.389       44.468        5.667       98.739       68.853       42.217     9749.398     4740.703     1782.241        2.348        0.814      175.129       44.530        0.065      333.283        2.494      846.872
12/24/2021  06:40:00     -117.130        6.397       -1.678       85.775       43.740       38.178     7357.284     1913.169     1457.543        1.224        0.536      117.304       46.010        0.154      333.318        2.555      846.881
12/24/2021  06:41:00     -154.524      -18.904      -17.291       65.872       49.380       29.044     4339.056     2438.344      843.569        1.608        0.381      155.676       27.144        0.030      333.371        2.642      846.885
12/24/2021  06:42:00     -141.859      -55.888      -17.501       81.196       90.692       36.903     6592.737     8225.085     1361.842        1.986        0.809      152.471       40.342        0.070      333.511        2.872      846.835
12/24/2021  06:43:00      -66.904       10.029        1.890       49.142       38.086       25.844     2414.934     1450.538      667.905        0.456        0.227       67.652       20.259        0.090      333.437        2.753      846.761
12/24/2021  06:44:00     -123.292       11.586        4.729       78.243       36.184       29.862     6121.979     1309.309      891.733        1.184        0.416      123.836       23.061        0.035      333.385        2.665      846.721
12/24/2021  06:45:00       -5.758      -13.268        4.383       50.090       38.791       23.997     2508.989     1504.708      575.839        0.241        0.229       14.463       21.518        2.213      333.343        2.596      846.722
12/24/2021  06:46:00      -92.808       24.339       -5.210      113.536       42.433       37.927    12890.404     1800.549     1438.476        1.268        0.806       95.946       46.579        0.236      333.351        2.609      846.738
12/24/2021  06:47:00     -110.621       40.234        5.272       88.383       57.187       39.435     7811.532     3270.309     1555.093        1.326        0.632      117.711       35.796        0.092      333.292        2.510      846.716
12/24/2021  06:48:00     -206.797       26.915      -23.656       69.123       50.567       41.716     4777.942     2556.981     1740.199        2.656        0.454      208.541       33.949        0.027      333.380        2.656      846.697
12/24/2021  06:49:00     -186.244      -14.351       -4.839       70.771       76.241       37.825     5008.568     5812.720     1430.734        2.358        0.613      186.796       36.554        0.038      333.436        2.748      846.682
12/24/2021  06:50:00     -142.740      -24.369      -20.223       47.697       42.439       32.422     2275.002     1801.033     1051.196        1.325        0.256      144.806       26.247        0.033      333.499        2.852      846.672
12/24/2021  06:51:00     -127.389       10.332      -10.087       29.920       38.002       22.671      895.184     1444.130      513.987        0.964        0.143      127.807       15.797        0.015      333.563        2.961      846.668
12/24/2021  06:52:00     -150.872       -3.244        6.477       92.925       43.237       32.831     8634.999     1869.411     1077.892        1.720        0.579      150.907       32.365        0.046      333.618        3.049      846.690
12/24/2021  06:53:00     -207.972        7.377      -12.074       56.213       45.653       37.291     3159.914     2084.183     1390.653        2.504        0.332      208.103       32.850        0.025      333.601        3.020      846.684
12/24/2021  06:54:00     -158.323      -16.474      -16.716       51.945       71.020       33.811     2698.239     5043.807     1143.178        1.725        0.444      159.178       26.945        0.029      333.547        2.933      846.666
12/24/2021  06:55:00     -174.984       10.614      -12.171       58.859       55.745       33.887     3464.421     3107.493     1148.301        1.930        0.386      175.306       28.497        0.026      333.519        2.885      846.651
12/24/2021  06:56:00     -129.244       29.208       -0.371       52.702       52.442       31.485     2777.480     2750.117      991.325        1.204        0.326      132.503       24.048        0.033      333.573        2.977      846.633
12/24/2021  06:57:00      -80.489        0.269       -6.589       54.957       41.147       27.635     3020.221     1693.050      763.707        0.600        0.274       80.489       27.494        0.117      333.626        3.067      846.635
12/24/2021  06:58:00      -67.031        5.876       -7.908       42.293       37.075       23.683     1788.708     1374.547      560.894        0.416        0.186       67.288       17.024        0.064      333.519        2.887      846.643
12/24/2021  06:59:00      -47.376       -1.457       -6.726       28.137       30.304       21.982      791.712      918.352      483.208        0.224        0.110       47.398       16.673        0.124      333.499        2.854      846.624
12/24/2021  07:00:00      -55.461      -51.637       -9.590       31.524       33.040       25.004      993.738     1091.636      625.223        0.427        0.136       75.778       13.478        0.032      333.697        3.183      846.580
12/24/2021  07:01:00      -10.621      -47.114      -10.629       42.031       53.672       35.855     1766.585     2880.649     1285.588        0.419        0.297       48.296       27.589        0.326      333.678        3.151      846.563
12/24/2021  07:02:00      -18.118       -8.638      -10.444       52.866       36.625       36.262     2794.825     1341.380     1314.909        0.298        0.273       20.071       24.623        1.505      333.618        3.051      846.561
12/24/2021  07:03:00      -51.197       15.919        0.591       38.437       31.150       20.160     1477.415      970.344      406.422        0.286        0.143       53.615       20.825        0.151      333.566        2.965      846.547
12/24/2021  07:04:00      -91.685       54.565      -23.973       37.994       33.974       19.372     1443.554     1154.244      375.259        0.747        0.149      106.693       16.533        0.024      333.390        2.675      846.572
12/24/2021  07:05:00      -53.203       -0.050       -1.658       77.775       41.040       34.775     6049.015     1684.279     1209.305        0.589        0.447       53.203       18.175        0.117      333.383        2.662      846.615
12/24/2021  07:06:00      -94.426       40.452       -2.455       81.456       36.419       29.326     6635.144     1326.345      860.022        0.969        0.441      102.726       31.374        0.093      333.334        2.580      846.650
12/24/2021  07:07:00     -142.529       33.022       -3.615       44.869       46.640       29.019     2013.240     2175.273      842.083        1.322        0.252      146.305       22.794        0.024      333.404        2.696      846.658
12/24/2021  07:08:00     -155.985       31.171       -6.165       56.934       32.854       30.919     3241.473     1079.368      956.005        1.531        0.264      159.069       25.318        0.025      333.378        2.655      846.665
12/24/2021  07:09:00     -137.519       37.311        1.312       34.607       34.470       27.351     1197.626     1188.197      748.069        1.172        0.157      142.491       16.934        0.014      333.427        2.737      846.652
12/24/2021  07:10:00     -109.078       23.612       -1.764       43.248       38.229       22.988     1870.422     1461.490      528.461        0.816        0.193      111.605       18.058        0.026      333.511        2.874      846.648
12/24/2021  07:11:00     -122.494       13.241       -0.241       48.696       31.154       23.511     2371.268      970.566      552.762        0.954        0.195      123.208       20.947        0.029      333.551        2.942      846.675
12/24/2021  07:12:00      -94.818       20.187      -13.838       35.456       18.771       18.058     1257.122      352.355      326.106        0.576        0.097       96.943       16.149        0.028      333.497        2.849      846.711
12/24/2021  07:13:00      -92.173       23.273        0.694       40.342       31.818       21.253     1627.474     1012.395      451.697        0.606        0.155       95.065       20.512        0.047      333.501        2.858      846.746
12/24/2021  07:14:00      -73.500       19.482        8.991       46.403       29.614       21.258     2153.229      876.991      451.917        0.467        0.174       76.038       20.721        0.074      333.459        2.789      846.744
12/24/2021  07:15:00      -70.210        6.602        1.143       38.645       31.788       26.076     1493.448     1010.485      679.955        0.408        0.159       70.520       19.956        0.080      333.404        2.697      846.737
12/24/2021  07:16:00     -107.082       15.386        2.923       41.204       33.695       25.380     1697.742     1135.371      644.155        0.759        0.174      108.182       18.624        0.030      333.416        2.718      846.739
12/24/2021  07:17:00      -84.782      -18.770       -0.764       58.468       35.129       29.264     3418.565     1234.080      856.402        0.652        0.275       86.835       28.097        0.105      333.425        2.731      846.760
12/24/2021  07:18:00     -157.264       -7.189       -1.089       69.150       34.922       38.639     4781.655     1219.537     1492.982        1.614        0.375      157.428       38.373        0.059      333.409        2.707      846.802
12/24/2021  07:19:00     -177.344      -25.276      -13.331       36.985       29.075       24.065     1367.857      845.373      579.110        1.753        0.140      179.136       19.117        0.011      333.491        2.841      846.819
12/24/2021  07:20:00     -102.126      -11.610       -1.285       57.388       29.985       26.807     3293.334      899.083      718.622        0.774        0.246      102.784       29.203        0.081      333.468        2.802      846.845
12/24/2021  07:21:00      -77.037      -19.790       -7.518       46.359       50.150       24.355     2149.132     2515.023      593.189        0.582        0.263       79.538       20.690        0.068      333.520        2.890      846.836
12/24/2021  07:22:00      -36.431       -2.469       12.792       45.795       24.277       17.134     2097.196      589.353      293.584        0.224        0.149       36.515       16.307        0.199      333.510        2.871      846.843
12/24/2021  07:23:00      -62.201      -14.703       -0.791       60.713       31.069       27.271     3686.069      965.291      743.704        0.474        0.270       63.915       30.251        0.224      333.498        2.853      846.902
12/24/2021  07:24:00      -70.709       -4.009        3.116       75.263       51.356       36.560     5664.447     2637.472     1336.612        0.733        0.482       70.823       29.162        0.170      333.481        2.823      846.970
12/24/2021  07:25:00      -94.149       -4.265       -2.311       72.638       52.102       31.149     5276.278     2714.585      970.278        0.892        0.448       94.246       33.167        0.124      333.415        2.714      846.983
12/24/2021  07:26:00      -80.927       21.301      -10.391       30.569       47.893       27.968      934.436     2293.729      782.234        0.556        0.201       83.683       18.851        0.051      333.374        2.647      846.964
12/24/2021  07:27:00      -64.185       -4.563       -8.367       30.227       31.896       25.918      913.695     1017.332      671.731        0.341        0.130       64.347       12.629        0.039      333.468        2.802      846.903
12/24/2021  07:28:00       45.358      -23.752      -16.198       50.005       67.359       31.766     2500.538     4537.289     1009.084        0.546        0.402       51.200       36.815        0.517      333.413        2.712      846.842
12/24/2021  07:29:00       81.399      -69.700      -34.715       32.007       55.550       31.208     1024.478     3085.794      973.921        0.889        0.254      107.163       28.660        0.072      333.494        2.845      846.853
12/24/2021  07:30:00       49.696      -94.750      -19.817       51.251       73.968       37.396     2626.645     5471.217     1398.438        1.067        0.475      106.992       38.824        0.132      333.526        2.899      846.840
12/24/2021  07:31:00       90.236     -201.694      -39.510       27.762       23.141       14.501      770.752      535.491      210.287        2.595        0.076      220.960       13.577        0.004      333.508        2.867      846.878
12/24/2021  07:32:00       85.755     -164.667      -27.882       39.702       31.404       26.291     1576.261      986.217      691.198        1.925        0.163      185.659       24.205        0.017      333.472        2.811      846.921
12/24/2021  07:33:00      102.878     -127.467      -36.618       50.349       59.631       33.064     2535.052     3555.835     1093.233        1.768        0.359      163.804       28.500        0.030      333.503        2.859      846.933
12/24/2021  07:34:00       98.135      -66.480      -20.518       42.843       58.523       31.117     1835.552     3424.989      968.295        1.035        0.311      118.533       25.879        0.048      333.412        2.710      846.901
12/24/2021  07:35:00       76.671      -31.279      -16.785       72.738       57.478       33.227     5290.822     3303.718     1104.046        0.842        0.485       82.806       19.502        0.055      333.393        2.680      846.923
12/24/2021  07:36:00       62.867      -46.238      -30.937       36.495       50.296       28.452     1331.908     2529.658      809.528        0.586        0.234       78.040       17.705        0.051      333.459        2.787      846.940
12/24/2021  07:37:00      -21.885       -7.070      -22.834       42.358       66.346       37.022     1794.184     4401.813     1370.611        0.431        0.378       22.999       19.657        0.731      333.414        2.712      847.011
12/24/2021  07:38:00     -106.211        9.177       -4.247       84.549       47.567       30.854     7148.517     2262.591      951.977        1.087        0.518      106.607       33.828        0.101      333.450        2.773      847.079
12/24/2021  07:39:00     -127.534       56.917       -1.847       69.268       45.651       37.197     4798.033     2084.015     1383.583        1.389        0.413      139.659       38.511        0.076      333.338        2.587      847.107
12/24/2021  07:40:00     -161.874       77.236       -9.349       61.433       49.943       40.264     3774.034     2494.266     1621.162        2.007        0.394      179.356       38.714        0.047      333.182        2.328      847.096
12/24/2021  07:41:00     -167.509       65.868      -14.743       53.775       40.029       28.097     2891.704     1602.346      789.454        1.895        0.264      179.994       24.016        0.018      333.158        2.291      847.104
12/24/2021  07:42:00      -59.267       88.932      -13.818       50.396       28.398       19.061     2539.770      806.441      363.325        0.766        0.185      106.871        9.613        0.008      333.193        2.349      847.071
12/24/2021  07:43:00        8.540       87.773      -11.206       22.087       33.402       19.189      487.823     1115.704      368.219        0.494        0.099       88.187       15.053        0.029      333.377        2.652      847.021
12/24/2021  07:44:00       -0.985       44.255      -21.958       32.793       29.658       19.727     1075.353      879.614      389.157        0.239        0.117       44.266       10.057        0.052      333.448        2.770      847.049
12/24/2021  07:45:00       15.087      -18.701      -13.335       17.736       21.929       16.850      314.578      480.867      283.919        0.092        0.054       24.028       14.548        0.367      333.462        2.794      847.063
12/24/2021  07:46:00       84.469       44.050      -16.858       54.889       45.585       27.153     3012.824     2077.963      737.310        0.759        0.291       95.264       23.674        0.062      333.384        2.665      846.992
12/24/2021  07:47:00       19.427       -5.080       -0.103       50.149       82.318       43.826     2514.969     6776.231     1920.732        0.581        0.561       20.080       30.672        2.333      333.328        2.573      846.865
12/24/2021  07:48:00       52.076       -5.462      -15.354       43.926       49.688       33.023     1929.488     2468.918     1090.513        0.423        0.274       52.361       23.536        0.202      333.246        2.436      846.861
12/24/2021  07:49:00      -19.266       35.272       -8.087       43.205       27.374       14.181     1866.657      749.330      201.093        0.225        0.141       40.191        7.136        0.032      333.281        2.495      846.923
12/24/2021  07:50:00      -21.793       50.668       -7.569       36.626       24.275       13.695     1341.443      589.289      187.547        0.261        0.106       55.156       14.590        0.070      333.321        2.559      846.919
12/24/2021  07:51:00       44.961       26.885       -9.027       33.467       16.260       10.356     1120.028      264.399      107.244        0.216        0.075       52.386       11.335        0.047      333.307        2.538      846.885
12/24/2021  07:52:00      -10.454       40.641       -4.271       22.089       23.811       14.549      487.946      566.983      211.668        0.152        0.063       41.964       13.487        0.103      333.328        2.574      846.916
12/24/2021  07:53:00      -17.275       63.471       -6.468       20.978       37.017       16.878      440.095     1370.225      284.866        0.323        0.105       65.780       17.995        0.075      333.365        2.635      846.909
12/24/2021  07:54:00       10.504       65.905      -12.484       36.529       24.409       13.971     1334.349      595.776      195.201        0.337        0.106       66.737        8.385        0.016      333.401        2.693      846.906
12/24/2021  07:55:00       31.697       76.282      -13.615       23.982       24.415       20.152      575.153      596.069      406.106        0.429        0.079       82.605       15.632        0.036      333.393        2.680      846.882
12/24/2021  07:56:00      152.221       92.734      -27.238       58.956       25.075       22.426     3475.762      628.749      502.938        1.856        0.230      178.244       21.934        0.015      333.311        2.541      846.881
12/24/2021  07:57:00       50.274        5.963      -11.726       72.493       46.258       31.417     5255.300     2139.837      987.027        0.554        0.419       50.626       15.063        0.089      333.263        2.465      846.846
12/24/2021  07:58:00       57.723      -98.240      -23.360       67.552       72.663       44.600     4563.239     5279.944     1989.136        1.268        0.592      113.943       50.310        0.195      333.323        2.562      846.845
12/24/2021  07:59:00       11.337      -38.396      -11.044       66.920       99.128       38.310     4478.325     9826.349     1467.632        0.875        0.789       40.034       46.486        1.348      333.426        2.734      846.878
12/24/2021  08:00:00      -72.201       42.083       -7.039       48.972       37.896       27.785     2398.225     1436.132      772.005        0.582        0.230       83.571       20.143        0.058      333.344        2.600      846.923
12/24/2021  08:01:00     -106.184       28.791        1.084       57.272       40.516       31.135     3280.120     1641.526      969.389        0.900        0.295      110.018       24.794        0.051      333.408        2.703      846.938
12/24/2021  08:02:00      -73.052      -31.154       -8.770       54.491       66.864       25.293     2969.309     4470.836      639.754        0.723        0.404       79.417       13.991        0.031      333.407        2.703      846.928
12/24/2021  08:03:00      -59.975      -17.924       -7.086       51.882       40.461       22.229     2691.778     1637.074      494.123        0.439        0.241       62.596       17.014        0.074      333.455        2.781      846.927
12/24/2021  08:04:00      -41.770       -8.095       -8.086       21.597       27.344       20.331      466.425      747.705      413.333        0.175        0.081       42.547       14.784        0.121      333.496        2.850      846.915
12/24/2021  08:05:00      -27.929       21.962       -6.428       29.372       12.432       13.305      862.739      154.558      177.030        0.125        0.060       35.530       13.974        0.155      333.455        2.780      846.919
12/24/2021  08:06:00       30.859      -20.424      -28.503       38.854       58.140       28.217     1509.621     3380.202      796.183        0.393        0.284       37.005       28.703        0.602      333.503        2.860      846.897
12/24/2021  08:07:00       65.272      -36.212      -40.754       40.276       41.945       25.932     1622.155     1759.417      672.478        0.564        0.203       74.644        8.007        0.012      333.421        2.725      846.867
12/24/2021  08:08:00        7.590       -5.713      -20.436       25.331       28.720       22.111      641.677      824.819      488.898        0.123        0.098        9.500        9.132        0.924      333.419        2.722      846.913
12/24/2021  08:09:00        8.696       24.932       -2.756       25.796       20.733       15.224      665.448      429.865      231.767        0.102        0.066       26.405        7.742        0.086      333.310        2.541      846.971
12/24/2021  08:10:00       53.991        3.414       -3.809       27.865       34.913       19.765      776.484     1218.923      390.637        0.266        0.119       54.099       13.186        0.059      333.301        2.527      846.937
12/24/2021  08:11:00       70.371       10.740      -11.685       43.479       31.931       18.359     1890.444     1019.620      337.063        0.422        0.162       71.186       20.746        0.085      333.272        2.482      846.896
12/24/2021  08:12:00       63.656        8.768      -17.458       45.842       42.826       30.804     2101.470     1834.058      948.890        0.466        0.244       64.257       19.827        0.095      333.293        2.514      846.853
12/24/2021  08:13:00       24.232      -17.793      -13.435       49.784       36.448       37.806     2478.452     1328.460     1429.264        0.316        0.262       30.063       30.865        1.054      333.231        2.410      846.861
12/24/2021  08:14:00       13.635      -18.536      -14.234       18.138       35.958       15.803      328.988     1292.990      249.733        0.130        0.094       23.011       18.776        0.666      333.220        2.393      846.939
12/24/2021  08:15:00       77.348       39.147      -12.225       67.227       25.438       13.208     4519.485      647.090      174.443        0.650        0.267       86.690       21.934        0.064      333.189        2.340      846.959
12/24/2021  08:16:00       40.575       -1.881      -22.135       80.279       50.139       28.173     6444.644     2513.931      793.698        0.594        0.488       40.618       16.636        0.168      333.282        2.496      846.920
12/24/2021  08:17:00       -0.864      -31.107      -10.738       34.962       28.205       19.259     1222.361      795.512      370.909        0.174        0.119       31.119       15.326        0.243      333.271        2.477      846.982
12/24/2021  08:18:00       61.361      -55.692      -21.814       28.518       19.566       17.523      813.280      382.833      307.073        0.442        0.075       82.866       14.449        0.030      333.279        2.490      847.015
12/24/2021  08:19:00      115.051        8.832      -19.199       35.510       27.237       16.692     1260.988      741.829      278.638        0.798        0.114      115.390        7.993        0.005      333.197        2.353      846.996
12/24/2021  08:20:00       57.118       20.273       -3.578       40.967       26.411       16.013     1678.267      697.538      256.411        0.316        0.132       60.609       20.985        0.120      333.160        2.292      846.989
12/24/2021  08:21:00       26.026       22.885        0.400       28.056       21.771       14.951      787.161      473.973      223.518        0.134        0.074       34.657       14.501        0.175      333.191        2.344      847.027
12/24/2021  08:22:00       45.916       57.093      -11.521       24.895       18.212       15.919      619.757      331.684      253.423        0.335        0.060       73.266       11.094        0.023      333.290        2.510      847.055
12/24/2021  08:23:00       -2.472       77.406       -3.357       23.444       30.875       18.218      549.610      953.270      331.878        0.392        0.092       77.445       17.752        0.053      333.433        2.744      847.103
12/24/2021  08:24:00        7.634       70.066       -3.627       25.491       29.134       17.739      649.783      848.784      314.687        0.340        0.091       70.481       13.046        0.034      333.529        2.906      847.099
12/24/2021  08:25:00      -20.325       43.488       -7.909       24.691       24.148       15.933      609.652      583.126      253.870        0.191        0.072       48.003        9.530        0.039      333.519        2.887      847.129
12/24/2021  08:26:00      -36.218        7.364      -18.410       23.155       16.921       13.645      536.137      286.327      186.197        0.136        0.050       36.959        6.679        0.033      333.371        2.642      847.213
12/24/2021  08:27:00        8.036      -28.729      -18.423       14.401       21.232       14.033      207.376      450.814      196.917        0.104        0.043       29.832        4.144        0.019      333.482        2.829      847.253
12/24/2021  08:28:00       20.393      -31.031      -16.237       36.643       31.202       27.283     1342.699      973.553      744.368        0.235        0.153       37.132       21.597        0.338      333.521        2.891      847.252
12/24/2021  08:29:00      105.982      -87.413      -60.676       63.432       66.738       45.201     4023.567     4453.993     2043.146        1.654        0.526      137.380       41.513        0.091      333.432        2.744      847.203
12/24/2021  08:30:00       92.361     -113.857      -40.285       59.010       79.816       44.341     3482.217     6370.630     1966.086        1.747        0.591      146.608       36.788        0.063      333.553        2.941      847.138
12/24/2021  08:31:00       79.326      -28.601      -26.537       89.254       65.979       48.419     7966.320     4353.237     2344.403        1.124        0.733       84.325       36.548        0.188      333.645        3.096      847.113
12/24/2021  08:32:00       95.989     -139.157      -49.763       89.399       74.779       32.987     7992.252     5591.831     1088.114        2.286        0.734      169.052       39.096        0.053      333.678        3.148      847.120
12/24/2021  08:33:00       80.306     -110.531      -29.830       58.690       83.828       40.592     3444.532     7027.125     1647.693        1.584        0.606      136.624       34.660        0.064      333.654        3.110      847.057
12/24/2021  08:34:00       34.917      -23.864      -16.853       39.453       57.023       34.899     1556.530     3251.656     1217.940        0.405        0.301       42.293       15.800        0.140      333.667        3.134      847.049
12/24/2021  08:35:00       -4.863      -34.467        2.118       44.428       40.370       26.888     1973.883     1629.736      722.946        0.277        0.216       34.808       24.976        0.515      333.772        3.307      847.142
12/24/2021  08:36:00        8.742      -42.123      -17.873       25.404       34.226       24.902      645.343     1171.434      620.108        0.230        0.122       43.021        7.617        0.031      333.841        3.421      847.224
12/24/2021  08:37:00      -49.197       15.015       -2.688       57.092       32.506       28.367     3259.472     1056.644      804.684        0.389        0.256       51.437       23.869        0.215      333.749        3.269      847.232
12/24/2021  08:38:00      -82.199      -17.389      -14.092       69.434       43.478       35.393     4821.133     1890.321     1252.663        0.761        0.398       84.018       31.992        0.145      333.685        3.163      847.227
12/24/2021  08:39:00     -161.163       14.261      -21.084       65.128       44.795       34.635     4241.667     2006.600     1199.553        1.703        0.372      161.793       17.283        0.011      333.633        3.076      847.242
12/24/2021  08:40:00      -85.012       21.782       -6.413       45.046       34.449       27.101     2029.152     1186.704      734.485        0.585        0.198       87.758       20.311        0.054      333.519        2.887      847.248
12/24/2021  08:41:00      -52.814       12.150      -19.377       54.792       22.643       17.805     3002.142      512.719      317.022        0.357        0.192       54.194       10.657        0.039      333.569        2.970      847.221
12/24/2021  08:42:00       -1.672       20.661       -9.720       27.615       12.049       17.179      762.578      145.181      295.128        0.086        0.060       20.729       12.291        0.352      333.556        2.947      847.233
12/24/2021  08:43:00      -32.121       10.746      -14.372       37.742       15.876       14.837     1424.435      252.044      220.145        0.162        0.095       33.871       13.913        0.169      333.629        3.070      847.271
12/24/2021  08:44:00      -34.396       -3.727       -9.941       19.300       13.132        7.916      372.474      172.450       62.659        0.095        0.030       34.597        3.840        0.012      333.671        3.140      847.274
12/24/2021  08:45:00      -19.545      -48.123      -28.279       12.121       22.496       12.951      146.920      506.062      167.719        0.216        0.041       51.941        5.452        0.011      333.685        3.163      847.298
12/24/2021  08:46:00       14.354      -85.381      -37.067       59.673       27.338       20.504     3560.827      747.378      420.408        0.680        0.236       86.580       23.755        0.075      333.767        3.299      847.318
12/24/2021  08:47:00       99.132      -87.339      -29.976       55.711       59.691       35.313     3103.744     3563.050     1247.031        1.313        0.396      132.119       29.021        0.048      333.699        3.185      847.299
12/24/2021  08:48:00      103.122     -191.989      -40.871       26.346       45.728       22.399      694.089     2091.047      501.712        2.622        0.164      217.931       17.415        0.006      333.658        3.113      847.261
12/24/2021  08:49:00      143.360     -190.232      -52.630       53.531       57.245       37.436     2865.534     3276.950     1401.471        3.353        0.377      238.202       33.908        0.020      333.689        3.165      847.243
12/24/2021  08:50:00      167.842     -250.821      -67.505       53.895       70.986       34.765     2904.686     5039.051     1208.590        5.239        0.458      301.798       29.317        0.009      333.685        3.158      847.254
12/24/2021  08:51:00      151.481     -268.695      -60.690       43.842       49.430       32.777     1922.083     2443.309     1074.359        5.213        0.272      308.454       32.024        0.011      333.606        3.029      847.272
12/24/2021  08:52:00       33.014     -135.758      -16.342       58.234       55.764       42.153     3391.222     3109.646     1776.869        1.403        0.414      139.714       25.775        0.034      333.702        3.190      847.326
12/24/2021  08:53:00      -55.264       -6.440        2.211       77.163       54.131       48.452     5954.079     2930.199     2347.584        0.716        0.562       55.638       40.819        0.538      333.743        3.258      847.397
12/24/2021  08:54:00     -190.526      -17.592      -13.469      157.897       68.674       63.533    24931.398     4716.173     4036.478        3.523        1.684      191.337       70.255        0.135      333.589        3.000      847.530
12/24/2021  08:55:00     -202.876      -14.617      -25.817       95.455       58.502       33.476     9111.686     3422.430     1120.645        2.784        0.683      203.401       27.246        0.018      333.595        3.012      847.558
12/24/2021  08:56:00     -158.505      -17.726      -15.910       79.601       39.975       34.703     6336.356     1597.992     1204.295        1.741        0.457      159.493       19.784        0.015      333.631        3.073      847.482
12/24/2021  08:57:00     -129.880      -56.217      -12.071       47.339       82.573       39.457     2241.006     6818.222     1556.871        1.539        0.531      141.524       24.944        0.031      333.627        3.064      847.457
12/24/2021  08:58:00      -88.728        1.865       -5.676       57.078       51.702       29.568     3257.894     2673.104      874.296        0.736        0.340       88.748       17.093        0.037      333.649        3.103      847.463
12/24/2021  08:59:00      -57.414      -19.605       -7.402       47.471       33.511       27.286     2253.520     1122.983      744.499        0.393        0.206       60.669        5.106        0.007      333.675        3.147      847.468
12/24/2021  09:00:00      -90.273       26.091        8.347       61.292       37.631       24.123     3756.677     1416.060      581.918        0.733        0.288       93.968       18.457        0.039      333.652        3.111      847.442
12/24/2021  09:01:00      -46.358       25.990       -7.747       27.226       25.963       22.175      741.242      674.099      491.718        0.240        0.095       53.147       20.325        0.146      333.615        3.048      847.405
12/24/2021  09:02:00     -104.584      -50.763       -4.325       80.411       84.545       42.587     6466.008     7147.872     1813.645        1.448        0.771      116.252       37.922        0.106      334.007        3.694      847.382
12/24/2021  09:03:00      -59.023        6.164        1.922       60.160      108.492       37.510     3619.241    11770.481     1407.034        1.016        0.840       59.344       16.970        0.082      334.403        4.351      847.297
12/24/2021  09:04:00      -46.665      -21.869       -9.333       84.958      137.159       68.485     7217.779    18812.535     4690.185        1.673        1.536       51.536       39.604        0.591      334.467        4.458      847.224
12/24/2021  09:05:00     -130.019     -184.800      -29.838       90.264      101.013       49.541     8147.593    10203.561     2454.273        3.637        1.040      225.956       40.170        0.032      334.669        4.791      847.152
12/24/2021  09:06:00      -47.635      -28.017      -23.394       77.953       65.666       40.110     6076.691     4312.030     1608.824        0.780        0.600       55.264       41.955        0.576      334.641        4.745      847.171
12/24/2021  09:07:00      -62.989       -0.204       -7.954      131.478       71.664       60.174    17286.501     5135.798     3620.861        1.503        1.302       62.989       47.689        0.573      334.184        3.988      847.250
12/24/2021  09:08:00     -114.305       69.281      -12.699       76.054       46.311       35.465     5784.231     2144.719     1257.770        1.361        0.459      133.662       30.606        0.052      334.172        3.968      847.343
12/24/2021  09:09:00       22.449       24.188       -6.779       37.009       39.032       15.007     1369.631     1523.515      225.211        0.213        0.156       33.000       10.292        0.097      334.383        4.320      847.329
12/24/2021  09:10:00      -61.501      -12.280       -9.354       26.077       23.123       13.939      680.019      534.693      194.309        0.271        0.070       62.715       12.789        0.042      334.131        3.902      847.298
12/24/2021  09:11:00     -106.697        4.854      -13.374       61.349       28.769       24.203     3763.759      827.676      585.785        0.838        0.259      106.807       20.504        0.037      334.171        3.968      847.321
12/24/2021  09:12:00     -123.715      -56.912      -25.540       84.057       67.272       46.550     7065.617     4525.587     2166.911        1.647        0.688      136.178       14.927        0.012      334.267        4.126      847.333
12/24/2021  09:13:00     -125.721       19.697       -1.606      103.599       71.267       48.657    10732.766     5078.957     2367.460        1.718        0.909      127.254       47.658        0.140      334.233        4.069      847.327
12/24/2021  09:14:00     -234.362      -22.248      -26.321       82.951       68.623       52.458     6880.810     4709.131     2751.809        3.522        0.717      235.416       40.028        0.029      334.177        3.973      847.329
12/24/2021  09:15:00      -63.781     -118.561      -27.235       72.385       71.035       41.281     5239.619     5045.916     1704.118        1.543        0.599      134.628       34.776        0.067      334.320        4.213      847.324
12/24/2021  09:16:00        8.591      -79.626      -42.121       42.653       70.375       30.125     1819.285     4952.651      907.488        0.793        0.384       80.088       25.037        0.098      334.411        4.365      847.348
12/24/2021  09:17:00       19.887     -128.305      -27.779       92.232       76.307       40.814     8506.736     5822.714     1665.816        1.681        0.800      129.837       33.899        0.068      334.230        4.062      847.355
12/24/2021  09:18:00       99.847     -192.229      -52.105       63.741       66.462       45.674     4062.876     4417.218     2086.118        3.010        0.528      216.613       30.778        0.020      334.119        3.876      847.344
12/24/2021  09:19:00      101.493     -207.018      -39.206       55.423       58.684       40.901     3071.726     3443.808     1672.909        3.144        0.409      230.558       37.788        0.027      334.035        3.739      847.373
12/24/2021  09:20:00      134.183     -211.702      -49.703       41.216       59.475       22.025     1698.797     3537.282      485.105        3.551        0.286      250.645       19.872        0.006      333.968        3.626      847.377
12/24/2021  09:21:00       98.579     -163.753      -34.069       31.879       46.004       18.163     1016.250     2116.357      329.901        2.058        0.173      191.136       15.352        0.006      333.989        3.664      847.391
12/24/2021  09:22:00       74.696      -81.189      -25.172       36.279       32.441       21.242     1316.177     1052.395      451.234        0.781        0.141      110.323       13.075        0.014      334.002        3.689      847.392
12/24/2021  09:23:00       43.852      -56.699      -21.110       25.045       36.383       14.381      627.271     1323.740      206.799        0.387        0.108       71.678       14.758        0.042      333.984        3.658      847.406
12/24/2021  09:24:00       64.980      -69.599      -31.186       48.207       53.966       31.203     2323.928     2912.323      973.649        0.812        0.310       95.218       19.499        0.042      334.130        3.899      847.411
12/24/2021  09:25:00       43.793      -17.503      -30.612       50.984       49.362       31.706     2599.347     2436.563     1005.302        0.460        0.302       47.161       25.322        0.288      334.044        3.758      847.378
12/24/2021  09:26:00       40.022      -33.249      -31.118       29.747       38.731       22.503      884.882     1500.077      506.387        0.328        0.145       52.031       17.778        0.117      333.946        3.596      847.437
12/24/2021  09:27:00       57.691       -9.088      -30.476       39.857       59.104       39.355     1588.607     3493.322     1548.836        0.548        0.332       58.402       30.957        0.281      333.871        3.470      847.431
12/24/2021  09:28:00       13.338      -40.749       -6.740       43.765       25.692       22.264     1915.364      660.104      495.705        0.248        0.154       42.876       13.707        0.102      333.881        3.487      847.390
12/24/2021  09:29:00       -5.383       16.576       -4.865       28.721       35.229       13.543      824.890     1241.057      183.406        0.129        0.112       17.428       12.685        0.530      333.880        3.487      847.490
12/24/2021  09:30:00       -2.599       57.501       -4.149       32.394       24.167       15.427     1049.356      584.047      237.984        0.260        0.094       57.560        8.282        0.021      333.874        3.477      847.542
12/24/2021  09:31:00      -35.527       10.290       -5.366       36.106       32.033       17.321     1303.614     1026.096      300.010        0.201        0.131       36.987       14.990        0.164      333.872        3.472      847.581
12/24/2021  09:32:00        7.240       -8.708      -10.668       10.261       14.793       13.073      105.289      218.818      170.898        0.037        0.025       11.325        4.123        0.133      333.902        3.522      847.584
12/24/2021  09:33:00      -34.822       13.593      -16.205       50.426       23.021       26.839     2542.762      529.963      720.331        0.273        0.190       37.381       22.847        0.374      333.894        3.509      847.580
12/24/2021  09:34:00       17.481      -14.113       -5.907       51.650       50.162       39.792     2667.765     2516.228     1583.366        0.365        0.338       22.468       37.252        2.749      334.081        3.819      847.585
12/24/2021  09:35:00       14.163      -38.134      -21.686       56.355       47.248       32.487     3175.861     2232.351     1055.392        0.429        0.323       40.680       26.245        0.416      334.166        3.959      847.567
12/24/2021  09:36:00     -154.247      -59.923      -18.843       79.562       80.059       45.214     6330.053     6409.402     2044.346        2.126        0.739      165.478       44.221        0.071      334.323        4.217      847.594
12/24/2021  09:37:00      -66.877      -86.318      -16.102      105.171       92.238       32.502    11060.853     8507.915     1056.381        1.640        1.031      109.194       20.115        0.034      334.432        4.398      847.607
12/24/2021  09:38:00     -162.663      -81.215      -17.829      127.213       83.066       56.275    16183.249     6899.883     3166.873        2.981        1.313      181.811       39.649        0.048      334.617        4.703      847.439
12/24/2021  09:39:00     -245.476       44.377       -4.278      154.926      134.799       72.377    24002.201    18170.824     5238.377        5.482        2.371      249.455       68.519        0.075      334.368        4.292      847.616
12/24/2021  09:40:00      -93.241        6.636        5.547      114.338       68.928       53.991    13073.225     4751.119     2915.032        1.475        1.037       93.477       47.986        0.264      334.309        4.195      847.638
12/24/2021  09:41:00     -391.586      -91.240      -30.189      205.621      201.244       97.911    42280.186    40499.318     9586.561       12.745        4.618      402.075       79.889        0.039      334.420        4.377      847.740
12/24/2021  09:42:00     -286.316       75.298       -4.327      220.929      181.545      104.291    48809.813    32958.406    10876.572        9.014        4.632      296.052      103.168        0.121      334.425        4.387      847.605
12/24/2021  09:43:00     -213.496      -17.250      -28.453      201.285      109.126       87.226    40515.810    11908.383     7608.442        5.335        3.002      214.191       96.181        0.202      334.427        4.391      847.565
12/24/2021  09:44:00     -456.907       58.314      -12.937      267.108      187.480      116.537    71346.449    35148.777    13580.837       16.618        6.004      460.613      125.641        0.074      334.318        4.208      847.536
12/24/2021  09:45:00     -240.175       57.692       -5.995      166.550      126.562       84.352    27738.819    16017.907     7115.309        5.595        2.544      247.007       60.637        0.060      334.236        4.072      847.488
12/24/2021  09:46:00     -272.679      127.044       -8.599      178.584      142.159       82.855    31892.113    20209.150     6864.915        7.476        2.948      300.822       58.749        0.038      334.099        3.845      847.402
12/24/2021  09:47:00     -273.608       80.373       -0.552      230.744      123.136       82.986    53242.908    15162.567     6886.666        7.829        3.765      285.169       76.672        0.072      333.953        3.604      847.306
12/24/2021  09:48:00     -311.868        1.363       -4.854      174.331      176.022       82.013    30391.205    30983.861     6726.078        8.268        3.405      311.871       72.904        0.055      333.904        3.522      847.325
12/24/2021  09:49:00     -298.382       56.044      -20.742      185.838      110.094       76.108    34535.861    12120.727     5792.428        7.252        2.622      303.600       82.318        0.074      333.872        3.469      847.340
12/24/2021  09:50:00     -245.036      -56.259      -31.933      221.221       99.204      102.138    48938.576     9841.369    10432.207        6.671        3.461      251.412      106.136        0.178      333.851        3.433      847.342
12/24/2021  09:51:00     -454.735       90.119      -32.284      318.302      170.634      107.258   101316.052    29116.072    11504.177       17.892        7.097      463.579      130.940        0.080      333.810        3.365      847.340
12/24/2021  09:52:00     -378.189      130.862      -26.327      204.575      154.087      101.598    41850.876    23742.919    10322.149       11.837        3.796      400.190       98.668        0.061      333.778        3.313      847.292
12/24/2021  09:53:00     -293.694      120.625      -12.649      249.247      130.666       84.596    62123.897    17073.536     7156.456        9.364        4.318      317.500      103.541        0.106      333.782        3.320      847.253
12/24/2021  09:54:00     -296.688       81.754       -6.373      181.958      108.154       70.040    33108.542    11697.259     4905.654        7.222        2.486      307.746       77.712        0.064      333.764        3.289      847.252
12/24/2021  09:55:00     -232.879       87.005       -4.432      146.299       97.453       66.117    21403.491     9496.996     4371.462        4.854        1.764      248.601       53.917        0.047      333.770        3.299      847.309
12/24/2021  09:56:00     -503.719      -12.354      -20.501      244.007      128.349      100.025    59539.482    16473.508    10004.962       17.015        4.301      503.870       91.522        0.033      333.774        3.305      847.412
12/24/2021  09:57:00     -355.685        6.760      -16.109      195.727      126.929       90.421    38309.224    16110.899     8175.897        9.469        3.130      355.749       84.851        0.057      333.823        3.386      847.454
12/24/2021  09:58:00      -92.013       -3.191       10.959      148.263       97.228       77.449    21981.826     9453.225     5998.383        2.301        1.872       92.068       59.669        0.420      333.822        3.387      847.410
12/24/2021  09:59:00     -236.893       29.713        3.741      138.855       80.640       62.454    19280.598     6502.744     3900.502        4.334        1.484      238.749       64.980        0.074      333.865        3.457      847.432
12/24/2021  10:00:00     -295.829       35.950      -25.971      111.421       97.763       63.271    12414.682     9557.517     4003.157        5.772        1.299      298.005       39.933        0.018      333.929        3.562      847.472
12/24/2021  10:01:00     -259.096       65.219        0.591      108.526       74.082       60.606    11777.969     5488.193     3673.125        4.616        1.047      267.178       44.536        0.028      333.966        3.626      847.463
12/24/2021  10:02:00     -121.100      -21.860      -12.638       71.537       48.104       33.941     5117.540     2313.959     1152.001        1.194        0.429      123.057       33.850        0.076      334.017        3.712      847.449
12/24/2021  10:03:00     -144.516       -3.778      -22.341       75.718       58.381       41.587     5733.173     3408.381     1729.500        1.613        0.544      144.566       32.079        0.049      334.177        3.976      847.436
12/24/2021  10:04:00     -186.208      -26.221      -12.009       93.808       73.919       47.160     8799.934     5464.033     2224.046        2.599        0.824      188.045       45.155        0.058      334.237        4.074      847.459
12/24/2021  10:05:00     -189.522      -34.190      -17.035      109.166       63.654       54.924    11917.144     4051.886     3016.657        2.818        0.949      192.582       49.865        0.067      334.229        4.059      847.543
12/24/2021  10:06:00      -89.538       11.263       -8.195       83.775       66.741       50.273     7018.262     4454.310     2527.345        1.110        0.700       90.244       42.304        0.220      334.210        4.031      847.491
12/24/2021  10:07:00      -33.047      -31.061      -10.814       47.055       58.225       40.560     2214.172     3390.164     1645.126        0.471        0.362       45.353       33.707        0.552      334.415        4.371      847.476
12/24/2021  10:08:00        7.944        1.989       -9.542       49.559       33.830       33.559     2456.127     1144.445     1126.223        0.244        0.236        8.189       18.574        5.144      334.492        4.501      847.492
12/24/2021  10:09:00     -104.444       -9.868      -13.660       82.273       56.042       37.326     6768.911     3140.703     1393.200        1.125        0.565      104.910       31.248        0.089      334.486        4.489      847.538
12/24/2021  10:10:00     -202.978      -80.241      -21.715       90.173       90.250       51.727     8131.218     8145.034     2675.655        3.353        0.948      218.263       41.912        0.037      334.515        4.534      847.582
12/24/2021  10:11:00      -97.890      -33.036       -9.632       76.123       76.516       52.637     5794.704     5854.658     2770.622        1.259        0.721      103.315       45.071        0.190      334.608        4.691      847.609
12/24/2021  10:12:00      -92.409       20.100      -13.622       68.997       62.260       29.122     4760.613     3876.347      848.072        0.931        0.474       94.570       29.811        0.099      334.663        4.783      847.586
12/24/2021  10:13:00      -89.980      -58.887      -18.856       66.113       50.772       30.321     4370.892     2577.786      919.339        0.989        0.393      107.536       29.795        0.077      334.782        4.983      847.591
12/24/2021  10:14:00      -99.606      -49.315      -29.373      108.282      102.406       43.023    11724.896    10486.959     1851.009        1.864        1.203      111.145       38.700        0.121      334.766        4.954      847.668
12/24/2021  10:15:00        4.835     -104.309      -49.004      116.860      110.306       48.538    13656.287    12167.482     2355.925        2.074        1.409      104.421       15.661        0.022      334.997        5.338      847.587
12/24/2021  10:16:00      -12.760      -38.558        0.209       67.066       56.407       35.120     4497.838     3181.712     1233.422        0.528        0.446       40.614       31.008        0.583      334.942        5.248      847.584
12/24/2021  10:17:00      -35.767       -8.744       -4.599       49.883       39.962       23.453     2488.306     1596.956      550.054        0.301        0.232       36.821        9.175        0.062      335.005        5.353      847.609
12/24/2021  10:18:00      -35.349       76.955      -21.474       97.213       65.223       19.383     9450.270     4253.994      375.700        1.085        0.704       84.685       13.966        0.027      335.021        5.377      847.614
12/24/2021  10:19:00     -166.014        4.409      -19.921       82.347       71.093       50.452     6781.055     5054.144     2545.366        2.118        0.719      166.073       40.610        0.060      334.867        5.121      847.658
12/24/2021  10:20:00     -260.765       19.925      -12.793      133.794      123.686       75.497    17900.895    15298.183     5699.759        5.372        1.945      261.526       75.066        0.082      334.995        5.334      847.661
12/24/2021  10:21:00     -235.415      -63.655       -0.545      189.874      116.931       81.524    36052.010    13672.763     6646.127        5.791        2.819      243.869       82.879        0.115      335.148        5.587      847.659
12/24/2021  10:22:00     -145.994       -3.355      -12.848      106.586       59.515       60.881    11360.509     3541.988     3706.464        2.005        0.930      146.032       51.828        0.126      335.191        5.659      847.607
12/24/2021  10:23:00     -341.071      -14.569      -29.245      142.770      147.314       81.451    20383.155    21701.559     6634.259        8.305        2.436      341.382       65.079        0.036      335.138        5.571      847.564
12/24/2021  10:24:00     -437.617       54.779      -30.967      209.605      151.985       84.232    43934.407    23099.513     7095.011       13.479        3.706      441.032       98.746        0.050      335.144        5.582      847.491
12/24/2021  10:25:00     -349.069        9.936       -8.295      254.193      129.620       89.785    64613.832    16801.322     8061.258       10.573        4.474      349.210       96.723        0.077      335.163        5.613      847.468
12/24/2021  10:26:00     -337.919      -32.223      -42.454      238.595       98.332       86.287    56927.378     9669.187     7445.415        9.552        3.702      339.452       80.878        0.057      335.222        5.709      847.478
12/24/2021  10:27:00     -369.759      -35.805      -14.568      161.512      116.033       77.062    26086.002    13463.649     5938.566        9.184        2.274      371.489       68.629        0.034      335.219        5.703      847.486
12/24/2021  10:28:00     -376.858       -9.416      -27.035      179.266      113.618       77.360    32136.334    12909.150     5984.552        9.693        2.552      376.976       69.869        0.034      335.219        5.703      847.476
12/24/2021  10:29:00     -250.235      -38.290      -13.914      202.385      131.552       76.915    40959.760    17305.809     5915.874        6.422        3.209      253.148       72.918        0.083      335.268        5.786      847.492
12/24/2021  10:30:00     -360.274      -67.413      -25.976      224.271      119.325       78.271    50297.342    14238.341     6126.332       10.283        3.533      366.527       88.758        0.059      335.330        5.888      847.479
12/24/2021  10:31:00     -362.164      -20.108      -19.088      171.888      138.813       93.049    29545.546    19269.138     8658.083        9.469        2.874      362.721       72.371        0.040      335.328        5.885      847.495
12/24/2021  10:32:00     -388.260      -40.873      -24.008      234.940      161.901       98.566    55196.616    26211.938     9715.239       12.204        4.556      390.405       75.820        0.038      335.317        5.867      847.501
12/24/2021  10:33:00     -469.715      -86.718      -47.949      233.505      164.579      101.783    54524.757    27086.096    10359.834       16.119        4.599      477.653       95.332        0.040      335.312        5.857      847.553
12/24/2021  10:34:00     -520.007      -51.931      -30.473      269.924      186.391      108.833    72859.065    34741.443    11844.728       19.672        5.972      522.594      120.498        0.053      335.289        5.820      847.518
12/24/2021  10:35:00     -342.366     -280.601      -46.904      235.823      281.780       91.404    55612.684    79400.125     8354.674       17.073        7.168      442.664      112.412        0.064      335.341        5.907      847.527
12/24/2021  10:36:00     -510.744      -82.959      -28.842      252.344      316.676      136.991    63677.255   100283.908    18766.588       22.562        9.136      517.438      121.773        0.055      335.216        5.699      847.461
12/24/2021  10:37:00     -494.340        3.994      -32.974      301.724      185.376      119.227    91037.251    34364.293    14214.999       19.252        6.981      494.356      146.959        0.088      335.196        5.666      847.485
12/24/2021  10:38:00     -482.597      -99.146      -52.442      207.724      158.896       91.192    43149.197    25247.928     8315.962       16.108        3.836      492.676       84.841        0.030      335.210        5.689      847.539
12/24/2021  10:39:00     -399.688      -48.168      -29.893      203.263      205.854      106.442    41315.951    42376.002    11329.975       12.898        4.751      402.580      115.140        0.082      335.168        5.619      847.580
12/24/2021  10:40:00     -510.282        8.333      -11.082      328.656      186.083      102.207   108014.924    34627.055    10446.266       20.681        7.654      510.350      126.625        0.062      335.027        5.386      847.509
12/24/2021  10:41:00     -443.590      -76.727      -22.103      224.428      214.763      121.713    50367.778    46123.071    14814.164       15.721        5.565      450.176      110.419        0.060      334.967        5.287      847.484
12/24/2021  10:42:00     -672.571      -34.900      -26.248      399.479      229.860      125.313   159583.493    52835.462    15703.298       34.115       11.406      673.476      147.042        0.048      334.783        4.979      847.509
12/24/2021  10:43:00     -548.944      -48.896      -22.356      274.205      203.995      124.738    75188.189    41613.908    15559.501       21.827        6.618      551.117      124.251        0.051      334.760        4.943      847.494
12/24/2021  10:44:00     -415.554      -90.026      -23.220      220.413      212.165      113.930    48581.948    45013.821    12980.088       14.393        5.329      425.194      111.268        0.068      334.777        4.970      847.474
12/24/2021  10:45:00     -292.439        2.906      -27.149      161.514      138.251       94.914    26086.641    19113.469     9008.600        7.023        2.710      292.453       85.895        0.086      334.792        4.995      847.511
12/24/2021  10:46:00     -453.608       21.022      -27.367      333.579      191.804      114.557   111274.629    36788.894    13123.244       18.404        8.059      454.095      132.835        0.086      334.772        4.963      847.492
12/24/2021  10:47:00     -485.140      -16.168      -34.410      278.400      231.023      133.614    77506.676    53371.468    17852.697       19.274        7.437      485.409      139.788        0.083      334.806        5.019      847.452
12/24/2021  10:48:00     -415.897       90.124       -8.857      182.787      122.544       88.202    33411.087    15017.076     7779.588       11.868        2.810      425.550       75.865        0.032      334.878        5.137      847.467
12/24/2021  10:49:00     -729.178      -80.048      -26.111      333.967      201.743      134.874   111533.783    40700.161    18190.948       35.458        8.521      733.558      156.115        0.045      334.823        5.045      847.406
12/24/2021  10:50:00     -740.505       -2.117      -31.004      270.375      194.085      137.033    73102.787    37669.106    18778.064       33.941        6.477      740.508      144.392        0.038      334.849        5.091      847.401
12/24/2021  10:51:00     -492.979      -19.959      -12.356      326.091      195.153      116.306   106335.354    38084.545    13527.170       20.073        7.897      493.383      147.038        0.089      334.932        5.228      847.424
12/24/2021  10:52:00     -571.001      -21.200      -39.500      328.281      186.393      123.093   107768.205    34742.333    15151.971       24.283        7.883      571.395      143.122        0.063      334.927        5.220      847.444
12/24/2021  10:53:00     -614.789       98.055       -6.077      345.943      220.342      129.417   119676.530    48550.432    16748.859       28.626        9.249      622.560      147.475        0.056      334.894        5.167      847.437
12/24/2021  10:54:00     -402.310      -62.951       -8.954      298.494      172.147      135.143    89098.853    29634.699    18263.716       15.142        6.850      407.205      141.784        0.121      334.956        5.267      847.459
12/24/2021  10:55:00     -577.225       36.193      -28.711      280.351      190.495      118.016    78596.443    36288.169    13927.670       23.204        6.441      578.359      103.601        0.032      334.931        5.227      847.451
12/24/2021  10:56:00     -337.898      -14.049      -14.086      258.238      190.748      120.648    66687.086    36384.760    14555.822       11.608        5.881      338.190      117.036        0.120      334.987        5.319      847.440
12/24/2021  10:57:00     -338.453        0.619        4.541      272.748      163.923      105.974    74391.676    26870.797    11230.589       11.351        5.625      338.454      114.695        0.115      335.019        5.375      847.435
12/24/2021  10:58:00     -593.312      -93.533      -37.850      329.829      265.748      165.095   108787.453    70622.071    27256.512       28.440       10.333      600.640      177.080        0.087      335.070        5.459      847.396
12/24/2021  10:59:00     -602.713      -14.468      -29.294      340.566      233.078      143.154   115985.296    54325.339    20493.163       27.753        9.540      602.887      151.217        0.063      335.166        5.618      847.334
12/24/2021  11:00:00     -717.257       -0.621      -40.710      359.562      218.374      136.179   129284.484    47687.025    18544.719       35.578        9.776      717.257      140.047        0.038      335.197        5.668      847.304
12/24/2021  11:01:00     -710.736       -7.832      -18.380      319.986      240.712      147.581   102391.285    57942.218    21780.133       34.380        9.106      710.779      134.253        0.036      335.191        5.657      847.285
12/24/2021  11:02:00     -688.525      -12.456      -25.578      320.611      206.820      133.470   102791.368    42774.702    17814.151       31.910        8.169      688.638      152.594        0.049      335.177        5.636      847.336
12/24/2021  11:03:00     -871.701      -38.269      -40.700      344.384      245.391      136.445   118600.298    60216.954    18617.192       48.017        9.872      872.540      129.773        0.022      335.102        5.512      847.271
12/24/2021  11:04:00     -623.406       -8.034      -54.414      345.762      235.749      156.335   119551.539    55577.411    24440.497       29.558        9.978      623.458      171.307        0.075      335.157        5.602      847.258
12/24/2021  11:05:00     -659.010       13.028       -3.508      361.895      204.323      137.476   130968.134    41747.731    18899.665       31.301        9.581      659.139      135.647        0.042      335.138        5.571      847.300
12/24/2021  11:06:00     -422.577        5.688      -23.345      312.881      146.915      125.321    97894.790    21583.945    15705.461       15.714        6.759      422.616      123.148        0.085      335.211        5.691      847.345
12/24/2021  11:07:00     -387.021       13.898      -24.167      316.487      196.184      127.761   100164.160    38488.051    16322.753       15.274        7.749      387.270      143.060        0.136      335.246        5.750      847.335
12/24/2021  11:08:00     -601.528      -80.198      -24.826      333.055      177.013      139.405   110925.858    31333.426    19433.793       26.526        8.085      606.851      161.021        0.070      335.194        5.663      847.361
12/24/2021  11:09:00     -438.605       -5.039      -21.093      264.359      180.109      112.078    69885.803    32439.421    12561.470       15.384        5.744      438.634      111.846        0.065      335.247        5.750      847.345
12/24/2021  11:10:00     -648.025      -73.728      -46.767      371.115      270.805      149.279   137726.491    73335.236    22284.233       33.041       11.667      652.206      173.027        0.070      335.218        5.702      847.331
12/24/2021  11:11:00     -499.775        6.279      -17.146      235.852      220.683      126.198    55626.031    48700.820    15925.887       18.516        6.013      499.815      119.638        0.057      335.278        5.803      847.353
12/24/2021  11:12:00     -467.277      -18.240      -32.693      256.631      213.097      116.925    65859.218    45410.352    13671.376       17.232        6.247      467.633      101.916        0.047      335.331        5.891      847.341
12/24/2021  11:13:00     -444.850       17.240      -17.386      384.955      217.230      134.499   148190.285    47188.978    18089.922       20.594       10.673      445.184      130.616        0.086      335.358        5.937      847.334
12/24/2021  11:14:00     -699.685      -31.480      -49.669      492.674      266.281      162.090   242727.682    70905.509    26273.164       41.640       16.995      700.393      167.021        0.057      335.239        5.737      847.313
12/24/2021  11:15:00     -567.566       10.026       -4.128      407.409      215.527      156.509   165981.978    46451.740    24495.139       27.955       11.846      567.655      185.980        0.107      335.236        5.732      847.302
12/24/2021  11:16:00     -503.621      -40.201      -41.493      232.488      158.926      113.824    54050.838    25257.424    12955.873       17.460        4.613      505.223      100.836        0.040      335.283        5.809      847.323
12/24/2021  11:17:00     -661.703       37.760      -17.860      311.407      218.635      140.005    96974.457    47801.197    19601.375       30.196        8.219      662.779      144.009        0.047      335.273        5.793      847.333
12/24/2021  11:18:00     -724.078      -25.673      -23.549      413.593      216.083      151.579   171059.310    46691.939    22976.250       38.307       12.036      724.533      161.368        0.050      335.254        5.761      847.275
12/24/2021  11:19:00     -326.571       17.880       -9.001      289.371      226.788      151.945    83735.730    51432.997    23087.282       13.262        7.913      327.061      140.101        0.183      335.337        5.900      847.294
12/24/2021  11:20:00     -509.744      -73.590      -28.880      317.596      242.061      129.540   100867.273    58593.693    16780.650       22.113        8.812      515.029      144.880        0.079      335.318        5.869      847.282
12/24/2021  11:21:00     -606.855       79.390      -25.443      361.233      224.996      131.486   130489.141    50623.272    17288.444       28.678        9.920      612.026      144.756        0.056      335.292        5.826      847.297
12/24/2021  11:22:00     -675.535      -15.373      -26.979      414.389      226.856      148.623   171718.395    51463.473    22088.766       35.125       12.264      675.710      154.365        0.052      335.278        5.802      847.289
12/24/2021  11:23:00     -442.398      -28.825      -17.825      273.249      164.150      132.276    74664.940    26945.138    17496.913       15.796        5.955      443.336      129.831        0.086      335.380        5.972      847.327
12/24/2021  11:24:00     -607.272       -2.678      -19.597      400.340      252.668      186.388   160271.858    63841.061    34740.541       31.396       12.943      607.278      176.849        0.085      335.338        5.903      847.322
12/24/2021  11:25:00     -602.204        9.092      -52.158      317.271      234.322      123.436   100660.675    54906.898    15236.379       26.810        8.540      602.273      101.540        0.028      335.349        5.920      847.316
12/24/2021  11:26:00     -481.164      -76.063      -20.956      278.723      211.189      126.021    77686.691    44600.831    15881.264       18.793        6.908      487.139      110.311        0.051      335.374        5.962      847.369
12/24/2021  11:27:00     -592.460      -72.982      -58.404      352.274      194.411      124.404   124096.663    37795.748    15476.392       26.852        8.868      596.938      126.443        0.045      335.367        5.950      847.349
12/24/2021  11:28:00     -461.101      -27.376      -34.688      284.825      197.140      131.136    81125.234    38864.079    17196.613       17.585        6.859      461.913      153.966        0.111      335.424        6.044      847.350
12/24/2021  11:29:00     -594.845      -93.057      -64.632      281.676      201.980      116.427    79341.233    40795.904    13555.298       25.016        6.685      602.080      107.924        0.032      335.384        5.980      847.341
12/24/2021  11:30:00     -427.593       10.546       -9.554      269.544      160.127      119.175    72653.952    25640.780    14202.706       14.775        5.625      427.723      137.759        0.104      335.469        6.120      847.361
12/24/2021  11:31:00     -482.778      138.668      -32.763      252.127      185.459      131.485    63568.189    34394.956    17288.265       18.429        5.763      502.298      127.664        0.065      335.450        6.089      847.324
12/24/2021  11:32:00     -458.374      -56.241      -63.600      247.161      147.448      110.254    61088.728    21740.773    12155.997       15.613        4.749      461.812      116.407        0.064      335.394        5.996      847.329
12/24/2021  11:33:00     -472.290        5.916      -19.742      294.854      269.553      138.931    86939.068    72658.614    19301.780       20.116        8.945      472.327      135.597        0.082      335.403        6.010      847.289
12/24/2021  11:34:00     -476.373      -36.849      -29.752      250.587      154.715      118.077    62793.881    23936.660    13942.191       16.491        5.034      477.796      109.653        0.053      335.443        6.078      847.350
12/24/2021  11:35:00     -470.735       61.851      -28.338      323.746      243.595      117.793   104811.536    59338.528    13875.118       20.209        8.901      474.781      114.470        0.058      335.428        6.052      847.334
12/24/2021  11:36:00     -579.059       47.307       -9.022      344.058      217.104      139.717   118375.865    47134.339    19520.768       26.130        9.252      580.988      142.167        0.060      335.391        5.990      847.372
12/24/2021  11:37:00     -378.552       13.268       -6.616      276.126      241.085      133.887    76245.693    58121.887    17925.854       14.788        7.615      378.785      123.893        0.107      335.412        6.026      847.336
12/24/2021  11:38:00     -283.042        9.428      -13.587      137.468      171.281       81.111    18897.453    29337.122     6578.992        6.759        2.741      283.199       48.976        0.030      335.524        6.212      847.342
12/24/2021  11:39:00     -329.409      -32.003       -1.750      221.225      184.484       91.095    48940.296    34034.422     8298.292       10.039        4.564      330.960       83.951        0.064      335.542        6.242      847.319
12/24/2021  11:40:00     -250.085       20.378       -8.210      142.422      125.192       72.403    20283.930    15672.915     5242.202        5.210        2.060      250.913       60.757        0.059      335.590        6.322      847.320
12/24/2021  11:41:00     -376.707     -113.431      -42.238      192.275      171.596      108.129    36969.550    29445.186    11691.779       11.732        3.905      393.414       60.631        0.024      335.473        6.126      847.291
12/24/2021  11:42:00     -449.392       66.723      -25.382      235.068      187.799      120.845    55256.917    35268.480    14603.454       15.607        5.256      454.319      105.262        0.054      335.442        6.074      847.246
12/24/2021  11:43:00     -542.787      -86.799      -55.172      293.307      251.426      133.736    86029.218    63214.943    17885.292       23.613        8.356      549.683      113.635        0.043      335.407        6.017      847.214
12/24/2021  11:44:00     -643.974      -28.424      -38.587      251.893      276.795      125.095    63450.185    76615.748    15648.750       28.633        7.786      644.601      121.601        0.036      335.355        5.930      847.195
12/24/2021  11:45:00     -537.913        2.418      -30.049      319.297      179.260      122.421   101950.791    32134.167    14987.002       21.964        7.454      537.919      133.055        0.061      335.394        5.996      847.244
12/24/2021  11:46:00     -489.054       11.618      -19.563      277.973      208.097      102.925    77269.082    43304.480    10593.591       18.541        6.558      489.192      108.347        0.049      335.426        6.048      847.237
12/24/2021  11:47:00     -580.087       31.667      -50.142      254.221      216.800      105.637    64628.552    47002.367    11159.123       23.138        6.140      580.951       94.423        0.026      335.356        5.932      847.250
12/24/2021  11:48:00     -583.736       -3.681      -29.117      272.611      204.574      121.762    74316.990    41850.450    14826.069       23.628        6.550      583.747      127.780        0.048      335.386        5.982      847.208
12/24/2021  11:49:00     -471.292       33.610       -9.917      338.621      216.362      143.026   114664.177    46812.574    20456.454       20.261        9.097      472.489      125.393        0.070      335.309        5.854      847.219
12/24/2021  11:50:00     -559.208      -29.180      -23.922      321.453      333.366      151.742   103332.103   111132.854    23025.696       27.577       11.875      559.969      161.252        0.083      335.286        5.816      847.180
12/24/2021  11:51:00     -539.906       37.978        2.026      346.474      177.483      128.693   120044.531    31500.213    16561.808       23.050        8.405      541.240      155.981        0.083      335.334        5.895      847.230
12/24/2021  11:52:00     -607.304       47.226      -31.399      377.595      238.997      144.592   142577.965    57119.513    20906.928       29.628       11.030      609.138      123.450        0.041      335.337        5.901      847.236
12/24/2021  11:53:00     -479.306       19.451       -3.262      340.832      192.045      122.922   116166.463    36881.471    15109.816       19.911        8.408      479.701      156.592        0.107      335.353        5.928      847.223
12/24/2021  11:54:00     -361.264       -6.360      -22.265      264.159      161.415       95.675    69779.864    26054.831     9153.699       11.800        5.249      361.320       90.968        0.063      335.417        6.034      847.244
12/24/2021  11:55:00     -477.487      -35.792      -31.316      333.560      154.190      130.292   111262.175    23774.552    16976.011       19.111        7.601      478.826      125.733        0.069      335.340        5.905      847.268
12/24/2021  11:56:00     -489.126      -74.445      -28.403      278.347      232.414      115.116    77477.164    54016.130    13251.593       19.514        7.237      494.758      128.896        0.068      335.304        5.844      847.269
12/24/2021  11:57:00     -556.219       60.644      -25.424      219.044      176.091      104.929    47980.405    31008.211    11010.043       20.183        4.500      559.515      100.894        0.033      335.275        5.797      847.288
12/24/2021  11:58:00     -666.869        8.137       -9.451      352.284      183.645      125.970   124104.207    33725.373    15868.340       30.925        8.685      666.919      155.542        0.054      335.226        5.716      847.281
12/24/2021  11:59:00     -409.774       61.503      -23.054      257.814      217.116      124.723    66468.121    47139.491    15555.784       15.067        6.458      414.364      128.064        0.096      335.332        5.892      847.287
12/24/2021  12:00:00     -415.956      -54.206      -32.974      277.651      184.802      126.777    77090.330    34151.620    16072.364       15.216        6.366      419.474      138.639        0.109      335.297        5.835      847.328
12/24/2021  12:01:00     -510.771      -59.319      -27.455      226.923      165.477      121.412    51494.185    27382.616    14740.963       17.937        4.681      514.204      121.798        0.056      335.194        5.665      847.323
12/24/2021  12:02:00     -283.078       23.731      -18.332      282.972      186.116      117.452    80072.957    34639.258    13795.089       10.475        6.425      284.071      117.048        0.170      335.311        5.859      847.353
12/24/2021  12:03:00     -229.684      -21.382      -37.624      244.432      152.965      116.941    59747.110    23398.302    13675.297        7.571        4.841      230.677      116.468        0.255      335.335        5.896      847.341
12/24/2021  12:04:00     -391.845       32.863      -25.693      320.669      184.559      106.350   102828.858    34061.849    11310.353       15.171        7.410      393.221      113.714        0.084      335.349        5.921      847.366
12/24/2021  12:05:00     -621.128      158.521        1.387      363.948      207.536      125.494   132458.213    43071.135    15748.674       30.107        9.564      641.037      108.582        0.029      335.235        5.732      847.300
12/24/2021  12:06:00     -414.978        8.402      -20.739      327.154      151.053       99.879   107029.653    22817.009     9975.886       15.624        6.991      415.063      113.941        0.075      335.333        5.895      847.312
12/24/2021  12:07:00     -392.896      -29.058      -41.995      242.267      164.353      108.785    58693.236    27011.844    11834.278       12.724        4.877      393.969      110.365        0.078      335.352        5.927      847.303
12/24/2021  12:08:00     -667.176      -24.424      -21.683      335.158      230.021      133.604   112331.190    52909.840    17850.010       31.461        9.155      667.623      132.234        0.039      335.284        5.812      847.246
12/24/2021  12:09:00     -514.693       24.280      -15.663      309.400      157.800      123.224    95728.183    24900.915    15184.240       20.075        6.791      515.265      125.876        0.060      335.363        5.944      847.269
12/24/2021  12:10:00     -488.102       30.446      -17.945      265.632      199.545      124.169    70560.164    39818.036    15417.975       18.262        6.290      489.051      121.696        0.062      335.451        6.091      847.270
12/24/2021  12:11:00     -309.040       27.490       10.202      251.162      193.364      111.314    63082.148    37389.697    12390.887       10.459        5.643      310.260      106.887        0.119      335.488        6.153      847.302
12/24/2021  12:12:00     -415.272      119.097      -13.691      292.870      199.378      118.381    85772.755    39751.559    14014.130       16.315        6.977      432.012      111.525        0.067      335.512        6.192      847.302
12/24/2021  12:13:00     -476.734      -73.064      -36.324      315.189      163.535      118.337    99344.096    26743.765    14003.558       18.699        7.005      482.300      132.492        0.075      335.408        6.018      847.294
12/24/2021  12:14:00     -321.304      -14.369      -19.432      249.132      181.973      116.385    62066.965    33114.044    13545.435       10.625        5.436      321.625      122.539        0.145      335.432        6.060      847.336
12/24/2021  12:15:00     -370.132      -31.500      -14.110      217.908      135.594      104.797    47483.944    18385.624    10982.369       10.751        3.843      371.470       95.308        0.066      335.422        6.041      847.336
12/24/2021  12:16:00     -588.011       52.843      -33.594      421.639      166.187      138.876   177779.835    27618.044    19286.448       28.714       11.234      590.381      145.535        0.061      335.411        6.024      847.282
12/24/2021  12:17:00     -546.714       14.202      -12.573      380.865      201.557      137.642   145058.186    40625.212    18945.435       25.190       10.231      546.898      131.109        0.057      335.336        5.899      847.341
12/24/2021  12:18:00     -666.368      -47.407      -41.714      333.836      299.314      127.744   111446.696    89588.965    16318.506       33.265       10.868      668.052      106.511        0.025      335.274        5.795      847.296
12/24/2021  12:19:00     -673.851      -89.553      -33.319      334.477      203.486      134.045   111874.581    41406.571    17968.162       31.720        8.562      679.776      134.137        0.039      335.345        5.914      847.316
12/24/2021  12:20:00     -432.924       17.403      -11.147      276.324      199.587      123.289    76354.778    39834.826    15200.101       15.960        6.569      433.274      119.912        0.077      335.434        6.062      847.328
12/24/2021  12:21:00     -604.419       19.796      -13.515      386.421      226.017      144.190   149321.452    51083.751    20790.876       29.351       11.060      604.743      154.971        0.066      335.414        6.030      847.348
12/24/2021  12:22:00     -692.508      -39.364      -14.387      382.020      241.881      140.610   145939.118    58506.434    19771.112       35.273       11.211      693.626      164.608        0.056      335.373        5.960      847.298
12/24/2021  12:23:00     -436.228      -20.239       -8.805      284.301      213.142      129.991    80827.196    45429.674    16897.739       16.694        7.158      436.697      140.892        0.104      335.430        6.055      847.351
12/24/2021  12:24:00     -524.870      -50.386      -29.128      325.582      203.292      118.061   106003.741    41327.758    13938.417       22.004        8.063      527.283      128.198        0.059      335.379        5.971      847.369
12/24/2021  12:25:00     -543.071       35.121      -13.023      243.648      158.738      107.285    59364.529    25197.748    11510.067       19.618        4.804      544.206       84.669        0.024      335.434        6.063      847.362
12/24/2021  12:26:00     -304.117       22.159      -22.724      219.424      147.993       93.661    48147.084    21902.024     8772.428        8.614        3.941      304.924       80.531        0.070      335.568        6.284      847.418
12/24/2021  12:27:00     -518.697      -46.028      -42.593      241.018      203.166      110.115    58089.776    41276.507    12125.416       19.222        5.575      520.736      108.610        0.044      335.511        6.190      847.408
12/24/2021  12:28:00     -428.024      -35.524      -47.853      255.994      206.527      109.940    65532.803    42653.283    12086.843       15.349        6.014      429.496      120.584        0.079      335.536        6.231      847.417
12/24/2021  12:29:00     -525.724     -137.472      -42.835      322.397      262.389      120.523   103939.608    68847.849    14525.715       24.218        9.366      543.401      144.955        0.071      335.478        6.136      847.410
12/24/2021  12:30:00     -542.465       16.814      -32.825      336.317      195.898      148.870   113108.815    38376.147    22162.352       23.461        8.682      542.726      147.905        0.074      335.414        6.029      847.423
12/24/2021  12:31:00     -427.767        4.012      -11.192      331.630      182.091      118.315   109978.675    33157.093    13998.496       17.010        7.857      427.785      135.829        0.101      335.479        6.139      847.431
12/24/2021  12:32:00     -817.101      -39.700      -60.979      331.546      263.735      136.864   109923.048    69556.372    18731.835       43.554        9.911      818.065      114.303        0.020      335.284        5.812      847.418
12/24/2021  12:33:00     -338.334       34.862       -9.176      329.845      195.583      134.134   108797.849    38252.581    17991.969       14.038        8.252      340.125      132.284        0.151      335.374        5.963      847.476
12/24/2021  12:34:00     -732.213       39.150      -28.301      332.399      200.516      126.290   110489.036    40206.684    15949.194       35.253        8.332      733.259      133.793        0.033      335.172        5.627      847.463
12/24/2021  12:35:00     -608.728       79.445      -32.572      294.724      194.360      119.660    86862.264    37775.842    14318.460       25.841        6.948      613.890      111.310        0.033      335.210        5.690      847.444
12/24/2021  12:36:00     -362.936       59.675       -3.724      286.884      198.078      104.748    82302.229    39235.083    10972.107       13.388        6.625      367.809       98.401        0.072      335.332        5.892      847.450
12/24/2021  12:37:00     -410.039     -102.813       -8.102      260.872      208.677      124.487    68054.218    43545.958    15497.092       15.291        6.355      422.732      140.160        0.110      335.213        5.696      847.463
12/24/2021  12:38:00     -356.417       -3.297       -3.590      300.061      210.607      146.011    90036.787    44355.335    21319.249       14.136        7.786      356.432      150.520        0.178      335.300        5.839      847.443
12/24/2021  12:39:00     -497.892       -7.222      -14.294      311.062      242.891      138.310    96759.382    58996.080    19129.544       21.149        8.744      497.945      127.703        0.066      335.172        5.628      847.420
12/24/2021  12:40:00     -688.873       30.141      -34.578      224.691      229.466      130.269    50485.832    52654.836    16969.997       29.836        6.006      689.532       89.467        0.017      335.091        5.491      847.427
12/24/2021  12:41:00     -386.882       38.960      -17.457      228.985      154.959      121.296    52434.283    24012.211    14712.677       12.131        4.558      388.839      109.912        0.080      335.223        5.711      847.470
12/24/2021  12:42:00     -553.313      -67.788      -24.095      228.812      206.607      122.981    52354.971    42686.541    15124.422       21.073        5.508      557.450      124.367        0.050      335.083        5.480      847.517
12/24/2021  12:43:00     -669.856     -102.755      -53.837      292.733      250.214      130.345    85692.643    62606.918    16989.745       31.370        8.264      677.692      126.701        0.035      335.042        5.411      847.481
12/24/2021  12:44:00     -535.774       27.628      -14.626      288.237      220.478      121.228    83080.771    48610.720    14696.174       21.718        7.319      536.485      109.154        0.041      335.049        5.423      847.450
12/24/2021  12:45:00     -291.443       -9.268      -30.812      230.739      198.229      117.319    53240.497    39294.548    13763.849        9.612        5.315      291.591      109.808        0.142      335.108        5.520      847.422
12/24/2021  12:46:00     -393.920      -54.684      -23.854      185.297      167.428       90.372    34335.125    28032.089     8167.153       11.462        3.527      397.698       79.646        0.040      335.088        5.488      847.422
12/24/2021  12:47:00     -309.405       34.104      -10.885      178.554      112.191       80.690    31881.691    12586.885     6510.929        7.399        2.549      311.279       85.482        0.075      335.185        5.649      847.463
12/24/2021  12:48:00     -418.123       35.647      -10.493      266.273      164.346      111.771    70901.570    27009.712    12492.759       14.329        5.520      419.640      127.175        0.092      335.177        5.634      847.441
12/24/2021  12:49:00     -375.514      -37.298      -61.883      208.177      176.952       97.668    43337.457    31312.085     9539.094       11.519        4.209      377.362       95.716        0.064      335.193        5.662      847.436
12/24/2021  12:50:00     -338.949       42.069       23.681      285.695      150.115      109.108    81621.652    22534.544    11904.501       11.662        5.803      341.550      127.905        0.140      335.232        5.727      847.444
12/24/2021  12:51:00     -482.097      -78.254      -36.104      194.250      189.657       91.850    37733.223    35969.906     8436.332       16.098        4.107      488.406      102.941        0.044      335.103        5.513      847.466
12/24/2021  12:52:00     -460.515        4.932      -16.844      243.537      206.286      118.059    59310.126    42553.792    13938.044       16.407        5.790      460.542       93.701        0.041      335.116        5.536      847.449
12/24/2021  12:53:00     -461.781       43.692      -16.919      236.660      181.767       96.601    56007.929    33039.196     9331.738       15.689        4.919      463.843       68.493        0.022      335.119        5.539      847.465
12/24/2021  12:54:00     -495.958      -44.304      -23.683      332.319      230.620      126.994   110435.925    53185.492    16127.417       21.409        8.987      497.933      142.004        0.081      335.213        5.694      847.425
12/24/2021  12:55:00     -514.981     -189.502      -66.752      215.978      224.005      108.452    46646.382    50178.054    11761.825       20.706        5.429      548.741      105.314        0.037      335.158        5.606      847.428
12/24/2021  12:56:00     -480.897        8.519      -26.544      196.770      126.187       84.774    38718.546    15923.205     7186.594       14.692        3.091      480.972       70.691        0.022      335.301        5.841      847.548
12/24/2021  12:57:00     -377.548       44.614      -18.979      188.533      136.059       84.170    35544.703    18511.978     7084.558       10.301        3.057      380.175       69.826        0.034      335.329        5.889      847.564
12/24/2021  12:58:00     -396.341      -25.890       -8.768      309.493      233.361      137.897    95785.890    54457.422    19015.605       16.352        8.463      397.186      150.483        0.144      335.181        5.642      847.559
12/24/2021  12:59:00     -366.471      -38.194      -34.170      263.093      147.694      114.537    69218.034    21813.573    13118.683       12.052        5.208      368.456       98.845        0.072      335.249        5.755      847.572
12/24/2021  13:00:00     -443.390        9.245      -17.434      199.852      187.022       91.970    39940.662    34977.200     8458.566       14.017        4.169      443.487       90.897        0.042      335.317        5.868      847.651
12/24/2021  13:01:00     -406.791       21.554       11.421      267.263      220.223      153.430    71429.519    48498.347    23540.675       15.474        7.173      407.362      152.695        0.141      335.210        5.689      847.668
12/24/2021  13:02:00     -562.912      -18.213      -25.902      394.023      202.812      136.411   155253.918    41132.733    18607.865       26.639       10.750      563.207      155.420        0.076      335.079        5.473      847.712
12/24/2021  13:03:00     -300.540       69.637        3.920      280.014      229.881      143.470    78407.611    52845.312    20583.707       12.348        7.592      308.502      147.355        0.228      335.087        5.486      847.751
12/24/2021  13:04:00     -374.260       77.220      -17.800      301.095      152.333      119.538    90658.356    23205.328    14289.442       13.723        6.408      382.143       95.203        0.062      335.198        5.671      847.750
12/24/2021  13:05:00     -560.463       60.632      -28.841      251.035      165.634      103.025    63018.435    27434.755    10614.185       20.983        5.053      563.733       84.626        0.023      335.177        5.636      847.774
12/24/2021  13:06:00     -380.107       78.348        1.858      302.622      223.810      146.683    91580.089    50090.825    21516.006       15.687        8.159      388.097      156.014        0.162      335.322        5.876      847.801
12/24/2021  13:07:00     -538.436       -7.243        6.816      361.939      200.047      141.878   130999.986    40018.742    20129.365       24.055        9.557      538.485      168.124        0.097      335.317        5.868      847.873
12/24/2021  13:08:00     -682.852       72.229      -10.047      364.042      249.373      138.527   132526.800    62186.769    19189.705       34.271       10.695      686.661       95.511        0.019      335.269        5.787      847.871
12/24/2021  13:09:00     -519.818       97.222      -24.517      382.451      235.909      154.695   146268.795    55653.194    23930.555       25.302       11.293      528.831      175.861        0.111      335.274        5.797      847.903
12/24/2021  13:10:00     -707.944      -11.638      -31.958      436.146      279.014      178.389   190222.924    77849.086    31822.517       40.106       14.995      708.039      210.498        0.088      335.078        5.470      847.921
12/24/2021  13:11:00     -855.363        7.232      -40.304      410.810      310.019      151.376   168764.610    96111.791    22914.608       51.050       14.390      855.394      177.344        0.043      335.048        5.420      848.004
12/24/2021  13:12:00     -605.298      -57.599      -30.020      391.493      246.562      155.960   153266.880    60793.036    24323.615       30.445       11.919      608.032      160.989        0.070      335.090        5.491      848.031
12/24/2021  13:13:00     -551.842      -60.802      -30.289      329.274      254.039      143.908   108421.382    64535.738    20709.380       25.137        9.683      555.182      134.157        0.058      335.116        5.533      848.075
12/24/2021  13:14:00     -536.927      -66.975      -24.853      355.078      187.428      148.269   126080.300    35129.325    21983.742       23.826        9.160      541.088      173.879        0.103      335.116        5.535      848.064
12/24/2021  13:15:00     -225.781        4.993      -34.280      242.145      194.938      133.296    58634.182    38000.756    17767.778        8.327        5.720      225.836      124.173        0.302      335.290        5.823      848.053
12/24/2021  13:16:00     -818.952     -111.375      -62.184      426.779      204.722      167.179   182140.726    41911.146    27948.721       46.943       12.600      826.490      178.147        0.046      335.027        5.386      848.025
12/24/2021  13:17:00     -630.497      -32.344      -20.341      330.787      233.983      127.363   109420.366    54748.161    16221.275       28.965        9.019      631.326      118.175        0.035      335.072        5.460      848.042
12/24/2021  13:18:00     -563.895     -150.925      -46.657      271.839      311.355      151.451    73896.354    96942.226    22937.527       26.832        9.689      583.743      136.015        0.054      335.069        5.458      848.038
12/24/2021  13:19:00     -507.027       -3.399      -37.086      347.532      285.372      128.881   120778.385    81437.221    16610.321       23.860       10.941      507.038      154.357        0.093      335.170        5.623      848.014
12/24/2021  13:20:00     -709.525       -9.270      -36.574      386.417      267.259      164.640   149318.365    71427.621    27106.421       37.631       12.393      709.586      144.578        0.042      334.952        5.262      848.056
12/24/2021  13:21:00     -665.265       -4.368      -26.480      326.032      247.309      148.629   106296.674    61161.612    22090.571       31.639        9.477      665.279      164.041        0.061      335.008        5.355      848.023
12/24/2021  13:22:00     -640.640     -345.447     -107.861      325.137      327.313      131.270   105713.816   107133.739    17231.890       38.569       11.504      727.841      131.496        0.033      334.901        5.175      847.976
12/24/2021  13:23:00     -441.118     -131.061      -37.143      293.943      220.077      128.678    86402.298    48433.836    16558.058       18.224        7.570      460.176      133.605        0.084      334.979        5.307      848.050
12/24/2021  13:24:00     -545.090        7.161      -19.657      295.362      198.001      112.280    87238.920    39204.578    12606.827       21.828        6.953      545.137       93.417        0.029      335.019        5.372      848.068
12/24/2021  13:25:00     -551.007       21.586      -13.229      268.964      226.807      122.317    72341.402    51441.513    14961.442       22.147        6.937      551.429       88.660        0.026      335.018        5.372      848.091
12/24/2021  13:26:00     -349.724      -36.290       -7.192      227.949      192.429       99.809    51960.534    37028.810     9961.773       11.130        4.948      351.602       82.198        0.055      335.083        5.479      848.121
12/24/2021  13:27:00     -473.927       42.138      -23.249      282.609      203.394      112.300    79867.583    41368.984    12611.310       18.036        6.692      475.797      121.209        0.065      335.130        5.557      848.130
12/24/2021  13:28:00     -743.409       30.895      -52.530      272.448      295.261      148.216    74228.003    87178.765    21968.050       36.984        9.169      744.050      141.866        0.036      334.912        5.195      848.084
12/24/2021  13:29:00     -610.508      -44.719      -58.325      352.015      211.439      155.844   123914.649    44706.643    24287.298       28.548        9.645      612.144      129.879        0.045      335.002        5.343      848.061
12/24/2021  13:30:00     -646.471     -102.340      -49.793      318.791      265.384      154.052   101627.488    70428.848    23732.166       31.330        9.789      654.521      120.661        0.034      334.971        5.293      848.078
12/24/2021  13:31:00     -447.001       -4.658       16.786      302.337      188.458      129.740    91407.869    35516.539    16832.592       17.191        7.188      447.025      134.266        0.090      335.003        5.345      848.092
12/24/2021  13:32:00     -646.841      -18.628      -42.649      346.023      192.169      137.956   119731.895    36928.867    19031.970       29.810        8.785      647.109      146.431        0.051      334.967        5.286      848.173
12/24/2021  13:33:00     -421.835     -143.550      -47.547      253.248      299.850      139.980    64134.780    89910.031    19594.427       18.719        8.682      445.590      110.186        0.061      335.030        5.390      848.150
12/24/2021  13:34:00     -565.855       28.686      -26.253      331.992      248.824      161.883   110218.548    61913.368    26206.213       25.998        9.917      566.581      164.308        0.084      334.948        5.254      848.211
12/24/2021  13:35:00     -534.462      -23.832      -39.233      322.217      205.301      130.751   103823.740    42148.545    17095.900       22.538        8.153      534.993      141.443        0.070      334.900        5.174      848.220
12/24/2021  13:36:00     -466.713       -9.537      -28.648      226.862      167.940      108.141    51466.572    28203.843    11694.440       15.503        4.568      466.810      107.741        0.053      335.004        5.349      848.274
12/24/2021  13:37:00     -664.022      -30.132      -34.064      336.625      210.756      146.564   113316.324    44418.208    21481.135       31.107        8.961      664.706      150.103        0.051      334.933        5.229      848.233
12/24/2021  13:38:00     -766.694      -24.763      -31.739      413.068      219.586      168.823   170625.553    48217.985    28501.141       41.835       12.367      767.094      194.375        0.064      334.814        5.032      848.200
12/24/2021  13:39:00     -652.371       22.930      -37.308      391.775      199.765      158.984   153487.713    39906.016    25275.802       32.305       10.933      652.774      171.630        0.069      334.844        5.082      848.225
12/24/2021  13:40:00     -553.901       -5.254       -7.635      318.901      218.322      137.572   101697.778    47664.305    18925.964       23.756        8.414      553.926      149.951        0.073      334.858        5.105      848.234
12/24/2021  13:41:00     -697.092       77.185      -19.430      311.598      208.700      132.545    97093.456    43555.778    17568.164       32.522        7.911      701.352      139.960        0.040      334.828        5.055      848.288
12/24/2021  13:42:00     -514.340      -18.136       -9.640      356.655      199.476      150.441   127202.688    39790.608    22632.422       22.726        9.481      514.659      174.067        0.114      334.826        5.050      848.355
12/24/2021  13:43:00     -629.181      -16.774      -33.892      248.311      157.526      113.314    61658.282    24814.410    12840.141       24.829        4.966      629.404      114.205        0.033      334.819        5.039      848.364
12/24/2021  13:44:00     -556.729      -85.035      -32.848      218.890      225.710      108.035    47912.630    50945.019    11671.635       21.437        5.526      563.185       87.785        0.024      334.832        5.061      848.379
12/24/2021  13:45:00     -410.163       17.541      -30.561      268.849      201.071      109.338    72279.756    40429.661    11954.759       14.705        6.233      410.538      109.002        0.070      334.937        5.236      848.422
12/24/2021  13:46:00     -507.373       17.939      -17.089      301.161      180.673      135.819    90698.227    32642.705    18446.854       19.989        7.089      507.690      112.306        0.049      334.888        5.156      848.466
12/24/2021  13:47:00     -364.500      -10.368      -35.614      238.576      142.873       99.943    56918.563    20412.832     9988.565       11.076        4.366      364.647      110.963        0.093      334.989        5.323      848.498
12/24/2021  13:48:00     -211.342     -111.678      -16.610      225.988      173.784       87.337    51070.618    30200.813     7627.827        7.314        4.445      239.034       81.255        0.116      335.033        5.396      848.531
12/24/2021  13:49:00     -417.304     -142.194      -31.252      230.608      209.892      118.072    53179.997    44054.547    13940.966       15.324        5.559      440.865      131.056        0.088      334.938        5.238      848.500
12/24/2021  13:50:00     -411.596      -77.522      -29.815      223.548      141.104       81.807    49973.574    19910.441     6692.313       12.643        3.829      418.833       69.911        0.028      334.952        5.261      848.537
12/24/2021  13:51:00     -334.272       56.812      -19.096      247.304      159.239      101.119    61159.343    25357.065    10224.951       10.602        4.837      339.065       97.955        0.083      335.024        5.381      848.546
12/24/2021  13:52:00     -511.286      -19.248      -21.611      284.149      200.837      117.722    80740.610    40335.443    13858.566       19.857        6.747      511.648      123.028        0.058      334.941        5.243      848.594
12/24/2021  13:53:00     -428.800       49.036       -0.731      259.558      172.463      108.006    67370.399    29743.483    11665.367       14.751        5.439      431.595      110.274        0.065      334.856        5.102      848.576
12/24/2021  13:54:00     -295.966       10.559      -16.686      191.323      129.542       97.446    36604.638    16781.087     9495.750        7.542        3.144      296.154       85.794        0.084      334.992        5.328      848.602
12/24/2021  13:55:00     -265.451       -0.321      -14.822      201.314      161.013      126.992    40527.248    25925.130    16127.024        7.662        4.129      265.451       99.279        0.140      334.956        5.267      848.581
12/24/2021  13:56:00     -531.284      -65.993      -22.132      310.240      203.406      140.163    96248.715    41373.907    19645.608       22.216        7.863      535.367      141.943        0.070      334.879        5.140      848.609
12/24/2021  13:57:00     -543.909       56.000       -8.631      319.685      175.216      117.446   102198.621    30700.627    13793.586       22.284        7.335      546.784      131.866        0.058      334.882        5.145      848.601
12/24/2021  13:58:00     -648.051      -25.320      -18.311      420.317      212.590      139.626   176666.076    45194.324    19495.532       33.111       12.068      648.545      156.153        0.058      334.685        4.819      848.593
12/24/2021  13:59:00     -441.379       67.287       -4.251      262.587      162.655      109.590    68952.006    26456.616    12009.967       15.337        5.371      446.479      111.592        0.062      334.761        4.944      848.632
12/24/2021  14:00:00     -504.357      -56.535      -26.643      245.618      151.989      127.105    60328.436    23100.607    16155.804       17.892        4.979      507.516      126.969        0.063      334.749        4.924      848.609
12/24/2021  14:01:00     -541.667       -6.872      -23.261      281.550      186.509      130.701    79270.568    34785.644    17082.803       21.254        6.557      541.711      131.796        0.059      334.780        4.976      848.653
12/24/2021  14:02:00     -602.285       45.086       -9.528      278.080      192.065      129.145    77328.657    36888.999    16678.463       24.786        6.545      603.970      134.232        0.049      334.732        4.895      848.706
12/24/2021  14:03:00     -477.495        5.524      -53.695      286.963      159.516      106.163    82347.515    25445.421    11270.569       17.497        5.953      477.527      121.759        0.065      334.752        4.930      848.706
12/24/2021  14:04:00     -406.740      -28.647       13.671      294.368      162.371      123.506    86652.288    26364.356    15253.800       14.733        6.414      407.748      113.128        0.077      334.860        5.107      848.726
12/24/2021  14:05:00     -338.612     -100.721      -55.500      181.463      118.834       78.965    32928.861    14121.578     6235.442        9.057        2.664      353.274       59.766        0.029      334.824        5.048      848.747
12/24/2021  14:06:00     -351.562      -52.078      -24.581      184.069      132.055       85.424    33881.553    17438.392     7297.259        9.275        2.931      355.398       68.138        0.037      334.858        5.105      848.759
12/24/2021  14:07:00     -362.367       -7.896      -26.180      198.443      103.671       76.727    39379.474    10747.751     5886.969        9.403        2.801      362.453       72.870        0.040      334.857        5.104      848.812
12/24/2021  14:08:00     -452.814       33.203      -27.661      277.660      150.475      101.859    77095.061    22642.707    10375.288       15.849        5.506      454.030       74.256        0.027      334.754        4.932      848.810
12/24/2021  14:09:00     -298.099        0.459      -25.625      169.505      109.922       70.478    28731.944    12082.894     4967.126        6.764        2.289      298.099       72.700        0.059      334.885        5.149      848.836
12/24/2021  14:10:00     -384.980      -92.488      -39.503      178.353      152.008       91.032    31809.627    23106.434     8286.905       11.075        3.160      395.934       82.978        0.044      334.830        5.059      848.837
12/24/2021  14:11:00     -445.234       -9.805      -29.002      264.387      174.846      119.303    69900.573    30570.993    14233.203       15.692        5.735      445.342      132.276        0.088      334.845        5.084      848.816
12/24/2021  14:12:00     -557.372      -19.650      -38.968      255.130      144.365      113.341    65091.233    20841.292    12846.152       20.566        4.939      557.718      108.695        0.038      334.809        5.024      848.845
12/24/2021  14:13:00     -406.663      -23.873      -31.141      328.802      187.240      137.903   108110.810    35058.782    19017.269       16.452        8.109      407.363      144.477        0.126      334.778        4.971      848.912
12/24/2021  14:14:00     -381.503      -57.734      -24.933      312.675      162.948      136.655    97765.446    26552.207    18674.718       14.622        7.150      385.846      147.635        0.146      334.818        5.038      848.981
12/24/2021  14:15:00     -259.375      -46.655      -17.490      268.061      165.639      130.193    71856.599    27436.257    16950.145        9.298        5.812      263.538      130.936        0.247      334.858        5.105      848.999
12/24/2021  14:16:00     -516.135       -4.204      -13.851      371.177      168.980      113.736   137772.413    28554.259    12935.846       22.290        8.963      516.152      127.686        0.061      334.771        4.959      848.974
12/24/2021  14:17:00     -499.542      160.113        3.069      223.538      176.035      109.891    49969.149    30988.384    12075.957       18.409        4.652      524.574       90.814        0.030      334.742        4.911      848.913
12/24/2021  14:18:00     -435.418      -12.324      -15.849      230.009      136.696      109.752    52904.258    18685.710    12045.483       13.680        4.182      435.592      103.600        0.057      334.755        4.934      848.928
12/24/2021  14:19:00     -275.676      -26.529      -23.512      250.367      175.801       84.651    62683.729    30906.151     7165.734        8.899        5.038      276.950      105.823        0.146      334.815        5.035      848.937
12/24/2021  14:20:00     -493.600     -111.780      -35.221      268.356      209.937      121.708    72015.113    44073.625    14812.841       19.411        6.545      506.099      131.997        0.068      334.710        4.859      848.898
12/24/2021  14:21:00     -307.316       72.563        6.567      275.765      127.910      102.265    76046.257    16360.852    10458.150       10.129        5.143      315.767      101.605        0.104      334.745        4.917      848.972
12/24/2021  14:22:00     -368.409      -20.690      -20.992      230.659      150.547       89.333    53203.761    22664.469     7980.332       11.021        4.192      368.990       93.691        0.064      334.826        5.052      849.056
12/24/2021  14:23:00     -606.524      -32.038      -38.184      282.863      154.916      127.541    80011.402    23998.976    16266.707       24.529        6.014      607.369      126.676        0.043      334.601        4.677      849.015
12/24/2021  14:24:00     -483.156      103.313      -19.900      344.717      177.611      131.318   118829.640    31545.746    17244.309       20.603        8.381      494.078      119.137        0.058      334.654        4.763      848.976
12/24/2021  14:25:00     -430.352       43.591      -10.928      206.436      170.370       94.686    42615.969    29026.060     8965.424       13.390        4.030      432.554       81.697        0.036      334.764        4.947      849.041
12/24/2021  14:26:00     -308.156       68.098      -12.679      194.897      148.616       86.141    37984.902    22086.636     7420.354        8.361        3.375      315.590       75.780        0.058      334.822        5.046      849.073
12/24/2021  14:27:00     -395.710      -18.272      -24.372      305.147      203.601      108.489    93114.709    41453.507    11769.936       15.190        7.317      396.131      125.858        0.101      334.689        4.824      849.067
12/24/2021  14:28:00     -328.470       77.151        5.228      162.638      120.197       93.518    26451.108    14447.399     8745.553        8.175        2.482      337.409       88.172        0.068      334.797        5.005      849.047
12/24/2021  14:29:00     -397.475      -10.250      -19.892      298.363      156.071      113.867    89020.390    24358.291    12965.694       14.239        6.317      397.607      110.634        0.077      334.592        4.665      849.036
12/24/2021  14:30:00     -302.422      -20.976      -16.756      247.218      151.325      130.169    61116.653    22899.279    16943.923        9.655        5.048      303.149      134.555        0.197      334.676        4.802      849.050
12/24/2021  14:31:00     -340.100       -1.761       -5.009      303.503      175.223      132.786    92113.867    30703.135    17632.128       12.805        7.022      340.105      135.226        0.158      334.640        4.742      849.033
12/24/2021  14:32:00     -381.384       79.028      -29.918      198.756      180.207       93.712    39503.852    32474.702     8781.938       11.666        4.038      389.486       99.818        0.066      334.637        4.738      849.044
12/24/2021  14:33:00     -506.212        7.638      -17.149      340.671      171.121      128.172   116056.568    29282.265    16428.189       20.916        8.088      506.270      136.700        0.073      334.516        4.537      848.992
12/24/2021  14:34:00     -516.166      -84.212      -29.767      283.374      149.049      134.388    80301.022    22215.644    18060.125       19.747        6.029      522.990      139.432        0.071      334.538        4.573      848.984
12/24/2021  14:35:00     -482.220       -7.223        6.507      235.589      144.845      111.159    55502.023    20980.059    12356.265       16.072        4.442      482.274      116.398        0.058      334.578        4.639      849.022
12/24/2021  14:36:00     -533.473        8.221      -20.732      249.509      118.089       98.034    62254.821    13945.056     9610.641       18.543        4.291      533.536       89.354        0.028      334.582        4.646      849.063
12/24/2021  14:37:00     -548.463      -16.539      -41.120      302.965      157.352       96.202    91788.061    24759.517     9254.774       21.427        6.290      548.712      122.742        0.050      334.555        4.600      849.081
12/24/2021  14:38:00     -459.706      -12.609       14.164      284.658      174.452      118.046    81030.425    30433.545    13934.796       16.852        6.270      459.879      138.323        0.090      334.540        4.577      849.027
12/24/2021  14:39:00     -299.209      -19.720      -10.891      295.134      172.631      128.832    87104.339    29801.557    16597.778       11.174        6.675      299.858      126.803        0.179      334.610        4.692      849.046
12/24/2021  14:40:00     -469.721      -54.347      -10.901      284.819      199.247      137.281    81121.842    39699.174    18846.181       18.166        6.983      472.854      146.762        0.096      334.514        4.532      849.052
12/24/2021  14:41:00     -478.346       22.980      -42.018      299.378      160.689      114.801    89627.418    25821.034    13179.334       17.984        6.431      478.897      104.806        0.048      334.501        4.511      849.055
12/24/2021  14:42:00     -402.646      -59.019      -17.397      214.401      126.687      101.707    45967.635    16049.714    10344.314       11.912        3.618      406.949       85.996        0.045      334.505        4.519      849.065
12/24/2021  14:43:00     -334.476      -44.461      -11.090      266.091      116.598      113.972    70804.170    13595.105    12989.615       10.566        4.869      337.418      129.024        0.146      334.475        4.469      849.077
12/24/2021  14:44:00     -267.458      -49.883      -11.642      234.436      160.231      117.869    54960.400    25674.081    13893.053        8.433        4.726      272.070      119.830        0.194      334.553        4.599      849.117
12/24/2021  14:45:00     -376.029      -22.544      -32.831      181.378      135.948       90.300    32897.941    18481.768     8154.014       10.125        2.977      376.704       84.929        0.051      334.503        4.517      849.129
12/24/2021  14:46:00     -537.510       30.962      -16.005      243.144      200.928      126.270    59119.024    40371.908    15944.176       20.276        5.772      538.401      133.547        0.062      334.399        4.343      849.157
12/24/2021  14:47:00     -426.458      100.212       -7.548      263.897      149.894      112.404    69641.630    22468.279    12634.756       14.834        5.237      438.074      118.797        0.074      334.479        4.475      849.120
12/24/2021  14:48:00     -118.221       50.238       -7.724      207.272      146.242      120.585    42961.660    21386.825    14540.848        4.771        3.944      128.453       79.688        0.385      334.572        4.632      849.126
12/24/2021  14:49:00     -296.096       68.729      -13.886      199.602      147.384       92.758    39840.894    21721.906     8604.085        8.137        3.508      303.968       85.158        0.078      334.529        4.558      849.062
12/24/2021  14:50:00     -353.057      -29.757      -23.501      242.827      141.463       92.308    58965.104    20011.695     8520.807       10.678        4.375      354.309      107.188        0.092      334.516        4.537      849.024
12/24/2021  14:51:00     -227.588      -23.110       -5.695      213.269      146.735      115.116    45483.566    21531.158    13251.588        6.630        4.013      228.759      111.801        0.239      334.498        4.507      849.038
12/24/2021  14:52:00     -144.461       -0.405       10.371      202.096      132.622       89.842    40842.778    17588.717     8071.562        4.373        3.325      144.461       85.179        0.348      334.672        4.796      849.064
12/24/2021  14:53:00     -560.777       49.891        4.229      268.338      159.101      135.747    72005.335    25312.990    18427.247       21.634        5.787      562.992      129.327        0.053      334.433        4.399      849.099
12/24/2021  14:54:00     -609.450      117.342      -16.454      304.608      172.026      121.577    92785.850    29592.992    14780.889       26.129        6.858      620.644      132.368        0.045      334.309        4.195      849.060
12/24/2021  14:55:00     -394.306      -13.560      -27.708      242.021      210.130      102.483    58574.377    44154.521    10502.762       13.481        5.662      394.539       90.986        0.053      334.438        4.408      849.120
12/24/2021  14:56:00     -558.335      -32.750      -44.804      289.953      203.288      109.791    84072.791    41326.125    12054.106       22.611        6.873      559.295      116.401        0.043      334.325        4.220      849.075
12/24/2021  14:57:00     -364.057       25.151       -2.262      203.708      117.570       96.493    41496.795    13822.795     9310.915        9.889        3.232      364.924      104.084        0.081      334.404        4.352      849.081
12/24/2021  14:58:00     -409.450       56.438      -11.363      189.037      138.114       90.678    35734.851    19075.587     8222.533       11.699        3.152      413.322       96.898        0.055      334.385        4.319      849.074
12/24/2021  14:59:00     -334.384      116.875      -23.237      270.387      170.755      100.797    73109.063    29157.307    10160.055       11.920        5.621      354.221      120.446        0.116      334.440        4.411      849.089
12/24/2021  15:00:00     -303.182      -26.461      -17.018      244.736      126.673       99.993    59895.883    16045.946     9998.540        8.941        4.297      304.334       98.306        0.104      334.408        4.356      849.065
12/24/2021  15:01:00     -372.236       84.251      -14.767      259.213      156.159      110.185    67191.283    24385.639    12140.705       12.478        5.186      381.651      120.378        0.099      334.360        4.278      849.118
12/24/2021  15:02:00     -567.278       13.568      -19.682      340.018      187.459      133.082   115611.994    35140.859    17710.928       24.539        8.423      567.441      121.021        0.045      334.264        4.119      849.140
12/24/2021  15:03:00     -514.397       18.107      -19.363      264.482      166.866      117.934    69950.964    27844.418    13908.474       18.849        5.585      514.716      131.474        0.065      334.213        4.033      849.126
12/24/2021  15:04:00     -504.322        5.015      -26.034      342.567      162.230      135.110   117352.287    26318.704    18254.704       20.845        8.096      504.347      144.713        0.082      334.227        4.057      849.123
12/24/2021  15:05:00     -400.502       45.516        9.675      243.183      148.355      115.141    59137.763    22009.223    13257.344       12.847        4.720      403.081      124.239        0.095      334.341        4.245      849.178
12/24/2021  15:06:00     -414.132      -44.361      -16.637      251.533      207.593      114.112    63269.081    43094.661    13021.548       14.655        5.969      416.501      120.007        0.083      334.295        4.169      849.119
12/24/2021  15:07:00     -277.545       -4.823        7.025      240.439      191.008      116.322    57810.680    36483.927    13530.778        9.244        5.391      277.587      126.606        0.208      334.392        4.333      849.155
12/24/2021  15:08:00     -211.163       19.830       -6.664      235.818      136.859       94.241    55610.296    18730.316     8881.310        6.411        4.161      212.092       56.769        0.072      334.341        4.246      849.186
12/24/2021  15:09:00     -536.955       65.866      -19.449      389.315      192.987      140.283   151566.107    37243.880    19679.455       25.073       10.424      540.980      151.620        0.079      334.127        3.892      849.184
12/24/2021  15:10:00     -471.268      101.710       -8.197      338.823      198.371      118.331   114801.124    39351.203    14002.296       20.030        8.408      482.119       94.080        0.038      334.173        3.967      849.173
12/24/2021  15:11:00     -371.752       60.328       18.406      265.538      146.902      107.361    70510.601    21580.258    11526.394       12.288        5.181      376.616      108.108        0.082      334.203        4.016      849.204
12/24/2021  15:12:00     -307.887       55.849      -13.157      221.100      155.148      125.268    48885.097    24071.022    15692.165        9.335        4.432      312.911      115.450        0.136      334.294        4.170      849.267
12/24/2021  15:13:00     -352.093      -17.339       -7.616      280.296      174.656      132.254    78565.790    30504.706    17491.190       12.542        6.328      352.520      148.093        0.176      334.200        4.012      849.294
12/24/2021  15:14:00     -367.690       -5.263      -39.284      266.422      158.010       98.503    70980.456    24967.012     9702.861       12.119        5.283      367.728      106.382        0.084      334.182        3.982      849.327
12/24/2021  15:15:00     -458.605      101.607       -6.705      268.958      168.883      122.458    72338.283    28521.507    14995.993       16.825        5.793      469.726      132.598        0.080      334.112        3.865      849.361
12/24/2021  15:16:00     -453.350      106.654      -21.554      372.709      206.384      118.096   138911.634    42594.182    13946.645       20.637        9.773      465.727      138.662        0.089      334.150        3.930      849.371
12/24/2021  15:17:00     -524.096       74.568      -13.121      285.056      190.053      114.421    81257.069    36120.271    13092.125       20.542        6.523      529.374      104.297        0.039      334.123        3.884      849.399
12/24/2021  15:18:00     -392.637       90.362       -4.273      219.793      159.214      106.613    48308.855    25349.043    11366.412       12.367        4.251      402.901      100.456        0.062      334.173        3.965      849.441
12/24/2021  15:19:00     -510.726       31.280        2.984      266.913      185.027      121.841    71242.610    34235.153    14845.117       19.105        6.016      511.683      128.886        0.063      334.108        3.859      849.463
12/24/2021  15:20:00     -472.551      -97.178      -31.642      275.005      210.383      133.999    75627.608    44261.151    17955.681       18.577        6.892      482.439      132.056        0.075      334.079        3.813      849.466
12/24/2021  15:21:00     -196.057      -29.447      -10.184      273.348      140.221      122.163    74719.043    19661.931    14923.791        7.434        5.465      198.256      127.681        0.415      334.169        3.962      849.534
12/24/2021  15:22:00     -397.524      -87.137      -21.853      261.590      161.982      126.348    68429.400    26238.031    15963.938       13.834        5.532      406.962      137.527        0.114      334.121        3.881      849.565
12/24/2021  15:23:00     -397.079       -9.951       -1.446      326.955      196.250      153.954   106899.604    38514.033    23701.749       16.341        8.456      397.204      155.702        0.154      334.034        3.737      849.616
12/24/2021  15:24:00     -268.012       -8.992       -3.066      220.491      145.746      110.760    48616.166    21242.009    12267.828        7.701        4.106      268.163      108.792        0.165      334.109        3.860      849.665
12/24/2021  15:25:00     -290.543      -12.545       -7.397      275.700      174.988      104.834    76010.697    30620.800    10990.242       10.110        5.881      290.813       98.159        0.114      334.136        3.906      849.697
12/24/2021  15:26:00     -392.764      -23.604      -23.434      208.842      168.582      105.093    43614.809    28419.818    11044.580       11.921        4.154      393.473       99.429        0.064      334.094        3.836      849.636
12/24/2021  15:27:00     -552.902       43.280      -33.121      275.084      215.838      130.633    75671.290    46586.218    17065.024       22.397        6.966      554.593      138.052        0.062      333.984        3.655      849.641
12/24/2021  15:28:00     -485.546      -38.857      -26.035      296.378      195.757      129.342    87840.087    38320.664    16729.418       19.039        7.145      487.098      140.937        0.084      333.956        3.607      849.574
12/24/2021  15:29:00     -384.135      -51.184      -14.753      254.106      121.892      102.508    64569.973    14857.688    10507.889       12.015        4.497      387.530      122.642        0.100      334.049        3.763      849.642
12/24/2021  15:30:00     -230.087       18.521      -31.743      239.787      186.713      119.183    57497.745    34861.826    14204.669        8.041        5.328      230.831      108.911        0.223      334.046        3.757      849.670
12/24/2021  15:31:00     -339.929      -35.383      -20.293      377.226      171.064      118.632   142299.694    29262.788    14073.648       15.139        9.282      341.765      134.706        0.155      333.987        3.660      849.724
12/24/2021  15:32:00     -409.450      -14.166      -13.004      350.348      146.806      127.629   122743.500    21551.926    16289.207       16.427        8.029      409.695      148.026        0.131      333.929        3.562      849.716
12/24/2021  15:33:00     -385.964      117.195      -12.978      272.749      152.347       92.554    74392.243    23209.546     8566.290       13.450        5.308      403.365      113.577        0.079      333.911        3.532      849.703
12/24/2021  15:34:00     -361.511       -7.550      -16.063      151.261      163.473       93.654    22880.004    26723.412     8771.071        9.468        2.919      361.590       72.587        0.040      333.951        3.599      849.703
12/24/2021  15:35:00     -427.213      -45.466      -22.066      298.308      167.894      131.258    88987.535    28188.237    17228.550       15.971        6.720      429.626      138.828        0.104      333.917        3.544      849.744
12/24/2021  15:36:00     -384.249       75.628       -6.219      228.051      168.322      113.340    52007.077    28332.214    12846.025       12.328        4.659      391.620      119.573        0.093      333.906        3.525      849.767
12/24/2021  15:37:00     -290.240      -70.156      -35.878      198.899      148.977      116.525    39560.766    22194.002    13578.137        8.288        3.767      298.599      113.568        0.145      333.983        3.653      849.732
12/24/2021  15:38:00     -313.064       27.254       -7.994      210.608      160.473      102.270    44355.663    25751.598    10459.218        8.968        4.028      314.248      105.584        0.113      333.964        3.621      849.798
12/24/2021  15:39:00     -577.711       20.139      -40.881      297.628      213.824      147.767    88582.516    45720.650    21835.193       24.595        7.807      578.062      158.278        0.075      333.774        3.306      849.793
12/24/2021  15:40:00     -536.689      -78.494      -15.524      251.542      198.448      121.279    63273.211    39381.464    14708.699       20.588        5.868      542.399      119.161        0.048      333.767        3.295      849.814
12/24/2021  15:41:00     -532.973        1.846      -25.654      256.667      163.164      111.806    65877.873    26622.443    12500.504       19.484        5.250      532.976      125.768        0.056      333.745        3.258      849.820
12/24/2021  15:42:00     -502.076      -74.679      -31.681      325.930      178.329      135.032   106230.482    31801.063    18233.528       20.743        7.813      507.600      137.949        0.074      333.731        3.235      849.833
12/24/2021  15:43:00     -433.284       26.293      -13.609      343.895      234.854      157.969   118263.437    55156.462    24954.353       19.346        9.919      434.081      155.774        0.129      333.678        3.148      849.798
12/24/2021  15:44:00     -526.179        1.217      -31.325      308.482      214.515      130.022    95160.980    46016.515    16905.702       21.794        7.904      526.180      104.805        0.040      333.656        3.111      849.786
12/24/2021  15:45:00     -340.553       -5.937      -24.611      220.034      208.552       83.743    48415.091    43494.118     7012.808       10.775        4.946      340.604       58.972        0.030      333.666        3.127      849.747
12/24/2021  15:46:00     -428.638       49.060      -25.326      257.030      155.056      105.345    66064.649    24042.448    11097.648       14.397        5.060      431.436       98.650        0.052      333.683        3.154      849.755
12/24/2021  15:47:00     -538.746      -43.920      -48.505      358.899      289.273      167.408   128808.160    83678.688    28025.529       26.748       12.026      540.533      188.965        0.122      333.643        3.089      849.721
12/24/2021  15:48:00     -386.063        6.271       -7.493      334.741      193.595      126.762   112051.511    37479.140    16068.684       15.734        8.280      386.114      144.244        0.140      333.689        3.165      849.747
12/24/2021  15:49:00     -399.269        0.463      -20.755      378.135      173.252      123.794   142986.377    30016.352    15324.855       17.405        9.416      399.269      138.249        0.120      333.733        3.238      849.713
12/24/2021  15:50:00     -439.516      -15.142      -22.908      281.019      171.709      100.835    78971.947    29483.827    10167.615       15.625        5.931      439.777      101.681        0.053      333.708        3.196      849.782
12/24/2021  15:51:00     -455.109        0.963        4.962      272.259      192.812      118.561    74124.727    37176.453    14056.724       16.623        6.268      455.110      128.040        0.079      333.678        3.146      849.817
12/24/2021  15:52:00     -657.014       23.525      -52.126      375.398      190.163      140.087   140923.518    36161.850    19624.428       31.579        9.835      657.435      147.263        0.050      333.599        3.016      849.835
12/24/2021  15:53:00     -538.519       89.574       -0.687      261.158      183.011      118.490    68203.638    33493.062    14039.866       20.686        5.787      545.917      126.107        0.053      333.609        3.032      849.857
12/24/2021  15:54:00     -319.762       29.924      -18.890      347.403      203.658      127.857   120688.909    41476.774    16347.419       14.097        8.926      321.159      135.046        0.177      333.640        3.084      849.891
12/24/2021  15:55:00     -409.542       23.857      -25.227      287.812      242.301      134.524    82835.574    58709.617    18096.770       16.426        7.982      410.236      135.114        0.108      333.592        3.004      849.907
12/24/2021  15:56:00     -387.895       21.475      -26.076      368.121      160.235      119.075   135513.176    25675.211    14178.812       16.345        8.768      388.489      131.442        0.114      333.587        2.998      849.913
12/24/2021  15:57:00     -505.650       24.178      -13.649      278.376      247.956      124.669    77493.041    61482.151    15542.332       20.546        7.726      506.228      130.314        0.066      333.539        2.917      849.952
12/24/2021  15:58:00     -461.522       -5.515      -13.153      268.244      211.186      128.258    71954.956    44599.673    16450.170       17.308        6.650      461.555      146.912        0.101      333.523        2.890      849.972
12/24/2021  15:59:00     -396.197       73.150      -11.645      217.953      182.597       98.378    47503.503    33341.575     9678.265       12.647        4.526      402.893      103.956        0.067      333.549        2.933      849.998
12/24/2021  16:00:00     -369.992      -37.764      -25.336      224.000      199.782       94.396    50175.841    39912.669     8910.514       11.896        4.950      371.914      104.719        0.079      333.537        2.913      850.009
12/24/2021  16:01:00     -584.367       -6.460      -26.877      290.668      221.321      152.224    84487.678    48983.167    23172.027       24.942        7.832      584.402      137.376        0.055      333.454        2.776      850.053
12/24/2021  16:02:00     -574.858       66.592      -16.090      380.881      225.751      145.088   145070.400    50963.371    21050.529       27.608       10.854      578.702      170.086        0.086      333.440        2.753      850.076
12/24/2021  16:03:00     -532.741      -30.896      -41.442      250.487      233.174      120.699    62743.913    54370.248    14568.211       20.906        6.584      533.636      121.809        0.052      333.452        2.773      850.127
12/24/2021  16:04:00     -321.345       -3.959        2.066      257.814      185.618      123.931    66467.940    34453.897    15358.886       10.976        5.814      321.369      127.102        0.156      333.458        2.783      850.131
12/24/2021  16:05:00     -740.252       17.810       -8.381      390.429      271.504      120.607   152434.626    73714.423    14545.991       39.448       12.035      740.466      128.576        0.030      333.386        2.664      850.162
12/24/2021  16:06:00     -539.949        7.811      -17.873      265.906      162.533      120.322    70706.158    26417.015    14477.290       20.174        5.580      540.006      127.227        0.056      333.417        2.716      850.196
12/24/2021  16:07:00     -419.009       43.741       -7.955      254.861      173.357      104.787    64954.187    30052.772    10980.340       14.175        5.299      421.286       92.020        0.048      333.424        2.725      850.228
12/24/2021  16:08:00     -505.007       40.969      -39.066      283.099      156.278      102.937    80145.223    24422.729    10596.013       18.668        5.758      506.666      115.985        0.052      333.446        2.763      850.245
12/24/2021  16:09:00     -521.975      -37.876      -37.273      246.980      191.641      121.656    60999.305    36726.269    14800.131       19.388        5.626      523.348      117.967        0.051      333.418        2.716      850.213
12/24/2021  16:10:00     -479.565       16.756      -16.665      227.277      159.596      106.548    51655.010    25470.863    11352.578       15.949        4.424      479.857      107.412        0.050      333.407        2.698      850.235
12/24/2021  16:11:00     -441.836       86.407       -3.921      207.878      154.114      102.885    43213.348    23751.083    10585.322       14.011        3.877      450.206       99.388        0.049      333.403        2.691      850.272
12/24/2021  16:12:00     -296.097       -6.553       -7.171      164.118      129.727       78.708    26934.689    16829.006     6194.885        6.885        2.498      296.170       67.460        0.052      333.441        2.756      850.280
12/24/2021  16:13:00     -210.535       52.405        5.339      172.525       99.808       69.216    29765.022     9961.724     4790.896        4.580        2.226      216.959       68.955        0.101      333.413        2.709      850.268
12/24/2021  16:14:00     -267.399     -104.914      -27.362      113.885      150.040       67.639    12969.749    22511.890     4574.989        6.165        2.003      287.244       48.697        0.029      333.449        2.767      850.264
12/24/2021  16:15:00     -199.141       -2.640       -4.865      185.143      140.062       82.590    34278.011    19617.406     6821.114        5.019        3.036      199.158       71.598        0.129      333.414        2.712      850.266
12/24/2021  16:16:00     -191.780       -4.141       -0.930      158.558      114.974       82.988    25140.600    13219.017     6886.985        4.101        2.262      191.825       80.101        0.174      333.442        2.758      850.263
12/24/2021  16:17:00     -505.482      -66.074      -30.553      266.375      165.881      135.188    70955.513    27516.392    18275.819       18.876        5.837      509.782      127.864        0.063      333.377        2.649      850.247
12/24/2021  16:18:00     -542.014       44.186      -19.396      295.488      176.777      115.249    87313.448    31250.210    13282.264       21.395        6.592      543.812      110.395        0.041      333.371        2.640      850.218
12/24/2021  16:19:00     -347.968       37.848       -0.466      203.550      122.231       76.594    41432.699    14940.333     5866.643        9.237        3.112      350.020       85.456        0.060      333.399        2.686      850.190
12/24/2021  16:20:00     -373.033      -14.710       -4.086      229.852      152.823      103.966    52831.805    23354.751    10808.942       11.318        4.350      373.323       93.147        0.062      333.353        2.611      850.192
12/24/2021  16:21:00     -401.391       78.755       -9.602      271.806      161.040      121.859    73878.464    25934.028    14849.736       14.101        5.733      409.044      114.523        0.078      333.346        2.599      850.185
12/24/2021  16:22:00     -468.462        6.806      -42.151      259.861      168.917      113.086    67527.592    28533.103    12788.343       16.504        5.442      468.511      106.606        0.052      333.331        2.572      850.212
12/24/2021  16:23:00     -391.194      -44.037      -18.041      209.876      137.675       93.333    44048.086    18954.444     8711.051       11.349        3.586      393.665       77.912        0.039      333.338        2.585      850.244
12/24/2021  16:24:00     -380.534       -0.848      -21.602      181.375      152.140      100.385    32897.049    23146.506    10077.055       10.568        3.306      380.535       72.682        0.036      333.342        2.590      850.253
12/24/2021  16:25:00     -495.837      -26.854      -45.384      181.450      136.319       98.992    32924.006    18582.986     9799.493       15.496        3.065      496.564       79.283        0.025      333.287        2.500      850.305
12/24/2021  16:26:00     -411.790       19.201      -31.109      163.194      177.752       91.406    26632.333    31595.914     8355.047       11.873        3.329      412.237       68.178        0.027      333.310        2.537      850.316
12/24/2021  16:27:00     -346.297      -31.289      -19.711      186.863      117.412       83.221    34917.797    13785.564     6925.686        8.845        2.781      347.707       84.598        0.059      333.307        2.534      850.364
12/24/2021  16:28:00     -305.813      -26.795      -30.300      167.267      124.117       75.434    27978.235    15405.026     5690.255        7.211        2.454      306.984       49.297        0.026      333.313        2.544      850.371
12/24/2021  16:29:00     -343.986      -17.775      -19.166      197.565      193.071      114.135    39031.930    37276.437    13026.887       10.416        4.467      344.445      118.181        0.118      333.302        2.526      850.326
12/24/2021  16:30:00     -509.834      -40.088      -25.290      270.675      219.343      102.481    73264.956    48111.387    10502.423       19.700        6.594      511.407      106.858        0.044      333.314        2.543      850.323
12/24/2021  16:31:00     -503.290      -20.525      -22.100      250.721      179.861      112.275    62860.986    32350.000    12605.568       18.099        5.391      503.709      120.966        0.058      333.302        2.526      850.349
12/24/2021  16:32:00     -284.441      -32.703      -10.027      183.277      126.489       82.680    33590.618    15999.516     6835.933        6.924        2.821      286.315       84.580        0.087      333.316        2.550      850.359
12/24/2021  16:33:00     -329.826      -17.394      -39.291      194.800      139.975       70.183    37947.009    19593.114     4925.595        8.654        3.123      330.284       78.835        0.057      333.302        2.526      850.323
12/24/2021  16:34:00     -406.534       16.998      -14.531      285.358      149.580      108.039    81429.100    22374.261    11672.400       14.060        5.774      406.889      106.888        0.069      333.274        2.479      850.324
12/24/2021  16:35:00     -354.904       14.336      -18.422      211.089      104.993       79.219    44558.770    11023.485     6275.713        9.417        3.093      355.193       82.567        0.054      333.273        2.476      850.322
12/24/2021  16:36:00     -379.633      -53.062      -33.557      251.349      160.828      113.233    63176.411    25865.602    12821.735       12.494        5.093      383.323      115.539        0.091      333.290        2.507      850.396
12/24/2021  16:37:00     -378.925       66.213        8.485      290.177      180.492       96.076    84202.936    32577.476     9230.550       13.700        6.301      384.667      104.502        0.074      333.272        2.476      850.357
12/24/2021  16:38:00     -640.371       -5.102      -31.607      286.443      232.517      123.394    82049.379    54064.025    15226.124       28.119        7.567      640.391      114.577        0.032      333.275        2.479      850.395
12/24/2021  16:39:00     -509.867      -25.678      -32.660      334.654      250.168      115.596   111993.609    62584.166    13362.536       22.478        9.397      510.513      132.718        0.068      333.295        2.514      850.350
12/24/2021  16:40:00     -446.730       66.967      -21.540      237.549      177.585       98.561    56429.327    31536.545     9714.271       15.108        4.884      451.722      109.648        0.059      333.279        2.487      850.385
12/24/2021  16:41:00     -475.755       10.702      -12.228      214.478      190.109      103.205    46000.829    36141.616    10651.181       15.968        4.640      475.876       95.435        0.040      333.286        2.499      850.399
12/24/2021  16:42:00     -408.370      -70.011      -30.140      268.290      193.822      120.328    71979.319    37566.986    14478.734       14.828        6.201      414.328      121.714        0.086      333.282        2.492      850.356
12/24/2021  16:43:00     -319.681      -35.258      -18.044      205.525      151.794       82.186    42240.566    23041.446     6754.613        8.789        3.602      321.619       80.001        0.062      333.297        2.518      850.376
12/24/2021  16:44:00     -290.398      -64.002       -1.318      201.746      144.002       90.086    40701.439    20736.475     8115.472        7.898        3.478      297.367       89.980        0.092      333.271        2.475      850.364
12/24/2021  16:45:00     -429.687       12.637       -4.409      217.723      138.560      107.220    47403.210    19198.805    11496.138       13.144        3.905      429.873      108.611        0.064      333.200        2.355      850.377
12/24/2021  16:46:00     -365.823      -25.144      -11.264      191.666      146.454      100.454    36735.824    21448.908    10090.918       10.142        3.414      366.686       97.844        0.071      333.204        2.363      850.417
12/24/2021  16:47:00     -323.088       -2.766      -16.241      276.543      154.451      111.606    76476.037    23855.208    12455.906       10.870        5.639      323.100      128.240        0.158      333.220        2.389      850.374
12/24/2021  16:48:00     -486.130      -13.610      -48.232      186.029      151.011       95.262    34606.954    22804.325     9074.813       15.265        3.324      486.321       85.757        0.031      333.237        2.418      850.360
12/24/2021  16:49:00     -311.665       -2.607       -6.125      173.209      131.337       78.045    30001.186    17249.286     6091.000        7.525        2.667      311.676       82.774        0.071      333.232        2.408      850.341
12/24/2021  16:50:00     -459.389      -35.193      -59.437      156.090      145.606       83.851    24364.187    21200.978     7031.064       13.419        2.630      460.735       50.630        0.012      333.213        2.376      850.353
12/24/2021  16:51:00     -373.288      -14.261       -8.155      213.086      132.390       97.332    45405.649    17527.150     9473.503       10.600        3.620      373.560      111.578        0.089      333.167        2.301      850.343
12/24/2021  16:52:00     -189.141       28.324      -11.083       98.554      101.061       64.673     9712.815    10213.271     4182.640        3.040        1.205      191.250       54.326        0.081      333.152        2.278      850.315
12/24/2021  16:53:00     -407.156      -11.715      -15.209      239.753      137.399       76.356    57481.643    18878.545     5830.299       12.415        4.110      407.324       75.153        0.034      333.160        2.290      850.336
12/24/2021  16:54:00     -410.896       27.621      -11.732      252.879      128.425       88.613    63947.972    16492.957     7852.207       12.900        4.415      411.824       94.005        0.052      333.128        2.239      850.370
12/24/2021  16:55:00     -413.325       24.424       -0.822      248.363      141.214       99.863    61683.952    19941.470     9972.537       13.150        4.580      414.046      104.036        0.063      333.155        2.282      850.322
12/24/2021  16:56:00     -262.636     -146.010      -22.462      136.678      166.922       84.662    18680.873    27862.826     7167.726        7.225        2.686      300.494       64.705        0.046      333.189        2.340      850.352
12/24/2021  16:57:00     -171.306     -101.888      -32.945      180.986      182.039       70.914    32755.930    33138.111     5028.756        5.585        3.546      199.316       54.070        0.074      333.249        2.439      850.298
12/24/2021  16:58:00     -297.264      -40.612      -12.764      214.915      108.260       69.965    46188.258    11720.193     4895.052        7.648        3.140      300.026       86.258        0.083      333.152        2.277      850.400
12/24/2021  16:59:00     -214.344     -143.469      -22.372      113.774      123.635       63.132    12944.529    15285.505     3985.657        4.962        1.611      257.928       60.301        0.055      333.212        2.378      850.423
12/24/2021  17:00:00     -288.866     -122.532      -33.655      132.183      156.190       66.496    17472.351    24395.334     4421.676        7.293        2.314      313.779       62.922        0.040      333.208        2.367      850.364
12/24/2021  17:01:00     -205.936       -3.819      -16.219      160.980      100.628       69.274    25914.434    10126.045     4798.921        4.176        2.042      205.972       80.730        0.154      333.163        2.295      850.371
12/24/2021  17:02:00     -295.833      -38.698      -48.181      140.729       81.347       65.049    19804.626     6617.389     4231.360        6.099        1.533      298.354       62.438        0.044      333.159        2.289      850.372
12/24/2021  17:03:00     -236.933       -2.307      -11.671      133.660       93.491       63.408    17865.125     8740.558     4020.541        4.345        1.531      236.944       71.532        0.091      333.116        2.218      850.383
12/24/2021  17:04:00     -261.086      -27.580      -20.305       99.556       79.185       59.556     9911.303     6270.317     3546.885        4.453        0.986      262.539       51.936        0.039      333.150        2.274      850.393
12/24/2021  17:05:00     -217.160       -7.051       -8.961      151.223       98.512       63.259    22868.401     9704.680     4001.750        4.192        1.829      217.275       72.730        0.112      333.144        2.266      850.387
12/24/2021  17:06:00     -153.299        6.171       -6.072       82.053       75.009       46.130     6732.722     5626.361     2128.017        1.903        0.724      153.423       46.955        0.094      333.134        2.251      850.392
12/24/2021  17:07:00     -184.676      -84.296      -14.022      122.165       83.738       53.042    14924.311     7012.038     2813.459        3.307        1.237      203.006       56.517        0.078      333.160        2.291      850.376
12/24/2021  17:08:00     -230.516      -35.375      -21.150      170.772      124.124       60.432    29162.991    15406.726     3652.046        5.152        2.411      233.215       59.532        0.065      333.149        2.272      850.337
12/24/2021  17:09:00     -173.929      -34.353      -24.486       76.992       50.383       40.564     5927.694     2538.398     1645.477        2.107        0.506      177.289       37.322        0.044      333.175        2.317      850.292
12/24/2021  17:10:00     -184.548       -6.385       -6.575      147.913       79.378       54.657    21878.198     6300.870     2987.438        3.265        1.558      184.658       61.688        0.112      333.123        2.231      850.300
12/24/2021  17:11:00     -209.044     -117.184      -30.933       88.887       94.636       46.384     7900.948     8955.936     2151.445        3.869        0.950      239.648       45.105        0.035      333.108        2.204      850.272
12/24/2021  17:12:00     -194.009      -33.459      -16.103       80.577       64.749       50.164     6492.610     4192.476     2516.422        2.611        0.660      196.873       50.406        0.066      333.128        2.238      850.282
12/24/2021  17:13:00     -183.428      -99.879      -26.417      109.072      120.285       54.257    11896.767    14468.394     2943.788        3.681        1.465      208.857       60.627        0.084      333.195        2.347      850.254
12/24/2021  17:14:00     -220.213      -27.462      -20.704      118.397       59.063       58.653    14017.927     3488.398     3440.220        3.531        1.047      221.919       56.068        0.064      333.153        2.280      850.270
12/24/2021  17:15:00      -90.972      -20.012       -2.207       56.088       51.452       30.866     3145.859     2647.354      952.738        0.771        0.337       93.147       17.281        0.034      333.203        2.366      850.261
12/24/2021  17:16:00     -175.791       16.648       -2.238       64.347       51.656       39.343     4140.527     2668.357     1547.900        1.977        0.418      176.577       35.818        0.041      333.099        2.191      850.272
12/24/2021  17:17:00     -138.570       22.612       -8.057       59.854       40.510       35.992     3582.502     1641.100     1295.404        1.315        0.326      140.402       28.638        0.042      333.117        2.223      850.316
12/24/2021  17:18:00      -80.474       22.667      -13.597       43.902       45.647       26.318     1927.405     2083.658      692.661        0.594        0.235       83.605       23.125        0.077      333.138        2.258      850.290
12/24/2021  17:19:00     -102.350       -5.739        3.546       70.087       58.891       36.645     4912.165     3468.134     1342.892        1.012        0.486      102.510       19.548        0.036      333.116        2.222      850.293
12/24/2021  17:20:00     -108.398       35.279        0.665       73.029       33.999       29.508     5333.294     1155.900      870.711        1.018        0.368      113.995       27.412        0.058      333.065        2.137      850.290
12/24/2021  17:21:00     -159.875      -61.584       -8.791       85.893      157.421       38.631     7377.653    24781.308     1492.348        3.153        1.683      171.326       45.150        0.069      333.175        2.317      850.267
12/24/2021  17:22:00     -226.588     -168.874      -24.846       77.295      115.077       58.701     5974.592    13242.706     3445.823        5.157        1.133      282.596       36.865        0.017      333.225        2.397      850.204
12/24/2021  17:23:00     -157.310      -27.434      -14.644       79.359       55.102       42.583     6297.916     3036.218     1813.319        1.843        0.557      159.684       43.735        0.075      333.164        2.299      850.227
12/24/2021  17:24:00     -112.297      -98.051      -13.525       66.284       71.684       49.658     4393.508     5138.526     2465.872        1.720        0.600      149.079       32.424        0.047      333.176        2.319      850.253
12/24/2021  17:25:00     -115.414       39.768      -11.965       49.553       47.858       33.277     2455.530     2290.414     1107.371        1.045        0.293      122.073       22.027        0.033      333.122        2.231      850.254
12/24/2021  17:26:00      -55.061        2.266       -9.703       34.529       28.469       18.538     1192.233      810.510      343.640        0.274        0.117       55.108       11.469        0.043      333.146        2.271      850.228
12/24/2021  17:27:00      -37.953      -16.565      -10.943       35.158       28.886       26.488     1236.107      834.398      701.616        0.230        0.139       41.410       16.317        0.155      333.144        2.266      850.243
12/24/2021  17:28:00      -45.414        1.555        0.227       47.845       31.888       23.155     2289.179     1016.853      536.155        0.295        0.192       45.440       23.151        0.260      333.136        2.254      850.246
12/24/2021  17:29:00     -118.370       27.987        3.735       64.272       55.829       34.763     4130.923     3116.837     1208.498        1.163        0.423      121.634       33.304        0.075      333.054        2.118      850.298
12/24/2021  17:30:00      -84.245       56.999       -9.659       56.549       43.620       27.652     3197.765     1902.663      764.633        0.815        0.293      101.716       29.501        0.084      333.029        2.078      850.300
12/24/2021  17:31:00     -127.682       46.347       -6.443       87.349       65.426       45.372     7629.852     4280.569     2058.617        1.623        0.698      135.834       39.089        0.083      333.037        2.090      850.299
12/24/2021  17:32:00     -204.759       38.782       -9.502       96.932       84.528       43.439     9395.810     7145.045     1886.951        3.097        0.921      208.399       36.394        0.030      333.104        2.199      850.350
12/24/2021  17:33:00     -202.526      -11.254      -14.897       95.618       64.337       47.531     9142.897     4139.258     2259.189        2.845        0.777      202.838       45.372        0.050      333.103        2.197      850.376
12/24/2021  17:34:00     -244.582      -30.649      -23.615      142.711      132.606       88.250    20366.324    17584.468     7788.109        5.352        2.287      246.495       55.028        0.050      333.127        2.235      850.365
12/24/2021  17:35:00     -305.628       -7.213       -1.433      158.144       98.545       86.009    25009.566     9711.036     7397.535        6.778        2.106      305.713       95.860        0.098      333.096        2.185      850.334
12/24/2021  17:36:00     -149.365       -0.295      -10.763       96.547       74.197       54.547     9321.257     5505.240     2975.355        2.011        0.890      149.366       40.367        0.073      333.143        2.263      850.343
12/24/2021  17:37:00     -209.297      -52.400      -31.376      104.454       70.964       50.721    10910.576     5035.824     2572.613        3.302        0.926      215.757       35.201        0.027      333.188        2.336      850.324
12/24/2021  17:38:00     -233.897       10.957      -26.832       57.673       95.048       36.539     3326.188     9034.082     1335.114        3.462        0.685      234.153       30.247        0.017      333.104        2.198      850.279
12/24/2021  17:39:00     -153.150       27.109        9.185      171.068       62.424       47.514    29264.332     3896.753     2257.621        2.984        1.771      155.531       49.009        0.099      333.062        2.130      850.255
12/24/2021  17:40:00     -282.594       46.889       -8.353      106.314       86.897       49.353    11302.669     7551.047     2435.738        5.170        1.064      286.458       42.363        0.022      333.059        2.123      850.280
12/24/2021  17:41:00     -224.100        0.739      -13.566       94.954       90.848       48.662     9016.307     8253.364     2367.973        3.502        0.982      224.102       50.332        0.050      333.074        2.149      850.292
12/24/2021  17:42:00     -250.127      -24.436      -30.017       66.306       59.652       30.329     4396.436     3558.413      919.859        3.647        0.444      251.317       28.147        0.013      333.086        2.169      850.278
12/24/2021  17:43:00     -162.158     -107.698      -16.521       70.609       73.371       41.518     4985.614     5383.331     1723.710        2.513        0.605      194.664       20.453        0.011      333.242        2.428      850.265
12/24/2021  17:44:00     -194.016      -19.218      -32.378      106.856       63.281       40.376    11418.128     4004.435     1630.249        2.805        0.853      194.966       18.279        0.009      333.278        2.489      850.260
12/24/2021  17:45:00     -178.573      -34.924      -12.849       60.217       59.553       35.415     3626.029     3546.565     1254.203        2.085        0.421      181.956       12.194        0.004      333.294        2.512      850.263
12/24/2021  17:46:00     -101.090      -30.583       -7.072       58.404       50.779       29.505     3411.054     2578.482      870.521        0.903        0.343      105.615       25.990        0.061      333.274        2.483      850.255
12/24/2021  17:47:00     -153.959        4.011      -12.423       66.342       46.359       33.771     4401.201     2149.134     1140.473        1.578        0.385      154.011       33.095        0.046      333.165        2.301      850.271
12/24/2021  17:48:00     -120.212      -14.412      -13.709       46.569       41.795       24.695     2168.656     1746.835      609.845        0.969        0.226      121.073       20.390        0.028      333.109        2.210      850.311
12/24/2021  17:49:00        0.035       32.059       -7.700       72.899       59.221       36.758     5314.312     3507.098     1351.135        0.563        0.509       32.059       30.547        0.908      333.067        2.141      850.261
12/24/2021  17:50:00     -138.391       56.213       -3.448      108.139       74.898       46.107    11694.044     5609.697     2125.815        2.087        0.971      149.371       46.366        0.096      333.135        2.249      850.272
12/24/2021  17:51:00     -137.248        5.762        0.532       83.733       63.735       34.908     7011.200     4062.124     1218.592        1.558        0.615      137.369       38.688        0.079      333.162        2.296      850.342
12/24/2021  17:52:00      -86.160       -0.072       -1.085       82.696       56.212       45.139     6838.674     3159.812     2037.491        0.973        0.602       86.160       37.210        0.187      333.098        2.191      850.436
12/24/2021  17:53:00     -112.864       56.724       -0.780       69.274       67.212       43.849     4798.857     4517.459     1922.747        1.360        0.562      126.316       40.833        0.104      333.059        2.126      850.425
12/24/2021  17:54:00     -185.159       -1.730      -17.391      116.008      116.229       63.808    13457.941    13509.246     4071.489        3.281        1.552      185.167       50.453        0.074      333.206        2.367      850.380
12/24/2021  17:55:00     -238.430      -29.221      -17.825      130.905      124.422       68.933    17136.112    15480.897     4751.693        4.769        1.868      240.214       69.250        0.083      333.329        2.571      850.446
12/24/2021  17:56:00     -290.342      -24.687      -23.357      147.002       78.349       64.565    21609.530     6138.615     4168.601        5.868        1.596      291.390       66.608        0.052      333.288        2.504      850.503
12/24/2021  17:57:00      -74.051        3.164        1.761       72.233       49.262       36.425     5217.594     2426.726     1326.800        0.723        0.449       74.119       38.131        0.265      333.261        2.462      850.469
12/24/2021  17:58:00     -124.472       50.295       -3.391       94.092       85.488       50.506     8853.256     7308.145     2550.897        1.837        0.936      134.250       50.689        0.143      333.230        2.409      850.394
12/24/2021  17:59:00     -137.532      -23.022      -21.856       98.405      121.639       44.151     9683.448    14796.156     1949.286        2.317        1.321      139.446       41.511        0.089      333.342        2.591      850.372
12/24/2021  18:00:00     -252.741      -19.172       -4.560      146.184      100.878       74.319    21369.899    10176.432     5523.261        5.066        1.853      253.467       55.569        0.048      333.363        2.627      850.410
12/24/2021  18:01:00     -272.333      -21.691      -20.333      102.772       96.020       58.354    10562.064     9219.807     3405.227        4.911        1.159      273.195       53.893        0.039      333.291        2.507      850.393
12/24/2021  18:02:00     -241.175      -45.806      -28.984      130.343       64.169       76.967    16989.361     4117.713     5923.913        4.406        1.352      245.486       68.189        0.077      333.301        2.523      850.400
12/24/2021  18:03:00     -109.958      -15.705       -9.369       93.437       58.638       48.333     8730.403     3438.414     2336.047        1.346        0.725      111.074       54.534        0.241      333.188        2.338      850.432
12/24/2021  18:04:00     -188.570      -17.893      -16.658      110.013       56.607       44.656    12102.842     3204.385     1994.145        2.673        0.865      189.417       44.571        0.055      333.162        2.294      850.430
12/24/2021  18:05:00     -159.923       18.033        3.083      109.226       71.200       47.249    11930.261     5069.393     2232.488        2.257        0.962      160.936       52.125        0.105      333.184        2.330      850.388
12/24/2021  18:06:00      -58.656      -20.928       -1.435       53.720       48.243       25.161     2885.827     2327.382      633.062        0.486        0.292       62.277       30.168        0.235      333.172        2.313      850.342
12/24/2021  18:07:00      -15.675        5.985      -14.558       52.893       31.006       22.075     2797.645      961.396      487.321        0.237        0.212       16.779       14.436        0.740      333.159        2.291      850.305
12/24/2021  18:08:00     -142.021       24.210       -3.326      109.033       43.437       39.087    11888.148     1886.807     1527.825        1.803        0.765      144.070       47.388        0.108      333.212        2.378      850.390
12/24/2021  18:09:00      -63.755        4.675      -10.954       59.331       45.130       34.058     3520.181     2036.685     1159.939        0.546        0.336       63.926       32.352        0.256      333.102        2.198      850.423
12/24/2021  18:10:00     -154.121       70.844      -16.310       78.597       63.240       44.960     6177.418     3999.299     2021.372        2.062        0.610      169.624       34.710        0.042      333.110        2.210      850.368
12/24/2021  18:11:00     -200.676        4.408      -13.134      118.471       73.329       37.870    14035.487     5377.112     1434.119        3.065        1.042      200.724       39.567        0.039      333.128        2.237      850.379
12/24/2021  18:12:00     -190.514      -29.973      -17.984      101.057       88.845       55.144    10212.544     7893.458     3040.902        2.933        1.057      192.858       53.504        0.077      333.210        2.373      850.386
12/24/2021  18:13:00     -255.455       17.718       -8.021       97.676       86.633       45.915     9540.673     7505.325     2108.201        4.239        0.958      256.069       43.308        0.029      333.157        2.285      850.405
12/24/2021  18:14:00      -98.071       28.533       -4.325       83.474       53.299       39.016     6967.840     2840.810     1522.285        1.089        0.567      102.137       40.680        0.159      333.097        2.191      850.351
12/24/2021  18:15:00     -127.725       -9.042       -8.269      125.826       73.690       61.656    15832.179     5430.251     3801.522        2.076        1.253      128.044       59.497        0.216      333.146        2.268      850.297
12/24/2021  18:16:00     -265.616       24.649      -18.488      171.981      102.390       78.752    29577.412    10483.739     6201.843        5.887        2.313      266.757       58.534        0.048      333.236        2.417      850.280
12/24/2021  18:17:00     -301.912       11.591      -14.811      218.167      202.189       93.099    47596.789    40880.345     8667.333        9.431        4.857      302.134       85.984        0.081      333.292        2.509      850.278
12/24/2021  18:18:00     -417.608       60.459       -4.354      187.843      165.209       89.678    35284.951    27294.154     8042.197       12.433        3.531      421.961       73.503        0.030      333.262        2.458      850.325
12/24/2021  18:19:00     -320.971      -78.548      -35.309      129.589      141.480       68.646    16793.266    20016.635     4712.220        7.597        2.076      330.442       62.831        0.036      333.309        2.537      850.320
12/24/2021  18:20:00     -210.239       -1.841      -21.083       79.912       74.745       45.368     6385.886     5586.775     2058.248        2.934        0.702      210.248       42.710        0.041      333.291        2.508      850.331
12/24/2021  18:21:00     -252.497      -41.183      -13.816       85.686       89.973       60.984     7342.048     8095.075     3719.085        4.240        0.958      255.834       44.422        0.030      333.202        2.359      850.377
12/24/2021  18:22:00     -190.279      -39.525       -3.713      203.206      102.722       61.942    41292.871    10551.843     3836.776        4.672        2.784      194.341       78.414        0.163      333.177        2.319      850.399
12/24/2021  18:23:00     -463.633       19.471      -12.319      216.841      143.649       94.353    47019.949    20634.940     8902.400       14.601        3.828      464.042      102.490        0.049      333.169        2.305      850.396
12/24/2021  18:24:00     -233.102        9.791       -1.340      135.139      142.717       85.713    18262.431    20368.215     7346.698        5.020        2.299      233.308       70.198        0.091      333.178        2.321      850.360
12/24/2021  18:25:00     -197.518      -32.499      -11.477      147.017      108.431       81.152    21614.018    11757.195     6585.658        4.007        1.998      200.174       55.900        0.078      333.164        2.296      850.343
12/24/2021  18:26:00     -229.656      -27.198      -22.979      153.828       97.714       61.340    23662.992     9548.069     3762.618        4.548        1.849      231.261       69.103        0.089      333.115        2.217      850.366
12/24/2021  18:27:00     -243.029      -38.031      -11.644      129.128       90.801       70.877    16673.938     8244.759     5023.547        4.529        1.497      245.987       59.777        0.059      333.129        2.240      850.388
12/24/2021  18:28:00     -236.456       16.121      -13.862      124.807       92.774       63.205    15576.721     8607.087     3994.856        4.227        1.409      237.005       54.502        0.053      333.090        2.175      850.396
12/24/2021  18:29:00     -226.111       42.453       -8.782      128.141       93.504       67.346    16420.243     8742.961     4535.429        4.135        1.485      230.062       65.821        0.082      333.085        2.167      850.415
12/24/2021  18:30:00     -301.861       33.250      -15.129      124.798       99.288       64.861    15574.623     9858.193     4206.941        6.104        1.482      303.687       61.916        0.042      333.104        2.197      850.442
12/24/2021  18:31:00     -284.634       34.855      -13.203      145.660       96.469       61.809    21216.888     9306.313     3820.303        5.837        1.717      286.760       63.512        0.049      333.044        2.101      850.449
12/24/2021  18:32:00     -258.702       65.683      -19.322      145.390      106.993       60.791    21138.253    11447.472     3695.548        5.394        1.814      266.910       69.748        0.068      333.039        2.090      850.449
12/24/2021  18:33:00     -252.293       82.854      -10.769      136.309       91.865       58.142    18580.139     8439.192     3380.540        5.051        1.520      265.549       67.207        0.064      333.021        2.062      850.464
12/24/2021  18:34:00     -298.352       39.138      -15.066      179.054      103.308       67.901    32060.287    10672.528     4610.524        6.905        2.367      300.908       85.144        0.080      333.039        2.091      850.489
12/24/2021  18:35:00      -69.811       25.423       -4.335       83.108       78.592       47.084     6906.961     6176.631     2216.864        1.042        0.765       74.296       32.348        0.190      333.009        2.045      850.496
12/24/2021  18:36:00     -125.762      -19.379      -12.740      112.900       78.245       71.379    12746.469     6122.260     5094.938        2.015        1.198      127.246       67.657        0.283      332.994        2.018      850.510
12/24/2021  18:37:00     -267.920      -67.588       -9.301      147.517      100.181       76.815    21761.307    10036.291     5900.540        5.706        1.885      276.314       76.853        0.077      333.054        2.117      850.496
12/24/2021  18:38:00     -160.297       20.101       -9.867      150.693       87.232       68.590    22708.371     7609.396     4704.597        3.060        1.751      161.553       72.030        0.199      333.002        2.031      850.487
12/24/2021  18:39:00     -219.635       -7.558       -1.769      173.637      101.375       92.840    30149.801    10276.913     8619.300        4.866        2.452      219.765       85.694        0.152      333.023        2.065      850.509
12/24/2021  18:40:00     -217.973       14.475      -14.202      124.775       95.188       64.412    15568.704     9060.832     4148.856        3.835        1.439      218.453       61.643        0.080      333.021        2.061      850.498
12/24/2021  18:41:00     -179.068       16.327       -7.273      104.895       85.327       60.252    11002.967     7280.764     3630.357        2.715        1.096      179.811       48.934        0.074      332.971        1.979      850.460
12/24/2021  18:42:00     -192.345       54.407      -11.008       65.354       54.112       38.871     4271.087     2928.115     1510.966        2.439        0.436      199.892       26.167        0.017      332.961        1.962      850.407
12/24/2021  18:43:00     -148.860       44.217       -4.628       92.547       59.646       46.053     8564.970     3557.705     2120.907        1.919        0.712      155.288       42.358        0.074      332.904        1.870      850.444
12/24/2021  18:44:00     -153.449       18.092       -8.236      104.433       55.126       42.025    10906.296     3038.900     1766.133        1.982        0.786      154.512       46.598        0.091      332.909        1.877      850.494
12/24/2021  18:45:00     -123.241       38.705       -4.016       93.120       61.125       47.179     8671.394     3736.269     2225.868        1.567        0.732      129.176       32.734        0.064      332.919        1.894      850.498
12/24/2021  18:46:00     -121.451       54.960        2.310      101.356       53.402       40.191    10273.090     2851.814     1615.326        1.626        0.737      133.308       35.455        0.071      332.891        1.847      850.478
12/24/2021  18:47:00     -198.439       24.491      -23.821      120.048       60.461       48.035    14411.476     3655.531     2307.339        3.046        1.019      199.945       49.287        0.061      332.971        1.979      850.488
12/24/2021  18:48:00      -91.394        7.220        3.442      108.835       52.260       54.666    11845.040     2731.154     2988.331        1.299        0.878       91.678       58.381        0.406      332.976        1.988      850.524
12/24/2021  18:49:00     -191.753       44.065       -5.049       83.102       76.418       48.312     6905.977     5839.773     2334.046        2.691        0.754      196.751       37.529        0.036      332.978        1.990      850.534
12/24/2021  18:50:00     -164.247        5.982       -6.506       73.942       53.761       42.123     5467.385     2890.272     1774.307        1.859        0.507      164.356       39.562        0.058      332.962        1.964      850.549
12/24/2021  18:51:00     -167.586       53.341       -4.979       71.815       48.805       35.165     5157.358     2381.947     1236.602        1.986        0.439      175.870       38.148        0.047      332.923        1.898      850.557
12/24/2021  18:52:00     -136.416       26.556       -0.981       80.412       42.693       33.206     6466.035     1822.724     1102.654        1.435        0.470      138.977       35.313        0.065      332.920        1.896      850.588
12/24/2021  18:53:00      -92.622       56.007       -7.533       50.742       36.501       31.174     2574.743     1332.319      971.836        0.832        0.244      108.239       29.567        0.075      332.921        1.899      850.536
12/24/2021  18:54:00      -59.045       -9.995      -10.202       44.914       35.276       25.957     2017.289     1244.429      673.751        0.381        0.197       59.885       25.607        0.183      332.962        1.967      850.522
12/24/2021  18:55:00     -103.452       -4.644        0.061       75.715       52.965       36.552     5732.744     2805.266     1336.047        1.030        0.494      103.556       35.257        0.116      332.977        1.990      850.607
12/24/2021  18:56:00     -163.965      -14.109      -13.075       64.874       39.610       27.663     4208.644     1568.928      765.241        1.690        0.327      164.571       30.691        0.035      332.997        2.024      850.667
12/24/2021  18:57:00     -137.561      -16.420       -8.509       60.341       57.508       41.292     3641.043     3307.117     1705.057        1.396        0.433      138.537       37.286        0.072      332.996        2.022      850.713
12/24/2021  18:58:00     -165.213      -35.885      -14.462      109.889      105.771       49.251    12075.530    11187.513     2425.652        2.724        1.284      169.066       56.932        0.113      333.039        2.092      850.716
12/24/2021  18:59:00     -152.403       41.711        1.856      106.235       99.033       69.284    11285.855     9807.557     4800.284        2.543        1.295      158.008       53.189        0.113      333.020        2.060      850.678
12/24/2021  19:00:00     -211.730       81.678        0.100      105.706       62.668       51.098    11173.862     3927.243     2610.999        3.460        0.886      226.938       37.435        0.027      332.938        1.923      850.722
12/24/2021  19:01:00     -181.552       31.606       -4.064      112.505       63.368       40.798    12657.367     4015.521     1664.466        2.615        0.917      184.282       46.456        0.064      332.871        1.813      850.730
12/24/2021  19:02:00     -144.462       16.231      -18.057       65.643       66.452       32.187     4309.029     4415.836     1036.018        1.561        0.488      145.371       28.003        0.037      332.874        1.820      850.715
12/24/2021  19:03:00     -168.301      -40.655      -29.168       61.685       65.832       33.103     3805.044     4333.799     1095.835        2.003        0.462      173.142       35.232        0.041      332.957        1.956      850.685
12/24/2021  19:04:00      -83.517       -8.937        7.240      103.633       73.270       46.159    10739.745     5368.449     2130.631        1.267        0.912       83.994       48.904        0.339      332.867        1.809      850.727
12/24/2021  19:05:00     -182.715       67.847       -5.900      121.619      107.024       62.337    14791.129    11454.166     3885.918        3.407        1.507      194.905       47.196        0.059      332.773        1.651      850.660
12/24/2021  19:06:00     -159.854      -36.462      -24.266      129.338      101.418       61.931    16728.343    10285.610     3835.399        2.915        1.542      163.960       62.101        0.143      332.791        1.682      850.585
12/24/2021  19:07:00     -336.747       11.817      -21.368      162.695      135.094       86.621    26469.501    18250.357     7503.116        8.310        2.611      336.954       71.272        0.045      332.752        1.614      850.624
12/24/2021  19:08:00     -304.583       70.401      -12.724      136.003      111.210       58.853    18496.708    12367.759     3463.635        6.610        1.716      312.613       20.387        0.004      332.751        1.614      850.634
12/24/2021  19:09:00     -203.254       73.202       -1.980      133.650       94.291       59.805    17862.285     8890.782     3576.607        3.850        1.516      216.034       55.650        0.066      332.703        1.536      850.615
12/24/2021  19:10:00     -159.551       52.276       -7.339       92.509       59.837       40.631     8557.848     3580.488     1650.883        2.101        0.689      167.897       34.819        0.043      332.695        1.524      850.582
12/24/2021  19:11:00     -105.684        6.833       -3.475      108.154       64.340       51.108    11697.229     4139.593     2612.033        1.483        0.922      105.905       56.580        0.285      332.792        1.686      850.564
12/24/2021  19:12:00     -145.354       40.989       -6.553       93.201       56.248       41.096     8686.394     3163.861     1688.896        1.819        0.677      151.022       37.754        0.062      332.766        1.642      850.580
12/24/2021  19:13:00     -136.204       15.313      -19.959       78.254       54.059       40.381     6123.670     2922.355     1630.613        1.493        0.534      137.062       41.908        0.093      332.841        1.766      850.581
12/24/2021  19:14:00     -187.517       58.478       -2.530      116.597       53.119       35.192    13594.934     2821.665     1238.462        2.812        0.883      196.424       31.565        0.026      332.728        1.580      850.619
12/24/2021  19:15:00     -216.660        7.803        0.859      155.221       93.426       56.909    24093.584     8728.452     3238.638        4.153        1.803      216.800       52.467        0.059      332.834        1.751      850.649
12/24/2021  19:16:00     -162.654       38.450      -14.073      148.716       94.531       62.958    22116.402     8936.163     3963.758        3.157        1.751      167.137       55.107        0.109      332.828        1.744      850.673
12/24/2021  19:17:00     -137.638      -12.051      -13.563      107.123       75.803       45.018    11475.426     5746.125     2026.580        1.926        0.962      138.164       41.748        0.091      332.809        1.712      850.642
12/24/2021  19:18:00      -88.944       31.745       -7.770       57.239       45.834       29.279     3276.279     2100.744      857.240        0.761        0.312       94.439       27.533        0.085      332.744        1.606      850.608
12/24/2021  19:19:00     -126.446       36.782       -8.110       51.928       43.629       28.644     2696.483     1903.474      820.488        1.141        0.271      131.687       30.244        0.053      332.672        1.488      850.593
12/24/2021  19:20:00     -115.416       42.641      -10.981       40.126       36.641       32.749     1610.092     1342.528     1072.527        0.964        0.201      123.041       17.207        0.020      332.679        1.499      850.560
12/24/2021  19:21:00      -68.484       63.827       -1.883       29.400       38.900       23.914      864.377     1513.193      571.874        0.586        0.147       93.616       16.780        0.032      332.712        1.554      850.476
12/24/2021  19:22:00      -39.954       40.217       -9.668       46.256       31.088       21.832     2139.619      966.478      476.645        0.344        0.179       56.689       20.668        0.133      332.777        1.661      850.409
12/24/2021  19:23:00       -9.240      -72.308      -21.862       34.355       39.580       34.921     1180.277     1566.611     1219.446        0.488        0.198       72.896       22.906        0.099      332.763        1.637      850.480
12/24/2021  19:24:00        3.858      -53.321      -34.418       43.554       60.707       34.648     1896.992     3685.356     1200.456        0.541        0.339       53.461       31.630        0.350      332.830        1.750      850.564
12/24/2021  19:25:00      -33.728       13.735       -6.495       22.457       58.154       21.123      504.318     3381.931      446.174        0.285        0.217       36.418       23.594        0.420      332.942        1.935      850.588
12/24/2021  19:26:00      -45.086      104.107      -14.300       36.588       45.810       22.849     1338.677     2098.584      522.074        0.852        0.198      113.450       18.937        0.028      333.040        2.095      850.568
12/24/2021  19:27:00      -74.623       69.242      -29.626       76.799       77.538       40.005     5898.118     6012.207     1600.407        1.237        0.676      101.799       35.021        0.118      332.997        2.023      850.625
12/24/2021  19:28:00     -113.874       19.566      -14.720       73.592       47.813       31.715     5415.781     2286.050     1005.837        1.114        0.435      115.543       20.883        0.033      332.815        1.723      850.670
12/24/2021  19:29:00      -88.106       32.896       -4.575       44.350       32.250       32.406     1966.939     1040.079     1050.131        0.646        0.203       94.047       28.342        0.091      332.741        1.601      850.680
12/24/2021  19:30:00      -82.707        6.385       -6.169       52.614       28.147       23.241     2768.235      792.238      540.139        0.551        0.205       82.953       14.759        0.032      332.734        1.589      850.631
12/24/2021  19:31:00     -104.668       24.012      -10.838       40.995       23.505       22.284     1680.551      552.490      496.580        0.719        0.136      107.387       15.457        0.021      332.761        1.634      850.599
12/24/2021  19:32:00      -70.639       79.214       -9.097       22.695       28.411       13.181      515.065      807.193      173.745        0.642        0.075      106.135       12.498        0.014      332.808        1.712      850.560
12/24/2021  19:33:00      -73.608       73.431      -16.839       44.823       51.661       22.450     2009.058     2668.901      503.995        0.814        0.259      103.973       18.262        0.031      332.997        2.024      850.500
12/24/2021  19:34:00       -0.444      116.534      -15.903       20.106       16.897       17.514      404.258      285.512      306.750        0.741        0.050      116.534        8.411        0.005      332.904        1.871      850.486
12/24/2021  19:35:00      -17.368       41.077       -8.473       14.137       40.597       17.823      199.847     1648.121      317.655        0.211        0.108       44.598       11.645        0.068      332.877        1.826      850.493
12/24/2021  19:36:00      -51.483       40.449       -7.306       24.416       21.617       17.502      596.118      467.311      306.315        0.285        0.068       65.473        7.572        0.013      332.900        1.864      850.511
12/24/2021  19:37:00      -58.898       27.562      -12.720       36.373       18.905       13.440     1322.965      357.414      180.622        0.313        0.093       65.028       15.215        0.055      332.841        1.766      850.520
12/24/2021  19:38:00      -46.821       -7.507      -11.141       38.434       37.915       23.223     1477.154     1437.527      539.290        0.291        0.173       47.419       20.611        0.189      332.753        1.622      850.629
12/24/2021  19:39:00      -17.894        0.895       -2.077       34.800       21.779       17.533     1211.061      474.330      307.410        0.116        0.100       17.916       14.614        0.665      332.747        1.612      850.583
12/24/2021  19:40:00       34.236        4.516      -15.189       25.557       20.228       16.714      653.146      409.168      279.373        0.138        0.067       34.532       12.949        0.141      332.707        1.545      850.467
12/24/2021  19:41:00       15.436       14.182       -6.762       28.600       27.322       18.821      817.934      746.486      354.248        0.120        0.096       20.962       15.555        0.551      332.645        1.443      850.449
12/24/2021  19:42:00       32.297      -17.432      -13.796       27.049       22.984        9.837      731.665      528.265       96.770        0.145        0.068       36.701        9.148        0.062      332.813        1.719      850.501
12/24/2021  19:43:00      -83.502      -20.816      -14.050       42.141       40.065       21.187     1775.847     1605.209      448.869        0.572        0.191       86.057       17.399        0.041      333.054        2.120      850.560
12/24/2021  19:44:00     -111.123       37.203      -15.179       38.798       28.140       22.854     1505.287      791.833      522.307        0.839        0.141      117.186       10.847        0.009      333.069        2.145      850.585
12/24/2021  19:45:00      -56.987       24.086       -9.135       59.243       50.310       25.300     3509.683     2531.129      640.072        0.529        0.334       61.868       18.909        0.093      333.033        2.084      850.576
12/24/2021  19:46:00     -108.877      -14.943      -11.185       88.720       57.390       43.934     7871.220     3293.555     1930.194        1.265        0.655      109.898       20.809        0.036      333.131        2.245      850.591
12/24/2021  19:47:00       -8.317      -18.304      -10.838       45.366       33.942       29.788     2058.045     1152.068      887.316        0.231        0.205       20.105       21.702        1.165      333.047        2.106      850.594
12/24/2021  19:48:00       30.057       64.096      -10.237       23.913       25.994       20.468      571.848      675.674      418.933        0.339        0.083       70.793       13.691        0.037      332.981        1.998      850.598
12/24/2021  19:49:00      -17.884      114.521      -10.704       21.898       19.752       17.057      479.531      390.154      290.940        0.735        0.058      115.909       12.090        0.011      333.076        2.155      850.578
12/24/2021  19:50:00      -99.359       44.902      -24.083       40.129       48.052       34.414     1610.346     2309.035     1184.336        0.879        0.255      109.034       23.005        0.045      333.006        2.039      850.645
12/24/2021  19:51:00      -29.119        8.920       -6.048       68.164       47.008       37.534     4646.296     2209.781     1408.815        0.461        0.413       30.455       27.712        0.828      332.838        1.762      850.752
12/24/2021  19:52:00      -95.671      -54.225        0.119       62.980       74.804       36.461     3966.522     5595.666     1329.423        1.149        0.545      109.969       35.934        0.107      333.207        2.371      850.731
12/24/2021  19:53:00      -38.465        6.869      -12.484       60.666       59.099       34.244     3680.327     3492.670     1172.645        0.501        0.417       39.073       23.959        0.376      333.477        2.820      850.604
12/24/2021  19:54:00     -233.366     -107.499      -44.783      132.392       70.211       56.055    17527.594     4929.600     3142.130        4.681        1.280      256.936       73.049        0.081      333.454        2.777      850.605
12/24/2021  19:55:00      -96.787       -9.967       -9.600      119.598       67.984       49.736    14303.581     4621.821     2473.694        1.548        1.070       97.299       54.332        0.312      333.363        2.629      850.691
12/24/2021  19:56:00     -131.816       39.768       -4.387       79.646       55.868       39.441     6343.497     3121.208     1555.584        1.500        0.551      137.684       38.660        0.079      333.005        2.037      850.772
12/24/2021  19:57:00      -62.926       37.452       -0.290       45.010       39.090       33.168     2025.931     1528.002     1100.096        0.501        0.233       73.228       24.038        0.108      332.840        1.764      850.768
12/24/2021  19:58:00        1.212       17.979       -2.719       27.516       23.085       13.848      757.118      532.935      191.768        0.091        0.074       18.020        7.457        0.171      332.832        1.751      850.701
12/24/2021  19:59:00      -70.197       26.291      -20.092       53.847       32.858       21.513     2899.492     1079.653      462.808        0.523        0.222       74.959       15.153        0.041      332.856        1.792      850.637
12/24/2021  20:00:00     -145.836       42.448       -6.033      128.890       79.810       46.015    16612.514     6369.593     2117.349        2.410        1.255      151.888       34.881        0.053      332.813        1.718      850.705
12/24/2021  20:01:00     -228.820       81.142        1.669       89.981       64.529       44.231     8096.536     4164.050     1956.372        3.658        0.711      242.780       46.369        0.036      332.687        1.510      850.794
12/24/2021  20:02:00     -143.148       62.821       -5.790       90.302       51.006       45.729     8154.421     2601.655     2091.099        1.866        0.642      156.326       41.395        0.070      332.695        1.523      850.809
12/24/2021  20:03:00     -119.913       46.173       -5.808      104.392       60.071       36.380    10897.750     3608.555     1323.484        1.618        0.791      128.496       43.703        0.116      332.706        1.542      850.763
12/24/2021  20:04:00     -273.256       57.329      -15.686      140.314       73.902       59.228    19687.913     5461.488     3507.978        5.342        1.433      279.205       46.469        0.028      332.697        1.525      850.694
12/24/2021  20:05:00      -87.690       -2.132       -3.680       98.629       68.104       44.669     9727.728     4638.112     1995.298        1.203        0.818       87.716       38.586        0.194      332.717        1.562      850.684
12/24/2021  20:06:00      -96.341       -7.277       -2.589       70.508       76.968       40.907     4971.430     5924.069     1673.409        1.095        0.628       96.615       34.714        0.129      332.929        1.912      850.648
12/24/2021  20:07:00     -103.307       18.312      -12.569       58.336       28.244       29.595     3403.132      797.713      875.836        0.812        0.254      104.917       25.907        0.061      333.019        2.061      850.639
12/24/2021  20:08:00      -58.961        2.631      -12.483       51.917       30.188       28.148     2695.406      911.315      792.335        0.402        0.220       59.020       25.401        0.185      332.972        1.984      850.602
12/24/2021  20:09:00      -56.808       20.787      -13.595       46.214       41.233       23.063     2135.689     1700.141      531.880        0.411        0.218       60.492       23.345        0.149      332.894        1.855      850.598
12/24/2021  20:10:00     -154.501       16.157      -29.815       58.521       51.935       35.213     3424.758     2697.271     1239.944        1.619        0.368      155.343       28.705        0.034      333.026        2.072      850.588
12/24/2021  20:11:00     -153.421       70.170        9.498      111.581       68.467       59.321    12450.340     4687.695     3518.979        2.460        1.033      168.707       66.214        0.154      332.899        1.860      850.613
12/24/2021  20:12:00     -145.347       60.642       -0.192       95.937       56.584       46.718     9203.991     3201.726     2182.600        1.969        0.729      157.490       47.994        0.093      332.802        1.701      850.643
12/24/2021  20:13:00      -99.365       28.083      -20.020       68.397       46.062       37.268     4678.212     2121.718     1388.939        0.962        0.409      103.257       28.336        0.075      332.763        1.637      850.702
12/24/2021  20:14:00     -127.285       78.829      -12.521       54.639       41.931       23.848     2985.415     1758.188      568.712        1.394        0.266      149.718       24.108        0.026      332.710        1.549      850.698
12/24/2021  20:15:00      -33.788       -1.718        2.492       75.295       39.896       31.680     5669.386     1591.693     1003.623        0.471        0.413       33.832       30.184        0.796      332.713        1.556      850.683
12/24/2021  20:16:00      -63.987       35.116        5.875       53.701       34.911       26.815     2883.796     1218.810      719.058        0.509        0.241       72.990       17.570        0.058      332.889        1.845      850.700
12/24/2021  20:17:00     -142.740      -53.323      -26.627       79.145       90.224       36.451     6263.963     8140.425     1328.674        1.983        0.787      152.375       22.830        0.022      333.133        2.247      850.647
12/24/2021  20:18:00     -228.512      -87.941      -30.922      106.265       80.709       63.691    11292.340     6513.985     4056.483        4.138        1.093      244.850       58.068        0.056      333.249        2.437      850.616
12/24/2021  20:19:00     -252.808        0.091      -28.499      136.124      100.728       67.591    18529.786    10146.228     4568.477        4.898        1.662      252.808       57.281        0.051      333.137        2.254      850.626
12/24/2021  20:20:00     -184.762       38.273       -5.121      108.356       94.523       50.593    11741.121     8934.551     2559.672        2.943        1.162      188.684       49.998        0.070      333.139        2.258      850.682
12/24/2021  20:21:00      -99.442      -10.352        9.570      116.651       78.695       71.133    13607.356     6192.941     5059.968        1.747        1.243       99.979       69.011        0.476      333.151        2.277      850.796
12/24/2021  20:22:00     -191.187       -8.732      -13.312       94.640       58.435       49.754     8956.661     3414.610     2475.433        2.582        0.742      191.386       44.612        0.054      333.128        2.239      850.831
12/24/2021  20:23:00     -170.515        9.471      -16.746      100.077       50.864       51.508    10015.356     2587.127     2653.031        2.235        0.763      170.778       51.681        0.092      333.082        2.163      850.830
12/24/2021  20:24:00     -166.793        1.324       -4.332       93.096       55.963       36.858     8666.834     3131.810     1358.502        2.050        0.658      166.798       27.027        0.026      333.046        2.104      850.887
12/24/2021  20:25:00      -57.185        1.572       -1.519       83.688       76.487       48.981     7003.622     5850.238     2399.108        0.926        0.763       57.207       43.204        0.570      333.102        2.197      850.939
12/24/2021  20:26:00     -130.928        7.289       -6.106       72.370       35.306       25.963     5237.428     1246.506      674.064        1.219        0.358      131.131       32.597        0.062      333.127        2.238      850.904
12/24/2021  20:27:00     -127.180       36.026      -12.504       79.137       59.670       41.199     6262.588     3560.557     1697.323        1.457        0.576      132.184       46.084        0.122      333.080        2.160      850.910
12/24/2021  20:28:00     -115.791        4.377        4.973       86.801       75.942       45.821     7534.445     5767.135     2099.552        1.442        0.770      115.874       39.525        0.116      333.056        2.121      850.837
12/24/2021  20:29:00     -123.487      -18.875      -15.365       78.137       79.380       51.469     6105.390     6301.201     2649.007        1.545        0.753      124.921       49.818        0.159      333.141        2.262      850.731
12/24/2021  20:30:00      -77.483       27.394       -8.770       69.074       75.773       32.535     4771.162     5741.549     1058.508        0.920        0.579       82.183       36.520        0.197      333.158        2.289      850.664
12/24/2021  20:31:00     -227.730       22.897      -28.292       72.843       53.143       38.545     5306.156     2824.183     1485.748        3.140        0.481      228.878       30.443        0.018      333.140        2.257      850.616
12/24/2021  20:32:00     -115.944       22.736        0.537       77.290       50.818       38.083     5973.682     2582.426     1450.311        1.198        0.500      118.152       36.092        0.093      333.085        2.170      850.697
12/24/2021  20:33:00     -109.107        2.811      -10.419      111.070       33.586       29.814    12336.532     1128.044      888.896        1.318        0.718      109.143       22.611        0.043      333.072        2.148      850.798
12/24/2021  20:34:00     -190.831      -13.581      -16.461       71.424       46.607       35.867     5101.455     2172.188     1286.413        2.271        0.428      191.314       17.766        0.009      333.078        2.157      850.829
12/24/2021  20:35:00     -211.091      -42.713      -16.590       72.683       56.694       39.698     5282.805     3214.219     1575.892        2.836        0.504      215.369       36.366        0.029      333.264        2.463      850.888
12/24/2021  20:36:00     -164.185      -34.616      -17.145       48.700       59.935       36.688     2371.672     3592.233     1345.997        1.788        0.365      167.794       24.316        0.021      333.263        2.463      850.936
12/24/2021  20:37:00     -246.948      -93.200      -42.325      164.539      171.021       54.523    27072.932    29248.332     2972.807        6.537        2.965      263.950       77.964        0.087      333.304        2.530      850.878
12/24/2021  20:38:00     -349.710      -68.616      -43.578      203.902      134.242       89.437    41576.175    18020.946     7998.888        9.824        3.380      356.378      102.695        0.083      333.489        2.834      850.872
12/24/2021  20:39:00     -133.905      -31.806      -10.665      133.048       93.357       71.485    17701.733     8715.503     5110.157        2.529        1.576      137.630       72.323        0.276      333.475        2.812      850.962
12/24/2021  20:40:00     -132.002       35.183      -14.431       88.283       51.239       39.053     7793.897     2625.456     1525.143        1.541        0.597      136.610       31.230        0.052      333.195        2.351      850.952
12/24/2021  20:41:00      -78.532       13.010      -11.353       64.093       54.889       30.907     4107.887     3012.769      955.227        0.727        0.404       79.602       32.002        0.162      333.154        2.284      851.027
12/24/2021  20:42:00      -92.434       34.232      -19.458       37.931       42.014       25.171     1438.774     1765.203      633.598        0.697        0.192       98.569       17.381        0.031      333.088        2.174      851.087
12/24/2021  20:43:00      -63.201        1.849       -6.318       29.467       32.447       25.285      868.304     1052.803      639.317        0.330        0.128       63.228       17.133        0.073      333.039        2.095      851.064
12/24/2021  20:44:00      -97.955       49.378      -10.250       34.532       36.661       20.124     1192.456     1344.041      404.969        0.754        0.147      109.697       18.702        0.029      332.980        1.996      850.996
12/24/2021  20:45:00      -80.088       99.557      -13.184       22.134       41.939       15.700      489.928     1758.870      246.481        0.950        0.125      127.772        6.175        0.002      332.978        1.992      850.974
12/24/2021  20:46:00     -119.922       39.731      -20.506       44.435       56.843       22.241     1974.496     3231.082      494.657        1.104        0.285      126.332       28.552        0.051      332.999        2.027      850.978
12/24/2021  20:47:00      -42.685       54.080      -10.573       37.319       26.742       17.772     1392.733      715.133      315.860        0.364        0.121       68.896       15.181        0.049      332.933        1.919      850.994
12/24/2021  20:48:00     -116.879       40.460      -21.774       24.946       40.177       17.620      622.318     1614.196      310.466        0.916        0.127      123.684        8.390        0.005      332.879        1.830      851.021
12/24/2021  20:49:00      -88.742       45.123      -27.565       39.309       37.647       21.334     1545.205     1417.287      455.139        0.704        0.171       99.555       20.969        0.044      332.877        1.828      851.041
12/24/2021  20:50:00      -86.674       35.475       -9.070       47.422       30.698       30.001     2248.862      942.372      900.082        0.647        0.205       93.653       21.878        0.055      332.810        1.716      851.023
12/24/2021  20:51:00      -11.301       45.809      -12.844       22.101       30.554       18.974      488.455      933.529      359.995        0.209        0.089       47.182       16.368        0.120      333.005        2.039      850.990
12/24/2021  20:52:00      -10.487       69.581      -16.140       24.726       45.566       13.891      611.368     2076.287      192.973        0.405        0.144       70.367        9.133        0.017      333.001        2.030      851.020
12/24/2021  20:53:00      -51.190      115.577      -12.371       32.083       25.856       25.988     1029.330      668.544      675.364        0.925        0.119      126.406       16.213        0.016      333.150        2.277      851.005
12/24/2021  20:54:00      -83.265       83.112      -20.917       41.907       31.438       23.449     1756.219      988.326      549.844        0.879        0.165      117.647       21.480        0.033      333.046        2.107      851.010
12/24/2021  20:55:00      -88.538       26.139      -30.802       76.249       60.127       37.294     5813.945     3615.250     1390.831        1.014        0.541       92.316       23.334        0.064      332.826        1.742      851.005
12/24/2021  20:56:00      -66.007        9.307      -10.653       56.951       36.378       31.178     3243.446     1323.371      972.094        0.505        0.277       66.660       15.616        0.055      332.907        1.875      851.031
12/24/2021  20:57:00      -93.668       81.325      -26.208       38.013       41.581       30.355     1444.955     1728.967      921.408        1.008        0.205      124.046       20.032        0.026      332.943        1.934      851.028
12/24/2021  20:58:00      -78.936       13.138      -12.241       70.707       48.240       30.506     4999.494     2327.090      930.628        0.740        0.413       80.022       14.611        0.033      332.912        1.885      851.024
12/24/2021  20:59:00     -143.185       32.750      -16.695       43.233       44.982       21.761     1869.104     2023.371      473.548        1.311        0.218      146.883       22.035        0.023      332.951        1.949      851.014
12/24/2021  21:00:00      -98.219        8.830       -8.997       70.923       47.892       36.808     5030.109     2293.643     1354.812        0.924        0.434       98.615       32.485        0.109      332.922        1.901      851.030
12/24/2021  21:01:00      -67.408        6.232       -6.780       51.330       32.668       27.303     2634.725     1067.175      745.437        0.454        0.222       67.696       15.099        0.050      333.087        2.173      851.009
12/24/2021  21:02:00       -8.175       23.365      -18.488       35.032       22.441       30.122     1227.240      503.577      907.322        0.180        0.132       24.754       24.121        0.949      333.203        2.365      851.030
12/24/2021  21:03:00      -60.586       38.159      -19.451       32.640       24.004       16.422     1065.373      576.178      269.685        0.371        0.096       71.602       11.745        0.027      333.094        2.185      851.039
12/24/2021  21:04:00      -67.149       15.886      -21.985       16.302       20.674       15.818      265.762      427.419      250.199        0.309        0.047       69.003       10.761        0.024      333.058        2.127      851.049
12/24/2021  21:05:00      -64.497       59.898      -18.488       31.363       15.333        9.876      983.659      235.110       97.541        0.470        0.066       88.021        4.429        0.003      333.052        2.115      851.030
12/24/2021  21:06:00      -22.676       45.546        3.374       41.492       37.361       27.768     1721.552     1395.814      771.076        0.324        0.194       50.879       15.502        0.093      333.055        2.121      851.042
12/24/2021  21:07:00     -113.678      -29.185      -10.924       49.780       28.490       21.903     2478.098      811.660      479.720        0.883        0.188      117.365       15.971        0.019      333.071        2.147      851.066
12/24/2021  21:08:00      -81.104      -48.920      -13.264       27.049       33.652       21.081      731.656     1132.489      444.395        0.573        0.115       94.716       14.762        0.024      333.231        2.413      851.062
12/24/2021  21:09:00      -27.803       -1.368       -0.361       25.683       35.696       20.600      659.641     1274.208      424.375        0.157        0.118       27.837       11.606        0.174      333.332        2.579      851.068
12/24/2021  21:10:00      -85.258       57.585      -18.984       55.741       54.824       21.621     3107.052     3005.632      467.474        0.876        0.329      102.884       15.202        0.022      333.197        2.355      851.049
12/24/2021  21:11:00     -112.935       57.416      -14.090       66.110       36.972       35.389     4370.521     1366.941     1252.390        1.162        0.349      126.692       36.941        0.085      333.064        2.135      851.077
12/24/2021  21:12:00     -148.214       77.560      -27.314       65.177       49.735       32.696     4248.071     2473.544     1069.008        1.826        0.390      167.281       10.496        0.004      333.026        2.070      851.166
12/24/2021  21:13:00      -58.231       21.011        3.404       86.495       64.697       45.751     7481.392     4185.749     2093.160        0.880        0.688       61.906       16.317        0.069      333.054        2.119      851.113
12/24/2021  21:14:00       17.357       52.988      -11.145       19.846       22.461       22.251      393.873      504.510      495.113        0.231        0.070       55.758        5.997        0.012      333.246        2.436      851.051
12/24/2021  21:15:00       -1.046      -12.561       -7.545       11.639       28.805       14.645      135.457      829.724      214.477        0.070        0.059       12.604       12.579        0.996      333.244        2.432      851.085
12/24/2021  21:16:00      -17.509      -18.886       -8.183       22.523       19.275       18.883      507.304      371.510      356.582        0.098        0.062       25.754        5.911        0.053      333.250        2.441      851.054
12/24/2021  21:17:00      -52.579      -19.440      -15.563       53.460       34.518       14.425     2857.964     1191.490      208.094        0.382        0.213       56.058       19.496        0.121      333.323        2.563      851.012
12/24/2021  21:18:00      -70.090      -16.769       -3.332       86.475       55.336       51.938     7477.902     3062.123     2697.590        0.922        0.662       72.069       47.910        0.442      333.285        2.501      851.081
12/24/2021  21:19:00     -240.329       62.026       14.780      141.175       95.023       56.244    19930.357     9029.386     3163.427        4.697        1.606      248.204       57.117        0.053      333.308        2.535      851.062
12/24/2021  21:20:00     -334.215      -37.969      -34.511      121.328      106.257       62.741    14720.560    11290.595     3936.454        7.213        1.497      336.365       50.474        0.023      333.480        2.820      851.023
12/24/2021  21:21:00     -154.136       -9.064      -15.219      101.083       95.518       53.660    10217.856     9123.686     2879.423        2.314        1.111      154.402       43.771        0.080      333.382        2.660      851.039
12/24/2021  21:22:00     -247.702      -23.599      -20.074      113.571      107.440       64.837    12898.479    11543.332     4203.872        4.548        1.432      248.824       60.305        0.059      333.494        2.843      851.086
12/24/2021  21:23:00     -278.131      -96.178      -22.102      158.050      134.705       63.271    24979.719    18145.389     4003.162        6.710        2.356      294.291       69.897        0.056      333.533        2.906      851.135
12/24/2021  21:24:00     -182.435      -43.863      -17.961       83.470       81.408       51.693     6967.223     6627.322     2672.164        2.589        0.813      187.634       46.175        0.061      333.596        3.011      851.160
12/24/2021  21:25:00     -207.738        7.229        6.539      125.266       72.958       59.641    15691.485     5322.943     3557.029        3.391        1.229      207.863       67.593        0.106      333.557        2.948      851.201
12/24/2021  21:26:00     -313.851      -61.662      -29.152      141.454      109.247       71.543    20009.228    11934.944     5118.336        7.010        1.853      319.851       56.965        0.032      333.613        3.040      851.277
12/24/2021  21:27:00     -126.441      -21.533       -6.589      107.341       89.202       59.671    11521.991     7956.917     3560.626        1.976        1.152      128.261       47.684        0.138      333.580        2.987      851.297
12/24/2021  21:28:00     -205.240      -32.864      -27.609      107.155       93.561       54.184    11482.284     8753.621     2935.950        3.356        1.159      207.854       48.544        0.055      333.548        2.934      851.205
12/24/2021  21:29:00     -158.333       15.016      -20.224      101.942       75.532       54.566    10392.074     5705.147     2977.433        2.239        0.954      159.044       48.973        0.095      333.489        2.835      851.127
12/24/2021  21:30:00     -268.797       31.114       -4.614      175.785      112.320       69.923    30900.403    12615.688     4889.263        6.081        2.420      270.591       66.649        0.061      333.434        2.742      851.183
12/24/2021  21:31:00     -288.642      -11.689      -28.481      151.644       96.181       65.882    22995.818     9250.719     4340.502        6.042        1.829      288.879       60.846        0.044      333.465        2.794      851.173
12/24/2021  21:32:00     -155.985       59.098       -3.920      136.957       94.964       72.986    18757.255     9018.225     5326.961        3.046        1.655      166.805       74.806        0.201      333.436        2.747      851.190
12/24/2021  21:33:00     -197.934      -18.583      -10.758      112.037       71.895       52.293    12552.204     5168.900     2734.546        3.004        1.023      198.804       48.368        0.059      333.427        2.732      851.164
12/24/2021  21:34:00     -253.073       45.995       -8.923       92.730       77.052       44.745     8598.814     5937.054     2002.075        4.139        0.827      257.219       43.473        0.029      333.479        2.818      851.161
12/24/2021  21:35:00     -141.338      -57.005       -1.889       98.834       63.340       40.974     9768.178     4011.920     1678.908        1.934        0.773      152.401       45.962        0.091      333.597        3.015      851.207
12/24/2021  21:36:00     -117.399       18.622       -3.622      105.411       77.682       44.057    11111.381     6034.476     1941.017        1.661        0.954      118.867       39.740        0.112      333.592        3.007      851.220
12/24/2021  21:37:00     -258.617       -9.336      -24.632      116.206       77.448       51.320    13503.744     5998.192     2633.788        4.485        1.107      258.785       56.826        0.048      333.555        2.943      851.278
12/24/2021  21:38:00     -257.247     -153.396      -32.043      132.764      119.293       54.793    17626.202    14230.727     3002.270        6.279        1.743      299.510       57.505        0.037      333.643        3.089      851.270
12/24/2021  21:39:00     -273.930       -0.653      -18.621      166.282      113.963       73.667    27649.661    12987.634     5426.798        6.072        2.303      273.930       57.126        0.043      333.672        3.137      851.264
12/24/2021  21:40:00     -241.159       50.839      -10.618      149.386       82.277       54.155    22316.146     6769.447     2932.720        4.643        1.601      246.460       47.723        0.037      333.571        2.971      851.339
12/24/2021  21:41:00     -289.626       72.007      -28.630      154.298       94.949       73.792    23807.980     9015.336     5445.192        6.407        1.913      298.443       80.670        0.073      333.492        2.838      851.369
12/24/2021  21:42:00     -144.964       45.051       21.183      131.541      123.647       78.757    17302.994    15288.687     6202.700        3.114        1.940      151.803       74.810        0.243      333.448        2.766      851.333
12/24/2021  21:43:00     -361.465      -17.874       -4.715      195.821      118.342       90.999    38345.783    14004.945     8280.763        9.580        3.032      361.907       80.746        0.050      333.438        2.749      851.370
12/24/2021  21:44:00     -299.983       -3.470       -3.967      141.064      158.098       77.859    19898.995    24994.903     6061.975        7.048        2.548      300.004       80.146        0.071      333.429        2.735      851.455
12/24/2021  21:45:00     -269.017      -31.755      -24.558      154.887       97.350       70.476    23989.947     9477.016     4966.898        5.620        1.922      270.884       65.452        0.058      333.443        2.759      851.451
12/24/2021  21:46:00     -375.896      -11.735      -21.480      166.154      142.160       91.374    27607.238    20209.366     8349.249        9.902        2.808      376.079       79.121        0.044      333.553        2.940      851.380
12/24/2021  21:47:00     -218.200       72.589      -12.860      123.726       72.261       63.995    15308.076     5221.680     4095.415        3.883        1.231      229.958       53.574        0.054      333.503        2.857      851.396
12/24/2021  21:48:00     -169.775      -17.210      -12.506      104.825       79.745       54.511    10988.298     6359.230     2971.433        2.479        1.016      170.645       49.138        0.083      333.524        2.894      851.412
12/24/2021  21:49:00     -224.480       21.927      -16.392      143.806       91.888       52.748    20680.218     8443.348     2782.348        4.152        1.595      225.549       49.300        0.048      333.513        2.875      851.435
12/24/2021  21:50:00     -224.499      -34.838      -23.172      138.661      121.277       53.929    19226.788    14708.072     2908.311        4.449        1.842      227.186       52.708        0.054      333.460        2.787      851.411
12/24/2021  21:51:00      -77.716        8.127       -8.713       95.926       67.451       60.040     9201.803     4549.579     3604.754        1.177        0.868       78.140       40.685        0.271      333.412        2.710      851.495
12/24/2021  21:52:00      -32.521        0.275       -4.071      125.531       64.071       54.125    15758.048     4105.076     2929.462        1.193        1.140       32.522       53.445        2.701      333.392        2.678      851.499
12/24/2021  21:53:00     -225.524       11.907        3.376      214.610      131.760       91.687    46057.371    17360.600     8406.467        6.141        3.591      225.838       93.111        0.170      333.293        2.512      851.529
12/24/2021  21:54:00     -289.962       -5.767       -1.192      217.166       88.988       95.174    47161.062     7918.924     9058.016        7.411        3.207      290.020       94.583        0.106      333.242        2.425      851.474
12/24/2021  21:55:00     -201.300       33.484        9.022      149.078       89.502       60.499    22224.392     8010.536     3660.150        3.780        1.695      204.066       54.061        0.070      333.204        2.364      851.482
12/24/2021  21:56:00     -335.387       99.229       -2.056      140.286      102.826       65.263    19680.239    10573.115     4259.241        7.842        1.726      349.758       64.080        0.034      333.196        2.349      851.501
12/24/2021  21:57:00     -347.669       52.436      -28.560      203.713      117.081       73.356    41499.075    13708.056     5381.034        9.250        3.029      351.601       79.080        0.051      333.198        2.354      851.531
12/24/2021  21:58:00     -162.362       45.676        5.938      144.002      103.202       74.988    20736.580    10650.621     5623.205        3.274        1.851      168.665       66.102        0.154      333.181        2.326      851.595
12/24/2021  21:59:00     -167.628        6.561        9.082      208.235      117.434       72.142    43361.985    13790.666     5204.405        4.528        3.118      167.757       91.629        0.298      333.182        2.326      851.602
12/24/2021  22:00:00     -183.458       -5.432       -3.169      169.354       91.195       73.575    28680.812     8316.495     5413.228        3.805        2.121      183.538       79.589        0.188      333.181        2.326      851.661
12/24/2021  22:01:00     -163.139       30.612      -31.226      130.964      105.109       58.685    17151.605    11047.864     3443.969        3.008        1.582      165.986       45.311        0.075      333.185        2.330      851.652
12/24/2021  22:02:00     -322.654       10.021      -34.377      220.611      143.442       85.725    48669.305    20575.636     7348.691        9.098        3.830      322.810       70.336        0.047      333.152        2.277      851.673
12/24/2021  22:03:00     -171.943       -2.128      -14.067      157.242       86.457       71.739    24724.933     7474.863     5146.488        3.355        1.867      171.956       75.718        0.194      333.156        2.285      851.645
12/24/2021  22:04:00     -188.167       39.851      -16.482      129.038       88.786       70.925    16650.758     7883.028     5030.373        3.341        1.478      192.341       67.016        0.121      333.176        2.317      851.651
12/24/2021  22:05:00     -301.538      -49.200       -7.553      161.667      102.830       92.676    26136.275    10574.061     8588.865        6.934        2.265      305.526       97.310        0.101      333.153        2.280      851.574
12/24/2021  22:06:00     -147.269        0.077       -9.458      137.135       68.685       60.608    18805.893     4717.598     3673.335        2.448        1.360      147.269       73.240        0.247      333.159        2.289      851.566
12/24/2021  22:07:00     -212.714       19.090      -15.109      103.779       85.588       54.457    10770.138     7325.309     2965.585        3.345        1.053      213.568       39.452        0.034      333.115        2.216      851.529
12/24/2021  22:08:00     -182.939       34.516        6.691      121.934      107.181       67.387    14868.022    11487.757     4541.028        3.279        1.545      186.166       73.166        0.154      333.104        2.199      851.471
12/24/2021  22:09:00     -399.834       -0.947      -35.889      160.420      104.660       70.722    25734.499    10953.651     5001.639       10.142        2.084      399.835       69.723        0.030      333.178        2.320      851.471
12/24/2021  22:10:00     -281.420       31.651       -8.406      183.114      108.665       81.118    33530.669    11807.987     6580.114        6.608        2.596      283.195       92.987        0.108      333.165        2.298      851.489
12/24/2021  22:11:00     -200.637       66.127        3.338      143.828       84.139       72.172    20686.362     7079.447     5208.785        3.880        1.649      211.253       56.556        0.072      333.120        2.224      851.526
12/24/2021  22:12:00     -467.250       62.171      -17.963      181.962      112.214       78.763    33110.338    12591.876     6203.611       13.720        2.595      471.368       85.529        0.033      333.040        2.092      851.572
12/24/2021  22:13:00     -279.125       42.920        2.851      162.689      110.081       70.218    26467.675    12117.934     4930.595        6.163        2.176      282.406       72.181        0.065      333.049        2.108      851.625
12/24/2021  22:14:00     -298.598      -21.521      -18.170      170.511      142.965       81.241    29074.171    20439.075     6600.161        7.302        2.806      299.372       84.034        0.079      333.064        2.132      851.657
12/24/2021  22:15:00     -247.642       60.010      -28.722      192.235      102.592       60.578    36954.132    10525.093     3669.714        5.844        2.557      254.809       37.547        0.022      333.040        2.094      851.656
12/24/2021  22:16:00     -262.884       61.119        1.731      208.196       74.143       51.115    43345.424     5497.193     2612.757        6.214        2.573      269.895       62.796        0.054      333.016        2.056      851.654
12/24/2021  22:17:00     -250.531      102.738        1.760      161.940       95.229       71.376    26224.652     9068.608     5094.506        5.685        2.019      270.779       76.693        0.080      333.036        2.087      851.623
12/24/2021  22:18:00     -217.934      -27.206      -13.618      161.258      124.275       89.105    26004.227    15444.230     7939.788        4.890        2.469      219.625       65.911        0.090      333.112        2.213      851.588
12/24/2021  22:19:00     -180.621       22.901      -18.144      183.225      146.004       90.599    33571.523    21317.117     8208.230        4.828        3.155      182.067       81.040        0.198      333.119        2.224      851.548
12/24/2021  22:20:00     -192.922       -3.217      -11.765      227.383      115.669      103.101    51703.019    13379.348    10629.759        5.653        3.786      192.949       92.361        0.229      333.089        2.174      851.474
12/24/2021  22:21:00     -287.623      -12.179       -4.831      201.460      101.815       75.904    40586.071    10366.290     5761.433        6.980        2.836      287.881       74.162        0.066      333.071        2.145      851.505
12/24/2021  22:22:00     -442.229      -14.006      -19.662      147.468      124.728       78.316    21746.749    15557.059     6133.436       11.979        2.172      442.451       76.483        0.030      333.031        2.076      851.559
12/24/2021  22:23:00     -246.420      -26.436      -29.795      153.319      126.389       80.037    23506.744    15974.189     6405.870        5.409        2.294      247.834       75.782        0.094      333.059        2.123      851.544
12/24/2021  22:24:00     -222.786       -2.399       -5.758      138.834       88.485       64.520    19274.848     7829.669     4162.814        4.046        1.563      222.799       62.162        0.078      333.049        2.108      851.538
12/24/2021  22:25:00     -388.039       54.001      -17.909      176.720      108.707       78.033    31230.026    11817.307     6089.174       10.146        2.457      391.778       83.528        0.045      333.038        2.089      851.566
12/24/2021  22:26:00      -77.853       -5.759       15.477       92.070       61.400       53.539     8476.908     3769.991     2866.441        1.072        0.756       78.066       40.440        0.268      333.051        2.115      851.593
12/24/2021  22:27:00     -239.227      -49.105      -25.107      131.304      104.983       75.069    17240.858    11021.524     5635.398        4.708        1.695      244.215       70.462        0.083      333.098        2.188      851.656
12/24/2021  22:28:00     -224.910       28.873      -15.926       99.278       67.305       59.851     9856.039     4529.904     3582.101        3.482        0.898      226.755       55.388        0.060      333.076        2.153      851.652
12/24/2021  22:29:00     -229.038       59.534      -14.219      131.740       70.650       47.884    17355.418     4991.396     2292.862        4.042        1.232      236.649       61.868        0.068      333.039        2.090      851.669
12/24/2021  22:30:00     -321.097       69.486      -24.236       90.662       76.552       36.342     8219.650     5860.222     1320.720        6.196        0.770      328.530       24.757        0.006      332.998        2.021      851.710
12/24/2021  22:31:00     -225.764       10.585       -7.276       96.059       94.928       66.589     9227.354     9011.245     4434.127        3.690        1.134      226.012       55.547        0.060      332.973        1.980      851.714
12/24/2021  22:32:00     -180.195       19.216       -1.502      100.549       66.636       51.020    10110.019     4440.419     2603.053        2.499        0.858      181.217       50.189        0.077      332.961        1.962      851.718
12/24/2021  22:33:00      -99.090       17.206       -1.923      106.477       57.215       47.296    11337.319     3273.520     2236.865        1.348        0.842      100.573       42.424        0.178      332.947        1.939      851.698
12/24/2021  22:34:00     -134.789       68.496       -1.309       89.101       64.575       40.761     7938.999     4169.988     1661.443        1.831        0.689      151.194       34.981        0.054      332.921        1.897      851.645
12/24/2021  22:35:00     -168.834       57.171       -7.016       95.543       56.368       42.580     9128.483     3177.352     1813.033        2.297        0.706      178.251       33.330        0.035      332.936        1.922      851.641
12/24/2021  22:36:00     -212.476       -9.178      -19.843      112.262       86.893       64.672    12602.842     7550.314     4182.502        3.498        1.217      212.674       65.087        0.094      332.969        1.974      851.692
12/24/2021  22:37:00     -211.590       13.409      -16.730      146.045       56.072       46.103    21329.108     3144.034     2125.490        3.591        1.330      212.015       58.833        0.077      332.949        1.943      851.696
12/24/2021  22:38:00     -195.531       50.637        7.014      149.162       88.659       67.871    22249.292     7860.393     4606.529        3.777        1.736      201.981       50.777        0.063      332.957        1.955      851.605
12/24/2021  22:39:00     -363.947       43.248       -0.422      211.017      147.780       90.812    44528.221    21838.788     8246.786       10.446        3.731      366.508       82.422        0.051      333.207        2.367      851.553
12/24/2021  22:40:00     -171.197      -33.215      -11.569       93.134       97.965       65.393     8674.002     9597.104     4276.257        2.654        1.127      174.389       45.228        0.067      333.259        2.454      851.556
12/24/2021  22:41:00     -273.341      -17.408      -22.244      139.415       86.318       66.857    19436.545     7450.798     4469.901        5.343        1.568      273.894       58.783        0.046      333.172        2.311      851.558
12/24/2021  22:42:00     -195.874       -8.572      -18.330       89.552       47.854       41.187     8019.492     2289.977     1696.391        2.539        0.600      196.061       39.031        0.040      333.153        2.279      851.589
12/24/2021  22:43:00     -140.868      -14.502       -7.640      113.676       66.161       48.083    12922.319     4377.268     2311.974        1.986        0.981      141.612       49.239        0.121      333.109        2.207      851.631
12/24/2021  22:44:00      -74.445       -8.293      -11.841       84.224       49.353       38.053     7093.735     2435.712     1448.003        0.836        0.549       74.905       39.893        0.284      333.056        2.123      851.647
12/24/2021  22:45:00      -65.991       27.804       -7.085       49.435       51.810       37.365     2443.860     2684.239     1396.112        0.585        0.326       71.609       27.013        0.142      333.019        2.061      851.624
12/24/2021  22:46:00     -118.289       11.494       -3.177       80.040       39.570       39.356     6406.444     1565.808     1548.864        1.183        0.476      118.846       35.232        0.088      333.006        2.037      851.595
12/24/2021  22:47:00     -157.555       72.935      -16.865       50.567       48.780       35.125     2557.055     2379.525     1233.757        1.830        0.309      173.618       20.773        0.014      332.931        1.914      851.567
12/24/2021  22:48:00     -138.616      -14.675      -16.109       91.143       81.050       48.283     8306.979     6569.131     2331.287        1.845        0.860      139.390       39.605        0.081      332.970        1.978      851.560
12/24/2021  22:49:00     -144.971       23.308       -6.584      146.425      134.524       81.516    21440.277    18096.735     6644.925        3.388        2.309      146.833       62.829        0.183      333.001        2.028      851.600
12/24/2021  22:50:00     -184.795       76.315      -20.458       80.458       57.483       51.036     6473.434     3304.292     2604.681        2.638        0.619      199.933       49.536        0.061      332.899        1.858      851.638
12/24/2021  22:51:00     -154.863       70.770      -20.321       40.188       39.732       24.132     1615.066     1578.653      582.362        1.659        0.189      170.267       11.894        0.005      332.865        1.808      851.635
12/24/2021  22:52:00      -97.898       -4.395      -18.986       84.593       59.988       40.776     7155.893     3598.558     1662.681        1.119        0.621       97.997       38.896        0.158      332.868        1.812      851.665
12/24/2021  22:53:00     -145.287       14.654       -8.006       59.992       42.084       29.670     3599.071     1771.062      880.313        1.382        0.313      146.024       29.201        0.040      332.838        1.761      851.688
12/24/2021  22:54:00      -32.482        0.705      -13.662       28.458       24.847       18.419      809.833      617.382      339.249        0.150        0.088       32.490       11.622        0.128      332.803        1.704      851.650
12/24/2021  22:55:00      -32.584       20.346        1.776       28.612       24.131       21.892      818.620      582.316      479.266        0.168        0.094       38.414       16.167        0.177      332.868        1.813      851.609
12/24/2021  22:56:00     -109.750       66.432      -13.955       31.393       58.525       29.114      985.506     3425.220      847.603        1.095        0.263      128.290       19.128        0.022      332.903        1.869      851.596
12/24/2021  22:57:00     -134.267       80.025      -21.437       60.126       39.506       28.362     3615.182     1560.734      804.420        1.543        0.299      156.306       30.205        0.037      332.912        1.884      851.569
12/24/2021  22:58:00     -161.476       40.354      -14.907       71.543       53.407       41.602     5118.454     2852.279     1730.738        1.881        0.485      166.442       36.000        0.047      332.904        1.869      851.624
12/24/2021  22:59:00     -145.185       49.138       -3.973       57.878       61.263       35.122     3349.880     3753.184     1233.531        1.592        0.417      153.275       34.534        0.051      332.883        1.835      851.585
12/24/2021  23:00:00     -131.996       63.453      -29.653       47.648       50.637       33.529     2270.329     2564.121     1124.170        1.414        0.298      146.456       22.757        0.024      332.871        1.817      851.584
12/24/2021  23:01:00     -167.912       30.861      -13.147       60.588       68.254       40.758     3670.888     4658.656     1661.188        1.965        0.500      170.725       31.208        0.033      332.847        1.775      851.624
12/24/2021  23:02:00     -247.363       28.298      -32.709      116.728      107.795       41.917    13625.491    11619.740     1757.005        4.503        1.350      248.977       47.632        0.037      333.086        2.169      851.596
12/24/2021  23:03:00     -171.864      -55.881       -3.944      137.344      139.492       61.108    18863.326    19457.934     3734.234        3.736        2.103      180.720       74.810        0.171      333.107        2.203      851.594
12/24/2021  23:04:00     -163.261       -2.676      -14.669       92.181       93.794       48.222     8497.291     8797.364     2325.398        2.324        0.981      163.283       31.883        0.038      333.281        2.492      851.630
12/24/2021  23:05:00      -92.277       14.719      -17.251       34.406       46.495       24.560     1183.807     2161.794      603.208        0.649        0.197       93.444       19.032        0.041      333.167        2.307      851.621
12/24/2021  23:06:00     -119.104       11.044      -31.478       91.744       50.359       37.896     8416.870     2535.997     1436.142        1.384        0.619      119.615       43.426        0.132      332.988        2.008      851.654
12/24/2021  23:07:00     -156.861      -54.440      -25.171       59.017       98.019       34.016     3482.951     9607.642     1157.098        2.122        0.712      166.040       29.029        0.031      333.105        2.203      851.713
12/24/2021  23:08:00     -205.209       53.444       -0.204      103.886       68.397       54.350    10792.259     4678.174     2953.897        3.169        0.921      212.055       39.851        0.035      333.158        2.288      851.723
12/24/2021  23:09:00     -173.128       73.536      -13.711       78.286       50.536       38.827     6128.656     2553.899     1507.564        2.288        0.510      188.098       40.001        0.045      333.002        2.030      851.697
12/24/2021  23:10:00      -60.024       14.526       -7.208       71.749       26.240       25.379     5147.971      688.524      644.074        0.517        0.324       61.756       29.262        0.225      332.972        1.984      851.750
12/24/2021  23:11:00     -165.227       63.545      -22.659      103.004       62.045       41.094    10609.822     3849.570     1688.690        2.400        0.807      177.025       50.402        0.081      333.045        2.100      851.708
12/24/2021  23:12:00       -3.292       -0.732       -4.869       50.869       52.766       27.537     2587.652     2784.262      758.279        0.308        0.307        3.373       14.466       18.398      332.968        1.975      851.671
12/24/2021  23:13:00     -216.328      -38.918      -37.073      139.306      103.802       72.132    19406.107    10774.804     5203.001        4.253        1.769      219.801       63.069        0.082      333.250        2.440      851.672
12/24/2021  23:14:00     -335.676      -20.680      -12.518      239.098      147.522      113.402    57167.702    21762.829    12860.004       10.251        4.590      336.312      117.857        0.123      333.569        2.967      851.632
12/24/2021  23:15:00     -255.666       27.480       -1.952      116.704       95.851       58.633    13619.718     9187.402     3437.868        4.618        1.312      257.139       57.390        0.050      333.405        2.696      851.643
12/24/2021  23:16:00      -26.451       33.858        1.907       95.980       82.882       68.722     9212.224     6869.445     4722.725        1.132        1.040       42.965       46.403        1.166      333.262        2.462      851.684
12/24/2021  23:17:00     -146.567       20.822       -6.261      103.035       69.304       47.479    10616.302     4803.033     2254.247        1.981        0.884      148.038       40.173        0.074      333.206        2.368      851.655
12/24/2021  23:18:00     -305.487      -12.498      -18.230      116.359      130.623       66.251    13539.507    17062.309     4389.221        6.439        1.750      305.742       57.401        0.035      333.490        2.835      851.657
12/24/2021  23:19:00     -173.778       64.765       14.928      167.721      114.214       75.910    28130.370    13044.901     5762.293        4.077        2.347      185.454       64.169        0.120      333.516        2.879      851.703
12/24/2021  23:20:00     -200.607      -11.332        3.227      142.194      116.570       79.662    20219.197    13588.635     6346.068        4.026        2.008      200.927       78.773        0.154      333.625        3.060      851.661
12/24/2021  23:21:00     -243.232      -47.716       -8.592      190.418      121.905       73.042    36259.146    14860.853     5335.066        5.897        2.823      247.868       86.137        0.121      333.607        3.030      851.687
12/24/2021  23:22:00     -312.995      -98.056      -49.539      115.271      135.273       68.012    13287.383    18298.859     4625.593        7.312        1.811      327.995       52.188        0.025      333.700        3.183      851.632
12/24/2021  23:23:00     -204.672     -108.477      -27.303      120.750      143.105       56.238    14580.563    20478.985     3162.753        4.631        1.911      231.642       44.333        0.037      333.708        3.197      851.613
12/24/2021  23:24:00     -217.112       17.131        0.442      159.288       68.644       53.556    25372.645     4712.063     2868.298        4.019        1.648      217.786       66.164        0.092      333.608        3.034      851.649
12/24/2021  23:25:00     -243.359       22.958      -33.815       96.551       74.952       55.517     9322.066     5617.739     3082.092        3.945        0.901      244.440       42.627        0.030      333.568        2.965      851.592
12/24/2021  23:26:00     -141.886       58.961      -21.075      152.315       94.455       59.664    23199.954     8921.655     3559.756        2.986        1.784      153.649       62.007        0.163      333.508        2.867      851.558
12/24/2021  23:27:00     -147.733        3.045      -21.446      199.194      117.248       91.352    39678.204    13747.119     8345.144        4.202        3.089      147.764       77.574        0.276      333.542        2.922      851.472
12/24/2021  23:28:00     -239.334      -14.774       -1.751      145.358      120.080       61.904    21129.028    14419.177     3832.145        4.843        1.969      239.790       63.004        0.069      333.571        2.972      851.518
12/24/2021  23:29:00     -311.840       28.924       -9.477      190.979      150.670       82.305    36472.908    22701.386     6774.054        8.205        3.297      313.178       94.103        0.090      333.559        2.951      851.514
12/24/2021  23:30:00     -251.858       40.557       -1.095      150.687      105.344       59.821    22706.484    11097.391     3578.571        5.122        1.869      255.103       50.254        0.039      333.531        2.905      851.534
12/24/2021  23:31:00     -234.552       20.050      -11.142      114.933       88.865       61.785    13209.617     7896.931     3817.369        4.023        1.246      235.407       59.221        0.063      333.497        2.849      851.511
12/24/2021  23:32:00     -321.536       61.680      -34.225      153.731       78.923       67.475    23633.264     6228.826     4552.934        7.138        1.721      327.398       72.554        0.049      333.499        2.852      851.522
12/24/2021  23:33:00     -214.462       -3.007        2.397      136.663      125.652       79.263    18676.765    15788.452     6282.683        4.337        2.037      214.483       71.124        0.110      333.528        2.899      851.492
12/24/2021  23:34:00     -223.385      -13.954       -3.307      155.962      113.631       76.567    24324.196    12911.974     5862.476        4.659        2.155      223.820       70.322        0.099      333.517        2.881      851.476
12/24/2021  23:35:00     -104.311       18.124      -26.481       59.879       43.750       36.813     3585.513     1914.094     1355.225        0.938        0.343      105.874       24.173        0.052      333.527        2.902      851.421
12/24/2021  23:36:00     -126.297       22.761       -8.004       83.823       58.002       30.676     7026.307     3364.230      941.012        1.393        0.567      128.332       24.020        0.035      333.540        2.922      851.326
12/24/2021  23:37:00     -359.794       12.616      -21.050      163.076       99.390       78.155    26593.798     9878.339     6108.255        8.631        2.129      360.015       61.708        0.029      333.536        2.911      851.370
12/24/2021  23:38:00     -396.801       61.319      -18.425      187.544      124.465       80.516    35172.793    15491.599     6482.795       10.934        2.857      401.511       92.058        0.053      333.531        2.903      851.410
12/24/2021  23:39:00     -296.832       17.962      -18.571      148.137       96.126       68.563    21944.570     9240.168     4700.877        6.232        1.794      297.375       69.334        0.054      333.545        2.928      851.453
12/24/2021  23:40:00     -370.796       26.827        0.931      287.256      140.139      111.954    82516.040    19639.050    12533.646       12.643        5.734      371.765       86.923        0.055      333.589        3.001      851.403
12/24/2021  23:41:00     -349.007      -63.581       -9.023      156.606      148.898      101.745    24525.590    22170.636    10351.976        9.148        2.852      354.751       88.208        0.062      333.719        3.215      851.424
12/24/2021  23:42:00     -454.429     -148.482      -33.019      156.668      165.827       89.629    24544.816    27498.478     8033.331       14.485        3.004      478.072       62.645        0.017      333.708        3.197      851.408
12/24/2021  23:43:00     -430.268      -35.655      -32.704      140.633      147.100       93.906    19777.744    21638.323     8818.374       11.884        2.512      431.743       78.721        0.033      333.646        3.093      851.435
12/24/2021  23:44:00     -252.119      -19.702      -14.304      200.622      113.125       95.216    40249.336    12797.231     9066.051        6.312        3.106      252.888       99.735        0.156      333.586        2.995      851.435
12/24/2021  23:45:00     -244.061       29.056      -28.266      161.862      246.748       73.871    26199.405    60884.456     5456.904        7.686        4.627      245.785       81.247        0.109      333.569        2.968      851.414
12/24/2021  23:46:00     -358.322       23.445      -41.245      178.430      151.822       73.985    31837.206    23049.981     5473.843        9.549        3.018      359.088       56.889        0.025      333.519        2.883      851.418
12/24/2021  23:47:00     -137.744       16.452      -11.512      122.424       87.387       53.586    14987.579     7636.515     2871.475        2.243        1.275      138.723       26.656        0.037      333.448        2.768      851.407
12/24/2021  23:48:00     -276.797       -4.031       -9.674      132.730      106.378       68.683    17617.187    11316.198     4717.303        5.518        1.683      276.826       61.635        0.050      333.419        2.720      851.465
12/24/2021  23:49:00     -463.184      -26.148      -24.218      159.891      144.546       92.650    25564.979    20893.448     8584.070       13.542        2.752      463.921       83.584        0.032      333.513        2.874      851.407
12/24/2021  23:50:00     -337.527       77.815       12.733      215.585      145.552       89.975    46477.001    21185.524     8095.428        9.794        3.788      346.381      102.343        0.087      333.600        3.018      851.286
12/24/2021  23:51:00     -217.597       14.506       -4.102      153.895      113.926       79.310    23683.594    12979.067     6290.024        4.526        2.148      218.080       71.993        0.109      333.526        2.897      851.416
12/24/2021  23:52:00     -186.763       17.886       -3.646      211.381       88.739       54.104    44681.865     7874.596     2927.260        4.534        2.774      187.617       46.311        0.061      333.415        2.714      851.431
12/24/2021  23:53:00     -314.606      129.687      -33.736      157.068      149.793       66.458    24670.509    22437.985     4416.670        8.422        2.576      340.288       62.591        0.034      333.354        2.611      851.303
12/24/2021  23:54:00     -237.372       28.275        6.072      160.216       94.413       63.278    25669.149     8913.760     4004.144        4.788        1.929      239.050       67.789        0.080      333.301        2.523      851.310
12/24/2021  23:55:00     -220.964       33.203        2.902      167.395       97.594       64.708    28021.253     9524.494     4187.111        4.583        2.087      223.445       74.350        0.111      333.282        2.494      851.320
12/24/2021  23:56:00     -314.098      134.926      -33.753       94.429       92.265       69.515     8916.855     8512.795     4832.280        7.013        1.113      341.852       60.289        0.031      333.269        2.470      851.278
12/24/2021  23:57:00     -159.336       15.531        4.098      138.874       83.169       57.941    19285.878     6917.116     3357.199        2.760        1.478      160.091       57.275        0.128      333.256        2.451      851.289
12/24/2021  23:58:00     -228.170       70.193      -13.286       95.533       59.095       46.751     9126.592     3492.178     2185.660        3.598        0.740      238.723       47.283        0.039      333.247        2.434      851.331
12/24/2021  23:59:00     -220.405       50.949      -10.238      130.953      104.712       70.757    17148.587    10964.554     5006.549        4.219        1.656      226.217       65.475        0.084      333.246        2.432      851.315
12/25/2021  00:00:00     -166.377       31.855        0.958      110.971       70.356       56.024    12314.620     4950.008     3138.664        2.455        1.020      169.399       42.997        0.064      333.314        2.547      851.324
12/25/2021  00:01:00     -189.284       25.261       -2.245      119.195      104.112       69.306    14207.463    10839.395     4803.267        3.316        1.493      190.962       65.093        0.116      333.353        2.612      851.327
12/25/2021  00:02:00     -218.742      -31.008      -15.600      106.938       63.169       43.469    11435.662     3990.325     1889.519        3.318        0.866      220.929       35.839        0.026      333.345        2.596      851.326
12/25/2021  00:03:00     -233.104       71.261       -8.975      101.990       64.087       52.932    10401.878     4107.168     2801.787        3.840        0.866      243.753       47.425        0.038      333.311        2.540      851.352
12/25/2021  00:04:00     -116.170       46.463        9.827      160.509       74.008       57.058    25763.221     5477.145     3255.610        2.512        1.725      125.117       57.153        0.209      333.302        2.529      851.280
12/25/2021  00:05:00     -391.215       76.890      -18.630      182.692      144.894       77.387    33376.258    20994.270     5988.740       10.982        3.018      398.700       86.249        0.047      333.388        2.668      851.217
12/25/2021  00:06:00     -250.886      -39.821      -25.082      139.093      132.981       87.730    19346.966    17683.833     7696.566        5.493        2.236      254.027       69.178        0.074      333.452        2.774      851.173
12/25/2021  00:07:00     -318.540        7.305      -11.314      144.679      105.373       88.955    20932.096    11103.488     7913.011        7.079        1.997      318.624       81.104        0.065      333.469        2.800      851.240
12/25/2021  00:08:00     -485.046       -7.806      -16.475      203.764      137.794      102.511    41519.703    18987.236    10508.476       15.330        3.551      485.108       97.297        0.040      333.517        2.879      851.267
12/25/2021  00:09:00     -292.064      -26.975       -5.425      152.276      160.264       89.858    23187.869    25684.600     8074.480        7.149        2.847      293.307       79.888        0.074      333.533        2.907      851.282
12/25/2021  00:10:00     -287.115       -9.616       -1.172      162.576      131.982       84.059    26431.004    17419.246     7065.911        6.671        2.546      287.276       61.375        0.046      333.456        2.780      851.292
12/25/2021  00:11:00     -388.840       34.057      -55.600      171.903      134.510       84.175    29550.715    18093.039     7085.355       10.508        2.736      390.329       50.558        0.017      333.432        2.741      851.321
12/25/2021  00:12:00     -305.642       66.222        1.784      238.077      116.114       87.397    56680.554    13482.491     7638.179        8.779        3.890      312.734      101.879        0.106      333.399        2.687      851.250
12/25/2021  00:13:00     -332.729       27.433       -5.938      152.112       90.534       66.627    23138.092     8196.345     4439.111        7.363        1.789      333.858       72.387        0.047      333.403        2.691      851.291
12/25/2021  00:14:00     -223.199      -13.335      -10.259      111.257      115.389       64.023    12378.022    13314.677     4098.974        3.994        1.490      223.597       48.951        0.048      333.455        2.778      851.307
12/25/2021  00:15:00     -247.380      -28.703      -18.456      186.919      160.235       81.197    34938.843    25675.388     6592.919        6.477        3.360      249.040       92.286        0.137      333.464        2.793      851.266
12/25/2021  00:16:00     -186.923      -25.649        2.218      166.828       96.919       83.311    27831.426     9393.380     6940.716        3.988        2.208      188.675       73.063        0.150      333.386        2.665      851.195
12/25/2021  00:17:00     -252.730      -35.751      -18.008      157.525      135.670       71.397    24814.145    18406.468     5097.462        5.689        2.416      255.246       65.145        0.065      333.511        2.872      851.204
12/25/2021  00:18:00     -277.292       51.690      -12.572      154.174      127.550       77.823    23769.480    16269.043     6056.375        6.290        2.305      282.068       62.355        0.049      333.481        2.820      851.284
12/25/2021  00:19:00     -246.682      -42.665      -31.166       68.396       58.207       49.124     4677.961     3388.082     2413.187        3.706        0.524      250.345       25.969        0.011      333.477        2.815      851.345
12/25/2021  00:20:00     -288.712       -1.721      -26.008      103.978       94.798       52.340    10811.502     8986.683     2739.481        5.328        1.127      288.717       44.417        0.024      333.457        2.781      851.366
12/25/2021  00:21:00     -202.747       43.216        5.144      200.593      126.795       75.468    40237.532    16076.999     5695.465        5.249        3.100      207.301       59.955        0.084      333.499        2.851      851.268
12/25/2021  00:22:00     -372.795      -63.819      -35.675      178.213      113.185       84.984    31759.956    12810.851     7222.252        9.805        2.590      378.219       75.441        0.040      333.528        2.899      851.307
12/25/2021  00:23:00     -313.463      -16.840      -25.310      161.082       94.674       63.849    25947.481     8963.204     4076.681        6.908        1.949      313.915       70.848        0.051      333.503        2.857      851.282
12/25/2021  00:24:00     -180.978      -14.039      -12.811      127.253       70.809       60.235    16193.200     5013.970     3628.255        2.897        1.242      181.522       54.103        0.089      333.445        2.763      851.302
12/25/2021  00:25:00     -257.752      -46.492      -23.130      159.224      223.204       68.772    25352.335    49820.011     4729.622        7.450        3.995      261.912       71.590        0.075      333.523        2.891      851.303
12/25/2021  00:26:00     -432.807      -57.428      -62.746      220.401      173.150      106.806    48576.646    29980.787    11407.627       14.224        4.498      436.600       89.637        0.042      333.568        2.965      851.249
12/25/2021  00:27:00     -380.683      -73.668      -36.930      203.160      184.251      105.517    41274.076    33948.604    11133.760       11.902        4.318      387.745       90.675        0.055      333.550        2.935      851.264
12/25/2021  00:28:00     -290.940      -22.196      -22.956      190.321      113.547       80.903    36222.053    12892.883     6545.356        7.065        2.783      291.786       85.132        0.085      333.527        2.898      851.370
12/25/2021  00:29:00     -288.776      -26.845      -34.138      232.600      132.097       90.174    54102.763    17449.646     8131.396        8.247        3.984      290.021       64.175        0.049      333.562        2.954      851.395
12/25/2021  00:30:00     -447.044        5.498      -14.634      228.714      175.139       84.811    52309.938    30673.646     7192.869       14.512        4.509      447.078       79.004        0.031      333.582        2.989      851.400
12/25/2021  00:31:00     -168.525       44.658       11.348      161.294      134.653       87.875    26015.629    18131.373     7722.002        4.119        2.593      174.342       70.582        0.164      333.555        2.945      851.417
12/25/2021  00:32:00     -297.988      -54.564      -26.185      146.864      154.838       90.115    21568.955    23974.656     8120.705        7.305        2.683      302.943       80.762        0.071      333.549        2.935      851.498
12/25/2021  00:33:00     -299.235      -60.234      -40.418      177.532      143.755       82.513    31517.783    20665.366     6808.371        7.689        2.950      305.237       71.763        0.055      333.554        2.941      851.533
12/25/2021  00:34:00     -452.819     -149.449      -24.312      193.449      208.039      106.879    37422.626    43280.155    11423.157       16.003        4.606      476.844       83.813        0.031      333.642        3.086      851.476
12/25/2021  00:35:00     -506.597      -69.949      -37.968      213.170      208.549      100.469    45441.537    43492.584    10094.119       18.098        4.951      511.404       99.700        0.038      333.638        3.080      851.459
12/25/2021  00:36:00     -179.672      -84.897       -2.514      148.703      117.393       59.749    22112.667    13781.137     3569.978        3.947        1.973      198.719       71.361        0.129      333.625        3.060      851.366
12/25/2021  00:37:00     -213.203       -7.977      -26.732       78.571       87.845       51.644     6173.385     7716.694     2667.106        3.139        0.828      213.352       22.891        0.012      333.570        2.969      851.393
12/25/2021  00:38:00     -279.113       72.113        6.033      156.939       85.732       57.549    24629.800     7350.020     3311.943        5.921        1.765      288.278       58.632        0.041      333.510        2.870      851.333
12/25/2021  00:39:00     -167.258       20.598        4.833      125.124       72.516       46.215    15655.991     5258.631     2135.828        2.573        1.153      168.521       50.005        0.088      333.471        2.805      851.306
12/25/2021  00:40:00     -226.599      -66.472      -18.465      216.318      118.225       76.227    46793.569    13977.165     5810.535        6.133        3.329      236.147       43.339        0.034      333.547        2.932      851.304
12/25/2021  00:41:00     -187.461       20.426      -17.083      207.959      178.076       93.381    43246.984    31711.090     8720.101        5.975        4.184      188.571       95.265        0.255      333.645        3.094      851.330
12/25/2021  00:42:00     -500.087     -118.708      -41.296      261.572      173.647       99.061    68419.819    30153.397     9812.988       18.712        5.419      513.984       98.931        0.037      333.600        3.019      851.322
12/25/2021  00:43:00     -327.814     -114.184      -31.161      137.196      206.796       84.394    18822.713    42764.493     7122.307        9.508        3.435      347.131       74.192        0.046      333.597        3.013      851.333
12/25/2021  00:44:00     -381.065      -57.696      -29.647      205.242      166.086       97.713    42124.192    27584.470     9547.893       11.432        3.963      385.408      107.435        0.078      333.572        2.974      851.347
12/25/2021  00:45:00     -482.173      -44.482      -46.819      258.175      162.183      106.700    66654.216    26303.174    11384.818       17.048        5.217      484.220       90.326        0.035      333.571        2.971      851.276
12/25/2021  00:46:00     -358.585      -74.458      -41.482      168.924      112.550       78.786    28535.350    12667.522     6207.229        9.162        2.371      366.234       58.825        0.026      333.566        2.961      851.233
12/25/2021  00:47:00     -247.190      -49.136       -6.935      199.420      138.014       88.643    39768.267    19047.966     7857.497        6.511        3.334      252.026       92.003        0.133      333.545        2.929      851.237
12/25/2021  00:48:00     -212.526       40.747      -25.643      119.261      106.447       72.643    14223.218    11331.005     5277.021        3.915        1.542      216.397       59.145        0.075      333.495        2.845      851.125
12/25/2021  00:49:00     -151.424      -13.621      -16.784      122.862      121.265       64.367    15095.176    14705.241     4143.070        2.866        1.697      152.036       57.903        0.145      333.465        2.797      851.043
12/25/2021  00:50:00     -243.514       17.255       -6.478      186.301      116.583       76.623    34708.125    13591.673     5871.115        5.689        2.709      244.124       76.261        0.098      333.473        2.809      851.084
12/25/2021  00:51:00     -226.999       60.616        3.009      118.128       88.671       72.598    13954.251     7862.478     5270.484        4.114        1.354      234.953       61.404        0.068      333.449        2.769      851.125
12/25/2021  00:52:00     -342.473      -77.846      -31.049      206.093      142.526       68.116    42474.200    20313.543     4639.795        9.586        3.371      351.209       83.052        0.056      333.474        2.810      851.165
12/25/2021  00:53:00     -202.287        2.463      -13.759      145.625       85.188       61.240    21206.696     7257.033     3750.292        3.666        1.611      202.302       37.604        0.035      333.439        2.752      851.171
12/25/2021  00:54:00     -285.185      -13.630      -20.261      163.664      107.107       81.302    26785.886    11471.935     6610.005        6.339        2.243      285.511       83.621        0.086      333.454        2.775      851.204
12/25/2021  00:55:00     -188.769      -66.647      -11.538      137.611      148.603       66.704    18936.681    22082.764     4449.379        4.283        2.273      200.189       67.042        0.112      333.434        2.745      851.210
12/25/2021  00:56:00     -268.780      -31.984      -33.898      173.364      238.286       79.528    30054.966    56780.324     6324.686        8.377        4.658      270.676       55.497        0.042      333.539        2.916      851.204
12/25/2021  00:57:00     -340.878     -255.658      -46.050      188.693      240.781       94.555    35605.120    57975.289     8940.641       14.308        5.126      426.097       66.285        0.024      333.529        2.900      851.127
12/25/2021  00:58:00     -276.590       32.595      -15.949      193.240      103.618       80.908    37341.687    10736.725     6546.172        6.621        2.731      278.504       57.389        0.042      333.415        2.712      851.172
12/25/2021  00:59:00     -436.000       31.783        7.823      239.662      156.662      116.664    57437.934    24542.983    13610.526       14.336        4.780      437.157      112.366        0.066      333.397        2.682      851.214
12/25/2021  01:00:00     -539.241      -20.358      -38.238      260.855      176.433      107.929    68045.480    31128.620    11648.667       20.172        5.541      539.625       96.645        0.032      333.379        2.653      851.239
12/25/2021  01:01:00     -597.707      -58.019      -26.555      240.000      217.591      126.488    57599.939    47345.865    15999.331       24.111        6.047      600.516      130.221        0.047      333.382        2.659      851.220
12/25/2021  01:02:00     -406.879     -100.668      -44.305      164.338      176.702       95.628    27006.904    31223.678     9144.782       12.250        3.369      419.147       86.592        0.043      333.381        2.655      851.245
12/25/2021  01:03:00     -322.614       46.731      -25.171      107.162       89.873       63.369    11483.677     8077.200     4015.616        6.523        1.179      325.981       41.665        0.016      333.344        2.595      851.249
12/25/2021  01:04:00     -256.064        3.128      -25.971      166.598      125.182       82.354    27754.833    15670.590     6782.179        5.822        2.510      256.083       84.117        0.108      333.326        2.566      851.192
12/25/2021  01:05:00     -294.319       11.394      -15.360      254.459      170.030       96.293    64749.502    28910.281     9272.326        9.494        5.147      294.540       85.237        0.084      333.332        2.576      851.230
12/25/2021  01:06:00     -386.777       -9.162      -18.843      298.821      168.585      119.698    89293.930    28421.061    14327.689       14.101        6.602      386.885      105.414        0.074      333.348        2.602      851.234
12/25/2021  01:07:00     -253.990       60.663       -5.371      169.589      159.706       82.633    28760.388    25505.947     6828.148        6.465        3.055      261.134       80.189        0.094      333.295        2.513      851.243
12/25/2021  01:08:00     -216.240       16.893      -25.602      189.845      122.551       82.562    36041.105    15018.835     6816.509        5.278        2.894      216.899       75.091        0.120      333.308        2.535      851.226
12/25/2021  01:09:00     -434.142      -61.850      -25.970      179.203      133.464      114.323    32113.697    17812.685    13069.647       12.798        3.150      438.525       99.394        0.051      333.373        2.643      851.244
12/25/2021  01:10:00     -478.196      -27.142      -29.133      227.112      156.193       94.570    51579.890    24396.166     8943.562       15.757        4.246      478.966       95.925        0.040      333.388        2.668      851.236
12/25/2021  01:11:00     -281.103       11.469       12.235      230.677      141.978       99.083    53211.852    20157.688     9817.515        8.123        4.159      281.337      103.771        0.136      333.407        2.700      851.203
12/25/2021  01:12:00     -229.846       49.364       -8.946      210.078      122.624       70.432    44132.910    15036.592     4960.727        5.973        3.207      235.087       75.973        0.104      333.434        2.742      851.146
12/25/2021  01:13:00     -459.120       34.494      -29.456      218.333      131.682       86.041    47669.150    17340.236     7403.111       14.262        3.621      460.414       77.344        0.028      333.422        2.722      851.142
12/25/2021  01:14:00     -588.391      -16.220      -63.868      256.803      190.726      111.849    65947.694    36376.395    12510.309       23.267        5.742      588.614       82.752        0.020      333.436        2.746      851.087
12/25/2021  01:15:00     -499.672      -48.122      -42.983      225.266      141.652       96.636    50744.636    20065.191     9338.449       16.698        4.007      501.983       87.715        0.031      333.411        2.705      851.123
12/25/2021  01:16:00     -213.823       59.911        6.657      193.166      112.490      104.124    37313.226    12653.988    10841.728        5.507        3.040      222.057      100.462        0.205      333.357        2.618      851.149
12/25/2021  01:17:00     -367.256      141.689      -13.932      221.895      148.329       94.656    49237.292    22001.547     8959.710       11.766        4.010      393.640      112.132        0.081      333.336        2.581      851.128
12/25/2021  01:18:00     -329.112       37.757       10.580      192.137      161.212       92.495    36916.448    25989.360     8555.300        9.064        3.573      331.270       98.761        0.089      333.355        2.612      851.146
12/25/2021  01:19:00     -327.140       25.165      -16.697      168.228      132.424       80.672    28300.739    17536.032     6507.997        8.013        2.617      328.107       65.418        0.040      333.334        2.578      851.156
12/25/2021  01:20:00     -423.478       20.415      -12.478      250.437      135.115      105.596    62718.615    18256.186    11150.535       13.600        4.606      423.969       99.216        0.055      333.331        2.573      851.130
12/25/2021  01:21:00     -470.399       43.427      -22.935      227.757      167.596      108.374    51873.478    28088.271    11745.002       15.768        4.585      472.400      107.118        0.051      333.325        2.563      851.142
12/25/2021  01:22:00     -398.286       25.018      -32.385      234.966      131.091       81.635    55209.207    17184.750     6664.198       11.967        3.953      399.071       94.856        0.056      333.268        2.470      851.157
12/25/2021  01:23:00      -94.588        7.934       -4.288       94.301       86.860       53.933     8892.609     7544.614     2908.804        1.418        0.967       94.920       51.499        0.294      333.181        2.326      851.224
12/25/2021  01:24:00     -192.052       79.587      -28.263      114.923       64.852       45.747    13207.376     4205.750     2092.765        3.176        0.975      207.890       46.650        0.050      333.126        2.235      851.241
12/25/2021  01:25:00     -237.849       30.211        0.403      125.403       88.955       58.894    15725.954     7913.040     3468.562        4.229        1.355      239.760       59.339        0.061      333.093        2.181      851.209
12/25/2021  01:26:00     -320.786       37.204        3.338      228.031      141.710       84.984    51997.913    20081.793     7222.216        9.179        3.965      322.937      104.227        0.104      333.168        2.304      851.273
12/25/2021  01:27:00     -418.466        3.439      -29.277      206.108      125.391       81.835    42480.330    15722.949     6696.953       12.043        3.245      418.480       76.093        0.033      333.202        2.358      851.352
12/25/2021  01:28:00     -281.741      -13.737      -23.833      131.514      107.064       70.473    17295.841    11462.707     4966.396        5.692        1.686      282.076       69.753        0.061      333.165        2.298      851.394
12/25/2021  01:29:00     -161.260      -31.169      -26.678      138.850       72.125       68.887    19279.291     5201.970     4745.455        2.845        1.461      164.245       69.224        0.178      333.150        2.276      851.386
12/25/2021  01:30:00      -72.522        8.230        3.509      118.856       76.204       60.366    14126.669     5807.047     3644.017        1.445        1.179       72.988       59.770        0.671      333.094        2.185      851.440
12/25/2021  01:31:00     -204.719       51.266       -0.785       98.451       72.689       40.691     9692.628     5283.662     1655.779        3.058        0.832      211.040       33.607        0.025      333.031        2.078      851.500
12/25/2021  01:32:00     -282.990       51.768      -35.599       98.936       82.904       60.153     9788.269     6873.071     3618.425        5.215        1.014      287.686       59.178        0.042      333.031        2.076      851.534
12/25/2021  01:33:00     -195.578       42.498       -5.418      110.655       76.187       43.254    12244.516     5804.428     1870.888        3.000        0.996      200.142       41.350        0.043      332.952        1.947      851.527
12/25/2021  01:34:00     -209.593       94.187       -6.431      134.397       88.676       53.835    18062.672     7863.416     2898.175        4.083        1.441      229.783       63.008        0.075      332.794        1.686      851.510
12/25/2021  01:35:00     -206.521       44.064        1.190      176.647       81.391       56.212    31204.052     6624.431     3159.815        4.278        2.049      211.170       59.471        0.079      332.784        1.670      851.528
12/25/2021  01:36:00     -301.492       34.909        1.446      149.450       72.086       53.290    22335.295     5196.370     2839.820        6.124        1.519      303.507       49.466        0.027      332.778        1.658      851.486
12/25/2021  01:37:00     -330.358       20.788       -9.350       91.010       72.753       48.108     8282.764     5292.980     2314.338        6.277        0.795      331.012       37.837        0.013      332.742        1.599      851.476
12/25/2021  01:38:00     -246.389       -6.118       -8.061      101.093       68.815       56.116    10219.727     4735.534     3149.059        3.945        0.905      246.465       45.849        0.035      332.800        1.696      851.492
12/25/2021  01:39:00     -156.061      -18.080       -5.526      106.680       68.488       52.973    11380.631     4690.606     2806.171        2.179        0.944      157.104       53.774        0.117      332.778        1.661      851.543
12/25/2021  01:40:00     -163.100       40.227       -8.420       85.889       58.486       40.956     7376.901     3420.668     1677.363        2.038        0.624      167.988       35.180        0.044      332.776        1.655      851.498
12/25/2021  01:41:00     -189.419       62.864      -11.662      123.208       68.276       47.831    15180.141     4661.632     2287.831        3.104        1.106      199.579       33.718        0.029      332.737        1.592      851.460
12/25/2021  01:42:00     -233.466       56.506      -16.258       99.075      119.418       54.223     9815.906    14260.694     2940.093        4.249        1.351      240.207       43.582        0.033      332.696        1.522      851.453
12/25/2021  01:43:00     -223.904       98.653        2.775      110.327       93.360       49.834    12171.965     8716.119     2483.399        4.162        1.169      244.674       39.260        0.026      332.673        1.486      851.476
12/25/2021  01:44:00     -174.141       -3.917       -4.474      142.716       93.412       57.339    20367.984     8725.816     3287.727        3.137        1.619      174.185       48.139        0.076      332.710        1.548      851.453
12/25/2021  01:45:00     -230.432       81.459      -12.652       72.917       62.322       47.654     5316.870     3884.029     2270.933        3.568        0.574      244.406       39.950        0.027      332.696        1.522      851.434
12/25/2021  01:46:00     -250.386       48.084       -1.716      118.793       75.724       61.244    14111.718     5734.181     3750.783        4.430        1.180      254.961       47.608        0.035      332.782        1.666      851.446
12/25/2021  01:47:00     -257.633       22.189      -18.594       93.459       68.165       38.684     8734.604     4646.528     1496.485        4.104        0.744      258.587       25.734        0.010      332.824        1.735      851.463
12/25/2021  01:48:00     -149.801        8.539       -0.750      154.926       86.591       71.196    24002.105     7497.980     5068.917        2.953        1.828      150.045       69.381        0.214      332.892        1.849      851.415
12/25/2021  01:49:00     -441.741        0.538      -16.112      232.408      122.723       92.246    54013.400    15060.976     8509.402       13.648        3.879      441.742       96.687        0.048      332.940        1.926      851.435
12/25/2021  01:50:00     -367.215      -36.866      -12.953      178.494      163.089       82.425    31860.163    26597.937     6793.936       10.080        3.263      369.061       81.290        0.049      333.086        2.169      851.389
12/25/2021  01:51:00     -205.747       -0.221      -27.271       84.091       99.879       42.498     7071.259     9975.725     1806.042        3.096        0.943      205.747       40.139        0.038      332.928        1.907      851.395
12/25/2021  01:52:00     -162.972       13.698      -12.926       90.941       71.063       45.190     8270.219     5049.999     2042.093        2.114        0.768      163.547       51.292        0.098      332.982        1.997      851.397
12/25/2021  01:53:00     -224.880       -0.300       -5.078      166.237       95.265       79.331    27634.708     9075.388     6293.358        4.679        2.150      224.880       59.971        0.071      333.128        2.239      851.370
12/25/2021  01:54:00     -258.568        8.030      -19.959      146.852      101.039       66.331    21565.645    10208.877     4399.788        5.174        1.809      258.693       77.844        0.091      333.163        2.294      851.309
12/25/2021  01:55:00     -165.547       30.726      -10.361      106.764       90.760       57.349    11398.502     8237.430     3288.926        2.569        1.146      168.374       47.006        0.078      333.105        2.202      851.289
12/25/2021  01:56:00     -191.711       15.343      -10.596       94.673       89.344       60.721     8962.946     7982.391     3687.029        2.886        1.032      192.324       37.543        0.038      333.181        2.326      851.272
12/25/2021  01:57:00     -207.963      -26.177      -14.192      131.932      103.877       69.116    17406.071    10790.502     4777.051        3.855        1.649      209.604       62.720        0.090      333.201        2.360      851.276
12/25/2021  01:58:00     -225.488       40.525      -22.356      178.646       92.195       61.286    31914.542     8499.956     3755.972        4.857        2.209      229.100       51.865        0.051      333.103        2.199      851.354
12/25/2021  01:59:00     -386.216        7.138      -18.295      217.335      150.766      100.699    47234.360    22730.375    10140.326       11.481        4.005      386.282       97.768        0.064      333.096        2.183      851.392
12/25/2021  02:00:00     -408.101       37.356      -24.561      247.581      223.563      110.741    61296.125    49980.416    12263.656       14.602        6.177      409.807      122.485        0.089      333.344        2.596      851.401
12/25/2021  02:01:00     -285.293       11.462       -2.883      183.169      111.392       82.674    33550.799    12408.102     6835.031        6.715        2.640      285.523       80.306        0.079      333.351        2.607      851.403
12/25/2021  02:02:00     -325.854      -86.695      -48.091      149.704      148.622       68.486    22411.169    22088.456     4690.315        8.259        2.459      337.189       49.707        0.022      333.445        2.761      851.418
12/25/2021  02:03:00     -327.402      -98.323      -28.070      146.478      144.399       67.561    21455.840    20851.064     4564.452        8.225        2.344      341.847       68.486        0.040      333.473        2.808      851.451
12/25/2021  02:04:00     -252.511     -107.937      -28.369      100.031      171.745       65.631    10006.267    29496.291     4307.473        6.001        2.191      274.613       47.549        0.030      333.509        2.866      851.462
12/25/2021  02:05:00     -219.276      -41.266      -12.955       83.879      136.848       58.632     7035.705    18727.272     3437.730        3.957        1.460      223.125       45.414        0.041      333.473        2.806      851.397
12/25/2021  02:06:00     -222.852      -77.683      -14.759      113.192      151.655       68.890    12812.341    22999.164     4745.898        4.823        2.028      236.004       56.394        0.057      333.506        2.863      851.350
12/25/2021  02:07:00     -218.085       45.274       -6.076      106.912       99.349       61.954    11430.256     9870.320     3838.303        3.739        1.257      222.735       59.704        0.072      333.462        2.790      851.361
12/25/2021  02:08:00     -197.322       33.898       -8.761       96.089       72.171       49.348     9233.069     5208.646     2435.236        2.852        0.844      200.213       40.135        0.040      333.371        2.641      851.344
12/25/2021  02:09:00     -146.418      -12.701       -6.942       87.638       61.099       53.371     7680.371     3733.121     2848.411        1.795        0.713      146.967       42.305        0.083      333.375        2.650      851.388
12/25/2021  02:10:00     -125.846      -51.160       -8.687       97.289      103.874       53.673     9465.141    10789.897     2880.791        2.083        1.157      135.848       52.037        0.147      333.466        2.797      851.418
12/25/2021  02:11:00      -53.565      -57.411       -7.297       54.093       77.907       44.571     2926.030     6069.460     1986.555        0.860        0.549       78.519       22.768        0.084      333.440        2.755      851.389
12/25/2021  02:12:00     -191.200      -62.581      -20.878       86.373       79.754       47.927     7460.302     6360.699     2296.991        2.851        0.806      201.181       37.113        0.034      333.463        2.792      851.301
12/25/2021  02:13:00     -205.775      -45.226      -16.192      104.272      102.806       52.163    10872.618    10569.006     2721.027        3.440        1.208      210.687       46.578        0.049      333.503        2.856      851.398
12/25/2021  02:14:00     -271.298     -180.656      -43.817      159.810      121.146       68.398    25539.212    14676.236     4678.322        7.652        2.245      325.944       59.631        0.033      333.554        2.941      851.516
12/25/2021  02:15:00      -94.882      -89.555      -34.602      118.387      103.974       66.368    14015.396    10810.653     4404.726        2.372        1.462      130.471       46.741        0.128      333.625        3.062      851.565
12/25/2021  02:16:00     -125.535     -162.589      -42.918       96.940       87.424       58.140     9397.443     7642.891     3380.259        3.222        1.021      205.412       20.919        0.010      333.636        3.079      851.509
12/25/2021  02:17:00     -183.583      -26.453      -10.839       83.803       99.803       58.026     7022.929     9960.688     3366.989        2.743        1.018      185.479       32.179        0.030      333.525        2.893      851.462
12/25/2021  02:18:00      -40.242       38.037        2.634       39.079       39.627       36.669     1527.188     1570.317     1344.643        0.376        0.222       55.374       13.200        0.057      333.539        2.921      851.385
12/25/2021  02:19:00      -30.531       -8.562      -13.519       55.603       35.835       28.347     3091.682     1284.123      803.524        0.318        0.259       31.709       23.578        0.553      333.457        2.784      851.409
12/25/2021  02:20:00     -108.156      -21.453      -16.069       65.545       53.451       41.013     4296.103     2857.028     1682.083        1.062        0.442      110.263       33.662        0.093      333.491        2.840      851.467
12/25/2021  02:21:00      -81.112      -27.140      -11.195       52.720       47.216       26.197     2779.389     2229.385      686.273        0.657        0.285       85.532       29.226        0.117      333.509        2.870      851.546
12/25/2021  02:22:00      -36.140       -3.739      -11.893       68.745       34.021       18.667     4725.924     1157.445      348.464        0.385        0.312       36.333       17.555        0.233      333.464        2.796      851.458
12/25/2021  02:23:00     -117.803      -40.236      -10.207      108.540       50.501       47.327    11780.926     2550.320     2239.834        1.608        0.829      124.485       63.567        0.261      333.446        2.764      851.570
12/25/2021  02:24:00     -147.795      -46.894       -5.250      125.710       97.071       42.593    15803.103     9422.696     1814.199        2.555        1.352      155.056       47.810        0.095      333.515        2.879      851.583
12/25/2021  02:25:00     -256.879      -83.147      -39.003      101.881      121.397       59.288    10379.731    14737.345     3515.045        5.152        1.432      270.001       47.882        0.031      333.542        2.922      851.633
12/25/2021  02:26:00     -274.018       47.213       -9.770      128.063       93.110       61.204    16400.229     8669.550     3745.940        5.311        1.441      278.056       60.431        0.047      333.458        2.784      851.675
12/25/2021  02:27:00     -263.899       26.891      -13.351      115.625      127.799       69.400    13369.080    16332.540     4816.346        5.252        1.726      265.266       56.267        0.045      333.461        2.788      851.686
12/25/2021  02:28:00     -262.262       25.082      -35.671       83.351       71.644       47.988     6947.456     5132.859     2302.813        4.253        0.719      263.459       43.584        0.027      333.445        2.761      851.689
12/25/2021  02:29:00     -303.200      -90.408      -34.518      154.300       96.692       76.400    23808.364     9349.400     5836.982        7.014        1.950      316.392       69.772        0.049      333.495        2.843      851.657
12/25/2021  02:30:00     -167.600      -37.017      -19.595       95.296       74.500       53.482     9081.323     5550.286     2860.348        2.366        0.875      171.639       47.062        0.075      333.497        2.847      851.637
12/25/2021  02:31:00     -273.429      -30.428      -16.830      192.807      119.012       87.952    37174.719    14163.753     7735.503        6.751        2.954      275.117       79.830        0.084      333.475        2.811      851.636
12/25/2021  02:32:00     -303.004      -58.577      -37.715      181.454      174.796       83.341    32925.455    30553.724     6945.670        8.353        3.521      308.614       73.679        0.057      333.501        2.855      851.562
12/25/2021  02:33:00     -414.084      -59.341      -44.673      144.809      115.557       62.000    20969.746    13353.407     3843.945       10.757        1.908      418.314       49.269        0.014      333.542        2.920      851.563
12/25/2021  02:34:00     -300.953        6.397      -22.682      291.826      158.616      106.703    85162.485    25159.038    11385.558       10.640        6.085      301.021      118.351        0.155      333.509        2.868      851.576
12/25/2021  02:35:00     -161.253      -12.928       -8.602      179.573       91.822       87.328    32246.536     8431.237     7626.111        3.726        2.415      161.770       78.389        0.235      333.493        2.841      851.676
12/25/2021  02:36:00     -463.327       11.544      -22.547      286.675      227.642      129.310    82182.682    51821.011    16721.131       18.299        7.536      463.471      117.548        0.064      333.504        2.860      851.772
12/25/2021  02:37:00     -403.339      -98.126      -18.592      267.075      156.458      123.375    71328.955    24478.954    15221.513       14.182        5.551      415.103      124.755        0.090      333.543        2.923      851.805
12/25/2021  02:38:00     -279.639     -165.665      -35.682      120.340      123.721       51.272    14481.647    15306.951     2628.773        6.966        1.621      325.028       59.143        0.033      333.535        2.910      851.807
12/25/2021  02:39:00     -257.664     -138.590      -45.766      140.337      164.850       64.630    19694.580    27175.546     4177.024        6.936        2.552      292.571       57.745        0.039      333.572        2.973      851.813
12/25/2021  02:40:00     -254.387       -1.796       13.392      166.390      162.823       74.036    27685.610    26511.254     5481.393        6.228        2.984      254.393       68.243        0.072      333.498        2.849      851.815
12/25/2021  02:41:00     -267.957     -128.275      -35.016      130.348      123.358       75.596    16990.494    15217.202     5714.684        6.369        1.896      297.078       66.116        0.050      333.587        2.996      851.876
12/25/2021  02:42:00     -371.087     -129.170      -29.972      129.514      175.148       90.168    16773.801    30676.854     8130.211       10.542        2.779      392.926       56.218        0.020      333.626        3.061      851.918
12/25/2021  02:43:00     -491.114     -176.945      -67.743      210.607      230.625      102.337    44355.236    53187.894    10472.781       19.253        5.401      522.017      105.918        0.041      333.607        3.029      851.944
12/25/2021  02:44:00     -261.592     -199.002      -32.697      231.498      157.735       87.246    53591.534    24880.457     7611.935        9.758        4.304      328.683       70.995        0.047      333.649        3.101      851.931
12/25/2021  02:45:00     -110.922     -103.441      -41.788      128.998      103.618       63.010    16640.531    10736.752     3970.302        2.804        1.567      151.670       47.057        0.096      333.745        3.258      851.951
12/25/2021  02:46:00     -114.364      -39.824       -2.803       77.241      120.387       53.915     5966.202    14493.041     2906.847        1.902        1.168      121.099       43.681        0.130      333.600        3.021      851.984
12/25/2021  02:47:00     -124.078     -104.551      -33.897       89.040       92.373       45.728     7928.138     8532.823     2091.006        2.301        0.928      162.254       29.179        0.032      333.612        3.040      851.996
12/25/2021  02:48:00      -86.937      -21.485      -17.808       58.117       36.994       32.386     3377.582     1368.522     1048.825        0.706        0.290       89.552       29.175        0.106      333.395        2.682      852.015
12/25/2021  02:49:00      -47.937       35.200       -4.848       51.935       73.385       23.610     2697.265     5385.362      557.450        0.610        0.432       59.473       27.968        0.221      333.445        2.765      852.025
12/25/2021  02:50:00      -84.077       -8.370      -12.827       86.640       85.473       37.936     7506.411     7305.604     1439.155        1.177        0.813       84.493       30.683        0.132      333.437        2.751      851.972
12/25/2021  02:51:00     -188.931     -127.177      -20.778      125.336      136.304       70.108    15709.145    18578.737     4915.157        4.574        1.960      227.748       58.709        0.066      333.513        2.875      851.968
12/25/2021  02:52:00     -187.187        2.958       -8.897      105.949      103.574       73.443    11225.217    10727.658     5393.864        3.123        1.367      187.211       51.271        0.075      333.419        2.720      852.001
12/25/2021  02:53:00     -265.967      -47.797       -8.795      146.890      121.240       72.950    21576.728    14699.099     5321.711        5.734        2.080      270.228       72.518        0.072      333.410        2.704      852.021
12/25/2021  02:54:00     -168.250       24.485       -4.701      134.875       88.352       76.415    18191.221     7806.121     5839.239        3.038        1.592      170.022       70.409        0.171      333.381        2.658      852.036
12/25/2021  02:55:00     -415.756      -87.363      -36.776      169.656      158.144       81.390    28783.230    25009.461     6624.254       12.112        3.021      424.836       86.927        0.042      333.356        2.615      852.057
12/25/2021  02:56:00     -231.322       43.526       -1.476      201.162      104.479       66.935    40466.196    10915.936     4480.312        5.562        2.793      235.381       68.989        0.086      333.311        2.541      852.003
12/25/2021  02:57:00     -255.144       51.154        3.656      165.566      145.621       96.766    27412.067    21205.603     9363.704        6.284        2.899      260.222       95.522        0.135      333.294        2.512      851.934
12/25/2021  02:58:00     -243.067       -3.800       -9.609      166.986      165.548       92.351    27884.297    27405.998     8528.636        6.149        3.191      243.097       80.731        0.110      333.301        2.524      851.870
12/25/2021  02:59:00     -367.593      -23.482      -13.379      191.017      147.546       96.986    36487.349    21769.934     9406.271       10.175        3.383      368.343       97.216        0.070      333.279        2.486      851.846
12/25/2021  03:00:00     -234.965       31.741      -20.595      139.978       92.378       65.802    19593.931     8533.616     4329.851        4.454        1.623      237.100       70.355        0.088      333.229        2.403      851.811
12/25/2021  03:01:00     -226.160       40.665      -11.213      195.460       90.816       69.917    38204.489     8247.538     4888.422        5.212        2.567      229.787       87.488        0.145      333.178        2.320      851.793
12/25/2021  03:02:00     -220.681       36.575      -18.441      157.204       94.856       68.456    24713.062     8997.614     4686.284        4.438        1.920      223.691       66.176        0.088      333.146        2.267      851.784
12/25/2021  03:03:00     -244.163       35.560      -16.811      137.890       89.015       65.044    19013.577     7923.747     4230.669        4.616        1.558      246.739       69.051        0.078      333.105        2.199      851.787
12/25/2021  03:04:00     -225.543       86.444       -1.888      118.809       85.745       58.815    14115.525     7352.229     3459.148        4.163        1.246      241.542       59.485        0.061      333.032        2.079      851.791
12/25/2021  03:05:00     -228.061      -10.396      -15.915      101.792       90.314       49.036    10361.637     8156.603     2404.515        3.664        1.046      228.298       36.656        0.026      333.066        2.136      851.858
12/25/2021  03:06:00     -263.546      -23.719      -22.814       97.543       74.372       52.164     9514.687     5531.266     2721.046        4.415        0.888      264.611       31.748        0.014      333.074        2.147      851.892
12/25/2021  03:07:00     -241.164        2.168      -19.482      117.222       97.597       56.580    13740.904     9525.211     3201.351        4.250        1.323      241.174       47.720        0.039      333.038        2.089      851.870
12/25/2021  03:08:00     -170.098       26.174       -8.609       82.818       71.211       45.629     6858.814     5070.965     2081.969        2.185        0.701      172.100       32.810        0.036      333.010        2.043      851.906
12/25/2021  03:09:00     -181.399      -31.413      -22.401       86.948       53.955       47.754     7560.008     2911.161     2280.458        2.357        0.638      184.098       43.920        0.057      333.006        2.037      851.866
12/25/2021  03:10:00     -188.242       53.607      -11.735       95.127       59.037       42.537     9049.211     3485.369     1809.377        2.639        0.717      195.726       26.891        0.019      332.964        1.966      851.867
12/25/2021  03:11:00     -202.761       31.314        8.390      149.055       98.421       59.045    22217.361     9686.663     3486.279        3.877        1.770      205.165       65.365        0.102      332.946        1.937      851.862
12/25/2021  03:12:00     -245.304       29.716        9.810      148.470       77.408       60.105    22043.300     5991.953     3612.562        4.639        1.582      247.098       73.619        0.089      332.918        1.891      851.889
12/25/2021  03:13:00     -258.273       18.769        3.031      154.707      125.044       70.376    23934.259    15635.889     4952.774        5.579        2.226      258.954       63.400        0.060      332.949        1.941      851.951
12/25/2021  03:14:00     -380.826       16.946      -26.700      120.626      126.210       74.916    14550.692    15928.952     5612.474        9.105        1.805      381.203       58.434        0.023      333.025        2.066      851.971
12/25/2021  03:15:00     -249.423      -15.713      -19.066      144.221      104.308       60.202    20799.780    10880.197     3624.276        4.906        1.765      249.918       61.266        0.060      332.978        1.990      852.018
12/25/2021  03:16:00     -289.458     -153.367      -41.806      233.310      162.711       92.486    54433.639    26474.858     8553.600        9.924        4.473      327.578       71.790        0.048      333.148        2.269      851.966
12/25/2021  03:17:00     -252.990      -44.174      -15.394      175.856      133.240       70.596    30925.372    17752.876     4983.819        5.992        2.683      256.818       76.497        0.089      333.129        2.240      851.881
12/25/2021  03:18:00     -311.176       -7.145      -31.423      156.601      137.953       64.512    24523.845    19031.138     4161.785        7.278        2.386      311.258       63.533        0.042      333.072        2.146      851.920
12/25/2021  03:19:00     -341.625       73.787       13.011      262.671      158.464       89.677    68996.201    25110.843     8041.964       11.222        5.107      349.503       84.415        0.058      333.036        2.087      851.862
12/25/2021  03:20:00     -255.296       67.456      -17.347      130.928      109.629       70.609    17142.128    12018.503     4985.579        5.208        1.707      264.057       63.713        0.058      333.052        2.112      851.905
12/25/2021  03:21:00     -190.801      -26.621        1.930      151.111       78.553       76.215    22834.656     6170.534     5808.690        3.596        1.741      192.650       81.679        0.180      333.071        2.145      851.827
12/25/2021  03:22:00     -150.335       -9.079        7.729      241.439      110.177       80.037    58292.759    12138.865     6405.937        4.978        3.842      150.608       95.753        0.404      333.042        2.096      851.769
12/25/2021  03:23:00     -266.022       50.706       -0.610      140.609       98.997       75.651    19770.965     9800.335     5723.061        5.431        1.765      270.811       62.458        0.053      333.005        2.035      851.774
12/25/2021  03:24:00     -310.405       60.562       -9.680      137.055      121.795       65.318    18784.033    14834.024     4266.458        6.899        1.894      316.258       72.410        0.052      333.002        2.028      851.789
12/25/2021  03:25:00     -174.208       25.437       -9.872       83.903       76.898       45.794     7039.746     5913.227     2097.086        2.307        0.753      176.055       42.453        0.058      333.027        2.070      851.828
12/25/2021  03:26:00     -200.582      -37.244       -4.298       97.643       75.515       49.644     9534.092     5702.487     2464.490        2.967        0.885      204.011       42.584        0.044      333.017        2.055      851.817
12/25/2021  03:27:00     -217.421      -10.988      -21.702      153.428       87.259       56.300    23540.122     7614.060     3169.721        4.109        1.716      217.698       40.353        0.034      333.033        2.082      851.818
12/25/2021  03:28:00     -329.134      -15.718      -22.120      181.755      138.734       77.973    33034.783    19247.043     6079.791        8.370        2.918      329.510       92.071        0.078      333.074        2.149      851.782
12/25/2021  03:29:00     -237.527       -1.215        2.554      228.744       95.997       78.068    52323.796     9215.340     6094.591        6.202        3.382      237.530       84.262        0.126      333.080        2.159      851.746
12/25/2021  03:30:00     -416.528      -26.835      -32.003      195.260      197.434       91.646    38126.481    38980.018     8398.978       13.036        4.275      417.392       67.674        0.026      333.183        2.327      851.724
12/25/2021  03:31:00     -284.786       11.714       -3.783      206.535      138.006       91.970    42656.616    19045.645     8458.443        7.569        3.508      285.027       87.719        0.095      333.142        2.260      851.734
12/25/2021  03:32:00     -186.270       43.762        2.094      132.684       96.205       64.226    17605.101     9255.426     4125.033        3.379        1.549      191.341       53.078        0.077      332.882        1.832      851.813
12/25/2021  03:33:00     -254.112       90.913      -15.925      129.579       89.149       70.293    16790.712     7947.478     4941.054        5.138        1.484      269.886       60.039        0.049      332.759        1.626      851.799
12/25/2021  03:34:00     -199.743       53.999        0.516      162.262       98.997       76.464    26328.987     9800.380     5846.715        4.239        2.099      206.914       69.300        0.112      332.660        1.464      851.874
12/25/2021  03:35:00     -202.913       38.858      -14.117      110.335       80.929       69.900    12173.766     6549.485     4886.012        3.324        1.180      206.600       58.004        0.079      332.547        1.277      851.886
12/25/2021  03:36:00     -231.234       74.253       -5.932       86.415       79.093       56.607     7467.526     6255.660     3204.306        3.797        0.846      242.864       47.370        0.038      332.541        1.266      851.898
12/25/2021  03:37:00     -119.879       34.005      -29.467      143.462      108.253       51.331    20581.472    11718.781     2634.863        2.566        1.747      124.608       29.544        0.056      332.644        1.438      851.849
12/25/2021  03:38:00     -254.708       56.358       -6.858      170.619       87.599       63.409    29110.763     7673.543     4020.653        5.444        2.040      260.868       66.377        0.065      332.760        1.629      851.882
12/25/2021  03:39:00     -101.233       40.257       -6.157       71.180       71.155       40.305     5066.529     5062.974     1624.525        1.183        0.588      108.944       22.238        0.042      332.690        1.516      851.859
12/25/2021  03:40:00     -138.629       16.164      -18.696       65.599       66.285       43.323     4303.228     4393.720     1876.916        1.520        0.529      139.568       32.390        0.054      332.660        1.467      851.869
12/25/2021  03:41:00     -120.774       24.446       -5.685       55.315       53.732       30.208     3059.706     2887.144      912.495        1.104        0.343      123.223       23.129        0.035      332.665        1.476      851.892
12/25/2021  03:42:00      -29.582      -50.342       -0.335       93.200      157.246       69.822     8686.325    24726.180     4875.178        2.084        1.914       58.390       65.104        1.243      332.816        1.723      851.920
12/25/2021  03:43:00     -219.106     -108.067      -33.042      167.071      117.528       57.863    27912.627    13812.770     3348.168        5.292        2.254      244.307       64.322        0.069      333.070        2.141      851.912
12/25/2021  03:44:00     -120.401       16.486      -13.329       68.832       49.536       37.145     4737.830     2453.768     1379.750        1.176        0.429      121.525       27.505        0.051      332.977        1.990      851.840
12/25/2021  03:45:00     -198.280       26.057      -11.630      107.739      117.879       56.840    11607.587    13895.514     3230.821        3.443        1.437      199.985       53.692        0.072      332.974        1.981      851.865
12/25/2021  03:46:00     -269.206       28.746      -12.703      107.832       76.608       51.073    11627.834     5868.861     2608.472        4.678        1.005      270.736       56.368        0.043      332.869        1.809      851.920
12/25/2021  03:47:00     -203.587       31.282       -8.424      102.777       69.001       56.096    10563.174     4761.129     3146.773        3.048        0.924      205.976       62.118        0.091      332.764        1.637      851.958
12/25/2021  03:48:00     -160.887       36.936      -21.104      178.695      115.223       57.963    31931.894    13276.235     3359.751        3.812        2.428      165.073       73.755        0.200      332.757        1.624      851.880
12/25/2021  03:49:00     -243.042      -16.705      -11.154      180.195      148.759       74.143    32470.215    22129.251     5497.230        5.977        3.005      243.615       64.641        0.070      333.023        2.063      851.830
12/25/2021  03:50:00     -206.366      -23.658      -17.918      134.290       68.270       61.537    18033.746     4660.784     3786.836        3.497        1.324      207.717       64.782        0.097      333.023        2.065      851.778
12/25/2021  03:51:00     -303.753       21.708      -40.006      179.085      150.230       89.838    32071.270    22569.151     8070.923        7.851        3.136      304.528       85.092        0.078      333.064        2.132      851.707
12/25/2021  03:52:00     -247.742       64.726      -23.088      130.296      116.421       62.235    16977.149    13553.865     3873.178        5.025        1.720      256.058       47.869        0.035      333.035        2.084      851.701
12/25/2021  03:53:00     -297.405      -11.892       -6.508      155.909      119.612       79.650    24307.707    14307.087     6344.043        6.679        2.248      297.643       71.070        0.057      333.104        2.198      851.767
12/25/2021  03:54:00     -189.816       77.406      -18.182      126.578       86.785       63.207    16022.027     7531.571     3995.080        3.495        1.377      204.992       59.882        0.085      332.961        1.963      851.767
12/25/2021  03:55:00     -229.975      104.835      -15.683       95.976       81.282       41.349     9211.436     6606.703     1709.713        4.082        0.876      252.743       40.306        0.025      332.706        1.540      851.743
12/25/2021  03:56:00     -194.221       54.773      -18.410       92.897       73.583       50.291     8629.791     5414.433     2529.170        2.881        0.829      201.797       43.076        0.046      332.588        1.344      851.709
12/25/2021  03:57:00     -188.231       36.685      -37.590      142.633      120.212       67.662    20344.162    14450.855     4578.164        3.877        1.969      191.772       52.039        0.074      332.524        1.239      851.668
12/25/2021  03:58:00     -275.156       81.284       -7.851      173.401      105.401       75.048    30067.793    11109.385     5632.210        6.459        2.340      286.911       82.812        0.083      332.465        1.144      851.700
12/25/2021  03:59:00     -288.408       89.048      -18.348      107.293       99.426       65.877    11511.747     9885.498     4339.841        5.859        1.287      301.842       59.035        0.038      332.384        1.007      851.732
12/25/2021  04:00:00     -259.010       80.715        3.586      192.756      104.224       77.411    37154.748    10862.668     5992.461        6.380        2.700      271.295       84.052        0.096      332.381        1.003      851.711
12/25/2021  04:01:00     -248.522       74.748       -1.960      215.151      117.783       76.860    46290.130    13872.817     5907.468        6.670        3.304      259.520       84.531        0.106      332.404        1.042      851.697
12/25/2021  04:02:00     -290.220      100.210      -17.514      161.647      104.063       84.032    26129.642    10829.150     7061.330        6.929        2.201      307.033       85.497        0.078      332.379        0.999      851.691
12/25/2021  04:03:00     -266.218       60.168      -15.354      154.057      116.718       64.336    23733.557    13623.133     4139.080        5.810        2.075      272.933       53.668        0.039      332.356        0.962      851.653
12/25/2021  04:04:00     -233.824       26.263      -12.025      185.305      115.167       89.984    34337.917    13263.401     8097.130        5.559        2.785      235.294       83.945        0.127      332.371        0.987      851.621
12/25/2021  04:05:00     -204.595       13.015       -1.312      168.589      113.114       87.137    28422.325    12794.813     7592.846        4.541        2.440      205.009       85.114        0.172      332.373        0.991      851.613
12/25/2021  04:06:00     -186.116       57.562       -4.601      159.334      111.108       76.250    25387.421    12344.969     5814.090        4.075        2.177      194.814       78.524        0.162      332.365        0.976      851.604
12/25/2021  04:07:00     -189.048       13.545      -15.139      168.009      102.282       69.268    28227.062    10461.512     4798.004        3.981        2.174      189.532       66.551        0.123      332.358        0.965      851.516
12/25/2021  04:08:00     -308.398       78.967      -18.328       93.747       95.676       55.193     8788.407     9153.947     3046.226        6.133        1.049      318.348       43.033        0.018      332.326        0.911      851.467
12/25/2021  04:09:00     -216.700       60.062        3.466       90.815       94.526       47.849     8247.343     8935.088     2289.481        3.502        0.974      224.870       39.690        0.031      332.331        0.920      851.432
12/25/2021  04:10:00     -170.321       74.281      -26.457       68.263       65.389       54.804     4659.794     4275.724     3003.528        2.358        0.597      185.815       30.947        0.028      332.328        0.916      851.386
12/25/2021  04:11:00     -162.363       29.890       -9.912      139.033      103.088       53.928    19330.275    10627.091     2908.211        3.010        1.643      165.091       58.447        0.125      332.332        0.921      851.399
12/25/2021  04:12:00     -206.398       63.772       -7.947      152.647       99.652       69.610    23301.203     9930.553     4845.517        4.240        1.904      216.025       72.630        0.113      332.347        0.947      851.347
12/25/2021  04:13:00     -319.681        2.955      -17.914      126.546       91.540       58.726    16013.900     8379.523     3448.769        6.518        1.392      319.694       53.447        0.028      332.374        0.991      851.409
12/25/2021  04:14:00     -191.046       30.252      -10.513      109.229       85.705       47.857    11930.981     7345.333     2290.252        2.954        1.078      193.427       45.861        0.056      332.353        0.956      851.481
12/25/2021  04:15:00      -34.360       21.166        1.697      108.704       67.371       51.498    11816.503     4538.797     2652.054        1.032        0.950       40.356       42.975        1.134      332.364        0.979      851.512
12/25/2021  04:16:00       16.182       22.609      -27.390       30.642       48.441       18.237      938.948     2346.542      332.600        0.257        0.181       27.803       10.987        0.156      332.450        1.121      851.499
12/25/2021  04:17:00     -109.775       37.053      -13.420       71.184       66.615       36.106     5067.132     4437.569     1303.611        1.220        0.540      115.860       21.020        0.033      332.338        0.934      851.490
12/25/2021  04:18:00     -227.750       75.978      -24.870      126.491       83.904       56.525    15999.907     7039.935     3195.026        4.224        1.312      240.089       50.755        0.045      332.327        0.913      851.502
12/25/2021  04:19:00     -148.920       12.873      -15.613       85.836       77.943       50.059     7367.888     6075.050     2505.928        1.926        0.797      149.476       58.734        0.154      332.299        0.868      851.433
12/25/2021  04:20:00      -86.653      -13.840      -27.823       99.547      104.368       52.874     9909.680    10892.735     2795.613        1.603        1.180       87.751       51.851        0.349      332.349        0.950      851.425
12/25/2021  04:21:00      -75.702       12.152      -13.290      121.384       69.834       39.791    14733.963     4876.728     1583.334        1.362        1.060       76.671       29.971        0.153      332.325        0.912      851.429
12/25/2021  04:22:00      -97.249        9.346      -23.007      117.526       77.671       51.891    13812.260     6032.785     2692.706        1.630        1.127       97.697       49.580        0.258      332.399        1.032      851.424
12/25/2021  04:23:00      -99.808       16.646       -5.745       78.687       57.602       36.159     6191.607     3318.017     1307.442        1.054        0.541      101.187       38.377        0.144      332.342        0.941      851.370
12/25/2021  04:24:00     -202.238       44.373       -9.352       98.359       62.637       40.493     9674.480     3923.371     1639.703        2.909        0.762      207.048       40.919        0.039      332.357        0.965      851.326
12/25/2021  04:25:00     -226.227       56.884       -8.303       90.416       53.749       47.025     8174.994     2888.932     2211.393        3.388        0.664      233.269       41.233        0.031      332.375        0.994      851.268
12/25/2021  04:26:00     -246.255       25.556       -8.071      124.507       83.003       52.702    15501.931     6889.547     2777.517        4.326        1.258      247.577       49.797        0.040      332.412        1.055      851.307
12/25/2021  04:27:00     -164.555       18.384      -23.395      174.039       90.433       62.358    30289.543     8178.207     3888.563        3.515        2.118      165.579       68.388        0.171      332.517        1.230      851.232
12/25/2021  04:28:00     -152.870       16.251      -10.090      102.854       70.610       51.785    10578.871     4985.734     2681.660        2.099        0.912      153.732       37.060        0.058      332.539        1.265      851.232
12/25/2021  04:29:00     -210.203       -9.459      -23.768      206.819       93.405       71.755    42774.114     8724.502     5148.773        5.073        2.832      210.416       83.753        0.158      332.562        1.302      851.182
12/25/2021  04:30:00     -224.440       48.737       -7.062      143.663       79.396       54.768    20639.087     6303.701     2999.494        4.136        1.497      229.671       51.996        0.051      332.594        1.357      851.234
12/25/2021  04:31:00     -389.213      118.418      -17.772      174.554      117.642       66.565    30469.014    13839.655     4430.925       10.727        2.437      406.829       82.042        0.041      332.647        1.443      851.228
12/25/2021  04:32:00     -396.104      130.054      -15.416      136.494      126.623       79.703    18630.747    16033.459     6352.496       10.753        2.051      416.909       75.029        0.032      332.616        1.391      851.240
12/25/2021  04:33:00     -227.539       68.759       -8.671      152.676       87.399       57.028    23310.072     7638.544     3252.174        4.538        1.710      237.701       66.453        0.078      332.558        1.294      851.294
12/25/2021  04:34:00     -246.920       66.982       -6.356      111.423       99.201       53.648    12415.028     9840.918     2878.148        4.531        1.257      255.844       63.605        0.062      332.607        1.376      851.265
12/25/2021  04:35:00     -252.721      -17.103      -35.388      210.224       94.429       67.702    44194.274     8916.768     4583.514        6.154        2.885      253.299       80.624        0.101      332.694        1.521      851.249
12/25/2021  04:36:00     -293.257       31.646       -7.646      185.581      114.458       75.684    34440.140    13100.582     5728.078        7.015        2.663      294.960       68.532        0.054      332.842        1.764      851.211
12/25/2021  04:37:00     -291.260       56.631       23.355      173.841      114.176       88.492    30220.532    13036.124     7830.845        6.983        2.554      296.714       87.854        0.088      332.983        1.998      851.193
12/25/2021  04:38:00     -287.688       67.543        0.831      131.947       92.829       61.617    17410.052     8617.308     3796.604        5.857        1.491      295.511       57.694        0.038      332.867        1.806      851.214
12/25/2021  04:39:00     -225.099       47.811        6.166      135.148       97.533       61.972    18265.033     9512.614     3840.531        4.230        1.581      230.120       64.629        0.079      332.747        1.609      851.224
12/25/2021  04:40:00     -186.308       -4.232        2.172      104.893       75.788       63.601    11002.646     5743.754     4045.082        2.776        1.040      186.356       59.212        0.101      332.774        1.653      851.214
12/25/2021  04:41:00     -196.119       29.283       -5.247      109.330      135.145       65.412    11953.058    18264.114     4278.726        3.692        1.725      198.293       51.924        0.069      332.946        1.938      851.170
12/25/2021  04:42:00     -233.690       -3.075      -19.502      140.188       91.983       66.392    19652.658     8460.799     4407.890        4.376        1.626      233.710       57.297        0.060      332.999        2.024      851.150
12/25/2021  04:43:00     -140.606        9.650      -19.108       89.252       72.243       52.588     7965.849     5219.047     2765.535        1.809        0.798      140.937       48.690        0.119      332.957        1.957      851.128
12/25/2021  04:44:00     -167.347       36.885      -21.517      117.736       70.925       56.896    13861.793     5030.336     3237.143        2.597        1.106      171.364       39.019        0.052      332.947        1.938      851.116
12/25/2021  04:45:00     -289.043      -33.098      -18.657      161.020      105.624       63.543    25927.331    11156.327     4037.757        6.305        2.056      290.932       61.798        0.045      333.068        2.139      851.093
12/25/2021  04:46:00     -261.931       58.271      -23.363      130.159      138.259       79.152    16941.410    19115.531     6264.960        5.743        2.116      268.335       64.177        0.057      333.111        2.209      851.065
12/25/2021  04:47:00     -184.350       33.102       -1.178      115.542       71.613       54.270    13349.871     5128.460     2945.256        2.825        1.071      187.299       52.809        0.079      332.988        2.007      851.090
12/25/2021  04:48:00     -232.713        5.222      -21.514      136.601      117.245       56.284    18659.786    13746.403     3167.863        4.510        1.779      232.771       42.213        0.033      333.095        2.182      851.100
12/25/2021  04:49:00     -150.054      -10.985      -17.695       81.934       63.933       36.938     6713.128     4087.432     1364.425        1.756        0.608      150.456       36.818        0.060      333.117        2.221      851.087
12/25/2021  04:50:00     -113.861      -51.852      -11.996       58.769       81.389       29.538     3453.840     6624.120      872.516        1.337        0.548      125.112       18.789        0.023      333.094        2.185      851.058
12/25/2021  04:51:00      -73.993     -178.687      -23.279       89.656      158.558       47.125     8038.153    25140.657     2220.788        3.667        1.770      193.401       47.900        0.061      333.485        2.829      850.899
12/25/2021  04:52:00     -252.720     -112.477      -15.569      130.002      136.930       62.092    16900.628    18749.804     3855.468        5.813        1.975      276.620       66.410        0.058      333.481        2.820      850.925
12/25/2021  04:53:00     -134.308     -186.654      -37.323      146.131       49.483       41.765    21354.354     2448.548     1744.275        3.990        1.277      229.953       29.706        0.017      333.541        2.920      850.922
12/25/2021  04:54:00       69.029      -70.531      -36.131       70.218       84.369       50.543     4930.608     7118.190     2554.565        1.282        0.730       98.690       42.772        0.188      333.306        2.535      850.845
12/25/2021  04:55:00       32.021      -78.049      -30.150       50.832       48.418       33.014     2583.938     2344.321     1089.953        0.702        0.301       84.362       10.283        0.015      333.332        2.578      850.859
12/25/2021  04:56:00       62.927      -48.338      -52.200       45.587       65.903       43.713     2078.146     4343.207     1910.836        0.868        0.417       79.350       27.927        0.124      333.349        2.606      850.935
12/25/2021  04:57:00      100.108     -146.666      -51.063       99.583      130.302       64.576     9916.845    16978.507     4170.009        3.260        1.553      177.574       55.636        0.098      333.378        2.652      850.991
12/25/2021  04:58:00       58.855     -132.066      -51.842       57.920       86.096       45.025     3354.714     7412.455     2027.268        1.819        0.640      144.586       32.840        0.052      333.474        2.811      850.995
12/25/2021  04:59:00       10.251      -42.395      -24.296       34.045       48.937       32.925     1159.035     2394.793     1084.043        0.356        0.232       43.617       26.103        0.358      333.444        2.763      850.902
12/25/2021  05:00:00      -12.330       30.033       -2.210       24.907       40.846       20.239      620.345     1668.358      409.604        0.188        0.135       32.465        9.574        0.087      333.389        2.672      850.736
12/25/2021  05:01:00       -5.388      -57.388      -32.150       32.104       45.348       27.000     1030.674     2056.427      729.003        0.409        0.191       57.640       19.653        0.116      333.482        2.825      850.793
12/25/2021  05:02:00      -42.297        1.642      -10.674       89.599       70.923       44.799     8027.969     5030.102     2006.962        0.848        0.753       42.328       46.019        1.182      333.339        2.591      850.824
12/25/2021  05:03:00     -105.913      -43.535       -4.981       48.823       59.775       42.385     2383.645     3573.040     1796.473        1.044        0.388      114.511       30.117        0.069      333.321        2.560      850.828
12/25/2021  05:04:00     -134.028     -155.850      -17.265       75.941       91.864       45.067     5767.099     8438.908     2031.012        2.939        0.812      205.554       29.515        0.021      333.398        2.686      850.824
12/25/2021  05:05:00     -113.834     -103.038      -56.099      141.107       93.954       66.682    19911.189     8827.418     4446.484        2.995        1.659      153.542       49.407        0.104      333.416        2.715      850.795
12/25/2021  05:06:00     -102.692     -115.782      -39.229      163.158      130.730       68.329    26620.503    17090.448     4668.855        3.693        2.419      154.762       49.371        0.102      333.343        2.593      850.811
12/25/2021  05:07:00      -95.598      -70.277      -33.407      142.582      116.453       72.724    20329.655    13561.388     5288.723        2.718        1.959      118.651       57.701        0.236      333.318        2.554      850.774
12/25/2021  05:08:00        0.606      -73.620      -33.054       63.258       63.784       33.602     4001.593     4068.341     1129.065        0.785        0.460       73.623       28.683        0.152      333.471        2.807      850.692
12/25/2021  05:09:00     -110.222      -44.140      -24.277       56.309       60.579       30.899     3170.731     3669.792      954.750        1.124        0.390      118.732       26.181        0.049      333.293        2.513      850.772
12/25/2021  05:10:00     -100.485        6.701       -7.246       85.678       47.299       36.088     7340.658     2237.231     1302.351        1.054        0.544      100.709       17.275        0.029      333.180        2.327      850.847
12/25/2021  05:11:00       48.769     -105.013      -46.499       68.348       76.095       47.134     4671.490     5790.496     2221.588        1.412        0.634      115.785       35.433        0.094      333.261        2.461      850.849
12/25/2021  05:12:00       -6.912      -86.664      -24.249       60.757       64.607       48.133     3691.377     4174.042     2316.764        0.916        0.509       86.939       23.430        0.073      333.278        2.489      850.839
12/25/2021  05:13:00      -70.531      -37.934      -26.632       81.111       77.301       34.628     6579.065     5975.412     1199.104        1.044        0.688       80.085       28.779        0.129      333.169        2.310      850.850
12/25/2021  05:14:00     -152.506      -29.701      -19.187       87.359       86.050       51.905     7631.584     7404.685     2694.172        2.112        0.887      155.372       45.426        0.085      333.110        2.208      850.859
12/25/2021  05:15:00     -151.482      -22.947        3.675      143.160       95.691       65.400    20494.783     9156.813     4277.146        2.870        1.696      153.210       63.428        0.171      333.147        2.270      850.876
12/25/2021  05:16:00     -150.087       -1.058        9.309       99.456       83.700       69.008     9891.421     7005.752     4762.092        2.213        1.083      150.091       46.444        0.096      333.099        2.191      850.880
12/25/2021  05:17:00     -119.361        7.277       -5.014       72.281       67.432       38.542     5224.551     4547.043     1485.467        1.279        0.563      119.582       36.256        0.092      333.123        2.233      850.895
12/25/2021  05:18:00      -16.306       -4.100       -3.291       55.405       35.658       32.771     3069.737     1271.466     1073.957        0.285        0.271       16.813        6.338        0.142      333.208        2.373      850.865
12/25/2021  05:19:00      -38.641      -35.866      -14.426       59.159       52.200       38.954     3499.845     2724.800     1517.407        0.536        0.387       52.721       32.458        0.379      333.148        2.272      850.864
12/25/2021  05:20:00      -59.896      -43.956      -16.675       43.235       33.309       27.314     1869.244     1109.507      746.079        0.476        0.186       74.295       17.384        0.055      333.142        2.263      850.895
12/25/2021  05:21:00     -135.980       -7.216      -13.592       86.867       54.501       34.341     7545.898     2970.308     1179.300        1.521        0.585      136.171       22.314        0.027      333.109        2.209      850.888
12/25/2021  05:22:00     -160.340      -35.055       -7.663       94.493      103.691       54.824     8928.834    10751.779     3005.624        2.484        1.134      164.127       50.095        0.093      333.056        2.120      850.853
12/25/2021  05:23:00     -312.682       -8.219      -19.018      139.982       88.519       65.071    19594.896     7835.588     4234.211        6.493        1.583      312.790       67.043        0.046      333.065        2.134      850.839
12/25/2021  05:24:00     -209.547      -43.477      -12.012      140.405       91.185       73.355    19713.448     8314.706     5381.000        3.967        1.670      214.009       61.210        0.082      333.055        2.118      850.824
12/25/2021  05:25:00     -164.484      -65.843      -14.284      112.189      109.084       50.612    12586.312    11899.403     2561.584        2.932        1.352      177.173       41.646        0.055      333.053        2.117      850.841
12/25/2021  05:26:00     -187.370      -37.538      -21.946       78.477       80.685       47.071     6158.658     6510.105     2215.660        2.594        0.744      191.093       36.202        0.036      333.026        2.069      850.841
12/25/2021  05:27:00     -135.853      -58.585      -36.707       78.213       57.344       34.339     6117.322     3288.360     1179.153        1.691        0.529      147.947       21.688        0.021      333.080        2.161      850.848
12/25/2021  05:28:00     -153.002      -42.528      -14.061       80.408       95.772       53.740     6465.380     9172.190     2887.990        2.197        0.926      158.802       32.369        0.042      333.045        2.101      850.867
12/25/2021  05:29:00     -205.760     -181.386      -32.194      135.845      121.891       68.500    18453.881    14857.470     4692.183        5.713        1.900      274.295       52.591        0.037      333.122        2.228      850.884
12/25/2021  05:30:00      -39.142     -165.105      -21.274      104.984      139.965       64.331    11021.707    19590.206     4138.472        3.199        1.738      169.682       44.295        0.068      333.162        2.296      850.844
12/25/2021  05:31:00     -106.062      -88.632      -32.944      102.870       87.843       67.262    10582.233     7716.476     4524.229        2.150        1.141      138.220       44.946        0.106      333.171        2.310      850.858
12/25/2021  05:32:00     -197.312      -55.413      -11.800      102.748       71.613       57.526    10557.057     5128.493     3309.203        3.056        0.950      204.946       54.625        0.071      333.143        2.264      850.854
12/25/2021  05:33:00      -73.769      -93.680      -12.319       47.125       86.137       39.003     2220.801     7419.649     1521.248        1.276        0.558      119.239       25.367        0.045      333.138        2.256      850.776
12/25/2021  05:34:00     -131.970      -13.264      -11.017      121.601       74.575       50.183    14786.688     5561.383     2518.320        2.029        1.143      132.635       45.181        0.116      333.093        2.181      850.741
12/25/2021  05:35:00     -160.936      -15.639        5.120       82.117       76.524       51.898     6743.173     5855.861     2693.372        2.073        0.765      161.694       42.814        0.070      333.045        2.102      850.752
12/25/2021  05:36:00     -107.776      -25.571       -1.608       75.951       59.889       44.556     5768.505     3586.718     1985.266        1.180        0.567      110.768       29.410        0.070      333.018        2.060      850.789
12/25/2021  05:37:00      -77.382        4.135       -5.288       52.183       54.360       28.085     2723.034     2955.018      788.785        0.625        0.323       77.492       19.750        0.065      333.004        2.037      850.794
12/25/2021  05:38:00      -87.589       -0.616       -8.264       52.640       49.399       26.868     2770.939     2440.294      721.876        0.684        0.297       87.591       20.532        0.055      333.010        2.046      850.817
12/25/2021  05:39:00      -91.600        3.046       -4.653       63.666       54.296       35.899     4053.354     2948.005     1288.722        0.835        0.415       91.650       33.483        0.133      333.015        2.054      850.835
12/25/2021  05:40:00     -179.362      -31.707      -11.639       85.942       63.971       40.994     7386.073     4092.230     1680.511        2.323        0.658      182.143       41.781        0.053      333.028        2.074      850.936
12/25/2021  05:41:00      -38.534       34.222      -48.469      150.127      135.229       53.319    22538.259    18286.925     2842.895        2.433        2.183       51.537       25.060        0.236      333.276        2.484      850.714
12/25/2021  05:42:00     -212.831       17.375      -29.288      152.151      106.115       72.558    23149.948    11260.342     5264.689        4.306        1.984      213.539       40.467        0.036      333.172        2.310      850.712
12/25/2021  05:43:00     -159.129       54.597        2.043      194.513      110.993       87.036    37835.469    12319.553     7575.237        4.301        2.887      168.234       74.968        0.199      333.220        2.391      850.723
12/25/2021  05:44:00     -202.986      -47.775      -18.820      131.157      124.845       71.496    17202.067    15586.150     5111.748        4.086        1.895      208.533       67.781        0.106      333.239        2.422      850.844
12/25/2021  05:45:00     -237.673      -65.431      -27.608      120.422      144.403       66.224    14501.475    20852.129     4385.616        5.063        1.987      246.515       52.079        0.045      333.297        2.517      850.869
12/25/2021  05:46:00     -161.194     -108.997      -12.746      106.210      152.106       74.874    11280.463    23136.281     5606.095        3.902        2.001      194.587       63.768        0.107      333.375        2.647      850.812
12/25/2021  05:47:00     -152.934       10.521       -3.247       99.078      137.127       59.075     9816.446    18803.915     3489.801        2.780        1.606      153.296       50.613        0.109      333.265        2.466      850.838
12/25/2021  05:48:00      -75.359      -42.858      -12.008       65.966       69.896       36.586     4351.488     4885.466     1338.526        0.912        0.529       86.694       17.663        0.042      333.268        2.471      850.779
12/25/2021  05:49:00     -142.559      -36.161       12.610      119.514      123.639       66.042    14283.694    15286.698     4361.513        2.785        1.697      147.074       56.789        0.149      333.230        2.407      850.826
12/25/2021  05:50:00     -244.612      -43.829      -16.011      125.462       94.786       54.815    15740.714     8984.431     3004.664        4.487        1.386      248.507       54.859        0.049      333.258        2.452      850.835
12/25/2021  05:51:00     -506.322      -33.517      -27.222      206.918      127.311       99.748    42814.909    16208.028     9949.743       16.359        3.449      507.430       88.803        0.031      333.359        2.618      850.782
12/25/2021  05:52:00     -632.821      -72.804      -59.305      286.961      206.995      113.115    82346.866    42847.099    12795.078       27.361        6.899      636.995      125.716        0.039      333.475        2.810      850.758
12/25/2021  05:53:00     -354.470       15.397       -7.181      202.342      157.132       90.053    40942.467    24690.603     8109.495        9.983        3.687      354.804      101.362        0.082      333.404        2.694      850.821
12/25/2021  05:54:00     -445.659      -31.428      -40.417      253.243      178.267       99.348    64132.231    31778.955     9869.992       15.349        5.289      446.766       94.894        0.045      333.444        2.760      850.787
12/25/2021  05:55:00     -287.127      -78.418      -23.124      226.081      122.572      100.413    51112.485    15023.928    10082.814        8.266        3.811      297.643      111.548        0.140      333.435        2.745      850.829
12/25/2021  05:56:00     -203.382      -10.847        0.822      199.064      111.851       86.231    39626.349    12510.684     7435.868        5.052        2.979      203.671       90.541        0.198      333.409        2.703      850.795
12/25/2021  05:57:00     -360.975      -41.524      -32.476      149.436      141.641       97.170    22331.079    20062.114     9442.064        9.245        2.592      363.355       79.246        0.048      333.430        2.736      850.794
12/25/2021  05:58:00     -277.247       39.641       17.325      210.080      158.572      101.426    44133.524    25145.006    10287.152        7.914        3.978      280.066       97.286        0.121      333.412        2.708      850.790
12/25/2021  05:59:00     -300.070       -2.696       -3.914      208.651      144.696       89.991    43535.250    20936.882     8098.426        8.130        3.629      300.082       80.315        0.072      333.482        2.823      850.723
12/25/2021  06:00:00     -316.468      -25.835      -17.824      181.636      148.131       81.027    32991.724    21942.892     6565.449        8.131        3.075      317.521       78.206        0.061      333.497        2.848      850.735
12/25/2021  06:01:00     -334.450      -25.987      -22.236      176.545      104.923       72.663    31168.279    11008.833     5279.851        8.023        2.373      335.458       75.053        0.050      333.466        2.798      850.743
12/25/2021  06:02:00     -322.984       11.317       -9.443      183.569      117.878       83.505    33697.662    13895.149     6973.047        7.954        2.728      323.182       84.165        0.068      333.484        2.827      850.699
12/25/2021  06:03:00     -379.150      -59.753      -52.330      170.478      183.569       94.815    29062.591    33697.434     8989.845       11.089        3.587      383.829       83.657        0.048      333.475        2.811      850.747
12/25/2021  06:04:00     -517.389     -152.072      -30.509      268.220      218.558      103.401    71941.725    47767.553    10691.790       21.105        6.520      539.275       83.332        0.024      333.568        2.964      850.732
12/25/2021  06:05:00     -448.175      -71.244      -28.622      239.234      191.016      101.994    57233.102    36487.208    10402.696       15.542        5.206      453.802       93.049        0.042      333.533        2.907      850.819
12/25/2021  06:06:00     -496.087     -307.775      -84.823      217.061      243.984      112.709    47115.432    59528.278    12703.390       23.366        5.967      583.804       80.981        0.019      333.768        3.295      850.919
12/25/2021  06:07:00     -316.085      -32.108      -47.468      160.947      177.865       96.782    25903.984    31635.905     9366.799        8.504        3.345      317.711       75.373        0.056      333.724        3.222      850.900
12/25/2021  06:08:00     -347.691     -236.471      -44.776      180.752      155.930       77.386    32671.351    24314.232     5988.646       12.088        3.149      420.485       80.929        0.037      333.748        3.262      850.936
12/25/2021  06:09:00     -326.114     -112.781      -25.762      197.241      190.496       95.133    38903.850    36288.602     9050.317       10.197        4.212      345.066      102.899        0.089      333.665        3.126      850.978
12/25/2021  06:10:00     -292.649     -131.034      -26.684      157.101      169.789       82.192    24680.573    28828.138     6755.445        8.188        3.013      320.646       84.545        0.070      333.623        3.057      850.937
12/25/2021  06:11:00     -199.035        0.442      -23.412      191.320      127.117       89.026    36603.500    16158.832     7925.673        5.041        3.034      199.035       74.151        0.139      333.549        2.934      850.932
12/25/2021  06:12:00     -224.216      -99.205      -14.629      200.535      180.768       95.488    40214.162    32677.160     9117.874        7.115        4.100      245.183      100.644        0.168      333.566        2.963      850.953
12/25/2021  06:13:00     -206.135      -84.085      -10.577      149.611      164.292       69.736    22383.319    26991.878     4863.143        5.195        2.712      222.625       64.627        0.084      333.575        2.977      850.897
12/25/2021  06:14:00     -349.358       48.857       -4.495      190.133      188.654       85.270    36150.675    35590.251     7270.995       10.172        3.951      352.758       93.365        0.070      333.476        2.812      850.884
12/25/2021  06:15:00     -356.563       -5.862        3.046      203.176      153.772      100.126    41280.349    23645.830    10025.280       10.105        3.748      356.611       97.847        0.075      333.430        2.737      850.887
12/25/2021  06:16:00     -329.374      -47.835      -30.312      199.029      163.987       82.515    39612.463    26891.612     6808.696        9.249        3.666      332.829       94.738        0.081      333.448        2.765      850.873
12/25/2021  06:17:00     -370.122       -4.480       -3.835      169.164      134.410       76.348    28616.427    18065.975     5829.080        9.476        2.626      370.150       83.274        0.051      333.395        2.680      850.858
12/25/2021  06:18:00     -204.518      -16.443        3.435      160.463      117.204       76.741    25748.451    13736.686     5889.252        4.373        2.269      205.177       73.068        0.127      333.345        2.598      850.835
12/25/2021  06:19:00     -442.173       50.547       -2.476      167.403      134.116       84.696    28023.701    17987.235     7173.492       12.562        2.659      445.053       71.839        0.026      333.285        2.496      850.840
12/25/2021  06:20:00     -194.775      -19.663      -21.834      108.890      112.404       55.151    11857.100    12634.738     3041.648        3.316        1.377      195.764       37.450        0.037      333.299        2.523      850.855
12/25/2021  06:21:00     -159.519      -47.439      -31.274      119.017       98.437       58.899    14164.963     9689.783     3469.106        2.799        1.366      166.424       43.104        0.067      333.243        2.430      850.875
12/25/2021  06:22:00     -261.692       -0.994      -21.508      116.823       91.319       61.621    13647.665     8339.123     3797.087        4.736        1.289      261.694       40.905        0.024      333.258        2.454      850.916
12/25/2021  06:23:00     -197.135      -41.829      -19.280      116.939       72.215       52.772    13674.653     5214.957     2784.880        3.133        1.084      201.524       45.945        0.052      333.318        2.553      850.940
12/25/2021  06:24:00     -158.017      -33.815       -8.794      142.509       66.734       58.329    20308.745     4453.468     3402.223        2.717        1.408      161.595       65.376        0.164      333.293        2.512      850.964
12/25/2021  06:25:00     -103.682      -41.572      -16.544      108.968       85.525       45.162    11874.131     7314.497     2039.642        1.699        1.061      111.706       39.567        0.125      333.370        2.640      850.982
12/25/2021  06:26:00     -185.243     -102.293      -22.715       88.439       79.833       61.513     7821.436     6373.295     3783.853        3.163        0.899      211.610       54.153        0.065      333.488        2.834      850.974
12/25/2021  06:27:00      -75.353     -124.310      -24.127      128.153       86.357       37.916    16423.308     7457.495     1437.621        2.351        1.266      145.365       27.073        0.035      333.574        2.977      851.019
12/25/2021  06:28:00      -26.536      -21.277      -23.669       83.644       74.863       53.100     6996.316     5604.523     2819.642        0.857        0.771       34.013       35.174        1.069      333.420        2.722      851.029
12/25/2021  06:29:00      -35.274       13.804       -0.289       56.680       38.384       30.738     3212.654     1473.356      944.839        0.353        0.282       37.879        9.752        0.066      333.333        2.581      851.030
12/25/2021  06:30:00      -93.826      -62.180       -9.710       58.215       86.237       40.360     3388.970     7436.876     1628.905        1.261        0.623      112.560       37.172        0.109      333.347        2.603      851.005
12/25/2021  06:31:00      -29.405      -28.790       -8.955       39.741       42.264       30.449     1579.333     1786.241      927.149        0.303        0.215       41.152       20.612        0.251      333.334        2.580      850.980
12/25/2021  06:32:00      -21.486       -8.104       -2.721       43.178       33.275       21.249     1864.360     1107.247      451.529        0.198        0.171       22.964       13.711        0.357      333.266        2.469      850.932
12/25/2021  06:33:00      -64.216      -77.379      -18.505       62.518       55.473       30.679     3908.503     3077.199      941.184        0.919        0.396      100.554       20.791        0.043      333.271        2.477      850.954
12/25/2021  06:34:00     -111.905      -88.878      -25.742      122.038       82.089       39.571    14893.372     6738.612     1565.832        2.214        1.160      142.906       29.696        0.043      333.206        2.369      850.951
12/25/2021  06:35:00     -152.772      -76.641      -20.373      128.227       85.500       51.214    16442.223     7310.211     2622.892        2.800        1.319      170.918       46.841        0.075      333.147        2.270      850.978
12/25/2021  06:36:00     -237.937      -38.497       -7.204      131.494       77.996       62.639    17290.578     6083.395     3923.684        4.272        1.365      241.031       56.341        0.055      333.022        2.062      850.968
12/25/2021  06:37:00     -115.850      -61.777      -24.393      100.816       60.825       33.496    10163.773     3699.629     1121.995        1.641        0.749      131.292       27.874        0.045      333.020        2.062      850.989
12/25/2021  06:38:00      -24.592        1.700       -4.007       55.476       34.081       26.795     3077.609     1161.488      717.948        0.279        0.248       24.651       20.360        0.682      332.999        2.027      850.948
12/25/2021  06:39:00      -62.540      -84.181      -22.739       62.524       87.744       51.786     3909.243     7699.017     2681.809        1.290        0.715      104.870       39.823        0.144      333.023        2.067      850.946
12/25/2021  06:40:00      -25.414       14.294      -18.548       35.129       35.782       18.176     1234.054     1280.338      330.382        0.202        0.142       29.158       12.386        0.180      333.037        2.091      850.928
12/25/2021  06:41:00      -56.692      -42.248      -11.045       41.763       38.166       26.552     1744.142     1456.621      705.035        0.451        0.195       70.703       18.531        0.069      332.996        2.022      850.948
12/25/2021  06:42:00       -4.935      -56.001      -25.396       63.901       55.710       43.122     4083.329     3103.593     1859.509        0.642        0.452       56.218       26.557        0.223      333.025        2.070      850.933
12/25/2021  06:43:00       63.585     -182.404      -46.130       63.823       65.425       46.958     4073.334     4280.415     2205.061        2.500        0.528      193.169       34.641        0.032      333.037        2.087      850.919
12/25/2021  06:44:00       68.233     -196.301      -56.711       80.206       82.068       45.142     6433.059     6735.171     2037.790        3.080        0.760      207.821       32.282        0.024      332.927        1.905      850.980
12/25/2021  06:45:00      -64.703      -83.392      -20.229       53.636       91.961       41.719     2876.799     8456.836     1740.473        1.231        0.654      105.550       46.822        0.197      333.023        2.066      851.032
12/25/2021  06:46:00       37.317     -147.352      -41.521       89.884      133.636       66.257     8079.078    17858.669     4390.019        2.757        1.516      152.004       55.749        0.135      332.973        1.982      851.016
12/25/2021  06:47:00      -76.311      -33.265       -2.156       90.669      100.476       50.788     8220.850    10095.358     2579.416        1.391        1.045       83.246       31.971        0.147      332.863        1.802      850.979
12/25/2021  06:48:00      -17.621      -26.607      -27.793       54.997       48.002       33.620     3024.617     2304.154     1130.309        0.412        0.323       31.913       22.017        0.476      332.862        1.803      850.974
12/25/2021  06:49:00      -72.041      -23.885      -28.294       82.076       48.271       35.327     6736.503     2330.127     1247.993        0.844        0.516       75.898       25.857        0.116      332.920        1.897      850.959
12/25/2021  06:50:00      -50.485      -95.572      -26.215       92.609       66.961       56.452     8576.460     4483.841     3186.800        1.431        0.812      108.087       44.600        0.170      332.932        1.915      851.008
12/25/2021  06:51:00       10.087     -107.932      -15.116       77.854       66.423       50.509     6061.281     4412.081     2551.132        1.250        0.651      108.403       45.429        0.176      333.013        2.050      850.988
12/25/2021  06:52:00      -70.825      -32.198      -17.711       64.954       65.175       36.388     4219.074     4247.734     1324.118        0.808        0.490       77.801       22.663        0.085      332.905        1.872      850.937
12/25/2021  06:53:00      -45.871     -106.472      -39.112       99.027       76.963       42.012     9806.361     5923.373     1764.978        1.623        0.875      115.933       30.265        0.068      332.830        1.746      850.901
12/25/2021  06:54:00      -67.382      -81.528      -30.781       65.858       52.735       31.863     4337.299     2780.994     1015.253        1.013        0.407      105.770       24.080        0.052      332.938        1.928      850.843
12/25/2021  06:55:00      -34.725      -41.320      -28.123       49.946       55.739       28.190     2494.629     3106.828      794.691        0.505        0.320       53.974       20.937        0.150      332.862        1.803      850.823
12/25/2021  06:56:00      -85.068     -123.325      -41.651       61.172       75.561       37.782     3741.956     5709.523     1427.498        1.753        0.544      149.819       19.631        0.017      332.990        2.011      850.839
12/25/2021  06:57:00      -52.514      -13.705      -24.910       39.183       28.559       26.607     1535.276      815.638      707.948        0.331        0.153       54.273       13.656        0.063      332.812        1.718      850.868
12/25/2021  06:58:00      -38.693        2.433        0.974       37.883       39.030       24.257     1435.093     1523.339      588.423        0.252        0.177       38.770       15.929        0.169      332.712        1.553      850.884
12/25/2021  06:59:00      -13.210      -11.721       -3.920       55.580       59.096       35.100     3089.116     3492.338     1232.039        0.407        0.391       17.660       14.658        0.689      332.776        1.659      850.874
12/25/2021  07:00:00      -20.572       14.889        3.249       44.386       28.396       24.163     1970.154      806.312      583.859        0.201        0.168       25.394       25.588        1.015      332.620        1.402      850.868
12/25/2021  07:01:00      -12.713       -4.651        1.388       46.096       37.140       30.112     2124.849     1379.376      906.743        0.230        0.221       13.537       16.972        1.572      332.636        1.426      850.875
12/25/2021  07:02:00      -68.177        0.748      -12.813       46.151       24.418       24.388     2129.954      596.243      594.786        0.407        0.166       68.181       23.399        0.118      332.643        1.442      850.856
12/25/2021  07:03:00      -57.364       -4.999      -11.423       41.211       23.802       25.842     1698.362      566.558      667.809        0.319        0.147       57.581       21.251        0.136      332.682        1.504      850.820
12/25/2021  07:04:00       -8.673       19.374      -12.565       17.528       14.940       11.101      307.216      223.214      123.234        0.063        0.033       21.227        7.559        0.127      332.610        1.384      850.730
12/25/2021  07:05:00       56.426      -49.358      -19.733       40.877       54.909       21.078     1670.890     3015.022      444.268        0.557        0.257       74.967       23.555        0.099      332.681        1.502      850.714
12/25/2021  07:06:00       21.445      -21.257      -16.428       32.343       26.248       19.224     1046.070      688.971      369.561        0.164        0.105       30.195       11.333        0.141      332.759        1.632      850.739
12/25/2021  07:07:00      -17.476        3.305       10.629       45.128       36.688       34.839     2036.505     1345.985     1213.771        0.251        0.230       17.786       23.335        1.721      332.675        1.493      850.767
12/25/2021  07:08:00      -91.931       -3.375      -13.848       45.000       33.651       27.945     2024.973     1132.372      780.913        0.630        0.197       91.993       25.355        0.076      332.678        1.496      850.757
12/25/2021  07:09:00      -88.941       31.538      -15.653       44.530       21.812       13.308     1982.964      475.782      177.102        0.589        0.132       94.367       12.586        0.018      332.621        1.403      850.763
12/25/2021  07:10:00      -28.500        2.712      -11.529       20.084       14.341       18.155      403.354      205.651      329.587        0.095        0.047       28.628        8.788        0.094      332.588        1.350      850.700
12/25/2021  07:11:00       -1.873        4.258       -7.222       11.787       13.134        9.477      138.938      172.515       89.808        0.024        0.020        4.652        8.287        3.173      332.706        1.544      850.669
12/25/2021  07:12:00       -0.124       28.786       -4.687       12.197       21.049       13.209      148.772      443.052      174.466        0.081        0.038       28.787        8.344        0.084      332.654        1.457      850.659
12/25/2021  07:13:00      -21.250        1.713      -10.544       22.047       26.255        9.632      486.085      689.308       92.769        0.092        0.063       21.319        8.965        0.177      332.575        1.328      850.681
12/25/2021  07:14:00      -42.405      -41.804      -11.278       18.913       16.203       15.105      357.698      262.523      228.162        0.226        0.042       59.547       11.431        0.037      332.659        1.466      850.714
12/25/2021  07:15:00      -90.754      -69.446      -23.570       47.770       51.257       32.605     2281.981     2627.328     1063.065        0.979        0.299      114.276       15.773        0.019      332.845        1.773      850.742
12/25/2021  07:16:00     -139.798        1.611      -18.419       41.451       42.073       28.796     1718.172     1770.110      829.226        1.210        0.216      139.807       13.798        0.010      332.712        1.555      850.758
12/25/2021  07:17:00     -130.003      -73.576      -10.646       70.640       54.638       37.156     4990.059     2985.361     1380.547        1.589        0.468      149.379       28.687        0.037      332.792        1.683      850.803
12/25/2021  07:18:00      -30.326      -62.820      -19.765       85.266       55.578       34.086     7270.330     3088.865     1161.836        0.839        0.576       69.757       32.756        0.221      332.902        1.866      850.762
12/25/2021  07:19:00       76.723      -29.436      -29.040       51.271       46.770       35.110     2628.723     2187.463     1232.710        0.682        0.302       82.176       11.896        0.021      332.921        1.900      850.747
12/25/2021  07:20:00       65.938     -103.043      -29.701       54.970       69.161       31.134     3021.695     4783.265      969.317        1.231        0.439      122.334       37.030        0.092      332.803        1.702      850.759
12/25/2021  07:21:00       53.724     -170.674      -47.634      152.590      128.278       57.929    23283.717    16455.241     3355.820        3.868        2.155      178.930       76.428        0.182      332.930        1.913      850.752
12/25/2021  07:22:00       69.702      -68.646      -51.840       52.320       98.048       52.434     2737.364     9613.365     2749.343        1.368        0.755       97.830       16.550        0.029      332.881        1.832      850.773
12/25/2021  07:23:00       11.548     -138.821      -35.079      131.619      103.966       53.115    17323.572    10808.968     2821.208        2.579        1.548      139.301       49.031        0.124      332.781        1.665      850.819
12/25/2021  07:24:00      -34.302      -10.719      -25.144       36.651       31.804       28.534     1343.261     1011.483      814.183        0.255        0.158       35.938        6.240        0.030      332.858        1.794      850.857
12/25/2021  07:25:00      -17.803       25.133       -9.934       31.898       32.109       22.051     1017.452     1031.018      486.249        0.179        0.127       30.800       13.339        0.188      332.783        1.669      850.852
12/25/2021  07:26:00      -28.070       50.098       -2.870       32.274       22.252       17.121     1041.597      495.141      293.116        0.257        0.091       57.426       14.832        0.067      332.717        1.563      850.821
12/25/2021  07:27:00      -48.347       28.527       -2.442       30.691       27.464       15.304      941.930      754.261      234.227        0.254        0.097       56.136       15.092        0.072      332.610        1.385      850.806
12/25/2021  07:28:00        4.817       40.910       -0.826       27.529       39.066       13.164      757.849     1526.178      173.287        0.208        0.123       41.193        8.687        0.044      332.618        1.398      850.781
12/25/2021  07:29:00       12.347       54.248       -4.977       30.329       26.981       14.258      919.836      727.962      203.282        0.249        0.093       55.636       10.050        0.033      332.742        1.603      850.743
12/25/2021  07:30:00      -16.669       29.256      -11.062       35.154       26.937       21.386     1235.822      725.624      457.368        0.184        0.121       33.672       18.413        0.299      332.757        1.627      850.768
12/25/2021  07:31:00      -26.255      -18.137      -19.247       24.489       20.051       19.693      599.716      402.039      387.833        0.139        0.069       31.910       16.710        0.274      332.746        1.609      850.757
12/25/2021  07:32:00      -49.821      -55.836      -24.222       38.741       39.756       26.573     1500.899     1580.511      706.136        0.499        0.189       74.832       20.764        0.077      332.801        1.700      850.703
12/25/2021  07:33:00       -0.980      -52.604      -29.458       56.957       40.307       29.208     3244.120     1624.661      853.079        0.468        0.286       52.613       25.630        0.237      332.976        1.989      850.683
12/25/2021  07:34:00       41.945      -81.426      -30.183       67.247       62.634       35.555     4522.150     3923.045     1264.131        0.950        0.485       91.594       31.349        0.117      332.854        1.788      850.692
12/25/2021  07:35:00       81.883     -137.369      -39.677       69.380       60.066       40.659     4813.580     3607.932     1653.181        1.861        0.504      159.922       43.143        0.073      332.835        1.755      850.701
12/25/2021  07:36:00      111.841     -167.923      -39.965       75.490       89.936       46.119     5698.771     8088.482     2126.972        2.911        0.796      201.759       41.284        0.042      332.891        1.846      850.710
12/25/2021  07:37:00      176.725     -230.648      -74.790       78.017      131.851       56.966     6086.614    17384.736     3245.143        5.837        1.336      290.569       52.960        0.033      332.896        1.854      850.695
12/25/2021  07:38:00      139.890     -134.014      -72.653       57.651      125.084       52.281     3323.614    15646.030     2733.344        3.225        1.085      193.724       24.610        0.016      332.875        1.820      850.738
12/25/2021  07:39:00       56.206      -87.188      -27.463       91.813       75.348       35.946     8429.627     5677.357     1292.145        1.345        0.770      103.735       39.157        0.142      332.918        1.893      850.775
12/25/2021  07:40:00     -129.558      -21.047      -11.334      104.568       84.018       56.403    10934.470     7058.955     3181.278        1.926        1.059      131.257       41.675        0.101      332.932        1.917      850.794
12/25/2021  07:41:00      -13.319      -38.938      -10.988       46.053       51.305       43.326     2120.886     2632.156     1877.182        0.422        0.332       41.154       17.554        0.182      332.946        1.940      850.789
12/25/2021  07:42:00       -0.030        1.551        5.481       36.660       33.381       21.142     1343.988     1114.323      446.966        0.147        0.145        1.552       20.304      171.257      332.918        1.893      850.790
12/25/2021  07:43:00     -144.635      -26.731      -22.835      111.475       50.712       35.465    12426.735     2571.667     1257.797        1.920        0.813      147.084       33.895        0.053      332.915        1.887      850.798
12/25/2021  07:44:00      -96.541       -2.493       -4.106       98.435       55.031       55.238     9689.356     3028.379     3051.188        1.255        0.788       96.573       49.570        0.263      332.889        1.846      850.820
12/25/2021  07:45:00      -59.058       -6.088       -9.295       49.246       35.708       17.567     2425.140     1275.053      308.592        0.381        0.200       59.371       13.932        0.055      332.929        1.909      850.742
12/25/2021  07:46:00       61.162        0.164      -40.562       39.098       72.057       31.551     1528.623     5192.250      995.491        0.655        0.386       61.162       29.236        0.228      332.990        2.014      850.634
12/25/2021  07:47:00       94.782     -186.838      -42.793       37.882       41.438       21.170     1435.016     1717.149      448.173        2.466        0.180      209.504       14.704        0.005      332.894        1.851      850.658
12/25/2021  07:48:00       82.872     -114.365      -36.032       31.919       50.542       21.142     1018.795     2554.444      446.982        1.263        0.201      141.235       12.062        0.007      332.920        1.897      850.662
12/25/2021  07:49:00       19.684      -85.317      -21.070       36.274       43.521       28.301     1315.794     1894.111      800.969        0.606        0.201       87.558       19.981        0.052      333.004        2.037      850.637
12/25/2021  07:50:00      -19.103      -62.946      -33.207       29.171       39.909       27.121      850.949     1592.727      735.567        0.430        0.159       65.781        9.905        0.023      333.010        2.046      850.664
12/25/2021  07:51:00        6.466      -43.073      -28.564       34.389       27.402       21.292     1182.597      750.852      453.367        0.255        0.119       43.556       18.446        0.179      333.041        2.097      850.678
12/25/2021  07:52:00      -33.789      -16.244      -13.110       29.411       26.310       16.105      864.994      692.197      259.366        0.170        0.091       37.491        7.662        0.042      333.017        2.057      850.685
12/25/2021  07:53:00      -20.003        3.854       -4.004       35.835       24.202       20.959     1284.117      585.727      439.278        0.137        0.115       20.371       19.239        0.892      332.979        1.995      850.654
12/25/2021  07:54:00      -25.370       53.545       -5.794       32.368       24.127       17.555     1047.706      582.115      308.195        0.274        0.097       59.251       13.602        0.053      332.904        1.872      850.519
12/25/2021  07:55:00      -83.647       31.384      -12.797       35.591       30.763       21.229     1266.752      946.335      450.681        0.540        0.133       89.341       14.698        0.027      332.874        1.821      850.484
12/25/2021  07:56:00      -24.791      -14.464        4.559       28.063       17.072       17.702      787.548      291.444      313.361        0.112        0.070       28.701       11.854        0.171      333.043        2.101      850.522
12/25/2021  07:57:00      -39.612       29.428       -8.585       20.298       14.072       13.134      411.994      198.015      172.501        0.165        0.039       49.347        6.762        0.019      332.966        1.973      850.468
12/25/2021  07:58:00       -5.497       63.774      -10.113       11.894       26.483       16.679      141.476      701.325      278.182        0.266        0.056       64.011        9.786        0.023      333.001        2.031      850.435
12/25/2021  07:59:00       21.148      114.701      -10.265       22.531       27.044       22.846      507.656      731.359      521.932        0.773        0.088      116.635       12.066        0.011      333.150        2.277      850.453
12/25/2021  08:00:00       -3.713       64.832      -14.832       44.913       33.592       23.412     2017.208     1128.451      548.102        0.406        0.185       64.938       12.798        0.039      333.097        2.190      850.471
12/25/2021  08:01:00      -65.742       41.092      -15.555       32.981       18.614       14.105     1087.777      346.494      198.955        0.394        0.082       77.528       12.777        0.027      332.891        1.849      850.497
12/25/2021  08:02:00       -5.017       46.753      -15.337       18.679       39.341       14.890      348.898     1547.701      221.699        0.228        0.106       47.021       17.091        0.132      333.031        2.080      850.487
12/25/2021  08:03:00        6.484       40.068       -4.891       20.938       56.320       16.822      438.396     3171.901      282.976        0.278        0.195       40.589       13.483        0.110      333.176        2.320      850.498
12/25/2021  08:04:00       53.617       79.145       -2.770       40.554       40.522       26.786     1644.616     1642.019      717.503        0.657        0.200       95.597       22.458        0.055      333.091        2.179      850.508
12/25/2021  08:05:00       40.977       45.649       -9.376       32.745       29.354       24.073     1072.264      861.656      579.530        0.318        0.126       61.343       11.528        0.035      333.137        2.256      850.524
12/25/2021  08:06:00        9.291       33.832       -1.013       15.952       19.647       11.027      254.459      385.992      121.598        0.100        0.038       35.085        7.530        0.046      333.098        2.191      850.544
12/25/2021  08:07:00       -2.657       52.979       -9.687       35.519       23.464       20.768     1261.593      550.554      431.309        0.258        0.112       53.046       20.750        0.153      333.068        2.142      850.498
12/25/2021  08:08:00      -57.605      103.879      -15.533       40.049       35.343       18.660     1603.905     1249.126      348.187        0.878        0.160      118.782        8.992        0.006      333.011        2.049      850.507
12/25/2021  08:09:00      -12.040      109.171      -15.321       41.090       47.147       25.222     1688.361     2222.851      636.166        0.842        0.227      109.833       20.932        0.036      333.115        2.221      850.482
12/25/2021  08:10:00       -2.708        1.177        1.922       38.446       35.878       27.103     1478.096     1287.214      734.555        0.176        0.175        2.952        4.173        1.998      333.310        2.541      850.452
12/25/2021  08:11:00       20.360      -20.272      -28.168       38.200       36.929       22.705     1459.204     1363.773      515.528        0.248        0.167       28.732       11.414        0.158      333.246        2.437      850.453
12/25/2021  08:12:00       13.443      -16.974       -3.718       47.843       29.911       34.665     2288.914      894.660     1201.645        0.243        0.219       21.652       20.863        0.928      333.306        2.535      850.423
12/25/2021  08:13:00      -38.636        7.376        4.039       36.140       36.761       20.321     1306.078     1351.389      412.946        0.232        0.154       39.333       15.670        0.159      333.236        2.419      850.374
12/25/2021  08:14:00      -33.575       11.409      -11.088       57.167       36.396       25.669     3268.012     1324.697      658.896        0.332        0.263       35.460       21.279        0.360      333.230        2.410      850.405
12/25/2021  08:15:00       97.662      -10.404      -31.777       68.127       85.684       43.566     4641.239     7341.822     1898.032        1.227        0.694       98.214       29.873        0.093      333.434        2.748      850.424
12/25/2021  08:16:00       97.972      -37.112      -23.495       75.391       54.030       53.490     5683.853     2919.248     2861.215        1.149        0.573      104.765       39.185        0.140      333.497        2.851      850.388
12/25/2021  08:17:00       71.663       14.641      -20.413       55.884       72.035       40.380     3122.996     5189.033     1630.579        0.785        0.497       73.144       30.224        0.171      333.469        2.805      850.372
12/25/2021  08:18:00       80.140       -4.933      -17.241       40.333       42.726       21.614     1626.737     1825.540      467.179        0.533        0.196       80.292       14.368        0.032      333.461        2.792      850.370
12/25/2021  08:19:00      123.034        0.943      -21.190       47.727       50.925       35.307     2277.887     2593.397     1246.606        1.085        0.306      123.037       22.264        0.033      333.423        2.728      850.343
12/25/2021  08:20:00       66.996      -30.783      -18.949       47.213       70.809       43.810     2229.107     5013.967     1919.296        0.748        0.458       73.730       39.142        0.282      333.710        3.203      850.352
12/25/2021  08:21:00       78.713     -116.545      -36.147       62.205       78.482       38.385     3869.465     6159.374     1473.416        1.629        0.575      140.636       37.954        0.073      333.534        2.912      850.359
12/25/2021  08:22:00      121.425     -121.842      -50.724       86.109       83.374       61.287     7414.705     6951.220     3756.139        2.514        0.906      172.016       41.572        0.058      333.508        2.866      850.355
12/25/2021  08:23:00       35.789     -161.698      -46.996       94.248      115.787       57.857     8882.693    13406.572     3347.392        2.763        1.282      165.612       49.844        0.091      333.539        2.920      850.342
12/25/2021  08:24:00      117.815     -195.463      -66.890       86.480       79.844       50.063     7478.736     6375.053     2506.255        3.646        0.818      228.224       38.721        0.029      333.423        2.726      850.355
12/25/2021  08:25:00      -65.413        1.104      -15.674       66.357       35.936       39.073     4403.263     1291.367     1526.707        0.587        0.361       65.423       16.199        0.061      333.596        3.015      850.377
12/25/2021  08:26:00      -20.216      -36.537       -7.064       45.727       38.853       30.726     2090.942     1509.551      944.091        0.317        0.227       41.757       22.563        0.292      333.759        3.286      850.339
12/25/2021  08:27:00       50.823      -54.301      -22.898       52.069       43.358       31.645     2711.218     1879.919     1001.389        0.582        0.280       74.375       28.958        0.152      333.736        3.247      850.330
12/25/2021  08:28:00       40.039      -12.107      -32.526       34.835       56.983       23.165     1213.479     3247.071      536.608        0.390        0.250       41.830       21.428        0.262      333.749        3.268      850.327
12/25/2021  08:29:00       45.809      -95.795      -27.489       81.487       95.794       49.691     6640.102     9176.443     2469.214        1.515        0.914      106.185       50.103        0.223      333.797        3.349      850.284
12/25/2021  08:30:00      133.556     -248.676      -55.768       47.528       79.398       38.288     2258.890     6303.978     1465.949        4.641        0.501      282.271       24.701        0.008      333.535        2.909      850.267
12/25/2021  08:31:00       98.247      -83.471      -44.409       73.069       76.715       35.376     5339.117     5885.228     1251.465        1.553        0.624      128.918        9.542        0.005      333.678        3.150      850.253
12/25/2021  08:32:00       33.734      -30.052      -10.733       44.801       54.362       27.297     2007.091     2955.266      745.126        0.393        0.285       45.178       22.563        0.249      333.868        3.465      850.259
12/25/2021  08:33:00       10.675     -104.741      -44.142       95.598       74.103       46.554     9138.981     5491.182     2167.320        1.491        0.840      105.283       28.644        0.074      333.930        3.567      850.264
12/25/2021  08:34:00       82.564      -60.532      -67.055       45.425       71.670       36.291     2063.434     5136.561     1317.046        1.175        0.426      102.376       21.876        0.046      333.900        3.518      850.208
12/25/2021  08:35:00       28.786      -81.655      -55.403       59.150       87.998       36.253     3498.682     7743.694     1314.282        1.156        0.628       86.580       30.122        0.121      333.975        3.640      850.163
12/25/2021  08:36:00       57.718      -58.789      -46.373       55.240       82.775       40.768     3051.428     6851.703     1662.036        1.025        0.578       82.386       46.399        0.317      333.669        3.137      850.196
12/25/2021  08:37:00       24.901       13.205       -1.979       19.532       16.685       15.362      381.502      278.401      235.982        0.085        0.045       28.185        5.494        0.038      333.677        3.150      850.248
12/25/2021  08:38:00      -55.869       44.710      -12.010       36.729       33.030       18.357     1349.010     1090.964      336.992        0.402        0.139       71.557        8.101        0.013      333.667        3.135      850.315
12/25/2021  08:39:00     -205.258       19.298       -4.296      139.871       94.542       62.076    19563.999     8938.096     3853.376        3.743        1.618      206.163       52.218        0.064      333.775        3.308      850.386
12/25/2021  08:40:00      -62.505      -17.460      -15.922       49.292       32.854       33.950     2429.702     1079.366     1152.577        0.456        0.233       64.897       25.496        0.154      333.898        3.516      850.255
12/25/2021  08:41:00     -132.023       51.886       -7.019      124.970       75.383       39.675    15617.509     5682.563     1574.102        2.152        1.144      141.853       38.700        0.074      333.860        3.451      850.152
12/25/2021  08:42:00     -263.971      -62.421      -12.708      208.939      126.971       77.891    43655.576    16121.738     6066.936        6.978        3.292      271.251       43.719        0.026      334.185        3.987      850.096
12/25/2021  08:43:00     -369.889     -228.918      -56.047      129.442      188.469       83.325    16755.119    35520.588     6943.018       12.578        2.961      434.995       62.832        0.021      334.408        4.358      850.093
12/25/2021  08:44:00     -108.741      -36.215       -8.686      132.701       78.336       51.364    17609.578     6136.524     2638.220        1.979        1.319      114.613       37.498        0.107      334.590        4.662      850.156
12/25/2021  08:45:00     -165.106     -106.718      -52.103      183.227      135.429       68.112    33572.108    18340.905     4639.306        4.895        2.828      196.592       49.364        0.063      334.457        4.440      850.134
12/25/2021  08:46:00      -27.653     -147.416      -54.889      201.979      170.762       91.111    40795.628    29159.705     8301.152        5.187        3.913      149.988       66.315        0.195      334.633        4.731      850.031
12/25/2021  08:47:00     -524.215      -59.501      -26.072      292.709      195.510      129.281    85678.587    38223.971    16713.527       20.979        7.031      527.581      132.287        0.063      334.596        4.668      850.133
12/25/2021  08:48:00     -332.706     -137.932       -9.145      192.377      241.783       90.497    37008.886    58458.946     8189.660       11.671        5.183      360.165       86.674        0.058      334.660        4.774      850.263
12/25/2021  08:49:00     -469.727     -223.538      -52.303      260.201      244.223      111.567    67704.308    59644.750    12447.101       20.655        6.990      520.205       88.492        0.029      334.618        4.704      850.253
12/25/2021  08:50:00     -594.832     -301.693      -58.963      260.414      242.940      122.377    67815.338    59019.784    14976.174       29.504        7.091      666.966      123.506        0.034      334.598        4.671      850.231
12/25/2021  08:51:00     -472.446     -124.850      -48.595      224.799      212.249      111.679    50534.396    45049.678    12472.191       17.459        5.403      488.665      108.518        0.049      334.638        4.738      850.235
12/25/2021  08:52:00     -476.756     -132.810      -33.537      251.872      238.244      116.581    63439.707    56760.325    13591.191       18.990        6.690      494.909      127.541        0.066      334.677        4.804      850.247
12/25/2021  08:53:00     -467.679     -143.069      -43.429      224.657      189.827      115.952    50470.864    36034.333    13444.811       17.050        4.998      489.073       84.303        0.030      334.639        4.739      850.227
12/25/2021  08:54:00     -500.527     -110.438      -33.418      297.234      253.653      124.515    88348.017    64339.613    15504.061       21.599        8.410      512.566      127.730        0.062      334.632        4.730      850.216
12/25/2021  08:55:00     -482.142     -231.382      -44.957      250.036      278.931      137.752    62517.764    77802.286    18975.718       22.363        7.965      534.789      124.523        0.054      334.606        4.684      850.148
12/25/2021  08:56:00     -455.925      -97.364      -38.537      233.500      238.038      119.514    54522.260    56662.087    14283.539       17.213        6.273      466.205       92.708        0.040      334.633        4.730      850.166
12/25/2021  08:57:00     -333.785     -171.871      -41.136      179.584      201.361       90.183    32250.557    40546.408     8132.904       11.177        4.046      375.436       58.719        0.024      334.645        4.751      850.131
12/25/2021  08:58:00     -535.679     -108.287      -56.420      213.120      217.699       85.704    45420.171    47392.980     7345.138       20.099        5.008      546.514       72.084        0.017      334.608        4.688      850.140
12/25/2021  08:59:00     -255.018       -5.196      -15.371      217.615      142.778       95.950    47356.095    20385.559     9206.383        7.111        3.847      255.071       73.465        0.083      334.689        4.824      850.161
12/25/2021  09:00:00     -344.711      -52.651      -13.768      223.098      134.695       86.598    49772.832    18142.773     7499.173        9.859        3.771      348.708       67.104        0.037      334.701        4.843      850.223
12/25/2021  09:01:00     -179.659      -25.625      -20.702      131.583       94.411       68.710    17314.132     8913.428     4721.046        3.215        1.547      181.477       48.459        0.071      334.782        4.980      850.178
12/25/2021  09:02:00     -227.771        7.745      -12.365      167.008       89.070       66.215    27891.806     7933.534     4384.431        4.614        2.010      227.903       78.497        0.119      334.741        4.911      850.152
12/25/2021  09:03:00     -176.369      -15.296        8.585      158.596       93.166       71.838    25152.635     8679.979     5160.763        3.520        1.950      177.031       66.918        0.143      334.799        5.009      850.205
12/25/2021  09:04:00     -281.770     -121.168      -42.419      132.558      100.149       62.728    17571.597    10029.744     3934.775        6.370        1.577      306.718       50.966        0.028      334.759        4.940      850.182
12/25/2021  09:05:00     -213.811     -194.371      -28.458      132.941      104.569       67.167    17673.317    10934.637     4511.355        5.871        1.656      288.955       71.713        0.062      334.803        5.013      850.165
12/25/2021  09:06:00     -154.505      -85.350      -24.818       99.317       82.363       47.716     9863.825     6783.607     2276.795        2.534        0.946      176.512       33.085        0.035      334.790        4.995      850.219
12/25/2021  09:07:00      -97.393      -37.733      -32.677       59.722       58.112       40.371     3566.744     3376.949     1629.789        1.027        0.429      104.447       34.362        0.108      334.907        5.189      850.285
12/25/2021  09:08:00     -119.332       11.599       -0.101       85.079       48.519       45.388     7238.380     2354.086     2060.076        1.301        0.583      119.894       17.673        0.022      334.972        5.295      850.325
12/25/2021  09:09:00      -45.865     -118.838      -23.741       98.401       86.053       45.535     9682.820     7405.194     2073.407        1.797        0.958      127.382       41.094        0.104      334.955        5.269      850.376
12/25/2021  09:10:00      -89.899     -239.515      -26.443      146.069      211.814       76.336    21336.197    44865.311     5827.199        6.908        3.601      255.831       85.754        0.112      334.731        4.895      850.384
12/25/2021  09:11:00     -125.181     -245.508      -27.331      178.682      190.889       90.300    31927.151    36438.699     8154.150        7.659        3.826      275.580       77.053        0.078      334.609        4.692      850.371
12/25/2021  09:12:00       28.305     -131.912      -50.262      170.349      187.955       64.440    29018.783    35327.219     4152.544        4.460        3.425      134.915       84.688        0.394      334.647        4.755      850.328
12/25/2021  09:13:00      -28.189     -121.882      -42.243       89.543      148.504       64.452     8017.985    22053.447     4154.063        2.582        1.711      125.099       49.638        0.157      334.717        4.872      850.337
12/25/2021  09:14:00      -20.341     -261.851      -57.793       97.071      124.938       68.141     9422.839    15609.445     4643.246        5.099        1.484      262.640       27.573        0.011      334.549        4.591      850.295
12/25/2021  09:15:00       23.497     -114.653      -24.985       99.832       98.552       46.587     9966.506     9712.531     2170.385        1.808        1.092      117.036       54.613        0.218      334.572        4.631      850.292
12/25/2021  09:16:00      -27.922      -42.173      -19.476       34.405       34.596       37.327     1183.698     1196.877     1393.339        0.336        0.189       50.579       11.905        0.055      334.877        5.140      850.254
12/25/2021  09:17:00      -14.840      -51.030      -20.529       62.116       62.310       47.804     3858.431     3882.510     2285.198        0.663        0.501       53.144       37.860        0.508      334.950        5.260      850.245
12/25/2021  09:18:00      -43.054      -10.154        0.993       85.187       57.263       32.318     7256.867     3279.061     1044.461        0.677        0.579       44.236       25.683        0.337      334.801        5.013      850.252
12/25/2021  09:19:00       49.682      -48.917      -32.339       72.837      105.911       51.925     5305.158    11217.215     2696.252        1.256        0.961       69.722       52.631        0.570      334.857        5.106      850.229
12/25/2021  09:20:00      -50.106     -114.085      -20.296      108.485      122.909       59.931    11768.902    15106.587     3591.701        2.320        1.523      124.603       53.323        0.183      334.620        4.711      850.234
12/25/2021  09:21:00     -111.354     -302.831      -44.139      163.277      181.933       87.284    26659.320    33099.663     7618.466        8.670        3.369      322.655       76.099        0.056      334.437        4.405      850.297
12/25/2021  09:22:00       89.381     -234.345      -49.551      111.893      125.147       67.702    12520.050    15661.892     4583.520        4.906        1.638      250.812       52.871        0.044      334.499        4.509      850.337
12/25/2021  09:23:00      -14.934     -266.842      -40.912      196.051      202.994       89.780    38435.831    41206.395     8060.360        8.039        4.385      267.260       77.264        0.084      334.355        4.269      850.384
12/25/2021  09:24:00      -75.820     -253.915      -40.527      144.198      227.688       82.666    20793.153    51841.762     6833.655        7.565        3.973      264.994       89.601        0.114      334.318        4.209      850.308
12/25/2021  09:25:00       56.750     -139.000      -40.876       89.825      115.357       68.859     8068.552    13307.130     4741.540        2.516        1.306      150.139       62.401        0.173      334.501        4.513      850.297
12/25/2021  09:26:00      -35.427     -180.610      -56.324       95.585      138.905       60.245     9136.425    19294.595     3629.430        3.455        1.603      184.052       56.531        0.094      334.389        4.326      850.324
12/25/2021  09:27:00     -114.795     -215.546      -28.430      145.312      170.568       78.292    21115.663    29093.287     6129.629        5.838        2.817      244.209       60.341        0.061      334.301        4.180      850.354
12/25/2021  09:28:00      145.297     -297.143      -77.369      102.998      161.924       72.379    10608.661    26219.267     5238.692        7.872        2.103      330.764       48.924        0.022      334.301        4.181      850.391
12/25/2021  09:29:00       44.560     -288.609      -47.389      159.179      152.126       71.651    25337.910    23142.273     5133.851        7.056        2.681      292.029       63.350        0.047      334.276        4.137      850.463
12/25/2021  09:30:00      190.323     -421.350      -75.055      127.896      190.150       91.310    16357.469    36156.922     8337.459       14.011        3.043      462.340       76.906        0.028      333.859        3.446      850.469
12/25/2021  09:31:00       64.870     -262.994      -76.360      104.864      205.773       81.428    10996.465    42342.400     6630.522        6.958        2.998      270.876       52.545        0.038      333.924        3.555      850.492
12/25/2021  09:32:00       90.467     -388.846      -87.673      149.611      187.565       83.744    22383.545    35180.775     7013.042       11.581        3.229      399.231       64.957        0.026      333.799        3.348      850.502
12/25/2021  09:33:00       87.965     -243.150      -70.457      147.244      204.851       89.846    21680.770    41963.862     8072.270        7.176        3.586      258.573       74.904        0.084      333.689        3.167      850.534
12/25/2021  09:34:00       79.880     -198.712      -81.370      169.507      173.092       91.548    28732.483    29960.878     8381.070        5.977        3.354      214.166       92.811        0.188      333.743        3.256      850.484
12/25/2021  09:35:00       77.710     -221.730      -79.566      175.447      140.470      105.975    30781.547    19731.827    11230.604        6.163        3.087      234.953       74.318        0.100      333.617        3.047      850.451
12/25/2021  09:36:00       23.014     -172.989      -37.794      111.732      125.415       56.400    12484.038    15728.848     3180.937        3.163        1.570      174.513       55.118        0.100      333.769        3.300      850.507
12/25/2021  09:37:00       47.921     -232.259      -50.370      184.894      143.337       65.848    34185.832    20545.536     4335.908        5.891        2.953      237.151       66.330        0.078      333.649        3.099      850.491
12/25/2021  09:38:00       -4.121     -227.594      -51.774      135.031      154.316       66.368    18233.452    23813.391     4404.760        5.047        2.323      227.631       52.322        0.053      333.714        3.207      850.464
12/25/2021  09:39:00       40.320     -159.361      -53.145      139.997      117.346       71.938    19599.295    13770.054     5175.099        3.419        1.927      164.383       72.373        0.194      333.686        3.161      850.505
12/25/2021  09:40:00       14.755      -90.637      -61.965       98.298      139.485       55.729     9662.517    19455.941     3105.770        2.224        1.611       91.830       38.930        0.180      333.777        3.312      850.502
12/25/2021  09:41:00     -129.433      -93.043      -18.051       96.767      102.422       51.445     9363.768    10490.257     2646.637        2.411        1.125      159.405       40.174        0.064      333.733        3.242      850.545
12/25/2021  09:42:00        6.599     -124.250      -41.413      107.082      146.776       57.451    11466.488    21543.125     3300.649        2.675        1.816      124.425       41.821        0.113      333.654        3.110      850.517
12/25/2021  09:43:00       61.857     -188.346      -51.335      126.479      115.471       53.297    15997.020    13333.511     2840.577        3.705        1.609      198.243       62.025        0.098      333.667        3.131      850.466
12/25/2021  09:44:00        6.792     -195.603      -56.873      141.227      156.002       82.667    19945.048    24336.640     6833.776        4.632        2.556      195.721       89.624        0.210      333.706        3.194      850.467
12/25/2021  09:45:00       -2.383     -241.948      -34.606       78.477       84.559       62.770     6158.702     7150.195     3940.077        3.849        0.862      241.960       42.312        0.031      333.611        3.036      850.478
12/25/2021  09:46:00      -41.519     -114.909      -40.154      104.933       82.344       52.528    11010.971     6780.527     2759.208        1.854        1.028      122.179       36.524        0.089      333.845        3.426      850.475
12/25/2021  09:47:00     -111.178      -61.588      -30.829      130.622       92.895       68.580    17061.996     8629.543     4703.172        2.374        1.520      127.097       53.058        0.174      333.471        2.807      850.438
12/25/2021  09:48:00      -52.988      -94.863      -43.206      117.427      112.554       58.359    13789.067    12668.439     3405.764        2.176        1.493      108.658       50.049        0.212      333.769        3.299      850.446
12/25/2021  09:49:00        4.771     -131.390      -46.824       74.863       69.791       52.021     5604.489     4870.805     2706.216        1.633        0.659      131.476       35.793        0.074      333.746        3.263      850.457
12/25/2021  09:50:00      -69.684      -84.735      -21.356      114.162      114.243       59.637    13033.029    13051.511     3556.586        2.106        1.482      109.708       36.708        0.112      333.737        3.246      850.385
12/25/2021  09:51:00     -195.579     -227.107      -44.130      136.236      137.665       59.558    18560.268    18951.745     3547.147        6.641        2.053      299.714       40.852        0.019      333.624        3.057      850.420
12/25/2021  09:52:00       21.582     -184.334      -44.155      118.924      113.947       61.060    14142.978    12983.884     3728.344        3.362        1.543      185.593       51.735        0.078      333.870        3.466      850.405
12/25/2021  09:53:00       95.043     -288.379      -61.415      152.934      135.915       75.966    23388.917    18472.787     5770.882        7.179        2.382      303.637       71.590        0.056      333.643        3.089      850.342
12/25/2021  09:54:00       45.479     -105.986      -29.617       61.138       56.788       61.932     3737.812     3224.917     3835.634        1.249        0.540      115.332       43.557        0.143      333.770        3.303      850.331
12/25/2021  09:55:00      -34.345      -72.805      -34.026       60.463       76.454       38.854     3655.815     5845.240     1509.637        0.932        0.551       80.500       37.001        0.211      333.938        3.581      850.320
12/25/2021  09:56:00      109.008     -235.446      -77.125      147.803      156.325       83.528    21845.615    24437.634     6976.860        6.325        2.663      259.456       93.038        0.129      333.824        3.390      850.306
12/25/2021  09:57:00       98.558     -317.812      -62.572      132.358      123.886       80.224    17518.631    15347.788     6435.854        7.696        1.965      332.743       55.572        0.028      333.821        3.384      850.299
12/25/2021  09:58:00       75.887     -280.223     -116.964      209.722      144.700       89.358    43983.461    20938.042     7984.814        8.542        3.645      290.317       80.217        0.076      333.796        3.343      850.308
12/25/2021  09:59:00      -18.060     -136.648      -60.748      137.038      116.136       70.899    18779.304    13487.455     5026.739        2.998        1.865      137.836       42.216        0.094      333.887        3.495      850.331
12/25/2021  10:00:00      -67.142     -212.711      -61.760      181.806      129.354       76.355    33053.468    16732.454     5830.116        5.458        2.781      223.056       30.361        0.019      333.847        3.427      850.274
12/25/2021  10:01:00      -68.408     -140.137      -24.370       98.585      108.171       68.390     9719.063    11701.032     4677.130        2.550        1.305      155.942       53.990        0.120      333.954        3.606      850.221
12/25/2021  10:02:00      -45.811      -53.962      -13.464       85.107       75.031       37.226     7243.280     5629.671     1385.797        0.972        0.713       70.785       14.129        0.040      334.076        3.810      850.223
12/25/2021  10:03:00      -72.245      -56.324      -17.445      106.906      108.290       62.538    11428.842    11726.652     3911.030        1.788        1.353       91.606       43.114        0.222      333.832        3.404      850.253
12/25/2021  10:04:00      -76.972     -139.817      -17.926      110.480      138.207       66.514    12205.816    19101.269     4424.150        3.076        1.787      159.604       76.253        0.228      333.909        3.530      850.223
12/25/2021  10:05:00       95.077     -128.784      -33.812      109.068      170.722       68.546    11895.744    29146.050     4698.551        3.625        2.287      160.078       90.568        0.320      334.006        3.693      850.204
12/25/2021  10:06:00      191.948     -295.267      -93.800      102.796      127.524       61.784    10566.961    16262.401     3817.265        8.173        1.532      352.174       54.941        0.024      333.755        3.275      850.159
12/25/2021  10:07:00       21.311     -251.407      -48.432      107.197       94.517       62.625    11491.135     8933.486     3921.840        4.517        1.217      252.309       48.879        0.038      334.029        3.728      850.195
12/25/2021  10:08:00      -90.003     -172.230      -38.426       75.361       83.094       40.246     5679.254     6904.605     1619.736        2.672        0.710      194.329       23.793        0.015      334.103        3.850      850.266
12/25/2021  10:09:00      -82.793      -62.929      -38.491       49.758       53.978       38.477     2475.897     2913.592     1480.475        0.958        0.343      103.994       26.463        0.065      334.130        3.898      850.279
12/25/2021  10:10:00      -48.936      -29.949      -28.900       52.350       42.167       33.999     2740.482     1778.069     1155.915        0.490        0.284       57.373       19.895        0.120      334.154        3.941      850.262
12/25/2021  10:11:00     -137.214      -64.376      -19.741       71.731       66.126       48.069     5145.269     4372.599     2310.633        1.759        0.591      151.565       30.590        0.041      334.024        3.721      850.288
12/25/2021  10:12:00      -54.864        1.160      -11.324       72.632       87.548       55.803     5275.455     7664.732     3113.940        0.959        0.803       54.876       36.621        0.445      334.103        3.853      850.263
12/25/2021  10:13:00      -45.523      -12.257        0.380       45.322       48.154       31.751     2054.118     2318.812     1008.125        0.380        0.269       47.144       18.081        0.147      334.193        4.005      850.266
12/25/2021  10:14:00       -9.796      -61.911      -23.543       86.583       88.155       52.656     7496.560     7771.353     2772.619        1.126        0.902       62.681       44.611        0.507      334.307        4.193      850.346
12/25/2021  10:15:00       59.525     -179.276      -48.501      101.600      130.024       59.469    10322.528    16906.123     3536.565        3.439        1.538      188.900       37.873        0.040      334.170        3.963      850.359
12/25/2021  10:16:00      -46.930     -104.551      -27.924      112.846      110.711       43.429    12734.211    12257.032     1886.049        2.039        1.344      114.601       34.970        0.093      334.197        4.010      850.399
12/25/2021  10:17:00      -81.695     -156.136       -8.055      110.465      147.423       63.039    12202.479    21733.661     3973.930        3.451        1.896      176.217       59.867        0.115      334.154        3.938      850.418
12/25/2021  10:18:00      -85.941     -209.858      -25.595      105.507      100.324       56.593    11131.660    10064.971     3202.717        3.824        1.220      226.773       39.021        0.030      334.221        4.047      850.430
12/25/2021  10:19:00      -85.781      -53.208      -26.703       77.362      103.382       50.221     5984.837    10687.801     2522.126        1.505        0.960      100.943       54.858        0.295      334.193        4.003      850.443
12/25/2021  10:20:00       37.038      -72.524      -36.324       81.947      124.483       64.395     6715.261    15496.023     4146.733        1.715        1.318       81.434       59.734        0.538      334.092        3.836      850.427
12/25/2021  10:21:00      -28.735      -91.836      -10.198       79.394      124.678       61.527     6303.462    15544.565     3785.524        1.749        1.282       96.227       63.112        0.430      334.120        3.881      850.457
12/25/2021  10:22:00      -91.761      -35.565      -39.932       85.191       74.786       47.186     7257.513     5592.901     2226.549        1.318        0.754       98.412       18.093        0.034      334.111        3.866      850.477
12/25/2021  10:23:00       14.748      -39.696      -30.048       90.132       98.977       55.920     8123.726     9796.366     3127.039        1.187        1.052       42.348       57.063        1.816      334.260        4.114      850.473
12/25/2021  10:24:00      -15.783      -51.339      -37.670       94.220       92.161       48.604     8877.444     8493.720     2362.370        1.202        0.987       53.711       33.614        0.392      334.262        4.118      850.459
12/25/2021  10:25:00      -46.769      -48.692        3.921       97.861       78.236       46.692     9576.739     6120.941     2180.112        1.122        0.894       67.515       37.014        0.301      334.179        3.980      850.460
12/25/2021  10:26:00      -35.420      -71.860      -16.526      121.963      103.085       60.031    14874.976    10626.550     3603.722        1.789        1.455       80.115       39.261        0.240      334.150        3.931      850.479
12/25/2021  10:27:00      -16.097     -171.163      -71.710      141.042      103.882       72.791    19892.763    10791.401     5298.568        3.533        1.799      171.918       55.177        0.103      334.064        3.786      850.472
12/25/2021  10:28:00      -47.913     -168.931      -40.577      152.716      130.156       86.656    23322.279    16940.551     7509.189        4.012        2.389      175.595       61.804        0.124      334.025        3.722      850.499
12/25/2021  10:29:00      -31.176     -166.459      -21.280       99.846      120.163       66.030     9969.308    14439.211     4359.901        2.895        1.438      169.353       53.991        0.102      334.088        3.827      850.537
12/25/2021  10:30:00      -96.909     -103.540      -33.799      123.960      109.069       64.737    15366.194    11895.957     4190.881        2.635        1.573      141.817       40.821        0.083      334.025        3.723      850.560
12/25/2021  10:31:00      -73.209     -262.502      -62.132      104.067      100.672       62.392    10830.018    10134.823     3892.818        5.149        1.243      272.519       25.134        0.009      333.878        3.477      850.579
12/25/2021  10:32:00      -70.564     -253.906      -43.144       95.985       94.844       71.714     9213.175     8995.450     5142.934        4.733        1.168      263.529       37.542        0.020      333.964        3.620      850.603
12/25/2021  10:33:00      -52.319      -12.304      -15.736       67.766       38.263       30.029     4592.230     1464.036      901.749        0.505        0.348       53.747       19.416        0.131      334.110        3.865      850.623
12/25/2021  10:34:00      -93.534       13.693       -2.619       87.398       75.327       42.036     7638.468     5674.191     1766.997        1.201        0.754       94.531       20.349        0.046      334.001        3.686      850.626
12/25/2021  10:35:00     -113.694      -15.194        1.373      103.597       57.636       57.085    10732.433     3321.920     3258.655        1.523        0.866      114.704       45.015        0.154      333.878        3.481      850.585
12/25/2021  10:36:00       -1.775      -59.511       -6.861       85.738       81.896       54.974     7350.958     6706.983     3022.154        1.033        0.854       59.538       37.715        0.401      333.958        3.614      850.549
12/25/2021  10:37:00     -170.201     -108.089       -9.730      170.262      180.028       94.371    28989.199    32409.996     8905.905        5.551        3.515      201.623       93.972        0.217      333.743        3.256      850.485
12/25/2021  10:38:00      -97.071      -58.964      -28.261      155.089       94.006       59.275    24052.563     8837.101     3513.567        2.504        1.820      113.577       31.145        0.075      333.632        3.073      850.401
12/25/2021  10:39:00      -99.056     -144.734      -34.081       74.796      148.465       54.269     5594.373    22041.912     2945.131        3.125        1.529      175.385       44.238        0.064      333.676        3.145      850.401
12/25/2021  10:40:00     -104.926      -89.684       -5.975      105.883       85.317       40.822    11211.108     7279.060     1666.453        1.962        1.008      138.031       33.411        0.059      333.730        3.235      850.436
12/25/2021  10:41:00     -105.127      -24.008      -38.722       74.967      125.466       64.436     5620.068    15741.732     4152.045        1.932        1.276      107.833       66.218        0.377      333.573        2.977      850.431
12/25/2021  10:42:00     -177.828      -76.692      -17.547      182.266       90.970       58.776    33220.846     8275.518     3454.563        4.137        2.248      193.660       26.767        0.019      333.482        2.826      850.383
12/25/2021  10:43:00       -6.277      -46.483      -47.983       49.713       64.876       46.171     2471.344     4208.880     2131.803        0.666        0.441       46.905       37.713        0.646      333.780        3.319      850.353
12/25/2021  10:44:00      -64.662      -29.386       -8.370       58.047       62.751       42.743     3369.402     3937.695     1826.941        0.712        0.457       71.026       23.250        0.107      333.715        3.213      850.333
12/25/2021  10:45:00      -84.654       22.101      -11.084       55.694       47.978       37.876     3101.782     2301.920     1434.600        0.731        0.342       87.492       25.783        0.087      333.779        3.318      850.365
12/25/2021  10:46:00      -79.927      -18.272      -10.843      109.844       72.412       56.643    12065.682     5243.474     3208.401        1.367        1.026       81.989       27.370        0.111      333.839        3.416      850.382
12/25/2021  10:47:00     -178.763     -118.545       -9.667      123.186      101.028       51.943    15174.705    10206.733     2698.115        3.709        1.404      214.498       55.221        0.066      333.788        3.330      850.429
12/25/2021  10:48:00     -264.853       -9.503      -14.577      128.421       84.365       57.130    16491.895     7117.509     3263.787        4.866        1.344      265.023       49.404        0.035      333.696        3.177      850.381
12/25/2021  10:49:00     -225.582      -45.088      -12.326      127.095      139.335       66.326    16153.016    19414.218     4399.149        4.651        1.998      230.044       62.897        0.075      333.732        3.237      850.311
12/25/2021  10:50:00     -148.733      -40.951       -3.499      105.577       88.688       62.016    11146.443     7865.604     3845.991        2.333        1.143      154.267       50.861        0.109      333.743        3.258      850.258
12/25/2021  10:51:00     -211.962      -21.332      -24.484       77.782      104.034       46.069     6050.060    10823.029     2122.382        3.249        0.950      213.032       32.052        0.023      333.722        3.220      850.235
12/25/2021  10:52:00     -124.914       13.388      -19.666      101.236       72.099       43.177    10248.647     5198.212     1864.231        1.674        0.866      125.629       40.197        0.102      333.824        3.391      850.193
12/25/2021  10:53:00      -45.562       18.296      -14.126       76.663       61.507       45.211     5877.227     3783.140     2044.060        0.716        0.585       49.098       30.408        0.384      333.828        3.400      850.108
12/25/2021  10:54:00     -105.844       32.926       -4.275       51.150       35.357       27.755     2616.296     1250.132      770.353        0.847        0.232      110.847       25.918        0.055      333.866        3.463      850.103
12/25/2021  10:55:00      -29.537       -1.889        3.106       51.579       39.643       24.624     2660.384     1571.588      606.353        0.286        0.242       29.597       30.170        1.039      334.075        3.808      850.074
12/25/2021  10:56:00     -100.643       50.262      -15.818       65.183       62.529       36.569     4248.852     3909.814     1337.265        1.120        0.475      112.496       27.224        0.059      333.937        3.579      850.060
12/25/2021  10:57:00      -55.797       -0.519      -15.840       53.916       57.379       42.936     2906.900     3292.343     1843.527        0.570        0.402       55.799       31.385        0.316      334.030        3.734      850.011
12/25/2021  10:58:00     -110.493       73.369      -12.540       64.293       82.688       31.077     4133.602     6837.246      965.749        1.484        0.597      132.634       27.802        0.044      333.756        3.279      849.956
12/25/2021  10:59:00      -48.950       52.083      -16.166       31.291       52.254       20.574      979.143     2730.445      423.285        0.475        0.207       71.475       15.995        0.050      333.734        3.245      849.918
12/25/2021  11:00:00      -69.298      -21.033       -9.686       63.182       37.181       38.878     3991.938     1382.458     1511.491        0.611        0.344       72.420       37.025        0.261      334.014        3.707      849.932
12/25/2021  11:01:00     -115.895       37.649       -8.927       79.753       76.792       43.135     6360.605     5896.991     1860.595        1.452        0.706      121.857       44.995        0.136      333.872        3.470      849.981
12/25/2021  11:02:00     -141.186        5.162      -16.393       56.017       28.479       30.857     3137.900      811.066      952.185        1.256        0.245      141.280       27.279        0.037      333.964        3.624      849.987
12/25/2021  11:03:00     -102.464       22.815        2.259      102.516       79.294       52.448    10509.486     6287.612     2750.842        1.528        0.977      104.973       46.495        0.196      333.991        3.667      850.004
12/25/2021  11:04:00     -174.708       41.597        2.324      107.425       64.074       39.755    11540.215     4105.433     1580.457        2.474        0.861      179.592       46.280        0.066      333.913        3.537      850.001
12/25/2021  11:05:00     -134.251       38.030        2.210       65.924       51.382       42.513     4345.909     2640.092     1807.323        1.413        0.440      139.533       35.291        0.064      333.951        3.601      849.991
12/25/2021  11:06:00      -85.671       -6.367       -8.122       54.014       43.632       27.523     2917.534     1903.780      757.531        0.651        0.279       85.907       24.849        0.084      333.977        3.646      850.006
12/25/2021  11:07:00      -49.657        4.479       -0.354       45.107       52.526       28.356     2034.660     2758.968      804.064        0.404        0.280       49.858       15.171        0.093      334.079        3.815      850.015
12/25/2021  11:08:00      -92.637      -22.589      -18.584       99.927       45.766       33.524     9985.475     2094.487     1123.851        1.132        0.660       95.351       44.232        0.215      333.901        3.518      850.020
12/25/2021  11:09:00     -110.054      -55.832      -10.255       77.089       68.258       41.157     5942.727     4659.170     1693.915        1.381        0.615      123.406       22.902        0.034      333.906        3.529      850.043
12/25/2021  11:10:00     -213.566      -58.975      -12.615      132.347       60.514       52.935    17515.625     3661.891     2802.095        3.661        1.199      221.559       51.997        0.055      333.925        3.557      850.068
12/25/2021  11:11:00     -199.329     -187.937      -27.679       91.074      117.531       44.426     8294.506    13813.607     1973.702        4.995        1.204      273.957       39.530        0.021      333.840        3.416      850.079
12/25/2021  11:12:00     -231.994     -111.826      -19.822      100.704      126.441       44.095    10141.291    15987.386     1944.408        4.739        1.404      257.539       45.021        0.031      333.714        3.207      850.052
12/25/2021  11:13:00     -266.821      -15.160      -31.370       87.003       69.278       52.762     7569.486     4799.384     2783.833        4.378        0.758      267.252       45.027        0.028      333.728        3.229      850.023
12/25/2021  11:14:00     -203.280      -13.290      -14.146       84.767       62.292       46.720     7185.420     3880.269     2182.715        2.747        0.662      203.714       41.083        0.041      333.728        3.230      849.923
12/25/2021  11:15:00     -256.520       30.163        4.906      157.623      104.683       65.036    24844.966    10958.495     4229.737        5.338        2.002      258.287       71.613        0.077      333.655        3.110      849.851
12/25/2021  11:16:00     -226.242       63.715      -13.103      170.183      109.988       75.926    28962.356    12097.371     5764.696        5.111        2.341      235.043       47.885        0.042      333.567        2.964      849.804
12/25/2021  11:17:00     -157.671      -13.934      -12.831       90.865       69.003       45.211     8256.539     4761.467     2044.058        2.014        0.753      158.285       35.573        0.051      333.598        3.016      849.800
12/25/2021  11:18:00     -154.490      -23.617        2.920      123.917       78.862       49.382    15355.336     6219.205     2438.622        2.422        1.201      156.285       40.860        0.068      333.440        2.756      849.799
12/25/2021  11:19:00     -248.161       69.779      -21.050       62.805       52.183       45.134     3944.470     2723.033     2037.083        3.780        0.435      257.785       28.749        0.012      333.392        2.674      849.775
12/25/2021  11:20:00     -134.494        3.211      -17.581       63.911       69.260       40.704     4084.578     4796.988     1656.811        1.447        0.527      134.532       30.477        0.051      333.528        2.901      849.748
12/25/2021  11:21:00      -99.156      -57.994      -27.119       50.825       73.235       31.239     2583.173     5363.413      975.883        1.142        0.446      114.871       13.872        0.015      333.429        2.738      849.746
12/25/2021  11:22:00     -122.021      -29.119      -19.611       64.813       62.360       32.676     4200.732     3888.759     1067.751        1.264        0.458      125.448       30.117        0.058      333.528        2.901      849.750
12/25/2021  11:23:00     -114.143      -77.255      -18.903       43.474       52.597       35.203     1889.991     2766.424     1239.268        1.262        0.295      137.829       25.677        0.035      333.561        2.957      849.769
12/25/2021  11:24:00     -160.168      -74.746      -28.491      115.456       68.321       43.722    13329.987     4667.717     1911.571        2.598        0.995      176.750        7.867        0.002      333.484        2.828      849.763
12/25/2021  11:25:00      -50.785       74.013      -13.666       43.097       31.234       23.796     1857.388      975.593      566.256        0.582        0.170       89.761       11.354        0.016      333.586        2.998      849.699
12/25/2021  11:26:00      -33.372       20.579       -4.543       64.720       76.972       26.438     4188.621     5924.743      698.951        0.618        0.541       39.207       22.153        0.319      333.734        3.244      849.677
12/25/2021  11:27:00     -131.426       46.047       -6.927       43.748       43.199       31.132     1913.890     1866.138      969.172        1.209        0.237      139.259       17.579        0.016      333.533        2.911      849.652
12/25/2021  11:28:00     -119.830      -28.481      -22.083       43.726       57.591       34.791     1911.937     3316.721     1210.383        1.105        0.322      123.168       29.161        0.056      333.381        2.659      849.631
12/25/2021  11:29:00      -97.960       14.662      -11.269       63.670       48.874       41.581     4053.932     2388.673     1728.984        0.905        0.409       99.052       41.069        0.172      333.387        2.669      849.616
12/25/2021  11:30:00     -224.469      -23.598      -16.051      105.345       62.135       59.474    11097.475     3860.749     3537.203        3.484        0.925      225.706       58.968        0.068      333.280        2.489      849.586
12/25/2021  11:31:00     -264.613      -76.271      -29.805       93.780       71.561       48.888     8794.750     5120.912     2390.017        4.651        0.815      275.386       37.035        0.018      333.295        2.513      849.618
12/25/2021  11:32:00     -209.869       -8.325      -27.596       75.948       52.342       46.091     5768.093     2739.646     2124.358        2.775        0.532      210.034       43.801        0.043      333.349        2.604      849.644
12/25/2021  11:33:00     -217.926      -20.591      -30.221       66.980       42.522       42.194     4486.304     1808.134     1780.319        2.845        0.404      218.897       30.841        0.020      333.320        2.553      849.575
12/25/2021  11:34:00     -179.590      -90.508      -42.502       95.838       94.347       45.886     9184.974     8901.381     2105.511        3.122        1.010      201.107       30.268        0.023      333.437        2.748      849.485
12/25/2021  11:35:00     -106.836      -26.233      -18.734      115.414      103.378       52.489    13320.326    10687.113     2755.144        1.960        1.338      110.009       48.704        0.196      333.617        3.049      849.492
12/25/2021  11:36:00      -19.204     -216.149      -69.158       96.451       82.772       66.919     9302.794     6851.217     4478.141        3.625        1.032      217.000       38.281        0.031      333.716        3.210      849.522
12/25/2021  11:37:00      -66.285      -52.810      -12.957      116.663       91.299       54.018    13610.290     8335.521     2917.895        1.610        1.243       84.750       44.816        0.280      333.725        3.227      849.492
12/25/2021  11:38:00     -148.438      -40.723      -29.581      108.185       41.701       30.260    11703.891     1738.936      915.696        1.946        0.718      153.922       26.449        0.030      333.481        2.824      849.439
12/25/2021  11:39:00     -129.693      -43.360        6.105      137.641       87.840       61.923    18944.937     7715.871     3834.454        2.461        1.525      136.750       49.296        0.130      333.629        3.067      849.469
12/25/2021  11:40:00      -77.897       -7.044      -12.604       85.507       81.844       45.497     7311.424     6698.395     2069.987        1.118        0.804       78.215       26.755        0.117      333.688        3.167      849.505
12/25/2021  11:41:00      -48.330       30.862       -0.427       93.996       71.666       48.128     8835.228     5135.960     2316.324        0.978        0.814       57.343       33.521        0.342      333.808        3.365      849.517
12/25/2021  11:42:00      -66.266      -41.115      -19.978      130.562       92.025       61.850    17046.380     8468.689     3825.422        1.791        1.467       77.984       42.162        0.292      333.780        3.318      849.486
12/25/2021  11:43:00      -67.850      -10.767        7.971       95.310       52.287       49.455     9084.080     2733.947     2445.810        0.952        0.713       68.699       28.240        0.169      333.726        3.229      849.503
12/25/2021  11:44:00        9.138      -69.468      -28.015       85.551       71.893       45.034     7319.000     5168.613     2028.045        1.010        0.726       70.067       38.549        0.303      333.806        3.362      849.522
12/25/2021  11:45:00        0.601     -179.522      -44.653      108.372       91.937       59.498    11744.402     8452.403     3539.957        2.898        1.187      179.523       33.814        0.035      333.831        3.400      849.586
12/25/2021  11:46:00       20.622     -126.933      -31.678      122.726       84.494       57.353    15061.646     7139.278     3289.373        2.151        1.275      128.598       47.799        0.138      333.785        3.326      849.607
12/25/2021  11:47:00     -120.113      -63.120      -13.989      113.881       88.450       56.099    12968.874     7823.369     3147.142        2.127        1.197      135.688       49.509        0.133      333.754        3.275      849.655
12/25/2021  11:48:00     -134.365      -17.652      -20.884       97.181       87.440       58.592     9444.228     7645.832     3433.001        1.966        1.026      135.519       43.602        0.104      333.358        2.620      849.630
12/25/2021  11:49:00       65.960     -164.953      -38.201       81.027       94.060       53.309     6565.302     8847.352     2841.883        2.563        0.913      177.652       54.399        0.094      333.346        2.599      849.560
12/25/2021  11:50:00       20.123     -179.782      -41.405      131.169       90.793       55.027    17205.419     8243.408     3027.918        3.145        1.424      180.904       34.735        0.037      333.512        2.873      849.590
12/25/2021  11:51:00     -123.779      -64.628        7.555      133.344      157.299       84.258    17780.581    24743.033     7099.463        3.458        2.481      139.635       65.804        0.222      333.506        2.865      849.641
12/25/2021  11:52:00      -81.682      -85.068      -22.423      125.598       93.277       58.420    15774.856     8700.617     3412.856        2.114        1.394      117.934       34.571        0.086      333.440        2.755      849.693
12/25/2021  11:53:00     -142.596      -35.745      -22.953      154.645      135.822       73.475    23915.039    18447.743     5398.612        3.494        2.388      147.008       71.496        0.237      333.341        2.591      849.681
12/25/2021  11:54:00     -239.441      -87.471      -55.413      232.517      124.061       88.471    54064.245    15391.242     7827.180        7.265        3.864      254.918       31.542        0.015      333.065        2.135      849.709
12/25/2021  11:55:00       62.357     -180.522      -70.758      104.491      113.988       73.002    10918.288    12993.375     5329.348        3.536        1.462      190.988       47.539        0.062      333.091        2.177      849.650
12/25/2021  11:56:00       10.902     -177.894      -47.840      127.224       82.338       57.200    16185.910     6779.480     3271.885        3.014        1.312      178.228       50.717        0.081      333.085        2.167      849.590
12/25/2021  11:57:00      -74.330     -165.089      -43.623      184.090      131.041       69.279    33888.978    17171.648     4799.581        4.526        2.793      181.051       56.888        0.099      333.139        2.258      849.634
12/25/2021  11:58:00      -84.174     -103.869      -20.597      112.265      111.021       63.189    12603.454    12325.635     3992.804        2.360        1.446      133.694       47.096        0.124      332.900        1.862      849.670
12/25/2021  11:59:00     -131.433      -39.571      -35.827      124.366       66.222       45.766    15466.806     4385.350     2094.533        2.103        1.097      137.261       20.136        0.022      332.800        1.697      849.622
12/25/2021  12:00:00     -147.139      -98.193      -26.004       95.756      105.509       49.165     9169.225    11132.067     2417.211        2.734        1.136      176.894       40.474        0.052      332.857        1.790      849.593
12/25/2021  12:01:00       11.725      -75.677      -17.819       84.795       57.086       38.161     7190.124     3258.801     1456.252        0.904        0.595       76.580       13.611        0.032      333.077        2.158      849.527
12/25/2021  12:02:00      -92.256      -30.747      -13.828       81.761       59.802       43.956     6684.786     3576.294     1932.132        1.092        0.610       97.245       43.814        0.203      333.037        2.090      849.637
12/25/2021  12:03:00     -235.531     -284.741      -63.198      185.706      156.941       79.107    34486.733    24630.618     6257.873       10.295        3.269      369.530       79.856        0.047      333.158        2.289      849.534
12/25/2021  12:04:00     -390.480     -176.781      -54.200      136.284      193.966       75.964    18573.263    37622.699     5770.581       12.430        3.098      428.633       59.552        0.019      333.274        2.478      849.377
12/25/2021  12:05:00     -244.398     -173.958      -22.133      209.349      249.444       70.613    43827.153    62222.251     4986.195       10.074        5.552      299.986       96.108        0.103      333.323        2.561      849.365
12/25/2021  12:06:00     -181.851      -19.426       -4.152      138.431      119.801       83.648    19163.273    14352.180     6996.983        3.698        2.026      182.886       79.137        0.187      333.436        2.749      849.294
12/25/2021  12:07:00     -251.019      -23.555      -15.936      152.685       86.653       69.095    23312.587     7508.712     4774.125        4.970        1.780      252.121       59.974        0.057      333.434        2.745      849.252
12/25/2021  12:08:00     -213.003      -70.635      -21.837      144.886      106.722       81.052    20991.921    11389.599     6569.456        4.489        1.948      224.409       54.650        0.059      333.464        2.794      849.243
12/25/2021  12:09:00     -256.954       -4.557      -18.017      131.722      112.559       65.917    17350.812    12669.521     4345.064        5.036        1.718      256.995       60.068        0.055      333.526        2.897      849.209
12/25/2021  12:10:00     -230.161      -84.191      -35.697      164.540       95.351       58.218    27073.549     9091.829     3389.322        5.044        1.978      245.076       62.943        0.066      333.478        2.817      849.109
12/25/2021  12:11:00     -208.064      -20.266        0.047      162.233      124.460       80.451    26319.534    15490.180     6472.301        4.598        2.414      209.049       89.030        0.181      333.437        2.749      849.040
12/25/2021  12:12:00     -220.980      -19.669      -28.835      137.847      111.239       63.746    19001.675    12374.057     4063.550        4.274        1.772      221.854       28.830        0.017      333.455        2.780      849.011
12/25/2021  12:13:00     -148.088       47.707      -11.183      126.937       91.273       46.973    16112.897     8330.730     2206.456        2.549        1.333      155.582       57.682        0.137      333.334        2.578      848.928
12/25/2021  12:14:00     -264.140      159.746      -28.910      117.224      125.282       69.149    13741.455    15695.538     4781.541        6.517        1.711      308.689       45.864        0.022      333.297        2.517      848.814
12/25/2021  12:15:00     -183.130       71.893      -21.064      128.337      130.945       60.340    16470.316    17146.474     3640.920        3.820        1.863      196.736       64.663        0.108      333.380        2.657      848.822
12/25/2021  12:16:00     -264.297       36.015      -21.366      188.795       87.061       68.916    35643.366     7579.553     4749.435        5.978        2.399      266.740       66.980        0.063      333.401        2.690      848.882
12/25/2021  12:17:00     -125.836       27.365        3.348      143.948       87.160       66.195    20721.125     7596.927     4381.738        2.464        1.635      128.777       42.078        0.107      333.397        2.683      848.810
12/25/2021  12:18:00     -195.978       -7.343       -8.430      161.747       75.917       57.643    26161.956     5763.450     3322.692        3.688        1.762      196.116       60.364        0.095      333.529        2.903      848.774
12/25/2021  12:19:00     -234.979       51.099      -23.959      123.439      103.838       60.027    15237.302    10782.251     3603.296        4.401        1.481      240.471       38.298        0.025      333.499        2.852      848.772
12/25/2021  12:20:00     -130.077       73.547      -10.651      218.595       93.387       66.845    47783.860     8721.127     4468.201        4.170        3.049      149.430       90.867        0.370      333.436        2.749      848.736
12/25/2021  12:21:00     -213.363       80.431      -15.591      138.304      102.550       63.787    19128.000    10516.456     4068.730        4.297        1.686      228.020       53.927        0.056      333.372        2.642      848.653
12/25/2021  12:22:00     -267.541       96.736        3.799      194.766       99.610       73.513    37933.638     9922.159     5404.186        6.710        2.663      284.493       86.365        0.092      333.380        2.656      848.557
12/25/2021  12:23:00     -221.993       73.786      -16.357      173.804      111.675       80.839    30207.859    12471.213     6534.893        5.209        2.461      233.934       63.019        0.073      333.366        2.631      848.521
12/25/2021  12:24:00     -321.738       90.430        9.830      204.695      115.500       73.800    41900.220    13340.159     5446.494        8.623        3.034      334.205       85.947        0.066      333.327        2.565      848.519
12/25/2021  12:25:00     -438.383      125.091       -6.735      201.355      140.718       82.354    40543.781    19801.681     6782.129       13.749        3.356      455.881       95.329        0.044      333.183        2.327      848.483
12/25/2021  12:26:00     -411.583       68.740      -24.974      150.730      137.306       83.809    22719.437    18852.808     7023.951       11.166        2.430      417.284       75.359        0.033      333.233        2.411      848.506
12/25/2021  12:27:00     -244.246       30.388      -23.905      199.730      152.056       83.435    39892.000    23120.960     6961.330        6.555        3.499      246.129       53.847        0.048      333.300        2.522      848.519
12/25/2021  12:28:00     -308.754       23.528       -3.221      236.293      129.375       95.860    55834.563    16737.897     9189.151        8.881        4.088      309.649       89.779        0.084      333.268        2.470      848.508
12/25/2021  12:29:00     -256.420       65.627        3.964      167.284      124.292       79.171    27984.103    15448.598     6267.994        5.988        2.485      264.685       79.789        0.091      333.332        2.577      848.566
12/25/2021  12:30:00     -217.895       45.765       -9.690      220.535      116.310       76.041    48635.606    13528.043     5782.277        5.879        3.397      222.649       79.901        0.129      333.344        2.595      848.563
12/25/2021  12:31:00     -238.131       17.565      -18.015      143.612      124.955       72.528    20624.359    15613.629     5260.272        4.941        2.075      238.778       78.269        0.107      333.341        2.591      848.593
12/25/2021  12:32:00     -363.736        3.750      -20.345      162.904      138.292       84.167    26537.680    19124.643     7084.018        9.273        2.637      363.755       76.259        0.044      333.418        2.717      848.601
12/25/2021  12:33:00     -281.767        3.325      -18.467      169.824      102.328       64.555    28840.154    10470.996     4167.336        6.160        2.174      281.787       58.506        0.043      333.442        2.757      848.657
12/25/2021  12:34:00     -420.770      -31.816      -29.207      203.444      145.016       98.873    41389.581    21029.673     9775.839       12.554        3.610      421.971       80.508        0.036      333.374        2.644      848.660
12/25/2021  12:35:00     -414.060       -7.160      -21.155      274.587      117.893       99.198    75397.954    13898.870     9840.277       13.552        4.957      414.122      103.492        0.062      333.359        2.621      848.687
12/25/2021  12:36:00     -365.090       16.093      -14.710      160.041      123.822       82.300    25613.156    15331.868     6773.304        9.073        2.386      365.445       74.682        0.042      333.374        2.644      848.681
12/25/2021  12:37:00     -283.286      -38.187      -16.225      145.617      134.306       78.192    21204.198    18038.128     6114.045        6.366        2.268      285.848       72.368        0.064      333.406        2.697      848.634
12/25/2021  12:38:00     -339.099       62.431      -16.540      292.134      152.968       96.586    85342.305    23399.071     9328.847       11.859        5.904      344.798       97.378        0.080      333.410        2.704      848.588
12/25/2021  12:39:00     -274.526     -113.591      -39.748      170.526      110.851       68.108    29079.214    12287.887     4638.698        6.792        2.300      297.098       58.306        0.039      333.464        2.793      848.615
12/25/2021  12:40:00     -307.301      -39.073      -30.346      124.266      133.516       74.310    15441.915    17826.433     5521.967        6.783        1.940      309.775       68.991        0.050      333.481        2.821      848.649
12/25/2021  12:41:00     -324.099      -15.828      -39.748      147.452       99.566       76.382    21742.194     9913.481     5834.137        7.217        1.874      324.485       68.633        0.045      333.362        2.624      848.627
12/25/2021  12:42:00     -351.484       58.814      -27.974      198.192      111.956       82.332    39280.258    12534.078     6778.502        9.318        2.930      356.371       79.862        0.050      333.315        2.547      848.601
12/25/2021  12:43:00     -411.188       41.187       -9.983      216.792      113.293       83.578    46998.918    12835.209     6985.348       11.883        3.341      413.246       80.850        0.038      333.291        2.507      848.610
12/25/2021  12:44:00     -370.916       -8.708      -16.573      197.588      140.431       96.871    39041.157    19720.827     9383.935       10.302        3.407      371.018       93.985        0.064      333.283        2.493      848.614
12/25/2021  12:45:00     -201.037       -2.087       -4.113      195.670      120.213       85.700    38286.750    14451.210     7344.436        5.025        3.004      201.048       86.352        0.184      333.271        2.475      848.630
12/25/2021  12:46:00     -303.997        0.171        4.563      190.270      136.423      102.134    36202.528    18611.257    10431.364        7.883        3.262      303.997      102.890        0.115      333.222        2.393      848.602
12/25/2021  12:47:00     -320.214       11.159      -22.537      179.619      117.706       66.563    32262.986    13854.679     4430.579        7.685        2.527      320.409       73.454        0.053      333.135        2.249      848.572
12/25/2021  12:48:00     -401.625      -50.710      -27.928      193.956      118.461      100.317    37618.922    14033.068    10063.549       11.317        3.086      404.814       94.667        0.055      333.002        2.029      848.545
12/25/2021  12:49:00     -281.802       42.931       -2.008      195.969      155.225       97.054    38403.815    24094.741     9419.562        7.658        3.596      285.053      100.463        0.124      332.974        1.982      848.520
12/25/2021  12:50:00     -450.690       44.445      -19.097      160.054      139.839       94.651    25617.336    19554.917     8958.798       12.979        2.707      452.877       86.029        0.036      332.894        1.851      848.511
12/25/2021  12:51:00     -108.369       34.143       -6.712      109.718       88.891       60.924    12038.022     7901.661     3711.784        1.830        1.183      113.621       46.062        0.164      333.039        2.092      848.513
12/25/2021  12:52:00     -198.738       -2.495       -7.172      184.825      103.145       79.511    34160.194    10638.934     6322.038        4.533        2.556      198.754       78.219        0.155      332.888        1.842      848.483
12/25/2021  12:53:00     -334.970      -57.715      -11.372      140.323       90.751       70.641    19690.645     8235.765     4990.126        7.428        1.646      339.906       69.167        0.041      332.794        1.685      848.491
12/25/2021  12:54:00     -281.271       54.765      -10.386      143.050       74.271       57.741    20463.283     5516.160     3333.984        5.576        1.466      286.553       63.945        0.050      332.884        1.833      848.493
12/25/2021  12:55:00     -410.040       96.566      -26.130      127.430       93.467       65.401    16238.282     8736.064     4277.332       10.369        1.463      421.257       53.043        0.016      332.665        1.472      848.467
12/25/2021  12:56:00     -222.692      101.360        5.619      158.105      107.768       57.119    24997.195    11613.921     3262.600        4.988        1.994      244.675       50.158        0.042      332.759        1.628      848.446
12/25/2021  12:57:00     -319.091       86.256       -2.130      174.276       87.881       66.806    30372.279     7723.078     4463.026        7.590        2.128      330.543       86.845        0.069      332.672        1.485      848.411
12/25/2021  12:58:00     -273.623       72.002      -23.312      123.162      109.091       52.752    15168.821    11900.830     2782.767        5.522        1.493      282.938       33.054        0.014      332.621        1.400      848.382
12/25/2021  12:59:00     -363.077       67.367      -12.387      166.733      116.840       58.786    27799.891    13651.697     3455.764        9.070        2.245      369.274       61.661        0.028      332.585        1.340      848.376
12/25/2021  13:00:00     -404.892      122.542      -15.284      162.017       98.934       61.920    26249.644     9787.876     3834.025       10.952        1.994      423.030       48.710        0.013      332.419        1.066      848.342
12/25/2021  13:01:00     -171.166       69.995      -11.086      131.251       80.712       76.732    17226.916     6514.507     5887.727        3.197        1.481      184.924       61.882        0.112      332.534        1.255      848.298
12/25/2021  13:02:00     -185.002       49.361      -13.193      103.427       95.660       50.255    10697.108     9150.836     2525.531        2.960        1.119      191.474       49.395        0.067      332.565        1.308      848.307
12/25/2021  13:03:00     -146.232       47.667       -8.845       77.370       59.068       39.394     5986.046     3489.056     1551.911        1.738        0.551      153.804       25.702        0.028      332.632        1.419      848.276
12/25/2021  13:04:00     -133.993       72.909      -10.275      127.473       97.674       52.588    16249.331     9540.197     2765.536        2.596        1.428      152.545       50.787        0.111      332.825        1.737      848.241
12/25/2021  13:05:00     -154.172       76.805      -18.729       94.476       86.370       56.617     8925.695     7459.837     3205.484        2.480        0.980      172.244       37.189        0.047      332.710        1.547      848.248
12/25/2021  13:06:00     -140.801       54.957       -9.577      106.936       78.328       63.179    11435.385     6135.257     3991.608        2.225        1.078      151.146       61.356        0.165      332.795        1.688      848.215
12/25/2021  13:07:00     -183.307       49.305       -7.194      131.995       94.952       50.268    17422.610     9015.965     2526.865        3.252        1.448      189.822       56.317        0.088      332.800        1.695      848.214
12/25/2021  13:08:00     -237.072       22.442      -29.319       73.901       68.037       47.808     5461.395     4629.013     2285.568        3.497        0.619      238.132       27.972        0.014      332.740        1.596      848.182
12/25/2021  13:09:00      -24.958       18.004       -9.621       80.558       70.971       42.772     6489.671     5036.899     1829.418        0.720        0.668       30.774       15.276        0.246      332.953        1.950      848.138
12/25/2021  13:10:00     -170.781       79.644       -7.246      102.646       75.741       58.062    10536.291     5736.647     3371.252        2.760        0.982      188.439       45.990        0.060      332.855        1.788      848.046
12/25/2021  13:11:00     -222.360       61.981       -7.905       81.374       88.234       41.534     6621.648     7785.186     1725.080        3.474        0.807      230.836       32.429        0.020      332.694        1.521      847.967
12/25/2021  13:12:00     -110.028        6.023      -26.886      111.143       57.271       48.955    12352.767     3279.987     2396.612        1.544        0.901      110.192       44.366        0.162      332.802        1.701      847.979
12/25/2021  13:13:00      -73.943       -5.650       -3.765       96.841       70.037       54.644     9378.243     4905.131     2985.994        1.139        0.863       74.158       55.999        0.570      332.664        1.474      847.945
12/25/2021  13:14:00      -98.736       36.811      -17.658       38.752       34.289       26.226     1501.701     1175.760      687.780        0.739        0.168      105.375       14.551        0.019      332.611        1.385      847.904
12/25/2021  13:15:00      -84.894       26.299       -9.321       64.916       51.197       33.662     4214.087     2621.159     1133.143        0.798        0.398       88.875       26.587        0.089      332.750        1.618      847.846
12/25/2021  13:16:00     -104.696       61.604       -7.455       63.313       42.587       27.961     4008.553     1813.613      781.815        1.071        0.330      121.476       25.832        0.045      332.750        1.616      847.858
12/25/2021  13:17:00      -67.176       54.538      -16.978       42.846       41.639       19.922     1835.765     1733.846      396.881        0.587        0.198       86.527       14.224        0.027      332.794        1.688      847.900
12/25/2021  13:18:00      -59.703      -11.457        4.981       61.479       40.268       30.078     3779.728     1621.489      904.657        0.501        0.315       60.793       20.209        0.111      332.926        1.907      847.916
12/25/2021  13:19:00     -140.762       61.227       -1.096       56.025       36.601       30.583     3138.752     1339.624      935.337        1.449        0.271      153.501       26.524        0.030      332.748        1.612      847.915
12/25/2021  13:20:00     -145.736       36.821      -10.922       38.914       26.929       18.256     1514.314      725.171      333.279        1.264        0.129      150.316       14.298        0.009      332.688        1.514      847.911
12/25/2021  13:21:00      -86.639       59.792       -9.963       32.777       32.584       27.103     1074.323     1061.730      734.566        0.703        0.144      105.268       21.381        0.041      332.931        1.916      847.880
12/25/2021  13:22:00     -156.980       94.876      -28.688       47.207       56.378       27.219     2228.464     3178.441      740.870        2.031        0.307      183.424       20.536        0.013      332.865        1.805      847.866
12/25/2021  13:23:00     -157.473      130.216      -21.968       58.702       70.229       35.990     3445.968     4932.170     1295.274        2.595        0.484      204.338       33.384        0.027      332.835        1.753      847.865
12/25/2021  13:24:00      -54.922       26.235      -12.639       47.324       30.483       23.725     2239.584      929.242      562.855        0.380        0.187       60.867       23.882        0.154      332.891        1.850      847.807
12/25/2021  13:25:00       -0.206       33.866       -5.471       16.374       16.667       12.606      268.099      277.805      158.916        0.094        0.035       33.867        7.410        0.048      332.953        1.952      847.816
12/25/2021  13:26:00      -12.260      -24.916       -6.270       45.957       28.453       28.979     2112.049      809.564      839.789        0.229        0.188       27.769       27.750        0.999      333.101        2.195      847.828
12/25/2021  13:27:00       -1.621       48.713       -5.856       24.164       43.503       24.341      583.910     1892.537      592.498        0.274        0.153       48.740       13.384        0.075      333.100        2.193      847.811
12/25/2021  13:28:00        5.592       61.147      -12.048       46.457       30.847       17.566     2158.217      951.509      308.579        0.367        0.171       61.402       14.960        0.059      332.985        2.005      847.762
12/25/2021  13:29:00      -42.960       30.801      -20.004       49.088       33.055       21.800     2409.626     1092.628      475.234        0.359        0.199       52.861       23.939        0.205      332.998        2.025      847.695
12/25/2021  13:30:00       48.993      156.125      -21.853       45.952       56.306       27.554     2111.542     3170.409      759.223        1.665        0.302      163.632       32.314        0.039      333.051        2.113      847.568
12/25/2021  13:31:00       -7.623      135.430      -25.667       63.798       41.762       24.313     4070.211     1744.024      591.141        1.273        0.320      135.645       19.030        0.020      333.186        2.337      847.479
12/25/2021  13:32:00      -31.691      132.190       -3.727       30.439       55.342       23.736      926.551     3062.744      563.415        1.152        0.228      135.936       20.138        0.022      333.185        2.335      847.434
12/25/2021  13:33:00       79.571      286.578      -20.444       53.273       62.691       37.114     2838.037     3930.132     1377.481        4.851        0.407      297.420       34.497        0.013      333.053        2.113      847.320
12/25/2021  13:34:00       89.061      162.585      -23.159       51.565       85.785       48.068     2658.956     7359.151     2310.492        2.361        0.616      185.381       39.789        0.046      333.222        2.395      847.273
12/25/2021  13:35:00       42.351       48.229      -17.990       40.733       74.043       34.713     1659.189     5482.426     1205.014        0.639        0.417       64.184       25.975        0.164      333.402        2.694      847.334
12/25/2021  13:36:00        4.117       36.809        4.570       42.115       52.691       30.856     1773.638     2776.388      952.082        0.345        0.275       37.038       17.190        0.215      333.410        2.707      847.306
12/25/2021  13:37:00     -101.602       90.664      -28.487       33.821       42.507       23.353     1143.877     1806.886      545.340        1.142        0.175      136.173       18.387        0.018      333.345        2.602      847.207
12/25/2021  13:38:00      -63.424       76.305      -18.813       36.925       25.342       18.702     1363.480      642.218      349.782        0.628        0.118       99.222       14.464        0.021      333.244        2.433      847.217
12/25/2021  13:39:00       26.657       53.316       -1.465       42.510       31.918       23.189     1807.139     1018.786      537.739        0.346        0.168       59.609       23.286        0.153      333.264        2.465      847.248
12/25/2021  13:40:00      104.378       49.907      -28.629       33.919       48.986       22.598     1150.531     2399.594      510.666        0.913        0.203      115.695       17.539        0.023      332.979        1.993      847.275
12/25/2021  13:41:00       54.160       -8.488      -28.853       28.803       32.126       20.413      829.596     1032.070      416.670        0.306        0.114       54.821       10.416        0.036      333.042        2.098      847.366
12/25/2021  13:42:00        7.041      -55.674      -34.867       30.388       27.713       21.284      923.442      768.012      453.014        0.325        0.107       56.117       11.015        0.039      333.427        2.735      847.420
12/25/2021  13:43:00       25.442       22.736      -10.041       39.817       31.673       18.435     1585.414     1003.186      339.833        0.210        0.146       34.121        8.226        0.058      333.391        2.676      847.362
12/25/2021  13:44:00      -21.179      -92.797      -37.283       54.273       55.497       32.318     2945.542     3079.937     1044.454        0.876        0.353       95.183       21.305        0.050      333.523        2.895      847.346
12/25/2021  13:45:00       50.322     -144.726      -31.288       40.312       53.486       29.217     1625.074     2860.751      853.647        1.490        0.267      153.225       22.677        0.022      333.185        2.335      847.358
12/25/2021  13:46:00       -2.893      -53.479      -28.963       51.806       67.819       45.311     2683.828     4599.383     2053.086        0.652        0.467       53.557       40.140        0.562      333.444        2.763      847.397
12/25/2021  13:47:00       -3.434      -68.537      -15.935       62.753       72.629       36.706     3938.000     5275.002     1347.361        0.776        0.528       68.623       36.855        0.288      333.399        2.687      847.410
12/25/2021  13:48:00      116.639     -334.937      -65.203      141.873      190.183       87.393    20127.954    36169.441     7637.598        9.698        3.197      354.666       66.682        0.035      333.154        2.279      847.375
12/25/2021  13:49:00      153.749     -334.610     -109.016      152.965      152.531       78.734    23398.338    23265.615     6199.096       10.017        2.643      368.243       72.200        0.038      333.078        2.153      847.266
12/25/2021  13:50:00       40.884     -252.567      -38.872      134.630       96.118       68.161    18125.202     9238.645     4645.970        4.949        1.600      255.855       51.188        0.040      333.053        2.113      847.229
12/25/2021  13:51:00       91.089     -180.497      -74.965      118.073      152.555       80.267    13941.274    23272.928     6442.776        4.507        2.183      202.179       42.090        0.043      333.092        2.178      847.182
12/25/2021  13:52:00     -136.544      -32.817      -19.577       89.163       90.848       55.692     7949.983     8253.362     3101.627        1.970        0.965      140.433       33.884        0.058      333.110        2.211      847.208
12/25/2021  13:53:00     -127.414      -24.451       -4.125       93.757       93.176       54.766     8790.301     8681.751     2999.269        1.866        1.024      129.739       43.489        0.112      332.893        1.851      847.176
12/25/2021  13:54:00      -45.982     -117.373       -6.378       95.453       83.006       58.901     9111.253     6889.968     3469.287        1.770        0.974      126.058       42.792        0.115      332.942        1.932      847.201
12/25/2021  13:55:00       94.320     -210.949      -48.389      179.280      131.240       72.563    32141.390    17223.887     5265.448        5.517        2.732      231.075       43.038        0.035      332.961        1.962      847.248
12/25/2021  13:56:00     -100.990      -46.327      -28.776       92.711       74.308       51.070     8595.352     5521.700     2608.121        1.495        0.836      111.109       32.210        0.084      332.986        2.005      847.243
12/25/2021  13:57:00      -20.692     -219.289      -38.948      104.043       98.554       63.650    10824.854     9712.927     4051.312        3.731        1.229      220.263       45.695        0.043      333.066        2.134      847.203
12/25/2021  13:58:00      105.319     -165.547      -78.373      164.004      103.695       87.916    26897.248    10752.593     7729.260        4.500        2.269      196.209       66.581        0.115      332.826        1.739      847.159
12/25/2021  13:59:00       26.205     -245.793      -52.871      137.111      115.660       69.748    18799.333    13377.163     4864.774        5.046        1.852      247.186       67.782        0.075      332.918        1.888      847.186
12/25/2021  14:00:00        7.941     -178.925      -52.577      141.456      144.312       69.354    20009.928    20825.897     4810.025        4.024        2.282      179.101       72.721        0.165      332.949        1.941      847.197
12/25/2021  14:01:00       29.463     -123.048      -27.965       65.518       90.300       50.112     4292.612     8154.014     2511.228        1.587        0.748      126.526       46.508        0.135      332.871        1.815      847.199
12/25/2021  14:02:00        2.173     -202.466      -77.463       90.030       97.442       68.648     8105.327     9495.025     4712.568        3.465        1.116      202.478       44.943        0.049      333.012        2.046      847.200
12/25/2021  14:03:00       12.610     -188.146      -38.028       71.935       82.140       49.277     5174.639     6746.968     2428.243        2.567        0.717      188.568       28.127        0.022      333.080        2.160      847.236
12/25/2021  14:04:00      118.931     -292.028      -56.209      110.002      131.747       64.864    12100.354    17357.377     4207.359        6.812        1.683      315.317       68.376        0.047      332.754        1.618      847.272
12/25/2021  14:05:00       37.514     -125.262      -43.744      126.418      119.783       66.546    15981.428    14348.027     4428.434        2.688        1.738      130.759       53.366        0.167      332.766        1.641      847.313
12/25/2021  14:06:00      -10.945      -54.613      -22.965       73.158       98.261       43.567     5352.158     9655.290     1898.080        1.026        0.845       55.699       31.928        0.329      332.778        1.661      847.224
12/25/2021  14:07:00      -43.339      -82.354      -19.004       82.513       76.157       47.544     6808.398     5799.950     2260.411        1.194        0.743       93.062       21.991        0.056      332.937        1.925      847.189
12/25/2021  14:08:00       18.662      -89.303      -26.681       64.299      103.434       56.446     4134.349    10698.528     3186.207        1.352        0.901       91.232       47.427        0.270      332.884        1.835      847.150
12/25/2021  14:09:00       15.908     -144.609      -49.245      121.536      104.255       64.781    14770.941    10869.160     4196.593        2.671        1.492      145.482       38.575        0.070      332.865        1.804      847.127
12/25/2021  14:10:00        5.964      -52.479      -11.904       84.702       91.356       44.196     7174.465     8345.899     1953.283        1.020        0.874       52.817       43.551        0.680      332.702        1.537      847.086
12/25/2021  14:11:00       43.645     -152.316      -44.842       86.098      113.795       69.314     7412.806    12949.319     4804.424        2.614        1.258      158.445       55.164        0.121      332.655        1.457      847.059
12/25/2021  14:12:00      -58.295      -75.552       -8.452      109.700      104.530       59.704    12034.134    10926.483     3564.590        1.785        1.326       95.427       42.385        0.197      332.737        1.593      847.058
12/25/2021  14:13:00      -43.486     -171.038      -40.254      129.802      110.975       63.579    16848.651    12315.531     4042.301        3.298        1.660      176.479       28.303        0.026      332.805        1.705      847.077
12/25/2021  14:14:00        9.554      -68.013      -15.803       59.315       68.687       44.261     3518.226     4717.901     1959.076        0.758        0.510       68.681       23.591        0.118      332.943        1.937      847.112
12/25/2021  14:15:00      -85.711      -19.215      -18.580       81.077       52.238       41.118     6573.422     2728.858     1690.670        0.952        0.550       87.839       32.814        0.140      332.847        1.775      847.126
12/25/2021  14:16:00       22.084     -144.964      -33.681      104.508      144.257       57.077    10922.018    20810.174     3257.833        2.881        1.750      146.636       56.295        0.147      332.796        1.689      847.114
12/25/2021  14:17:00        7.945     -245.261      -41.874      128.947      125.673       76.336    16627.456    15793.635     5827.238        5.010        1.912      245.390       55.269        0.051      332.798        1.691      847.157
12/25/2021  14:18:00      -87.425      -68.732      -15.156      114.119      114.713       66.505    13023.174    13159.111     4422.920        2.160        1.530      111.208       36.909        0.110      332.754        1.623      847.207
12/25/2021  14:19:00      -10.076     -161.838      -44.813      158.569      100.575       55.358    25144.276    10115.260     3064.463        3.331        1.916      162.151       31.657        0.038      332.815        1.720      847.194
12/25/2021  14:20:00      -63.524     -211.449      -63.157      147.951      129.015       67.263    21889.608    16644.819     4524.375        4.789        2.153      220.785       35.341        0.026      332.784        1.667      847.168
12/25/2021  14:21:00      -37.851     -363.173      -64.991      203.789      151.745       90.656    41529.794    23026.444     8218.598       10.515        3.639      365.140       83.570        0.052      332.731        1.580      847.163
12/25/2021  14:22:00     -154.223     -207.397      -38.378      131.128      140.436       67.742    17194.653    19722.191     4588.960        5.488        2.075      258.454       52.860        0.042      332.642        1.435      847.135
12/25/2021  14:23:00      -40.826     -114.919      -32.774       87.183       58.317       43.624     7600.802     3400.864     1903.082        1.442        0.645      121.956       12.519        0.011      332.818        1.728      847.079
12/25/2021  14:24:00       92.543     -353.921      -69.733      138.415      236.557       75.937    19158.667    55959.343     5766.413       10.977        4.044      365.820       98.798        0.073      332.711        1.548      847.107
12/25/2021  14:25:00       60.368     -176.604      -50.649      107.526      122.616       58.062    11561.901    15034.619     3371.158        3.368        1.498      186.637       51.650        0.077      332.726        1.574      847.157
12/25/2021  14:26:00       23.290     -252.903      -64.120      156.002      138.757       82.486    24336.586    19253.423     6804.006        5.949        2.520      253.973       71.548        0.079      332.763        1.634      847.164
12/25/2021  14:27:00       46.772     -209.307      -57.991      165.621      126.656       55.393    27430.173    16041.865     3068.418        4.794        2.327      214.469       47.554        0.049      332.634        1.419      847.113
12/25/2021  14:28:00      -53.195     -289.903      -53.276      131.886      174.043       77.416    17393.836    30290.891     5993.192        7.168        2.684      294.743       84.601        0.082      332.660        1.464      847.077
12/25/2021  14:29:00      -81.370     -148.727      -10.855      133.908      142.597       84.321    17931.373    20333.853     7109.980        3.711        2.269      169.531       60.694        0.128      332.686        1.507      847.112
12/25/2021  14:30:00       11.631     -327.292      -44.500      148.732      197.749      105.873    22121.162    39104.648    11209.087        9.082        3.622      327.499       79.685        0.059      332.576        1.326      847.082
12/25/2021  14:31:00      -23.923      -77.479      -26.889      125.843      105.855       62.140    15836.568    11205.238     3861.400        1.910        1.545       81.088       55.583        0.470      332.626        1.409      847.100
12/25/2021  14:32:00       36.135     -174.716      -39.567      132.523      141.630       80.004    17562.373    20059.015     6400.708        3.870        2.201      178.413       54.144        0.092      332.472        1.153      847.053
12/25/2021  14:33:00       25.518      -88.696      -33.596      127.164       93.179       53.113    16170.780     8682.306     2820.967        1.866        1.384       92.294       46.337        0.252      332.542        1.269      847.047
12/25/2021  14:34:00      126.717     -341.244      -54.725      147.525      176.958       83.892    21763.771    31313.964     7037.865        9.780        3.006      364.012       65.942        0.033      332.310        0.885      847.043
12/25/2021  14:35:00      143.127     -307.607      -90.860      183.951      204.686       91.920    33837.929    41896.287     8449.283       10.376        4.209      339.275       96.755        0.081      332.296        0.864      847.018
12/25/2021  14:36:00      -40.540      -60.480      -12.031       60.313       68.463       58.093     3637.621     4687.187     3374.846        0.857        0.585       72.810       30.827        0.179      332.558        1.299      847.022
12/25/2021  14:37:00       65.124     -124.619      -34.516      123.074      133.342       61.604    15147.125    17780.141     3795.081        2.884        1.836      140.610       52.270        0.138      332.555        1.292      846.989
12/25/2021  14:38:00       85.908     -229.377      -53.430      162.863      149.966       72.395    26524.244    22489.818     5240.970        5.854        2.713      244.937       70.794        0.084      332.309        0.885      846.976
12/25/2021  14:39:00      125.855     -322.404      -60.342      112.515      145.171       67.770    12659.575    21074.690     4592.831        8.087        1.916      346.098       73.704        0.045      332.293        0.859      847.006
12/25/2021  14:40:00       50.246     -307.157      -42.576      115.014      171.299       70.344    13228.208    29343.196     4948.314        7.309        2.376      311.240       80.865        0.068      332.335        0.930      847.073
12/25/2021  14:41:00      -53.328     -171.326      -35.940      126.006      143.941       78.547    15877.455    20718.951     6169.601        3.812        2.138      179.434       68.619        0.146      332.461        1.136      847.135
12/25/2021  14:42:00     -102.646     -162.111      -44.464       95.712      139.155       81.811     9160.704    19363.991     6693.021        3.700        1.761      191.875       60.749        0.100      332.476        1.160      847.097
12/25/2021  14:43:00     -161.385     -257.377      -51.446      126.062      121.699       60.497    15891.599    14810.763     3659.901        6.464        1.718      303.790       43.269        0.020      332.443        1.107      847.103
12/25/2021  14:44:00        1.482     -193.689      -29.439       96.047       77.113       57.922     9225.033     5946.341     3355.005        2.845        0.926      193.695       39.573        0.042      332.459        1.133      847.062
12/25/2021  14:45:00       33.130     -217.858      -56.576      147.929      160.216       76.292    21882.875    25669.023     5820.440        5.256        2.669      220.363       59.292        0.072      332.434        1.091      846.993
12/25/2021  14:46:00       25.497      -88.818      -28.250       97.940      116.488       48.898     9592.204    13569.558     2390.993        1.744        1.278       92.405       30.837        0.111      332.523        1.239      846.980
12/25/2021  14:47:00       11.176     -172.598      -30.951      104.413       66.050       43.328    10902.099     4362.598     1877.293        2.400        0.857      172.960       33.274        0.037      332.540        1.268      846.969
12/25/2021  14:48:00      -29.065      -82.566      -31.527       74.259       70.072       42.252     5514.472     4910.048     1785.222        1.043        0.610       87.532       25.075        0.082      332.565        1.310      847.007
12/25/2021  14:49:00        5.120     -182.881      -35.201      146.809      167.208       73.404    21552.777    27958.532     5388.105        4.479        2.745      182.953       75.747        0.171      332.486        1.177      847.047
12/25/2021  14:50:00      -31.576     -191.743      -28.416      121.512      162.661       68.085    14765.151    26458.567     4635.604        4.221        2.293      194.325       55.515        0.082      332.495        1.193      847.040
12/25/2021  14:51:00     -168.531     -123.968      -25.669      121.205      141.284       75.348    14690.772    19961.069     5677.291        4.237        2.016      209.214       43.048        0.042      332.457        1.129      847.050
12/25/2021  14:52:00     -114.744      -75.842      -17.154       99.103      107.653       47.223     9821.348    11589.091     2229.970        2.142        1.182      137.543       35.803        0.068      332.477        1.164      847.050
12/25/2021  14:53:00      -93.791       -2.777      -15.325      115.989       72.529       60.075    13453.475     5260.389     3609.044        1.568        1.116       93.832       52.496        0.313      332.420        1.070      847.040
12/25/2021  14:54:00      -90.572      -45.412       -3.760      118.940       90.833       68.002    14146.674     8250.618     4624.283        1.865        1.351      101.319       47.989        0.224      332.406        1.046      847.001
12/25/2021  14:55:00      -97.745      -79.975      -12.556       72.162       84.723       40.467     5207.402     7177.965     1637.565        1.506        0.701      126.294       25.213        0.040      332.445        1.111      846.955
12/25/2021  14:56:00      -31.613     -100.929      -22.282       63.499       49.341       32.777     4032.065     2434.549     1074.345        0.961        0.377      105.764       21.472        0.041      332.670        1.485      846.961
12/25/2021  14:57:00      -94.117      -79.389      -19.570       73.578       73.120       31.951     5413.712     5346.464     1020.893        1.366        0.589      123.129       28.350        0.053      332.556        1.295      846.964
12/25/2021  14:58:00      -57.034      -73.306      -34.178       85.159       96.019       49.691     7252.071     9219.611     2469.210        1.436        0.947       92.880       36.814        0.157      332.579        1.333      846.957
12/25/2021  14:59:00      -43.995      -88.837      -23.481      119.034       87.529       52.057    14169.100     7661.341     2709.900        1.746        1.227       99.134       35.844        0.131      332.527        1.246      846.915
12/25/2021  15:00:00       -7.627     -172.777      -50.137      106.048      127.070       68.105    11246.211    16146.835     4638.317        3.222        1.602      172.945       64.575        0.139      332.574        1.324      846.943
12/25/2021  15:01:00      -73.694     -151.986      -24.250      109.325      130.997       46.131    11952.015    17160.192     2128.078        3.017        1.562      168.909       55.962        0.110      332.657        1.461      846.986
12/25/2021  15:02:00      -27.899      -66.118      -21.685       48.298       47.516       27.434     2332.652     2257.750      752.624        0.548        0.267       71.764       25.931        0.131      332.714        1.558      846.986
12/25/2021  15:03:00       -4.936      -49.692      -28.846       51.233       44.476       36.156     2624.838     1978.157     1307.279        0.462        0.296       49.936       27.128        0.295      332.721        1.567      846.977
12/25/2021  15:04:00     -172.991      -63.194      -30.904      138.700      112.361       58.016    19237.598    12624.984     3365.805        3.504        1.761      184.172       38.280        0.043      332.496        1.194      846.994
12/25/2021  15:05:00     -141.229     -108.239      -38.847       73.029      100.107       51.936     5333.270    10021.380     2697.310        2.561        0.903      177.936       45.033        0.064      332.487        1.180      847.007
12/25/2021  15:06:00      -90.740      -45.228      -10.574       89.026       75.670       53.743     7925.540     5725.914     2888.334        1.346        0.827      101.387       45.427        0.201      332.495        1.194      846.969
12/25/2021  15:07:00      -39.931      -15.560      -14.103       38.064       36.379       30.571     1448.837     1323.466      934.614        0.287        0.185       42.855       17.439        0.166      332.552        1.290      846.909
12/25/2021  15:08:00      -28.764      -33.831       -0.381       50.703       36.530       28.173     2570.836     1334.424      793.710        0.333        0.235       44.407       22.346        0.253      332.582        1.338      846.864
12/25/2021  15:09:00      -20.366      -21.013       -7.066       31.661       33.399       25.100     1002.395     1115.474      629.993        0.183        0.137       29.263       19.899        0.462      332.621        1.405      846.799
12/25/2021  15:10:00      -15.666        1.458      -22.962       67.917      101.273       36.607     4612.706    10256.244     1340.095        0.849        0.810       15.734       42.663        7.352      332.556        1.295      846.757
12/25/2021  15:11:00      -34.467      -15.713      -22.135       48.709       48.343       27.068     2372.524     2337.057      732.652        0.368        0.272       37.880       21.229        0.314      332.623        1.406      846.784
12/25/2021  15:12:00       58.317      -83.823      -29.186       61.852       57.573       29.450     3825.680     3314.635      867.315        0.964        0.400      102.114       28.531        0.078      332.590        1.352      846.776
12/25/2021  15:13:00      -16.907      -36.185      -11.579       78.341       59.856       35.520     6137.254     3582.800     1261.698        0.635        0.549       39.940       24.308        0.370      332.679        1.500      846.725
12/25/2021  15:14:00      -31.590      -87.957      -36.180       73.450       56.471       45.114     5394.932     3189.000     2035.246        1.033        0.531       93.457       37.484        0.161      332.652        1.454      846.700
12/25/2021  15:15:00     -206.350      -26.176      -20.183      111.300       78.761       50.288    12387.588     6203.339     2528.873        3.239        1.056      208.003       39.160        0.035      332.566        1.309      846.726
12/25/2021  15:16:00      -21.061      -63.865      -42.377       69.829       52.894       40.567     4876.023     2797.780     1645.707        0.782        0.466       67.248       29.853        0.197      332.670        1.484      846.698
12/25/2021  15:17:00       36.206     -146.889      -37.522       71.809       79.250       50.118     5156.490     6280.567     2511.779        1.912        0.697      151.285       26.142        0.030      332.608        1.379      846.663
12/25/2021  15:18:00      -35.575      -53.076      -37.439       51.510       54.693       41.505     2653.287     2991.330     1722.641        0.642        0.368       63.896       25.282        0.157      332.627        1.412      846.654
12/25/2021  15:19:00      -19.625      -61.082      -24.314       71.793       53.029       28.496     5154.194     2812.050      812.045        0.674        0.439       64.157       14.581        0.052      332.602        1.372      846.683
12/25/2021  15:20:00       12.189      -45.779      -23.891       48.682       64.932       34.159     2369.953     4216.129     1166.868        0.528        0.388       47.374       18.567        0.154      332.622        1.405      846.767
12/25/2021  15:21:00       16.933      -42.463      -13.601       42.986       54.203       32.012     1847.824     2937.958     1024.747        0.404        0.291       45.715       29.531        0.417      332.690        1.518      846.770
12/25/2021  15:22:00       24.204     -112.602      -29.923       75.063       75.718       49.158     5634.450     5733.144     2416.511        1.397        0.689      115.174       44.012        0.146      332.492        1.188      846.728
12/25/2021  15:23:00       92.991     -196.760      -45.459      136.507      186.242       73.135    18634.042    34685.990     5348.756        5.404        2.933      217.628       99.388        0.209      332.479        1.166      846.698
12/25/2021  15:24:00       66.213     -198.768      -46.148      100.627      138.816       78.787    10125.852    19269.811     6207.437        4.081        1.780      209.506       60.881        0.084      332.495        1.192      846.712
12/25/2021  15:25:00       13.134     -132.548      -40.720      108.250       81.010       43.090    11718.011     6562.669     1856.722        1.976        1.007      133.197       40.954        0.095      332.490        1.186      846.735
12/25/2021  15:26:00      -15.910     -163.457      -26.868       96.885       61.567       43.457     9386.749     3790.481     1888.511        2.138        0.753      164.229       27.305        0.028      332.628        1.411      846.748
12/25/2021  15:27:00      -26.361       11.415      -11.575       76.832       66.149       37.141     5903.211     4375.628     1379.420        0.631        0.583       28.727       36.306        1.597      332.509        1.217      846.723
12/25/2021  15:28:00      -91.100     -108.159      -29.383       88.559      135.553       48.487     7842.706    18374.744     2350.951        2.471        1.428      141.412       45.508        0.104      332.517        1.230      846.698
12/25/2021  15:29:00       47.284     -121.252      -32.546       67.354       87.597       36.791     4536.527     7673.200     1353.601        1.578        0.678      130.145       35.431        0.074      332.697        1.527      846.664
12/25/2021  15:30:00      -39.720     -154.623      -31.396       94.995      128.048       59.433     9024.019    16396.286     3532.290        2.771        1.448      159.643       51.230        0.103      332.602        1.370      846.659
12/25/2021  15:31:00      -29.599      -91.625      -37.088      125.448      109.932       50.164    15737.321    12085.068     2516.443        2.049        1.517       96.288       49.487        0.264      332.573        1.322      846.671
12/25/2021  15:32:00       37.117     -161.181      -34.252      142.479      109.570       67.853    20300.271    12005.619     4604.027        3.271        1.845      165.399       55.230        0.112      332.457        1.131      846.674
12/25/2021  15:33:00      -28.433     -133.656      -18.267      112.795      104.988       67.889    12722.765    11022.563     4608.863        2.367        1.418      136.647       56.849        0.173      332.512        1.220      846.650
12/25/2021  15:34:00       -7.355     -142.800      -39.570      108.398       91.005       54.063    11750.050     8281.820     2922.797        2.248        1.148      142.989       42.362        0.088      332.500        1.200      846.653
12/25/2021  15:35:00       23.196     -143.270      -26.092      121.653      110.168       56.351    14799.518    12136.989     3175.483        2.592        1.506      145.135       60.467        0.174      332.358        0.967      846.688
12/25/2021  15:36:00      -50.875      -71.834        5.636       93.774       99.153       41.406     8793.603     9831.350     1714.424        1.406        1.017       88.025       42.761        0.236      332.440        1.102      846.698
12/25/2021  15:37:00      -26.932      -38.525      -20.370       59.113       57.627       43.898     3494.368     3320.861     1927.046        0.568        0.437       47.006       22.087        0.221      332.452        1.122      846.675
12/25/2021  15:38:00       63.574     -175.715      -44.024      118.318      105.317       66.502    13999.058    11091.580     4422.481        3.318        1.476      186.862       59.673        0.102      332.370        0.986      846.654
12/25/2021  15:39:00      -33.691      -92.478      -46.553       78.992       74.634       49.856     6239.805     5570.180     2485.621        1.307        0.715       98.424       41.022        0.174      332.407        1.052      846.657
12/25/2021  15:40:00      -34.390      -62.931      -17.905       76.453       33.798       26.584     5845.090     1142.319      706.690        0.658        0.385       71.714       16.547        0.053      331.292       -0.786      846.658
12/25/2021  15:41:00      -53.850        0.512       -7.245       33.065       33.396       12.856     1093.290     1115.312      165.282        0.266        0.119       53.852       15.284        0.081      331.173       -0.980      846.664
12/25/2021  15:42:00       31.129      -85.162      -14.083       41.458       37.152       71.643     1718.801     1380.257     5132.729        0.832        0.412       90.673       55.904        0.380      331.874        0.172      846.670
12/25/2021  15:43:00       -1.251      -41.756        8.308      118.675       61.859       32.644    14083.741     3826.519     1065.640        1.039        0.949       41.775       41.545        0.989      332.231        0.758      846.636
12/25/2021  15:44:00       -6.689      -27.692        4.121       52.164       79.365       33.834     2721.089     6298.871     1144.707        0.549        0.508       28.489       29.453        1.069      331.540       -0.377      846.622
12/25/2021  15:45:00      -14.448      -17.631       13.700       50.166       90.789       25.086     2516.624     8242.680      629.318        0.605        0.569       22.794       33.507        2.161      331.785        0.020      846.635
12/25/2021  15:46:00      -33.252       -8.555      -22.362       40.292       33.829       24.317     1623.427     1144.369      591.334        0.252        0.168       34.335       16.685        0.236      332.263        0.812      846.683
12/25/2021  15:47:00      -16.825      -23.963      -15.391       36.696       27.975       22.896     1346.631      782.601      524.232        0.187        0.133       29.280       15.814        0.292      332.295        0.864      846.715
12/25/2021  15:48:00      -22.652       -4.843      -20.301       36.549       37.789       16.286     1335.829     1428.045      265.241        0.199        0.151       23.164        9.169        0.157      332.339        0.937      846.739
12/25/2021  15:49:00      -46.721      -32.383       -3.770       54.048       38.490       28.760     2921.234     1481.510      827.134        0.424        0.261       56.846       22.875        0.162      332.294        0.863      846.744
12/25/2021  15:50:00     -107.151        6.528        0.672       49.307       42.827       29.971     2431.157     1834.132      898.232        0.834        0.258      107.349       28.011        0.068      332.177        0.670      846.716
12/25/2021  15:51:00      -93.169      -35.208      -12.609       58.868       56.581       33.837     3465.395     3201.417     1144.970        0.894        0.391       99.600       35.169        0.125      332.190        0.690      846.650
12/25/2021  15:52:00      -16.036       24.891       -0.511       37.455       25.558       22.747     1402.861      653.224      517.443        0.172        0.129       29.609       15.092        0.260      332.167        0.653      846.550
12/25/2021  15:53:00      -33.770      -10.457      -13.718       52.759       36.956       22.504     2783.543     1365.719      506.416        0.305        0.233       35.352       10.920        0.095      332.273        0.828      846.514
12/25/2021  15:54:00      -34.584       19.674      -10.920       29.854       34.143       22.447      891.255     1165.766      503.860        0.213        0.128       39.788        9.817        0.061      332.364        0.978      846.525
12/25/2021  15:55:00        4.320      -19.736      -15.630       38.957       63.856       24.210     1517.639     4077.621      586.123        0.342        0.309       20.203       30.695        2.308      332.332        0.924      846.570
12/25/2021  15:56:00       51.682     -130.816      -31.237       87.924       82.137       29.480     7730.690     6746.477      869.048        1.805        0.767      140.655       18.122        0.017      332.251        0.790      846.639
12/25/2021  15:57:00        0.382      -21.792       -2.904       50.864       50.983       30.233     2587.103     2599.291      914.060        0.329        0.305       21.796       24.519        1.266      332.200        0.707      846.603
12/25/2021  15:58:00      -17.898      -11.404      -18.049       52.062       37.532       26.867     2710.487     1408.624      721.846        0.281        0.242       21.222       27.149        1.637      332.297        0.867      846.553
12/25/2021  15:59:00      -12.717       38.645       -2.466       39.242       25.479       20.333     1539.928      649.200      413.422        0.213        0.130       40.683       15.679        0.149      332.250        0.790      846.550
12/25/2021  16:00:00      -37.380      -56.993      -10.069       45.949       44.650       24.575     2111.294     1993.601      603.947        0.473        0.235       68.158       16.144        0.056      332.367        0.982      846.587
12/25/2021  16:01:00       21.832      -26.397       -9.827       38.424       34.073       29.115     1476.431     1160.988      847.703        0.238        0.174       34.256       20.530        0.359      332.457        1.132      846.623
12/25/2021  16:02:00       35.527      -96.713      -15.429       35.983       40.254       28.948     1294.751     1620.408      837.992        0.730        0.188      103.031       24.135        0.055      332.188        0.688      846.622
12/25/2021  16:03:00      -50.812      -38.117      -12.776       38.156       31.147       41.127     1455.891      970.107     1691.447        0.416        0.206       63.520       19.184        0.091      332.256        0.801      846.607
12/25/2021  16:04:00      -18.251      -37.013       -9.860       37.306       46.025       24.867     1391.727     2118.281      618.364        0.296        0.206       41.268       14.667        0.126      332.347        0.949      846.614
12/25/2021  16:05:00       27.480      -27.819        9.214       62.267       55.995       37.954     3877.150     3135.406     1440.537        0.503        0.423       39.103       37.352        0.912      332.219        0.739      846.643
12/25/2021  16:06:00      109.707        9.702       49.942       73.722       64.518       43.414     5434.888     4162.557     1884.775        1.305        0.574      110.135       46.899        0.181      331.920        0.246      846.643
12/25/2021  16:07:00      121.577       27.515       51.366       14.289        9.307        8.895      204.177       86.625       79.116        0.927        0.018      124.652        5.918        0.002      331.526       -0.390      846.640
12/25/2021  16:08:00      123.000       28.000       50.000        0.000        0.000        0.000        0.000        0.000        0.000        0.921        0.000      126.147        0.000        0.000      331.520       -0.400      846.640
12/25/2021  16:09:00      123.000       28.000       50.000        0.000        0.000        0.000        0.000        0.000        0.000        0.921        0.000      126.147        0.000        0.000      331.520       -0.400      846.640
12/25/2021  16:10:00      123.000       28.000       50.000        0.000        0.000        0.000        0.000        0.000        0.000        0.921        0.000      126.147        0.000        0.000      331.520       -0.400      846.640
12/25/2021  16:11:00      123.000       28.000       50.000        0.000        0.000        0.000        0.000        0.000        0.000        0.921        0.000      126.147        0.000        0.000      331.520       -0.400      846.640
12/25/2021  16:12:00      123.000       28.000       50.000        0.000        0.000        0.000        0.000        0.000        0.000        0.921        0.000      126.147        0.000        0.000      331.520       -0.400      846.640
12/25/2021  16:13:00      123.000       28.000       50.000        0.000        0.000        0.000        0.000        0.000        0.000        0.921        0.000      126.147        0.000        0.000      331.520       -0.400      846.640
12/25/2021  16:14:00      123.000       28.000       50.000        0.000        0.000        0.000        0.000        0.000        0.000        0.921        0.000      126.147        0.000        0.000      331.520       -0.400      846.640
12/25/2021  16:15:00       23.001      -63.155      -21.844       75.120       60.497       50.373     5643.024     3659.928     2537.483        0.842        0.592       67.213       54.572        0.659      332.260        0.810      846.670
12/25/2021  16:16:00       57.460     -110.714      -31.096       49.237       80.488       42.464     2424.243     6478.396     1803.157        1.361        0.535      124.737       30.813        0.061      332.552        1.289      846.702
12/25/2021  16:17:00      116.525     -161.084      -44.321       81.392       93.183       40.115     6624.716     8683.037     1609.245        2.920        0.846      198.812       43.380        0.048      332.385        1.011      846.691
12/25/2021  16:18:00      -36.289      -66.103      -15.566       76.803       52.317       41.450     5898.628     2737.077     1718.061        0.814        0.518       75.409        9.763        0.017      332.595        1.359      846.687
12/25/2021  16:19:00      -91.461     -101.505      -35.199       59.123       72.431       36.842     3495.542     5246.199     1357.362        1.500        0.505      136.633       33.172        0.059      332.571        1.319      846.654
12/25/2021  16:20:00      -17.046      -91.709      -34.931       97.405       72.180       49.205     9487.692     5210.016     2421.106        1.352        0.856       93.280       33.770        0.131      332.613        1.390      846.664
12/25/2021  16:21:00      -94.840     -106.423      -19.718       70.629       77.199       43.063     4988.423     5959.630     1854.419        1.675        0.640      142.550       25.596        0.032      332.594        1.357      846.723
12/25/2021  16:22:00      -48.498      -72.495      -20.687       64.311       60.170       48.356     4135.963     3620.439     2338.303        0.906        0.505       87.221       30.881        0.125      332.701        1.535      846.732
12/25/2021  16:23:00       31.172     -100.088      -29.202      111.278       74.720       51.913    12382.708     5583.152     2694.939        1.625        1.033      104.829       39.864        0.145      332.646        1.442      846.700
12/25/2021  16:24:00      -64.981       12.410      -16.858       57.740       51.141       20.560     3333.880     2615.439      422.713        0.552        0.319       66.155        5.924        0.008      332.464        1.144      846.693
12/25/2021  16:25:00      -29.094     -113.712      -37.272      106.281       84.894       35.418    11295.693     7206.913     1254.424        1.746        0.988      117.375       27.129        0.053      332.572        1.321      846.689
12/25/2021  16:26:00       67.559      -80.577      -31.941       73.904      108.829       40.987     5461.740    11843.664     1679.964        1.553        0.949      105.152       49.775        0.224      332.539        1.266      846.638
12/25/2021  16:27:00       35.664      -36.115       -6.711       37.829       43.677       35.016     1431.053     1907.658     1226.107        0.359        0.228       50.757       24.111        0.226      332.694        1.524      846.609
12/25/2021  16:28:00      -30.911       36.783      -17.518       33.611       36.421       20.094     1129.671     1326.526      403.763        0.274        0.143       48.046       13.671        0.081      332.564        1.308      846.589
12/25/2021  16:29:00      -21.448       -9.790      -25.965       46.781       45.908       20.316     2188.478     2107.554      412.722        0.297        0.235       23.576       15.489        0.432      332.535        1.261      846.590
12/25/2021  16:30:00      -21.684      -91.882      -20.937       77.586       92.867       38.323     6019.603     8624.261     1468.684        1.273        0.806       94.406       38.289        0.164      332.686        1.509      846.570
12/25/2021  16:31:00       77.701     -202.768      -51.427      108.716      115.170       48.643    11819.274    13264.111     2366.137        3.862        1.372      217.145       24.377        0.013      332.612        1.386      846.531
12/25/2021  16:32:00        6.131     -124.916      -25.771       54.536      116.842       30.766     2974.129    13652.128      946.557        1.694        0.879      125.066       31.446        0.063      332.645        1.436      846.518
12/25/2021  16:33:00      -30.113      -34.042      -20.010       58.189       30.664       27.144     3385.982      940.282      736.802        0.376        0.253       45.449       19.912        0.192      332.693        1.521      846.495
12/25/2021  16:34:00       22.701      -65.491      -17.660       59.553       45.927       30.116     3546.511     2109.289      906.970        0.584        0.328       69.314       19.846        0.082      332.745        1.608      846.436
12/25/2021  16:35:00      -30.672      -35.361      -25.511       40.631       28.810       21.652     1650.898      830.017      468.829        0.290        0.147       46.810       12.394        0.070      332.717        1.561      846.401
12/25/2021  16:36:00      -51.918      -54.302      -28.374       55.979       57.004       35.085     3133.601     3249.495     1230.983        0.703        0.381       75.128       37.548        0.250      332.731        1.585      846.392
12/25/2021  16:37:00      -98.660     -107.178      -21.272       58.188       42.562       37.339     3385.867     1811.513     1394.211        1.413        0.330      145.674       13.995        0.009      332.730        1.582      846.386
12/25/2021  16:38:00      -66.535      -32.411      -25.659       56.716       35.407       30.636     3216.716     1253.671      938.565        0.577        0.270       74.009       20.776        0.079      332.651        1.453      846.378
12/25/2021  16:39:00      -65.841      -41.917      -25.912       49.781       54.356       39.900     2478.112     2954.624     1592.007        0.689        0.351       78.052       35.107        0.202      332.571        1.320      846.403
12/25/2021  16:40:00      -17.600        3.415      -13.336       23.270       19.369       15.763      541.500      375.155      248.459        0.083        0.058       17.928        7.517        0.176      332.581        1.336      846.403
12/25/2021  16:41:00      -64.352      -44.745      -29.370       37.713       41.586       27.902     1422.258     1729.383      778.497        0.547        0.197       78.379       18.705        0.057      332.657        1.462      846.391
12/25/2021  16:42:00      -34.480      -28.354      -17.918       25.606       26.703       18.449      655.648      713.074      340.381        0.201        0.085       44.642       11.291        0.064      332.660        1.468      846.370
12/25/2021  16:43:00      -34.118       11.058        8.330       27.154       42.584       18.387      737.348     1813.385      338.073        0.212        0.144       35.865       15.708        0.192      332.647        1.447      846.346
12/25/2021  16:44:00       49.769     -109.637      -23.115       47.684       40.830       31.513     2273.752     1667.089      993.081        0.998        0.247      120.404       28.775        0.057      332.529        1.250      846.358
12/25/2021  16:45:00       33.911      -75.620      -13.990       45.458       42.319       25.713     2066.427     1790.910      661.167        0.579        0.226       82.876       19.110        0.053      332.484        1.176      846.339
12/25/2021  16:46:00      -49.902       24.016       -7.577       39.860       49.608       25.879     1588.842     2460.973      669.725        0.392        0.236       55.381       24.402        0.194      332.486        1.182      846.263
12/25/2021  16:47:00      -38.470      -54.855      -10.204       43.994       34.801       26.081     1935.475     1211.101      680.196        0.421        0.191       67.000       16.440        0.060      332.696        1.527      846.188
12/25/2021  16:48:00       19.411      -26.956      -18.827       42.487       55.948       30.148     1805.164     3130.188      908.897        0.365        0.292       33.218       21.881        0.434      332.616        1.395      846.156
12/25/2021  16:49:00       52.763     -103.188      -23.391       40.639       44.413       30.962     1651.508     1972.478      958.671        0.928        0.229      115.895       17.376        0.022      332.524        1.243      846.141
12/25/2021  16:50:00       82.269     -122.145      -33.560       43.218       45.958       25.164     1867.811     2112.170      633.213        1.371        0.231      147.267       25.152        0.029      332.448        1.116      846.146
12/25/2021  16:51:00       76.249     -153.968      -34.560       23.070       34.700       15.754      532.205     1204.091      248.174        1.635        0.099      171.814       10.626        0.004      332.452        1.124      846.145
12/25/2021  16:52:00       47.917      -45.878      -22.433       62.409       45.509       40.633     3894.868     2071.034     1651.036        0.626        0.381       66.339       20.758        0.098      332.569        1.317      846.111
12/25/2021  16:53:00       66.835     -122.112      -20.227       62.272       56.597       29.808     3877.853     3203.183      888.506        1.388        0.398      139.206       34.435        0.061      332.474        1.160      846.072
12/25/2021  16:54:00      114.665     -184.380      -38.149       43.157       57.439       34.013     1862.560     3299.188     1156.858        2.746        0.316      217.127       30.021        0.019      332.423        1.072      846.001
12/25/2021  16:55:00       97.049     -113.033      -29.728       61.263       71.864       26.384     3753.152     5164.460      696.136        1.634        0.481      148.980       17.852        0.014      332.466        1.147      845.959
12/25/2021  16:56:00       54.178     -125.181      -26.689       51.611       65.268       33.644     2663.685     4259.883     1131.892        1.369        0.403      136.402       36.491        0.072      332.494        1.193      845.962
12/25/2021  16:57:00       14.170      -67.105      -24.186       69.380       46.478       34.779     4813.615     2160.230     1209.586        0.673        0.409       68.585       16.425        0.057      332.520        1.237      845.994
12/25/2021  16:58:00      -25.376      -81.040      -14.556       53.988       62.610       42.690     2914.654     3919.960     1822.416        0.804        0.433       84.920       15.297        0.032      332.740        1.600      845.948
12/25/2021  16:59:00      -52.346     -128.674      -27.993       71.979       52.862       39.385     5180.972     2794.406     1551.177        1.480        0.476      138.914       26.148        0.035      332.806        1.706      845.921
12/25/2021  17:00:00      -22.254      -54.883      -24.463       37.401       38.166       29.744     1398.859     1456.654      884.699        0.392        0.187       59.223       23.307        0.155      332.863        1.802      845.905
12/25/2021  17:01:00       16.086      -37.547       -6.436       33.653       49.899       29.039     1132.547     2489.936      843.241        0.309        0.223       40.848       21.818        0.285      332.797        1.696      845.855
12/25/2021  17:02:00       45.083     -146.791      -41.484       43.917       48.986       42.382     1928.700     2399.589     1796.244        1.571        0.306      153.559       38.717        0.064      332.651        1.453      845.843
12/25/2021  17:03:00       96.393     -136.794      -50.868       42.009       66.903       29.405     1764.744     4475.959      864.658        1.885        0.355      167.344       25.584        0.023      332.569        1.316      845.841
12/25/2021  17:04:00       72.112     -100.114      -34.191       78.910      107.813       61.983     6226.836    11623.620     3841.926        1.904        1.085      123.381       56.421        0.209      332.585        1.343      845.788
12/25/2021  17:05:00       -5.673      -40.290      -22.316       44.688       57.530       36.431     1996.974     3309.701     1327.252        0.439        0.332       40.687       23.283        0.327      332.600        1.368      845.746
12/25/2021  17:06:00      -31.161       -7.238       11.144       45.123       58.123       31.708     2036.126     3378.276     1005.398        0.378        0.321       31.990       29.603        0.856      332.642        1.439      845.729
12/25/2021  17:07:00       72.234      -76.456      -12.907       72.909       96.076       41.330     5315.717     9230.644     1708.135        1.374        0.813      105.182       53.270        0.256      332.685        1.508      845.722
12/25/2021  17:08:00       82.350     -160.884      -30.608       43.849       47.631       31.976     1922.770     2268.737     1022.486        1.941        0.261      180.735       24.222        0.018      332.503        1.208      845.750
12/25/2021  17:09:00       69.083     -186.583      -19.686       39.524       56.420       33.241     1562.152     3183.189     1104.976        2.291        0.293      198.961       17.587        0.008      332.489        1.181      845.785
12/25/2021  17:10:00       71.934     -162.118      -35.181       29.687       48.039       30.898      881.308     2307.749      954.713        1.842        0.207      177.360       26.488        0.022      332.494        1.192      845.813
12/25/2021  17:11:00      -20.793       19.048      -30.626       67.709       48.511       31.594     4584.498     2353.352      998.199        0.483        0.397       28.199       35.919        1.622      332.659        1.467      845.771
12/25/2021  17:12:00      -13.607       38.572      -18.338       37.088       31.743       21.574     1375.513     1007.633      465.450        0.243        0.142       40.902       11.279        0.076      332.705        1.541      845.725
12/25/2021  17:13:00       22.214      -65.210      -14.917       37.622       58.327       24.446     1415.408     3402.078      597.600        0.519        0.271       68.890       23.644        0.118      332.784        1.672      845.755
12/25/2021  17:14:00      -19.255       -6.657        8.552       54.914       35.884       27.964     3015.542     1287.689      782.006        0.279        0.254       20.374       20.396        1.002      332.820        1.733      845.763
12/25/2021  17:15:00       15.177      -61.299      -25.331       50.535       55.189       38.939     2553.803     3045.873     1516.232        0.587        0.356       63.150       27.811        0.194      332.973        1.985      845.715
12/25/2021  17:16:00      -38.021      -59.400      -19.827       57.801       37.364       31.272     3340.982     1396.059      977.937        0.554        0.286       70.526       18.524        0.069      332.886        1.842      845.683
12/25/2021  17:17:00       44.062      -68.169       -8.876       73.203       64.985       39.366     5358.677     4223.059     1549.651        0.890        0.557       81.170       30.856        0.145      332.923        1.902      845.649
12/25/2021  17:18:00      105.912     -109.291      -34.828       77.536       79.160       52.817     6011.842     6266.280     2789.686        1.972        0.753      152.190       47.614        0.098      332.661        1.468      845.615
12/25/2021  17:19:00       84.717     -126.050      -36.643       52.376       63.315       36.419     2743.252     4008.775     1326.356        1.624        0.404      151.873       28.202        0.034      332.699        1.531      845.589
12/25/2021  17:20:00       42.977      -37.869      -20.080       40.268       53.098       29.572     1621.485     2819.400      874.528        0.450        0.266       57.281       16.495        0.083      332.903        1.868      845.580
12/25/2021  17:21:00       34.403      -92.347      -22.130       51.264       47.433       22.095     2627.975     2249.897      488.204        0.778        0.268       98.547       23.846        0.059      332.720        1.567      845.558
12/25/2021  17:22:00       62.454      -81.848      -29.240       45.360       62.615       36.788     2057.501     3920.681     1353.351        0.939        0.367      102.954       23.073        0.050      332.925        1.906      845.517
12/25/2021  17:23:00       98.592     -149.213      -27.837       52.257       45.330       34.421     2730.823     2054.812     1184.781        1.936        0.299      178.843       29.223        0.027      332.628        1.413      845.508
12/25/2021  17:24:00      100.678     -214.674      -32.247       65.431       54.019       31.309     4281.275     2918.039      980.254        3.272        0.409      237.110       23.190        0.010      332.684        1.501      845.530
12/25/2021  17:25:00      -32.182      -83.666      -41.024       71.315       71.711       38.686     5085.818     5142.416     1496.569        1.072        0.586       89.642       34.919        0.152      332.886        1.840      845.556
12/25/2021  17:26:00      -17.201      -56.434      -11.396       57.576       54.404       32.538     3315.010     2959.840     1058.741        0.547        0.367       58.997       23.546        0.159      332.881        1.831      845.560
12/25/2021  17:27:00      -61.558      -31.596      -10.153       33.057       44.705       31.553     1092.736     1998.580      995.578        0.449        0.204       69.193        7.767        0.013      332.892        1.852      845.573
12/25/2021  17:28:00        5.402      -66.375      -29.328       61.394       61.535       29.375     3769.260     3786.613      862.912        0.686        0.421       66.595       12.454        0.035      332.828        1.743      845.624
12/25/2021  17:29:00       -5.226       10.682       -2.409       35.288       45.699       35.514     1245.264     2088.444     1261.217        0.237        0.230       11.892       29.583        6.188      332.841        1.767      845.608
12/25/2021  17:30:00       54.947     -128.393      -39.177       87.024      112.250       51.980     7573.206    12600.077     2701.877        2.195        1.144      139.657       55.382        0.157      332.837        1.759      845.607
12/25/2021  17:31:00      -47.941      -54.593      -21.276       62.880       76.715       31.844     3953.875     5885.121     1014.025        0.829        0.543       72.655       28.801        0.157      332.845        1.774      845.615
12/25/2021  17:32:00      -12.483      -22.033      -20.432       33.887       34.130       16.628     1148.298     1164.838      276.483        0.182        0.129       25.324       10.670        0.178      332.921        1.898      845.583
12/25/2021  17:33:00       -5.063       -3.320       -6.879       32.383       40.730       23.003     1048.683     1658.919      529.138        0.166        0.162        6.054       22.552       13.876      332.881        1.833      845.578
12/25/2021  17:34:00      -19.654      -23.556       -9.160       55.929       40.578       27.035     3128.004     1646.539      730.869        0.326        0.275       30.678        6.789        0.049      332.812        1.719      845.593
12/25/2021  17:35:00      -45.571      -85.214      -62.706      162.185      117.974       58.334    26303.922    13917.787     3402.898        2.844        2.181       96.634       47.701        0.244      332.878        1.824      845.569
12/25/2021  17:36:00       22.434     -255.219      -78.066      136.175      211.638       70.235    18543.637    44790.589     4932.930        6.999        3.413      256.204       75.806        0.088      332.742        1.600      845.568
12/25/2021  17:37:00     -178.048     -309.762      -53.862      117.055      151.139       85.192    13701.842    22843.056     7257.760        8.717        2.190      357.286       41.322        0.013      332.856        1.787      845.551
12/25/2021  17:38:00     -148.872     -193.168      -32.059       69.511       77.108       41.796     4831.838     5945.697     1746.873        3.651        0.626      243.878       31.326        0.016      332.806        1.703      845.503
12/25/2021  17:39:00      -77.354     -109.544      -13.525       56.602       52.480       40.088     3203.767     2754.141     1607.031        1.286        0.378      134.103       29.767        0.049      332.780        1.666      845.450
12/25/2021  17:40:00       39.536     -147.205      -30.575       99.950       86.247       46.957     9990.088     7438.604     2204.991        2.190        0.982      152.422       27.104        0.032      332.863        1.803      845.423
12/25/2021  17:41:00       89.939     -260.060      -47.869      101.326      127.868       71.520    10266.858    16350.332     5115.161        5.487        1.587      275.173       79.128        0.083      332.714        1.554      845.428
12/25/2021  17:42:00      -24.385      -73.707      -40.224       80.583       92.300       36.879     6493.649     8519.311     1360.031        1.201        0.819       77.636       25.438        0.107      332.722        1.569      845.413
12/25/2021  17:43:00        4.424     -133.607      -36.939      101.063       91.472       55.181    10213.747     8367.141     3044.913        2.043        1.081      133.681       47.639        0.127      332.908        1.876      845.442
12/25/2021  17:44:00       -5.145      -63.857      -34.516       77.228       71.286       37.970     5964.105     5081.675     1441.755        0.889        0.624       64.064       26.699        0.174      332.905        1.873      845.451
12/25/2021  17:45:00       25.916      -44.754       -4.974       33.544       61.102       29.173     1125.181     3733.435      851.090        0.420        0.285       51.716       20.946        0.164      332.871        1.817      845.439
12/25/2021  17:46:00       27.810     -131.466      -34.560       84.172      134.290       46.043     7084.857    18033.739     2119.912        2.324        1.362      134.375       63.930        0.226      332.782        1.667      845.456
12/25/2021  17:47:00       51.030     -165.712      -32.097      106.362      122.063       64.653    11312.974    14899.476     4180.044        3.074        1.520      173.391       37.162        0.046      332.594        1.355      845.458
12/25/2021  17:48:00       31.823     -127.025      -42.654       94.560       88.685       42.801     8941.540     7865.080     1831.903        1.880        0.932      130.950       22.574        0.030      332.516        1.228      845.425
12/25/2021  17:49:00      109.222     -124.701      -73.611       85.493      112.436       57.283     7309.076    12641.828     3281.343        2.806        1.162      165.770       51.165        0.095      332.402        1.039      845.367
12/25/2021  17:50:00       92.992     -309.790      -49.163       92.741      141.824       54.564     8600.859    20113.918     2977.200        6.936        1.585      323.446       71.605        0.049      332.411        1.053      845.349
12/25/2021  17:51:00       -5.221     -118.625      -34.477       85.571       55.209       46.493     7322.450     3048.075     2161.573        1.391        0.627      118.740       33.874        0.081      332.649        1.448      845.371
12/25/2021  17:52:00       -6.381     -137.607      -21.303       92.475       84.338       65.186     8551.628     7112.932     4249.196        1.967        0.996      137.755       43.332        0.099      332.561        1.302      845.378
12/25/2021  17:53:00      -17.623      -69.950      -31.911       84.390       89.588       61.302     7121.664     8026.073     3757.931        1.256        0.945       72.136       53.244        0.545      332.561        1.303      845.382
12/25/2021  17:54:00      -55.633      -57.229      -30.548       47.998       39.351       23.101     2303.796     1548.515      533.635        0.584        0.219       79.814       20.957        0.069      332.666        1.477      845.399
12/25/2021  17:55:00      129.420     -141.435      -41.401       74.389      107.495       51.132     5533.711    11555.265     2614.495        2.908        0.985      191.711       53.045        0.077      332.336        0.930      845.422
12/25/2021  17:56:00        9.142      -53.223      -36.942       98.471       77.925       46.515     9696.542     6072.309     2163.659        1.110        0.897       54.002       12.158        0.051      332.436        1.097      845.429
12/25/2021  17:57:00      -17.909      -79.202      -27.755       60.716       63.916       41.043     3686.476     4085.274     1684.547        0.841        0.473       81.201       25.529        0.099      332.449        1.118      845.426
12/25/2021  17:58:00       21.417      -86.908      -23.164       65.292       67.562       37.796     4262.991     4564.576     1428.568        0.940        0.513       89.508       20.871        0.054      332.554        1.291      845.437
12/25/2021  17:59:00       96.139     -189.278      -45.771       61.019       69.276       45.669     3723.308     4799.110     2085.618        2.888        0.530      212.294       33.154        0.024      332.412        1.053      845.445
12/25/2021  18:00:00      103.380     -213.211      -38.454       78.133      135.418       47.930     6104.756    18337.907     2297.320        4.218        1.337      236.952       51.427        0.047      332.277        0.832      845.430
12/25/2021  18:01:00       86.864     -190.061      -45.696       68.047       96.772       43.728     4630.395     9364.777     1912.156        3.083        0.795      208.971       38.530        0.034      332.327        0.916      845.381
12/25/2021  18:02:00      135.113     -183.233      -50.030       59.152       71.795       39.032     3498.972     5154.521     1523.468        3.225        0.509      227.662       37.443        0.027      332.340        0.934      845.342
12/25/2021  18:03:00       37.991     -116.456      -27.534       84.022       74.032       45.559     7059.689     5480.811     2075.664        1.519        0.731      122.496       41.026        0.112      332.385        1.012      845.366
12/25/2021  18:04:00       39.371      -59.914      -21.410       76.259       61.462       49.891     5815.379     3777.580     2489.141        0.884        0.604       71.692       42.181        0.346      332.527        1.247      845.424
12/25/2021  18:05:00       57.285      -48.054      -38.206       65.953       93.872       53.992     4349.778     8811.885     2915.168        1.156        0.804       74.772       50.622        0.458      332.394        1.028      845.440
12/25/2021  18:06:00       52.359      -46.657      -39.741       61.172       97.500       45.749     3742.050     9506.180     2092.994        1.092        0.767       70.131       25.026        0.127      332.448        1.116      845.397
12/25/2021  18:07:00       48.059     -140.180      -35.022      100.600      111.553       48.353    10120.432    12444.040     2338.001        2.404        1.245      148.189       39.049        0.069      332.521        1.236      845.338
12/25/2021  18:08:00       -7.198     -110.912      -35.103       68.522       66.622       49.041     4695.209     4438.521     2405.053        1.256        0.577      111.145       47.181        0.180      332.483        1.174      845.322
12/25/2021  18:09:00      106.972     -112.994      -45.274       96.633       99.070       47.659     9337.853     9814.784     2271.350        2.384        1.071      155.598       36.566        0.055      332.406        1.045      845.306
12/25/2021  18:10:00      122.364     -173.135      -45.072       81.188      108.892       47.528     6591.505    11857.545     2258.923        3.384        1.035      212.011       53.053        0.063      332.359        0.969      845.267
12/25/2021  18:11:00       59.396     -117.404      -44.910      129.905      114.012       67.517    16875.198    12998.749     4558.488        2.687        1.722      131.574       59.263        0.203      332.319        0.902      845.257
12/25/2021  18:12:00      125.685     -352.089      -53.506      104.607      148.251       68.958    10942.661    21978.332     4755.177        9.014        1.884      373.849       73.266        0.038      332.281        0.839      845.276
12/25/2021  18:13:00       14.326     -202.533      -77.708      112.717      140.344       75.627    12705.155    19696.359     5719.457        4.269        1.906      203.039       36.618        0.033      332.418        1.067      845.254
12/25/2021  18:14:00       99.965     -195.214      -50.958       67.997      118.336       41.904     4623.596    14003.326     1755.921        3.554        1.019      219.321       33.056        0.023      332.362        0.971      845.285
12/25/2021  18:15:00       92.005     -137.943      -24.276       65.450      101.104       48.688     4283.672    10222.025     2370.565        2.248        0.844      165.811       56.016        0.114      332.274        0.827      845.298
12/25/2021  18:16:00      144.981     -169.990      -60.992       60.199      160.923       36.604     3623.919    25896.278     1339.872        4.224        1.543      223.419       56.281        0.063      332.299        0.871      845.337
12/25/2021  18:17:00       67.251     -230.915      -31.113       48.272      180.660       38.504     2330.198    32638.028     1482.549        4.763        1.823      240.508       84.636        0.124      332.480        1.169      845.340
12/25/2021  18:18:00      140.765     -243.452      -93.901      116.716      145.921       86.385    13622.698    21293.039     7462.341        6.513        2.119      281.218       99.447        0.125      332.371        0.996      845.346
12/25/2021  18:19:00      121.810     -242.388      -76.638       22.506       38.582       69.355      506.519     1488.545     4810.134        4.313        0.340      271.274       55.649        0.042      331.415       -0.588      845.361
12/25/2021  18:20:00      107.000     -217.000      -31.000        0.000        0.000        0.000        0.000        0.000        0.000        2.975        0.000      241.946        0.000        0.000      330.980       -1.310      845.370
12/25/2021  18:21:00      109.145     -200.068      -26.633        7.449       58.791       15.163       55.482     3456.389      229.926        2.819        0.187      227.903       29.972        0.017      331.028       -1.230      845.372
12/25/2021  18:22:00       85.654      -94.693       42.340      152.499       61.997       31.760    23256.061     3843.642     1008.700        2.310        1.405      127.685       66.180        0.269      331.415       -0.587      845.391
12/25/2021  18:23:00     -171.239     -176.146       -7.210       76.841       57.610       12.033     5904.506     3318.890      144.793        3.488        0.468      245.663       31.857        0.017      331.014       -1.241      845.416
12/25/2021  18:24:00      121.730       32.069       67.333       53.271      108.260       31.807     2837.850    11720.311     1011.689        1.797        0.778      125.883       42.036        0.112      331.680       -0.141      845.366
12/25/2021  18:25:00      114.210     -113.202      -17.076       84.363      105.893       74.698     7117.110    11213.319     5579.728        2.503        1.196      160.806       44.899        0.078      332.201        0.710      845.357
12/25/2021  18:26:00      110.930       -6.702       28.938      186.946      131.415       70.309    34948.870    17269.881     4943.360        3.517        2.858      111.132       79.801        0.516      331.773        0.009      845.364
12/25/2021  18:27:00      -57.996     -162.524      -68.282      115.196       87.037       47.116    13270.196     7575.421     2219.909        2.875        1.153      172.562       48.773        0.080      332.238        0.771      845.368
12/25/2021  18:28:00      -37.550      -54.040       -8.797       63.805       53.062       32.528     4071.133     2815.617     1058.071        0.617        0.397       65.805       30.251        0.211      332.433        1.093      845.357
12/25/2021  18:29:00      -98.069      -29.371       -8.239       52.016       34.427        8.483     2705.671     1185.200       71.954        0.725        0.198      102.373       13.149        0.016      332.390        1.015      845.360
12/25/2021  18:30:00       40.000        5.000      -14.000        0.000        0.000        0.000        0.000        0.000        0.000        0.091        0.000       40.311        0.000        0.000      332.260        0.800      845.350
12/25/2021  18:31:00      -71.476     -207.394      -34.184       72.246      121.640       32.128     5219.511    14796.289     1032.180        3.517        1.052      219.365       33.544        0.023      332.286        0.841      845.367
12/25/2021  18:32:00     -102.000     -348.000      -34.000        0.000        0.000        0.000        0.000        0.000        0.000        6.633        0.000      362.640        0.000        0.000      332.140        0.590      845.380
12/25/2021  18:33:00      -44.776     -138.718      -11.723       40.523      110.206       16.777     1642.135    12145.334      281.479        1.772        0.703      145.766       36.118        0.061      332.384        1.004      845.347
12/25/2021  18:34:00      -12.000      -89.000        1.000        0.000        0.000        0.000        0.000        0.000        0.000        0.403        0.000       89.805        0.000        0.000      332.460        1.130      845.340
12/25/2021  18:35:00      -39.033      -57.503      -11.171       39.681       48.150       28.096     1574.560     2318.440      789.384        0.482        0.234       69.500       26.097        0.141      332.374        0.991      845.388
12/25/2021  18:36:00      -48.799      -26.325       -8.811       45.418       36.682       27.534     2062.759     1345.545      758.108        0.366        0.208       55.447       12.832        0.054      332.423        1.074      845.445
12/25/2021  18:37:00     -191.731      -53.402      -30.243       73.631       58.154       46.950     5421.587     3381.939     2204.338        2.577        0.550      199.029       27.719        0.019      332.269        0.819      845.462
12/25/2021  18:38:00     -148.762      -41.459       -2.355       79.243       85.756       49.621     6279.389     7354.025     2462.247        1.997        0.805      154.431       51.398        0.111      332.254        0.794      845.469
12/25/2021  18:39:00     -197.324       -9.130      -15.094       94.452       72.500       57.109     8921.132     5256.317     3261.473        2.834        0.872      197.535       57.659        0.085      332.166        0.650      845.457
12/25/2021  18:40:00     -168.683        3.237       18.806      127.079       64.545       50.070    16149.034     4166.056     2507.044        2.582        1.141      168.714       65.231        0.149      332.139        0.609      845.448
12/25/2021  18:41:00     -159.613       10.355      -46.854       18.242       16.430       22.869      332.778      269.929      522.976        1.445        0.056      159.949       11.695        0.005      332.217        0.727      845.449
12/25/2021  18:42:00     -155.000       10.000      -55.000        0.000        0.000        0.000        0.000        0.000        0.000        1.357        0.000      155.322        0.000        0.000      332.220        0.730      845.450
12/25/2021  18:43:00     -155.000       10.000      -55.000        0.000        0.000        0.000        0.000        0.000        0.000        1.357        0.000      155.322        0.000        0.000      332.220        0.730      845.450
12/25/2021  18:44:00     -155.000       10.000      -55.000        0.000        0.000        0.000        0.000        0.000        0.000        1.357        0.000      155.322        0.000        0.000      332.220        0.730      845.450
12/25/2021  18:45:00     -155.000       10.000      -55.000        0.000        0.000        0.000        0.000        0.000        0.000        1.357        0.000      155.322        0.000        0.000      332.220        0.730      845.450
12/25/2021  18:46:00     -155.000       10.000      -55.000        0.000        0.000        0.000        0.000        0.000        0.000        1.357        0.000      155.322        0.000        0.000      332.220        0.730      845.450
12/25/2021  18:47:00     -155.000       10.000      -55.000        0.000        0.000        0.000        0.000        0.000        0.000        1.357        0.000      155.322        0.000        0.000      332.220        0.730      845.450
12/25/2021  18:48:00     -155.000       10.000      -55.000        0.000        0.000        0.000        0.000        0.000        0.000        1.357        0.000      155.322        0.000        0.000      332.220        0.730      845.450
12/25/2021  18:49:00     -155.000       10.000      -55.000        0.000        0.000        0.000        0.000        0.000        0.000        1.357        0.000      155.322        0.000        0.000      332.220        0.730      845.450
12/25/2021  18:50:00     -155.000       10.000      -55.000        0.000        0.000        0.000        0.000        0.000        0.000        1.357        0.000      155.322        0.000        0.000      332.220        0.730      845.450
12/25/2021  18:51:00     -155.000       10.000      -55.000        0.000        0.000        0.000        0.000        0.000        0.000        1.357        0.000      155.322        0.000        0.000      332.220        0.730      845.450
12/25/2021  18:52:00     -155.000       10.000      -55.000        0.000        0.000        0.000        0.000        0.000        0.000        1.357        0.000      155.322        0.000        0.000      332.220        0.730      845.450
12/25/2021  18:53:00     -155.000       10.000      -55.000        0.000        0.000        0.000        0.000        0.000        0.000        1.357        0.000      155.322        0.000        0.000      332.220        0.730      845.450
12/25/2021  18:54:00     -155.000       10.000      -55.000        0.000        0.000        0.000        0.000        0.000        0.000        1.357        0.000      155.322        0.000        0.000      332.220        0.730      845.450
12/25/2021  18:55:00     -155.000       10.000      -55.000        0.000        0.000        0.000        0.000        0.000        0.000        1.357        0.000      155.322        0.000        0.000      332.220        0.730      845.450
12/25/2021  18:56:00     -155.000       10.000      -55.000        0.000        0.000        0.000        0.000        0.000        0.000        1.357        0.000      155.322        0.000        0.000      332.220        0.730      845.450
12/25/2021  18:57:00     -155.000       10.000      -55.000        0.000        0.000        0.000        0.000        0.000        0.000        1.357        0.000      155.322        0.000        0.000      332.220        0.730      845.450
12/25/2021  18:58:00     -155.000       10.000      -55.000        0.000        0.000        0.000        0.000        0.000        0.000        1.357        0.000      155.322        0.000        0.000      332.220        0.730      845.450
12/25/2021  18:59:00     -155.000       10.000      -55.000        0.000        0.000        0.000        0.000        0.000        0.000        1.357        0.000      155.322        0.000        0.000      332.220        0.730      845.450
12/25/2021  19:00:00     -155.000       10.000      -55.000        0.000        0.000        0.000        0.000        0.000        0.000        1.357        0.000      155.322        0.000        0.000      332.220        0.730      845.450
12/25/2021  19:01:00     -155.000       10.000      -55.000        0.000        0.000        0.000        0.000        0.000        0.000        1.357        0.000      155.322        0.000        0.000      332.220        0.730      845.450
12/25/2021  19:02:00     -155.000       10.000      -55.000        0.000        0.000        0.000        0.000        0.000        0.000        1.357        0.000      155.322        0.000        0.000      332.220        0.730      845.450
12/25/2021  19:03:00     -155.000       10.000      -55.000        0.000        0.000        0.000        0.000        0.000        0.000        1.357        0.000      155.322        0.000        0.000      332.220        0.730      845.450
12/25/2021  19:04:00     -155.000       10.000      -55.000        0.000        0.000        0.000        0.000        0.000        0.000        1.357        0.000      155.322        0.000        0.000      332.220        0.730      845.450
12/25/2021  19:05:00     -155.000       10.000      -55.000        0.000        0.000        0.000        0.000        0.000        0.000        1.357        0.000      155.322        0.000        0.000      332.220        0.730      845.450
12/25/2021  19:06:00     -155.000       10.000      -55.000        0.000        0.000        0.000        0.000        0.000        0.000        1.357        0.000      155.322        0.000        0.000      332.220        0.730      845.450
12/25/2021  19:07:00     -155.000       10.000      -55.000        0.000        0.000        0.000        0.000        0.000        0.000        1.357        0.000      155.322        0.000        0.000      332.220        0.730      845.450
12/25/2021  19:08:00     -155.000       10.000      -55.000        0.000        0.000        0.000        0.000        0.000        0.000        1.357        0.000      155.322        0.000        0.000      332.220        0.730      845.450
12/25/2021  19:09:00     -155.000       10.000      -55.000        0.000        0.000        0.000        0.000        0.000        0.000        1.357        0.000      155.322        0.000        0.000      332.220        0.730      845.450
12/25/2021  19:10:00     -155.000       10.000      -55.000        0.000        0.000        0.000        0.000        0.000        0.000        1.357        0.000      155.322        0.000        0.000      332.220        0.730      845.450
12/25/2021  19:11:00     -155.000       10.000      -55.000        0.000        0.000        0.000        0.000        0.000        0.000        1.357        0.000      155.322        0.000        0.000      332.220        0.730      845.450
12/25/2021  19:12:00     -155.000       10.000      -55.000        0.000        0.000        0.000        0.000        0.000        0.000        1.357        0.000      155.322        0.000        0.000      332.220        0.730      845.450
12/25/2021  19:13:00     -155.000       10.000      -55.000        0.000        0.000        0.000        0.000        0.000        0.000        1.357        0.000      155.322        0.000        0.000      332.220        0.730      845.450
12/25/2021  19:14:00     -155.000       10.000      -55.000        0.000        0.000        0.000        0.000        0.000        0.000        1.357        0.000      155.322        0.000        0.000      332.220        0.730      845.450
12/25/2021  19:15:00     -155.000       10.000      -55.000        0.000        0.000        0.000        0.000        0.000        0.000        1.357        0.000      155.322        0.000        0.000      332.220        0.730      845.450
12/25/2021  19:16:00     -155.000       10.000      -55.000        0.000        0.000        0.000        0.000        0.000        0.000        1.357        0.000      155.322        0.000        0.000      332.220        0.730      845.450
12/25/2021  19:17:00     -155.000       10.000      -55.000        0.000        0.000        0.000        0.000        0.000        0.000        1.357        0.000      155.322        0.000        0.000      332.220        0.730      845.450
12/25/2021  19:18:00     -155.000       10.000      -55.000        0.000        0.000        0.000        0.000        0.000        0.000        1.357        0.000      155.322        0.000        0.000      332.220        0.730      845.450
12/25/2021  19:19:00     -155.000       10.000      -55.000        0.000        0.000        0.000        0.000        0.000        0.000        1.357        0.000      155.322        0.000        0.000      332.220        0.730      845.450
12/25/2021  19:20:00     -155.000       10.000      -55.000        0.000        0.000        0.000        0.000        0.000        0.000        1.357        0.000      155.322        0.000        0.000      332.220        0.730      845.450
12/25/2021  19:21:00     -155.000       10.000      -55.000        0.000        0.000        0.000        0.000        0.000        0.000        1.357        0.000      155.322        0.000        0.000      332.220        0.730      845.450
12/25/2021  19:22:00     -155.000       10.000      -55.000        0.000        0.000        0.000        0.000        0.000        0.000        1.357        0.000      155.322        0.000        0.000      332.220        0.730      845.450
12/25/2021  19:23:00     -155.000       10.000      -55.000        0.000        0.000        0.000        0.000        0.000        0.000        1.357        0.000      155.322        0.000        0.000      332.220        0.730      845.450
12/25/2021  19:24:00     -155.000       10.000      -55.000        0.000        0.000        0.000        0.000        0.000        0.000        1.357        0.000      155.322        0.000        0.000      332.220        0.730      845.450
12/25/2021  19:25:00     -155.000       10.000      -55.000        0.000        0.000        0.000        0.000        0.000        0.000        1.357        0.000      155.322        0.000        0.000      332.220        0.730      845.450
12/25/2021  19:26:00     -155.000       10.000      -55.000        0.000        0.000        0.000        0.000        0.000        0.000        1.357        0.000      155.322        0.000        0.000      332.220        0.730      845.450
12/25/2021  19:27:00     -155.000       10.000      -55.000        0.000        0.000        0.000        0.000        0.000        0.000        1.357        0.000      155.322        0.000        0.000      332.220        0.730      845.450
12/25/2021  19:28:00     -155.000       10.000      -55.000        0.000        0.000        0.000        0.000        0.000        0.000        1.357        0.000      155.322        0.000        0.000      332.220        0.730      845.450
12/25/2021  19:29:00     -155.000       10.000      -55.000        0.000        0.000        0.000        0.000        0.000        0.000        1.357        0.000      155.322        0.000        0.000      332.220        0.730      845.450
12/25/2021  19:30:00     -155.000       10.000      -55.000        0.000        0.000        0.000        0.000        0.000        0.000        1.357        0.000      155.322        0.000        0.000      332.220        0.730      845.450
12/25/2021  19:31:00     -155.000       10.000      -55.000        0.000        0.000        0.000        0.000        0.000        0.000        1.357        0.000      155.322        0.000        0.000      332.220        0.730      845.450
12/25/2021  19:32:00     -155.000       10.000      -55.000        0.000        0.000        0.000        0.000        0.000        0.000        1.357        0.000      155.322        0.000        0.000      332.220        0.730      845.450
12/25/2021  19:33:00     -155.000       10.000      -55.000        0.000        0.000        0.000        0.000        0.000        0.000        1.357        0.000      155.322        0.000        0.000      332.220        0.730      845.450
12/25/2021  19:34:00     -155.000       10.000      -55.000        0.000        0.000        0.000        0.000        0.000        0.000        1.357        0.000      155.322        0.000        0.000      332.220        0.730      845.450
12/25/2021  19:35:00     -155.000       10.000      -55.000        0.000        0.000        0.000        0.000        0.000        0.000        1.357        0.000      155.322        0.000        0.000      332.220        0.730      845.450
12/25/2021  19:36:00     -155.000       10.000      -55.000        0.000        0.000        0.000        0.000        0.000        0.000        1.357        0.000      155.322        0.000        0.000      332.220        0.730      845.450
12/25/2021  19:37:00     -155.000       10.000      -55.000        0.000        0.000        0.000        0.000        0.000        0.000        1.357        0.000      155.322        0.000        0.000      332.220        0.730      845.450
12/25/2021  19:38:00     -155.000       10.000      -55.000        0.000        0.000        0.000        0.000        0.000        0.000        1.357        0.000      155.322        0.000        0.000      332.220        0.730      845.450
12/25/2021  19:39:00     -155.000       10.000      -55.000        0.000        0.000        0.000        0.000        0.000        0.000        1.357        0.000      155.322        0.000        0.000      332.220        0.730      845.450
12/25/2021  19:40:00     -155.000       10.000      -55.000        0.000        0.000        0.000        0.000        0.000        0.000        1.357        0.000      155.322        0.000        0.000      332.220        0.730      845.450
12/25/2021  19:41:00     -155.000       10.000      -55.000        0.000        0.000        0.000        0.000        0.000        0.000        1.357        0.000      155.322        0.000        0.000      332.220        0.730      845.450
12/25/2021  19:42:00     -155.000       10.000      -55.000        0.000        0.000        0.000        0.000        0.000        0.000        1.357        0.000      155.322        0.000        0.000      332.220        0.730      845.450
12/25/2021  19:43:00     -155.000       10.000      -55.000        0.000        0.000        0.000        0.000        0.000        0.000        1.357        0.000      155.322        0.000        0.000      332.220        0.730      845.450
12/25/2021  19:44:00     -155.000       10.000      -55.000        0.000        0.000        0.000        0.000        0.000        0.000        1.357        0.000      155.322        0.000        0.000      332.220        0.730      845.450
12/25/2021  19:45:00     -155.000       10.000      -55.000        0.000        0.000        0.000        0.000        0.000        0.000        1.357        0.000      155.322        0.000        0.000      332.220        0.730      845.450
12/25/2021  19:46:00     -155.000       10.000      -55.000        0.000        0.000        0.000        0.000        0.000        0.000        1.357        0.000      155.322        0.000        0.000      332.220        0.730      845.450
12/25/2021  19:47:00     -155.000       10.000      -55.000        0.000        0.000        0.000        0.000        0.000        0.000        1.357        0.000      155.322        0.000        0.000      332.220        0.730      845.450
12/25/2021  19:48:00     -155.000       10.000      -55.000        0.000        0.000        0.000        0.000        0.000        0.000        1.357        0.000      155.322        0.000        0.000      332.220        0.730      845.450
12/25/2021  19:49:00     -155.000       10.000      -55.000        0.000        0.000        0.000        0.000        0.000        0.000        1.357        0.000      155.322        0.000        0.000      332.220        0.730      845.450
12/25/2021  19:50:00     -155.000       10.000      -55.000        0.000        0.000        0.000        0.000        0.000        0.000        1.357        0.000      155.322        0.000        0.000      332.220        0.730      845.450
12/25/2021  19:51:00     -155.000       10.000      -55.000        0.000        0.000        0.000        0.000        0.000        0.000        1.357        0.000      155.322        0.000        0.000      332.220        0.730      845.450
12/25/2021  19:52:00     -155.000       10.000      -55.000        0.000        0.000        0.000        0.000        0.000        0.000        1.357        0.000      155.322        0.000        0.000      332.220        0.730      845.450
12/25/2021  19:53:00     -155.000       10.000      -55.000        0.000        0.000        0.000        0.000        0.000        0.000        1.357        0.000      155.322        0.000        0.000      332.220        0.730      845.450
12/25/2021  19:54:00     -155.000       10.000      -55.000        0.000        0.000        0.000        0.000        0.000        0.000        1.357        0.000      155.322        0.000        0.000      332.220        0.730      845.450
12/25/2021  19:55:00     -155.000       10.000      -55.000        0.000        0.000        0.000        0.000        0.000        0.000        1.357        0.000      155.322        0.000        0.000      332.220        0.730      845.450
12/25/2021  19:56:00     -155.000       10.000      -55.000        0.000        0.000        0.000        0.000        0.000        0.000        1.357        0.000      155.322        0.000        0.000      332.220        0.730      845.450
12/25/2021  19:57:00     -155.000       10.000      -55.000        0.000        0.000        0.000        0.000        0.000        0.000        1.357        0.000      155.322        0.000        0.000      332.220        0.730      845.450
12/25/2021  19:58:00     -155.000       10.000      -55.000        0.000        0.000        0.000        0.000        0.000        0.000        1.357        0.000      155.322        0.000        0.000      332.220        0.730      845.450
12/25/2021  19:59:00     -155.000       10.000      -55.000        0.000        0.000        0.000        0.000        0.000        0.000        1.357        0.000      155.322        0.000        0.000      332.220        0.730      845.450
12/25/2021  20:00:00     -155.000       10.000      -55.000        0.000        0.000        0.000        0.000        0.000        0.000        1.357        0.000      155.322        0.000        0.000      332.220        0.730      845.450
12/25/2021  20:01:00     -155.000       10.000      -55.000        0.000        0.000        0.000        0.000        0.000        0.000        1.357        0.000      155.322        0.000        0.000      332.220        0.730      845.450
12/25/2021  20:02:00     -155.000       10.000      -55.000        0.000        0.000        0.000        0.000        0.000        0.000        1.357        0.000      155.322        0.000        0.000      332.220        0.730      845.450
12/25/2021  20:03:00     -155.000       10.000      -55.000        0.000        0.000        0.000        0.000        0.000        0.000        1.357        0.000      155.322        0.000        0.000      332.220        0.730      845.450
12/25/2021  20:04:00     -155.000       10.000      -55.000        0.000        0.000        0.000        0.000        0.000        0.000        1.357        0.000      155.322        0.000        0.000      332.220        0.730      845.450
12/25/2021  20:05:00     -155.000       10.000      -55.000        0.000        0.000        0.000        0.000        0.000        0.000        1.357        0.000      155.322        0.000        0.000      332.220        0.730      845.450
12/25/2021  20:06:00     -155.000       10.000      -55.000        0.000        0.000        0.000        0.000        0.000        0.000        1.357        0.000      155.322        0.000        0.000      332.220        0.730      845.450
12/25/2021  20:07:00     -155.000       10.000      -55.000        0.000        0.000        0.000        0.000        0.000        0.000        1.357        0.000      155.322        0.000        0.000      332.220        0.730      845.450
12/25/2021  20:08:00     -155.000       10.000      -55.000        0.000        0.000        0.000        0.000        0.000        0.000        1.357        0.000      155.322        0.000        0.000      332.220        0.730      845.450
12/25/2021  20:09:00     -155.000       10.000      -55.000        0.000        0.000        0.000        0.000        0.000        0.000        1.357        0.000      155.322        0.000        0.000      332.220        0.730      845.450
12/25/2021  20:10:00     -155.000       10.000      -55.000        0.000        0.000        0.000        0.000        0.000        0.000        1.357        0.000      155.322        0.000        0.000      332.220        0.730      845.450
12/25/2021  20:11:00     -155.000       10.000      -55.000        0.000        0.000        0.000        0.000        0.000        0.000        1.357        0.000      155.322        0.000        0.000      332.220        0.730      845.450
12/25/2021  20:12:00     -155.000       10.000      -55.000        0.000        0.000        0.000        0.000        0.000        0.000        1.357        0.000      155.322        0.000        0.000      332.220        0.730      845.450
12/25/2021  20:13:00     -155.000       10.000      -55.000        0.000        0.000        0.000        0.000        0.000        0.000        1.357        0.000      155.322        0.000        0.000      332.220        0.730      845.450
12/25/2021  20:14:00     -155.000       10.000      -55.000        0.000        0.000        0.000        0.000        0.000        0.000        1.357        0.000      155.322        0.000        0.000      332.220        0.730      845.450
12/25/2021  20:15:00     -155.000       10.000      -55.000        0.000        0.000        0.000        0.000        0.000        0.000        1.357        0.000      155.322        0.000        0.000      332.220        0.730      845.450
12/25/2021  20:16:00     -155.000       10.000      -55.000        0.000        0.000        0.000        0.000        0.000        0.000        1.357        0.000      155.322        0.000        0.000      332.220        0.730      845.450
12/25/2021  20:17:00     -155.000       10.000      -55.000        0.000        0.000        0.000        0.000        0.000        0.000        1.357        0.000      155.322        0.000        0.000      332.220        0.730      845.450
12/25/2021  20:18:00     -155.000       10.000      -55.000        0.000        0.000        0.000        0.000        0.000        0.000        1.357        0.000      155.322        0.000        0.000      332.220        0.730      845.450
12/25/2021  20:19:00     -155.000       10.000      -55.000        0.000        0.000        0.000        0.000        0.000        0.000        1.357        0.000      155.322        0.000        0.000      332.220        0.730      845.450
12/25/2021  20:20:00     -155.000       10.000      -55.000        0.000        0.000        0.000        0.000        0.000        0.000        1.357        0.000      155.322        0.000        0.000      332.220        0.730      845.450
12/25/2021  20:21:00     -155.000       10.000      -55.000        0.000        0.000        0.000        0.000        0.000        0.000        1.357        0.000      155.322        0.000        0.000      332.220        0.730      845.450
12/25/2021  20:22:00     -155.000       10.000      -55.000        0.000        0.000        0.000        0.000        0.000        0.000        1.357        0.000      155.322        0.000        0.000      332.220        0.730      845.450
12/25/2021  20:23:00     -155.000       10.000      -55.000        0.000        0.000        0.000        0.000        0.000        0.000        1.357        0.000      155.322        0.000        0.000      332.220        0.730      845.450
12/25/2021  20:24:00     -155.000       10.000      -55.000        0.000        0.000        0.000        0.000        0.000        0.000        1.357        0.000      155.322        0.000        0.000      332.220        0.730      845.450
12/25/2021  20:25:00     -155.000       10.000      -55.000        0.000        0.000        0.000        0.000        0.000        0.000        1.357        0.000      155.322        0.000        0.000      332.220        0.730      845.450
12/25/2021  20:26:00     -155.000       10.000      -55.000        0.000        0.000        0.000        0.000        0.000        0.000        1.357        0.000      155.322        0.000        0.000      332.220        0.730      845.450
12/25/2021  20:27:00     -155.000       10.000      -55.000        0.000        0.000        0.000        0.000        0.000        0.000        1.357        0.000      155.322        0.000        0.000      332.220        0.730      845.450
12/25/2021  20:28:00     -155.000       10.000      -55.000        0.000        0.000        0.000        0.000        0.000        0.000        1.357        0.000      155.322        0.000        0.000      332.220        0.730      845.450
12/25/2021  20:29:00     -155.000       10.000      -55.000        0.000        0.000        0.000        0.000        0.000        0.000        1.357        0.000      155.322        0.000        0.000      332.220        0.730      845.450
12/25/2021  20:30:00     -155.000       10.000      -55.000        0.000        0.000        0.000        0.000        0.000        0.000        1.357        0.000      155.322        0.000        0.000      332.220        0.730      845.450
12/25/2021  20:31:00     -155.000       10.000      -55.000        0.000        0.000        0.000        0.000        0.000        0.000        1.357        0.000      155.322        0.000        0.000      332.220        0.730      845.450
12/25/2021  20:32:00     -155.000       10.000      -55.000        0.000        0.000        0.000        0.000        0.000        0.000        1.357        0.000      155.322        0.000        0.000      332.220        0.730      845.450
12/25/2021  20:33:00     -155.000       10.000      -55.000        0.000        0.000        0.000        0.000        0.000        0.000        1.357        0.000      155.322        0.000        0.000      332.220        0.730      845.450
12/25/2021  20:34:00     -155.000       10.000      -55.000        0.000        0.000        0.000        0.000        0.000        0.000        1.357        0.000      155.322        0.000        0.000      332.220        0.730      845.450
12/25/2021  20:35:00     -155.000       10.000      -55.000        0.000        0.000        0.000        0.000        0.000        0.000        1.357        0.000      155.322        0.000        0.000      332.220        0.730      845.450
12/25/2021  20:36:00     -155.000       10.000      -55.000        0.000        0.000        0.000        0.000        0.000        0.000        1.357        0.000      155.322        0.000        0.000      332.220        0.730      845.450
12/25/2021  20:37:00     -155.000       10.000      -55.000        0.000        0.000        0.000        0.000        0.000        0.000        1.357        0.000      155.322        0.000        0.000      332.220        0.730      845.450
12/25/2021  20:38:00     -155.000       10.000      -55.000        0.000        0.000        0.000        0.000        0.000        0.000        1.357        0.000      155.322        0.000        0.000      332.220        0.730      845.450
12/25/2021  20:39:00     -155.000       10.000      -55.000        0.000        0.000        0.000        0.000        0.000        0.000        1.357        0.000      155.322        0.000        0.000      332.220        0.730      845.450
12/25/2021  20:40:00     -155.000       10.000      -55.000        0.000        0.000        0.000        0.000        0.000        0.000        1.357        0.000      155.322        0.000        0.000      332.220        0.730      845.450
12/25/2021  20:41:00     -155.000       10.000      -55.000        0.000        0.000        0.000        0.000        0.000        0.000        1.357        0.000      155.322        0.000        0.000      332.220        0.730      845.450
12/25/2021  20:42:00     -155.000       10.000      -55.000        0.000        0.000        0.000        0.000        0.000        0.000        1.357        0.000      155.322        0.000        0.000      332.220        0.730      845.450
12/25/2021  20:43:00     -155.000       10.000      -55.000        0.000        0.000        0.000        0.000        0.000        0.000        1.357        0.000      155.322        0.000        0.000      332.220        0.730      845.450
12/25/2021  20:44:00     -155.000       10.000      -55.000        0.000        0.000        0.000        0.000        0.000        0.000        1.357        0.000      155.322        0.000        0.000      332.220        0.730      845.450
12/25/2021  20:45:00     -155.000       10.000      -55.000        0.000        0.000        0.000        0.000        0.000        0.000        1.357        0.000      155.322        0.000        0.000      332.220        0.730      845.450
12/25/2021  20:46:00     -155.000       10.000      -55.000        0.000        0.000        0.000        0.000        0.000        0.000        1.357        0.000      155.322        0.000        0.000      332.220        0.730      845.450
12/25/2021  20:47:00     -155.000       10.000      -55.000        0.000        0.000        0.000        0.000        0.000        0.000        1.357        0.000      155.322        0.000        0.000      332.220        0.730      845.450
12/25/2021  20:48:00     -155.000       10.000      -55.000        0.000        0.000        0.000        0.000        0.000        0.000        1.357        0.000      155.322        0.000        0.000      332.220        0.730      845.450
12/25/2021  20:49:00     -155.000       10.000      -55.000        0.000        0.000        0.000        0.000        0.000        0.000        1.357        0.000      155.322        0.000        0.000      332.220        0.730      845.450
12/25/2021  20:50:00     -155.000       10.000      -55.000        0.000        0.000        0.000        0.000        0.000        0.000        1.357        0.000      155.322        0.000        0.000      332.220        0.730      845.450
12/25/2021  20:51:00     -155.000       10.000      -55.000        0.000        0.000        0.000        0.000        0.000        0.000        1.357        0.000      155.322        0.000        0.000      332.220        0.730      845.450
12/25/2021  20:52:00     -155.000       10.000      -55.000        0.000        0.000        0.000        0.000        0.000        0.000        1.357        0.000      155.322        0.000        0.000      332.220        0.730      845.450
12/25/2021  20:53:00     -155.000       10.000      -55.000        0.000        0.000        0.000        0.000        0.000        0.000        1.357        0.000      155.322        0.000        0.000      332.220        0.730      845.450
12/25/2021  20:54:00     -155.000       10.000      -55.000        0.000        0.000        0.000        0.000        0.000        0.000        1.357        0.000      155.322        0.000        0.000      332.220        0.730      845.450
12/25/2021  20:55:00     -155.000       10.000      -55.000        0.000        0.000        0.000        0.000        0.000        0.000        1.357        0.000      155.322        0.000        0.000      332.220        0.730      845.450
12/25/2021  20:56:00     -155.000       10.000      -55.000        0.000        0.000        0.000        0.000        0.000        0.000        1.357        0.000      155.322        0.000        0.000      332.220        0.730      845.450
12/25/2021  20:57:00     -155.000       10.000      -55.000        0.000        0.000        0.000        0.000        0.000        0.000        1.357        0.000      155.322        0.000        0.000      332.220        0.730      845.450
12/25/2021  20:58:00     -155.000       10.000      -55.000        0.000        0.000        0.000        0.000        0.000        0.000        1.357        0.000      155.322        0.000        0.000      332.220        0.730      845.450
12/25/2021  20:59:00     -155.000       10.000      -55.000        0.000        0.000        0.000        0.000        0.000        0.000        1.357        0.000      155.322        0.000        0.000      332.220        0.730      845.450
12/25/2021  21:00:00     -155.000       10.000      -55.000        0.000        0.000        0.000        0.000        0.000        0.000        1.357        0.000      155.322        0.000        0.000      332.220        0.730      845.450
12/25/2021  21:01:00     -155.000       10.000      -55.000        0.000        0.000        0.000        0.000        0.000        0.000        1.357        0.000      155.322        0.000        0.000      332.220        0.730      845.450
12/25/2021  21:02:00     -155.000       10.000      -55.000        0.000        0.000        0.000        0.000        0.000        0.000        1.357        0.000      155.322        0.000        0.000      332.220        0.730      845.450
12/25/2021  21:03:00     -155.000       10.000      -55.000        0.000        0.000        0.000        0.000        0.000        0.000        1.357        0.000      155.322        0.000        0.000      332.220        0.730      845.450
12/25/2021  21:04:00     -155.000       10.000      -55.000        0.000        0.000        0.000        0.000        0.000        0.000        1.357        0.000      155.322        0.000        0.000      332.220        0.730      845.450
12/25/2021  21:05:00     -155.000       10.000      -55.000        0.000        0.000        0.000        0.000        0.000        0.000        1.357        0.000      155.322        0.000        0.000      332.220        0.730      845.450
12/25/2021  21:06:00     -155.000       10.000      -55.000        0.000        0.000        0.000        0.000        0.000        0.000        1.357        0.000      155.322        0.000        0.000      332.220        0.730      845.450
12/25/2021  21:07:00     -155.000       10.000      -55.000        0.000        0.000        0.000        0.000        0.000        0.000        1.357        0.000      155.322        0.000        0.000      332.220        0.730      845.450
12/25/2021  21:08:00     -155.000       10.000      -55.000        0.000        0.000        0.000        0.000        0.000        0.000        1.357        0.000      155.322        0.000        0.000      332.220        0.730      845.450
12/25/2021  21:09:00     -155.000       10.000      -55.000        0.000        0.000        0.000        0.000        0.000        0.000        1.357        0.000      155.322        0.000        0.000      332.220        0.730      845.450
12/25/2021  21:10:00     -155.000       10.000      -55.000        0.000        0.000        0.000        0.000        0.000        0.000        1.357        0.000      155.322        0.000        0.000      332.220        0.730      845.450
12/25/2021  21:11:00     -155.000       10.000      -55.000        0.000        0.000        0.000        0.000        0.000        0.000        1.357        0.000      155.322        0.000        0.000      332.220        0.730      845.450
12/25/2021  21:12:00     -155.000       10.000      -55.000        0.000        0.000        0.000        0.000        0.000        0.000        1.357        0.000      155.322        0.000        0.000      332.220        0.730      845.450
12/25/2021  21:13:00     -155.000       10.000      -55.000        0.000        0.000        0.000        0.000        0.000        0.000        1.357        0.000      155.322        0.000        0.000      332.220        0.730      845.450
12/25/2021  21:14:00     -155.000       10.000      -55.000        0.000        0.000        0.000        0.000        0.000        0.000        1.357        0.000      155.322        0.000        0.000      332.220        0.730      845.450
12/25/2021  21:15:00     -155.000       10.000      -55.000        0.000        0.000        0.000        0.000        0.000        0.000        1.357        0.000      155.322        0.000        0.000      332.220        0.730      845.450
12/25/2021  21:16:00     -155.000       10.000      -55.000        0.000        0.000        0.000        0.000        0.000        0.000        1.357        0.000      155.322        0.000        0.000      332.220        0.730      845.450
12/25/2021  21:17:00     -155.000       10.000      -55.000        0.000        0.000        0.000        0.000        0.000        0.000        1.357        0.000      155.322        0.000        0.000      332.220        0.730      845.450
12/25/2021  21:18:00     -155.000       10.000      -55.000        0.000        0.000        0.000        0.000        0.000        0.000        1.357        0.000      155.322        0.000        0.000      332.220        0.730      845.450
12/25/2021  21:19:00     -155.000       10.000      -55.000        0.000        0.000        0.000        0.000        0.000        0.000        1.357        0.000      155.322        0.000        0.000      332.220        0.730      845.450
12/25/2021  21:20:00     -155.000       10.000      -55.000        0.000        0.000        0.000        0.000        0.000        0.000        1.357        0.000      155.322        0.000        0.000      332.220        0.730      845.450
12/25/2021  21:21:00     -155.000       10.000      -55.000        0.000        0.000        0.000        0.000        0.000        0.000        1.357        0.000      155.322        0.000        0.000      332.220        0.730      845.450
12/25/2021  21:22:00     -155.000       10.000      -55.000        0.000        0.000        0.000        0.000        0.000        0.000        1.357        0.000      155.322        0.000        0.000      332.220        0.730      845.450
12/25/2021  21:23:00     -155.000       10.000      -55.000        0.000        0.000        0.000        0.000        0.000        0.000        1.357        0.000      155.322        0.000        0.000      332.220        0.730      845.450
12/25/2021  21:24:00     -155.000       10.000      -55.000        0.000        0.000        0.000        0.000        0.000        0.000        1.357        0.000      155.322        0.000        0.000      332.220        0.730      845.450
12/25/2021  21:25:00     -155.000       10.000      -55.000        0.000        0.000        0.000        0.000        0.000        0.000        1.357        0.000      155.322        0.000        0.000      332.220        0.730      845.450
12/25/2021  21:26:00     -155.000       10.000      -55.000        0.000        0.000        0.000        0.000        0.000        0.000        1.357        0.000      155.322        0.000        0.000      332.220        0.730      845.450
12/25/2021  21:27:00     -155.000       10.000      -55.000        0.000        0.000        0.000        0.000        0.000        0.000        1.357        0.000      155.322        0.000        0.000      332.220        0.730      845.450
12/25/2021  21:28:00     -155.000       10.000      -55.000        0.000        0.000        0.000        0.000        0.000        0.000        1.357        0.000      155.322        0.000        0.000      332.220        0.730      845.450
12/25/2021  21:29:00     -155.000       10.000      -55.000        0.000        0.000        0.000        0.000        0.000        0.000        1.357        0.000      155.322        0.000        0.000      332.220        0.730      845.450
12/25/2021  21:30:00     -155.000       10.000      -55.000        0.000        0.000        0.000        0.000        0.000        0.000        1.357        0.000      155.322        0.000        0.000      332.220        0.730      845.450
12/25/2021  21:31:00     -155.000       10.000      -55.000        0.000        0.000        0.000        0.000        0.000        0.000        1.357        0.000      155.322        0.000        0.000      332.220        0.730      845.450
12/25/2021  21:32:00     -155.000       10.000      -55.000        0.000        0.000        0.000        0.000        0.000        0.000        1.357        0.000      155.322        0.000        0.000      332.220        0.730      845.450
12/25/2021  21:33:00     -155.000       10.000      -55.000        0.000        0.000        0.000        0.000        0.000        0.000        1.357        0.000      155.322        0.000        0.000      332.220        0.730      845.450
12/25/2021  21:34:00     -155.000       10.000      -55.000        0.000        0.000        0.000        0.000        0.000        0.000        1.357        0.000      155.322        0.000        0.000      332.220        0.730      845.450
12/25/2021  21:35:00     -155.000       10.000      -55.000        0.000        0.000        0.000        0.000        0.000        0.000        1.357        0.000      155.322        0.000        0.000      332.220        0.730      845.450
12/25/2021  21:36:00     -155.000       10.000      -55.000        0.000        0.000        0.000        0.000        0.000        0.000        1.357        0.000      155.322        0.000        0.000      332.220        0.730      845.450
12/25/2021  21:37:00     -155.000       10.000      -55.000        0.000        0.000        0.000        0.000        0.000        0.000        1.357        0.000      155.322        0.000        0.000      332.220        0.730      845.450
12/25/2021  21:38:00     -155.000       10.000      -55.000        0.000        0.000        0.000        0.000        0.000        0.000        1.357        0.000      155.322        0.000        0.000      332.220        0.730      845.450
12/25/2021  21:39:00     -155.000       10.000      -55.000        0.000        0.000        0.000        0.000        0.000        0.000        1.357        0.000      155.322        0.000        0.000      332.220        0.730      845.450
12/25/2021  21:40:00     -155.000       10.000      -55.000        0.000        0.000        0.000        0.000        0.000        0.000        1.357        0.000      155.322        0.000        0.000      332.220        0.730      845.450
12/25/2021  21:41:00     -155.000       10.000      -55.000        0.000        0.000        0.000        0.000        0.000        0.000        1.357        0.000      155.322        0.000        0.000      332.220        0.730      845.450
12/25/2021  21:42:00     -155.000       10.000      -55.000        0.000        0.000        0.000        0.000        0.000        0.000        1.357        0.000      155.322        0.000        0.000      332.220        0.730      845.450
12/25/2021  21:43:00     -155.000       10.000      -55.000        0.000        0.000        0.000        0.000        0.000        0.000        1.357        0.000      155.322        0.000        0.000      332.220        0.730      845.450
12/25/2021  21:44:00     -155.000       10.000      -55.000        0.000        0.000        0.000        0.000        0.000        0.000        1.357        0.000      155.322        0.000        0.000      332.220        0.730      845.450
12/25/2021  21:45:00     -155.000       10.000      -55.000        0.000        0.000        0.000        0.000        0.000        0.000        1.357        0.000      155.322        0.000        0.000      332.220        0.730      845.450
12/25/2021  21:46:00     -155.000       10.000      -55.000        0.000        0.000        0.000        0.000        0.000        0.000        1.357        0.000      155.322        0.000        0.000      332.220        0.730      845.450
12/25/2021  21:47:00     -155.000       10.000      -55.000        0.000        0.000        0.000        0.000        0.000        0.000        1.357        0.000      155.322        0.000        0.000      332.220        0.730      845.450
12/25/2021  21:48:00     -155.000       10.000      -55.000        0.000        0.000        0.000        0.000        0.000        0.000        1.357        0.000      155.322        0.000        0.000      332.220        0.730      845.450
12/25/2021  21:49:00     -155.000       10.000      -55.000        0.000        0.000        0.000        0.000        0.000        0.000        1.357        0.000      155.322        0.000        0.000      332.220        0.730      845.450
12/25/2021  21:50:00     -155.000       10.000      -55.000        0.000        0.000        0.000        0.000        0.000        0.000        1.357        0.000      155.322        0.000        0.000      332.220        0.730      845.450
12/25/2021  21:51:00     -155.000       10.000      -55.000        0.000        0.000        0.000        0.000        0.000        0.000        1.357        0.000      155.322        0.000        0.000      332.220        0.730      845.450
12/25/2021  21:52:00     -155.000       10.000      -55.000        0.000        0.000        0.000        0.000        0.000        0.000        1.357        0.000      155.322        0.000        0.000      332.220        0.730      845.450
12/25/2021  21:53:00     -155.000       10.000      -55.000        0.000        0.000        0.000        0.000        0.000        0.000        1.357        0.000      155.322        0.000        0.000      332.220        0.730      845.450
12/25/2021  21:54:00     -155.000       10.000      -55.000        0.000        0.000        0.000        0.000        0.000        0.000        1.357        0.000      155.322        0.000        0.000      332.220        0.730      845.450
12/25/2021  21:55:00     -155.000       10.000      -55.000        0.000        0.000        0.000        0.000        0.000        0.000        1.357        0.000      155.322        0.000        0.000      332.220        0.730      845.450
12/25/2021  21:56:00     -155.000       10.000      -55.000        0.000        0.000        0.000        0.000        0.000        0.000        1.357        0.000      155.322        0.000        0.000      332.220        0.730      845.450
12/25/2021  21:57:00     -155.000       10.000      -55.000        0.000        0.000        0.000        0.000        0.000        0.000        1.357        0.000      155.322        0.000        0.000      332.220        0.730      845.450
12/25/2021  21:58:00     -155.000       10.000      -55.000        0.000        0.000        0.000        0.000        0.000        0.000        1.357        0.000      155.322        0.000        0.000      332.220        0.730      845.450
12/25/2021  21:59:00     -155.000       10.000      -55.000        0.000        0.000        0.000        0.000        0.000        0.000        1.357        0.000      155.322        0.000        0.000      332.220        0.730      845.450
12/25/2021  22:00:00     -155.000       10.000      -55.000        0.000        0.000        0.000        0.000        0.000        0.000        1.357        0.000      155.322        0.000        0.000      332.220        0.730      845.450
12/25/2021  22:01:00     -155.000       10.000      -55.000        0.000        0.000        0.000        0.000        0.000        0.000        1.357        0.000      155.322        0.000        0.000      332.220        0.730      845.450
12/25/2021  22:02:00     -155.000       10.000      -55.000        0.000        0.000        0.000        0.000        0.000        0.000        1.357        0.000      155.322        0.000        0.000      332.220        0.730      845.450
12/25/2021  22:03:00     -155.000       10.000      -55.000        0.000        0.000        0.000        0.000        0.000        0.000        1.357        0.000      155.322        0.000        0.000      332.220        0.730      845.450
12/25/2021  22:04:00     -155.000       10.000      -55.000        0.000        0.000        0.000        0.000        0.000        0.000        1.357        0.000      155.322        0.000        0.000      332.220        0.730      845.450
12/25/2021  22:05:00     -155.000       10.000      -55.000        0.000        0.000        0.000        0.000        0.000        0.000        1.357        0.000      155.322        0.000        0.000      332.220        0.730      845.450
12/25/2021  22:06:00     -155.000       10.000      -55.000        0.000        0.000        0.000        0.000        0.000        0.000        1.357        0.000      155.322        0.000        0.000      332.220        0.730      845.450
12/25/2021  22:07:00     -155.000       10.000      -55.000        0.000        0.000        0.000        0.000        0.000        0.000        1.357        0.000      155.322        0.000        0.000      332.220        0.730      845.450
12/25/2021  22:08:00     -155.000       10.000      -55.000        0.000        0.000        0.000        0.000        0.000        0.000        1.357        0.000      155.322        0.000        0.000      332.220        0.730      845.450
12/25/2021  22:09:00     -155.000       10.000      -55.000        0.000        0.000        0.000        0.000        0.000        0.000        1.357        0.000      155.322        0.000        0.000      332.220        0.730      845.450
12/25/2021  22:10:00     -155.000       10.000      -55.000        0.000        0.000        0.000        0.000        0.000        0.000        1.357        0.000      155.322        0.000        0.000      332.220        0.730      845.450
12/25/2021  22:11:00     -155.000       10.000      -55.000        0.000        0.000        0.000        0.000        0.000        0.000        1.357        0.000      155.322        0.000        0.000      332.220        0.730      845.450
12/25/2021  22:12:00     -155.000       10.000      -55.000        0.000        0.000        0.000        0.000        0.000        0.000        1.357        0.000      155.322        0.000        0.000      332.220        0.730      845.450
12/25/2021  22:13:00     -155.000       10.000      -55.000        0.000        0.000        0.000        0.000        0.000        0.000        1.357        0.000      155.322        0.000        0.000      332.220        0.730      845.450
12/25/2021  22:14:00     -155.000       10.000      -55.000        0.000        0.000        0.000        0.000        0.000        0.000        1.357        0.000      155.322        0.000        0.000      332.220        0.730      845.450
12/25/2021  22:15:00     -155.000       10.000      -55.000        0.000        0.000        0.000        0.000        0.000        0.000        1.357        0.000      155.322        0.000        0.000      332.220        0.730      845.450
12/25/2021  22:16:00     -155.000       10.000      -55.000        0.000        0.000        0.000        0.000        0.000        0.000        1.357        0.000      155.322        0.000        0.000      332.220        0.730      845.450
12/25/2021  22:17:00     -155.000       10.000      -55.000        0.000        0.000        0.000        0.000        0.000        0.000        1.357        0.000      155.322        0.000        0.000      332.220        0.730      845.450
12/25/2021  22:18:00     -155.000       10.000      -55.000        0.000        0.000        0.000        0.000        0.000        0.000        1.357        0.000      155.322        0.000        0.000      332.220        0.730      845.450
12/25/2021  22:19:00     -155.000       10.000      -55.000        0.000        0.000        0.000        0.000        0.000        0.000        1.357        0.000      155.322        0.000        0.000      332.220        0.730      845.450
12/25/2021  22:20:00     -155.000       10.000      -55.000        0.000        0.000        0.000        0.000        0.000        0.000        1.357        0.000      155.322        0.000        0.000      332.220        0.730      845.450
12/25/2021  22:21:00     -155.000       10.000      -55.000        0.000        0.000        0.000        0.000        0.000        0.000        1.357        0.000      155.322        0.000        0.000      332.220        0.730      845.450
12/25/2021  22:22:00     -155.000       10.000      -55.000        0.000        0.000        0.000        0.000        0.000        0.000        1.357        0.000      155.322        0.000        0.000      332.220        0.730      845.450
12/25/2021  22:23:00     -155.000       10.000      -55.000        0.000        0.000        0.000        0.000        0.000        0.000        1.357        0.000      155.322        0.000        0.000      332.220        0.730      845.450
12/25/2021  22:24:00     -155.000       10.000      -55.000        0.000        0.000        0.000        0.000        0.000        0.000        1.357        0.000      155.322        0.000        0.000      332.220        0.730      845.450
12/25/2021  22:25:00     -155.000       10.000      -55.000        0.000        0.000        0.000        0.000        0.000        0.000        1.357        0.000      155.322        0.000        0.000      332.220        0.730      845.450
12/25/2021  22:26:00     -155.000       10.000      -55.000        0.000        0.000        0.000        0.000        0.000        0.000        1.357        0.000      155.322        0.000        0.000      332.220        0.730      845.450
12/25/2021  22:27:00     -155.000       10.000      -55.000        0.000        0.000        0.000        0.000        0.000        0.000        1.357        0.000      155.322        0.000        0.000      332.220        0.730      845.450
12/25/2021  22:28:00     -155.000       10.000      -55.000        0.000        0.000        0.000        0.000        0.000        0.000        1.357        0.000      155.322        0.000        0.000      332.220        0.730      845.450
12/25/2021  22:29:00     -155.000       10.000      -55.000        0.000        0.000        0.000        0.000        0.000        0.000        1.357        0.000      155.322        0.000        0.000      332.220        0.730      845.450
12/25/2021  22:30:00     -155.000       10.000      -55.000        0.000        0.000        0.000        0.000        0.000        0.000        1.357        0.000      155.322        0.000        0.000      332.220        0.730      845.450
12/25/2021  22:31:00     -155.000       10.000      -55.000        0.000        0.000        0.000        0.000        0.000        0.000        1.357        0.000      155.322        0.000        0.000      332.220        0.730      845.450
12/25/2021  22:32:00     -155.000       10.000      -55.000        0.000        0.000        0.000        0.000        0.000        0.000        1.357        0.000      155.322        0.000        0.000      332.220        0.730      845.450
12/25/2021  22:33:00     -155.000       10.000      -55.000        0.000        0.000        0.000        0.000        0.000        0.000        1.357        0.000      155.322        0.000        0.000      332.220        0.730      845.450
12/25/2021  22:34:00     -155.000       10.000      -55.000        0.000        0.000        0.000        0.000        0.000        0.000        1.357        0.000      155.322        0.000        0.000      332.220        0.730      845.450
12/25/2021  22:35:00     -155.000       10.000      -55.000        0.000        0.000        0.000        0.000        0.000        0.000        1.357        0.000      155.322        0.000        0.000      332.220        0.730      845.450
12/25/2021  22:36:00     -155.000       10.000      -55.000        0.000        0.000        0.000        0.000        0.000        0.000        1.357        0.000      155.322        0.000        0.000      332.220        0.730      845.450
12/25/2021  22:37:00     -155.000       10.000      -55.000        0.000        0.000        0.000        0.000        0.000        0.000        1.357        0.000      155.322        0.000        0.000      332.220        0.730      845.450
12/25/2021  22:38:00     -155.000       10.000      -55.000        0.000        0.000        0.000        0.000        0.000        0.000        1.357        0.000      155.322        0.000        0.000      332.220        0.730      845.450
12/25/2021  22:39:00     -155.000       10.000      -55.000        0.000        0.000        0.000        0.000        0.000        0.000        1.357        0.000      155.322        0.000        0.000      332.220        0.730      845.450
12/25/2021  22:40:00     -155.000       10.000      -55.000        0.000        0.000        0.000        0.000        0.000        0.000        1.357        0.000      155.322        0.000        0.000      332.220        0.730      845.450
12/25/2021  22:41:00     -155.000       10.000      -55.000        0.000        0.000        0.000        0.000        0.000        0.000        1.357        0.000      155.322        0.000        0.000      332.220        0.730      845.450
12/25/2021  22:42:00     -155.000       10.000      -55.000        0.000        0.000        0.000        0.000        0.000        0.000        1.357        0.000      155.322        0.000        0.000      332.220        0.730      845.450
12/25/2021  22:43:00     -155.000       10.000      -55.000        0.000        0.000        0.000        0.000        0.000        0.000        1.357        0.000      155.322        0.000        0.000      332.220        0.730      845.450
12/25/2021  22:44:00     -155.000       10.000      -55.000        0.000        0.000        0.000        0.000        0.000        0.000        1.357        0.000      155.322        0.000        0.000      332.220        0.730      845.450
12/25/2021  22:45:00     -155.000       10.000      -55.000        0.000        0.000        0.000        0.000        0.000        0.000        1.357        0.000      155.322        0.000        0.000      332.220        0.730      845.450
12/25/2021  22:46:00     -155.000       10.000      -55.000        0.000        0.000        0.000        0.000        0.000        0.000        1.357        0.000      155.322        0.000        0.000      332.220        0.730      845.450
12/25/2021  22:47:00     -155.000       10.000      -55.000        0.000        0.000        0.000        0.000        0.000        0.000        1.357        0.000      155.322        0.000        0.000      332.220        0.730      845.450
12/25/2021  22:48:00     -155.000       10.000      -55.000        0.000        0.000        0.000        0.000        0.000        0.000        1.357        0.000      155.322        0.000        0.000      332.220        0.730      845.450
12/25/2021  22:49:00     -155.000       10.000      -55.000        0.000        0.000        0.000        0.000        0.000        0.000        1.357        0.000      155.322        0.000        0.000      332.220        0.730      845.450
12/25/2021  22:50:00     -155.000       10.000      -55.000        0.000        0.000        0.000        0.000        0.000        0.000        1.357        0.000      155.322        0.000        0.000      332.220        0.730      845.450
12/25/2021  22:51:00     -155.000       10.000      -55.000        0.000        0.000        0.000        0.000        0.000        0.000        1.357        0.000      155.322        0.000        0.000      332.220        0.730      845.450
12/25/2021  22:52:00     -155.000       10.000      -55.000        0.000        0.000        0.000        0.000        0.000        0.000        1.357        0.000      155.322        0.000        0.000      332.220        0.730      845.450
12/25/2021  22:53:00     -155.000       10.000      -55.000        0.000        0.000        0.000        0.000        0.000        0.000        1.357        0.000      155.322        0.000        0.000      332.220        0.730      845.450
12/25/2021  22:54:00     -155.000       10.000      -55.000        0.000        0.000        0.000        0.000        0.000        0.000        1.357        0.000      155.322        0.000        0.000      332.220        0.730      845.450
12/25/2021  22:55:00     -155.000       10.000      -55.000        0.000        0.000        0.000        0.000        0.000        0.000        1.357        0.000      155.322        0.000        0.000      332.220        0.730      845.450
12/25/2021  22:56:00     -155.000       10.000      -55.000        0.000        0.000        0.000        0.000        0.000        0.000        1.357        0.000      155.322        0.000        0.000      332.220        0.730      845.450
12/25/2021  22:57:00     -155.000       10.000      -55.000        0.000        0.000        0.000        0.000        0.000        0.000        1.357        0.000      155.322        0.000        0.000      332.220        0.730      845.450
12/25/2021  22:58:00     -155.000       10.000      -55.000        0.000        0.000        0.000        0.000        0.000        0.000        1.357        0.000      155.322        0.000        0.000      332.220        0.730      845.450
12/25/2021  22:59:00     -155.000       10.000      -55.000        0.000        0.000        0.000        0.000        0.000        0.000        1.357        0.000      155.322        0.000        0.000      332.220        0.730      845.450
12/25/2021  23:00:00     -155.000       10.000      -55.000        0.000        0.000        0.000        0.000        0.000        0.000        1.357        0.000      155.322        0.000        0.000      332.220        0.730      845.450
12/25/2021  23:01:00     -155.000       10.000      -55.000        0.000        0.000        0.000        0.000        0.000        0.000        1.357        0.000      155.322        0.000        0.000      332.220        0.730      845.450
12/25/2021  23:02:00     -155.000       10.000      -55.000        0.000        0.000        0.000        0.000        0.000        0.000        1.357        0.000      155.322        0.000        0.000      332.220        0.730      845.450
12/25/2021  23:03:00     -155.000       10.000      -55.000        0.000        0.000        0.000        0.000        0.000        0.000        1.357        0.000      155.322        0.000        0.000      332.220        0.730      845.450
12/25/2021  23:04:00     -155.000       10.000      -55.000        0.000        0.000        0.000        0.000        0.000        0.000        1.357        0.000      155.322        0.000        0.000      332.220        0.730      845.450
12/25/2021  23:05:00     -155.000       10.000      -55.000        0.000        0.000        0.000        0.000        0.000        0.000        1.357        0.000      155.322        0.000        0.000      332.220        0.730      845.450
12/25/2021  23:06:00     -155.000       10.000      -55.000        0.000        0.000        0.000        0.000        0.000        0.000        1.357        0.000      155.322        0.000        0.000      332.220        0.730      845.450
12/25/2021  23:07:00     -155.000       10.000      -55.000        0.000        0.000        0.000        0.000        0.000        0.000        1.357        0.000      155.322        0.000        0.000      332.220        0.730      845.450
12/25/2021  23:08:00     -155.000       10.000      -55.000        0.000        0.000        0.000        0.000        0.000        0.000        1.357        0.000      155.322        0.000        0.000      332.220        0.730      845.450
12/25/2021  23:09:00     -155.000       10.000      -55.000        0.000        0.000        0.000        0.000        0.000        0.000        1.357        0.000      155.322        0.000        0.000      332.220        0.730      845.450
12/25/2021  23:10:00     -155.000       10.000      -55.000        0.000        0.000        0.000        0.000        0.000        0.000        1.357        0.000      155.322        0.000        0.000      332.220        0.730      845.450
12/25/2021  23:11:00     -155.000       10.000      -55.000        0.000        0.000        0.000        0.000        0.000        0.000        1.357        0.000      155.322        0.000        0.000      332.220        0.730      845.450
12/25/2021  23:12:00     -155.000       10.000      -55.000        0.000        0.000        0.000        0.000        0.000        0.000        1.357        0.000      155.322        0.000        0.000      332.220        0.730      845.450
12/25/2021  23:13:00     -155.000       10.000      -55.000        0.000        0.000        0.000        0.000        0.000        0.000        1.357        0.000      155.322        0.000        0.000      332.220        0.730      845.450
12/25/2021  23:14:00     -155.000       10.000      -55.000        0.000        0.000        0.000        0.000        0.000        0.000        1.357        0.000      155.322        0.000        0.000      332.220        0.730      845.450
12/25/2021  23:15:00     -155.000       10.000      -55.000        0.000        0.000        0.000        0.000        0.000        0.000        1.357        0.000      155.322        0.000        0.000      332.220        0.730      845.450
12/25/2021  23:16:00     -155.000       10.000      -55.000        0.000        0.000        0.000        0.000        0.000        0.000        1.357        0.000      155.322        0.000        0.000      332.220        0.730      845.450
12/25/2021  23:17:00     -155.000       10.000      -55.000        0.000        0.000        0.000        0.000        0.000        0.000        1.357        0.000      155.322        0.000        0.000      332.220        0.730      845.450
12/25/2021  23:18:00     -155.000       10.000      -55.000        0.000        0.000        0.000        0.000        0.000        0.000        1.357        0.000      155.322        0.000        0.000      332.220        0.730      845.450
12/25/2021  23:19:00     -155.000       10.000      -55.000        0.000        0.000        0.000        0.000        0.000        0.000        1.357        0.000      155.322        0.000        0.000      332.220        0.730      845.450
12/25/2021  23:20:00     -155.000       10.000      -55.000        0.000        0.000        0.000        0.000        0.000        0.000        1.357        0.000      155.322        0.000        0.000      332.220        0.730      845.450
12/25/2021  23:21:00     -155.000       10.000      -55.000        0.000        0.000        0.000        0.000        0.000        0.000        1.357        0.000      155.322        0.000        0.000      332.220        0.730      845.450
12/25/2021  23:22:00     -155.000       10.000      -55.000        0.000        0.000        0.000        0.000        0.000        0.000        1.357        0.000      155.322        0.000        0.000      332.220        0.730      845.450
12/25/2021  23:23:00     -155.000       10.000      -55.000        0.000        0.000        0.000        0.000        0.000        0.000        1.357        0.000      155.322        0.000        0.000      332.220        0.730      845.450
12/25/2021  23:24:00     -155.000       10.000      -55.000        0.000        0.000        0.000        0.000        0.000        0.000        1.357        0.000      155.322        0.000        0.000      332.220        0.730      845.450
12/25/2021  23:25:00     -155.000       10.000      -55.000        0.000        0.000        0.000        0.000        0.000        0.000        1.357        0.000      155.322        0.000        0.000      332.220        0.730      845.450
12/25/2021  23:26:00     -155.000       10.000      -55.000        0.000        0.000        0.000        0.000        0.000        0.000        1.357        0.000      155.322        0.000        0.000      332.220        0.730      845.450
12/25/2021  23:27:00     -155.000       10.000      -55.000        0.000        0.000        0.000        0.000        0.000        0.000        1.357        0.000      155.322        0.000        0.000      332.220        0.730      845.450
12/25/2021  23:28:00     -155.000       10.000      -55.000        0.000        0.000        0.000        0.000        0.000        0.000        1.357        0.000      155.322        0.000        0.000      332.220        0.730      845.450
12/25/2021  23:29:00     -155.000       10.000      -55.000        0.000        0.000        0.000        0.000        0.000        0.000        1.357        0.000      155.322        0.000        0.000      332.220        0.730      845.450
12/25/2021  23:30:00     -155.000       10.000      -55.000        0.000        0.000        0.000        0.000        0.000        0.000        1.357        0.000      155.322        0.000        0.000      332.220        0.730      845.450
12/25/2021  23:31:00     -155.000       10.000      -55.000        0.000        0.000        0.000        0.000        0.000        0.000        1.357        0.000      155.322        0.000        0.000      332.220        0.730      845.450
12/25/2021  23:32:00     -155.000       10.000      -55.000        0.000        0.000        0.000        0.000        0.000        0.000        1.357        0.000      155.322        0.000        0.000      332.220        0.730      845.450
12/25/2021  23:33:00     -155.000       10.000      -55.000        0.000        0.000        0.000        0.000        0.000        0.000        1.357        0.000      155.322        0.000        0.000      332.220        0.730      845.450
12/25/2021  23:34:00     -155.000       10.000      -55.000        0.000        0.000        0.000        0.000        0.000        0.000        1.357        0.000      155.322        0.000        0.000      332.220        0.730      845.450
12/25/2021  23:35:00     -155.000       10.000      -55.000        0.000        0.000        0.000        0.000        0.000        0.000        1.357        0.000      155.322        0.000        0.000      332.220        0.730      845.450
12/25/2021  23:36:00     -155.000       10.000      -55.000        0.000        0.000        0.000        0.000        0.000        0.000        1.357        0.000      155.322        0.000        0.000      332.220        0.730      845.450
12/25/2021  23:37:00     -155.000       10.000      -55.000        0.000        0.000        0.000        0.000        0.000        0.000        1.357        0.000      155.322        0.000        0.000      332.220        0.730      845.450
12/25/2021  23:38:00     -155.000       10.000      -55.000        0.000        0.000        0.000        0.000        0.000        0.000        1.357        0.000      155.322        0.000        0.000      332.220        0.730      845.450
12/25/2021  23:39:00     -155.000       10.000      -55.000        0.000        0.000        0.000        0.000        0.000        0.000        1.357        0.000      155.322        0.000        0.000      332.220        0.730      845.450
12/25/2021  23:40:00     -155.000       10.000      -55.000        0.000        0.000        0.000        0.000        0.000        0.000        1.357        0.000      155.322        0.000        0.000      332.220        0.730      845.450
12/25/2021  23:41:00     -155.000       10.000      -55.000        0.000        0.000        0.000        0.000        0.000        0.000        1.357        0.000      155.322        0.000        0.000      332.220        0.730      845.450
12/25/2021  23:42:00     -155.000       10.000      -55.000        0.000        0.000        0.000        0.000        0.000        0.000        1.357        0.000      155.322        0.000        0.000      332.220        0.730      845.450
12/25/2021  23:43:00     -155.000       10.000      -55.000        0.000        0.000        0.000        0.000        0.000        0.000        1.357        0.000      155.322        0.000        0.000      332.220        0.730      845.450
12/25/2021  23:44:00     -155.000       10.000      -55.000        0.000        0.000        0.000        0.000        0.000        0.000        1.357        0.000      155.322        0.000        0.000      332.220        0.730      845.450
12/25/2021  23:45:00     -155.000       10.000      -55.000        0.000        0.000        0.000        0.000        0.000        0.000        1.357        0.000      155.322        0.000        0.000      332.220        0.730      845.450
12/25/2021  23:46:00     -155.000       10.000      -55.000        0.000        0.000        0.000        0.000        0.000        0.000        1.357        0.000      155.322        0.000        0.000      332.220        0.730      845.450
12/25/2021  23:47:00     -155.000       10.000      -55.000        0.000        0.000        0.000        0.000        0.000        0.000        1.357        0.000      155.322        0.000        0.000      332.220        0.730      845.450
12/25/2021  23:48:00     -155.000       10.000      -55.000        0.000        0.000        0.000        0.000        0.000        0.000        1.357        0.000      155.322        0.000        0.000      332.220        0.730      845.450
12/25/2021  23:49:00     -155.000       10.000      -55.000        0.000        0.000        0.000        0.000        0.000        0.000        1.357        0.000      155.322        0.000        0.000      332.220        0.730      845.450
12/25/2021  23:50:00     -155.000       10.000      -55.000        0.000        0.000        0.000        0.000        0.000        0.000        1.357        0.000      155.322        0.000        0.000      332.220        0.730      845.450
12/25/2021  23:51:00     -155.000       10.000      -55.000        0.000        0.000        0.000        0.000        0.000        0.000        1.357        0.000      155.322        0.000        0.000      332.220        0.730      845.450
12/25/2021  23:52:00     -155.000       10.000      -55.000        0.000        0.000        0.000        0.000        0.000        0.000        1.357        0.000      155.322        0.000        0.000      332.220        0.730      845.450
12/25/2021  23:53:00     -155.000       10.000      -55.000        0.000        0.000        0.000        0.000        0.000        0.000        1.357        0.000      155.322        0.000        0.000      332.220        0.730      845.450
12/25/2021  23:54:00     -155.000       10.000      -55.000        0.000        0.000        0.000        0.000        0.000        0.000        1.357        0.000      155.322        0.000        0.000      332.220        0.730      845.450
12/25/2021  23:55:00     -155.000       10.000      -55.000        0.000        0.000        0.000        0.000        0.000        0.000        1.357        0.000      155.322        0.000        0.000      332.220        0.730      845.450
12/25/2021  23:56:00     -155.000       10.000      -55.000        0.000        0.000        0.000        0.000        0.000        0.000        1.357        0.000      155.322        0.000        0.000      332.220        0.730      845.450
12/25/2021  23:57:00     -155.000       10.000      -55.000        0.000        0.000        0.000        0.000        0.000        0.000        1.357        0.000      155.322        0.000        0.000      332.220        0.730      845.450
12/25/2021  23:58:00     -155.000       10.000      -55.000        0.000        0.000        0.000        0.000        0.000        0.000        1.357        0.000      155.322        0.000        0.000      332.220        0.730      845.450
12/25/2021  23:59:00     -155.000       10.000      -55.000        0.000        0.000        0.000        0.000        0.000        0.000        1.357        0.000      155.322        0.000        0.000      332.220        0.730      845.450
12/26/2021  00:00:00     -155.000       10.000      -55.000        0.000        0.000        0.000        0.000        0.000        0.000        1.357        0.000      155.322        0.000        0.000      332.220        0.730      845.450
12/26/2021  00:01:00     -155.000       10.000      -55.000        0.000        0.000        0.000        0.000        0.000        0.000        1.357        0.000      155.322        0.000        0.000      332.220        0.730      845.450
12/26/2021  00:02:00     -155.000       10.000      -55.000        0.000        0.000        0.000        0.000        0.000        0.000        1.357        0.000      155.322        0.000        0.000      332.220        0.730      845.450
12/26/2021  00:03:00     -155.000       10.000      -55.000        0.000        0.000        0.000        0.000        0.000        0.000        1.357        0.000      155.322        0.000        0.000      332.220        0.730      845.450
12/26/2021  00:04:00     -155.000       10.000      -55.000        0.000        0.000        0.000        0.000        0.000        0.000        1.357        0.000      155.322        0.000        0.000      332.220        0.730      845.450
12/26/2021  00:05:00     -155.000       10.000      -55.000        0.000        0.000        0.000        0.000        0.000        0.000        1.357        0.000      155.322        0.000        0.000      332.220        0.730      845.450
12/26/2021  00:06:00     -155.000       10.000      -55.000        0.000        0.000        0.000        0.000        0.000        0.000        1.357        0.000      155.322        0.000        0.000      332.220        0.730      845.450
12/26/2021  00:07:00     -155.000       10.000      -55.000        0.000        0.000        0.000        0.000        0.000        0.000        1.357        0.000      155.322        0.000        0.000      332.220        0.730      845.450
12/26/2021  00:08:00     -155.000       10.000      -55.000        0.000        0.000        0.000        0.000        0.000        0.000        1.357        0.000      155.322        0.000        0.000      332.220        0.730      845.450
12/26/2021  00:09:00     -155.000       10.000      -55.000        0.000        0.000        0.000        0.000        0.000        0.000        1.357        0.000      155.322        0.000        0.000      332.220        0.730      845.450
12/26/2021  00:10:00     -155.000       10.000      -55.000        0.000        0.000        0.000        0.000        0.000        0.000        1.357        0.000      155.322        0.000        0.000      332.220        0.730      845.450
12/26/2021  00:11:00     -155.000       10.000      -55.000        0.000        0.000        0.000        0.000        0.000        0.000        1.357        0.000      155.322        0.000        0.000      332.220        0.730      845.450
12/26/2021  00:12:00     -155.000       10.000      -55.000        0.000        0.000        0.000        0.000        0.000        0.000        1.357        0.000      155.322        0.000        0.000      332.220        0.730      845.450
12/26/2021  00:13:00     -155.000       10.000      -55.000        0.000        0.000        0.000        0.000        0.000        0.000        1.357        0.000      155.322        0.000        0.000      332.220        0.730      845.450
12/26/2021  00:14:00     -155.000       10.000      -55.000        0.000        0.000        0.000        0.000        0.000        0.000        1.357        0.000      155.322        0.000        0.000      332.220        0.730      845.450
12/26/2021  00:15:00     -155.000       10.000      -55.000        0.000        0.000        0.000        0.000        0.000        0.000        1.357        0.000      155.322        0.000        0.000      332.220        0.730      845.450
12/26/2021  00:16:00     -155.000       10.000      -55.000        0.000        0.000        0.000        0.000        0.000        0.000        1.357        0.000      155.322        0.000        0.000      332.220        0.730      845.450
12/26/2021  00:17:00     -155.000       10.000      -55.000        0.000        0.000        0.000        0.000        0.000        0.000        1.357        0.000      155.322        0.000        0.000      332.220        0.730      845.450
12/26/2021  00:18:00     -155.000       10.000      -55.000        0.000        0.000        0.000        0.000        0.000        0.000        1.357        0.000      155.322        0.000        0.000      332.220        0.730      845.450
12/26/2021  00:19:00     -155.000       10.000      -55.000        0.000        0.000        0.000        0.000        0.000        0.000        1.357        0.000      155.322        0.000        0.000      332.220        0.730      845.450
12/26/2021  00:20:00     -155.000       10.000      -55.000        0.000        0.000        0.000        0.000        0.000        0.000        1.357        0.000      155.322        0.000        0.000      332.220        0.730      845.450
12/26/2021  00:21:00     -155.000       10.000      -55.000        0.000        0.000        0.000        0.000        0.000        0.000        1.357        0.000      155.322        0.000        0.000      332.220        0.730      845.450
12/26/2021  00:22:00     -155.000       10.000      -55.000        0.000        0.000        0.000        0.000        0.000        0.000        1.357        0.000      155.322        0.000        0.000      332.220        0.730      845.450
12/26/2021  00:23:00     -155.000       10.000      -55.000        0.000        0.000        0.000        0.000        0.000        0.000        1.357        0.000      155.322        0.000        0.000      332.220        0.730      845.450
12/26/2021  00:24:00     -155.000       10.000      -55.000        0.000        0.000        0.000        0.000        0.000        0.000        1.357        0.000      155.322        0.000        0.000      332.220        0.730      845.450
12/26/2021  00:25:00     -155.000       10.000      -55.000        0.000        0.000        0.000        0.000        0.000        0.000        1.357        0.000      155.322        0.000        0.000      332.220        0.730      845.450
12/26/2021  00:26:00     -155.000       10.000      -55.000        0.000        0.000        0.000        0.000        0.000        0.000        1.357        0.000      155.322        0.000        0.000      332.220        0.730      845.450
12/26/2021  00:27:00     -155.000       10.000      -55.000        0.000        0.000        0.000        0.000        0.000        0.000        1.357        0.000      155.322        0.000        0.000      332.220        0.730      845.450
12/26/2021  00:28:00     -155.000       10.000      -55.000        0.000        0.000        0.000        0.000        0.000        0.000        1.357        0.000      155.322        0.000        0.000      332.220        0.730      845.450
12/26/2021  00:29:00     -155.000       10.000      -55.000        0.000        0.000        0.000        0.000        0.000        0.000        1.357        0.000      155.322        0.000        0.000      332.220        0.730      845.450
12/26/2021  00:30:00     -155.000       10.000      -55.000        0.000        0.000        0.000        0.000        0.000        0.000        1.357        0.000      155.322        0.000        0.000      332.220        0.730      845.450
12/26/2021  00:31:00     -155.000       10.000      -55.000        0.000        0.000        0.000        0.000        0.000        0.000        1.357        0.000      155.322        0.000        0.000      332.220        0.730      845.450
12/26/2021  00:32:00     -155.000       10.000      -55.000        0.000        0.000        0.000        0.000        0.000        0.000        1.357        0.000      155.322        0.000        0.000      332.220        0.730      845.450
12/26/2021  00:33:00     -155.000       10.000      -55.000        0.000        0.000        0.000        0.000        0.000        0.000        1.357        0.000      155.322        0.000        0.000      332.220        0.730      845.450
12/26/2021  00:34:00     -155.000       10.000      -55.000        0.000        0.000        0.000        0.000        0.000        0.000        1.357        0.000      155.322        0.000        0.000      332.220        0.730      845.450
12/26/2021  00:35:00     -155.000       10.000      -55.000        0.000        0.000        0.000        0.000        0.000        0.000        1.357        0.000      155.322        0.000        0.000      332.220        0.730      845.450
12/26/2021  00:36:00     -155.000       10.000      -55.000        0.000        0.000        0.000        0.000        0.000        0.000        1.357        0.000      155.322        0.000        0.000      332.220        0.730      845.450
12/26/2021  00:37:00     -155.000       10.000      -55.000        0.000        0.000        0.000        0.000        0.000        0.000        1.357        0.000      155.322        0.000        0.000      332.220        0.730      845.450
12/26/2021  00:38:00     -155.000       10.000      -55.000        0.000        0.000        0.000        0.000        0.000        0.000        1.357        0.000      155.322        0.000        0.000      332.220        0.730      845.450
12/26/2021  00:39:00     -155.000       10.000      -55.000        0.000        0.000        0.000        0.000        0.000        0.000        1.357        0.000      155.322        0.000        0.000      332.220        0.730      845.450
12/26/2021  00:40:00     -155.000       10.000      -55.000        0.000        0.000        0.000        0.000        0.000        0.000        1.357        0.000      155.322        0.000        0.000      332.220        0.730      845.450
12/26/2021  00:41:00     -155.000       10.000      -55.000        0.000        0.000        0.000        0.000        0.000        0.000        1.357        0.000      155.322        0.000        0.000      332.220        0.730      845.450
12/26/2021  00:42:00     -155.000       10.000      -55.000        0.000        0.000        0.000        0.000        0.000        0.000        1.357        0.000      155.322        0.000        0.000      332.220        0.730      845.450
12/26/2021  00:43:00     -155.000       10.000      -55.000        0.000        0.000        0.000        0.000        0.000        0.000        1.357        0.000      155.322        0.000        0.000      332.220        0.730      845.450
12/26/2021  00:44:00     -155.000       10.000      -55.000        0.000        0.000        0.000        0.000        0.000        0.000        1.357        0.000      155.322        0.000        0.000      332.220        0.730      845.450
12/26/2021  00:45:00     -155.000       10.000      -55.000        0.000        0.000        0.000        0.000        0.000        0.000        1.357        0.000      155.322        0.000        0.000      332.220        0.730      845.450
12/26/2021  00:46:00     -155.000       10.000      -55.000        0.000        0.000        0.000        0.000        0.000        0.000        1.357        0.000      155.322        0.000        0.000      332.220        0.730      845.450
12/26/2021  00:47:00     -155.000       10.000      -55.000        0.000        0.000        0.000        0.000        0.000        0.000        1.357        0.000      155.322        0.000        0.000      332.220        0.730      845.450
12/26/2021  00:48:00     -155.000       10.000      -55.000        0.000        0.000        0.000        0.000        0.000        0.000        1.357        0.000      155.322        0.000        0.000      332.220        0.730      845.450
12/26/2021  00:49:00     -155.000       10.000      -55.000        0.000        0.000        0.000        0.000        0.000        0.000        1.357        0.000      155.322        0.000        0.000      332.220        0.730      845.450
12/26/2021  00:50:00     -155.000       10.000      -55.000        0.000        0.000        0.000        0.000        0.000        0.000        1.357        0.000      155.322        0.000        0.000      332.220        0.730      845.450
12/26/2021  00:51:00     -155.000       10.000      -55.000        0.000        0.000        0.000        0.000        0.000        0.000        1.357        0.000      155.322        0.000        0.000      332.220        0.730      845.450
12/26/2021  00:52:00     -155.000       10.000      -55.000        0.000        0.000        0.000        0.000        0.000        0.000        1.357        0.000      155.322        0.000        0.000      332.220        0.730      845.450
12/26/2021  00:53:00     -155.000       10.000      -55.000        0.000        0.000        0.000        0.000        0.000        0.000        1.357        0.000      155.322        0.000        0.000      332.220        0.730      845.450
12/26/2021  00:54:00     -155.000       10.000      -55.000        0.000        0.000        0.000        0.000        0.000        0.000        1.357        0.000      155.322        0.000        0.000      332.220        0.730      845.450
12/26/2021  00:55:00     -155.000       10.000      -55.000        0.000        0.000        0.000        0.000        0.000        0.000        1.357        0.000      155.322        0.000        0.000      332.220        0.730      845.450
12/26/2021  00:56:00     -155.000       10.000      -55.000        0.000        0.000        0.000        0.000        0.000        0.000        1.357        0.000      155.322        0.000        0.000      332.220        0.730      845.450
12/26/2021  00:57:00     -155.000       10.000      -55.000        0.000        0.000        0.000        0.000        0.000        0.000        1.357        0.000      155.322        0.000        0.000      332.220        0.730      845.450
12/26/2021  00:58:00     -155.000       10.000      -55.000        0.000        0.000        0.000        0.000        0.000        0.000        1.357        0.000      155.322        0.000        0.000      332.220        0.730      845.450
12/26/2021  00:59:00     -155.000       10.000      -55.000        0.000        0.000        0.000        0.000        0.000        0.000        1.357        0.000      155.322        0.000        0.000      332.220        0.730      845.450
12/26/2021  01:00:00     -155.000       10.000      -55.000        0.000        0.000        0.000        0.000        0.000        0.000        1.357        0.000      155.322        0.000        0.000      332.220        0.730      845.450
12/26/2021  01:01:00     -155.000       10.000      -55.000        0.000        0.000        0.000        0.000        0.000        0.000        1.357        0.000      155.322        0.000        0.000      332.220        0.730      845.450
12/26/2021  01:02:00     -155.000       10.000      -55.000        0.000        0.000        0.000        0.000        0.000        0.000        1.357        0.000      155.322        0.000        0.000      332.220        0.730      845.450
12/26/2021  01:03:00     -155.000       10.000      -55.000        0.000        0.000        0.000        0.000        0.000        0.000        1.357        0.000      155.322        0.000        0.000      332.220        0.730      845.450
12/26/2021  01:04:00     -155.000       10.000      -55.000        0.000        0.000        0.000        0.000        0.000        0.000        1.357        0.000      155.322        0.000        0.000      332.220        0.730      845.450
12/26/2021  01:05:00     -155.000       10.000      -55.000        0.000        0.000        0.000        0.000        0.000        0.000        1.357        0.000      155.322        0.000        0.000      332.220        0.730      845.450
12/26/2021  01:06:00     -155.000       10.000      -55.000        0.000        0.000        0.000        0.000        0.000        0.000        1.357        0.000      155.322        0.000        0.000      332.220        0.730      845.450
12/26/2021  01:07:00     -155.000       10.000      -55.000        0.000        0.000        0.000        0.000        0.000        0.000        1.357        0.000      155.322        0.000        0.000      332.220        0.730      845.450
12/26/2021  01:08:00     -155.000       10.000      -55.000        0.000        0.000        0.000        0.000        0.000        0.000        1.357        0.000      155.322        0.000        0.000      332.220        0.730      845.450
12/26/2021  01:09:00     -155.000       10.000      -55.000        0.000        0.000        0.000        0.000        0.000        0.000        1.357        0.000      155.322        0.000        0.000      332.220        0.730      845.450
12/26/2021  01:10:00     -155.000       10.000      -55.000        0.000        0.000        0.000        0.000        0.000        0.000        1.357        0.000      155.322        0.000        0.000      332.220        0.730      845.450
12/26/2021  01:11:00     -155.000       10.000      -55.000        0.000        0.000        0.000        0.000        0.000        0.000        1.357        0.000      155.322        0.000        0.000      332.220        0.730      845.450
12/26/2021  01:12:00     -155.000       10.000      -55.000        0.000        0.000        0.000        0.000        0.000        0.000        1.357        0.000      155.322        0.000        0.000      332.220        0.730      845.450
12/26/2021  01:13:00     -155.000       10.000      -55.000        0.000        0.000        0.000        0.000        0.000        0.000        1.357        0.000      155.322        0.000        0.000      332.220        0.730      845.450
12/26/2021  01:14:00     -155.000       10.000      -55.000        0.000        0.000        0.000        0.000        0.000        0.000        1.357        0.000      155.322        0.000        0.000      332.220        0.730      845.450
12/26/2021  01:15:00     -155.000       10.000      -55.000        0.000        0.000        0.000        0.000        0.000        0.000        1.357        0.000      155.322        0.000        0.000      332.220        0.730      845.450
12/26/2021  01:16:00     -155.000       10.000      -55.000        0.000        0.000        0.000        0.000        0.000        0.000        1.357        0.000      155.322        0.000        0.000      332.220        0.730      845.450
12/26/2021  01:17:00     -155.000       10.000      -55.000        0.000        0.000        0.000        0.000        0.000        0.000        1.357        0.000      155.322        0.000        0.000      332.220        0.730      845.450
12/26/2021  01:18:00     -155.000       10.000      -55.000        0.000        0.000        0.000        0.000        0.000        0.000        1.357        0.000      155.322        0.000        0.000      332.220        0.730      845.450
12/26/2021  01:19:00     -155.000       10.000      -55.000        0.000        0.000        0.000        0.000        0.000        0.000        1.357        0.000      155.322        0.000        0.000      332.220        0.730      845.450
12/26/2021  01:20:00     -155.000       10.000      -55.000        0.000        0.000        0.000        0.000        0.000        0.000        1.357        0.000      155.322        0.000        0.000      332.220        0.730      845.450
12/26/2021  01:21:00     -155.000       10.000      -55.000        0.000        0.000        0.000        0.000        0.000        0.000        1.357        0.000      155.322        0.000        0.000      332.220        0.730      845.450
12/26/2021  01:22:00     -155.000       10.000      -55.000        0.000        0.000        0.000        0.000        0.000        0.000        1.357        0.000      155.322        0.000        0.000      332.220        0.730      845.450
12/26/2021  01:23:00     -155.000       10.000      -55.000        0.000        0.000        0.000        0.000        0.000        0.000        1.357        0.000      155.322        0.000        0.000      332.220        0.730      845.450
12/26/2021  01:24:00     -155.000       10.000      -55.000        0.000        0.000        0.000        0.000        0.000        0.000        1.357        0.000      155.322        0.000        0.000      332.220        0.730      845.450
12/26/2021  01:25:00     -155.000       10.000      -55.000        0.000        0.000        0.000        0.000        0.000        0.000        1.357        0.000      155.322        0.000        0.000      332.220        0.730      845.450
12/26/2021  01:26:00     -155.000       10.000      -55.000        0.000        0.000        0.000        0.000        0.000        0.000        1.357        0.000      155.322        0.000        0.000      332.220        0.730      845.450
12/26/2021  01:27:00     -155.000       10.000      -55.000        0.000        0.000        0.000        0.000        0.000        0.000        1.357        0.000      155.322        0.000        0.000      332.220        0.730      845.450
12/26/2021  01:28:00     -155.000       10.000      -55.000        0.000        0.000        0.000        0.000        0.000        0.000        1.357        0.000      155.322        0.000        0.000      332.220        0.730      845.450
12/26/2021  01:29:00     -155.000       10.000      -55.000        0.000        0.000        0.000        0.000        0.000        0.000        1.357        0.000      155.322        0.000        0.000      332.220        0.730      845.450
12/26/2021  01:30:00     -155.000       10.000      -55.000        0.000        0.000        0.000        0.000        0.000        0.000        1.357        0.000      155.322        0.000        0.000      332.220        0.730      845.450
12/26/2021  01:31:00     -155.000       10.000      -55.000        0.000        0.000        0.000        0.000        0.000        0.000        1.357        0.000      155.322        0.000        0.000      332.220        0.730      845.450
12/26/2021  01:32:00     -155.000       10.000      -55.000        0.000        0.000        0.000        0.000        0.000        0.000        1.357        0.000      155.322        0.000        0.000      332.220        0.730      845.450
12/26/2021  01:33:00     -155.000       10.000      -55.000        0.000        0.000        0.000        0.000        0.000        0.000        1.357        0.000      155.322        0.000        0.000      332.220        0.730      845.450
12/26/2021  01:34:00     -155.000       10.000      -55.000        0.000        0.000        0.000        0.000        0.000        0.000        1.357        0.000      155.322        0.000        0.000      332.220        0.730      845.450
12/26/2021  01:35:00     -155.000       10.000      -55.000        0.000        0.000        0.000        0.000        0.000        0.000        1.357        0.000      155.322        0.000        0.000      332.220        0.730      845.450
12/26/2021  01:36:00     -155.000       10.000      -55.000        0.000        0.000        0.000        0.000        0.000        0.000        1.357        0.000      155.322        0.000        0.000      332.220        0.730      845.450
12/26/2021  01:37:00     -155.000       10.000      -55.000        0.000        0.000        0.000        0.000        0.000        0.000        1.357        0.000      155.322        0.000        0.000      332.220        0.730      845.450
12/26/2021  01:38:00     -155.000       10.000      -55.000        0.000        0.000        0.000        0.000        0.000        0.000        1.357        0.000      155.322        0.000        0.000      332.220        0.730      845.450
12/26/2021  01:39:00     -155.000       10.000      -55.000        0.000        0.000        0.000        0.000        0.000        0.000        1.357        0.000      155.322        0.000        0.000      332.220        0.730      845.450
12/26/2021  01:40:00     -155.000       10.000      -55.000        0.000        0.000        0.000        0.000        0.000        0.000        1.357        0.000      155.322        0.000        0.000      332.220        0.730      845.450
12/26/2021  01:41:00     -155.000       10.000      -55.000        0.000        0.000        0.000        0.000        0.000        0.000        1.357        0.000      155.322        0.000        0.000      332.220        0.730      845.450
12/26/2021  01:42:00     -155.000       10.000      -55.000        0.000        0.000        0.000        0.000        0.000        0.000        1.357        0.000      155.322        0.000        0.000      332.220        0.730      845.450
12/26/2021  01:43:00     -155.000       10.000      -55.000        0.000        0.000        0.000        0.000        0.000        0.000        1.357        0.000      155.322        0.000        0.000      332.220        0.730      845.450
12/26/2021  01:44:00     -155.000       10.000      -55.000        0.000        0.000        0.000        0.000        0.000        0.000        1.357        0.000      155.322        0.000        0.000      332.220        0.730      845.450
12/26/2021  01:45:00     -155.000       10.000      -55.000        0.000        0.000        0.000        0.000        0.000        0.000        1.357        0.000      155.322        0.000        0.000      332.220        0.730      845.450
12/26/2021  01:46:00     -155.000       10.000      -55.000        0.000        0.000        0.000        0.000        0.000        0.000        1.357        0.000      155.322        0.000        0.000      332.220        0.730      845.450
12/26/2021  01:47:00     -155.000       10.000      -55.000        0.000        0.000        0.000        0.000        0.000        0.000        1.357        0.000      155.322        0.000        0.000      332.220        0.730      845.450
12/26/2021  01:48:00     -155.000       10.000      -55.000        0.000        0.000        0.000        0.000        0.000        0.000        1.357        0.000      155.322        0.000        0.000      332.220        0.730      845.450
12/26/2021  01:49:00     -155.000       10.000      -55.000        0.000        0.000        0.000        0.000        0.000        0.000        1.357        0.000      155.322        0.000        0.000      332.220        0.730      845.450
12/26/2021  01:50:00     -155.000       10.000      -55.000        0.000        0.000        0.000        0.000        0.000        0.000        1.357        0.000      155.322        0.000        0.000      332.220        0.730      845.450
12/26/2021  01:51:00     -155.000       10.000      -55.000        0.000        0.000        0.000        0.000        0.000        0.000        1.357        0.000      155.322        0.000        0.000      332.220        0.730      845.450
12/26/2021  01:52:00     -155.000       10.000      -55.000        0.000        0.000        0.000        0.000        0.000        0.000        1.357        0.000      155.322        0.000        0.000      332.220        0.730      845.450
12/26/2021  01:53:00     -155.000       10.000      -55.000        0.000        0.000        0.000        0.000        0.000        0.000        1.357        0.000      155.322        0.000        0.000      332.220        0.730      845.450
12/26/2021  01:54:00     -155.000       10.000      -55.000        0.000        0.000        0.000        0.000        0.000        0.000        1.357        0.000      155.322        0.000        0.000      332.220        0.730      845.450
12/26/2021  01:55:00     -155.000       10.000      -55.000        0.000        0.000        0.000        0.000        0.000        0.000        1.357        0.000      155.322        0.000        0.000      332.220        0.730      845.450
12/26/2021  01:56:00     -155.000       10.000      -55.000        0.000        0.000        0.000        0.000        0.000        0.000        1.357        0.000      155.322        0.000        0.000      332.220        0.730      845.450
12/26/2021  01:57:00     -155.000       10.000      -55.000        0.000        0.000        0.000        0.000        0.000        0.000        1.357        0.000      155.322        0.000        0.000      332.220        0.730      845.450
12/26/2021  01:58:00     -155.000       10.000      -55.000        0.000        0.000        0.000        0.000        0.000        0.000        1.357        0.000      155.322        0.000        0.000      332.220        0.730      845.450
12/26/2021  01:59:00     -155.000       10.000      -55.000        0.000        0.000        0.000        0.000        0.000        0.000        1.357        0.000      155.322        0.000        0.000      332.220        0.730      845.450
12/26/2021  02:00:00     -155.000       10.000      -55.000        0.000        0.000        0.000        0.000        0.000        0.000        1.357        0.000      155.322        0.000        0.000      332.220        0.730      845.450
12/26/2021  02:01:00     -155.000       10.000      -55.000        0.000        0.000        0.000        0.000        0.000        0.000        1.357        0.000      155.322        0.000        0.000      332.220        0.730      845.450
12/26/2021  02:02:00     -155.000       10.000      -55.000        0.000        0.000        0.000        0.000        0.000        0.000        1.357        0.000      155.322        0.000        0.000      332.220        0.730      845.450
12/26/2021  02:03:00     -155.000       10.000      -55.000        0.000        0.000        0.000        0.000        0.000        0.000        1.357        0.000      155.322        0.000        0.000      332.220        0.730      845.450
12/26/2021  02:04:00     -155.000       10.000      -55.000        0.000        0.000        0.000        0.000        0.000        0.000        1.357        0.000      155.322        0.000        0.000      332.220        0.730      845.450
12/26/2021  02:05:00     -155.000       10.000      -55.000        0.000        0.000        0.000        0.000        0.000        0.000        1.357        0.000      155.322        0.000        0.000      332.220        0.730      845.450
12/26/2021  02:06:00     -155.000       10.000      -55.000        0.000        0.000        0.000        0.000        0.000        0.000        1.357        0.000      155.322        0.000        0.000      332.220        0.730      845.450
12/26/2021  02:07:00     -155.000       10.000      -55.000        0.000        0.000        0.000        0.000        0.000        0.000        1.357        0.000      155.322        0.000        0.000      332.220        0.730      845.450
12/26/2021  02:08:00     -155.000       10.000      -55.000        0.000        0.000        0.000        0.000        0.000        0.000        1.357        0.000      155.322        0.000        0.000      332.220        0.730      845.450
12/26/2021  02:09:00     -155.000       10.000      -55.000        0.000        0.000        0.000        0.000        0.000        0.000        1.357        0.000      155.322        0.000        0.000      332.220        0.730      845.450
12/26/2021  02:10:00     -155.000       10.000      -55.000        0.000        0.000        0.000        0.000        0.000        0.000        1.357        0.000      155.322        0.000        0.000      332.220        0.730      845.450
12/26/2021  02:11:00     -155.000       10.000      -55.000        0.000        0.000        0.000        0.000        0.000        0.000        1.357        0.000      155.322        0.000        0.000      332.220        0.730      845.450
12/26/2021  02:12:00     -155.000       10.000      -55.000        0.000        0.000        0.000        0.000        0.000        0.000        1.357        0.000      155.322        0.000        0.000      332.220        0.730      845.450
12/26/2021  02:13:00     -155.000       10.000      -55.000        0.000        0.000        0.000        0.000        0.000        0.000        1.357        0.000      155.322        0.000        0.000      332.220        0.730      845.450
12/26/2021  02:14:00     -155.000       10.000      -55.000        0.000        0.000        0.000        0.000        0.000        0.000        1.357        0.000      155.322        0.000        0.000      332.220        0.730      845.450
12/26/2021  02:15:00     -155.000       10.000      -55.000        0.000        0.000        0.000        0.000        0.000        0.000        1.357        0.000      155.322        0.000        0.000      332.220        0.730      845.450
12/26/2021  02:16:00     -155.000       10.000      -55.000        0.000        0.000        0.000        0.000        0.000        0.000        1.357        0.000      155.322        0.000        0.000      332.220        0.730      845.450
12/26/2021  02:17:00     -155.000       10.000      -55.000        0.000        0.000        0.000        0.000        0.000        0.000        1.357        0.000      155.322        0.000        0.000      332.220        0.730      845.450
12/26/2021  02:18:00     -155.000       10.000      -55.000        0.000        0.000        0.000        0.000        0.000        0.000        1.357        0.000      155.322        0.000        0.000      332.220        0.730      845.450
12/26/2021  02:19:00     -155.000       10.000      -55.000        0.000        0.000        0.000        0.000        0.000        0.000        1.357        0.000      155.322        0.000        0.000      332.220        0.730      845.450
12/26/2021  02:20:00     -155.000       10.000      -55.000        0.000        0.000        0.000        0.000        0.000        0.000        1.357        0.000      155.322        0.000        0.000      332.220        0.730      845.450
12/26/2021  02:21:00     -155.000       10.000      -55.000        0.000        0.000        0.000        0.000        0.000        0.000        1.357        0.000      155.322        0.000        0.000      332.220        0.730      845.450
12/26/2021  02:22:00     -155.000       10.000      -55.000        0.000        0.000        0.000        0.000        0.000        0.000        1.357        0.000      155.322        0.000        0.000      332.220        0.730      845.450
12/26/2021  02:23:00     -155.000       10.000      -55.000        0.000        0.000        0.000        0.000        0.000        0.000        1.357        0.000      155.322        0.000        0.000      332.220        0.730      845.450
12/26/2021  02:24:00     -155.000       10.000      -55.000        0.000        0.000        0.000        0.000        0.000        0.000        1.357        0.000      155.322        0.000        0.000      332.220        0.730      845.450
12/26/2021  02:25:00     -155.000       10.000      -55.000        0.000        0.000        0.000        0.000        0.000        0.000        1.357        0.000      155.322        0.000        0.000      332.220        0.730      845.450
12/26/2021  02:26:00     -155.000       10.000      -55.000        0.000        0.000        0.000        0.000        0.000        0.000        1.357        0.000      155.322        0.000        0.000      332.220        0.730      845.450
12/26/2021  02:27:00     -155.000       10.000      -55.000        0.000        0.000        0.000        0.000        0.000        0.000        1.357        0.000      155.322        0.000        0.000      332.220        0.730      845.450
12/26/2021  02:28:00     -155.000       10.000      -55.000        0.000        0.000        0.000        0.000        0.000        0.000        1.357        0.000      155.322        0.000        0.000      332.220        0.730      845.450
12/26/2021  02:29:00     -155.000       10.000      -55.000        0.000        0.000        0.000        0.000        0.000        0.000        1.357        0.000      155.322        0.000        0.000      332.220        0.730      845.450
12/26/2021  02:30:00     -155.000       10.000      -55.000        0.000        0.000        0.000        0.000        0.000        0.000        1.357        0.000      155.322        0.000        0.000      332.220        0.730      845.450
12/26/2021  02:31:00     -155.000       10.000      -55.000        0.000        0.000        0.000        0.000        0.000        0.000        1.357        0.000      155.322        0.000        0.000      332.220        0.730      845.450
12/26/2021  02:32:00     -155.000       10.000      -55.000        0.000        0.000        0.000        0.000        0.000        0.000        1.357        0.000      155.322        0.000        0.000      332.220        0.730      845.450
12/26/2021  02:33:00     -155.000       10.000      -55.000        0.000        0.000        0.000        0.000        0.000        0.000        1.357        0.000      155.322        0.000        0.000      332.220        0.730      845.450
12/26/2021  02:34:00     -155.000       10.000      -55.000        0.000        0.000        0.000        0.000        0.000        0.000        1.357        0.000      155.322        0.000        0.000      332.220        0.730      845.450
12/26/2021  02:35:00     -155.000       10.000      -55.000        0.000        0.000        0.000        0.000        0.000        0.000        1.357        0.000      155.322        0.000        0.000      332.220        0.730      845.450
12/26/2021  02:36:00     -155.000       10.000      -55.000        0.000        0.000        0.000        0.000        0.000        0.000        1.357        0.000      155.322        0.000        0.000      332.220        0.730      845.450
12/26/2021  02:37:00     -155.000       10.000      -55.000        0.000        0.000        0.000        0.000        0.000        0.000        1.357        0.000      155.322        0.000        0.000      332.220        0.730      845.450
12/26/2021  02:38:00     -155.000       10.000      -55.000        0.000        0.000        0.000        0.000        0.000        0.000        1.357        0.000      155.322        0.000        0.000      332.220        0.730      845.450
12/26/2021  02:39:00     -155.000       10.000      -55.000        0.000        0.000        0.000        0.000        0.000        0.000        1.357        0.000      155.322        0.000        0.000      332.220        0.730      845.450
12/26/2021  02:40:00     -155.000       10.000      -55.000        0.000        0.000        0.000        0.000        0.000        0.000        1.357        0.000      155.322        0.000        0.000      332.220        0.730      845.450
12/26/2021  02:41:00     -155.000       10.000      -55.000        0.000        0.000        0.000        0.000        0.000        0.000        1.357        0.000      155.322        0.000        0.000      332.220        0.730      845.450
12/26/2021  02:42:00     -155.000       10.000      -55.000        0.000        0.000        0.000        0.000        0.000        0.000        1.357        0.000      155.322        0.000        0.000      332.220        0.730      845.450
12/26/2021  02:43:00     -155.000       10.000      -55.000        0.000        0.000        0.000        0.000        0.000        0.000        1.357        0.000      155.322        0.000        0.000      332.220        0.730      845.450
12/26/2021  02:44:00     -155.000       10.000      -55.000        0.000        0.000        0.000        0.000        0.000        0.000        1.357        0.000      155.322        0.000        0.000      332.220        0.730      845.450
12/26/2021  02:45:00     -155.000       10.000      -55.000        0.000        0.000        0.000        0.000        0.000        0.000        1.357        0.000      155.322        0.000        0.000      332.220        0.730      845.450
12/26/2021  02:46:00     -155.000       10.000      -55.000        0.000        0.000        0.000        0.000        0.000        0.000        1.357        0.000      155.322        0.000        0.000      332.220        0.730      845.450
12/26/2021  02:47:00     -155.000       10.000      -55.000        0.000        0.000        0.000        0.000        0.000        0.000        1.357        0.000      155.322        0.000        0.000      332.220        0.730      845.450
12/26/2021  02:48:00     -155.000       10.000      -55.000        0.000        0.000        0.000        0.000        0.000        0.000        1.357        0.000      155.322        0.000        0.000      332.220        0.730      845.450
12/26/2021  02:49:00     -155.000       10.000      -55.000        0.000        0.000        0.000        0.000        0.000        0.000        1.357        0.000      155.322        0.000        0.000      332.220        0.730      845.450
12/26/2021  02:50:00     -155.000       10.000      -55.000        0.000        0.000        0.000        0.000        0.000        0.000        1.357        0.000      155.322        0.000        0.000      332.220        0.730      845.450
12/26/2021  02:51:00     -155.000       10.000      -55.000        0.000        0.000        0.000        0.000        0.000        0.000        1.357        0.000      155.322        0.000        0.000      332.220        0.730      845.450
12/26/2021  02:52:00     -155.000       10.000      -55.000        0.000        0.000        0.000        0.000        0.000        0.000        1.357        0.000      155.322        0.000        0.000      332.220        0.730      845.450
12/26/2021  02:53:00     -155.000       10.000      -55.000        0.000        0.000        0.000        0.000        0.000        0.000        1.357        0.000      155.322        0.000        0.000      332.220        0.730      845.450
12/26/2021  02:54:00     -155.000       10.000      -55.000        0.000        0.000        0.000        0.000        0.000        0.000        1.357        0.000      155.322        0.000        0.000      332.220        0.730      845.450
12/26/2021  02:55:00     -155.000       10.000      -55.000        0.000        0.000        0.000        0.000        0.000        0.000        1.357        0.000      155.322        0.000        0.000      332.220        0.730      845.450
12/26/2021  02:56:00     -155.000       10.000      -55.000        0.000        0.000        0.000        0.000        0.000        0.000        1.357        0.000      155.322        0.000        0.000      332.220        0.730      845.450
12/26/2021  02:57:00     -155.000       10.000      -55.000        0.000        0.000        0.000        0.000        0.000        0.000        1.357        0.000      155.322        0.000        0.000      332.220        0.730      845.450
12/26/2021  02:58:00     -155.000       10.000      -55.000        0.000        0.000        0.000        0.000        0.000        0.000        1.357        0.000      155.322        0.000        0.000      332.220        0.730      845.450
12/26/2021  02:59:00     -155.000       10.000      -55.000        0.000        0.000        0.000        0.000        0.000        0.000        1.357        0.000      155.322        0.000        0.000      332.220        0.730      845.450
12/26/2021  03:00:00     -155.000       10.000      -55.000        0.000        0.000        0.000        0.000        0.000        0.000        1.357        0.000      155.322        0.000        0.000      332.220        0.730      845.450
12/26/2021  03:01:00     -155.000       10.000      -55.000        0.000        0.000        0.000        0.000        0.000        0.000        1.357        0.000      155.322        0.000        0.000      332.220        0.730      845.450
12/26/2021  03:02:00     -155.000       10.000      -55.000        0.000        0.000        0.000        0.000        0.000        0.000        1.357        0.000      155.322        0.000        0.000      332.220        0.730      845.450
12/26/2021  03:03:00     -155.000       10.000      -55.000        0.000        0.000        0.000        0.000        0.000        0.000        1.357        0.000      155.322        0.000        0.000      332.220        0.730      845.450
12/26/2021  03:04:00     -155.000       10.000      -55.000        0.000        0.000        0.000        0.000        0.000        0.000        1.357        0.000      155.322        0.000        0.000      332.220        0.730      845.450
12/26/2021  03:05:00     -155.000       10.000      -55.000        0.000        0.000        0.000        0.000        0.000        0.000        1.357        0.000      155.322        0.000        0.000      332.220        0.730      845.450
12/26/2021  03:06:00     -155.000       10.000      -55.000        0.000        0.000        0.000        0.000        0.000        0.000        1.357        0.000      155.322        0.000        0.000      332.220        0.730      845.450
12/26/2021  03:07:00     -155.000       10.000      -55.000        0.000        0.000        0.000        0.000        0.000        0.000        1.357        0.000      155.322        0.000        0.000      332.220        0.730      845.450
12/26/2021  03:08:00     -155.000       10.000      -55.000        0.000        0.000        0.000        0.000        0.000        0.000        1.357        0.000      155.322        0.000        0.000      332.220        0.730      845.450
12/26/2021  03:09:00     -155.000       10.000      -55.000        0.000        0.000        0.000        0.000        0.000        0.000        1.357        0.000      155.322        0.000        0.000      332.220        0.730      845.450
12/26/2021  03:10:00     -155.000       10.000      -55.000        0.000        0.000        0.000        0.000        0.000        0.000        1.357        0.000      155.322        0.000        0.000      332.220        0.730      845.450
12/26/2021  03:11:00     -155.000       10.000      -55.000        0.000        0.000        0.000        0.000        0.000        0.000        1.357        0.000      155.322        0.000        0.000      332.220        0.730      845.450
12/26/2021  03:12:00     -155.000       10.000      -55.000        0.000        0.000        0.000        0.000        0.000        0.000        1.357        0.000      155.322        0.000        0.000      332.220        0.730      845.450
12/26/2021  03:13:00     -155.000       10.000      -55.000        0.000        0.000        0.000        0.000        0.000        0.000        1.357        0.000      155.322        0.000        0.000      332.220        0.730      845.450
12/26/2021  03:14:00     -155.000       10.000      -55.000        0.000        0.000        0.000        0.000        0.000        0.000        1.357        0.000      155.322        0.000        0.000      332.220        0.730      845.450
12/26/2021  03:15:00     -155.000       10.000      -55.000        0.000        0.000        0.000        0.000        0.000        0.000        1.357        0.000      155.322        0.000        0.000      332.220        0.730      845.450
12/26/2021  03:16:00     -155.000       10.000      -55.000        0.000        0.000        0.000        0.000        0.000        0.000        1.357        0.000      155.322        0.000        0.000      332.220        0.730      845.450
12/26/2021  03:17:00     -155.000       10.000      -55.000        0.000        0.000        0.000        0.000        0.000        0.000        1.357        0.000      155.322        0.000        0.000      332.220        0.730      845.450
12/26/2021  03:18:00     -155.000       10.000      -55.000        0.000        0.000        0.000        0.000        0.000        0.000        1.357        0.000      155.322        0.000        0.000      332.220        0.730      845.450
12/26/2021  03:19:00     -155.000       10.000      -55.000        0.000        0.000        0.000        0.000        0.000        0.000        1.357        0.000      155.322        0.000        0.000      332.220        0.730      845.450
12/26/2021  03:20:00     -155.000       10.000      -55.000        0.000        0.000        0.000        0.000        0.000        0.000        1.357        0.000      155.322        0.000        0.000      332.220        0.730      845.450
12/26/2021  03:21:00     -155.000       10.000      -55.000        0.000        0.000        0.000        0.000        0.000        0.000        1.357        0.000      155.322        0.000        0.000      332.220        0.730      845.450
12/26/2021  03:22:00     -155.000       10.000      -55.000        0.000        0.000        0.000        0.000        0.000        0.000        1.357        0.000      155.322        0.000        0.000      332.220        0.730      845.450
12/26/2021  03:23:00     -155.000       10.000      -55.000        0.000        0.000        0.000        0.000        0.000        0.000        1.357        0.000      155.322        0.000        0.000      332.220        0.730      845.450
12/26/2021  03:24:00     -155.000       10.000      -55.000        0.000        0.000        0.000        0.000        0.000        0.000        1.357        0.000      155.322        0.000        0.000      332.220        0.730      845.450
12/26/2021  03:25:00     -155.000       10.000      -55.000        0.000        0.000        0.000        0.000        0.000        0.000        1.357        0.000      155.322        0.000        0.000      332.220        0.730      845.450
12/26/2021  03:26:00     -155.000       10.000      -55.000        0.000        0.000        0.000        0.000        0.000        0.000        1.357        0.000      155.322        0.000        0.000      332.220        0.730      845.450
12/26/2021  03:27:00     -155.000       10.000      -55.000        0.000        0.000        0.000        0.000        0.000        0.000        1.357        0.000      155.322        0.000        0.000      332.220        0.730      845.450
12/26/2021  03:28:00     -155.000       10.000      -55.000        0.000        0.000        0.000        0.000        0.000        0.000        1.357        0.000      155.322        0.000        0.000      332.220        0.730      845.450
12/26/2021  03:29:00     -155.000       10.000      -55.000        0.000        0.000        0.000        0.000        0.000        0.000        1.357        0.000      155.322        0.000        0.000      332.220        0.730      845.450
12/26/2021  03:30:00     -155.000       10.000      -55.000        0.000        0.000        0.000        0.000        0.000        0.000        1.357        0.000      155.322        0.000        0.000      332.220        0.730      845.450
12/26/2021  03:31:00     -155.000       10.000      -55.000        0.000        0.000        0.000        0.000        0.000        0.000        1.357        0.000      155.322        0.000        0.000      332.220        0.730      845.450
12/26/2021  03:32:00     -155.000       10.000      -55.000        0.000        0.000        0.000        0.000        0.000        0.000        1.357        0.000      155.322        0.000        0.000      332.220        0.730      845.450
12/26/2021  03:33:00     -155.000       10.000      -55.000        0.000        0.000        0.000        0.000        0.000        0.000        1.357        0.000      155.322        0.000        0.000      332.220        0.730      845.450
12/26/2021  03:34:00     -155.000       10.000      -55.000        0.000        0.000        0.000        0.000        0.000        0.000        1.357        0.000      155.322        0.000        0.000      332.220        0.730      845.450
12/26/2021  03:35:00     -155.000       10.000      -55.000        0.000        0.000        0.000        0.000        0.000        0.000        1.357        0.000      155.322        0.000        0.000      332.220        0.730      845.450
12/26/2021  03:36:00     -155.000       10.000      -55.000        0.000        0.000        0.000        0.000        0.000        0.000        1.357        0.000      155.322        0.000        0.000      332.220        0.730      845.450
12/26/2021  03:37:00     -155.000       10.000      -55.000        0.000        0.000        0.000        0.000        0.000        0.000        1.357        0.000      155.322        0.000        0.000      332.220        0.730      845.450
12/26/2021  03:38:00     -155.000       10.000      -55.000        0.000        0.000        0.000        0.000        0.000        0.000        1.357        0.000      155.322        0.000        0.000      332.220        0.730      845.450
12/26/2021  03:39:00     -155.000       10.000      -55.000        0.000        0.000        0.000        0.000        0.000        0.000        1.357        0.000      155.322        0.000        0.000      332.220        0.730      845.450
12/26/2021  03:40:00     -155.000       10.000      -55.000        0.000        0.000        0.000        0.000        0.000        0.000        1.357        0.000      155.322        0.000        0.000      332.220        0.730      845.450
12/26/2021  03:41:00     -155.000       10.000      -55.000        0.000        0.000        0.000        0.000        0.000        0.000        1.357        0.000      155.322        0.000        0.000      332.220        0.730      845.450
12/26/2021  03:42:00     -155.000       10.000      -55.000        0.000        0.000        0.000        0.000        0.000        0.000        1.357        0.000      155.322        0.000        0.000      332.220        0.730      845.450
12/26/2021  03:43:00     -155.000       10.000      -55.000        0.000        0.000        0.000        0.000        0.000        0.000        1.357        0.000      155.322        0.000        0.000      332.220        0.730      845.450
12/26/2021  03:44:00     -155.000       10.000      -55.000        0.000        0.000        0.000        0.000        0.000        0.000        1.357        0.000      155.322        0.000        0.000      332.220        0.730      845.450
12/26/2021  03:45:00     -155.000       10.000      -55.000        0.000        0.000        0.000        0.000        0.000        0.000        1.357        0.000      155.322        0.000        0.000      332.220        0.730      845.450
12/26/2021  03:46:00     -155.000       10.000      -55.000        0.000        0.000        0.000        0.000        0.000        0.000        1.357        0.000      155.322        0.000        0.000      332.220        0.730      845.450
12/26/2021  03:47:00     -155.000       10.000      -55.000        0.000        0.000        0.000        0.000        0.000        0.000        1.357        0.000      155.322        0.000        0.000      332.220        0.730      845.450
12/26/2021  03:48:00     -155.000       10.000      -55.000        0.000        0.000        0.000        0.000        0.000        0.000        1.357        0.000      155.322        0.000        0.000      332.220        0.730      845.450
12/26/2021  03:49:00     -155.000       10.000      -55.000        0.000        0.000        0.000        0.000        0.000        0.000        1.357        0.000      155.322        0.000        0.000      332.220        0.730      845.450
12/26/2021  03:50:00     -155.000       10.000      -55.000        0.000        0.000        0.000        0.000        0.000        0.000        1.357        0.000      155.322        0.000        0.000      332.220        0.730      845.450
12/26/2021  03:51:00     -155.000       10.000      -55.000        0.000        0.000        0.000        0.000        0.000        0.000        1.357        0.000      155.322        0.000        0.000      332.220        0.730      845.450
12/26/2021  03:52:00     -155.000       10.000      -55.000        0.000        0.000        0.000        0.000        0.000        0.000        1.357        0.000      155.322        0.000        0.000      332.220        0.730      845.450
12/26/2021  03:53:00     -155.000       10.000      -55.000        0.000        0.000        0.000        0.000        0.000        0.000        1.357        0.000      155.322        0.000        0.000      332.220        0.730      845.450
12/26/2021  03:54:00     -155.000       10.000      -55.000        0.000        0.000        0.000        0.000        0.000        0.000        1.357        0.000      155.322        0.000        0.000      332.220        0.730      845.450
12/26/2021  03:55:00     -155.000       10.000      -55.000        0.000        0.000        0.000        0.000        0.000        0.000        1.357        0.000      155.322        0.000        0.000      332.220        0.730      845.450
12/26/2021  03:56:00     -155.000       10.000      -55.000        0.000        0.000        0.000        0.000        0.000        0.000        1.357        0.000      155.322        0.000        0.000      332.220        0.730      845.450
12/26/2021  03:57:00     -155.000       10.000      -55.000        0.000        0.000        0.000        0.000        0.000        0.000        1.357        0.000      155.322        0.000        0.000      332.220        0.730      845.450
12/26/2021  03:58:00     -155.000       10.000      -55.000        0.000        0.000        0.000        0.000        0.000        0.000        1.357        0.000      155.322        0.000        0.000      332.220        0.730      845.450
12/26/2021  03:59:00     -155.000       10.000      -55.000        0.000        0.000        0.000        0.000        0.000        0.000        1.357        0.000      155.322        0.000        0.000      332.220        0.730      845.450
12/26/2021  04:00:00     -155.000       10.000      -55.000        0.000        0.000        0.000        0.000        0.000        0.000        1.357        0.000      155.322        0.000        0.000      332.220        0.730      845.450
12/26/2021  04:01:00     -155.000       10.000      -55.000        0.000        0.000        0.000        0.000        0.000        0.000        1.357        0.000      155.322        0.000        0.000      332.220        0.730      845.450
12/26/2021  04:02:00     -155.000       10.000      -55.000        0.000        0.000        0.000        0.000        0.000        0.000        1.357        0.000      155.322        0.000        0.000      332.220        0.730      845.450
12/26/2021  04:03:00     -155.000       10.000      -55.000        0.000        0.000        0.000        0.000        0.000        0.000        1.357        0.000      155.322        0.000        0.000      332.220        0.730      845.450
12/26/2021  04:04:00     -155.000       10.000      -55.000        0.000        0.000        0.000        0.000        0.000        0.000        1.357        0.000      155.322        0.000        0.000      332.220        0.730      845.450
12/26/2021  04:05:00     -155.000       10.000      -55.000        0.000        0.000        0.000        0.000        0.000        0.000        1.357        0.000      155.322        0.000        0.000      332.220        0.730      845.450
12/26/2021  04:06:00     -155.000       10.000      -55.000        0.000        0.000        0.000        0.000        0.000        0.000        1.357        0.000      155.322        0.000        0.000      332.220        0.730      845.450
12/26/2021  04:07:00     -155.000       10.000      -55.000        0.000        0.000        0.000        0.000        0.000        0.000        1.357        0.000      155.322        0.000        0.000      332.220        0.730      845.450
12/26/2021  04:08:00     -155.000       10.000      -55.000        0.000        0.000        0.000        0.000        0.000        0.000        1.357        0.000      155.322        0.000        0.000      332.220        0.730      845.450
12/26/2021  04:09:00     -155.000       10.000      -55.000        0.000        0.000        0.000        0.000        0.000        0.000        1.357        0.000      155.322        0.000        0.000      332.220        0.730      845.450
12/26/2021  04:10:00     -155.000       10.000      -55.000        0.000        0.000        0.000        0.000        0.000        0.000        1.357        0.000      155.322        0.000        0.000      332.220        0.730      845.450
12/26/2021  04:11:00     -155.000       10.000      -55.000        0.000        0.000        0.000        0.000        0.000        0.000        1.357        0.000      155.322        0.000        0.000      332.220        0.730      845.450
12/26/2021  04:12:00     -155.000       10.000      -55.000        0.000        0.000        0.000        0.000        0.000        0.000        1.357        0.000      155.322        0.000        0.000      332.220        0.730      845.450
12/26/2021  04:13:00     -155.000       10.000      -55.000        0.000        0.000        0.000        0.000        0.000        0.000        1.357        0.000      155.322        0.000        0.000      332.220        0.730      845.450
12/26/2021  04:14:00     -155.000       10.000      -55.000        0.000        0.000        0.000        0.000        0.000        0.000        1.357        0.000      155.322        0.000        0.000      332.220        0.730      845.450
12/26/2021  04:15:00     -155.000       10.000      -55.000        0.000        0.000        0.000        0.000        0.000        0.000        1.357        0.000      155.322        0.000        0.000      332.220        0.730      845.450
12/26/2021  04:16:00     -155.000       10.000      -55.000        0.000        0.000        0.000        0.000        0.000        0.000        1.357        0.000      155.322        0.000        0.000      332.220        0.730      845.450
12/26/2021  04:17:00     -155.000       10.000      -55.000        0.000        0.000        0.000        0.000        0.000        0.000        1.357        0.000      155.322        0.000        0.000      332.220        0.730      845.450
12/26/2021  04:18:00     -155.000       10.000      -55.000        0.000        0.000        0.000        0.000        0.000        0.000        1.357        0.000      155.322        0.000        0.000      332.220        0.730      845.450
12/26/2021  04:19:00     -155.000       10.000      -55.000        0.000        0.000        0.000        0.000        0.000        0.000        1.357        0.000      155.322        0.000        0.000      332.220        0.730      845.450
12/26/2021  04:20:00     -155.000       10.000      -55.000        0.000        0.000        0.000        0.000        0.000        0.000        1.357        0.000      155.322        0.000        0.000      332.220        0.730      845.450
12/26/2021  04:21:00     -155.000       10.000      -55.000        0.000        0.000        0.000        0.000        0.000        0.000        1.357        0.000      155.322        0.000        0.000      332.220        0.730      845.450
12/26/2021  04:22:00     -155.000       10.000      -55.000        0.000        0.000        0.000        0.000        0.000        0.000        1.357        0.000      155.322        0.000        0.000      332.220        0.730      845.450
12/26/2021  04:23:00     -155.000       10.000      -55.000        0.000        0.000        0.000        0.000        0.000        0.000        1.357        0.000      155.322        0.000        0.000      332.220        0.730      845.450
12/26/2021  04:24:00     -155.000       10.000      -55.000        0.000        0.000        0.000        0.000        0.000        0.000        1.357        0.000      155.322        0.000        0.000      332.220        0.730      845.450
12/26/2021  04:25:00     -155.000       10.000      -55.000        0.000        0.000        0.000        0.000        0.000        0.000        1.357        0.000      155.322        0.000        0.000      332.220        0.730      845.450
12/26/2021  04:26:00     -155.000       10.000      -55.000        0.000        0.000        0.000        0.000        0.000        0.000        1.357        0.000      155.322        0.000        0.000      332.220        0.730      845.450
12/26/2021  04:27:00     -155.000       10.000      -55.000        0.000        0.000        0.000        0.000        0.000        0.000        1.357        0.000      155.322        0.000        0.000      332.220        0.730      845.450
12/26/2021  04:28:00     -155.000       10.000      -55.000        0.000        0.000        0.000        0.000        0.000        0.000        1.357        0.000      155.322        0.000        0.000      332.220        0.730      845.450
12/26/2021  04:29:00     -155.000       10.000      -55.000        0.000        0.000        0.000        0.000        0.000        0.000        1.357        0.000      155.322        0.000        0.000      332.220        0.730      845.450
12/26/2021  04:30:00     -155.000       10.000      -55.000        0.000        0.000        0.000        0.000        0.000        0.000        1.357        0.000      155.322        0.000        0.000      332.220        0.730      845.450
12/26/2021  04:31:00     -155.000       10.000      -55.000        0.000        0.000        0.000        0.000        0.000        0.000        1.357        0.000      155.322        0.000        0.000      332.220        0.730      845.450
12/26/2021  04:32:00     -155.000       10.000      -55.000        0.000        0.000        0.000        0.000        0.000        0.000        1.357        0.000      155.322        0.000        0.000      332.220        0.730      845.450
12/26/2021  04:33:00     -155.000       10.000      -55.000        0.000        0.000        0.000        0.000        0.000        0.000        1.357        0.000      155.322        0.000        0.000      332.220        0.730      845.450
12/26/2021  04:34:00     -155.000       10.000      -55.000        0.000        0.000        0.000        0.000        0.000        0.000        1.357        0.000      155.322        0.000        0.000      332.220        0.730      845.450
12/26/2021  04:35:00     -155.000       10.000      -55.000        0.000        0.000        0.000        0.000        0.000        0.000        1.357        0.000      155.322        0.000        0.000      332.220        0.730      845.450
12/26/2021  04:36:00     -155.000       10.000      -55.000        0.000        0.000        0.000        0.000        0.000        0.000        1.357        0.000      155.322        0.000        0.000      332.220        0.730      845.450
12/26/2021  04:37:00     -155.000       10.000      -55.000        0.000        0.000        0.000        0.000        0.000        0.000        1.357        0.000      155.322        0.000        0.000      332.220        0.730      845.450
12/26/2021  04:38:00     -155.000       10.000      -55.000        0.000        0.000        0.000        0.000        0.000        0.000        1.357        0.000      155.322        0.000        0.000      332.220        0.730      845.450
12/26/2021  04:39:00     -155.000       10.000      -55.000        0.000        0.000        0.000        0.000        0.000        0.000        1.357        0.000      155.322        0.000        0.000      332.220        0.730      845.450
12/26/2021  04:40:00     -155.000       10.000      -55.000        0.000        0.000        0.000        0.000        0.000        0.000        1.357        0.000      155.322        0.000        0.000      332.220        0.730      845.450
12/26/2021  04:41:00     -155.000       10.000      -55.000        0.000        0.000        0.000        0.000        0.000        0.000        1.357        0.000      155.322        0.000        0.000      332.220        0.730      845.450
12/26/2021  04:42:00     -155.000       10.000      -55.000        0.000        0.000        0.000        0.000        0.000        0.000        1.357        0.000      155.322        0.000        0.000      332.220        0.730      845.450
12/26/2021  04:43:00     -155.000       10.000      -55.000        0.000        0.000        0.000        0.000        0.000        0.000        1.357        0.000      155.322        0.000        0.000      332.220        0.730      845.450
12/26/2021  04:44:00     -155.000       10.000      -55.000        0.000        0.000        0.000        0.000        0.000        0.000        1.357        0.000      155.322        0.000        0.000      332.220        0.730      845.450
12/26/2021  04:45:00     -155.000       10.000      -55.000        0.000        0.000        0.000        0.000        0.000        0.000        1.357        0.000      155.322        0.000        0.000      332.220        0.730      845.450
12/26/2021  04:46:00     -155.000       10.000      -55.000        0.000        0.000        0.000        0.000        0.000        0.000        1.357        0.000      155.322        0.000        0.000      332.220        0.730      845.450
12/26/2021  04:47:00     -155.000       10.000      -55.000        0.000        0.000        0.000        0.000        0.000        0.000        1.357        0.000      155.322        0.000        0.000      332.220        0.730      845.450
12/26/2021  04:48:00     -155.000       10.000      -55.000        0.000        0.000        0.000        0.000        0.000        0.000        1.357        0.000      155.322        0.000        0.000      332.220        0.730      845.450
12/26/2021  04:49:00     -155.000       10.000      -55.000        0.000        0.000        0.000        0.000        0.000        0.000        1.357        0.000      155.322        0.000        0.000      332.220        0.730      845.450
12/26/2021  04:50:00     -155.000       10.000      -55.000        0.000        0.000        0.000        0.000        0.000        0.000        1.357        0.000      155.322        0.000        0.000      332.220        0.730      845.450
12/26/2021  04:51:00     -155.000       10.000      -55.000        0.000        0.000        0.000        0.000        0.000        0.000        1.357        0.000      155.322        0.000        0.000      332.220        0.730      845.450
12/26/2021  04:52:00     -155.000       10.000      -55.000        0.000        0.000        0.000        0.000        0.000        0.000        1.357        0.000      155.322        0.000        0.000      332.220        0.730      845.450
12/26/2021  04:53:00     -155.000       10.000      -55.000        0.000        0.000        0.000        0.000        0.000        0.000        1.357        0.000      155.322        0.000        0.000      332.220        0.730      845.450
12/26/2021  04:54:00     -155.000       10.000      -55.000        0.000        0.000        0.000        0.000        0.000        0.000        1.357        0.000      155.322        0.000        0.000      332.220        0.730      845.450
12/26/2021  04:55:00     -155.000       10.000      -55.000        0.000        0.000        0.000        0.000        0.000        0.000        1.357        0.000      155.322        0.000        0.000      332.220        0.730      845.450
12/26/2021  04:56:00     -155.000       10.000      -55.000        0.000        0.000        0.000        0.000        0.000        0.000        1.357        0.000      155.322        0.000        0.000      332.220        0.730      845.450
12/26/2021  04:57:00     -155.000       10.000      -55.000        0.000        0.000        0.000        0.000        0.000        0.000        1.357        0.000      155.322        0.000        0.000      332.220        0.730      845.450
12/26/2021  04:58:00     -155.000       10.000      -55.000        0.000        0.000        0.000        0.000        0.000        0.000        1.357        0.000      155.322        0.000        0.000      332.220        0.730      845.450
12/26/2021  04:59:00     -155.000       10.000      -55.000        0.000        0.000        0.000        0.000        0.000        0.000        1.357        0.000      155.322        0.000        0.000      332.220        0.730      845.450
12/26/2021  05:00:00     -155.000       10.000      -55.000        0.000        0.000        0.000        0.000        0.000        0.000        1.357        0.000      155.322        0.000        0.000      332.220        0.730      845.450
12/26/2021  05:01:00     -155.000       10.000      -55.000        0.000        0.000        0.000        0.000        0.000        0.000        1.357        0.000      155.322        0.000        0.000      332.220        0.730      845.450
12/26/2021  05:02:00     -155.000       10.000      -55.000        0.000        0.000        0.000        0.000        0.000        0.000        1.357        0.000      155.322        0.000        0.000      332.220        0.730      845.450
12/26/2021  05:03:00     -155.000       10.000      -55.000        0.000        0.000        0.000        0.000        0.000        0.000        1.357        0.000      155.322        0.000        0.000      332.220        0.730      845.450
12/26/2021  05:04:00     -155.000       10.000      -55.000        0.000        0.000        0.000        0.000        0.000        0.000        1.357        0.000      155.322        0.000        0.000      332.220        0.730      845.450
12/26/2021  05:05:00     -155.000       10.000      -55.000        0.000        0.000        0.000        0.000        0.000        0.000        1.357        0.000      155.322        0.000        0.000      332.220        0.730      845.450
12/26/2021  05:06:00     -155.000       10.000      -55.000        0.000        0.000        0.000        0.000        0.000        0.000        1.357        0.000      155.322        0.000        0.000      332.220        0.730      845.450
12/26/2021  05:07:00     -155.000       10.000      -55.000        0.000        0.000        0.000        0.000        0.000        0.000        1.357        0.000      155.322        0.000        0.000      332.220        0.730      845.450
12/26/2021  05:08:00     -155.000       10.000      -55.000        0.000        0.000        0.000        0.000        0.000        0.000        1.357        0.000      155.322        0.000        0.000      332.220        0.730      845.450
12/26/2021  05:09:00     -155.000       10.000      -55.000        0.000        0.000        0.000        0.000        0.000        0.000        1.357        0.000      155.322        0.000        0.000      332.220        0.730      845.450
12/26/2021  05:10:00     -155.000       10.000      -55.000        0.000        0.000        0.000        0.000        0.000        0.000        1.357        0.000      155.322        0.000        0.000      332.220        0.730      845.450
12/26/2021  05:11:00     -155.000       10.000      -55.000        0.000        0.000        0.000        0.000        0.000        0.000        1.357        0.000      155.322        0.000        0.000      332.220        0.730      845.450
12/26/2021  05:12:00     -155.000       10.000      -55.000        0.000        0.000        0.000        0.000        0.000        0.000        1.357        0.000      155.322        0.000        0.000      332.220        0.730      845.450
12/26/2021  05:13:00     -155.000       10.000      -55.000        0.000        0.000        0.000        0.000        0.000        0.000        1.357        0.000      155.322        0.000        0.000      332.220        0.730      845.450
12/26/2021  05:14:00     -155.000       10.000      -55.000        0.000        0.000        0.000        0.000        0.000        0.000        1.357        0.000      155.322        0.000        0.000      332.220        0.730      845.450
12/26/2021  05:15:00     -155.000       10.000      -55.000        0.000        0.000        0.000        0.000        0.000        0.000        1.357        0.000      155.322        0.000        0.000      332.220        0.730      845.450
12/26/2021  05:16:00     -155.000       10.000      -55.000        0.000        0.000        0.000        0.000        0.000        0.000        1.357        0.000      155.322        0.000        0.000      332.220        0.730      845.450
12/26/2021  05:17:00     -155.000       10.000      -55.000        0.000        0.000        0.000        0.000        0.000        0.000        1.357        0.000      155.322        0.000        0.000      332.220        0.730      845.450
12/26/2021  05:18:00     -155.000       10.000      -55.000        0.000        0.000        0.000        0.000        0.000        0.000        1.357        0.000      155.322        0.000        0.000      332.220        0.730      845.450
12/26/2021  05:19:00     -155.000       10.000      -55.000        0.000        0.000        0.000        0.000        0.000        0.000        1.357        0.000      155.322        0.000        0.000      332.220        0.730      845.450
12/26/2021  05:20:00     -155.000       10.000      -55.000        0.000        0.000        0.000        0.000        0.000        0.000        1.357        0.000      155.322        0.000        0.000      332.220        0.730      845.450
12/26/2021  05:21:00     -155.000       10.000      -55.000        0.000        0.000        0.000        0.000        0.000        0.000        1.357        0.000      155.322        0.000        0.000      332.220        0.730      845.450
12/26/2021  05:22:00     -155.000       10.000      -55.000        0.000        0.000        0.000        0.000        0.000        0.000        1.357        0.000      155.322        0.000        0.000      332.220        0.730      845.450
12/26/2021  05:23:00     -155.000       10.000      -55.000        0.000        0.000        0.000        0.000        0.000        0.000        1.357        0.000      155.322        0.000        0.000      332.220        0.730      845.450
12/26/2021  05:24:00     -155.000       10.000      -55.000        0.000        0.000        0.000        0.000        0.000        0.000        1.357        0.000      155.322        0.000        0.000      332.220        0.730      845.450
12/26/2021  05:25:00     -155.000       10.000      -55.000        0.000        0.000        0.000        0.000        0.000        0.000        1.357        0.000      155.322        0.000        0.000      332.220        0.730      845.450
12/26/2021  05:26:00     -155.000       10.000      -55.000        0.000        0.000        0.000        0.000        0.000        0.000        1.357        0.000      155.322        0.000        0.000      332.220        0.730      845.450
12/26/2021  05:27:00     -155.000       10.000      -55.000        0.000        0.000        0.000        0.000        0.000        0.000        1.357        0.000      155.322        0.000        0.000      332.220        0.730      845.450
12/26/2021  05:28:00     -155.000       10.000      -55.000        0.000        0.000        0.000        0.000        0.000        0.000        1.357        0.000      155.322        0.000        0.000      332.220        0.730      845.450
12/26/2021  05:29:00     -155.000       10.000      -55.000        0.000        0.000        0.000        0.000        0.000        0.000        1.357        0.000      155.322        0.000        0.000      332.220        0.730      845.450
12/26/2021  05:30:00     -155.000       10.000      -55.000        0.000        0.000        0.000        0.000        0.000        0.000        1.357        0.000      155.322        0.000        0.000      332.220        0.730      845.450
12/26/2021  05:31:00     -155.000       10.000      -55.000        0.000        0.000        0.000        0.000        0.000        0.000        1.357        0.000      155.322        0.000        0.000      332.220        0.730      845.450
12/26/2021  05:32:00     -155.000       10.000      -55.000        0.000        0.000        0.000        0.000        0.000        0.000        1.357        0.000      155.322        0.000        0.000      332.220        0.730      845.450
12/26/2021  05:33:00     -155.000       10.000      -55.000        0.000        0.000        0.000        0.000        0.000        0.000        1.357        0.000      155.322        0.000        0.000      332.220        0.730      845.450
12/26/2021  05:34:00     -155.000       10.000      -55.000        0.000        0.000        0.000        0.000        0.000        0.000        1.357        0.000      155.322        0.000        0.000      332.220        0.730      845.450
12/26/2021  05:35:00     -155.000       10.000      -55.000        0.000        0.000        0.000        0.000        0.000        0.000        1.357        0.000      155.322        0.000        0.000      332.220        0.730      845.450
12/26/2021  05:36:00     -155.000       10.000      -55.000        0.000        0.000        0.000        0.000        0.000        0.000        1.357        0.000      155.322        0.000        0.000      332.220        0.730      845.450
12/26/2021  05:37:00     -155.000       10.000      -55.000        0.000        0.000        0.000        0.000        0.000        0.000        1.357        0.000      155.322        0.000        0.000      332.220        0.730      845.450
12/26/2021  05:38:00     -155.000       10.000      -55.000        0.000        0.000        0.000        0.000        0.000        0.000        1.357        0.000      155.322        0.000        0.000      332.220        0.730      845.450
12/26/2021  05:39:00     -155.000       10.000      -55.000        0.000        0.000        0.000        0.000        0.000        0.000        1.357        0.000      155.322        0.000        0.000      332.220        0.730      845.450
12/26/2021  05:40:00     -155.000       10.000      -55.000        0.000        0.000        0.000        0.000        0.000        0.000        1.357        0.000      155.322        0.000        0.000      332.220        0.730      845.450
12/26/2021  05:41:00     -155.000       10.000      -55.000        0.000        0.000        0.000        0.000        0.000        0.000        1.357        0.000      155.322        0.000        0.000      332.220        0.730      845.450
12/26/2021  05:42:00     -155.000       10.000      -55.000        0.000        0.000        0.000        0.000        0.000        0.000        1.357        0.000      155.322        0.000        0.000      332.220        0.730      845.450
12/26/2021  05:43:00     -155.000       10.000      -55.000        0.000        0.000        0.000        0.000        0.000        0.000        1.357        0.000      155.322        0.000        0.000      332.220        0.730      845.450
12/26/2021  05:44:00     -155.000       10.000      -55.000        0.000        0.000        0.000        0.000        0.000        0.000        1.357        0.000      155.322        0.000        0.000      332.220        0.730      845.450
12/26/2021  05:45:00     -155.000       10.000      -55.000        0.000        0.000        0.000        0.000        0.000        0.000        1.357        0.000      155.322        0.000        0.000      332.220        0.730      845.450
12/26/2021  05:46:00     -155.000       10.000      -55.000        0.000        0.000        0.000        0.000        0.000        0.000        1.357        0.000      155.322        0.000        0.000      332.220        0.730      845.450
12/26/2021  05:47:00     -155.000       10.000      -55.000        0.000        0.000        0.000        0.000        0.000        0.000        1.357        0.000      155.322        0.000        0.000      332.220        0.730      845.450
12/26/2021  05:48:00     -155.000       10.000      -55.000        0.000        0.000        0.000        0.000        0.000        0.000        1.357        0.000      155.322        0.000        0.000      332.220        0.730      845.450
12/26/2021  05:49:00     -155.000       10.000      -55.000        0.000        0.000        0.000        0.000        0.000        0.000        1.357        0.000      155.322        0.000        0.000      332.220        0.730      845.450
12/26/2021  05:50:00     -155.000       10.000      -55.000        0.000        0.000        0.000        0.000        0.000        0.000        1.357        0.000      155.322        0.000        0.000      332.220        0.730      845.450
12/26/2021  05:51:00     -155.000       10.000      -55.000        0.000        0.000        0.000        0.000        0.000        0.000        1.357        0.000      155.322        0.000        0.000      332.220        0.730      845.450
12/26/2021  05:52:00     -155.000       10.000      -55.000        0.000        0.000        0.000        0.000        0.000        0.000        1.357        0.000      155.322        0.000        0.000      332.220        0.730      845.450
12/26/2021  05:53:00     -155.000       10.000      -55.000        0.000        0.000        0.000        0.000        0.000        0.000        1.357        0.000      155.322        0.000        0.000      332.220        0.730      845.450
12/26/2021  05:54:00     -155.000       10.000      -55.000        0.000        0.000        0.000        0.000        0.000        0.000        1.357        0.000      155.322        0.000        0.000      332.220        0.730      845.450
12/26/2021  05:55:00     -155.000       10.000      -55.000        0.000        0.000        0.000        0.000        0.000        0.000        1.357        0.000      155.322        0.000        0.000      332.220        0.730      845.450
12/26/2021  05:56:00     -155.000       10.000      -55.000        0.000        0.000        0.000        0.000        0.000        0.000        1.357        0.000      155.322        0.000        0.000      332.220        0.730      845.450
12/26/2021  05:57:00     -155.000       10.000      -55.000        0.000        0.000        0.000        0.000        0.000        0.000        1.357        0.000      155.322        0.000        0.000      332.220        0.730      845.450
12/26/2021  05:58:00     -155.000       10.000      -55.000        0.000        0.000        0.000        0.000        0.000        0.000        1.357        0.000      155.322        0.000        0.000      332.220        0.730      845.450
12/26/2021  05:59:00     -155.000       10.000      -55.000        0.000        0.000        0.000        0.000        0.000        0.000        1.357        0.000      155.322        0.000        0.000      332.220        0.730      845.450
12/26/2021  06:00:00     -155.000       10.000      -55.000        0.000        0.000        0.000        0.000        0.000        0.000        1.357        0.000      155.322        0.000        0.000      332.220        0.730      845.450
12/26/2021  06:01:00     -155.000       10.000      -55.000        0.000        0.000        0.000        0.000        0.000        0.000        1.357        0.000      155.322        0.000        0.000      332.220        0.730      845.450
12/26/2021  06:02:00     -155.000       10.000      -55.000        0.000        0.000        0.000        0.000        0.000        0.000        1.357        0.000      155.322        0.000        0.000      332.220        0.730      845.450
12/26/2021  06:03:00     -155.000       10.000      -55.000        0.000        0.000        0.000        0.000        0.000        0.000        1.357        0.000      155.322        0.000        0.000      332.220        0.730      845.450
12/26/2021  06:04:00     -155.000       10.000      -55.000        0.000        0.000        0.000        0.000        0.000        0.000        1.357        0.000      155.322        0.000        0.000      332.220        0.730      845.450
12/26/2021  06:05:00     -155.000       10.000      -55.000        0.000        0.000        0.000        0.000        0.000        0.000        1.357        0.000      155.322        0.000        0.000      332.220        0.730      845.450
12/26/2021  06:06:00     -155.000       10.000      -55.000        0.000        0.000        0.000        0.000        0.000        0.000        1.357        0.000      155.322        0.000        0.000      332.220        0.730      845.450
12/26/2021  06:07:00     -155.000       10.000      -55.000        0.000        0.000        0.000        0.000        0.000        0.000        1.357        0.000      155.322        0.000        0.000      332.220        0.730      845.450
12/26/2021  06:08:00     -155.000       10.000      -55.000        0.000        0.000        0.000        0.000        0.000        0.000        1.357        0.000      155.322        0.000        0.000      332.220        0.730      845.450
12/26/2021  06:09:00     -155.000       10.000      -55.000        0.000        0.000        0.000        0.000        0.000        0.000        1.357        0.000      155.322        0.000        0.000      332.220        0.730      845.450
12/26/2021  06:10:00     -155.000       10.000      -55.000        0.000        0.000        0.000        0.000        0.000        0.000        1.357        0.000      155.322        0.000        0.000      332.220        0.730      845.450
12/26/2021  06:11:00     -155.000       10.000      -55.000        0.000        0.000        0.000        0.000        0.000        0.000        1.357        0.000      155.322        0.000        0.000      332.220        0.730      845.450
12/26/2021  06:12:00     -155.000       10.000      -55.000        0.000        0.000        0.000        0.000        0.000        0.000        1.357        0.000      155.322        0.000        0.000      332.220        0.730      845.450
12/26/2021  06:13:00     -155.000       10.000      -55.000        0.000        0.000        0.000        0.000        0.000        0.000        1.357        0.000      155.322        0.000        0.000      332.220        0.730      845.450
12/26/2021  06:14:00     -155.000       10.000      -55.000        0.000        0.000        0.000        0.000        0.000        0.000        1.357        0.000      155.322        0.000        0.000      332.220        0.730      845.450
12/26/2021  06:15:00     -155.000       10.000      -55.000        0.000        0.000        0.000        0.000        0.000        0.000        1.357        0.000      155.322        0.000        0.000      332.220        0.730      845.450
12/26/2021  06:16:00     -155.000       10.000      -55.000        0.000        0.000        0.000        0.000        0.000        0.000        1.357        0.000      155.322        0.000        0.000      332.220        0.730      845.450
12/26/2021  06:17:00     -155.000       10.000      -55.000        0.000        0.000        0.000        0.000        0.000        0.000        1.357        0.000      155.322        0.000        0.000      332.220        0.730      845.450
12/26/2021  06:18:00     -155.000       10.000      -55.000        0.000        0.000        0.000        0.000        0.000        0.000        1.357        0.000      155.322        0.000        0.000      332.220        0.730      845.450
12/26/2021  06:19:00     -155.000       10.000      -55.000        0.000        0.000        0.000        0.000        0.000        0.000        1.357        0.000      155.322        0.000        0.000      332.220        0.730      845.450
12/26/2021  06:20:00     -155.000       10.000      -55.000        0.000        0.000        0.000        0.000        0.000        0.000        1.357        0.000      155.322        0.000        0.000      332.220        0.730      845.450
12/26/2021  06:21:00     -155.000       10.000      -55.000        0.000        0.000        0.000        0.000        0.000        0.000        1.357        0.000      155.322        0.000        0.000      332.220        0.730      845.450
12/26/2021  06:22:00     -155.000       10.000      -55.000        0.000        0.000        0.000        0.000        0.000        0.000        1.357        0.000      155.322        0.000        0.000      332.220        0.730      845.450
12/26/2021  06:23:00     -155.000       10.000      -55.000        0.000        0.000        0.000        0.000        0.000        0.000        1.357        0.000      155.322        0.000        0.000      332.220        0.730      845.450
12/26/2021  06:24:00     -155.000       10.000      -55.000        0.000        0.000        0.000        0.000        0.000        0.000        1.357        0.000      155.322        0.000        0.000      332.220        0.730      845.450
12/26/2021  06:25:00     -155.000       10.000      -55.000        0.000        0.000        0.000        0.000        0.000        0.000        1.357        0.000      155.322        0.000        0.000      332.220        0.730      845.450
12/26/2021  06:26:00     -155.000       10.000      -55.000        0.000        0.000        0.000        0.000        0.000        0.000        1.357        0.000      155.322        0.000        0.000      332.220        0.730      845.450
12/26/2021  06:27:00     -155.000       10.000      -55.000        0.000        0.000        0.000        0.000        0.000        0.000        1.357        0.000      155.322        0.000        0.000      332.220        0.730      845.450
12/26/2021  06:28:00     -155.000       10.000      -55.000        0.000        0.000        0.000        0.000        0.000        0.000        1.357        0.000      155.322        0.000        0.000      332.220        0.730      845.450
12/26/2021  06:29:00     -155.000       10.000      -55.000        0.000        0.000        0.000        0.000        0.000        0.000        1.357        0.000      155.322        0.000        0.000      332.220        0.730      845.450
12/26/2021  06:30:00     -155.000       10.000      -55.000        0.000        0.000        0.000        0.000        0.000        0.000        1.357        0.000      155.322        0.000        0.000      332.220        0.730      845.450
12/26/2021  06:31:00     -155.000       10.000      -55.000        0.000        0.000        0.000        0.000        0.000        0.000        1.357        0.000      155.322        0.000        0.000      332.220        0.730      845.450
12/26/2021  06:32:00     -155.000       10.000      -55.000        0.000        0.000        0.000        0.000        0.000        0.000        1.357        0.000      155.322        0.000        0.000      332.220        0.730      845.450
12/26/2021  06:33:00     -155.000       10.000      -55.000        0.000        0.000        0.000        0.000        0.000        0.000        1.357        0.000      155.322        0.000        0.000      332.220        0.730      845.450
12/26/2021  06:34:00     -155.000       10.000      -55.000        0.000        0.000        0.000        0.000        0.000        0.000        1.357        0.000      155.322        0.000        0.000      332.220        0.730      845.450
12/26/2021  06:35:00     -155.000       10.000      -55.000        0.000        0.000        0.000        0.000        0.000        0.000        1.357        0.000      155.322        0.000        0.000      332.220        0.730      845.450
12/26/2021  06:36:00     -155.000       10.000      -55.000        0.000        0.000        0.000        0.000        0.000        0.000        1.357        0.000      155.322        0.000        0.000      332.220        0.730      845.450
12/26/2021  06:37:00     -155.000       10.000      -55.000        0.000        0.000        0.000        0.000        0.000        0.000        1.357        0.000      155.322        0.000        0.000      332.220        0.730      845.450
12/26/2021  06:38:00     -155.000       10.000      -55.000        0.000        0.000        0.000        0.000        0.000        0.000        1.357        0.000      155.322        0.000        0.000      332.220        0.730      845.450
12/26/2021  06:39:00     -155.000       10.000      -55.000        0.000        0.000        0.000        0.000        0.000        0.000        1.357        0.000      155.322        0.000        0.000      332.220        0.730      845.450
12/26/2021  06:40:00     -155.000       10.000      -55.000        0.000        0.000        0.000        0.000        0.000        0.000        1.357        0.000      155.322        0.000        0.000      332.220        0.730      845.450
12/26/2021  06:41:00     -155.000       10.000      -55.000        0.000        0.000        0.000        0.000        0.000        0.000        1.357        0.000      155.322        0.000        0.000      332.220        0.730      845.450
12/26/2021  06:42:00     -155.000       10.000      -55.000        0.000        0.000        0.000        0.000        0.000        0.000        1.357        0.000      155.322        0.000        0.000      332.220        0.730      845.450
12/26/2021  06:43:00     -155.000       10.000      -55.000        0.000        0.000        0.000        0.000        0.000        0.000        1.357        0.000      155.322        0.000        0.000      332.220        0.730      845.450
12/26/2021  06:44:00     -155.000       10.000      -55.000        0.000        0.000        0.000        0.000        0.000        0.000        1.357        0.000      155.322        0.000        0.000      332.220        0.730      845.450
12/26/2021  06:45:00     -155.000       10.000      -55.000        0.000        0.000        0.000        0.000        0.000        0.000        1.357        0.000      155.322        0.000        0.000      332.220        0.730      845.450
12/26/2021  06:46:00     -155.000       10.000      -55.000        0.000        0.000        0.000        0.000        0.000        0.000        1.357        0.000      155.322        0.000        0.000      332.220        0.730      845.450
12/26/2021  06:47:00     -155.000       10.000      -55.000        0.000        0.000        0.000        0.000        0.000        0.000        1.357        0.000      155.322        0.000        0.000      332.220        0.730      845.450
12/26/2021  06:48:00     -155.000       10.000      -55.000        0.000        0.000        0.000        0.000        0.000        0.000        1.357        0.000      155.322        0.000        0.000      332.220        0.730      845.450
12/26/2021  06:49:00     -155.000       10.000      -55.000        0.000        0.000        0.000        0.000        0.000        0.000        1.357        0.000      155.322        0.000        0.000      332.220        0.730      845.450
12/26/2021  06:50:00     -155.000       10.000      -55.000        0.000        0.000        0.000        0.000        0.000        0.000        1.357        0.000      155.322        0.000        0.000      332.220        0.730      845.450
12/26/2021  06:51:00     -155.000       10.000      -55.000        0.000        0.000        0.000        0.000        0.000        0.000        1.357        0.000      155.322        0.000        0.000      332.220        0.730      845.450
12/26/2021  06:52:00     -155.000       10.000      -55.000        0.000        0.000        0.000        0.000        0.000        0.000        1.357        0.000      155.322        0.000        0.000      332.220        0.730      845.450
12/26/2021  06:53:00     -155.000       10.000      -55.000        0.000        0.000        0.000        0.000        0.000        0.000        1.357        0.000      155.322        0.000        0.000      332.220        0.730      845.450
12/26/2021  06:54:00     -155.000       10.000      -55.000        0.000        0.000        0.000        0.000        0.000        0.000        1.357        0.000      155.322        0.000        0.000      332.220        0.730      845.450
12/26/2021  06:55:00     -155.000       10.000      -55.000        0.000        0.000        0.000        0.000        0.000        0.000        1.357        0.000      155.322        0.000        0.000      332.220        0.730      845.450
12/26/2021  06:56:00     -189.380      -67.233      -92.451       61.568      216.659       97.421     3790.676    46941.050     9490.878        5.457        3.011      200.960      139.776        0.484      328.869       -4.761      850.765
12/26/2021  06:57:00      -48.807       32.077       32.544       47.672      112.388       69.772     2272.584    12631.075     4868.186        1.212        0.989       58.404       38.225        0.428      328.671       -5.081      850.960
12/26/2021  06:58:00      -38.059       89.079      -20.380       40.436       52.479       29.561     1635.104     2754.046      873.853        0.753        0.263       96.868       14.177        0.021      328.660       -5.101      850.937
12/26/2021  06:59:00       -2.153      123.502      192.219       30.171       83.728      174.847      910.287     7010.422    30571.430        4.534        1.925      123.521       67.438        0.298      328.756       -4.950      850.948
12/26/2021  07:00:00     -103.077       17.482       27.638      138.043       94.013      122.286    19055.769     8838.394    14953.861        2.726        2.142      104.549       93.579        0.801      328.666       -5.096      850.900
12/26/2021  07:01:00     -153.175       55.067        1.744       81.412       92.848       55.357     6627.925     8620.831     3064.382        2.240        0.916      162.772       24.900        0.023      328.607       -5.189      850.924
12/26/2021  07:02:00     -208.043       68.012       62.513      118.074      116.523      102.817    13941.387    13577.527    10571.317        4.495        1.905      218.878       53.807        0.060      328.659       -5.102      850.882
12/26/2021  07:03:00     -258.944      -97.487       25.902      145.317      138.436      116.045    21116.969    19164.408    13466.481        6.548        2.687      276.687       81.320        0.086      328.729       -4.989      850.878
12/26/2021  07:04:00     -159.094       55.192       -1.435      167.794       99.430       67.685    28154.836     9886.379     4581.277        3.548        2.131      168.395       45.819        0.074      328.678       -5.071      850.844
12/26/2021  07:05:00      -90.568      -18.407       48.983      165.876      124.152      107.383    27514.878    15413.697    11531.161        3.269        2.723       92.419       91.048        0.971      328.622       -5.160      850.803
12/26/2021  07:06:00     -248.979     -142.937      -95.566      225.492      139.311      135.217    50846.643    19407.594    18283.617        9.003        4.427      287.091       72.843        0.064      328.697       -5.037      850.804
12/26/2021  07:07:00     -232.068      -18.061       60.291      173.249      133.813      118.814    30015.260    17905.941    14116.853        5.992        3.102      232.769       98.639        0.180      328.740       -4.975      850.755
12/26/2021  07:08:00     -176.955        7.618       30.639      198.196      137.691      100.072    39281.694    18958.841    10014.429        5.027        3.413      177.119       85.948        0.235      328.671       -5.083      850.799
12/26/2021  07:09:00     -293.630       14.611       -5.835      175.966      163.437      103.465    30963.941    26711.639    10705.040        7.741        3.419      293.993       73.506        0.063      328.659       -5.101      850.758
12/26/2021  07:10:00     -218.160      134.603       11.901      169.034      137.746       80.969    28572.564    18973.939     6556.057        5.997        2.705      256.343       91.549        0.128      328.609       -5.179      850.733
12/26/2021  07:11:00     -310.017      -29.714       10.300      222.961      137.984       79.106    49711.801    19039.596     6257.754        8.604        3.750      311.438       62.461        0.040      328.664       -5.093      850.764
12/26/2021  07:12:00     -201.184       41.148       -2.815      227.230      142.887      106.825    51633.447    20416.555    11411.504        6.280        4.173      205.349       86.533        0.178      328.719       -5.002      850.804
12/26/2021  07:13:00     -328.810       61.947       13.389      134.586      138.331       94.814    18113.470    19135.448     8989.686        7.918        2.312      334.594       81.819        0.060      328.676       -5.076      850.773
12/26/2021  07:14:00     -388.470       44.510        7.441      208.534      190.847      109.332    43486.547    36422.746    11953.556       12.239        4.593      391.012       86.700        0.049      328.829       -4.823      850.748
12/26/2021  07:15:00     -403.031       97.194      -44.509      137.906      164.701      121.978    19018.020    27126.522    14878.711       11.743        3.051      414.584      130.009        0.098      328.847       -4.786      850.768
12/26/2021  07:16:00     -383.863      -81.482        8.049      434.829      197.282      186.551   189076.689    38919.997    34801.092       20.838       13.140      392.416      255.715        0.425      328.966       -4.602      850.773
12/26/2021  07:17:00     -491.534       10.199      -61.311      369.416      204.470      229.034   136467.947    41808.090    52456.742       23.806       11.537      491.640      265.981        0.293      329.118       -4.352      850.758
12/26/2021  07:18:00     -528.601       32.860      -60.619      344.186      227.894      156.076   118464.071    51935.708    24359.744       23.943        9.738      529.621      234.486        0.196      329.315       -4.035      850.797
12/26/2021  07:19:00     -592.388      -63.626      -85.035      286.234      176.013      136.941    81929.674    30980.416    18752.702       24.691        6.583      595.795      158.356        0.071      329.131       -4.329      850.809
12/26/2021  07:20:00     -460.665       15.961      -32.344      299.772      168.200      152.771    89863.086    28291.399    23339.072       17.748        7.075      460.941      200.736        0.190      329.107       -4.368      850.770
12/26/2021  07:21:00     -398.429       32.550      -59.044      375.504      231.529      203.492   141003.335    53605.517    41408.857       19.961       11.801      399.756      244.508        0.374      329.154       -4.295      850.829
12/26/2021  07:22:00     -410.561       33.549      -51.716      299.116      213.358      161.060    89470.520    45521.772    25940.212       16.662        8.047      411.929      204.374        0.246      329.232       -4.168      850.806
12/26/2021  07:23:00     -249.385       12.478       -2.128      303.170      177.405      184.286    91912.255    31472.405    33961.514       10.982        7.867      249.697      227.983        0.834      329.240       -4.156      850.811
12/26/2021  07:24:00     -496.404      -65.506      -90.398      256.103      144.358      149.300    65588.967    20839.291    22290.535       18.378        5.436      500.708      170.420        0.116      329.181       -4.248      850.815
12/26/2021  07:25:00     -558.938      -44.888      -80.647      304.132      212.630      161.890    92496.272    45211.572    26208.397       24.239        8.196      560.737      200.361        0.128      329.261       -4.117      850.783
12/26/2021  07:26:00     -449.940      -41.774     -106.349      211.480      183.382      117.370    44723.906    33628.906    13775.768       15.380        4.606      451.875      127.632        0.080      329.159       -4.289      850.807
12/26/2021  07:27:00     -547.939       43.254     -115.054      253.103      163.213      130.979    64061.259    26638.572    17155.574       21.158        5.393      549.644      120.862        0.048      329.226       -4.176      850.777
12/26/2021  07:28:00     -372.030       -4.014      -31.084      382.640      188.967      152.747   146413.241    35708.520    23331.685       17.239       10.273      372.052      207.098        0.310      329.246       -4.144      850.820
12/26/2021  07:29:00     -410.861       87.302      -76.218      305.545      166.540      182.415    93357.479    27735.560    33275.235       16.828        7.718      420.034      167.305        0.159      329.208       -4.207      850.878
12/26/2021  07:30:00     -436.778       -8.211      -50.313      370.656      201.559      167.186   137385.644    40626.206    27951.284       19.963       10.298      436.855      215.818        0.244      329.419       -3.861      850.924
12/26/2021  07:31:00     -680.346      -90.701     -105.106      353.391      252.737      169.826   124885.380    63875.986    28840.911       34.983       10.880      686.365      195.533        0.081      329.320       -4.023      850.914
12/26/2021  07:32:00     -204.138      -32.682       -4.100      277.337      220.787      177.851    76915.557    48746.995    31630.823       10.000        7.865      206.738      132.635        0.412      329.626       -3.523      850.931
12/26/2021  07:33:00     -188.747      -35.853        5.202      277.508      155.309      148.674    77010.926    24121.035    22104.037        8.006        6.162      192.122      161.751        0.709      329.633       -3.511      850.933
12/26/2021  07:34:00     -362.522      -39.423      -57.833      342.640      163.872      135.571   117401.924    26854.094    18379.544       14.945        8.132      364.659      144.962        0.158      329.657       -3.471      850.922
12/26/2021  07:35:00     -382.959       79.539      -12.140      339.105      178.387      142.164   114992.304    31821.921    20210.729       16.005        8.351      391.132      171.430        0.192      329.615       -3.538      850.898
12/26/2021  07:36:00     -301.540      -55.153      -25.342      304.435      177.872      155.653    92680.765    31638.460    24227.968       12.155        7.427      306.542      158.595        0.268      329.681       -3.432      850.960
12/26/2021  07:37:00     -242.907      -27.470      -11.719      283.965      165.707      134.377    80636.279    27458.679    18057.196        9.300        6.308      244.455      149.280        0.373      329.700       -3.399      850.927
12/26/2021  07:38:00     -546.993       -1.021      -57.801      346.447      202.709      150.349   120025.645    41091.072    22604.892       24.310        9.186      546.994      191.625        0.123      329.594       -3.575      850.881
12/26/2021  07:39:00     -481.453     -118.202      -54.247      399.980      181.372      170.035   159984.382    32895.735    28911.759       23.521       11.090      495.751      206.318        0.173      329.591       -3.580      850.869
12/26/2021  07:40:00     -710.057     -124.705      -91.546      434.020      210.142      161.847   188373.700    44159.777    26194.311       39.337       12.936      720.924      208.052        0.083      329.552       -3.643      850.874
12/26/2021  07:41:00     -609.728      -29.275      -38.370      364.362      225.216      177.346   132759.902    50722.079    31451.688       29.448       10.747      610.431      189.283        0.096      329.649       -3.484      850.894
12/26/2021  07:42:00     -564.696      -64.586      -52.650      324.264      176.367      149.009   105147.068    31105.380    22203.574       24.211        7.923      568.377      156.780        0.076      329.750       -3.318      850.884
12/26/2021  07:43:00     -454.912       65.363      -19.774      291.640      208.016      146.286    85053.623    43270.649    21399.738       18.064        7.486      459.584      157.657        0.118      329.767       -3.291      850.885
12/26/2021  07:44:00     -447.972      -15.077       -3.592      386.562      238.326      177.981   149429.854    56799.207    31677.398       21.937       11.895      448.225      171.613        0.147      329.702       -3.398      850.780
12/26/2021  07:45:00     -572.158       65.608      -53.576      384.778      269.906      153.390   148054.426    72849.262    23528.545       28.944       12.222      575.907      180.307        0.098      329.645       -3.490      850.765
12/26/2021  07:46:00     -747.892     -116.400      -32.800      372.730      276.339      206.721   138927.399    76363.403    42733.421       41.595       12.901      756.896      206.111        0.074      329.545       -3.655      850.765
12/26/2021  07:47:00     -491.474      -17.996      -29.258      472.924      229.940      197.645   223657.182    52872.402    39063.723       27.910       15.780      491.804      227.140        0.213      329.510       -3.713      850.758
12/26/2021  07:48:00     -752.324       26.482      -54.007      481.317      302.230      194.515   231665.598    91342.936    37836.081       46.516       18.042      752.790      230.306        0.094      329.538       -3.665      850.795
12/26/2021  07:49:00     -758.896       33.402      -12.855      518.138      272.918      177.963   268467.398    74484.487    31670.903       47.584       18.731      759.631      218.446        0.083      329.654       -3.476      850.861
12/26/2021  07:50:00     -792.337      -67.035      -39.774      407.781      206.013      175.575   166285.367    42441.501    30826.660       43.667       11.978      795.167      198.354        0.062      329.715       -3.377      850.867
12/26/2021  07:51:00     -611.786        8.735      -18.162      400.786      227.177      164.264   160629.797    51609.454    26982.584       30.691       11.961      611.848      165.607        0.073      329.798       -3.240      850.883
12/26/2021  07:52:00     -702.249       63.763      -23.747      356.165      291.426      161.156   126853.273    84929.058    25971.182       36.772       11.888      705.137      171.408        0.059      329.857       -3.144      850.823
12/26/2021  07:53:00     -590.203      -16.179      -24.193      388.653      231.968      162.805   151051.085    53809.174    26505.497       29.023       11.568      590.425      152.746        0.067      329.800       -3.238      850.829
12/26/2021  07:54:00     -574.883      -24.252      -40.284      366.549      257.843      168.149   134358.187    66482.932    28274.154       28.087       11.456      575.395      176.979        0.095      329.840       -3.173      850.899
12/26/2021  07:55:00     -589.805       14.532       -0.289      398.050      233.827      180.212   158444.136    54675.222    32476.343       29.679       12.280      589.984      176.634        0.090      329.835       -3.181      850.899
12/26/2021  07:56:00     -713.680       30.141      -18.497      416.270      271.784      170.516   173280.684    73866.534    29075.623       39.336       13.811      714.317      172.260        0.058      329.834       -3.181      850.910
12/26/2021  07:57:00     -682.984        1.344      -47.709      389.905      254.479      142.709   152025.608    64759.487    20365.767       35.290       11.858      682.985      137.695        0.041      329.919       -3.044      850.922
12/26/2021  07:58:00     -515.265      -14.656      -34.108      433.491      246.253      170.159   187914.256    60640.381    28954.233       27.214       13.875      515.473      116.727        0.051      329.902       -3.070      850.995
12/26/2021  07:59:00     -724.367       77.964      -40.857      380.021      279.891      170.053   144415.880    78338.740    28918.184       39.202       12.584      728.550      137.117        0.035      329.870       -3.122      850.995
12/26/2021  08:00:00     -641.924      -17.363      -30.016      453.102      264.393      205.118   205301.103    69903.402    42073.552       36.522       15.864      642.159      225.983        0.124      329.867       -3.129      851.024
12/26/2021  08:01:00     -812.975      -38.701      -57.388      541.834      257.821      186.870   293583.648    66471.590    34920.561       53.027       19.749      813.895      219.557        0.073      329.890       -3.090      851.078
12/26/2021  08:02:00     -536.501       -1.620      -28.267      451.922      244.991      189.727   204233.762    60020.681    35996.320       29.439       15.013      536.504      190.964        0.127      329.999       -2.911      851.102
12/26/2021  08:03:00     -756.873      -18.914      -65.515      382.021      230.430      157.354   145940.144    53098.194    24760.179       40.061       11.190      757.109      166.928        0.049      330.063       -2.806      851.144
12/26/2021  08:04:00     -612.233      -46.405        1.479      413.294      232.609      200.182   170812.017    54107.058    40072.697       32.094       13.250      613.989      192.154        0.098      329.948       -2.995      851.149
12/26/2021  08:05:00     -473.372      -14.527      -20.234      359.752      202.176      166.891   129421.350    40875.208    27852.616       21.139        9.907      473.595      170.181        0.129      329.942       -3.006      851.197
12/26/2021  08:06:00     -452.152       -7.825        6.292      284.472      191.904      122.289    80924.286    36826.992    14954.567       16.860        6.635      452.220      136.711        0.091      329.957       -2.980      851.248
12/26/2021  08:07:00     -620.747       16.675      -41.408      324.182      187.145      132.650   105093.964    35023.069    17596.039       27.249        7.886      620.971      141.120        0.052      329.973       -2.953      851.296
12/26/2021  08:08:00     -522.392      -45.143      -29.994      400.006      204.727      133.726   160004.608    41913.348    17882.584       24.778       10.990      524.339      164.865        0.099      330.020       -2.878      851.281
12/26/2021  08:09:00     -614.082      100.617      -22.671      308.204      260.790      120.217    94989.768    68011.281    14452.112       28.256        8.873      622.270      128.398        0.043      329.978       -2.946      851.276
12/26/2021  08:10:00     -436.741       32.594      -10.667      265.706      166.608      134.129    70599.498    27758.333    17990.694       15.411        5.817      437.956      135.506        0.096      329.961       -2.974      851.363
12/26/2021  08:11:00     -774.793      -70.971       -0.671      377.951      257.791      179.567   142846.736    66456.362    32244.209       42.340       12.077      778.037      195.421        0.063      329.937       -3.013      851.341
12/26/2021  08:12:00     -294.095       97.082      -17.229      320.142      242.509      121.826   102491.042    58810.715    14841.555       13.615        8.807      309.705      141.119        0.208      329.881       -3.106      851.331
12/26/2021  08:13:00     -378.423       95.539      -23.833      333.151      216.696      128.799   110989.496    46956.940    16589.087       16.369        8.727      390.297      124.951        0.102      329.867       -3.129      851.332
12/26/2021  08:14:00     -305.352       39.216       -4.286      304.414      188.824      132.912    92667.718    35654.348    17665.508       12.036        7.299      307.860      130.167        0.179      329.863       -3.135      851.328
12/26/2021  08:15:00     -459.451       41.741      -17.248      386.997      208.458      160.558   149766.303    43454.536    25778.932       21.603       10.950      461.344      155.001        0.113      329.880       -3.108      851.346
12/26/2021  08:16:00     -389.625       -6.785       -2.733      253.435      163.767      121.440    64229.064    26819.688    14747.569       12.881        5.290      389.684      117.181        0.090      329.870       -3.124      851.378
12/26/2021  08:17:00     -624.187       65.810      -47.070      386.160      286.667      159.927   149119.200    82177.846    25576.487       32.647       12.844      627.647      154.721        0.061      329.916       -3.048      851.414
12/26/2021  08:18:00     -333.847       31.806       -6.696      294.348      221.580      134.648    86640.878    49097.699    18130.140       13.316        7.693      335.359      129.128        0.148      329.912       -3.054      851.436
12/26/2021  08:19:00     -499.486      112.434       -9.963      421.793      231.379      147.560   177909.578    53536.353    21773.837       25.768       12.661      511.985      172.257        0.113      329.951       -2.991      851.475
12/26/2021  08:20:00     -523.378       47.701      -48.180      381.544      227.662      169.087   145575.568    51830.206    28590.293       25.222       11.300      525.547      149.347        0.081      329.949       -2.993      851.454
12/26/2021  08:21:00     -329.413        4.486        3.820      366.266      218.314      168.910   134150.923    47661.080    28530.637       15.941       10.517      329.443      180.708        0.301      329.947       -2.996      851.446
12/26/2021  08:22:00     -496.444       98.695      -26.589      301.871      280.969      131.728    91125.878    78943.724    17352.232       22.213        9.371      506.159      108.126        0.046      329.918       -3.044      851.468
12/26/2021  08:23:00     -448.564        3.617      -16.495      319.909      234.177      123.253   102341.925    54838.824    15191.202       18.690        8.619      448.579      136.198        0.092      329.923       -3.036      851.466
12/26/2021  08:24:00     -497.109       75.241      -15.421      325.790      212.499      151.605   106139.020    45155.902    22984.099       21.362        8.714      502.771      169.046        0.113      329.916       -3.048      851.487
12/26/2021  08:25:00     -451.019      -27.228      -27.570      356.241      224.613      164.845   126907.458    50451.071    27173.847       20.469       10.227      451.840      153.312        0.115      329.924       -3.035      851.517
12/26/2021  08:26:00     -464.031       29.295      -30.948      431.973      261.890      179.845   186600.247    68586.232    32344.055       25.228       14.377      464.954      196.128        0.178      329.922       -3.038      851.585
12/26/2021  08:27:00     -307.753      -23.213      -13.610      264.466      182.346      132.060    69942.235    33250.057    17439.724       10.801        6.032      308.627      115.932        0.141      329.933       -3.019      851.569
12/26/2021  08:28:00     -114.881       53.895        6.907      199.081      189.422       96.109    39633.284    35880.662     9236.949        5.043        4.238      126.895       69.348        0.299      329.917       -3.045      851.629
12/26/2021  08:29:00     -633.358      152.904      -20.360      397.696      225.922      119.923   158162.312    51040.787    14381.439       32.422       11.179      651.554      124.092        0.036      329.886       -3.098      851.648
12/26/2021  08:30:00     -746.138       67.174      -21.069      354.337      267.981      131.758   125554.890    71813.648    17360.235       38.816       10.736      749.156      161.751        0.047      329.888       -3.094      851.617
12/26/2021  08:31:00     -397.910       22.780      -25.366      353.252      170.122      114.119   124786.818    28941.365    13023.214       16.309        8.338      398.561      119.646        0.090      329.905       -3.066      851.669
12/26/2021  08:32:00     -651.773      268.635      -28.824      298.446      273.587      131.918    89070.069    74849.908    17402.264       33.953        9.066      704.963      117.478        0.028      329.909       -3.059      851.628
12/26/2021  08:33:00     -565.012      105.847      -26.089      362.644      235.757      144.846   131510.384    55581.421    20980.335       26.956       10.404      574.841      155.664        0.073      329.890       -3.090      851.674
12/26/2021  08:34:00     -406.605      -20.095      -48.610      387.641      175.069      146.506   150265.677    30649.092    21464.079       18.520       10.119      407.102      154.533        0.144      329.919       -3.043      851.715
12/26/2021  08:35:00     -581.933       78.740       -5.975      293.050      195.774      146.704    85878.542    38327.567    21522.053       24.528        7.286      587.236      154.033        0.069      329.925       -3.034      851.722
12/26/2021  08:36:00     -499.891      -44.845      -13.084      377.055      184.792      134.966   142170.745    34148.130    18215.848       22.327        9.727      501.898      135.648        0.073      329.944       -3.002      851.733
12/26/2021  08:37:00     -302.860       48.209        8.734      243.442      188.491      131.081    59263.866    35528.938    17182.142       10.303        5.599      306.673      113.820        0.138      329.962       -2.971      851.753
12/26/2021  08:38:00     -532.737       10.857       -7.589      342.014      229.715      155.989   116973.656    52769.094    24332.535       23.899        9.704      532.848      159.496        0.090      329.973       -2.954      851.762
12/26/2021  08:39:00     -449.777       -4.196       24.468      386.435      234.009      168.881   149331.791    54760.213    28520.852       21.772       11.631      449.797      180.775        0.162      329.975       -2.952      851.737
12/26/2021  08:40:00     -439.367       19.891      -34.634      290.337      193.051      121.661    84295.313    37268.774    14801.403       16.548        6.818      439.817      104.057        0.056      329.986       -2.934      851.760
12/26/2021  08:41:00     -322.975      -11.438      -22.712      374.145      168.297      122.519   139984.709    28323.845    15010.904       14.411        9.166      323.178      140.247        0.188      329.981       -2.941      851.836
12/26/2021  08:42:00     -514.183      -26.624      -24.162      319.782      181.947      117.929   102260.292    33104.792    13907.188       20.745        7.464      514.871      135.719        0.069      329.969       -2.959      851.839
12/26/2021  08:43:00     -480.093      -39.558      -33.553      385.222      201.445      135.533   148396.213    40580.206    18369.124       22.022       10.367      481.720      175.128        0.132      330.006       -2.902      851.813
12/26/2021  08:44:00     -632.422      -66.403      -35.807      365.392      215.643      143.206   133511.400    46501.703    20508.045       30.305       10.026      635.898      137.611        0.047      330.026       -2.868      851.790
12/26/2021  08:45:00     -359.323      -12.849        8.224      362.558      185.298      136.697   131447.961    34335.225    18686.181       15.687        9.223      359.553      148.471        0.171      330.015       -2.885      851.822
12/26/2021  08:46:00     -648.902        4.246      -41.339      319.869      227.745      138.721   102316.163    51867.767    19243.387       29.808        8.671      648.916      136.113        0.044      330.007       -2.898      851.824
12/26/2021  08:47:00     -692.878       23.323      -23.771      372.507      251.940      147.287   138761.491    63473.978    21693.360       35.252       11.196      693.270      150.429        0.047      330.015       -2.886      851.813
12/26/2021  08:48:00     -529.245        0.651      -11.844      262.674      235.143      136.062    68997.744    55292.362    18512.885       21.150        7.140      529.246      134.111        0.064      330.007       -2.899      851.782
12/26/2021  08:49:00     -436.054       53.976      -11.792      318.470      276.938      133.706   101423.079    76694.496    17877.336       19.456        9.800      439.382      154.549        0.124      330.016       -2.884      851.770
12/26/2021  08:50:00     -738.202       13.189      -33.096      453.982      239.482      153.169   206099.895    57351.491    23460.797       41.651       14.346      738.320      167.399        0.051      330.073       -2.791      851.781
12/26/2021  08:51:00     -421.450       23.431      -21.976      320.966      187.113      126.094   103019.162    35011.434    15899.821       16.626        7.697      422.101      121.838        0.083      330.110       -2.730      851.884
12/26/2021  08:52:00     -500.279       23.562       -3.509      415.039      197.760      137.823   172257.073    39109.091    18995.223       24.056       11.518      500.834      155.640        0.097      330.120       -2.714      851.890
12/26/2021  08:53:00     -277.182       30.774       -3.169      344.202      212.953      152.132   118474.800    45348.901    23144.190       13.234        9.348      278.885      144.269        0.268      330.135       -2.688      852.002
12/26/2021  08:54:00     -790.970      -52.317      -32.272      433.377      231.708      175.115   187815.249    53688.493    30665.409       45.074       13.608      792.698      174.902        0.049      330.124       -2.706      851.987
12/26/2021  08:55:00     -747.883       28.336      -44.640      381.344      256.311      129.469   145423.529    65695.252    16762.282       39.496       11.394      748.420      129.002        0.030      330.112       -2.728      852.012
12/26/2021  08:56:00     -634.346       -9.574      -19.775      421.755      238.093      179.005   177877.476    56688.132    32042.654       33.469       13.330      634.418      194.716        0.094      330.185       -2.609      852.021
12/26/2021  08:57:00     -368.678      -17.011      -38.736      310.985      169.884      125.047    96711.628    28860.738    15636.757       13.944        7.060      369.070      132.224        0.128      330.199       -2.584      852.024
12/26/2021  08:58:00     -365.338      -58.266        6.575      273.541      168.154      132.534    74824.561    28275.725    17565.393       12.877        6.033      369.955      143.497        0.150      330.223       -2.545      852.035
12/26/2021  08:59:00     -280.260       46.635       -3.282      235.254      162.739      119.686    55344.287    26483.891    14324.702        8.842        4.808      284.113      119.546        0.177      330.260       -2.485      851.994
12/26/2021  09:00:00     -488.260       70.234       -3.761      347.320      222.808      148.956   120631.446    49643.349    22187.926       21.787        9.623      493.285      152.976        0.096      330.203       -2.578      851.977
12/26/2021  09:01:00     -561.167      153.413       -7.460      344.231      200.724      130.327   118494.670    40289.966    16985.125       25.710        8.788      581.760      132.815        0.052      330.164       -2.642      852.022
12/26/2021  09:02:00     -325.644       23.925      -24.992      399.312      212.594      159.219   159449.938    45196.157    25350.621       16.858       11.500      326.522      179.296        0.302      330.187       -2.602      851.961
12/26/2021  09:03:00     -460.608       50.583      -35.803      400.510      209.591      133.597   160408.604    43928.495    17848.226       21.905       11.109      463.377      160.895        0.121      330.181       -2.614      852.056
12/26/2021  09:04:00     -444.755       27.533      -19.483      324.737      187.719      128.272   105454.356    35238.544    16453.735       17.802        7.857      445.606      151.049        0.115      330.204       -2.576      852.100
12/26/2021  09:05:00     -450.227       83.602       -5.248      427.422      252.010      165.059   182689.923    63509.212    27244.489       24.153       13.672      457.923      167.678        0.134      330.191       -2.597      852.065
12/26/2021  09:06:00     -679.517       87.666      -35.840      283.509      204.108      145.907    80377.524    41660.225    21288.951       30.699        7.166      685.148      142.375        0.043      330.167       -2.637      852.058
12/26/2021  09:07:00     -558.397       82.094      -56.998      341.569      252.060      134.137   116669.330    63534.183    17992.820       25.996        9.910      564.399      124.658        0.049      330.195       -2.591      852.114
12/26/2021  09:08:00     -430.550       10.524      -19.060      319.447      205.019      155.172   102046.256    42032.709    24078.282       17.697        8.408      430.678      146.353        0.115      330.199       -2.585      852.124
12/26/2021  09:09:00     -600.639      -59.541      -28.079      367.003      185.127      170.418   134691.225    34271.830    29042.211       28.152        9.900      603.582      179.508        0.088      330.163       -2.643      852.197
12/26/2021  09:10:00     -427.464       65.320      -31.795      310.026      246.395      137.960    96115.863    60710.547    19032.882       18.190        8.793      432.426      133.010        0.095      330.173       -2.626      852.221
12/26/2021  09:11:00     -528.779      -12.925       -7.237      460.538      206.576      167.263   212095.041    42673.710    27976.894       28.123       14.137      528.937      186.137        0.124      330.172       -2.627      852.221
12/26/2021  09:12:00     -504.534       18.834      -12.658      434.679      225.966      168.497   188945.844    51060.846    28391.375       26.168       13.420      504.886      169.517        0.113      330.189       -2.602      852.283
12/26/2021  09:13:00     -542.588       14.711      -20.040      359.109      218.648      146.611   128959.132    47807.022    21494.925       24.660        9.913      542.788      149.181        0.076      330.212       -2.564      852.318
12/26/2021  09:14:00     -547.114       15.759        1.792      369.642      216.073      157.468   136635.277    46687.385    24796.192       25.381       10.406      547.341      175.659        0.103      330.226       -2.541      852.400
12/26/2021  09:15:00     -568.022       14.937       -3.246      309.915      229.254      151.477    96047.157    52557.566    22945.419       24.718        8.578      568.218      148.641        0.068      330.236       -2.525      852.403
12/26/2021  09:16:00     -358.974      -20.824       -5.669      332.836      214.238      160.641   110779.681    45897.893    25805.389       15.587        9.124      359.578      154.416        0.184      330.300       -2.419      852.450
12/26/2021  09:17:00     -544.847       -7.886      -52.077      294.626      169.772      119.273    86804.699    28822.504    14226.162       21.472        6.493      544.904      133.225        0.060      330.295       -2.427      852.543
12/26/2021  09:18:00     -565.588       93.370      -16.053      374.209      235.308      137.001   140032.479    55370.080    18769.399       27.148       10.709      573.243      118.500        0.043      330.205       -2.574      852.656
12/26/2021  09:19:00     -444.877       42.415      -31.776      380.263      210.120      131.329   144599.617    44150.519    17247.432       20.332       10.300      446.895      152.306        0.116      330.211       -2.566      852.606
12/26/2021  09:20:00     -497.649       15.893      -30.520      366.075      216.209      152.760   134010.758    46746.331    23335.671       22.643       10.205      497.903      153.579        0.095      330.245       -2.511      852.610
12/26/2021  09:21:00     -446.402      -54.242      -13.583      367.172      222.927      152.332   134814.919    49696.395    23204.914       20.502       10.386      449.685      152.463        0.115      330.298       -2.421      852.661
12/26/2021  09:22:00     -511.486      -31.652      -30.704      278.136      156.631      139.721    77359.358    24533.366    19521.893       19.247        6.071      512.465      124.913        0.059      330.274       -2.461      852.669
12/26/2021  09:23:00     -374.556      -46.026      -21.965      314.552      136.110      135.849    98942.976    18525.831    18455.056       13.938        6.796      377.373      155.361        0.169      330.287       -2.441      852.658
12/26/2021  09:24:00     -600.744      119.556      -25.816      319.547      245.792      143.605   102110.450    60413.848    20622.282       27.947        9.157      612.525      149.580        0.060      330.250       -2.500      852.709
12/26/2021  09:25:00     -553.114      191.059      -15.069      326.123      194.340      139.629   106356.289    37768.017    19496.338       25.311        8.181      585.183      169.969        0.084      330.239       -2.520      852.762
12/26/2021  09:26:00     -342.344      138.387        4.194      370.142      205.696      134.303   137005.010    42310.801    18037.237       16.682        9.868      369.256      166.952        0.204      330.296       -2.425      852.756
12/26/2021  09:27:00     -657.406       40.731      -38.984      310.505      216.204      130.966    96413.636    46744.288    17152.141       29.781        8.016      658.666      137.321        0.043      330.320       -2.386      852.753
12/26/2021  09:28:00     -677.589      126.298        6.535      388.503      223.212      171.440   150934.804    49823.820    29391.659       35.259       11.508      689.260      193.652        0.079      330.273       -2.463      852.811
12/26/2021  09:29:00     -520.541       -2.884      -56.020      265.972      158.271      120.214    70741.105    25049.786    14451.384       19.216        5.512      520.548      117.752        0.051      330.309       -2.403      852.912
12/26/2021  09:30:00     -296.325      -11.380       12.234      292.231      208.350      123.734    85398.833    43409.569    15310.137       11.608        7.206      296.543      134.551        0.206      330.342       -2.348      852.900
12/26/2021  09:31:00     -440.098       22.065        4.667      387.702      209.049      144.097   150313.198    43701.668    20764.054       20.445       10.739      440.650      168.152        0.146      330.293       -2.429      852.924
12/26/2021  09:32:00     -491.008      -36.535      -30.761      233.528      151.154      122.344    54535.095    22847.398    14968.040       16.784        4.618      492.365      127.219        0.067      330.328       -2.372      852.922
12/26/2021  09:33:00     -443.754      -38.030      -54.563      269.497      188.563      123.192    72628.797    35556.134    15176.250       16.233        6.168      445.380      123.717        0.077      330.335       -2.362      853.037
12/26/2021  09:34:00     -343.897      -19.212      -22.508      287.234      182.893      134.207    82503.199    33449.907    18011.459       12.653        6.698      344.433      130.197        0.143      330.311       -2.402      853.095
12/26/2021  09:35:00     -519.158      -29.904      -11.947      319.411      147.241      141.320   102023.388    21679.950    19971.424       20.709        7.184      520.019      153.163        0.087      330.261       -2.483      853.077
12/26/2021  09:36:00     -408.996       67.082       -9.987      279.007      167.882      124.991    77845.119    28184.256    15622.661       14.674        6.083      414.460      109.893        0.070      330.300       -2.419      853.113
12/26/2021  09:37:00     -584.021        6.329      -42.340      287.045      172.979      125.040    82394.686    29921.850    15634.903       23.541        6.398      584.056      123.945        0.045      330.330       -2.369      853.125
12/26/2021  09:38:00     -347.095       -5.431      -25.475      272.907      165.601      116.060    74478.377    27423.840    13469.831       11.824        5.769      347.137      125.142        0.130      330.365       -2.312      853.216
12/26/2021  09:39:00     -324.203       83.818       -9.957      245.670      156.546       93.076    60353.803    24506.536     8663.221       10.286        4.676      334.863       94.987        0.080      330.343       -2.348      853.270
12/26/2021  09:40:00     -540.831      -30.881      -32.130      204.000      172.192      121.636    41615.916    29650.023    14795.394       19.026        4.303      541.711      102.257        0.036      330.300       -2.418      853.285
12/26/2021  09:41:00     -338.754      -10.752        9.520      295.359      157.630      127.054    87237.047    24847.296    16142.768       12.157        6.411      338.924      154.929        0.209      330.326       -2.375      853.293
12/26/2021  09:42:00     -509.871       67.586      -11.044      307.475      171.113      120.279    94540.927    29279.707    14467.105       20.145        6.914      514.331      121.128        0.055      330.327       -2.373      853.316
12/26/2021  09:43:00     -605.912      -31.678      -22.933      375.441      232.005      148.343   140955.946    53826.422    22005.597       29.268       10.839      606.740      170.674        0.079      330.351       -2.335      853.367
12/26/2021  09:44:00     -323.764      -39.212      -11.697      285.631      185.171      138.421    81585.320    34288.250    19160.241       12.074        6.752      326.130      150.301        0.212      330.409       -2.239      853.366
12/26/2021  09:45:00     -515.247      100.168      -11.953      261.504      222.502      133.400    68384.308    49507.314    17795.472       20.565        6.784      524.893      112.238        0.046      330.338       -2.356      853.373
12/26/2021  09:46:00     -369.972       31.773        9.287      226.811      165.523      123.573    51443.263    27397.806    15270.316       11.603        4.706      371.334      115.995        0.098      330.336       -2.358      853.401
12/26/2021  09:47:00     -239.670       72.930       -4.817      333.278      153.075      110.201   111074.236    23431.915    12144.156       10.469        7.333      250.521      117.379        0.220      330.342       -2.349      853.436
12/26/2021  09:48:00     -173.156      -18.701       14.321      211.837      122.270       99.955    44874.986    14949.983     9991.048        5.016        3.491      174.163      101.495        0.340      330.360       -2.318      853.479
12/26/2021  09:49:00     -396.917      114.572        1.124      222.036      180.875      109.307    49299.879    32715.818    11948.028       13.230        4.698      413.122      110.017        0.071      330.349       -2.337      853.510
12/26/2021  09:50:00     -292.539      -19.598       -1.933      239.660      150.561      114.511    57437.117    22668.739    13112.816        8.958        4.661      293.195      105.310        0.129      330.379       -2.288      853.520
12/26/2021  09:51:00     -302.970        2.946      -12.452      289.389      145.485      116.046    83746.241    21165.919    13466.658       10.515        5.919      302.984      111.484        0.135      330.358       -2.323      853.487
12/26/2021  09:52:00     -263.698       55.841       -7.723      328.713      218.334      128.809   108052.436    47669.823    16591.705       12.248        8.616      269.546      121.214        0.202      330.343       -2.348      853.492
12/26/2021  09:53:00     -367.771       67.056       -8.208      257.697      196.951      112.986    66407.910    38789.734    12765.779       12.887        5.898      373.835      109.110        0.085      330.357       -2.325      853.561
12/26/2021  09:54:00     -316.246       64.641       -9.944      294.363      160.995      124.483    86649.310    25919.396    15496.017       11.615        6.403      322.785      132.631        0.169      330.372       -2.300      853.530
12/26/2021  09:55:00     -485.314       15.393      -35.010      227.243      179.752      103.901    51639.227    32310.891    10795.356       16.585        4.737      485.558       76.481        0.025      330.334       -2.361      853.589
12/26/2021  09:56:00     -263.475      -26.186      -16.720      264.225      184.820      152.408    69814.869    34158.352    23228.108        9.877        6.360      264.773      139.805        0.279      330.353       -2.332      853.586
12/26/2021  09:57:00     -261.823      100.223       -3.629      300.178      163.757      133.847    90107.081    26816.266    17915.087       10.670        6.742      280.349      134.443        0.230      330.343       -2.347      853.598
12/26/2021  09:58:00     -262.190       26.018      -18.456      252.997      151.655       95.699    64007.718    22999.240     9158.333        8.295        4.808      263.478       63.859        0.059      330.335       -2.361      853.576
12/26/2021  09:59:00     -130.908       22.097       -8.652      341.120      168.799      115.050   116362.861    28493.252    13236.470        8.787        7.905      132.760      137.091        1.066      330.384       -2.280      853.652
12/26/2021  10:00:00     -321.313       54.088      -32.735      270.448      180.344      117.335    73142.005    32523.859    13767.500       11.331        5.972      325.833      106.413        0.107      330.345       -2.343      853.702
12/26/2021  10:01:00     -252.501      -32.500        9.354      285.513      176.719      134.973    81517.678    31229.702    18217.580        9.791        6.548      254.584      153.319        0.363      330.364       -2.313      853.717
12/26/2021  10:02:00     -392.375       -0.642       -4.826      295.786      195.118      145.298    87489.442    38071.188    21111.380       15.030        7.334      392.375      150.310        0.147      330.348       -2.340      853.734
12/26/2021  10:03:00     -497.143      117.487      -19.526      265.043      174.996      128.181    70247.994    30623.733    16430.388       18.930        5.865      510.837      122.514        0.058      330.385       -2.280      853.705
12/26/2021  10:04:00     -366.220        6.797       -5.272      329.918      184.229      121.272   108845.835    33940.292    14706.948       14.581        7.875      366.283      128.638        0.123      330.461       -2.154      853.678
12/26/2021  10:05:00     -579.084      -48.487      -28.065      336.127      253.480      169.042   112981.160    64252.037    28575.287       27.211       10.290      581.111      141.665        0.059      330.561       -1.991      853.757
12/26/2021  10:06:00     -413.884      -47.494        0.518      249.056      161.140      106.152    62028.765    25966.124    11268.184       13.639        4.963      416.600      115.182        0.076      330.671       -1.809      853.777
12/26/2021  10:07:00     -553.138       -1.581      -31.286      229.022      171.968      109.860    52451.227    29573.074    12069.296       20.050        4.705      553.140      106.131        0.037      330.621       -1.892      853.785
12/26/2021  10:08:00     -503.790       11.084      -18.579      206.445      165.312      109.578    42619.652    27328.124    12007.229       16.810        4.098      503.912      101.337        0.040      330.511       -2.073      853.794
12/26/2021  10:09:00     -319.342      -16.600      -14.370      273.493      146.119      123.545    74798.560    21350.709    15263.331       10.692        5.571      319.773      117.237        0.134      330.500       -2.089      853.799
12/26/2021  10:10:00     -306.073       -9.746       -8.972      256.268      159.764      109.322    65673.499    25524.441    11951.380        9.848        5.157      306.228      106.699        0.121      330.511       -2.072      853.811
12/26/2021  10:11:00     -357.035        8.072      -32.065      224.790      176.124      105.592    50530.438    31019.574    11149.773       11.062        4.635      357.127      111.125        0.097      330.522       -2.055      853.787
12/26/2021  10:12:00     -387.137       34.401       -3.129      279.196      140.346      108.392    77950.338    19696.870    11748.732       13.021        5.470      388.662      121.050        0.097      330.533       -2.035      853.818
12/26/2021  10:13:00     -476.085       -3.280      -15.186      337.227      126.467      129.819   113721.988    15993.935    16852.922       18.671        7.328      476.096      138.565        0.085      330.486       -2.113      853.837
12/26/2021  10:14:00     -254.746      -33.494      -17.989      318.730      155.816      118.808   101588.628    24278.486    14115.329       10.314        6.999      256.939      132.375        0.265      330.517       -2.062      853.807
12/26/2021  10:15:00     -595.212       -6.680      -32.302      227.922      161.876      115.101    51948.551    26203.847    13248.171       22.337        4.570      595.249      108.598        0.033      330.488       -2.111      853.808
12/26/2021  10:16:00     -383.318      -20.614      -21.632      214.430      128.850      102.497    45980.263    16602.260    10505.711       11.044        3.654      383.871      103.453        0.073      330.526       -2.047      853.855
12/26/2021  10:17:00     -510.120      -19.199      -48.700      140.295      147.335       73.183    19682.625    21707.558     5355.776       15.485        2.337      510.481       59.150        0.013      330.482       -2.119      853.912
12/26/2021  10:18:00     -187.338       -8.626        6.751      313.932      157.294      117.375    98553.182    24741.553    13776.943        8.612        6.854      187.537      128.798        0.472      330.572       -1.972      853.946
12/26/2021  10:19:00     -520.635        9.767       -6.558      290.232      160.094      119.177    84234.614    25629.930    14203.193       19.761        6.203      520.727      126.581        0.059      330.460       -2.155      854.005
12/26/2021  10:20:00     -458.485      -47.256      -30.386      198.037      129.902       91.219    39218.464    16874.439     8320.885       13.888        3.221      460.914       85.309        0.034      330.480       -2.123      853.958
12/26/2021  10:21:00     -305.734       41.858      -27.375      245.344      162.355      103.083    60193.545    26359.004    10626.180        9.656        4.859      308.586      104.072        0.114      330.532       -2.038      853.932
12/26/2021  10:22:00     -442.698       -6.099       -9.818      189.280      162.310       99.701    35827.101    26344.566     9940.281       13.410        3.606      442.740      101.846        0.053      330.549       -2.010      853.944
12/26/2021  10:23:00     -401.328       27.600      -19.343      253.380      172.813      102.330    64201.228    29864.466    10471.344       13.335        5.227      402.275      107.795        0.072      330.580       -1.959      854.022
12/26/2021  10:24:00     -325.638       55.504        1.252      222.263      163.930       95.042    49400.835    26872.983     9032.954        9.720        4.265      330.334       94.460        0.082      330.498       -2.093      854.027
12/26/2021  10:25:00     -381.513       32.320      -16.805      151.617      139.060       68.523    22987.710    19337.667     4695.388        9.694        2.351      382.879       65.973        0.030      330.594       -1.937      854.070
12/26/2021  10:26:00     -319.727       21.470      -13.125      160.101      121.812       88.865    25632.225    14838.285     7896.982        7.560        2.418      320.447       89.096        0.077      330.584       -1.953      854.072
12/26/2021  10:27:00     -198.370      -54.080       -9.501      170.055      101.491       80.901    28918.623    10300.496     6544.990        4.406        2.288      205.609       75.555        0.135      330.603       -1.921      854.098
12/26/2021  10:28:00     -179.769      -26.231       13.201      198.290       97.730       90.238    39318.901     9551.061     8142.978        4.509        2.851      181.673       79.031        0.189      330.655       -1.836      854.187
12/26/2021  10:29:00     -280.429       82.859       -6.907      153.620      119.057       60.987    23599.089    14174.537     3719.444        6.352        2.075      292.414       63.730        0.048      330.619       -1.896      854.166
12/26/2021  10:30:00     -381.951       58.076      -18.758       92.761       80.749       54.401     8604.569     6520.473     2959.415        8.384        0.904      386.341       42.885        0.012      330.623       -1.892      854.074
12/26/2021  10:31:00     -147.167       25.119       -7.107      144.571       96.059       63.875    20900.899     9227.328     4079.952        2.827        1.710      149.296       34.607        0.054      330.741       -1.694      854.068
12/26/2021  10:32:00     -188.910      -37.280      -13.211      118.059      181.620       74.683    13937.914    32985.667     5577.568        4.487        2.625      192.554       66.820        0.120      330.693       -1.774      853.965
12/26/2021  10:33:00     -373.054      196.743      -32.884      198.823      230.242       91.034    39530.606    53011.153     8287.150       13.988        5.041      421.755       96.988        0.053      330.728       -1.716      853.899
12/26/2021  10:34:00     -506.965       62.665        1.913      294.734      224.625      136.736    86867.874    50456.218    18696.629       20.845        7.801      510.823      134.368        0.069      330.757       -1.669      853.921
12/26/2021  10:35:00     -307.968       50.623       -6.807      166.121      142.988      100.019    27596.318    20445.548    10003.703        7.774        2.902      312.101       83.031        0.071      330.770       -1.648      854.011
12/26/2021  10:36:00     -448.531       69.257      -28.027      243.359      180.154       97.008    59223.484    32455.599     9410.637       15.391        5.054      453.846       99.510        0.048      330.840       -1.532      853.993
12/26/2021  10:37:00     -428.929       63.674      -12.500      296.212      167.623      118.236    87741.256    28097.501    13979.668       15.898        6.491      433.630       84.055        0.038      330.841       -1.532      853.890
12/26/2021  10:38:00     -200.953       65.208        6.720      173.892      151.127       93.235    30238.464    22839.416     8692.812        5.321        3.089      211.268       87.476        0.171      330.764       -1.658      853.957
12/26/2021  10:39:00     -328.280      123.497      -30.743      283.483      114.314       79.146    80362.475    13067.692     6264.047       11.181        4.985      350.741      106.421        0.092      330.742       -1.694      853.982
12/26/2021  10:40:00     -536.893       60.903      -18.110      278.938      183.564      105.639    77806.332    33695.769    11159.675       20.745        6.133      540.337      107.173        0.039      330.620       -1.892      853.952
12/26/2021  10:41:00     -376.270       16.037      -15.595      199.576      159.362       89.962    39830.422    25396.248     8093.221       10.769        3.666      376.612       82.216        0.048      330.754       -1.673      853.992
12/26/2021  10:42:00     -303.223      -22.321      -29.281      150.303      104.036       67.287    22591.115    10823.573     4527.500        6.561        1.897      304.043       61.154        0.040      330.825       -1.558      854.063
12/26/2021  10:43:00     -309.834      -55.579      -32.820      153.217      111.509       83.819    23475.493    12434.317     7025.690        7.154        2.147      314.779       74.726        0.056      330.793       -1.610      854.052
12/26/2021  10:44:00     -291.885      -76.628      -25.180      161.168      104.949       74.375    25975.083    11014.256     5531.649        6.710        2.126      301.776       73.726        0.060      330.828       -1.551      854.096
12/26/2021  10:45:00     -246.327      -37.791       -0.715      196.605      116.223       81.396    38653.460    13507.817     6625.385        6.044        2.939      249.209       81.307        0.106      330.790       -1.614      854.172
12/26/2021  10:46:00     -169.337       27.178      -10.235      140.328      101.942       67.362    19692.052    10392.213     4537.581        3.206        1.731      171.504       52.242        0.093      330.794       -1.607      854.112
12/26/2021  10:47:00     -205.448       51.323      -21.764      174.489      107.181       60.983    30446.496    11487.801     3718.966        4.548        2.283      211.761       52.047        0.060      330.815       -1.573      854.193
12/26/2021  10:48:00     -291.737       61.791      -14.212      148.141      102.887       70.849    21945.791    10585.829     5019.542        6.333        1.878      298.209       79.190        0.071      330.710       -1.746      854.242
12/26/2021  10:49:00     -249.007      111.558      -16.772      121.733       90.716       59.453    14818.951     8229.483     3534.640        5.065        1.329      272.855       57.724        0.045      330.689       -1.781      854.217
12/26/2021  10:50:00     -207.202       98.156       -5.411      112.688       76.130       56.488    12698.477     5795.800     3190.946        3.714        1.084      229.275       45.592        0.040      330.799       -1.598      854.216
12/26/2021  10:51:00     -196.068       91.437      -11.132      100.267       92.589       52.126    10053.487     8572.706     2717.130        3.413        1.067      216.341       38.176        0.031      330.818       -1.568      854.216
12/26/2021  10:52:00     -181.326       20.365       -8.311      117.103       81.856       57.784    13713.190     6700.353     3338.953        2.855        1.188      182.466       37.409        0.042      330.892       -1.446      854.290
12/26/2021  10:53:00     -254.075       31.299       -9.366      100.016       64.649       47.410    10003.250     4179.473     2247.674        4.102        0.822      255.995       55.460        0.047      330.844       -1.526      854.324
12/26/2021  10:54:00     -208.185       34.276       -3.882      127.903       97.496       63.278    16359.241     9505.399     4004.155        3.719        1.493      210.987       49.869        0.056      330.933       -1.379      854.246
12/26/2021  10:55:00     -166.340       50.752        9.448      121.071       80.481       49.857    14658.286     6477.149     2485.767        2.697        1.181      173.911       53.542        0.095      330.955       -1.343      854.189
12/26/2021  10:56:00      -71.682        5.183       -9.620       71.524       47.471       35.841     5115.751     2253.481     1284.590        0.695        0.433       71.869       22.976        0.102      331.048       -1.189      854.213
12/26/2021  10:57:00     -112.528       25.495        0.583      127.927      101.512       62.504    16365.415    10304.728     3906.792        2.194        1.529      115.380       63.428        0.302      330.962       -1.331      854.272
12/26/2021  10:58:00      -60.750       -6.278        2.041       87.361       74.529       49.699     7631.923     5554.609     2470.003        0.969        0.783       61.074       39.055        0.409      330.931       -1.381      854.279
12/26/2021  10:59:00      -65.287        0.605      -17.894      104.924       91.786       63.783    11009.129     8424.719     4068.318        1.404        1.175       65.289       52.037        0.635      330.990       -1.285      854.243
12/26/2021  11:00:00     -133.364        9.087      -28.337       73.283       60.871       38.975     5370.401     3705.306     1519.051        1.463        0.530      133.673       33.362        0.062      330.922       -1.396      854.223
12/26/2021  11:01:00     -150.418       46.499      -21.532       80.257       44.613       41.148     6441.261     1990.304     1693.196        1.769        0.506      157.442       38.207        0.059      331.032       -1.216      854.264
12/26/2021  11:02:00      -70.635       13.452        8.377      124.819       70.884       66.827    15579.851     5024.476     4465.899        1.515        1.254       71.905       60.025        0.697      331.086       -1.126      854.311
12/26/2021  11:03:00     -146.934       16.909        9.358      145.764       92.749       58.417    21247.193     8602.465     3412.576        2.761        1.663      147.904       64.724        0.192      331.084       -1.132      854.404
12/26/2021  11:04:00     -170.476     -113.323       -6.813      110.919      168.634       60.192    12302.922    28437.433     3623.114        4.315        2.218      204.705       49.845        0.059      331.140       -1.039      854.416
12/26/2021  11:05:00     -181.082      -89.204      -20.644       93.779      106.279       51.403     8794.559    11295.164     2642.262        3.195        1.137      201.861       35.353        0.031      331.176       -0.979      854.385
12/26/2021  11:06:00     -169.586     -111.693      -33.550      147.331      104.839       57.495    21706.431    10991.212     3305.641        3.918        1.800      203.063       44.375        0.048      331.189       -0.959      854.375
12/26/2021  11:07:00     -105.652      -25.695      -15.159       65.973       56.869       50.135     4352.436     3234.096     2513.543        1.107        0.505      108.732       33.055        0.092      331.259       -0.842      854.405
12/26/2021  11:08:00     -179.064       17.838      -15.715       80.558       59.402       45.269     6489.559     3528.627     2049.241        2.235        0.603      179.950       36.249        0.041      331.176       -0.980      854.407
12/26/2021  11:09:00     -236.502       35.925      -31.565      143.687       67.147       53.503    20645.927     4508.671     2862.571        4.311        1.401      239.215       49.368        0.043      331.107       -1.093      854.355
12/26/2021  11:10:00     -157.390       36.186        0.544      117.477       96.364       61.970    13800.811     9285.944     3840.269        2.650        1.346      161.497       46.392        0.083      330.890       -1.450      854.296
12/26/2021  11:11:00     -153.305       65.839      -30.294      119.918       69.118       42.603    14380.437     4777.326     1815.047        2.486        1.049      166.844       18.699        0.013      330.829       -1.548      854.238
12/26/2021  11:12:00     -189.232       51.196       -6.255      154.833       87.408       58.764    23973.392     7640.088     3453.205        3.676        1.753      196.035       66.036        0.113      330.948       -1.354      854.208
12/26/2021  11:13:00      -98.965       17.273       -3.606      168.566      107.630       69.173    28414.662    11584.280     4784.944        2.744        2.239      100.461       67.320        0.449      331.012       -1.249      854.234
12/26/2021  11:14:00     -130.092       71.685      -28.783      151.717      100.335       66.719    23017.967    10067.048     4451.451        3.021        1.877      148.535       54.389        0.134      330.915       -1.408      854.206
12/26/2021  11:15:00       -2.096       51.675      -18.122       67.841       76.463       36.242     4602.430     5846.525     1313.505        0.738        0.588       51.718       15.638        0.091      331.026       -1.224      854.087
12/26/2021  11:16:00     -348.395      132.180      -24.089      143.453      124.563       71.268    20578.839    15515.831     5079.086        9.029        2.059      372.627       56.365        0.023      330.915       -1.410      854.035
12/26/2021  11:17:00      -63.563      -25.123        2.269      197.094       92.673       60.378    38846.176     8588.309     3645.473        2.787        2.554       68.347       43.692        0.409      331.027       -1.225      854.059
12/26/2021  11:18:00     -261.236       83.879      -10.936      204.642      108.026       69.338    41878.549    11669.595     4807.725        6.687        2.918      274.372       74.482        0.074      330.948       -1.353      854.126
12/26/2021  11:19:00     -140.806       37.844      -14.939      140.624      106.109       54.209    19775.092    11259.057     2938.593        2.772        1.699      145.803       52.909        0.132      330.947       -1.355      854.068
12/26/2021  11:20:00     -148.706       -1.956      -10.986      180.408      134.691       98.194    32547.108    18141.761     9642.077        4.127        3.017      148.718       87.562        0.347      330.926       -1.391      854.025
12/26/2021  11:21:00     -326.949      103.628        0.628      268.416      122.581       84.366    72046.980    15026.161     7117.559       10.590        4.710      342.978      112.462        0.108      330.938       -1.371      854.060
12/26/2021  11:22:00     -400.450       96.480      -24.048      190.301      122.132       81.229    36214.296    14916.141     6598.226       11.398        2.886      411.908       96.314        0.055      330.877       -1.470      854.079
12/26/2021  11:23:00     -258.793       96.394      -30.274      192.191      156.737       95.073    36937.564    24566.506     9038.916        7.385        3.527      276.162       76.535        0.077      330.919       -1.402      854.047
12/26/2021  11:24:00     -434.214      167.871      -14.606      305.099      197.289      111.234    93085.503    38923.097    12372.921       18.063        7.219      465.535      101.859        0.048      330.837       -1.539      853.958
12/26/2021  11:25:00     -463.921      175.729      -19.481      179.427      128.007       92.733    32194.200    16385.767     8599.470       15.182        2.859      496.088       80.384        0.026      330.826       -1.556      853.945
12/26/2021  11:26:00     -184.742       70.141        5.783      231.379      145.230       92.066    53536.219    21091.730     8476.124        6.108        4.155      197.609      108.043        0.299      330.925       -1.391      853.945
12/26/2021  11:27:00     -308.476      117.027      -13.035      286.120      188.649       88.700    81864.935    35588.564     7867.716       11.715        6.266      329.928      112.200        0.116      330.896       -1.440      853.961
12/26/2021  11:28:00     -381.122      185.419      -11.863      167.553      183.015       89.971    28074.059    33494.658     8094.698       12.471        3.483      423.832       79.192        0.035      330.842       -1.530      853.964
12/26/2021  11:29:00     -479.509      193.781        3.598      258.554      154.579      101.802    66850.335    23894.562    10363.701       18.428        5.055      517.185      110.334        0.046      330.791       -1.613      853.956
12/26/2021  11:30:00     -450.972      173.559      -11.589      264.099      179.479      103.387    69748.155    32212.533    10688.874       17.312        5.632      483.217      102.504        0.045      330.820       -1.566      853.992
12/26/2021  11:31:00     -273.023      144.617       -8.330      149.842       88.569       66.017    22452.654     7844.487     4358.289        6.508        1.733      308.959       56.199        0.033      330.831       -1.546      853.948
12/26/2021  11:32:00     -232.927      181.224      -36.489       83.816      100.172       53.123     7025.100    10034.446     2822.103        5.415        0.994      295.122       38.873        0.017      330.839       -1.535      853.757
12/26/2021  11:33:00     -241.692        2.138      -30.223      177.059      149.134       96.537    31349.953    22240.907     9319.432        6.111        3.146      241.702       87.714        0.132      330.903       -1.428      853.720
12/26/2021  11:34:00     -395.723      129.806      -12.439      227.979      148.313      101.877    51974.505    21996.708    10378.944       12.896        4.218      416.469       95.186        0.052      330.892       -1.449      853.761
12/26/2021  11:35:00     -250.546       71.276      -17.505      187.314      149.725       88.909    35086.605    22417.435     7904.897        6.677        3.270      260.487       88.730        0.116      330.931       -1.384      853.738
12/26/2021  11:36:00     -260.180      144.539      -31.040      175.772      131.184       66.628    30895.785    17209.175     4439.292        7.104        2.627      297.632       75.168        0.064      330.946       -1.358      853.675
12/26/2021  11:37:00     -268.761      123.378      -14.694      150.165      144.842       80.868    22549.463    20979.242     6539.604        6.886        2.503      295.727       67.103        0.051      331.052       -1.182      853.631
12/26/2021  11:38:00     -293.660      114.171       -4.403      145.238      127.072       87.065    21094.049    16147.323     7580.355        7.205        2.241      315.073       80.398        0.065      331.052       -1.185      853.601
12/26/2021  11:39:00     -349.934        1.713      -22.720      207.801      101.192       81.321    43181.084    10239.822     6613.082        9.149        3.002      349.938       88.121        0.063      331.044       -1.198      853.586
12/26/2021  11:40:00     -266.669      129.769      -34.831      179.141      108.745       70.795    32091.574    11825.578     5011.966        6.904        2.446      296.567       64.330        0.047      331.146       -1.029      853.617
12/26/2021  11:41:00     -355.810      135.797       -0.568      187.011      128.345       82.518    34973.298    16472.432     6809.139       10.164        2.913      380.843       87.514        0.053      331.117       -1.078      853.548
12/26/2021  11:42:00     -271.715       60.738      -16.113      180.430      185.560       87.294    32554.808    34432.595     7620.268        7.618        3.730      278.421       70.237        0.064      331.191       -0.955      853.609
12/26/2021  11:43:00     -615.249      226.279      -28.067      280.857      209.244      128.418    78880.466    43783.240    16491.110       28.481        6.958      655.540      109.949        0.028      331.096       -1.113      853.617
12/26/2021  11:44:00     -544.238       98.445       -9.617      301.146      232.771      134.707    90689.185    54182.360    18146.035       23.447        8.151      553.070      122.532        0.049      331.068       -1.158      853.672
12/26/2021  11:45:00     -445.770      142.175      -13.142      262.279      153.137       88.004    68790.402    23450.930     7744.721       15.952        4.999      467.893      100.932        0.047      331.053       -1.184      853.633
12/26/2021  11:46:00     -355.249      127.729      -35.004      200.470      180.089       92.802    40188.261    32431.948     8612.197       11.247        4.062      377.514       83.374        0.049      331.088       -1.125      853.569
12/26/2021  11:47:00     -323.626       17.900        1.556      196.251      150.755       93.616    38514.359    22727.099     8763.908        8.752        3.500      324.121       99.449        0.094      331.117       -1.077      853.562
12/26/2021  11:48:00     -285.139       92.697        7.501      240.333      128.120       80.449    57760.032    16414.675     6472.120        8.529        4.032      299.828      106.565        0.126      331.155       -1.014      853.549
12/26/2021  11:49:00     -216.605       44.295      -16.993      164.197      122.675       84.783    26960.816    15049.081     7188.142        4.917        2.460      221.088       79.847        0.130      331.224       -0.900      853.549
12/26/2021  11:50:00     -370.158       64.624       -9.752      194.434      131.229       85.716    37804.413    17221.031     7347.278       10.182        3.119      375.756       79.456        0.045      331.130       -1.056      853.504
12/26/2021  11:51:00     -419.340       74.455       -1.541      213.537      131.310       80.756    45598.238    17242.386     6521.605       12.536        3.468      425.899       86.698        0.041      331.074       -1.148      853.499
12/26/2021  11:52:00     -212.660       68.838       13.944      121.710      101.031       74.598    14813.420    10207.209     5564.928        4.037        1.529      223.524       51.689        0.053      331.331       -0.726      853.545
12/26/2021  11:53:00     -424.415      116.802      -13.098      214.690      177.481       88.714    46091.932    31499.360     7870.088       13.969        4.273      440.194       82.673        0.035      331.243       -0.870      853.586
12/26/2021  11:54:00     -401.121      -33.574      -25.413      199.502      123.286      102.892    39801.155    15199.403    10586.850       11.412        3.279      402.524      116.369        0.084      331.330       -0.727      853.565
12/26/2021  11:55:00     -436.066      -18.503      -43.283      194.669      216.063       80.870    37896.147    46683.360     6540.010       14.173        4.556      436.459       52.646        0.015      331.415       -0.589      853.635
12/26/2021  11:56:00     -218.214       30.857        7.454      124.512      112.767       69.629    15503.313    12716.489     4848.184        4.084        1.653      220.385       57.574        0.068      331.458       -0.517      853.638
12/26/2021  11:57:00     -273.994      -14.403      -15.954      176.426      117.571       68.584    31126.137    13822.975     4703.798        6.258        2.483      274.372       77.826        0.080      331.481       -0.480      853.655
12/26/2021  11:58:00     -175.216       19.898      -17.335      123.951       70.939       53.000    15363.974     5032.360     2808.962        2.730        1.160      176.342       54.157        0.094      331.592       -0.296      853.700
12/26/2021  11:59:00     -183.087       23.322      -30.661      131.039       73.417       52.986    17171.306     5390.020     2807.479        3.018        1.268      184.566       40.584        0.048      331.396       -0.616      853.730
12/26/2021  12:00:00     -182.641       68.517      -14.388      168.381       97.218       52.215    28352.203     9451.297     2726.392        3.939        2.026      195.070       43.058        0.049      331.512       -0.426      853.768
12/26/2021  12:01:00     -454.325       95.850       -3.640      235.607      186.153      106.706    55510.552    34652.933    11386.068       15.856        5.077      464.325      112.306        0.059      331.331       -0.726      853.792
12/26/2021  12:02:00     -326.079       43.650      -16.182      145.201      127.706       73.004    21083.471    16308.948     5329.576        7.560        2.136      328.988       74.836        0.052      331.285       -0.801      853.856
12/26/2021  12:03:00     -131.315      -15.794        0.808      144.256       98.935       58.836    20809.703     9788.137     3461.640        2.577        1.703      132.262       72.405        0.300      331.438       -0.548      853.841
12/26/2021  12:04:00     -340.445      -58.732      -16.605      187.572      111.750       86.941    35183.255    12488.118     7558.663        8.742        2.762      345.474       95.336        0.076      331.413       -0.591      853.863
12/26/2021  12:05:00     -216.629        0.770      -17.426      154.855      122.954       85.069    23980.153    15117.635     7236.698        4.677        2.317      216.630       61.267        0.080      331.450       -0.529      853.841
12/26/2021  12:06:00     -494.756       23.448       12.703      227.271      179.107      121.784    51651.967    32079.385    14831.336       17.201        4.928      495.311      109.234        0.049      331.376       -0.653      853.811
12/26/2021  12:07:00     -220.383      -12.160       -2.339      130.125      121.920       88.154    16932.585    14864.577     7771.211        4.414        1.978      220.718       77.979        0.125      331.388       -0.632      853.796
12/26/2021  12:08:00     -209.114       44.992       -1.092      145.364       97.735       69.009    21130.552     9552.118     4762.200        4.059        1.772      213.900       71.505        0.112      331.457       -0.517      853.868
12/26/2021  12:09:00     -167.086       -1.339       -9.023      100.990       95.173       60.909    10199.041     9057.857     3709.933        2.548        1.148      167.092       36.688        0.048      331.489       -0.466      853.878
12/26/2021  12:10:00     -174.077       32.435        1.870      173.323      125.241       67.106    30040.745    15685.348     4503.211        4.078        2.511      177.073       61.453        0.120      331.549       -0.368      853.850
12/26/2021  12:11:00     -307.661      144.478        1.259      209.328      147.030       89.501    43818.050    21617.853     8010.377        9.447        3.672      339.896       74.377        0.048      331.417       -0.585      853.830
12/26/2021  12:12:00     -136.490        4.501      -21.767      193.538       88.937       82.212    37456.764     7909.785     6758.797        3.561        2.606      136.564       51.184        0.140      331.481       -0.477      853.905
12/26/2021  12:13:00     -248.724       36.540       -7.994      150.900       88.384       66.135    22770.903     7811.764     4373.817        4.910        1.748      251.393       54.791        0.048      331.361       -0.676      853.925
12/26/2021  12:14:00     -287.127      -10.014       -8.239      132.135      101.889       76.822    17459.718    10381.298     5901.658        5.817        1.687      287.302       71.876        0.063      331.307       -0.765      853.923
12/26/2021  12:15:00     -280.991      -24.177      -22.874      162.024      139.454       77.691    26251.888    19447.407     6035.949        6.589        2.587      282.029       34.584        0.015      331.373       -0.656      853.926
12/26/2021  12:16:00     -210.716       -9.387      -10.041      109.304       80.529       49.897    11947.420     6484.948     2489.692        3.275        1.046      210.925       44.844        0.045      331.432       -0.558      853.923
12/26/2021  12:17:00     -384.326      -25.593       -4.707      162.064      107.468       68.141    26264.798    11549.394     4643.134        9.541        2.123      385.178       69.259        0.032      331.413       -0.591      853.959
12/26/2021  12:18:00     -183.762       -8.841      -11.729      175.705       90.071       59.550    30872.298     8112.756     3546.230        3.825        2.127      183.974       78.912        0.184      331.529       -0.399      853.981
12/26/2021  12:19:00      -60.967        5.666       -4.932       62.623       43.982       33.137     3921.653     1934.385     1098.043        0.536        0.348       61.229       23.174        0.143      331.729       -0.068      854.036
12/26/2021  12:20:00     -137.569       13.658        1.806      106.875       92.712       43.561    11422.259     8595.538     1897.521        2.051        1.096      138.246       44.797        0.105      331.661       -0.180      854.039
12/26/2021  12:21:00     -145.373       64.437       -5.038      102.011       78.044       51.675    10406.334     6090.904     2670.297        2.224        0.958      159.014       16.226        0.010      331.562       -0.345      854.005
12/26/2021  12:22:00     -260.496       47.352      -10.376      198.339      100.048       67.973    39338.163    10009.672     4620.294        6.208        2.698      264.765       73.725        0.078      331.412       -0.592      853.944
12/26/2021  12:23:00     -262.054       44.359      -13.489      172.160      113.227       68.244    29639.091    12820.443     4657.177        5.896        2.356      265.782       82.277        0.096      331.441       -0.544      853.880
12/26/2021  12:24:00     -299.544      115.822        6.382      170.966      130.808       77.174    29229.295    17110.818     5955.830        7.773        2.615      321.156       74.900        0.054      331.571       -0.330      853.877
12/26/2021  12:25:00     -231.984      -48.171      -10.329      150.232      100.875       69.545    22569.779    10175.725     4836.532        4.691        1.879      236.933       73.900        0.097      331.746       -0.043      853.935
12/26/2021  12:26:00     -223.623      -65.531      -25.347      101.506       83.436       53.175    10303.502     6961.563     2827.541        3.751        1.005      233.027       38.658        0.028      331.534       -0.393      853.890
12/26/2021  12:27:00     -156.945     -106.187      -23.460       85.235      107.287       43.828     7264.954    11510.507     1920.910        2.857        1.035      189.493       37.462        0.039      331.503       -0.443      853.787
12/26/2021  12:28:00     -156.930      -57.420       -5.672       99.998       66.297       48.978     9999.537     4395.280     2398.806        2.237        0.840      167.105       46.597        0.078      331.702       -0.114      853.839
12/26/2021  12:29:00     -110.479      -66.653       -9.359      112.235       64.171       62.504    12596.787     4117.966     3906.739        1.867        1.031      129.028       36.855        0.082      331.716       -0.090      853.791
12/26/2021  12:30:00      -72.005      -19.801      -24.466       91.862       80.579       53.381     8438.696     6493.047     2849.489        1.198        0.889       74.678       34.968        0.219      331.747       -0.039      853.694
12/26/2021  12:31:00       82.877     -215.267      -71.679      194.272      169.599       65.447    37741.619    28763.796     4283.293        6.455        3.539      230.670       84.680        0.135      331.799        0.045      853.701
12/26/2021  12:32:00       35.861     -229.636      -41.064      152.308      104.770       73.372    23197.579    10976.675     5383.410        4.762        1.978      232.419       49.226        0.045      331.834        0.102      853.743
12/26/2021  12:33:00      -64.560     -172.711      -23.114      153.227      114.816       65.139    23478.528    13182.712     4243.039        3.771        2.045      184.383       63.028        0.117      331.820        0.078      853.762
12/26/2021  12:34:00      -89.156      -62.125      -10.337       57.141       89.812       57.737     3265.100     8066.185     3333.575        1.329        0.733      108.666       58.471        0.290      331.785        0.023      853.777
12/26/2021  12:35:00      -95.608     -102.882      -19.755      131.686       97.284       69.608    17341.252     9464.171     4845.334        2.588        1.583      140.448       51.058        0.132      331.755       -0.027      853.772
12/26/2021  12:36:00     -226.343      -52.354      -30.186      108.681      126.202       57.504    11811.510    15926.867     3306.694        4.296        1.552      232.319       51.070        0.048      331.573       -0.328      853.722
12/26/2021  12:37:00     -210.304     -150.202      -33.528       67.243      104.699       46.715     4521.625    10961.953     2182.246        4.279        0.883      258.434       28.536        0.012      331.632       -0.232      853.706
12/26/2021  12:38:00     -102.898      -29.968       -4.659       85.630       69.958       47.791     7332.434     4894.178     2284.023        1.301        0.726      107.173       47.631        0.198      331.763       -0.012      853.792
12/26/2021  12:39:00     -131.703     -204.602      -12.532       63.058       83.162       33.764     3976.346     6915.873     1139.985        3.570        0.602      243.326       23.789        0.010      331.476       -0.488      853.712
12/26/2021  12:40:00      -52.613      -92.979      -25.583       76.429       55.857       43.499     5841.442     3119.949     1892.189        1.146        0.543      106.832       24.359        0.052      331.804        0.056      853.570
12/26/2021  12:41:00      -31.658        3.562      -13.678       57.918       59.314       35.323     3354.452     3518.194     1247.686        0.466        0.406       31.858       39.966        1.574      331.746       -0.041      853.553
12/26/2021  12:42:00      -20.144       32.544       -1.703       20.749       34.235       22.619      430.513     1172.002      511.631        0.179        0.106       38.274       18.089        0.223      331.872        0.169      853.595
12/26/2021  12:43:00      -95.774       -5.234       -5.567       79.207      105.410       46.983     6273.739    11111.363     2207.392        1.441        0.980       95.917       45.082        0.221      331.829        0.096      853.652
12/26/2021  12:44:00     -314.055      -26.520      -24.267      127.639       91.569       72.701    16291.639     8384.813     5285.434        6.494        1.498      315.173       59.468        0.036      331.755       -0.029      853.655
12/26/2021  12:45:00     -287.566       58.722       -5.454      188.119      117.158       91.990    35388.647    13725.983     8462.143        7.186        2.879      293.500      100.564        0.117      331.838        0.109      853.562
12/26/2021  12:46:00     -239.531       33.378        7.294      162.929      102.916       73.222    26545.759    10591.776     5361.458        5.051        2.125      241.845       65.541        0.073      331.899        0.210      853.576
12/26/2021  12:47:00     -256.570     -204.690      -19.297      189.447      211.676       63.101    35890.097    44806.771     3981.680        9.637        4.234      328.216       53.431        0.027      331.589       -0.301      853.607
12/26/2021  12:48:00     -177.257      -25.650      -44.545      180.310      150.636       70.572    32511.807    22691.334     4980.408        4.711        3.009      179.103       69.609        0.151      331.727       -0.074      853.511
12/26/2021  12:49:00     -189.138       15.606      -16.474      172.955       95.168       62.416    29913.554     9057.039     3895.787        3.957        2.143      189.780       74.243        0.153      331.560       -0.350      853.542
12/26/2021  12:50:00     -262.553      -27.697      -14.665      168.636       97.295       69.307    28438.137     9466.280     4803.401        5.630        2.135      264.009       63.448        0.058      331.436       -0.553      853.428
12/26/2021  12:51:00     -496.505      -46.723      -32.799      178.380      118.922       94.801    31819.318    14142.347     8987.224       15.235        2.747      498.699       79.449        0.025      331.331       -0.725      853.306
12/26/2021  12:52:00     -264.945      -42.845      -31.232      102.443       90.476       58.255    10494.609     8185.916     3393.648        4.754        1.104      268.387       40.888        0.023      331.448       -0.534      853.384
12/26/2021  12:53:00     -215.673      -87.922      -24.406      123.254      109.038       56.007    15191.543    11889.270     3136.794        4.252        1.511      232.906       53.011        0.052      331.491       -0.465      853.272
12/26/2021  12:54:00     -217.609        3.650      -20.560      154.475      114.647       69.598    23862.489    13143.911     4843.897        4.481        2.093      217.640       50.435        0.054      331.512       -0.427      853.301
12/26/2021  12:55:00     -326.979     -111.771      -38.128      171.200      188.503       79.117    29309.542    35533.557     6259.481        9.597        3.555      345.554       71.193        0.042      331.462       -0.511      853.306
12/26/2021  12:56:00     -187.036       25.057       13.599      149.636      118.522       76.385    22390.913    14047.467     5834.596        3.903        2.114      188.707       46.466        0.061      331.587       -0.304      853.324
12/26/2021  12:57:00     -436.466     -195.023      -51.813      151.916      167.259       82.906    23078.441    27975.482     6873.407       14.456        2.896      478.055       62.628        0.017      331.491       -0.463      853.299
12/26/2021  12:58:00     -305.803     -103.509      -21.709      223.176      205.187      108.199    49807.403    42101.871    11707.048       10.414        5.181      322.846       87.360        0.073      331.584       -0.311      853.187
12/26/2021  12:59:00     -456.028      -19.189       -5.032      256.908      180.915      104.632    66001.498    32730.290    10947.793       15.900        5.484      456.432      104.735        0.053      331.585       -0.307      853.222
12/26/2021  13:00:00     -373.373      -41.257      -18.100      206.219      102.926       67.759    42526.461    10593.810     4591.276        9.956        2.886      375.645       70.367        0.035      331.592       -0.296      853.310
12/26/2021  13:01:00      -77.704      -91.121      -26.986       96.888      118.396       61.439     9387.309    14017.565     3774.777        2.112        1.359      119.753       58.135        0.236      331.763       -0.013      853.297
12/26/2021  13:02:00     -276.864      -93.670      -21.649      153.208      127.256       77.190    23472.693    16194.111     5958.357        6.575        2.281      292.280       64.441        0.049      331.736       -0.059      853.364
12/26/2021  13:03:00     -327.590     -104.574      -21.107      174.392      206.447      115.044    30412.618    42620.236    13235.109       10.247        4.313      343.876      113.297        0.109      331.721       -0.083      853.359
12/26/2021  13:04:00     -294.784      -88.858      -20.312      189.812      131.621       79.208    36028.772    17323.962     6273.941        7.741        2.981      307.885       69.394        0.051      331.765       -0.011      853.345
12/26/2021  13:05:00     -249.122     -135.334      -38.399      120.949      130.470       73.933    14628.561    17022.455     5466.030        5.948        1.856      283.509       68.355        0.058      331.740       -0.052      853.282
12/26/2021  13:06:00     -287.225      -34.909      -23.185      195.796      117.186       73.201    38336.071    13732.520     5358.414        7.083        2.871      289.339       61.490        0.045      331.703       -0.113      853.312
12/26/2021  13:07:00     -318.482       -1.114      -16.227      154.502      137.296       60.462    23870.782    18850.273     3655.594        7.403        2.319      318.484       55.525        0.030      331.568       -0.335      853.314
12/26/2021  13:08:00     -347.021       34.842      -20.215      279.357      143.955      101.169    78040.450    20722.933    10235.264       11.550        5.450      348.765      113.277        0.105      331.504       -0.440      853.291
12/26/2021  13:09:00     -397.788      -75.093      -37.978      180.814      139.703       91.061    32693.734    19516.901     8292.023       11.290        3.025      404.814       73.938        0.033      331.483       -0.476      853.283
12/26/2021  13:10:00     -156.330      -26.896      -19.637      133.020      137.749       65.066    17694.441    18974.685     4233.546        3.322        2.045      158.627       46.918        0.087      331.554       -0.358      853.294
12/26/2021  13:11:00     -237.969     -111.284      -30.265      107.411      192.376       64.124    11537.066    37008.386     4111.909        6.128        2.633      262.704       76.080        0.084      331.559       -0.353      853.240
12/26/2021  13:12:00     -242.133      -93.395      -26.936      119.857      146.982       80.443    14365.589    21603.714     6471.121        5.525        2.122      259.521       55.557        0.046      331.554       -0.359      853.192
12/26/2021  13:13:00     -351.572     -260.851      -35.247      167.099      190.817       86.755    27922.054    36411.301     7526.496       13.236        3.593      437.774       83.421        0.036      331.563       -0.344      853.311
12/26/2021  13:14:00     -124.732     -363.565      -73.367      267.855      209.142      104.891    71746.297    43740.518    11002.058       13.978        6.324      384.366       87.680        0.052      331.712       -0.099      853.115
12/26/2021  13:15:00     -323.264     -310.259      -47.974      238.552      250.139      103.369    56907.069    62569.405    10685.136       16.659        6.508      448.063       71.119        0.025      331.694       -0.127      853.105
12/26/2021  13:16:00     -382.465     -163.746      -44.224      212.862      226.763      100.029    45310.266    51421.446    10005.822       14.087        5.337      416.044      101.393        0.059      331.594       -0.293      853.216
12/26/2021  13:17:00     -231.288      -12.914       -5.742      135.363      136.102       70.322    18323.191    18523.687     4945.206        4.774        2.090      231.649       62.693        0.073      331.694       -0.128      853.247
12/26/2021  13:18:00     -223.718       -7.411      -20.117      127.701      117.757       70.524    16307.564    13866.654     4973.676        4.282        1.757      223.841       62.936        0.079      331.656       -0.192      853.250
12/26/2021  13:19:00     -225.543      -66.223        2.608      279.667      147.879      115.746    78213.863    21868.268    13397.183        8.435        5.674      235.064      124.773        0.282      331.602       -0.279      853.189
12/26/2021  13:20:00     -422.023       14.131      -20.225      215.202      160.566      106.791    46311.793    25781.372    11404.232       13.109        4.175      422.259       86.894        0.042      331.469       -0.498      853.144
12/26/2021  13:21:00     -324.666       -9.181      -18.252      209.575      138.687       84.566    43921.514    19234.200     7151.356        8.805        3.515      324.796       88.831        0.075      331.469       -0.498      853.136
12/26/2021  13:22:00     -486.716      -82.273      -29.626      194.856      155.697      110.377    37968.847    24241.466    12183.116       15.945        3.720      493.621      114.390        0.054      331.450       -0.530      853.165
12/26/2021  13:23:00     -469.086      -80.997      -35.614      269.168      162.795      104.292    72451.466    26502.291    10876.848       16.883        5.492      476.028      121.818        0.065      331.455       -0.524      853.103
12/26/2021  13:24:00     -236.236      -17.405      -15.512      111.998       84.926       71.719    12543.659     7212.395     5143.569        4.062        1.245      236.876       59.552        0.063      331.535       -0.389      853.050
12/26/2021  13:25:00     -206.237      -56.480      -37.505      145.886      133.915       73.997    21282.782    17933.353     5475.558        4.590        2.235      213.831       59.778        0.078      331.582       -0.313      853.045
12/26/2021  13:26:00     -366.640      -56.135      -39.178      192.167      117.020       87.792    36928.252    13693.605     7707.490        9.871        2.916      370.912       84.082        0.051      331.476       -0.488      852.989
12/26/2021  13:27:00     -222.240      -57.074      -16.618      169.534      171.399       82.909    28741.763    29377.475     6873.857        5.895        3.250      229.452       91.407        0.159      331.554       -0.358      853.041
12/26/2021  13:28:00     -303.947     -201.636       -9.432      149.125      180.620       85.432    22238.171    32623.543     7298.558        9.763        3.108      364.748       80.116        0.048      331.457       -0.519      852.989
12/26/2021  13:29:00     -396.937     -198.911      -49.465      189.750      204.993       84.011    36005.131    42022.221     7057.846       14.231        4.254      443.987       79.792        0.032      331.513       -0.427      852.936
12/26/2021  13:30:00     -415.347     -236.006      -39.485      199.131      199.823      103.891    39653.185    39929.124    10793.337       16.006        4.519      477.716       93.775        0.039      331.518       -0.418      852.993
12/26/2021  13:31:00     -500.137      -91.186      -52.790      263.363      179.386      100.582    69360.233    32179.228    10116.645       18.643        5.583      508.382      110.706        0.047      331.445       -0.539      852.985
12/26/2021  13:32:00     -409.623      -61.238      -55.576      237.351      140.037      113.196    56335.525    19610.305    12813.392       13.168        4.438      414.175      101.636        0.060      331.463       -0.509      852.983
12/26/2021  13:33:00     -367.827     -103.170      -29.601      172.712      210.721      103.776    29829.487    44403.307    10769.376       11.589        4.250      382.022      102.041        0.071      331.420       -0.580      852.927
12/26/2021  13:34:00     -223.930     -119.444      -23.497      167.979      200.428       81.697    28216.896    40171.396     6674.339        7.000        3.753      253.794       70.698        0.078      331.509       -0.432      852.978
12/26/2021  13:35:00     -289.157        4.932      -10.870      244.041      140.132       89.454    59556.071    19637.067     8002.027        8.546        4.360      289.199       71.696        0.061      331.429       -0.566      852.957
12/26/2021  13:36:00     -163.185      -78.446      -19.850      135.499      125.089       63.427    18360.035    15647.263     4022.942        3.560        1.902      181.061       58.934        0.106      331.442       -0.542      852.879
12/26/2021  13:37:00     -403.125      -75.137      -39.566      176.130      199.380       91.043    31021.676    39752.408     8288.778       12.438        3.953      410.068       76.459        0.035      331.367       -0.667      852.868
12/26/2021  13:38:00     -412.100      -81.854      -22.784      219.943      137.612       92.807    48375.142    18936.949     8613.131       12.647        3.796      420.151       95.344        0.051      331.338       -0.714      852.864
12/26/2021  13:39:00     -319.140      -39.630      -19.075      205.277      113.649       85.524    42138.577    12916.082     7314.335        8.307        3.118      321.591       72.763        0.051      331.362       -0.674      852.881
12/26/2021  13:40:00     -247.595     -131.516       -4.391      137.237      190.604       80.323    18834.123    36329.715     6451.734        7.011        3.081      280.356       74.718        0.071      331.440       -0.548      852.821
12/26/2021  13:41:00     -514.016      -91.137      -28.235      278.665      196.913      128.075    77653.980    38774.556    16403.111       20.305        6.642      522.033      130.478        0.062      331.285       -0.801      852.757
12/26/2021  13:42:00     -511.157      -75.223      -26.849      255.110      189.607      122.895    65081.061    35950.686    15103.289       19.188        5.807      516.662      115.627        0.050      331.272       -0.823      852.747
12/26/2021  13:43:00     -330.987      -36.134      -20.094      250.220      148.889      103.278    62609.868    22167.848    10666.325       10.334        4.772      332.954      111.453        0.112      331.411       -0.595      852.733
12/26/2021  13:44:00     -330.774      -86.625      -12.749      206.800      190.540      122.033    42766.052    36305.648    14891.971       10.550        4.698      341.929       80.903        0.056      331.392       -0.624      852.754
12/26/2021  13:45:00     -416.117     -139.409      -49.680      213.576      181.279      106.169    45614.758    32862.213    11271.813       14.239        4.487      438.848       85.067        0.038      331.359       -0.680      852.706
12/26/2021  13:46:00     -387.768      -54.346      -10.661      282.325      191.527      131.139    79707.345    36682.468    17197.383       14.348        6.679      391.558      132.165        0.114      331.372       -0.658      852.737
12/26/2021  13:47:00     -516.185      -75.238      -18.782      310.753      234.780      141.267    96567.131    55121.770    19956.332       22.202        8.582      521.640      147.830        0.080      331.405       -0.605      852.694
12/26/2021  13:48:00     -516.980      -95.286      -39.824      247.232      248.922      108.853    61123.749    61962.270    11849.057       20.641        6.747      525.688      113.629        0.047      331.426       -0.569      852.592
12/26/2021  13:49:00     -306.544      -62.084      -10.553      198.453      173.656       92.243    39383.651    30156.480     8508.720        8.798        3.902      312.768       97.790        0.098      331.402       -0.609      852.695
12/26/2021  13:50:00     -434.666     -230.647      -42.388      224.836      229.507      100.808    50551.187    52673.515    10162.238       17.864        5.669      492.070       90.496        0.034      331.395       -0.622      852.675
12/26/2021  13:51:00     -546.878      -85.872      -35.859      227.220      242.652      108.674    51628.891    58880.010    11810.079       21.500        6.116      553.579       98.390        0.032      331.375       -0.654      852.681
12/26/2021  13:52:00     -615.065      -60.166      -46.384      254.001      166.909      103.798    64516.553    27858.662    10774.039       24.359        5.157      618.001       93.368        0.023      331.362       -0.676      852.767
12/26/2021  13:53:00     -520.246      -38.572      -23.097      300.267      224.298      127.016    90160.453    50309.546    16133.034       21.461        7.830      521.674      118.531        0.052      331.394       -0.623      852.746
12/26/2021  13:54:00     -408.140      -85.564      -44.242      174.345      164.848       93.098    30396.041    27174.844     8667.152       12.104        3.312      417.013       89.071        0.046      331.388       -0.633      852.737
12/26/2021  13:55:00     -478.278      -22.936      -24.652      260.523      155.446       95.619    67872.436    24163.381     9143.030       16.551        5.059      478.828      108.275        0.051      331.362       -0.674      852.755
12/26/2021  13:56:00     -501.789      -53.366      -18.040      239.141      254.848      107.627    57188.623    64947.690    11583.609       19.432        6.686      504.619       97.969        0.038      331.308       -0.764      852.695
12/26/2021  13:57:00     -499.323      -16.975      -28.021      241.203      207.516      104.056    58179.127    43062.691    10827.712       18.121        5.603      499.611      104.802        0.044      331.317       -0.749      852.649
12/26/2021  13:58:00     -337.062      -70.856      -28.224      233.046      160.339       93.505    54310.497    25708.682     8743.274       10.408        4.438      344.429       92.917        0.073      331.376       -0.652      852.668
12/26/2021  13:59:00     -342.636     -160.443      -23.507      157.391      187.227       80.780    24772.031    35053.786     6525.441       10.501        3.318      378.340       73.018        0.037      331.396       -0.620      852.647
12/26/2021  14:00:00     -404.699     -197.752      -54.836      236.879      208.330       96.000    56111.837    43401.187     9215.939       15.729        5.436      450.430      111.428        0.061      331.461       -0.512      852.528
12/26/2021  14:01:00     -539.207       48.850      -37.708      252.404      252.698      117.286    63707.644    63856.169    13756.007       21.791        7.066      541.415      106.581        0.039      331.446       -0.537      852.561
12/26/2021  14:02:00     -559.268     -324.478      -63.183      255.884      297.311      132.189    65476.555    88393.686    17473.845       29.667        8.567      646.581      108.352        0.028      331.478       -0.485      852.489
12/26/2021  14:03:00     -402.218       -7.026      -38.081      245.176      213.775      118.668    60111.310    45699.729    14082.193       14.156        5.995      402.280      112.088        0.078      331.540       -0.383      852.513
12/26/2021  14:04:00     -755.649      -50.571      -40.009      324.559      245.953      175.545   105338.593    60493.068    30815.913       38.587        9.832      757.339      161.233        0.045      331.507       -0.436      852.540
12/26/2021  14:05:00     -824.080     -105.130      -73.326      270.738      275.097      139.008    73299.131    75678.355    19323.357       43.189        8.415      830.759      104.417        0.016      331.500       -0.448      852.539
12/26/2021  14:06:00     -464.497     -126.919      -30.034      285.482      242.262      138.295    81499.790    58691.028    19125.627       19.601        7.966      481.524      144.942        0.091      331.553       -0.360      852.619
12/26/2021  14:07:00     -450.997     -142.909      -35.238      239.300      222.705      119.921    57264.310    49597.665    14380.934       17.313        6.062      473.098      116.228        0.060      331.583       -0.310      852.682
12/26/2021  14:08:00     -481.330        7.610      -14.803      291.406      234.199      116.722    84917.521    54848.978    13623.968       19.264        7.670      481.390      125.198        0.068      331.583       -0.311      852.711
12/26/2021  14:09:00     -620.616      -27.152      -39.181      382.076      280.331      135.767   145981.690    78585.525    18432.662       31.517       12.150      621.210      165.903        0.071      331.493       -0.459      852.598
12/26/2021  14:10:00     -391.786     -136.732      -21.522      179.117      236.942      109.896    32083.022    56141.509    12077.191       13.646        5.015      414.960      100.968        0.059      331.545       -0.374      852.591
12/26/2021  14:11:00     -272.755      -70.254      -18.750      201.281      143.755       97.595    40513.985    20665.609     9524.717        7.518        3.535      281.658      109.511        0.151      331.616       -0.256      852.604
12/26/2021  14:12:00     -724.151      -95.677      -38.416      388.934      278.661      148.291   151269.411    77652.020    21990.258       39.292       12.546      730.444      124.085        0.029      331.443       -0.542      852.589
12/26/2021  14:13:00     -497.470      -51.879      -52.350      226.115      175.270      111.263    51127.864    30719.537    12379.513       17.355        4.711      500.168      106.211        0.045      331.474       -0.492      852.513
12/26/2021  14:14:00     -374.602       35.377       -7.938      268.878      169.399       99.715    72295.499    28696.043     9942.994       12.627        5.547      376.269      131.169        0.122      331.511       -0.429      852.467
12/26/2021  14:15:00     -456.665     -167.156      -32.245      350.125      257.019      145.215   122587.684    66058.824    21087.485       22.359       10.487      486.296      156.013        0.103      331.511       -0.431      852.453
12/26/2021  14:16:00     -649.577      -31.700      -50.521      276.840      283.746      144.033    76640.173    80511.521    20745.613       30.167        8.895      650.350      150.335        0.053      331.485       -0.472      852.379
12/26/2021  14:17:00     -410.961       29.600       15.128      303.161      201.815      135.902    91906.667    40729.471    18469.251       16.052        7.555      412.026      143.154        0.121      331.547       -0.370      852.429
12/26/2021  14:18:00     -372.987       40.677      -13.737      231.255      161.873      110.204    53478.717    26202.863    12144.939       11.638        4.591      375.198       87.723        0.055      331.615       -0.258      852.404
12/26/2021  14:19:00     -437.514       65.035      -11.726      255.114      189.720      109.522    65083.002    35993.649    11995.086       15.441        5.654      442.321      100.866        0.052      331.619       -0.252      852.410
12/26/2021  14:20:00     -405.421        3.104        0.346      307.650      167.858      134.639    94648.367    28176.259    18127.703       15.264        7.048      405.433      148.452        0.134      331.578       -0.319      852.411
12/26/2021  14:21:00     -423.802      -52.220      -13.033      326.451      227.877      151.187   106570.395    51927.772    22857.497       18.190        9.068      427.007      158.080        0.137      331.586       -0.306      852.474
12/26/2021  14:22:00     -567.986       -7.707      -20.669      261.211      193.216      124.690    68231.050    37332.308    15547.582       22.208        6.056      568.039      106.638        0.035      331.592       -0.296      852.416
12/26/2021  14:23:00     -576.721      -51.564      -21.433      291.500      214.904      141.381    84972.149    46183.922    19988.685       24.341        7.557      579.021      146.742        0.064      331.586       -0.306      852.330
12/26/2021  14:24:00     -473.807      -39.493        9.827      254.820      216.295      118.355    64933.302    46783.370    14007.963       17.591        6.286      475.450      120.928        0.065      331.660       -0.184      852.352
12/26/2021  14:25:00     -427.553        8.957        0.878      340.074      203.873      126.036   115650.245    41564.231    15885.073       17.796        8.655      427.646      104.934        0.060      331.688       -0.138      852.325
12/26/2021  14:26:00     -537.972       21.753      -27.729      291.459      274.828      158.078    84948.438    75530.280    24988.779       23.803        9.273      538.412      141.235        0.069      331.494       -0.459      852.269
12/26/2021  14:27:00     -461.336       -5.924       -5.155      314.547      255.062      153.114    98939.855    65056.707    23443.999       20.013        9.372      461.374      148.849        0.104      331.478       -0.485      852.283
12/26/2021  14:28:00     -990.575        9.938      -52.783      458.671      291.549      186.200   210378.761    85000.828    34670.412       65.703       16.503      990.625      202.348        0.042      331.308       -0.763      852.227
12/26/2021  14:29:00     -651.487      -42.563      -17.966      398.861      262.221      180.863   159089.920    68759.835    32711.294       34.352       13.028      652.876      168.471        0.067      331.241       -0.874      852.258
12/26/2021  14:30:00     -552.055      -36.712      -32.056      327.875      254.136      160.105   107501.944    64585.295    25633.740       25.239        9.886      553.274      170.822        0.095      331.247       -0.863      852.281
12/26/2021  14:31:00     -616.956       65.328      -40.845      403.825      311.280      166.835   163074.574    96895.161    27834.009       33.713       14.390      620.405      185.678        0.090      331.227       -0.897      852.292
12/26/2021  14:32:00     -593.943      -93.073      -46.654      447.519      304.259      166.515   200272.829    92573.731    27727.406       34.203       16.029      601.191      205.417        0.117      331.226       -0.896      852.272
12/26/2021  14:33:00     -613.636      -20.204      -12.487      456.320      254.295      180.927   208227.967    64665.871    32734.493       34.131       15.281      613.969      211.796        0.119      331.212       -0.922      852.313
12/26/2021  14:34:00     -841.637       -8.640      -25.003      508.961      306.280      194.341   259041.535    93807.711    37768.564       54.976       19.531      841.681      210.321        0.062      331.157       -1.011      852.316
12/26/2021  14:35:00     -531.093     -121.510      -29.886      389.039      255.176      166.997   151351.576    65114.775    27888.015       27.099       12.218      544.816      168.996        0.096      331.238       -0.879      852.358
12/26/2021  14:36:00     -622.594       64.120       -2.452      384.350      219.119      134.754   147724.950    48013.268    18158.576       30.278       10.695      625.888      155.225        0.062      331.248       -0.863      852.330
12/26/2021  14:37:00     -716.034       12.898      -45.216      332.531      273.531      160.574   110576.540    74819.374    25784.031       36.301       10.559      716.150      148.863        0.043      331.261       -0.841      852.290
12/26/2021  14:38:00     -619.366      -61.202      -34.592      324.953      217.178      150.596   105594.726    47166.181    22679.046       28.197        8.772      622.382      131.224        0.044      331.296       -0.784      852.302
12/26/2021  14:39:00     -696.937      -70.130      -54.938      389.644      205.890      150.166   151822.719    42390.625    22549.832       35.517       10.838      700.457      156.120        0.050      331.266       -0.834      852.334
12/26/2021  14:40:00     -571.468      -28.171      -25.391      278.203      209.868      143.612    77397.090    44044.497    20624.427       23.501        7.103      572.162      141.502        0.061      331.295       -0.786      852.348
12/26/2021  14:41:00     -685.242       -7.145      -21.434      363.249      239.485      161.624   131949.936    57352.951    26122.302       34.271       10.771      685.280      138.489        0.041      331.293       -0.790      852.345
12/26/2021  14:42:00     -606.125      -10.862      -12.565      371.416      263.606      129.956   137950.066    69487.933    16888.450       29.595       11.216      606.222      120.867        0.040      331.331       -0.726      852.329
12/26/2021  14:43:00     -427.865       37.767      -23.283      280.186      223.244      143.696    78504.242    49837.704    20648.431       16.699        7.450      429.529      116.955        0.074      331.361       -0.676      852.376
12/26/2021  14:44:00     -411.096      -69.388      -26.287      250.016      219.608      129.762    62507.768    48227.816    16838.098       15.102        6.379      416.911      120.394        0.083      331.332       -0.724      852.349
12/26/2021  14:45:00     -358.504       23.759       11.467      252.858      200.564      128.130    63937.263    40225.806    16417.247       12.488        6.029      359.290      118.967        0.110      331.284       -0.804      852.386
12/26/2021  14:46:00     -546.693      -33.257      -18.547      310.317      189.519      148.338    96296.557    35917.310    22004.066       22.724        7.711      547.703      141.644        0.067      331.238       -0.879      852.437
12/26/2021  14:47:00     -470.421      -79.987      -27.737      274.562      160.057      131.227    75384.464    25618.098    17220.613       17.332        5.911      477.173      108.941        0.052      331.211       -0.923      852.385
12/26/2021  14:48:00     -623.165      -10.250      -36.302      318.470      231.254      155.268   101423.042    53478.599    24108.222       28.435        8.950      623.249      151.872        0.059      331.203       -0.936      852.341
12/26/2021  14:49:00     -601.490      -86.958      -27.890      305.878      224.672      150.449    93561.274    50477.593    22634.943       26.837        8.334      607.743      147.140        0.059      331.228       -0.895      852.342
12/26/2021  14:50:00     -382.431        4.959      -16.817      292.558      150.048      124.130    85589.949    22514.299    15408.140       13.501        6.176      382.463      141.548        0.137      331.253       -0.853      852.358
12/26/2021  14:51:00     -403.939      -61.337      -26.087      371.780      199.070      142.061   138220.683    39628.804    20181.401       18.278        9.902      408.569      134.602        0.109      331.192       -0.953      852.324
12/26/2021  14:52:00     -476.344       12.027      -17.744      350.187      183.218      142.161   122630.714    33569.004    20209.848       20.185        8.820      476.496      155.112        0.106      331.223       -0.902      852.295
12/26/2021  14:53:00     -693.111      -78.028      -36.938      353.951      197.797      170.038   125281.219    39123.494    28912.963       34.055        9.666      697.489      170.948        0.060      331.190       -0.958      852.245
12/26/2021  14:54:00     -517.403       13.244       -9.290      279.053      168.987      134.175    77870.664    28556.614    18002.867       19.618        6.222      517.572      142.153        0.075      331.181       -0.973      852.292
12/26/2021  14:55:00     -407.786      -44.308      -25.176      348.160      205.433      148.729   121215.369    42202.632    22120.427       17.718        9.277      410.186      155.986        0.145      331.198       -0.944      852.286
12/26/2021  14:56:00     -692.864      -29.088      -13.851      310.842      210.822      147.635    96622.570    44445.857    21796.025       32.195        8.143      693.475      108.105        0.024      331.128       -1.059      852.276
12/26/2021  14:57:00     -699.654       -0.158      -36.822      361.351      211.826      164.938   130574.714    44870.421    27204.503       34.672       10.132      699.654      188.170        0.072      331.130       -1.057      852.231
12/26/2021  14:58:00     -619.600       64.036      -12.217      447.724      228.924      130.778   200456.564    52406.016    17102.966       32.901       13.498      622.900      164.042        0.069      331.130       -1.056      852.278
12/26/2021  14:59:00     -570.400      -47.650      -36.880      414.125      208.457      150.121   171499.895    43454.506    22536.364       28.320       11.875      572.387      166.983        0.085      331.064       -1.166      852.222
12/26/2021  15:00:00     -179.721        6.172      -18.841      357.136      148.562      153.105   127546.133    22070.529    23441.100       10.284        8.653      179.827      138.096        0.590      331.142       -1.037      852.200
12/26/2021  15:01:00     -521.906      -56.366      -31.723      460.340      218.947      140.046   211913.256    47937.945    19612.771       27.797       13.973      524.941      136.515        0.068      331.105       -1.097      852.198
12/26/2021  15:02:00     -663.345      -12.340      -36.825      441.333      279.472      171.147   194774.662    78104.727    29291.343       37.180       15.109      663.459      164.723        0.062      330.969       -1.321      852.199
12/26/2021  15:03:00     -431.758       32.735      -34.871      302.269      199.096      130.149    91366.495    39639.259    16938.809       16.830        7.397      432.997      128.656        0.088      331.026       -1.227      852.290
12/26/2021  15:04:00     -612.856       51.831      -33.259      343.244      214.162      140.261   117816.248    45865.312    19673.264       28.134        9.168      615.044      147.012        0.057      331.102       -1.101      852.304
12/26/2021  15:05:00     -449.945      -58.712       -5.284      385.329      247.130      195.089   148478.161    61073.170    38059.628       22.672       12.381      453.759      210.991        0.216      331.221       -0.906      852.269
12/26/2021  15:06:00     -932.735      -81.138      -54.875      466.005      257.432      184.574   217160.228    66271.064    34067.436       59.849       15.875      936.258      211.946        0.051      331.199       -0.944      852.270
12/26/2021  15:07:00     -484.628      -43.863      -31.098      326.883      190.918      151.395   106852.251    36449.602    22920.345       20.196        8.311      486.609      136.194        0.078      331.222       -0.906      852.361
12/26/2021  15:08:00     -401.761       29.903      -14.185      202.205      170.361      100.526    40886.784    29022.863    10105.550       12.125        4.001      402.872       75.269        0.035      331.229       -0.894      852.441
12/26/2021  15:09:00     -450.367       28.252        7.108      373.139      209.148      140.996   139232.659    43742.848    19879.815       20.323       10.143      451.252      160.046        0.126      331.193       -0.952      852.473
12/26/2021  15:10:00     -589.770       78.633      -29.758      338.084      235.561      127.065   114300.741    55488.836    16145.594       27.038        9.297      594.989      137.155        0.053      331.182       -0.970      852.510
12/26/2021  15:11:00     -408.150      -35.221      -22.637      372.401      179.551      131.303   138682.318    32238.649    17240.465       17.822        9.408      409.666      149.510        0.133      331.222       -0.904      852.507
12/26/2021  15:12:00     -575.103      -72.318      -62.403      375.636      232.218      158.576   141102.181    53925.100    25146.327       27.998       11.009      579.632      163.286        0.079      331.179       -0.977      852.514
12/26/2021  15:13:00     -343.204       36.480      -34.014      299.348      224.460      130.353    89609.388    50382.119    16991.901       13.860        7.849      345.137      136.811        0.157      331.169       -0.990      852.535
12/26/2021  15:14:00     -272.257       24.810      -13.447      281.691      149.556      116.554    79349.879    22366.896    13584.897        9.509        5.765      273.386      130.463        0.228      331.199       -0.942      852.529
12/26/2021  15:15:00     -490.363      -28.275      -20.206      349.949      175.522      152.658   122464.004    30808.070    23304.375       20.909        8.829      491.178      161.395        0.108      331.169       -0.993      852.484
12/26/2021  15:16:00     -630.251      -51.889      -20.566      448.003      196.167      144.427   200706.486    38481.509    20859.166       33.014       13.002      632.383      116.846        0.034      331.229       -0.893      852.474
12/26/2021  15:17:00     -847.605     -120.362      -24.924      401.043      262.575      166.340   160835.729    68945.642    27669.090       49.545       12.873      856.108      184.885        0.047      331.387       -0.634      852.397
12/26/2021  15:18:00     -440.810       58.715       -5.331      288.101      224.207      133.707    83002.184    50268.902    17877.428       17.444        7.557      444.703      146.212        0.108      331.346       -0.702      852.413
12/26/2021  15:19:00     -575.476       32.005      -13.529      370.047      174.749      130.213   136934.780    30537.129    16955.410       25.837        9.221      576.365      142.047        0.061      331.404       -0.608      852.405
12/26/2021  15:20:00     -464.736       16.936      -31.722      265.255      205.827      138.627    70360.216    42364.785    19217.549       17.458        6.597      465.045      145.519        0.098      331.376       -0.652      852.388
12/26/2021  15:21:00     -550.353     -105.901      -35.533      368.220      176.447      142.983   135585.627    31133.388    20444.124       25.123        9.358      560.450      164.340        0.086      331.396       -0.619      852.395
12/26/2021  15:22:00     -690.908      -35.978      -18.357      365.593      213.970      171.103   133658.253    45783.021    29276.199       34.381       10.436      691.844      182.907        0.070      331.386       -0.637      852.340
12/26/2021  15:23:00     -549.306        1.228      -20.363      339.167      198.572      145.637   115033.960    39430.944    21210.168       23.888        8.784      549.308      143.836        0.069      331.311       -0.759      852.362
12/26/2021  15:24:00     -353.410      110.999        1.944      271.776      178.818      115.953    73861.946    31975.747    13445.074       12.823        5.964      370.431       89.003        0.058      331.349       -0.697      852.320
12/26/2021  15:25:00     -395.913       13.349      -14.875      309.219      175.238      117.780    95616.627    30708.307    13872.139       14.865        7.010      396.138      119.595        0.091      331.351       -0.693      852.336
12/26/2021  15:26:00     -512.625       -3.613      -21.267      319.372      177.377      104.555   101998.778    31462.699    10931.674       20.379        7.220      512.638      135.217        0.070      331.362       -0.675      852.280
12/26/2021  15:27:00     -451.814       49.349      -16.802      278.245      189.543      137.403    77420.271    35926.415    18879.536       16.952        6.611      454.501      139.101        0.094      331.329       -0.729      852.268
12/26/2021  15:28:00     -402.548      -60.505      -18.114      336.913      195.981      169.469   113510.080    38408.457    28719.887       17.330        9.032      407.070      178.734        0.193      331.340       -0.711      852.264
12/26/2021  15:29:00     -453.443      -26.357      -14.117      270.001      188.800      145.382    72900.719    35645.560    21135.980       16.807        6.484      454.208      141.927        0.098      331.288       -0.796      852.235
12/26/2021  15:30:00     -634.236      100.795      -12.044      362.900      249.018      154.815   131696.111    62010.103    23967.784       31.508       10.884      642.195      147.156        0.053      331.282       -0.807      852.240
12/26/2021  15:31:00     -373.685      -27.029      -13.740      283.676      170.611      132.155    80472.280    29108.099    17464.964       13.378        6.352      374.661      124.272        0.110      331.256       -0.850      852.256
12/26/2021  15:32:00     -495.762      -43.255      -20.804      264.863      182.319      143.389    70152.622    33240.160    20560.307       18.600        6.198      497.645      130.329        0.069      331.221       -0.906      852.259
12/26/2021  15:33:00     -320.565      -23.751      -29.312      292.338      168.979      143.944    85461.535    28553.776    20719.819       11.944        6.737      321.444      148.954        0.215      331.214       -0.918      852.256
12/26/2021  15:34:00     -579.672      122.763      -26.275      269.069      208.753      113.425    72398.018    43577.758    12865.193       24.029        6.442      592.528      103.909        0.031      331.199       -0.944      852.233
12/26/2021  15:35:00     -254.100       35.166       -6.599      254.870      148.749      105.575    64958.660    22126.354    11146.131        8.202        4.912      256.522      117.082        0.208      331.265       -0.834      852.256
12/26/2021  15:36:00     -475.763      -45.524      -13.974      425.391      254.680      162.445   180957.367    64861.716    26388.485       25.036       13.610      477.936      152.234        0.101      331.350       -0.695      852.283
12/26/2021  15:37:00     -592.415       95.807      -25.619      398.667      354.891      148.913   158935.121   125947.538    22175.134       33.387       15.353      600.112      177.847        0.088      331.390       -0.628      852.275
12/26/2021  15:38:00     -279.213      -29.297       -4.626      276.104      174.374      120.344    76233.543    30406.374    14482.654        9.996        6.056      280.745      110.902        0.156      331.394       -0.622      852.382
12/26/2021  15:39:00     -589.226      -89.250      -17.193      388.974      272.936      160.049   151300.857    74493.847    25615.718       30.338       12.571      595.947      193.409        0.105      331.359       -0.681      852.402
12/26/2021  15:40:00     -401.919       38.292       -5.658      302.054      206.758      131.895    91236.911    42748.758    17396.326       15.718        7.569      403.739      137.978        0.117      331.338       -0.715      852.484
12/26/2021  15:41:00     -801.333       34.930      -25.508      403.524      281.102      177.925   162831.825    79018.119    31657.319       45.871       13.675      802.094      176.576        0.048      331.321       -0.743      852.487
12/26/2021  15:42:00     -375.113      165.723       18.076      448.311      266.112      162.651   200982.853    70815.578    26455.482       23.332       14.913      410.090      142.714        0.121      331.337       -0.715      852.539
12/26/2021  15:43:00     -351.871       27.930      -26.055      274.562      225.990      139.548    75384.300    51071.343    19473.770       13.557        7.296      352.977      128.142        0.132      331.318       -0.746      852.554
12/26/2021  15:44:00     -559.145      -63.691      -42.895      430.390      244.493      179.328   185235.254    59776.649    32158.660       29.780       13.859      562.761      192.002        0.116      331.370       -0.661      852.569
12/26/2021  15:45:00     -514.520       64.189      -22.762      427.427      194.068      138.813   182693.995    37662.378    19269.168       25.445       11.981      518.509      165.569        0.102      331.395       -0.620      852.638
12/26/2021  15:46:00     -321.376       47.043      -10.025      360.200      187.480      145.057   129744.348    35148.708    21041.483       14.573        9.297      324.800      133.323        0.168      331.352       -0.691      852.610
12/26/2021  15:47:00     -495.532       64.761      -49.428      273.427      219.523      116.589    74762.266    48190.309    13593.030       19.434        6.827      499.746       92.504        0.034      331.290       -0.793      852.609
12/26/2021  15:48:00     -256.469       11.119        3.054      249.884      163.787      108.000    62441.778    26826.075    11664.059        8.340        5.047      256.710      105.352        0.168      331.278       -0.812      852.651
12/26/2021  15:49:00     -285.171      -13.175      -15.755      197.213      165.879       90.768    38893.039    27515.826     8238.805        7.818        3.732      285.475       77.406        0.074      331.321       -0.742      852.685
12/26/2021  15:50:00     -543.600       42.395      -33.822      292.542      162.223      103.280    85580.942    26316.202    10666.698       21.048        6.128      545.251      104.163        0.036      331.348       -0.698      852.702
12/26/2021  15:51:00     -735.026       25.737      -34.261      307.375      189.758      112.594    94479.604    36008.066    12677.339       34.261        7.158      735.477       98.171        0.018      331.355       -0.686      852.688
12/26/2021  15:52:00     -461.781      178.928      -37.432      286.587      208.644      122.745    82131.955    43532.344    15066.434       19.367        7.037      495.234      105.356        0.045      331.344       -0.705      852.747
12/26/2021  15:53:00     -250.343       22.793       -5.887      282.218      114.199      106.697    79647.221    13041.457    11384.228        8.363        5.204      251.378      134.244        0.285      331.367       -0.667      852.747
12/26/2021  15:54:00     -225.587        3.947      -24.335      238.382      142.574      105.666    56826.142    20327.398    11165.309        6.989        4.416      225.622       99.362        0.194      331.376       -0.653      852.770
12/26/2021  15:55:00     -454.274       21.604       -5.354      380.555      177.852      115.749   144822.386    31631.259    13397.845       19.832        9.493      454.788      101.558        0.050      331.393       -0.623      852.830
12/26/2021  15:56:00     -401.483        1.991      -10.235      230.753      145.686      123.863    53247.159    21224.383    15341.967       12.554        4.491      401.487      106.022        0.070      331.404       -0.605      852.850
12/26/2021  15:57:00     -693.016       41.715      -29.439      409.337      274.122      144.936   167556.788    75142.679    21006.350       37.324       13.185      694.271      181.443        0.068      331.462       -0.511      852.813
12/26/2021  15:58:00     -434.194       50.663      -21.149      305.989      169.702      101.193    93629.123    28798.647    10240.096       16.208        6.633      437.139       94.177        0.046      331.459       -0.516      852.862
12/26/2021  15:59:00     -249.886      -15.315      -14.367      269.270      120.668       99.305    72506.408    14560.856     9861.483        7.989        4.846      250.355      108.133        0.187      331.431       -0.560      852.848
12/26/2021  16:00:00     -651.511      -11.987       -9.127      399.433      224.973      157.692   159546.994    50612.965    24866.648       32.982       11.751      651.621      173.521        0.071      331.424       -0.574      852.841
12/26/2021  16:01:00     -378.601       64.677      -40.880      349.590      278.392      138.922   122213.470    77501.878    19299.428       18.406       10.951      384.086      139.877        0.133      331.529       -0.399      852.721
12/26/2021  16:02:00     -425.516      -31.840      -15.149      275.463      150.845       93.157    75879.594    22754.166     8678.163       14.479        5.366      426.706       97.168        0.052      331.586       -0.304      852.826
12/26/2021  16:03:00     -421.131      -17.063       -9.548      277.872      183.547      107.937    77212.820    33689.355    11650.441       15.012        6.128      421.477      135.640        0.104      331.573       -0.328      852.813
12/26/2021  16:04:00     -319.533      -23.070       -8.004      216.318      123.954       98.725    46793.566    15364.666     9746.670        8.729        3.595      320.365       81.338        0.064      331.603       -0.278      852.814
12/26/2021  16:05:00     -475.251      -73.163      -25.165      372.802      198.636      172.396   138981.457    39456.315    29720.366       21.997       10.408      480.849      185.002        0.148      331.580       -0.316      852.764
12/26/2021  16:06:00     -685.964      -79.456      -48.908      309.576      199.119      140.805    95837.372    39648.384    19826.053       31.725        7.766      690.550      133.204        0.037      331.552       -0.363      852.777
12/26/2021  16:07:00     -326.378       -7.531       -4.374      195.016      137.749      111.897    38031.423    18974.923    12520.983        8.805        3.476      326.465       91.498        0.079      331.583       -0.312      852.792
12/26/2021  16:08:00     -547.939      -96.372      -10.533      322.285      191.032      144.301   103867.644    36493.356    20822.756       23.538        8.059      556.349      156.322        0.079      331.551       -0.363      852.795
12/26/2021  16:09:00     -383.448      -62.212      -34.535      401.422      196.473      147.875   161139.346    38601.601    21867.113       18.681       11.080      388.462      157.990        0.165      331.551       -0.363      852.785
12/26/2021  16:10:00     -488.402      -37.117      -59.387      269.459      210.151      133.133    72608.175    44163.370    17724.296       18.894        6.725      489.811      136.514        0.078      331.561       -0.346      852.772
12/26/2021  16:11:00     -369.254       -7.783      -23.322      356.323      171.757      119.032   126966.408    29500.352    14168.698       15.376        8.532      369.336      119.283        0.104      331.565       -0.341      852.812
12/26/2021  16:12:00     -639.832        4.026      -10.385      375.731      193.307      155.810   141173.721    37367.757    24276.831       30.613       10.141      639.845      156.353        0.060      331.563       -0.343      852.802
12/26/2021  16:13:00     -737.610      -22.290      -33.184      297.496      247.733      126.247    88503.654    61371.717    15938.374       35.571        8.291      737.947       92.661        0.016      331.562       -0.344      852.780
12/26/2021  16:14:00     -525.423      -32.238      -36.680      241.936      160.057      111.178    58533.200    25618.137    12360.623       18.747        4.826      526.411      104.197        0.039      331.557       -0.353      852.781
12/26/2021  16:15:00     -249.102       12.442      -13.212      165.193      108.018       75.031    27288.670    11667.912     5629.583        5.348        2.229      249.412       62.240        0.062      331.549       -0.367      852.769
12/26/2021  16:16:00     -557.178       20.624      -27.463      298.980      212.376      122.758    89389.191    45103.687    15069.489       23.057        7.478      557.560      111.892        0.040      331.528       -0.401      852.695
12/26/2021  16:17:00     -623.791      -37.006      -47.533      357.243      254.261      143.997   127622.700    64648.560    20735.002       30.284       10.650      624.888      162.113        0.067      331.531       -0.396      852.588
12/26/2021  16:18:00     -431.057       34.155      -28.687      316.045      213.689      151.567    99884.525    45662.926    22972.628       17.813        8.426      432.409      154.496        0.128      331.499       -0.449      852.517
12/26/2021  16:19:00     -593.545       -1.765       -2.360      314.319      227.464      159.820    98796.464    51739.941    25542.482       26.416        8.804      593.547      163.513        0.076      331.473       -0.494      852.444
12/26/2021  16:20:00     -470.077      -28.611      -19.554      293.477      261.496      137.143    86128.787    68380.321    18808.203       19.771        8.666      470.947      115.010        0.060      331.506       -0.438      852.434
12/26/2021  16:21:00     -431.689       52.512       -7.001      253.664      112.484      113.516    64345.410    12652.639    12885.959       13.951        4.494      434.871      124.503        0.082      331.459       -0.516      852.463
12/26/2021  16:22:00     -395.839      -18.262      -42.977      257.819      141.485       95.340    66470.767    20017.926     9089.776       12.721        4.779      396.260      113.689        0.082      331.477       -0.489      852.388
12/26/2021  16:23:00     -579.105      -28.194      -49.947      273.615      199.487      124.338    74864.905    39795.052    15459.916       23.436        6.506      579.791      122.479        0.045      331.432       -0.562      852.364
12/26/2021  16:24:00     -431.059      -19.300      -27.521      275.038      210.072      120.270    75646.134    44130.223    14464.872       16.057        6.712      431.491      128.980        0.089      331.428       -0.567      852.336
12/26/2021  16:25:00     -369.966      -31.225       -5.036      411.039      203.412      162.203   168953.353    41376.642    26309.751       18.721       11.832      371.281      183.305        0.244      331.437       -0.552      852.294
12/26/2021  16:26:00     -555.430        0.426      -14.619      376.672      270.514      160.303   141882.096    73178.004    25696.953       27.469       12.038      555.430      180.834        0.106      331.448       -0.534      852.270
12/26/2021  16:27:00     -599.049      -12.682      -11.439      384.663      211.385      148.582   147965.993    44683.635    22076.521       28.690       10.736      599.183      144.117        0.058      331.426       -0.571      852.317
12/26/2021  16:28:00     -430.319       82.088        4.599      399.272      284.060      132.121   159418.028    80690.348    17456.037       22.470       12.878      438.078      149.302        0.116      331.435       -0.554      852.350
12/26/2021  16:29:00     -304.662       17.566       17.572      321.979      178.284      127.118   103670.206    31785.262    16159.040       12.250        7.581      305.168      120.925        0.157      331.389       -0.629      852.355
12/26/2021  16:30:00     -644.474      -56.412      -20.814      349.804      190.079      149.368   122362.599    36130.191    22310.686       29.985        9.040      646.939      148.821        0.053      331.345       -0.704      852.344
12/26/2021  16:31:00     -289.307      -49.961      -26.031      348.327      180.202      142.382   121331.686    32472.717    20272.542       13.044        8.704      293.589      132.815        0.205      331.372       -0.659      852.358
12/26/2021  16:32:00     -660.185       -6.669       11.026      360.628      232.279      161.957   130052.748    53953.668    26229.986       32.308       10.512      660.219      157.832        0.057      331.363       -0.674      852.339
12/26/2021  16:33:00     -623.433       45.795      -17.335      307.329      227.020      119.954    94451.356    51537.938    14388.950       27.569        8.019      625.113      117.886        0.036      331.405       -0.604      852.308
12/26/2021  16:34:00     -667.414      -25.519      -21.252      380.380      236.169      155.890   144688.974    55775.759    24301.788       33.561       11.238      667.901      151.572        0.052      331.441       -0.546      852.272
12/26/2021  16:35:00     -529.064       52.191      -14.152      350.497      249.794      163.129   122847.920    62397.109    26610.970       24.731       10.593      531.632      155.822        0.086      331.346       -0.701      852.271
12/26/2021  16:36:00     -551.464      -32.783      -28.789      327.084      145.224      135.245   106984.212    21090.060    18291.120       22.616        7.318      552.438      126.597        0.053      331.359       -0.680      852.268
12/26/2021  16:37:00     -387.631       14.711      -15.589      297.991      158.191      106.737    88798.598    25024.474    11392.875       13.794        6.261      387.910      125.335        0.104      331.294       -0.786      852.308
12/26/2021  16:38:00     -280.559       12.043        4.791      235.827      160.544       87.270    55614.369    25774.389     7616.107        8.393        4.450      280.817       73.660        0.069      331.283       -0.803      852.311
12/26/2021  16:39:00     -545.928      -58.486      -36.979      355.457      195.963      147.002   126349.415    38401.499    21609.572       24.456        9.318      549.052      163.480        0.089      331.293       -0.789      852.333
12/26/2021  16:40:00     -315.363        2.414      -15.344      226.168      187.167      120.383    51152.077    35031.632    14492.183       10.017        5.034      315.372      115.334        0.134      331.299       -0.779      852.336
12/26/2021  16:41:00     -400.660        7.184       -5.672      283.639      170.481      125.992    80450.809    29063.659    15874.064       14.298        6.269      400.724      114.822        0.082      331.290       -0.794      852.400
12/26/2021  16:42:00     -138.964      -16.828        0.953      202.281      123.722      103.939    40917.582    15307.080    10803.376        4.330        3.351      139.979       99.290        0.503      331.292       -0.789      852.409
12/26/2021  16:43:00     -234.070       -2.546      -11.101      227.704      161.762      110.340    51848.931    26166.999    12174.841        7.254        4.510      234.084       96.792        0.171      331.289       -0.793      852.413
12/26/2021  16:44:00     -396.901       71.639      -28.156      245.713      206.842      115.907    60374.920    42783.413    13434.508       14.000        5.830      403.315      126.604        0.099      331.307       -0.766      852.438
12/26/2021  16:45:00     -418.137      -49.985      -23.905      279.369      181.323      115.381    78047.243    32878.013    13312.764       15.105        6.212      421.114      118.878        0.080      331.373       -0.657      852.461
12/26/2021  16:46:00     -343.143      -91.808      -36.278      262.171      171.801      136.167    68733.503    29515.518    18541.545       12.212        5.840      355.212      120.099        0.114      331.374       -0.654      852.481
12/26/2021  16:47:00     -454.269      -61.057      -31.146      239.798      172.221      133.995    57503.075    29660.122    17954.579       15.807        5.256      458.354      123.814        0.073      331.358       -0.682      852.475
12/26/2021  16:48:00     -459.321      -45.650      -52.321      216.102      205.417      134.666    46699.879    42196.032    18135.062       16.139        5.352      461.583      117.424        0.065      331.360       -0.678      852.480
12/26/2021  16:49:00     -492.189      -14.711      -14.025      295.710      203.949      142.322    87444.585    41595.324    20255.478       19.595        7.465      492.409      141.825        0.083      331.384       -0.639      852.532
12/26/2021  16:50:00     -357.221      -26.196      -32.355      351.657      182.341      139.312   123662.969    33248.364    19407.906       15.280        8.816      358.180      139.491        0.152      331.402       -0.609      852.522
12/26/2021  16:51:00     -501.153      -26.999      -34.246      292.485      193.589      114.147    85547.725    37476.858    13029.535       19.453        6.803      501.880      129.201        0.066      331.412       -0.593      852.568
12/26/2021  16:52:00     -533.768      -40.697      -18.992      211.464      196.732       99.382    44717.008    38703.627     9876.851       19.009        4.665      535.317       87.280        0.027      331.429       -0.565      852.522
12/26/2021  16:53:00     -316.026      -52.683      -28.955      174.186      182.093      103.316    30340.823    33158.031    10674.254        8.882        3.709      320.387       91.733        0.082      331.443       -0.543      852.563
12/26/2021  16:54:00     -373.719      -32.299      -37.489      180.889      151.327       93.059    32720.982    22899.758     8660.037       10.319        3.214      375.112       83.787        0.050      331.404       -0.605      852.567
12/26/2021  16:55:00     -297.806      -23.558        0.600      237.638      129.382       99.441    56471.980    16739.630     9888.483        8.616        4.155      298.736       91.374        0.094      331.397       -0.617      852.558
12/26/2021  16:56:00     -338.938      -97.381      -19.070      193.961      160.383      106.505    37620.904    25722.774    11343.364        9.969        3.734      352.650       99.441        0.080      331.458       -0.517      852.606
12/26/2021  16:57:00     -550.175       55.657      -19.934      278.154      169.679      102.506    77369.453    28790.855    10507.528       21.141        5.833      552.983       83.498        0.023      331.500       -0.448      852.619
12/26/2021  16:58:00     -319.469     -116.263      -36.263      207.304      153.796       99.611    42974.985    23653.291     9922.370        9.671        3.828      339.967      103.963        0.094      331.537       -0.386      852.568
12/26/2021  16:59:00     -218.095      -25.429      -18.842      100.329      111.295       60.701    10065.838    12386.554     3684.654        3.735        1.307      219.573       48.678        0.049      331.532       -0.394      852.577
12/26/2021  17:00:00     -234.147      -19.438       -2.193      121.833       99.778       60.437    14843.232     9955.565     3652.653        4.182        1.423      234.952       35.732        0.023      331.493       -0.459      852.591
12/26/2021  17:01:00     -206.570     -103.340      -26.337      173.505      134.023       66.837    30103.849    17962.099     4467.126        5.328        2.627      230.977       83.037        0.129      331.528       -0.402      852.558
12/26/2021  17:02:00     -448.920      -50.181      -33.055      222.034      133.973      106.056    49299.302    17948.761    11247.910       14.180        3.925      451.716      112.587        0.062      331.511       -0.429      852.546
12/26/2021  17:03:00     -422.675      -12.760      -27.400      281.009      160.993      104.986    78966.057    25918.699    11022.069       14.772        5.795      422.867      100.667        0.057      331.558       -0.353      852.587
12/26/2021  17:04:00     -479.069      -44.420      -33.005      212.995      154.538       98.589    45366.933    23881.961     9719.876       15.575        3.948      481.124       92.114        0.037      331.595       -0.291      852.600
12/26/2021  17:05:00     -220.066      -11.244      -17.577      158.476      144.555       73.714    25114.740    20896.215     5433.810        5.015        2.572      220.353       64.082        0.085      331.569       -0.333      852.597
12/26/2021  17:06:00     -187.101      -48.454      -18.102      121.456      107.611       54.298    14751.610    11580.082     2948.272        3.348        1.464      193.273       64.270        0.111      331.553       -0.359      852.557
12/26/2021  17:07:00     -186.584      -70.770      -11.256      149.698      102.145       70.289    22409.534    10433.547     4940.499        3.886        1.889      199.555       59.911        0.090      331.536       -0.389      852.551
12/26/2021  17:08:00     -510.349      -72.134      -39.109      242.795      173.437      105.861    58949.530    30080.402    11206.485       18.369        5.012      515.422      106.853        0.043      331.558       -0.351      852.541
12/26/2021  17:09:00     -686.089      -20.306      -69.137      192.102      217.371      103.769    36903.138    47250.240    10768.053       28.540        4.746      686.389       85.460        0.016      331.631       -0.232      852.493
12/26/2021  17:10:00     -390.295      -12.745       -2.604      261.641      181.484      107.531    68455.831    32936.530    11562.964       13.271        5.648      390.503      107.905        0.076      331.571       -0.330      852.463
12/26/2021  17:11:00     -504.658       14.150      -36.261      256.952      201.217       97.239    66024.516    40488.205     9455.370       18.606        5.798      504.857      107.523        0.045      331.561       -0.347      852.374
12/26/2021  17:12:00     -277.008        3.932       -0.049      262.851      158.350      105.628    69090.489    25074.856    11157.285        9.102        5.266      277.036       99.779        0.130      331.508       -0.435      852.394
12/26/2021  17:13:00     -396.225      -77.832      -20.575      297.314      199.178      121.482    88395.524    39671.997    14757.791       15.312        7.141      403.797      141.924        0.124      331.451       -0.529      852.335
12/26/2021  17:14:00     -586.338       -2.919      -28.068      260.093      180.951      121.252    67648.407    32743.200    14702.059       22.982        5.755      586.346      124.722        0.045      331.456       -0.521      852.355
12/26/2021  17:15:00     -229.640      -12.732      -12.273      172.430      108.695       85.816    29732.126    11814.703     7364.373        5.097        2.446      229.993       87.667        0.145      331.394       -0.621      852.368
12/26/2021  17:16:00     -443.636      109.818      -30.322      256.499      201.335      100.840    65791.494    40535.707    10168.630       16.312        5.825      457.026       79.663        0.030      331.362       -0.675      852.321
12/26/2021  17:17:00     -488.585      -75.219      -21.352      275.204      159.211      119.720    75737.488    25348.177    14332.764       18.010        5.771      494.341      129.941        0.069      331.387       -0.634      852.250
12/26/2021  17:18:00     -249.880       16.846       -3.181      221.310      143.716       94.478    48977.967    20654.167     8926.107        7.063        3.928      250.447      103.574        0.171      331.359       -0.678      852.226
12/26/2021  17:19:00     -366.450       56.062      -15.757      252.777      137.266       96.356    63896.029    18842.063     9284.423       11.483        4.601      370.713      118.571        0.102      331.357       -0.682      852.220
12/26/2021  17:20:00     -170.313      -34.569      -18.682      167.747      127.229       81.882    28139.099    16187.265     6704.647        4.078        2.552      173.786       81.720        0.221      331.381       -0.643      852.233
12/26/2021  17:21:00     -394.248      -10.518      -10.817      337.890      156.542      125.908   114169.609    24505.425    15852.742       15.506        7.726      394.388      124.638        0.100      331.395       -0.622      852.218
12/26/2021  17:22:00     -632.762      -59.039      -54.428      266.613      170.768      111.435    71082.656    29161.731    12417.855       25.973        5.633      635.510      110.402        0.030      331.435       -0.555      852.163
12/26/2021  17:23:00     -441.567      -31.009       -7.067      359.668      266.974      163.238   129361.399    71275.056    26646.749       21.160       11.364      442.655      182.707        0.170      331.465       -0.506      852.119
12/26/2021  17:24:00     -266.812      -49.835      -27.809      298.800      206.201      122.013    89281.390    42518.921    14887.199       11.054        7.334      271.427      101.188        0.139      331.455       -0.523      852.092
12/26/2021  17:25:00     -624.986      -25.547      -39.035      374.640      289.033      150.674   140355.391    83539.899    22702.721       31.965       12.330      625.508      149.977        0.057      331.408       -0.598      852.080
12/26/2021  17:26:00     -483.063      -66.962      -16.569      343.185      213.344      145.922   117776.047    45515.827    21293.315       21.131        9.229      487.682      154.847        0.101      331.371       -0.660      852.023
12/26/2021  17:27:00     -372.260      -53.219      -16.750      313.979      223.266      151.042    98582.573    49847.722    22813.645       15.644        8.562      376.045      158.190        0.177      331.349       -0.696      852.011
12/26/2021  17:28:00     -562.994      -29.902      -14.774      397.325      196.755      142.623   157866.927    38712.341    20341.447       26.746       10.846      563.788      141.247        0.063      331.328       -0.731      851.969
12/26/2021  17:29:00     -458.494       35.223      -15.030      326.696      226.406      127.039   106730.164    51259.902    16138.842       19.287        8.706      459.845      137.897        0.090      331.317       -0.748      851.962
12/26/2021  17:30:00     -231.628      -17.931      -15.443      282.434      176.339      125.998    79769.014    31095.355    15875.419        9.045        6.337      232.321      142.674        0.377      331.311       -0.759      852.012
12/26/2021  17:31:00     -413.318       20.937      -15.460      394.308      209.336      143.483   155478.880    43821.408    20587.418       19.566       10.994      413.848      139.179        0.113      331.284       -0.804      852.003
12/26/2021  17:32:00     -593.698       67.186      -10.796      315.644      194.447      125.715    99631.119    37809.609    15804.293       25.515        7.662      597.488      123.647        0.043      331.299       -0.778      851.990
12/26/2021  17:33:00     -578.324       -5.925       -9.779      404.061      295.425      158.934   163265.390    87276.106    25260.154       30.514       13.790      578.354      181.944        0.099      331.371       -0.660      851.934
12/26/2021  17:34:00     -535.285       92.146        1.257      380.450      219.852      143.785   144742.272    48334.914    20674.178       25.435       10.688      543.159      153.489        0.080      331.418       -0.583      851.974
12/26/2021  17:35:00     -533.973      -19.139      -17.293      358.703      237.771      165.161   128667.996    56535.168    27278.254       24.910       10.624      534.316      149.569        0.078      331.415       -0.588      851.915
12/26/2021  17:36:00     -534.809       50.576      -30.506      312.253      214.382      133.629    97502.031    45959.562    17856.713       22.538        8.066      537.195      141.663        0.070      331.358       -0.681      851.970
12/26/2021  17:37:00     -235.488       50.062       12.177      190.872      152.242       97.304    36432.198    23177.776     9468.078        6.358        3.454      240.751       91.635        0.145      331.285       -0.801      851.961
12/26/2021  17:38:00     -341.287       12.709        0.478      237.011      212.838      123.342    56174.161    45299.804    15213.157       11.664        5.834      341.524      102.269        0.090      331.307       -0.764      851.937
12/26/2021  17:39:00     -585.111      -29.072      -19.049      343.485      221.007      147.967   117981.738    48843.963    21894.179       26.611        9.436      585.833      161.293        0.076      331.358       -0.680      851.911
12/26/2021  17:40:00     -447.400       34.801      -21.375      300.087      179.731      128.072    90052.025    32303.073    16402.427       17.027        6.938      448.751      143.073        0.102      331.352       -0.691      851.928
12/26/2021  17:41:00     -323.743       11.511       -3.107      302.691      188.194      106.116    91621.759    35416.873    11260.651       12.160        6.915      323.947      115.525        0.127      331.322       -0.741      851.946
12/26/2021  17:42:00     -379.079       39.152      -24.371      308.491      165.224      103.206    95166.552    27298.815    10651.507       13.945        6.656      381.096      114.800        0.091      331.286       -0.799      851.971
12/26/2021  17:43:00     -375.160        9.438      -14.126      267.195      161.331       95.863    71392.939    26027.757     9189.675       12.380        5.331      375.279      104.092        0.077      331.271       -0.824      851.959
12/26/2021  17:44:00     -345.698       54.918       -5.460      218.676      181.842       99.071    47819.146    33066.470     9815.132       10.661        4.535      350.032      103.387        0.087      331.271       -0.825      851.955
12/26/2021  17:45:00     -257.581       29.779       10.622      350.644      152.050      125.485   122951.113    23119.338    15746.609       11.455        8.091      259.296      134.834        0.270      331.297       -0.781      851.934
12/26/2021  17:46:00     -410.630      120.591      -18.549      272.985      176.277      109.605    74520.689    31073.546    12013.234       15.053        5.880      427.971      111.455        0.068      331.344       -0.706      851.959
12/26/2021  17:47:00     -249.183      -20.702      -16.554      215.668      125.633      108.800    46512.538    15783.532    11837.463        6.845        3.707      250.041      112.157        0.201      331.326       -0.733      851.965
12/26/2021  17:48:00     -344.998       79.982       -9.226      294.120      169.272      125.700    86506.751    28653.086    15800.375       12.821        6.548      354.148      119.548        0.114      331.289       -0.794      851.960
12/26/2021  17:49:00     -207.065       26.117      -16.561      258.760      154.511      114.906    66956.565    23873.681    13203.479        7.391        5.202      208.706      109.129        0.273      331.275       -0.818      851.938
12/26/2021  17:50:00     -266.723       23.501        2.693      243.785      153.273      109.107    59431.318    23492.711    11904.233        8.325        4.741      267.756       95.373        0.127      331.262       -0.840      851.958
12/26/2021  17:51:00     -175.153       28.847       -0.786      226.703      184.152      121.278    51394.151    33911.847    14708.457        6.574        5.001      177.513       99.553        0.315      331.240       -0.873      851.951
12/26/2021  17:52:00     -193.445       11.334       -9.069      201.805      133.201      104.436    40725.289    17742.587    10906.931        5.349        3.469      193.777       94.070        0.236      331.260       -0.840      851.964
12/26/2021  17:53:00     -419.594        0.053      -14.253      284.972      188.787      130.697    81209.013    35640.536    17081.593       15.507        6.697      419.594      134.765        0.103      331.240       -0.875      852.005
12/26/2021  17:54:00     -508.736      121.405      -17.896      290.873      243.592      142.534    84606.906    59336.877    20316.058       21.904        8.213      523.021      126.458        0.058      331.243       -0.869      851.991
12/26/2021  17:55:00     -339.545      -35.673      -23.989      305.250      203.279      145.283    93177.426    41322.388    21107.152       13.634        7.780      341.414      139.863        0.168      331.261       -0.842      851.992
12/26/2021  17:56:00     -260.249      -10.165       -5.742      231.417      153.723      120.182    53553.714    23630.677    14443.775        7.973        4.581      260.447      119.874        0.212      331.248       -0.862      851.990
12/26/2021  17:57:00     -507.162      138.026      -12.255      266.719      217.145      124.478    71139.083    47151.897    15494.698       20.508        6.689      525.609      130.930        0.062      331.212       -0.922      852.011
12/26/2021  17:58:00     -446.446      140.941       -4.829      324.384      210.447      118.389   105224.915    44287.982    14015.913       19.134        8.176      468.165      125.410        0.072      331.237       -0.879      851.937
12/26/2021  17:59:00     -496.795      114.338      -11.110      295.773      187.132      114.019    87481.661    35018.471    13000.228       19.773        6.775      509.782      114.807        0.051      331.291       -0.792      851.930
12/26/2021  18:00:00     -657.364       -3.579      -45.862      356.867      217.606      152.599   127354.084    47352.508    23286.541       31.608        9.900      657.374      131.351        0.040      331.367       -0.668      851.930
12/26/2021  18:01:00     -414.587       60.180       17.040      332.001      189.997      143.669   110224.564    36098.940    20640.829       17.135        8.348      418.932      152.260        0.132      331.347       -0.700      851.928
12/26/2021  18:02:00     -317.632       77.462      -11.161      309.956      201.674      138.564    96072.635    40672.544    19199.928       13.145        7.797      326.941      126.801        0.150      331.331       -0.727      851.930
12/26/2021  18:03:00     -138.393       69.732        7.350      294.487      165.292      110.036    86722.333    27321.517    12107.873        7.509        6.308      154.969      110.669        0.510      331.319       -0.745      851.900
12/26/2021  18:04:00     -318.529      124.397      -18.234      302.818      163.822      115.426    91698.617    26837.602    13323.167       12.454        6.593      341.958       58.027        0.029      331.316       -0.749      851.912
12/26/2021  18:05:00     -431.493      165.790        2.906      278.447      223.259      119.983    77532.661    49844.384    14395.884       17.770        7.089      462.248      128.736        0.078      331.332       -0.724      851.947
12/26/2021  18:06:00     -577.712      229.030      -13.074      340.246      186.251      112.664   115767.152    34689.489    12693.254       27.473        8.157      621.455      141.485        0.052      331.351       -0.692      851.939
12/26/2021  18:07:00     -320.160      136.457      -22.215      203.629      189.854       97.992    41464.764    36044.654     9602.474       10.435        4.356      348.027       87.921        0.064      331.305       -0.769      851.910
12/26/2021  18:08:00     -434.504      227.738        2.746      285.674      172.322      113.738    81609.406    29694.916    12936.241       18.243        6.212      490.569      133.087        0.074      331.285       -0.800      851.865
12/26/2021  18:09:00     -467.002      167.190       -0.738      257.462      174.574      108.422    66286.733    30476.116    11755.420       17.726        5.426      496.028      123.369        0.062      331.266       -0.833      851.864
12/26/2021  18:10:00     -541.865      153.717      -26.495      296.173      170.419      112.239    87718.560    29042.525    12597.672       22.363        6.468      563.247      119.360        0.045      331.295       -0.785      851.806
12/26/2021  18:11:00     -537.628      117.488      -27.217      269.492      203.771      114.119    72625.767    41522.540    13023.225       21.536        6.359      550.315      108.754        0.039      331.336       -0.716      851.758
12/26/2021  18:12:00     -316.718       98.996       -9.856      188.919      160.668       99.433    35690.247    25814.365     9887.017        9.079        3.570      331.829       87.261        0.069      331.292       -0.790      851.782
12/26/2021  18:13:00     -209.955      -19.379      -33.009      255.092      128.536      106.831    65071.696    16521.448    11412.961        6.926        4.650      210.847      118.830        0.318      331.312       -0.757      851.785
12/26/2021  18:14:00     -480.031      129.631      -24.714      264.064      194.681      118.700    69729.940    37900.542    14089.649       18.476        6.086      497.226       91.735        0.034      331.297       -0.781      851.750
12/26/2021  18:15:00     -375.974       37.917       -8.931      225.860      157.272      116.052    51012.842    24734.409    13467.955       11.603        4.461      377.882      113.524        0.090      331.285       -0.799      851.706
12/26/2021  18:16:00     -550.734       72.068      -11.354      338.176      213.857      145.278   114362.831    45734.612    21105.590       24.488        9.060      555.429      145.805        0.069      331.361       -0.677      851.610
12/26/2021  18:17:00     -371.752       24.005      -20.402      284.644      144.872      117.687    81022.419    20987.856    13850.214       12.751        5.793      372.527       97.211        0.068      331.383       -0.640      851.612
12/26/2021  18:18:00     -450.226      160.936      -13.083      239.171      176.399       93.797    57202.933    31116.514     8797.848       16.293        4.856      478.125      106.583        0.050      331.361       -0.676      851.607
12/26/2021  18:19:00     -129.168      100.584        1.526      191.724      159.041       89.641    36758.114    25293.913     8035.445        4.843        3.504      163.712       74.841        0.209      331.317       -0.747      851.597
12/26/2021  18:20:00     -160.993       47.696       -3.836      125.924      164.670       83.448    15856.968    27116.084     6963.513        3.906        2.497      167.909       56.148        0.112      331.294       -0.786      851.607
12/26/2021  18:21:00     -396.877       58.003      -12.559      242.831      217.964      107.782    58966.833    47508.227    11617.001       13.954        5.905      401.093       46.231        0.013      331.309       -0.762      851.546
12/26/2021  18:22:00     -545.784       86.240      -27.257      253.741      182.114      113.933    64384.691    33165.377    12980.830       20.828        5.527      552.556      116.985        0.045      331.349       -0.697      851.521
12/26/2021  18:23:00     -344.511      127.918      -31.422      291.580      190.181      112.478    85018.919    36168.984    12651.404       13.491        6.692      367.493       79.830        0.047      331.340       -0.712      851.477
12/26/2021  18:24:00     -269.419       30.706        0.205      247.398      142.913      115.119    61205.920    20424.186    13252.307        8.419        4.744      271.163      121.309        0.200      331.441       -0.545      851.481
12/26/2021  18:25:00     -239.791      -16.900      -11.903      235.859      127.652       97.290    55629.597    16295.041     9465.250        6.964        4.069      240.386      107.110        0.199      331.438       -0.549      851.503
12/26/2021  18:26:00     -169.564       67.144       15.241      176.315      168.627       96.301    31087.059    28435.182     9273.934        5.113        3.440      182.374       89.821        0.243      331.390       -0.628      851.491
12/26/2021  18:27:00     -344.514       67.842       11.906      267.822      145.812      103.730    71728.722    21261.003    10759.870       11.357        5.187      351.130      114.475        0.106      331.354       -0.689      851.472
12/26/2021  18:28:00     -385.264      127.874      -20.448      207.749      148.395       84.396    43159.585    22020.965     7122.726       11.874        3.615      405.931       88.590        0.048      331.371       -0.662      851.447
12/26/2021  18:29:00     -268.826       44.916      -11.384      169.151      118.114       82.656    28611.969    13951.029     6831.978        6.190        2.470      272.553       81.468        0.089      331.338       -0.714      851.447
12/26/2021  18:30:00     -342.807       37.582       -6.064      243.185      185.987      100.457    59138.757    34591.059    10091.578       11.137        5.191      344.861      100.455        0.085      331.406       -0.602      851.392
12/26/2021  18:31:00     -248.655      117.222      -14.961      168.002      160.014       98.235    28224.639    25604.373     9650.135        6.962        3.174      274.900       92.768        0.114      331.357       -0.682      851.342
12/26/2021  18:32:00     -450.343      102.444      -18.136      219.494      150.477       90.731    48177.765    22643.341     8232.066       14.633        3.953      461.848       81.692        0.031      331.384       -0.639      851.291
12/26/2021  18:33:00     -437.858        5.503      -13.207      283.957      167.727      118.770    80631.477    28132.370    14106.279       15.737        6.144      437.892      114.689        0.069      331.374       -0.655      851.293
12/26/2021  18:34:00     -355.964       -0.953      -23.530      291.509      195.483      117.870    84977.300    38213.453    13893.282       13.215        6.854      355.965      129.195        0.132      331.365       -0.669      851.201
12/26/2021  18:35:00     -177.042      -10.692      -13.888      283.716      128.155       93.595    80495.018    16423.767     8760.112        6.865        5.284      177.364       95.927        0.293      331.377       -0.650      851.202
12/26/2021  18:36:00     -247.821       97.549      -20.753      181.363      115.268       66.723    32892.573    13286.638     4451.943        6.099        2.532      266.329       67.569        0.064      331.334       -0.720      851.194
12/26/2021  18:37:00     -246.987       60.782      -20.348      142.375      122.963       65.672    20270.507    15120.001     4312.806        5.240        1.985      254.356       56.936        0.050      331.305       -0.767      851.097
12/26/2021  18:38:00     -152.944       18.421       -1.792      143.334      107.850       78.140    20544.649    11631.691     6105.851        3.100        1.914      154.050       69.256        0.202      331.293       -0.785      851.051
12/26/2021  18:39:00     -274.608      101.321      -11.873      186.269      133.575       90.753    34696.141    17842.398     8236.094        7.328        3.039      292.703       90.722        0.096      331.358       -0.680      850.982
12/26/2021  18:40:00     -209.000       11.215      -19.386      251.762      170.160      128.767    63383.877    28954.488    16580.913        7.653        5.446      209.300      100.017        0.228      331.477       -0.485      850.882
12/26/2021  18:41:00     -336.642       24.107       -5.018      255.448      201.622      134.866    65253.722    40651.331    18188.927       11.899        6.205      337.504      136.553        0.164      331.549       -0.368      850.851
12/26/2021  18:42:00     -408.565       43.661       -7.597      230.360      140.096      102.777    53065.515    19626.798    10563.100       12.606        4.163      410.891       93.946        0.052      331.561       -0.346      850.819
12/26/2021  18:43:00     -465.539       17.325      -20.243      306.047      219.556      145.842    93664.563    48204.655    21269.863       19.026        8.157      465.861      141.310        0.092      331.620       -0.251      850.769
12/26/2021  18:44:00     -294.975       25.113      -12.345      275.504      134.741      104.080    75902.574    18155.112    10832.550        9.632        5.245      296.042      113.300        0.146      331.653       -0.196      850.741
12/26/2021  18:45:00     -670.546      177.345       -4.422      340.197      195.795      115.339   115734.220    38335.579    13303.127       32.421        8.369      693.602      127.594        0.034      331.558       -0.352      850.686
12/26/2021  18:46:00     -306.031      108.345       10.009      207.216      140.586       94.811    42938.454    19764.485     8989.098        8.858        3.585      324.644       95.712        0.087      331.503       -0.443      850.706
12/26/2021  18:47:00     -318.236       -8.095      -11.093      243.357      188.812      109.538    59222.560    35649.918    11998.571       10.415        5.344      318.339      100.152        0.099      331.518       -0.417      850.675
12/26/2021  18:48:00     -412.076       90.111      -31.032      355.991      208.837      115.459   126729.729    43613.018    13330.742       18.125        9.184      421.814      143.991        0.117      331.558       -0.351      850.556
12/26/2021  18:49:00     -428.220       76.845      -23.068      324.692      275.078      156.668   105424.718    75667.832    24544.862       19.769       10.282      435.060      137.490        0.100      331.548       -0.369      850.531
12/26/2021  18:50:00     -612.628      -80.375      -37.374      441.887      277.604      179.029   195264.002    77064.084    32051.516       34.372       15.219      617.878      176.549        0.082      331.614       -0.259      850.463
12/26/2021  18:51:00     -458.929      -13.062      -14.201      404.468      252.626      163.706   163594.027    63820.135    26799.786       23.255       12.711      459.115      189.622        0.171      331.630       -0.234      850.427
12/26/2021  18:52:00     -519.881       54.647      -11.197      353.827      222.605      144.504   125193.423    49553.068    20881.502       23.447        9.781      522.745      157.958        0.091      331.557       -0.354      850.445
12/26/2021  18:53:00     -406.208      -71.364       -7.679      366.091      245.024      167.095   134022.389    60036.909    27920.889       19.603       11.099      412.429      183.725        0.198      331.581       -0.313      850.337
12/26/2021  18:54:00     -504.605        2.572       -8.497      396.046      280.659      177.210   156852.048    78769.223    31403.422       26.082       13.351      504.612      172.434        0.117      331.640       -0.217      850.339
12/26/2021  18:55:00     -430.107       35.200       -5.192      395.566      257.521      148.478   156472.457    66317.025    22045.626       21.550       12.242      431.545      143.961        0.111      331.636       -0.223      850.285
12/26/2021  18:56:00     -336.294      109.394       14.066      295.233      233.097      140.439    87162.782    54334.348    19723.140       14.321        8.061      353.639      133.079        0.142      331.596       -0.290      850.273
12/26/2021  18:57:00     -540.188      146.129      -15.954      316.809      227.023      140.555   100367.861    51539.363    19755.793       24.251        8.583      559.604      160.365        0.082      331.606       -0.274      850.270
12/26/2021  18:58:00     -606.269       70.369       -3.640      363.164      223.374      156.520   131888.253    49896.047    24498.460       28.937       10.314      610.339      178.213        0.085      331.670       -0.167      850.238
12/26/2021  18:59:00     -465.003      -21.370      -29.202      451.196      222.581      153.472   203577.573    49542.226    23553.602       24.705       13.834      465.494      159.074        0.117      331.636       -0.225      850.273
12/26/2021  19:00:00     -510.074       53.570      -52.844      365.425      299.159      147.029   133535.109    89496.220    21617.501       25.520       12.232      512.880      127.184        0.061      331.608       -0.269      850.281
12/26/2021  19:01:00     -533.748       78.631      -30.468      393.600      188.702      124.600   154921.123    35608.412    15525.057       24.899       10.303      539.509      133.812        0.062      331.609       -0.268      850.240
12/26/2021  19:02:00     -639.680        4.891      -32.899      511.402      278.389      175.184   261531.550    77500.615    30689.429       38.994       18.486      639.698      189.168        0.087      331.655       -0.192      850.166
12/26/2021  19:03:00     -601.220      -36.106       15.127      463.941      311.605      183.701   215241.606    97097.754    33746.040       35.448       17.304      602.303      220.700        0.134      331.666       -0.174      850.142
12/26/2021  19:04:00     -691.218       11.846      -23.957      430.648      238.746      192.605   185457.820    56999.463    37096.521       37.897       13.978      691.319      159.853        0.053      331.605       -0.273      850.174
12/26/2021  19:05:00     -545.850       28.338      -36.279      401.328      281.908      170.806   161064.540    79472.066    29174.815       28.484       13.486      546.585      194.980        0.127      331.580       -0.315      850.192
12/26/2021  19:06:00     -611.352      -61.408      -16.617      374.311      218.207      165.802   140108.925    47614.485    27490.331       29.647       10.761      614.428      182.369        0.088      331.575       -0.325      850.214
12/26/2021  19:07:00     -671.980       -3.373      -44.739      346.899      254.828      162.465   120339.058    64937.418    26394.962       33.258       10.584      671.989      149.978        0.050      331.604       -0.276      850.153
12/26/2021  19:08:00     -476.036       73.351      -36.340      320.111      260.695      136.776   102470.783    67961.698    18707.759       21.119        9.457      481.654      136.210        0.080      331.557       -0.353      850.219
12/26/2021  19:09:00     -382.072       62.974      -20.214      269.297      195.309      122.484    72520.884    38145.527    15002.432       13.799        6.283      387.227      107.179        0.077      331.529       -0.400      850.246
12/26/2021  19:10:00     -543.056       71.563        1.592      440.758      238.209      157.944   194268.036    56743.365    24946.464       28.795       13.798      547.751      190.173        0.121      331.488       -0.468      850.230
12/26/2021  19:11:00     -646.405       24.482      -24.160      347.590      248.814      145.278   120818.593    61908.410    21105.808       31.139       10.192      646.869      162.964        0.063      331.522       -0.411      850.246
12/26/2021  19:12:00     -694.390      116.646      -14.511      501.233      262.093      160.704   251234.888    68692.485    25825.618       42.081       17.288      704.119      181.588        0.067      331.633       -0.231      850.243
12/26/2021  19:13:00     -397.614       78.874      -31.643      312.135      260.161      147.044    97428.548    67683.979    21621.867       17.599        9.337      405.361      139.161        0.118      331.546       -0.373      850.369
12/26/2021  19:14:00     -627.235      161.315      -27.019      345.267      211.667      120.641   119209.412    44803.107    14554.133       29.934        8.928      647.647      144.662        0.050      331.441       -0.546      850.358
12/26/2021  19:15:00     -454.810       88.068       -8.670      346.219      181.640      109.470   119867.744    32993.128    11983.583       18.973        8.242      463.258      136.879        0.087      331.350       -0.696      850.370
12/26/2021  19:16:00     -632.633       98.608      -42.181      369.463      230.023      155.622   136503.272    52910.540    24218.308       31.264       10.682      640.272      152.264        0.057      331.378       -0.650      850.343
12/26/2021  19:17:00     -682.855       54.885      -52.440      402.026      243.767      157.472   161625.289    59422.263    24797.488       35.890       12.292      685.058      164.522        0.058      331.509       -0.433      850.279
12/26/2021  19:18:00     -494.015       49.495      -49.757      298.470      161.227      128.985    89084.122    25994.069    16637.081       19.032        6.586      496.488      125.466        0.064      331.438       -0.550      850.383
12/26/2021  19:19:00     -474.502      122.764       -7.450      268.407      189.064      112.796    72042.555    35745.244    12722.887       18.037        6.026      490.125      122.552        0.063      331.414       -0.590      850.321
12/26/2021  19:20:00     -635.925      179.147       -0.962      359.413      249.230      126.000   129177.972    62115.652    15876.026       32.179       10.358      660.677      132.347        0.040      331.380       -0.645      850.276
12/26/2021  19:21:00     -238.058      -67.574        0.838      336.083      196.704      137.781   112951.760    38692.334    18983.670       11.590        8.531      247.462      118.865        0.231      331.367       -0.666      850.366
12/26/2021  19:22:00     -499.541       60.832      -17.405      375.378      229.082      158.800   140908.800    52478.497    25217.336       23.603       10.930      503.231      166.429        0.109      331.417       -0.585      850.348
12/26/2021  19:23:00     -331.446      -35.687      -26.673      328.252      201.732      169.973   107749.335    40695.963    28890.661       14.456        8.867      333.362      153.203        0.211      331.433       -0.558      850.344
12/26/2021  19:24:00     -457.854       69.641       -7.138      333.896      203.413      145.619   111486.309    41376.991    21204.788       19.427        8.703      463.120      138.908        0.090      331.422       -0.576      850.374
12/26/2021  19:25:00     -510.816       -2.510      -17.728      422.307      237.587      169.955   178343.423    56447.619    28884.804       26.242       13.184      510.822      192.055        0.141      331.388       -0.632      850.323
12/26/2021  19:26:00     -394.633       33.238       19.959      378.658      192.533      144.618   143382.159    37068.943    20914.250       17.927       10.068      396.031      162.562        0.168      331.364       -0.671      850.338
12/26/2021  19:27:00     -403.244       21.421      -13.098      270.260      209.859      142.152    73040.671    44040.878    20207.272       15.024        6.864      403.813      117.465        0.085      331.354       -0.689      850.346
12/26/2021  19:28:00     -628.314       11.253      -20.011      380.895      206.890      143.561   145080.733    42803.584    20609.836       30.186       10.425      628.415      158.608        0.064      331.366       -0.668      850.326
12/26/2021  19:29:00     -374.356       22.944      -27.514      382.537      227.319      139.858   146334.472    51673.836    19560.284       17.946       10.878      375.058      132.954        0.126      331.386       -0.635      850.306
12/26/2021  19:30:00     -775.026      -50.136      -17.199      395.320      259.148      180.962   156277.618    67157.808    32747.223       42.978       12.809      776.646      191.273        0.061      331.395       -0.620      850.276
12/26/2021  19:31:00     -428.416       72.621       -7.885      359.796      254.449      146.344   129452.939    64744.364    21416.426       20.221       10.781      434.527      147.625        0.115      331.382       -0.642      850.300
12/26/2021  19:32:00     -406.046       24.791      -47.992      314.146      225.131      139.565    98687.875    50683.917    19478.423       16.829        8.443      406.802      122.194        0.090      331.343       -0.705      850.325
12/26/2021  19:33:00     -503.366      167.937        7.690      349.753      227.324      132.178   122327.175    51676.155    17470.925       23.652        9.574      530.641      114.751        0.047      331.314       -0.754      850.381
12/26/2021  19:34:00     -475.336      175.606       10.131      242.687      217.338      122.480    58897.151    47236.011    15001.259       18.899        6.057      506.737      117.503        0.054      331.300       -0.778      850.367
12/26/2021  19:35:00     -335.015       11.877      -28.458      353.557      291.910      150.131   125002.208    85211.553    22539.236       17.293       11.638      335.226      146.058        0.190      331.321       -0.742      850.367
12/26/2021  19:36:00     -474.269      129.589      -14.552      255.469      208.643      108.830    65264.239    43532.068    11844.068       18.127        6.032      491.655       97.338        0.039      331.237       -0.881      850.384
12/26/2021  19:37:00     -663.745      126.468      -28.901      397.572      346.267      146.044   158063.656   119900.724    21328.720       37.828       14.965      675.686      124.853        0.034      331.375       -0.653      850.293
12/26/2021  19:38:00     -435.430        4.072      -26.037      309.393      238.342      146.749    95724.197    56806.695    21535.206       18.215        8.703      435.449      165.051        0.144      331.356       -0.685      850.354
12/26/2021  19:39:00     -462.725      117.296      -18.029      307.275      191.746      137.574    94418.051    36766.593    18926.491       18.913        7.506      477.360      114.250        0.057      331.284       -0.803      850.401
12/26/2021  19:40:00     -228.660      -14.953      -11.916      316.560      205.384      172.327   100210.050    42182.701    29696.706       11.234        8.604      229.149      138.744        0.367      331.259       -0.844      850.426
12/26/2021  19:41:00     -517.664       -1.254       -7.542      281.883      223.186      151.656    79457.932    49812.198    22999.593       21.012        7.613      517.666      153.916        0.088      331.301       -0.776      850.380
12/26/2021  19:42:00     -367.323       83.309       -8.659      262.918      183.583      111.004    69126.041    33702.884    12321.801       12.852        5.758      376.651      123.261        0.107      331.258       -0.845      850.410
12/26/2021  19:43:00     -432.289        0.216      -10.575      335.437      227.081      145.351   112518.045    51565.811    21126.780       18.606        9.261      432.289      145.311        0.113      331.404       -0.605      850.402
12/26/2021  19:44:00     -240.550       29.303      -21.034      311.650      215.718      134.583    97125.722    46534.270    18112.480       11.044        8.089      242.328      112.766        0.217      331.305       -0.768      850.462
12/26/2021  19:45:00     -626.517       35.213      -31.239      371.239      243.635      154.369   137818.725    59357.910    23829.854       30.783       11.050      627.506      137.712        0.048      331.274       -0.819      850.461
12/26/2021  19:46:00     -485.323      101.627       -0.569      286.961      227.522      130.238    82346.361    51766.244    16961.931       19.844        7.554      495.849      118.276        0.057      331.313       -0.755      850.502
12/26/2021  19:47:00     -288.189       22.140      -38.769      298.360      172.423      141.380    89018.646    29729.861    19988.270       11.187        6.937      289.038      137.505        0.226      331.293       -0.788      850.574
12/26/2021  19:48:00     -410.666        1.323      -41.192      288.037      137.266      105.548    82965.365    18841.862    11140.478       14.163        5.647      410.668      127.112        0.096      331.295       -0.785      850.622
12/26/2021  19:49:00     -217.387       30.945        3.696      285.972      211.103      133.713    81780.096    44564.422    17879.251        9.620        7.211      219.579      102.067        0.216      331.233       -0.886      850.656
12/26/2021  19:50:00     -298.813       78.976       -0.587      303.468      205.148      119.837    92093.000    42085.559    14360.933       12.201        7.427      309.074      104.565        0.114      331.204       -0.933      850.680
12/26/2021  19:51:00     -318.891       61.801       19.479      331.095      227.286      153.973   109623.719    51658.840    23707.813       14.541        9.250      324.825      155.653        0.230      331.170       -0.991      850.730
12/26/2021  19:52:00     -585.440      138.522      -38.073      412.315      275.263      140.854   170003.519    75769.656    19839.845       31.445       13.281      601.604      156.971        0.068      331.150       -1.025      850.728
12/26/2021  19:53:00     -322.986       94.048        0.461      249.710      179.960      136.010    62355.263    32385.538    18498.809       11.318        5.662      336.400      121.322        0.130      331.115       -1.082      850.716
12/26/2021  19:54:00     -466.592      144.765       -6.488      236.754      182.581      133.378    56052.294    33335.726    17789.794       17.292        5.359      488.534      125.680        0.066      331.068       -1.159      850.760
12/26/2021  19:55:00     -505.102      176.373       -5.603      257.000      199.903      117.685    66048.838    39961.057    13849.696       20.304        5.993      535.010      107.107        0.040      331.086       -1.128      850.773
12/26/2021  19:56:00     -346.391       65.639       13.353      356.066      251.337      149.287   126782.921    63170.165    22286.679       16.832       10.612      352.555      125.131        0.126      331.155       -1.015      850.816
12/26/2021  19:57:00     -499.004      133.646      -16.000      420.711      208.914      153.668   176997.619    43645.040    23613.893       25.564       12.213      516.591      161.459        0.098      331.228       -0.895      850.840
12/26/2021  19:58:00     -375.694      116.004        2.105      258.095      191.888      127.901    66613.059    36821.028    16358.767       13.718        5.990      393.196      122.842        0.098      331.226       -0.897      850.878
12/26/2021  19:59:00     -542.238      134.763      -33.388      299.289      183.592      121.132    89573.954    33706.183    14672.985       22.560        6.898      558.734      125.767        0.051      331.178       -0.978      850.864
12/26/2021  20:00:00     -418.237       88.301      -34.317      278.113      208.920      145.496    77346.577    43647.659    21169.194       16.300        7.108      427.457      129.833        0.092      331.130       -1.055      850.826
12/26/2021  20:01:00     -284.208       16.641      -12.327      315.023      199.036      130.745    99239.255    39615.497    17094.256       11.855        7.797      284.695      129.145        0.206      331.103       -1.099      850.826
12/26/2021  20:02:00     -575.836      156.827        1.481      326.300      252.194      128.367   106471.704    63601.815    16478.089       27.133        9.328      596.810       84.994        0.020      331.111       -1.087      850.822
12/26/2021  20:03:00     -323.677       96.222      -17.085      263.352      200.524      108.673    69354.211    40209.991    11809.859       11.782        6.069      337.677       92.396        0.075      331.088       -1.125      850.819
12/26/2021  20:04:00     -330.669      128.739      -15.727      189.850      160.930      103.688    36043.144    25898.505    10751.280        9.941        3.635      354.846       81.504        0.053      331.042       -1.203      850.833
12/26/2021  20:05:00     -392.071      120.824       -9.772      385.095      204.649      123.515   148298.257    41881.318    15256.041       18.689       10.272      410.266      151.892        0.137      331.026       -1.225      850.797
12/26/2021  20:06:00     -438.261      119.394      -22.766      210.220      162.776      113.041    44192.293    26496.080    12778.246       14.514        4.173      454.233      102.599        0.051      331.012       -1.251      850.754
12/26/2021  20:07:00     -431.930      174.060      -23.918      282.189      215.017      129.566    79630.538    46232.503    16787.336       18.002        7.133      465.683      116.081        0.062      331.007       -1.258      850.743
12/26/2021  20:08:00     -436.814       59.009      -14.577      311.765      222.296      125.924    97197.510    49415.388    15856.846       17.846        8.123      440.782      119.431        0.073      331.019       -1.239      850.744
12/26/2021  20:09:00     -527.936      113.656       12.857      341.230      201.052      119.250   116438.045    40422.089    14220.538       23.141        8.554      540.032      140.534        0.068      330.962       -1.332      850.710
12/26/2021  20:10:00     -290.927       34.424      -26.402      252.791      164.847      114.685    63903.116    27174.530    13152.657        9.536        5.212      292.957      109.191        0.139      330.954       -1.345      850.640
12/26/2021  20:11:00     -298.681       97.345      -19.206      267.689      224.487      127.063    71657.452    50394.201    16144.932       11.860        6.910      314.144      135.136        0.185      330.938       -1.372      850.649
12/26/2021  20:12:00     -355.071       90.216      -32.643      258.077      176.418      122.053    66603.956    31123.318    14896.880       12.393        5.631      366.353      117.155        0.102      330.932       -1.381      850.603
12/26/2021  20:13:00     -249.906        4.638       -3.817      293.272      197.567      130.004    86008.592    39032.715    16901.000       10.219        7.097      249.949      118.472        0.225      330.950       -1.351      850.647
12/26/2021  20:14:00     -470.084      103.938      -13.464      341.661      231.177      130.745   116732.052    53442.890    17094.371       20.958        9.363      481.437       91.577        0.036      331.004       -1.264      850.645
12/26/2021  20:15:00     -351.386       19.966      -27.115      301.016      216.317      102.141    90610.494    46793.124    10432.876       13.619        7.392      351.953      132.485        0.142      331.005       -1.262      850.732
12/26/2021  20:16:00     -581.790       13.782      -43.901      304.998      201.397      130.932    93024.065    40560.807    17143.185       24.563        7.536      581.953      102.644        0.031      330.979       -1.304      850.765
12/26/2021  20:17:00     -377.964      157.811      -10.473      262.141      191.459      122.956    68718.164    36656.436    15118.297       14.416        6.025      409.587      130.824        0.102      330.938       -1.370      850.803
12/26/2021  20:18:00     -413.283       71.007      -14.243      475.656      221.738      175.797   226248.358    49167.723    30904.484       24.113       15.316      419.339      195.216        0.217      330.936       -1.375      850.772
12/26/2021  20:19:00     -522.919       37.679      -18.566      367.696      214.324      159.847   135200.231    45934.864    25551.030       24.091       10.334      524.274      187.089        0.127      330.918       -1.405      850.692
12/26/2021  20:20:00     -620.410       98.292      -25.243      268.817      209.087      115.389    72262.812    43717.441    13314.610       26.223        6.465      628.148      116.570        0.034      330.907       -1.422      850.696
12/26/2021  20:21:00     -402.998      113.759       -1.853      324.298      203.303      128.703   105169.252    41331.983    16564.433       16.918        8.153      418.746      115.724        0.076      330.921       -1.400      850.687
12/26/2021  20:22:00     -340.579      136.164        9.831      301.500      194.988      132.514    90902.398    38020.156    17560.055       14.053        7.324      366.790      148.969        0.165      330.912       -1.415      850.709
12/26/2021  20:23:00     -637.144       80.575      -28.549      304.644      199.105      139.593    92807.944    39642.757    19486.129       28.257        7.597      642.218      159.887        0.062      330.911       -1.415      850.716
12/26/2021  20:24:00     -483.123      107.230       -6.533      342.404      243.923      163.179   117240.658    59498.642    26627.468       22.412       10.168      494.880      171.302        0.120      330.925       -1.393      850.690
12/26/2021  20:25:00     -252.968        1.903       -8.450      279.157      173.209      132.855    77928.617    30001.378    17650.405        9.480        6.279      252.975      139.407        0.304      330.962       -1.332      850.683
12/26/2021  20:26:00     -265.610       41.650      -18.974      257.163      178.956      118.260    66132.932    32025.244    13985.349        9.237        5.607      268.855       95.541        0.126      330.977       -1.308      850.698
12/26/2021  20:27:00     -688.267       34.531      -51.292      300.926      172.935      130.028    90556.420    29906.673    16907.362       30.743        6.869      689.133      145.764        0.045      330.981       -1.302      850.654
12/26/2021  20:28:00     -275.885       74.841       -7.245      381.074      231.179      173.786   145217.063    53443.778    30201.483       15.527       11.443      285.856      141.007        0.243      331.019       -1.240      850.649
12/26/2021  20:29:00     -371.637      104.877        4.565      247.153      150.646      115.150    61084.381    22694.297    13259.606       12.307        4.852      386.152      114.851        0.088      331.003       -1.266      850.635
12/26/2021  20:30:00     -483.099       -9.337      -51.173      224.679      214.487      112.555    50480.737    46004.826    12668.707       17.260        5.458      483.190       99.354        0.042      331.033       -1.215      850.604
12/26/2021  20:31:00     -404.565       96.449      -16.390      288.085      226.057      160.411    82993.197    51101.733    25731.782       16.651        7.991      415.903      151.187        0.132      331.008       -1.258      850.584
12/26/2021  20:32:00     -702.451      166.060        0.074      442.748      257.390      150.495   196025.630    66249.511    22648.668       40.292       14.246      721.812      168.337        0.054      330.969       -1.322      850.546
12/26/2021  20:33:00     -401.253       51.745      -25.161      360.789      241.720      159.078   130169.058    58428.774    25305.721       18.907       10.695      404.576      167.480        0.171      331.005       -1.261      850.529
12/26/2021  20:34:00     -350.374       59.583      -13.638      297.836      188.743      105.778    88706.230    35623.951    11189.083       13.098        6.776      355.405      104.393        0.086      330.998       -1.274      850.553
12/26/2021  20:35:00     -409.191       46.562       -3.799      357.397      249.046      151.416   127732.335    62024.070    22926.893       19.111       10.634      411.832      135.747        0.109      331.003       -1.265      850.537
12/26/2021  20:36:00     -480.666       90.577        1.050      350.689      210.456      136.261   122982.439    44291.827    18567.185       21.251        9.292      489.126      120.453        0.061      331.038       -1.208      850.523
12/26/2021  20:37:00     -523.740      119.848      -11.013      371.387      225.665      160.297   137928.602    50924.509    25695.204       25.163       10.727      537.277      162.761        0.092      330.990       -1.287      850.554
12/26/2021  20:38:00     -516.474      141.065      -11.609      417.741      263.327      139.213   174507.722    69341.230    19380.378       27.496       13.161      535.392      137.769        0.066      330.983       -1.297      850.564
12/26/2021  20:39:00     -673.648      135.178       -2.241      390.033      300.322      178.640   152125.888    90193.396    31912.333       37.311       13.712      687.077      191.491        0.078      331.019       -1.240      850.512
12/26/2021  20:40:00     -220.623       26.318        3.363      296.713      217.613      134.644    88038.495    47355.530    18129.113       10.142        7.676      222.187      119.952        0.291      331.059       -1.172      850.502
12/26/2021  20:41:00     -595.961      -15.878      -19.789      393.260      243.024      175.756   154653.168    59060.678    30890.339       30.016       12.230      596.172      181.525        0.093      331.023       -1.233      850.491
12/26/2021  20:42:00     -748.375       -9.403      -49.896      515.009      271.262      210.399   265233.996    73582.977    44267.816       47.279       19.154      748.434      237.342        0.101      331.119       -1.075      850.448
12/26/2021  20:43:00     -574.211      -27.493      -82.344      376.189      276.489      154.525   141518.026    76446.386    23878.107       28.950       12.092      574.869      155.248        0.073      331.118       -1.076      850.461
12/26/2021  20:44:00     -294.768      -22.379       10.383      343.591      215.843      174.717   118054.690    46588.171    30525.959       14.130        9.758      295.617      171.396        0.336      331.102       -1.103      850.443
12/26/2021  20:45:00     -633.207      -52.154      -17.511      479.312      231.610      184.809   229739.850    53643.395    34154.217       36.070       15.877      635.351      213.616        0.113      331.086       -1.128      850.457
12/26/2021  20:46:00     -505.091       -6.683      -10.981      467.481      249.714      211.290   218538.328    62356.857    44643.393       29.035       16.277      505.136      233.781        0.214      331.145       -1.032      850.459
12/26/2021  20:47:00     -621.373       65.158      -35.436      349.295      289.398      153.289   122007.307    83751.063    23497.657       31.039       11.463      624.780      164.425        0.069      331.158       -1.011      850.518
12/26/2021  20:48:00     -616.369       45.206      -37.103      518.653      285.313      192.334   269000.537    81403.545    36992.498       38.529       19.370      618.025      212.380        0.118      331.134       -1.051      850.448
12/26/2021  20:49:00     -650.928      -67.656      -27.724      477.880      301.983      206.369   228368.999    91193.597    42588.170       39.554       18.108      654.435      214.193        0.107      331.190       -0.959      850.474
12/26/2021  20:50:00     -805.202       81.766      -54.638      526.749      266.954      172.970   277464.491    71264.316    29918.790       51.826       18.932      809.343      143.300        0.031      331.130       -1.057      850.505
12/26/2021  20:51:00     -745.566       31.519      -25.431      454.991      247.498      172.117   207016.528    61255.390    29624.308       42.765       14.895      746.232      201.399        0.073      331.113       -1.084      850.548
12/26/2021  20:52:00     -951.617       10.040      -37.486      513.000      325.587      201.007   263169.379   106006.637    40403.937       65.825       20.479      951.670      217.830        0.052      331.102       -1.102      850.587
12/26/2021  20:53:00     -578.148      -75.249      -13.941      404.819      256.547      183.849   163878.194    65816.418    33800.512       30.175       13.175      583.024      206.175        0.125      331.137       -1.045      850.612
12/26/2021  20:54:00     -439.108      -42.554      -26.264      345.574      250.545      178.471   119421.365    62772.907    31851.981       20.464       10.702      441.165      166.175        0.142      331.146       -1.030      850.702
12/26/2021  20:55:00     -480.989      -82.441      -55.970      323.453      266.739      156.645   104621.641    71149.788    24537.747       22.076       10.015      488.003      120.699        0.061      331.177       -0.981      850.695
12/26/2021  20:56:00     -378.765       72.075        7.460      409.299      311.922      172.878   167525.337    97295.334    29886.843       22.166       14.735      385.561      139.317        0.131      331.220       -0.909      850.692
12/26/2021  20:57:00     -998.701       13.802      -55.670      485.003      328.031      194.015   235227.857   107604.371    37641.852       69.051       19.024      998.797      224.613        0.051      331.298       -0.781      850.683
12/26/2021  20:58:00     -490.693      -10.683      -24.727      354.253      257.426      198.274   125495.367    66267.895    39312.439       23.625       11.554      490.809      182.236        0.138      331.308       -0.765      850.706
12/26/2021  20:59:00     -411.101       21.339        9.302      336.844      236.196      161.270   113463.995    55788.613    26008.135       18.237        9.763      411.654      175.656        0.182      331.280       -0.811      850.727
12/26/2021  21:00:00     -579.986       73.361      -54.909      420.346      269.944      154.993   176690.702    72869.957    24022.803       30.913       13.679      584.607      156.640        0.072      331.246       -0.865      850.672
12/26/2021  21:01:00     -855.405      -20.542      -64.270      395.200      277.281      164.344   156183.178    76884.637    27008.978       49.813       13.004      855.652      180.929        0.045      331.267       -0.831      850.652
12/26/2021  21:02:00     -515.427      101.371      -24.732      406.671      248.183      164.184   165381.159    61594.912    26956.248       26.520       12.697      525.301      143.855        0.075      331.300       -0.777      850.689
12/26/2021  21:03:00     -543.214       59.454        7.757      479.878      229.654      155.232   230283.343    52740.937    24096.927       30.284       15.356      546.458      168.393        0.095      331.292       -0.790      850.741
12/26/2021  21:04:00     -602.067       17.235      -22.810      327.757      233.112      163.942   107424.790    54341.276    26876.955       27.594        9.432      602.314      174.548        0.084      331.251       -0.856      850.755
12/26/2021  21:05:00     -376.183      -41.139      -19.769      416.892      210.823      180.500   173798.529    44446.411    32580.101       19.716       12.541      378.426      183.756        0.236      331.253       -0.853      850.815
12/26/2021  21:06:00     -604.778       93.100      -30.454      408.052      203.032      149.718   166506.737    41222.128    22415.583       30.271       11.507      611.902      168.573        0.076      331.212       -0.921      850.871
12/26/2021  21:07:00     -407.602       67.971      -15.366      425.645      229.717      148.048   181173.343    52770.030    21918.228       21.338       12.793      413.230      162.250        0.154      331.232       -0.888      850.905
12/26/2021  21:08:00     -253.106        6.634       -9.659      262.158      213.530      141.126    68726.812    45595.106    19916.542        9.919        6.712      253.193      112.704        0.198      331.276       -0.815      850.872
12/26/2021  21:09:00     -315.289       29.200      -29.034      283.889      172.086      118.295    80593.181    29613.419    13993.805       11.263        6.210      316.638       92.202        0.085      331.279       -0.811      850.850
12/26/2021  21:10:00     -456.983       37.615      -22.527      342.787      214.105      132.019   117502.702    45840.943    17428.948       19.573        9.039      458.529      144.039        0.099      331.288       -0.796      850.843
12/26/2021  21:11:00     -478.658       86.089       -1.744      349.504      235.502      146.993   122153.379    55461.276    21607.065       21.784        9.961      486.338      163.107        0.112      331.312       -0.757      850.817
12/26/2021  21:12:00     -351.603       84.587        1.900      312.814      222.104      132.406    97852.513    49330.003    17531.348       14.772        8.236      361.634      128.646        0.127      331.327       -0.734      850.855
12/26/2021  21:13:00     -582.787      146.047        2.191      397.724      215.059      161.724   158184.181    46250.243    26154.798       29.574       11.529      600.808      187.098        0.097      331.340       -0.711      850.881
12/26/2021  21:14:00     -538.133      137.462      -18.205      433.088      274.438      194.261   187565.290    75316.274    37737.158       30.466       15.031      555.413      183.427        0.109      331.414       -0.590      850.822
12/26/2021  21:15:00     -494.661       33.301      -45.568      457.639      237.241      160.095   209433.497    56283.170    25630.385       26.956       14.567      495.780      134.209        0.073      331.472       -0.494      850.811
12/26/2021  21:16:00     -314.570       19.088       -4.525      310.437      166.513      153.524    96371.257    27726.563    23569.632       12.348        7.383      315.148      154.623        0.241      331.474       -0.491      850.860
12/26/2021  21:17:00     -850.870      106.453      -46.754      433.226      287.710      153.611   187685.100    82776.917    23596.458       51.572       14.703      857.503      143.544        0.028      331.461       -0.512      850.787
12/26/2021  21:18:00     -574.080       44.410      -13.751      405.432      255.457      148.432   164374.821    65258.047    22032.192       29.165       12.583      575.795      178.431        0.096      331.494       -0.458      850.837
12/26/2021  21:19:00     -371.138       53.128      -24.413      371.283      254.957      146.325   137851.143    65003.075    21410.882       18.267       11.213      374.921      118.659        0.100      331.499       -0.450      850.816
12/26/2021  21:20:00     -449.477       84.626       15.015      364.156      250.974      168.030   132609.812    62987.796    28234.240       21.658       11.192      457.374      162.508        0.126      331.496       -0.456      850.767
12/26/2021  21:21:00     -699.191      -30.830      -41.840      442.130      247.354      172.688   195479.288    61184.240    29820.994       38.897       14.324      699.871      183.454        0.069      331.478       -0.484      850.724
12/26/2021  21:22:00     -526.623      -16.996       -4.932      438.422      233.295      161.466   192213.779    54426.445    26071.399       27.513       13.636      526.897      172.108        0.107      331.452       -0.527      850.725
12/26/2021  21:23:00     -690.991      -14.513      -27.580      429.293      308.151      165.832   184292.602    94956.792    27500.278       39.254       15.337      691.143      177.333        0.066      331.449       -0.533      850.703
12/26/2021  21:24:00     -462.780      -17.765      -14.328      359.041      205.423      162.456   128910.530    42198.725    26391.804       20.606        9.875      463.121      155.717        0.113      331.439       -0.550      850.749
12/26/2021  21:25:00     -517.561       49.593      -18.923      495.098      226.464      166.719   245122.226    51285.771    27795.315       29.739       16.210      519.932      180.064        0.120      331.409       -0.596      850.725
12/26/2021  21:26:00     -575.497       17.700      -25.163      386.136      298.117      175.859   149101.131    88873.642    30926.311       30.047       13.445      575.769      151.309        0.069      331.353       -0.690      850.726
12/26/2021  21:27:00     -607.308      129.321      -29.774      373.924      246.831      143.777   139819.059    60925.612    20671.734       30.388       11.071      620.925      156.883        0.064      331.314       -0.754      850.711
12/26/2021  21:28:00     -347.198       34.851        3.168      321.974      262.767      146.153   103667.449    69046.457    21360.592       15.789        9.704      348.943      143.775        0.170      331.328       -0.731      850.668
12/26/2021  21:29:00     -254.015      130.344       11.500      328.648      190.764      148.647   108009.474    36390.815    22095.981       12.404        8.325      285.505      104.571        0.134      331.317       -0.749      850.707
12/26/2021  21:30:00     -560.581       54.803       -6.023      387.967      270.550      163.176   150518.480    73197.211    26626.410       28.377       12.517      563.253      175.239        0.097      331.334       -0.721      850.708
12/26/2021  21:31:00     -402.645       26.628      -19.528      373.256      219.932      154.750   139320.155    48370.138    23947.496       18.739       10.582      403.524      140.425        0.121      331.381       -0.643      850.707
12/26/2021  21:32:00     -389.130       -1.751      -10.541      408.134      253.025      166.191   166573.686    64021.835    27619.345       20.483       12.911      389.134      178.696        0.211      331.398       -0.615      850.735
12/26/2021  21:33:00     -390.772      -53.047      -12.938      350.724      188.345      145.928   123007.175    35473.812    21294.971       16.770        8.989      394.356      172.529        0.191      331.397       -0.618      850.774
12/26/2021  21:34:00     -407.568       15.537      -19.208      310.875      211.220      157.798    96643.435    44613.682    24900.233       16.641        8.308      407.864      145.603        0.127      331.410       -0.596      850.750
12/26/2021  21:35:00     -520.907       32.161      -16.144      424.942      270.128      152.873   180575.635    72969.240    23370.019       27.473       13.846      521.899      174.328        0.112      331.428       -0.566      850.724
12/26/2021  21:36:00     -355.853       50.404      -19.889      320.528      175.513      130.996   102738.331    30804.842    17159.880       14.011        7.535      359.405      119.647        0.111      331.416       -0.586      850.755
12/26/2021  21:37:00     -124.610       33.244        3.141      331.601      217.367      150.537   109959.076    47248.572    22661.446        9.822        8.993      128.969      176.212        1.867      331.398       -0.615      850.770
12/26/2021  21:38:00     -482.557       78.019      -17.058      375.068      214.888      143.762   140676.033    46176.809    20667.604       22.334       10.376      488.823      150.174        0.094      331.330       -0.727      850.775
12/26/2021  21:39:00     -410.849      161.227       17.833      295.106      188.602      121.944    87087.479    35570.750    14870.429       16.629        6.876      441.351      119.591        0.073      331.299       -0.778      850.768
12/26/2021  21:40:00     -795.465       75.101      -62.619      356.231      225.320      164.366   126900.784    50769.036    27016.075       42.347       10.234      799.002      173.445        0.047      331.372       -0.658      850.758
12/26/2021  21:41:00     -689.780      101.276      -51.004      281.386      244.464      134.452    79178.171    59762.514    18077.323       32.281        7.851      697.176      128.633        0.034      331.343       -0.707      850.732
12/26/2021  21:42:00     -429.048       87.548      -44.049      401.791      245.534      153.830   161435.670    60286.858    23663.737       21.949       12.269      437.889      135.408        0.096      331.353       -0.689      850.738
12/26/2021  21:43:00     -486.990      155.996        6.298      389.969      239.011      152.832   152076.049    57126.229    23357.559       24.700       11.628      511.365      153.330        0.090      331.383       -0.641      850.798
12/26/2021  21:44:00     -408.326       20.161      -13.158      415.850      261.856      158.808   172931.418    68568.715    25220.080       21.697       13.336      408.824      184.690        0.204      331.387       -0.633      850.852
12/26/2021  21:45:00     -521.870       98.187      -12.897      353.955      240.899      145.511   125284.107    58032.250    21173.411       24.328       10.224      531.026      170.542        0.103      331.367       -0.667      850.841
12/26/2021  21:46:00     -398.912      131.736      -22.368      332.865      246.745      136.780   110799.104    60883.066    18708.678       18.365        9.520      420.102      128.684        0.094      331.396       -0.619      850.891
12/26/2021  21:47:00     -621.328       57.266      -14.749      368.061      244.729      167.418   135468.685    59892.092    28028.622       30.643       11.169      623.962      195.974        0.099      331.423       -0.575      850.883
12/26/2021  21:48:00     -453.722        7.135      -13.288      317.988      219.200      181.431   101116.187    48048.802    32917.194       19.405        9.104      453.779      165.541        0.133      331.444       -0.542      850.874
12/26/2021  21:49:00     -575.131       73.835       -3.297      331.626      219.041      121.695   109975.814    47978.924    14809.686       25.447        8.638      579.851      137.999        0.057      331.471       -0.497      850.859
12/26/2021  21:50:00     -460.966       78.022      -26.608      362.905      247.973      154.017   131700.282    61490.414    23721.195       21.806       10.846      467.522      157.929        0.114      331.461       -0.512      850.919
12/26/2021  21:51:00     -642.989       17.730       -4.423      438.365      255.751      170.268   192163.738    65408.487    28991.324       35.011       14.328      643.233      203.676        0.100      331.469       -0.499      850.935
12/26/2021  21:52:00     -620.719       42.186      -28.463      315.731      188.160      143.326    99686.138    35404.193    20542.325       27.173        7.782      622.151      150.803        0.059      331.464       -0.507      850.847
12/26/2021  21:53:00     -530.913      115.227      -32.011      258.606      170.668      111.318    66877.257    29127.487    12391.740       20.226        5.420      543.273      108.041        0.040      331.402       -0.609      850.915
12/26/2021  21:54:00     -449.076       52.885      -25.224      359.384      241.437      164.219   129157.122    58291.877    26967.832       20.972       10.721      452.179      156.617        0.120      331.425       -0.572      850.901
12/26/2021  21:55:00     -507.082      -22.528      -36.399      296.746      209.423      143.204    88057.941    43857.786    20507.412       20.567        7.621      507.582      127.009        0.063      331.461       -0.513      850.899
12/26/2021  21:56:00     -649.468      127.677      -16.400      440.887      241.430      139.193   194381.708    58288.239    19374.783       35.516       13.602      661.898      147.004        0.049      331.493       -0.459      850.889
12/26/2021  21:57:00     -433.185       -8.208      -18.599      387.586      248.062      175.388   150222.932    61534.990    30761.105       21.525       12.126      433.263      178.103        0.169      331.480       -0.482      850.938
12/26/2021  21:58:00     -282.658       -2.611      -38.115      387.802      219.647      157.785   150390.670    48244.913    24896.184       15.240       11.177      282.670      156.142        0.305      331.453       -0.526      850.973
12/26/2021  21:59:00     -379.006       68.515       -5.598      464.557      226.968      182.585   215813.530    51514.658    33337.181       22.446       15.033      385.149      202.338        0.276      331.419       -0.582      850.994
12/26/2021  22:00:00     -705.719      159.760       -6.482      429.545      293.539      164.523   184508.946    86165.054    27067.815       41.062       14.887      723.577      171.464        0.056      331.354       -0.689      851.066
12/26/2021  22:01:00     -390.819      124.181      -28.683      418.340      271.373      175.744   175008.253    73643.414    30886.004       22.421       13.977      410.074      160.590        0.153      331.339       -0.713      851.047
12/26/2021  22:02:00     -569.965      167.451      -21.244      460.661      293.312      169.954   212208.293    86031.991    28884.498       34.018       16.356      594.054      157.468        0.070      331.314       -0.755      851.043
12/26/2021  22:03:00     -342.569       91.159      -12.382      276.363      174.658      123.648    76376.337    30505.312    15288.749       12.397        6.109      354.491      113.132        0.102      331.321       -0.743      851.031
12/26/2021  22:04:00     -475.159      134.267       -8.244      282.565      213.559      132.588    79843.019    45607.579    17579.557       19.342        7.152      493.765      131.377        0.071      331.322       -0.741      851.121
12/26/2021  22:05:00     -516.149       60.221      -13.213      339.284      224.927      143.969   115113.704    50592.279    20727.196       22.829        9.322      519.650      151.586        0.085      331.322       -0.740      851.118
12/26/2021  22:06:00     -419.400       26.251      -12.469      280.308      211.698      135.939    78572.455    44816.055    18479.500       15.928        7.093      420.220      129.672        0.095      331.316       -0.750      851.073
12/26/2021  22:07:00     -413.757      103.064      -30.097      343.991      183.083      145.558   118329.726    33519.488    21187.062       17.785        8.652      426.400      150.779        0.125      331.334       -0.720      851.057
12/26/2021  22:08:00     -353.272       25.215      -30.156      306.805      185.799      103.811    94129.549    34521.128    10776.761       13.286        6.971      354.171       90.496        0.065      331.355       -0.686      851.054
12/26/2021  22:09:00     -399.935      121.102       -1.371      283.777      217.987      151.971    80529.220    47518.448    23095.142       16.285        7.557      417.868      137.091        0.108      331.365       -0.669      851.124
12/26/2021  22:10:00     -424.545        4.997      -25.842      340.807      250.003      162.001   116149.431    62501.297    26244.390       19.288       10.245      424.574      159.676        0.141      331.464       -0.509      851.109
12/26/2021  22:11:00     -373.813      119.540      -20.714      274.819      177.006      136.397    75525.268    31331.160    18604.038       13.993        6.273      392.462       68.467        0.030      331.408       -0.600      851.127
12/26/2021  22:12:00     -443.820       87.460      -22.960      308.398      182.212      133.417    95109.216    33201.216    17800.017       17.560        7.306      452.355      145.310        0.103      331.392       -0.625      851.090
12/26/2021  22:13:00     -372.356        6.891       -9.513      435.255      200.142      157.252   189446.939    40056.887    24728.162       19.646       12.712      372.420      161.570        0.188      331.403       -0.607      851.111
12/26/2021  22:14:00     -455.311      104.727       10.509      353.295      188.779      120.996   124817.465    35637.683    14640.053       19.671        8.755      467.200      130.000        0.077      331.388       -0.632      851.124
12/26/2021  22:15:00     -358.127       95.384      -17.680      253.395      236.345      146.525    64209.006    55859.128    21469.713       13.958        7.077      370.612      125.867        0.115      331.355       -0.685      851.133
12/26/2021  22:16:00     -692.846      179.901      -31.619      333.874      232.830      129.021   111471.817    54209.888    16646.428       34.783        9.116      715.821      133.356        0.035      331.389       -0.629      851.091
12/26/2021  22:17:00     -494.884       55.983       -0.285      349.730      260.166      140.712   122311.007    67686.588    19799.985       22.888       10.490      498.040      153.453        0.095      331.444       -0.541      851.137
12/26/2021  22:18:00     -565.255       88.900       -3.600      379.146      261.025      166.384   143751.641    68134.255    27683.555       28.346       11.978      572.203      174.031        0.093      331.407       -0.600      851.135
12/26/2021  22:19:00     -370.486       19.784      -34.278      235.778      179.886      103.993    55591.075    32359.150    10814.642       11.878        4.938      371.014       95.762        0.067      331.457       -0.519      851.195
12/26/2021  22:20:00     -358.930       23.362        1.510      447.852      246.184      148.696   200571.378    60606.617    22110.431       20.628       14.164      359.689      158.667        0.195      331.440       -0.547      851.180
12/26/2021  22:21:00     -593.036      173.376      -39.441      311.901      245.980      149.044    97282.375    60506.285    22214.221       28.162        9.000      617.860      125.334        0.041      331.418       -0.583      851.159
12/26/2021  22:22:00     -488.433      125.701       -4.624      313.094      252.111      154.216    98027.559    63559.884    23782.551       21.985        9.268      504.349      146.268        0.084      331.379       -0.647      851.130
12/26/2021  22:23:00     -431.235       32.714      -15.641      406.641      217.718      126.217   165357.077    47400.912    15930.610       20.794       11.434      432.474      142.145        0.108      331.416       -0.585      851.133
12/26/2021  22:24:00     -430.938      107.475      -25.682      332.385      255.368      145.432   110480.003    65212.865    21150.515       19.734        9.842      444.137      123.582        0.077      331.404       -0.606      851.189
12/26/2021  22:25:00     -575.963      -20.141      -36.746      356.733      209.664      130.784   127258.338    43958.890    17104.396       26.087        9.416      576.315      139.967        0.059      331.378       -0.649      851.251
12/26/2021  22:26:00     -340.402      112.327      -24.408      240.797      164.503       99.722    57983.117    27061.224     9944.439       11.202        4.749      358.456       93.172        0.068      331.330       -0.729      851.203
12/26/2021  22:27:00     -513.189       10.298      -30.710      390.853      192.286      154.950   152766.418    36973.815    24009.398       23.904       10.687      513.292      185.542        0.131      331.360       -0.678      851.211
12/26/2021  22:28:00     -472.446      169.416      -24.729      315.235      241.046      133.342    99373.056    58103.202    17780.137       21.385        8.763      501.903      138.173        0.076      331.358       -0.679      851.214
12/26/2021  22:29:00     -438.121       54.787       -7.807      327.712      155.685      110.446   107395.308    24237.848    12198.341       16.940        7.192      441.533      124.821        0.080      331.380       -0.645      851.281
12/26/2021  22:30:00     -355.333        6.195      -18.015      329.208      221.273      166.526   108377.974    48961.588    27730.921       15.581        9.254      355.387      162.908        0.210      331.412       -0.593      851.260
12/26/2021  22:31:00     -570.726       99.310       -0.162      322.940      235.122      143.161   104290.263    55282.240    20495.196       25.780        9.003      579.302      147.100        0.064      331.436       -0.554      851.229
12/26/2021  22:32:00     -313.731       68.609       -9.122      274.368      173.640      129.764    75277.656    30150.736    16838.767       11.272        6.113      321.145      121.368        0.143      331.405       -0.603      851.258
12/26/2021  22:33:00     -500.587       34.099      -10.231      290.102      192.256      114.122    84158.894    36962.186    13023.717       19.297        6.707      501.747      143.026        0.081      331.384       -0.637      851.234
12/26/2021  22:34:00     -368.256      -30.292        7.007      279.879      162.246      140.602    78332.250    26323.681    19768.815       13.048        6.221      369.499      137.212        0.138      331.352       -0.692      851.242
12/26/2021  22:35:00     -370.175        1.184       -9.827      243.020      157.782      122.093    59058.875    24895.104    14906.717       11.798        4.943      370.177      122.853        0.110      331.394       -0.621      851.293
12/26/2021  22:36:00     -411.302      -13.943      -25.077      261.271      167.565      116.824    68262.422    28078.169    13647.910       13.997        5.499      411.538      129.117        0.098      331.456       -0.520      851.356
12/26/2021  22:37:00     -339.176       62.052      -31.951      230.208      229.855      142.023    52995.778    52833.495    20170.428       12.293        6.300      344.806      104.480        0.092      331.447       -0.536      851.355
12/26/2021  22:38:00     -464.057       62.595      -38.400      331.380      197.097      129.279   109812.669    38847.373    16713.084       19.303        8.269      468.259      111.153        0.056      331.440       -0.548      851.379
12/26/2021  22:39:00     -531.368      106.948      -20.290      303.997      239.795      139.062    92414.064    57501.838    19338.369       23.170        8.463      542.024      126.793        0.055      331.416       -0.588      851.387
12/26/2021  22:40:00     -558.474      -19.352      -41.871      287.946      178.894      116.003    82912.848    32003.009    13456.671       22.117        6.419      558.810      112.460        0.041      331.414       -0.590      851.352
12/26/2021  22:41:00     -369.220        1.017      -38.835      280.947      182.834      111.702    78931.145    33428.163    12477.318       13.131        6.242      369.222      112.344        0.093      331.439       -0.549      851.365
12/26/2021  22:42:00     -369.310       62.815       -6.681      287.795      206.211      118.246    82826.126    42522.810    13982.023       13.983        6.967      374.614      130.395        0.121      331.454       -0.526      851.408
12/26/2021  22:43:00     -326.743       69.639       -1.023      286.511      189.656      110.222    82088.584    35969.518    12148.936       12.089        6.510      334.081      125.418        0.141      331.446       -0.537      851.455
12/26/2021  22:44:00     -490.439      109.590        2.182      335.888      204.217      130.709   112820.897    41704.603    17084.843       21.205        8.581      502.534      121.576        0.059      331.418       -0.584      851.416
12/26/2021  22:45:00     -532.057      149.962      -18.073      290.554      241.892      123.616    84421.810    58511.763    15280.971       23.203        7.911      552.787      101.867        0.034      331.381       -0.642      851.475
12/26/2021  22:46:00     -537.704      140.422      -19.654      239.906      200.509       93.906    57555.046    40203.701     8818.380       20.788        5.329      555.737       78.803        0.020      331.369       -0.664      851.515
12/26/2021  22:47:00     -369.839      166.936      -10.109      227.220      187.942      102.843    51629.002    35322.010    10576.626       13.112        4.876      405.769      103.297        0.065      331.312       -0.758      851.561
12/26/2021  22:48:00     -600.205      130.625      -14.772      301.014      215.122      115.128    90609.329    46277.447    13254.344       26.381        7.507      614.255      129.425        0.044      331.377       -0.650      851.525
12/26/2021  22:49:00     -432.613       48.464       -8.830      294.705      207.483      114.798    86851.015    43049.344    13178.514       16.630        7.154      435.319       89.908        0.043      331.369       -0.663      851.615
12/26/2021  22:50:00     -247.659       59.572        0.232      186.898      122.517       95.378    34931.014    15010.381     9097.053        6.195        2.952      254.723       84.475        0.110      331.349       -0.695      851.643
12/26/2021  22:51:00     -231.169      160.583        0.855      272.681      145.130       90.263    74354.849    21062.678     8147.373        9.138        5.178      281.471       75.509        0.072      331.306       -0.766      851.639
12/26/2021  22:52:00     -533.438      158.682      -36.411      335.102      223.924      125.183   112293.441    50142.076    15670.701       24.455        8.905      556.539      144.774        0.068      331.277       -0.814      851.598
12/26/2021  22:53:00     -415.318       43.556      -26.265      247.416      206.171      118.898    61214.743    42506.607    14136.630       14.645        5.893      417.596       81.471        0.038      331.283       -0.805      851.674
12/26/2021  22:54:00     -362.018      101.323      -15.468      232.992      163.855       99.371    54285.219    26848.302     9874.512       11.627        4.550      375.931       96.590        0.066      331.222       -0.905      851.633
12/26/2021  22:55:00     -472.033       87.453       -2.142      236.014      181.787      105.356    55702.651    33046.624    11099.794       16.514        4.992      480.066       79.830        0.028      331.170       -0.992      851.606
12/26/2021  22:56:00     -442.090      149.133        1.221      217.881      139.949       98.434    47471.927    19585.757     9689.312       14.720        3.837      466.566       86.202        0.034      331.143       -1.036      851.622
12/26/2021  22:57:00     -352.348      116.529       -0.442      169.701      126.032       80.158    28798.328    15884.009     6425.284        9.441        2.555      371.118       84.650        0.052      331.106       -1.095      851.653
12/26/2021  22:58:00     -440.949      114.736        3.714      238.393      157.286      111.835    56831.366    24738.985    12507.046       15.083        4.704      455.632       99.940        0.048      331.094       -1.115      851.660
12/26/2021  22:59:00     -513.015       43.112      -24.508      251.437      174.567      121.502    63220.509    30473.562    14762.763       18.703        5.423      514.823      127.084        0.061      331.119       -1.075      851.686
12/26/2021  23:00:00     -226.262       49.494        3.134      277.977      143.389      121.059    77271.147    20560.292    14655.185        8.305        5.624      231.612      129.370        0.312      331.112       -1.084      851.639
12/26/2021  23:01:00     -612.042      138.453      -12.209      268.722      182.558      113.093    72211.269    33327.302    12790.042       25.610        5.916      627.507      104.248        0.028      331.098       -1.107      851.674
12/26/2021  23:02:00     -611.305      128.131      -23.513      299.410      208.083      124.408    89646.313    43298.523    15477.340       26.952        7.421      624.589      124.692        0.040      331.048       -1.191      851.645
12/26/2021  23:03:00     -547.158      133.473       -7.134      318.481      234.196      112.042   101429.873    54847.783    12553.387       24.301        8.442      563.203      113.541        0.041      330.991       -1.284      851.640
12/26/2021  23:04:00     -562.956      139.339       -7.749      271.679      170.618      139.953    73809.660    29110.565    19586.711       22.943        6.125      579.943      118.234        0.042      330.987       -1.290      851.600
12/26/2021  23:05:00     -419.843       98.219        1.224      273.301      179.198      113.786    74693.353    32111.939    12947.170       15.281        5.988      431.178      128.176        0.088      330.975       -1.311      851.590
12/26/2021  23:06:00     -496.801       89.840      -27.516      258.224      157.605      105.071    66679.505    24839.473    11039.828       17.908        5.128      504.859      109.320        0.047      330.966       -1.327      851.563
12/26/2021  23:07:00     -372.232       71.558      -24.729      214.114      153.796      110.624    45844.997    23653.231    12237.749       11.300        4.087      379.048      106.858        0.079      330.963       -1.331      851.566
12/26/2021  23:08:00     -539.818      184.455      -13.534      248.866      184.948      109.998    61934.260    34205.794    12099.588       21.691        5.412      570.463      103.425        0.033      330.958       -1.337      851.534
12/26/2021  23:09:00     -376.534        7.128      -20.532      247.381      156.835      113.282    61197.119    24597.371    12832.916       12.042        4.931      376.602       99.568        0.070      330.932       -1.381      851.575
12/26/2021  23:10:00     -201.499       90.954      -37.688      296.982      217.073      123.442    88198.199    47120.698    15237.990       10.040        7.528      221.075      119.015        0.290      330.935       -1.376      851.469
12/26/2021  23:11:00     -458.834      153.552       24.143      405.478      226.804      134.372   164412.610    51440.273    18055.769       23.426       11.695      483.846      171.302        0.125      330.920       -1.402      851.507
12/26/2021  23:12:00     -526.588      143.901      -19.463      338.160      227.884      135.951   114351.917    51931.213    18482.604       24.154        9.238      545.896      114.955        0.044      330.942       -1.365      851.489
12/26/2021  23:13:00     -447.936       95.246       -6.566      229.879      180.422      114.447    52844.453    32551.920    13098.025       15.411        4.925      457.950      117.481        0.066      330.984       -1.296      851.494
12/26/2021  23:14:00     -513.555      144.380      -22.381      313.410      221.032      132.481    98225.997    48855.044    17551.214       22.483        8.232      533.465      124.079        0.054      330.953       -1.346      851.507
12/26/2021  23:15:00     -217.355       35.699        6.990      317.383      175.245      109.776   100731.922    30710.871    12050.848        9.600        7.175      220.267      105.502        0.229      330.987       -1.291      851.488
12/26/2021  23:16:00     -461.757       78.042      -27.191      307.715      167.377      126.630    94688.547    28014.981    16035.170       17.937        6.937      468.306      130.349        0.077      330.926       -1.393      851.496
12/26/2021  23:17:00     -377.354      116.924      -34.149      274.019      214.560      124.215    75086.510    46035.810    15429.335       14.687        6.828      395.054      139.950        0.125      330.960       -1.335      851.458
12/26/2021  23:18:00     -432.190      124.303      -22.950      325.610      159.678      144.206   106021.950    25497.026    20795.371       17.751        7.616      449.710      151.435        0.113      330.984       -1.296      851.429
12/26/2021  23:19:00     -380.117       88.009      -15.925      263.632      185.927      109.249    69501.648    34568.673    11935.429       13.423        5.800      390.173      116.016        0.088      331.022       -1.233      851.439
12/26/2021  23:20:00     -453.830      206.363      -35.265      173.655      181.653       87.287    30156.158    32997.668     7618.969       16.027        3.539      498.545       83.630        0.028      330.983       -1.298      851.473
12/26/2021  23:21:00     -597.850      145.447      -16.990      275.788      200.226      122.561    76058.828    40090.342    15021.248       25.500        6.559      615.288      125.192        0.041      330.898       -1.438      851.496
12/26/2021  23:22:00     -500.931       68.745      -32.036      315.635      218.055      106.620    99625.581    47547.906    11367.786       20.758        7.927      505.626      105.010        0.043      330.863       -1.495      851.452
12/26/2021  23:23:00     -453.204      114.330      -28.156      220.219      152.180      100.437    48496.308    23158.652    10087.538       15.048        4.087      467.402       90.278        0.037      330.860       -1.499      851.410
12/26/2021  23:24:00     -285.970       96.102       -2.754      243.589      164.036       95.197    59335.507    26907.778     9062.549        9.315        4.765      301.686       92.888        0.095      330.864       -1.492      851.419
12/26/2021  23:25:00     -470.444      118.618      -20.041      239.892      144.800      105.647    57548.252    20967.180    11161.223       16.272        4.484      485.167      104.680        0.047      330.863       -1.495      851.381
12/26/2021  23:26:00     -457.557      128.389      -11.452      251.376      154.205      111.930    63189.782    23779.253    12528.362       16.272        4.975      475.228      124.698        0.069      330.915       -1.411      851.340
12/26/2021  23:27:00     -338.111       92.667      -53.558      256.368      194.272      107.825    65724.505    37741.444    11626.312       12.041        5.755      350.580       86.590        0.061      330.926       -1.391      851.293
12/26/2021  23:28:00     -408.995      104.680      -26.302      308.000      163.783      107.477    94864.284    26824.723    11551.221       15.606        6.662      422.179       82.587        0.038      330.906       -1.423      851.279
12/26/2021  23:29:00     -544.153      195.760      -24.964      309.404      186.705      115.571    95731.140    34858.685    13356.625       23.947        7.197      578.294       92.943        0.026      330.989       -1.288      851.314
12/26/2021  23:30:00     -272.716       92.871       -7.469      258.138      166.888      124.564    66635.127    27851.728    15516.096        9.651        5.500      288.096      113.241        0.155      331.101       -1.104      851.230
12/26/2021  23:31:00     -150.550       49.095       -8.306      265.577      158.837      112.142    70531.090    25229.232    12575.939        6.672        5.417      158.353      102.947        0.423      331.154       -1.016      851.275
12/26/2021  23:32:00     -202.196       36.432      -40.352      267.223      188.644      123.181    71407.881    35586.458    15173.644        8.298        6.108      205.452       81.890        0.159      331.052       -1.185      851.289
12/26/2021  23:33:00     -264.171       55.282      -22.323      294.330      181.772       88.841    86629.859    33040.888     7892.803       10.043        6.378      269.893       69.903        0.067      330.970       -1.319      851.333
12/26/2021  23:34:00     -459.237      135.882      -26.355      209.692      153.653      100.070    43970.536    23609.119    10014.060       15.381        3.880      478.918       85.888        0.032      330.940       -1.368      851.384
12/26/2021  23:35:00     -507.109      203.321      -29.152      189.083      144.104       89.873    35752.374    20765.916     8077.153       18.196        3.230      546.351       77.379        0.020      330.948       -1.355      851.334
12/26/2021  23:36:00     -655.738      185.875      -25.869      270.669      200.473      121.845    73261.581    40189.566    14846.164       29.673        6.415      681.573      119.475        0.031      330.977       -1.307      851.264
12/26/2021  23:37:00     -491.823      128.124      -28.307      314.323      222.027      128.305    98799.079    49296.072    16462.251       21.180        8.228      508.238      114.030        0.050      331.037       -1.210      851.242
12/26/2021  23:38:00     -428.417      135.362      -22.887      276.517      210.120      122.013    76461.665    44150.415    14887.120       16.892        6.775      449.293      132.467        0.087      330.994       -1.279      851.227
12/26/2021  23:39:00     -530.853      179.014       11.473      238.772      174.884      115.992    57011.863    30584.398    13454.109       20.750        5.053      560.224      114.518        0.042      330.999       -1.272      851.264
12/26/2021  23:40:00     -333.920       62.295       -2.106      231.186      151.439       86.596    53446.895    22933.636     7498.826        9.962        4.194      339.681       92.470        0.074      330.992       -1.284      851.253
12/26/2021  23:41:00     -461.211      102.317      -30.288      241.417      166.033       92.509    58282.194    27567.065     8557.904       15.924        4.720      472.424      101.574        0.046      330.939       -1.371      851.239
12/26/2021  23:42:00     -311.959       53.726        4.249      184.089      116.721       83.328    33888.849    13623.835     6943.494        7.733        2.723      316.552       87.703        0.077      330.893       -1.446      851.171
12/26/2021  23:43:00     -350.633      153.714      -33.318      233.892      137.391      101.779    54705.241    18876.401    10358.911       11.580        4.197      382.847       25.437        0.004      330.925       -1.393      851.118
12/26/2021  23:44:00     -302.004      124.307      -29.551      277.466      178.057       99.204    76987.211    31704.219     9841.412       11.301        5.927      326.586       71.155        0.047      330.992       -1.284      851.122
12/26/2021  23:45:00     -333.046       83.621      -31.371      284.216      175.796      104.635    80778.633    30904.255    10948.435       12.074        6.132      343.384      111.984        0.106      330.991       -1.285      851.072
12/26/2021  23:46:00     -320.708       64.387        2.297      265.055      157.820      100.029    70254.417    24907.133    10005.743       10.607        5.258      327.107       99.888        0.093      330.958       -1.338      851.141
12/26/2021  23:47:00     -282.971      111.818       11.703      254.978      148.260       97.250    65013.706    21981.025     9457.476        9.456        4.823      304.262       92.095        0.092      330.920       -1.401      851.174
12/26/2021  23:48:00     -370.077      144.439      -59.534      230.162      150.156      108.852    52974.341    22546.780    11848.705       12.435        4.368      397.265       97.969        0.061      330.934       -1.377      851.096
12/26/2021  23:49:00     -275.125       66.183      -23.791      180.164      133.867       95.563    32459.152    17920.346     9132.377        7.006        2.976      282.973       84.340        0.089      330.928       -1.387      851.106
12/26/2021  23:50:00     -485.525       99.258       -4.095      184.745      116.612       76.829    34130.606    13598.451     5902.646       14.961        2.682      495.567       89.769        0.033      330.942       -1.365      851.069
12/26/2021  23:51:00     -444.594      106.395      -27.547      159.121      106.466       81.247    25319.433    11335.107     6601.043       12.649        2.163      457.147       83.369        0.033      330.910       -1.418      851.085
12/26/2021  23:52:00     -330.967       36.506      -12.062      179.666      122.074       93.032    32279.704    14902.152     8654.895        8.342        2.792      332.975       63.027        0.036      330.890       -1.450      851.033
12/26/2021  23:53:00     -562.766       60.627      -12.993      215.886      164.406       97.487    46606.590    27029.314     9503.777       20.183        4.157      566.022       68.486        0.015      330.983       -1.296      851.069
12/26/2021  23:54:00     -267.390       29.260      -16.884      191.912      114.859       81.121    36830.275    13192.511     6580.670        6.461        2.830      268.986       89.496        0.111      330.976       -1.309      851.015
12/26/2021  23:55:00     -292.623       71.363       -4.804      280.539      135.359       88.153    78701.990    18322.190     7770.870        9.775        5.240      301.199       89.642        0.089      331.023       -1.232      850.990
12/26/2021  23:56:00     -486.522      145.842      -21.388      140.328      140.179       77.903    19691.904    19650.288     6068.823       15.191        2.271      507.911       63.250        0.016      331.066       -1.162      850.907
12/26/2021  23:57:00     -378.862      113.452      -26.218      156.840      123.097       65.922    24598.681    15152.755     4345.754       10.059        2.205      395.484       47.097        0.014      331.057       -1.179      850.948
12/26/2021  23:58:00     -377.197       56.867       -3.859      232.015      130.956      101.302    53830.977    17149.545    10262.015       11.337        4.062      381.460       96.007        0.063      331.072       -1.153      850.954
12/26/2021  23:59:00     -232.175      121.961       -8.122      168.790      129.936       83.569    28490.059    16883.437     6983.763        6.059        2.618      262.259       81.871        0.097      331.019       -1.240      850.984
12/27/2021  00:00:00     -443.974      162.745      -56.770      208.482      149.887       83.773    43464.945    22466.076     7017.848       14.987        3.647      472.862       81.151        0.029      331.051       -1.188      850.940
12/27/2021  00:01:00     -278.291      130.710      -31.734      272.936      156.533       97.297    74494.052    24502.592     9466.751       10.198        5.423      307.459      111.326        0.131      331.027       -1.227      850.960
12/27/2021  00:02:00     -381.584       45.992       -8.990      268.068      121.126       93.072    71860.315    14671.407     8662.339       12.148        4.760      384.345       97.171        0.064      331.029       -1.222      850.974
12/27/2021  00:03:00     -148.551      -11.101       -0.421      211.481      101.414       83.792    44724.253    10284.732     7021.109        4.210        3.102      148.966       65.558        0.194      331.042       -1.199      850.973
12/27/2021  00:04:00     -108.346       20.147        3.084      192.666      126.225       85.714    37120.108    15932.862     7346.878        3.627        3.020      110.204       91.706        0.692      331.050       -1.187      850.943
12/27/2021  00:05:00     -184.829       24.420        0.752      179.364      129.313       83.984    32171.373    16721.933     7053.296        4.534        2.797      186.435       73.080        0.154      331.023       -1.233      850.970
12/27/2021  00:06:00     -365.709      138.164      -12.562      144.773      124.178       69.897    20959.341    15420.094     4885.617        9.712        2.063      390.938       48.515        0.015      331.002       -1.267      851.012
12/27/2021  00:07:00     -371.061       69.094       -9.157      199.157      146.795       88.195    39663.667    21548.815     7778.373       10.575        3.450      377.439       82.552        0.048      331.037       -1.210      851.035
12/27/2021  00:08:00     -184.526       19.713      -16.997      186.530      114.971      102.278    34793.587    13218.217    10460.804        4.659        2.924      185.576       86.279        0.216      331.037       -1.209      850.992
12/27/2021  00:09:00     -380.475      165.079      -43.339      194.229      148.104       83.304    37725.027    21934.727     6939.618       12.023        3.330      414.744       36.325        0.008      331.096       -1.112      851.026
12/27/2021  00:10:00     -142.093       49.014       -8.724      205.608      101.281       85.179    42274.477    10257.883     7255.380        4.122        2.989      150.309       81.983        0.297      331.074       -1.147      851.027
12/27/2021  00:11:00     -197.222       23.764      -14.758      172.245      125.415       95.851    29668.270    15728.809     9187.455        4.712        2.729      198.649       95.349        0.230      331.114       -1.081      851.071
12/27/2021  00:12:00     -168.482       63.783        1.467      149.798      130.452       79.694    22439.452    17017.641     6351.170        3.912        2.290      180.152       72.994        0.164      331.161       -1.005      851.088
12/27/2021  00:13:00     -339.193       85.403       -5.750      213.038      119.389      100.290    45385.350    14253.691    10058.041        9.602        3.485      349.779      103.751        0.088      331.161       -1.005      851.045
12/27/2021  00:14:00     -216.795      107.463       -6.952      217.356      145.201       75.456    47243.751    21083.393     5693.620        6.630        3.701      241.967       81.667        0.114      331.111       -1.088      851.147
12/27/2021  00:15:00     -414.919      165.384      -23.717      143.972      101.112       77.676    20728.030    10223.690     6033.616       11.852        1.849      446.665       75.742        0.029      331.070       -1.154      851.027
12/27/2021  00:16:00     -373.635      110.031      -22.572      196.049      137.907       81.893    38435.386    19018.251     6706.475       10.818        3.208      389.499       86.232        0.049      331.076       -1.147      851.035
12/27/2021  00:17:00     -233.616       91.941      -19.616      160.152      134.198       83.213    25648.692    18009.149     6924.423        5.699        2.529      251.057       79.077        0.099      331.032       -1.218      851.020
12/27/2021  00:18:00     -134.908       29.488      -21.496      221.076      132.865      104.951    48874.458    17653.079    11014.625        4.852        3.877      138.093       95.464        0.478      331.032       -1.216      850.999
12/27/2021  00:19:00     -404.267      107.200      -31.748      224.433      177.053       94.454    50370.214    31347.619     8921.563       13.327        4.532      418.239       90.875        0.047      331.035       -1.214      850.998
12/27/2021  00:20:00     -318.444       84.154        0.747      244.770      119.831       90.241    59912.215    14359.381     8143.462        9.544        4.121      329.375       91.149        0.077      330.999       -1.273      850.968
12/27/2021  00:21:00     -165.719       52.668      -18.316      208.367       99.582       75.761    43416.802     9916.599     5739.767        4.481        2.954      173.887       74.114        0.182      331.000       -1.268      850.932
12/27/2021  00:22:00     -246.675       35.245      -12.137      164.908      100.112       72.361    27194.667    10022.448     5236.053        5.234        2.123      249.180       53.427        0.046      331.022       -1.236      850.906
12/27/2021  00:23:00     -309.436       61.748        4.514      183.909      140.105       83.106    33822.689    19629.373     6906.664        7.996        3.018      315.537       85.895        0.074      331.012       -1.250      850.962
12/27/2021  00:24:00     -292.910      101.229       -8.792      150.751      133.460       81.245    22725.994    17811.666     6600.830        7.162        2.357      309.909       62.275        0.040      331.004       -1.265      850.870
12/27/2021  00:25:00      -56.245       17.047      -20.819      101.067      154.450       67.057    10214.624    23854.669     4496.601        2.122        1.928       58.772       53.407        0.826      331.045       -1.195      850.710
12/27/2021  00:26:00       -0.598      -51.176       -4.151      158.305       86.318       67.476    25060.508     7450.719     4552.990        1.984        1.853       51.179       41.122        0.646      331.085       -1.128      850.769
12/27/2021  00:27:00     -109.553       45.245       -6.401      120.538       71.318       55.812    14529.418     5086.312     3115.027        1.841        1.137      118.528       43.429        0.134      331.020       -1.236      850.802
12/27/2021  00:28:00     -125.915       81.796      -12.560      106.728       88.795       62.925    11390.916     7884.594     3959.606        2.296        1.162      150.150       43.187        0.083      331.010       -1.252      850.807
12/27/2021  00:29:00     -296.745      123.234      -22.228      116.062      109.748       71.660    13470.341    12044.708     5135.191        6.719        1.533      321.317       48.258        0.023      330.977       -1.307      850.738
12/27/2021  00:30:00     -123.102       50.595      -29.673      174.398       84.235       66.950    30414.668     7095.563     4482.335        3.029        2.100      133.094       48.734        0.134      330.979       -1.303      850.658
12/27/2021  00:31:00     -152.666       38.454      -26.318      162.510      143.448       93.838    26409.388    20577.342     8805.487        4.063        2.790      157.435       23.979        0.023      331.035       -1.213      850.617
12/27/2021  00:32:00     -140.734       57.150      -30.488      215.467      153.207       92.492    46426.187    23472.475     8554.858        5.121        3.923      151.896       76.638        0.255      331.178       -0.976      850.626
12/27/2021  00:33:00     -104.178       48.261       -2.895      141.544       82.904       63.549    20034.793     6873.111     4038.515        2.206        1.547      114.814       48.454        0.178      331.045       -1.195      850.676
12/27/2021  00:34:00     -226.771       44.058      -23.058      166.103      107.047       67.504    27590.144    11459.009     4556.742        4.874        2.180      231.011       65.006        0.079      331.104       -1.099      850.727
12/27/2021  00:35:00     -191.759       52.315      -20.432      125.297       76.168       62.164    15699.462     5801.576     3864.352        3.264        1.268      198.767       48.917        0.061      331.081       -1.137      850.706
12/27/2021  00:36:00     -304.286       68.217      -13.241      182.831      127.247       87.603    33427.320    16191.834     7674.215        7.735        2.865      311.839       86.808        0.077      331.140       -1.041      850.673
12/27/2021  00:37:00     -132.461       73.685      -30.024      120.916      121.648       76.779    14620.679    14798.353     5895.015        2.959        1.766      151.576       61.131        0.163      331.175       -0.982      850.703
12/27/2021  00:38:00     -315.143      109.219      -27.522      195.105      117.758       60.063    38065.848    13866.859     3607.561        8.376        2.777      333.532       53.465        0.026      331.120       -1.072      850.744
12/27/2021  00:39:00     -123.010       71.988       -9.375       97.561       89.290       52.074     9518.070     7972.729     2711.729        2.030        1.010      142.526       36.774        0.067      331.081       -1.135      850.718
12/27/2021  00:40:00     -186.384       59.382        7.320      115.806       91.235       60.375    13411.075     8323.792     3645.137        3.184        1.269      195.615       58.014        0.088      331.075       -1.147      850.648
12/27/2021  00:41:00     -166.654       15.318        4.017      203.106       83.953       67.479    41252.116     7048.087     4553.358        4.043        2.643      167.356       43.461        0.067      331.142       -1.036      850.669
12/27/2021  00:42:00      -73.717       -9.511      -13.715      124.060       99.891       78.578    15390.825     9978.262     6174.499        1.862        1.577       74.328       57.927        0.607      331.247       -0.862      850.654
12/27/2021  00:43:00     -288.231       67.454       -9.087      150.176      140.059       69.024    22552.774    19616.459     4764.320        6.731        2.347      296.019       68.367        0.053      331.215       -0.915      850.677
12/27/2021  00:44:00     -367.027      144.071       -4.119      132.710      110.220       58.608    17611.957    12148.480     3434.902        9.433        1.660      394.291       53.524        0.018      331.128       -1.060      850.691
12/27/2021  00:45:00     -177.193       81.019       -9.568      148.690      109.400       78.369    22108.834    11968.425     6141.638        3.913        2.011      194.837       71.625        0.135      331.136       -1.045      850.647
12/27/2021  00:46:00     -133.827       12.644      -21.058      113.598      115.078       68.349    12904.553    13242.978     4671.610        2.466        1.541      134.423       50.336        0.140      331.082       -1.133      850.680
12/27/2021  00:47:00     -151.662       54.206      -17.674      105.488       85.836       61.576    11127.678     7367.737     3791.580        2.427        1.114      161.058       50.401        0.098      331.068       -1.157      850.662
12/27/2021  00:48:00     -300.092       79.357      -16.184      154.818       95.186       73.756    23968.551     9060.328     5439.903        6.753        1.923      310.408       67.014        0.047      331.020       -1.239      850.649
12/27/2021  00:49:00     -269.791      104.779      -11.706      120.440      106.944       75.288    14505.886    11437.038     5668.352        5.775        1.581      289.423       64.627        0.050      331.054       -1.182      850.644
12/27/2021  00:50:00     -243.450      108.165      -33.065      137.212       88.405       70.906    18827.226     7815.426     5027.629        5.186        1.584      266.397       68.851        0.067      331.130       -1.055      850.644
12/27/2021  00:51:00     -175.181       36.254      -14.389      142.047       93.691       62.596    20177.465     8778.064     3918.240        3.254        1.644      178.893       64.184        0.129      331.131       -1.053      850.704
12/27/2021  00:52:00     -313.714       69.750      -13.060       93.025       63.219       44.228     8653.594     3996.678     1956.119        5.903        0.730      321.375       39.704        0.015      331.118       -1.075      850.704
12/27/2021  00:53:00     -125.295       35.282       -8.785      133.056       98.753       65.310    17703.813     9752.140     4265.352        2.437        1.586      130.168       53.540        0.169      331.202       -0.936      850.708
12/27/2021  00:54:00     -258.312       53.011       -2.734      134.285       75.678       56.481    18032.567     5727.095     3190.092        4.824        1.347      263.696       60.653        0.053      331.259       -0.843      850.711
12/27/2021  00:55:00     -267.849       57.608       -1.239      172.912      119.836       71.563    29898.442    14360.652     5121.201        6.221        2.469      273.974       59.191        0.047      331.294       -0.785      850.673
12/27/2021  00:56:00     -253.761       69.104       -5.595      163.742      146.514       82.467    26811.595    21466.283     6800.858        6.213        2.754      263.002       57.831        0.048      331.473       -0.493      850.642
12/27/2021  00:57:00     -309.741       69.676      -33.095      200.759      167.882       85.926    40304.036    28184.465     7383.274        8.887        3.794      317.481      101.176        0.102      331.724       -0.080      850.579
12/27/2021  00:58:00     -271.768       25.827       -4.430      193.978      160.106      110.794    37627.469    25634.033    12275.369        7.503        3.777      272.993      102.955        0.142      331.740       -0.052      850.546
12/27/2021  00:59:00     -292.031       10.143       -9.574      230.220      128.414       92.598    53001.050    16490.203     8574.478        8.176        3.903      292.208       98.122        0.113      331.781        0.015      850.540
12/27/2021  01:00:00     -130.650       21.873        4.150      102.952       84.945       56.777    10599.110     7215.583     3223.650        1.930        1.052      132.468       43.112        0.106      331.768       -0.005      850.537
12/27/2021  01:01:00     -182.328      -22.841       -5.260      107.161       83.413       63.232    11483.560     6957.750     3998.224        2.811        1.122      183.753       53.788        0.086      331.789        0.028      850.568
12/27/2021  01:02:00     -185.897       33.766      -20.636       90.109       74.862       38.729     8119.544     5604.254     1499.917        2.567        0.761      188.938       24.119        0.016      331.618       -0.253      850.577
12/27/2021  01:03:00     -217.287       26.894      -25.779       52.832       52.643       37.801     2791.264     2771.247     1428.943        2.780        0.350      218.945       26.041        0.014      331.590       -0.302      850.596
12/27/2021  01:04:00     -126.720       70.605      -23.464       51.545       51.617       24.735     2656.909     2664.297      611.836        1.376        0.297      145.062       19.603        0.018      331.404       -0.602      850.556
12/27/2021  01:05:00      -94.754       88.332      -12.509       50.161       44.627       29.156     2516.115     1991.594      850.046        1.115        0.268      129.541       23.725        0.034      331.321       -0.738      850.553
12/27/2021  01:06:00      -30.184       87.790      -16.445       35.804       57.950       23.757     1281.959     3358.187      564.404        0.705        0.260       92.834       13.880        0.022      331.323       -0.735      850.577
12/27/2021  01:07:00     -100.355       59.728      -14.559       45.010       66.029       32.705     2025.945     4359.877     1069.605        1.065        0.373      116.784       22.466        0.037      331.241       -0.872      850.582
12/27/2021  01:08:00      -83.725       89.328      -23.723       48.154       57.241       24.170     2318.769     3276.586      584.209        1.086        0.309      122.431       23.912        0.038      331.192       -0.952      850.572
12/27/2021  01:09:00      -99.073       40.989      -21.330       41.531       32.456       26.518     1724.864     1053.368      703.198        0.772        0.174      107.218       19.291        0.032      331.145       -1.028      850.611
12/27/2021  01:10:00      -38.898       48.533       -3.725       39.702       27.068       19.304     1576.286      732.688      372.647        0.328        0.134       62.197       13.141        0.045      331.188       -0.959      850.556
12/27/2021  01:11:00      -68.399       10.749      -17.588       59.053       41.505       21.242     3487.307     1722.628      451.241        0.538        0.283       69.239       16.315        0.056      331.304       -0.767      850.578
12/27/2021  01:12:00      -35.640       46.056      -15.789       48.111       38.879       34.958     2314.678     1511.561     1222.090        0.434        0.252       58.236       26.574        0.208      331.192       -0.951      850.561
12/27/2021  01:13:00      -43.559       40.843      -15.612       33.776       26.651       26.184     1140.848      710.254      685.624        0.317        0.127       59.712       11.748        0.039      331.238       -0.875      850.547
12/27/2021  01:14:00      -56.412       70.802       -5.802       61.531       37.748       30.402     3786.011     1424.938      924.303        0.718        0.307       90.527       17.976        0.039      331.296       -0.780      850.579
12/27/2021  01:15:00      -94.625       98.864       -6.015       86.007       75.635       47.307     7397.278     5720.609     2237.938        1.706        0.768      136.850       43.010        0.099      331.195       -0.947      850.579
12/27/2021  01:16:00      -35.449       44.611      -11.727       81.583       70.023       41.704     6655.764     4903.209     1739.232        0.834        0.665       56.981       47.522        0.696      331.203       -0.932      850.605
12/27/2021  01:17:00      -62.199       34.266       -2.150       81.978       74.783       44.980     6720.389     5592.528     2023.174        0.969        0.717       71.013       33.187        0.218      331.171       -0.986      850.695
12/27/2021  01:18:00      -77.768       19.957      -24.093       72.324       47.085       34.182     5230.700     2216.996     1168.410        0.782        0.431       80.288       28.925        0.130      331.158       -1.007      850.646
12/27/2021  01:19:00       12.115       10.870      -15.552       41.163       33.019       21.891     1694.363     1090.246      479.232        0.188        0.163       16.277       20.876        1.645      331.215       -0.911      850.575
12/27/2021  01:20:00      -52.420       29.902      -12.133       59.331       52.870       37.879     3520.120     2795.221     1434.793        0.577        0.388       60.349       34.166        0.321      331.228       -0.893      850.571
12/27/2021  01:21:00      -73.894       46.853      -43.353       81.135       57.549       50.607     6582.932     3311.901     2561.054        1.099        0.623       87.496       45.889        0.275      331.228       -0.891      850.518
12/27/2021  01:22:00     -150.992       56.106      -31.356      161.609       88.029       71.790    26117.396     7749.096     5153.755        3.297        1.951      161.079       68.020        0.178      331.200       -0.939      850.559
12/27/2021  01:23:00     -206.740       29.226      -10.578      158.928       94.827       47.469    25258.076     8992.180     2253.319        4.010        1.825      208.795       39.051        0.035      331.209       -0.925      850.578
12/27/2021  01:24:00     -246.245      127.869       -2.591      173.644      112.281       64.505    30152.279    12607.096     4160.834        6.195        2.346      277.466       72.088        0.068      331.219       -0.909      850.563
12/27/2021  01:25:00     -146.877       50.657       -9.906      188.338      111.762       54.260    35471.234    12490.743     2944.108        3.756        2.545      155.368       55.805        0.129      331.262       -0.837      850.563
12/27/2021  01:26:00     -204.333       64.952      -28.465      107.405      109.466       49.386    11535.929    11982.780     2439.000        3.636        1.298      214.407       38.541        0.032      331.202       -0.937      850.523
12/27/2021  01:27:00      -84.117        1.374      -18.487      108.350       71.228       50.272    11739.826     5073.426     2527.253        1.338        0.967       84.128       36.382        0.187      331.202       -0.934      850.560
12/27/2021  01:28:00     -147.143       55.620      -21.553      147.964       71.881       51.395    21893.259     5166.868     2641.487        2.745        1.485      157.304       63.003        0.160      331.184       -0.967      850.517
12/27/2021  01:29:00     -221.942       74.571      -39.999      132.207       94.041       65.229    17478.773     8843.798     4254.886        4.349        1.529      234.135       57.669        0.061      331.178       -0.978      850.472
12/27/2021  01:30:00     -278.432      120.855      -50.711      125.834      129.522       75.659    15834.224    16775.943     5724.247        6.651        1.917      303.530       59.267        0.038      331.194       -0.953      850.430
12/27/2021  01:31:00     -264.485       65.589       -6.001      135.413       99.747       69.725    18336.581     9949.423     4861.621        5.371        1.657      272.496       73.523        0.073      331.161       -1.005      850.474
12/27/2021  01:32:00     -335.999      129.093      -18.355      157.855      146.253       66.428    24918.193    21390.030     4412.717        9.030        2.536      359.944       54.786        0.023      331.187       -0.963      850.498
12/27/2021  01:33:00     -420.474      116.628      -10.091      152.125      130.214       63.174    23142.016    16955.655     3990.984       11.729        2.204      436.349       65.792        0.023      331.206       -0.932      850.510
12/27/2021  01:34:00     -294.679       66.955      -11.423      165.866       99.436       63.794    27511.397     9887.585     4069.681        6.645        2.073      302.190       64.915        0.046      331.234       -0.883      850.481
12/27/2021  01:35:00     -196.269       87.405      -13.338      137.250      102.910       56.462    18837.594    10590.473     3187.904        3.947        1.631      214.852       32.871        0.023      331.228       -0.891      850.445
12/27/2021  01:36:00      -89.630       37.247        6.301      127.409       73.988       75.962    16233.033     5474.164     5770.208        1.846        1.374       97.061       63.555        0.429      331.245       -0.862      850.448
12/27/2021  01:37:00      -64.326       50.635       -1.912       95.602       93.527       52.662     9139.759     8747.248     2773.303        1.368        1.033       81.864       41.898        0.262      331.236       -0.880      850.412
12/27/2021  01:38:00        4.042       -8.446      -17.350       71.601       66.480       42.978     5126.766     4419.569     1847.092        0.589        0.570        9.363       28.503        9.266      331.278       -0.809      850.377
12/27/2021  01:39:00     -271.716      129.855      -11.817      125.763       90.362       66.208    15816.326     8165.324     4383.527        5.959        1.418      301.151       62.412        0.043      331.242       -0.872      850.394
12/27/2021  01:40:00     -130.340       90.061      -25.068      102.067      110.732       55.463    10417.646    12261.531     3076.129        2.574        1.288      158.429       41.759        0.069      331.300       -0.775      850.370
12/27/2021  01:41:00     -250.038       84.876      -20.282      108.767      102.505       61.759    11830.266    10507.211     3814.159        4.814        1.308      264.051       65.083        0.061      331.329       -0.730      850.397
12/27/2021  01:42:00     -206.689       53.260       -7.636       87.483       65.887       50.639     7653.259     4341.086     2564.301        3.008        0.728      213.441       45.572        0.046      331.312       -0.756      850.451
12/27/2021  01:43:00     -191.797       58.005      -22.919      104.477       69.001       47.401    10915.530     4761.079     2246.871        2.930        0.896      200.376       35.634        0.032      331.326       -0.734      850.503
12/27/2021  01:44:00     -244.851       88.571       -5.236      116.704      100.138       48.034    13619.768    10027.654     2307.297        4.688        1.298      260.379       35.583        0.019      331.295       -0.785      850.519
12/27/2021  01:45:00     -226.642       21.855      -11.779      127.999       85.997       57.901    16383.674     7395.425     3352.495        3.955        1.357      227.693       55.387        0.059      331.311       -0.759      850.494
12/27/2021  01:46:00        5.217       -5.259        7.173      110.336       57.264       59.698    12174.102     3279.215     3563.824        0.956        0.951        7.408       55.226       55.578      331.363       -0.671      850.497
12/27/2021  01:47:00      -69.902       -2.510        1.209      108.464       73.326       47.606    11764.471     5376.732     2266.350        1.215        0.970       69.947       33.506        0.229      331.343       -0.703      850.508
12/27/2021  01:48:00     -128.978       45.032       -2.073      102.733       57.416       48.001    10554.061     3296.617     2304.117        1.741        0.808      136.613       21.765        0.025      331.291       -0.790      850.479
12/27/2021  01:49:00     -111.121       11.605       -5.401      120.650       64.179       45.018    14556.466     4118.989     2026.621        1.660        1.035      111.725       50.516        0.204      331.318       -0.747      850.497
12/27/2021  01:50:00      -93.762       31.568        5.937      101.056       58.462       40.004    10212.328     3417.796     1600.350        1.252        0.762       98.934       24.917        0.063      331.304       -0.768      850.532
12/27/2021  01:51:00     -174.090       81.996       -3.686      110.706       56.051       36.095    12255.736     3141.722     1302.856        2.687        0.835      192.433       40.257        0.044      331.310       -0.759      850.516
12/27/2021  01:52:00     -202.736       87.873       -5.548      174.600       82.433       53.900    30485.277     6795.235     2905.195        4.451        2.009      220.961       40.611        0.034      331.269       -0.825      850.552
12/27/2021  01:53:00     -104.639      -12.907       -5.829      114.124       65.050       56.649    13024.321     4231.455     3209.144        1.580        1.023      105.432       43.923        0.174      331.312       -0.755      850.596
12/27/2021  01:54:00      -83.548       32.053        1.331       96.602       47.733       41.809     9331.868     2278.435     1747.983        1.068        0.668       89.486       40.908        0.209      331.311       -0.757      850.599
12/27/2021  01:55:00      -98.183        9.103      -12.799       50.415       61.440       34.965     2541.636     3774.817     1222.562        0.871        0.377       98.604       26.129        0.070      331.366       -0.664      850.583
12/27/2021  01:56:00     -124.655      -29.706       -7.374      103.497       89.112       63.623    10711.655     7941.036     4047.865        1.958        1.135      128.146       50.632        0.156      331.422       -0.575      850.609
12/27/2021  01:57:00     -239.571       22.102      -29.573      102.155      122.297       60.629    10435.552    14956.504     3675.886        4.391        1.453      240.588       38.896        0.026      331.479       -0.485      850.600
12/27/2021  01:58:00     -150.453      115.278      -30.033       58.568       85.863       40.625     3430.248     7372.491     1650.422        2.464        0.623      189.539       37.408        0.039      331.467       -0.502      850.553
12/27/2021  01:59:00     -125.671      -12.867       -4.167      114.982       71.607       39.495    13220.869     5127.571     1559.876        1.794        0.995      126.328       32.304        0.065      331.494       -0.456      850.553
12/27/2021  02:00:00     -213.438       17.339      -21.406      165.521       76.254       44.604    27397.352     5814.708     1989.551        4.075        1.760      214.141       38.372        0.032      331.472       -0.496      850.551
12/27/2021  02:01:00     -207.329        2.848      -22.419       81.256       72.441       51.130     6602.513     5247.648     2614.253        2.898        0.723      207.349       39.698        0.037      331.443       -0.542      850.527
12/27/2021  02:02:00     -182.272       52.123      -11.621       80.746       71.280       41.093     6519.866     5080.793     1688.600        2.468        0.664      189.579       35.529        0.035      331.336       -0.716      850.499
12/27/2021  02:03:00     -254.773      112.666      -11.600       99.005       68.430       49.169     9802.022     4682.636     2417.589        4.732        0.845      278.573       39.497        0.020      331.193       -0.951      850.506
12/27/2021  02:04:00     -172.482       52.199       -6.335       83.559       67.151       38.570     6982.180     4509.301     1487.664        2.274        0.649      180.207       34.368        0.036      331.175       -0.981      850.527
12/27/2021  02:05:00     -175.559       70.218       -6.842       94.298       77.519       47.936     8892.073     6009.130     2297.835        2.650        0.860      189.080       49.926        0.070      331.132       -1.053      850.525
12/27/2021  02:06:00     -229.841       60.091      -14.179      112.987       82.653       51.911    12766.064     6831.503     2694.718        3.946        1.115      237.567       44.406        0.035      331.096       -1.113      850.510
12/27/2021  02:07:00     -140.840       44.787      -46.255      103.108       65.087       44.362    10631.249     4236.267     1967.943        2.041        0.842      147.790       32.853        0.049      331.111       -1.087      850.482
12/27/2021  02:08:00     -114.416       34.387       -4.574      124.462       62.854       47.275    15490.877     3950.611     2234.968        1.798        1.084      119.471       38.501        0.104      331.081       -1.136      850.486
12/27/2021  02:09:00     -155.975       52.392       -5.210      131.518       78.327       54.737    17296.923     6135.194     2996.164        2.676        1.321      164.539       36.380        0.049      331.070       -1.155      850.534
12/27/2021  02:10:00     -187.991       67.001      -23.243       95.333       79.069       63.048     9088.474     6251.963     3975.063        2.984        0.966      199.574       50.768        0.065      331.058       -1.176      850.532
12/27/2021  02:11:00      -74.104        7.332        4.131       96.702       83.838       46.908     9351.252     7028.868     2200.381        1.207        0.929       74.466       40.716        0.299      331.035       -1.213      850.498
12/27/2021  02:12:00      -37.404       21.074       -8.994       75.957       67.441       41.195     5769.432     4548.309     1697.032        0.697        0.601       42.932       24.458        0.325      331.054       -1.178      850.452
12/27/2021  02:13:00      -89.632       61.750      -31.518       94.273       59.587       46.732     8887.425     3550.591     2183.857        1.373        0.731      108.844       48.237        0.196      331.061       -1.167      850.466
12/27/2021  02:14:00     -143.792       29.112      -37.541      117.169       72.195       60.095    13728.482     5212.049     3611.403        2.274        1.128      146.709       62.102        0.179      331.068       -1.157      850.488
12/27/2021  02:15:00     -107.756       20.452       -3.206      103.386       60.296       46.825    10688.718     3635.600     2192.568        1.428        0.826      109.680       45.999        0.176      331.067       -1.157      850.469
12/27/2021  02:16:00     -153.886       48.536      -16.536       80.699       73.544       39.995     6512.313     5408.682     1599.584        1.991        0.676      161.358       37.301        0.053      331.036       -1.210      850.415
12/27/2021  02:17:00     -161.803       -5.373      -15.639       71.099       67.226       50.050     5055.106     4519.282     2504.962        1.926        0.604      161.892       39.445        0.059      331.075       -1.146      850.398
12/27/2021  02:18:00     -207.356       40.201      -21.484      116.710       71.088       50.575    13621.119     5053.562     2557.799        3.315        1.062      211.217       41.674        0.039      331.040       -1.204      850.410
12/27/2021  02:19:00     -227.052       61.150       -6.292       98.393       68.511       44.849     9681.117     4693.754     2011.475        3.586        0.819      235.142       47.715        0.041      331.039       -1.208      850.416
12/27/2021  02:20:00      -72.611       25.739        0.513      109.136       59.509       45.503    11910.560     3541.341     2070.560        1.173        0.876       77.038       44.219        0.329      331.060       -1.170      850.421
12/27/2021  02:21:00      -71.620        0.608        1.583       66.017       91.935       47.567     4358.229     8452.022     2262.618        1.010        0.754       71.622       37.281        0.271      331.096       -1.110      850.441
12/27/2021  02:22:00     -157.663       59.431       -3.760       65.858       47.695       30.195     4337.266     2274.841      911.735        1.796        0.376      168.493       25.351        0.023      331.090       -1.121      850.423
12/27/2021  02:23:00      -99.858       74.374       -7.375       69.873       39.378       31.245     4882.269     1550.606      976.274        1.148        0.370      124.512       27.075        0.047      331.089       -1.121      850.376
12/27/2021  02:24:00      -58.314       17.121       -7.597       52.141       57.535       29.112     2718.636     3310.253      847.508        0.531        0.344       60.775       15.647        0.066      331.100       -1.103      850.393
12/27/2021  02:25:00     -128.305       40.749      -13.680       56.807       46.731       25.435     3227.005     2183.827      646.945        1.218        0.303      134.621       22.547        0.028      331.094       -1.112      850.420
12/27/2021  02:26:00      -77.619        7.347      -15.751       64.306       43.597       31.561     4135.226     1900.669      996.085        0.668        0.352       77.966       34.553        0.196      331.139       -1.039      850.415
12/27/2021  02:27:00      -45.970       14.849      -15.020       64.165       64.563       35.301     4117.193     4168.414     1246.172        0.604        0.477       48.308       37.898        0.615      331.198       -0.941      850.398
12/27/2021  02:28:00     -102.492       26.206      -13.341       61.563       45.594       42.774     3789.993     2078.832     1829.580        0.953        0.385      105.789       37.746        0.127      331.153       -1.015      850.409
12/27/2021  02:29:00     -143.119       19.131        0.717       49.335       38.501       31.606     2433.896     1482.302      998.964        1.288        0.246      144.392       27.239        0.036      331.150       -1.019      850.417
12/27/2021  02:30:00      -77.127       49.531       -8.868       32.893       36.882       21.353     1081.948     1360.276      455.956        0.569        0.145       91.662       17.287        0.036      331.183       -0.966      850.401
12/27/2021  02:31:00      -85.002       49.816        1.331       48.758       40.130       34.176     2377.386     1610.440     1168.013        0.743        0.258       98.524       24.643        0.063      331.206       -0.927      850.351
12/27/2021  02:32:00     -141.324       86.596      -26.542       68.876       78.998       41.241     4743.843     6240.740     1700.840        2.043        0.634      165.745       31.686        0.037      331.157       -1.010      850.321
12/27/2021  02:33:00     -179.048       50.585       -3.226      106.659       78.786       48.043    11376.164     6207.301     2308.174        2.726        0.995      186.057       40.239        0.047      331.138       -1.041      850.310
12/27/2021  02:34:00       -9.516        3.065      -17.055       45.620       63.006       30.262     2081.218     3969.758      915.765        0.368        0.348        9.998       20.463        4.189      331.192       -0.951      850.292
12/27/2021  02:35:00     -137.710       54.142       -7.900       93.465       64.713       44.160     8735.719     4187.717     1950.065        1.841        0.744      147.971       47.087        0.101      331.177       -0.978      850.252
12/27/2021  02:36:00     -150.696       40.733      -18.752       77.091       69.702       41.544     5943.056     4858.381     1725.942        1.862        0.626      156.104       30.284        0.038      331.190       -0.955      850.261
12/27/2021  02:37:00      -97.218       26.487       -2.203      128.258       63.935       48.602    16450.205     4087.724     2362.133        1.652        1.145      100.762       49.525        0.242      331.206       -0.927      850.279
12/27/2021  02:38:00     -170.943       44.319       10.804      139.442       61.981       53.376    19444.168     3841.661     2848.976        2.871        1.307      176.595       51.649        0.086      331.169       -0.992      850.292
12/27/2021  02:39:00     -219.562       27.768      -15.183       68.328       56.637       36.041     4668.709     3207.789     1298.987        2.919        0.459      221.311       35.906        0.026      331.155       -1.015      850.252
12/27/2021  02:40:00     -179.834       38.808      -17.640       71.548       63.550       40.611     5119.161     4038.590     1649.271        2.248        0.540      183.973       31.059        0.029      331.160       -1.005      850.210
12/27/2021  02:41:00     -197.281       49.502       -0.431      109.725      103.032       62.282    12039.582    10615.566     3879.032        3.395        1.327      203.397       48.316        0.056      331.152       -1.018      850.180
12/27/2021  02:42:00     -163.140       40.552      -22.958       96.158       68.839       46.036     9246.370     4738.826     2119.305        2.244        0.805      168.104       43.293        0.066      331.174       -0.983      850.163
12/27/2021  02:43:00     -139.774       43.375        2.123      106.223       53.233       48.571    11283.359     2833.708     2359.128        1.895        0.824      146.349       56.134        0.147      331.170       -0.990      850.163
12/27/2021  02:44:00     -103.026       26.912      -17.794       53.287       38.557       40.416     2839.485     1486.623     1633.453        0.881        0.298      106.484       18.776        0.031      331.170       -0.987      850.124
12/27/2021  02:45:00     -146.004       38.350      -11.524       58.713       45.684       40.091     3447.231     2087.047     1607.267        1.503        0.357      150.956       33.690        0.050      331.186       -0.961      850.129
12/27/2021  02:46:00     -219.884       80.213      -23.452       92.026       83.936       45.024     8468.840     7045.279     2027.129        3.643        0.877      234.058       23.781        0.010      331.158       -1.009      850.126
12/27/2021  02:47:00     -238.444       17.368      -14.818      122.232       81.570       45.224    14940.744     6653.695     2045.223        4.050        1.182      239.076       42.485        0.032      331.146       -1.029      850.118
12/27/2021  02:48:00     -106.863       38.381       -5.994       73.488       51.819       35.518     5400.502     2685.177     1261.539        1.114        0.467      113.547       32.430        0.082      331.177       -0.977      850.092
12/27/2021  02:49:00     -112.777       51.659       -7.329       75.685       61.269       45.795     5728.254     3753.929     2097.151        1.351        0.579      124.046       30.959        0.062      331.178       -0.974      850.081
12/27/2021  02:50:00     -126.488       40.026       -0.834      119.243       65.283       41.433    14218.864     4261.927     1716.709        1.890        1.010      132.669       45.989        0.120      331.204       -0.932      850.093
12/27/2021  02:51:00     -153.411       60.038      -10.493       70.921       57.341       33.772     5029.796     3288.032     1140.559        1.835        0.473      164.740       32.175        0.038      331.160       -1.006      850.080
12/27/2021  02:52:00     -249.094        4.359      -14.047       75.430       50.696       48.473     5689.718     2570.127     2349.652        3.643        0.530      249.132       33.521        0.018      331.154       -1.018      850.072
12/27/2021  02:53:00     -110.485       18.886      -17.316      120.112       67.868       39.566    14426.984     4606.115     1565.483        1.673        1.030      112.088       24.993        0.050      331.188       -0.958      850.085
12/27/2021  02:54:00     -166.505       36.236      -24.088      135.856       67.206       48.059    18456.849     4516.579     2309.692        2.745        1.264      170.403       32.521        0.036      331.213       -0.917      850.087
12/27/2021  02:55:00      -62.895       27.607       -1.159       53.720       66.038       33.117     2885.788     4360.985     1096.705        0.653        0.417       68.687       23.538        0.117      331.219       -0.905      850.099
12/27/2021  02:56:00      -26.075       15.362        6.724       59.350       36.342       29.193     3522.481     1320.750      852.227        0.333        0.285       30.264       24.268        0.643      331.270       -0.823      850.102
12/27/2021  02:57:00      -67.794       63.276        3.751       48.176       34.264       33.634     2320.937     1174.017     1131.277        0.662        0.231       92.736       28.327        0.093      331.229       -0.890      850.088
12/27/2021  02:58:00     -104.175       39.632       -3.291       56.406       47.388       26.469     3181.643     2245.579      700.618        0.928        0.306      111.459       18.328        0.027      331.210       -0.921      850.064
12/27/2021  02:59:00     -164.579       14.185      -11.931       50.876       45.755       25.629     2588.356     2093.551      656.841        1.638        0.267      165.189       12.552        0.006      331.238       -0.874      850.102
12/27/2021  03:00:00      -60.472      -61.662      -14.637       72.315       57.713       32.001     5229.400     3330.754     1024.033        0.863        0.479       86.366       27.951        0.105      331.311       -0.754      850.090
12/27/2021  03:01:00      -39.652       -6.975        2.414       58.980       36.103       24.794     3478.630     1303.432      614.736        0.351        0.270       40.261       27.928        0.481      331.317       -0.745      850.063
12/27/2021  03:02:00      -75.880      -45.918       -8.966       43.732       39.438       29.933     1912.499     1555.334      895.992        0.615        0.218       88.691       20.927        0.056      331.340       -0.707      850.056
12/27/2021  03:03:00      -33.727      -30.648        2.254       29.842       33.477       21.897      890.547     1120.703      479.495        0.229        0.125       45.572       13.270        0.085      331.402       -0.608      850.012
12/27/2021  03:04:00      -14.828       33.913       -3.609       31.497       45.648       34.574      992.071     2083.755     1195.348        0.283        0.214       37.013       20.280        0.300      331.397       -0.614      850.021
12/27/2021  03:05:00      -29.121       37.597       12.151       59.969       48.369       38.056     3596.303     2339.589     1448.234        0.490        0.369       47.556       17.502        0.135      331.350       -0.693      850.055
12/27/2021  03:06:00      -38.697      -35.308      -30.707       63.337       56.666       29.593     4011.581     3211.029      875.747        0.589        0.405       52.384       22.018        0.177      331.303       -0.770      850.015
12/27/2021  03:07:00      -29.725       -7.013      -13.659       45.245       47.919       29.438     2047.093     2296.238      866.621        0.316        0.260       30.541       11.024        0.130      331.341       -0.706      849.984
12/27/2021  03:08:00      -21.883       10.207       -4.948       35.754       24.532       16.313     1278.317      601.810      266.104        0.138        0.107       24.146       19.103        0.626      331.335       -0.718      849.956
12/27/2021  03:09:00      -20.491        9.055        0.060       26.740       29.725       25.114      715.053      883.558      630.703        0.137        0.111       22.402       16.217        0.524      331.361       -0.674      849.963
12/27/2021  03:10:00       10.932       53.278       -1.386       38.887       42.244       25.991     1512.198     1784.567      675.514        0.347        0.199       54.388       23.154        0.181      331.323       -0.736      849.982
12/27/2021  03:11:00      -32.750      -11.483      -24.607       43.365       43.410       19.300     1880.536     1884.430      372.490        0.297        0.207       34.705       24.032        0.480      331.307       -0.762      849.967
12/27/2021  03:12:00     -157.610       33.569      -20.189       69.760       58.743       43.248     4866.423     3450.704     1870.383        1.828        0.509      161.145       26.998        0.028      331.171       -0.988      849.973
12/27/2021  03:13:00      -32.717       55.760      -17.748       49.911       26.176       33.368     2491.139      685.203     1113.451        0.439        0.214       64.650       24.791        0.147      331.214       -0.913      849.974
12/27/2021  03:14:00      -48.260       86.254       -9.056       41.066       55.743       31.151     1686.422     3107.297      970.392        0.781        0.288       98.837       19.674        0.040      331.236       -0.879      849.933
12/27/2021  03:15:00      -53.747       87.109       -0.267       38.366       41.041       22.078     1471.954     1684.361      487.434        0.706        0.182      102.356       10.059        0.010      331.160       -1.007      849.881
12/27/2021  03:16:00     -103.986       40.737      -21.360       39.557       29.257       17.626     1564.732      855.955      310.674        0.783        0.137      111.681       13.671        0.015      331.210       -0.923      849.898
12/27/2021  03:17:00      -63.047        9.351       -7.213       46.107       39.573       17.998     2125.869     1566.056      323.922        0.406        0.201       63.737       12.077        0.036      331.252       -0.852      849.923
12/27/2021  03:18:00      -32.613      -22.445       -7.490       36.648       35.378       22.208     1343.081     1251.602      493.195        0.236        0.154       39.590       14.857        0.141      331.362       -0.672      849.903
12/27/2021  03:19:00      -35.581       42.404      -12.375       42.974       30.350       26.983     1846.803      921.139      728.092        0.336        0.175       55.354       21.093        0.145      331.221       -0.902      849.892
12/27/2021  03:20:00      -24.014      -28.722      -15.686       53.355       55.638       37.097     2846.710     3095.631     1376.188        0.448        0.366       37.438       31.710        0.717      331.329       -0.726      849.817
12/27/2021  03:21:00       22.435       -5.773       -3.166       18.942       24.642       18.343      358.814      607.245      336.482        0.092        0.065       23.166       10.338        0.199      331.319       -0.743      849.806
12/27/2021  03:22:00       53.795      -11.116        1.242       61.912       54.230       41.481     3833.035     2940.919     1720.699        0.576        0.425       54.932       33.801        0.379      331.221       -0.902      849.745
12/27/2021  03:23:00       79.675        7.147       -6.093       42.335       39.572       34.269     1792.250     1565.976     1174.374        0.548        0.227       79.994       18.904        0.056      331.163       -0.997      849.757
12/27/2021  03:24:00       10.877       60.021      -12.603       35.684       37.131       20.580     1273.373     1378.714      423.529        0.348        0.154       60.998       17.321        0.081      331.174       -0.979      849.763
12/27/2021  03:25:00      -27.604       20.813       -5.314       13.254       17.128       14.752      175.662      293.358      217.630        0.095        0.034       34.572        3.894        0.013      331.237       -0.876      849.725
12/27/2021  03:26:00        2.815        5.826       -5.252       24.622       17.782       11.963      606.263      316.194      143.102        0.057        0.053        6.471        9.308        2.069      331.298       -0.777      849.692
12/27/2021  03:27:00      -12.853       -5.794      -11.171       31.714       28.921       20.829     1005.793      836.397      433.859        0.130        0.114       14.098        8.822        0.392      331.349       -0.692      849.659
12/27/2021  03:28:00      -36.682      -66.448      -21.029       35.871       24.160       20.093     1286.760      583.729      403.729        0.424        0.114       75.901       16.516        0.047      331.282       -0.802      849.616
12/27/2021  03:29:00       40.161      -67.114      -12.450       46.370       52.866       38.878     2150.131     2794.848     1511.480        0.636        0.323       78.212       36.299        0.215      331.340       -0.709      849.615
12/27/2021  03:30:00      -23.989      -37.226       -9.424       47.309       34.662       26.206     2238.113     1201.486      686.756        0.309        0.206       44.286       14.051        0.101      331.354       -0.685      849.633
12/27/2021  03:31:00        8.784      -33.958      -14.317       39.746       26.732       22.388     1579.737      714.586      501.243        0.211        0.140       35.075       16.923        0.233      331.330       -0.724      849.635
12/27/2021  03:32:00        6.786      -34.332       -9.631       41.773       58.710       24.721     1744.957     3446.903      611.116        0.356        0.290       34.996       16.769        0.230      331.332       -0.722      849.651
12/27/2021  03:33:00      107.097      -69.126      -24.454       28.470       39.193       20.331      810.557     1536.081      413.340        0.980        0.138      127.468        8.608        0.005      331.146       -1.026      849.642
12/27/2021  03:34:00       80.249      -30.636      -13.964       61.347       57.010       39.540     3763.435     3250.184     1563.409        0.807        0.429       85.898       43.053        0.251      331.184       -0.963      849.548
12/27/2021  03:35:00        8.946       -7.441      -16.211       47.704       44.028       26.263     2275.656     1938.485      689.754        0.265        0.245       11.636       18.391        2.498      331.227       -0.893      849.514
12/27/2021  03:36:00       51.087       10.743      -10.738       44.698       36.461       33.644     1997.940     1329.428     1131.906        0.365        0.223       52.204       25.199        0.233      331.070       -1.152      849.517
12/27/2021  03:37:00       66.791        2.382       -0.506       38.418       27.722       17.793     1475.904      768.519      316.596        0.351        0.128       66.833       16.998        0.065      330.974       -1.310      849.522
12/27/2021  03:38:00       62.435       34.416      -21.243       45.902       42.693       24.069     2107.038     1822.686      579.340        0.502        0.225       71.292       25.386        0.127      330.998       -1.270      849.492
12/27/2021  03:39:00       74.350       46.234      -21.555       21.226       27.501       16.555      450.561      756.314      274.060        0.481        0.074       87.553       11.384        0.017      330.978       -1.303      849.448
12/27/2021  03:40:00       89.576       45.220       -6.139       24.213       26.899       16.221      586.278      723.536      263.131        0.584        0.079      100.343       11.231        0.013      330.956       -1.340      849.416
12/27/2021  03:41:00       62.531        8.561       -8.322       41.416       31.560       20.988     1715.289      996.055      440.487        0.360        0.158       63.115       20.449        0.105      331.006       -1.257      849.411
12/27/2021  03:42:00       70.889       25.280       -9.146       14.309       17.359        9.180      204.737      301.337       84.277        0.317        0.030       75.262        4.424        0.003      330.964       -1.328      849.411
12/27/2021  03:43:00      118.119        2.924      -15.945       47.686       43.251       27.254     2273.935     1870.607      742.756        0.955        0.244      118.155       18.446        0.024      330.996       -1.277      849.371
12/27/2021  03:44:00      111.012       14.700      -18.208       37.142       40.781       25.147     1379.564     1663.071      632.371        0.827        0.184      111.981       18.018        0.026      330.915       -1.409      849.365
12/27/2021  03:45:00       73.026       17.500      -14.982       32.946       26.681       17.379     1085.422      711.870      302.038        0.398        0.105       75.094       14.354        0.037      330.915       -1.409      849.392
12/27/2021  03:46:00       26.947       27.577       -0.989       32.786       23.478       14.449     1074.931      551.209      208.775        0.166        0.092       38.557       11.886        0.095      330.948       -1.353      849.410
12/27/2021  03:47:00       21.056       -3.263      -11.629       17.438       18.606       11.985      304.093      346.176      143.633        0.069        0.040       21.307        9.547        0.201      331.054       -1.179      849.426
12/27/2021  03:48:00       51.634      -63.910      -10.339       64.203       65.635       23.834     4122.060     4307.922      568.065        0.793        0.450       82.162       15.307        0.035      331.148       -1.024      849.455
12/27/2021  03:49:00       64.662      -75.174      -47.307       30.495       39.104       23.081      929.938     1529.089      532.736        0.753        0.150       99.158        8.809        0.008      331.178       -0.975      849.450
12/27/2021  03:50:00       65.983      -95.115      -27.373       32.914       51.208       31.444     1083.311     2622.248      988.756        0.942        0.235      115.761       21.056        0.033      331.044       -1.195      849.451
12/27/2021  03:51:00       55.094     -131.243      -33.179       33.602       74.023       31.447     1129.106     5479.428      988.904        1.448        0.380      142.338       23.573        0.027      331.098       -1.106      849.433
12/27/2021  03:52:00       39.013      -50.263      -28.442       57.330       51.029       29.178     3286.693     2603.997      851.340        0.580        0.337       63.627       26.048        0.168      331.126       -1.058      849.369
12/27/2021  03:53:00       53.988       -0.973      -14.783       58.572       78.485       48.049     3430.693     6159.859     2308.678        0.751        0.595       53.997       35.944        0.443      331.170       -0.988      849.295
12/27/2021  03:54:00       17.285      -39.261      -14.177       57.360       47.833       32.315     3290.142     2287.952     1044.273        0.433        0.331       42.897       23.413        0.298      331.180       -0.970      849.282
12/27/2021  03:55:00      105.885     -158.249      -46.054       58.251       91.893       39.968     3393.209     8444.297     1597.414        2.590        0.672      190.406       26.843        0.020      331.061       -1.170      849.318
12/27/2021  03:56:00       73.777     -130.941      -28.756       50.546       61.425       35.002     2554.896     3773.010     1225.161        1.548        0.378      150.295       32.969        0.048      331.064       -1.162      849.307
12/27/2021  03:57:00       55.864      -59.850      -22.420       46.395       64.348       30.884     2152.491     4140.711      953.838        0.722        0.362       81.870       24.799        0.092      331.077       -1.141      849.320
12/27/2021  03:58:00       21.507      -57.763      -15.185       43.447       49.647       30.576     1887.630     2464.780      934.869        0.466        0.264       61.637       19.767        0.103      331.153       -1.014      849.344
12/27/2021  03:59:00      141.510     -261.026      -55.649       62.344       63.099       35.514     3886.774     3981.509     1261.242        5.019        0.456      296.917       42.282        0.020      331.006       -1.259      849.388
12/27/2021  04:00:00      165.139     -206.612      -63.332       48.467       67.496       32.489     2349.058     4555.672     1055.559        4.096        0.398      264.498       27.736        0.011      331.017       -1.243      849.347
12/27/2021  04:01:00       85.490     -124.837      -30.918       46.370       43.129       28.598     2150.173     1860.096      817.829        1.434        0.241      151.304       22.322        0.022      331.027       -1.221      849.318
12/27/2021  04:02:00       45.668      -74.433      -28.865       46.054       42.016       32.676     2120.939     1765.320     1067.699        0.671        0.248       87.326       33.971        0.151      331.273       -0.819      849.295
12/27/2021  04:03:00       -0.458        0.829       -5.464        9.009       18.637        9.413       81.161      347.320       88.598        0.027        0.026        0.947        9.227       94.910      331.097       -1.110      849.297
12/27/2021  04:04:00       36.010      -58.021      -29.029       32.607       52.155       16.824     1063.210     2720.149      283.057        0.479        0.203       68.287       19.819        0.084      331.185       -0.963      849.333
12/27/2021  04:05:00       52.487      -65.903      -34.289       70.581       77.017       41.691     4981.743     5931.573     1738.128        1.046        0.633       84.250       33.688        0.160      331.115       -1.078      849.375
12/27/2021  04:06:00      -21.551      -20.021      -22.621       54.167       40.767       29.544     2934.108     1661.921      872.826        0.342        0.273       29.415       20.644        0.493      331.200       -0.937      849.360
12/27/2021  04:07:00       42.235     -113.633      -31.015       85.291       66.679       30.571     7274.566     4446.043      934.583        1.415        0.633      121.228       31.227        0.066      331.114       -1.079      849.315
12/27/2021  04:08:00        7.375      -49.113      -15.057       32.758       56.970       29.956     1073.089     3245.544      897.373        0.395        0.261       49.664       29.943        0.364      331.333       -0.719      849.322
12/27/2021  04:09:00       70.424     -128.166      -29.645       62.487       74.584       30.184     3904.665     5562.803      911.067        1.632        0.519      146.239       35.660        0.059      331.089       -1.122      849.356
12/27/2021  04:10:00       19.410       -3.651      -15.109       60.811       49.178       32.703     3698.015     2418.493     1069.499        0.390        0.359       19.750       25.630        1.684      331.197       -0.943      849.359
12/27/2021  04:11:00       21.015      -65.275      -10.284       44.006       62.561       31.273     1936.552     3913.830      977.975        0.582        0.341       68.574       21.370        0.097      331.233       -0.882      849.375
12/27/2021  04:12:00       45.592      -87.553      -43.121      102.575       86.994       49.553    10521.585     7567.886     2455.535        1.607        1.027       98.712       42.369        0.184      331.070       -1.154      849.354
12/27/2021  04:13:00      -39.498      -22.998      -15.802       71.127       31.743       29.501     5059.021     1007.644      870.297        0.464        0.347       45.706       18.694        0.167      331.111       -1.086      849.319
12/27/2021  04:14:00       -5.682        5.494        4.623       25.318       31.204       22.967      641.023      973.665      527.495        0.111        0.107        7.904       16.286        4.246      331.130       -1.053      849.229
12/27/2021  04:15:00      -31.667       17.164        1.532       24.474       27.064       18.193      598.989      732.460      330.991        0.148        0.083       36.019       16.111        0.200      331.101       -1.100      849.164
12/27/2021  04:16:00       27.450      -31.901      -13.911       45.696       53.831       27.407     2088.092     2897.762      751.119        0.385        0.287       42.086       19.964        0.225      331.095       -1.110      849.125
12/27/2021  04:17:00       58.434     -119.650      -32.862       63.465       42.843       28.571     4027.820     1835.518      816.287        1.274        0.334      133.156       21.624        0.026      331.022       -1.232      849.114
12/27/2021  04:18:00      -19.750      -49.838      -24.718       44.560       36.970       22.592     1985.591     1366.765      510.418        0.367        0.193       53.609       14.179        0.070      331.172       -0.985      849.140
12/27/2021  04:19:00      100.157     -163.914      -42.222       52.255       51.563       33.378     2730.565     2658.793     1114.068        2.259        0.325      192.091       29.905        0.024      330.988       -1.290      849.157
12/27/2021  04:20:00       87.194      -95.795      -40.446       62.065       85.941       37.502     3852.111     7385.849     1406.375        1.553        0.632      129.535       36.187        0.078      331.016       -1.242      849.105
12/27/2021  04:21:00      -19.146      -45.020      -28.507       43.808       51.241       24.107     1919.176     2625.605      581.165        0.417        0.256       48.922       21.913        0.201      331.072       -1.149      849.137
12/27/2021  04:22:00      -24.389       33.916      -21.035       19.862       25.996       17.400      394.506      675.780      302.764        0.178        0.069       41.774       12.101        0.084      331.099       -1.103      849.161
12/27/2021  04:23:00        1.089       16.325      -18.983       22.044       15.781       13.072      485.946      249.054      170.887        0.077        0.045       16.361        8.341        0.260      331.086       -1.125      849.108
12/27/2021  04:24:00       40.786      -32.274      -17.048       25.781       30.192       17.940      664.645      911.574      321.834        0.245        0.095       52.011       13.089        0.063      331.050       -1.186      849.061
12/27/2021  04:25:00      -23.409      -25.459       -5.696       22.547       20.577       15.471      508.366      423.423      239.351        0.120        0.059       34.585       11.228        0.105      331.094       -1.112      849.043
12/27/2021  04:26:00       -0.347       -1.002       -8.002       12.466       18.870       12.044      155.403      356.074      145.067        0.036        0.033        1.061       10.079       90.326      331.162       -1.000      849.041
12/27/2021  04:27:00       48.138      -60.666      -20.526       35.915       54.599       17.571     1289.866     2981.045      308.755        0.550        0.229       77.444       18.285        0.056      331.029       -1.221      849.017
12/27/2021  04:28:00       47.253      -11.239      -19.992       35.989       51.754       27.510     1295.207     2678.492      756.794        0.374        0.237       48.571       18.661        0.148      331.114       -1.080      848.954
12/27/2021  04:29:00       44.557       16.421      -22.348       32.641       52.033       28.149     1065.408     2707.404      792.386        0.366        0.228       47.487       13.009        0.075      331.071       -1.151      848.887
12/27/2021  04:30:00       19.682      -12.510       -0.509       40.065       33.925       14.720     1605.212     1150.904      216.673        0.176        0.149       23.322       10.882        0.218      331.033       -1.214      848.941
12/27/2021  04:31:00       20.915        1.434       -6.417       26.157       33.451       26.182      684.181     1118.981      685.516        0.148        0.124       20.965       21.079        1.011      331.074       -1.144      848.991
12/27/2021  04:32:00       19.381       16.765       -3.817       35.979       27.250       19.057     1294.488      742.565      363.164        0.154        0.120       25.626       15.373        0.360      331.014       -1.243      849.021
12/27/2021  04:33:00       30.551       -0.265        0.012       15.849       16.794       18.832      251.182      282.025      354.657        0.091        0.044       30.552       10.046        0.108      330.945       -1.359      849.082
12/27/2021  04:34:00       65.663        7.085       -5.615       36.822       21.292       16.140     1355.882      453.336      260.489        0.323        0.103       66.044       14.172        0.046      330.918       -1.403      849.042
12/27/2021  04:35:00       96.160       23.570      -11.961       24.290       18.571       14.980      589.999      344.892      224.395        0.555        0.058       99.007       13.175        0.018      330.882       -1.461      848.991
12/27/2021  04:36:00       67.643       26.792      -10.080       16.750       16.006        9.851      280.563      256.178       97.046        0.301        0.032       72.756        4.375        0.004      330.861       -1.495      849.022
12/27/2021  04:37:00      101.999       36.777      -12.449       17.460       15.130       10.257      304.857      228.902      105.196        0.628        0.032      108.427        5.869        0.003      330.868       -1.483      848.980
12/27/2021  04:38:00      135.972       18.390      -11.150       16.603       13.591       17.066      275.656      184.720      291.234        0.985        0.038      137.210        8.778        0.004      330.862       -1.493      848.913
12/27/2021  04:39:00      109.422      -20.866       -9.787       34.232       25.571       21.015     1171.860      653.891      441.647        0.739        0.113      111.394        7.631        0.005      330.903       -1.426      848.906
12/27/2021  04:40:00       72.541      -15.813       -9.844       27.070       31.676       19.993      732.805     1003.371      399.713        0.387        0.107       74.245       12.155        0.027      330.939       -1.367      848.910
12/27/2021  04:41:00      116.155       40.229      -14.005       23.877       23.528       15.161      570.106      553.568      229.860        0.833        0.068      122.924        8.799        0.005      330.884       -1.456      848.902
12/27/2021  04:42:00      101.232       34.750      -25.306       38.580       45.765       28.347     1488.399     2094.419      803.573        0.824        0.219      107.030       15.205        0.020      331.065       -1.160      848.875
12/27/2021  04:43:00       69.044       29.126      -57.459       50.530       72.159       35.619     2553.299     5206.940     1268.699        0.897        0.451       74.936       30.876        0.170      331.154       -1.014      848.873
12/27/2021  04:44:00       -1.974      -62.526      -24.144       44.190       65.562       26.616     1952.783     4298.344      708.395        0.573        0.348       62.557       22.443        0.129      331.283       -0.802      848.851
12/27/2021  04:45:00       19.692     -121.941      -22.664       24.023       31.166       25.968      577.118      971.298      674.345        0.900        0.111      123.520       10.120        0.007      331.097       -1.108      848.846
12/27/2021  04:46:00       43.485     -120.233      -27.043       28.404       45.549       26.669      806.764     2074.731      711.239        1.033        0.180      127.855       22.046        0.030      331.125       -1.061      848.817
12/27/2021  04:47:00      119.164       20.410      -25.481       65.155       57.358       28.549     4245.150     3289.940      815.059        1.181        0.418      120.899       18.739        0.024      331.062       -1.166      848.792
12/27/2021  04:48:00      134.285       22.281      -29.986       27.178       27.300       20.592      738.670      745.314      424.022        1.067        0.095      136.121       12.764        0.009      331.013       -1.245      848.809
12/27/2021  04:49:00       86.637       19.743      -21.364       12.627       12.788        9.100      159.452      163.534       82.806        0.438        0.020       88.858        4.293        0.002      330.996       -1.274      848.829
12/27/2021  04:50:00      102.161       34.127      -14.952       27.707       24.648       15.162      767.678      607.534      229.893        0.671        0.080      107.711        8.990        0.007      330.981       -1.302      848.851
12/27/2021  04:51:00       53.662      -13.445      -13.702       50.171       34.302       24.665     2517.124     1176.658      608.377        0.377        0.215       55.321       25.704        0.216      331.086       -1.126      848.873
12/27/2021  04:52:00       62.278       32.561       -6.947       28.513       45.167       20.862      812.988     2040.103      435.209        0.414        0.164       70.276       17.081        0.059      331.115       -1.078      848.869
12/27/2021  04:53:00       50.933        8.727      -30.607       40.548       54.282       28.416     1644.140     2946.483      807.475        0.450        0.270       51.675       21.199        0.168      331.117       -1.075      848.851
12/27/2021  04:54:00       43.885       22.296       -6.668       43.015       53.311       36.978     1850.270     2842.073     1367.371        0.426        0.303       49.224       18.908        0.148      331.136       -1.042      848.834
12/27/2021  04:55:00       45.882        4.920      -19.031       43.984       51.252       35.629     1934.571     2626.784     1269.435        0.416        0.292       46.145       24.976        0.293      331.094       -1.113      848.825
12/27/2021  04:56:00        6.981        5.119        3.066       21.848       28.724       27.625      477.355      825.071      763.155        0.107        0.103        8.657       13.761        2.527      331.132       -1.048      848.807
12/27/2021  04:57:00       10.173       -4.697       10.054       36.375       39.400       33.173     1323.173     1552.343     1100.437        0.210        0.199       11.205       25.406        5.141      331.074       -1.145      848.780
12/27/2021  04:58:00       34.549       18.059       -5.083       38.750       44.527       25.148     1501.527     1982.642      632.416        0.283        0.206       38.984       18.571        0.227      331.100       -1.103      848.820
12/27/2021  04:59:00      -13.823      -48.153      -15.793       20.572       21.729       20.467      423.193      472.162      418.897        0.204        0.066       50.098        5.026        0.010      331.070       -1.150      848.859
12/27/2021  05:00:00      -12.732       -2.684       -2.422       24.158       33.044       10.331      583.627     1091.910      106.730        0.098        0.089       13.012        6.409        0.243      331.050       -1.185      848.831
12/27/2021  05:01:00      -23.773      -39.388       -8.887       22.905       31.465       13.690      524.617      990.022      187.409        0.195        0.085       46.007       13.213        0.082      331.067       -1.156      848.808
12/27/2021  05:02:00       -0.402      -43.905      -13.173       17.626       24.038       14.780      310.672      577.834      218.441        0.160        0.055       43.906        3.154        0.005      331.120       -1.069      848.800
12/27/2021  05:03:00       28.387      -44.936      -13.882       36.524       49.715       18.290     1333.979     2471.614      334.541        0.358        0.207       53.151       21.547        0.164      331.107       -1.091      848.785
12/27/2021  05:04:00       65.244      -87.915      -27.552       27.572       39.723       24.421      760.215     1577.913      596.373        0.784        0.147      109.480       19.480        0.032      331.087       -1.124      848.805
12/27/2021  05:05:00       80.132      -91.488      -22.448       39.289       39.793       27.816     1543.627     1583.476      773.720        0.960        0.195      121.620       25.370        0.044      331.084       -1.130      848.804
12/27/2021  05:06:00       68.051     -113.084      -24.511       45.076       39.708       35.977     2031.808     1576.737     1294.335        1.146        0.245      131.981       28.323        0.046      331.077       -1.141      848.795
12/27/2021  05:07:00       87.662     -126.717      -38.698       45.287       54.721       30.088     2050.885     2994.416      905.283        1.559        0.298      154.084       29.597        0.037      331.052       -1.183      848.771
12/27/2021  05:08:00      115.008     -167.048      -46.416       27.582       35.311       20.426      760.748     1246.848      417.233        2.286        0.121      202.810       15.133        0.006      330.939       -1.368      848.765
12/27/2021  05:09:00      111.014     -167.472      -43.316       25.226       30.711       15.935      636.343      943.171      253.922        2.204        0.092      200.926       12.293        0.004      330.985       -1.293      848.741
12/27/2021  05:10:00      101.306      -62.602      -22.957       42.196       42.402       26.725     1780.476     1797.947      714.251        0.950        0.215      119.088       22.736        0.036      331.001       -1.267      848.720
12/27/2021  05:11:00      109.045     -139.278      -37.283       35.209       35.023       21.678     1239.707     1226.645      469.942        1.781        0.147      176.888       17.013        0.009      330.966       -1.323      848.704
12/27/2021  05:12:00       74.306     -125.559      -30.010       45.577       47.188       25.572     2077.248     2226.716      653.923        1.357        0.248      145.899       21.137        0.021      331.035       -1.209      848.689
12/27/2021  05:13:00      100.837      -93.710      -27.308       39.385       48.094       26.298     1551.215     2313.019      691.596        1.212        0.228      137.657       21.898        0.025      331.034       -1.210      848.660
12/27/2021  05:14:00       57.039      -97.695      -20.746       30.905       37.397       25.525      955.115     1398.563      651.529        0.812        0.150      113.128       10.843        0.009      331.047       -1.188      848.677
12/27/2021  05:15:00       16.610      -37.864      -13.113       23.741       30.621       19.937      563.652      937.673      397.472        0.189        0.095       41.347       14.943        0.131      331.135       -1.044      848.709
12/27/2021  05:16:00       37.262      -43.427      -15.959       25.503       48.857       27.333      650.418     2387.017      747.094        0.366        0.189       57.222       29.237        0.261      331.095       -1.112      848.705
12/27/2021  05:17:00       78.561     -109.830      -38.730       40.008       70.042       27.112     1600.633     4905.858      735.063        1.349        0.362      135.035        9.578        0.005      331.019       -1.236      848.687
12/27/2021  05:18:00       84.471     -122.694      -29.001       45.155       50.556       25.239     2038.999     2555.893      636.983        1.413        0.262      148.960       19.675        0.017      331.025       -1.227      848.745
12/27/2021  05:19:00       96.311      -93.393      -32.652       50.627       60.718       33.865     2563.066     3686.724     1146.866        1.323        0.370      134.157       26.189        0.038      331.023       -1.231      848.754
12/27/2021  05:20:00       86.282     -111.014      -38.068       57.384       60.886       31.237     3292.910     3707.055      975.748        1.460        0.399      140.601       16.534        0.014      331.016       -1.241      848.728
12/27/2021  05:21:00       92.245     -144.274      -39.260       31.521       49.837       27.009      993.598     2483.686      729.488        1.754        0.210      171.243       23.482        0.019      331.001       -1.265      848.736
12/27/2021  05:22:00       87.008      -98.613      -32.513       48.740       60.697       37.595     2375.596     3684.184     1413.364        1.291        0.374      131.510       23.891        0.033      331.047       -1.191      848.783
12/27/2021  05:23:00       89.179      -80.296      -33.990       57.455       58.707       33.989     3301.098     3446.548     1155.219        1.173        0.395      120.002       33.771        0.079      330.957       -1.339      848.808
12/27/2021  05:24:00      102.811     -150.561      -35.892       32.030       38.500       24.708     1025.904     1482.266      610.495        1.882        0.156      182.315       18.175        0.010      330.883       -1.459      848.831
12/27/2021  05:25:00       84.573     -114.200      -40.625       48.041       36.890       24.468     2307.937     1360.869      598.662        1.306        0.213      142.107       10.841        0.006      330.962       -1.330      848.848
12/27/2021  05:26:00       50.914      -40.701      -29.316       30.841       60.424       26.135      951.192     3651.077      683.041        0.520        0.264       65.183       23.866        0.134      330.944       -1.358      848.865
12/27/2021  05:27:00       78.210      -94.459      -26.183       43.075       52.917       25.770     1855.492     2800.193      664.091        1.052        0.266      122.635       26.171        0.046      330.906       -1.422      848.874
12/27/2021  05:28:00      108.018     -109.361      -32.523       46.530       78.990       43.472     2165.079     6239.477     1889.835        1.749        0.515      153.713       33.800        0.048      330.876       -1.471      848.833
12/27/2021  05:29:00      128.783     -176.917      -53.828       53.411       52.139       25.604     2852.734     2718.522      655.540        2.850        0.311      218.825       19.649        0.008      330.874       -1.477      848.829
12/27/2021  05:30:00       78.642     -147.585      -36.123       40.181       50.470       22.223     1614.511     2547.214      493.877        1.696        0.233      167.230       12.981        0.006      330.913       -1.411      848.858
12/27/2021  05:31:00       95.132      -68.531      -26.060       50.515       55.664       31.166     2551.795     3098.477      971.343        1.052        0.331      117.246       28.875        0.061      330.860       -1.495      848.852
12/27/2021  05:32:00       57.784     -128.600      -27.108       40.146       55.567       27.062     1611.740     3087.650      732.339        1.302        0.272      140.985       25.699        0.033      330.907       -1.420      848.811
12/27/2021  05:33:00      118.585     -133.600      -40.952       39.438       45.858       31.573     1555.321     2102.923      996.864        1.912        0.233      178.638       26.567        0.022      330.890       -1.447      848.810
12/27/2021  05:34:00      105.778     -107.197      -35.262       38.478       66.062       26.610     1480.526     4364.216      708.114        1.524        0.328      150.599       13.682        0.008      330.891       -1.448      848.829
12/27/2021  05:35:00       89.117     -108.654      -39.101       32.517       75.263       20.384     1057.333     5664.473      415.509        1.421        0.357      140.526       18.672        0.018      330.901       -1.429      848.843
12/27/2021  05:36:00       49.207       -8.431      -10.467       38.708       44.763       34.591     1498.315     2003.739     1196.546        0.365        0.235       49.924       22.199        0.198      330.959       -1.336      848.834
12/27/2021  05:37:00       49.614       -4.850       -8.853       43.157       36.215       28.256     1862.529     1311.552      798.425        0.327        0.199       49.851       21.856        0.192      330.891       -1.446      848.841
12/27/2021  05:38:00       36.730        3.981       -8.887       38.426       32.854       26.535     1476.532     1079.365      704.127        0.235        0.163       36.945       22.304        0.364      330.928       -1.385      848.862
12/27/2021  05:39:00       59.286        2.431      -10.036       29.483       25.641       15.986      869.243      657.478      255.543        0.270        0.089       59.336       12.022        0.041      330.854       -1.508      848.884
12/27/2021  05:40:00       56.631       -1.327       -8.315       38.595       29.357       23.138     1489.582      861.861      535.346        0.308        0.144       56.646       14.275        0.064      330.836       -1.536      848.890
12/27/2021  05:41:00       56.024        6.944       -4.875       23.084       15.508       13.224      532.890      240.496      174.881        0.208        0.047       56.453        7.895        0.020      330.753       -1.672      848.931
12/27/2021  05:42:00      108.885       13.481      -12.341       21.309       14.711       12.297      454.089      216.400      151.215        0.651        0.041      109.716        7.480        0.005      330.766       -1.653      848.941
12/27/2021  05:43:00      116.126        9.810      -13.065       42.449       27.687       24.173     1801.939      766.553      584.334        0.845        0.158      116.540       16.935        0.021      330.777       -1.632      848.911
12/27/2021  05:44:00      120.183       10.649      -23.364       39.720       27.935       21.534     1577.689      780.359      463.713        0.896        0.141      120.654        6.841        0.003      330.774       -1.636      848.906
12/27/2021  05:45:00       99.485       53.815      -18.937       20.420       18.299       18.383      416.991      334.862      337.924        0.712        0.054      113.108       10.574        0.009      330.815       -1.570      848.942
12/27/2021  05:46:00       77.893       51.983      -21.897       18.014       17.779       16.940      324.516      316.098      286.971        0.509        0.046       93.646       11.437        0.015      330.786       -1.618      849.026
12/27/2021  05:47:00      100.904       16.763      -15.019       27.423       23.109       17.408      752.010      534.024      303.022        0.614        0.079      102.287       11.873        0.013      330.806       -1.586      849.015
12/27/2021  05:48:00      117.377       39.196      -11.094       36.133       27.856       21.753     1305.593      775.939      473.186        0.900        0.128      123.748       17.684        0.020      330.797       -1.598      848.969
12/27/2021  05:49:00      109.675       18.303      -13.279       28.708       32.000       19.981      824.141     1023.998      399.228        0.739        0.112      111.192        9.177        0.007      330.834       -1.539      848.979
12/27/2021  05:50:00       74.676       39.168      -14.303       40.276       19.942       18.950     1622.140      397.665      359.121        0.485        0.119       84.325       10.586        0.016      330.795       -1.605      848.977
12/27/2021  05:51:00       15.421       81.380       -8.416       36.156       30.573       15.376     1307.225      934.708      236.429        0.470        0.124       82.828       11.349        0.019      330.958       -1.336      848.997
12/27/2021  05:52:00      -39.504      139.847      -18.335       32.746       38.752       20.599     1072.299     1501.704      424.331        1.223        0.150      145.319       11.762        0.007      330.873       -1.477      848.952
12/27/2021  05:53:00      -44.021       96.887      -13.991       33.947       43.530       27.703     1152.389     1894.870      767.451        0.767        0.191      106.418       16.614        0.024      330.950       -1.350      848.996
12/27/2021  05:54:00       -0.321      128.035       -7.453       31.324       40.908       24.389      981.198     1673.491      594.801        0.985        0.162      128.035       27.534        0.046      330.839       -1.532      849.008
12/27/2021  05:55:00       47.744       74.443       -9.459       37.753       37.415       18.763     1425.261     1399.918      352.044        0.554        0.159       88.438       18.287        0.043      330.968       -1.320      848.989
12/27/2021  05:56:00       85.091       58.305      -24.271       20.321       16.515       19.160      412.936      272.731      367.087        0.614        0.053      103.150        6.273        0.004      330.848       -1.515      848.953
12/27/2021  05:57:00       61.210       32.265      -11.321       44.520       40.142       29.444     1982.023     1611.372      866.923        0.469        0.223       69.193       14.803        0.046      330.943       -1.359      848.961
12/27/2021  05:58:00       94.177       47.124      -15.729       19.810       27.086       17.830      392.418      733.638      317.919        0.639        0.072      105.309        5.380        0.003      330.767       -1.651      848.965
12/27/2021  05:59:00       63.741       14.481      -11.430       29.218       17.940       15.192      853.681      321.848      230.795        0.290        0.070       65.365        8.441        0.017      330.763       -1.656      848.916
12/27/2021  06:00:00        1.605       14.607       -6.778       17.158       14.787       16.019      294.385      218.659      256.619        0.052        0.038       14.695       11.050        0.565      330.798       -1.597      848.965
12/27/2021  06:01:00       79.262       40.864      -11.710       47.427       23.278       11.590     2249.357      541.883      134.336        0.551        0.146       89.176       14.078        0.025      330.847       -1.517      848.956
12/27/2021  06:02:00      111.038       40.952      -15.897       28.093       33.107       23.973      789.233     1096.101      574.725        0.836        0.123      118.349       13.980        0.014      330.861       -1.496      848.932
12/27/2021  06:03:00       63.494        2.958      -15.287       37.053       36.874       14.743     1372.933     1359.685      217.358        0.361        0.147       63.563        9.746        0.024      330.871       -1.477      848.982
12/27/2021  06:04:00        8.556      -22.784      -19.214       29.487       27.560       16.637      869.497      759.554      276.784        0.143        0.095       24.338        9.539        0.154      330.924       -1.391      848.995
12/27/2021  06:05:00       17.110      -81.643      -32.291       44.617       34.959       17.958     1990.673     1222.097      322.504        0.577        0.177       83.416        5.294        0.004      331.094       -1.112      849.019
12/27/2021  06:06:00       75.898      -94.984      -26.796       41.649       38.323       28.566     1734.642     1468.628      816.011        0.976        0.201      121.583       26.905        0.049      331.089       -1.120      849.023
12/27/2021  06:07:00       66.182       15.234      -25.363       44.636       64.289       30.234     1992.360     4133.112      914.069        0.615        0.352       67.913       15.868        0.055      331.169       -0.990      849.020
12/27/2021  06:08:00       22.222      -38.153      -14.837       41.607       52.524       32.724     1731.124     2758.768     1070.841        0.386        0.278       44.153       30.939        0.491      331.178       -0.975      849.027
12/27/2021  06:09:00       76.033       -2.573      -24.847       36.728       27.026       16.197     1348.966      730.390      262.349        0.437        0.117       76.076        7.792        0.010      331.103       -1.097      849.047
12/27/2021  06:10:00       47.705       13.506      -11.679       37.851       49.041       24.905     1432.711     2404.996      620.269        0.353        0.223       49.580       23.948        0.233      331.092       -1.116      849.024
12/27/2021  06:11:00      -40.112       35.219       -1.158       21.504       23.054       15.426      462.405      531.490      237.967        0.204        0.062       53.380       15.369        0.083      330.943       -1.361      849.031
12/27/2021  06:12:00       15.574       39.584      -11.939       57.483       20.929       11.534     3304.265      438.006      133.042        0.291        0.194       42.537        6.978        0.027      330.950       -1.351      849.059
12/27/2021  06:13:00       41.837       -4.037      -18.531       34.235       49.070       23.717     1172.016     2407.854      562.507        0.313        0.207       42.031       16.689        0.158      330.968       -1.319      849.031
12/27/2021  06:14:00       17.803        3.534       -9.127       34.307       37.310       29.535     1176.945     1392.039      872.334        0.193        0.172       18.150       22.211        1.498      330.952       -1.347      849.011
12/27/2021  06:15:00        0.210        2.890       -0.344       25.776       28.349       15.099      664.385      803.665      227.972        0.085        0.085        2.897       10.556       13.274      331.010       -1.252      849.031
12/27/2021  06:16:00       48.555       40.014      -11.120       16.262       16.432       11.415      264.463      270.003      130.297        0.237        0.033       62.918        8.819        0.020      330.835       -1.537      849.013
12/27/2021  06:17:00       53.997       44.520      -13.186       31.024       25.692       22.692      962.463      660.054      514.924        0.360        0.107       69.983       14.371        0.042      330.927       -1.387      848.952
12/27/2021  06:18:00       18.703       21.335        0.955       21.814       21.223       16.385      475.861      450.430      268.461        0.100        0.060       28.372       12.009        0.179      330.925       -1.390      848.977
12/27/2021  06:19:00       30.795       25.111      -13.869       19.482       15.322       14.782      379.529      234.771      218.507        0.130        0.042       39.735       11.217        0.080      330.948       -1.354      848.998
12/27/2021  06:20:00       54.027        9.915      -13.854       23.812       20.426        9.615      567.024      417.215       92.440        0.214        0.054       54.929        4.285        0.006      330.874       -1.473      848.960
12/27/2021  06:21:00       20.949       16.105       -8.981       20.586       22.639       17.336      423.792      512.502      300.553        0.101        0.062       26.424       12.560        0.226      330.956       -1.340      848.965
12/27/2021  06:22:00       51.801      -80.124      -21.535       34.834       25.049       19.219     1213.382      627.443      369.360        0.589        0.111       95.411       16.323        0.029      331.025       -1.227      848.999
12/27/2021  06:23:00       61.164     -106.662      -25.822       29.884       39.127       21.138      893.075     1530.917      446.826        0.933        0.144      122.954        7.922        0.004      331.002       -1.265      848.976
12/27/2021  06:24:00       60.324      -66.469      -33.149       43.334       61.516       27.432     1877.849     3784.258      752.498        0.778        0.321       89.761        8.177        0.008      330.989       -1.286      848.963
12/27/2021  06:25:00       83.125      -18.586      -33.372       64.513       69.244       46.082     4161.943     4794.733     2123.520        0.972        0.554       85.177       27.975        0.108      331.000       -1.268      848.892
12/27/2021  06:26:00       28.911        8.447       -0.646       43.499       42.999       38.885     1892.161     1848.913     1512.028        0.308        0.263       30.120       28.685        0.907      331.025       -1.227      848.936
12/27/2021  06:27:00       58.797      -48.297      -30.246       41.659       49.040       35.722     1735.485     2404.962     1276.060        0.606        0.271       76.090       20.015        0.069      331.068       -1.154      848.969
12/27/2021  06:28:00       57.698      -22.027      -23.023       51.420       52.672       43.900     2644.041     2774.303     1927.218        0.584        0.367       61.759       31.214        0.255      331.242       -0.868      848.945
12/27/2021  06:29:00       86.578       -2.470      -26.295       67.296       71.890       44.482     4528.685     5168.187     1978.640        0.993        0.584       86.613       31.477        0.132      331.062       -1.166      848.930
12/27/2021  06:30:00      126.904      -46.782      -15.822       59.572       37.842       31.830     3548.813     1432.024     1013.137        1.227        0.300      135.253       26.296        0.038      330.930       -1.383      848.976
12/27/2021  06:31:00       92.137      -22.799       -3.052       63.681       35.100       38.328     4055.235     1231.977     1469.058        0.789        0.338       94.916       40.218        0.180      330.954       -1.344      849.019
12/27/2021  06:32:00       80.127       -5.293        1.705       75.587       40.728       42.462     5713.409     1658.775     1803.006        0.781        0.459       80.301       43.570        0.294      330.967       -1.322      849.055
12/27/2021  06:33:00       50.088        2.977        7.826       53.876       38.389       41.169     2902.667     1473.732     1694.879        0.432        0.304       50.176       38.238        0.581      331.004       -1.259      849.087
12/27/2021  06:34:00       55.291        2.056      -14.833       47.123       44.565       39.287     2220.614     1986.041     1543.437        0.451        0.288       55.330       23.511        0.181      330.977       -1.305      849.119
12/27/2021  06:35:00       38.795       -8.499        2.742       51.981       60.753       34.583     2701.976     3690.979     1195.960        0.459        0.379       39.715       21.940        0.305      331.079       -1.138      849.147
12/27/2021  06:36:00       93.840      -49.880       -2.240       97.689       56.311       52.234     9543.189     3170.904     2728.347        1.337        0.772      106.273       52.117        0.240      331.006       -1.259      849.140
12/27/2021  06:37:00       87.324       -1.150      -21.496       74.968       50.624       39.285     5620.167     2562.805     1543.337        0.891        0.486       87.332       35.686        0.167      331.019       -1.236      849.130
12/27/2021  06:38:00       63.717       -9.682        7.863       86.194       50.669       37.010     7429.329     2567.363     1369.725        0.779        0.568       64.449       42.490        0.435      331.038       -1.206      849.136
12/27/2021  06:39:00      120.246       62.329      -24.880       40.988       30.503       17.899     1680.009      930.458      320.380        1.095        0.147      135.440       13.681        0.010      330.894       -1.441      849.160
12/27/2021  06:40:00      145.838       42.586      -14.693       36.481       28.336       22.429     1330.894      802.909      503.038        1.297        0.132      151.929       16.564        0.012      330.862       -1.494      849.185
12/27/2021  06:41:00      192.321       47.413      -19.631       24.238       22.689       20.700      587.486      514.780      428.499        2.058        0.077      198.079        5.086        0.001      330.877       -1.468      849.185
12/27/2021  06:42:00      156.144       34.034      -15.428       33.922       29.122       20.010     1150.712      848.102      400.398        1.409        0.120      159.810        7.584        0.002      330.876       -1.470      849.168
12/27/2021  06:43:00      108.802        9.223       -8.425       58.676       27.992       21.497     3442.858      783.550      462.110        0.834        0.234      109.193       26.295        0.058      330.889       -1.450      849.146
12/27/2021  06:44:00      137.566       10.931      -12.098       71.581       46.021       30.419     5123.872     2117.899      925.293        1.368        0.408      137.999       20.622        0.022      330.896       -1.438      849.117
12/27/2021  06:45:00      104.668       22.767      -13.959       44.219       52.958       24.187     1955.340     2804.523      585.010        0.851        0.267      107.116       13.341        0.016      330.888       -1.451      849.133
12/27/2021  06:46:00       83.720       21.448       -7.793       54.519       27.760       19.034     2972.361      770.629      362.305        0.582        0.205       86.424       22.528        0.068      330.873       -1.475      849.173
12/27/2021  06:47:00       57.980       34.356       -6.137       37.928       30.884       14.266     1438.541      953.812      203.520        0.359        0.130       67.395       14.337        0.045      330.882       -1.460      849.211
12/27/2021  06:48:00       59.424       28.325      -10.299       21.538       21.857       15.477      463.896      477.711      239.542        0.281        0.059       65.830       13.444        0.042      330.885       -1.455      849.206
12/27/2021  06:49:00       20.950       41.942       -5.879       21.694       18.222       12.055      470.627      332.043      145.326        0.159        0.047       46.883        9.616        0.042      331.018       -1.238      849.178
12/27/2021  06:50:00       16.198       20.700      -13.366       12.020       11.245       14.520      144.480      126.443      210.820        0.068        0.024       26.285        4.136        0.025      330.945       -1.358      849.143
12/27/2021  06:51:00        4.937       35.362       -4.722       12.619        9.905        7.991      159.245       98.119       63.854        0.081        0.016       35.705        4.684        0.017      330.917       -1.401      849.125
12/27/2021  06:52:00       38.049       28.757       -8.254       39.648       24.103       14.517     1571.984      580.954      210.745        0.235        0.118       47.694       16.887        0.125      330.914       -1.408      849.107
12/27/2021  06:53:00       73.346       44.017      -13.767       15.529       22.089       12.535      241.136      487.922      157.133        0.420        0.044       85.540        7.572        0.008      330.884       -1.457      849.087
12/27/2021  06:54:00       68.831       -2.739      -10.481       29.860       22.924       11.121      891.607      525.530      123.668        0.320        0.077       68.885        8.501        0.015      330.923       -1.392      849.075
12/27/2021  06:55:00      111.927      -16.609      -14.805       31.524       24.917       15.273      993.741      620.881      233.278        0.744        0.092      113.153       10.132        0.008      330.881       -1.462      849.023
12/27/2021  06:56:00       95.376        0.638      -14.401       25.193       24.009       11.372      634.697      576.439      129.324        0.532        0.067       95.378        9.371        0.010      330.853       -1.509      848.981
12/27/2021  06:57:00       79.072       11.532      -10.509       15.501       21.252       13.571      240.281      451.634      184.175        0.369        0.044       79.909       10.470        0.017      330.863       -1.492      848.966
12/27/2021  06:58:00       60.293      -13.452       -9.337       46.139       34.993       28.528     2128.830     1224.516      813.852        0.403        0.208       61.775       31.196        0.255      330.986       -1.289      848.943
12/27/2021  06:59:00       28.460      -24.636      -16.159       29.200       31.613       29.685      852.652      999.361      881.226        0.221        0.137       37.642       16.914        0.202      331.077       -1.141      848.951
12/27/2021  07:00:00       15.395       30.153       -6.532       22.411       18.214       10.370      502.259      331.755      107.531        0.107        0.047       33.856        7.627        0.051      330.965       -1.323      848.959
12/27/2021  07:01:00       45.409       41.436       -8.940       30.836       18.644       18.671      950.874      347.605      348.615        0.275        0.082       61.473       15.672        0.065      330.934       -1.375      848.929
12/27/2021  07:02:00       82.593       43.588      -11.025       21.677       33.468       18.829      469.888     1120.094      354.537        0.539        0.097       93.389        9.028        0.009      330.899       -1.434      848.867
12/27/2021  07:03:00      110.593      -17.861      -26.323       29.930       24.338       20.070      895.789      592.346      402.810        0.757        0.095      112.026       12.526        0.013      330.896       -1.437      848.805
12/27/2021  07:04:00       59.935        2.818      -11.584       26.200       18.595       19.378      686.444      345.771      375.509        0.257        0.070       60.002       13.090        0.048      330.985       -1.292      848.777
12/27/2021  07:05:00       35.271       11.236      -17.419       30.039       15.958        9.609      902.313      254.665       92.332        0.146        0.062       37.018       10.162        0.075      330.841       -1.524      848.807
12/27/2021  07:06:00      -10.142       10.791       -8.684       26.793       16.903       13.543      717.868      285.726      183.419        0.074        0.059       14.809       11.680        0.622      330.927       -1.386      848.859
12/27/2021  07:07:00      -24.074       45.041       -1.134       28.331       24.987       18.658      802.626      624.353      348.122        0.219        0.089       51.071       14.689        0.083      330.975       -1.309      848.840
12/27/2021  07:08:00       65.176       44.115       -9.351       24.459       21.153       18.330      598.253      447.439      335.982        0.383        0.069       78.702       17.623        0.050      330.916       -1.407      848.760
12/27/2021  07:09:00       31.763       32.236       -8.675       17.495       10.780       11.791      306.059      116.212      139.020        0.134        0.028       45.255        8.099        0.032      330.881       -1.461      848.754
12/27/2021  07:10:00       27.924       39.376      -12.020        6.667       10.401        5.190       44.454      108.183       26.934        0.133        0.009       48.272        3.282        0.005      330.943       -1.357      848.777
12/27/2021  07:11:00       -0.527       15.092      -15.021       28.965       23.518        7.818      838.984      553.113       61.122        0.095        0.073       15.102        9.215        0.372      331.000       -1.269      848.769
12/27/2021  07:12:00      -16.433        0.005       -4.945       32.202       16.219       22.559     1036.992      263.062      508.907        0.105        0.090       16.433       14.718        0.802      331.168       -0.990      848.782
12/27/2021  07:13:00        5.896        2.318       -7.287       34.092       16.910       17.614     1162.253      285.933      310.236        0.093        0.088        6.335        8.101        1.635      331.089       -1.123      848.755
12/27/2021  07:14:00      -41.122        5.801        3.628       40.805       38.440       28.917     1665.038     1477.642      836.196        0.286        0.199       41.529       26.148        0.396      331.160       -1.003      848.736
12/27/2021  07:15:00        4.141       28.278        8.607       34.737       22.380       20.653     1206.635      500.851      426.549        0.151        0.107       28.579        9.219        0.104      331.098       -1.106      848.700
12/27/2021  07:16:00      -60.967       15.586       -4.682       37.451       20.048       17.497     1402.610      401.903      306.138        0.305        0.106       62.928       17.135        0.074      331.140       -1.034      848.717
12/27/2021  07:17:00      -14.249      -27.759       -6.184       30.295       29.206       17.485      917.777      853.020      305.725        0.154        0.104       31.203        6.244        0.040      331.220       -0.906      848.735
12/27/2021  07:18:00       -1.835        1.216       -2.495       10.935       23.708       12.992      119.580      562.086      168.787        0.043        0.043        2.201        6.355        8.337      331.215       -0.914      848.704
12/27/2021  07:19:00      -34.867       -4.490       -6.826       44.989       34.696       14.461     2024.024     1203.829      209.132        0.236        0.172       35.155       18.760        0.285      331.184       -0.965      848.665
12/27/2021  07:20:00      -23.239       50.325      -22.394       49.195       35.669       19.431     2420.128     1272.265      377.568        0.382        0.203       55.431       21.480        0.150      331.080       -1.135      848.629
12/27/2021  07:21:00      -45.386      -68.718      -39.610       29.540       43.808       21.274      872.605     1919.102      452.592        0.580        0.162       82.353       10.201        0.015      331.238       -0.876      848.603
12/27/2021  07:22:00      105.597      -19.101      -57.597       62.752       76.268       44.331     3937.752     5816.759     1965.246        1.327        0.586      107.311       20.734        0.037      331.200       -0.939      848.574
12/27/2021  07:23:00       55.672      -13.476      -50.962       55.960       60.694       47.237     3131.507     3683.739     2231.381        0.746        0.452       57.280       30.459        0.283      331.280       -0.805      848.470
12/27/2021  07:24:00       -3.085       27.926      -10.940       56.446       67.789       30.621     3186.096     4595.388      937.673        0.481        0.436       28.096       15.556        0.307      331.242       -0.868      848.521
12/27/2021  07:25:00     -172.678       62.448      -25.436       46.466       48.920       33.054     2159.053     2393.191     1092.552        2.000        0.282      183.623       17.311        0.009      331.084       -1.131      848.575
12/27/2021  07:26:00      -17.837       -9.692       10.528       69.725       47.441       29.783     4861.514     2250.631      887.037        0.426        0.400       20.300       25.920        1.630      331.138       -1.039      848.602
12/27/2021  07:27:00      -55.552      -13.008      -12.506       47.209       33.303       27.205     2228.700     1109.095      740.101        0.374        0.204       57.055       12.350        0.047      331.086       -1.125      848.560
12/27/2021  07:28:00       37.227       29.415      -17.197       43.002       48.187       27.147     1849.202     2321.985      736.947        0.373        0.245       47.446       21.524        0.206      331.102       -1.100      848.440
12/27/2021  07:29:00      -45.716      -26.796      -17.103       39.029       30.039       22.843     1523.245      902.326      521.790        0.302        0.147       52.990        8.410        0.025      331.163       -0.999      848.463
12/27/2021  07:30:00        6.798       12.772       -7.386       12.953       28.902       14.886      167.788      835.343      221.607        0.074        0.061       14.468        8.726        0.364      331.194       -0.949      848.478
12/27/2021  07:31:00       25.738       39.213      -22.622       14.454       30.592       12.118      208.917      935.847      146.839        0.200        0.065       46.905       13.122        0.078      331.149       -1.023      848.513
12/27/2021  07:32:00      -32.815       45.276      -18.932       40.371       40.219       20.673     1629.856     1617.595      427.364        0.358        0.184       55.917       18.935        0.115      331.182       -0.967      848.536
12/27/2021  07:33:00      -39.892       51.332      -13.297       22.762       21.493       12.700      518.094      461.968      161.300        0.277        0.057       65.010       11.253        0.030      331.085       -1.128      848.496
12/27/2021  07:34:00       -6.340       -3.191       -7.156       19.684       16.893        9.356      387.442      285.368       87.535        0.043        0.038        7.097        5.530        0.607      331.094       -1.112      848.506
12/27/2021  07:35:00      -18.514      -79.358      -38.652       35.019       47.806       28.541     1226.356     2285.371      814.585        0.623        0.216       81.489       22.691        0.078      331.214       -0.913      848.584
12/27/2021  07:36:00      -50.646      -17.077        4.511       55.389       32.790       25.037     3067.903     1075.179      626.868        0.382        0.238       53.447        9.125        0.029      331.201       -0.935      848.653
12/27/2021  07:37:00       47.545      -39.280      -45.328       52.122       73.452       46.198     2716.741     5395.194     2134.289        0.805        0.512       61.672       37.117        0.362      331.527       -0.400      848.546
12/27/2021  07:38:00       70.642     -153.966      -33.573       39.277       60.866       32.901     1542.696     3704.674     1082.481        1.808        0.316      169.399       33.503        0.039      331.237       -0.879      848.442
12/27/2021  07:39:00       66.495     -155.936      -18.180       37.885       44.986       33.331     1435.305     2023.727     1110.939        1.682        0.228      169.522       33.284        0.039      331.104       -1.096      848.480
12/27/2021  07:40:00      -39.496      -20.797      -32.758       60.335       55.510       35.198     3640.285     3081.348     1238.917        0.551        0.398       44.637       24.233        0.295      331.319       -0.743      848.519
12/27/2021  07:41:00       85.557      -91.187      -45.056       58.821       89.817       35.561     3459.865     8067.010     1264.601        1.523        0.640      125.040       47.239        0.143      331.403       -0.604      848.565
12/27/2021  07:42:00       98.213     -171.426      -43.068       63.922       71.595       37.298     4086.034     5125.898     1391.117        2.574        0.530      197.567       33.008        0.028      331.441       -0.544      848.527
12/27/2021  07:43:00      -31.127      -23.478      -24.805       71.664       82.579       44.976     5135.787     6819.281     2022.879        0.805        0.699       38.989       36.186        0.861      331.494       -0.457      848.541
12/27/2021  07:44:00      -94.192       -6.491        7.676      135.693       70.405       50.082    18412.589     4956.880     2508.187        1.742        1.294       94.415       51.568        0.298      331.400       -0.610      848.598
12/27/2021  07:45:00     -133.915        9.734      -11.441       94.398       68.902       35.160     8910.941     4747.450     1236.218        1.652        0.745      134.268       37.757        0.079      331.223       -0.900      848.663
12/27/2021  07:46:00     -109.622      -29.346      -13.727       55.552       52.955       37.519     3086.071     2804.225     1407.711        1.018        0.365      113.482       33.020        0.085      331.305       -0.765      848.660
12/27/2021  07:47:00      -88.585      -48.098      -13.274       32.158       34.142       18.998     1034.124     1165.702      360.927        0.645        0.128      100.800       11.158        0.012      331.346       -0.699      848.607
12/27/2021  07:48:00      -41.463       25.727       -5.532       42.501       41.155       19.591     1806.324     1693.744      383.814        0.315        0.194       48.796       15.986        0.107      331.352       -0.691      848.611
12/27/2021  07:49:00      -74.675       74.513      -11.640       25.432       27.169       19.579      646.798      738.146      383.331        0.652        0.088      105.491       13.176        0.016      331.274       -0.815      848.592
12/27/2021  07:50:00      -77.883       21.708       -4.148       30.346       33.941       28.010      920.889     1152.024      784.559        0.471        0.143       80.851       17.067        0.045      331.223       -0.898      848.579
12/27/2021  07:51:00      -75.056       46.575        3.482       35.617       38.041       26.777     1268.537     1447.140      716.984        0.562        0.172       88.333       22.769        0.066      331.257       -0.844      848.590
12/27/2021  07:52:00     -108.664       10.809       -7.838       74.173       53.696       31.976     5501.672     2883.312     1022.441        1.070        0.470      109.200       26.772        0.060      331.303       -0.769      848.619
12/27/2021  07:53:00     -116.580      -18.039       15.248      117.822      110.283       54.084    13881.954    12162.439     2925.028        2.155        1.448      117.968       52.951        0.201      331.318       -0.745      848.630
12/27/2021  07:54:00     -134.512      -11.451      -16.091      117.246       91.235       59.163    13746.599     8323.846     3500.228        2.202        1.279      134.998       45.172        0.112      331.276       -0.813      848.659
12/27/2021  07:55:00     -140.908        0.447       -7.803       81.832       70.320       46.741     6696.416     4944.837     2184.725        1.687        0.691      140.909       35.526        0.064      331.312       -0.755      848.692
12/27/2021  07:56:00     -149.730      -19.205      -10.416      120.154       60.723       40.770    14437.075     3687.323     1662.168        2.134        0.989      150.957       44.098        0.085      331.343       -0.706      848.695
12/27/2021  07:57:00     -256.082      -49.888       -1.427      108.230       82.880       53.214    11713.811     6869.158     2831.750        4.474        1.071      260.896       39.067        0.022      331.297       -0.781      848.714
12/27/2021  07:58:00     -287.746      -49.910      -24.440      133.425      114.807       62.019    17802.149    13180.595     3846.416        6.035        1.741      292.043       55.480        0.036      331.294       -0.786      848.713
12/27/2021  07:59:00     -209.774       -3.895        3.971      151.617       88.522       70.366    22987.770     7836.101     4951.383        3.990        1.789      209.810       73.968        0.124      331.312       -0.757      848.725
12/27/2021  08:00:00     -334.072       -0.167      -25.385      166.904       94.425       73.702    27856.886     8916.018     5431.983        7.722        2.110      334.072       70.501        0.045      331.292       -0.789      848.730
12/27/2021  08:01:00     -224.021      -18.600       -9.820      134.169       85.537       59.833    18001.355     7316.570     3579.977        3.976        1.445      224.792       55.682        0.061      331.307       -0.763      848.741
12/27/2021  08:02:00     -277.912      -48.529      -20.569      139.919       89.303       68.882    19577.360     7974.979     4744.689        5.615        1.615      282.117       54.362        0.037      331.235       -0.883      848.722
12/27/2021  08:03:00     -198.006      -12.527       -5.015      163.790      116.573       83.124    26827.011    13589.209     6909.666        4.335        2.366      198.402       59.569        0.090      331.265       -0.832      848.693
12/27/2021  08:04:00     -289.139       24.969      -12.195      228.009      145.108      100.295    51988.222    21056.412    10059.166        8.372        4.155      290.215       88.175        0.092      331.222       -0.904      848.681
12/27/2021  08:05:00     -271.308      -36.510       -5.659      120.291      127.179       72.247    14469.888    16174.499     5219.669        5.541        1.793      273.754       67.194        0.060      331.210       -0.924      848.690
12/27/2021  08:06:00     -282.503      -36.985      -17.821      187.589      106.605       83.404    35189.572    11364.675     6956.254        6.749        2.676      284.914       94.502        0.110      331.207       -0.930      848.669
12/27/2021  08:07:00     -279.588      -88.574      -32.249      161.166      106.185       59.611    25974.490    11275.182     3553.467        6.392        2.040      293.282       67.738        0.053      331.199       -0.941      848.635
12/27/2021  08:08:00     -294.580      -47.305       -8.188      140.329      106.869       77.945    19692.088    11421.075     6075.345        6.313        1.859      298.354       70.777        0.056      331.180       -0.973      848.651
12/27/2021  08:09:00     -417.285      -15.308       -8.199      237.952      153.675       98.240    56621.272    23616.149     9651.074       13.214        4.494      417.565       92.958        0.050      331.130       -1.056      848.643
12/27/2021  08:10:00     -386.164       41.256      -17.183      227.398      154.552       92.940    51709.760    23886.470     8637.816       11.766        4.212      388.362       95.951        0.061      331.108       -1.092      848.623
12/27/2021  08:11:00     -305.461        0.862      -15.417      181.551      144.502       91.489    32960.707    20880.769     8370.228        7.787        3.111      305.463       85.532        0.078      331.134       -1.048      848.654
12/27/2021  08:12:00     -381.565      -30.095      -18.275      247.905      170.816      114.898    61457.073    29178.215    13201.621       12.532        5.192      382.751      121.907        0.101      331.106       -1.095      848.646
12/27/2021  08:13:00     -382.713       17.309      -10.650      226.308      159.024      102.167    51215.211    25288.618    10438.135       11.690        4.347      383.105      103.317        0.073      331.089       -1.124      848.670
12/27/2021  08:14:00     -198.797      -23.461      -10.711      171.849      123.230       83.998    29532.062    15185.555     7055.633        4.597        2.589      200.177       73.868        0.136      331.124       -1.066      848.669
12/27/2021  08:15:00     -280.650       11.620       -5.957      192.890      101.376       81.471    37206.532    10277.076     6637.598        6.652        2.706      280.890       92.694        0.109      331.065       -1.163      848.714
12/27/2021  08:16:00     -285.123      -17.214      -16.769      123.883      123.056       66.522    15346.963    15142.786     4425.126        5.839        1.746      285.642       47.425        0.028      331.077       -1.146      848.739
12/27/2021  08:17:00     -306.986        9.706       13.334      189.296      141.517       86.482    35832.843    20027.079     7479.097        7.891        3.167      307.139       86.744        0.080      331.042       -1.202      848.761
12/27/2021  08:18:00     -287.308      -16.281      -23.935      138.185      155.479       68.918    19095.091    24173.764     4749.746        6.569        2.401      287.769       70.404        0.060      331.025       -1.230      848.815
12/27/2021  08:19:00     -135.904        8.586      -13.273      112.485      112.474       76.118    12652.810    12650.377     5793.914        2.490        1.555      136.175       57.410        0.178      331.036       -1.210      848.829
12/27/2021  08:20:00     -273.118     -109.884      -38.900      116.839      101.915       49.150    13651.260    10386.759     2415.684        5.731        1.323      294.395       39.485        0.018      331.014       -1.247      848.875
12/27/2021  08:21:00     -362.918       22.693      -27.966      199.617      148.519       78.114    39846.824    22057.872     6101.783       10.049        3.400      363.627       43.925        0.015      330.993       -1.282      848.889
12/27/2021  08:22:00     -302.086      -23.010       -1.715      152.414      140.778       78.902    23230.105    19818.424     6225.512        7.052        2.464      302.961       80.257        0.070      330.964       -1.329      848.932
12/27/2021  08:23:00     -400.665        9.886      -32.953      172.073      130.737       86.694    29609.080    17092.277     7515.825       10.796        2.711      400.787       80.044        0.040      330.945       -1.360      848.963
12/27/2021  08:24:00     -366.354      -88.094      -41.488      180.573       98.401       95.980    32606.760     9682.690     9212.097        9.759        2.575      376.797      104.648        0.077      330.972       -1.317      848.987
12/27/2021  08:25:00     -253.665       21.436       -4.663      155.717      121.356       82.467    24247.899    14727.286     6800.824        5.529        2.289      254.569       83.403        0.107      330.960       -1.336      849.042
12/27/2021  08:26:00     -232.647       23.974        1.719      143.945      102.634       71.753    20720.131    10533.679     5148.507        4.555        1.820      233.879       63.686        0.074      330.969       -1.319      849.071
12/27/2021  08:27:00     -175.926       -0.470        1.989      118.353       92.541       69.312    14007.541     8563.770     4804.193        2.916        1.369      175.927       62.157        0.125      330.972       -1.315      849.086
12/27/2021  08:28:00     -234.514       69.015       -5.973      242.775      100.522       69.278    58939.505    10104.617     4799.420        6.681        3.692      244.458       84.571        0.120      330.965       -1.326      849.080
12/27/2021  08:29:00      -72.494        4.758       -3.485      119.532      106.308       55.916    14287.938    11301.336     3126.602        1.700        1.436       72.650       34.778        0.229      331.024       -1.230      849.086
12/27/2021  08:30:00     -208.267       10.095       -1.560      132.427       82.584       52.899    17536.969     6820.111     2798.306        3.531        1.358      208.512       53.163        0.065      330.996       -1.276      849.063
12/27/2021  08:31:00     -299.653      -48.379      -27.108      118.137      100.202       60.827    13956.316    10040.503     3699.872        6.028        1.385      303.533       44.575        0.022      331.021       -1.236      849.041
12/27/2021  08:32:00     -221.130        6.456        6.493      138.536      107.040       90.750    19192.230    11457.663     8235.557        4.393        1.944      221.225       74.463        0.113      331.000       -1.270      849.039
12/27/2021  08:33:00     -187.897      -27.887       -4.958      188.201       95.732       75.306    35419.714     9164.552     5670.932        4.317        2.513      189.955       87.333        0.211      331.003       -1.266      849.026
12/27/2021  08:34:00     -255.783      -18.330       -7.694      159.850      121.324       77.615    25551.975    14719.551     6024.078        5.605        2.315      256.439       78.245        0.093      331.004       -1.264      849.038
12/27/2021  08:35:00     -270.732      -20.230      -25.303      158.108      115.036       92.499    24998.111    13233.276     8556.064        6.056        2.339      271.487       67.336        0.062      331.010       -1.253      849.056
12/27/2021  08:36:00     -332.664       -4.457      -12.601      195.596      112.860       61.406    38257.825    12737.479     3770.709        8.279        2.738      332.693       62.484        0.035      330.992       -1.284      849.056
12/27/2021  08:37:00     -208.652      -16.425       -6.183      143.466       84.727       62.636    20582.470     7178.706     3923.233        3.776        1.584      209.298       56.176        0.072      331.045       -1.196      849.079
12/27/2021  08:38:00     -180.410       65.649      -10.561      138.892      128.108       56.752    19291.086    16411.576     3220.750        3.794        1.946      191.983       47.453        0.061      330.986       -1.294      849.104
12/27/2021  08:39:00     -139.484        4.795       -6.860      127.926      106.663       65.813    16365.146    11376.993     4331.318        2.579        1.604      139.567       64.017        0.210      331.005       -1.260      849.145
12/27/2021  08:40:00     -237.209       28.374      -14.389      134.267       95.801       50.256    18027.609     9177.823     2525.651        4.350        1.487      238.900       49.056        0.042      330.986       -1.294      849.158
12/27/2021  08:41:00     -241.973      -16.072      -34.963      134.102      110.596       52.704    17983.341    12231.465     2777.708        4.651        1.650      242.506       55.805        0.053      331.010       -1.253      849.167
12/27/2021  08:42:00     -256.249      -19.336      -19.790      144.534       85.759       60.587    20890.027     7354.537     3670.739        4.917        1.596      256.978       52.013        0.041      331.007       -1.258      849.176
12/27/2021  08:43:00     -267.113       25.474       -7.191      188.405       97.192       71.176    35496.597     9446.252     5065.971        6.102        2.500      268.325       85.480        0.101      330.981       -1.300      849.197
12/27/2021  08:44:00     -257.839       27.966        1.164      146.085      111.206       65.266    21340.833    12366.751     4259.652        5.261        1.898      259.351       70.938        0.075      330.983       -1.298      849.198
12/27/2021  08:45:00     -253.871      -10.781      -14.227      135.034      102.619       66.474    18234.134    10530.723     4418.785        4.897        1.659      254.099       68.571        0.073      330.985       -1.295      849.173
12/27/2021  08:46:00     -297.101       -3.693      -28.877      106.398      102.743       47.918    11320.515    10556.037     2296.097        5.664        1.209      297.124       38.767        0.017      330.989       -1.290      849.160
12/27/2021  08:47:00     -297.365       -7.557      -13.630      139.462       91.971       58.787    19449.605     8458.755     3455.921        6.001        1.568      297.461       50.202        0.028      330.968       -1.322      849.163
12/27/2021  08:48:00     -229.900       94.814      -33.140      165.018      155.790       76.363    27231.077    24270.461     5831.250        6.013        2.867      248.683       72.781        0.086      330.997       -1.274      849.117
12/27/2021  08:49:00     -379.475       27.073      -12.285      169.841      102.229       67.836    28846.112    10450.751     4601.700        9.438        2.195      380.440       72.200        0.036      331.012       -1.251      849.128
12/27/2021  08:50:00     -233.813       21.137      -16.162      149.782      112.021       58.267    22434.508    12548.643     3395.004        4.687        1.919      234.766       64.297        0.075      331.027       -1.226      849.132
12/27/2021  08:51:00     -155.466       29.235       -7.153      152.698      104.940       79.990    23316.563    11012.406     6398.476        3.289        2.036      158.191       81.947        0.268      331.043       -1.198      849.137
12/27/2021  08:52:00      -88.337       11.269        4.489      115.780       81.010       70.849    13404.952     6562.656     5019.554        1.646        1.249       89.053       61.631        0.479      331.035       -1.212      849.129
12/27/2021  08:53:00     -127.715      -25.621       -5.260      136.261       96.971       58.063    18567.006     9403.288     3371.360        2.416        1.567      130.260       54.401        0.174      331.063       -1.166      849.119
12/27/2021  08:54:00     -213.656       20.704      -37.268      103.989       91.409       43.362    10813.626     8355.659     1880.275        3.425        1.052      214.657       36.875        0.030      331.046       -1.195      849.109
12/27/2021  08:55:00     -138.434       54.120        4.596      100.275       87.926       47.962    10055.161     7731.007     2300.353        2.110        1.004      148.637       45.054        0.092      331.066       -1.162      849.120
12/27/2021  08:56:00     -179.473       -9.045      -11.666       71.295       56.272       37.721     5083.034     3166.556     1422.903        2.105        0.484      179.701       33.699        0.035      331.076       -1.144      849.119
12/27/2021  08:57:00     -176.500       32.322       -5.017       90.880       72.409       43.030     8259.174     5243.005     1851.559        2.379        0.768      179.435       41.230        0.053      331.055       -1.180      849.141
12/27/2021  08:58:00      -93.764        8.558       15.035       80.690       90.428       46.411     6510.800     8177.152     2154.019        1.296        0.842       94.154       31.758        0.114      331.110       -1.087      849.151
12/27/2021  08:59:00     -140.779       20.702      -26.283       95.084       88.964       47.822     9041.028     7914.630     2286.925        2.009        0.962      142.293       46.740        0.108      331.086       -1.126      849.129
12/27/2021  09:00:00     -280.755       86.437       -9.382      133.563      101.839       54.083    17838.978    10371.265     2924.947        5.875        1.557      293.759       50.745        0.030      331.070       -1.156      849.132
12/27/2021  09:01:00     -199.571       27.482       -0.623      124.285       69.830       50.872    15446.689     4876.170     2587.952        3.174        1.146      201.454       50.170        0.062      331.073       -1.149      849.132
12/27/2021  09:02:00     -176.958       23.776       -1.328       77.046       55.503       41.875     5936.138     3080.603     1753.518        2.132        0.539      178.548       30.532        0.029      331.105       -1.096      849.127
12/27/2021  09:03:00     -148.091       55.042        1.325       91.908       67.576       43.171     8447.040     4566.530     1863.777        1.992        0.744      157.990       42.539        0.072      331.121       -1.069      849.120
12/27/2021  09:04:00     -297.801      -13.419      -30.692      174.698       99.521       77.532    30519.404     9904.395     6011.249        6.811        2.322      298.103       64.934        0.047      331.130       -1.055      849.103
12/27/2021  09:05:00     -233.609       32.414       -9.799      160.583      113.731       77.043    25786.953    12934.754     5935.599        5.018        2.233      235.847       83.406        0.125      331.164       -0.999      849.085
12/27/2021  09:06:00     -273.988        9.466      -25.026      151.445      105.941       64.642    22935.535    11223.585     4178.624        5.705        1.917      274.151       55.143        0.040      331.165       -1.000      849.064
12/27/2021  09:07:00     -288.411       -1.602      -19.999      162.382       83.856       57.152    26368.055     7031.852     3266.366        6.012        1.833      288.416       52.955        0.034      331.163       -1.001      849.070
12/27/2021  09:08:00     -330.177        6.601      -36.713      128.940       78.765       68.937    16625.447     6203.865     4752.293        6.899        1.379      330.243       63.557        0.037      331.174       -0.985      849.097
12/27/2021  09:09:00     -220.070       78.147       14.724      122.020       95.092       58.843    14888.951     9042.502     3462.549        4.107        1.370      233.533       53.615        0.053      331.140       -1.038      849.087
12/27/2021  09:10:00     -177.470       53.014        7.257      122.815       80.650       56.200    15083.560     6504.477     3158.475        2.955        1.237      185.219       57.359        0.096      331.183       -0.968      849.074
12/27/2021  09:11:00     -179.796       40.021        1.344      107.278       54.384       48.169    11508.483     2957.648     2320.224        2.536        0.839      184.196       46.622        0.064      331.236       -0.881      849.069
12/27/2021  09:12:00     -148.338       -0.472       -4.062      105.800       77.635       67.927    11193.658     6027.252     4614.034        2.192        1.092      148.339       52.261        0.124      331.245       -0.865      849.094
12/27/2021  09:13:00     -216.171       28.704      -31.973      136.803       98.372       66.729    18715.070     9677.140     4452.759        4.070        1.642      218.068       72.310        0.110      331.256       -0.847      849.103
12/27/2021  09:14:00     -349.159       55.424       -9.541      141.048       95.151       58.668    19894.473     9053.634     3441.912        7.873        1.620      353.531       45.836        0.017      331.250       -0.858      849.141
12/27/2021  09:15:00     -381.377       84.611      -14.344      205.653      118.156       74.311    42293.244    13960.877     5522.181       10.728        3.089      390.650       81.956        0.044      331.281       -0.808      849.147
12/27/2021  09:16:00     -300.067       65.385       -9.789      143.847      130.997       71.172    20691.903    17160.237     5065.399        6.866        2.146      307.108       62.824        0.042      331.297       -0.781      849.150
12/27/2021  09:17:00     -157.357       41.890        3.364      117.501      127.756       59.123    13806.508    16321.533     3495.544        3.007        1.681      162.837       62.299        0.146      331.360       -0.678      849.145
12/27/2021  09:18:00     -153.347       40.886       -3.769       98.801       62.134       50.912     9761.621     3860.669     2592.083        2.070        0.811      158.704       51.157        0.104      331.399       -0.613      849.124
12/27/2021  09:19:00     -111.378      -15.447        6.487       98.338      101.597       54.757     9670.397    10321.918     2998.328        1.783        1.150      112.444       41.113        0.134      331.483       -0.474      849.146
12/27/2021  09:20:00     -221.947      116.568      -15.690      149.590      143.464       63.698    22377.121    20581.884     4057.430        5.505        2.351      250.697       70.774        0.080      331.441       -0.545      849.189
12/27/2021  09:21:00     -179.113       65.930       -9.760      120.701      101.069       49.122    14568.788    10214.940     2412.959        3.186        1.360      190.862       45.441        0.057      331.389       -0.631      849.202
12/27/2021  09:22:00     -260.594      -25.052      -12.712      205.051      104.932       86.054    42045.792    11010.649     7405.207        6.457        3.023      261.795       87.473        0.112      331.382       -0.641      849.200
12/27/2021  09:23:00      -98.036        5.668       12.526      155.243       96.072       82.416    24100.306     9229.882     6792.415        2.495        2.006       98.200       80.577        0.673      331.444       -0.538      849.229
12/27/2021  09:24:00     -370.977        6.303      -18.387      237.549      147.120       87.258    56429.683    21644.193     7613.931       11.183        4.284      371.030       79.381        0.046      331.452       -0.528      849.223
12/27/2021  09:25:00     -197.664       35.781        1.084      185.689       96.902       78.871    34480.273     9389.986     6220.629        4.521        2.505      200.876       79.973        0.159      331.475       -0.490      849.226
12/27/2021  09:26:00     -232.585       59.924       -6.032      209.793      132.994       74.296    44013.167    17687.422     5519.903        6.246        3.361      240.181       56.365        0.055      331.472       -0.496      849.211
12/27/2021  09:27:00     -388.849      -13.828      -23.846      235.653      123.076       74.637    55532.514    15147.755     5570.663       11.409        3.813      389.095       86.656        0.050      331.494       -0.457      849.197
12/27/2021  09:28:00     -248.564       51.881        2.880      211.467      103.406       69.429    44718.478    10692.848     4820.347        6.235        3.012      253.921       85.649        0.114      331.497       -0.453      849.151
12/27/2021  09:29:00     -346.012        1.411      -13.829      188.135      127.164       77.648    35394.778    16170.582     6029.200        8.875        2.880      346.015       79.730        0.053      331.498       -0.451      849.138
12/27/2021  09:30:00     -265.973       -7.930      -10.223      307.577      158.615       94.256    94603.863    25158.856     8884.284        9.975        6.432      266.091      103.293        0.151      331.545       -0.372      849.063
12/27/2021  09:31:00     -278.229      130.568       10.873      200.367      166.267       82.443    40146.912    27644.742     6796.907        8.457        3.729      307.342       57.804        0.035      331.571       -0.332      849.046
12/27/2021  09:32:00     -168.821       12.193       -1.779      189.446      101.037       74.650    35889.686    10208.384     5572.682        4.015        2.584      169.261       66.441        0.154      331.635       -0.222      849.028
12/27/2021  09:33:00     -449.442        3.290      -33.756      206.254      151.152       92.470    42540.886    22846.992     8550.727       13.853        3.697      449.454       76.924        0.029      331.559       -0.350      849.045
12/27/2021  09:34:00     -320.676       69.846        3.747      275.214      183.963      112.376    75742.478    33842.468    12628.458       11.495        6.111      328.194      101.286        0.095      331.570       -0.333      849.058
12/27/2021  09:35:00     -324.546       42.692      -11.642      241.209      101.364       85.795    58181.588    10274.592     7360.724        9.154        3.791      327.342      101.710        0.097      331.604       -0.276      849.062
12/27/2021  09:36:00     -400.049      -47.081      -35.755      269.103      163.582      121.903    72416.435    26759.117    14860.354       13.876        5.702      402.810      135.927        0.114      331.593       -0.295      849.025
12/27/2021  09:37:00     -147.481       20.683       -0.072      188.520      119.813       80.779    35539.872    14355.251     6525.249        3.929        2.821      148.925       76.191        0.262      331.631       -0.231      849.041
12/27/2021  09:38:00     -268.266       26.616        1.930      209.934      111.511       81.508    44072.141    12434.644     6643.480        6.790        3.158      269.583       99.955        0.137      331.608       -0.269      849.028
12/27/2021  09:39:00     -192.815       39.621       -8.963      157.706       86.974       75.290    24871.061     7564.467     5668.509        3.846        1.905      196.844       63.799        0.105      331.641       -0.214      849.046
12/27/2021  09:40:00     -279.245      -18.874       -3.448      145.590       94.602       76.615    21196.393     8949.550     5869.796        5.717        1.801      279.882       77.839        0.077      331.664       -0.178      849.062
12/27/2021  09:41:00     -328.588      -10.843       -0.959      120.825      131.849       81.839    14598.590    17384.085     6697.630        7.338        1.934      328.767       70.570        0.046      331.667       -0.174      849.042
12/27/2021  09:42:00     -439.263       12.988      -10.154      212.054      167.988      104.699    44967.023    28219.878    10961.880       13.867        4.207      439.455       99.881        0.052      331.603       -0.277      849.056
12/27/2021  09:43:00     -577.629       50.467      -38.423      224.145      207.154       99.741    50241.058    42912.626     9948.252       22.037        5.155      579.830       69.166        0.014      331.546       -0.373      849.116
12/27/2021  09:44:00     -426.988        7.175      -14.372      210.245      142.929       88.243    44202.884    20428.601     7786.802       12.748        3.621      427.048       91.307        0.046      331.573       -0.326      849.129
12/27/2021  09:45:00     -538.303       27.601        3.656      288.479      213.333      116.894    83219.872    45511.119    13664.216       21.644        7.120      539.010      109.035        0.041      331.551       -0.365      849.166
12/27/2021  09:46:00     -370.768        8.960       -3.598      276.984      174.796      109.373    76719.980    30553.720    11962.401       12.838        5.962      370.876      120.025        0.105      331.575       -0.323      849.171
12/27/2021  09:47:00     -367.699        2.732      -15.804      214.568      162.578      105.585    46039.555    26431.566    11148.294       10.952        4.181      367.710       81.438        0.049      331.563       -0.342      849.168
12/27/2021  09:48:00     -592.772       12.276      -11.982      246.078      186.328      124.995    60554.144    34718.132    15623.745       23.126        5.545      592.899      129.716        0.048      331.510       -0.432      849.147
12/27/2021  09:49:00     -270.165      -48.796      -12.834      262.223      155.350      111.145    68760.886    24133.572    12353.270        9.037        5.262      274.537      117.981        0.185      331.557       -0.354      849.109
12/27/2021  09:50:00     -261.085       38.549       -7.674      188.191      146.142       93.865    35415.687    21357.581     8810.571        6.764        3.279      263.916       92.213        0.122      331.526       -0.405      849.128
12/27/2021  09:51:00     -233.926      -42.765      -10.627      155.340      170.101       90.153    24130.509    28934.186     8127.571        5.892        3.060      237.803       86.413        0.132      331.538       -0.384      849.074
12/27/2021  09:52:00     -375.312       51.100       -0.941      265.804      155.304      100.848    70651.828    24119.183    10170.346       12.419        5.247      378.775       92.770        0.060      331.442       -0.544      849.024
12/27/2021  09:53:00     -445.027       -6.110      -14.669      248.524      190.196      106.702    61764.120    36174.588    11385.399       15.379        5.466      445.069       87.764        0.039      331.405       -0.604      849.020
12/27/2021  09:54:00     -467.797        3.481      -10.744      207.165      166.721      113.265    42917.363    27795.748    12829.037       15.124        4.177      467.810      112.581        0.058      331.366       -0.668      848.991
12/27/2021  09:55:00     -232.573       -3.741      -15.702      235.711      123.423       88.159    55559.454    15233.309     7771.987        6.644        3.928      232.603       99.296        0.182      331.413       -0.591      849.021
12/27/2021  09:56:00     -233.785      -24.416        6.394      180.910      127.829       89.105    32728.256    16340.200     7939.666        5.614        2.850      235.056       85.947        0.134      331.428       -0.566      849.021
12/27/2021  09:57:00     -409.881       35.722      -10.986      235.681      136.979       88.648    55545.314    18763.169     7858.400       12.577        4.108      411.435      109.411        0.071      331.372       -0.658      849.034
12/27/2021  09:58:00     -462.930      -30.496      -12.192      220.996      142.353       95.597    48839.226    20264.306     9138.864       14.680        3.912      463.933      102.463        0.049      331.357       -0.683      849.039
12/27/2021  09:59:00     -447.367       50.774      -20.482      216.351      128.860       86.870    46807.724    16604.887     7546.347       13.703        3.548      450.239       81.250        0.033      331.348       -0.698      849.054
12/27/2021  10:00:00     -490.164      -15.598        7.959      282.848      172.760      124.761    80003.048    29845.994    15565.349       18.297        6.271      490.412      104.708        0.046      331.343       -0.707      849.027
12/27/2021  10:01:00     -542.690      -35.468      -17.029      304.004      180.397      122.743    92418.133    32542.915    15065.956       21.802        7.001      543.848      121.063        0.050      331.314       -0.755      848.990
12/27/2021  10:02:00     -340.440      -27.416      -19.418      232.633      170.599      106.576    54118.162    29103.957    11358.534       10.579        4.729      341.543      109.182        0.102      331.360       -0.677      848.978
12/27/2021  10:03:00     -172.726        7.646        4.793      149.092      110.653       73.635    22228.519    12244.017     5422.087        3.490        1.995      172.895       64.992        0.141      331.397       -0.616      849.003
12/27/2021  10:04:00     -195.684      -12.699      -12.128      184.225      118.081       82.622    33938.719    13943.073     6826.333        4.664        2.735      196.096       66.157        0.114      331.397       -0.616      849.014
12/27/2021  10:05:00     -148.453       43.573        9.333      204.379      154.966       96.672    41770.779    24014.562     9345.475        4.956        3.757      154.716       85.684        0.307      331.409       -0.598      849.014
12/27/2021  10:06:00     -364.517       96.693      -16.274      253.178      201.232      117.974    64099.078    40494.164    13917.795       13.048        5.926      377.124      111.557        0.088      331.334       -0.719      849.016
12/27/2021  10:07:00     -407.970       46.230       -7.321      194.674      176.488       92.875    37897.966    31147.927     8625.694       12.314        3.884      410.580       89.870        0.048      331.337       -0.716      848.997
12/27/2021  10:08:00     -217.694      -13.758      -15.773      215.145      149.889       78.143    46287.408    22466.721     6106.303        6.133        3.743      218.128       77.301        0.126      331.362       -0.674      848.961
12/27/2021  10:09:00     -425.169      122.083       -8.351      228.961      157.343      100.719    52423.074    24756.919    10144.277       14.152        4.366      442.349      112.020        0.064      331.345       -0.703      848.981
12/27/2021  10:10:00     -194.118       47.139      -11.039      166.382      123.914       65.940    27683.042    15354.613     4348.069        4.370        2.369      199.759       47.842        0.057      331.432       -0.559      848.985
12/27/2021  10:11:00     -265.188       35.296       -2.349      164.746      135.921       82.340    27141.175    18474.481     6779.848        6.198        2.620      267.527       75.318        0.079      331.408       -0.599      848.961
12/27/2021  10:12:00     -428.821      136.951        0.183      249.406      166.786      110.065    62203.580    27817.639    12114.292       15.237        5.107      450.159      124.348        0.076      331.413       -0.591      848.956
12/27/2021  10:13:00     -300.498       55.440       -3.396      214.722      138.921       85.215    46105.737    19299.109     7261.649        8.301        3.633      305.569       74.215        0.059      331.450       -0.530      848.946
12/27/2021  10:14:00     -388.044      -10.526      -23.432      234.102      202.228      130.236    54803.549    40896.359    16961.415       13.193        5.633      388.186      131.776        0.115      331.476       -0.489      848.936
12/27/2021  10:15:00     -248.630       -1.470      -16.085      223.895      160.348      106.682    50129.100    25711.584    11381.142        7.463        4.361      248.634      106.453        0.183      331.500       -0.448      848.947
12/27/2021  10:16:00     -172.395        5.992        9.596      194.206      104.059       88.525    37715.968    10828.226     7836.721        4.310        2.819      172.499       72.755        0.178      331.532       -0.394      848.941
12/27/2021  10:17:00     -233.690       -7.099       -6.154      211.937      111.140       98.077    44917.402    12351.993     9619.145        6.078        3.344      233.798      107.185        0.210      331.551       -0.365      848.933
12/27/2021  10:18:00     -392.018      -14.895       -9.837      261.939      156.606      118.224    68612.248    24525.412    13976.815       13.054        5.356      392.301      124.005        0.100      331.560       -0.348      848.906
12/27/2021  10:19:00     -245.937      -41.350        3.459      224.309      121.695       87.733    50314.532    14809.771     7697.061        6.750        3.641      249.389       90.181        0.131      331.618       -0.252      848.894
12/27/2021  10:20:00     -322.672      -16.787      -14.386      175.947      108.944       87.589    30957.313    11868.892     7671.748        7.754        2.525      323.108       82.215        0.065      331.631       -0.232      848.881
12/27/2021  10:21:00     -341.935        6.337       -1.768      202.514      140.521      100.995    41012.035    19746.237    10200.011        9.395        3.548      341.993      101.771        0.089      331.641       -0.217      848.862
12/27/2021  10:22:00     -400.756       -9.948      -15.905      182.373      129.978       84.325    33260.002    16894.286     7110.700       10.910        2.863      400.879       80.063        0.040      331.683       -0.146      848.846
12/27/2021  10:23:00     -243.466       37.053        0.663      184.826      126.731       80.238    34160.656    16060.748     6438.161        5.864        2.833      246.269       82.253        0.112      331.707       -0.106      848.824
12/27/2021  10:24:00     -346.721       -7.725      -22.116      204.975      128.461      103.081    42014.876    16502.274    10625.698        9.494        3.457      346.807      119.301        0.118      331.718       -0.087      848.846
12/27/2021  10:25:00     -352.944       -1.877      -23.845      196.705      155.988       83.179    38692.696    24332.243     6918.792        9.753        3.497      352.949       79.605        0.051      331.736       -0.058      848.852
12/27/2021  10:26:00     -246.545       13.194      -11.098      122.795      116.872       70.951    15078.614    13658.997     5034.009        4.742        1.689      246.898       56.738        0.053      331.768       -0.007      848.826
12/27/2021  10:27:00     -235.929       22.577        1.034      162.808      105.435       57.889    26506.360    11116.476     3351.091        4.857        2.049      237.006       46.082        0.038      331.768       -0.005      848.829
12/27/2021  10:28:00     -458.336      -13.692      -21.038      272.521      183.316      122.829    74267.613    33604.673    15086.918       16.681        6.148      458.540      113.867        0.062      331.731       -0.067      848.770
12/27/2021  10:29:00     -187.525       36.251      -21.513      184.660      112.870       76.687    34099.329    12739.533     5880.899        4.482        2.636      190.997       68.876        0.130      331.811        0.065      848.786
12/27/2021  10:30:00     -270.660       95.108      -13.774      173.563      143.981       71.658    30124.161    20730.419     5134.836        6.923        2.799      286.884       55.650        0.038      331.782        0.016      848.788
12/27/2021  10:31:00     -436.561      -70.623      -45.262      143.239      169.965       90.126    20517.283    28888.186     8122.625       12.756        2.876      442.236       72.615        0.027      331.812        0.064      848.769
12/27/2021  10:32:00     -391.420      -45.927      -22.500      164.767      154.486       77.470    27148.183    23865.969     6001.605       10.641        2.851      394.105       76.744        0.038      331.819        0.077      848.775
12/27/2021  10:33:00     -246.885      -28.966      -14.620      121.017       98.341       63.543    14645.165     9671.042     4037.760        4.517        1.418      248.578       49.325        0.039      331.876        0.172      848.753
12/27/2021  10:34:00     -283.045      -42.110      -16.753      178.017       94.370       69.468    31690.113     8905.634     4825.813        6.379        2.271      286.160       67.861        0.056      331.916        0.237      848.721
12/27/2021  10:35:00     -358.804      -30.458      -10.745      213.505      101.506       80.918    45584.375    10303.567     6547.646        9.610        3.122      360.095       88.215        0.060      331.909        0.226      848.707
12/27/2021  10:36:00     -286.007        7.756       -2.935      176.668       96.894       66.789    31211.477     9388.468     4460.739        6.346        2.253      286.112       69.017        0.058      331.957        0.304      848.677
12/27/2021  10:37:00     -431.947        8.240      -25.814      201.898      173.688       97.951    40762.616    30167.664     9594.323       13.390        4.026      432.025       94.576        0.048      331.960        0.308      848.629
12/27/2021  10:38:00     -327.389      -70.885      -30.394      208.478      182.797       76.678    43462.975    33414.883     5879.591        9.793        4.138      334.975       83.907        0.063      332.072        0.495      848.666
12/27/2021  10:39:00     -339.023      -55.823      -26.341      200.723      160.560       89.496    40289.635    25779.398     8009.468        9.640        3.704      343.588       85.118        0.061      332.090        0.524      848.630
12/27/2021  10:40:00     -287.654       -1.521       -4.401      210.148      125.894       92.311    44162.257    15849.225     8521.309        7.564        3.427      287.658       83.251        0.084      332.153        0.629      848.616
12/27/2021  10:41:00     -393.155      -19.453        5.961      231.340      147.113       98.125    53518.133    21642.230     9628.540       11.987        4.239      393.636      105.276        0.072      332.131        0.592      848.668
12/27/2021  10:42:00     -543.025      -31.415      -52.819      249.654      210.944      113.156    62327.265    44497.170    12804.237       20.912        5.981      543.933      110.810        0.042      332.076        0.501      848.656
12/27/2021  10:43:00     -320.197      -10.433      -12.726      252.290      193.404      116.318    63650.481    37405.301    13529.976       10.867        5.729      320.367      101.705        0.101      332.063        0.480      848.571
12/27/2021  10:44:00     -409.060       83.983       -2.547      281.871      178.795      128.896    79451.531    31967.750    16614.216       15.119        6.402      417.592      120.354        0.083      332.058        0.472      848.551
12/27/2021  10:45:00     -377.669      -78.681      -24.649      200.353      191.172       98.204    40141.150    36546.720     9643.991       11.787        4.317      385.778       69.995        0.033      332.117        0.567      848.594
12/27/2021  10:46:00     -149.691        9.566        1.332      135.312       91.673       65.072    18309.465     8403.888     4234.314        2.672        1.547      149.996       59.837        0.159      332.201        0.707      848.598
12/27/2021  10:47:00     -277.890       33.567       10.797      223.605      168.451      103.305    49999.023    28375.822    10671.847        8.374        4.452      279.910      111.316        0.158      332.168        0.652      848.628
12/27/2021  10:48:00     -482.581       14.076       -5.275      327.359      181.715      125.175   107163.735    33020.266    15668.697       19.445        7.793      482.786      126.949        0.069      332.086        0.518      848.630
12/27/2021  10:49:00     -468.667       15.979      -31.167      231.312      165.996      100.788    53505.110    27554.703    10158.125       15.603        4.561      468.939       90.575        0.037      332.086        0.516      848.637
12/27/2021  10:50:00     -183.964       21.601        8.600      196.175      132.520       79.447    38484.600    17561.609     6311.766        4.836        3.118      185.228       85.684        0.214      332.210        0.723      848.636
12/27/2021  10:51:00     -511.676       13.053      -25.911      257.647      154.060       92.392    66381.752    23734.476     8536.322       18.063        4.933      511.842       90.082        0.031      332.098        0.538      848.632
12/27/2021  10:52:00     -591.160      -34.266       -5.472      343.182      226.675      158.377   117773.854    51381.762    25083.224       27.242        9.712      592.152      166.885        0.079      332.001        0.377      848.601
12/27/2021  10:53:00     -456.183        5.668        2.199      340.805      188.220      161.124   116147.790    35426.908    25961.006       19.281        8.877      456.219      178.878        0.154      332.078        0.503      848.593
12/27/2021  10:54:00     -331.680       37.566      -18.808      291.285      184.134      127.497    84847.066    33905.196    16255.566       12.337        6.750      333.800      130.376        0.153      332.122        0.578      848.600
12/27/2021  10:55:00     -208.083      -47.384      -18.734      206.150      120.520      100.367    42497.923    14525.184    10073.523        5.648        3.355      213.410       79.039        0.137      332.243        0.778      848.682
12/27/2021  10:56:00     -475.578        3.962       -9.126      430.401      243.523      168.052   185245.337    59303.623    28241.345       24.948       13.640      475.594      176.595        0.138      332.055        0.466      848.610
12/27/2021  10:57:00     -423.958       80.727       -5.806      303.866      180.304      123.837    92334.534    32509.626    15335.697       16.321        7.009      431.575      137.163        0.101      332.114        0.563      848.594
12/27/2021  10:58:00     -553.936      -85.721      -47.796      330.241      199.312      163.651   109059.333    39725.402    26781.616       24.599        8.778      560.529      150.187        0.072      332.055        0.466      848.666
12/27/2021  10:59:00     -330.343      -34.230      -24.622      231.070      178.456      110.985    53393.551    31846.704    12317.587       10.421        4.878      332.112      119.977        0.131      332.160        0.640      848.656
12/27/2021  11:00:00     -232.237       76.692       -3.600      267.508      157.466       98.754    71560.618    24795.416     9752.263        8.295        5.305      244.573       93.844        0.147      332.226        0.748      848.617
12/27/2021  11:01:00     -679.056        5.104      -36.313      366.678      195.471      125.226   134453.079    38208.944    15681.569       32.537        9.417      679.075      145.383        0.046      332.063        0.480      848.572
12/27/2021  11:02:00     -572.140      -11.259       -5.452      404.725      228.479      134.832   163802.081    52202.782    18179.738       28.080       11.709      572.251      138.145        0.058      332.026        0.418      848.510
12/27/2021  11:03:00     -657.468      -58.466      -32.325      401.804      182.811      153.924   161446.770    33419.769    23692.560       32.760       10.928      660.063      194.665        0.087      331.969        0.325      848.502
12/27/2021  11:04:00     -503.578       -4.133      -26.726      361.287      238.940      155.203   130528.015    57092.312    24087.971       23.298       10.585      503.595      154.058        0.094      332.072        0.495      848.492
12/27/2021  11:05:00     -539.052       48.138      -39.321      359.829      196.612      111.742   129476.628    38656.414    12486.291       23.750        9.031      541.197      150.712        0.078      332.096        0.534      848.440
12/27/2021  11:06:00     -360.715      -11.338       -5.769      292.959      160.530      116.394    85824.761    25770.038    13547.501       12.769        6.257      360.893      118.264        0.107      332.165        0.647      848.440
12/27/2021  11:07:00     -427.924      -47.058      -24.394      304.612      162.513      136.477    92788.704    26410.557    18625.881       16.185        6.891      430.504      158.393        0.135      332.145        0.615      848.463
12/27/2021  11:08:00     -625.642      -53.386      -23.738      298.752      178.766      135.549    89252.893    31957.293    18373.557       26.719        6.979      627.916      154.485        0.061      332.019        0.406      848.462
12/27/2021  11:09:00     -711.128        7.380      -15.195      398.997      228.856      161.214   159198.755    52375.265    25989.831       37.173       11.878      711.167      188.786        0.070      331.905        0.218      848.460
12/27/2021  11:10:00     -501.483      -39.564       -9.191      326.742      185.493      155.225   106760.587    34407.578    24094.699       20.917        8.263      503.041      160.772        0.102      331.956        0.302      848.466
12/27/2021  11:11:00     -591.227      -77.289      -51.562      206.429      144.271      114.845    42612.837    20814.136    13189.463       21.738        3.831      596.257      100.578        0.028      331.964        0.316      848.454
12/27/2021  11:12:00     -507.431       51.251       -6.754      254.705      210.114      110.195    64874.859    44147.725    12142.977       19.064        6.058      510.013      117.160        0.053      331.999        0.373      848.496
12/27/2021  11:13:00     -588.317      -55.969      -13.817      319.075      270.496      126.157   101808.914    73167.881    15915.712       27.013        9.545      590.973      136.323        0.053      331.930        0.258      848.467
12/27/2021  11:14:00     -373.188       28.689       -4.086      287.480      222.422      135.961    82644.687    49471.359    18485.260       14.533        7.530      374.290      133.074        0.126      331.905        0.219      848.455
12/27/2021  11:15:00     -441.207       58.820      -24.217      301.541      171.048      107.465    90926.990    29257.373    11548.643       16.520        6.587      445.111      112.072        0.063      331.894        0.202      848.452
12/27/2021  11:16:00     -526.829      -62.774      -47.898      230.487      187.374      121.914    53124.094    35108.886    14863.031       19.342        5.155      530.556      116.585        0.048      331.916        0.237      848.434
12/27/2021  11:17:00     -377.454        9.522      -36.905      267.864      238.155      103.305    71751.140    56717.785    10671.974       14.151        6.957      377.574      107.824        0.082      331.908        0.225      848.410
12/27/2021  11:18:00     -518.975      -50.394      -51.810      233.961      181.906      106.710    54737.706    33089.912    11386.960       18.687        4.961      521.416      105.522        0.041      331.961        0.311      848.406
12/27/2021  11:19:00     -650.934      -44.266      -40.814      311.877      198.012      137.005    97267.312    39208.847    18770.496       29.126        7.762      652.437      135.106        0.043      331.838        0.109      848.392
12/27/2021  11:20:00     -479.117      -50.574      -56.640      307.819      223.916      132.634    94752.671    50138.513    17591.746       19.887        8.124      481.779      133.727        0.077      331.883        0.184      848.417
12/27/2021  11:21:00     -596.794      -41.870      -31.562      265.875      168.306      121.744    70689.380    28327.022    14821.666       23.635        5.692      598.261      122.525        0.042      331.874        0.168      848.426
12/27/2021  11:22:00     -302.767      -35.428      -30.090      229.221      157.346      104.610    52542.043    24757.714    10943.350        9.102        4.412      304.833      102.065        0.112      332.003        0.381      848.475
12/27/2021  11:23:00     -386.069      -70.843       -4.217      265.993      196.731      126.561    70752.132    38703.210    16017.786       13.976        6.274      392.515      132.910        0.115      331.986        0.353      848.487
12/27/2021  11:24:00     -311.553       30.180       -5.242      244.019      138.757       90.297    59545.135    19253.543     8153.621        9.246        4.348      313.011       83.007        0.070      332.040        0.442      848.477
12/27/2021  11:25:00     -304.604       37.869      -15.307      268.055      138.462       89.997    71853.252    19171.710     8099.509        9.677        4.956      306.949       93.549        0.093      332.079        0.504      848.495
12/27/2021  11:26:00     -304.491      -16.519       -8.101      240.454      178.979       96.024    57818.179    32033.610     9220.636        9.604        4.954      304.939      106.360        0.122      332.075        0.499      848.509
12/27/2021  11:27:00     -594.900      -50.418      -48.362      304.197      146.916      117.507    92535.634    21584.202    13807.784       24.333        6.396      597.033      112.546        0.036      331.942        0.280      848.506
12/27/2021  11:28:00     -510.922      144.854      -12.043      236.061      194.678      114.718    55724.962    37899.609    13160.210       19.446        5.339      531.059      103.095        0.038      331.935        0.267      848.478
12/27/2021  11:29:00     -247.031       30.778      -12.284      151.829      121.635       78.673    23051.965    14795.131     6189.423        5.307        2.202      248.941       69.538        0.078      332.171        0.658      848.425
12/27/2021  11:30:00     -370.835     -111.453      -25.066      215.582      181.621       95.633    46475.752    32986.323     9145.729       11.957        4.430      387.222       79.262        0.042      332.126        0.582      848.388
12/27/2021  11:31:00     -252.909      -10.782        1.907      286.020      151.904      108.288    81807.631    23074.881    11726.265        9.032        5.830      253.139      121.168        0.229      332.077        0.504      848.376
12/27/2021  11:32:00     -284.617       15.473      -11.855      161.583      152.172       87.119    26109.174    23156.419     7589.636        6.911        2.843      285.037       77.279        0.074      332.108        0.554      848.334
12/27/2021  11:33:00     -222.069      -25.288      -13.451      164.560      107.674       70.009    27079.851    11593.658     4901.213        4.685        2.179      223.504       67.451        0.091      332.192        0.692      848.333
12/27/2021  11:34:00     -319.238       -3.352      -29.723      184.777      100.264       92.718    34142.573    10052.917     8596.637        7.779        2.640      319.256       92.549        0.084      332.131        0.590      848.336
12/27/2021  11:35:00     -448.970      -61.240      -39.233      275.455      144.380      105.246    75875.464    20845.540    11076.763       15.731        5.390      453.128      123.026        0.074      332.018        0.405      848.336
12/27/2021  11:36:00     -483.269       -1.958       -8.663      303.092      181.484      122.817    91864.808    32936.453    15084.000       18.673        6.994      483.273      139.753        0.084      332.007        0.386      848.321
12/27/2021  11:37:00     -516.583      -78.355      -31.160      271.120      193.914      126.402    73506.218    37602.604    15977.452       20.050        6.354      522.491      136.795        0.069      332.032        0.429      848.288
12/27/2021  11:38:00     -426.687      -53.983      -47.114      169.009      179.552       90.143    28564.032    32238.961     8125.713       12.805        3.446      430.088       87.622        0.042      332.049        0.456      848.343
12/27/2021  11:39:00     -340.792      -15.832      -16.607      211.389      103.406       90.200    44685.265    10692.813     8135.979        9.008        3.176      341.160       98.435        0.083      332.119        0.573      848.365
12/27/2021  11:40:00     -185.446      -33.858       -3.559      166.931      105.255       73.437    27866.005    11078.687     5392.941        3.994        2.217      188.511       78.241        0.172      332.332        0.924      848.362
12/27/2021  11:41:00     -176.522       13.889        6.189      152.679       76.996       70.962    23310.996     5928.384     5035.594        3.283        1.714      177.068       73.350        0.172      332.353        0.958      848.385
12/27/2021  11:42:00     -499.024       37.242      -27.213      381.847      172.463      129.569   145807.398    29743.375    16788.104       22.171        9.617      500.412      163.325        0.107      332.122        0.576      848.354
12/27/2021  11:43:00     -558.651      134.404        6.855      350.261      247.041      140.307   122682.464    61029.278    19685.960       26.676       10.170      574.592      153.038        0.071      332.008        0.388      848.291
12/27/2021  11:44:00     -455.905      -53.321      -29.797      265.200      178.256      117.299    70330.781    31775.190    13759.156       16.370        5.793      459.013      108.975        0.056      331.946        0.285      848.278
12/27/2021  11:45:00     -164.745       56.505       -1.184      218.784      145.945      100.189    47866.622    21299.934    10037.888        5.476        3.960      174.166       78.501        0.203      332.127        0.585      848.255
12/27/2021  11:46:00     -195.653       35.155      -19.535      171.024      121.376       74.656    29249.340    14732.160     5573.469        4.472        2.478      198.786       68.945        0.120      332.188        0.687      848.281
12/27/2021  11:47:00     -433.863       95.296      -15.204      237.418      157.875       98.420    56367.366    24924.419     9686.413       14.425        4.549      444.205       95.330        0.046      332.028        0.422      848.291
12/27/2021  11:48:00     -407.274       -9.398       -5.721      260.599      152.794       99.894    67911.773    23345.869     9978.807       13.360        5.062      407.382      101.936        0.063      331.942        0.280      848.309
12/27/2021  11:49:00     -182.015       -3.015        3.769      260.144      120.438      120.641    67675.053    14505.324    14554.331        6.493        4.837      182.040      139.155        0.584      332.065        0.483      848.279
12/27/2021  11:50:00     -478.571       84.006      -17.720      280.678      213.267      131.634    78779.906    45482.681    17327.591       18.897        7.080      485.888      143.516        0.087      331.965        0.315      848.291
12/27/2021  11:51:00     -252.783       38.881        1.426      176.075      154.591       86.465    31002.503    23898.486     7476.168        6.388        3.119      255.755       82.324        0.104      332.000        0.376      848.292
12/27/2021  11:52:00     -306.461       37.911      -34.113      168.644      147.017       83.836    28440.883    21613.988     7028.436        7.679        2.854      308.797       88.432        0.082      332.134        0.597      848.287
12/27/2021  11:53:00     -309.293      136.094       -2.556      218.309      152.434      100.106    47658.630    23236.207    10021.232        9.754        4.046      337.911      105.581        0.098      332.087        0.519      848.301
12/27/2021  11:54:00     -299.010       62.338        6.670      182.392      118.174       76.725    33266.748    13965.084     5886.711        7.322        2.656      305.439       69.494        0.052      332.111        0.558      848.335
12/27/2021  11:55:00     -299.341      -77.144      -42.918      161.914      119.092       75.601    26216.007    14182.976     5715.557        7.175        2.306      309.122       79.941        0.067      332.078        0.504      848.321
12/27/2021  11:56:00     -247.313      110.677        1.325      205.552      134.922       95.476    42251.706    18203.928     9115.594        7.148        3.479      270.949       94.070        0.121      332.043        0.446      848.328
12/27/2021  11:57:00     -229.563       24.932      -10.212      159.566      127.824       67.194    25461.373    16338.945     4514.988        4.986        2.316      230.913       36.615        0.025      332.099        0.539      848.316
12/27/2021  11:58:00     -344.769       30.520       -4.553      169.224      149.680       93.827    28636.873    22404.074     8803.477        8.982        2.992      346.117      100.862        0.085      331.967        0.321      848.333
12/27/2021  11:59:00     -410.838       71.670      -24.083      214.746      148.564       85.963    46115.997    22071.410     7389.586       12.503        3.779      417.042       92.597        0.049      331.882        0.182      848.333
12/27/2021  12:00:00     -396.347      -12.188      -21.167      220.180      122.474       87.917    48479.053    14999.934     7729.409       11.443        3.560      396.534       97.422        0.060      331.856        0.138      848.297
12/27/2021  12:01:00     -305.263       92.561      -27.909      202.292      196.353       90.377    40921.944    38554.664     8168.090        9.507        4.382      318.987       93.808        0.086      331.888        0.193      848.297
12/27/2021  12:02:00     -199.446      -32.042      -36.415      230.829      127.224       79.116    53281.970    16185.840     6259.269        5.892        3.786      202.004       79.729        0.156      331.916        0.238      848.271
12/27/2021  12:03:00     -358.241      -23.836        4.727      282.577      179.808      149.976    79849.791    32330.951    22492.835       13.178        6.734      359.033      130.467        0.132      331.854        0.135      848.273
12/27/2021  12:04:00     -384.531       -1.947      -17.727      288.095      176.457       92.315    82998.904    31137.006     8522.108       13.540        6.133      384.536      107.655        0.078      331.857        0.140      848.244
12/27/2021  12:05:00     -382.053       18.247      -19.018      231.384      143.312      110.825    53538.650    20538.304    12282.105       11.649        4.318      382.488      112.840        0.087      331.896        0.205      848.212
12/27/2021  12:06:00     -295.551       86.902      -10.982      160.131      133.890       97.140    25642.076    17926.402     9436.197        7.400        2.650      308.062       73.567        0.057      331.999        0.372      848.222
12/27/2021  12:07:00     -337.659       10.442      -17.783      188.183      137.476       83.402    35412.791    18899.623     6955.845        8.784        3.063      337.820       81.488        0.058      332.023        0.414      848.226
12/27/2021  12:08:00     -360.975       88.722       -6.335      227.659      169.532      106.730    51828.646    28741.029    11391.248       11.507        4.598      371.718      110.650        0.089      331.985        0.350      848.197
12/27/2021  12:09:00     -186.046       58.183       -2.204      184.780      120.912       83.653    34143.630    14619.592     6997.777        4.687        2.788      194.932       50.872        0.068      332.095        0.533      848.158
12/27/2021  12:10:00     -241.834      -30.111      -14.806      175.828      117.024       88.272    30915.465    13694.662     7791.979        5.600        2.620      243.701       81.595        0.112      332.008        0.388      848.129
12/27/2021  12:11:00     -163.346      -21.207        7.062      196.642       99.938      103.784    38668.036     9987.529    10771.130        4.329        2.971      164.717      105.104        0.407      332.134        0.598      848.125
12/27/2021  12:12:00     -160.299       61.610       -5.686      151.941       92.408       64.587    23086.071     8539.193     4171.461        3.265        1.790      171.731       47.988        0.078      332.188        0.688      848.103
12/27/2021  12:13:00     -148.277       67.509        8.752      119.628       79.747       58.994    14310.813     6359.613     3480.309        2.538        1.208      162.922       54.114        0.110      332.328        0.918      848.105
12/27/2021  12:14:00     -210.041       92.857       -2.362      151.433      108.469       70.810    22932.100    11765.524     5014.074        4.622        1.986      229.651       26.363        0.013      332.231        0.757      848.097
12/27/2021  12:15:00     -193.854       48.207      -21.715      132.353      126.479       68.360    17517.378    15996.968     4673.149        3.927        1.909      199.758       57.863        0.084      332.138        0.603      848.094
12/27/2021  12:16:00     -263.740      138.702      -10.845      187.602      190.626      102.017    35194.692    36338.265    10407.450        8.541        4.097      297.988       96.469        0.105      331.949        0.292      848.022
12/27/2021  12:17:00     -300.008       91.506       -1.781      196.207      155.813      100.561    38497.335    24277.648    10112.496        8.562        3.644      313.653       84.012        0.072      332.010        0.392      848.033
12/27/2021  12:18:00     -287.927      -10.957      -13.206      224.201      118.257       83.836    50266.312    13984.760     7028.498        7.722        3.564      288.136       91.876        0.102      331.978        0.340      848.027
12/27/2021  12:19:00     -417.627      134.346      -25.206      128.153      120.235       74.935    16423.236    14456.449     5615.196       11.479        1.825      438.704       62.259        0.020      331.812        0.065      847.988
12/27/2021  12:20:00     -320.854      163.662      -21.525      151.843      116.113       72.884    23056.371    13482.168     5312.034        8.602        2.093      360.184       54.984        0.023      331.807        0.057      847.949
12/27/2021  12:21:00     -192.390       15.853       -6.664      153.941      110.867       85.738    23697.761    12291.479     7350.938        4.032        2.167      193.042       84.255        0.190      331.971        0.330      847.944
12/27/2021  12:22:00     -163.379       35.808       17.838      175.331      110.848       78.734    30740.848    12287.262     6198.995        3.875        2.461      167.257       66.002        0.156      331.999        0.375      847.938
12/27/2021  12:23:00     -263.989       15.489      -18.805      218.925      138.229       93.444    47928.264    19107.194     8731.823        7.301        3.788      264.443       82.329        0.097      331.838        0.109      847.924
12/27/2021  12:24:00     -182.364       36.581       -8.644      119.322      122.541       80.206    14237.695    15016.343     6433.053        3.517        1.784      185.996       57.109        0.094      331.942        0.281      847.938
12/27/2021  12:25:00     -306.225      117.842       11.105      194.862      116.699       86.542    37971.227    13618.647     7489.593        8.342        2.954      328.117       86.048        0.069      331.860        0.146      847.947
12/27/2021  12:26:00     -277.347       35.512       -9.796      259.373      128.025       84.143    67274.126    16390.422     7079.984        8.449        4.537      279.612       87.116        0.097      331.927        0.256      847.904
12/27/2021  12:27:00     -304.520       26.580      -17.098      222.404      144.245       88.654    49463.443    20806.680     7859.469        8.592        3.906      305.678       81.141        0.070      331.790        0.029      847.904
12/27/2021  12:28:00     -388.461       11.943       -8.747      274.992      139.150      111.291    75620.769    19362.768    12385.781       12.923        5.368      388.644       87.835        0.051      331.726       -0.075      847.866
12/27/2021  12:29:00     -320.373       16.068       11.344      239.221      146.447      114.357    57226.621    21446.732    13077.482        9.737        4.588      320.775      118.068        0.135      331.704       -0.113      847.920
12/27/2021  12:30:00     -423.166      -84.810      -31.276      222.553      159.309       93.297    49529.901    25379.442     8704.396       13.541        4.181      431.581      109.812        0.065      331.635       -0.226      847.908
12/27/2021  12:31:00     -257.906      -42.412      -21.387      191.269      145.947      107.885    36583.642    21300.383    11639.273        6.913        3.476      261.370      101.609        0.151      331.787        0.025      847.941
12/27/2021  12:32:00      -65.690       27.648       -3.673      148.847       82.119       72.067    22155.374     6743.598     5193.686        1.959        1.705       71.271       62.979        0.781      331.956        0.306      847.928
12/27/2021  12:33:00     -227.236       32.477      -33.289      200.360      160.075       73.777    40144.269    25624.060     5443.069        6.249        3.561      229.545       86.881        0.143      331.796        0.040      847.876
12/27/2021  12:34:00     -188.539       79.487        0.029      167.113      122.431       64.538    27926.715    14989.355     4165.128        4.446        2.354      204.609       70.191        0.118      331.935        0.269      847.853
12/27/2021  12:35:00     -174.550       -3.147        0.613      144.955      142.994       93.814    21011.903    20447.409     8801.060        4.036        2.513      174.578       82.043        0.221      331.914        0.234      847.853
12/27/2021  12:36:00     -356.585       -8.200      -22.725      168.102      105.271       73.113    28258.447    11082.027     5345.504        8.620        2.234      356.679       70.538        0.039      331.818        0.076      847.858
12/27/2021  12:37:00     -276.048       66.212      -12.264      168.381      122.495       68.681    28352.321    15005.119     4717.022        6.440        2.404      283.878       71.530        0.063      331.811        0.063      847.843
12/27/2021  12:38:00     -252.844       -6.983      -24.645      182.440      105.285       76.163    33284.184    11084.935     5800.857        5.737        2.508      252.941       72.438        0.082      331.913        0.233      847.823
12/27/2021  12:39:00     -320.830      -15.770      -33.314      194.146      114.139       91.744    37692.530    13027.722     8416.921        8.170        2.957      321.218       79.407        0.061      331.895        0.202      847.778
12/27/2021  12:40:00     -230.018      -53.918      -27.294      171.909      122.781       96.278    29552.649    15075.284     9269.373        5.522        2.695      236.252       94.323        0.159      331.974        0.332      847.758
12/27/2021  12:41:00      -59.907      -14.808      -31.552      129.938       95.251       65.819    16883.868     9072.823     4332.173        1.754        1.514       61.710       64.341        1.087      332.187        0.686      847.750
12/27/2021  12:42:00      -75.599       32.723       -0.116      151.139       56.874       44.347    22842.857     3234.699     1966.618        1.741        1.402       82.377       60.025        0.531      332.247        0.784      847.713
12/27/2021  12:43:00     -266.445      -15.636      -28.194      175.154      166.405       78.498    30679.056    27690.777     6161.924        6.827        3.227      266.903       73.896        0.077      332.043        0.446      847.742
12/27/2021  12:44:00     -258.762       19.977      -12.113      207.052      140.287       86.212    42870.334    19680.351     7432.590        6.873        3.499      259.532       60.895        0.055      332.086        0.518      847.773
12/27/2021  12:45:00     -238.857       77.586       10.846      188.158      123.266       77.147    35403.581    15194.624     5951.652        5.986        2.827      251.142       74.875        0.089      332.012        0.395      847.800
12/27/2021  12:46:00     -256.338       75.643        9.434      251.130      120.120       98.145    63066.098    14428.752     9632.358        7.931        4.356      267.266      126.157        0.223      331.999        0.375      847.785
12/27/2021  12:47:00     -242.261      161.415       13.071      182.516      166.998       94.691    33311.971    27888.219     8966.309        7.753        3.508      291.111      107.379        0.136      332.029        0.425      847.783
12/27/2021  12:48:00     -151.891       83.444        7.239      127.309      105.376       71.998    16207.640    11104.187     5183.676        3.128        1.625      173.302       62.813        0.131      332.117        0.569      847.793
12/27/2021  12:49:00     -340.080      140.788        1.189      203.335      171.816       98.033    41345.166    29520.612     9610.523       10.796        4.024      368.070       91.396        0.062      332.017        0.403      847.764
12/27/2021  12:50:00     -258.273       60.706        0.057      154.965      156.353       77.889    24014.062    24446.235     6066.658        6.245        2.726      265.312       62.425        0.055      332.105        0.548      847.764
12/27/2021  12:51:00     -298.409      -24.063      -18.216      188.611      139.189       94.985    35574.038    19373.539     9022.067        7.695        3.198      299.377       95.709        0.102      332.079        0.507      847.757
12/27/2021  12:52:00     -156.083      -15.413       -1.135      142.996      116.574       88.881    20447.958    13589.449     7899.876        3.326        2.097      156.842       70.182        0.200      332.189        0.687      847.786
12/27/2021  12:53:00     -224.064       18.017      -33.705      211.737      108.292       83.376    44832.578    11727.197     6951.547        5.758        3.176      224.787       74.067        0.109      332.102        0.544      847.807
12/27/2021  12:54:00     -134.591       20.151      -10.632      165.064      140.347       88.810    27246.146    19697.414     7887.153        3.672        2.742      136.091       70.830        0.271      332.193        0.693      847.791
12/27/2021  12:55:00     -293.066       74.639      -22.321      163.440      110.616       73.571    26712.758    12235.938     5412.715        6.815        2.218      302.421       76.734        0.064      332.033        0.429      847.754
12/27/2021  12:56:00     -435.095      129.705        8.469      219.549      137.773      107.297    48201.930    18981.401    11512.742       14.244        3.935      454.017      108.881        0.058      331.957        0.303      847.712
12/27/2021  12:57:00     -304.238       59.508      -22.375      234.174      140.179       93.802    54837.476    19650.204     8798.746        8.993        4.164      310.004       84.688        0.075      332.040        0.442      847.762
12/27/2021  12:58:00     -297.171        4.505      -27.963      261.950      167.921      130.009    68617.873    28197.480    16902.241       10.139        5.686      297.205      120.052        0.163      332.044        0.448      847.735
12/27/2021  12:59:00     -322.012       81.759        1.175      204.867      138.208       84.783    41970.337    19101.540     7188.237        8.931        3.413      332.230       85.512        0.066      332.109        0.555      847.780
12/27/2021  13:00:00     -351.772      -31.012       -0.253      289.039      155.633      114.587    83543.524    24221.502    13130.208       12.278        6.045      353.136      134.682        0.145      332.040        0.442      847.767
12/27/2021  13:01:00     -320.384      -33.126      -19.664      232.991      147.079      100.665    54284.587    21632.216    10133.526        9.507        4.303      322.092       98.075        0.093      332.052        0.460      847.793
12/27/2021  13:02:00     -354.341       33.298       -5.220      303.963      155.337      122.413    92393.278    24129.717    14984.824       12.908        6.575      355.902      117.199        0.108      332.026        0.418      847.809
12/27/2021  13:03:00     -317.485      151.765        6.883      171.469      132.844       87.632    29401.749    17647.481     7679.306        8.929        2.736      351.893       90.102        0.066      332.063        0.479      847.800
12/27/2021  13:04:00     -297.070      100.398      -14.226      180.266      129.733       86.521    32495.704    16830.634     7485.938        7.766        2.841      313.577       84.409        0.072      332.128        0.588      847.779
12/27/2021  13:05:00     -226.039       15.199        3.405      197.729      129.146       85.316    39096.793    16678.735     7278.856        5.718        3.153      226.549       63.191        0.078      332.222        0.742      847.748
12/27/2021  13:06:00     -301.426       78.298      -18.205      166.652      125.636       69.981    27772.729    15784.444     4897.319        7.288        2.423      311.429       56.043        0.032      332.143        0.612      847.728
12/27/2021  13:07:00     -290.118       90.384      -22.134      236.684      110.860       87.404    56019.542    12289.883     7639.485        8.437        3.797      303.871       64.909        0.046      332.126        0.584      847.703
12/27/2021  13:08:00     -305.344       55.022       11.940      208.323      111.972       79.800    43398.331    12537.743     6367.982        7.934        3.115      310.261       82.388        0.071      332.112        0.560      847.691
12/27/2021  13:09:00     -133.943        5.727       10.744      187.215       92.750       85.117    35049.303     8602.637     7244.954        3.448        2.545      134.065       74.005        0.305      332.172        0.660      847.725
12/27/2021  13:10:00     -325.270      101.019       -1.239      189.307      123.751       83.205    35837.171    15314.268     6923.079        8.703        2.904      340.596       81.858        0.058      332.079        0.506      847.709
12/27/2021  13:11:00     -109.375        7.537       -6.275      103.471       79.906       52.408    10706.270     6385.034     2746.548        1.594        0.992      109.635       47.819        0.190      332.210        0.722      847.723
12/27/2021  13:12:00     -168.866       26.239      -18.420      121.476       92.199       59.221    14756.476     8500.710     3507.121        2.815        1.338      170.892       57.144        0.112      332.069        0.488      847.704
12/27/2021  13:13:00     -186.481       93.364      -23.774      163.361       86.446       58.678    26686.828     7472.906     3443.052        4.082        1.880      208.547       43.144        0.043      332.031        0.427      847.678
12/27/2021  13:14:00     -224.148       42.375      -13.825      149.657      114.423       74.854    22397.176    13092.516     5603.180        4.665        2.055      228.118       68.421        0.090      332.016        0.402      847.699
12/27/2021  13:15:00     -298.201       81.157      -10.195      192.982      140.500       96.579    37241.992    19740.361     9327.536        8.095        3.315      309.048       90.800        0.086      331.929        0.258      847.757
12/27/2021  13:16:00     -228.340       21.281       -5.691      177.644      124.532       72.820    31557.349    15508.100     5302.750        5.249        2.618      229.329       79.080        0.119      331.894        0.202      847.828
12/27/2021  13:17:00     -186.684      102.867      -12.121      183.951      104.788       68.532    33837.818    10980.519     4696.666        4.754        2.476      213.150       47.637        0.050      331.959        0.310      847.840
12/27/2021  13:18:00     -247.262       54.216      -28.446      133.978      101.359       57.038    17949.979    10273.689     3253.337        4.818        1.574      253.136       53.279        0.044      331.834        0.103      847.831
12/27/2021  13:19:00     -260.221      105.314      -36.861      108.951      140.379       52.698    11870.212    19706.267     2777.034        5.725        1.718      280.724       40.576        0.021      331.762       -0.016      847.803
12/27/2021  13:20:00      -99.859       54.202       -4.532      214.538       97.974       76.017    46026.584     9598.829     5778.633        3.716        3.070      113.621       75.036        0.436      331.858        0.145      847.804
12/27/2021  13:21:00     -263.024      -41.724      -19.637      247.892      132.396       78.661    61450.228    17528.606     6187.619        7.822        4.258      266.313       77.118        0.084      331.660       -0.183      847.703
12/27/2021  13:22:00     -203.270       56.959      -31.279      151.453       93.073       69.630    22937.938     8662.565     4848.379        4.099        1.822      211.099       60.519        0.082      331.644       -0.209      847.693
12/27/2021  13:23:00      -32.366       49.319       -3.095      134.629       70.414       51.048    18124.888     4958.145     2605.899        1.458        1.284       58.991       52.264        0.785      331.711       -0.097      847.715
12/27/2021  13:24:00      -33.061       41.332      -20.989      101.516       62.183       74.409    10305.595     3866.729     5536.722        1.147        0.985       52.928       52.300        0.976      331.722       -0.081      847.714
12/27/2021  13:25:00     -192.767       47.288      -28.117      254.585      106.173       83.151    64813.478    11272.767     6914.100        6.158        4.150      198.482       61.794        0.097      331.630       -0.233      847.686
12/27/2021  13:26:00     -195.479       80.819      -29.598      136.950       92.304       64.752    18755.316     8520.064     4192.842        3.854        1.573      211.528       59.581        0.079      331.548       -0.369      847.667
12/27/2021  13:27:00      -50.782      123.720      -22.105       90.692       76.815       60.645     8225.024     5900.544     3677.792        1.809        0.890      133.737       33.850        0.064      331.624       -0.242      847.661
12/27/2021  13:28:00        1.004       -6.536        5.371       93.769       87.684       67.837     8792.608     7688.452     4601.816        1.057        1.054        6.613       41.109       38.644      331.769       -0.003      847.671
12/27/2021  13:29:00     -168.487       48.319      -36.567      198.618       94.066       64.588    39449.084     8848.413     4171.621        4.225        2.623      175.278       64.650        0.136      331.600       -0.282      847.707
12/27/2021  13:30:00     -164.835       55.884       -4.013      101.468       82.012       53.217    10295.734     6726.021     2832.055        2.508        0.993      174.051       53.200        0.093      331.486       -0.469      847.719
12/27/2021  13:31:00     -261.423       47.746      -36.761      155.132      112.827       77.536    24065.785    12729.828     6011.884        5.738        2.140      265.748       74.407        0.078      331.457       -0.518      847.695
12/27/2021  13:32:00     -215.010       37.773      -18.170      114.542       98.413       62.655    13119.768     9685.026     3925.689        3.735        1.337      218.303       36.782        0.028      331.501       -0.445      847.662
12/27/2021  13:33:00      -99.577       64.156      -18.753      100.030       68.176       40.809    10006.009     4647.936     1665.398        1.535        0.816      118.456       38.701        0.107      331.642       -0.211      847.678
12/27/2021  13:34:00      -41.589       21.962      -29.646      102.701       87.232       64.024    10547.578     7609.401     4099.039        1.267        1.113       47.032       60.036        1.629      331.741       -0.048      847.709
12/27/2021  13:35:00     -188.575       38.725      -19.777      164.566      115.829       82.221    27081.866    13416.409     6760.289        4.235        2.363      192.510       75.926        0.156      331.544       -0.375      847.715
12/27/2021  13:36:00     -125.850       83.391      -34.390      159.133      145.206       86.881    25323.453    21084.858     7548.301        3.896        2.698      150.971       55.716        0.136      331.606       -0.273      847.714
12/27/2021  13:37:00       40.305      -17.230      -13.365       95.095       78.851       54.459     9043.001     6217.510     2965.748        1.016        0.911       43.834       49.997        1.301      331.757       -0.021      847.748
12/27/2021  13:38:00     -150.846       38.278      -19.640      177.984      104.064       66.200    31678.398    10829.377     4382.417        3.574        2.345      155.626       64.894        0.174      331.699       -0.119      847.764
12/27/2021  13:39:00     -114.777        6.781       -7.052      182.873       68.808       60.876    33442.374     4734.556     3705.890        2.757        2.094      114.977       61.981        0.291      331.636       -0.221      847.754
12/27/2021  13:40:00      -91.512       52.464      -23.455      168.677      102.359       62.988    28452.062    10477.355     3967.427        2.728        2.145      105.484       45.001        0.182      331.627       -0.237      847.733
12/27/2021  13:41:00     -108.027       39.888      -13.098      116.132       70.110       66.475    13486.605     4915.464     4418.951        1.812        1.141      115.156       65.775        0.326      331.702       -0.114      847.713
12/27/2021  13:42:00      -13.198       58.105       -0.356       80.092       65.487       43.034     6414.743     4288.573     1851.894        0.805        0.628       59.585       31.214        0.274      331.727       -0.070      847.700
12/27/2021  13:43:00      -80.520       26.127       -7.150      158.312       72.515       45.735    25062.620     5258.473     2091.671        1.981        1.621       84.653       38.242        0.204      331.770       -0.002      847.723
12/27/2021  13:44:00     -293.869       38.893      -21.931       97.085       68.297       51.478     9425.589     4664.429     2649.954        5.254        0.837      296.432       47.814        0.026      331.617       -0.257      847.772
12/27/2021  13:45:00      -75.262       21.868       -4.005       81.479       72.045       54.151     6638.784     5190.543     2932.358        1.046        0.738       78.375       37.503        0.229      331.770       -0.000      847.807
12/27/2021  13:46:00     -104.769       77.120      -20.145      132.462       86.633       66.925    17546.138     7505.203     4478.945        2.342        1.477      130.092       72.953        0.314      331.697       -0.121      847.813
12/27/2021  13:47:00     -202.159       23.290      -31.505       82.941       69.615       55.052     6879.226     4846.306     3030.726        2.858        0.738      203.496       38.096        0.035      331.760       -0.020      847.830
12/27/2021  13:48:00      -68.470        2.212       -8.165      137.157       72.047       49.285    18812.011     5190.827     2429.012        1.559        1.322       68.506       34.250        0.250      331.879        0.179      847.859
12/27/2021  13:49:00     -189.934       41.256       -5.725      167.668       91.893       78.366    28112.631     8444.294     6141.236        4.025        2.135      194.364       80.957        0.173      331.787        0.026      847.924
12/27/2021  13:50:00     -154.590       24.289      -31.551      148.841       78.009       57.126    22153.648     6085.456     3263.409        2.849        1.575      156.487       57.433        0.135      331.809        0.062      847.885
12/27/2021  13:51:00     -104.071       84.480      -24.613       90.083       85.438       49.719     8115.006     7299.725     2471.974        1.823        0.894      134.044       44.547        0.110      331.710       -0.101      847.822
12/27/2021  13:52:00      -36.031       77.395      -23.330       90.549       76.347       37.107     8199.038     5828.865     1376.961        1.162        0.770       85.371       36.552        0.183      331.776        0.010      847.777
12/27/2021  13:53:00     -110.085      106.800      -44.107       66.908       52.316       39.846     4476.630     2737.004     1587.728        1.713        0.440      153.378       19.333        0.016      331.606       -0.271      847.805
12/27/2021  13:54:00      -14.349       24.648       -8.299       31.200       67.044       30.705      973.467     4494.849      942.805        0.365        0.321       28.521        9.544        0.112      331.748       -0.036      847.814
12/27/2021  13:55:00     -104.741       16.261      -22.299       98.997       64.681       45.830     9800.399     4183.596     2100.387        1.391        0.804      105.995       29.438        0.077      331.720       -0.084      847.874
12/27/2021  13:56:00     -144.709       11.306       -4.426       95.111       80.465       45.839     9046.158     6474.693     2101.197        1.935        0.881      145.150       32.179        0.049      331.730       -0.068      847.916
12/27/2021  13:57:00      -36.343       -6.282      -13.934       68.737       60.875       31.267     4724.833     3705.820      977.614        0.548        0.470       36.882       26.519        0.517      331.883        0.185      847.896
12/27/2021  13:58:00      -44.396      -13.287      -10.552      114.251       88.601       71.193    13053.248     7850.088     5068.435        1.411        1.299       46.342       43.114        0.866      331.916        0.241      847.853
12/27/2021  13:59:00     -279.840      -21.022      -13.839      152.924       98.861       72.194    23385.775     9773.444     5212.036        5.865        1.919      280.629       65.287        0.054      331.715       -0.092      847.812
12/27/2021  14:00:00     -284.644      -22.368      -28.889      135.735      102.314       55.072    18423.920    10468.079     3032.887        5.714        1.596      285.522       48.980        0.029      331.577       -0.320      847.799
12/27/2021  14:01:00     -129.586       18.416       -9.828      123.150       77.742       57.906    15165.869     6043.839     3353.141        2.089        1.228      130.888       61.104        0.218      331.720       -0.086      847.777
12/27/2021  14:02:00     -242.739       45.594      -15.713      197.191      127.929       71.297    38884.210    16365.792     5083.218        6.078        3.017      246.984       62.032        0.063      331.685       -0.144      847.780
12/27/2021  14:03:00     -415.736      -25.668      -35.342      163.680      117.553       95.339    26791.209    13818.741     9089.478       11.221        2.485      416.528       82.673        0.039      331.469       -0.499      847.772
12/27/2021  14:04:00     -230.744       96.868      -20.315      107.756       97.958       65.164    11611.367     9595.714     4246.365        4.424        1.273      250.252       50.492        0.041      331.595       -0.293      847.784
12/27/2021  14:05:00     -292.212       98.932       -0.994      122.318       94.845       55.115    14961.591     8995.648     3037.637        6.108        1.350      308.505       46.903        0.023      331.512       -0.429      847.808
12/27/2021  14:06:00     -217.620       65.551      -17.116      119.344       61.108       48.800    14243.062     3734.130     2381.435        3.615        1.018      227.279       39.633        0.030      331.559       -0.351      847.823
12/27/2021  14:07:00     -270.370       94.869      -10.127      122.312       80.051       58.294    14960.165     6408.159     3398.153        5.348        1.238      286.531       50.114        0.031      331.591       -0.299      847.844
12/27/2021  14:08:00     -356.247      190.049      -13.193      129.781       82.635       75.225    16843.041     6828.624     5658.828        9.626        1.467      403.770       69.472        0.030      331.495       -0.455      847.860
12/27/2021  14:09:00     -288.573       55.631      -13.274      113.301       88.163       52.781    12837.116     7772.788     2785.826        5.497        1.170      293.886       46.909        0.025      331.620       -0.250      847.862
12/27/2021  14:10:00     -190.574       36.126       -6.029      178.042       85.630       58.707    31699.021     7332.432     3446.485        4.006        2.124      193.968       41.475        0.046      331.600       -0.282      847.859
12/27/2021  14:11:00      -91.463        3.738       13.330      137.438       70.375       61.725    18889.126     4952.664     3809.936        1.810        1.383       91.539       53.882        0.346      331.690       -0.133      847.845
12/27/2021  14:12:00      -85.007       73.075      -18.453      133.095       50.047       47.768    17714.289     2504.714     2281.760        1.770        1.125      112.099       57.959        0.267      331.803        0.054      847.827
12/27/2021  14:13:00     -129.384       85.877      -18.138      126.633      117.566       63.621    16035.934    13821.810     4047.634        2.917        1.695      155.290       54.745        0.124      331.676       -0.156      847.810
12/27/2021  14:14:00      -58.111      122.834      -31.117       53.506       88.624       44.952     2862.851     7854.196     2020.683        1.608        0.637      135.886       19.947        0.022      331.709       -0.102      847.803
12/27/2021  14:15:00     -116.987      168.130      -37.739      103.959       90.469       51.756    10807.535     8184.590     2678.657        3.252        1.084      204.826       24.567        0.014      331.750       -0.035      847.821
12/27/2021  14:16:00     -142.666       73.992      -43.818      121.008       99.269       61.718    14642.989     9854.401     3809.166        2.802        1.415      160.712       46.092        0.082      331.702       -0.115      847.771
12/27/2021  14:17:00     -129.192       52.744      -22.754      117.190       80.147       63.678    13733.548     6423.606     4054.850        2.210        1.211      139.544       58.989        0.179      331.612       -0.262      847.742
12/27/2021  14:18:00      -99.633      259.872      -37.154      139.211      156.117       66.012    19379.602    24372.432     4357.599        6.347        2.405      278.317       60.981        0.048      331.483       -0.476      847.706
12/27/2021  14:19:00      -79.624      168.762      -19.559       76.175       92.320       45.480     5802.634     8523.074     2068.415        2.580        0.820      186.603       24.849        0.018      331.609       -0.268      847.707
12/27/2021  14:20:00      -87.683      194.116      -34.128       97.187      107.257       52.544     9445.353    11504.170     2760.868        3.512        1.186      213.000       44.931        0.044      331.543       -0.378      847.671
12/27/2021  14:21:00      -46.225      125.565      -10.221       66.275       74.479       49.112     4392.341     5547.114     2411.947        1.518        0.618      133.803       38.517        0.083      331.750       -0.033      847.712
12/27/2021  14:22:00     -136.761      220.516      -25.821       78.101       80.828       54.496     6099.698     6533.136     2969.832        4.180        0.780      259.482       33.454        0.017      331.525       -0.408      847.746
12/27/2021  14:23:00     -142.721      221.711      -34.069      119.499       98.582       54.510    14279.966     9718.474     2971.304        4.882        1.348      263.676       39.610        0.023      331.473       -0.492      847.756
12/27/2021  14:24:00      -72.274      156.036      -36.378       80.246       80.080       60.707     6439.497     6412.778     3685.396        2.371        0.827      171.961       32.061        0.035      331.635       -0.225      847.743
12/27/2021  14:25:00      -82.193       98.192      -23.149       65.119       72.014       49.305     4240.429     5186.076     2430.970        1.439        0.593      128.052       36.815        0.083      331.696       -0.122      847.756
12/27/2021  14:26:00       -1.880       76.747        6.500       73.635       67.057       47.809     5422.057     4496.622     2285.697        0.907        0.610       76.770       41.245        0.289      331.970        0.328      847.791
12/27/2021  14:27:00     -121.046      186.692      -36.971      139.023      137.065       57.669    19327.476    18786.924     3325.758        4.615        2.072      222.500       56.517        0.065      331.676       -0.157      847.810
12/27/2021  14:28:00      -97.137      107.607      -10.268      138.898      149.481       69.121    19292.536    22344.595     4777.774        3.376        2.321      144.965       47.343        0.107      331.906        0.222      847.835
12/27/2021  14:29:00     -154.781       93.388      -20.195       84.695      116.862       54.764     7173.219    13656.736     2999.082        2.845        1.191      180.772       27.024        0.022      331.777        0.009      847.836
12/27/2021  14:30:00     -110.940      104.933      -23.079      128.131      122.425       69.067    16417.520    14987.764     4770.239        3.001        1.809      152.704       23.473        0.024      331.742       -0.048      847.817
12/27/2021  14:31:00     -134.064       18.139      -35.542      160.775      136.769       68.738    25848.714    18705.847     4724.862        3.441        2.464      135.286       52.248        0.149      331.934        0.268      847.838
12/27/2021  14:32:00     -130.634        5.317      -29.178      158.640      104.482       66.482    25166.541    10916.560     4419.799        2.922        2.025      130.742       65.623        0.252      331.947        0.289      847.852
12/27/2021  14:33:00      -76.031       43.352      -26.258      233.766      121.885       72.604    54646.616    14856.072     5271.338        4.155        3.739       87.522       48.769        0.310      332.059        0.473      847.869
12/27/2021  14:34:00     -343.381      121.625      -19.986      132.546      119.131       78.115    17568.323    14192.130     6101.987        8.548        1.893      364.284       65.765        0.033      331.912        0.230      847.894
12/27/2021  14:35:00     -183.344        5.134        5.047      154.382      105.099       64.334    23833.851    11045.885     4138.917        3.634        1.951      183.416       59.803        0.106      332.104        0.547      847.917
12/27/2021  14:36:00      -82.463       84.157       -7.203      141.515      101.994       63.549    20026.400    10402.675     4038.486        2.419        1.723      117.825       68.291        0.336      332.119        0.573      847.959
12/27/2021  14:37:00      -54.114       95.732      -17.026       94.040       77.005       77.500     8843.450     5929.747     6006.270        1.658        1.039      109.968       53.263        0.235      332.094        0.531      847.923
12/27/2021  14:38:00      -43.861      127.000      -18.238       86.373      112.521       57.811     7460.284    12660.943     3342.168        2.092        1.173      134.361       38.876        0.084      332.227        0.750      847.913
12/27/2021  14:39:00      -55.241       29.740      -18.444      128.269      102.103       61.626    16452.845    10425.114     3797.722        1.747        1.534       62.738       39.185        0.390      332.199        0.705      847.950
12/27/2021  14:40:00      -25.124       -0.031      -20.019      153.380       92.469       69.276    23525.325     8550.436     4799.169        1.895        1.844       25.124       68.766        7.491      332.368        0.983      848.044
12/27/2021  14:41:00     -254.448       44.575      -12.466      239.248      127.957       81.560    57239.697    16373.072     6652.026        7.356        4.013      258.323       87.115        0.114      332.076        0.502      848.078
12/27/2021  14:42:00      -60.409        8.355      -18.109      105.968      101.571       59.084    11229.240    10316.616     3490.926        1.454        1.252       60.984       31.312        0.264      332.205        0.715      848.067
12/27/2021  14:43:00     -162.524      102.496      -30.401      116.478      126.284       67.320    13567.199    15947.674     4531.936        3.594        1.702      192.145       56.709        0.087      332.272        0.825      848.103
12/27/2021  14:44:00     -209.844       79.748      -11.314      147.823       88.659       59.952    21851.763     7860.344     3594.287        4.191        1.665      224.486       65.794        0.086      332.237        0.766      848.101
12/27/2021  14:45:00      -68.380       28.546        3.763      137.287       78.145       67.186    18847.739     6106.707     4513.998        1.748        1.473       74.099       59.686        0.649      332.475        1.161      848.130
12/27/2021  14:46:00     -256.727       55.167        0.081      175.832      143.410       86.677    30916.770    20566.527     7512.899        6.396        2.950      262.587       90.520        0.119      332.328        0.917      848.101
12/27/2021  14:47:00     -208.899       56.360      -21.090      191.639      140.895       69.026    36725.439    19851.488     4764.527        5.429        3.067      216.368       26.762        0.015      332.365        0.979      848.053
12/27/2021  14:48:00     -302.791      163.851      -14.159      140.290      135.262       73.884    19681.279    18295.878     5458.910        8.108        2.172      344.282       68.457        0.040      332.355        0.960      848.157
12/27/2021  14:49:00     -226.231       86.621       -0.850      117.842       80.705       62.386    13886.849     6513.222     3891.992        4.148        1.215      242.247       57.036        0.055      332.310        0.886      848.208
12/27/2021  14:50:00     -119.522       -2.554       16.956      122.401      101.713       72.717    14982.064    10345.574     5287.809        2.259        1.531      119.550       67.959        0.323      332.392        1.022      848.219
12/27/2021  14:51:00       40.791       -7.351        6.487      113.965      100.582       77.643    12987.944    10116.800     6028.423        1.544        1.457       41.448       51.307        1.532      332.366        0.980      848.260
12/27/2021  14:52:00     -118.508      112.891      -22.976      113.756      123.310       51.949    12940.352    15205.356     2698.702        2.907        1.542      163.672       52.894        0.104      332.161        0.640      848.297
12/27/2021  14:53:00     -164.511       45.786      -29.736      167.433       75.545       76.151    28033.826     5707.077     5798.969        3.478        1.977      170.764       62.208        0.133      332.165        0.649      848.283
12/27/2021  14:54:00      -32.045      -31.058       -9.655      183.445      112.799       75.215    33652.060    12723.581     5657.296        2.705        2.602       44.626       60.292        1.825      332.191        0.691      848.265
12/27/2021  14:55:00      -59.737       11.632      -14.886      198.917      133.130       71.023    39567.974    17723.523     5044.272        3.312        3.117       60.859       80.951        1.769      332.176        0.668      848.325
12/27/2021  14:56:00     -215.388      100.277       -6.174      127.518       98.233       64.111    16260.911     9649.710     4110.178        4.325        1.501      237.586       64.297        0.073      332.078        0.504      848.385
12/27/2021  14:57:00     -238.797       85.622      -12.781      147.813      130.715       73.141    21848.781    17086.502     5349.570        5.439        2.214      253.683       68.753        0.073      332.048        0.455      848.429
12/27/2021  14:58:00     -248.263      105.350      -31.008      108.719       82.788       59.003    11819.859     6853.893     3481.315        4.792        1.108      269.691       40.429        0.022      332.055        0.468      848.453
12/27/2021  14:59:00     -288.401       80.060      -24.032      162.006      118.504       61.830    26246.102    14043.234     3822.995        6.713        2.206      299.308       37.128        0.015      332.072        0.494      848.456
12/27/2021  15:00:00     -321.233      155.111      -28.057      152.996      127.060       62.726    23407.693    16144.314     3934.561        8.575        2.174      356.722       49.915        0.020      331.994        0.366      848.465
12/27/2021  15:01:00     -375.078       91.235      -29.667      122.867      122.763       68.096    15096.404    15070.700     4637.094        9.234        1.740      386.015       54.348        0.020      331.948        0.290      848.501
12/27/2021  15:02:00     -234.294       99.992      -10.916      110.724       92.938       55.566    12259.810     8637.470     3087.618        4.449        1.199      254.739       34.514        0.018      331.992        0.362      848.472
12/27/2021  15:03:00     -209.054       89.289      -14.254      116.227       77.478       50.961    13508.619     6002.842     2597.069        3.699        1.105      227.323       41.364        0.033      332.039        0.441      848.451
12/27/2021  15:04:00     -182.497       45.927      -12.065      136.531       89.961       62.297    18640.735     8093.048     3880.917        3.308        1.531      188.188       58.542        0.097      332.090        0.525      848.511
12/27/2021  15:05:00     -298.206       89.558      -15.392      135.261       80.744       55.567    18295.502     6519.549     3087.677        6.254        1.395      311.364       52.656        0.029      331.973        0.332      848.538
12/27/2021  15:06:00     -182.464      122.748      -17.748      117.307       90.280       74.061    13760.999     8150.565     5485.040        3.803        1.370      219.910       69.189        0.099      331.999        0.372      848.529
12/27/2021  15:07:00      -88.248       30.198       -5.343       84.386       56.056       46.978     7120.993     3142.309     2206.912        1.060        0.624       93.272       36.587        0.154      332.022        0.413      848.463
12/27/2021  15:08:00      -50.292       67.817        9.946       59.352       59.231       46.620     3522.656     3508.262     2173.469        0.821        0.460       84.430       28.288        0.112      332.088        0.523      848.390
12/27/2021  15:09:00     -157.136       43.397       -9.206       97.379       78.088       48.938     9482.646     6097.664     2394.935        2.231        0.899      163.018       43.693        0.072      331.962        0.313      848.425
12/27/2021  15:10:00     -216.483       -5.980      -21.860      136.542       63.856       39.396    18643.695     4077.565     1552.058        3.582        1.214      216.566       51.178        0.056      331.956        0.303      848.439
12/27/2021  15:11:00      -94.498        7.478      -11.947       99.165       53.854       47.610     9833.703     2900.278     2266.726        1.206        0.750       94.793       46.962        0.245      332.028        0.423      848.471
12/27/2021  15:12:00      -23.446        2.324       -6.560       65.821       50.104       42.569     4332.410     2510.449     1812.123        0.462        0.433       23.560       37.339        2.512      332.170        0.658      848.485
12/27/2021  15:13:00     -222.168       72.987      -16.586      162.165       92.772       62.357    26297.367     8606.608     3888.424        4.687        1.940      233.850       54.826        0.055      331.962        0.313      848.489
12/27/2021  15:14:00     -253.157      -86.942      -25.061       92.562      103.526       58.217     8567.791    10717.613     3389.241        4.747        1.134      267.670       49.467        0.034      331.982        0.345      848.505
12/27/2021  15:15:00     -196.327      -53.807      -16.921       93.881       82.417       52.155     8813.582     6792.514     2720.134        3.002        0.916      203.567       43.652        0.046      331.995        0.367      848.527
12/27/2021  15:16:00     -185.669      -13.461       -5.899       98.360       70.057       54.098     9674.780     4907.953     2926.628        2.610        0.875      186.156       51.438        0.076      331.941        0.280      848.528
12/27/2021  15:17:00     -110.604      -23.736      -13.915       70.165       44.915       43.385     4923.114     2017.373     1882.271        1.090        0.441      113.122       26.194        0.054      331.982        0.347      848.498
12/27/2021  15:18:00     -241.287       -7.751      -21.070      126.865       63.984       52.715    16094.652     4093.916     2778.865        4.084        1.148      241.412       58.702        0.059      331.973        0.333      848.497
12/27/2021  15:19:00     -160.559       54.214       -2.331      125.555       75.891       47.794    15764.021     5759.403     2284.242        2.626        1.190      169.465       58.024        0.117      331.975        0.335      848.523
12/27/2021  15:20:00      -92.625       45.724        7.593       69.196       47.681       34.381     4788.061     2273.520     1182.048        0.948        0.412      103.296       23.146        0.050      331.997        0.373      848.509
12/27/2021  15:21:00     -148.475        8.014      -16.779       56.597       57.088       28.871     3203.220     3259.032      833.530        1.484        0.365      148.692       30.897        0.043      331.930        0.263      848.480
12/27/2021  15:22:00     -127.129       14.625       -6.738       72.611       53.430       29.851     5272.341     2854.731      891.110        1.272        0.451      127.967       19.074        0.022      332.054        0.467      848.450
12/27/2021  15:23:00      -81.169      -15.485       -2.521      108.465       53.850       43.928    11764.553     2899.790     1929.657        1.171        0.830       82.633       47.106        0.325      332.050        0.461      848.449
12/27/2021  15:24:00     -193.834       31.688      -13.375      166.090       89.187       65.019    27585.887     7954.232     4227.468        3.925        1.988      196.407       75.411        0.147      331.961        0.312      848.472
12/27/2021  15:25:00     -171.413       50.991        0.434      135.357       78.003       54.785    18321.526     6084.396     3001.357        2.969        1.370      178.837       71.034        0.158      332.007        0.387      848.464
12/27/2021  15:26:00     -189.645      -35.463      -41.402       97.869      115.090       58.392     9578.370    13245.608     3409.678        3.258        1.312      192.933       59.571        0.095      331.935        0.269      848.408
12/27/2021  15:27:00     -339.307        5.449      -10.995      217.181      199.546      102.344    47167.628    39818.639    10474.364       10.635        4.873      339.351       91.646        0.073      331.965        0.317      848.393
12/27/2021  15:28:00     -390.465      -31.912      -37.597      264.272      144.205      105.574    69839.745    20795.112    11145.880       12.832        5.089      391.767      126.847        0.105      331.919        0.242      848.367
12/27/2021  15:29:00     -183.438       25.010      -11.240      184.064      126.211       98.338    33879.703    15929.094     9670.289        4.693        2.974      185.136       76.229        0.170      332.020        0.410      848.391
12/27/2021  15:30:00     -312.398      -36.273      -29.463      216.957      112.703      108.019    47070.418    12702.005    11668.131        8.560        3.572      314.497      108.475        0.119      331.898        0.207      848.378
12/27/2021  15:31:00     -112.500       -8.224      -12.401      182.883      100.665       90.394    33446.016    10133.499     8170.996        3.230        2.588      112.800       90.511        0.644      331.971        0.328      848.386
12/27/2021  15:32:00     -107.643       43.169        5.044      112.485       86.011       57.555    12652.952     7397.921     3312.619        1.842        1.168      115.976       51.596        0.198      332.026        0.419      848.417
12/27/2021  15:33:00     -299.004        4.053      -18.934      191.843      106.739       94.695    36803.916    11393.118     8967.166        7.346        2.858      299.031       99.941        0.112      331.927        0.256      848.458
12/27/2021  15:34:00     -283.184       60.095       -6.467      178.948      158.427       98.789    32022.560    25099.001     9759.273        7.535        3.344      289.490       93.887        0.105      331.887        0.189      848.486
12/27/2021  15:35:00     -308.479      -18.823       -5.181      171.150      128.160       91.822    29292.357    16424.987     8431.313        7.483        2.707      309.052       72.792        0.055      331.841        0.114      848.508
12/27/2021  15:36:00     -236.078       25.648      -17.032      218.399      128.703       87.717    47698.238    16564.559     7694.278        6.431        3.598      237.467       72.679        0.094      331.843        0.116      848.487
12/27/2021  15:37:00     -264.710       22.334        5.713      134.854      119.068       73.649    18185.567    14177.144     5424.132        5.419        1.889      265.651       66.180        0.062      331.847        0.124      848.501
12/27/2021  15:38:00     -205.493       35.070      -13.729      138.583      112.473       70.050    19205.352    12650.107     4906.957        4.020        1.838      208.464       58.107        0.078      331.857        0.140      848.539
12/27/2021  15:39:00     -211.508       39.018      -33.464      183.574      102.774       91.772    33699.454    10562.496     8422.075        5.002        2.634      215.077       88.959        0.171      331.818        0.076      848.530
12/27/2021  15:40:00     -182.572       32.610       -3.771      139.637       80.569       74.772    19498.500     6491.307     5590.870        3.299        1.579      185.462       75.929        0.168      331.837        0.110      848.572
12/27/2021  15:41:00     -188.310      -28.584      -22.856       97.970       79.823       54.359     9598.108     6371.775     2954.871        2.786        0.946      190.467       35.655        0.035      331.899        0.209      848.571
12/27/2021  15:42:00     -214.612       78.179      -16.076      153.923      118.431       67.784    23692.225    14025.880     4594.608        4.736        2.116      228.408       58.834        0.066      331.848        0.126      848.563
12/27/2021  15:43:00     -227.058       37.163       -2.218      212.694      145.149       85.404    45238.943    21068.289     7293.894        6.326        3.680      230.080       75.399        0.107      331.886        0.187      848.575
12/27/2021  15:44:00     -336.577      -16.126      -34.866      219.351      143.948       85.560    48114.847    20720.908     7320.465        9.544        3.808      336.964       70.006        0.043      331.834        0.103      848.566
12/27/2021  15:45:00     -354.801       71.171      -11.302      232.121      108.400       86.230    53880.342    11750.626     7435.585       10.206        3.653      361.869       98.704        0.074      331.836        0.107      848.556
12/27/2021  15:46:00     -345.046       24.261      -23.940      223.650      158.216       81.882    50019.532    25032.418     6704.608       10.097        4.088      345.898       87.747        0.064      331.844        0.118      848.579
12/27/2021  15:47:00     -135.571       44.174       -0.676      166.778      105.030       68.958    27814.952    11031.334     4755.269        3.196        2.180      142.586       68.174        0.229      331.876        0.173      848.562
12/27/2021  15:48:00     -181.373       13.669      -18.394      214.421      111.750       77.154    45976.371    12487.974     5952.665        4.891        3.221      181.887       66.582        0.134      331.885        0.188      848.619
12/27/2021  15:49:00     -176.438       17.160      -34.341      163.591       90.205       62.470    26761.926     8136.908     3902.483        3.570        1.940      177.270       63.909        0.130      331.919        0.242      848.617
12/27/2021  15:50:00     -125.111      -10.464      -24.583      111.352       85.100       66.369    12399.158     7242.015     4404.793        2.020        1.202      125.548       51.846        0.171      331.955        0.302      848.601
12/27/2021  15:51:00     -198.213       -7.785       -9.619      180.957      133.362       83.811    32745.529    17785.420     7024.335        4.849        2.878      198.366       80.486        0.165      331.882        0.182      848.611
12/27/2021  15:52:00     -151.506       64.116       -0.499      130.703      108.469       78.957    17083.370    11765.527     6234.135        3.107        1.754      164.514       71.540        0.189      331.853        0.135      848.616
12/27/2021  15:53:00     -223.755      142.681        1.975      143.121      115.617       74.872    20483.528    13367.202     5605.758        5.493        1.973      265.375       69.443        0.068      331.829        0.094      848.616
12/27/2021  15:54:00     -276.952       28.190       -7.917      204.101      125.467       79.756    41657.246    15741.989     6360.964        7.065        3.188      278.384       64.224        0.053      331.797        0.041      848.636
12/27/2021  15:55:00     -238.137      121.642       -9.133      132.677      134.928       84.112    17603.254    18205.593     7074.791        5.723        2.144      267.406       77.619        0.084      331.817        0.073      848.654
12/27/2021  15:56:00     -195.611       28.814       -9.442      181.979       90.918       76.334    33116.371     8266.129     5826.882        4.319        2.360      197.722       75.897        0.147      331.840        0.111      848.679
12/27/2021  15:57:00     -334.835      114.938      -15.372      168.451       99.800       67.047    28375.845     9960.107     4495.362        8.419        2.142      354.013       58.290        0.027      331.784        0.021      848.659
12/27/2021  15:58:00     -146.758      -33.116       -7.497      155.178      109.475       80.632    24080.363    11984.669     6501.468        3.262        2.128      150.448       73.926        0.241      331.819        0.081      848.655
12/27/2021  15:59:00     -162.882       -4.276        0.729      173.324      111.606       72.992    30041.076    12455.886     5327.821        3.718        2.391      162.938       69.368        0.181      331.845        0.120      848.681
12/27/2021  16:00:00     -313.102       74.900      -28.190      177.915      137.158       89.033    31653.686    18812.338     7926.867        8.140        2.920      321.936       86.321        0.072      331.785        0.022      848.688
12/27/2021  16:01:00     -416.860       10.235      -34.476      145.080      130.193       76.612    21048.124    16950.266     5869.325       10.946        2.193      416.985       67.048        0.026      331.770       -0.004      848.704
12/27/2021  16:02:00     -308.824      -15.428      -14.151      198.935      132.659      102.525    39575.165    17598.497    10511.295        8.174        3.384      309.209      106.541        0.119      331.784        0.019      848.706
12/27/2021  16:03:00     -127.313      -22.860        7.058       87.270       66.368       56.120     7615.978     4404.659     3149.410        1.597        0.759      129.349       37.635        0.085      331.841        0.117      848.745
12/27/2021  16:04:00     -198.637       30.128      -11.515      127.515      134.636       57.567    16260.121    18126.878     3313.958        3.909        1.885      200.909       44.295        0.049      331.804        0.052      848.745
12/27/2021  16:05:00     -290.601       79.742       -4.622      158.356      187.110       86.461    25076.549    35010.025     7475.499        7.918        3.378      301.343       86.681        0.083      331.763       -0.015      848.729
12/27/2021  16:06:00     -319.138      130.867      -18.656      214.585      132.733       88.682    46046.843    17618.025     7864.421        9.541        3.576      344.928       92.151        0.071      331.736       -0.058      848.744
12/27/2021  16:07:00     -438.266       63.975      -11.256      216.767      144.149       87.176    46988.096    20778.937     7599.588       13.582        3.768      442.911       80.222        0.033      331.735       -0.060      848.757
12/27/2021  16:08:00     -239.578       59.843      -13.675      217.411      124.521       81.709    47267.466    15505.378     6676.330        6.529        3.472      246.939       65.669        0.071      331.759       -0.020      848.724
12/27/2021  16:09:00     -328.109      -31.587      -21.573      180.637      124.208       75.063    32629.759    15427.717     5634.412        8.140        2.685      329.626       80.350        0.059      331.753       -0.030      848.729
12/27/2021  16:10:00     -112.330       -4.307       -0.018      139.974       98.459       66.437    19592.707     9694.188     4413.833        2.316        1.685      112.413       60.870        0.293      331.787        0.026      848.730
12/27/2021  16:11:00     -180.016       72.658      -12.153      103.332      107.567       50.217    10677.466    11570.710     2521.786        3.130        1.238      194.126       35.596        0.034      331.730       -0.068      848.736
12/27/2021  16:12:00     -174.443       -6.414      -15.484      157.113       75.467       59.123    24684.462     5695.204     3495.478        3.229        1.694      174.561       66.415        0.145      331.764       -0.010      848.731
12/27/2021  16:13:00     -423.527      101.098      -29.311      206.642      134.702       84.326    42700.778    18144.656     7110.840       12.919        3.398      435.426       72.771        0.028      331.714       -0.095      848.750
12/27/2021  16:14:00     -169.105       38.368        6.713      176.445      103.645       77.399    31132.860    10742.383     5990.562        3.898        2.393      173.403       71.900        0.172      331.766       -0.008      848.735
12/27/2021  16:15:00     -271.362       46.630       -0.630      237.846      188.619       98.664    56570.744    35576.995     9734.613        8.883        5.094      275.339       89.188        0.105      331.717       -0.091      848.705
12/27/2021  16:16:00     -369.118      -23.625      -43.290      259.389      184.240      119.378    67282.886    33944.428    14251.150       12.706        5.774      369.873       95.393        0.067      331.725       -0.078      848.670
12/27/2021  16:17:00     -167.296      109.377       12.767      172.648      161.433       93.909    29807.264    26060.534     8818.827        5.239        3.234      199.878       84.878        0.180      331.726       -0.076      848.661
12/27/2021  16:18:00     -452.004      143.323       -1.657      260.697      193.369      124.640    67962.689    37391.491    15535.089       17.285        6.044      474.182      126.202        0.071      331.684       -0.145      848.647
12/27/2021  16:19:00     -424.619       81.967       -0.646      222.879      135.440       92.848    49675.255    18343.863     8620.789       13.182        3.832      432.458       97.724        0.051      331.677       -0.158      848.654
12/27/2021  16:20:00     -374.218       56.531      -13.919      264.508      154.384      116.210    69964.358    23834.396    13504.804       12.535        5.365      378.464      135.897        0.129      331.670       -0.169      848.670
12/27/2021  16:21:00     -235.696       89.010       -4.631      149.849      155.924       87.851    22454.695    24312.306     7717.726        5.898        2.724      251.943       75.399        0.090      331.662       -0.182      848.687
12/27/2021  16:22:00     -426.824       87.425      -23.991      272.788      150.393       99.298    74413.470    22618.122     9860.154       14.863        5.345      435.686      120.657        0.077      331.633       -0.229      848.653
12/27/2021  16:23:00     -246.592       49.135      -21.456      261.325      161.629      104.580    68290.955    26123.804    10936.959        8.450        5.268      251.439       98.197        0.153      331.649       -0.202      848.617
12/27/2021  16:24:00     -395.696       30.702       -2.271      312.918      163.649      120.609    97917.368    26780.938    14546.610       14.836        6.962      396.885      134.245        0.114      331.599       -0.284      848.639
12/27/2021  16:25:00     -321.624        0.693      -13.379      293.797      167.390      122.776    86316.780    28019.324    15073.866       11.649        6.470      321.625      118.743        0.136      331.582       -0.311      848.627
12/27/2021  16:26:00     -382.538       25.733        1.615      183.890      171.328      103.199    33815.563    29353.355    10650.071       11.040        3.691      383.402       82.879        0.047      331.587       -0.303      848.683
12/27/2021  16:27:00     -384.214       71.030       -8.763      343.777      167.984      121.257   118182.645    28218.749    14703.181       15.689        8.055      390.724      129.029        0.109      331.553       -0.360      848.694
12/27/2021  16:28:00     -303.832       76.976      -44.468      295.474      163.929       95.437    87304.778    26872.559     9108.263       11.173        6.164      313.432       96.715        0.095      331.564       -0.341      848.693
12/27/2021  16:29:00     -332.812      116.060      -14.664      239.967      160.878      108.037    57584.314    25881.572    11672.076       10.978        4.757      352.468      116.158        0.109      331.537       -0.386      848.717
12/27/2021  16:30:00     -382.797       96.414      -34.832      219.170      161.596       81.783    48035.453    26113.395     6688.405       11.892        4.042      394.752       83.244        0.044      331.517       -0.420      848.720
12/27/2021  16:31:00     -332.208      135.460       12.377      192.574      132.417       89.461    37084.556    17534.267     8003.239        9.573        3.131      358.764       85.530        0.057      331.520       -0.417      848.758
12/27/2021  16:32:00     -475.632      190.856       -8.258      197.928      182.969      106.024    39175.653    33477.795    11241.014       17.329        4.195      512.496       76.890        0.023      331.459       -0.517      848.784
12/27/2021  16:33:00     -237.118      112.209        0.429      208.997      117.077       84.580    43679.868    13706.996     7153.815        6.667        3.227      262.328       66.636        0.065      331.484       -0.476      848.836
12/27/2021  16:34:00     -418.513      142.391      -11.219      205.670      153.908      104.749    42300.260    23687.662    10972.323       13.624        3.848      442.073      106.336        0.058      331.458       -0.518      848.899
12/27/2021  16:35:00     -560.051      176.546      -37.046      232.964      170.088      101.229    54272.079    28930.043    10247.277       21.981        4.672      587.219       83.184        0.020      331.432       -0.559      848.921
12/27/2021  16:36:00     -256.762       64.031       10.448      242.145      138.671       94.624    58634.137    19229.770     8953.761        7.846        4.341      264.626       94.312        0.127      331.465       -0.507      848.955
12/27/2021  16:37:00     -396.713       93.334      -23.750      237.356      157.902       96.576    56337.826    24933.091     9326.962       12.861        4.530      407.544       84.735        0.043      331.474       -0.491      848.985
12/27/2021  16:38:00     -267.478       33.763      -31.353      218.020      124.024       78.602    47532.905    15381.883     6178.272        7.137        3.455      269.601       71.419        0.070      331.460       -0.514      849.037
12/27/2021  16:39:00     -275.829       20.765      -33.005      159.273      115.404       90.120    25367.983    13318.188     8121.698        6.220        2.340      276.610       74.984        0.073      331.469       -0.500      849.106
12/27/2021  16:40:00     -236.384       56.947       -8.004      186.809      127.516       86.608    34897.437    16260.291     7500.898        5.891        2.933      243.147       86.955        0.128      331.421       -0.577      849.130
12/27/2021  16:41:00     -364.213       26.461      -22.478      204.530      169.722      106.107    41832.443    28805.589    11258.647       10.786        4.095      365.173       91.158        0.062      331.410       -0.597      849.132
12/27/2021  16:42:00     -110.643      -12.512        5.286      168.901      113.685       87.028    28527.600    12924.176     7573.828        3.072        2.451      111.348       85.251        0.586      331.434       -0.555      849.165
12/27/2021  16:43:00     -402.197       64.782      -19.289      226.393      140.358       88.463    51253.773    19700.352     7825.751       12.254        3.939      407.380       75.700        0.035      331.395       -0.618      849.171
12/27/2021  16:44:00     -350.407      143.534       10.275      296.098      149.693       92.022    87673.738    22407.867     8468.094       13.100        5.927      378.665       81.191        0.046      331.384       -0.637      849.172
12/27/2021  16:45:00     -188.050       50.700        8.579      175.659      123.942       87.391    30856.163    15361.739     7637.200        4.592        2.693      194.765       78.540        0.163      331.392       -0.624      849.187
12/27/2021  16:46:00     -381.325      152.384       -7.975      240.554      141.386       94.754    57866.101    19989.913     8978.370       12.775        4.342      410.646       99.554        0.059      331.359       -0.680      849.191
12/27/2021  16:47:00     -389.598       50.896       10.520      231.989      130.768      106.058    53818.942    17100.221    11248.355       11.831        4.108      392.908      110.722        0.079      331.355       -0.686      849.188
12/27/2021  16:48:00     -366.054       99.177        7.164      201.021      164.732       97.861    40409.442    27136.774     9576.845       11.049        3.856      379.251       92.611        0.060      331.347       -0.699      849.217
12/27/2021  16:49:00     -399.181      125.566       -6.754      252.897      159.821       94.917    63956.782    25542.743     9009.164       13.681        4.925      418.464      109.317        0.068      331.356       -0.684      849.194
12/27/2021  16:50:00     -321.141      138.926       -5.538      156.313      113.342       77.450    24433.732    12846.299     5998.571        8.286        2.164      349.903       86.079        0.061      331.342       -0.708      849.182
12/27/2021  16:51:00     -163.385       24.078       -7.117      152.452      106.898       83.419    23241.569    11427.250     6958.776        3.447        2.081      165.150       68.560        0.172      331.379       -0.646      849.174
12/27/2021  16:52:00     -238.220       26.872       14.758      196.350      125.093       91.439    38553.475    15648.359     8361.166        6.011        3.128      239.731       79.488        0.110      331.394       -0.622      849.172
12/27/2021  16:53:00     -334.806       75.558        4.195      212.830      132.067       95.700    45296.583    17441.712     9158.544        9.485        3.595      343.226      103.388        0.091      331.378       -0.648      849.194
12/27/2021  16:54:00     -453.321       92.944        9.202      232.076      163.544      101.697    53859.119    26746.632    10342.351       15.257        4.547      462.751      111.772        0.058      331.326       -0.735      849.181
12/27/2021  16:55:00     -398.873       16.029      -22.960      197.098      138.345       87.729    38847.434    19139.276     7696.433       11.277        3.284      399.195       95.842        0.058      331.340       -0.710      849.202
12/27/2021  16:56:00     -371.548       84.926      -25.525      176.358      112.777       75.059    31102.050    12718.703     5633.783        9.767        2.473      381.131       70.977        0.035      331.333       -0.723      849.242
12/27/2021  16:57:00     -193.991       25.258        3.689      178.657      143.026       95.078    31918.207    20456.515     9039.748        4.984        3.071      195.628       79.289        0.164      331.344       -0.705      849.208
12/27/2021  16:58:00     -205.454       84.778      -38.534      228.579      161.870       89.319    52248.306    26202.010     7977.876        6.864        4.321      222.258       74.290        0.112      331.371       -0.660      849.157
12/27/2021  16:59:00     -177.780       37.154       -1.148      220.514      139.048       86.162    48626.543    19334.375     7423.973        5.417        3.769      181.621       74.011        0.166      331.359       -0.679      849.154
12/27/2021  17:00:00     -131.426       63.009      -10.074      166.465       91.750       68.626    27710.520     8417.991     4709.488        3.108        2.042      145.750       41.947        0.083      331.369       -0.663      849.169
12/27/2021  17:01:00     -239.731       50.607       -1.247      164.630       94.773       64.050    27103.168     8981.899     4102.422        5.010        2.009      245.014       69.207        0.080      331.360       -0.679      849.172
12/27/2021  17:02:00     -377.655      121.956       -0.783      253.672      135.810      101.457    64349.699    18444.478    10293.446       12.528        4.654      396.858       90.298        0.052      331.342       -0.707      849.164
12/27/2021  17:03:00     -461.698      115.992      -19.827      309.465      179.623       95.686    95768.850    32264.359     9155.854       18.208        6.859      476.045      103.566        0.047      331.354       -0.688      849.138
12/27/2021  17:04:00     -282.242      116.563      -26.106      188.539      154.165      100.895    35547.140    23766.900    10179.751        8.170        3.475      305.365       77.751        0.065      331.368       -0.664      849.128
12/27/2021  17:05:00     -273.675       42.244       -3.575      244.075      147.716      106.975    59572.750    21819.991    11443.631        8.475        4.642      276.916      102.276        0.136      331.345       -0.701      849.112
12/27/2021  17:06:00     -320.748      141.276      -53.945      222.429      177.854      110.058    49474.483    31631.999    12112.775       10.947        4.661      350.482       97.585        0.078      331.337       -0.717      849.122
12/27/2021  17:07:00     -435.327      176.858       -9.453      260.975      171.619      110.438    68108.042    29453.009    12196.501       16.530        5.488      469.881      116.497        0.061      331.293       -0.789      849.104
12/27/2021  17:08:00     -332.769       44.060       -5.061      241.149      119.639       90.353    58152.918    14313.577     8163.636        9.665        4.032      335.673      101.756        0.092      331.325       -0.736      849.092
12/27/2021  17:09:00     -215.317       49.730        0.053      236.891      153.039       83.316    56117.434    23420.904     6941.575        6.764        4.324      220.985       71.880        0.106      331.349       -0.696      849.062
12/27/2021  17:10:00     -311.835       81.500       -2.445      215.658      136.108       87.349    46508.384    18525.471     7629.932        8.826        3.633      322.310       65.333        0.041      331.323       -0.739      849.059
12/27/2021  17:11:00     -418.057      114.206      -12.293      187.809       95.705       88.496    35272.204     9159.528     7831.510       12.010        2.613      433.376      102.172        0.056      331.276       -0.816      849.040
12/27/2021  17:12:00     -428.737      212.613      -12.873      207.576      191.068      116.591    43087.778    36506.821    13593.403       16.117        4.659      478.559      116.045        0.059      331.283       -0.807      849.005
12/27/2021  17:13:00     -206.276       68.172       -2.076      164.438       94.870       70.361    27039.968     9000.269     4950.715        4.409        2.050      217.249       59.727        0.076      331.307       -0.765      848.982
12/27/2021  17:14:00     -471.035       68.243      -31.555      194.363      137.317       90.374    37776.922    18855.913     8167.390       14.615        3.240      475.953       97.198        0.042      331.269       -0.826      848.957
12/27/2021  17:15:00     -241.965      116.238        2.451      248.399      152.419      106.143    61701.987    23231.546    11266.413        8.411        4.810      268.437      114.450        0.182      331.293       -0.788      848.935
12/27/2021  17:16:00     -273.980       94.708       -3.716      172.755      131.167       84.162    29844.130    17204.881     7083.193        6.908        2.707      289.887       78.065        0.073      331.299       -0.779      848.920
12/27/2021  17:17:00     -244.482       52.585        6.903      162.041      125.187       83.946    26257.146    15671.771     7046.855        5.577        2.449      250.073       63.287        0.064      331.253       -0.853      848.907
12/27/2021  17:18:00     -267.996       77.532        5.931      135.099       98.607       63.585    18251.705     9723.365     4043.113        5.494        1.601      278.986       45.291        0.026      331.239       -0.877      848.913
12/27/2021  17:19:00     -293.471       77.616      -29.702      128.099      115.577       58.450    16409.437    13357.972     3416.455        6.310        1.659      303.562       58.454        0.037      331.254       -0.852      848.924
12/27/2021  17:20:00     -263.056       43.099       15.791      182.434      126.024       89.032    33282.064    15881.969     7926.618        6.419        2.855      266.563       91.359        0.117      331.240       -0.874      848.886
12/27/2021  17:21:00     -219.099       58.940      -12.421      181.098      150.501       72.945    32796.415    22650.559     5320.974        5.619        3.038      226.888       79.724        0.123      331.256       -0.847      848.882
12/27/2021  17:22:00     -260.520       88.312      -22.677      147.300      102.362       70.729    21697.171    10477.981     5002.649        5.667        1.859      275.081       77.557        0.079      331.250       -0.858      848.904
12/27/2021  17:23:00     -282.616       94.213       -1.801      175.527      135.048       86.455    30809.854    18237.918     7474.433        7.263        2.826      297.906       73.268        0.060      331.250       -0.858      848.898
12/27/2021  17:24:00     -261.880       13.483       -5.478      161.107      139.490       77.092    25955.539    19457.394     5943.114        6.007        2.568      262.227       56.732        0.047      331.266       -0.831      848.886
12/27/2021  17:25:00     -190.211       58.630      -19.586      128.760       60.526       42.182    16579.047     3663.422     1779.363        3.101        1.101      199.042       47.126        0.056      331.269       -0.826      848.882
12/27/2021  17:26:00     -292.159       -0.484       -9.184      195.729      106.531       75.558    38309.900    11348.753     5709.035        7.039        2.768      292.160       85.238        0.085      331.252       -0.854      848.876
12/27/2021  17:27:00     -188.194       32.938      -16.481      153.646       98.932       69.161    23606.941     9787.443     4783.234        3.747        1.909      191.054       72.859        0.145      331.245       -0.865      848.864
12/27/2021  17:28:00     -172.368       52.476      -20.408      152.413      121.574       69.739    23229.604    14780.330     4863.513        3.787        2.144      180.179       65.021        0.130      331.243       -0.867      848.833
12/27/2021  17:29:00     -394.990      129.401      -10.015      199.531      140.051       90.208    39812.467    19614.183     8137.396       12.020        3.378      415.646       91.091        0.048      331.218       -0.911      848.813
12/27/2021  17:30:00     -343.690      124.471      -25.821      139.832      135.303       82.678    19552.956    18306.832     6835.590        8.948        2.235      365.535       87.571        0.057      331.199       -0.942      848.796
12/27/2021  17:31:00     -426.603       84.179       -1.610      176.856      138.754       75.528    31278.041    19252.761     5704.457       12.265        2.812      434.829       74.667        0.029      331.179       -0.977      848.782
12/27/2021  17:32:00     -303.252      100.778        5.421      166.905      159.997       97.982    27857.143    25598.890     9600.543        8.259        3.153      319.559       93.071        0.085      331.200       -0.942      848.739
12/27/2021  17:33:00     -175.679       66.340       -9.393      229.633      152.860       92.603    52731.285    23366.307     8575.328        6.000        4.234      187.788       49.533        0.070      331.226       -0.897      848.692
12/27/2021  17:34:00     -374.064      136.092       -3.934      208.361      140.576       86.555    43414.418    19761.659     7491.813       11.455        3.533      398.052       85.269        0.046      331.205       -0.932      848.680
12/27/2021  17:35:00     -412.172       66.949      -22.283      264.234      161.276      100.744    69819.406    26010.057    10149.318       14.040        5.299      417.574       82.392        0.039      331.228       -0.895      848.674
12/27/2021  17:36:00     -262.410      119.087        8.938      271.513      155.517       91.228    73719.316    24185.591     8322.516        9.465        5.311      288.168      100.459        0.122      331.193       -0.952      848.658
12/27/2021  17:37:00     -177.176       66.415      -22.146      126.079      113.170       79.068    15895.912    12807.463     6251.684        3.562        1.748      189.215       64.178        0.115      331.201       -0.939      848.669
12/27/2021  17:38:00      -84.534       -1.152      -12.377      151.263      104.089       86.278    22880.425    10834.557     7443.832        2.422        2.058       84.541       47.319        0.313      331.199       -0.941      848.678
12/27/2021  17:39:00     -421.736      123.637      -19.885      260.766      136.345       86.527    67998.906    18590.026     7486.942       14.379        4.704      439.485       99.216        0.051      331.146       -1.030      848.696
12/27/2021  17:40:00     -226.902       58.559      -23.644      198.681      146.098       83.495    39474.089    21344.703     6971.342        6.162        3.390      234.336       68.316        0.085      331.156       -1.014      848.692
12/27/2021  17:41:00     -201.145       74.167      -18.484      131.795      132.179       66.563    17370.024    17471.297     4430.650        4.278        1.964      214.383       63.970        0.089      331.168       -0.993      848.684
12/27/2021  17:42:00     -433.610      107.853       -2.776      242.366      169.206      112.709    58741.039    28630.724    12703.237       14.985        5.004      446.823       77.075        0.030      331.174       -0.985      848.664
12/27/2021  17:43:00     -212.220       61.263       -0.854      228.481      110.424       83.919    52203.436    12193.390     7042.344        6.010        3.572      220.885       78.652        0.127      331.197       -0.945      848.680
12/27/2021  17:44:00     -286.696      124.358      -20.066      210.725      148.826       84.881    44405.117    22149.238     7204.812        8.590        3.688      312.505       83.211        0.071      331.174       -0.982      848.697
12/27/2021  17:45:00     -342.490       94.829      -10.386      131.190       82.110       72.564    17210.884     6741.982     5265.584        7.780        1.461      355.376       53.175        0.022      331.158       -1.010      848.722
12/27/2021  17:46:00     -417.601      110.735      -32.522      248.793      156.536       83.517    61898.066    24503.565     6975.080       14.053        4.669      432.033       74.411        0.030      331.184       -0.967      848.739
12/27/2021  17:47:00     -171.935       67.199      -18.907      218.846      138.210       92.612    47893.526    19102.008     8576.977        5.499        3.779      184.600       89.530        0.235      331.212       -0.920      848.734
12/27/2021  17:48:00     -426.175      136.803        3.181      256.407      189.985      108.419    65744.671    36094.376    11754.604       15.695        5.680      447.594      105.094        0.055      331.181       -0.972      848.759
12/27/2021  17:49:00     -218.019        8.791        9.582      246.723      152.624       99.531    60872.165    23293.937     9906.327        7.087        4.704      218.196       88.202        0.163      331.202       -0.937      848.779
12/27/2021  17:50:00     -203.998       93.183      -32.758      187.788      109.401       86.030    35264.346    11968.504     7401.218        5.299        2.732      224.272       72.825        0.105      331.187       -0.961      848.791
12/27/2021  17:51:00     -317.914       86.706      -23.641      216.424      163.397       93.327    46839.171    26698.461     8709.892        9.568        4.112      329.526       67.539        0.042      331.188       -0.962      848.778
12/27/2021  17:52:00     -433.616      141.037        0.009      175.265      157.969       96.926    30717.902    24954.310     9394.742       13.648        3.253      455.976       81.099        0.032      331.186       -0.964      848.802
12/27/2021  17:53:00     -202.213       82.209        3.126      223.838      120.801       95.580    50103.570    14592.898     9135.603        6.073        3.692      218.286       54.159        0.062      331.209       -0.925      848.811
12/27/2021  17:54:00     -146.448       48.046      -21.008      257.007      111.452      101.108    66052.751    12421.515    10222.845        5.643        4.435      154.128      119.799        0.604      331.200       -0.940      848.821
12/27/2021  17:55:00     -181.405      109.018       -3.179      211.470      150.125       78.754    44719.709    22537.497     6202.171        5.912        3.673      211.643       93.700        0.196      331.206       -0.931      848.852
12/27/2021  17:56:00     -287.613       89.058      -29.616      157.888      115.495       78.722    24928.487    13339.184     6197.226        6.799        2.223      301.085       73.757        0.060      331.186       -0.965      848.858
12/27/2021  17:57:00     -388.834       87.619      -15.299      166.505      114.994       89.656    27724.055    13223.620     8038.183       10.404        2.449      398.583       46.885        0.014      331.237       -0.881      848.880
12/27/2021  17:58:00     -260.043       59.333      -23.021      167.866      172.407      100.355    28178.888    29724.135    10071.198        6.981        3.399      266.726       78.879        0.087      331.222       -0.905      848.881
12/27/2021  17:59:00     -115.743       37.506      -11.271      187.959      156.271       93.111    35328.706    24420.684     8669.747        4.166        3.421      121.668       99.026        0.662      331.258       -0.843      848.845
12/27/2021  18:00:00     -166.643      -16.716      -13.216      178.180      109.507       74.636    31748.082    11991.784     5570.483        3.876        2.466      167.479       71.354        0.182      331.215       -0.915      848.852
12/27/2021  18:01:00     -311.593       63.236      -47.769      245.362      138.762       96.257    60202.463    19254.905     9265.444        9.603        4.436      317.945       88.232        0.077      331.224       -0.901      848.837
12/27/2021  18:02:00     -355.853      116.093       -5.452      207.605       99.737       76.449    43099.694     9947.421     5844.472        9.950        2.945      374.312       85.202        0.052      331.214       -0.917      848.797
12/27/2021  18:03:00     -253.907       94.921      -23.730      226.131      139.052       93.433    51135.333    19335.323     8729.687        7.661        3.960      271.070       93.488        0.119      331.222       -0.904      848.807
12/27/2021  18:04:00     -188.635       41.468      -23.337      142.494       95.099       74.796    20304.567     9043.802     5594.457        3.639        1.747      193.139       58.681        0.092      331.234       -0.883      848.816
12/27/2021  18:05:00     -166.198       96.044      -37.144      178.403      114.253       74.666    31827.675    13053.851     5574.972        4.433        2.523      191.954       54.608        0.081      331.209       -0.925      848.817
12/27/2021  18:06:00     -219.165       56.879      -29.383      174.028      110.269       88.476    30285.714    12159.192     7828.075        5.119        2.514      226.426       77.626        0.118      331.167       -0.995      848.793
12/27/2021  18:07:00       10.345       46.096        2.170      143.810      102.936       79.888    20681.373    10595.787     6382.164        1.994        1.883       47.242       67.867        2.064      331.192       -0.953      848.808
12/27/2021  18:08:00     -295.893      104.737      -60.586      218.890      125.966       95.587    47912.952    15867.552     9136.966        8.754        3.646      313.883       65.814        0.044      331.194       -0.949      848.813
12/27/2021  18:09:00     -235.199      105.768      -28.521      167.699      176.054       96.244    28122.892    30994.872     9262.943        6.784        3.419      257.887       74.428        0.083      331.187       -0.962      848.820
12/27/2021  18:10:00     -186.480       66.257      -30.473      163.114      163.415      105.229    26606.334    26704.432    11073.101        5.223        3.219      197.901       74.089        0.140      331.232       -0.889      848.822
12/27/2021  18:11:00     -193.879       46.656      -43.623      231.147      148.480       99.990    53428.996    22046.212     9998.085        6.356        4.274      199.413       94.667        0.225      331.236       -0.880      848.831
12/27/2021  18:12:00     -414.665      177.484       -8.367      263.465      182.951      113.978    69414.004    33471.124    12990.965       15.968        5.794      451.052      131.052        0.084      331.276       -0.816      848.865
12/27/2021  18:13:00     -234.554       60.518      -16.928      221.975      164.815       94.071    49272.846    27163.974     8849.337        7.211        4.264      242.235       83.520        0.119      331.332       -0.724      848.841
12/27/2021  18:14:00     -228.296       -3.447      -34.773      169.778      120.238       76.584    28824.624    14457.123     5865.111        5.123        2.457      228.322       64.983        0.081      331.303       -0.770      848.846
12/27/2021  18:15:00      -97.224       14.244       13.516      190.538      121.964       93.466    36304.888    14875.199     8735.943        3.487        2.996       98.261       68.086        0.480      331.345       -0.702      848.878
12/27/2021  18:16:00      -18.435        7.191       12.914      159.727      121.917       84.702    25512.626    14863.637     7174.449        2.405        2.378       19.788       60.202        9.256      331.364       -0.669      848.917
12/27/2021  18:17:00     -402.109      141.032      -25.177      264.932      137.989       96.198    70189.076    19040.866     9253.995       14.033        4.924      426.125       76.422        0.032      331.336       -0.718      848.931
12/27/2021  18:18:00     -342.990       71.563       -6.427      250.104      161.738      101.336    62552.174    26159.019    10269.071       11.087        4.949      350.376       84.727        0.058      331.355       -0.686      848.925
12/27/2021  18:19:00     -389.914      127.589      -23.151      257.374      166.915       98.167    66241.632    27860.730     9636.675       13.627        5.187      410.259      100.139        0.060      331.391       -0.627      848.971
12/27/2021  18:20:00     -471.378      116.724      -11.768      306.766      180.515      125.451    94105.176    32585.625    15737.978       18.917        7.121      485.615      129.199        0.071      331.374       -0.655      848.976
12/27/2021  18:21:00     -302.884      105.205        8.465      204.773      142.131       87.699    41931.794    20201.218     7691.185        8.634        3.491      320.635       85.520        0.071      331.366       -0.667      849.001
12/27/2021  18:22:00     -213.083       87.693       -2.830      215.275      119.374       90.800    46343.472    14250.069     8244.586        6.096        3.442      230.422       78.345        0.116      331.374       -0.654      849.030
12/27/2021  18:23:00     -180.032       32.651      -23.577      229.980      114.600       78.692    52890.598    13133.187     6192.389        5.311        3.611      182.968       68.733        0.141      331.411       -0.593      849.034
12/27/2021  18:24:00     -126.280       60.620       -7.416      190.347      151.245       89.244    36231.798    22875.078     7964.516        4.336        3.354      140.076       93.600        0.447      331.388       -0.630      849.050
12/27/2021  18:25:00     -336.180      108.824      -16.570      210.080      148.711      103.029    44133.795    22114.817    10614.917       10.098        3.843      353.355       93.886        0.071      331.398       -0.614      849.064
12/27/2021  18:26:00     -146.919       34.435        1.736      215.401      132.511      101.645    46397.748    17559.237    10331.752        4.852        3.714      150.900       65.211        0.187      331.416       -0.585      849.084
12/27/2021  18:27:00     -229.423       66.267      -28.655      132.166       79.408       55.877    17467.885     6305.608     3122.222        4.237        1.345      238.802       47.007        0.039      331.383       -0.638      849.074
12/27/2021  18:28:00     -117.427      107.669      -11.528      115.990       80.924       65.698    13453.664     6548.701     4316.209        2.491        1.216      159.317       57.612        0.131      331.362       -0.674      849.079
12/27/2021  18:29:00      -82.191        3.197      -18.248      176.229      112.991       97.780    31056.566    12766.883     9560.850        3.023        2.669       82.253       95.534        1.349      331.365       -0.669      849.080
12/27/2021  18:30:00     -158.783       17.937        0.967      158.195      122.981       86.614    25025.563    15124.340     7501.938        3.658        2.383      159.793       75.355        0.222      331.377       -0.649      849.094
12/27/2021  18:31:00     -210.123       18.830      -14.989      173.768       81.612       67.309    30195.173     6660.456     4530.528        4.305        2.069      210.965       48.913        0.054      331.380       -0.645      849.093
12/27/2021  18:32:00     -197.746       77.865      -38.987      122.533       54.778       64.026    15014.330     3000.613     4099.380        3.440        1.106      212.524       61.497        0.084      331.319       -0.745      849.065
12/27/2021  18:33:00     -100.201       71.696       -2.872      170.819      130.302       58.223    29179.272    16978.579     3389.932        3.236        2.477      123.209       50.299        0.167      331.343       -0.706      849.024
12/27/2021  18:34:00     -178.724       48.329      -17.623      225.213      153.333      100.220    50720.766    23511.038    10044.089        5.942        4.214      185.143      111.819        0.365      331.351       -0.693      848.992
12/27/2021  18:35:00     -251.580      105.676      -27.606      155.514      136.551       80.883    24184.615    18646.210     6542.091        6.229        2.469      272.874       61.580        0.051      331.356       -0.684      849.021
12/27/2021  18:36:00     -176.481       58.242      -28.105      246.349      155.071       93.244    60687.930    24046.909     8694.412        6.436        4.671      185.843       86.994        0.219      331.404       -0.605      848.984
12/27/2021  18:37:00     -265.774       54.259      -31.208      141.838       98.956       74.916    20118.118     9792.198     5612.427        5.503        1.776      271.256       48.890        0.032      331.371       -0.659      849.045
12/27/2021  18:38:00     -141.522      -17.228       -9.178      185.428      126.128       95.279    34383.649    15908.181     9078.018        3.988        2.968      142.567       73.036        0.262      331.405       -0.603      849.018
12/27/2021  18:39:00     -291.957      123.831      -29.887      140.741      118.260       73.860    19807.983    13985.501     5455.326        7.035        1.962      317.132       65.805        0.043      331.355       -0.685      849.046
12/27/2021  18:40:00     -383.699       75.460       -6.001      210.097      131.998      111.249    44140.620    17423.490    12376.377       11.343        3.697      391.049      108.125        0.076      331.355       -0.685      849.080
12/27/2021  18:41:00     -103.444       35.963       -4.354      179.061      133.298       84.210    32062.667    17768.279     7091.375        3.446        2.846      109.517       84.535        0.596      331.385       -0.637      849.068
12/27/2021  18:42:00     -214.498      104.322      -49.669      164.653      130.603       83.950    27110.478    17057.257     7047.660        5.528        2.561      238.521       69.099        0.084      331.352       -0.691      849.093
12/27/2021  18:43:00     -245.302       50.908       -1.397      195.551      125.086       77.347    38240.163    15646.595     5982.529        6.131        2.993      250.529       79.044        0.100      331.343       -0.704      849.128
12/27/2021  18:44:00     -158.723       42.392      -11.899      189.884      103.794       77.112    36055.787    10773.218     5946.186        3.994        2.639      164.286       67.752        0.170      331.315       -0.751      849.130
12/27/2021  18:45:00     -201.471       51.228       -0.181      214.338      119.536       81.187    45940.734    14288.925     6591.326        5.501        3.341      207.882       79.986        0.148      331.326       -0.734      849.119
12/27/2021  18:46:00     -243.983       38.527      -28.638      177.876      149.376       96.907    31639.965    22313.057     9390.908        6.258        3.167      247.006       78.592        0.101      331.351       -0.692      849.111
12/27/2021  18:47:00      -99.844       19.551       -9.504      159.489      105.231       96.811    25436.625    11073.560     9372.400        2.815        2.294      101.740       78.889        0.601      331.358       -0.680      849.144
12/27/2021  18:48:00     -189.129       57.804       -0.863      197.983       91.915       70.944    39197.348     8448.393     5033.039        4.589        2.634      197.765       78.282        0.157      331.312       -0.756      849.141
12/27/2021  18:49:00     -108.664       -3.700       -1.332      205.299      119.489       93.866    42147.730    14277.544     8810.907        3.852        3.262      108.727       74.482        0.469      331.346       -0.699      849.124
12/27/2021  18:50:00     -201.923       30.221       -1.703      153.345      107.376       68.157    23514.694    11529.577     4645.315        4.068        1.984      204.172       60.682        0.088      331.350       -0.694      849.152
12/27/2021  18:51:00     -219.439       68.518      -38.192      185.903      121.449       84.853    34559.755    14749.864     7200.054        5.540        2.825      229.887       63.453        0.076      331.345       -0.702      849.121
12/27/2021  18:52:00     -274.502       39.615        9.918      247.854      156.520       87.644    61431.381    24498.505     7681.505        8.530        4.681      277.346      101.072        0.133      331.342       -0.708      849.093
12/27/2021  18:53:00     -250.280       88.613       -8.726      220.007      124.938       89.117    48403.194    15609.524     7941.789        7.125        3.598      265.504       79.460        0.090      331.304       -0.770      849.060
12/27/2021  18:54:00     -315.785      150.817      -35.381      215.793      150.194       96.867    46566.470    22558.284     9383.159       10.110        3.925      349.951       85.092        0.059      331.279       -0.809      849.016
12/27/2021  18:55:00     -279.302      132.101      -34.717      175.040      109.250       76.824    30639.121    11935.623     5901.993        7.256        2.424      308.967       66.520        0.046      331.278       -0.811      848.998
12/27/2021  18:56:00     -159.615       28.187      -29.248      175.694      125.129       98.688    30868.229    15657.383     9739.308        4.169        2.813      162.085       67.202        0.172      331.296       -0.782      848.979
12/27/2021  18:57:00     -285.263      109.582      -24.008      212.096      151.285       78.955    44984.637    22887.156     6233.857        8.402        3.705      305.587       84.005        0.076      331.295       -0.786      848.986
12/27/2021  18:58:00     -402.600      109.700      -12.693      181.612      135.748       82.933    32982.881    18427.410     6877.823       11.627        2.914      417.278       68.053        0.027      331.286       -0.801      848.978
12/27/2021  18:59:00     -285.717      154.699      -30.772      188.291      168.925       90.057    35453.531    28535.768     8110.306        8.929        3.605      324.909       63.433        0.038      331.285       -0.802      848.992
12/27/2021  19:00:00     -451.117      110.918      -40.089      163.181      133.651       82.858    26628.005    17862.594     6865.456       13.438        2.568      464.553       60.315        0.017      331.275       -0.817      848.985
12/27/2021  19:01:00     -387.093      125.839      -21.654      224.215      139.764       98.125    50272.464    19534.059     9628.512       12.278        3.972      407.034       80.629        0.039      331.274       -0.818      848.983
12/27/2021  19:02:00     -140.144       20.082      -41.602      168.060      140.089       87.531    28244.017    19624.922     7661.592        3.864        2.777      141.576       69.985        0.244      331.300       -0.776      848.978
12/27/2021  19:03:00     -113.830       93.248        2.723      186.525      115.598      101.573    34791.651    13362.965    10316.973        4.005        2.924      147.148       83.229        0.320      331.316       -0.747      848.961
12/27/2021  19:04:00     -364.920      128.281        8.052      194.826      132.894       91.170    37957.148    17660.745     8311.878       10.680        3.196      386.810       90.592        0.055      331.269       -0.827      848.930
12/27/2021  19:05:00     -321.446       69.976      -11.425      197.638      102.604       83.162    39060.703    10527.551     6915.958        8.242        2.825      328.975       87.265        0.070      331.299       -0.779      848.912
12/27/2021  19:06:00     -292.326       67.743        9.110      208.225      133.591       86.309    43357.695    17846.444     7449.257        7.938        3.433      300.072       82.949        0.076      331.293       -0.787      848.879
12/27/2021  19:07:00     -376.823      129.010        0.385      305.401      182.723      112.664    93270.002    33387.867    12693.138       14.897        6.968      398.296      122.268        0.094      331.297       -0.781      848.881
12/27/2021  19:08:00     -341.872       79.124      -28.259      208.453      115.891       93.037    43452.501    13430.701     8655.958        9.473        3.277      350.909       88.414        0.063      331.301       -0.774      848.894
12/27/2021  19:09:00     -444.998      151.116      -26.010      203.729      138.595      101.505    41505.614    19208.515    10303.305       14.626        3.551      469.957       96.217        0.042      331.326       -0.735      848.896
12/27/2021  19:10:00     -403.335      145.410      -11.071      173.856      143.237       94.121    30225.986    20516.696     8858.723       12.176        2.980      428.746       69.562        0.026      331.306       -0.767      848.876
12/27/2021  19:11:00     -230.578       14.652      -15.663      218.495      139.236       98.360    47740.257    19386.600     9674.644        6.520        3.840      231.043       83.048        0.129      331.323       -0.738      848.889
12/27/2021  19:12:00     -126.677       35.821      -18.102      111.949      125.750       70.047    12532.514    15813.143     4906.626        2.545        1.663      131.644       39.846        0.092      331.316       -0.749      848.903
12/27/2021  19:13:00     -282.912       94.161      -19.393      219.827      123.029       97.749    48323.977    15136.202     9554.916        8.113        3.651      298.170       91.058        0.093      331.321       -0.740      848.914
12/27/2021  19:14:00     -386.770       57.647      -21.824      279.717      169.080       91.265    78241.573    28588.157     8329.308       13.425        5.758      391.042       86.232        0.049      331.320       -0.744      848.919
12/27/2021  19:15:00     -317.281       68.686      -37.453      244.190      132.051       90.628    59628.624    17437.512     8213.426        9.602        4.264      324.630       77.046        0.056      331.314       -0.754      848.884
12/27/2021  19:16:00     -395.962      152.250      -11.407      197.638      151.926       90.770    39060.723    23081.618     8239.281       12.523        3.519      424.224       92.646        0.048      331.307       -0.765      848.848
12/27/2021  19:17:00     -277.415       63.571      -28.187      289.188      195.960      126.704    83629.693    38400.286    16053.891       10.991        6.904      284.606       95.604        0.113      331.347       -0.698      848.832
12/27/2021  19:18:00     -514.357      144.132       -8.585      306.175      147.668      110.903    93743.161    21805.852    12299.567       20.661        6.392      534.170      120.430        0.051      331.328       -0.732      848.790
12/27/2021  19:19:00     -426.384      169.665      -25.089      273.170      170.911       88.318    74621.671    29210.575     7800.146       16.141        5.582      458.900       54.858        0.014      331.325       -0.736      848.788
12/27/2021  19:20:00     -383.713       72.057      -15.559      215.761      136.837      100.196    46552.789    18724.330    10039.246       11.398        3.766      390.420       91.370        0.055      331.319       -0.744      848.778
12/27/2021  19:21:00     -443.605       46.157      -15.466      192.718      124.439      107.307    37140.308    15485.121    11514.697       13.164        3.207      445.999      109.140        0.060      331.326       -0.735      848.814
12/27/2021  19:22:00     -459.679       50.645      -15.449      306.654      173.872      111.302    94036.602    30231.351    12388.184       17.536        6.833      462.461      114.132        0.061      331.332       -0.724      848.793
12/27/2021  19:23:00     -487.685      128.484      -11.327      317.220      203.280      121.768   100628.512    41322.837    14827.356       20.560        7.839      504.326      114.246        0.051      331.406       -0.603      848.780
12/27/2021  19:24:00     -414.228       95.087        8.852      234.615      157.313       98.195    55044.148    24747.407     9642.316       13.505        4.472      425.002       94.539        0.049      331.381       -0.644      848.808
12/27/2021  19:25:00     -328.810       57.343      -45.561      302.767      172.926      121.054    91667.799    29903.371    14654.159       12.483        6.811      333.773      108.643        0.106      331.343       -0.707      848.820
12/27/2021  19:26:00     -361.726       75.014        4.227      327.755      186.577      139.958   107423.268    34811.015    19588.199       14.913        8.091      369.422      151.093        0.167      331.364       -0.671      848.854
12/27/2021  19:27:00     -426.311      132.690        2.361      337.426      189.295      136.492   113856.314    35832.571    18629.956       18.381        8.416      446.484      100.523        0.051      331.346       -0.701      848.897
12/27/2021  19:28:00     -460.767      123.104        2.373      199.402      129.901       95.558    39761.168    16874.381     9131.325       14.660        3.288      476.928       76.743        0.026      331.318       -0.748      848.917
12/27/2021  19:29:00     -208.488       16.532        1.962      253.710      154.791      119.430    64368.768    23960.123    14263.640        7.315        5.130      209.142      108.043        0.267      331.337       -0.716      848.889
12/27/2021  19:30:00     -320.618       50.082      -22.081      254.119      168.148      113.568    64576.462    28273.736    12897.749       10.575        5.287      324.506      100.073        0.095      331.348       -0.697      848.882
12/27/2021  19:31:00     -461.911       67.609      -19.014      259.675      153.472       99.737    67431.055    23553.793     9947.490       15.959        5.047      466.833      101.024        0.047      331.332       -0.725      848.846
12/27/2021  19:32:00     -304.357       47.842      -17.174      236.454      170.982      123.421    55910.598    29234.988    15232.696        9.778        5.019      308.094       98.218        0.102      331.342       -0.708      848.818
12/27/2021  19:33:00     -639.591      187.283       -9.937      359.139      204.651      118.477   128980.844    41881.870    14036.748       31.454        9.245      666.447      148.035        0.049      331.326       -0.735      848.836
12/27/2021  19:34:00     -471.039      157.672      -15.527      270.449      195.201       97.719    73142.536    38103.610     9549.027       18.387        6.040      496.728      104.394        0.044      331.339       -0.712      848.869
12/27/2021  19:35:00     -519.983       97.503       -7.339      321.686      173.640      124.565   103481.786    30150.974    15516.433       21.452        7.457      529.045      124.229        0.055      331.358       -0.681      848.894
12/27/2021  19:36:00     -464.839      105.781      -13.403      195.327      142.522       90.821    38152.467    20312.444     8248.523       14.707        3.336      476.723       80.619        0.029      331.367       -0.666      848.916
12/27/2021  19:37:00     -518.745      105.776       -0.968      295.668      195.621      117.218    87419.742    38267.556    13739.985       20.983        6.971      529.419      128.457        0.059      331.347       -0.699      848.903
12/27/2021  19:38:00     -536.306      166.055      -25.027      251.781      184.070      101.717    63393.767    33881.785    10346.340       21.170        5.381      561.425      110.213        0.039      331.333       -0.721      848.889
12/27/2021  19:39:00     -474.308      100.568      -22.973      381.667      224.033      119.695   145669.327    50190.971    14326.821       22.286       10.509      484.853       72.958        0.023      331.330       -0.728      848.908
12/27/2021  19:40:00     -347.974       31.628      -18.755      271.504      148.228      125.143    73714.288    21971.590    15660.652       11.687        5.567      349.408      122.311        0.123      331.320       -0.745      848.902
12/27/2021  19:41:00     -267.980       90.838      -15.760      186.888      151.364       82.814    34927.078    22911.077     6858.154        7.249        3.235      282.957       77.495        0.075      331.299       -0.778      848.848
12/27/2021  19:42:00     -323.493       71.798      -11.067      181.923      145.044       87.489    33095.888    21037.784     7654.338        8.585        3.089      331.365       69.774        0.044      331.288       -0.796      848.863
12/27/2021  19:43:00     -257.275       48.753      -11.075      241.729      193.546      105.582    58432.908    37460.047    11147.610        8.785        5.352      261.854       91.259        0.121      331.263       -0.836      848.820
12/27/2021  19:44:00     -475.774      126.448       -7.721      274.021      187.469      118.915    75087.533    35144.514    14140.687       18.337        6.219      492.291      123.899        0.063      331.238       -0.879      848.792
12/27/2021  19:45:00     -373.456       97.188        3.912      317.262      147.415      113.838   100655.474    21731.322    12959.180       14.211        6.767      385.895      106.788        0.077      331.233       -0.886      848.809
12/27/2021  19:46:00     -387.080       51.744      -22.514      313.200      196.805      121.506    98094.338    38732.270    14763.811       15.228        7.580      390.523      129.059        0.109      331.223       -0.903      848.809
12/27/2021  19:47:00     -504.501       67.186      -13.791      298.071      230.570      138.350    88846.562    53162.501    19140.716       21.016        8.057      508.955      138.150        0.074      331.205       -0.933      848.818
12/27/2021  19:48:00     -355.780       82.694        8.128      230.027      171.189      102.816    52912.501    29305.534    10571.186       11.312        4.639      365.264      108.950        0.089      331.210       -0.925      848.840
12/27/2021  19:49:00     -476.537      145.362      -14.239      317.698      156.508      104.145   100932.070    24494.786    10846.249       19.232        6.814      498.214      125.222        0.063      331.189       -0.959      848.898
12/27/2021  19:50:00     -385.780       52.688      -35.516      339.903      219.360      138.977   115533.861    48118.751    19314.502       16.788        9.148      389.361       79.531        0.042      331.189       -0.960      848.904
12/27/2021  19:51:00     -421.965       62.876       -9.779      306.221      210.574      116.184    93771.491    44341.216    13498.756       16.683        7.581      426.623      115.804        0.074      331.168       -0.993      848.965
12/27/2021  19:52:00     -291.392       95.295       -7.963      174.422      155.165       88.790    30422.969    24076.241     7883.735        7.821        3.119      306.578       70.025        0.052      331.169       -0.993      849.042
12/27/2021  19:53:00     -222.331      102.404        2.256      172.738      103.014       77.289    29838.420    10611.937     5973.563        5.316        2.321      244.781       63.974        0.068      331.176       -0.981      849.041
12/27/2021  19:54:00     -634.386      150.875      -39.256      174.717      120.292       87.065    30526.043    14470.105     7580.278       23.965        2.629      652.081       75.349        0.013      331.138       -1.044      849.125
12/27/2021  19:55:00     -291.253      123.311       -1.486      152.884      138.080       74.633    23373.572    19066.219     5570.087        7.401        2.400      316.281       64.380        0.041      331.153       -1.019      849.131
12/27/2021  19:56:00     -456.021      142.198      -19.868      247.613      204.653      103.077    61312.297    41882.731    10624.785       17.117        5.691      477.677       99.157        0.043      331.168       -0.995      849.116
12/27/2021  19:57:00     -596.608      118.406      -12.002      303.501      255.317      131.115    92113.143    65186.959    17191.026       27.227        8.725      608.244      125.129        0.042      331.184       -0.967      849.119
12/27/2021  19:58:00     -625.447      189.278       -9.604      473.582      227.656      139.795   224279.862    51827.072    19542.641       36.132       14.782      653.460      183.373        0.079      331.194       -0.951      849.142
12/27/2021  19:59:00     -475.530      208.321      -25.657      330.106      253.606      143.926   108969.927    64315.835    20714.567       23.206        9.700      519.159      150.900        0.084      331.229       -0.892      849.226
12/27/2021  20:00:00     -409.468       90.318      -37.328      206.397      162.193       98.916    42599.558    26306.411     9784.355       12.794        3.935      419.310       81.965        0.038      331.224       -0.903      849.188
12/27/2021  20:01:00     -297.892       85.598      -23.013      251.030      161.125      116.799    63016.145    25961.124    13641.911        9.959        5.131      309.946      124.784        0.162      331.214       -0.917      849.235
12/27/2021  20:02:00     -565.516       88.916        1.744      366.898      193.705      132.326   134613.937    37521.587    17510.149       25.865        9.482      572.463      134.145        0.055      331.195       -0.950      849.231
12/27/2021  20:03:00     -437.062       89.171       -3.736      266.787      178.448       97.444    71175.041    31843.823     9495.400       15.573        5.626      446.066      104.603        0.055      331.214       -0.918      849.346
12/27/2021  20:04:00     -421.660      140.203      -27.311      185.474      141.622       90.165    34400.774    20056.789     8129.651       13.038        3.129      444.358       81.120        0.033      331.242       -0.871      849.376
12/27/2021  20:05:00     -386.913       95.799       -9.779      168.087      135.945       88.843    28253.087    18480.984     7893.001       10.679        2.731      398.596       86.386        0.047      331.250       -0.856      849.345
12/27/2021  20:06:00     -365.923       60.654      -14.792      262.186      137.022       86.816    68741.643    18774.928     7536.999       11.641        4.753      370.915       94.410        0.065      331.244       -0.868      849.347
12/27/2021  20:07:00     -413.597      196.177        6.340      281.679      208.448      121.598    79343.123    43450.438    14786.010       17.356        6.879      457.764      130.619        0.081      331.236       -0.882      849.332
12/27/2021  20:08:00     -565.593      149.748        0.964      302.389      213.719      136.104    91438.858    45675.649    18524.192       24.895        7.782      585.081      125.745        0.046      331.247       -0.866      849.260
12/27/2021  20:09:00     -637.733      167.841      -15.857      369.838      207.696      133.179   136780.230    43137.637    17736.642       31.635        9.883      659.450      156.585        0.056      331.246       -0.866      849.283
12/27/2021  20:10:00     -566.280      145.348      -16.051      293.882      227.993      114.140    86366.897    51980.896    13028.019       24.669        7.569      584.636      112.142        0.037      331.255       -0.851      849.331
12/27/2021  20:11:00     -326.268      105.337       18.233      291.282      173.891      121.279    84845.156    30238.213    14708.599       12.381        6.490      342.851      113.736        0.110      331.262       -0.839      849.277
12/27/2021  20:12:00     -262.470      105.564      -11.217      187.779      121.311       80.258    35260.819    14716.474     6441.307        6.828        2.821      282.903       61.224        0.047      331.256       -0.848      849.269
12/27/2021  20:13:00     -343.962      125.462      -28.257      346.660      186.341      109.372   120173.210    34723.120    11962.209       15.082        8.343      366.129      104.593        0.082      331.248       -0.861      849.259
12/27/2021  20:14:00     -634.806      126.969      -22.802      345.217      183.294      124.017   119175.013    33596.697    15380.176       29.386        8.408      647.380      116.203        0.032      331.222       -0.905      849.239
12/27/2021  20:15:00     -566.603       80.029      -12.517      322.474      225.657      135.852   103989.291    50921.078    18455.778       25.045        8.668      572.227      137.060        0.057      331.240       -0.875      849.301
12/27/2021  20:16:00     -395.429      140.138       -0.525      215.741      186.255       95.361    46544.058    34691.088     9093.678       13.315        4.516      419.527       82.721        0.039      331.258       -0.845      849.212
12/27/2021  20:17:00     -459.833       25.231      -27.187      303.746      178.681      124.093    92261.456    31926.964    15398.989       17.618        6.979      460.525       98.008        0.045      331.238       -0.879      849.170
12/27/2021  20:18:00     -397.693      138.485       36.545      342.010      188.305      134.173   116970.809    35458.693    18002.514       17.452        8.522      421.115      150.301        0.127      331.245       -0.865      849.183
12/27/2021  20:19:00     -569.547       66.714      -33.790      309.727      216.640      156.571    95930.968    46932.924    24514.350       24.865        8.369      573.441      134.921        0.055      331.235       -0.883      849.144
12/27/2021  20:20:00     -404.781       23.779      -13.732      252.073      194.453      128.768    63540.787    37812.164    16581.309       14.125        5.897      405.478      121.555        0.090      331.270       -0.826      849.234
12/27/2021  20:21:00     -293.052       83.137      -10.165      318.626      167.599      115.910   101522.495    28089.454    13435.149       11.794        7.152      304.617      107.148        0.124      331.283       -0.804      849.170
12/27/2021  20:22:00     -216.270       18.909        1.730      272.671      176.445      113.357    74349.517    31132.696    12849.873        8.271        5.917      217.095       43.137        0.039      331.298       -0.778      849.115
12/27/2021  20:23:00     -260.152      148.724      -22.493      167.475      129.389       84.739    28047.829    16741.492     7180.655        7.113        2.598      299.662       66.624        0.049      331.260       -0.841      849.133
12/27/2021  20:24:00     -412.457       91.376       -8.793      326.261      186.855      105.665   106446.129    34914.616    11165.041       16.551        7.626      422.458      112.124        0.070      331.227       -0.897      849.012
12/27/2021  20:25:00     -406.831      102.412       -9.426      272.690      239.648      131.351    74359.912    57431.230    17253.051       16.254        7.452      419.523      134.071        0.102      331.206       -0.933      849.084
12/27/2021  20:26:00     -132.105       42.678       -9.221      199.468      107.375       85.935    39787.615    11529.439     7384.860        3.902        2.935      138.828       84.993        0.375      331.229       -0.891      849.142
12/27/2021  20:27:00     -395.491      128.696       -1.439      296.423      213.456      124.446    87866.654    45563.381    15486.784       16.092        7.446      415.904      115.741        0.077      331.220       -0.909      849.090
12/27/2021  20:28:00     -399.193       66.461      -12.337      253.391      174.127      113.604    64206.942    30320.297    12905.901       13.566        5.372      404.687      112.234        0.077      331.208       -0.927      849.126
12/27/2021  20:29:00     -369.437       71.801      -21.766      239.047      207.726      120.364    57143.599    43149.952    14487.476       12.843        5.739      376.349      125.208        0.111      331.208       -0.927      849.169
12/27/2021  20:30:00     -643.398      153.971      -42.944      384.110      201.839      137.864   147540.787    40738.895    19006.497       32.336       10.364      661.565      160.765        0.059      331.161       -1.006      849.127
12/27/2021  20:31:00     -226.343       77.756       -3.165      260.964      141.833       96.643    68102.237    20116.654     9339.884        7.740        4.878      239.326       79.433        0.110      331.187       -0.963      849.214
12/27/2021  20:32:00     -362.863       31.816       -3.300      264.271      128.302      102.973    69838.967    16461.309    10603.394       11.478        4.845      364.256      118.847        0.106      331.165       -0.999      849.177
12/27/2021  20:33:00     -128.589       37.993       -4.429      194.438      106.545       95.268    37806.147    11351.736     9076.020        3.811        2.912      134.084       99.447        0.550      331.196       -0.947      849.245
12/27/2021  20:34:00     -437.438      140.261      -18.976      329.467      206.148      107.368   108548.572    42497.043    11527.805       18.695        8.129      459.375      106.168        0.053      331.180       -0.972      849.235
12/27/2021  20:35:00     -378.706       43.988      -14.541      303.266      167.568      111.362    91970.482    28079.094    12401.466       13.898        6.623      381.252      116.815        0.094      331.180       -0.973      849.222
12/27/2021  20:36:00     -417.779      128.747      -23.011      215.704      174.143       84.568    46528.175    30325.899     7151.821       13.781        4.200      437.167       87.628        0.040      331.191       -0.955      849.243
12/27/2021  20:37:00     -156.370       44.313        9.788      223.577      149.564       97.745    49986.527    22369.389     9554.176        5.420        4.096      162.527       91.428        0.316      331.210       -0.924      849.255
12/27/2021  20:38:00     -207.510       67.812       -5.583      147.170      119.246       75.083    21658.955    14219.513     5637.528        4.460        2.076      218.309       57.682        0.070      331.189       -0.959      849.313
12/27/2021  20:39:00     -272.595       27.370      -15.826      254.466      132.385      101.907    64752.787    17525.858    10384.950        8.397        4.633      273.966       97.266        0.126      331.182       -0.970      849.378
12/27/2021  20:40:00     -425.596      109.587        2.190      277.950      210.029      113.549    77256.026    44112.052    12893.305       16.368        6.713      439.478      111.885        0.065      331.128       -1.060      849.357
12/27/2021  20:41:00     -379.862      -37.178      -20.513      351.274      156.880      125.509   123393.611    24611.269    15752.397       15.490        8.188      381.677      138.085        0.131      331.139       -1.041      849.343
12/27/2021  20:42:00     -357.722       32.335       11.126      238.430      174.087      124.803    56848.998    30306.307    15575.861       11.591        5.137      359.181      120.905        0.113      331.122       -1.068      849.339
12/27/2021  20:43:00     -194.886       57.638        1.488      176.430      134.422       88.886    31127.648    18069.258     7900.633        4.919        2.855      203.230       72.803        0.128      331.140       -1.037      849.392
12/27/2021  20:44:00     -489.031       11.524       -3.127      334.016      207.215      126.717   111566.410    42938.158    16057.242       20.490        8.528      489.167      109.720        0.050      331.125       -1.064      849.442
12/27/2021  20:45:00     -180.469       41.568       -5.011      239.780      151.088      113.372    57494.605    22827.558    12853.284        6.373        4.659      185.194       97.410        0.277      331.127       -1.060      849.440
12/27/2021  20:46:00     -303.359      111.638       18.336      220.512      158.040      100.658    48625.570    24976.741    10131.956        9.426        4.187      323.249      105.787        0.107      331.127       -1.061      849.433
12/27/2021  20:47:00     -493.567      206.525      -17.592      336.877      216.872      130.347   113486.006    47033.472    16990.222       23.201        8.875      535.034      148.706        0.077      331.103       -1.100      849.476
12/27/2021  20:48:00     -574.491      211.472      -11.243      265.569      169.147      106.813    70527.017    28610.596    11408.911       24.270        5.527      612.176      116.456        0.036      331.084       -1.131      849.449
12/27/2021  20:49:00     -602.926      145.457      -20.048      301.206      192.322      114.958    90725.261    36987.603    13215.363       26.298        7.046      620.223      112.155        0.033      331.077       -1.144      849.485
12/27/2021  20:50:00     -302.082      104.846       -9.695      282.427      183.076      118.184    79765.034    33516.645    13967.351       11.477        6.362      319.759       96.117        0.090      331.102       -1.103      849.562
12/27/2021  20:51:00     -275.773       65.022       -4.956      139.747      134.010       87.651    19529.127    17958.766     7682.625        6.273        2.259      283.335       55.104        0.038      331.141       -1.038      849.583
12/27/2021  20:52:00     -324.408       58.102      -17.702      224.419      186.861       95.604    50363.944    34917.167     9140.102       10.166        4.721      329.570       75.372        0.052      331.142       -1.036      849.540
12/27/2021  20:53:00     -296.257       87.575       -3.112      285.351      205.580      104.735    81425.207    42263.130    10969.447       11.503        6.733      308.930      118.508        0.147      331.134       -1.049      849.560
12/27/2021  20:54:00     -497.071      162.526       -2.244      289.712      162.643      100.734    83933.298    26452.749    10147.403       19.699        6.027      522.966      120.477        0.053      331.094       -1.114      849.555
12/27/2021  20:55:00     -332.923       38.422       15.694      261.278      135.076      101.907    68266.282    18245.407    10384.940       10.471        4.845      335.133      105.112        0.098      331.102       -1.102      849.511
12/27/2021  20:56:00     -566.751      149.890       12.943      312.152      210.874      141.664    97439.077    44467.752    20068.700       25.288        8.099      586.237      145.117        0.061      331.125       -1.064      849.521
12/27/2021  20:57:00     -527.215      177.511      -10.629      241.822      170.909      105.327    58477.766    29210.022    11093.753       20.416        4.939      556.296      119.702        0.046      331.108       -1.091      849.548
12/27/2021  20:58:00     -277.567       89.374       -8.072      301.513      157.854      104.929    90909.927    24917.827    11010.193       10.594        6.342      291.601      110.690        0.144      331.125       -1.063      849.597
12/27/2021  20:59:00     -303.208      118.185       -9.333      314.395      215.947      124.282    98844.150    46633.030    15445.976       13.343        8.046      325.427      137.958        0.180      331.107       -1.093      849.570
12/27/2021  21:00:00     -335.992       57.951       -7.177      354.846      183.227      123.301   125915.568    33572.201    15203.212       14.546        8.735      340.953      109.825        0.104      331.095       -1.113      849.621
12/27/2021  21:01:00     -520.075       80.076      -12.718      403.319      206.428      127.940   162666.456    42612.658    16368.574       24.931       11.082      526.204      152.177        0.084      331.068       -1.157      849.637
12/27/2021  21:02:00     -458.462      180.432      -15.975      275.739      186.060      110.108    76031.842    34618.266    12123.877       18.286        6.139      492.689      114.532        0.054      331.077       -1.143      849.674
12/27/2021  21:03:00     -329.345      160.725      -12.481      183.878      142.099       88.769    33811.076    20192.015     7880.020        9.816        3.094      366.471       86.414        0.056      331.097       -1.110      849.645
12/27/2021  21:04:00     -379.733      109.837      -24.689      270.240      191.074      108.066    73029.669    36509.138    11678.340       13.902        6.061      395.299      105.354        0.071      331.090       -1.122      849.629
12/27/2021  21:05:00     -368.366      153.104       -4.967      213.742      132.529       95.033    45685.657    17563.932     9031.216       11.571        3.614      398.917       95.763        0.058      331.090       -1.122      849.634
12/27/2021  21:06:00     -424.499      164.396      -17.603      225.736      163.465      100.040    50956.703    26720.842    10008.023       14.759        4.384      455.220      104.778        0.053      331.092       -1.118      849.700
12/27/2021  21:07:00     -367.227       99.564        7.846      195.578      146.288       97.067    38250.901    21400.042     9422.070       10.694        3.454      380.485       87.339        0.053      331.079       -1.140      849.703
12/27/2021  21:08:00     -285.749      186.835      -35.948      147.418      127.197       78.406    21731.993    16179.042     6147.427        8.095        2.203      341.409       72.185        0.045      331.095       -1.114      849.689
12/27/2021  21:09:00     -314.945      107.379       -5.698      283.888      150.453      100.610    80592.365    22636.207    10122.459       11.203        5.668      332.748      111.269        0.112      331.102       -1.102      849.679
12/27/2021  21:10:00     -386.168       54.024      -20.304      279.815      132.481       95.680    78296.638    17551.215     9154.701       12.871        5.250      389.929       74.242        0.036      331.079       -1.141      849.684
12/27/2021  21:11:00     -561.498      110.941       -9.554      336.109      191.894      141.194   112969.095    36823.477    19935.860       24.867        8.486      572.353      151.705        0.070      331.062       -1.169      849.666
12/27/2021  21:12:00     -545.002      135.642      -21.652      281.624      187.934      107.515    79312.153    35319.109    11559.505       22.102        6.310      561.628      107.980        0.037      331.079       -1.141      849.721
12/27/2021  21:13:00     -449.167      102.959      -54.531      202.077      176.890       96.145    40835.098    31289.983     9243.791       14.833        4.068      460.816       85.622        0.035      331.110       -1.088      849.776
12/27/2021  21:14:00     -327.801      127.544      -23.032      198.448      154.664       96.913    39381.688    23920.967     9392.178        9.846        3.635      351.740       92.262        0.069      331.102       -1.102      849.774
12/27/2021  21:15:00     -346.826       87.174      -16.996      202.636      147.415       78.094    41061.453    21731.279     6098.732        9.852        3.445      357.613       65.626        0.034      331.101       -1.103      849.754
12/27/2021  21:16:00     -217.337       47.321        4.677      278.161      139.701      103.687    77373.502    19516.376    10750.941        7.855        5.382      222.429      105.038        0.223      331.103       -1.099      849.754
12/27/2021  21:17:00     -310.246      165.762       -6.905      159.725      140.757       90.270    25512.073    19812.507     8148.676        8.862        2.674      351.753       83.572        0.056      331.096       -1.113      849.737
12/27/2021  21:18:00     -429.571      139.848      -21.491      237.477      146.369       92.477    56395.380    21423.981     8551.906       14.544        4.319      451.762       99.425        0.048      331.071       -1.154      849.753
12/27/2021  21:19:00     -232.860       24.272       12.263      263.574      141.444       97.576    69471.440    20006.530     9521.067        7.696        4.950      234.122       94.670        0.164      331.089       -1.122      849.722
12/27/2021  21:20:00      -95.064       14.975      -14.631      157.009      113.544       97.116    24651.786    12892.313     9431.466        2.822        2.349       96.236       84.651        0.774      331.098       -1.108      849.739
12/27/2021  21:21:00     -290.729       31.383      -24.220      205.875      129.900       84.974    42384.655    16874.107     7220.656        7.627        3.324      292.418       67.485        0.053      331.082       -1.136      849.746
12/27/2021  21:22:00     -343.393       28.882       -4.756      215.263      150.285       93.009    46338.161    22585.543     8650.638        9.816        3.879      344.605       91.915        0.071      331.082       -1.135      849.749
12/27/2021  21:23:00     -289.661      -22.701        9.394      271.188      162.649      117.878    73542.830    26454.683    13895.201        9.918        5.695      290.549      133.229        0.210      331.089       -1.123      849.694
12/27/2021  21:24:00     -398.485      102.654       10.475      239.530      160.988       95.929    57374.687    25917.158     9202.370       13.095        4.625      411.495       98.834        0.058      331.062       -1.169      849.683
12/27/2021  21:25:00     -325.612       35.422      -17.897      323.617      218.271      158.943   104727.675    47642.301    25262.882       14.258        8.882      327.533      165.942        0.257      331.067       -1.161      849.694
12/27/2021  21:26:00     -365.090      173.209      -27.529      214.504      163.038      101.871    46012.168    26581.293    10377.785       12.350        4.149      404.094       85.979        0.045      331.054       -1.181      849.731
12/27/2021  21:27:00     -448.025       80.940      -20.384      259.287      162.525      110.197    67229.544    26414.306    12143.307       15.672        5.289      455.278      117.743        0.067      331.028       -1.225      849.717
12/27/2021  21:28:00     -272.637       70.878       13.654      219.468      142.396       96.298    48165.998    20276.503     9273.311        7.861        3.886      281.700       95.948        0.116      331.036       -1.212      849.682
12/27/2021  21:29:00     -364.090      122.248      -15.992      221.476      158.844       95.146    49051.683    25231.450     9052.830       11.553        4.167      384.065       95.290        0.062      331.036       -1.212      849.717
12/27/2021  21:30:00     -547.859      184.225      -25.335      209.023      132.060       98.420    43690.517    17439.863     9686.595       20.276        3.541      578.004      101.704        0.031      331.001       -1.268      849.710
12/27/2021  21:31:00     -272.278       89.058        3.647      183.952      113.777       87.970    33838.505    12945.262     7738.668        6.829        2.726      286.473       94.912        0.110      331.016       -1.246      849.659
12/27/2021  21:32:00     -476.560       70.832      -20.150      271.757      138.375      110.330    73852.121    19147.667    12172.765       16.883        5.259      481.796      105.870        0.048      331.003       -1.264      849.683
12/27/2021  21:33:00     -547.562      107.260      -18.768      288.869      175.043      101.151    83445.360    30639.984    10231.543       21.798        6.216      557.969       90.165        0.026      331.003       -1.265      849.771
12/27/2021  21:34:00     -386.427      108.839       -0.729      173.280      109.862       82.608    30025.815    12069.561     6824.116       10.504        2.446      401.462       92.088        0.053      331.019       -1.240      849.789
12/27/2021  21:35:00     -225.348       71.782      -16.574      194.755      142.773       88.502    37929.624    20384.142     7832.588        6.117        3.307      236.505       83.983        0.126      331.043       -1.201      849.748
12/27/2021  21:36:00     -380.512      109.947       -7.487      244.901      156.892      104.811    59976.304    24615.039    10985.279       12.624        4.779      396.078       99.165        0.063      331.026       -1.227      849.794
12/27/2021  21:37:00     -306.906       23.371      -23.497      208.964      153.671       94.562    43665.911    23614.926     8942.030        8.574        3.811      307.794       96.478        0.098      331.052       -1.184      849.776
12/27/2021  21:38:00     -411.655      146.546      -13.565      216.428      166.983       94.284    46841.274    27883.333     8889.403       13.735        4.181      436.962       58.983        0.018      331.045       -1.196      849.732
12/27/2021  21:39:00     -329.340       23.492      -20.926      254.550      129.341       95.397    64795.623    16729.098     9100.535       10.002        4.531      330.177       94.214        0.081      331.071       -1.154      849.664
12/27/2021  21:40:00     -244.628       55.289      -27.531      279.786      169.872       99.446    78280.308    28856.618     9889.503        9.032        5.851      250.799       87.796        0.123      331.065       -1.163      849.782
12/27/2021  21:41:00     -221.160       83.194      -17.959      170.254      108.969       67.372    28986.538    11874.262     4539.005        5.077        2.270      236.290       62.684        0.070      331.088       -1.125      849.776
12/27/2021  21:42:00     -221.181       63.685       13.221      210.977      113.186       77.089    44511.164    12811.038     5942.719        5.820        3.163      230.167       77.650        0.114      331.050       -1.188      849.772
12/27/2021  21:43:00     -243.524       81.494        1.734      267.920      198.677      112.149    71781.072    39472.721    12577.410        9.487        6.192      256.798      115.717        0.203      331.055       -1.179      849.826
12/27/2021  21:44:00     -293.059      113.918      -26.156      200.082      134.154      108.023    40032.794    17997.187    11669.005        8.461        3.485      314.421      109.408        0.121      331.059       -1.173      849.833
12/27/2021  21:45:00     -413.670      195.236      -11.243      171.310      138.020       94.991    29347.243    19049.384     9023.315       13.338        2.871      457.428       93.528        0.042      331.053       -1.185      849.900
12/27/2021  21:46:00     -218.489       10.233       -9.113      204.578       81.114       78.819    41852.307     6579.511     6212.426        5.127        2.732      218.728       73.382        0.113      331.106       -1.095      849.919
12/27/2021  21:47:00     -169.638       85.479       -9.378      160.972      137.074       65.409    25911.979    18789.393     4278.333        4.257        2.449      189.958       77.158        0.165      331.120       -1.072      849.949
12/27/2021  21:48:00     -318.038       52.033       10.688      184.171      149.413       92.930    33919.100    22324.267     8635.976        8.441        3.244      322.266       90.945        0.080      331.140       -1.039      849.978
12/27/2021  21:49:00     -388.840       54.570      -23.856      194.484      140.893       84.256    37824.029    19850.815     7099.156       10.975        3.239      392.650       71.144        0.033      331.154       -1.017      849.997
12/27/2021  21:50:00     -367.635       67.731      -17.734      224.335      166.194      103.788    50326.239    27620.414    10771.977       11.437        4.436      373.822       99.089        0.070      331.144       -1.032      850.037
12/27/2021  21:51:00     -252.436       66.380      -25.227      132.263      123.278       63.403    17493.400    15197.537     4019.999        5.273        1.836      261.018       45.622        0.031      331.173       -0.987      850.060
12/27/2021  21:52:00     -300.155      110.141      -14.709      239.171      131.495       93.670    57202.570    17291.016     8774.150        9.284        4.163      319.725       96.943        0.092      331.163       -1.004      850.001
12/27/2021  21:53:00     -374.563       91.043        1.851      212.606      137.617       88.788    45201.323    18938.415     7883.395       11.029        3.601      385.469       78.712        0.042      331.161       -1.006      850.021
12/27/2021  21:54:00     -345.363      155.251      -24.757      172.308      116.850       79.716    29689.894    13653.861     6354.621        9.684        2.485      378.654       79.707        0.044      331.159       -1.009      850.021
12/27/2021  21:55:00     -262.258      103.895       -5.556      179.635      125.085       82.458    32268.814    15646.175     6799.364        6.715        2.736      282.087       91.781        0.106      331.140       -1.039      850.047
12/27/2021  21:56:00      -97.405       49.010        9.829      107.965       75.073       54.197    11656.442     5635.948     2937.279        1.610        1.011      109.040       47.579        0.190      331.155       -1.014      850.021
12/27/2021  21:57:00     -307.345      142.723      -12.228      237.396      116.029       74.604    56356.962    13462.742     5565.803        9.517        3.769      338.867       86.064        0.065      331.140       -1.039      850.035
12/27/2021  21:58:00     -267.956       84.911      -16.771      234.248      187.797      104.978    54871.912    35267.767    11020.445        9.021        5.058      281.087      108.975        0.150      331.141       -1.038      850.060
12/27/2021  21:59:00     -329.405       70.911      -17.391      277.093      165.039      110.428    76780.752    27237.828    12194.253       11.500        5.811      336.951       90.512        0.072      331.116       -1.079      850.051
12/27/2021  22:00:00     -203.218       32.017      -13.197      109.669       95.070       52.150    12027.278     9038.279     2719.602        3.314        1.189      205.724       52.800        0.066      331.151       -1.021      850.070
12/27/2021  22:01:00     -472.121      127.369       -2.773      250.654      153.594      100.889    62827.201    23591.147    10178.605       16.784        4.830      489.000      116.712        0.057      331.144       -1.034      850.147
12/27/2021  22:02:00     -355.566      177.760        1.186      180.001      110.001       91.187    32400.486    12100.130     8314.996       10.541        2.641      397.524       77.710        0.038      331.203       -0.936      850.168
12/27/2021  22:03:00     -484.067      147.035      -20.717      221.392      157.515      102.028    49014.457    24810.905    10409.632       17.029        4.212      505.905       98.237        0.038      331.214       -0.918      850.168
12/27/2021  22:04:00     -337.842       65.335        0.329      172.552      134.439       82.594    29774.069    18073.812     6821.773        8.653        2.733      344.101       96.473        0.079      331.184       -0.968      850.186
12/27/2021  22:05:00     -257.812       17.905      -27.295      140.639      116.347       62.096    19779.203    13536.655     3855.961        5.235        1.859      258.433       51.180        0.039      331.206       -0.930      850.213
12/27/2021  22:06:00     -235.057       38.282      -37.882       98.361      102.219       64.343     9674.794    10448.684     4139.961        4.120        1.213      238.153       41.385        0.030      331.198       -0.945      850.194
12/27/2021  22:07:00     -159.158       35.933       -3.953      105.858       98.370       69.570    11205.913     9676.737     4839.924        2.618        1.286      163.164       58.757        0.130      331.168       -0.992      850.139
12/27/2021  22:08:00     -350.574       74.834       -4.433      190.716      172.086      108.277    36372.749    29613.511    11723.958       10.310        3.886      358.472       85.763        0.057      331.175       -0.983      850.121
12/27/2021  22:09:00     -272.871       70.745      -18.262      202.957       97.836       88.846    41191.518     9571.895     7893.640        6.922        2.933      281.893       82.833        0.086      331.192       -0.952      850.113
12/27/2021  22:10:00     -354.968       61.879       -6.266      197.976      123.966       78.960    39194.317    15367.504     6234.649        9.532        3.040      360.321       62.885        0.030      331.166       -1.000      850.115
12/27/2021  22:11:00     -337.367       29.564       -0.235      259.355      116.011       94.036    67264.864    13458.639     8842.750       10.211        4.478      338.660      108.770        0.103      331.162       -1.003      850.012
12/27/2021  22:12:00     -372.486      113.258      -21.869      288.131      198.792      104.650    83019.598    39518.344    10951.679       14.275        6.674      389.324       91.533        0.055      331.146       -1.029      850.005
12/27/2021  22:13:00     -434.999      133.704       14.121      262.291      165.241      110.546    68796.627    27304.654    12220.525       15.779        5.416      455.084      123.626        0.074      331.135       -1.048      850.095
12/27/2021  22:14:00     -445.588       92.647      -11.886      178.384      139.531       90.251    31820.837    19468.762     8145.213       13.334        2.972      455.118       93.189        0.042      331.194       -0.952      850.108
12/27/2021  22:15:00     -241.226       69.593       10.900      253.305      156.575      107.560    64163.487    24515.689    11569.070        8.168        5.012      251.064      113.644        0.205      331.186       -0.963      850.090
12/27/2021  22:16:00     -453.632      208.888      -32.830      203.623      162.123      101.047    41462.302    26283.993    10210.577       16.421        3.898      499.416       96.295        0.037      331.146       -1.030      850.106
12/27/2021  22:17:00     -356.062      113.176      -18.949      282.262      175.597      112.044    79671.557    30834.188    12553.871       13.148        6.153      373.616      133.853        0.128      331.148       -1.028      850.126
12/27/2021  22:18:00     -446.155       97.951      -23.059      231.103      166.569       98.562    53408.721    27745.175     9714.434       15.001        4.543      456.781       91.932        0.041      331.149       -1.026      850.181
12/27/2021  22:19:00     -266.925       68.226        4.725      211.248      111.014       73.075    44625.549    12324.158     5339.920        6.910        3.114      275.506       75.511        0.075      331.156       -1.013      850.194
12/27/2021  22:20:00     -197.224       81.291      -33.306      126.633       89.841       82.503    16036.017     8071.466     6806.681        3.876        1.546      213.320       74.012        0.120      331.163       -1.003      850.166
12/27/2021  22:21:00     -273.537      131.320      -23.439      224.487      168.103       93.850    50394.216    28258.516     8807.814        9.002        4.373      303.426       90.437        0.089      331.187       -0.964      850.116
12/27/2021  22:22:00     -219.562       54.719      -28.000      215.858      187.182      124.833    46594.860    35037.105    15583.293        7.458        4.861      226.278       80.380        0.126      331.191       -0.956      850.153
12/27/2021  22:23:00     -445.380       91.340      -13.243      243.501      129.051       91.939    59292.565    16654.124     8452.851       14.563        4.220      454.649      103.473        0.052      331.167       -0.996      850.124
12/27/2021  22:24:00     -248.907       73.256       -8.628      211.479       87.941       67.368    44723.231     7733.661     4538.429        6.218        2.850      259.463       79.279        0.093      331.200       -0.939      850.193
12/27/2021  22:25:00     -229.104       32.604      -21.700      172.047      159.640       88.427    29600.302    25484.872     7819.381        5.845        3.145      231.413       55.296        0.057      331.225       -0.900      850.175
12/27/2021  22:26:00     -422.681      105.075        4.795      229.650      172.248      105.481    52739.296    29669.356    11126.191       14.161        4.677      435.545      108.479        0.062      331.249       -0.860      850.213
12/27/2021  22:27:00     -327.631       10.093        0.086      279.358      128.076      107.929    78040.998    16403.439    11648.688       10.675        5.305      327.786      125.360        0.146      331.335       -0.719      850.233
12/27/2021  22:28:00     -380.817       91.422       -8.559      226.693      151.941       83.392    51389.939    23086.098     6954.187       11.743        4.072      391.637       91.102        0.054      331.264       -0.837      850.227
12/27/2021  22:29:00     -342.659      146.853       -4.934      173.623      138.399       83.191    30145.000    19154.278     6920.689        9.760        2.811      372.801       82.437        0.049      331.222       -0.905      850.306
12/27/2021  22:30:00     -332.409       97.007      -11.469      205.734      168.620       92.054    42326.400    28432.820     8473.945        9.962        3.962      346.274       73.682        0.045      331.204       -0.934      850.341
12/27/2021  22:31:00     -358.508      108.039       -2.287      181.431      123.817       90.855    32917.231    15330.639     8254.685        9.834        2.825      374.433       84.332        0.051      331.199       -0.944      850.332
12/27/2021  22:32:00     -422.185      143.572        3.956      183.725      119.983       76.396    33754.719    14395.838     5836.327       12.642        2.699      445.930       85.742        0.037      331.189       -0.958      850.332
12/27/2021  22:33:00     -426.381       72.020       -8.619      247.893      176.700      100.759    61450.865    31222.736    10152.372       14.492        5.141      432.420      115.386        0.071      331.202       -0.937      850.377
12/27/2021  22:34:00     -342.909       97.998       -2.578      131.773      114.426       71.906    17364.024    13093.400     5170.493        8.141        1.781      356.638       64.632        0.033      331.197       -0.948      850.401
12/27/2021  22:35:00     -286.976       58.295       -9.322      241.831      103.372       81.817    58482.135    10685.851     6694.095        8.084        3.793      292.837      101.603        0.120      331.211       -0.923      850.397
12/27/2021  22:36:00     -199.150      105.521       -5.760      141.195      123.805       75.600    19936.118    15327.695     5715.418        4.590        2.049      225.378       77.663        0.119      331.184       -0.968      850.405
12/27/2021  22:37:00      -16.921       37.239       10.122       94.192       71.215       46.249     8872.096     5071.517     2138.976        0.893        0.804       40.903       28.042        0.470      331.193       -0.950      850.444
12/27/2021  22:38:00      -93.822       24.202      -17.366      123.474       74.366       50.016    15245.791     5530.371     2501.570        1.648        1.164       96.894       39.653        0.167      331.157       -1.008      850.484
12/27/2021  22:39:00     -256.145       22.993      -28.073      152.798      100.783       74.718    23347.210    10157.119     5582.842        5.300        1.954      257.175       61.082        0.056      331.131       -1.055      850.510
12/27/2021  22:40:00      -40.081       66.255       -9.744       85.316       80.465       55.376     7278.773     6474.691     3066.527        1.145        0.841       77.435       39.235        0.257      331.084       -1.129      850.559
12/27/2021  22:41:00      -97.520      109.307      -40.187      113.931      105.935       69.327    12980.165    11222.167     4806.299        2.604        1.450      146.486       41.322        0.080      330.863       -1.493      850.613
12/27/2021  22:42:00     -112.930      177.470      -42.917      105.205      112.157       55.070    11067.993    12579.147     3032.753        3.638        1.334      210.354       35.377        0.028      330.606       -1.916      850.615
12/27/2021  22:43:00     -111.460      170.196      -23.418       77.353       98.880       60.509     5983.426     9777.232     3661.380        3.068        0.971      203.445       40.729        0.040      330.547       -2.014      850.638
12/27/2021  22:44:00     -102.724      287.089      -31.232      100.856      139.495       58.449    10171.970    19458.908     3416.341        6.349        1.652      304.913       44.000        0.021      330.454       -2.164      850.610
12/27/2021  22:45:00     -131.078      270.346      -42.342      142.133      137.635       76.751    20201.844    18943.361     5890.724        6.854        2.252      300.447       55.465        0.034      330.445       -2.181      850.618
12/27/2021  22:46:00     -113.368      331.224      -18.687      116.326      135.384       69.126    13531.797    18328.765     4778.406        7.977        1.832      350.088       53.116        0.023      330.406       -2.245      850.585
12/27/2021  22:47:00     -171.556      301.776      -39.931      156.154      126.713       67.068    24384.225    16056.196     4498.154        8.351        2.247      347.131       69.898        0.041      330.391       -2.268      850.580
12/27/2021  22:48:00     -156.399      192.570      -50.003      141.191      132.907       80.029    19934.860    17664.382     6404.700        5.402        2.200      248.080       55.787        0.051      330.378       -2.290      850.603
12/27/2021  22:49:00      -86.425       44.432      -17.092      153.010       96.660       76.686    23412.017     9343.201     5880.672        2.418        1.932       97.177       66.768        0.472      330.470       -2.138      850.631
12/27/2021  22:50:00     -133.178       38.856      -11.262      142.129       78.632       52.665    20200.676     6183.057     2773.589        2.426        1.458      138.731       41.539        0.090      330.477       -2.127      850.615
12/27/2021  22:51:00     -247.765       48.058      -29.311      145.272       97.271       65.405    21103.913     9461.714     4277.843        4.969        1.742      252.383       58.603        0.054      330.504       -2.083      850.588
12/27/2021  22:52:00      -51.414      -32.342      -13.702      136.069       74.099       55.986    18514.809     5490.693     3134.409        1.550        1.357       60.740       56.783        0.874      330.537       -2.027      850.574
12/27/2021  22:53:00      -36.439        9.812      -24.704       72.335       80.537       51.356     5232.327     6486.213     2637.409        0.819        0.718       37.737       30.833        0.668      330.599       -1.926      850.576
12/27/2021  22:54:00     -130.452       33.794       -9.582      130.316       50.354       50.663    16982.136     2535.500     2566.715        2.016        1.104      134.758       61.326        0.207      330.547       -2.013      850.581
12/27/2021  22:55:00      -80.926       22.908       -3.649       74.353       83.939       49.449     5528.386     7045.689     2445.173        1.105        0.751       84.106       42.728        0.258      330.616       -1.898      850.579
12/27/2021  22:56:00     -134.712       35.403       -7.338       91.617       55.097       45.129     8393.669     3035.669     2036.623        1.646        0.673      139.287       45.534        0.107      330.696       -1.765      850.580
12/27/2021  22:57:00     -133.211       48.619      -20.226       64.675       54.523       44.385     4182.854     2972.739     1970.048        1.482        0.456      141.806       37.500        0.070      330.723       -1.723      850.589
12/27/2021  22:58:00     -110.584       48.234      -25.141       76.847       42.330       35.788     5905.388     1791.845     1280.764        1.208        0.449      120.645       28.094        0.054      330.725       -1.718      850.595
12/27/2021  22:59:00      -45.738       23.942       -2.454       47.139       49.601       40.590     2222.109     2460.269     1647.551        0.450        0.316       51.625       27.400        0.282      330.712       -1.738      850.588
12/27/2021  23:00:00      -57.633       43.157      -11.143       46.532       33.624       31.952     2165.217     1130.577     1020.949        0.481        0.216       72.000       18.496        0.066      330.672       -1.806      850.586
12/27/2021  23:01:00       -6.980        8.614       -4.692       60.326       45.460       39.022     3639.286     2066.629     1522.686        0.369        0.361       11.087       38.717       12.195      330.744       -1.685      850.606
12/27/2021  23:02:00     -128.928       63.172      -14.610       68.031       56.817       45.457     4628.245     3228.153     2066.340        1.537        0.496      143.573       32.249        0.050      330.828       -1.551      850.623
12/27/2021  23:03:00     -209.781      114.607      -14.619      109.270       65.773       54.484    11939.920     4326.106     2968.473        3.829        0.962      239.046       42.987        0.032      330.890       -1.450      850.622
12/27/2021  23:04:00     -144.196      101.498      -15.010      111.017       61.310       39.915    12324.872     3758.878     1593.171        2.450        0.884      176.336       16.459        0.009      330.912       -1.413      850.641
12/27/2021  23:05:00      -62.624       14.689       -7.665       51.918       44.167       30.560     2695.447     1950.695      933.912        0.489        0.279       64.324       36.363        0.320      330.926       -1.391      850.627
12/27/2021  23:06:00      -36.138        4.546      -11.305       60.176       81.580       42.716     3621.209     6655.239     1824.616        0.678        0.605       36.423       27.242        0.559      330.915       -1.407      850.633
12/27/2021  23:07:00       -4.232       14.347      -22.350       73.103       63.996       28.405     5344.104     4095.516      806.820        0.548        0.512       14.958       25.499        2.906      330.933       -1.377      850.641
12/27/2021  23:08:00      -67.479       40.509       -8.893       89.481       43.859       30.149     8006.793     1923.581      908.937        0.855        0.542       78.704       32.820        0.174      330.894       -1.441      850.635
12/27/2021  23:09:00      -29.920       25.250      -26.227       76.005      121.388       51.835     5776.771    14734.929     2686.879        1.271        1.160       39.151       33.404        0.728      330.931       -1.380      850.646
12/27/2021  23:10:00      -22.000       65.500      -22.390       55.621       70.031       45.624     3093.644     4904.396     2081.577        0.768        0.504       69.096       32.540        0.222      330.952       -1.347      850.640
12/27/2021  23:11:00     -149.008      107.807      -24.381       73.005       54.743       43.853     5329.682     2996.770     1923.087        2.233        0.512      183.917       38.820        0.045      330.946       -1.358      850.640
12/27/2021  23:12:00      -86.896       60.958      -17.276      121.249      105.827       70.610    14701.413    11199.370     4985.739        2.122        1.544      106.145       62.272        0.344      330.920       -1.401      850.678
12/27/2021  23:13:00       -3.055       36.075       15.320      152.422       84.253       79.934    23232.479     7098.622     6389.380        1.913        1.836       36.204       53.067        2.148      330.933       -1.377      850.691
12/27/2021  23:14:00     -137.040       52.558      -16.511      139.674       86.804       58.077    19508.930     7534.900     3372.888        2.611        1.521      146.773       56.886        0.150      330.831       -1.545      850.690
12/27/2021  23:15:00     -222.261      188.388      -50.521      122.333      121.790       70.015    14965.293    14832.815     4902.070        6.106        1.735      291.359       54.726        0.035      330.863       -1.495      850.681
12/27/2021  23:16:00     -193.792      108.217       -5.113      144.471      109.122       69.805    20871.936    11907.588     4872.752        4.347        1.883      221.960       74.380        0.112      330.919       -1.402      850.673
12/27/2021  23:17:00     -159.289       41.455      -23.227      152.323       78.838       49.233    23202.291     6215.414     2423.843        2.973        1.592      164.595       33.382        0.041      330.894       -1.442      850.687
12/27/2021  23:18:00     -114.788       60.921      -18.263      140.652       89.175       56.537    19782.993     7952.226     3196.418        2.407        1.547      129.953       74.814        0.331      330.887       -1.455      850.678
12/27/2021  23:19:00     -279.633       75.919      -20.483      122.255       95.088       66.717    14946.182     9041.694     4451.150        5.640        1.422      289.756       63.282        0.048      330.869       -1.484      850.661
12/27/2021  23:20:00     -156.535      139.919      -32.194       72.113       97.950       44.278     5200.347     9594.118     1960.532        3.093        0.838      209.954       19.924        0.009      330.752       -1.677      850.632
12/27/2021  23:21:00     -144.133       67.727      -27.918       61.433       50.099       36.392     3774.038     2509.919     1324.372        1.687        0.380      159.252       17.090        0.012      330.819       -1.564      850.618
12/27/2021  23:22:00      -40.607      132.051      -30.849       52.981       71.557       39.646     2806.993     5120.381     1571.835        1.477        0.475      138.154       30.987        0.050      330.702       -1.756      850.611
12/27/2021  23:23:00      -65.179       76.710      -24.646       71.625       56.112       32.561     5130.176     3148.526     1060.205        1.004        0.467      100.661       19.753        0.039      330.686       -1.782      850.609
12/27/2021  23:24:00     -113.559      130.813      -24.403       64.047       84.969       38.408     4102.036     7219.703     1475.203        2.170        0.640      173.227       37.378        0.047      330.605       -1.918      850.615
12/27/2021  23:25:00      -73.785       72.035       -9.565       61.096       65.381       33.526     3732.664     4274.619     1123.991        0.993        0.457      103.118       29.580        0.082      330.554       -2.001      850.610
12/27/2021  23:26:00      -85.133       73.244      -16.680       75.385       60.349       36.096     5682.898     3641.976     1302.940        1.176        0.531      112.304       36.225        0.104      330.590       -1.941      850.608
12/27/2021  23:27:00     -101.986       49.460      -15.292       47.837       53.092       31.770     2288.357     2818.793     1009.310        0.960        0.306      113.346       24.481        0.047      330.564       -1.983      850.625
12/27/2021  23:28:00     -122.654       22.357      -28.817       77.737       54.840       35.308     6042.989     3007.399     1246.667        1.333        0.515      124.675       22.093        0.031      330.623       -1.886      850.630
12/27/2021  23:29:00      -79.285      109.218      -15.815       34.207       43.950       31.900     1170.144     1931.646     1017.621        1.129        0.206      134.962       26.564        0.039      330.654       -1.835      850.634
12/27/2021  23:30:00      -30.833      156.021      -11.599       48.178       57.735       34.975     2321.123     3333.295     1223.275        1.615        0.344      159.038       31.023        0.038      330.668       -1.813      850.635
12/27/2021  23:31:00      -17.652      163.812      -15.288       46.872       61.259       30.093     2197.001     3752.666      905.575        1.712        0.343      164.760       16.664        0.010      330.601       -1.923      850.644
12/27/2021  23:32:00       -7.066      184.651       -9.885       44.764       57.614       32.521     2003.773     3319.424     1057.585        2.031        0.319      184.786       29.544        0.026      330.597       -1.931      850.681
12/27/2021  23:33:00      -60.130      166.144      -18.134       59.629       52.211       38.312     3555.657     2725.994     1467.843        1.965        0.387      176.690       25.855        0.021      330.582       -1.954      850.715
12/27/2021  23:34:00      -64.633      174.646      -18.918       55.671       70.322       32.940     3099.248     4945.153     1085.020        2.208        0.456      186.222       21.693        0.014      330.472       -2.135      850.698
12/27/2021  23:35:00      -18.468       52.828       -5.356       49.593       51.514       28.851     2459.419     2653.652      832.357        0.455        0.297       55.963       22.569        0.163      330.521       -2.054      850.667
12/27/2021  23:36:00      -43.562      156.499      -10.815       62.756       79.967       31.283     3938.288     6394.764      978.608        1.891        0.566      162.449       33.037        0.041      330.543       -2.019      850.639
12/27/2021  23:37:00      -52.872      127.531      -12.060       53.262       60.952       29.897     2836.795     3715.133      893.821        1.332        0.372      138.057       24.835        0.032      330.475       -2.129      850.634
12/27/2021  23:38:00      -37.163       97.474      -14.986       68.161       44.282       40.228     4645.871     1960.867     1618.303        0.966        0.411      104.318       24.762        0.056      330.474       -2.129      850.596
12/27/2021  23:39:00     -106.001      104.803      -18.731       55.004       74.369       37.274     3025.473     5530.749     1389.355        1.626        0.497      149.064       26.738        0.032      330.458       -2.157      850.566
12/27/2021  23:40:00      -63.655        3.569       -8.986      100.146       71.640       39.796    10029.302     5132.259     1583.748        1.044        0.837       63.755       49.021        0.591      330.495       -2.098      850.539
12/27/2021  23:41:00        6.941        4.656      -15.135       47.984       60.111       35.137     2302.493     3613.384     1234.640        0.372        0.358        8.358       21.822        6.817      330.531       -2.038      850.515
12/27/2021  23:42:00      -42.334       49.117      -27.639       49.190       46.953       46.091     2419.612     2204.604     2124.413        0.586        0.337       64.843       18.842        0.084      330.580       -1.955      850.484
12/27/2021  23:43:00      -78.658        9.583      -28.474       84.247       58.134       46.644     7097.617     3379.591     2175.646        0.987        0.633       79.239       44.591        0.317      330.627       -1.879      850.454
12/27/2021  23:44:00      -70.470       61.555      -18.925       73.790       55.888       33.433     5444.920     3123.439     1117.763        0.940        0.484       93.569       26.459        0.080      330.693       -1.772      850.445
12/27/2021  23:45:00     -100.274       39.195      -38.153       54.751       51.971       42.837     2997.676     2701.033     1835.021        1.029        0.377      107.662       33.131        0.095      330.681       -1.790      850.459
12/27/2021  23:46:00      -39.780       41.949       -9.964       77.625       60.144       36.035     6025.604     3617.346     1298.550        0.719        0.547       57.812       16.338        0.080      330.715       -1.734      850.458
12/27/2021  23:47:00      -46.410       77.182      -18.272       74.922       79.659       39.972     5613.312     6345.507     1597.743        1.100        0.678       90.060       32.089        0.127      330.774       -1.638      850.425
12/27/2021  23:48:00      -79.324      106.046      -27.338      132.216       81.855       56.164    17480.968     6700.276     3154.355        2.281        1.367      132.431       36.894        0.078      330.831       -1.546      850.377
12/27/2021  23:49:00     -135.712       58.072        0.344       94.035       64.700       48.175     8842.585     4186.049     2320.804        1.857        0.767      147.614       48.185        0.107      330.774       -1.639      850.384
12/27/2021  23:50:00      -28.583       45.654        1.879       55.829       49.923       27.306     3116.857     2492.270      745.640        0.463        0.318       53.863       24.126        0.201      330.775       -1.635      850.357
12/27/2021  23:51:00      -11.438       69.768       -9.872       28.714       40.416       27.025      824.489     1633.473      730.339        0.414        0.159       70.699       19.402        0.075      330.885       -1.455      850.319
12/27/2021  23:52:00      -12.823      -12.783       -2.767       32.112       29.603       28.059     1031.170      876.332      787.291        0.151        0.135       18.106       15.587        0.741      330.875       -1.471      850.282
12/27/2021  23:53:00      -13.023       59.569       -9.301       23.659       24.545       15.361      559.745      602.479      235.975        0.260        0.070       60.976        4.763        0.006      330.866       -1.485      850.254
12/27/2021  23:54:00      -37.776      110.240      -11.715       35.030       44.067       21.685     1227.124     1941.884      470.239        0.868        0.182      116.533       22.143        0.036      330.829       -1.548      850.193
12/27/2021  23:55:00       -7.365       30.596        1.238       27.544       43.712       17.269      758.649     1910.714      298.235        0.198        0.148       31.470       21.508        0.467      330.765       -1.651      850.161
12/27/2021  23:56:00      -46.783       14.883      -26.933       31.017       25.165       23.835      962.047      633.284      568.110        0.265        0.108       49.093        8.285        0.028      330.849       -1.515      850.149
12/27/2021  23:57:00       -6.147        8.888       -0.404       12.638       16.443       10.510      159.713      270.366      110.460        0.033        0.027       10.807        8.914        0.680      330.839       -1.531      850.130
12/27/2021  23:58:00        1.260       -2.377        1.129       25.664       29.696       19.848      658.638      881.831      393.938        0.097        0.097        2.690       13.031       23.462      330.847       -1.518      850.153
12/27/2021  23:59:00      -50.713      -26.527       -9.389       46.815       36.026       18.641     2191.674     1297.853      347.470        0.360        0.192       57.232       17.380        0.092      330.805       -1.585      850.124
12/28/2021  00:00:00     -131.689     -120.384      -19.049       66.822       68.214       26.432     4465.189     4653.166      698.641        2.101        0.491      178.422       10.336        0.003      330.932       -1.382      850.109
12/28/2021  00:01:00      -75.078      -26.925       -9.040       61.183       69.860       44.331     3743.420     4880.403     1965.223        0.851        0.529       79.760       30.146        0.143      331.000       -1.267      850.064
12/28/2021  00:02:00      -61.338      -39.682       -3.993       55.695       51.132       34.003     3101.926     2614.441     1156.227        0.611        0.344       73.055       28.622        0.153      330.971       -1.316      850.043
12/28/2021  00:03:00      -35.708        0.492       -6.385       45.366       26.194       24.250     2058.093      686.124      588.044        0.232        0.167       35.711       12.969        0.132      330.951       -1.347      850.021
12/28/2021  00:04:00      -59.468       -5.192       -5.489       40.105       38.689       21.850     1608.407     1496.825      477.438        0.359        0.179       59.694       10.463        0.031      330.971       -1.316      849.969
12/28/2021  00:05:00     -115.760      -69.884      -17.287       48.213       58.200       36.849     2324.467     3387.225     1357.868        1.283        0.353      135.219       21.453        0.025      331.015       -1.243      849.999
12/28/2021  00:06:00     -115.881       -7.706      -37.149       56.616       46.344       28.363     3205.419     2147.722      804.453        1.051        0.308      116.137       21.433        0.034      330.931       -1.381      849.986
12/28/2021  00:07:00       -9.570      -21.193      -14.715       36.949       36.736       21.435     1365.192     1349.523      459.459        0.197        0.159       23.254       14.120        0.369      330.972       -1.314      849.973
12/28/2021  00:08:00      -18.928        8.019       -0.871       42.607       33.952       29.347     1815.355     1152.757      861.241        0.213        0.191       20.556       18.422        0.803      330.949       -1.351      849.995
12/28/2021  00:09:00      -73.718      -36.422      -13.329       67.118       38.356       25.449     4504.826     1471.195      647.632        0.678        0.331       82.225       21.885        0.071      330.995       -1.275      849.977
12/28/2021  00:10:00      -94.663      -62.187      -12.460       95.744       72.624       27.996     9166.869     5274.198      783.790        1.410        0.761      113.262       34.170        0.091      331.041       -1.201      849.989
12/28/2021  00:11:00     -278.637      -30.771      -34.703       97.167       58.523       54.415     9441.501     3424.937     2960.962        4.781        0.791      280.331       48.361        0.030      331.045       -1.197      850.013
12/28/2021  00:12:00     -171.226       -6.003      -32.639       97.345      103.981       49.321     9476.007    10811.994     2432.575        2.657        1.136      171.332       40.305        0.055      331.020       -1.237      850.038
12/28/2021  00:13:00      -39.333      -21.659       -7.942       71.901       52.116       40.568     5169.806     2716.083     1645.723        0.580        0.477       44.902       19.290        0.185      331.053       -1.180      850.046
12/28/2021  00:14:00     -151.891        4.769      -16.544       49.992       44.277       32.266     2499.221     1960.426     1041.078        1.443        0.275      151.966       23.449        0.024      331.019       -1.236      850.066
12/28/2021  00:15:00      -80.009      -34.457       -6.365       42.205       60.343       31.134     1781.291     3641.322      969.318        0.701        0.320       87.113       20.192        0.054      331.049       -1.187      850.065
12/28/2021  00:16:00      -94.290       15.842        6.045       76.589       57.021       46.434     5865.809     3251.438     2156.110        1.022        0.564       95.611       40.607        0.180      331.005       -1.261      850.056
12/28/2021  00:17:00      -74.348       -5.487      -11.719       80.331       77.047       35.816     6453.064     5936.280     1282.815        0.968        0.684       74.551       20.456        0.075      331.142       -1.034      850.052
12/28/2021  00:18:00      -74.629     -105.997      -15.851       74.085       87.300       29.099     5488.579     7621.290      846.748        1.550        0.698      129.633       32.766        0.064      331.200       -0.939      850.024
12/28/2021  00:19:00     -266.037      -15.533      -32.005      128.839       95.947       60.196    16599.378     9205.804     3623.499        5.073        1.471      266.490       10.154        0.001      331.091       -1.120      850.039
12/28/2021  00:20:00     -149.149       49.999        4.479       97.577       64.281       50.666     9521.204     4131.990     2567.046        2.049        0.811      157.306       31.013        0.039      331.042       -1.201      849.904
12/28/2021  00:21:00     -273.655      -11.132       -4.795      126.585      118.256       69.699    16023.869    13984.436     4857.903        5.494        1.743      273.881       70.379        0.066      331.038       -1.208      849.938
12/28/2021  00:22:00     -186.173      -36.521      -13.778      121.138       89.818       75.257    14674.432     8067.205     5663.617        3.229        1.420      189.721       66.302        0.122      330.862       -1.497      849.952
12/28/2021  00:23:00     -180.649      -35.105      -12.649       89.334       99.438       61.040     7980.572     9887.897     3725.938        2.781        1.080      184.029       39.418        0.046      330.686       -1.785      849.946
12/28/2021  00:24:00      -71.953      -30.297       -7.976       58.503       62.010       41.555     3422.547     3845.209     1726.785        0.757        0.450       78.071       19.075        0.060      330.707       -1.748      849.941
12/28/2021  00:25:00     -202.256      -25.574      -15.238      136.899       87.058       52.049    18741.232     7579.027     2709.150        3.541        1.451      203.866       44.790        0.048      330.585       -1.950      849.939
12/28/2021  00:26:00     -186.029      -57.933       -7.892       95.369       88.025       53.859     9095.161     7748.400     2900.836        2.888        0.987      194.841       40.735        0.044      330.524       -2.050      849.933
12/28/2021  00:27:00      -46.036      -32.375      -12.596       49.257       64.413       39.247     2426.264     4149.062     1540.311        0.572        0.406       56.280       28.558        0.257      330.609       -1.909      849.935
12/28/2021  00:28:00      -47.077      -25.413       -9.038       63.197       60.015       38.880     3993.905     3601.837     1511.649        0.602        0.455       53.499       30.559        0.326      330.613       -1.901      849.946
12/28/2021  00:29:00     -141.357      -39.961      -11.655       86.677       76.967       51.533     7512.858     5923.909     2655.636        1.890        0.805      146.897       41.840        0.081      330.520       -2.056      849.973
12/28/2021  00:30:00     -178.482       -6.558       -9.119       89.818       57.980       40.479     8067.259     3361.697     1638.547        2.252        0.653      178.602       21.436        0.014      330.447       -2.177      849.963
12/28/2021  00:31:00      -84.480      -18.719       -2.421       74.425       52.237       35.829     5539.110     2728.690     1283.709        0.852        0.478       86.529       36.890        0.182      330.469       -2.139      849.921
12/28/2021  00:32:00     -168.127      -76.783       -7.809       77.431      105.682       44.945     5995.487    11168.627     2020.044        2.670        0.959      184.830       46.192        0.062      330.400       -2.253      849.877
12/28/2021  00:33:00     -198.818      -91.120       -7.116       91.751       94.625       43.256     8418.314     8953.827     1871.114        3.356        0.962      218.705       45.281        0.043      330.358       -2.323      849.870
12/28/2021  00:34:00     -195.642      -13.346      -17.261       93.746       72.693       38.890     8788.399     5284.251     1512.418        2.717        0.779      196.097       31.384        0.026      330.362       -2.317      849.884
12/28/2021  00:35:00     -144.033      -33.001       -7.385      102.484       68.838       47.776    10502.932     4738.623     2282.575        1.970        0.876      147.765       46.723        0.100      330.354       -2.329      849.906
12/28/2021  00:36:00     -117.206      -52.185      -13.930       79.058       77.443       47.462     6250.141     5997.480     2252.659        1.557        0.725      128.299       28.983        0.051      330.380       -2.285      849.921
12/28/2021  00:37:00      -43.365      -27.877        1.179       59.552       55.580       35.047     3546.429     3089.101     1228.269        0.526        0.393       51.553       18.592        0.130      330.434       -2.194      849.938
12/28/2021  00:38:00      -87.554      -31.856       -7.155       77.381       55.914       37.190     5987.822     3126.325     1383.087        0.961        0.525       93.169       35.624        0.146      330.394       -2.263      849.940
12/28/2021  00:39:00     -161.787      -53.827      -15.937       67.268       67.503       40.878     4525.027     4556.588     1671.025        2.004        0.538      170.506       36.588        0.046      330.348       -2.338      849.950
12/28/2021  00:40:00     -127.839      -36.789      -23.145       73.355       54.865       37.383     5381.023     3010.157     1397.478        1.401        0.489      133.028       37.683        0.080      330.365       -2.309      849.954
12/28/2021  00:41:00     -100.946       -8.001       -2.508       69.731       54.109       40.676     4862.425     2927.809     1654.552        0.985        0.472      101.263       11.621        0.013      330.363       -2.312      849.946
12/28/2021  00:42:00      -92.823      -23.596       -0.051       76.384       62.527       48.992     5834.553     3909.634     2400.243        1.066        0.607       95.775       25.748        0.072      330.314       -2.391      849.945
12/28/2021  00:43:00      -36.524      -26.354      -21.299       45.749       41.340       33.130     2092.956     1708.989     1097.602        0.369        0.245       45.039       15.231        0.114      330.348       -2.337      849.952
12/28/2021  00:44:00      -26.072      -60.647      -21.603       52.348       55.310       43.548     2740.357     3059.214     1896.394        0.626        0.385       66.014       31.510        0.228      330.517       -2.061      849.952
12/28/2021  00:45:00      -97.516      -46.299      -18.105       77.390       54.216       45.528     5989.242     2939.414     2072.766        1.149        0.550      107.948       20.485        0.036      330.414       -2.228      849.942
12/28/2021  00:46:00      -81.023      -89.456      -29.401       55.917       50.885       35.484     3126.694     2589.324     1259.087        1.120        0.349      120.694       18.468        0.023      330.572       -1.970      849.940
12/28/2021  00:47:00     -104.908      -66.279      -45.374       63.849       53.207       46.753     4076.734     2830.970     2185.879        1.327        0.455      124.091       31.791        0.066      330.441       -2.184      849.965
12/28/2021  00:48:00      -81.184      -26.414      -19.086       50.229       35.382       25.617     2522.998     1251.871      656.214        0.604        0.222       85.373       22.814        0.071      330.414       -2.228      849.976
12/28/2021  00:49:00      -62.705      -26.698      -13.799       42.468       34.904       22.952     1803.506     1218.261      526.797        0.419        0.177       68.152       18.231        0.072      330.451       -2.168      849.962
12/28/2021  00:50:00      -19.439      -26.131       -5.464       45.045       32.774       31.014     2029.095     1074.126      961.852        0.258        0.203       32.569       22.115        0.461      330.408       -2.237      849.954
12/28/2021  00:51:00      -72.454       -5.387       -3.388       49.111       45.578       32.542     2411.938     2077.312     1058.975        0.542        0.277       72.654       17.210        0.056      330.362       -2.313      849.947
12/28/2021  00:52:00      -24.366      -15.441      -11.127       26.278       32.212       22.631      690.554     1037.604      512.183        0.160        0.112       28.847       11.847        0.169      330.404       -2.246      849.914
12/28/2021  00:53:00      -24.861      -11.500      -12.938       28.341       25.219       19.704      803.238      635.987      388.238        0.137        0.091       27.392        7.854        0.082      330.378       -2.289      849.889
12/28/2021  00:54:00      -11.193        6.831        2.069       46.015       40.204       17.539     2117.370     1616.324      307.631        0.211        0.202       13.113       16.399        1.564      330.388       -2.271      849.891
12/28/2021  00:55:00      -10.821       -9.362      -20.189       25.547       27.560       23.268      652.663      759.580      541.416        0.128        0.098       14.309       11.896        0.691      330.323       -2.378      849.895
12/28/2021  00:56:00      -60.116      -50.119      -28.929       38.765       42.799       25.630     1502.729     1831.742      656.880        0.548        0.200       78.268       21.392        0.075      330.365       -2.308      849.893
12/28/2021  00:57:00      -30.260      -30.643      -19.403       36.176       50.833       29.565     1308.689     2584.035      874.118        0.350        0.238       43.065       35.482        0.679      330.457       -2.159      849.890
12/28/2021  00:58:00      -33.916      -12.554        0.260       17.864       15.929       15.495      319.140      253.721      240.099        0.106        0.041       36.165        8.985        0.062      330.455       -2.162      849.875
12/28/2021  00:59:00      -24.553       13.864       -5.827       18.815       18.394       12.875      353.994      338.343      165.759        0.084        0.043       28.197        7.883        0.078      330.429       -2.205      849.859
12/28/2021  01:00:00      -14.218       27.081       -3.695       19.633       15.849       10.516      385.455      251.181      110.579        0.085        0.037       30.587        6.237        0.042      330.380       -2.287      849.867
12/28/2021  01:01:00       -1.417        9.400       -8.025       29.941       36.905       18.789      896.470     1362.007      353.036        0.138        0.131        9.506       14.667        2.381      330.381       -2.283      849.902
12/28/2021  01:02:00       69.245      -78.771      -26.470       25.125       44.113       21.791      631.253     1945.924      474.852        0.738        0.153      104.880       14.443        0.019      330.391       -2.266      849.946
12/28/2021  01:03:00       81.447      -91.312      -30.366       26.399       50.095       24.847      696.887     2509.522      617.360        0.986        0.191      122.358       13.041        0.011      330.379       -2.287      849.967
12/28/2021  01:04:00       11.076      -25.871       -4.661       38.030       34.569       28.848     1446.250     1195.023      832.232        0.214        0.174       28.142       15.859        0.318      330.449       -2.172      849.991
12/28/2021  01:05:00        4.776      -24.200       -1.581       18.213       16.601       16.983      331.715      275.586      288.416        0.075        0.045       24.666        7.080        0.082      330.454       -2.162      850.018
12/28/2021  01:06:00        1.998      -13.690       -7.149       15.170       22.119       19.085      230.118      489.241      364.229        0.066        0.054       13.835        7.914        0.327      330.470       -2.137      850.048
12/28/2021  01:07:00      -12.238      -20.259       -0.711       33.608       35.481       17.576     1129.500     1258.906      308.922        0.163        0.135       23.668       14.087        0.354      330.480       -2.122      850.043
12/28/2021  01:08:00       50.847      -32.414      -20.619       49.965       52.504       29.612     2496.477     2756.681      876.891        0.509        0.307       60.300       29.370        0.237      330.428       -2.206      849.998
12/28/2021  01:09:00       58.992      -41.705      -31.764       31.810       55.247       23.155     1011.883     3052.278      536.174        0.541        0.230       72.245       16.195        0.050      330.373       -2.296      849.954
12/28/2021  01:10:00       54.019      -12.154      -20.445       45.641       44.842       29.722     2083.063     2010.844      883.386        0.423        0.249       55.370       23.236        0.176      330.346       -2.340      849.936
12/28/2021  01:11:00       16.751       -2.567      -10.844       39.957       43.098       30.451     1596.566     1857.473      927.248        0.239        0.219       16.947       23.355        1.899      330.289       -2.433      849.931
12/28/2021  01:12:00       42.771        2.577      -13.511       39.145       36.364       28.747     1532.302     1322.305      826.370        0.285        0.184       42.849       21.910        0.261      330.255       -2.488      849.914
12/28/2021  01:13:00       15.636        5.552      -11.832       20.080       26.330       16.627      403.203      693.287      276.445        0.089        0.069       16.592        8.799        0.281      330.246       -2.504      849.908
12/28/2021  01:14:00       -3.699       19.425      -10.033        9.532        5.994        6.052       90.865       35.926       36.626        0.033        0.008       19.774        3.966        0.040      330.214       -2.554      849.914
12/28/2021  01:15:00      -22.969       26.316       -2.633       18.252        9.200       14.262      333.135       84.647      203.406        0.092        0.031       34.930       10.685        0.094      330.246       -2.503      849.918
12/28/2021  01:16:00       10.712       12.524       -3.345       22.618        8.341       10.535      511.558       69.572      110.990        0.049        0.035       16.480       10.752        0.426      330.247       -2.501      849.907
12/28/2021  01:17:00       57.006       13.500      -20.192       32.105       37.566       23.936     1030.705     1411.241      572.953        0.343        0.151       58.583       19.900        0.115      330.365       -2.308      849.872
12/28/2021  01:18:00       66.940      -36.273      -43.258       42.458       45.028       31.529     1802.724     2027.476      994.092        0.625        0.241       76.136       22.325        0.086      330.423       -2.213      849.846
12/28/2021  01:19:00       45.638      -23.923      -31.492       40.907       50.550       28.546     1673.383     2555.302      814.878        0.434        0.252       51.528       25.074        0.237      330.389       -2.270      849.859
12/28/2021  01:20:00       96.256     -114.399      -36.672       55.255       48.651       27.782     3053.154     2366.949      771.844        1.494        0.310      149.506       22.230        0.022      330.266       -2.472      849.882
12/28/2021  01:21:00      120.143     -116.990      -42.848       28.052       31.373       23.646      786.918      984.293      559.119        1.614        0.117      167.693       14.587        0.008      330.255       -2.488      849.889
12/28/2021  01:22:00       80.027     -120.490      -28.372       33.738       49.696       27.670     1138.226     2469.660      765.653        1.305        0.219      144.645       16.254        0.013      330.343       -2.344      849.905
12/28/2021  01:23:00       57.156     -108.379      -31.606       51.043       60.203       27.165     2605.416     3624.386      737.928        1.149        0.348      122.527       17.681        0.021      330.319       -2.383      849.914
12/28/2021  01:24:00       58.982      -92.284      -28.510       37.081       61.605       32.989     1374.981     3795.181     1088.268        0.953        0.313      109.523       28.984        0.070      330.336       -2.356      849.915
12/28/2021  01:25:00       46.768      -33.232      -17.938       43.187       54.855       33.002     1865.112     3009.101     1089.126        0.479        0.298       57.373       21.280        0.138      330.255       -2.488      849.897
12/28/2021  01:26:00       86.234       -3.961      -25.115       56.049       66.977       46.787     3141.533     4485.943     2189.020        0.895        0.491       86.325       33.438        0.150      330.182       -2.610      849.863
12/28/2021  01:27:00      110.624       -4.559      -33.771       72.920       59.609       48.269     5317.292     3553.175     2329.916        1.230        0.560      110.718       45.746        0.171      330.161       -2.645      849.844
12/28/2021  01:28:00      104.523      -31.846      -12.827       82.828       60.616       36.179     6860.542     3674.324     1308.906        1.197        0.592      109.267       31.730        0.084      330.271       -2.463      849.826
12/28/2021  01:29:00       79.145       -3.608      -23.410       60.733       72.846       44.034     3688.516     5306.487     1938.988        0.888        0.547       79.228       30.353        0.147      330.241       -2.511      849.787
12/28/2021  01:30:00      128.355      -35.886      -19.009       52.689       46.335       35.193     2776.106     2146.943     1238.525        1.214        0.308      133.277       26.443        0.039      330.090       -2.762      849.772
12/28/2021  01:31:00       87.193      -30.593       -1.913       41.012       33.694       25.799     1681.946     1135.314      665.601        0.601        0.174       92.405       22.573        0.060      330.055       -2.815      849.794
12/28/2021  01:32:00       79.713      -35.767       -7.071       45.560       38.339       27.823     2075.713     1469.893      774.134        0.600        0.216       87.369       30.432        0.121      330.040       -2.839      849.805
12/28/2021  01:33:00       79.354      -52.250      -19.531       41.654       23.792       19.298     1735.051      566.044      372.429        0.604        0.134       95.012       16.407        0.030      330.089       -2.761      849.797
12/28/2021  01:34:00       37.618      -58.009      -21.587       26.029       28.324       15.845      677.528      802.240      251.072        0.349        0.087       69.139        9.664        0.020      330.162       -2.642      849.785
12/28/2021  01:35:00       31.473        7.949      -16.560       26.959       45.279       18.005      726.801     2050.184      324.197        0.221        0.155       32.462       11.539        0.126      330.132       -2.692      849.777
12/28/2021  01:36:00      101.046       71.319       -7.943       71.957       29.671       17.927     5177.863      880.376      321.390        1.087        0.319      123.680       23.910        0.037      330.070       -2.793      849.742
12/28/2021  01:37:00      152.030      131.382      -34.410       87.303       63.188       46.589     7621.813     3992.693     2170.561        2.767        0.689      200.933       29.397        0.021      330.736       -1.703      849.676
12/28/2021  01:38:00      108.140      138.797      -38.483       51.525       48.360       31.198     2654.819     2338.714      973.299        1.920        0.298      175.951       22.450        0.016      330.634       -1.870      849.654
12/28/2021  01:39:00        1.195       11.196       -2.065       48.477       34.125       34.131     2350.027     1164.495     1164.918        0.240        0.234       11.260       26.453        5.520      330.414       -2.228      849.695
12/28/2021  01:40:00       -8.421      -16.786      -10.418       25.257       24.145       21.307      637.895      582.965      453.974        0.107        0.084       18.781        5.180        0.076      330.511       -2.070      849.723
12/28/2021  01:41:00        1.497      -12.224      -12.787       17.532       28.380       12.363      307.380      805.443      152.839        0.079        0.063       12.315        7.286        0.350      330.478       -2.125      849.717
12/28/2021  01:42:00       24.236        7.259      -20.102       20.337       27.368       18.392      413.584      749.014      338.262        0.127        0.075       25.299        6.932        0.075      330.460       -2.155      849.723
12/28/2021  01:43:00       72.715     -106.207      -26.543       46.298       76.925       37.372     2143.524     5917.380     1396.678        1.336        0.473      128.715       28.899        0.050      330.216       -2.553      849.722
12/28/2021  01:44:00       72.934     -138.530      -32.320       25.797       37.334       22.870      665.488     1393.840      523.027        1.407        0.129      156.556       11.866        0.006      330.171       -2.626      849.735
12/28/2021  01:45:00       -1.579      -50.925      -24.195       26.936       48.769       25.126      725.554     2378.413      631.337        0.346        0.187       50.949       26.076        0.262      330.248       -2.500      849.788
12/28/2021  01:46:00      -75.275       48.219      -10.045       32.944       41.314       21.808     1085.297     1706.806      475.596        0.568        0.163       89.394       13.848        0.024      330.238       -2.517      849.830
12/28/2021  01:47:00      -36.436       80.253       -6.502       25.399       29.968       19.195      645.117      898.094      368.430        0.486        0.096       88.137        4.516        0.003      330.276       -2.455      849.812
12/28/2021  01:48:00      -30.414      127.352      -15.067       45.891       69.687       24.928     2105.985     4856.278      621.396        1.248        0.379      130.933       26.580        0.041      330.856       -1.502      849.767
12/28/2021  01:49:00      -29.273        2.946      -20.336       37.072       43.491       28.935     1374.339     1891.473      837.240        0.269        0.205       29.421       21.140        0.516      330.700       -1.760      849.782
12/28/2021  01:50:00      -20.444       85.155       -7.224       91.462       62.695       39.254     8365.227     3930.603     1540.887        1.078        0.692       87.575       33.904        0.150      330.761       -1.659      849.745
12/28/2021  01:51:00     -280.211       84.267      -15.653      194.589      117.072       76.969    37864.820    13705.967     5924.177        7.167        2.875      292.607       76.077        0.068      330.915       -1.409      849.695
12/28/2021  01:52:00     -220.450       89.245       -0.571      152.369      102.045       70.254    23216.360    10413.284     4935.628        4.756        1.928      237.830       74.909        0.099      330.846       -1.521      849.713
12/28/2021  01:53:00      -83.277       89.196       -9.018      142.609       57.689       36.132    20337.226     3328.043     1305.507        1.997        1.249      122.028       25.206        0.043      330.963       -1.329      849.719
12/28/2021  01:54:00      -84.831       34.153        2.654       52.038       43.101       28.178     2707.921     1857.677      793.974        0.686        0.268       91.448       18.992        0.043      330.986       -1.291      849.697
12/28/2021  01:55:00     -196.020       12.455       10.921      135.578       91.975       51.818    18381.399     8459.432     2685.103        3.411        1.476      196.415       57.647        0.086      330.775       -1.640      849.766
12/28/2021  01:56:00     -199.902      -66.483      -35.062       74.923       80.289       44.798     5613.431     6446.268     2006.865        2.984        0.703      210.667       28.952        0.019      330.281       -2.449      849.782
12/28/2021  01:57:00       15.405      -50.772      -34.590       34.429       75.013       23.665     1185.323     5626.999      560.020        0.569        0.369       53.058       20.171        0.145      330.362       -2.313      849.733
12/28/2021  01:58:00      -27.725       13.196       -1.397       22.920       14.271       14.075      525.308      203.655      198.117        0.094        0.046       30.705        9.067        0.087      330.457       -2.158      849.718
12/28/2021  01:59:00      -69.943      -27.134      -16.087       57.047       45.709       28.098     3254.352     2089.321      789.509        0.601        0.307       75.022       18.145        0.058      330.536       -2.030      849.772
12/28/2021  02:00:00      -82.738      -26.762        0.534       83.088       55.083       37.486     6903.574     3034.149     1405.166        0.945        0.567       86.958       35.175        0.164      330.454       -2.164      849.850
12/28/2021  02:01:00     -103.769       -6.927        0.544       79.028       49.369       40.896     6245.497     2437.336     1672.523        1.058        0.518      104.000       34.083        0.107      330.367       -2.304      849.864
12/28/2021  02:02:00      -51.435      -55.897       -2.282       47.510       66.528       27.592     2257.226     4426.041      761.318        0.661        0.372       75.961       32.470        0.183      330.486       -2.110      849.817
12/28/2021  02:03:00      -95.153      -11.360       -2.179       98.494       82.125       56.292     9701.095     6744.527     3168.793        1.440        0.981       95.828       46.054        0.231      330.461       -2.153      849.837
12/28/2021  02:04:00     -177.646       57.356       -0.527      105.936       70.378       49.279    11222.432     4952.994     2428.442        2.672        0.930      186.675       34.875        0.035      330.214       -2.560      849.911
12/28/2021  02:05:00     -164.752      -53.944      -16.317       65.164       77.663       46.427     4246.287     6031.610     2155.481        2.137        0.622      173.358       36.040        0.043      330.211       -2.563      849.929
12/28/2021  02:06:00     -186.791       13.451       -7.084       92.281       59.910       51.566     8515.709     3589.205     2659.060        2.494        0.738      187.275       47.791        0.065      330.156       -2.655      849.976
12/28/2021  02:07:00     -252.441       82.623       -5.889       68.745       64.875       38.207     4725.854     4208.776     1459.755        4.049        0.520      265.618       26.051        0.010      330.103       -2.743      850.015
12/28/2021  02:08:00     -192.988       55.627      -19.821      107.891       59.526       44.985    11640.450     3543.321     2023.630        2.897        0.860      200.845       40.550        0.041      330.062       -2.807      850.026
12/28/2021  02:09:00      -53.470       26.922        6.384       57.447       48.385       38.862     3300.167     2341.077     1510.220        0.539        0.358       59.865       31.971        0.285      330.086       -2.766      850.000
12/28/2021  02:10:00      -47.549      -13.267       -1.627       72.087       36.456       28.147     5196.592     1329.011      792.277        0.488        0.366       49.365       35.061        0.504      330.141       -2.676      850.000
12/28/2021  02:11:00     -224.538      -25.641      -15.394       97.389       72.227       56.641     9484.568     5216.752     3208.231        3.461        0.895      225.998       53.257        0.056      330.124       -2.709      850.041
12/28/2021  02:12:00     -199.562        0.454       -8.841       79.260       52.041       35.866     6282.220     2708.278     1286.388        2.509        0.514      199.562       38.550        0.037      330.169       -2.632      850.073
12/28/2021  02:13:00      -98.319       15.072       -5.993       38.452       49.038       27.662     1478.574     2404.728      765.173        0.729        0.232       99.468       15.656        0.025      330.156       -2.651      850.072
12/28/2021  02:14:00     -126.667       -5.425      -25.561       52.825       32.835       25.746     2790.452     1078.151      662.857        1.063        0.227      126.783       22.408        0.031      330.120       -2.712      850.070
12/28/2021  02:15:00     -115.395        3.746      -13.890       35.931       31.331       25.919     1291.045      981.612      671.814        0.823        0.147      115.456       19.073        0.027      330.156       -2.653      850.079
12/28/2021  02:16:00      -58.156       56.615      -14.058       26.634       34.272       17.892      709.391     1174.545      320.107        0.449        0.110       81.163       13.715        0.029      330.105       -2.736      850.057
12/28/2021  02:17:00      -23.831       46.320       -6.855       28.140       20.856       11.755      791.866      434.982      138.186        0.206        0.068       52.091       10.132        0.038      330.087       -2.765      850.025
12/28/2021  02:18:00        4.271       24.522      -10.206       19.472       16.254       12.956      379.142      264.188      167.846        0.077        0.041       24.891        7.974        0.103      330.142       -2.676      850.008
12/28/2021  02:19:00       -5.096       79.985       -7.164       31.223       30.569       18.962      974.877      934.455      359.564        0.437        0.113       80.147        8.924        0.012      330.247       -2.502      850.035
12/28/2021  02:20:00      -56.940       39.288       -8.502       37.807       23.356       21.565     1429.347      545.514      465.069        0.365        0.122       69.178       19.227        0.077      330.156       -2.652      850.087
12/28/2021  02:21:00      -62.895       14.326       -3.959       50.103       35.000       29.157     2510.353     1225.004      850.138        0.438        0.229       64.505       21.952        0.116      330.100       -2.746      850.108
12/28/2021  02:22:00      -71.920       11.464       -8.083       33.554       21.180       18.414     1125.847      448.589      339.093        0.364        0.096       72.828       18.965        0.068      330.126       -2.703      850.123
12/28/2021  02:23:00      -25.659       -0.026       -2.458       33.199       18.966       18.979     1102.172      359.720      360.200        0.124        0.091       25.659       12.209        0.226      330.255       -2.488      850.155
12/28/2021  02:24:00      -41.956        4.174        1.498       34.863       21.953       16.182     1215.405      481.953      261.866        0.187        0.098       42.163       15.210        0.130      330.215       -2.555      850.179
12/28/2021  02:25:00      -36.387       28.087       -5.154       29.760       26.947       20.475      885.640      726.150      419.221        0.208        0.102       45.967       16.797        0.134      330.156       -2.653      850.211
12/28/2021  02:26:00      -43.400       39.711       -7.921       20.168       21.607       12.381      406.746      466.854      153.278        0.227        0.051       58.827       12.008        0.042      330.221       -2.545      850.237
12/28/2021  02:27:00      -10.586       29.612       -2.699       25.251       15.790       11.595      637.619      249.316      134.440        0.101        0.051       31.447       12.875        0.168      330.228       -2.533      850.247
12/28/2021  02:28:00      -76.286       12.067      -20.472       46.141       31.486       20.709     2128.989      991.378      428.864        0.497        0.177       77.235       14.438        0.035      330.260       -2.480      850.261
12/28/2021  02:29:00      -29.269      -15.460        0.923       35.262       28.210       21.996     1243.400      795.831      483.846        0.181        0.126       33.101       13.667        0.170      330.256       -2.488      850.279
12/28/2021  02:30:00      -31.993      -28.146       -9.015       35.857       29.982       14.946     1285.691      898.902      223.393        0.215        0.120       42.612       14.378        0.114      330.272       -2.461      850.286
12/28/2021  02:31:00      -21.487      -26.879       -9.843       22.008       32.630       20.226      484.345     1064.709      409.074        0.162        0.098       34.412       11.162        0.105      330.302       -2.412      850.293
12/28/2021  02:32:00      -98.017      -17.035       -7.435       48.401       30.984       22.102     2342.670      960.037      488.518        0.687        0.190       99.486       15.965        0.026      330.302       -2.412      850.309
12/28/2021  02:33:00     -118.076      -13.267      -12.802       41.213       31.302       24.759     1698.480      979.815      613.012        0.879        0.165      118.819       20.360        0.029      330.270       -2.463      850.311
12/28/2021  02:34:00     -142.512        1.963      -11.219       27.581       30.207       20.381      760.686      912.471      415.381        1.126        0.104      142.526       13.871        0.009      330.270       -2.466      850.313
12/28/2021  02:35:00      -50.826        0.521       -5.313       44.063       23.035       17.365     1941.529      530.630      301.542        0.269        0.139       50.829       16.238        0.102      330.211       -2.562      850.287
12/28/2021  02:36:00      -48.178       37.261       -6.786       29.758       33.309       14.869      885.519     1109.481      221.084        0.299        0.111       60.906        7.979        0.017      330.222       -2.542      850.280
12/28/2021  02:37:00      -57.900       76.141       -4.285       30.247       18.405       20.544      914.909      338.726      422.067        0.542        0.084       95.655       13.549        0.020      330.191       -2.594      850.280
12/28/2021  02:38:00      -71.938       19.162      -18.609       16.935       22.195       14.591      286.782      492.609      212.900        0.344        0.050       74.447       12.343        0.027      330.117       -2.715      850.297
12/28/2021  02:39:00      -33.231        8.505       -9.790       39.711       36.005       19.178     1576.991     1296.377      367.778        0.226        0.162       34.302       13.253        0.149      330.160       -2.646      850.299
12/28/2021  02:40:00      -33.666      -20.242       -7.626       33.769       27.994       30.270     1140.329      783.669      916.273        0.222        0.142       39.282       10.279        0.068      330.239       -2.515      850.300
12/28/2021  02:41:00       10.137       -5.267       -0.396       22.484       28.810       19.723      505.529      830.036      389.012        0.093        0.086       11.423       18.960        2.755      330.253       -2.493      850.262
12/28/2021  02:42:00      -11.324      -13.401      -22.016       56.056       62.361       23.107     3142.229     3888.886      533.932        0.418        0.378       17.544       32.059        3.339      330.316       -2.389      850.231
12/28/2021  02:43:00      -81.619       95.214      -27.200       63.784       56.092       38.760     4068.415     3146.307     1502.302        1.259        0.436      125.409       28.676        0.052      330.548       -2.009      850.207
12/28/2021  02:44:00     -130.723      136.751      -24.791       41.551       32.574       21.084     1726.491     1061.091      444.556        1.982        0.162      189.180       21.258        0.013      330.523       -2.052      850.152
12/28/2021  02:45:00      -62.839       84.207       -8.769       37.915       44.700       21.286     1437.524     1998.085      453.099        0.750        0.194      105.069       26.321        0.063      330.638       -1.861      850.131
12/28/2021  02:46:00       34.932      113.921      -10.096       47.039       49.325       30.901     2212.650     2432.971      954.880        0.995        0.280      119.156       22.744        0.036      330.444       -2.179      850.114
12/28/2021  02:47:00       17.060       80.940      -15.827       49.586       51.038       29.858     2458.760     2604.878      891.512        0.652        0.298       82.718       29.964        0.131      330.593       -1.936      850.098
12/28/2021  02:48:00       11.983       53.017       -7.737       23.299       43.676       22.246      542.844     1907.594      494.892        0.298        0.147       54.354       22.229        0.167      330.675       -1.800      850.127
12/28/2021  02:49:00       -5.959      -17.749       -6.380       75.601       28.746       29.682     5715.523      826.358      881.037        0.391        0.371       18.723       31.437        2.819      330.462       -2.150      850.182
12/28/2021  02:50:00     -264.031      -28.700      -17.508      108.189       69.245       54.181    11704.878     4794.880     2935.632        4.514        0.972      265.586       47.242        0.032      330.149       -2.666      850.239
12/28/2021  02:51:00     -259.924       40.997       -6.392      117.315       86.410       52.712    13762.756     7466.770     2778.517        4.664        1.200      263.137       53.045        0.041      329.996       -2.917      850.260
12/28/2021  02:52:00     -146.003       -4.498       -4.580       87.637       43.097       42.414     7680.202     1857.362     1798.932        1.635        0.567      146.072       49.326        0.114      329.965       -2.965      850.261
12/28/2021  02:53:00     -107.351      -39.661       -8.996       65.766       51.171       33.786     4325.179     2618.467     1141.466        1.063        0.404      114.444       30.345        0.070      330.087       -2.764      850.263
12/28/2021  02:54:00     -134.998        8.028      -12.540       80.048       42.596       34.487     6407.672     1814.438     1189.371        1.393        0.471      135.236       25.124        0.035      330.088       -2.764      850.301
12/28/2021  02:55:00     -118.110       41.336       -3.369       68.676       41.366       26.774     4716.352     1711.127      716.844        1.141        0.357      125.134       34.710        0.077      330.029       -2.860      850.311
12/28/2021  02:56:00      -89.059       31.134       -7.428       54.686       41.992       27.370     2990.592     1763.318      749.130        0.723        0.275       94.344       22.545        0.057      329.947       -2.993      850.303
12/28/2021  02:57:00     -173.056      101.302      -35.399       55.051       45.410       31.058     3030.585     2062.072      964.622        2.376        0.303      200.526       22.614        0.013      329.909       -3.059      850.314
12/28/2021  02:58:00     -160.601       65.967       -8.503       76.279       55.487       37.943     5818.455     3078.857     1439.642        2.027        0.517      173.621       29.962        0.030      329.910       -3.057      850.356
12/28/2021  02:59:00     -106.584       53.360      -16.257       45.602       50.230       29.017     2079.560     2523.065      842.002        0.996        0.272      119.195       29.308        0.060      329.931       -3.020      850.328
12/28/2021  03:00:00     -141.048       66.089      -13.144       42.941       40.048       26.001     1843.901     1603.880      676.049        1.428        0.206      155.764       17.175        0.012      329.896       -3.079      850.327
12/28/2021  03:01:00     -204.367       59.927       -5.146       83.637       72.190       45.047     6995.229     5211.411     2029.216        2.981        0.712      212.972       36.277        0.029      329.961       -2.975      850.358
12/28/2021  03:02:00     -102.924        8.413      -12.943       55.539       32.093       24.741     3084.607     1029.930      612.117        0.778        0.236      103.267       26.158        0.064      329.967       -2.961      850.316
12/28/2021  03:03:00      -55.915       28.424       10.480       83.866       55.438       36.426     7033.482     3073.412     1326.839        0.774        0.572       62.725       29.495        0.221      330.003       -2.903      850.294
12/28/2021  03:04:00      -93.259      -33.275      -10.930       93.874       85.136       26.513     8812.304     7248.155      702.962        1.334        0.838       99.018       29.270        0.087      330.072       -2.790      850.292
12/28/2021  03:05:00      -68.499       41.744      -14.711       64.865       48.152       31.992     4207.506     2318.588     1023.464        0.710        0.377       80.217       30.193        0.142      330.262       -2.479      850.248
12/28/2021  03:06:00      -61.558       49.356      -29.227       36.322       25.751       32.587     1319.285      663.123     1061.883        0.506        0.152       78.901       16.424        0.043      330.058       -2.812      850.239
12/28/2021  03:07:00      -11.515       12.465      -19.780       22.584       60.732       25.526      510.045     3688.347      651.560        0.276        0.242       16.970       22.355        1.735      330.095       -2.752      850.244
12/28/2021  03:08:00      -55.223       13.912      -13.998       44.668       36.152       27.285     1995.188     1306.964      744.449        0.374        0.202       56.948       20.570        0.130      330.117       -2.717      850.257
12/28/2021  03:09:00     -122.416        0.970       -6.102       54.457       37.052       25.036     2965.600     1372.880      626.786        0.999        0.248      122.420       27.702        0.051      330.078       -2.780      850.285
12/28/2021  03:10:00      -80.853       20.767       -3.672       75.124       40.565       30.669     5643.607     1645.516      940.579        0.760        0.411       83.477       22.867        0.075      330.109       -2.730      850.283
12/28/2021  03:11:00      -62.768        5.122       -0.767       55.648       30.002       23.317     3096.663      900.108      543.693        0.425        0.227       62.976       22.909        0.132      330.156       -2.652      850.267
12/28/2021  03:12:00     -113.810        4.848       -5.406      114.419       61.727       41.577    13091.685     3810.186     1728.605        1.581        0.932      113.913       22.975        0.041      330.183       -2.608      850.294
12/28/2021  03:13:00     -213.359       62.513        4.506       83.377       57.928       44.630     6951.802     3355.643     1991.840        3.087        0.615      222.328       41.803        0.035      330.107       -2.735      850.307
12/28/2021  03:14:00      -88.871       23.638       -7.260       92.825       95.229       34.455     8616.482     9068.576     1187.114        1.369        0.944       91.961       31.981        0.121      330.096       -2.751      850.258
12/28/2021  03:15:00     -222.954       17.201      -22.457       69.825       72.441       35.355     4875.549     5247.650     1249.973        3.094        0.569      223.616       23.459        0.011      330.223       -2.544      850.285
12/28/2021  03:16:00     -262.431       78.487      -25.450      100.523       93.075       49.620    10104.953     8662.896     2462.130        4.845        1.061      273.917       36.311        0.018      330.479       -2.126      850.276
12/28/2021  03:17:00     -219.408      -55.501      -25.324       90.916       64.614       45.806     8265.688     4174.970     2098.232        3.320        0.727      226.319       40.260        0.032      330.432       -2.201      850.339
12/28/2021  03:18:00     -170.812      -24.258      -17.354       64.649       56.727       35.567     4179.481     3217.923     1265.014        1.936        0.433      172.526       29.996        0.030      330.229       -2.533      850.368
12/28/2021  03:19:00      -71.519      -27.652       -9.902       49.034       50.349       37.549     2404.350     2534.990     1409.941        0.616        0.317       76.679       27.616        0.130      330.281       -2.445      850.372
12/28/2021  03:20:00     -101.341      -20.377       -1.622      114.536       56.412       50.627    13118.535     3182.355     2563.118        1.477        0.943      103.369       49.661        0.231      330.311       -2.399      850.388
12/28/2021  03:21:00     -187.742      -99.773      -27.632      133.127      114.613       54.801    17722.867    13136.244     3003.155        3.991        1.693      212.607       55.035        0.067      330.638       -1.864      850.363
12/28/2021  03:22:00      -51.786     -167.056      -43.632      103.988      109.015       51.548    10813.511    11884.173     2657.218        2.892        1.268      174.898       27.725        0.025      330.831       -1.547      850.341
12/28/2021  03:23:00      -31.489     -153.139      -40.357      113.144      111.125       46.124    12801.538    12348.817     2127.416        2.667        1.364      156.343       43.136        0.076      330.950       -1.351      850.311
12/28/2021  03:24:00     -172.553      -40.514       -9.497      103.793       58.210       39.586    10772.981     3388.402     1567.014        2.361        0.786      177.246       36.327        0.042      330.754       -1.674      850.316
12/28/2021  03:25:00     -165.294      -61.238      -25.097       64.753       87.353       34.738     4193.015     7630.585     1206.694        2.236        0.652      176.273       32.580        0.034      330.696       -1.767      850.307
12/28/2021  03:26:00     -120.129      -43.982       -5.445       74.671       65.948       39.795     5575.808     4349.194     1583.676        1.395        0.575      127.927       38.865        0.092      330.780       -1.627      850.274
12/28/2021  03:27:00     -130.264       -5.207       -6.019      107.994       73.270       64.407    11662.653     5368.430     4148.219        1.910        1.059      130.368       56.436        0.187      330.739       -1.695      850.263
12/28/2021  03:28:00     -173.309       48.565      -14.201       73.365       46.570       45.034     5382.448     2168.759     2028.057        2.109        0.479      179.985       34.623        0.037      330.467       -2.143      850.284
12/28/2021  03:29:00      -95.642       52.196      -25.776       47.289       43.242       30.871     2236.261     1869.901      952.988        0.880        0.253      108.958       20.955        0.037      330.472       -2.134      850.308
12/28/2021  03:30:00      -41.934       56.587      -16.954       43.874       48.953       33.262     1924.966     2396.353     1106.345        0.534        0.271       70.431       25.303        0.129      330.476       -2.126      850.331
12/28/2021  03:31:00       -7.049       83.509       -7.708       27.913       31.142       21.733      779.112      969.843      472.332        0.465        0.111       83.806       10.470        0.016      330.499       -2.089      850.332
12/28/2021  03:32:00      -11.589      115.087      -14.349       35.213       39.965       23.221     1239.966     1597.190      539.215        0.848        0.169      115.669       14.439        0.016      330.601       -1.922      850.349
12/28/2021  03:33:00      -66.153       58.962      -29.462       41.003       35.787       31.990     1681.257     1280.682     1023.338        0.635        0.199       88.616       21.435        0.059      330.499       -2.088      850.384
12/28/2021  03:34:00      -68.481       71.765      -26.310       34.094       36.699       37.062     1162.390     1346.843     1373.598        0.721        0.194       99.196       23.049        0.054      330.503       -2.084      850.411
12/28/2021  03:35:00      -30.485       -5.228      -12.171       38.923       53.209       27.733     1514.962     2831.218      769.112        0.311        0.256       30.930       13.016        0.177      330.489       -2.108      850.424
12/28/2021  03:36:00      -37.400      -27.369      -16.308       26.259       21.878       14.907      689.515      478.645      222.220        0.190        0.070       46.344       11.006        0.056      330.509       -2.072      850.388
12/28/2021  03:37:00       21.579       -4.266      -10.186       41.891       30.341       25.996     1754.866      920.559      675.770        0.197        0.168       21.997       20.993        0.911      330.567       -1.976      850.333
12/28/2021  03:38:00       51.550      -20.107      -25.916       48.107       51.874       37.171     2314.273     2690.912     1381.692        0.506        0.319       55.333       24.221        0.192      330.504       -2.085      850.252
12/28/2021  03:39:00       36.800       16.574      -34.571       31.121       30.237       32.940      968.543      914.254     1085.065        0.290        0.148       40.360       24.150        0.358      330.517       -2.060      850.245
12/28/2021  03:40:00        8.679      -11.110      -11.877       25.020       24.721       15.728      625.996      611.152      247.368        0.091        0.074       14.098        8.205        0.339      330.557       -1.997      850.262
12/28/2021  03:41:00      -26.967        2.588      -15.275       26.447       24.377       12.753      699.435      594.261      162.639        0.121        0.073       27.091        6.563        0.059      330.548       -2.009      850.296
12/28/2021  03:42:00      -63.975       33.082       -9.239       43.561       30.159       23.509     1897.550      909.586      552.679        0.432        0.168       72.022       14.940        0.043      330.519       -2.057      850.307
12/28/2021  03:43:00      -24.594       -6.628       -1.383       31.585       31.104       15.839      997.637      967.451      250.875        0.143        0.111       25.472        8.851        0.121      330.584       -1.950      850.291
12/28/2021  03:44:00      -10.923       -1.524       -7.806       23.158       21.716       14.656      536.303      471.602      214.785        0.070        0.061       11.028        8.381        0.578      330.639       -1.859      850.287
12/28/2021  03:45:00       -7.901       19.082        9.054       46.327       33.333       32.586     2146.217     1111.107     1061.821        0.241        0.216       20.653       25.701        1.549      330.539       -2.024      850.292
12/28/2021  03:46:00      -82.818        7.866        1.589       50.763       50.886       34.220     2576.867     2589.347     1170.978        0.663        0.317       83.191       21.898        0.069      330.498       -2.090      850.318
12/28/2021  03:47:00      -48.869       -0.004       -0.403      119.513       60.262       49.627    14283.435     3631.560     2462.843        1.138        1.019       48.869       51.810        1.124      330.485       -2.116      850.354
12/28/2021  03:48:00     -198.957       44.690       -0.956      146.139       68.663       59.148    21356.574     4714.544     3498.520        3.557        1.478      203.915       58.479        0.082      330.278       -2.454      850.391
12/28/2021  03:49:00     -177.710       -9.584      -19.869      106.602       84.538       48.154    11363.926     7146.720     2318.789        2.644        1.041      177.968       45.254        0.065      330.189       -2.599      850.388
12/28/2021  03:50:00      -62.943      -46.021      -23.623       55.789       24.409       17.398     3112.407      595.779      302.677        0.532        0.201       77.973       23.142        0.088      330.300       -2.415      850.348
12/28/2021  03:51:00      -70.394      -23.637      -13.287       28.207       51.481       20.334      795.658     2650.267      413.484        0.477        0.193       74.257        9.862        0.018      330.409       -2.235      850.330
12/28/2021  03:52:00      -37.873        6.381        1.845       35.301       31.733       22.811     1246.174     1006.959      520.344        0.213        0.139       38.407       17.509        0.208      330.439       -2.187      850.333
12/28/2021  03:53:00      -57.162      -14.390        0.464       76.522       50.300       39.178     5855.562     2530.082     1534.935        0.670        0.496       58.945       30.462        0.267      330.440       -2.185      850.389
12/28/2021  03:54:00     -112.779      -86.527      -16.313       69.518       46.424       33.101     4832.799     2155.225     1095.668        1.428        0.404      142.148       22.222        0.024      330.412       -2.234      850.385
12/28/2021  03:55:00      -48.665       -8.902       -1.534       42.109       48.647       25.097     1773.200     2366.520      629.869        0.361        0.238       49.473       19.881        0.161      330.494       -2.099      850.356
12/28/2021  03:56:00      -50.837       -7.732      -17.304       34.483       35.132       24.279     1189.065     1234.224      589.455        0.298        0.151       51.421       10.810        0.044      330.559       -1.991      850.334
12/28/2021  03:57:00      -48.330      -31.321      -15.050       48.467       37.884       27.143     2349.041     1435.230      736.768        0.403        0.226       57.592       12.252        0.045      330.843       -1.524      850.306
12/28/2021  03:58:00      -25.301      -67.405      -24.863       80.827       76.526       37.552     6533.023     5856.226     1410.124        0.980        0.690       71.997       22.602        0.099      331.016       -1.240      850.278
12/28/2021  03:59:00      -25.023       -1.966      -14.148       59.674       58.125       35.319     3560.985     3378.490     1247.408        0.451        0.409       25.100       12.590        0.252      330.885       -1.456      850.237
12/28/2021  04:00:00      -41.874      -75.742      -35.219       78.345       62.246       37.777     6137.880     3874.614     1427.087        1.008        0.572       86.547       31.332        0.131      330.903       -1.425      850.246
12/28/2021  04:01:00       86.136     -230.708      -49.100      105.065      120.574       48.953    11038.711    14538.064     2396.425        4.551        1.399      246.264       36.268        0.022      330.975       -1.309      850.257
12/28/2021  04:02:00       61.745     -172.085      -57.788      113.064      140.198       63.081    12783.376    19655.520     3979.217        3.658        1.821      182.826       63.311        0.120      330.939       -1.370      850.217
12/28/2021  04:03:00       68.091     -223.224      -54.772      145.096      133.299       77.723    21052.942    17768.512     6040.893        5.116        2.243      233.378       62.197        0.071      330.982       -1.298      850.197
12/28/2021  04:04:00      -20.184     -169.197      -63.213      136.761      108.852       73.890    18703.500    11848.759     5459.801        3.451        1.801      170.397       62.562        0.135      331.161       -1.005      850.238
12/28/2021  04:05:00      -63.189     -221.546      -44.096      156.691      153.177       85.823    24552.026    23463.218     7365.514        5.519        2.769      230.381       60.313        0.069      331.249       -0.860      850.242
12/28/2021  04:06:00      137.959     -355.530      -90.858      127.365      132.088       73.247    16221.940    17447.356     5365.113        9.635        1.952      381.359       70.267        0.034      331.090       -1.122      850.258
12/28/2021  04:07:00       53.175     -241.540      -62.346       90.825       77.561       54.807     8249.163     6015.780     3003.859        4.116        0.863      247.324       28.072        0.013      331.242       -0.871      850.267
12/28/2021  04:08:00       64.907     -203.087      -51.755       97.269       81.985       53.052     9461.279     6721.461     2814.496        3.356        0.950      213.207       43.149        0.041      331.160       -1.006      850.194
12/28/2021  04:09:00       -5.694     -123.121      -38.838      111.539       90.290       57.693    12440.906     8152.253     3328.456        2.031        1.196      123.253       64.698        0.276      331.133       -1.050      850.152
12/28/2021  04:10:00     -128.547      -38.993      -36.903       82.675       76.934       40.087     6835.092     5918.910     1606.959        1.688        0.718      134.331       22.313        0.028      331.167       -0.994      850.182
12/28/2021  04:11:00     -205.383      -33.329      -24.782      125.887       74.781       62.726    15847.653     5592.188     3934.613        3.464        1.269      208.070       37.705        0.033      330.982       -1.298      850.173
12/28/2021  04:12:00     -281.855      -19.154      -26.232      130.900       77.885       70.973    17134.748     6066.012     5037.160        5.436        1.412      282.505       62.878        0.050      330.859       -1.501      850.175
12/28/2021  04:13:00     -171.943      -55.463      -22.868       93.652       70.992       39.249     8770.618     5039.927     1540.523        2.425        0.768      180.667       19.412        0.012      330.909       -1.418      850.154
12/28/2021  04:14:00     -129.079      -44.103      -37.388       85.379       54.074       36.405     7289.655     2923.946     1325.301        1.577        0.577      136.406       17.368        0.016      330.978       -1.304      850.099
12/28/2021  04:15:00      -93.047       -4.858      -12.008       68.746       53.684       34.367     4725.979     2881.963     1181.093        0.881        0.439       93.174       30.363        0.106      330.884       -1.458      850.074
12/28/2021  04:16:00     -146.363       -7.628        3.291       85.227       60.438       41.891     7263.597     3652.810     1754.895        1.708        0.634      146.561       40.442        0.076      330.887       -1.453      850.095
12/28/2021  04:17:00     -216.954      -67.818       -8.326      109.245       94.759       54.936    11934.477     8979.208     3018.004        3.783        1.197      227.307       49.238        0.047      330.633       -1.872      850.101
12/28/2021  04:18:00     -167.197      -78.127      -26.146       37.876       56.219       36.361     1434.558     3160.539     1322.148        2.033        0.296      184.550       18.701        0.010      330.602       -1.922      850.062
12/28/2021  04:19:00      -90.924       -4.649        5.082       82.586       53.354       42.425     6820.524     2846.663     1799.883        0.989        0.573       91.042       36.808        0.163      330.659       -1.827      850.044
12/28/2021  04:20:00     -113.242      -15.191       -2.880       68.637       56.054       46.842     4711.087     3142.025     2194.198        1.155        0.502      114.256       36.603        0.103      330.629       -1.877      850.057
12/28/2021  04:21:00     -163.989      -37.824      -16.768       76.847       46.106       36.699     5905.524     2125.745     1346.833        1.899        0.469      168.294       42.631        0.064      330.548       -2.012      850.043
12/28/2021  04:22:00     -130.728      -25.131       -4.221       54.897       51.563       32.160     3013.652     2658.777     1034.286        1.222        0.335      133.122       29.252        0.048      330.511       -2.070      850.008
12/28/2021  04:23:00     -147.462     -130.234      -15.953       55.763       51.656       35.278     3109.497     2668.345     1244.513        2.299        0.351      196.738       32.281        0.027      330.448       -2.176      849.996
12/28/2021  04:24:00      -49.284      -47.019      -11.664       65.592       51.425       35.348     4302.274     2644.575     1249.457        0.648        0.410       68.115       17.838        0.069      330.495       -2.097      849.990
12/28/2021  04:25:00      -27.501      -66.641      -29.741       41.158       36.224       30.255     1693.952     1312.206      915.374        0.500        0.196       72.093       17.798        0.061      330.642       -1.855      849.965
12/28/2021  04:26:00        0.809      -68.535      -32.497       56.830       48.946       23.304     3229.696     2395.720      543.066        0.596        0.308       68.540       16.376        0.057      330.576       -1.963      849.955
12/28/2021  04:27:00      -27.210      -28.407      -18.934       21.544       37.306       16.629      464.144     1391.752      276.530        0.202        0.107       39.336       13.269        0.114      330.543       -2.019      849.957
12/28/2021  04:28:00      -52.645        2.090       -3.669       29.102       36.499       14.536      846.952     1332.198      211.309        0.259        0.120       52.687       12.122        0.053      330.596       -1.929      849.943
12/28/2021  04:29:00      -46.622      -37.158       -8.703       48.346       39.398       22.754     2337.305     1552.171      517.750        0.402        0.220       59.618       16.982        0.081      330.726       -1.717      849.950
12/28/2021  04:30:00      -25.088      -20.769      -13.785       27.681       30.624       25.163      766.211      937.830      633.160        0.179        0.117       32.569       13.484        0.171      330.665       -1.817      849.959
12/28/2021  04:31:00      -31.148      -10.977      -10.327       34.045       37.929       24.630     1159.029     1438.601      606.659        0.220        0.160       33.026       19.159        0.337      330.534       -2.033      849.953
12/28/2021  04:32:00       32.196      -63.641      -10.622       44.065       83.184       26.991     1941.706     6919.651      728.497        0.739        0.479       71.322       26.001        0.133      330.533       -2.035      849.924
12/28/2021  04:33:00       71.945      -92.219      -26.251       61.274       64.241       39.431     3754.546     4126.927     1554.800        1.190        0.472      116.964       35.004        0.090      330.505       -2.080      849.906
12/28/2021  04:34:00       90.288     -189.158      -45.905       61.917       51.443       31.659     3833.751     2646.403     1002.265        2.676        0.374      209.601       23.788        0.013      330.438       -2.191      849.879
12/28/2021  04:35:00      130.338     -191.110      -57.072       45.653       45.893       27.974     2084.152     2106.144      782.537        3.087        0.249      231.325       23.677        0.010      330.375       -2.297      849.846
12/28/2021  04:36:00      129.103     -114.837      -45.986       55.876       92.194       35.864     3122.133     8499.773     1286.207        2.244        0.645      172.786       37.345        0.047      330.418       -2.224      849.820
12/28/2021  04:37:00       75.764     -204.841      -33.781       53.679      109.038       40.751     2881.391    11889.339     1660.684        3.263        0.822      218.403       22.164        0.010      330.418       -2.225      849.806
12/28/2021  04:38:00       76.965     -233.820      -40.169       62.149       86.927       40.357     3862.536     7556.247     1628.663        3.763        0.652      246.162       35.991        0.021      330.435       -2.197      849.829
12/28/2021  04:39:00       33.771      -65.625      -33.285       77.941       89.630       34.669     6074.871     8033.593     1201.937        1.093        0.766       73.804       31.822        0.186      330.496       -2.095      849.849
12/28/2021  04:40:00       81.776     -198.240      -24.798       61.573       88.214       44.512     3791.290     7781.776     1981.301        3.008        0.678      214.444       36.690        0.029      330.375       -2.295      849.858
12/28/2021  04:41:00       38.172     -126.728      -52.849       60.963       75.230       29.054     3716.488     5659.613      844.114        1.526        0.511      132.352       27.318        0.043      330.412       -2.234      849.871
12/28/2021  04:42:00      -80.138      -15.154      -15.717       44.507       38.816       32.999     1980.867     1506.689     1088.960        0.574        0.229       81.558       24.075        0.087      330.426       -2.210      849.885
12/28/2021  04:43:00       47.752      -49.087      -33.399       50.273       71.203       27.268     2527.347     5069.900      743.518        0.707        0.417       68.483       25.688        0.141      330.354       -2.328      849.861
12/28/2021  04:44:00      127.247     -130.176      -56.865       52.043       77.824       39.176     2708.449     6056.503     1534.733        2.333        0.515      182.038       30.495        0.028      330.294       -2.428      849.828
12/28/2021  04:45:00       46.815     -169.091      -35.007       61.884       68.615       42.696     3829.649     4708.058     1822.935        2.118        0.518      175.452       29.594        0.028      330.408       -2.240      849.831
12/28/2021  04:46:00      -66.130      -45.018      -23.930       61.064       52.192       33.944     3728.858     2723.996     1152.183        0.729        0.380       79.998       16.369        0.042      330.511       -2.069      849.856
12/28/2021  04:47:00      -28.927        1.400       -8.958       36.966       42.695       26.930     1366.468     1822.844      725.206        0.242        0.196       28.961       13.119        0.205      330.542       -2.019      849.895
12/28/2021  04:48:00      -43.012      -24.989        2.664       51.171       28.467       22.163     2618.431      810.366      491.207        0.320        0.196       49.744       15.126        0.092      330.497       -2.092      849.929
12/28/2021  04:49:00      -55.188      -35.174      -20.271       44.496       36.678       23.142     1979.866     1345.292      535.569        0.428        0.193       65.444       13.603        0.043      330.579       -1.958      849.977
12/28/2021  04:50:00       -8.220      -46.000      -17.219       31.850       45.271       26.202     1014.408     2049.463      686.546        0.311        0.188       46.729       23.059        0.244      330.477       -2.126      850.012
12/28/2021  04:51:00       90.086      -69.803      -39.271       65.879       65.201       41.089     4339.987     4251.131     1688.343        1.240        0.514      113.965       32.350        0.081      330.460       -2.154      849.985
12/28/2021  04:52:00       73.850      -78.142      -48.438       43.374       55.641       31.220     1881.341     3095.962      974.671        0.993        0.298      107.517       19.332        0.032      330.379       -2.287      849.980
12/28/2021  04:53:00       25.650      -98.596      -33.379       67.510       47.884       39.188     4557.615     2292.841     1535.679        0.994        0.419      101.877       17.660        0.030      330.454       -2.164      849.996
12/28/2021  04:54:00       25.918     -110.872      -40.021       78.160       57.798       34.788     6109.004     3340.659     1210.173        1.261        0.533      113.861       27.001        0.056      330.487       -2.109      850.019
12/28/2021  04:55:00        7.171      -29.562      -22.684       34.290       36.782       23.078     1175.811     1352.898      532.614        0.225        0.153       30.419       11.249        0.137      330.548       -2.009      850.040
12/28/2021  04:56:00      -67.306      -23.639       -7.257       61.118       41.595       32.193     3735.370     1730.141     1036.420        0.582        0.325       71.337       21.669        0.092      330.591       -1.937      850.092
12/28/2021  04:57:00      -49.083      -50.405      -24.573       49.648       55.580       40.140     2464.940     3089.112     1611.206        0.636        0.358       70.355       28.007        0.158      330.577       -1.962      850.105
12/28/2021  04:58:00      -30.649      -59.529      -15.183       62.921       43.722       31.864     3959.102     1911.614     1015.317        0.580        0.344       66.955       12.851        0.037      330.542       -2.019      850.102
12/28/2021  04:59:00        1.590      -63.928      -29.463       50.793       52.429       23.872     2579.938     2748.755      569.888        0.543        0.295       63.948       19.083        0.089      330.578       -1.959      850.065
12/28/2021  05:00:00       52.316      -88.066      -33.435       60.652       71.139       41.640     3678.643     5060.694     1733.861        1.104        0.524      102.433       29.926        0.085      330.532       -2.036      850.058
12/28/2021  05:01:00       37.171      -73.693      -47.501      103.486       75.797       44.534    10709.436     5745.192     1983.292        1.375        0.922       82.537       47.827        0.336      330.412       -2.234      850.078
12/28/2021  05:02:00      -36.557      -20.693      -12.177       43.729       34.143       22.588     1912.211     1165.740      510.203        0.275        0.179       42.008       18.084        0.185      330.466       -2.143      850.116
12/28/2021  05:03:00      -72.112      -29.993      -12.220       63.705       56.581       31.488     4058.281     3201.440      991.495        0.725        0.413       78.101       21.592        0.076      330.545       -2.014      850.152
12/28/2021  05:04:00     -128.519      -15.003       -6.841       75.679       41.971       38.083     5727.271     1761.542     1450.314        1.286        0.447      129.392       31.026        0.057      330.386       -2.275      850.150
12/28/2021  05:05:00     -173.389       20.612       -5.909       64.035       39.688       29.668     4100.516     1575.104      880.184        1.854        0.328      174.609       21.730        0.015      330.117       -2.719      850.141
12/28/2021  05:06:00      -61.716       21.878        3.432       44.146       23.744       23.090     1948.866      563.761      533.129        0.367        0.152       65.480       14.776        0.051      330.131       -2.695      850.148
12/28/2021  05:07:00      -51.663       -0.372       10.436       52.887       47.362       27.107     2797.016     2243.153      734.797        0.428        0.289       51.664       33.808        0.428      330.241       -2.512      850.167
12/28/2021  05:08:00      -35.290      -26.212       -2.894       39.661       42.206       28.170     1573.007     1781.365      793.573        0.304        0.207       43.960       19.848        0.204      330.427       -2.207      850.190
12/28/2021  05:09:00      -17.353      -59.617      -10.335       36.788       34.671       33.604     1353.357     1202.071     1129.255        0.382        0.184       62.091       18.766        0.091      330.434       -2.197      850.194
12/28/2021  05:10:00      -48.100      -27.596       -0.764       60.923       41.997       27.847     3711.626     1763.722      775.481        0.466        0.313       55.454       23.016        0.172      330.409       -2.237      850.195
12/28/2021  05:11:00      -82.901        1.540       -7.634       50.617       26.930       24.280     2562.105      725.217      589.509        0.540        0.194       82.915       14.606        0.031      330.285       -2.438      850.183
12/28/2021  05:12:00     -130.067       11.088       -1.653       45.637       30.080       22.099     2082.696      904.777      488.382        1.026        0.174      130.539       20.907        0.026      330.213       -2.560      850.169
12/28/2021  05:13:00      -79.645      -13.110      -13.368       61.644       32.438       25.389     3800.029     1052.235      644.600        0.609        0.275       80.717       26.829        0.110      330.303       -2.410      850.162
12/28/2021  05:14:00      -72.640        2.001        5.559       62.727       46.369       36.050     3934.691     2150.084     1299.610        0.635        0.369       72.668       34.802        0.229      330.244       -2.508      850.167
12/28/2021  05:15:00     -111.821      -54.936      -10.682       49.253       55.457       29.383     2425.902     3075.490      863.344        1.100        0.318      124.587       17.817        0.020      330.314       -2.393      850.180
12/28/2021  05:16:00      -57.583      -53.035       -8.768       52.164       51.898       28.188     2721.126     2693.396      794.560        0.621        0.310       78.285       29.567        0.143      330.329       -2.368      850.179
12/28/2021  05:17:00      -29.519       -3.846       -5.940       38.254       27.397       29.480     1463.364      750.592      869.043        0.200        0.154       29.769       22.060        0.549      330.351       -2.333      850.159
12/28/2021  05:18:00      -22.937       -2.132      -12.158       32.319       28.070       24.949     1044.546      787.916      622.461        0.157        0.123       23.036       10.684        0.215      330.326       -2.371      850.158
12/28/2021  05:19:00      -26.543      -21.125        1.815       39.106       38.642       30.216     1529.304     1493.223      913.036        0.254        0.197       33.923       22.582        0.443      330.405       -2.243      850.177
12/28/2021  05:20:00      -20.415      -60.474      -25.116       40.725       47.213       31.465     1658.491     2229.071      990.055        0.479        0.244       63.826       14.807        0.054      330.472       -2.133      850.177
12/28/2021  05:21:00      -20.242      -38.991      -21.579       42.838       55.327       35.714     1835.135     3061.064     1275.518        0.428        0.309       43.932       30.853        0.493      330.406       -2.241      850.160
12/28/2021  05:22:00      -10.000      -46.911      -20.425       68.573       64.461       35.216     4702.261     4155.277     1240.138        0.641        0.505       47.965       37.694        0.618      330.429       -2.205      850.147
12/28/2021  05:23:00      -10.985        9.106       -3.624       29.059       20.241       22.943      844.422      409.680      526.402        0.100        0.089       14.269        9.609        0.454      330.459       -2.154      850.162
12/28/2021  05:24:00       -4.939      -15.992       -2.181       32.006       41.978       24.430     1024.395     1762.144      596.841        0.183        0.169       16.738       15.577        0.866      330.449       -2.173      850.184
12/28/2021  05:25:00      -33.158      -20.035       -7.722       46.549       32.681       25.823     2166.811     1068.071      666.823        0.273        0.195       38.740       18.540        0.229      330.436       -2.193      850.198
12/28/2021  05:26:00      -22.713      -29.789      -16.593       35.863       42.120       26.994     1286.173     1774.116      728.670        0.273        0.189       37.460       21.184        0.320      330.445       -2.177      850.201
12/28/2021  05:27:00      -22.930      -17.828        3.397       60.266       38.197       29.798     3631.941     1459.024      887.920        0.342        0.299       29.045       26.824        0.853      330.491       -2.104      850.227
12/28/2021  05:28:00      -16.027       -4.569       -3.504       23.346       35.394       17.612      545.028     1252.725      310.181        0.120        0.105       16.666        7.381        0.196      330.470       -2.135      850.243
12/28/2021  05:29:00      -40.129      -10.612      -11.126       64.580       41.025       23.129     4170.615     1683.076      534.946        0.412        0.319       41.508       14.163        0.116      330.486       -2.111      850.230
12/28/2021  05:30:00      -34.956        0.231      -19.352       30.115       29.080       20.709      906.918      845.618      428.873        0.189        0.109       34.957       18.253        0.273      330.497       -2.093      850.206
12/28/2021  05:31:00      -39.894      -12.435       -4.900       45.363       53.719       29.286     2057.832     2885.679      857.688        0.378        0.290       41.787       28.085        0.452      330.528       -2.042      850.221
12/28/2021  05:32:00      -15.769        6.230       10.832       30.055       27.081       18.667      903.286      733.397      348.455        0.119        0.099       16.955       12.453        0.539      330.516       -2.062      850.241
12/28/2021  05:33:00      -12.739       16.896       -6.979       15.291       24.279       16.986      233.810      589.461      288.524        0.080        0.056       21.160       10.701        0.256      330.548       -2.011      850.254
12/28/2021  05:34:00        6.496       11.450      -25.427       18.590       16.509       20.107      345.584      272.561      404.281        0.092        0.051       13.165       10.891        0.684      330.476       -2.126      850.267
12/28/2021  05:35:00        0.189       -8.241       -2.723       34.102       64.406       18.396     1162.939     4148.172      338.418        0.286        0.282        8.243       16.632        4.071      330.496       -2.094      850.286
12/28/2021  05:36:00      -30.656      -47.697      -21.340       53.407       44.266       23.225     2852.309     1959.511      539.409        0.451        0.268       56.699       10.024        0.031      330.560       -1.989      850.334
12/28/2021  05:37:00      -19.460      -40.337      -21.747       23.254       20.066       21.332      540.746      402.664      455.049        0.194        0.070       44.785        8.926        0.040      330.547       -2.012      850.369
12/28/2021  05:38:00      -21.841      -23.847      -15.442       37.252       22.928       17.946     1387.709      525.715      322.057        0.176        0.112       32.337       10.821        0.112      330.658       -1.828      850.372
12/28/2021  05:39:00       13.742      -21.960      -14.701       43.820       43.018       33.565     1920.219     1850.583     1126.622        0.289        0.245       25.905       27.283        1.109      330.659       -1.827      850.345
12/28/2021  05:40:00       44.921      -79.135      -22.098       55.338       54.460       34.697     3062.347     2965.877     1203.889        0.800        0.362       90.996       35.424        0.152      330.533       -2.034      850.336
12/28/2021  05:41:00       93.909     -175.356      -42.845       32.033       52.768       14.982     1026.090     2784.480      224.458        2.272        0.202      198.919       13.073        0.004      330.378       -2.290      850.342
12/28/2021  05:42:00       71.723     -128.220      -29.520       43.215       52.192       30.074     1867.563     2724.032      904.459        1.398        0.275      146.917       28.546        0.038      330.516       -2.061      850.352
12/28/2021  05:43:00       65.160      -75.115      -11.992       30.133       48.878       27.449      907.968     2389.046      753.433        0.704        0.203       99.439       24.583        0.061      330.442       -2.182      850.374
12/28/2021  05:44:00       64.882      -39.383      -20.684       31.987       28.436       17.498     1023.164      808.583      306.166        0.416        0.107       75.899        9.259        0.015      330.472       -2.134      850.393
12/28/2021  05:45:00       -3.271       -9.746       -6.036       15.397       25.235       19.763      237.064      636.793      390.579        0.070        0.063       10.280        8.089        0.619      330.602       -1.921      850.408
12/28/2021  05:46:00       10.093        1.241       -1.929       25.131       30.376       17.529      631.576      922.682      307.262        0.098        0.093       10.169        5.622        0.306      330.585       -1.948      850.421
12/28/2021  05:47:00      -78.939       58.437      -12.462       31.697       19.363       19.921     1004.720      374.942      396.841        0.579        0.089       98.215       16.332        0.028      330.433       -2.199      850.425
12/28/2021  05:48:00      -11.877       47.118       -1.716       32.544       29.302       17.065     1059.101      858.582      291.221        0.229        0.110       48.592        8.669        0.032      330.409       -2.235      850.435
12/28/2021  05:49:00      -29.861       18.417        9.462       49.949       37.044       22.842     2494.940     1372.222      521.772        0.285        0.219       35.084       18.705        0.284      330.460       -2.153      850.447
12/28/2021  05:50:00       -0.885       17.775        6.140       31.043       38.727       20.403      963.643     1499.777      416.289        0.162        0.144       17.797       16.402        0.849      330.501       -2.087      850.456
12/28/2021  05:51:00       52.787       44.408       -8.216       38.264       25.790       22.283     1464.132      665.124      496.550        0.373        0.131       68.982       11.475        0.028      330.467       -2.140      850.466
12/28/2021  05:52:00       67.930       56.749      -12.623       30.498       23.404       21.869      930.136      547.751      478.240        0.497        0.098       88.516       19.679        0.049      330.371       -2.299      850.474
12/28/2021  05:53:00       16.782        5.695        8.872       33.090       37.598       26.403     1094.973     1413.643      697.137        0.180        0.160       17.722       21.755        1.507      330.392       -2.264      850.472
12/28/2021  05:54:00       50.706       10.119       -2.607       34.365       28.566       18.804     1180.962      816.034      353.604        0.252        0.118       51.706       12.784        0.061      330.331       -2.365      850.476
12/28/2021  05:55:00       22.278      -15.262      -10.307       33.306       33.904       22.293     1109.320     1149.462      496.972        0.180        0.138       27.004       20.299        0.565      330.441       -2.185      850.475
12/28/2021  05:56:00       21.419       -1.837      -10.400       37.621       21.385       20.934     1415.309      457.298      438.250        0.144        0.116       21.497       14.196        0.436      330.378       -2.288      850.483
12/28/2021  05:57:00       18.207        1.921       -6.877       24.615       17.845       17.579      605.893      318.426      309.009        0.081        0.062       18.308        8.350        0.208      330.440       -2.186      850.495
12/28/2021  05:58:00       33.569        7.417       -1.591       37.810       43.771       20.023     1429.591     1915.919      400.935        0.246        0.187       34.379       15.858        0.213      330.357       -2.322      850.495
12/28/2021  05:59:00      112.344       29.649      -19.245       43.962       43.478       26.490     1932.615     1890.309      701.699        0.920        0.226      116.191       18.006        0.024      330.305       -2.405      850.496
12/28/2021  06:00:00       75.181       21.499       -5.468       48.913       34.931       28.193     2392.524     1220.196      794.847        0.528        0.220       78.194       24.538        0.098      330.300       -2.415      850.498
12/28/2021  06:01:00       66.042       11.510      -22.411       41.396       34.977       17.599     1713.627     1223.396      309.731        0.412        0.162       67.038       11.342        0.029      330.263       -2.476      850.497
12/28/2021  06:02:00       53.159       22.356      -23.510       29.026       32.487       18.995      842.533     1055.383      360.806        0.307        0.113       57.669       10.475        0.033      330.296       -2.422      850.509
12/28/2021  06:03:00       53.386       -0.358       -8.200       46.361       36.898       27.618     2149.319     1361.478      762.736        0.359        0.214       53.387       29.660        0.309      330.310       -2.400      850.517
12/28/2021  06:04:00      115.995       16.973      -17.861       19.764       18.157       18.809      390.609      329.669      353.778        0.757        0.054      117.231        8.128        0.005      330.200       -2.579      850.519
12/28/2021  06:05:00      122.878       31.224      -17.543       17.239       16.660       12.714      297.184      277.551      161.635        0.856        0.037      126.783        7.797        0.004      330.181       -2.612      850.527
12/28/2021  06:06:00       66.397       11.127      -17.370       43.940       28.191       16.441     1930.714      794.711      270.310        0.391        0.150       67.323       11.699        0.030      330.243       -2.508      850.538
12/28/2021  06:07:00       24.969       11.380       -7.263       22.026       32.585       17.878      485.148     1061.802      319.617        0.134        0.093       27.440        4.322        0.025      330.239       -2.514      850.559
12/28/2021  06:08:00       69.332       29.836      -12.863       26.136       20.714       14.754      683.076      429.080      217.687        0.360        0.066       75.479       12.087        0.026      330.179       -2.613      850.572
12/28/2021  06:09:00       64.550       47.125      -20.864       28.231       30.485       22.485      796.994      929.310      505.586        0.453        0.112       79.922       17.680        0.049      330.294       -2.425      850.592
12/28/2021  06:10:00       90.888       40.936      -25.776       25.164       23.309       14.188      633.234      543.311      201.313        0.599        0.069       99.681       14.245        0.020      330.210       -2.564      850.592
12/28/2021  06:11:00      118.809       33.351      -21.652       14.661       18.097       17.177      214.944      327.503      295.047        0.827        0.042      123.401        8.716        0.005      330.157       -2.653      850.588
12/28/2021  06:12:00      100.077       31.377      -13.685       22.372       26.637       15.589      500.519      709.511      243.022        0.632        0.073      104.880       10.496        0.010      330.160       -2.647      850.580
12/28/2021  06:13:00       83.553       34.320      -14.716       28.445       20.681       12.306      809.138      427.721      151.426        0.488        0.069       90.327       11.007        0.015      330.150       -2.665      850.574
12/28/2021  06:14:00       54.299       15.273      -10.823       18.623       14.518        8.467      346.813      210.775       71.682        0.196        0.031       56.406        8.857        0.025      330.152       -2.662      850.579
12/28/2021  06:15:00       36.296      -16.662      -20.283       15.044       25.361       14.770      226.325      643.191      218.161        0.155        0.054       39.938        7.778        0.038      330.251       -2.497      850.574
12/28/2021  06:16:00       35.493      -37.119      -16.272       14.627       11.891       10.123      213.936      141.388      102.465        0.168        0.023       51.358        6.866        0.018      330.214       -2.557      850.577
12/28/2021  06:17:00       58.007      -31.676      -21.232       15.989       12.684       11.163      255.661      160.889      124.602        0.268        0.027       66.093        8.657        0.017      330.173       -2.627      850.570
12/28/2021  06:18:00       31.749      -17.612      -25.053       18.569       26.464       17.232      344.813      700.345      296.951        0.164        0.067       36.307       10.644        0.086      330.171       -2.628      850.569
12/28/2021  06:19:00       16.559      -11.598      -12.700       27.275       30.629       23.850      743.952      938.108      568.804        0.141        0.113       20.217       16.013        0.627      330.218       -2.550      850.571
12/28/2021  06:20:00       40.666       30.421       -0.091       37.047       42.675       27.967     1372.448     1821.177      782.159        0.328        0.199       50.785       18.104        0.127      330.272       -2.461      850.587
12/28/2021  06:21:00       15.782        4.594        1.333       27.116       35.209       24.206      735.289     1239.675      585.933        0.142        0.128       16.437        7.658        0.217      330.282       -2.444      850.605
12/28/2021  06:22:00        8.338       -4.100        1.865       24.276       26.797       14.601      589.301      718.095      213.183        0.080        0.076        9.292        9.296        1.001      330.243       -2.510      850.622
12/28/2021  06:23:00       22.965        1.526       -4.898       24.004       10.924       13.647      576.182      119.326      186.244        0.072        0.044       23.015       13.508        0.344      330.250       -2.498      850.635
12/28/2021  06:24:00       28.710        3.205       -8.939       27.443       18.646       10.280      753.120      347.657      105.680        0.106        0.060       28.888       11.995        0.172      330.131       -2.693      850.647
12/28/2021  06:25:00       51.161       17.587       -9.418       15.712       10.814        8.827      246.867      116.938       77.910        0.173        0.022       54.100        5.841        0.012      330.067       -2.795      850.654
12/28/2021  06:26:00       42.433       16.335       -6.139       17.694       16.665       13.457      313.065      277.723      181.091        0.144        0.039       45.469        9.569        0.044      330.096       -2.752      850.663
12/28/2021  06:27:00       42.783        4.826      -10.094       21.146       17.089       13.357      447.152      292.041      178.420        0.144        0.046       43.054       10.642        0.061      330.167       -2.635      850.664
12/28/2021  06:28:00       50.342       15.425      -12.350       13.408       17.137       10.848      179.778      293.668      117.676        0.176        0.030       52.652        7.445        0.020      330.134       -2.691      850.671
12/28/2021  06:29:00       38.194       20.524       -7.873        9.438       12.056       10.193       89.085      145.347      103.892        0.114        0.017       43.359        5.274        0.015      330.101       -2.743      850.678
12/28/2021  06:30:00       63.890       47.348      -20.887       17.649       13.531       15.706      311.478      183.080      246.664        0.375        0.037       79.522       13.119        0.027      330.058       -2.810      850.674
12/28/2021  06:31:00       63.699       46.775      -16.217       26.776       23.663       17.586      716.956      559.946      309.260        0.405        0.079       79.028        8.408        0.011      330.178       -2.615      850.666
12/28/2021  06:32:00       57.787       11.693       -7.195       30.328       33.484       20.943      919.764     1121.182      438.626        0.300        0.124       58.958       10.833        0.034      330.186       -2.604      850.652
12/28/2021  06:33:00       14.196      -25.358       -8.477       17.603       27.628       19.630      309.882      763.314      385.319        0.119        0.073       29.061       12.331        0.180      330.169       -2.632      850.645
12/28/2021  06:34:00       42.147      -14.925      -10.804       35.350       27.538       29.970     1249.625      758.340      898.213        0.251        0.145       44.711       20.197        0.204      330.164       -2.641      850.646
12/28/2021  06:35:00       20.724      -51.069      -24.551       31.467       40.829       28.170      990.159     1667.041      793.541        0.354        0.173       55.114       19.319        0.123      330.224       -2.539      850.635
12/28/2021  06:36:00       66.105      -72.525      -33.189       35.296       54.301       28.330     1245.773     2948.579      802.598        0.786        0.250       98.131       28.524        0.084      330.266       -2.470      850.625
12/28/2021  06:37:00       96.317     -122.800      -43.971       40.980       62.132       28.505     1679.347     3860.382      812.553        1.632        0.318      156.066       28.979        0.034      330.197       -2.587      850.616
12/28/2021  06:38:00       69.974     -176.332      -33.945       35.952       44.559       30.193     1292.573     1985.529      911.630        2.066        0.209      189.708       21.559        0.013      330.245       -2.507      850.621
12/28/2021  06:39:00       88.639     -177.780      -37.693       30.486       41.911       26.870      929.414     1756.508      721.972        2.215        0.170      198.652       20.440        0.011      330.212       -2.564      850.637
12/28/2021  06:40:00       99.167      -62.934      -35.196       52.562       82.781       40.267     2762.735     6852.727     1621.404        1.313        0.562      117.451       24.809        0.045      330.290       -2.432      850.623
12/28/2021  06:41:00       54.154      -61.636      -29.985       52.117       66.127       35.129     2716.172     4372.790     1234.050        0.798        0.416       82.047       29.851        0.132      330.347       -2.336      850.619
12/28/2021  06:42:00       56.699      -22.144      -27.765       51.243       44.491       42.107     2625.875     1979.419     1772.976        0.543        0.319       60.870       31.835        0.274      330.315       -2.391      850.621
12/28/2021  06:43:00      103.106      -33.444      -10.393       79.798       88.051       50.025     6367.644     7753.041     2502.499        1.424        0.831      108.394       44.588        0.169      330.199       -2.583      850.615
12/28/2021  06:44:00       27.714      -12.043       -5.112       74.626       68.088       43.731     5569.012     4636.035     1912.408        0.653        0.606       30.218       32.657        1.168      330.227       -2.535      850.625
12/28/2021  06:45:00       -6.268       -6.487       -6.678       41.866       30.375       22.430     1752.723      922.632      503.109        0.165        0.159        9.021       10.545        1.366      330.199       -2.581      850.654
12/28/2021  06:46:00       61.216     -127.248      -30.145       54.783       86.896       28.059     3001.142     7550.882      787.324        1.609        0.567      141.207       29.529        0.044      330.213       -2.559      850.697
12/28/2021  06:47:00       82.470     -100.000      -29.498       37.032       50.671       21.653     1371.336     2567.560      468.861        1.104        0.220      129.620       21.235        0.027      330.186       -2.602      850.713
12/28/2021  06:48:00       75.675      -72.873      -30.277       35.482       44.139       23.828     1258.938     1948.274      567.791        0.786        0.189      105.058        9.121        0.008      330.215       -2.554      850.728
12/28/2021  06:49:00       43.035      -19.562      -15.428       56.919       49.016       37.606     3239.721     2402.545     1414.195        0.476        0.353       47.273       23.467        0.246      330.226       -2.538      850.743
12/28/2021  06:50:00        3.853      -43.609       -4.092       55.451       44.628       33.720     3074.854     1991.623     1137.020        0.407        0.310       43.779       25.557        0.341      330.236       -2.521      850.754
12/28/2021  06:51:00       37.783      -47.679      -17.447       48.035       45.968       31.720     2307.322     2113.042     1006.127        0.471        0.271       60.834       20.440        0.113      330.297       -2.420      850.768
12/28/2021  06:52:00       72.931        1.836      -17.947       54.726       59.401       33.902     2994.895     3528.464     1149.320        0.666        0.384       72.955       24.562        0.113      330.264       -2.475      850.787
12/28/2021  06:53:00       84.556        0.097        0.554       52.162       42.944       30.518     2720.837     1844.168      931.342        0.632        0.275       84.556       28.157        0.111      330.145       -2.671      850.800
12/28/2021  06:54:00      119.081        3.429       -7.312       38.930       33.375       19.395     1515.519     1113.881      376.174        0.862        0.150      119.130       14.830        0.015      330.027       -2.864      850.823
12/28/2021  06:55:00      112.485       30.493      -22.738       36.839       37.578       20.810     1357.128     1412.087      433.043        0.865        0.160      116.545       12.319        0.011      330.044       -2.836      850.830
12/28/2021  06:56:00      108.409       14.181       -9.516       56.143       44.282       25.518     3152.044     1960.892      651.191        0.890        0.288      109.332       20.826        0.036      330.079       -2.777      850.827
12/28/2021  06:57:00      138.931        6.478       -8.249       33.947       33.648       21.964     1152.403     1132.175      482.413        1.109        0.138      139.082       16.684        0.014      330.019       -2.875      850.823
12/28/2021  06:58:00      114.473       -4.748      -18.504       38.668       19.335       23.236     1495.184      373.844      539.912        0.794        0.120      114.572       20.223        0.031      330.008       -2.898      850.829
12/28/2021  06:59:00       99.615       32.496      -11.718       21.379       18.346       16.057      457.067      336.586      257.819        0.608        0.053      104.782        9.630        0.008      330.008       -2.894      850.852
12/28/2021  07:00:00       45.437       -8.726       -5.384       27.794       23.166       17.517      772.516      536.644      306.845        0.189        0.081       46.268       11.571        0.063      330.081       -2.773      850.873
12/28/2021  07:01:00       83.765       44.451      -10.952       35.991       26.632       24.625     1295.365      709.264      606.398        0.586        0.131       94.829       15.214        0.026      330.050       -2.824      850.895
12/28/2021  07:02:00       83.723       47.928      -23.188       15.070       17.308       16.506      227.114      299.560      272.435        0.532        0.040       96.471       10.689        0.012      330.062       -2.805      850.908
12/28/2021  07:03:00       97.656       42.963      -12.772       21.103       20.333       12.671      445.348      413.448      160.561        0.628        0.051      106.689       11.146        0.011      330.015       -2.879      850.910
12/28/2021  07:04:00       80.209       27.627      -17.484       28.320       28.616       15.577      802.022      818.854      242.631        0.468        0.093       84.834       12.782        0.023      330.041       -2.839      850.928
12/28/2021  07:05:00      100.332       36.084      -11.507       39.030       20.066       14.950     1523.360      402.634      223.490        0.682        0.107      106.623       13.694        0.016      329.993       -2.920      850.950
12/28/2021  07:06:00      122.293       23.922      -12.671       32.438       24.212       22.309     1052.193      586.239      497.697        0.891        0.107      124.611       16.203        0.017      330.038       -2.846      850.965
12/28/2021  07:07:00      102.688       -0.458      -15.146       55.681       33.781       24.462     3100.341     1141.124      598.376        0.781        0.242      102.689       17.007        0.027      330.066       -2.799      850.969
12/28/2021  07:08:00       64.761        0.471      -11.861       34.113       36.425       25.542     1163.727     1326.770      652.372        0.374        0.157       64.762       18.247        0.079      330.056       -2.815      850.967
12/28/2021  07:09:00       18.819        1.750       -6.923       37.897       36.801       23.969     1436.148     1354.324      574.506        0.188        0.168       18.900       17.145        0.823      330.091       -2.759      850.980
12/28/2021  07:10:00      134.046       20.250       -8.926       23.345       23.522       17.222      544.988      553.288      296.613        0.993        0.070      135.567       10.380        0.006      329.973       -2.951      850.989
12/28/2021  07:11:00       45.338       10.499       -0.833       48.855       50.171       26.632     2386.800     2517.119      709.247        0.389        0.281       46.538       22.588        0.236      330.089       -2.760      851.000
12/28/2021  07:12:00       72.208       23.806      -10.972       36.525       47.513       26.244     1334.111     2257.494      688.753        0.509        0.214       76.031       16.932        0.050      330.090       -2.762      850.988
12/28/2021  07:13:00       85.864       -4.801      -17.315       45.990       56.164       33.722     2115.036     3154.401     1137.174        0.705        0.320       85.998       27.500        0.102      330.039       -2.843      850.958
12/28/2021  07:14:00       83.262      -22.910       -2.696       63.808       44.474       40.618     4071.476     1977.899     1649.843        0.758        0.385       86.357       38.448        0.198      330.003       -2.904      850.914
12/28/2021  07:15:00       95.167      -18.872       -4.924       62.659       36.818       36.107     3926.206     1355.596     1303.748        0.801        0.329       97.020       35.827        0.136      329.987       -2.928      850.885
12/28/2021  07:16:00       79.916      -23.878       -6.718       67.251       55.039       38.944     4522.704     3029.257     1516.645        0.803        0.453       83.407       38.763        0.216      330.018       -2.877      850.847
12/28/2021  07:17:00      106.735      -61.975      -12.234       62.677       61.270       37.480     3928.372     3754.070     1404.746        1.223        0.454      123.423       33.595        0.074      330.058       -2.812      850.813
12/28/2021  07:18:00       69.996      -40.998      -13.161       66.840       47.670       30.936     4467.641     2272.457      957.055        0.722        0.385       81.119       23.900        0.087      330.053       -2.821      850.778
12/28/2021  07:19:00      100.327      -55.755      -21.430       77.157       46.076       29.341     5953.250     2122.997      860.873        1.128        0.447      114.778       19.585        0.029      330.024       -2.868      850.754
12/28/2021  07:20:00       56.610      -27.122       -0.559       65.326       44.091       33.465     4267.548     1944.042     1119.889        0.563        0.367       62.772       26.113        0.173      330.022       -2.869      850.737
12/28/2021  07:21:00       76.940      -86.791      -33.328       49.232       70.930       35.173     2423.819     5031.028     1237.147        1.163        0.435      115.985       13.703        0.014      330.066       -2.800      850.712
12/28/2021  07:22:00       45.651      -60.592      -33.778       54.337       64.250       36.590     2952.527     4128.054     1338.828        0.766        0.421       75.865       23.082        0.093      330.134       -2.687      850.670
12/28/2021  07:23:00       65.560     -189.147      -37.662       34.294       47.579       32.340     1176.097     2263.766     1045.861        2.299        0.224      200.186       17.171        0.007      330.038       -2.846      850.653
12/28/2021  07:24:00      102.500     -143.381      -42.795       29.846       51.253       24.920      890.780     2626.833      621.019        1.852        0.207      176.251       16.801        0.009      330.011       -2.891      850.629
12/28/2021  07:25:00      136.542     -116.888      -51.449       56.459       88.042       41.635     3187.635     7751.357     1733.514        2.381        0.634      179.740       34.767        0.037      329.991       -2.924      850.602
12/28/2021  07:26:00      101.331     -121.312      -38.588       38.504       54.734       28.450     1482.531     2995.814      809.380        1.588        0.264      158.066       22.359        0.020      330.088       -2.763      850.580
12/28/2021  07:27:00       52.446     -141.142      -31.881       39.829       38.850       26.544     1586.362     1509.312      704.602        1.374        0.190      150.571       22.822        0.023      330.145       -2.669      850.589
12/28/2021  07:28:00       51.745      -98.777      -14.041       49.302       47.907       36.372     2430.720     2295.124     1322.903        0.934        0.302      111.510       30.707        0.076      330.133       -2.689      850.620
12/28/2021  07:29:00       54.264      -70.544      -22.509       40.896       49.724       24.393     1672.495     2472.499      595.005        0.658        0.237       89.000       19.076        0.046      330.108       -2.731      850.647
12/28/2021  07:30:00       48.805      -41.022      -17.211       43.982       31.654       24.364     1934.393     1001.987      593.617        0.394        0.176       63.755       16.031        0.063      330.115       -2.720      850.665
12/28/2021  07:31:00       49.956      -76.691      -28.919       52.261       41.598       27.038     2731.197     1730.389      731.036        0.720        0.260       91.527       12.829        0.020      330.170       -2.627      850.682
12/28/2021  07:32:00       91.286      -57.403      -57.550       47.345       63.837       41.713     2241.534     4075.216     1739.994        1.150        0.403      107.834       22.684        0.044      330.202       -2.575      850.671
12/28/2021  07:33:00      126.503     -116.191      -54.327       46.975       65.221       31.087     2206.611     4253.843      966.397        1.994        0.371      171.765       29.849        0.030      330.091       -2.759      850.652
12/28/2021  07:34:00      119.371     -121.798      -56.546       59.981       95.265       32.101     3597.776     9075.452     1030.444        2.299        0.685      170.541       26.116        0.023      329.995       -2.918      850.637
12/28/2021  07:35:00       70.406     -125.642      -31.858       45.128       74.966       34.379     2036.565     5619.849     1181.903        1.530        0.442      144.024       37.553        0.068      330.075       -2.787      850.618
12/28/2021  07:36:00      105.414     -217.829      -35.918       35.721       53.547       27.540     1275.989     2867.235      758.462        3.238        0.245      241.995       24.358        0.010      330.038       -2.848      850.609
12/28/2021  07:37:00       92.477     -164.739      -32.801       30.305       37.547       20.833      918.374     1409.755      434.022        1.976        0.138      188.920       14.445        0.006      330.045       -2.834      850.616
12/28/2021  07:38:00      115.532     -207.217      -47.964       22.283       29.522       17.372      496.520      871.535      301.778        3.013        0.083      237.247        8.214        0.001      329.999       -2.915      850.620
12/28/2021  07:39:00      110.996     -204.190      -42.742       21.838       40.357       16.890      476.919     1628.679      285.285        2.912        0.120      232.409       15.172        0.004      329.978       -2.948      850.627
12/28/2021  07:40:00       99.045     -156.461      -36.995       40.704       59.499       24.440     1656.840     3540.136      597.305        2.073        0.290      185.175       22.351        0.015      330.036       -2.850      850.658
12/28/2021  07:41:00       58.124     -100.788      -20.053       26.791       51.997       18.308      717.770     2703.668      335.171        0.885        0.188      116.348       17.648        0.023      330.107       -2.733      850.688
12/28/2021  07:42:00       86.336      -62.299      -27.614       57.449       43.886       30.623     3300.369     1926.005      937.781        0.913        0.308      106.467       19.677        0.034      330.117       -2.716      850.702
12/28/2021  07:43:00      121.949      -14.048      -23.195       65.899       59.613       35.290     4342.679     3553.698     1245.356        1.237        0.457      122.755       29.432        0.057      330.159       -2.646      850.724
12/28/2021  07:44:00       61.456      -10.531       -2.847       54.861       46.113       32.366     3009.696     2126.378     1047.581        0.504        0.309       62.352       22.591        0.131      330.170       -2.629      850.741
12/28/2021  07:45:00       41.940        9.858      -13.534       27.377       35.005       25.001      749.521     1225.376      625.070        0.232        0.130       43.083       15.411        0.128      330.121       -2.708      850.757
12/28/2021  07:46:00       63.646      -40.717      -31.497       41.570       44.117       21.051     1728.036     1946.345      443.166        0.541        0.206       75.556       17.687        0.055      330.116       -2.717      850.766
12/28/2021  07:47:00       49.608      -38.313      -34.370       35.533       51.146       29.904     1262.563     2615.895      894.243        0.494        0.239       62.680       20.587        0.108      330.132       -2.692      850.765
12/28/2021  07:48:00       28.278       -0.535        1.876       50.049       35.510       32.955     2504.859     1260.954     1086.014        0.283        0.243       28.283       25.618        0.820      330.156       -2.653      850.780
12/28/2021  07:49:00       58.759      -11.704       -2.051       57.569       47.517       39.900     3314.178     2257.828     1592.020        0.538        0.358       59.913       32.987        0.303      330.091       -2.759      850.798
12/28/2021  07:50:00       51.666      -34.070        4.165       75.314       63.896       36.825     5672.228     4082.682     1356.059        0.748        0.556       61.888       35.079        0.321      330.113       -2.723      850.817
12/28/2021  07:51:00       52.675       -4.572      -17.620       55.521       61.786       45.092     3082.576     3817.491     2033.298        0.602        0.447       52.873       22.209        0.176      330.108       -2.732      850.829
12/28/2021  07:52:00      127.837      -41.003      -12.359       67.834       49.562       38.718     4601.441     2456.439     1499.087        1.337        0.428      134.252       36.768        0.075      330.101       -2.743      850.841
12/28/2021  07:53:00       84.567        2.285       -9.401       69.861       50.929       38.217     4880.611     2593.754     1460.503        0.809        0.447       84.598       34.820        0.169      330.145       -2.669      850.848
12/28/2021  07:54:00      132.801      -30.138      -17.793       70.695       54.515       53.016     4997.741     2971.834     2810.692        1.482        0.539      136.178       44.529        0.107      330.094       -2.755      850.847
12/28/2021  07:55:00       70.915       -8.545       -6.730       69.354       55.838       52.165     4810.029     3117.871     2721.219        0.790        0.532       71.428       47.635        0.445      330.032       -2.854      850.850
12/28/2021  07:56:00      137.404      -35.043      -21.148       68.339       62.448       37.590     4670.163     3899.747     1412.981        1.527        0.499      141.802       30.496        0.046      329.972       -2.954      850.853
12/28/2021  07:57:00       99.586      -15.090       -9.325       66.461       28.920       33.806     4417.010      836.381     1142.856        0.831        0.320      100.723       33.815        0.113      329.994       -2.918      850.853
12/28/2021  07:58:00      123.272      -33.715      -12.215       70.687       41.331       42.917     4996.610     1708.263     1841.858        1.251        0.427      127.799       36.993        0.084      329.976       -2.946      850.862
12/28/2021  07:59:00       81.877       -9.909       -0.070       89.763       46.812       36.639     8057.323     2191.348     1342.444        0.919        0.580       82.474       37.165        0.203      330.042       -2.839      850.878
12/28/2021  08:00:00      120.526      -26.542      -10.798       55.840       39.174       36.729     3118.159     1534.615     1349.004        1.067        0.300      123.414       33.282        0.073      330.046       -2.832      850.907
12/28/2021  08:01:00       89.326      -19.873      -13.621       53.560       37.641       36.034     2868.668     1416.829     1298.478        0.707        0.279       91.510       30.489        0.111      330.056       -2.814      850.929
12/28/2021  08:02:00       48.980      -21.499        3.159       55.466       44.270       43.184     3076.465     1959.856     1864.883        0.488        0.345       53.491       38.142        0.508      330.034       -2.851      850.948
12/28/2021  08:03:00       87.359       -6.721      -16.246       58.833       53.811       48.144     3461.349     2895.574     2317.827        0.831        0.434       87.617       37.484        0.183      330.071       -2.790      850.970
12/28/2021  08:04:00       75.928       -9.157       -8.720       49.613       55.028       28.022     2461.471     3028.101      785.260        0.610        0.314       76.478       15.587        0.042      330.118       -2.715      851.004
12/28/2021  08:05:00       87.871      -22.976      -29.003       52.761       66.464       31.813     2783.750     4417.518     1012.041        0.865        0.411       90.826       25.766        0.080      330.118       -2.715      851.036
12/28/2021  08:06:00      113.586       18.076      -22.469       65.007       54.056       27.645     4225.884     2922.067      764.249        1.082        0.396      115.016       10.410        0.008      330.046       -2.833      851.059
12/28/2021  08:07:00       59.471        4.201        2.342       68.002       52.785       36.136     4624.333     2786.244     1305.797        0.614        0.436       59.619       32.304        0.294      330.098       -2.749      851.057
12/28/2021  08:08:00       34.876      -66.580      -32.878       51.262       74.465       39.422     2627.835     5545.001     1554.117        0.823        0.486       75.161       22.648        0.091      330.125       -2.705      851.055
12/28/2021  08:09:00       78.150      -48.683       -6.938       77.509       63.111       50.793     6007.575     3982.965     2579.916        1.055        0.629       92.074       53.652        0.340      330.043       -2.838      851.072
12/28/2021  08:10:00       82.658      -25.303       -5.020       83.659       43.555       48.293     6998.789     1897.018     2332.250        0.936        0.561       86.444       45.085        0.272      330.005       -2.899      851.097
12/28/2021  08:11:00       89.235        9.243      -12.280       65.162       57.010       41.795     4246.089     3250.183     1746.852        0.872        0.462       89.712       29.985        0.112      330.035       -2.852      851.094
12/28/2021  08:12:00       98.681      -44.171      -22.185       75.477       55.127       46.370     5696.800     3038.978     2150.199        1.153        0.544      108.116       31.056        0.083      330.088       -2.765      851.083
12/28/2021  08:13:00       58.148      -31.416      -28.151       66.142       70.423       41.006     4374.716     4959.373     1681.502        0.809        0.551       66.092       29.964        0.206      330.108       -2.732      851.092
12/28/2021  08:14:00      131.005      -56.777      -27.090       60.017       46.463       33.656     3602.048     2158.773     1132.757        1.401        0.345      142.779       14.484        0.010      330.117       -2.717      851.101
12/28/2021  08:15:00       81.735       -6.226      -23.220       64.561       51.088       40.893     4168.146     2609.951     1672.214        0.785        0.423       81.972       28.069        0.117      330.165       -2.637      851.107
12/28/2021  08:16:00      103.164       13.041      -21.470       57.314       41.491       34.263     3284.933     1721.468     1173.941        0.873        0.309      103.985       23.992        0.053      330.120       -2.712      851.126
12/28/2021  08:17:00       90.765       -1.654      -14.321       41.008       52.959       34.684     1681.664     2804.684     1202.980        0.707        0.284       90.780       22.269        0.060      330.081       -2.773      851.145
12/28/2021  08:18:00       94.422      -40.259      -18.501       30.952       45.639       27.775      958.016     2082.880      771.451        0.734        0.191      102.647       25.931        0.064      330.077       -2.783      851.171
12/28/2021  08:19:00       63.371      -12.567      -10.323       32.752       28.413       23.729     1072.678      807.282      563.088        0.336        0.122       64.605       18.302        0.080      330.033       -2.852      851.196
12/28/2021  08:20:00       26.425        1.899       -4.056       41.412       39.435       33.474     1714.938     1555.102     1120.522        0.255        0.220       26.493       21.613        0.666      330.119       -2.713      851.207
12/28/2021  08:21:00       64.371      -14.123       -5.941       52.434       36.330       29.229     2749.332     1319.880      854.343        0.465        0.246       65.902       25.869        0.154      330.090       -2.759      851.204
12/28/2021  08:22:00       62.988      -10.354      -12.475       45.272       47.073       31.500     2049.578     2215.909      992.233        0.474        0.263       63.834       25.558        0.160      330.152       -2.660      851.182
12/28/2021  08:23:00      106.854      -16.076        1.010       63.537       46.889       43.236     4036.946     2198.593     1869.313        0.989        0.405      108.057       41.162        0.145      330.142       -2.676      851.157
12/28/2021  08:24:00       83.038      -45.892      -23.429       53.008       62.119       39.091     2809.884     3858.826     1528.114        0.887        0.410       94.876       27.463        0.084      330.104       -2.736      851.144
12/28/2021  08:25:00       40.777        4.225        2.689       46.523       53.671       39.209     2164.378     2880.597     1537.350        0.413        0.329       40.995       11.126        0.074      330.301       -2.414      851.126
12/28/2021  08:26:00       72.561       -7.489      -12.358       54.823       52.921       39.376     3005.589     2800.620     1550.482        0.641        0.368       72.946       25.018        0.118      330.305       -2.407      851.121
12/28/2021  08:27:00       36.061       -5.250       -3.704       47.122       44.682       39.605     2220.510     1996.506     1568.574        0.356        0.289       36.442       27.711        0.578      330.261       -2.480      851.143
12/28/2021  08:28:00      142.230      -14.638      -14.527       71.192       35.160       37.810     5068.298     1236.256     1429.627        1.419        0.387      142.981       41.698        0.085      330.092       -2.757      851.159
12/28/2021  08:29:00      128.169      -14.934      -14.579       57.857       32.633       31.946     3347.448     1064.898     1020.540        1.115        0.272      129.036       27.696        0.046      330.098       -2.747      851.194
12/28/2021  08:30:00      131.217       26.550      -18.469       26.685       25.874       21.154      712.090      669.472      447.479        1.005        0.091      133.876        9.361        0.005      330.077       -2.780      851.224
12/28/2021  08:31:00      151.861       -5.367       -4.168       81.258       50.489       41.158     6602.941     2549.096     1693.964        1.697        0.542      151.955       40.101        0.070      330.122       -2.709      851.214
12/28/2021  08:32:00      119.639      -17.528       -6.903       98.062       58.858       58.638     9616.194     3464.320     3438.391        1.559        0.826      120.917       57.764        0.228      330.187       -2.602      851.197
12/28/2021  08:33:00      155.916      -27.335      -16.403       99.898       57.156       60.231     9979.680     3266.753     3627.718        2.110        0.844      158.294       48.454        0.094      330.192       -2.595      851.201
12/28/2021  08:34:00      122.746        6.413       -6.758       75.496       80.469       51.634     5699.711     6475.334     2666.058        1.499        0.742      122.913       38.259        0.097      330.212       -2.560      851.227
12/28/2021  08:35:00      159.133       -5.237      -14.345       94.924       63.175       47.018     9010.523     3991.043     2210.721        2.038        0.761      159.219       45.475        0.082      330.179       -2.614      851.242
12/28/2021  08:36:00      180.456       47.854      -19.219       79.593       66.012       39.995     6334.998     4357.569     1599.612        2.376        0.615      186.693       35.298        0.036      330.136       -2.687      851.266
12/28/2021  08:37:00       94.112        8.365      -22.637       71.227       71.867       36.848     5073.222     5164.878     1357.787        1.052        0.580       94.483       24.114        0.065      330.261       -2.480      851.264
12/28/2021  08:38:00       27.742       -6.189       -3.046       60.106       40.699       31.693     3612.765     1656.443     1004.461        0.354        0.314       28.424       30.233        1.131      330.338       -2.353      851.270
12/28/2021  08:39:00      128.028      -35.512       -9.269       61.041       36.778       41.102     3725.976     1352.604     1689.396        1.225        0.338      132.862       39.683        0.089      330.139       -2.679      851.270
12/28/2021  08:40:00      149.619      -36.779      -26.546       84.963       43.714       51.925     7218.689     1910.894     2696.221        1.813        0.591      154.073       35.828        0.054      330.148       -2.667      851.229
12/28/2021  08:41:00      112.060      -84.196      -32.952       37.222       24.717       14.373     1385.502      610.916      206.572        1.147        0.110      140.166       14.257        0.010      330.039       -2.844      851.216
12/28/2021  08:42:00       84.199     -105.372      -24.066       38.309       50.411       28.463     1467.578     2541.224      810.137        1.179        0.241      134.881       30.957        0.053      330.155       -2.654      851.246
12/28/2021  08:43:00       95.213      -60.253      -34.069       51.510       48.469       32.413     2653.311     2349.224     1050.606        0.995        0.303      112.676       29.721        0.070      330.142       -2.676      851.213
12/28/2021  08:44:00       15.689       -7.622       -4.649       38.073       42.491       24.645     1449.521     1805.446      607.380        0.209        0.193       17.442       19.333        1.229      330.293       -2.426      851.209
12/28/2021  08:45:00        6.786      -39.024       -8.034       32.700       40.527       23.480     1069.297     1642.443      551.327        0.245        0.163       39.609       20.271        0.262      330.379       -2.286      851.202
12/28/2021  08:46:00       69.380      -15.563      -14.427       41.017       33.055       28.300     1682.401     1092.605      800.873        0.442        0.179       71.104       12.577        0.031      330.267       -2.470      851.206
12/28/2021  08:47:00       61.278       22.721       -7.018       38.399       40.323       30.948     1474.489     1625.913      957.748        0.419        0.203       65.355       25.291        0.150      330.292       -2.429      851.202
12/28/2021  08:48:00       95.383       66.246      -22.062       28.297       24.898       22.176      800.721      619.909      491.777        0.794        0.096      116.131       17.319        0.022      330.213       -2.561      851.195
12/28/2021  08:49:00       49.954       -9.001      -17.400       31.369       45.487       27.546      984.029     2069.067      758.772        0.334        0.191       50.759        8.222        0.026      330.307       -2.403      851.204
12/28/2021  08:50:00       78.114      -10.749      -12.220       32.381       23.880       25.907     1048.544      570.248      671.158        0.433        0.114       78.850       18.645        0.056      330.211       -2.561      851.250
12/28/2021  08:51:00       38.697      -18.636      -11.416       24.485       22.235       16.513      599.504      494.399      272.678        0.167        0.068       42.950       13.132        0.093      330.233       -2.524      851.296
12/28/2021  08:52:00       42.975      -21.042       -9.691       22.387       24.423       20.815      501.198      596.500      433.276        0.196        0.077       47.850       10.360        0.047      330.311       -2.399      851.305
12/28/2021  08:53:00       86.585       -6.244       -8.492       60.222       36.066       25.955     3626.660     1300.756      673.650        0.660        0.280       86.810       30.645        0.125      330.256       -2.488      851.313
12/28/2021  08:54:00       27.404      -23.615      -15.912       39.051       44.522       35.539     1524.979     1982.170     1262.989        0.317        0.239       36.175       29.192        0.651      330.355       -2.325      851.328
12/28/2021  08:55:00       48.587       -3.668      -24.082       43.373       52.449       29.088     1881.252     2750.937      846.124        0.422        0.274       48.725        8.937        0.034      330.336       -2.356      851.339
12/28/2021  08:56:00      135.132        6.049      -12.901       44.735       48.791       28.880     2001.252     2380.525      834.070        1.184        0.261      135.267       18.113        0.018      330.244       -2.508      851.336
12/28/2021  08:57:00       65.844        8.351      -17.178       57.298       57.218       33.634     3283.118     3273.867     1131.270        0.619        0.384       66.372       10.598        0.025      330.374       -2.295      851.350
12/28/2021  08:58:00      111.012      -27.176      -13.405       65.478       45.230       35.172     4287.384     2045.735     1237.082        1.040        0.379      114.291       27.267        0.057      330.331       -2.365      851.381
12/28/2021  08:59:00      116.201      -56.103      -27.618       50.311       50.393       32.115     2531.206     2539.503     1031.398        1.176        0.305      129.036       11.843        0.008      330.386       -2.275      851.415
12/28/2021  09:00:00       15.085      -38.101       -8.863       45.159       55.649       33.133     2039.327     3096.795     1097.805        0.399        0.312       40.978       25.282        0.381      330.480       -2.120      851.458
12/28/2021  09:01:00      111.221      -70.486      -33.521       40.014       64.420       24.527     1601.091     4149.896      601.584        1.241        0.318      131.675       19.300        0.021      330.366       -2.306      851.494
12/28/2021  09:02:00       74.064      -23.920      -20.705       38.325       50.774       20.565     1468.814     2577.967      422.917        0.548        0.223       77.830       17.160        0.049      330.359       -2.319      851.517
12/28/2021  09:03:00       54.055        7.597      -19.472       44.630       45.138       31.589     1991.841     2037.472      997.892        0.419        0.251       54.586       21.149        0.150      330.448       -2.173      851.544
12/28/2021  09:04:00       87.194      -10.950      -11.012       58.661       44.392       26.876     3441.158     1970.653      722.307        0.699        0.307       87.879       24.371        0.077      330.374       -2.294      851.569
12/28/2021  09:05:00      109.068      -17.823      -17.284       66.955       53.130       32.359     4482.914     2822.765     1047.094        1.043        0.418      110.515       28.435        0.066      330.411       -2.233      851.586
12/28/2021  09:06:00       66.266      -25.290      -29.533       35.535       34.109       21.923     1262.710     1163.415      480.634        0.440        0.145       70.928       11.244        0.025      330.455       -2.160      851.606
12/28/2021  09:07:00       34.937      -47.034      -15.189       40.204       52.818       26.132     1616.366     2789.769      682.896        0.438        0.254       58.589       19.051        0.106      330.619       -1.892      851.616
12/28/2021  09:08:00       69.330     -141.791      -31.944       44.873       48.893       23.757     2013.588     2390.560      564.377        1.545        0.248      157.834       22.484        0.020      330.474       -2.130      851.623
12/28/2021  09:09:00       22.952      -81.847      -32.112       68.704       55.880       24.756     4720.227     3122.610      612.855        0.835        0.423       85.004       27.226        0.103      330.546       -2.012      851.627
12/28/2021  09:10:00      -76.747      -43.205        2.247       50.099       43.793       33.307     2509.867     1917.802     1109.366        0.665        0.277       88.073       30.329        0.119      330.659       -1.825      851.644
12/28/2021  09:11:00      -20.727      -71.879      -47.439       35.631       34.293       22.510     1269.565     1176.028      506.694        0.540        0.148       74.808       15.221        0.041      330.531       -2.037      851.667
12/28/2021  09:12:00       27.410       19.894      -18.169       17.322       32.148       24.112      300.059     1033.507      581.382        0.170        0.096       33.869       20.410        0.363      330.489       -2.105      851.667
12/28/2021  09:13:00       44.243       16.615      -10.753       21.092       24.033       13.277      444.887      577.580      176.270        0.177        0.060       47.260        6.548        0.019      330.433       -2.197      851.661
12/28/2021  09:14:00       28.476       16.629       -5.913       20.457       21.698       12.697      418.478      470.796      161.223        0.109        0.053       32.975       10.090        0.094      330.565       -1.980      851.664
12/28/2021  09:15:00      128.966       19.863      -17.943       23.651       23.742       19.868      559.371      563.685      394.755        0.943        0.076      130.487       11.559        0.008      330.356       -2.321      851.680
12/28/2021  09:16:00      102.047        8.567      -12.084       37.520       27.902       20.711     1407.725      778.538      428.935        0.662        0.131      102.406       20.627        0.041      330.465       -2.142      851.688
12/28/2021  09:17:00      122.644       39.877      -15.792       25.579       21.661       17.442      654.266      469.185      304.209        0.915        0.071      128.964       10.624        0.007      330.394       -2.260      851.696
12/28/2021  09:18:00       50.646       28.196      -12.710       39.441       47.280       25.250     1555.623     2235.354      637.574        0.397        0.221       57.965       21.672        0.140      330.591       -1.939      851.717
12/28/2021  09:19:00       18.138       -5.485       -8.569       20.512       33.957       26.159      420.751     1153.092      684.281        0.134        0.113       18.950       17.270        0.831      330.690       -1.774      851.737
12/28/2021  09:20:00       12.894       -0.298      -12.356       41.625       38.094       23.668     1732.634     1451.165      560.152        0.203        0.187       12.898       14.244        1.220      330.640       -1.857      851.741
12/28/2021  09:21:00      -10.824      -33.539      -10.717       17.918       27.969       19.273      321.071      782.290      371.453        0.142        0.074       35.242       11.300        0.103      330.711       -1.741      851.760
12/28/2021  09:22:00        2.834       -7.744       -8.193       15.321       18.947       12.954      234.741      358.990      167.816        0.045        0.038        8.247       11.107        1.814      330.679       -1.795      851.786
12/28/2021  09:23:00       24.083      -24.139       -4.465       19.614       19.286       11.689      384.713      371.938      136.625        0.104        0.045       34.098        6.323        0.034      330.646       -1.848      851.803
12/28/2021  09:24:00       17.242        2.838      -12.254       18.579       12.339        9.608      345.173      152.253       92.305        0.052        0.029       17.474        6.224        0.127      330.671       -1.805      851.815
12/28/2021  09:25:00       29.382       15.068      -11.555       12.758       14.410       12.644      162.774      207.652      159.862        0.088        0.027       33.021        8.765        0.070      330.617       -1.895      851.818
12/28/2021  09:26:00       18.931       16.412       -3.932       13.185       11.047        9.392      173.853      122.039       88.205        0.051        0.019       25.055        6.639        0.070      330.550       -2.005      851.836
12/28/2021  09:27:00        0.898       17.999       -4.000       17.143       13.026        7.711      293.886      169.688       59.466        0.043        0.026       18.021        4.028        0.050      330.548       -2.008      851.850
12/28/2021  09:28:00      -16.392       32.070      -10.350       19.725        9.566       11.284      389.067       91.509      127.332        0.101        0.030       36.016        4.496        0.016      330.633       -1.869      851.850
12/28/2021  09:29:00      -25.629       28.872      -10.309       13.992       12.501       10.766      195.767      156.286      115.913        0.103        0.023       38.606        7.436        0.037      330.555       -1.998      851.841
12/28/2021  09:30:00       -2.886      -19.569       -6.120       21.794       28.163       12.766      474.971      793.143      162.959        0.093        0.072       19.781       11.361        0.330      330.697       -1.764      851.841
12/28/2021  09:31:00       15.944      -22.846      -16.733       40.299       32.094       20.770     1623.987     1030.024      431.404        0.207        0.154       27.859       18.288        0.431      330.809       -1.581      851.847
12/28/2021  09:32:00      -41.994      -30.925       -2.100       49.201       43.167       28.192     2420.773     1863.380      794.773        0.390        0.254       52.152       30.947        0.352      330.790       -1.612      851.851
12/28/2021  09:33:00      -67.487      -39.179      -24.637       44.432       53.205       37.207     1974.170     2830.806     1384.393        0.644        0.309       78.035       24.263        0.097      330.734       -1.703      851.852
12/28/2021  09:34:00      -39.055      -30.056      -10.228       49.153       46.817       31.515     2416.013     2191.796      993.199        0.407        0.280       49.281       27.282        0.306      330.861       -1.495      851.865
12/28/2021  09:35:00      -19.688      -14.780       -1.859       36.531       30.586       23.047     1334.530      935.530      531.187        0.170        0.140       24.619       22.556        0.839      330.977       -1.306      851.861
12/28/2021  09:36:00      -54.200      -52.101      -28.163       41.551       32.301       32.832     1726.486     1043.363     1077.918        0.515        0.192       75.180       12.549        0.028      330.784       -1.622      851.853
12/28/2021  09:37:00      -38.660      -17.852      -26.681       37.000       30.001       19.235     1369.002      900.059      369.980        0.258        0.132       42.582       19.595        0.212      330.819       -1.564      851.840
12/28/2021  09:38:00      -47.046      -29.274      -17.369       21.528       24.653       24.224      463.453      607.774      586.825        0.251        0.083       55.410       15.537        0.079      330.907       -1.419      851.842
12/28/2021  09:39:00      -24.242       -2.682      -15.003       35.782       16.809       18.191     1280.326      282.528      330.917        0.136        0.095       24.390       16.800        0.474      330.795       -1.603      851.845
12/28/2021  09:40:00        8.565        8.799       -8.018       28.494       15.420       16.681      811.881      237.773      278.264        0.077        0.066       12.279        7.963        0.421      330.888       -1.450      851.866
12/28/2021  09:41:00      -30.864       -4.197       -8.492       30.092       23.375       14.356      905.534      546.410      206.083        0.135        0.083       31.148        8.854        0.081      330.815       -1.570      851.884
12/28/2021  09:42:00      -16.589       -4.503      -14.196       25.428       27.028       23.588      646.594      730.505      556.382        0.121        0.097       17.189        9.995        0.338      330.899       -1.433      851.898
12/28/2021  09:43:00       46.544      -61.177      -18.239       57.437       55.597       25.295     3299.046     3091.000      639.850        0.663        0.351       76.870       24.289        0.100      330.784       -1.621      851.901
12/28/2021  09:44:00       41.386      -49.496      -25.626       42.288       43.403       28.069     1788.277     1883.788      787.863        0.464        0.223       64.519       16.349        0.064      330.866       -1.486      851.905
12/28/2021  09:45:00       54.361      -99.390      -13.281       42.829       54.179       33.939     1834.332     2935.388     1151.875        0.946        0.296      113.285       28.565        0.064      330.826       -1.553      851.915
12/28/2021  09:46:00       81.575     -116.997      -28.198       46.573       62.452       27.552     2169.036     3900.243      759.138        1.398        0.341      142.628       27.629        0.038      330.664       -1.818      851.910
12/28/2021  09:47:00       43.491      -80.696      -19.310       54.083       78.113       35.925     2924.992     6101.673     1290.640        0.954        0.516       91.669       34.320        0.140      330.838       -1.533      851.908
12/28/2021  09:48:00       98.252     -137.748      -44.393       33.716       49.110       25.036     1136.763     2411.780      626.778        1.739        0.209      169.199        9.927        0.003      330.473       -2.132      851.916
12/28/2021  09:49:00       82.162     -177.405      -37.854       40.185       42.686       20.734     1614.873     1822.088      429.880        2.176        0.193      195.508       17.233        0.008      330.561       -1.988      851.931
12/28/2021  09:50:00       90.552     -174.131      -42.187       47.205       43.801       31.310     2228.309     1918.490      980.327        2.271        0.256      196.268       28.954        0.022      330.524       -2.050      851.950
12/28/2021  09:51:00      103.809     -209.208      -41.831       44.651       47.320       23.495     1993.689     2239.172      551.999        3.054        0.239      233.547       23.226        0.010      330.410       -2.240      851.989
12/28/2021  09:52:00       81.949     -114.168      -26.911       37.236       60.485       22.930     1386.505     3658.444      525.783        1.302        0.279      140.534       19.782        0.020      330.495       -2.096      852.016
12/28/2021  09:53:00      107.604     -180.573      -39.059       53.740       53.776       29.685     2888.020     2891.891      881.227        2.618        0.333      210.202       25.811        0.015      330.493       -2.100      852.030
12/28/2021  09:54:00       73.729     -101.979      -19.403       41.411       63.531       37.135     1714.872     4036.246     1379.000        1.167        0.357      125.840       33.432        0.071      330.581       -1.955      852.041
12/28/2021  09:55:00       78.693     -147.895      -24.723       30.069       49.859       33.471      904.150     2485.929     1120.330        1.659        0.226      167.528       24.170        0.021      330.656       -1.832      852.042
12/28/2021  09:56:00       91.293      -99.058      -47.372       58.283       77.744       35.297     3396.892     6044.128     1245.910        1.554        0.534      134.710       32.175        0.057      330.650       -1.843      852.028
12/28/2021  09:57:00      107.316     -111.932      -33.466       20.987       51.129       25.976      440.434     2614.170      674.757        1.445        0.186      155.066       24.384        0.025      330.408       -2.240      852.028
12/28/2021  09:58:00      115.069     -114.733      -33.456       58.782       60.290       40.155     3455.302     3634.891     1612.442        1.811        0.435      162.495       36.713        0.051      330.530       -2.039      852.036
12/28/2021  09:59:00      106.421      -71.727      -53.594       57.651       69.090       33.856     3323.659     4773.396     1146.204        1.429        0.462      128.336       24.877        0.038      330.495       -2.095      852.043
12/28/2021  10:00:00      111.757     -144.076      -40.780       35.802       60.160       26.147     1281.781     3619.166      683.673        2.025        0.279      182.339       19.667        0.012      330.361       -2.316      852.048
12/28/2021  10:01:00       47.456     -205.007      -26.540       23.881       28.545       24.795      570.281      814.820      614.799        2.349        0.100      210.428       12.441        0.003      330.500       -2.090      852.055
12/28/2021  10:02:00       67.090     -152.244      -28.606       40.818       28.148       26.428     1666.150      792.325      698.436        1.583        0.158      166.371       24.631        0.022      330.616       -1.899      852.076
12/28/2021  10:03:00        1.323      -20.054      -15.651       53.846       51.199       33.100     2899.407     2621.344     1095.594        0.363        0.331       20.098       14.502        0.521      330.715       -1.734      852.065
12/28/2021  10:04:00       54.992       -3.697        0.606       57.794       49.554       37.474     3340.198     2455.617     1404.293        0.512        0.360       55.116       20.198        0.134      330.691       -1.774      852.049
12/28/2021  10:05:00       52.634       -0.377       -9.695       43.422       53.521       31.321     1885.493     2864.487      981.019        0.430        0.287       52.635       20.467        0.151      330.583       -1.952      852.056
12/28/2021  10:06:00       39.987      -26.242      -15.533       48.518       30.716       25.297     2353.960      943.450      639.920        0.323        0.197       47.829       25.924        0.294      330.780       -1.627      852.070
12/28/2021  10:07:00       46.340      -85.926      -29.821       34.683       47.341       22.512     1202.937     2241.123      506.785        0.718        0.198       97.625       16.216        0.028      330.737       -1.698      852.087
12/28/2021  10:08:00       19.410      -33.102        2.097       51.005       66.615       31.502     2601.479     4437.575      992.349        0.475        0.402       38.373       24.573        0.410      330.796       -1.602      852.095
12/28/2021  10:09:00       37.332       -4.183      -18.546       67.469       60.449       31.813     4552.097     3654.142     1012.038        0.549        0.461       37.566       16.398        0.191      330.759       -1.663      852.077
12/28/2021  10:10:00       55.505     -102.143      -36.155       62.497       67.114       34.759     3905.813     4504.333     1208.199        1.222        0.481      116.250       30.497        0.069      330.731       -1.709      852.054
12/28/2021  10:11:00      111.424     -171.632      -38.881       57.622       78.277       42.148     3320.341     6127.347     1776.429        2.730        0.561      204.628       37.111        0.033      330.630       -1.876      852.022
12/28/2021  10:12:00       73.030      -74.775      -47.637       81.313       88.779       42.351     6611.765     7881.753     1793.579        1.474        0.814      104.521       38.418        0.135      330.765       -1.654      851.998
12/28/2021  10:13:00      137.670     -158.234      -48.662       65.326       55.325       37.088     4267.549     3060.868     1375.552        2.753        0.435      209.740       35.018        0.028      330.582       -1.956      851.981
12/28/2021  10:14:00      103.704      -71.619      -44.351       52.844      111.035       40.944     2792.480    12328.792     1676.446        1.732        0.840      126.031       45.869        0.132      330.807       -1.585      851.970
12/28/2021  10:15:00       77.142      -19.731      -21.532       72.519       61.888       49.331     5258.951     3830.141     2433.575        0.916        0.576       79.626       39.096        0.241      330.716       -1.734      851.972
12/28/2021  10:16:00       42.942      -21.091       -8.535      104.812       73.898       61.038    10985.515     5460.857     3725.678        1.126        1.009       47.842       49.270        1.061      330.745       -1.684      851.964
12/28/2021  10:17:00      152.471     -224.319      -62.411       66.307       91.710       39.284     4396.560     8410.749     1543.216        4.590        0.718      271.231       27.080        0.010      330.599       -1.930      851.968
12/28/2021  10:18:00      156.467     -203.046      -55.680       73.403       58.893       41.499     5388.003     3468.429     1722.139        3.969        0.529      256.339       39.848        0.024      330.616       -1.900      851.974
12/28/2021  10:19:00       87.944      -44.897      -36.624       80.500      110.693       61.704     6480.309    12252.871     3807.414        1.681        1.127       98.742       46.458        0.221      330.782       -1.627      851.989
12/28/2021  10:20:00       47.014      -45.353      -24.818      103.823       88.112       56.814    10779.210     7763.744     3227.857        1.332        1.089       65.323       52.530        0.647      330.818       -1.566      852.015
12/28/2021  10:21:00       25.337      -85.050      -23.956       43.381       68.653       34.933     1881.933     4713.257     1220.341        0.813        0.391       88.744       32.379        0.133      330.892       -1.443      852.041
12/28/2021  10:22:00       40.707      -85.248      -28.977       54.698       68.125       32.217     2991.877     4641.060     1037.958        0.922        0.434       94.468       24.648        0.068      330.871       -1.479      852.047
12/28/2021  10:23:00       83.969     -122.021      -25.037       70.254       86.141       42.035     4935.657     7420.250     1766.956        1.834        0.706      148.121       44.164        0.089      330.779       -1.631      852.045
12/28/2021  10:24:00       46.394      -34.230      -28.158       98.940       71.064       49.996     9789.062     5050.121     2499.632        1.072        0.867       57.655       36.380        0.398      330.833       -1.541      852.039
12/28/2021  10:25:00      139.383      -38.341      -21.083       92.746       82.653       45.681     8601.806     6831.459     2086.716        1.943        0.876      144.560       38.496        0.071      330.617       -1.897      852.061
12/28/2021  10:26:00      133.623      -30.346      -28.896       86.952      100.610       62.645     7560.643    10122.439     3924.375        2.061        1.080      137.026       50.557        0.136      330.606       -1.915      852.053
12/28/2021  10:27:00       73.998     -125.863      -36.364       74.432       70.807       57.077     5540.076     5013.561     3257.775        1.822        0.691      146.004       21.328        0.021      330.694       -1.770      852.061
12/28/2021  10:28:00       73.486      -41.848      -14.610       59.511       56.863       40.242     3541.511     3233.356     1619.380        0.788        0.420       84.566       33.219        0.154      330.783       -1.624      852.070
12/28/2021  10:29:00      111.378      -19.847      -20.793       78.770       58.824       34.882     6204.699     3460.316     1216.787        1.205        0.544      113.132       28.253        0.062      330.658       -1.829      852.070
12/28/2021  10:30:00       77.215     -114.911      -30.810       54.108       85.974       28.327     2927.659     7391.502      802.400        1.562        0.556      138.444       22.602        0.027      330.744       -1.686      852.086
12/28/2021  10:31:00       51.638     -175.576      -24.141       70.933       68.710       39.035     5031.441     4721.032     1523.698        2.267        0.564      183.012       36.349        0.039      330.712       -1.741      852.101
12/28/2021  10:32:00       89.102     -111.261      -41.420       62.648       88.657       39.069     3924.754     7860.045     1526.420        1.767        0.666      142.541       30.890        0.047      330.806       -1.587      852.098
12/28/2021  10:33:00       30.185      -88.929       -7.562       55.308       60.569       39.452     3058.944     3668.622     1556.429        0.858        0.414       93.912       37.043        0.156      330.861       -1.494      852.099
12/28/2021  10:34:00       94.953     -111.329      -28.977       45.993       57.313       28.173     2115.389     3284.738      793.737        1.422        0.310      146.322       22.858        0.024      330.768       -1.649      852.079
12/28/2021  10:35:00       78.727      -68.570      -31.637       42.625       57.837       27.706     1816.858     3345.106      767.601        0.891        0.296      104.402       21.361        0.042      330.909       -1.417      852.069
12/28/2021  10:36:00       84.597      -33.859      -15.338       71.747       58.057       43.686     5147.580     3370.659     1908.486        0.948        0.521       91.121       37.316        0.168      330.886       -1.454      852.057
12/28/2021  10:37:00       82.364      -31.679      -13.138       77.596       52.096       39.534     6021.194     2714.009     1562.950        0.913        0.515       88.246       29.434        0.111      330.919       -1.400      852.044
12/28/2021  10:38:00      121.880      -32.969      -14.328       81.449       62.530       37.766     6633.904     3910.007     1426.238        1.406        0.599      126.261       37.384        0.088      330.727       -1.717      852.042
12/28/2021  10:39:00      176.907      -16.611      -24.126       70.421       64.267       47.549     4959.154     4130.264     2260.866        2.175        0.568      177.685       39.469        0.049      330.617       -1.897      852.047
12/28/2021  10:40:00       72.228       -6.831      -25.820       74.922       73.091       41.266     5613.292     5342.355     1702.919        0.929        0.633       72.551       19.226        0.070      330.787       -1.616      852.043
12/28/2021  10:41:00       76.777      -19.755      -17.593       60.809       54.006       28.569     3697.695     2916.646      816.198        0.701        0.372       79.277       23.500        0.088      330.831       -1.545      852.032
12/28/2021  10:42:00       39.754     -166.463      -22.501       71.142      104.176       50.054     5061.220    10852.638     2505.450        2.410        0.921      171.144       54.961        0.103      330.761       -1.663      852.014
12/28/2021  10:43:00       92.008     -147.374      -38.494       75.698      119.515       43.116     5730.174    14283.819     1858.965        2.677        1.094      173.737       38.111        0.048      330.697       -1.766      851.984
12/28/2021  10:44:00      130.912     -109.258      -35.754       58.561      101.977       39.779     3429.427    10399.389     1582.373        2.288        0.771      170.515       18.418        0.012      330.709       -1.746      851.960
12/28/2021  10:45:00       64.457      -22.768      -17.637       55.027       88.262       42.315     3028.016     7790.175     1790.538        0.879        0.630       68.359       30.446        0.198      330.805       -1.587      851.930
12/28/2021  10:46:00      106.429      -17.639      -27.971       66.890       56.726       34.120     4474.211     3217.886     1164.176        1.064        0.443      107.881       19.764        0.034      330.752       -1.675      851.914
12/28/2021  10:47:00       68.102      -16.022       -5.442       71.639       54.726       43.801     5132.218     2994.960     1918.564        0.748        0.502       69.961       36.459        0.272      330.871       -1.479      851.906
12/28/2021  10:48:00       58.289       27.685      -16.981       68.988       46.269       36.408     4759.285     2140.852     1325.537        0.634        0.411       64.530       30.504        0.223      330.813       -1.574      851.904
12/28/2021  10:49:00       56.039       -7.531      -17.161       52.573       47.623       27.586     2763.881     2267.927      761.013        0.464        0.290       56.543       19.283        0.116      330.925       -1.391      851.920
12/28/2021  10:50:00       81.580      -28.701       -2.116       66.572       42.886       36.940     4431.801     1839.169     1364.559        0.756        0.382       86.481       35.450        0.168      330.975       -1.307      851.916
12/28/2021  10:51:00       29.308      -22.411       -4.007       46.593       43.279       34.589     2170.952     1873.064     1196.411        0.331        0.262       36.894       23.724        0.413      331.245       -0.863      851.904
12/28/2021  10:52:00       53.673       -6.086      -29.227       48.270       55.893       38.033     2330.027     3124.082     1446.529        0.534        0.345       54.017       26.233        0.236      331.124       -1.063      851.880
12/28/2021  10:53:00       43.419       -9.099       -9.625       46.765       48.873       32.216     2186.925     2388.563     1037.864        0.384        0.281       44.362       30.533        0.474      331.118       -1.073      851.858
12/28/2021  10:54:00       77.151       16.457       -3.782       59.417       54.243       33.687     3530.371     2942.270     1134.844        0.692        0.380       78.886       26.058        0.109      331.023       -1.230      851.849
12/28/2021  10:55:00       65.625      -30.261      -43.558       46.577       65.852       41.340     2169.402     4336.422     1708.960        0.767        0.411       72.266       18.179        0.063      331.057       -1.173      851.861
12/28/2021  10:56:00       59.867      -18.180      -34.031       48.089       68.737       31.659     2312.523     4724.797     1002.321        0.655        0.402       62.566       15.641        0.062      330.999       -1.269      851.879
12/28/2021  10:57:00       54.633      -17.309      -13.488       61.466       65.997       39.496     3778.099     4355.553     1559.927        0.658        0.485       57.310       30.142        0.277      331.128       -1.055      851.890
12/28/2021  10:58:00       95.871      -69.988      -28.169       84.968       71.213       44.961     7219.559     5071.290     2021.500        1.460        0.716      118.700       42.255        0.127      330.961       -1.332      851.907
12/28/2021  10:59:00       73.971     -116.157      -34.265       42.669       67.931       35.450     1820.641     4614.575     1256.729        1.391        0.385      137.711       32.528        0.056      330.761       -1.660      851.924
12/28/2021  11:00:00       46.834      -83.183      -24.636       38.163       34.306       31.171     1456.404     1176.885      971.630        0.666        0.180       95.461       19.071        0.040      331.097       -1.107      851.926
12/28/2021  11:01:00       47.662     -149.087      -26.875       51.491       52.930       34.329     2651.289     2801.601     1178.481        1.592        0.332      156.520       32.235        0.042      331.045       -1.194      851.923
12/28/2021  11:02:00       79.810     -142.696      -27.722       38.436       47.680       30.640     1477.309     2273.425      938.815        1.609        0.234      163.498       28.593        0.031      330.722       -1.723      851.919
12/28/2021  11:03:00       70.681     -121.683      -30.847       38.887       41.092       23.644     1512.209     1688.552      559.037        1.226        0.188      140.722       11.835        0.007      330.733       -1.705      851.915
12/28/2021  11:04:00       77.409      -52.527      -28.896       55.672       72.043       35.771     3099.340     5190.238     1279.595        0.958        0.478       93.548       25.179        0.072      330.998       -1.270      851.895
12/28/2021  11:05:00      122.775      -45.663      -37.076       58.743       72.935       38.806     3450.695     5319.519     1505.885        1.440        0.514      130.992       26.610        0.041      330.881       -1.463      851.881
12/28/2021  11:06:00      106.940      -11.509      -26.142       60.129       60.490       32.280     3615.467     3659.086     1041.993        1.028        0.416      107.557       20.814        0.037      330.916       -1.405      851.871
12/28/2021  11:07:00       55.493      -11.484       -6.562       63.772       50.792       43.171     4066.921     2579.876     1863.699        0.588        0.426       56.669       36.782        0.421      330.935       -1.373      851.855
12/28/2021  11:08:00       53.764      -18.019        1.969       62.311       52.559       45.255     3882.625     2762.406     2047.972        0.595        0.435       56.703       36.786        0.421      331.077       -1.140      851.837
12/28/2021  11:09:00       81.795      -32.261      -17.098       67.795       61.687       42.435     4596.131     3805.240     1800.748        0.911        0.510       87.928       38.850        0.195      331.019       -1.233      851.818
12/28/2021  11:10:00      -15.385        5.843      -11.491       25.845       22.302       22.154      667.984      497.395      490.819        0.103        0.083       16.457       11.208        0.464      331.372       -0.655      851.811
12/28/2021  11:11:00      -23.103       33.481      -10.919       26.452       30.829       37.226      699.717      950.404     1385.773        0.240        0.152       40.678       26.830        0.435      331.161       -1.003      851.793
12/28/2021  11:12:00      -62.593       20.550       -1.368       35.064       30.876       20.467     1229.513      953.321      418.910        0.347        0.130       65.880        4.962        0.006      330.994       -1.276      851.787
12/28/2021  11:13:00       39.500       59.932       -8.426       52.987       36.761       23.296     2807.591     1351.373      542.682        0.496        0.235       71.778       13.998        0.038      330.997       -1.272      851.780
12/28/2021  11:14:00       76.378       14.144      -14.829       42.892       46.358       23.041     1839.742     2149.047      530.867        0.539        0.226       77.677       19.533        0.063      331.065       -1.161      851.762
12/28/2021  11:15:00       99.286       50.675      -16.158       32.684       28.199       22.909     1068.212      795.171      524.818        0.754        0.119      111.470       12.719        0.013      330.816       -1.568      851.744
12/28/2021  11:16:00       82.998       24.278      -14.960       14.496       15.172       10.083      210.128      230.180      101.665        0.412        0.027       86.476        4.372        0.003      330.695       -1.768      851.743
12/28/2021  11:17:00       79.671       69.299      -22.934       22.482       22.169       21.718      505.462      491.476      471.653        0.657        0.073      105.593        6.157        0.003      330.723       -1.721      851.742
12/28/2021  11:18:00       97.643       76.553      -28.207       25.759       21.931       15.299      663.510      480.987      234.052        0.878        0.069      124.074       10.677        0.007      330.759       -1.663      851.715
12/28/2021  11:19:00      124.377       90.110      -31.703       24.912       23.486       22.750      620.583      551.603      517.566        1.314        0.084      153.589       16.394        0.011      330.775       -1.637      851.686
12/28/2021  11:20:00       88.800       62.124      -21.652       47.100       42.880       24.789     2218.417     1838.715      614.518        0.844        0.234      108.374       17.990        0.028      330.897       -1.437      851.673
12/28/2021  11:21:00       54.905       51.928      -13.694       43.994       19.303       19.884     1935.478      372.618      395.391        0.430        0.135       75.571       11.175        0.022      331.008       -1.255      851.664
12/28/2021  11:22:00       75.563       56.074      -17.191       34.659       28.669       19.947     1201.247      821.937      397.877        0.578        0.121       94.096       12.849        0.019      331.013       -1.246      851.679
12/28/2021  11:23:00      121.098       17.920      -24.371       37.723       33.414       18.496     1423.052     1116.498      342.107        0.923        0.144      122.417       11.286        0.008      331.067       -1.158      851.672
12/28/2021  11:24:00      131.720        9.350       -9.278       65.728       51.580       34.117     4320.160     2660.445     1163.952        1.283        0.407      132.052       24.498        0.034      331.094       -1.113      851.655
12/28/2021  11:25:00      177.624       45.194      -27.022       26.519       42.574       23.066      703.251     1812.536      532.037        1.868        0.152      183.284        6.382        0.001      330.978       -1.302      851.637
12/28/2021  11:26:00      176.938       22.522      -21.051       61.028       57.139       26.354     3724.467     3264.884      694.518        1.997        0.384      178.366       20.260        0.013      331.108       -1.091      851.632
12/28/2021  11:27:00      190.270       26.985      -14.721       52.827       44.591       31.800     2790.652     1988.352     1011.231        2.147        0.290      192.174       25.248        0.017      331.108       -1.091      851.627
12/28/2021  11:28:00       48.304      -11.310      -14.750       58.725       62.179       44.366     3448.674     3866.216     1968.345        0.598        0.464       49.610       37.318        0.566      331.449       -0.528      851.622
12/28/2021  11:29:00      123.841        0.545      -29.582       72.777       76.293       55.392     5296.525     5820.620     3068.231        1.520        0.709      123.842       44.093        0.127      331.359       -0.677      851.624
12/28/2021  11:30:00       82.389      -23.994      -43.464       57.544       73.223       46.277     3311.350     5361.616     2141.520        1.003        0.541       85.812       35.837        0.174      331.259       -0.841      851.614
12/28/2021  11:31:00       97.448      -96.155      -39.647       32.114       30.248       23.612     1031.291      914.931      557.506        1.141        0.125      136.901       15.890        0.013      330.981       -1.299      851.601
12/28/2021  11:32:00       48.275     -110.592      -23.584       23.285       29.891       14.418      542.209      893.476      207.885        0.838        0.082      120.669       12.459        0.011      330.907       -1.420      851.587
12/28/2021  11:33:00       23.996      -24.789      -18.786       22.917       34.044       21.576      525.196     1158.996      465.512        0.185        0.107       34.501       15.425        0.200      331.240       -0.873      851.576
12/28/2021  11:34:00       46.774      -12.557      -20.692       42.889       35.937       31.627     1839.470     1291.450     1000.299        0.345        0.207       48.430       21.645        0.200      331.531       -0.394      851.566
12/28/2021  11:35:00      159.836       18.031      -17.203       66.540       38.661       33.284     4427.575     1494.680     1107.854        1.660        0.352      160.850       24.932        0.024      331.263       -0.837      851.561
12/28/2021  11:36:00      123.293       15.314      -11.138       67.886       43.353       26.075     4608.559     1879.505      679.922        1.136        0.358      124.240       27.034        0.047      331.342       -0.705      851.554
12/28/2021  11:37:00       38.019      -18.920      -27.962       59.230       61.403       50.789     3508.151     3770.368     2579.529        0.622        0.493       42.467       35.271        0.690      331.713       -0.095      851.531
12/28/2021  11:38:00      118.317      -13.242      -29.776      105.581       85.900       61.369    11147.248     7378.831     3766.209        1.867        1.115      119.055       43.489        0.133      331.453       -0.524      851.514
12/28/2021  11:39:00       69.859      -31.784        0.841       99.672       70.966       61.737     9934.594     5036.157     3811.427        1.233        0.939       76.750       53.462        0.485      331.525       -0.405      851.518
12/28/2021  11:40:00      165.336      -63.253      -27.395      100.402       61.276       44.611    10080.628     3754.741     1990.142        2.395        0.791      177.022       43.058        0.059      331.360       -0.678      851.529
12/28/2021  11:41:00       51.621      -12.258      -20.991       49.491       53.499       32.330     2449.311     2862.127     1045.251        0.480        0.318       53.057       24.801        0.219      331.874        0.172      851.537
12/28/2021  11:42:00       87.582      -36.737      -17.990       71.666       79.408       42.836     5135.977     6305.693     1834.894        1.131        0.664       94.975       35.559        0.140      331.698       -0.119      851.537
12/28/2021  11:43:00      199.027      -51.017      -31.600       67.139       85.432       31.274     4507.691     7298.706      978.085        2.800        0.639      205.461       29.040        0.020      331.174       -0.984      851.528
12/28/2021  11:44:00      142.078      -88.200      -33.610       58.918       60.131       38.948     3471.379     3615.723     1516.958        1.885        0.430      167.229       35.827        0.046      331.231       -0.889      851.522
12/28/2021  11:45:00      102.508      -87.246      -24.400       60.665       52.823       34.611     3680.243     2790.300     1197.954        1.319        0.383      134.610       41.177        0.094      331.205       -0.930      851.499
12/28/2021  11:46:00      110.297      -17.472      -18.087       65.564       59.695       36.152     4298.621     3563.548     1306.954        1.098        0.458      111.672       28.333        0.064      331.410       -0.592      851.492
12/28/2021  11:47:00       95.636      -37.959      -16.927       83.252       63.998       53.132     6930.838     4095.755     2823.021        1.236        0.692      102.893       45.730        0.198      331.562       -0.342      851.478
12/28/2021  11:48:00      170.684      -62.612      -18.711       77.347       49.857       38.699     5982.619     2485.763     1497.606        2.168        0.498      181.806       38.100        0.044      331.193       -0.952      851.463
12/28/2021  11:49:00      109.807      -28.278      -22.481       65.708       60.664       45.970     4317.490     3680.124     2113.258        1.173        0.506      113.390       30.974        0.075      331.515       -0.422      851.456
12/28/2021  11:50:00       93.965      -24.311      -21.184       69.959       85.193       44.076     4894.228     7257.780     1942.668        1.198        0.705       97.059       34.376        0.125      331.509       -0.431      851.462
12/28/2021  11:51:00      213.416        6.828      -23.484       68.634       70.464       41.673     4710.626     4965.123     1736.663        2.878        0.571      213.525       33.033        0.024      331.256       -0.850      851.470
12/28/2021  11:52:00      125.060       20.383      -12.186       65.169       53.374       29.434     4247.011     2848.825      866.384        1.208        0.398      126.710       20.476        0.026      331.294       -0.782      851.481
12/28/2021  11:53:00      105.570      -48.526      -25.467       82.078       52.966       32.967     6736.870     2805.408     1086.837        1.239        0.531      116.189       14.498        0.016      331.434       -0.554      851.472
12/28/2021  11:54:00      116.712      -13.608      -17.274       70.068       68.037       33.598     4909.504     4629.047     1128.849        1.238        0.533      117.503       30.015        0.065      331.392       -0.622      851.473
12/28/2021  11:55:00      187.377       79.096      -19.057       52.560       50.402       39.580     2762.606     2540.371     1566.601        2.430        0.343      203.387       29.494        0.021      331.182       -0.970      851.467
12/28/2021  11:56:00       91.791      118.669      -14.625       75.303       36.397       27.758     5670.470     1324.755      770.484        1.524        0.388      150.026       29.817        0.040      331.182       -0.968      851.459
12/28/2021  11:57:00       69.232      129.045       -8.627       55.380       63.780       32.905     3066.981     4067.927     1082.765        1.487        0.411      146.443       32.389        0.049      331.373       -0.653      851.427
12/28/2021  11:58:00      113.291        9.288      -20.373       69.413       69.865       40.460     4818.116     4881.116     1637.035        1.233        0.567      113.671       35.624        0.098      331.490       -0.462      851.408
12/28/2021  11:59:00       94.061       -3.986      -20.487       69.277       76.861       54.040     4799.333     5907.689     2920.341        1.145        0.681       94.145       27.105        0.083      331.918        0.244      851.382
12/28/2021  12:00:00      112.993      -17.088      -12.226       66.351       62.301       43.213     4402.443     3881.456     1867.358        1.168        0.508      114.278       42.509        0.138      331.481       -0.476      851.386
12/28/2021  12:01:00      102.301       27.365       -9.552      125.432       70.863       39.139    15733.299     5021.635     1531.884        1.679        1.114      105.898       49.226        0.216      331.657       -0.187      851.376
12/28/2021  12:02:00      183.483       12.488      -26.258       82.617       68.673       45.231     6825.651     4715.963     2045.808        2.405        0.679      183.908       46.424        0.064      331.325       -0.734      851.371
12/28/2021  12:03:00      202.153       40.199      -19.036       83.737       55.102       35.783     7011.856     3036.231     1280.393        2.708        0.566      206.111       30.645        0.022      331.372       -0.659      851.371
12/28/2021  12:04:00      125.097        4.872      -22.244       85.067       89.642       45.266     7236.423     8035.719     2049.021        1.674        0.866      125.192       29.243        0.055      331.757       -0.022      851.360
12/28/2021  12:05:00       13.960       -3.172      -12.341       52.564       49.873       44.141     2762.989     2487.332     1948.470        0.378        0.360       14.316       32.000        4.997      331.998        0.375      851.362
12/28/2021  12:06:00       74.914       -9.113       -3.466       86.056       66.875       55.176     7405.604     4472.294     3044.399        1.031        0.746       75.466       42.025        0.310      331.727       -0.072      851.350
12/28/2021  12:07:00      146.869        6.784      -27.848       49.496       44.516       21.041     2449.870     1981.663      442.741        1.363        0.244      147.025       13.489        0.008      331.271       -0.822      851.363
12/28/2021  12:08:00       55.826      -20.228      -10.536       54.149       51.170       25.831     2932.121     2618.369      667.227        0.493        0.311       59.378       18.839        0.101      331.880        0.181      851.344
12/28/2021  12:09:00       63.463      -54.267      -22.941       92.662       82.309       41.176     8586.242     6774.711     1695.433        1.227        0.853       83.501       36.803        0.194      331.944        0.286      851.323
12/28/2021  12:10:00      100.384      -55.794      -33.478       70.572       89.240       38.808     4980.410     7963.740     1506.059        1.438        0.723      114.848       27.029        0.055      331.742       -0.047      851.311
12/28/2021  12:11:00      116.251     -169.473      -41.830       72.162       57.529       40.638     5207.330     3309.540     1651.483        2.707        0.508      205.512       42.016        0.042      331.550       -0.366      851.295
12/28/2021  12:12:00       97.501     -168.888      -31.094       61.346       79.899       42.344     3763.357     6383.851     1792.991        2.547        0.597      195.012       34.450        0.031      331.704       -0.112      851.281
12/28/2021  12:13:00       84.053       -8.196      -27.918       70.361       72.715       42.275     4950.714     5287.475     1787.160        0.997        0.601       84.452       33.787        0.160      331.771        0.002      851.263
12/28/2021  12:14:00      105.822      -13.747        3.334       91.172       60.898       59.246     8312.400     3708.546     3510.103        1.346        0.777      106.711       53.647        0.253      331.676       -0.156      851.235
12/28/2021  12:15:00      103.598       10.304      -24.912       81.278       81.120       61.713     6606.161     6580.502     3808.524        1.422        0.850      104.109       46.499        0.199      331.434       -0.555      851.201
12/28/2021  12:16:00       89.342      -28.038      -14.081       83.212       58.992       49.848     6924.306     3480.023     2484.827        1.093        0.644       93.639       47.057        0.253      331.426       -0.567      851.170
12/28/2021  12:17:00      108.375      -25.743      -12.205       87.353       71.287       53.659     7630.614     5081.799     2879.285        1.407        0.780      111.391       46.762        0.176      331.576       -0.320      851.123
12/28/2021  12:18:00       69.688      -37.923       -7.779       70.461       79.566       43.930     4964.707     6330.776     1929.866        0.979        0.661       79.338       33.954        0.183      331.592       -0.293      851.073
12/28/2021  12:19:00       79.211      -15.151      -23.368       90.841       86.018       69.845     8252.061     7399.169     4878.309        1.379        1.026       80.646       55.750        0.478      331.563       -0.341      851.034
12/28/2021  12:20:00       77.207      -46.751      -20.454       82.875       77.648       51.597     6868.282     6029.142     2662.241        1.206        0.778       90.258       51.571        0.326      331.687       -0.138      851.038
12/28/2021  12:21:00       82.869        5.266      -13.949       73.579       50.456       32.672     5413.800     2545.791     1067.431        0.806        0.451       83.036       14.750        0.032      331.549       -0.363      851.069
12/28/2021  12:22:00      103.811      -65.922      -30.209       49.297       53.780       35.131     2430.233     2892.273     1234.207        1.129        0.328      122.973       23.635        0.037      331.778        0.012      851.067
12/28/2021  12:23:00       87.861      -17.056      -24.109       54.132       53.916       35.710     2930.242     2906.902     1275.227        0.785        0.356       89.501       25.104        0.079      331.746       -0.038      851.074
12/28/2021  12:24:00       57.385      -77.769      -25.087       54.345       54.943       36.590     2953.373     3018.741     1338.826        0.864        0.366       96.649       31.675        0.107      331.868        0.160      851.081
12/28/2021  12:25:00       54.244      -39.299      -20.038       40.260       66.625       29.476     1620.859     4438.932      868.830        0.591        0.346       66.984       27.437        0.168      331.898        0.211      851.075
12/28/2021  12:26:00       87.201       -9.667      -19.295       62.592       47.253       30.792     3917.710     2232.876      948.135        0.758        0.355       87.735       27.228        0.096      331.778        0.013      851.052
12/28/2021  12:27:00       98.789       17.649      -27.144       52.654       63.681       28.916     2772.422     4055.225      836.108        0.923        0.383      100.354       21.568        0.046      331.766       -0.006      851.039
12/28/2021  12:28:00      109.227       10.218      -21.253       62.408       56.257       37.942     3894.796     3164.880     1439.617        1.049        0.425      109.704       23.976        0.048      331.797        0.044      851.012
12/28/2021  12:29:00      101.310       -0.635      -29.214       79.828       69.341       58.972     6372.484     4808.222     3477.721        1.289        0.733      101.312       41.140        0.165      331.840        0.114      850.967
12/28/2021  12:30:00      130.479      -64.822      -20.993       59.394       63.723       41.996     3527.598     4060.644     1763.669        1.551        0.468      145.694       35.322        0.059      331.628       -0.235      850.931
12/28/2021  12:31:00      137.324      -68.549      -32.559       52.363       54.203       33.838     2741.900     2937.931     1145.019        1.572        0.341      153.483       26.869        0.031      331.765       -0.009      850.880
12/28/2021  12:32:00       33.586      -73.336      -25.537       46.298       82.204       32.470     2143.510     6757.527     1054.274        0.855        0.498       80.661       26.143        0.105      332.048        0.458      850.837
12/28/2021  12:33:00       90.699     -139.184      -45.942       66.426       93.869       34.330     4412.461     8811.337     1178.570        2.205        0.720      166.128       28.800        0.030      331.973        0.332      850.803
12/28/2021  12:34:00      122.891      -84.070      -41.649       70.992       67.375       39.362     5039.933     4539.408     1549.404        1.751        0.556      148.896       21.872        0.022      331.825        0.088      850.790
12/28/2021  12:35:00      104.931      -43.047      -28.059       61.696       61.667       35.573     3806.410     3802.822     1265.427        1.126        0.444      113.418       21.503        0.036      331.886        0.189      850.796
12/28/2021  12:36:00       68.255      -13.845      -19.672       74.955       64.653       48.419     5618.292     4180.049     2344.382        0.869        0.607       69.644       35.941        0.266      331.836        0.108      850.828
12/28/2021  12:37:00       57.828      -11.658      -30.005       69.447       83.989       55.588     4822.919     7054.070     3090.060        0.967        0.748       58.992       39.139        0.440      331.819        0.081      850.865
12/28/2021  12:38:00      138.087      -10.712      -10.761       58.470       47.223       31.074     3418.742     2229.979      965.608        1.296        0.331      138.502       15.064        0.012      331.610       -0.266      850.884
12/28/2021  12:39:00       64.631      -63.571      -41.211       35.390       46.225       24.874     1252.427     2136.743      618.718        0.696        0.200       90.656        7.973        0.008      331.781        0.019      850.849
12/28/2021  12:40:00       62.491       -9.998      -18.788       38.653       50.781       28.530     1494.017     2578.707      813.956        0.462        0.244       63.286       14.757        0.054      332.065        0.485      850.800
12/28/2021  12:41:00       44.463      -41.237      -30.237       34.445       54.833       30.416     1186.484     3006.657      925.143        0.485        0.256       60.643       19.852        0.107      331.965        0.321      850.751
12/28/2021  12:42:00       47.791       -8.269      -16.245       65.490       72.268       38.547     4288.963     5222.713     1485.896        0.680        0.550       48.501       38.770        0.639      332.031        0.430      850.732
12/28/2021  12:43:00      100.119        3.952      -15.988       61.988       61.722       38.279     3842.475     3809.612     1465.262        0.970        0.456      100.197       27.260        0.074      331.884        0.187      850.685
12/28/2021  12:44:00      109.043        3.211      -15.057       71.100       56.589       34.332     5055.181     3202.359     1178.658        1.078        0.472      109.090       31.220        0.082      331.898        0.211      850.635
12/28/2021  12:45:00      120.816       24.348      -17.987       52.930       44.779       30.769     2801.543     2005.120      946.742        1.063        0.288      123.245       16.369        0.018      331.771        0.002      850.653
12/28/2021  12:46:00       99.008       30.306      -11.234       49.508       49.402       27.945     2451.061     2440.533      780.924        0.826        0.284      103.542       25.438        0.060      331.833        0.102      850.711
12/28/2021  12:47:00       62.498        1.205       -6.958       84.182       55.923       36.141     7086.579     3127.385     1306.152        0.774        0.576       62.510       35.085        0.315      331.885        0.188      850.751
12/28/2021  12:48:00      181.490       37.834      -21.177       58.859       47.875       29.990     3464.365     2291.968      899.398        2.074        0.333      185.392       24.514        0.017      331.744       -0.045      850.755
12/28/2021  12:49:00       41.178       20.880      -18.444       50.406       56.782       48.410     2540.784     3224.222     2343.498        0.529        0.405       46.169       26.486        0.329      332.006        0.389      850.728
12/28/2021  12:50:00       47.071       -6.216      -13.084       75.945       65.569       30.954     5767.575     4299.345      958.128        0.672        0.551       47.479       12.282        0.067      332.114        0.565      850.696
12/28/2021  12:51:00      113.424        4.633      -15.426       75.717       56.046       34.301     5733.016     3141.197     1176.567        1.159        0.503      113.519       26.900        0.056      331.942        0.284      850.671
12/28/2021  12:52:00       29.687       32.497       -7.859       31.873       54.224       24.908     1015.879     2940.277      620.389        0.329        0.229       44.016       13.957        0.101      332.048        0.458      850.679
12/28/2021  12:53:00       19.211      -23.497       -7.284       38.285       33.801       31.537     1465.767     1142.496      994.611        0.229        0.180       30.351       19.222        0.401      332.385        1.012      850.688
12/28/2021  12:54:00       58.273      -57.803      -27.748       41.974       45.730       33.411     1761.858     2091.228     1116.304        0.624        0.248       82.079       19.996        0.059      332.031        0.430      850.693
12/28/2021  12:55:00       35.623       -7.030       -9.108       52.901       41.735       22.214     2798.541     1741.803      493.451        0.322        0.252       36.310       16.805        0.214      332.216        0.734      850.702
12/28/2021  12:56:00      103.459      -22.584       -2.594       84.464       55.034       31.409     7134.184     3028.765      986.543        1.118        0.557      105.896       29.697        0.079      332.121        0.577      850.719
12/28/2021  12:57:00      136.751      -20.533      -26.884      118.959       78.199       38.983    14151.262     6115.065     1519.697        2.081        1.089      138.284       33.050        0.057      331.901        0.214      850.716
12/28/2021  12:58:00      138.473        3.805      -31.124       90.109       93.429       54.099     8119.560     8729.034     2926.707        1.996        0.989      138.525       35.865        0.067      331.859        0.144      850.692
12/28/2021  12:59:00      162.053      -54.111      -22.611      118.886       80.955       68.190    14133.947     6553.685     4649.825        2.751        1.267      170.849       58.148        0.116      331.652       -0.198      850.656
12/28/2021  13:00:00      162.796     -103.886      -23.858      104.587       98.344       58.566    10938.476     9671.473     3429.994        3.095        1.202      193.119       55.316        0.082      331.674       -0.161      850.643
12/28/2021  13:01:00      132.776      -27.909      -18.497      102.802      106.498       61.761    10568.273    11341.778     3814.458        2.223        1.286      135.677       59.710        0.194      331.788        0.029      850.647
12/28/2021  13:02:00      178.721      -61.225      -19.663      141.323       89.165       76.937    19972.066     7950.403     5919.281        3.495        1.692      188.917       81.213        0.185      331.603       -0.276      850.655
12/28/2021  13:03:00       46.564      -11.390      -10.974       90.172       65.394       55.624     8131.049     4276.409     3094.018        0.896        0.775       47.937       51.078        1.135      331.708       -0.103      850.680
12/28/2021  13:04:00       64.868      -11.535        1.553       88.017       66.434       54.056     7747.025     4413.450     2922.083        0.971        0.754       65.886       46.859        0.506      331.910        0.230      850.672
12/28/2021  13:05:00       86.629       -8.491       -0.621       77.394       69.331       50.664     5989.785     4806.825     2566.887        1.047        0.668       87.044       29.003        0.111      331.793        0.037      850.664
12/28/2021  13:06:00      122.762        4.938       -7.464       86.358       74.660       48.624     7457.775     5574.110     2364.302        1.527        0.770      122.862       39.792        0.105      331.659       -0.183      850.652
12/28/2021  13:07:00      179.355      -74.302      -25.614       91.323       80.079       47.392     8339.946     6412.653     2246.010        2.767        0.850      194.136       41.280        0.045      331.633       -0.228      850.653
12/28/2021  13:08:00      124.438      -49.199      -17.741       69.442       68.103       44.751     4822.223     4637.977     2002.688        1.484        0.573      133.811       31.212        0.054      331.758       -0.021      850.661
12/28/2021  13:09:00      107.742      -40.690      -23.934      104.455       75.237       48.988    10910.871     5660.552     2399.832        1.640        0.949      115.169       33.312        0.084      331.882        0.183      850.648
12/28/2021  13:10:00      129.890       25.565      -15.880       94.268       63.282       45.050     8886.393     4004.614     2029.526        1.635        0.746      132.381       28.736        0.047      331.785        0.023      850.635
12/28/2021  13:11:00      154.313      -47.710      -29.457       97.429       74.209       44.610     9492.442     5507.024     1990.052        2.197        0.849      161.520       34.953        0.047      331.690       -0.134      850.614
12/28/2021  13:12:00      124.670      -29.374      -14.123       66.279       53.891       42.344     4392.939     2904.250     1793.016        1.285        0.455      128.084       35.750        0.078      331.688       -0.136      850.626
12/28/2021  13:13:00       77.663      -56.609      -29.623       75.410       73.114       53.110     5686.652     5345.598     2820.629        1.198        0.693       96.105       53.251        0.307      331.713       -0.095      850.616
12/28/2021  13:14:00      109.848      -21.080      -14.330       93.748       58.551       46.421     8788.716     3428.169     2154.934        1.354        0.719      111.853       34.306        0.094      331.628       -0.234      850.591
12/28/2021  13:15:00      107.286      -43.754      -10.347       90.566       61.271       53.176     8202.265     3754.164     2827.647        1.416        0.739      115.865       48.391        0.174      331.668       -0.167      850.572
12/28/2021  13:16:00      133.935      -41.226      -13.958       94.597       61.738       49.210     8948.653     3811.556     2421.629        1.750        0.759      140.136       47.467        0.115      331.656       -0.189      850.550
12/28/2021  13:17:00      109.057      -27.699      -26.755      104.235       71.759       41.865    10864.969     5149.303     1752.706        1.557        0.888      112.520       28.312        0.063      331.664       -0.175      850.533
12/28/2021  13:18:00      102.623     -106.218      -36.707       45.580       65.383       32.641     2077.550     4274.977     1065.463        1.529        0.371      147.695       17.163        0.014      331.791        0.034      850.544
12/28/2021  13:19:00      128.416     -103.967      -40.472       69.989       91.906       42.958     4898.408     8446.737     1845.388        2.206        0.760      165.226       26.369        0.025      331.685       -0.142      850.556
12/28/2021  13:20:00      110.784      -43.964      -11.725       78.085       57.238       51.607     6097.259     3276.183     2663.277        1.319        0.602      119.188       51.452        0.186      331.609       -0.267      850.560
12/28/2021  13:21:00       71.492        7.491      -11.266       93.455       62.316       46.220     8733.806     3883.334     2136.278        1.002        0.738       71.883       44.408        0.382      331.744       -0.042      850.579
12/28/2021  13:22:00      144.660       -2.465       -5.920       72.281       50.308       39.145     5224.583     2530.900     1532.311        1.513        0.464      144.681       37.136        0.066      331.536       -0.385      850.604
12/28/2021  13:23:00      123.795       17.572      -22.829       64.207       66.940       30.006     4122.580     4480.942      900.347        1.283        0.475      125.036       28.411        0.052      331.592       -0.294      850.619
12/28/2021  13:24:00       69.368       25.688      -10.793       64.198       59.136       34.851     4121.384     3497.100     1214.582        0.721        0.442       73.972       21.571        0.085      331.774        0.006      850.607
12/28/2021  13:25:00       36.692      -18.494      -25.929       35.462       70.640       38.342     1257.546     4990.010     1470.114        0.504        0.386       41.090       37.188        0.819      331.942        0.283      850.583
12/28/2021  13:26:00      130.841     -130.524      -42.176       66.003       62.238       42.645     4356.455     3873.520     1818.598        2.299        0.502      184.813       24.117        0.017      331.689       -0.135      850.563
12/28/2021  13:27:00      123.017     -201.584      -46.043       73.093       84.017       42.884     5342.578     7058.892     1839.069        3.606        0.712      236.155       43.106        0.033      331.611       -0.266      850.555
12/28/2021  13:28:00       88.450      -85.382      -28.525       72.474       92.557       46.682     5252.481     8566.720     2179.204        1.596        0.800      122.937       42.497        0.119      331.812        0.068      850.566
12/28/2021  13:29:00      148.396      -18.986      -20.927       62.627       52.848       41.934     3922.169     2792.959     1758.501        1.565        0.424      149.605       38.472        0.066      331.541       -0.378      850.574
12/28/2021  13:30:00       92.830       17.357      -37.471      107.470       47.242       30.122    11549.843     2231.762      907.349        1.250        0.734       94.439       16.396        0.030      331.699       -0.118      850.581
12/28/2021  13:31:00       31.932      -27.927      -12.532       49.560       48.338       28.541     2456.229     2336.544      814.576        0.378        0.280       42.422       28.167        0.441      331.811        0.067      850.590
12/28/2021  13:32:00       47.306      -62.902      -13.876       66.813       72.866       45.580     4464.036     5309.395     2077.545        0.912        0.593       78.705       41.262        0.275      331.894        0.203      850.583
12/28/2021  13:33:00      122.775      -28.466      -29.052       88.766       48.853       39.300     7879.330     2386.634     1544.493        1.427        0.591      126.032       11.286        0.008      331.647       -0.205      850.581
12/28/2021  13:34:00       60.546      -64.531      -25.538      101.649       48.751       37.491    10332.565     2376.702     1405.577        1.130        0.706       88.488       32.650        0.136      331.808        0.061      850.583
12/28/2021  13:35:00       49.210     -105.843      -25.022       34.792       54.477       29.518     1210.467     2967.770      871.297        0.965        0.252      116.724       19.340        0.027      332.009        0.394      850.594
12/28/2021  13:36:00       83.568      -49.311      -21.759       47.398       51.677       34.571     2246.588     2670.538     1195.132        0.800        0.306       97.031       27.744        0.082      331.844        0.122      850.602
12/28/2021  13:37:00      102.843      -25.054      -26.427       74.601       74.076       33.671     5565.282     5487.213     1133.738        1.204        0.609      105.850       26.957        0.065      331.910        0.230      850.596
12/28/2021  13:38:00       22.706      -21.450      -14.532       63.389       44.182       39.451     4018.201     1952.064     1556.349        0.436        0.376       31.236       33.438        1.146      331.998        0.375      850.610
12/28/2021  13:39:00       67.234      -24.265      -20.570       71.925       70.235       46.695     5173.198     4932.911     2180.380        0.891        0.614       71.479       38.809        0.295      331.906        0.223      850.620
12/28/2021  13:40:00      132.121      -74.034      -19.032       56.131       52.056       32.746     3150.658     2709.850     1072.281        1.511        0.347      151.450       20.672        0.019      331.571       -0.331      850.622
12/28/2021  13:41:00       26.113      -48.496      -18.536       72.042       74.960       34.244     5190.068     5619.049     1172.679        0.768        0.599       55.080       28.382        0.266      331.900        0.214      850.618
12/28/2021  13:42:00       50.711      -92.130      -27.789       44.553       70.333       38.035     1984.975     4946.685     1446.643        1.010        0.419      105.164       29.410        0.078      331.977        0.340      850.613
12/28/2021  13:43:00       67.557       -6.383      -17.700       56.356       42.892       35.943     3176.025     1839.701     1291.930        0.561        0.315       67.858       23.964        0.125      331.880        0.180      850.617
12/28/2021  13:44:00       49.116      -45.597      -16.098       70.607       49.268       31.317     4985.389     2427.291      980.760        0.657        0.420       67.019       24.909        0.138      331.934        0.270      850.629
12/28/2021  13:45:00       47.544        0.263       -9.263       58.603       51.156       51.076     3434.364     2616.898     2608.777        0.550        0.433       47.544       31.438        0.437      331.936        0.273      850.627
12/28/2021  13:46:00      107.782        8.855      -25.736       71.264       68.644       42.504     5078.501     4711.955     1806.583        1.198        0.580      108.146       26.992        0.062      331.696       -0.122      850.637
12/28/2021  13:47:00      115.116       25.634       -9.547       61.866       64.346       24.421     3827.452     4140.451      596.381        1.128        0.428      117.936       21.086        0.032      331.636       -0.220      850.637
12/28/2021  13:48:00       56.666      -14.366        2.668       49.611       42.920       36.712     2461.292     1842.097     1347.763        0.454        0.283       58.458       27.948        0.229      331.883        0.186      850.637
12/28/2021  13:49:00       72.350      -31.130      -15.460       66.277       47.579       35.805     4392.578     2263.799     1282.024        0.719        0.397       78.763       32.441        0.170      331.747       -0.039      850.639
12/28/2021  13:50:00       77.659      -44.613      -28.985       50.729       49.127       26.909     2573.414     2413.445      724.077        0.729        0.286       89.561       16.733        0.035      331.701       -0.113      850.644
12/28/2021  13:51:00      158.454       63.744       -4.990       72.028       46.517       32.196     5188.016     2163.870     1036.558        1.879        0.419      170.795       17.205        0.010      331.729       -0.070      850.646
12/28/2021  13:52:00       85.755      -42.096      -26.144       57.497       58.656       30.229     3305.961     3440.499      913.783        0.873        0.383       95.530       33.818        0.125      331.912        0.233      850.639
12/28/2021  13:53:00       72.309      -41.905      -14.525       61.307       54.176       38.404     3758.536     2935.066     1474.833        0.768        0.408       83.574       34.361        0.169      331.818        0.079      850.627
12/28/2021  13:54:00       80.448      -29.517      -17.709       50.946       41.402       33.635     2595.531     1714.107     1131.287        0.655        0.272       85.692       19.592        0.052      331.759       -0.019      850.622
12/28/2021  13:55:00       27.107      -38.976      -25.893       81.161       63.843       32.840     6587.104     4075.919     1078.465        0.733        0.587       47.475       29.173        0.378      331.945        0.287      850.625
12/28/2021  13:56:00      151.371       51.440      -24.148       36.637       33.267       21.857     1342.293     1106.703      477.741        1.453        0.146      159.873       14.716        0.008      331.581       -0.312      850.633
12/28/2021  13:57:00       45.366       31.329      -13.733       41.312       17.943       17.090     1706.648      321.959      292.059        0.277        0.116       55.132       22.340        0.164      331.572       -0.326      850.627
12/28/2021  13:58:00       22.411       20.791       -4.898       18.119       16.096        9.585      328.300      259.085       91.864        0.082        0.034       30.569        5.145        0.028      331.652       -0.196      850.620
12/28/2021  13:59:00       53.971       10.088      -14.351       29.307       28.434       15.967      858.906      808.486      254.937        0.257        0.096       54.906       12.331        0.050      331.678       -0.152      850.607
12/28/2021  14:00:00       51.829      -26.838       -6.825       48.966       35.677       36.575     2397.680     1272.864     1337.752        0.423        0.250       58.366       27.807        0.227      331.930        0.264      850.592
12/28/2021  14:01:00       97.943      -38.415      -17.128       51.406       37.115       31.272     2642.626     1377.536      977.967        0.818        0.250      105.207       31.331        0.089      331.731       -0.066      850.570
12/28/2021  14:02:00       38.578      -19.873       -2.311       49.087       36.941       22.228     2409.558     1364.621      494.098        0.308        0.213       43.396       18.076        0.173      331.879        0.179      850.576
12/28/2021  14:03:00       95.827       -3.666      -11.565       51.551       46.360       32.662     2657.509     2149.236     1066.819        0.760        0.294       95.897       18.756        0.038      331.859        0.146      850.571
12/28/2021  14:04:00       36.849      -14.688       -9.845       51.954       55.748       49.478     2699.184     3107.859     2448.098        0.496        0.413       39.668       31.584        0.634      332.036        0.437      850.553
12/28/2021  14:05:00      126.906       22.194      -14.457       82.937       51.455       38.211     6878.488     2647.658     1460.083        1.389        0.549      128.832       26.110        0.041      331.883        0.184      850.552
12/28/2021  14:06:00      197.854       68.199      -22.870       60.154       54.617       32.593     3618.544     2982.981     1062.293        2.599        0.383      209.278       17.843        0.007      331.673       -0.162      850.559
12/28/2021  14:07:00      151.926       72.823      -22.356       59.125       35.050       20.786     3495.814     1228.482      432.061        1.702        0.258      168.477       12.838        0.006      331.661       -0.181      850.573
12/28/2021  14:08:00      129.436       13.338      -14.839       89.926       44.865       30.828     8086.756     2012.912      950.359        1.410        0.553      130.122       25.241        0.038      331.708       -0.101      850.574
12/28/2021  14:09:00       79.615      -24.645      -26.540       55.945       42.646       34.122     3129.819     1818.700     1164.338        0.688        0.306       83.342       19.557        0.055      331.866        0.157      850.563
12/28/2021  14:10:00       66.910      -56.839      -20.595       48.364       53.211       33.932     2339.057     2831.367     1151.357        0.723        0.316       87.793       22.620        0.066      331.827        0.093      850.551
12/28/2021  14:11:00      145.866       46.491       -9.810       73.895       49.799       35.592     5460.473     2479.903     1266.767        1.637        0.460      153.096       20.442        0.018      331.902        0.216      850.546
12/28/2021  14:12:00      155.954       56.030      -33.787       71.948       45.267       26.066     5176.528     2049.109      679.440        1.825        0.395      165.714        9.309        0.003      331.875        0.171      850.550
12/28/2021  14:13:00       93.820       64.229      -15.098       47.205       37.563       28.845     2228.342     1411.010      832.031        0.881        0.224      113.700       20.556        0.033      331.798        0.047      850.549
12/28/2021  14:14:00       53.764       40.498      -11.618       41.628       36.760       28.478     1732.849     1351.296      810.975        0.428        0.195       67.310       18.660        0.077      331.904        0.219      850.558
12/28/2021  14:15:00       76.957       60.565      -12.733       38.661       21.783       16.986     1494.637      474.510      288.508        0.600        0.113       97.931       16.395        0.028      331.772        0.002      850.563
12/28/2021  14:16:00      135.055       34.467      -21.209       66.857       40.876       29.302     4469.922     1670.826      858.584        1.344        0.350      139.384       18.655        0.018      331.874        0.169      850.568
12/28/2021  14:17:00      180.214       43.692      -23.822       63.999       45.047       33.362     4095.834     2029.256     1113.002        2.109        0.362      185.434       26.988        0.021      331.937        0.274      850.572
12/28/2021  14:18:00      181.833       24.184      -17.482       47.836       37.637       28.559     2288.263     1416.551      815.615        1.924        0.226      183.434       26.358        0.021      331.773        0.004      850.568
12/28/2021  14:19:00      106.416       56.666        5.479       78.081       48.252       36.194     6096.655     2328.283     1310.007        1.215        0.487      120.563       30.866        0.066      331.903        0.217      850.570
12/28/2021  14:20:00      206.110       95.083      -13.105       91.829       61.112       35.600     8432.621     3734.679     1267.329        3.256        0.672      226.985       30.982        0.019      331.815        0.071      850.567
12/28/2021  14:21:00      220.032       44.002      -11.812       64.344       50.865       36.657     4140.099     2587.261     1343.718        2.928        0.404      224.388       27.242        0.015      331.727       -0.073      850.586
12/28/2021  14:22:00      211.904       57.452      -14.705       56.502       49.369       42.112     3192.502     2437.301     1773.436        2.791        0.370      219.554       32.352        0.022      331.659       -0.187      850.587
12/28/2021  14:23:00      245.388       48.951      -11.854       72.585       46.974       32.621     5268.530     2206.575     1064.113        3.564        0.427      250.223       22.555        0.008      331.671       -0.167      850.593
12/28/2021  14:24:00      206.314       68.462      -13.766       53.919       47.527       33.368     2907.276     2258.822     1113.440        2.686        0.314      217.376       25.083        0.013      331.658       -0.187      850.601
12/28/2021  14:25:00      157.434       40.584      -24.003       63.935       63.016       35.947     4087.633     3971.002     1292.217        1.818        0.468      162.581       13.223        0.007      331.796        0.042      850.606
12/28/2021  14:26:00      137.863       48.053      -20.957       69.516       59.614       42.126     4832.470     3553.847     1774.624        1.596        0.508      145.998       33.125        0.051      331.811        0.066      850.602
12/28/2021  14:27:00      188.495       65.993      -15.611       96.541       63.350       49.788     9320.109     4013.163     2478.852        2.797        0.791      199.713       32.767        0.027      331.894        0.201      850.604
12/28/2021  14:28:00      137.193       75.359      -16.608       63.527       53.405       34.457     4035.735     2852.054     1187.307        1.642        0.404      156.527       28.945        0.034      331.856        0.139      850.626
12/28/2021  14:29:00       54.989      125.237      -14.988       47.184       73.842       28.388     2226.333     5452.645      805.861        1.371        0.424      136.777       30.020        0.048      331.775        0.007      850.633
12/28/2021  14:30:00       66.217      131.572      -23.412       41.911       91.085       35.824     1756.573     8296.402     1283.328        1.679        0.567      147.295       34.375        0.054      331.929        0.262      850.619
12/28/2021  14:31:00      105.910      121.598      -24.520       55.012       54.413       30.569     3026.305     2960.798      934.484        1.676        0.346      161.254       30.868        0.037      331.942        0.282      850.618
12/28/2021  14:32:00      104.609       49.856      -25.251       64.570       58.340       29.917     4169.339     3403.513      895.051        1.127        0.423      115.882       29.333        0.064      332.014        0.402      850.606
12/28/2021  14:33:00      113.612        5.808      -19.006       84.113       58.740       49.431     7074.927     3450.346     2443.424        1.313        0.648      113.760       38.371        0.114      332.000        0.377      850.590
12/28/2021  14:34:00      180.531       42.275      -18.940       50.161       52.338       27.718     2516.133     2739.293      768.302        2.038        0.301      185.415       16.728        0.008      331.781        0.017      850.581
12/28/2021  14:35:00      137.297      -13.747      -13.965       74.423       63.989       42.407     5538.746     4094.601     1798.364        1.533        0.572      137.984       25.197        0.033      331.931        0.263      850.574
12/28/2021  14:36:00      130.980      -15.666      -32.431       94.470       76.757       48.849     8924.609     5891.632     2386.194        1.782        0.860      131.914       26.169        0.039      331.878        0.177      850.575
12/28/2021  14:37:00      121.684       -6.260      -27.430       94.562       87.069       58.550     8941.967     7580.966     3428.079        1.777        0.998      121.845       29.028        0.057      331.794        0.037      850.560
12/28/2021  14:38:00      278.913       80.731      -25.319      119.455       79.899       46.643    14269.560     6383.841     2175.595        5.389        1.141      290.361       40.123        0.019      331.622       -0.247      850.554
12/28/2021  14:39:00      171.313       94.437      -22.601       90.956       45.206       27.929     8272.915     2043.624      780.015        2.493        0.555      195.618       25.321        0.017      331.591       -0.297      850.561
12/28/2021  14:40:00      120.477       15.953      -25.941       70.866       72.211       33.764     5021.991     5214.361     1140.010        1.341        0.569      121.529       15.383        0.016      331.771       -0.000      850.556
12/28/2021  14:41:00       72.551       -0.425      -21.599       80.261       70.573       62.524     6441.793     4980.615     3909.269        1.053        0.767       72.552       43.409        0.358      331.842        0.120      850.554
12/28/2021  14:42:00      100.695       -7.066        1.638       83.566       53.837       46.704     6983.255     2898.424     2181.306        1.113        0.603      100.942       34.107        0.114      331.753       -0.027      850.556
12/28/2021  14:43:00      208.222       30.838      -16.746       66.241       36.824       29.443     4387.841     1356.023      866.866        2.560        0.331      210.493       26.319        0.016      331.592       -0.296      850.562
12/28/2021  14:44:00       69.376      -57.358      -29.900       59.750       65.415       31.294     3570.004     4279.119      979.285        0.891        0.441       90.017       24.261        0.073      331.890        0.197      850.553
12/28/2021  14:45:00       99.876      -32.408      -23.808       65.197       69.155       40.821     4250.601     4782.378     1666.366        1.114        0.535      105.003       34.075        0.105      331.750       -0.034      850.543
12/28/2021  14:46:00       91.623       34.959      -10.598       57.866       53.582       30.362     3348.423     2871.050      921.829        0.843        0.357       98.066       22.904        0.055      331.805        0.057      850.545
12/28/2021  14:47:00       63.353       36.506      -20.459       37.073       48.986       29.890     1374.419     2399.592      893.409        0.522        0.233       73.118       12.217        0.028      331.858        0.144      850.555
12/28/2021  14:48:00       64.612       24.779       -1.476       50.866       43.794       29.139     2587.396     1917.898      849.098        0.507        0.268       69.200       19.790        0.082      331.907        0.224      850.570
12/28/2021  14:49:00      166.958       45.147      -28.161       50.584       41.328       27.450     2558.740     1708.020      753.524        1.786        0.251      172.955       11.732        0.005      331.692       -0.130      850.588
12/28/2021  14:50:00      108.406       -6.861      -25.101       65.092       67.684       33.179     4236.953     4581.105     1100.838        1.117        0.496      108.623       24.879        0.052      331.804        0.055      850.599
12/28/2021  14:51:00      111.679       30.099       -6.727       54.104       42.784       21.295     2927.264     1830.463      453.469        0.932        0.261      115.664       18.946        0.027      331.675       -0.157      850.607
12/28/2021  14:52:00       85.336       14.844       -5.340       58.672       35.412       27.947     3442.390     1254.014      781.029        0.650        0.274       86.617       31.621        0.133      331.747       -0.038      850.607
12/28/2021  14:53:00       81.116       11.806       -9.464       58.712       29.827       25.420     3447.043      889.644      646.190        0.589        0.249       81.971       23.474        0.082      331.739       -0.054      850.615
12/28/2021  14:54:00       28.655      -33.433       -8.255       45.424       54.109       29.139     2063.370     2927.790      849.090        0.392        0.292       44.032       21.058        0.229      331.899        0.213      850.615
12/28/2021  14:55:00      106.533       31.584      -22.594       45.275       19.634       25.441     2049.835      385.492      647.258        0.797        0.154      111.116        6.762        0.004      331.657       -0.186      850.627
12/28/2021  14:56:00       69.038      -13.328      -24.997       58.508       37.178       18.496     3423.243     1382.174      342.093        0.536        0.257       70.313       14.987        0.045      331.797        0.044      850.635
12/28/2021  14:57:00      127.168        8.740      -13.648       52.229       40.945       25.339     2727.840     1676.489      642.041        1.074        0.252      127.468       18.545        0.021      331.656       -0.187      850.649
12/28/2021  14:58:00       94.095       11.784      -12.135       61.259       39.111       29.864     3752.642     1529.706      891.872        0.766        0.309       94.830       26.131        0.076      331.719       -0.084      850.651
12/28/2021  14:59:00       95.620      -19.943      -34.033       73.180       70.654       58.240     5355.256     4991.943     3391.938        1.222        0.687       97.678       43.152        0.195      331.702       -0.113      850.649
12/28/2021  15:00:00      150.852      -19.161      -12.994      106.879       63.318       52.251    11423.035     4009.189     2730.173        2.072        0.908      152.064       48.724        0.103      331.705       -0.110      850.668
12/28/2021  15:01:00      167.042        5.830      -11.695       87.471       72.933       43.242     7651.174     5319.283     1869.849        2.145        0.742      167.144       41.036        0.060      331.606       -0.273      850.678
12/28/2021  15:02:00      177.315      -21.406      -23.714       80.043       59.570       36.813     6406.887     3548.543     1355.218        2.188        0.566      178.603       27.233        0.023      331.619       -0.251      850.689
12/28/2021  15:03:00      145.326       28.638      -19.400       76.033       60.605       41.698     5781.036     3673.018     1738.730        1.675        0.560      148.120       32.814        0.049      331.626       -0.238      850.693
12/28/2021  15:04:00      141.990       29.322      -11.922       74.979       58.029       37.370     5621.919     3367.347     1396.545        1.577        0.519      144.986       33.796        0.054      331.646       -0.204      850.693
12/28/2021  15:05:00       96.045        5.080      -20.212       49.106       42.891       30.857     2411.362     1839.656      952.153        0.743        0.260       96.180       14.039        0.021      331.777        0.011      850.683
12/28/2021  15:06:00       58.622        6.318      -27.397       69.679       60.106       48.830     4855.152     3612.767     2384.403        0.754        0.543       58.962       28.924        0.241      331.789        0.031      850.670
12/28/2021  15:07:00      130.059       -6.249      -23.168       95.987       55.049       43.677     9213.537     3030.424     1907.665        1.582        0.708      130.209       37.202        0.082      331.654       -0.193      850.653
12/28/2021  15:08:00       96.562      -35.658        5.582      101.684       90.995       74.513    10339.554     8280.088     5552.167        1.739        1.209      102.936       72.702        0.499      331.589       -0.300      850.641
12/28/2021  15:09:00       81.599      -20.580      -20.592      102.338       76.195       68.707    10473.070     5805.736     4720.632        1.425        1.050       84.154       49.173        0.341      331.523       -0.409      850.627
12/28/2021  15:10:00      156.889      -23.606      -15.658      137.256       88.501       69.199    18839.292     7832.363     4788.433        2.843        1.573      158.655       72.529        0.209      331.500       -0.447      850.639
12/28/2021  15:11:00      115.419      -15.624      -13.508       82.261       57.698       44.994     6766.917     3329.048     2024.468        1.293        0.606      116.472       39.165        0.113      331.501       -0.444      850.647
12/28/2021  15:12:00      228.523        8.015      -19.236       93.242       78.290       52.686     8694.059     6129.259     2775.830        3.512        0.880      228.664       39.821        0.030      331.415       -0.587      850.667
12/28/2021  15:13:00      200.897       46.352      -16.139       92.353       56.643       45.470     8529.005     3208.467     2067.540        2.828        0.690      206.175       44.212        0.046      331.329       -0.727      850.676
12/28/2021  15:14:00      135.893       13.299      -15.128       72.423       67.447       43.558     5245.114     4549.120     1897.292        1.528        0.585      136.542       34.663        0.064      331.394       -0.621      850.678
12/28/2021  15:15:00      153.648       18.349      -15.331       72.849       65.655       40.292     5306.956     4310.594     1623.475        1.771        0.562      154.740       36.590        0.056      331.423       -0.573      850.678
12/28/2021  15:16:00      184.325       20.955      -23.178       51.086       53.416       36.026     2609.798     2853.255     1297.876        2.086        0.338      185.513       22.608        0.015      331.350       -0.693      850.668
12/28/2021  15:17:00      176.428       28.844      -21.485       56.038       68.731       30.546     3140.235     4723.950      933.064        2.061        0.440      178.770       19.975        0.012      331.320       -0.742      850.656
12/28/2021  15:18:00      159.219       15.821      -21.439       58.694       57.837       25.955     3445.015     3345.171      673.681        1.676        0.373      160.003       14.261        0.008      331.354       -0.686      850.640
12/28/2021  15:19:00      201.989       15.913      -14.760       59.028       65.203       34.691     3484.360     4251.431     1203.439        2.510        0.447      202.615       28.628        0.020      331.221       -0.905      850.631
12/28/2021  15:20:00       99.779        4.183       -4.361       67.219       79.825       38.526     4518.379     6372.068     1484.240        1.118        0.619       99.866       30.855        0.095      331.329       -0.727      850.572
12/28/2021  15:21:00       77.650      -20.527      -27.092       65.119       70.714       50.639     4240.423     5000.436     2564.296        0.949        0.590       80.317       41.085        0.262      331.443       -0.538      850.544
12/28/2021  15:22:00      141.798       10.713      -16.394       98.478       61.358       38.348     9697.863     3764.772     1470.559        1.771        0.747      142.202       25.424        0.032      331.314       -0.753      850.547
12/28/2021  15:23:00      144.792      -16.451      -11.423       83.294       63.616       40.342     6937.950     4046.984     1627.440        1.699        0.631      145.724       32.387        0.049      331.218       -0.909      850.531
12/28/2021  15:24:00      199.858       17.055      -18.683       48.019       36.228       32.620     2305.857     1312.445     1064.090        2.263        0.234      200.585       22.335        0.012      331.129       -1.057      850.531
12/28/2021  15:25:00      178.716        3.872      -11.744       79.635       52.833       34.163     6341.697     2791.322     1167.140        2.119        0.515      178.758       25.289        0.020      331.163       -1.002      850.526
12/28/2021  15:26:00       95.378       -5.718       -6.847       82.420       62.123       52.728     6793.066     3859.244     2780.271        1.130        0.672       95.550       44.303        0.215      331.270       -0.822      850.513
12/28/2021  15:27:00      126.459       48.347      -12.117       61.466       42.970       27.878     3778.064     1846.461      777.175        1.244        0.320      135.386       27.446        0.041      331.232       -0.885      850.511
12/28/2021  15:28:00      192.693       56.244      -19.064       52.925       43.901       28.283     2801.105     1927.258      799.926        2.309        0.276      200.733       25.937        0.017      331.158       -1.011      850.508
12/28/2021  15:29:00      165.673       48.317      -10.426       53.502       28.834       30.911     2862.424      831.376      955.486        1.727        0.232      172.575       24.121        0.020      331.190       -0.955      850.500
12/28/2021  15:30:00       92.728       20.923      -16.157       74.323       58.408       27.809     5523.957     3411.467      773.346        0.950        0.485       95.060       29.654        0.097      331.335       -0.715      850.493
12/28/2021  15:31:00      174.923       86.038      -20.550       38.710       31.180       28.335     1498.447      972.222      802.867        2.085        0.164      194.937       18.722        0.009      331.181       -0.971      850.508
12/28/2021  15:32:00      124.394       74.905      -19.298       36.267       26.422       26.360     1315.295      698.123      694.841        1.208        0.135      145.205       13.261        0.008      331.116       -1.077      850.525
12/28/2021  15:33:00      151.136       22.349       -9.896       48.441       41.172       33.670     2346.527     1695.101     1133.635        1.431        0.259      152.780       19.800        0.017      331.148       -1.023      850.524
12/28/2021  15:34:00      105.490       15.250      -26.263       60.210       43.248       27.325     3625.201     1870.372      746.635        0.915        0.312      106.587        6.649        0.004      331.254       -0.849      850.534
12/28/2021  15:35:00      117.554       20.709      -18.288       53.253       38.523       24.812     2835.875     1484.024      615.653        0.976        0.247      119.364       16.725        0.020      331.184       -0.963      850.536
12/28/2021  15:36:00      126.909       19.655      -17.024       43.363       41.736       18.895     1880.315     1741.907      357.024        1.038        0.199      128.422       15.292        0.014      331.125       -1.062      850.554
12/28/2021  15:37:00       72.441       27.036       -7.259       37.707       29.032       17.641     1421.829      842.845      311.194        0.430        0.129       77.321       19.628        0.064      331.195       -0.946      850.579
12/28/2021  15:38:00       96.921       71.188      -14.031       32.997       27.605       26.852     1088.786      762.044      721.056        0.861        0.129      120.256       19.968        0.028      331.253       -0.848      850.619
12/28/2021  15:39:00       64.347       52.635      -11.653       26.314       24.134       20.657      692.403      582.451      426.699        0.437        0.085       83.133       12.776        0.024      331.238       -0.875      850.660
12/28/2021  15:40:00       80.035       -7.715      -28.825       64.937       42.283       22.122     4216.786     1787.848      489.396        0.689        0.325       80.406       18.398        0.052      331.349       -0.695      850.677
12/28/2021  15:41:00       72.552      -19.571      -25.046       40.381       59.109       19.004     1630.623     3493.905      361.142        0.588        0.274       75.146       14.249        0.036      331.262       -0.835      850.689
12/28/2021  15:42:00       96.767       16.757       -7.193       85.527       37.678       32.324     7314.899     1419.669     1044.832        0.974        0.489       98.207       26.055        0.070      331.302       -0.771      850.675
12/28/2021  15:43:00      125.736        5.741       -9.362       55.924       36.732       23.728     3127.438     1349.231      563.003        1.048        0.252      125.867        9.398        0.006      331.180       -0.971      850.655
12/28/2021  15:44:00       77.325        5.659      -18.133       62.078       40.470       24.978     3853.631     1637.842      623.901        0.623        0.306       77.532       17.144        0.049      331.261       -0.836      850.644
12/28/2021  15:45:00      143.284       62.736      -12.194       44.250       36.325       22.391     1958.020     1319.497      501.352        1.420        0.189      156.417       17.502        0.013      331.209       -0.924      850.635
12/28/2021  15:46:00      119.708       21.562       -9.670       58.050       32.979       25.345     3369.801     1087.629      642.355        0.999        0.255      121.635       29.979        0.061      331.313       -0.753      850.627
12/28/2021  15:47:00      132.508       55.649      -16.881       27.565       37.460       18.016      759.826     1403.275      324.561        1.171        0.124      143.719       10.563        0.005      331.201       -0.938      850.616
12/28/2021  15:48:00       82.978       35.254      -18.395       59.157       31.733       22.255     3499.546     1006.962      495.289        0.673        0.250       90.157       25.047        0.077      331.276       -0.811      850.619
12/28/2021  15:49:00       84.168       55.176      -20.574       23.625       16.860       22.262      558.152      284.276      495.606        0.594        0.067      100.641        9.689        0.009      331.239       -0.873      850.621
12/28/2021  15:50:00        9.744       13.790       -0.490       22.594       34.166       21.862      510.493     1167.307      477.932        0.122        0.108       16.885       17.129        1.029      331.435       -0.552      850.617
12/28/2021  15:51:00       23.612       21.301        0.186       36.018       41.089       20.314     1297.266     1688.277      412.669        0.220        0.170       31.801       14.091        0.196      331.530       -0.395      850.619
12/28/2021  15:52:00       61.351       22.362      -10.520       53.315       48.059       29.994     2842.461     2309.676      899.652        0.521        0.303       65.300       23.052        0.125      331.488       -0.465      850.612
12/28/2021  15:53:00       96.319       37.524      -14.350       71.895       36.743       31.153     5168.850     1350.039      970.492        0.919        0.374      103.371       30.357        0.086      331.428       -0.563      850.613
12/28/2021  15:54:00      108.643       24.502      -13.841       37.245       42.609       19.530     1387.187     1815.516      381.422        0.809        0.179      111.371       12.571        0.013      331.368       -0.661      850.637
12/28/2021  15:55:00       74.887       54.416       -7.742       38.339       34.236       24.397     1469.900     1172.093      595.204        0.593        0.162       92.570       21.054        0.052      331.328       -0.728      850.656
12/28/2021  15:56:00      107.366       75.204      -18.206       40.986       24.952       20.848     1679.836      622.604      434.622        1.013        0.137      131.085       13.794        0.011      331.257       -0.843      850.682
12/28/2021  15:57:00      103.134       83.527      -26.361       31.880       29.211       21.230     1016.324      853.259      450.699        1.031        0.116      132.716       10.424        0.006      331.270       -0.821      850.705
12/28/2021  15:58:00      100.847       81.530      -24.527       39.974       27.718       27.671     1597.914      768.268      765.675        1.027        0.157      129.682       21.453        0.027      331.241       -0.869      850.713
12/28/2021  15:59:00       26.332       64.395        0.716       33.725       30.981       19.187     1137.400      959.813      368.143        0.365        0.123       69.570       15.681        0.051      331.391       -0.623      850.698
12/28/2021  16:00:00      106.497       66.972      -16.473       46.729       32.750       18.977     2183.644     1072.590      360.110        0.986        0.181      125.805       13.191        0.011      331.328       -0.728      850.690
12/28/2021  16:01:00       85.265       21.417       -8.102       30.277       28.204       24.121      916.675      795.449      581.822        0.504        0.115       87.913       15.648        0.032      331.387       -0.632      850.694
12/28/2021  16:02:00       59.406        9.421      -26.182       41.751       45.766       20.536     1743.146     2094.566      421.707        0.428        0.213       60.149        9.284        0.024      331.378       -0.644      850.704
12/28/2021  16:03:00       91.556       56.653      -23.902       32.543       26.431       21.238     1059.077      698.609      451.063        0.719        0.110      107.667        8.782        0.007      331.348       -0.695      850.714
12/28/2021  16:04:00       45.599       30.893      -11.501       39.935       44.240       21.143     1594.818     1957.135      447.009        0.358        0.200       55.078       17.334        0.099      331.410       -0.591      850.721
12/28/2021  16:05:00       41.264       56.192       -4.135       25.847       34.157       19.047      668.049     1166.694      362.790        0.354        0.110       69.716       14.956        0.046      331.305       -0.765      850.722
12/28/2021  16:06:00       18.142       51.860        2.578       29.293       25.483       21.135      858.069      649.407      446.686        0.249        0.098       54.941       19.405        0.125      331.425       -0.569      850.712
12/28/2021  16:07:00       75.253       45.413      -13.478       29.316       24.485       18.462      859.433      599.501      340.847        0.485        0.090       87.894       10.586        0.015      331.302       -0.771      850.706
12/28/2021  16:08:00      156.159       30.172      -12.407       41.532       31.448       24.442     1724.935      988.994      597.395        1.438        0.166      159.047       14.881        0.009      331.257       -0.843      850.708
12/28/2021  16:09:00      128.796       30.183      -11.027       46.012       27.730       25.498     2117.092      768.945      650.173        1.058        0.177      132.286       27.832        0.044      331.251       -0.853      850.717
12/28/2021  16:10:00      112.053       12.852      -14.963       38.215       38.058       15.801     1460.393     1448.378      249.671        0.805        0.158      112.787       10.797        0.009      331.248       -0.859      850.730
12/28/2021  16:11:00       88.542       -5.721      -14.042       25.914       41.772       15.424      671.542     1744.918      237.895        0.536        0.133       88.727        7.937        0.008      331.258       -0.843      850.738
12/28/2021  16:12:00       95.436       35.807      -12.121       30.783       27.516       19.785      947.596      757.121      391.466        0.632        0.105      101.932       16.471        0.026      331.268       -0.825      850.756
12/28/2021  16:13:00       69.839       64.563       -9.147       33.780       32.821       27.888     1141.058     1077.189      777.759        0.606        0.150       95.110       20.487        0.046      331.276       -0.812      850.749
12/28/2021  16:14:00       85.618       51.973      -17.626       37.164       34.825       24.534     1381.134     1212.785      601.936        0.677        0.160      100.158       21.954        0.048      331.315       -0.750      850.733
12/28/2021  16:15:00      107.729       74.534      -14.599       41.768       29.594       24.431     1744.555      875.820      596.868        1.030        0.161      131.000       17.428        0.018      331.233       -0.883      850.717
12/28/2021  16:16:00      137.362       63.282      -12.799       29.385       27.282       21.861      863.491      744.285      477.895        1.256        0.104      151.238       12.641        0.007      331.182       -0.968      850.704
12/28/2021  16:17:00       47.684        1.771      -18.584       40.525       47.863       24.576     1642.256     2290.892      603.957        0.358        0.227       47.717       20.643        0.187      331.352       -0.689      850.704
12/28/2021  16:18:00       94.791       20.427      -16.126       41.931       32.830       18.808     1758.212     1077.787      353.755        0.643        0.159       96.967       19.513        0.040      331.303       -0.768      850.708
12/28/2021  16:19:00       26.080        0.749       -1.828       31.356       26.798       18.358      983.192      718.158      337.020        0.136        0.102       26.090        9.749        0.140      331.321       -0.740      850.705
12/28/2021  16:20:00       56.131       37.598       -3.798       34.201       25.961       24.581     1169.738      673.973      604.220        0.351        0.122       67.559       17.564        0.068      331.320       -0.741      850.715
12/28/2021  16:21:00       82.619       27.706      -26.253       22.022       19.151       16.736      484.966      366.770      280.103        0.471        0.057       87.140        3.828        0.002      331.273       -0.817      850.720
12/28/2021  16:22:00       89.222       19.801      -17.992       28.243       23.945       17.076      797.692      573.356      291.601        0.517        0.083       91.393       10.262        0.013      331.286       -0.796      850.743
12/28/2021  16:23:00      102.435       17.814      -16.174       39.162       31.993       22.225     1533.688     1023.555      493.972        0.706        0.153      103.972       12.089        0.014      331.219       -0.905      850.764
12/28/2021  16:24:00      106.217       41.047      -15.697       49.294       48.154       29.315     2429.925     2318.810      859.394        0.941        0.280      113.872       25.099        0.049      331.280       -0.806      850.783
12/28/2021  16:25:00       99.408       79.540      -24.360       42.728       28.846       24.418     1825.719      832.079      596.228        1.003        0.163      127.313       15.615        0.015      331.189       -0.955      850.796
12/28/2021  16:26:00       97.638       67.360       -9.897       41.296       33.595       25.556     1705.339     1128.635      653.096        0.883        0.174      118.619       21.870        0.034      331.204       -0.931      850.814
12/28/2021  16:27:00      124.956       69.493      -17.520       47.092       27.066       14.151     2217.642      732.549      200.255        1.195        0.158      142.980       13.970        0.010      331.156       -1.012      850.829
12/28/2021  16:28:00      111.040       13.334       -5.065       50.744       28.503       25.911     2574.980      812.436      671.398        0.830        0.203      111.837       20.454        0.033      331.206       -0.929      850.841
12/28/2021  16:29:00       42.508       41.556       -7.405       44.956       29.000       21.617     2021.076      841.018      467.315        0.346        0.166       59.446       22.551        0.144      331.234       -0.881      850.865
12/28/2021  16:30:00       83.456       70.382      -16.191       45.103       25.519       19.226     2034.296      651.210      369.625        0.762        0.153      109.172       19.427        0.032      331.115       -1.078      850.876
12/28/2021  16:31:00      102.377       47.560      -19.897       28.016       22.713       17.517      784.871      515.895      306.856        0.737        0.080      112.885        5.126        0.002      331.120       -1.069      850.874
12/28/2021  16:32:00      117.404       39.874      -13.413       55.102       36.619       23.728     3036.279     1340.932      563.011        1.025        0.247      123.991       21.488        0.030      331.131       -1.051      850.863
12/28/2021  16:33:00      127.871       36.747      -18.172       31.007       28.638       15.513      961.414      820.116      240.668        1.003        0.101      133.046       10.333        0.006      331.106       -1.094      850.840
12/28/2021  16:34:00      129.746       26.284      -18.698       64.827       39.535       20.996     4202.482     1563.002      440.820        1.204        0.310      132.381       14.426        0.012      331.169       -0.990      850.819
12/28/2021  16:35:00      187.013       28.749      -21.628       57.667       47.467       32.597     3325.442     2253.139     1062.593        2.145        0.332      189.210       23.174        0.015      331.165       -0.998      850.792
12/28/2021  16:36:00      190.790       47.483      -25.843       53.479       51.130       25.909     2860.027     2614.260      671.274        2.273        0.307      196.610       13.154        0.004      331.108       -1.094      850.795
12/28/2021  16:37:00      145.629       52.836      -16.256       40.794       39.075       27.759     1664.147     1526.875      770.538        1.411        0.198      154.917       13.684        0.008      331.063       -1.165      850.811
12/28/2021  16:38:00      121.481       15.810      -10.227       53.068       38.517       28.688     2816.212     1483.567      823.019        1.012        0.256      122.505       29.633        0.059      331.059       -1.171      850.837
12/28/2021  16:39:00      145.797       42.909      -15.098       43.535       29.513       19.467     1895.316      871.020      378.979        1.324        0.157      151.980       10.698        0.005      331.012       -1.252      850.859
12/28/2021  16:40:00      151.731       18.855       -5.557       49.165       35.980       24.985     2417.236     1294.544      624.228        1.387        0.217      152.898       21.275        0.019      331.001       -1.269      850.872
12/28/2021  16:41:00      108.789       17.967      -17.571       38.604       37.781       23.646     1490.274     1427.435      559.141        0.797        0.174      110.263       20.268        0.034      331.037       -1.206      850.876
12/28/2021  16:42:00      111.691       51.178      -20.506       43.263       33.372       24.648     1871.703     1113.659      607.502        0.955        0.180      122.858       14.927        0.015      331.020       -1.236      850.888
12/28/2021  16:43:00       69.109       28.438       -8.084       31.372       29.588       19.214      984.226      875.433      369.192        0.394        0.111       74.731        4.092        0.003      331.086       -1.125      850.906
12/28/2021  16:44:00      114.257       43.163       -7.943       40.983       28.906       18.617     1679.589      835.542      346.592        0.892        0.143      122.138       13.480        0.012      331.060       -1.170      850.906
12/28/2021  16:45:00       98.536       51.378      -23.355       31.718       31.042       25.636     1006.031      963.595      657.228        0.776        0.131      111.126       17.957        0.026      331.044       -1.195      850.911
12/28/2021  16:46:00      124.868       51.413      -19.680       40.872       38.292       25.134     1670.515     1466.244      631.712        1.119        0.188      135.038       13.073        0.009      331.006       -1.258      850.905
12/28/2021  16:47:00       73.211       59.557      -14.928       40.477       27.509       21.333     1638.418      756.733      455.103        0.599        0.143       94.376       21.616        0.052      330.980       -1.301      850.906
12/28/2021  16:48:00       94.136       68.725      -25.789       34.235       30.815       17.841     1172.037      949.565      318.295        0.834        0.122      116.554       12.996        0.012      331.006       -1.259      850.905
12/28/2021  16:49:00       65.036       32.376      -11.940       17.537       17.827       14.476      307.547      317.790      209.558        0.313        0.042       72.649        4.790        0.004      330.990       -1.283      850.905
12/28/2021  16:50:00       83.627       41.737      -18.388       30.041       23.745       19.492      902.461      563.838      379.925        0.546        0.092       93.464       10.228        0.012      330.999       -1.270      850.901
12/28/2021  16:51:00       81.996       53.451      -20.353       30.743       37.224       24.352      945.136     1385.632      593.004        0.646        0.146       97.879       11.501        0.014      331.049       -1.189      850.876
12/28/2021  16:52:00       84.926       19.443      -18.103       59.136       45.607       23.957     3497.122     2079.990      573.955        0.703        0.308       87.124       22.014        0.064      331.095       -1.110      850.846
12/28/2021  16:53:00      120.520       37.978      -20.457       71.267       52.927       26.527     5078.940     2801.309      703.688        1.248        0.429      126.362       20.956        0.028      331.041       -1.201      850.817
12/28/2021  16:54:00      217.391       87.529      -19.739       54.810       40.882       30.181     3004.088     1671.352      910.889        3.045        0.279      234.351       14.190        0.004      330.894       -1.444      850.792
12/28/2021  16:55:00      187.646       47.278      -13.245       54.799       44.678       33.941     3002.940     1996.150     1152.016        2.189        0.308      193.511       21.419        0.012      330.914       -1.410      850.776
12/28/2021  16:56:00      145.765       38.833      -19.934       67.938       53.072       26.560     4615.539     2816.606      705.408        1.564        0.407      150.849       29.140        0.037      330.943       -1.361      850.788
12/28/2021  16:57:00      165.094       60.732      -17.072       65.653       37.660       27.127     4310.291     1418.299      735.863        1.885        0.323      175.911       23.690        0.018      330.911       -1.414      850.807
12/28/2021  16:58:00      165.925       39.954      -16.563       69.364       50.723       30.728     4811.363     2572.868      944.228        1.886        0.416      170.667       28.866        0.029      330.967       -1.321      850.820
12/28/2021  16:59:00      141.045       12.571      -21.751       59.037       48.654       24.164     3485.347     2367.176      583.901        1.348        0.322      141.604       24.716        0.030      330.977       -1.305      850.827
12/28/2021  17:00:00       89.301       15.641       -4.366       58.213       30.844       28.074     3388.789      951.344      788.126        0.668        0.256       90.660       19.726        0.047      330.926       -1.389      850.833
12/28/2021  17:01:00       59.837       -6.572       -7.799       51.566       49.953       29.441     2659.055     2495.323      866.787        0.485        0.301       60.197       23.750        0.156      330.980       -1.300      850.831
12/28/2021  17:02:00      110.819       -5.470       -6.181       57.782       36.256       29.548     3338.787     1314.506      873.083        0.894        0.276      110.954       27.054        0.059      330.958       -1.338      850.834
12/28/2021  17:03:00      121.544       20.967      -20.128       39.746       35.078       17.448     1579.743     1230.501      304.417        0.937        0.156      123.339       15.567        0.016      330.937       -1.371      850.835
12/28/2021  17:04:00       87.535       19.707       -5.082       40.456       40.151       26.100     1636.666     1612.086      681.205        0.600        0.196       89.726       18.828        0.044      330.979       -1.301      850.812
12/28/2021  17:05:00      165.098       55.871      -21.604       36.588       40.959       26.162     1338.702     1677.659      684.460        1.727        0.185      174.295       12.572        0.005      330.894       -1.441      850.806
12/28/2021  17:06:00      132.424       25.499      -18.576       30.599       24.080       20.259      936.299      579.854      410.430        1.023        0.096      134.857       12.604        0.009      330.892       -1.444      850.803
12/28/2021  17:07:00      110.786        5.982      -13.707       21.423       17.579       15.085      458.952      309.006      227.566        0.675        0.050      110.947        7.935        0.005      330.900       -1.430      850.801
12/28/2021  17:08:00       77.320      -12.929       -5.365       47.665       39.510       36.057     2271.908     1561.072     1300.118        0.565        0.257       78.393       28.912        0.136      330.975       -1.309      850.806
12/28/2021  17:09:00       71.098       12.135      -15.105       51.811       44.772       26.729     2684.347     2004.570      714.450        0.542        0.270       72.126       15.804        0.048      330.935       -1.374      850.819
12/28/2021  17:10:00       42.722       -6.911       -3.391       47.907       33.598       28.295     2295.116     1128.800      800.590        0.305        0.211       43.278       20.840        0.232      331.048       -1.188      850.837
12/28/2021  17:11:00       78.604       37.669       -9.085       44.588       30.131       26.081     1988.054      907.889      680.216        0.563        0.179       87.164       27.875        0.102      331.017       -1.240      850.845
12/28/2021  17:12:00       85.875        9.114      -15.285       42.114       32.753       22.924     1773.563     1072.742      525.511        0.553        0.169       86.358       15.303        0.031      330.958       -1.337      850.850
12/28/2021  17:13:00       70.056       51.056      -19.754       31.222       37.693       17.772      974.822     1420.765      315.834        0.531        0.136       86.687       10.708        0.015      330.919       -1.399      850.842
12/28/2021  17:14:00       64.856        5.407       -4.725       55.277       48.887       27.438     3055.589     2389.923      752.830        0.523        0.310       65.081       24.727        0.144      330.957       -1.339      850.828
12/28/2021  17:15:00       99.537       10.541      -17.853       63.622       36.437       24.873     4047.766     1327.640      618.671        0.816        0.300      100.094       20.137        0.040      330.947       -1.354      850.808
12/28/2021  17:16:00       86.567       17.157       -7.541       71.416       33.816       24.650     5100.204     1143.547      607.617        0.735        0.343       88.251       19.336        0.048      330.930       -1.382      850.794
12/28/2021  17:17:00      120.118       34.634      -13.954       27.535       26.058       15.170      758.176      679.042      230.119        0.874        0.083      125.011        8.233        0.004      330.863       -1.493      850.795
12/28/2021  17:18:00       78.127       23.563       -6.677       39.930       35.254       26.809     1594.397     1242.871      718.701        0.513        0.178       81.603       17.299        0.045      330.897       -1.437      850.797
12/28/2021  17:19:00      155.184       58.702       -9.655       39.962       22.656       18.730     1596.990      513.274      350.818        1.504        0.123      165.915       17.020        0.011      330.865       -1.488      850.806
12/28/2021  17:20:00      114.269       26.751      -14.298       49.262       31.661       24.700     2426.733     1002.421      610.090        0.901        0.202      117.359       13.954        0.014      330.967       -1.320      850.810
12/28/2021  17:21:00       67.860       51.089      -14.242       30.093       20.315       17.813      905.564      412.711      317.287        0.453        0.082       84.941       13.714        0.026      330.948       -1.352      850.811
12/28/2021  17:22:00       65.153       48.509      -21.468       28.814       33.209       14.851      830.230     1102.857      220.551        0.461        0.108       81.229        8.900        0.012      331.004       -1.261      850.801
12/28/2021  17:23:00       75.148       35.724      -14.127       55.123       31.066       23.124     3038.587      965.117      534.700        0.583        0.227       83.207       21.518        0.067      330.932       -1.379      850.793
12/28/2021  17:24:00       80.077       85.703      -17.414       33.816       36.212       22.561     1143.503     1311.336      508.995        0.851        0.148      117.292       19.683        0.028      330.921       -1.397      850.794
12/28/2021  17:25:00      112.415       88.307      -22.351       42.129       34.553       26.491     1774.811     1193.879      701.775        1.230        0.184      142.952       21.975        0.024      330.878       -1.467      850.803
12/28/2021  17:26:00       69.721       53.603       -5.168       45.144       31.522       23.006     2037.988      993.645      529.270        0.566        0.178       87.945       13.404        0.023      330.890       -1.448      850.809
12/28/2021  17:27:00       37.013       32.802       -7.734       48.274       26.317       28.690     2330.382      692.593      823.119        0.318        0.192       49.456       28.011        0.321      330.979       -1.304      850.817
12/28/2021  17:28:00       78.591       50.132      -14.456       45.531       31.828       23.469     2073.112     1013.018      550.775        0.627        0.182       93.219       20.346        0.048      330.907       -1.420      850.838
12/28/2021  17:29:00      105.423       42.389      -11.079       28.065       26.599       22.608      787.638      707.527      511.138        0.752        0.100      113.626       15.937        0.020      330.896       -1.438      850.852
12/28/2021  17:30:00       57.268       43.138      -11.486       28.280       24.545       20.158      799.768      602.459      406.328        0.354        0.090       71.697       13.037        0.033      330.928       -1.388      850.858
12/28/2021  17:31:00       31.923       29.495      -12.420       27.173       31.416       22.804      738.375      986.964      520.019        0.214        0.112       43.463       18.588        0.183      330.982       -1.296      850.864
12/28/2021  17:32:00       80.527       40.878      -16.589       24.175       24.006       19.551      584.441      576.289      382.233        0.499        0.077       90.308        9.350        0.011      330.931       -1.381      850.873
12/28/2021  17:33:00       28.789       59.816       -6.507       22.793       22.209       16.582      519.543      493.227      274.956        0.287        0.064       66.383       11.820        0.032      330.995       -1.275      850.873
12/28/2021  17:34:00       43.696       72.391       -3.079       31.197       42.752       22.981      973.278     1827.733      528.122        0.524        0.166       84.556       19.013        0.051      330.972       -1.313      850.870
12/28/2021  17:35:00       72.589       54.369      -15.575       38.721       40.397       26.335     1499.305     1631.938      693.548        0.615        0.191       90.693       19.898        0.048      330.923       -1.394      850.865
12/28/2021  17:36:00       92.051       54.063      -12.008       33.331       27.751       19.779     1110.927      770.101      391.209        0.691        0.114      106.753       15.744        0.022      330.876       -1.469      850.862
12/28/2021  17:37:00       70.559       44.794      -18.235       24.763       17.779       14.910      613.186      316.103      222.314        0.423        0.058       83.577        6.903        0.007      330.903       -1.426      850.863
12/28/2021  17:38:00       94.475       18.832      -18.429       35.448       34.351       23.371     1256.545     1179.993      546.201        0.630        0.149       96.334        6.808        0.005      330.916       -1.406      850.863
12/28/2021  17:39:00       93.177       34.742       -9.910       43.070       25.556       16.846     1855.025      653.092      283.786        0.639        0.140       99.443       16.407        0.027      330.862       -1.493      850.864
12/28/2021  17:40:00       66.166       47.485       -5.451       40.411       20.774       21.431     1633.044      431.576      459.279        0.459        0.126       81.442       18.905        0.054      330.925       -1.389      850.869
12/28/2021  17:41:00       52.712       45.709       -5.018       29.211       21.766       22.374      853.281      473.764      500.585        0.336        0.091       69.770       20.646        0.088      330.871       -1.477      850.878
12/28/2021  17:42:00       81.614       54.209      -11.905       39.311       22.644       17.935     1545.354      512.741      321.665        0.606        0.119       97.976       18.863        0.037      330.853       -1.507      850.875
12/28/2021  17:43:00       70.285       57.726      -14.383       32.236       23.237       16.697     1039.148      539.936      278.788        0.517        0.093       90.952       16.413        0.033      330.891       -1.447      850.875
12/28/2021  17:44:00       71.723       52.388      -15.034       34.053       32.016       21.350     1159.634     1025.034      455.817        0.538        0.132       88.819       19.097        0.046      330.865       -1.488      850.883
12/28/2021  17:45:00       67.960       87.689      -12.379       36.640       33.458       22.563     1342.475     1119.448      509.077        0.772        0.149      110.941       22.253        0.040      330.920       -1.398      850.895
12/28/2021  17:46:00       90.131       23.532      -18.546       27.153       43.047       15.845      737.281     1853.024      251.062        0.593        0.142       93.152       12.249        0.017      330.859       -1.498      850.905
12/28/2021  17:47:00       60.204       15.800      -15.381       23.931       32.492       16.148      572.706     1055.729      260.743        0.300        0.094       62.243       10.404        0.028      330.892       -1.444      850.896
12/28/2021  17:48:00       33.704       35.460      -14.881       29.167       33.190       15.775      850.689     1101.599      248.841        0.241        0.110       48.922        8.198        0.028      330.985       -1.292      850.864
12/28/2021  17:49:00       81.773        9.878      -12.324       43.706       27.787       23.484     1910.250      772.112      551.493        0.508        0.162       82.368       12.800        0.024      330.946       -1.357      850.842
12/28/2021  17:50:00       59.772       29.479       -9.182       38.219       25.870       21.145     1460.720      669.265      447.095        0.355        0.129       66.646       14.416        0.047      330.883       -1.457      850.839
12/28/2021  17:51:00       45.621       27.370       -8.160       25.036       25.655       11.450      626.778      658.187      131.094        0.216        0.071       53.202        6.295        0.014      330.883       -1.459      850.860
12/28/2021  17:52:00        3.423       13.678      -16.999       17.508       17.841       14.192      306.530      318.286      201.416        0.066        0.041       14.100        3.306        0.055      330.873       -1.475      850.880
12/28/2021  17:53:00       29.812       24.752       -2.483       13.407       12.640       11.972      179.749      159.765      143.327        0.100        0.024       38.748        6.034        0.024      330.863       -1.492      850.902
12/28/2021  17:54:00       33.452       43.695       -7.078       17.783       15.635       14.764      316.252      244.456      217.969        0.193        0.039       55.030       12.257        0.050      330.901       -1.431      850.915
12/28/2021  17:55:00       41.528       42.483       -5.332       27.504       18.327       13.795      756.448      335.877      190.301        0.242        0.064       59.408        3.631        0.004      330.937       -1.371      850.916
12/28/2021  17:56:00       36.200       40.751       -7.206       24.346       18.483       15.649      592.739      341.621      244.902        0.210        0.059       54.508       11.344        0.043      330.886       -1.453      850.930
12/28/2021  17:57:00       51.829       43.391      -10.410       14.810       16.581       15.176      219.326      274.922      230.301        0.270        0.036       67.595       11.925        0.031      330.884       -1.458      850.929
12/28/2021  17:58:00       70.277       22.081      -15.198       31.063       28.807       15.112      964.937      829.822      228.385        0.384        0.101       73.664       13.107        0.032      330.979       -1.303      850.919
12/28/2021  17:59:00      103.373       29.877      -12.063       35.499       24.920       17.053     1260.187      620.989      290.810        0.695        0.109      107.604       14.982        0.019      330.875       -1.472      850.913
12/28/2021  18:00:00       95.039       36.830      -11.837       20.205       21.549       16.884      408.234      464.354      285.083        0.584        0.058      101.925        9.127        0.008      330.832       -1.542      850.917
12/28/2021  18:01:00       47.851       38.044      -10.215       35.080       32.634       14.614     1230.586     1064.947      213.556        0.317        0.125       61.132       10.848        0.031      330.874       -1.474      850.916
12/28/2021  18:02:00       45.681       98.347       -9.042       30.817       29.957       19.184      949.694      897.395      368.033        0.703        0.111      108.439       11.882        0.012      330.984       -1.292      850.903
12/28/2021  18:03:00       58.510       70.890      -13.615       24.432       27.237       18.905      596.941      741.866      357.401        0.516        0.085       91.918       14.490        0.025      330.915       -1.407      850.898
12/28/2021  18:04:00       43.158       51.395      -10.320       35.682       28.040       19.166     1273.184      786.229      367.324        0.352        0.121       67.112       13.415        0.040      330.925       -1.390      850.900
12/28/2021  18:05:00       33.329       44.051       -5.292       22.168       24.156       17.916      491.439      583.525      320.993        0.224        0.070       55.239        6.504        0.014      330.926       -1.388      850.900
12/28/2021  18:06:00       37.120       38.922       -2.656       25.322       25.745       15.223      641.215      662.830      231.729        0.222        0.077       53.785        9.910        0.034      330.852       -1.510      850.888
12/28/2021  18:07:00       15.644       22.156        3.388       15.436       23.048       14.414      238.277      531.219      207.757        0.086        0.049       27.122       12.471        0.211      330.892       -1.444      850.878
12/28/2021  18:08:00       27.217       51.129       -9.468       13.317       17.129       14.455      177.331      293.388      208.949        0.206        0.034       57.921        8.488        0.021      330.853       -1.508      850.867
12/28/2021  18:09:00       15.313       74.168       -7.573       27.433       27.511       15.090      752.566      756.868      227.705        0.376        0.087       75.733       13.510        0.032      330.928       -1.386      850.861
12/28/2021  18:10:00       46.591      128.312      -24.366       21.096       19.345       19.323      445.021      374.229      373.377        1.021        0.060      136.508        5.597        0.002      330.959       -1.336      850.871
12/28/2021  18:11:00       48.648       86.483      -13.391       34.772       28.061       19.704     1209.083      787.428      388.246        0.620        0.119       99.227       11.224        0.013      330.864       -1.491      850.868
12/28/2021  18:12:00       60.376       74.774       -7.990       37.065       32.949       20.721     1373.818     1085.624      429.361        0.609        0.144       96.106       16.321        0.029      330.899       -1.433      850.863
12/28/2021  18:13:00       76.836       53.282      -16.690       29.229       23.908       16.834      854.315      571.595      283.396        0.537        0.085       93.503       12.014        0.017      330.786       -1.618      850.867
12/28/2021  18:14:00      102.697       26.350      -22.657       41.830       37.635       25.129     1749.713     1416.382      631.469        0.778        0.190      106.024       17.810        0.028      330.816       -1.568      850.861
12/28/2021  18:15:00       69.439       36.120      -19.275       35.906       40.756       31.701     1289.206     1661.089     1004.984        0.523        0.198       78.271       17.445        0.050      330.934       -1.375      850.856
12/28/2021  18:16:00      103.621       47.523      -20.814       31.733       34.863       18.761     1006.957     1215.458      351.958        0.800        0.129      113.999       10.638        0.009      330.802       -1.591      850.835
12/28/2021  18:17:00       74.750       48.333      -22.326       28.947       29.458       23.136      837.934      867.786      535.294        0.533        0.112       89.015       16.753        0.035      330.768       -1.648      850.825
12/28/2021  18:18:00       93.365       40.281      -13.603       31.554       26.170       16.292      995.651      684.857      265.421        0.623        0.097      101.683        7.411        0.005      330.701       -1.755      850.810
12/28/2021  18:19:00       66.902       29.801       -8.181       23.869       21.939       17.530      569.712      481.313      307.305        0.339        0.068       73.239       15.475        0.045      330.771       -1.643      850.795
12/28/2021  18:20:00       50.849       14.386       -7.211       29.349       22.502       14.242      861.353      506.331      202.841        0.221        0.079       52.845        9.881        0.035      330.762       -1.656      850.788
12/28/2021  18:21:00       23.882       57.840       -2.993       25.816       31.152       23.471      666.481      970.444      550.896        0.306        0.109       62.576       18.013        0.083      330.851       -1.512      850.788
12/28/2021  18:22:00       26.473       38.902        1.153       28.973       26.807       19.405      839.455      718.625      376.558        0.207        0.097       47.055       12.827        0.074      330.819       -1.564      850.789
12/28/2021  18:23:00       59.739       64.409       -3.210       35.343       37.395       25.396     1249.109     1398.374      644.933        0.551        0.165       87.848       19.516        0.049      330.780       -1.626      850.799
12/28/2021  18:24:00       29.493       77.914        3.156       28.614       56.537       26.710      818.774     3196.420      713.435        0.584        0.236       83.309       25.139        0.091      330.787       -1.616      850.803
12/28/2021  18:25:00       38.101       50.669       -8.838       30.650       22.007       17.361      939.446      484.306      301.394        0.291        0.086       63.396        5.360        0.007      330.756       -1.667      850.808
12/28/2021  18:26:00       41.458      101.511       -8.311       31.039       50.764       24.296      963.426     2576.943      590.289        0.811        0.207      109.651       24.339        0.049      330.788       -1.615      850.810
12/28/2021  18:27:00       43.543       84.439       -4.070       38.847       27.544       28.010     1509.083      758.695      784.575        0.605        0.153       95.005       23.371        0.061      330.791       -1.609      850.828
12/28/2021  18:28:00       31.478       84.538       -7.552       27.797       30.787       19.782      772.675      947.841      391.328        0.515        0.106       90.209       12.147        0.018      330.836       -1.538      850.839
12/28/2021  18:29:00        8.785       71.453      -12.108       39.789       23.527       19.324     1583.196      553.525      373.410        0.392        0.126       71.991       12.190        0.029      330.796       -1.601      850.839
12/28/2021  18:30:00      -12.104       31.432        0.145       26.723       23.231       15.105      714.136      539.700      228.167        0.131        0.074       33.682        9.940        0.087      330.841       -1.527      850.828
12/28/2021  18:31:00       63.231       30.930      -10.558       21.963       18.704       17.627      482.372      349.841      310.694        0.310        0.057       70.390       12.392        0.031      330.726       -1.714      850.821
12/28/2021  18:32:00       33.452       42.432       -3.598       22.648       35.492       17.654      512.911     1259.658      311.653        0.251        0.104       54.032       13.649        0.064      330.755       -1.667      850.834
12/28/2021  18:33:00       44.906       34.121       -3.031       35.277       19.869       19.082     1244.458      394.761      364.127        0.260        0.100       56.398       15.871        0.079      330.725       -1.719      850.851
12/28/2021  18:34:00       66.272       22.182      -10.525       18.185       19.192       11.759      330.699      368.346      138.265        0.292        0.042       69.886        4.607        0.004      330.677       -1.793      850.862
12/28/2021  18:35:00       37.643       12.189       -8.493       16.850       13.294       11.706      283.918      176.725      137.035        0.112        0.030       39.567        4.885        0.015      330.766       -1.649      850.862
12/28/2021  18:36:00       25.986       37.416       -5.437       23.638       19.946       20.554      558.736      397.850      422.453        0.174        0.069       45.555       14.628        0.103      330.748       -1.681      850.863
12/28/2021  18:37:00       19.538       26.531       -0.005       29.759       16.044       22.289      885.594      257.406      496.779        0.136        0.082       32.949       12.000        0.133      330.763       -1.654      850.867
12/28/2021  18:38:00       36.942       26.959      -11.304       17.190        9.463       12.728      295.484       89.545      161.998        0.138        0.027       45.733        6.703        0.021      330.683       -1.785      850.871
12/28/2021  18:39:00       59.856       50.689      -11.656       16.615       15.613       17.844      276.055      243.751      318.393        0.356        0.042       78.435       14.144        0.033      330.665       -1.815      850.882
12/28/2021  18:40:00       55.150       31.794      -11.955       11.890       18.240        9.740      141.361      332.708       94.861        0.238        0.028       63.658        8.668        0.019      330.653       -1.836      850.888
12/28/2021  18:41:00       21.494       12.317       -6.938       18.508       16.347       14.897      342.544      267.228      221.911        0.075        0.042       24.773        7.156        0.083      330.721       -1.722      850.896
12/28/2021  18:42:00        9.520       13.797       -1.797       12.983       15.059        7.391      168.564      226.788       54.631        0.037        0.022       16.763        2.656        0.025      330.803       -1.589      850.894
12/28/2021  18:43:00       31.359       25.190       -9.399       15.543       10.166       11.610      241.583      103.340      134.790        0.109        0.024       40.224        7.948        0.039      330.782       -1.624      850.903
12/28/2021  18:44:00       40.461       30.540       -8.958       22.044       10.418        9.569      485.948      108.536       91.572        0.167        0.034       50.693        7.265        0.021      330.718       -1.730      850.914
12/28/2021  18:45:00       74.596       32.803       -8.754        9.365        9.888        9.288       87.710       97.766       86.267        0.349        0.014       81.490        4.313        0.003      330.700       -1.760      850.915
12/28/2021  18:46:00       48.459       30.642       -8.051       18.971       15.808       10.163      359.916      249.902      103.287        0.203        0.036       57.335        7.259        0.016      330.729       -1.710      850.907
12/28/2021  18:47:00       49.132       43.767      -21.798        8.989        7.052       10.362       80.809       49.728      107.381        0.252        0.012       65.799        7.428        0.013      330.708       -1.742      850.903
12/28/2021  18:48:00       10.093       36.486      -15.315       18.061        8.652       12.056      326.194       74.861      145.359        0.111        0.027       37.856        7.472        0.039      330.782       -1.623      850.910
12/28/2021  18:49:00       13.569       24.298       -7.598       22.275       15.485       15.656      496.171      239.799      245.112        0.091        0.049       27.830        9.895        0.126      330.767       -1.648      850.921
12/28/2021  18:50:00       10.917       43.069      -13.818       14.596       16.511       11.567      213.029      272.602      133.802        0.139        0.031       44.431        6.648        0.022      330.830       -1.545      850.924
12/28/2021  18:51:00      -55.244       46.945      -16.750       24.593       13.630       15.167      604.809      185.765      230.035        0.328        0.051       72.497        7.855        0.012      330.950       -1.350      850.917
12/28/2021  18:52:00     -113.171       46.831      -18.870       51.942       29.106       21.395     2697.952      847.172      457.735        0.968        0.200      122.478       22.514        0.034      330.777       -1.632      850.910
12/28/2021  18:53:00        7.647       -3.420       -1.182       60.002       34.171       26.749     3600.267     1167.662      715.533        0.278        0.274        8.377       29.926       12.761      330.775       -1.636      850.894
12/28/2021  18:54:00       31.321      -37.921      -12.100       28.383       27.082       24.290      805.614      733.449      590.020        0.235        0.106       49.184        9.431        0.037      330.799       -1.595      850.886
12/28/2021  18:55:00      -12.160      -15.655       -5.146       21.183       30.285       22.078      448.726      917.203      487.441        0.114        0.093       19.823       11.166        0.317      330.816       -1.568      850.877
12/28/2021  18:56:00       -1.316      -17.870       -9.834       10.530       18.220       11.882      110.889      331.979      141.173        0.050        0.029       17.919        5.299        0.087      330.804       -1.589      850.862
12/28/2021  18:57:00        1.780       30.212       -3.129       14.945       29.750       13.065      223.339      885.070      170.702        0.110        0.064       30.264       12.334        0.166      330.821       -1.560      850.844
12/28/2021  18:58:00       -5.093       53.221       -3.850       25.168       21.198       15.234      633.439      449.355      232.081        0.209        0.066       53.464        8.598        0.026      330.819       -1.562      850.825
12/28/2021  18:59:00       -3.203       27.358       -5.179       23.297       18.670       11.080      542.760      348.584      122.775        0.090        0.051       27.545       11.005        0.160      330.766       -1.649      850.817
12/28/2021  19:00:00      -25.571       53.782       -7.215       29.883       21.642       14.299      892.978      468.358      204.475        0.258        0.078       59.552       13.912        0.055      330.846       -1.520      850.823
12/28/2021  19:01:00      -58.841       58.445      -15.322       23.187       21.111       14.974      537.620      445.669      224.216        0.416        0.060       82.935       10.552        0.016      330.809       -1.580      850.825
12/28/2021  19:02:00      -78.362       29.691      -10.817       23.009       29.308       14.723      529.425      858.950      216.765        0.437        0.080       83.798        7.276        0.008      330.836       -1.536      850.832
12/28/2021  19:03:00      -46.574       49.889      -13.834       20.919       19.445       19.582      437.590      378.093      383.457        0.302        0.060       68.250       14.795        0.047      330.911       -1.413      850.844
12/28/2021  19:04:00      -60.130       34.688      -26.718       26.537       32.818       24.172      704.214     1077.022      584.264        0.395        0.118       69.418       12.703        0.033      330.894       -1.441      850.862
12/28/2021  19:05:00      -70.897       12.419      -12.625       38.250       33.455       17.496     1463.095     1119.218      306.102        0.411        0.144       71.976       13.377        0.035      330.817       -1.566      850.858
12/28/2021  19:06:00      -43.635        2.690      -12.586       37.662       34.376       20.405     1418.392     1181.730      416.346        0.254        0.151       43.718       17.642        0.163      330.903       -1.427      850.853
12/28/2021  19:07:00       12.044       14.390       -9.392       33.746       31.105       13.530     1138.818      967.528      183.050        0.136        0.114       18.765       10.133        0.292      330.823       -1.556      850.833
12/28/2021  19:08:00       50.353       40.922      -17.678       41.146       36.135       22.946     1693.021     1305.704      526.496        0.402        0.176       64.885       18.381        0.080      330.828       -1.549      850.817
12/28/2021  19:09:00       53.785       42.564      -12.591       36.068       38.443       17.325     1300.886     1477.894      300.172        0.397        0.154       68.589       12.210        0.032      330.767       -1.649      850.805
12/28/2021  19:10:00       43.456       32.472      -16.077       21.131       24.445       16.859      446.521      597.534      284.219        0.226        0.066       54.248       10.903        0.040      330.759       -1.662      850.813
12/28/2021  19:11:00       56.361       11.695      -11.465       14.170       12.691        8.676      200.790      161.062       75.275        0.194        0.022       57.562        3.406        0.004      330.744       -1.687      850.820
12/28/2021  19:12:00       24.786       13.318        1.417       22.571        9.611        6.865      509.457       92.378       47.129        0.072        0.032       28.138        8.801        0.098      330.732       -1.705      850.834
12/28/2021  19:13:00        9.272       19.299       -9.414        9.835        9.902        8.498       96.733       98.052       72.212        0.041        0.013       21.411        3.110        0.021      330.781       -1.627      850.840
12/28/2021  19:14:00        1.629       20.173        3.335       11.599       18.800        8.968      134.533      353.450       80.427        0.049        0.028       20.239        8.187        0.164      330.847       -1.518      850.839
12/28/2021  19:15:00       18.073       35.247       -2.947       13.337       13.647       11.310      177.883      186.229      127.913        0.103        0.025       39.610        8.605        0.047      330.836       -1.537      850.835
12/28/2021  19:16:00       13.704       32.805       -4.390       20.424       22.345       17.454      417.148      499.280      304.628        0.125        0.061       35.552        6.863        0.037      330.870       -1.481      850.829
12/28/2021  19:17:00       -1.049       36.746       -0.354       23.339       18.804       15.915      544.692      353.583      253.276        0.125        0.058       36.761       11.843        0.104      330.928       -1.385      850.833
12/28/2021  19:18:00        2.175       31.211       -6.975       16.409       15.818       11.638      269.249      250.203      135.450        0.084        0.033       31.286        7.956        0.065      330.869       -1.482      850.827
12/28/2021  19:19:00       18.546       37.152       -8.059       15.321       15.317       15.858      234.737      234.596      251.474        0.125        0.036       41.524        7.581        0.033      330.827       -1.549      850.824
12/28/2021  19:20:00       42.116       29.264       -1.118       30.502       16.619       22.295      930.355      276.199      497.055        0.217        0.085       51.285       21.673        0.179      330.756       -1.670      850.826
12/28/2021  19:21:00       31.894       13.139      -12.850       22.442       25.285       19.033      503.640      639.306      362.239        0.143        0.075       34.495       13.803        0.160      330.780       -1.627      850.836
12/28/2021  19:22:00       29.123       16.752      -17.649       21.784       15.451       13.680      474.531      238.748      187.140        0.117        0.045       33.597        9.545        0.081      330.812       -1.576      850.839
12/28/2021  19:23:00       27.954       30.092       -6.751       15.437       14.469       15.128      238.297      209.364      228.853        0.120        0.034       41.072        6.422        0.024      330.784       -1.620      850.837
12/28/2021  19:24:00       20.212       34.045       -4.807       24.823       13.890        9.639      616.174      192.933       92.910        0.125        0.045       39.592        9.740        0.061      330.795       -1.602      850.833
12/28/2021  19:25:00      -27.107       34.196      -17.922       29.048       15.816       13.422      843.781      250.132      180.140        0.175        0.064       43.636        9.287        0.045      330.781       -1.624      850.831
12/28/2021  19:26:00       -2.816       25.438        0.289       30.938       21.999       14.900      957.160      483.975      222.015        0.116        0.083       25.593       10.188        0.158      330.780       -1.628      850.824
12/28/2021  19:27:00       35.774       29.834       -0.043       27.769       20.538       15.565      771.098      421.814      242.262        0.180        0.072       46.582       14.564        0.098      330.749       -1.676      850.823
12/28/2021  19:28:00       54.535       57.834      -12.599       21.098       15.341       16.650      445.143      235.338      277.229        0.372        0.048       79.491       12.599        0.025      330.723       -1.720      850.819
12/28/2021  19:29:00       35.186       37.966       -5.891       25.472       20.143       14.732      648.823      405.752      217.032        0.199        0.064       51.764       12.012        0.054      330.732       -1.706      850.826
12/28/2021  19:30:00       45.384       43.763      -14.743       17.758       12.491       12.282      315.357      156.023      150.837        0.241        0.031       63.047        6.837        0.012      330.729       -1.709      850.837
12/28/2021  19:31:00       48.305       36.455      -13.619       19.330       18.886       19.994      373.641      356.671      399.770        0.249        0.057       60.517       15.407        0.065      330.737       -1.697      850.850
12/28/2021  19:32:00       24.444       34.176       -3.537       22.828       23.085       17.282      521.099      532.921      298.684        0.157        0.068       42.017       14.751        0.123      330.842       -1.524      850.865
12/28/2021  19:33:00       29.729       27.386       -7.074       24.844       14.679       11.788      617.227      215.485      138.963        0.133        0.049       40.421        9.943        0.061      330.777       -1.632      850.877
12/28/2021  19:34:00       53.443       18.961       -7.732       15.817       15.189       10.887      250.186      230.714      118.530        0.194        0.030       56.707        7.106        0.016      330.768       -1.648      850.876
12/28/2021  19:35:00       43.638       18.716      -10.999       13.504       10.015        9.466      182.364      100.297       89.610        0.137        0.019       47.482        3.243        0.005      330.710       -1.741      850.867
12/28/2021  19:36:00      -10.077       35.101       -9.902       16.523       12.573       12.063      273.025      158.076      145.517        0.100        0.029       36.518        9.442        0.067      330.745       -1.684      850.854
12/28/2021  19:37:00      -20.104       29.408      -13.747       14.807       18.989       12.649      219.259      360.579      159.985        0.110        0.037       35.623        6.298        0.031      330.834       -1.537      850.842
12/28/2021  19:38:00      -34.182       11.251      -11.638       16.481       17.040       12.084      271.611      290.377      146.031        0.107        0.035       35.986        5.756        0.026      330.909       -1.417      850.817
12/28/2021  19:39:00      -35.601       27.005       -8.773       17.036       16.145       13.829      290.235      260.648      191.229        0.141        0.037       44.684       10.983        0.060      330.760       -1.660      850.793
12/28/2021  19:40:00      -26.427       30.074       -9.293       15.605       13.219       11.528      243.523      174.735      132.887        0.112        0.028       40.035        5.204        0.017      330.693       -1.769      850.767
12/28/2021  19:41:00       -8.864       24.269       -5.252       19.137        8.808       10.766      366.225       77.582      115.899        0.063        0.028       25.837        8.365        0.105      330.736       -1.699      850.750
12/28/2021  19:42:00        4.329       15.216        0.791       10.555       10.574        6.796      111.400      111.815       46.189        0.026        0.013       15.820        4.652        0.086      330.729       -1.712      850.749
12/28/2021  19:43:00       14.473       15.450       -8.399       12.744       12.993       10.081      162.416      168.821      101.629        0.048        0.022       21.170        3.959        0.035      330.760       -1.663      850.743
12/28/2021  19:44:00        8.750        0.103       -5.751       14.774       18.716       10.887      218.269      350.279      118.530        0.040        0.034        8.751        6.627        0.574      330.833       -1.541      850.733
12/28/2021  19:45:00       24.743      -17.647      -13.853       13.003       16.644       13.889      169.080      277.032      192.892        0.088        0.032       30.391        8.456        0.077      330.878       -1.467      850.720
12/28/2021  19:46:00       16.573        2.549      -24.717       13.418       17.290        9.902      180.039      298.932       98.059        0.073        0.029       16.768        6.194        0.136      330.822       -1.558      850.719
12/28/2021  19:47:00       23.244       -5.548      -17.548       14.354       19.029        8.946      206.049      362.089       80.032        0.076        0.032       23.897        3.059        0.016      330.811       -1.578      850.720
12/28/2021  19:48:00        1.075      -16.498      -10.287        8.762       18.979        7.779       76.776      360.205       60.514        0.044        0.025       16.533        6.196        0.140      330.839       -1.529      850.720
12/28/2021  19:49:00       12.897        7.007       -1.323       13.901       14.854       13.963      193.225      220.631      194.969        0.041        0.030       14.677       10.995        0.561      330.832       -1.543      850.705
12/28/2021  19:50:00        7.744       11.754       13.249       18.791       21.038       17.938      353.109      442.580      321.755        0.075        0.056       14.076       12.081        0.737      330.801       -1.594      850.686
12/28/2021  19:51:00       -0.986       -2.407      -11.997       17.111       20.143       12.265      292.795      405.757      150.437        0.050        0.042        2.601        6.906        7.047      330.770       -1.644      850.688
12/28/2021  19:52:00       30.394       20.726       -9.029       11.070        9.903       11.751      122.555       98.061      138.074        0.090        0.018       36.788        5.275        0.021      330.720       -1.726      850.700
12/28/2021  19:53:00       32.786       12.216       -7.531       24.987       17.510       13.460      624.349      306.586      181.166        0.120        0.056       34.988       10.618        0.092      330.718       -1.729      850.688
12/28/2021  19:54:00       15.375        3.050       -4.024       13.798       23.256        8.113      190.386      540.841       65.828        0.053        0.040       15.674        2.321        0.022      330.782       -1.624      850.662
12/28/2021  19:55:00       30.130       11.884       -4.585       17.276       11.950       10.980      298.448      142.799      120.560        0.082        0.028       32.389        4.317        0.018      330.699       -1.759      850.646
12/28/2021  19:56:00       38.310       14.783      -13.816       13.565        9.248        8.105      184.007       85.521       65.683        0.111        0.017       41.064        5.323        0.017      330.675       -1.796      850.646
12/28/2021  19:57:00       51.360       20.218      -15.307        6.993        9.592        5.485       48.895       92.013       30.080        0.173        0.009       55.196        3.184        0.003      330.665       -1.815      850.655
12/28/2021  19:58:00       54.282       -0.540      -10.214       16.012       16.839        9.766      256.400      283.564       95.366        0.184        0.032       54.285        5.659        0.011      330.712       -1.738      850.651
12/28/2021  19:59:00       18.965       -4.905      -11.153       15.460       27.491       14.438      239.025      755.772      208.446        0.086        0.060       19.589        7.985        0.166      330.770       -1.644      850.653
12/28/2021  20:00:00       15.793        9.423       -5.838       11.147       23.716       11.776      124.262      562.450      138.664        0.060        0.041       18.390       10.654        0.336      330.741       -1.691      850.657
12/28/2021  20:01:00       10.086       -5.337        4.803       16.729       23.489       14.899      279.872      551.724      221.969        0.060        0.053       11.411       13.277        1.354      330.736       -1.700      850.653
12/28/2021  20:02:00       14.917      -19.082       -3.878       23.280       22.331       24.702      541.946      498.694      610.182        0.113        0.083       24.220       18.111        0.559      330.755       -1.668      850.631
12/28/2021  20:03:00       10.843        8.951      -14.821       22.918       30.718       17.765      525.228      943.569      315.599        0.110        0.089       14.060       11.148        0.629      330.728       -1.711      850.612
12/28/2021  20:04:00       45.676       36.091        1.165       30.484       26.465       19.728      929.267      700.386      389.177        0.270        0.101       58.214       17.878        0.094      330.657       -1.829      850.605
12/28/2021  20:05:00       65.895       33.939      -13.764       12.597       15.999        8.493      158.680      255.982       72.127        0.309        0.024       74.122        5.658        0.006      330.662       -1.822      850.595
12/28/2021  20:06:00       71.234       20.152      -15.130        8.089       10.084        8.189       65.431      101.693       67.059        0.297        0.012       74.030        4.930        0.004      330.649       -1.844      850.581
12/28/2021  20:07:00       31.328        0.346       -9.228       24.659       14.966       15.360      608.045      223.991      235.942        0.107        0.053       31.330        9.616        0.094      330.709       -1.744      850.573
12/28/2021  20:08:00       48.061        4.876      -10.447       30.612       25.069       14.711      937.093      628.448      216.413        0.211        0.089       48.308        5.086        0.011      330.686       -1.782      850.573
12/28/2021  20:09:00       42.457        9.473      -10.300       30.851       21.645       10.721      951.810      468.495      114.938        0.177        0.077       43.501        8.192        0.035      330.684       -1.784      850.576
12/28/2021  20:10:00       26.200        9.464       -1.310       31.920       27.384       17.065     1018.883      749.862      291.198        0.142        0.103       27.857       12.753        0.210      330.682       -1.785      850.580
12/28/2021  20:11:00       34.397       10.862       -2.834       26.041       23.113       19.732      678.119      534.213      389.338        0.146        0.080       36.072       12.660        0.123      330.677       -1.796      850.576
12/28/2021  20:12:00       40.277      -10.430       -3.479       27.775       24.878       21.542      771.476      618.932      464.048        0.180        0.093       41.605       13.342        0.103      330.693       -1.770      850.582
12/28/2021  20:13:00       66.283       -2.958       -6.254       23.345       28.529       16.992      544.966      813.930      288.718        0.304        0.082       66.349       15.660        0.056      330.664       -1.816      850.582
12/28/2021  20:14:00       57.357       25.859      -13.040       26.522       30.674       19.576      703.420      940.908      383.220        0.308        0.101       62.917       16.768        0.071      330.675       -1.800      850.575
12/28/2021  20:15:00       45.058       17.349       -1.725       32.650       34.241       18.571     1065.997     1172.436      344.869        0.246        0.129       48.283        2.794        0.003      330.668       -1.810      850.580
12/28/2021  20:16:00       13.475       -9.689        5.762       21.349       18.920       15.540      455.768      357.952      241.503        0.068        0.053       16.596        9.939        0.359      330.717       -1.731      850.587
12/28/2021  20:17:00       22.240       15.632       -2.105       20.448       18.883       15.740      418.130      356.579      247.746        0.088        0.051       27.184       10.649        0.153      330.702       -1.755      850.587
12/28/2021  20:18:00       25.905       -3.212       -6.504       18.427       22.840       12.212      339.563      521.662      149.125        0.087        0.051       26.103        5.950        0.052      330.700       -1.758      850.584
12/28/2021  20:19:00       -3.054      -18.009       -9.557        9.308       18.820       10.704       86.646      354.189      114.567        0.049        0.028       18.266        9.738        0.284      330.684       -1.785      850.574
12/28/2021  20:20:00       27.829      -23.190      -15.085        9.013       16.322       10.339       81.230      266.399      106.898        0.100        0.023       36.225       10.407        0.083      330.702       -1.755      850.549
12/28/2021  20:21:00       19.043      -14.386       -8.404       11.600       10.596       10.346      134.565      112.280      107.040        0.050        0.018       23.866        5.324        0.050      330.708       -1.744      850.524
12/28/2021  20:22:00       -6.563       -3.621       -9.409       19.024       15.765       10.291      361.907      248.527      105.900        0.043        0.036        7.495        7.673        1.048      330.745       -1.684      850.517
12/28/2021  20:23:00      -12.749       -3.255       -0.321       18.351       19.332       13.171      336.747      373.717      173.473        0.053        0.044       13.158        8.253        0.393      330.742       -1.690      850.516
12/28/2021  20:24:00      -16.427       12.581       -9.248        9.884       11.024        6.817       97.689      121.523       46.472        0.039        0.013       20.691        4.674        0.051      330.683       -1.786      850.509
12/28/2021  20:25:00      -11.862       28.110       -9.742       16.081       11.237        9.764      258.610      126.279       95.331        0.075        0.024       30.511        8.381        0.075      330.658       -1.828      850.494
12/28/2021  20:26:00      -20.567       35.347       -9.669       19.857       13.192        9.778      394.290      174.034       95.608        0.121        0.033       40.895        4.606        0.013      330.701       -1.756      850.482
12/28/2021  20:27:00      -23.745       45.675      -15.502       28.557       14.722       12.317      815.480      216.749      151.714        0.204        0.059       51.479        7.962        0.024      330.596       -1.930      850.480
12/28/2021  20:28:00      -61.050       40.156       -7.460       37.352       21.880       21.047     1395.162      478.724      442.979        0.386        0.116       73.072       16.764        0.053      330.598       -1.928      850.487
12/28/2021  20:29:00     -102.186       48.541      -22.078       27.345       26.447       14.770      747.763      699.451      218.163        0.748        0.083      113.129       14.081        0.015      330.536       -2.029      850.498
12/28/2021  20:30:00      -81.046       51.396      -17.244       16.013       20.855       17.019      256.418      434.927      289.633        0.524        0.049       95.969        9.745        0.010      330.531       -2.037      850.504
12/28/2021  20:31:00      -57.917       57.745      -10.154       26.649       23.919       15.745      710.191      572.133      247.905        0.416        0.077       81.785       11.932        0.021      330.498       -2.094      850.494
12/28/2021  20:32:00      -66.377       59.908      -14.417       12.742       11.369       10.860      162.348      129.258      117.931        0.431        0.020       89.414        6.069        0.005      330.509       -2.075      850.489
12/28/2021  20:33:00      -76.953       52.733      -12.197       23.017       14.989       11.458      529.775      224.659      131.276        0.487        0.044       93.287        8.489        0.008      330.548       -2.008      850.472
12/28/2021  20:34:00      -44.031       23.355      -11.886       40.587       21.468       15.068     1647.287      460.891      227.032        0.248        0.117       49.841       16.313        0.107      330.554       -2.001      850.465
12/28/2021  20:35:00      -71.548       30.140      -17.018       34.916       29.454       20.512     1219.112      867.565      420.728        0.441        0.125       77.638       17.632        0.052      330.592       -1.936      850.455
12/28/2021  20:36:00      -74.072       43.549      -17.338       24.953       20.291       12.727      622.653      411.716      161.968        0.444        0.060       85.926        7.232        0.007      330.510       -2.076      850.451
12/28/2021  20:37:00      -59.496       19.490      -16.399       22.617       12.993       13.234      511.528      168.816      175.137        0.252        0.043       62.607        5.093        0.007      330.549       -2.009      850.457
12/28/2021  20:38:00      -32.261       13.714      -10.996       27.784       27.487       18.270      771.931      755.539      333.777        0.161        0.093       35.055        8.000        0.052      330.680       -1.793      850.462
12/28/2021  20:39:00      -29.579        6.328      -12.048       32.521       25.286       20.597     1057.610      639.358      424.254        0.159        0.106       30.248       16.087        0.283      330.700       -1.760      850.480
12/28/2021  20:40:00      -46.963       15.335      -18.451       43.632       16.580       20.932     1903.776      274.908      438.146        0.270        0.131       49.404       23.614        0.228      330.718       -1.729      850.477
12/28/2021  20:41:00      -50.247        6.676       -8.895       30.139       23.449       19.222      908.351      549.876      369.488        0.224        0.091       50.688       17.033        0.113      330.678       -1.794      850.462
12/28/2021  20:42:00      -54.350       28.270       -2.180       29.406       22.819       16.900      864.700      520.723      285.621        0.271        0.084       61.263       12.362        0.041      330.585       -1.949      850.446
12/28/2021  20:43:00      -44.142       46.240       -8.385       26.999       21.416       17.407      728.956      458.646      303.013        0.282        0.075       63.927       15.988        0.063      330.687       -1.779      850.448
12/28/2021  20:44:00      -74.870       46.523      -18.579       23.739       25.982       15.868      563.556      675.073      251.806        0.480        0.075       88.147       14.365        0.027      330.698       -1.761      850.461
12/28/2021  20:45:00      -83.603       45.909      -18.675       30.894       24.605       23.920      954.431      605.382      572.146        0.579        0.107       95.379       17.159        0.032      330.603       -1.919      850.453
12/28/2021  20:46:00      -75.237       34.472      -11.276       23.331       21.447       14.779      544.345      459.972      218.429        0.410        0.061       82.759       10.458        0.016      330.585       -1.948      850.437
12/28/2021  20:47:00      -62.444       41.480       -6.939       36.586       25.439       19.739     1338.566      647.162      389.617        0.402        0.119       74.966       20.591        0.075      330.593       -1.935      850.426
12/28/2021  20:48:00      -54.027       52.139       -2.763       25.430       17.946       15.795      646.708      322.049      249.495        0.343        0.061       75.082       11.449        0.023      330.685       -1.784      850.419
12/28/2021  20:49:00      -19.648      -15.467      -22.400       25.899       26.461       14.379      670.753      700.200      206.748        0.135        0.079       25.005        5.054        0.041      330.682       -1.787      850.415
12/28/2021  20:50:00      -14.905        9.504       -9.034       23.312       18.479       19.366      543.442      341.469      375.050        0.083        0.063       17.677        6.918        0.153      330.724       -1.720      850.410
12/28/2021  20:51:00       13.012       -0.416        3.031       19.318       18.215       13.826      373.168      331.774      191.155        0.054        0.045       13.019        7.695        0.349      330.655       -1.833      850.384
12/28/2021  20:52:00       -0.347        1.285       -0.241       17.639       18.958       11.978      311.137      359.419      143.477        0.041        0.041        1.331        5.304       15.872      330.690       -1.775      850.353
12/28/2021  20:53:00      -19.872        6.867      -13.041       37.163       28.215       15.795     1381.124      796.077      249.482        0.152        0.121       21.025       15.800        0.565      330.719       -1.729      850.321
12/28/2021  20:54:00      -38.370       18.257       -8.082       44.720       26.230       18.164     1999.840      688.009      329.919        0.244        0.151       42.492       19.489        0.210      330.722       -1.723      850.302
12/28/2021  20:55:00      -69.433       34.766       -7.199       61.142       14.919       15.536     3738.285      222.563      241.379        0.514        0.210       77.651       21.282        0.075      330.682       -1.788      850.299
12/28/2021  20:56:00      -79.300       37.487      -18.387       14.376       18.492       16.987      206.667      341.943      288.548        0.443        0.042       87.714       10.156        0.013      330.645       -1.850      850.293
12/28/2021  20:57:00      -90.323       38.686      -10.614       28.119       22.331       17.038      790.659      498.673      290.295        0.567        0.079       98.258       14.034        0.020      330.622       -1.888      850.289
12/28/2021  20:58:00     -103.593       19.522      -12.128       36.490       24.917       19.746     1331.511      620.881      389.916        0.680        0.117      105.416       20.466        0.038      330.697       -1.763      850.292
12/28/2021  20:59:00      -91.033       50.320      -10.358       30.863       17.411       19.816      952.538      303.143      392.668        0.629        0.082      104.015       18.549        0.032      330.602       -1.921      850.292
12/28/2021  21:00:00      -82.113       32.765      -14.618       18.512       17.345       10.962      342.684      300.852      120.176        0.440        0.038       88.409        8.533        0.009      330.602       -1.919      850.259
12/28/2021  21:01:00      -56.695       39.151      -11.601       18.388       15.477       13.418      338.129      239.536      180.037        0.282        0.038       68.900        8.623        0.016      330.642       -1.854      850.231
12/28/2021  21:02:00      -72.715       54.614      -15.191       14.672       13.449        9.893      215.268      180.869       97.871        0.450        0.025       90.941        2.396        0.001      330.605       -1.915      850.209
12/28/2021  21:03:00      -38.022       30.972       -7.720       26.922       21.614       14.694      724.773      467.186      215.913        0.194        0.070       49.040       15.031        0.094      330.622       -1.889      850.176
12/28/2021  21:04:00       -7.266       16.059       -9.068       25.814       12.167       15.162      666.369      148.033      229.888        0.072        0.052       17.626       12.792        0.527      330.665       -1.816      850.143
12/28/2021  21:05:00       -3.799       51.469       -7.090       24.726       22.079       14.687      611.370      487.494      215.702        0.201        0.066       51.609       11.004        0.045      330.751       -1.674      850.140
12/28/2021  21:06:00       -4.891       48.985      -10.972       30.811       19.079       11.471      949.308      364.010      131.579        0.199        0.072       49.229        8.215        0.028      330.711       -1.739      850.158
12/28/2021  21:07:00      -28.689       15.406       -8.603       27.550       26.198       17.887      758.999      686.336      319.960        0.145        0.088       32.564       10.974        0.114      330.709       -1.744      850.176
12/28/2021  21:08:00      -73.062       28.838      -10.660       21.672       23.317       16.398      469.658      543.668      268.901        0.378        0.064       78.547        8.859        0.013      330.582       -1.953      850.185
12/28/2021  21:09:00      -41.760       35.605       -8.176       20.149       17.842        7.733      405.964      318.340       59.795        0.193        0.039       54.878        3.950        0.005      330.596       -1.930      850.186
12/28/2021  21:10:00      -29.120       34.101       -6.169       13.204       11.792        9.756      174.335      139.042       95.172        0.123        0.020       44.843        4.207        0.009      330.665       -1.816      850.189
12/28/2021  21:11:00      -23.095       46.601       -5.493       10.407       14.384       10.574      108.298      206.910      111.818        0.158        0.021       52.010        7.790        0.022      330.628       -1.877      850.193
12/28/2021  21:12:00      -16.223       27.531       -5.236       10.428       11.275        9.100      108.748      127.134       82.810        0.068        0.016       31.956        3.680        0.013      330.623       -1.887      850.191
12/28/2021  21:13:00       -4.379       19.833      -17.966       10.255       12.062       10.818      105.163      145.501      117.038        0.055        0.018       20.311        4.799        0.056      330.599       -1.924      850.186
12/28/2021  21:14:00       47.756       10.178      -10.576       46.144       20.612       15.702     2129.257      424.850      246.544        0.265        0.140       48.829       19.924        0.166      330.565       -1.980      850.184
12/28/2021  21:15:00      100.294        8.702      -20.411       26.781       23.021       13.049      717.243      529.965      170.268        0.598        0.071      100.671        7.367        0.005      330.512       -2.069      850.185
12/28/2021  21:16:00       96.807       11.374      -16.401       16.149       12.981       14.743      260.801      168.518      217.365        0.521        0.032       97.473        6.608        0.005      330.477       -2.125      850.188
12/28/2021  21:17:00       98.291       10.451      -11.566       16.937       13.731        8.725      286.856      188.543       76.120        0.523        0.028       98.845        5.318        0.003      330.501       -2.086      850.184
12/28/2021  21:18:00       96.134       10.507       -9.249       14.957       16.405       13.160      223.720      269.139      173.186        0.505        0.033       96.706        8.567        0.008      330.495       -2.098      850.167
12/28/2021  21:19:00       87.821        6.703       -7.858       20.605       12.731        9.067      424.568      162.084       82.216        0.424        0.033       88.076        6.451        0.005      330.522       -2.056      850.154
12/28/2021  21:20:00       81.552       10.699      -12.892       16.606       18.724       12.271      275.757      350.602      150.566        0.385        0.039       82.250        8.285        0.010      330.562       -1.988      850.156
12/28/2021  21:21:00       64.534       13.956      -16.518       23.884       27.834       18.447      570.453      774.734      340.278        0.316        0.084       66.025       12.190        0.034      330.588       -1.945      850.141
12/28/2021  21:22:00       47.322       38.005      -11.747       36.170       35.655       22.483     1308.284     1271.262      505.500        0.345        0.154       60.694       16.849        0.077      330.616       -1.898      850.112
12/28/2021  21:23:00       56.743       20.815      -19.442       28.608       41.439       20.136      818.439     1717.175      405.442        0.349        0.147       60.440       12.059        0.040      330.654       -1.834      850.071
12/28/2021  21:24:00       78.208       15.986      -17.401       20.571       29.247       11.149      423.146      855.365      124.311        0.404        0.070       79.825        8.473        0.011      330.571       -1.973      850.054
12/28/2021  21:25:00       60.357        2.315      -12.732        7.903        4.417        5.208       62.458       19.513       27.122        0.196        0.005       60.401        1.372        0.001      330.568       -1.975      850.035
12/28/2021  21:26:00       19.460       -0.629        1.474       15.311       10.058       11.396      234.420      101.166      129.862        0.042        0.023       19.470        8.076        0.172      330.608       -1.912      850.026
12/28/2021  21:27:00       39.021       -3.801        0.434       27.112       23.565       14.150      735.039      555.328      200.233        0.151        0.075       39.205       11.468        0.086      330.621       -1.889      850.009
12/28/2021  21:28:00       62.491      -16.433       -4.791       26.281       21.140       21.818      690.678      446.882      476.047        0.291        0.081       64.615       15.678        0.059      330.596       -1.930      849.999
12/28/2021  21:29:00       26.357        1.035      -15.554       21.244       27.055       19.233      451.287      731.968      369.895        0.125        0.078       26.378       12.068        0.209      330.640       -1.857      850.013
12/28/2021  21:30:00       59.419      -10.018       -8.362       19.759       15.375       14.339      390.400      236.376      205.620        0.227        0.042       60.258       11.762        0.038      330.571       -1.973      850.026
12/28/2021  21:31:00       67.424       -4.607       -8.953       35.627       21.408       18.770     1269.252      458.317      352.310        0.336        0.104       67.581       20.662        0.093      330.554       -1.999      850.036
12/28/2021  21:32:00       48.429      -16.232       -3.169       42.177       28.605       25.586     1778.898      818.218      654.646        0.293        0.163       51.077       22.588        0.196      330.616       -1.897      850.057
12/28/2021  21:33:00       23.565      -18.637      -12.425       27.208       40.677       22.544      740.291     1654.640      508.214        0.198        0.145       30.044       13.705        0.208      330.849       -1.514      850.074
12/28/2021  21:34:00       41.425      -21.063      -12.593       28.193       40.596       24.262      794.843     1648.019      588.667        0.267        0.152       46.473       14.177        0.093      330.869       -1.483      850.078
12/28/2021  21:35:00        5.869       -2.981      -16.658       39.720       28.068       18.649     1577.706      787.836      347.787        0.152        0.136        6.582       18.078        7.544      330.695       -1.768      850.080
12/28/2021  21:36:00       -3.389      -39.912        0.896       23.099       21.609       18.467      533.551      466.969      341.029        0.147        0.067       40.056       14.148        0.125      330.762       -1.657      850.090
12/28/2021  21:37:00      -36.946        9.148       -5.003       13.540       19.396        9.981      183.318      376.198       99.629        0.107        0.033       38.062        4.705        0.015      330.620       -1.891      850.101
12/28/2021  21:38:00        4.071      -13.980      -12.583       48.325       14.710        9.764     2335.273      216.386       95.340        0.151        0.132       14.561        8.823        0.367      330.621       -1.890      850.111
12/28/2021  21:39:00       59.835      -19.823      -17.511       40.199       29.011       15.265     1615.937      841.643      233.020        0.348        0.135       63.034       20.876        0.110      330.553       -2.002      850.114
12/28/2021  21:40:00       80.110        6.454       -8.948       24.847       24.841       16.408      617.391      617.061      269.211        0.402        0.075       80.369        9.102        0.013      330.570       -1.972      850.103
12/28/2021  21:41:00       61.520      -12.048       -3.681       25.083       23.169       17.474      629.157      536.798      305.340        0.271        0.074       62.689       11.588        0.034      330.571       -1.971      850.088
12/28/2021  21:42:00       56.907      -13.978       -0.428       23.261       26.706       20.486      541.079      713.227      419.664        0.255        0.084       58.599       12.234        0.044      330.564       -1.983      850.081
12/28/2021  21:43:00       85.371       29.367      -11.494       25.264       26.087       17.590      638.259      680.507      309.402        0.496        0.081       90.281       10.136        0.013      330.508       -2.074      850.076
12/28/2021  21:44:00      112.966       64.097      -18.536       21.025       16.036       13.930      442.038      257.159      194.058        0.905        0.045      129.883        9.987        0.006      330.483       -2.114      850.064
12/28/2021  21:45:00      104.705       31.134      -17.266       28.401       29.591       18.159      806.613      875.634      329.734        0.712        0.101      109.236       15.435        0.020      330.485       -2.111      850.049
12/28/2021  21:46:00       59.247       10.624      -12.199       33.685       29.552       19.441     1134.646      873.323      377.957        0.308        0.119       60.192        7.364        0.015      330.504       -2.081      850.029
12/28/2021  21:47:00       52.379       15.355       -6.023       20.535       20.847       10.903      421.679      434.616      118.870        0.200        0.049       54.584        4.411        0.007      330.464       -2.146      850.020
12/28/2021  21:48:00       20.209       19.816       -7.514       20.128       27.838       12.827      405.134      774.965      164.527        0.110        0.067       28.303       14.011        0.245      330.433       -2.196      850.025
12/28/2021  21:49:00       12.628       61.557       -3.749       20.678       22.316       13.733      427.577      498.005      188.598        0.254        0.056       62.839       12.133        0.037      330.446       -2.176      850.041
12/28/2021  21:50:00       11.456       20.842       -9.654       13.838       14.485       13.048      191.503      209.815      170.257        0.062        0.029       23.784        7.548        0.101      330.424       -2.212      850.040
12/28/2021  21:51:00        2.695       11.717       -1.972       12.155        7.900       10.260      147.751       62.407      105.278        0.023        0.016       12.023        7.182        0.357      330.354       -2.326      850.021
12/28/2021  21:52:00       12.602       30.299       -4.965       18.375       13.545        8.532      337.659      183.477       72.797        0.085        0.030       32.815        2.917        0.008      330.392       -2.264      849.989
12/28/2021  21:53:00       19.236       36.369       -1.381       25.855       18.379       10.402      668.473      337.804      108.209        0.140        0.056       41.143        8.420        0.042      330.364       -2.310      849.969
12/28/2021  21:54:00      -32.409       35.314      -13.563       44.955       24.380       15.014     2020.966      594.404      225.429        0.266        0.142       47.931       11.579        0.058      330.397       -2.257      849.978
12/28/2021  21:55:00      -90.716       21.000      -16.508       25.558       24.745       18.044      653.209      612.333      325.591        0.527        0.080       93.115       11.404        0.015      330.291       -2.430      849.998
12/28/2021  21:56:00      -69.483       54.641       -9.653       29.397       25.236       17.782      864.165      636.857      316.184        0.486        0.091       88.394       12.647        0.020      330.168       -2.633      849.987
12/28/2021  21:57:00      -54.417       56.571       -8.780       28.083       16.170        9.716      788.627      261.458       94.393        0.369        0.057       78.495        6.500        0.007      330.231       -2.529      849.949
12/28/2021  21:58:00      -31.173      101.512      -21.336       14.029       25.466       16.009      196.805      648.533      256.282        0.642        0.055      106.191        5.479        0.003      330.424       -2.212      849.942
12/28/2021  21:59:00      -36.630       33.224       -9.206       23.969       31.142       17.004      574.496      969.846      289.147        0.218        0.092       49.453       14.068        0.081      330.516       -2.062      849.957
12/28/2021  22:00:00      -14.873        1.178       -5.913       23.713       15.525       14.559      562.326      241.012      211.979        0.064        0.051       14.920        4.909        0.108      330.395       -2.259      849.977
12/28/2021  22:01:00        3.760       -7.733      -17.121        8.876       11.715       14.416       78.781      137.243      207.834        0.040        0.021        8.599       11.841        1.896      330.411       -2.233      849.985
12/28/2021  22:02:00        0.288       11.141       -4.148        7.775        8.044        8.962       60.451       64.711       80.318        0.017        0.010       11.144        4.746        0.181      330.336       -2.355      849.974
12/28/2021  22:03:00        0.045       15.750       -3.344       12.170        8.665        9.647      148.114       75.083       93.065        0.029        0.016       15.750        6.410        0.166      330.278       -2.448      849.960
12/28/2021  22:04:00       19.196       13.573       -2.147       10.907        8.018        9.440      118.969       64.281       89.115        0.041        0.014       23.510        3.798        0.026      330.367       -2.307      849.939
12/28/2021  22:05:00       43.785       24.808       -7.331       19.542       24.438       11.470      381.899      597.211      131.564        0.185        0.056       50.325        8.015        0.025      330.341       -2.345      849.906
12/28/2021  22:06:00       52.277       39.864      -12.296       15.667       10.728       10.533      245.464      115.088      110.941        0.247        0.024       65.742        5.667        0.007      330.306       -2.404      849.889
12/28/2021  22:07:00       45.716       37.775       -9.812       18.994       12.672       11.847      360.761      160.567      140.358        0.214        0.033       59.303        5.462        0.008      330.309       -2.402      849.878
12/28/2021  22:08:00       24.103       62.459       -1.351       27.485       24.362       14.811      755.445      593.524      219.355        0.303        0.078       66.949       13.808        0.043      330.364       -2.310      849.879
12/28/2021  22:09:00       16.829       42.692       -7.865       24.206       23.983       15.267      585.933      575.185      233.072        0.178        0.070       45.889        9.698        0.045      330.308       -2.403      849.881
12/28/2021  22:10:00        4.189       10.797       -5.459       11.446       10.652        8.297      131.019      113.474       68.842        0.024        0.016       11.581        1.871        0.026      330.208       -2.566      849.878
12/28/2021  22:11:00       44.276       17.933       -6.842       19.430       15.919       10.815      377.542      253.418      116.973        0.154        0.037       47.769        7.709        0.026      330.278       -2.451      849.869
12/28/2021  22:12:00       31.474       19.076       -5.188        9.294        8.622       10.601       86.383       74.332      112.375        0.083        0.014       36.804        5.458        0.022      330.276       -2.454      849.863
12/28/2021  22:13:00        3.772       17.565        0.457       17.346        7.008        5.901      300.877       49.107       34.821        0.035        0.019       17.966        4.933        0.075      330.215       -2.556      849.882
12/28/2021  22:14:00      -39.807       30.067      -16.229        9.350        7.127        6.703       87.423       50.800       44.929        0.147        0.009       49.886        3.638        0.005      330.023       -2.871      849.897
12/28/2021  22:15:00      -53.292       33.378      -15.812       11.847        7.164        8.099      140.353       51.318       65.589        0.223        0.013       62.882        4.308        0.005      330.026       -2.865      849.905
12/28/2021  22:16:00      -44.641       27.563      -14.744       14.693        8.161        9.056      215.871       66.606       82.012        0.167        0.018       52.464        7.164        0.019      330.002       -2.903      849.907
12/28/2021  22:17:00       -0.655       15.366       -6.927       13.989       11.152        8.579      195.695      124.360       73.594        0.034        0.020       15.380        5.078        0.109      330.072       -2.788      849.897
12/28/2021  22:18:00        0.574       41.629       -4.570       15.514       21.157       13.822      240.694      447.610      191.047        0.132        0.044       41.633        9.706        0.054      330.233       -2.526      849.892
12/28/2021  22:19:00        7.756       31.657      -11.514       22.170       14.142       10.634      491.519      199.988      113.077        0.100        0.040       32.594       11.771        0.130      330.212       -2.560      849.890
12/28/2021  22:20:00       -1.470       17.417        1.169       13.132        9.648       10.475      172.459       93.084      109.727        0.034        0.019       17.479        6.958        0.158      330.166       -2.635      849.906
12/28/2021  22:21:00      -14.625        7.363       -5.746       12.617        8.669       10.958      159.192       75.158      120.085        0.033        0.018       16.374        8.477        0.268      330.032       -2.854      849.908
12/28/2021  22:22:00       27.349       19.961       -0.438       10.227       10.630        9.679      104.594      112.994       93.692        0.073        0.016       33.858        6.819        0.041      330.286       -2.435      849.909
12/28/2021  22:23:00       54.236       36.444       -8.602       10.897       11.113       10.411      118.748      123.498      108.398        0.235        0.018       65.343        6.157        0.009      330.348       -2.337      849.904
12/28/2021  22:24:00       46.111       36.333       -8.171       12.131       10.105        9.182      147.160      102.121       84.309        0.192        0.017       58.706        4.417        0.006      330.326       -2.372      849.893
12/28/2021  22:25:00       54.241       33.579       -5.718       15.124       11.648       13.355      228.727      135.683      178.360        0.232        0.027       63.794        4.925        0.006      330.337       -2.354      849.871
12/28/2021  22:26:00       56.818       38.118      -11.656       23.092       13.884       13.482      533.240      192.756      181.775        0.286        0.045       68.420        7.005        0.010      330.285       -2.439      849.845
12/28/2021  22:27:00      109.705       44.759      -16.449       20.145       21.790       12.689      405.828      474.796      161.018        0.768        0.052      118.485       12.361        0.011      330.254       -2.491      849.794
12/28/2021  22:28:00      124.030       43.376      -24.223       25.010       33.594       21.387      625.524     1128.527      457.411        1.003        0.111      131.396        9.748        0.006      330.342       -2.348      849.771
12/28/2021  22:29:00       68.035       13.065      -26.971       43.083       34.186       21.414     1856.125     1168.675      458.560        0.450        0.174       69.278       12.293        0.031      330.356       -2.322      849.748
12/28/2021  22:30:00       62.727        0.875      -10.436       39.404       24.146       19.065     1552.687      583.017      363.490        0.327        0.125       62.733        9.238        0.022      330.237       -2.518      849.743
12/28/2021  22:31:00       67.714       23.220       -6.960       22.142       16.224       10.385      490.263      263.211      107.845        0.302        0.043       71.585        6.755        0.009      330.199       -2.582      849.750
12/28/2021  22:32:00       22.471        2.097       -7.494       21.794       13.195        6.816      474.980      174.120       46.457        0.063        0.035       22.569        7.300        0.105      330.188       -2.599      849.744
12/28/2021  22:33:00       -8.271        7.171      -11.054        9.569        8.021        6.210       91.561       64.330       38.563        0.022        0.010       10.946        5.871        0.288      330.222       -2.544      849.746
12/28/2021  22:34:00      -26.379        6.747       -2.620       12.431        8.571        9.857      154.527       73.459       97.160        0.054        0.016       27.228        5.108        0.035      330.280       -2.448      849.752
12/28/2021  22:35:00      -16.680       15.905       -0.583        6.509        9.765        7.587       42.371       95.358       57.559        0.036        0.010       23.048        6.814        0.087      330.203       -2.575      849.742
12/28/2021  22:36:00      -40.790       21.401       -9.543       15.337       15.143       10.741      235.221      229.302      115.371        0.140        0.029       46.064        6.422        0.019      330.177       -2.617      849.755
12/28/2021  22:37:00      -68.047       35.458       -9.891       14.670        9.921        9.620      215.201       98.428       92.542        0.320        0.020       76.731        5.117        0.004      330.056       -2.816      849.779
12/28/2021  22:38:00      -56.771       12.133       -4.184       32.111       25.555       20.294     1031.148      653.052      411.846        0.274        0.105       58.053       11.912        0.042      330.093       -2.756      849.810
12/28/2021  22:39:00      -51.786        7.547       -7.181       44.573       29.449       21.562     1986.759      867.256      464.903        0.305        0.166       52.333       23.190        0.196      330.097       -2.749      849.834
12/28/2021  22:40:00      -62.269       39.590        4.048       38.940       25.319       22.551     1516.333      641.049      508.540        0.406        0.133       73.789       22.533        0.093      329.860       -3.136      849.834
12/28/2021  22:41:00      -97.306       38.635       -5.052       35.475       28.631       20.190     1258.456      819.744      407.645        0.674        0.124      104.695       16.360        0.024      329.875       -3.113      849.831
12/28/2021  22:42:00      -87.261       18.372      -21.984       38.865       27.486       22.358     1510.526      755.488      499.882        0.560        0.138       89.174       15.338        0.030      330.048       -2.829      849.827
12/28/2021  22:43:00     -112.984       50.448      -22.293       30.994       20.931       17.375      960.654      438.100      301.883        0.875        0.085      123.735       11.274        0.008      329.972       -2.954      849.833
12/28/2021  22:44:00     -111.430       63.637      -14.722       36.492       26.075       21.694     1331.647      679.909      470.636        0.958        0.124      128.321       17.752        0.019      330.040       -2.842      849.849
12/28/2021  22:45:00      -99.861       81.936      -21.609       20.447       17.182       11.142      418.071      295.206      124.150        0.899        0.042      129.174        8.464        0.004      330.131       -2.695      849.847
12/28/2021  22:46:00      -69.373       50.496      -18.231       20.968       19.516       19.535      439.668      380.876      381.616        0.445        0.060       85.804        7.512        0.008      330.233       -2.525      849.838
12/28/2021  22:47:00      -49.081       42.115      -14.660       25.669       22.202       15.475      658.901      492.912      239.491        0.289        0.070       64.674       13.500        0.044      330.186       -2.603      849.833
12/28/2021  22:48:00      -23.283       92.210      -10.362       27.280       25.795       15.456      744.175      665.363      238.901        0.540        0.082       95.104       10.296        0.012      330.233       -2.525      849.822
12/28/2021  22:49:00       28.504       54.280       -3.926       19.250       30.479       14.741      370.551      928.983      217.287        0.265        0.076       61.309        5.428        0.008      330.453       -2.165      849.806
12/28/2021  22:50:00        2.750       65.566       -7.881       16.754       18.327       13.210      280.697      335.883      174.509        0.258        0.040       65.624       10.034        0.023      330.337       -2.354      849.795
12/28/2021  22:51:00       26.011       51.926       -6.992       32.774       22.523       15.590     1074.143      507.273      243.040        0.262        0.091       58.076       13.120        0.051      330.196       -2.586      849.791
12/28/2021  22:52:00       35.002       80.191       -9.124       23.642       33.902       21.325      558.925     1149.314      454.747        0.495        0.108       87.497       20.827        0.057      330.372       -2.297      849.760
12/28/2021  22:53:00       48.842      108.515      -11.755       30.014       54.506       27.740      900.839     2970.863      769.501        0.947        0.232      119.000       28.794        0.059      330.229       -2.532      849.725
12/28/2021  22:54:00       38.827      148.790      -10.064       44.377       36.645       23.657     1969.328     1342.827      559.636        1.381        0.194      153.772       21.863        0.020      330.375       -2.293      849.704
12/28/2021  22:55:00       50.823      140.990      -24.011       36.709       50.088       26.700     1347.541     2508.827      712.903        1.380        0.228      149.870       27.246        0.033      330.334       -2.360      849.687
12/28/2021  22:56:00       30.424       43.194       -8.272       28.246       26.892       17.558      797.829      723.168      308.277        0.234        0.091       52.833       15.935        0.091      330.234       -2.524      849.681
12/28/2021  22:57:00       31.427       66.188      -14.380       29.917       26.410       23.965      895.045      697.488      574.306        0.387        0.108       73.270       17.786        0.059      330.447       -2.176      849.704
12/28/2021  22:58:00       27.641       90.238      -12.453       25.061       38.783       23.518      628.029     1504.160      553.076        0.587        0.134       94.376       15.366        0.027      330.450       -2.170      849.712
12/28/2021  22:59:00       52.143      128.151      -29.940       19.486       37.343       20.508      379.689     1394.501      420.598        1.112        0.110      138.353       20.396        0.022      330.492       -2.102      849.708
12/28/2021  23:00:00       26.610       93.121      -19.259       22.642       28.121       21.560      512.638      790.773      464.851        0.576        0.088       96.849       17.494        0.033      330.470       -2.136      849.697
12/28/2021  23:01:00       29.000       42.185      -11.538       26.246       20.647       15.844      688.858      426.281      251.030        0.206        0.068       51.191       11.031        0.046      330.321       -2.381      849.699
12/28/2021  23:02:00       67.358       41.699      -18.804       21.051       17.620       20.140      443.134      310.466      405.638        0.389        0.058       79.220        6.836        0.007      330.258       -2.483      849.698
12/28/2021  23:03:00       25.035       27.012      -12.080       19.689       15.669       11.316      387.645      245.519      128.056        0.113        0.038       36.829        9.753        0.070      330.298       -2.417      849.685
12/28/2021  23:04:00       48.800       13.751       -4.027       15.227       14.334        6.854      231.864      205.455       46.972        0.154        0.024       50.700        7.301        0.021      330.421       -2.217      849.688
12/28/2021  23:05:00       49.145       18.828       -6.606       14.128       16.978       10.968      199.597      288.255      120.294        0.171        0.030       52.628       10.485        0.040      330.438       -2.190      849.676
12/28/2021  23:06:00       58.791      -11.867      -12.887       28.699       21.587       20.228      823.626      465.982      409.166        0.273        0.085       59.977       13.461        0.050      330.482       -2.117      849.683
12/28/2021  23:07:00       82.730       -4.185      -22.453       10.690       14.634       14.399      114.275      214.154      207.335        0.395        0.027       82.836        8.448        0.010      330.412       -2.232      849.699
12/28/2021  23:08:00       93.665       -5.468      -13.648       20.293       17.837       11.765      411.799      318.173      138.414        0.493        0.043       93.824        3.618        0.001      330.401       -2.249      849.702
12/28/2021  23:09:00      114.854        0.155       -7.539       26.761       19.997       18.986      716.172      399.876      360.463        0.736        0.074      114.855       11.270        0.010      330.356       -2.324      849.679
12/28/2021  23:10:00      102.342       51.885      -10.228       28.555       19.875       15.361      815.366      395.033      235.966        0.736        0.072      114.743       12.683        0.012      330.271       -2.462      849.659
12/28/2021  23:11:00       99.742       58.159      -14.367       35.322       24.460       21.474     1247.666      598.312      461.126        0.792        0.115      115.459       13.821        0.014      330.307       -2.402      849.624
12/28/2021  23:12:00       91.452       57.249      -15.650       27.392       24.189       19.753      750.342      585.100      390.175        0.681        0.086      107.893       15.493        0.021      330.253       -2.492      849.631
12/28/2021  23:13:00       57.792       27.808      -21.935       13.370       12.339       15.319      178.756      152.240      234.677        0.258        0.028       64.134        4.717        0.005      330.249       -2.498      849.659
12/28/2021  23:14:00       78.310       20.120      -17.339       12.595       27.279       14.761      158.629      744.156      217.895        0.398        0.056       80.854        4.874        0.004      330.249       -2.497      849.638
12/28/2021  23:15:00       47.678       -1.903       -3.572       19.526       23.331       20.825      381.257      544.329      433.669        0.182        0.068       47.716        8.656        0.033      330.353       -2.328      849.593
12/28/2021  23:16:00       70.188       13.475      -12.404       25.571       22.186       13.246      653.901      492.225      175.463        0.329        0.066       71.469       12.128        0.029      330.265       -2.472      849.581
12/28/2021  23:17:00       27.034       19.992      -11.789       23.463       11.921       13.510      550.523      142.118      182.518        0.107        0.044       33.623       10.548        0.098      330.243       -2.510      849.616
12/28/2021  23:18:00        1.924       11.423       -4.452       10.549        7.782        8.773      111.278       60.558       76.963        0.020        0.012       11.584        4.085        0.124      330.330       -2.368      849.669
12/28/2021  23:19:00       31.720       39.755      -10.344       31.524       13.861       16.469      993.780      192.136      271.213        0.208        0.073       50.859       18.115        0.127      330.346       -2.341      849.674
12/28/2021  23:20:00       70.712       41.225      -16.505        9.213       11.126        9.653       84.874      123.794       93.179        0.364        0.015       81.852        4.596        0.003      330.261       -2.477      849.640
12/28/2021  23:21:00       41.097       29.553      -14.575       13.705       13.684       10.148      187.822      187.238      102.983        0.163        0.024       50.620        7.064        0.019      330.269       -2.464      849.629
12/28/2021  23:22:00       28.427       41.159       -8.443       11.782       11.767        8.357      138.807      138.464       69.835        0.146        0.017       50.021        4.386        0.008      330.295       -2.421      849.652
12/28/2021  23:23:00       66.458       53.590      -21.460       13.028        8.281       11.400      169.736       68.576      129.954        0.406        0.018       85.373        8.241        0.009      330.307       -2.404      849.649
12/28/2021  23:24:00       83.234       -1.388      -22.585       14.482       38.992       18.627      209.728     1520.396      346.962        0.476        0.104       83.246       16.815        0.041      330.349       -2.335      849.651
12/28/2021  23:25:00       55.084       -3.502      -22.903       21.525       30.464       15.045      463.339      928.067      226.352        0.259        0.081       55.195        7.725        0.020      330.317       -2.387      849.675
12/28/2021  23:26:00       40.650      -23.793      -12.445       16.403       22.954       19.312      269.069      526.891      372.944        0.177        0.058       47.102       15.185        0.104      330.396       -2.258      849.691
12/28/2021  23:27:00       43.432      -10.289      -12.063       38.274       19.601       23.136     1464.879      384.188      535.265        0.226        0.119       44.634       20.910        0.219      330.384       -2.278      849.663
12/28/2021  23:28:00       44.991       -3.105      -12.461       28.922       23.788       19.472      836.458      565.859      379.146        0.198        0.089       45.098       10.571        0.055      330.361       -2.316      849.618
12/28/2021  23:29:00       34.820        9.466       -9.281       16.528       13.665       14.434      273.182      186.723      208.335        0.103        0.033       36.084       11.220        0.097      330.275       -2.457      849.619
12/28/2021  23:30:00       63.254       14.199      -11.752       12.583        7.220        8.080      158.339       52.134       65.279        0.231        0.014       64.828        5.636        0.008      330.264       -2.476      849.612
12/28/2021  23:31:00       44.929       -3.568      -18.257       28.672       18.932       11.667      822.078      358.419      136.118        0.184        0.066       45.071        6.406        0.020      330.392       -2.265      849.580
12/28/2021  23:32:00       39.650       -7.222      -15.459       22.506       31.010       16.124      506.500      961.599      259.992        0.180        0.086       40.302       14.615        0.132      330.393       -2.263      849.583
12/28/2021  23:33:00       45.274       46.228       -4.274       28.460       30.849       17.727      809.991      951.688      314.233        0.314        0.104       64.705       14.826        0.053      330.312       -2.395      849.604
12/28/2021  23:34:00       43.773       37.105      -21.795       13.827       13.064       17.091      191.181      170.658      292.109        0.221        0.033       57.383       10.999        0.037      330.331       -2.363      849.611
12/28/2021  23:35:00       17.453       20.931       -2.375       23.242       17.179        9.991      540.190      295.119       99.819        0.084        0.047       27.253        8.558        0.099      330.307       -2.403      849.614
12/28/2021  23:36:00      -15.417       33.953      -12.501       17.692       13.403       10.958      312.990      179.635      120.070        0.108        0.031       37.289        6.060        0.026      330.391       -2.268      849.589
12/28/2021  23:37:00       -2.488       69.028      -12.879       26.062       32.567       19.179      679.234     1060.603      367.849        0.352        0.105       69.072       16.567        0.058      330.408       -2.239      849.569
12/28/2021  23:38:00      -15.865       46.986       -4.602       21.873       24.310       16.168      478.438      590.980      261.400        0.191        0.067       49.592       10.315        0.043      330.442       -2.183      849.567
12/28/2021  23:39:00      -10.827       34.356      -11.950       14.701       25.105       12.450      216.129      630.274      155.002        0.122        0.050       36.022        7.216        0.040      330.484       -2.113      849.566
12/28/2021  23:40:00      -47.088       48.662      -12.708       25.891       17.213       12.957      670.324      296.297      167.887        0.294        0.057       67.715       11.034        0.027      330.409       -2.237      849.540
12/28/2021  23:41:00      -48.905       33.792       -8.335       15.941       14.011       13.998      254.119      196.301      195.938        0.212        0.032       59.444       10.108        0.029      330.345       -2.340      849.521
12/28/2021  23:42:00      -17.103       26.980       -5.501       26.164       16.508       10.978      684.580      272.514      120.527        0.106        0.054       31.944        9.334        0.085      330.350       -2.337      849.482
12/28/2021  23:43:00       18.534       43.832       -8.331       26.720       25.800       16.117      713.970      665.630      259.756        0.199        0.082       47.589       13.469        0.080      330.429       -2.203      849.434
12/28/2021  23:44:00        9.093       38.442       -1.738       24.842       27.185       18.931      617.100      739.038      358.396        0.164        0.086       39.503       15.187        0.148      330.430       -2.202      849.406
12/28/2021  23:45:00      -35.948       45.119      -14.074       49.673       41.699       25.259     2467.415     1738.796      638.032        0.418        0.242       57.689       22.901        0.158      330.506       -2.079      849.433
12/28/2021  23:46:00        4.790        9.354       -0.392       20.536       41.084       17.847      421.739     1687.860      318.533        0.127        0.121       10.509       14.305        1.853      330.469       -2.139      849.475
12/28/2021  23:47:00        8.933      -26.657        4.053       21.189       31.814       21.661      448.964     1012.115      469.193        0.137        0.097       28.114       12.860        0.209      330.420       -2.220      849.493
12/28/2021  23:48:00      -23.180       17.709       -2.651       23.768       19.614       15.939      564.938      384.701      254.051        0.103        0.060       29.170       11.366        0.152      330.356       -2.325      849.471
12/28/2021  23:49:00      -10.903       19.961      -12.056       22.221        9.342        8.824      493.791       87.268       77.862        0.066        0.033       22.745        8.536        0.141      330.321       -2.380      849.443
12/28/2021  23:50:00       74.798       27.865      -14.627       27.353       31.675       14.599      748.206     1003.324      213.133        0.427        0.098       79.820       12.074        0.023      330.448       -2.170      849.421
12/28/2021  23:51:00       50.434       32.914       -8.613       17.624       15.187       11.716      310.622      230.655      137.255        0.219        0.034       60.224        5.908        0.010      330.427       -2.211      849.390
12/28/2021  23:52:00       19.538       36.610       -0.926       23.034       19.056       15.379      530.559      363.137      236.521        0.143        0.057       41.497       12.480        0.090      330.449       -2.171      849.381
12/28/2021  23:53:00       21.493       33.586       -9.322       22.086       16.576       10.143      487.778      274.779      102.876        0.127        0.043       39.875        7.581        0.036      330.470       -2.138      849.396
12/28/2021  23:54:00       36.546       43.753      -14.794       11.307       11.274       14.017      127.847      127.112      196.467        0.196        0.023       57.008        5.835        0.010      330.470       -2.137      849.432
12/28/2021  23:55:00        5.285       19.004       -3.813       20.527       21.234       13.393      421.348      450.871      179.375        0.073        0.053       19.726        7.393        0.140      330.525       -2.047      849.481
12/28/2021  23:56:00       16.746      -36.144       -7.726       35.258       25.749       17.290     1243.135      663.021      298.950        0.193        0.110       39.835       19.200        0.232      330.572       -1.969      849.518
12/28/2021  23:57:00       52.396      -16.493      -15.816       27.757       31.786       23.141      770.478     1010.340      535.496        0.279        0.116       54.930       18.950        0.119      330.533       -2.036      849.515
12/28/2021  23:58:00       66.706      -10.519       -7.803       49.892       36.778       36.654     2489.205     1352.611     1343.486        0.490        0.259       67.530       27.500        0.166      330.498       -2.091      849.445
12/28/2021  23:59:00       18.425       -1.694       -5.534       48.729       36.577       46.284     2374.467     1337.889     2142.244        0.311        0.293       18.503       27.184        2.158      330.604       -1.916      849.390
12/29/2021  00:00:00        7.245      -36.848      -14.134       31.064       21.608       25.484      964.956      466.902      649.435        0.185        0.104       37.553       14.042        0.140      330.576       -1.963      849.433
12/29/2021  00:01:00      -13.588       -6.169      -13.778       15.981       24.585       14.282      255.381      604.438      203.977        0.074        0.053       14.923       11.289        0.572      330.480       -2.122      849.492
12/29/2021  00:02:00      -42.054       17.834      -16.358       35.957       32.848       18.845     1292.893     1078.996      355.143        0.254        0.136       45.679       15.281        0.112      330.634       -1.867      849.526
12/29/2021  00:03:00      -29.029        7.915       -2.176       55.583       50.853       24.397     3089.491     2586.039      595.209        0.359        0.314       30.089       11.895        0.156      330.572       -1.968      849.541
12/29/2021  00:04:00     -122.167       45.668       -0.793       63.751       46.569       31.919     4064.200     2168.680     1018.832        1.213        0.363      130.424       28.456        0.048      330.248       -2.502      849.522
12/29/2021  00:05:00      -69.846       54.762       -6.855       38.519       23.258       20.620     1483.711      540.919      425.191        0.519        0.122       88.754       11.739        0.017      330.202       -2.574      849.480
12/29/2021  00:06:00      -48.485       32.365      -11.694       20.516       17.447       13.119      420.902      304.392      172.105        0.222        0.045       58.295        6.820        0.014      330.195       -2.590      849.432
12/29/2021  00:07:00      -48.540       26.429      -17.817       21.850       20.480       12.740      477.444      419.423      162.300        0.222        0.053       55.268       10.813        0.038      330.303       -2.411      849.413
12/29/2021  00:08:00      -17.576       38.784       -3.341       26.981       35.540       24.701      727.984     1263.114      610.124        0.221        0.130       42.581       10.433        0.060      330.318       -2.385      849.460
12/29/2021  00:09:00      -10.231      -11.629        6.226       40.373       45.883       36.081     1629.961     2105.250     1301.825        0.266        0.252       15.489       23.861        2.373      330.362       -2.313      849.516
12/29/2021  00:10:00        0.024       -3.765        2.538       43.705       31.369       29.881     1910.125      984.044      892.862        0.190        0.189        3.765       17.906       22.618      330.342       -2.345      849.545
12/29/2021  00:11:00      -56.177       22.005       -9.487       35.263       19.907       19.262     1243.464      396.293      371.038        0.287        0.101       60.333       13.101        0.047      330.221       -2.546      849.509
12/29/2021  00:12:00       10.316       15.456       -9.649       35.817       16.071       12.934     1282.889      258.264      167.284        0.107        0.085       18.582       12.393        0.445      330.170       -2.629      849.434
12/29/2021  00:13:00        8.453       30.559       -7.553       19.012       27.610       12.673      361.470      762.314      160.614        0.117        0.064       31.706       10.830        0.117      330.177       -2.618      849.368
12/29/2021  00:14:00       26.483       63.683       -2.345       20.030       28.456       16.295      401.188      809.724      265.534        0.312        0.074       68.970       15.400        0.050      330.240       -2.514      849.337
12/29/2021  00:15:00      -11.258       57.772       -4.691       41.441       20.921       18.412     1717.357      437.699      338.995        0.299        0.125       58.859       10.775        0.034      330.374       -2.293      849.332
12/29/2021  00:16:00      -53.355       39.018      -20.397       24.897       27.147       18.118      619.854      736.975      328.250        0.323        0.084       66.099       13.686        0.043      330.199       -2.580      849.360
12/29/2021  00:17:00      -66.521       29.805      -12.229       27.405       28.896       20.375      751.028      834.996      415.124        0.373        0.100       72.893        5.557        0.006      330.308       -2.403      849.379
12/29/2021  00:18:00      -12.194        2.083       -9.434       22.194       16.214       13.605      492.582      262.908      185.108        0.059        0.047       12.370       10.382        0.704      330.370       -2.301      849.375
12/29/2021  00:19:00       11.801       16.768       -6.284       18.896       25.790       10.744      357.072      665.140      115.437        0.080        0.057       20.505        9.553        0.217      330.382       -2.280      849.345
12/29/2021  00:20:00       44.700       38.882      -12.935       24.672       13.690       11.393      608.705      187.428      129.790        0.230        0.046       59.245        9.369        0.025      330.306       -2.405      849.331
12/29/2021  00:21:00       15.601       36.848       -9.587       26.838       18.617       13.094      720.299      346.609      171.445        0.147        0.062       40.015        7.016        0.031      330.319       -2.385      849.331
12/29/2021  00:22:00       12.103       29.926       -2.492       17.927       14.620       15.530      321.367      213.733      241.185        0.091        0.039       32.281        9.415        0.085      330.322       -2.379      849.323
12/29/2021  00:23:00       48.660       42.030      -11.891       12.608       14.648       10.446      158.969      214.565      109.115        0.238        0.024       64.298        5.641        0.008      330.289       -2.431      849.307
12/29/2021  00:24:00       60.897       26.713      -20.189       15.848       22.927       12.801      251.167      525.634      163.874        0.288        0.047       66.498        7.060        0.011      330.343       -2.345      849.289
12/29/2021  00:25:00       18.180       -3.226       -7.741       18.741       27.704       16.278      351.242      767.509      264.975        0.089        0.069       18.464       14.706        0.634      330.416       -2.224      849.291
12/29/2021  00:26:00       22.447      -34.275      -14.656       18.252       32.610       15.297      333.144     1063.401      234.013        0.176        0.082       40.971        8.363        0.042      330.409       -2.237      849.326
12/29/2021  00:27:00        3.189      -50.171      -25.475       22.478       24.964       13.096      505.242      623.184      171.500        0.224        0.065       50.272        8.712        0.030      330.474       -2.131      849.345
12/29/2021  00:28:00       -5.617      -33.268       -7.967       16.009       13.040       13.829      256.304      170.050      191.231        0.091        0.031       33.739        2.739        0.007      330.534       -2.034      849.342
12/29/2021  00:29:00       31.348       13.623       -8.937       29.080       24.940       10.818      845.636      622.021      117.028        0.142        0.079       34.180       10.832        0.100      330.381       -2.281      849.314
12/29/2021  00:30:00       40.128      -19.692       -7.632       26.137       18.300       16.117      683.137      334.904      259.766        0.167        0.064       44.700        6.530        0.021      330.388       -2.273      849.298
12/29/2021  00:31:00        6.071        1.019       -8.548       13.014       10.909        9.692      169.354      119.001       93.927        0.025        0.019        6.156        3.084        0.251      330.391       -2.269      849.311
12/29/2021  00:32:00       19.616      -16.150        4.374       16.966       21.919       14.108      287.857      480.454      199.048        0.082        0.048       25.409        8.419        0.110      330.472       -2.133      849.335
12/29/2021  00:33:00      -20.533      -22.082        0.649       29.552       21.723       18.908      873.331      471.890      357.516        0.131        0.085       30.153        9.055        0.090      330.428       -2.206      849.335
12/29/2021  00:34:00       13.441       23.740      -11.325       21.883       16.960       16.040      478.857      287.638      257.293        0.095        0.051       27.281       16.343        0.359      330.411       -2.232      849.301
12/29/2021  00:35:00       24.849        7.222      -13.019       28.982       28.659       25.496      839.960      821.327      650.028        0.157        0.116       25.878       16.413        0.402      330.443       -2.181      849.241
12/29/2021  00:36:00       59.856      -23.578       -3.009       66.799       47.345       38.954     4462.138     2241.584     1517.382        0.618        0.411       64.333       35.063        0.297      330.447       -2.173      849.199
12/29/2021  00:37:00       43.576       12.451        0.618       39.851       49.645       34.348     1588.101     2464.657     1179.819        0.364        0.262       45.320       24.955        0.303      330.434       -2.196      849.193
12/29/2021  00:38:00       79.904       23.958       -1.305       54.647       39.413       26.841     2986.246     1553.370      720.446        0.611        0.263       83.419       18.280        0.048      330.376       -2.290      849.206
12/29/2021  00:39:00       58.158       14.337       -5.046       28.990       19.269       14.272      840.441      371.307      203.698        0.251        0.071       59.899       11.192        0.035      330.249       -2.499      849.246
12/29/2021  00:40:00       42.632       29.666       -5.369        7.594        9.367        5.162       57.670       87.739       26.650        0.145        0.009       51.938        3.593        0.005      330.288       -2.437      849.281
12/29/2021  00:41:00       35.172       14.938      -10.701        8.877       12.017        7.520       78.794      144.397       56.557        0.093        0.014       38.212        3.878        0.010      330.326       -2.376      849.293
12/29/2021  00:42:00       52.533       24.572       -8.540       18.477       11.106        7.599      341.381      123.351       57.746        0.198        0.026       57.995        7.569        0.017      330.305       -2.408      849.292
12/29/2021  00:43:00       91.075       48.051      -11.771       20.228       17.167       14.108      409.162      294.693      199.029        0.582        0.045      102.973        4.515        0.002      330.263       -2.478      849.272
12/29/2021  00:44:00       94.438       32.968      -10.540       39.356       20.027       16.960     1548.881      401.096      287.631        0.618        0.112      100.027       16.930        0.029      330.302       -2.413      849.255
12/29/2021  00:45:00       78.722       13.754      -12.197       25.998       20.490       12.755      675.885      419.823      162.689        0.390        0.063       79.915        6.728        0.007      330.298       -2.415      849.245
12/29/2021  00:46:00       58.635       38.559      -12.364       23.369       16.307       11.389      546.098      265.932      129.704        0.301        0.047       70.177        8.376        0.014      330.271       -2.462      849.260
12/29/2021  00:47:00       40.764       42.147      -12.143       10.052        9.615        9.262      101.052       92.440       85.776        0.193        0.014       58.635        4.392        0.006      330.213       -2.556      849.284
12/29/2021  00:48:00       41.366       39.540      -13.113        8.877        8.429        6.220       78.806       71.049       38.689        0.182        0.009       57.224        5.029        0.008      330.215       -2.554      849.309
12/29/2021  00:49:00       25.123       24.748      -10.593       10.012        8.477       10.168      100.245       71.860      103.386        0.082        0.014       35.265        6.171        0.031      330.272       -2.463      849.322
12/29/2021  00:50:00       29.032       30.331       -7.890       14.081       11.492       10.032      198.288      132.059      100.635        0.113        0.022       41.986        7.581        0.033      330.241       -2.514      849.325
12/29/2021  00:51:00       51.866       31.822      -18.327        8.135        8.810       11.853       66.175       77.609      140.502        0.216        0.014       60.850        4.072        0.004      330.256       -2.490      849.313
12/29/2021  00:52:00       29.621       17.129       -7.769       13.610       10.813       10.831      185.232      116.915      117.321        0.083        0.021       34.217        6.391        0.035      330.285       -2.439      849.295
12/29/2021  00:53:00       51.446       23.838      -19.523       13.045       17.139       15.922      170.160      293.729      253.520        0.216        0.036       56.701        5.538        0.010      330.312       -2.395      849.278
12/29/2021  00:54:00       27.276       -1.773      -11.777       29.682       32.543       15.951      881.024     1059.033      254.429        0.154        0.110       27.334       13.037        0.227      330.355       -2.325      849.244
12/29/2021  00:55:00       49.527       -9.588      -17.012       34.864       25.290       25.607     1215.516      639.592      655.741        0.267        0.126       50.447       18.712        0.138      330.345       -2.343      849.216
12/29/2021  00:56:00       67.223      -16.646      -13.412       43.365       17.816       18.629     1880.532      317.424      347.038        0.376        0.127       69.254       19.173        0.077      330.294       -2.423      849.194
12/29/2021  00:57:00       18.301        2.610       -6.047       27.335       26.767       17.377      747.224      716.479      301.966        0.107        0.088       18.487       14.696        0.632      330.419       -2.220      849.190
12/29/2021  00:58:00       26.684        7.390      -10.620       23.695       23.439       15.888      561.457      549.364      252.421        0.112        0.068       27.689       14.490        0.274      330.396       -2.259      849.199
12/29/2021  00:59:00       26.464       10.959      -21.432       18.186       26.619       14.142      330.736      708.581      199.983        0.126        0.062       28.643        8.428        0.087      330.315       -2.389      849.208
12/29/2021  01:00:00       14.212       36.569       -3.936       23.652       14.683       14.841      559.435      215.601      220.254        0.127        0.050       39.234        9.140        0.054      330.218       -2.548      849.193
12/29/2021  01:01:00      -57.421       29.861      -11.335       34.970       26.515       15.596     1222.909      703.045      243.226        0.324        0.108       64.722        8.766        0.018      330.262       -2.478      849.185
12/29/2021  01:02:00      -92.299       42.550      -11.337       28.862       26.163       18.455      833.037      684.478      340.573        0.616        0.093      101.635       10.229        0.010      330.153       -2.656      849.178
12/29/2021  01:03:00      -39.068        6.057        1.348       42.394       29.849       22.683     1797.293      890.970      514.497        0.238        0.160       39.535       18.050        0.208      330.273       -2.460      849.170
12/29/2021  01:04:00      -52.783        3.846      -19.093       36.754       34.819       21.062     1350.892     1212.364      443.592        0.309        0.150       52.923       19.216        0.132      330.239       -2.516      849.169
12/29/2021  01:05:00      -53.414      -14.427       -0.503       40.615       24.957       21.783     1649.557      622.852      474.511        0.290        0.137       55.328       25.273        0.209      330.290       -2.432      849.156
12/29/2021  01:06:00      -50.781        1.117      -10.285       33.245       18.694       19.105     1105.242      349.450      364.996        0.225        0.091       50.793       16.824        0.110      330.272       -2.461      849.136
12/29/2021  01:07:00       13.415       -6.181       -3.559        9.431       10.955       10.483       88.953      120.012      109.890        0.027        0.016       14.771        6.581        0.199      330.280       -2.447      849.108
12/29/2021  01:08:00      -39.055       17.813      -12.424       26.912       12.460       11.957      724.282      155.255      142.961        0.151        0.051       42.926        9.812        0.052      330.218       -2.550      849.105
12/29/2021  01:09:00      -69.910       18.310      -13.936       19.420       22.931       14.290      377.155      525.840      204.201        0.326        0.055       72.268        8.341        0.013      330.177       -2.618      849.110
12/29/2021  01:10:00      -29.778       -8.834       -9.600       46.489       30.927       19.249     2161.269      956.497      370.532        0.227        0.174       31.060       19.786        0.406      330.291       -2.429      849.117
12/29/2021  01:11:00      -36.981       -3.268        3.517       35.052       25.480       21.321     1228.612      649.236      454.574        0.186        0.117       37.125       16.536        0.198      330.325       -2.374      849.124
12/29/2021  01:12:00      -59.510       21.246       -1.417       51.143       30.735       21.378     2615.558      944.629      457.036        0.401        0.201       63.188       12.349        0.038      330.329       -2.369      849.123
12/29/2021  01:13:00      -86.480        9.416       -7.107       47.591       39.190       29.321     2264.881     1535.879      859.715        0.614        0.233       86.991       26.322        0.092      330.227       -2.535      849.119
12/29/2021  01:14:00      -64.847       37.272       -5.858       47.999       40.600       19.068     2303.897     1648.334      363.573        0.497        0.216       74.795       21.861        0.085      330.153       -2.658      849.111
12/29/2021  01:15:00       -1.028        1.746      -10.461       31.023       19.198       12.791      962.406      368.544      163.600        0.080        0.075        2.026        5.457        7.255      330.269       -2.466      849.087
12/29/2021  01:16:00      -33.047        3.410       -4.397       31.413       30.792       16.863      986.807      948.135      284.356        0.167        0.111       33.222        8.672        0.068      330.182       -2.610      849.039
12/29/2021  01:17:00      -32.512       19.520       -9.974       17.957       14.494       11.618      322.446      210.081      134.985        0.110        0.033       37.922        7.897        0.043      330.202       -2.576      848.996
12/29/2021  01:18:00       -2.529        8.559       -8.398        8.910        7.996        3.968       79.394       63.934       15.748        0.015        0.008        8.924        1.919        0.046      330.200       -2.580      848.960
12/29/2021  01:19:00      -35.913       22.419       -9.921       35.868       17.603       11.119     1286.548      309.871      123.643        0.181        0.086       42.337       15.098        0.127      330.218       -2.550      848.965
12/29/2021  01:20:00      -50.317        9.740      -12.403       56.908       40.141       17.916     3238.577     1611.282      320.994        0.397        0.259       51.251       11.274        0.048      330.260       -2.480      849.006
12/29/2021  01:21:00      -29.588      -30.208      -15.259       69.485       43.806       32.836     4828.105     1918.940     1078.186        0.492        0.391       42.285       28.468        0.453      330.282       -2.445      849.070
12/29/2021  01:22:00     -197.347      -11.794      -16.441       91.754       62.148       46.479     8418.772     3862.379     2160.267        2.690        0.722      197.699       38.005        0.037      330.029       -2.863      849.118
12/29/2021  01:23:00     -225.284        2.357      -16.415       77.092       54.341       41.101     5943.223     2952.950     1689.277        3.080        0.529      225.296       37.004        0.027      329.928       -3.029      849.135
12/29/2021  01:24:00     -139.451       22.702      -11.914       46.744       45.225       32.932     2185.031     2045.323     1084.508        1.271        0.266      141.287       30.908        0.048      329.974       -2.950      849.114
12/29/2021  01:25:00      -88.726        1.103       -6.287       44.799       19.081       18.203     2006.930      364.093      331.357        0.531        0.135       88.733       15.554        0.031      330.045       -2.832      849.060
12/29/2021  01:26:00      -38.064       10.158       -5.974       13.969       13.131       13.587      195.120      172.419      184.605        0.107        0.028       39.396       10.262        0.068      330.057       -2.815      849.004
12/29/2021  01:27:00      -47.835       37.125       -8.374       16.625       13.879        9.481      276.405      192.617       89.881        0.215        0.028       60.551        5.820        0.009      330.091       -2.758      848.974
12/29/2021  01:28:00      -71.575       56.910      -13.803       18.354       13.862       13.303      336.864      192.163      176.958        0.463        0.035       91.443       11.148        0.015      330.085       -2.768      848.961
12/29/2021  01:29:00      -52.415       60.297      -11.112       27.200       15.972       14.194      739.817      255.100      201.481        0.385        0.060       79.894       11.576        0.021      330.074       -2.785      848.970
12/29/2021  01:30:00      -45.946       44.322      -17.930       25.075       21.739       12.205      628.737      472.586      148.966        0.282        0.063       63.839        9.173        0.021      330.108       -2.730      848.993
12/29/2021  01:31:00      -87.726       38.005      -25.420       17.088       22.111       17.123      292.004      488.880      293.187        0.543        0.054       95.605        9.948        0.011      330.038       -2.845      849.034
12/29/2021  01:32:00      -62.015       49.030      -14.115       30.780       18.403       20.757      947.406      338.678      430.845        0.408        0.086       79.056       18.422        0.054      330.016       -2.880      849.062
12/29/2021  01:33:00      -43.206       60.210      -13.616       17.653       26.235       15.166      311.626      688.274      230.010        0.345        0.061       74.108       11.580        0.024      329.977       -2.944      849.060
12/29/2021  01:34:00       21.174       49.099       -5.000       22.531       28.720       16.561      507.654      824.865      274.276        0.225        0.080       53.470       17.200        0.103      330.094       -2.752      849.059
12/29/2021  01:35:00       19.640       73.078       -6.801       30.366       28.308       18.592      922.074      801.330      345.665        0.392        0.103       75.671       16.208        0.046      330.162       -2.644      849.091
12/29/2021  01:36:00      -72.008       57.895      -22.964       47.330       27.092       28.906     2240.162      733.984      835.552        0.644        0.190       92.396       27.302        0.087      330.194       -2.589      849.156
12/29/2021  01:37:00     -124.805       42.530      -24.514       72.191       42.706       32.261     5211.577     1823.815     1040.763        1.303        0.404      131.852       21.743        0.027      330.141       -2.677      849.236
12/29/2021  01:38:00       20.553        7.987        1.252       34.636       55.919       38.030     1199.677     3126.943     1446.262        0.313        0.289       22.051       16.180        0.538      330.191       -2.594      849.298
12/29/2021  01:39:00     -103.565       27.971       -3.319       93.962       55.724       37.315     8828.934     3105.194     1392.397        1.242        0.666      107.276       36.031        0.113      330.140       -2.678      849.330
12/29/2021  01:40:00     -159.887       34.122      -12.966       77.423       55.317       28.739     5994.255     3059.923      825.918        1.839        0.494      163.487       23.857        0.021      330.040       -2.843      849.321
12/29/2021  01:41:00      -96.231       88.819      -14.485       26.792       24.997       17.605      717.822      624.829      309.941        0.951        0.083      130.955       12.350        0.009      329.995       -2.916      849.275
12/29/2021  01:42:00      -71.516       55.194      -15.987       30.265       29.725       15.940      915.993      883.567      254.095        0.523        0.103       90.338       10.957        0.015      330.030       -2.858      849.226
12/29/2021  01:43:00      -62.969       40.306      -16.117       44.244       39.579       15.751     1957.538     1566.499      248.089        0.481        0.189       74.764       20.264        0.073      330.072       -2.790      849.208
12/29/2021  01:44:00      -83.851       -6.595       -8.902       38.931       31.505       19.298     1515.650      992.550      372.422        0.502        0.144       84.110       13.936        0.027      330.114       -2.720      849.195
12/29/2021  01:45:00      -44.266       36.610      -12.666       45.878       19.475       21.027     2104.778      379.294      442.147        0.319        0.146       57.444       24.397        0.180      330.081       -2.775      849.173
12/29/2021  01:46:00       -9.006       40.131       -5.479       12.068       10.560       12.689      145.633      111.523      161.017        0.107        0.021       41.130        6.892        0.028      330.130       -2.696      849.134
12/29/2021  01:47:00      -15.580       40.368       -2.359       25.635       24.545       10.927      657.143      602.468      119.401        0.163        0.069       43.270        9.162        0.045      330.167       -2.634      849.086
12/29/2021  01:48:00       19.044       33.498       -5.647       29.512       24.305       14.379      870.987      590.744      206.768        0.159        0.083       38.533       13.775        0.128      330.198       -2.584      849.053
12/29/2021  01:49:00       39.900       22.621       -5.652       18.741       17.366       16.031      351.244      301.565      256.992        0.152        0.045       45.867       10.854        0.056      330.174       -2.624      849.024
12/29/2021  01:50:00        8.710       10.153      -14.957       13.891       12.829        6.878      192.949      164.573       47.307        0.040        0.020       13.377        5.900        0.195      330.205       -2.574      849.023
12/29/2021  01:51:00       25.909       -3.370        0.884       18.943       25.705       12.264      358.830      660.739      150.418        0.093        0.058       26.127        8.723        0.111      330.345       -2.340      849.060
12/29/2021  01:52:00      -35.124       -7.207       -2.649       46.754       34.848       23.935     2185.899     1214.361      572.868        0.263        0.199       35.855       22.985        0.411      330.345       -2.342      849.082
12/29/2021  01:53:00     -108.515        6.803      -15.702       44.479       32.025       30.327     1978.401     1025.594      919.744        0.800        0.196      108.728       18.611        0.029      330.290       -2.429      849.074
12/29/2021  01:54:00     -108.327       17.466       -9.439       34.401       21.249       20.510     1183.419      451.541      420.653        0.709        0.103      109.726       16.536        0.023      330.258       -2.485      849.047
12/29/2021  01:55:00      -57.282        5.243       -9.307       29.111       20.292       17.427      847.472      411.755      303.705        0.248        0.078       57.522       16.274        0.080      330.333       -2.362      849.018
12/29/2021  01:56:00      -49.677       10.671       -7.767       16.978       20.186       11.381      288.267      407.459      129.516        0.173        0.041       50.810       11.285        0.049      330.400       -2.252      849.009
12/29/2021  01:57:00      -41.344        5.213       -3.045       21.800       17.185       11.613      475.254      295.318      134.868        0.133        0.045       41.671        7.783        0.035      330.466       -2.144      849.022
12/29/2021  01:58:00      -37.337       15.791       -6.267       12.155       10.751        8.205      147.734      115.592       67.327        0.101        0.017       40.538        3.730        0.008      330.403       -2.248      849.028
12/29/2021  01:59:00      -14.940       20.783       -6.255       28.247       10.993        8.700      797.906      120.843       75.683        0.084        0.050       25.596        9.839        0.148      330.407       -2.240      849.012
12/29/2021  02:00:00       29.669       29.687      -11.806       12.357       14.545        8.470      152.694      211.554       71.736        0.117        0.022       41.971        5.233        0.016      330.333       -2.360      848.981
12/29/2021  02:01:00       50.852       42.878       -9.692       20.214       13.309        9.623      408.616      177.132       92.594        0.260        0.034       66.517        4.642        0.005      330.321       -2.379      848.947
12/29/2021  02:02:00       49.596       11.517       -6.484       36.714       29.866       20.873     1347.941      892.008      435.676        0.265        0.134       50.916       16.803        0.109      330.328       -2.369      848.915
12/29/2021  02:03:00      109.908        9.897      -12.721       24.700       13.364       11.298      610.074      178.601      127.635        0.663        0.046      110.353        8.289        0.006      330.187       -2.602      848.897
12/29/2021  02:04:00       58.561       28.930      -17.114       30.778       30.997       22.020      947.268      960.804      484.890        0.348        0.120       65.317        9.726        0.022      330.392       -2.263      848.906
12/29/2021  02:05:00       31.182       31.315       -9.647       22.904       24.634       17.422      524.606      606.816      303.521        0.174        0.072       44.192       13.869        0.099      330.375       -2.292      848.923
12/29/2021  02:06:00       34.627       41.134       -9.266       13.398       11.236       12.251      179.495      126.246      150.099        0.172        0.023       53.769        7.144        0.018      330.362       -2.313      848.918
12/29/2021  02:07:00       17.427       12.231       -4.190       11.656       12.072        8.257      135.867      145.727       68.181        0.041        0.017       21.291        3.404        0.026      330.378       -2.287      848.904
12/29/2021  02:08:00       37.895       10.000       -8.471       16.512       14.982       12.381      272.658      224.450      153.285        0.113        0.033       39.193        8.740        0.050      330.335       -2.356      848.886
12/29/2021  02:09:00       39.824       13.117       -7.667        8.859        7.991        5.841       78.483       63.857       34.121        0.100        0.009       41.928        3.366        0.006      330.354       -2.326      848.864
12/29/2021  02:10:00       58.248       19.377      -12.548       12.856       12.773        9.183      165.270      163.145       84.321        0.217        0.021       61.387        8.062        0.017      330.370       -2.301      848.831
12/29/2021  02:11:00       78.056       22.842      -15.760       18.128       20.278       13.879      328.641      411.208      192.637        0.390        0.047       81.330        9.817        0.015      330.346       -2.340      848.795
12/29/2021  02:12:00       31.187       -0.419      -10.159       27.010       24.087       19.986      729.528      580.179      399.444        0.139        0.085       31.190       16.674        0.286      330.361       -2.315      848.772
12/29/2021  02:13:00       51.963        5.284       -3.147       53.029       26.382       24.095     2812.090      696.017      580.564        0.341        0.204       52.231       26.514        0.258      330.195       -2.589      848.777
12/29/2021  02:14:00       58.176       16.765      -16.063       14.904       14.437       10.355      222.116      208.427      107.226        0.223        0.027       60.544        6.571        0.012      330.124       -2.704      848.807
12/29/2021  02:15:00       46.802       25.072      -11.968       17.622        9.776       10.777      310.534       95.566      116.150        0.174        0.026       53.094        9.006        0.029      330.095       -2.752      848.808
12/29/2021  02:16:00       43.802       42.603       -6.120       19.709       16.326       13.679      388.433      266.540      187.123        0.231        0.042       61.103        5.277        0.007      330.127       -2.702      848.775
12/29/2021  02:17:00       77.067       52.620      -14.692        8.757       11.850        8.029       76.679      140.413       64.468        0.460        0.014       93.318        4.433        0.002      330.170       -2.628      848.739
12/29/2021  02:18:00       84.824       37.614      -17.277        8.276        7.328        6.410       68.489       53.706       41.088        0.454        0.008       92.789        2.288        0.001      330.154       -2.657      848.724
12/29/2021  02:19:00       74.605       22.662      -17.220       27.390       22.420       15.667      750.222      502.641      245.450        0.394        0.075       77.970       14.077        0.033      330.230       -2.533      848.739
12/29/2021  02:20:00       71.541       13.713      -12.568       26.167       18.446       16.257      684.726      340.260      264.290        0.338        0.064       72.843       14.450        0.039      330.217       -2.552      848.757
12/29/2021  02:21:00      100.139       32.013      -14.095        9.450        8.961        6.828       89.308       80.307       46.616        0.573        0.011      105.131        2.451        0.001      330.131       -2.695      848.765
12/29/2021  02:22:00       90.327       33.685      -13.898       17.122       10.343        8.817      293.170      106.974       77.731        0.498        0.024       96.404        5.921        0.004      330.137       -2.686      848.761
12/29/2021  02:23:00       55.745       28.609      -14.267       20.594       14.492       13.152      424.132      210.017      172.983        0.247        0.040       62.658        5.575        0.008      330.151       -2.659      848.770
12/29/2021  02:24:00       50.021       33.113      -17.264       23.307       17.583       13.852      543.211      309.179      191.886        0.247        0.052       59.988        5.976        0.010      330.219       -2.549      848.776
12/29/2021  02:25:00       33.325       28.010      -15.164       14.555       16.476        9.135      211.858      271.455       83.448        0.135        0.028       43.533        4.284        0.010      330.216       -2.553      848.786
12/29/2021  02:26:00       17.664       18.195      -13.859       13.765       12.756        8.046      189.483      162.720       64.740        0.063        0.021       25.359        3.899        0.024      330.205       -2.570      848.794
12/29/2021  02:27:00       -3.740        4.566       -8.003        7.118        4.111        7.126       50.665       16.900       50.783        0.011        0.006        5.903        5.449        0.852      330.213       -2.558      848.816
12/29/2021  02:28:00        3.002       14.265       -6.445        6.484       10.970       11.661       42.045      120.343      135.978        0.028        0.015       14.577        6.944        0.227      330.205       -2.574      848.841
12/29/2021  02:29:00       27.262       21.052      -12.368       13.328       15.445       10.009      177.628      238.553      100.170        0.093        0.026       34.444        6.470        0.035      330.216       -2.554      848.849
12/29/2021  02:30:00       45.889      -11.184      -14.627       19.631       18.816       10.109      385.371      354.042      102.190        0.164        0.042       47.233        5.997        0.016      330.197       -2.584      848.831
12/29/2021  02:31:00       23.596       12.906       -6.310       15.881       15.093        9.884      252.216      227.798       97.691        0.067        0.029       26.895       10.326        0.147      330.177       -2.617      848.811
12/29/2021  02:32:00        7.391       16.151       -0.667       20.323       12.039        8.002      413.008      144.944       64.036        0.047        0.031       17.762        7.195        0.164      330.205       -2.573      848.790
12/29/2021  02:33:00      -10.015       41.216       -8.314       16.856       14.617        9.393      284.121      213.652       88.222        0.123        0.029       42.416        7.872        0.034      330.270       -2.464      848.775
12/29/2021  02:34:00       -7.167       57.661      -18.735       38.353       32.123       16.895     1470.957     1031.891      285.445        0.326        0.139       58.105       12.678        0.048      330.305       -2.407      848.778
12/29/2021  02:35:00      -75.817       22.208      -32.689       34.460       26.319       22.749     1187.503      692.677      517.536        0.485        0.120       79.003       10.083        0.016      330.220       -2.548      848.796
12/29/2021  02:36:00     -113.254       46.932      -18.513       38.003       36.807       18.865     1444.233     1354.791      355.873        0.926        0.158      122.593       22.990        0.035      330.082       -2.771      848.823
12/29/2021  02:37:00     -102.772       59.574      -18.265       17.884       18.318       17.452      319.826      335.535      304.561        0.770        0.048      118.790       10.598        0.008      330.082       -2.771      848.836
12/29/2021  02:38:00      -95.742       53.612      -14.649       31.893       24.511       17.442     1017.185      600.780      304.223        0.709        0.096      109.730       16.130        0.022      330.086       -2.766      848.826
12/29/2021  02:39:00      -96.568       40.862      -31.140       30.510       30.013       23.196      930.868      900.792      538.050        0.717        0.118      104.857       11.901        0.013      330.178       -2.614      848.815
12/29/2021  02:40:00      -71.712       33.644      -18.239       47.472       30.805       21.610     2253.575      948.935      466.999        0.514        0.183       79.212       25.086        0.100      330.131       -2.694      848.815
12/29/2021  02:41:00      -99.425       41.502      -19.606       40.701       25.347       29.984     1656.561      642.495      899.061        0.759        0.160      107.740       20.504        0.036      330.128       -2.700      848.835
12/29/2021  02:42:00      -94.413       28.112       -6.661       61.783       30.327       30.597     3817.188      919.699      936.175        0.771        0.284       98.510       34.923        0.126      330.149       -2.665      848.857
12/29/2021  02:43:00      -46.993       52.974      -21.251       30.231       30.740       25.222      913.895      944.934      636.135        0.398        0.125       70.814       15.575        0.048      330.247       -2.502      848.859
12/29/2021  02:44:00      -34.083       56.474      -28.620       40.973       56.877       32.736     1678.798     3235.014     1071.665        0.558        0.299       65.961       28.543        0.187      330.180       -2.613      848.853
12/29/2021  02:45:00      -26.712       58.409       -3.181       52.394       33.604       28.188     2745.123     1129.197      794.568        0.440        0.233       64.227       13.631        0.045      330.251       -2.496      848.831
12/29/2021  02:46:00      -22.074       76.839      -12.548       47.057       32.477       20.282     2214.381     1054.770      411.354        0.511        0.184       79.947       10.311        0.017      330.290       -2.430      848.802
12/29/2021  02:47:00      -16.741      127.999       -9.583       44.665       30.424       26.052     1994.969      925.592      678.686        1.018        0.180      129.089       21.072        0.027      330.307       -2.405      848.758
12/29/2021  02:48:00       -4.394       96.240      -11.270       45.344       34.783       21.999     2056.051     1209.868      483.965        0.658        0.187       96.340       16.348        0.029      330.387       -2.273      848.726
12/29/2021  02:49:00        8.599       82.252      -18.373       30.346       32.442       24.226      920.852     1052.515      586.894        0.487        0.128       82.700       21.922        0.070      330.428       -2.205      848.716
12/29/2021  02:50:00       27.041       99.989       -5.106       32.701       51.331       32.197     1069.337     2634.874     1036.643        0.775        0.237      103.581       32.984        0.101      330.460       -2.152      848.726
12/29/2021  02:51:00       -1.050       85.279       -1.032       30.856       33.712       23.295      952.065     1136.522      542.670        0.495        0.132       85.286       19.444        0.052      330.442       -2.182      848.736
12/29/2021  02:52:00      -22.458       33.847       -8.186       19.020       33.460       17.008      361.772     1119.545      289.279        0.174        0.089       40.621       10.439        0.066      330.504       -2.084      848.742
12/29/2021  02:53:00      -36.808       45.717      -14.960       22.900       26.290       20.492      524.400      691.152      419.908        0.265        0.082       58.693       12.219        0.043      330.465       -2.145      848.746
12/29/2021  02:54:00      -45.800       -2.509      -12.077       43.669       21.524       20.443     1906.954      463.267      417.896        0.252        0.139       45.868       12.010        0.069      330.403       -2.247      848.747
12/29/2021  02:55:00      -17.474      -27.748      -13.160       19.320       26.814       14.735      373.257      718.973      217.118        0.128        0.065       32.792        8.645        0.070      330.417       -2.225      848.751
12/29/2021  02:56:00       33.187       -4.078      -13.788       26.604       24.581       17.836      707.773      604.221      318.141        0.147        0.082       33.436       13.046        0.152      330.421       -2.216      848.748
12/29/2021  02:57:00       57.432       19.319      -13.888       24.021       21.409       13.757      577.009      458.356      189.262        0.254        0.061       60.594        6.157        0.010      330.424       -2.213      848.739
12/29/2021  02:58:00       37.906       12.829       -6.632       37.745       31.524       26.706     1424.669      993.770      713.232        0.239        0.157       40.018       17.635        0.194      330.465       -2.146      848.714
12/29/2021  02:59:00       62.288       57.477      -27.401       27.310       19.462       20.154      745.826      378.774      406.193        0.473        0.077       84.755       11.968        0.020      330.386       -2.274      848.691
12/29/2021  03:00:00       71.742       45.239      -22.467       22.121       25.320       14.182      489.355      641.108      201.137        0.451        0.067       84.814       10.389        0.015      330.303       -2.411      848.682
12/29/2021  03:01:00       49.767       18.249      -15.132       19.198       23.450       16.107      368.574      549.913      259.444        0.211        0.059       53.007       11.609        0.048      330.294       -2.425      848.682
12/29/2021  03:02:00       28.249        5.037       -0.737       16.014       10.353       12.049      256.437      107.191      145.170        0.067        0.025       28.695       10.143        0.125      330.294       -2.422      848.683
12/29/2021  03:03:00       22.957       16.322      -14.377       21.038       16.562       18.438      442.599      274.308      339.954        0.103        0.053       28.168       14.097        0.250      330.294       -2.424      848.690
12/29/2021  03:04:00       18.638       13.554       -2.838       14.500       12.929        8.934      210.238      167.169       79.819        0.050        0.023       23.045        7.348        0.102      330.343       -2.345      848.679
12/29/2021  03:05:00       -6.668       31.154        1.147       17.880       21.379        9.458      319.678      457.049       89.452        0.094        0.043       31.859        9.100        0.082      330.444       -2.180      848.669
12/29/2021  03:06:00      -36.714       50.299       -5.535       18.555       22.146       16.875      344.284      490.434      284.768        0.251        0.056       62.273        5.256        0.007      330.472       -2.135      848.649
12/29/2021  03:07:00      -30.131       41.193      -10.348       28.188       17.021       15.224      794.573      289.725      231.781        0.201        0.066       51.037        9.419        0.034      330.443       -2.181      848.628
12/29/2021  03:08:00      -30.670       20.325      -13.280       24.733       22.707       17.102      611.713      515.590      292.475        0.147        0.071       36.794       11.124        0.091      330.456       -2.159      848.616
12/29/2021  03:09:00      -35.948       25.910       -9.771       16.764       19.023       10.165      281.032      361.871      103.320        0.140        0.037       44.313        5.039        0.013      330.465       -2.145      848.602
12/29/2021  03:10:00      -31.550       33.232       -7.449       22.416       16.502       13.335      502.468      272.308      177.815        0.155        0.048       45.823        9.828        0.046      330.499       -2.089      848.589
12/29/2021  03:11:00      -49.906        7.624      -14.733       21.962       17.344       14.564      482.338      300.825      212.100        0.188        0.050       50.485       12.007        0.057      330.521       -2.054      848.581
12/29/2021  03:12:00      -12.412       -7.260        0.662       17.443       10.632        9.707      304.245      113.030       94.233        0.036        0.026       14.379       10.925        0.577      330.615       -1.900      848.575
12/29/2021  03:13:00      -37.453       15.780       -9.540       27.298       19.818       12.141      745.157      392.747      147.400        0.151        0.064       40.641        7.263        0.032      330.594       -1.933      848.565
12/29/2021  03:14:00      -60.338       33.102      -10.125       17.538       26.830       15.622      307.598      719.844      244.059        0.305        0.064       68.821        6.011        0.008      330.550       -2.006      848.545
12/29/2021  03:15:00      -72.006       44.713      -18.274       18.207       24.292       13.221      331.498      590.077      174.794        0.431        0.055       84.759        4.018        0.002      330.530       -2.039      848.516
12/29/2021  03:16:00     -110.654       42.537      -18.709       23.993       18.407       16.233      575.654      338.813      263.518        0.779        0.059      118.549       10.854        0.008      330.540       -2.024      848.501
12/29/2021  03:17:00     -116.047       24.195      -15.307       18.119       19.756       16.930      328.314      390.305      286.639        0.765        0.050      118.543        7.328        0.004      330.514       -2.064      848.517
12/29/2021  03:18:00      -24.078        1.596       -0.396       37.539       32.053       27.556     1409.172     1027.385      759.315        0.189        0.160       24.130       17.155        0.505      330.601       -1.922      848.544
12/29/2021  03:19:00     -130.086       28.811       -4.183       37.612       33.128       23.545     1414.680     1097.480      554.356        1.042        0.153      133.238       18.256        0.019      330.546       -2.011      848.573
12/29/2021  03:20:00      -38.321       16.276       -5.938       40.141       26.474       19.903     1611.315      700.861      396.137        0.224        0.135       41.634       20.138        0.234      330.532       -2.036      848.589
12/29/2021  03:21:00      -60.635        8.212       -5.287       29.150       29.617       16.244      849.746      877.143      263.864        0.288        0.100       61.188        6.454        0.011      330.524       -2.048      848.596
12/29/2021  03:22:00      -75.889        5.209      -17.939       20.447       19.790       15.434      418.084      391.650      238.218        0.358        0.052       76.068        5.837        0.006      330.503       -2.083      848.592
12/29/2021  03:23:00      -33.226      -16.780       -6.785       50.560       18.059       20.645     2556.344      326.144      426.215        0.237        0.165       37.223       25.462        0.468      330.559       -1.990      848.585
12/29/2021  03:24:00      -47.367        3.959        1.240       36.653       26.687       19.937     1343.425      712.177      397.472        0.236        0.123       47.532       20.009        0.177      330.502       -2.085      848.578
12/29/2021  03:25:00       -9.769      -21.098       -4.265       62.351       26.419       25.287     3887.642      697.940      639.413        0.289        0.261       23.250       24.618        1.121      330.582       -1.954      848.574
12/29/2021  03:26:00      -94.247      -17.954       -8.991       50.151       32.530       24.881     2515.115     1058.229      619.061        0.674        0.210       95.942       23.574        0.060      330.513       -2.067      848.565
12/29/2021  03:27:00     -116.272       24.925      -14.458       49.256       44.754       24.164     2426.161     2002.945      583.903        0.968        0.251      118.914       16.905        0.020      330.361       -2.315      848.537
12/29/2021  03:28:00      -33.835        0.016       -5.499       36.342       34.659       22.571     1320.707     1201.245      509.435        0.210        0.152       33.835       16.289        0.232      330.363       -2.313      848.503
12/29/2021  03:29:00      -33.545        5.768       -6.406       21.768       19.654       18.131      473.857      386.286      328.742        0.119        0.059       34.038       12.834        0.142      330.412       -2.234      848.466
12/29/2021  03:30:00      -28.227       -5.812       -9.104       22.316       14.861       15.464      498.015      220.851      239.130        0.094        0.048       28.820        6.800        0.056      330.482       -2.117      848.447
12/29/2021  03:31:00      -31.680      -12.118      -10.699       27.288       25.566       18.014      744.623      653.629      324.497        0.149        0.086       33.918       17.375        0.262      330.478       -2.123      848.440
12/29/2021  03:32:00       -8.479        3.157      -18.486       33.730       26.744       14.875     1137.690      715.252      221.275        0.125        0.104        9.047       15.080        2.778      330.459       -2.155      848.435
12/29/2021  03:33:00       -8.398       -5.445      -16.663       19.273       21.623       13.417      371.461      467.538      180.014        0.070        0.051       10.009        7.729        0.596      330.499       -2.089      848.435
12/29/2021  03:34:00      -10.492       -2.585       -3.240       24.171       34.730       13.919      584.247     1206.156      193.730        0.106        0.099       10.806       12.854        1.415      330.496       -2.097      848.439
12/29/2021  03:35:00      -34.578       -4.897       -0.301       34.566       23.147       15.209     1194.834      535.778      231.315        0.159        0.098       34.923        3.296        0.009      330.553       -2.001      848.448
12/29/2021  03:36:00       -7.434       -8.888       -3.654       26.016       22.403       17.452      676.824      501.880      304.561        0.082        0.074       11.587        9.800        0.715      330.596       -1.931      848.457
12/29/2021  03:37:00      -40.752       19.904        2.067       33.343       18.017       12.849     1111.739      324.599      165.100        0.183        0.080       45.353       14.981        0.109      330.471       -2.135      848.455
12/29/2021  03:38:00      -29.556       -7.730       -9.832       20.366       19.166       16.294      414.785      367.319      265.504        0.104        0.052       30.550        9.938        0.106      330.500       -2.088      848.442
12/29/2021  03:39:00      -43.359      -20.431      -12.606       14.549       10.049       11.991      211.660      100.976      143.776        0.146        0.023       47.931        5.675        0.014      330.513       -2.066      848.431
12/29/2021  03:40:00       -9.520       -4.698      -11.722       15.180        6.182       10.304      230.417       38.217      106.171        0.031        0.019       10.616       11.154        1.104      330.460       -2.153      848.411
12/29/2021  03:41:00      -18.706      -13.386       -0.583       18.742       12.354       13.784      351.276      152.626      189.991        0.061        0.035       23.002        9.149        0.158      330.616       -1.899      848.399
12/29/2021  03:42:00      -19.310      -10.948      -10.793       20.674       12.642       11.772      427.404      159.813      138.584        0.067        0.036       22.198        6.384        0.083      330.594       -1.934      848.391
12/29/2021  03:43:00       -1.047      -22.573       -2.271       11.254       19.927       11.028      126.644      397.094      121.609        0.058        0.032       22.597        6.331        0.078      330.616       -1.897      848.388
12/29/2021  03:44:00       -7.393       -4.942       -6.523       14.156       11.876        9.162      200.401      141.035       83.940        0.027        0.021        8.893        5.579        0.394      330.614       -1.900      848.378
12/29/2021  03:45:00      -13.541       -0.296       -5.272       11.176       10.001        9.995      124.897      100.022       99.890        0.027        0.016       13.544        6.475        0.229      330.557       -1.994      848.357
12/29/2021  03:46:00       14.195        8.966       -4.307       15.588        9.597        8.104      242.978       92.112       65.668        0.035        0.020       16.790        4.561        0.074      330.508       -2.077      848.331
12/29/2021  03:47:00       18.124       24.322       -4.627       15.456       10.697        7.371      238.878      114.423       54.337        0.067        0.020       30.332        3.665        0.015      330.488       -2.109      848.320
12/29/2021  03:48:00       16.622       25.306       -5.685       22.457       17.058       14.728      504.322      290.979      216.907        0.098        0.051       30.277       10.863        0.129      330.425       -2.211      848.320
12/29/2021  03:49:00       10.474       20.258       -7.527       11.864       12.065       12.948      140.760      145.554      167.653        0.052        0.023       22.806        6.853        0.090      330.489       -2.106      848.336
12/29/2021  03:50:00      -63.652       37.207      -13.162       20.359       10.732       12.578      414.498      115.170      158.201        0.315        0.034       73.729       10.487        0.020      330.441       -2.184      848.357
12/29/2021  03:51:00      -22.756        6.918       -0.183       24.519       15.418       18.241      601.188      237.712      332.738        0.087        0.059       23.784       14.341        0.364      330.419       -2.219      848.367
12/29/2021  03:52:00      -41.546       22.926       -8.264       15.015       16.152       14.688      225.437      260.901      215.741        0.151        0.035       47.452        8.624        0.033      330.420       -2.217      848.359
12/29/2021  03:53:00      -53.083       32.318       -5.282       18.705       17.208       14.086      349.892      296.104      198.401        0.237        0.042       62.147        3.708        0.004      330.417       -2.223      848.340
12/29/2021  03:54:00      -47.469       29.305       -7.159       17.306       16.524       12.930      299.484      273.033      167.181        0.195        0.037       55.786        7.777        0.019      330.413       -2.231      848.325
12/29/2021  03:55:00      -25.555        5.420      -11.889        9.380        7.748        7.192       87.978       60.032       51.730        0.051        0.010       26.124        5.227        0.040      330.442       -2.181      848.314
12/29/2021  03:56:00      -13.607       -9.602       -4.929       13.554       18.098       12.994      183.718      327.531      168.833        0.049        0.034       16.654       11.015        0.437      330.554       -1.999      848.299
12/29/2021  03:57:00      -19.407        9.454       -9.248       14.908       27.008       13.162      222.247      729.414      173.236        0.084        0.056       21.587       11.457        0.282      330.516       -2.061      848.273
12/29/2021  03:58:00       23.456       37.131        1.452       23.822       17.913       15.649      567.479      320.862      244.882        0.153        0.057       43.919        5.841        0.018      330.485       -2.113      848.247
12/29/2021  03:59:00       43.540       28.538       -9.821       13.686       16.377        9.930      187.311      268.190       98.613        0.168        0.028       52.059        4.674        0.008      330.447       -2.174      848.222
12/29/2021  04:00:00        8.603       16.622       -4.641        8.389        7.630        7.887       70.369       58.212       62.201        0.028        0.010       18.716        6.531        0.122      330.437       -2.191      848.206
12/29/2021  04:01:00        3.069       16.514       -7.811        8.175        5.068        6.085       66.833       25.682       37.022        0.024        0.006       16.796        5.178        0.095      330.455       -2.160      848.189
12/29/2021  04:02:00        8.042        9.051       -5.480        7.741        5.531        4.724       59.928       30.588       22.314        0.014        0.006       12.107        3.056        0.064      330.474       -2.129      848.178
12/29/2021  04:03:00       -1.799       20.324       -1.139       14.974        9.657       10.043      224.218       93.256      100.857        0.042        0.021       20.404        9.639        0.223      330.558       -1.993      848.161
12/29/2021  04:04:00       -8.288       24.548       -4.541       14.744       14.431        9.480      217.388      208.265       89.868        0.060        0.026       25.909        7.689        0.088      330.533       -2.033      848.131
12/29/2021  04:05:00      -24.755       35.406       -7.722       26.539       14.903        8.530      704.303      222.104       72.766        0.146        0.050       43.201        4.808        0.012      330.549       -2.007      848.097
12/29/2021  04:06:00      -18.930       37.297       -4.537       14.503       12.356        8.868      210.351      152.672       78.642        0.111        0.022       41.826        5.085        0.015      330.550       -2.008      848.080
12/29/2021  04:07:00      -24.808       36.132       -8.126        9.916       11.348        7.651       98.324      128.781       58.542        0.114        0.014       43.829        3.360        0.006      330.579       -1.958      848.077
12/29/2021  04:08:00      -23.840       13.518        0.125       24.953       21.498       18.328      622.643      462.176      335.900        0.109        0.071       27.405       14.866        0.294      330.628       -1.878      848.080
12/29/2021  04:09:00      -33.946        0.464       -6.083       26.576       16.133       17.189      706.304      260.275      295.447        0.123        0.063       33.950       10.757        0.100      330.659       -1.827      848.080
12/29/2021  04:10:00      -10.799      -14.304        2.743       15.281       18.804       18.456      233.513      353.588      340.630        0.063        0.046       17.922        9.768        0.297      330.747       -1.682      848.080
12/29/2021  04:11:00      -14.162      -24.209      -14.304       20.915       18.006       18.257      437.437      324.204      333.325        0.104        0.055       28.047        9.944        0.126      330.735       -1.702      848.078
12/29/2021  04:12:00      -14.337      -12.335      -22.938       13.673       18.303       11.867      186.952      335.010      140.817        0.077        0.033       18.914        7.824        0.171      330.754       -1.671      848.086
12/29/2021  04:13:00       -7.196      -19.695      -17.126       15.848       33.926       10.283      251.146     1150.954      105.742        0.112        0.075       20.968        9.793        0.218      330.750       -1.676      848.090
12/29/2021  04:14:00        3.274       17.329       -6.717       20.027       13.140        8.390      401.082      172.664       70.391        0.050        0.032       17.636        7.225        0.168      330.575       -1.966      848.069
12/29/2021  04:15:00       54.729       40.902       -7.586       18.672       19.904        9.258      348.641      396.179       85.701        0.278        0.042       68.324        6.291        0.008      330.498       -2.094      848.026
12/29/2021  04:16:00       80.289       -6.308      -17.278       43.359       48.453       29.465     1879.982     2347.733      868.174        0.594        0.255       80.536       18.771        0.054      330.516       -2.061      847.963
12/29/2021  04:17:00       48.421       20.981      -21.778       48.998       54.707       34.907     2400.792     2992.863     1218.471        0.493        0.331       52.771       22.846        0.187      330.644       -1.850      847.926
12/29/2021  04:18:00       49.584       -5.166      -11.619       62.951       52.190       44.971     3962.872     2723.799     2022.397        0.566        0.435       49.852       36.303        0.530      330.704       -1.752      847.932
12/29/2021  04:19:00       84.125      -12.439      -10.443       74.306       46.282       40.572     5521.369     2141.981     1646.057        0.832        0.465       85.040       39.307        0.214      330.589       -1.941      847.940
12/29/2021  04:20:00       64.315       -7.887       -2.531       51.356       64.501       44.395     2637.433     4160.334     1970.917        0.649        0.438       64.797       37.623        0.337      330.730       -1.711      847.945
12/29/2021  04:21:00       54.745       10.723       -0.039       53.026       54.909       40.889     2811.806     3014.984     1671.910        0.530        0.375       55.786       30.806        0.305      330.640       -1.857      847.940
12/29/2021  04:22:00       73.619       12.656      -18.438       45.811       52.962       30.939     2098.673     2804.950      957.236        0.589        0.293       74.699       18.974        0.065      330.604       -1.917      847.937
12/29/2021  04:23:00      106.142        8.067      -15.449       61.461       44.648       26.088     3777.501     1993.421      680.574        0.901        0.323      106.448       26.902        0.064      330.435       -2.195      847.917
12/29/2021  04:24:00      135.519      -13.406       -8.336       34.799       29.108       23.793     1210.993      847.304      566.091        1.062        0.131      136.181       16.296        0.014      330.293       -2.427      847.877
12/29/2021  04:25:00      118.983        5.847       -9.420       40.632       28.880       25.012     1650.987      834.068      625.618        0.869        0.156      119.127       22.760        0.037      330.241       -2.512      847.834
12/29/2021  04:26:00      107.261        4.256      -13.833       49.693       26.938       22.734     2469.394      725.659      516.838        0.771        0.186      107.346        8.883        0.007      330.263       -2.476      847.805
12/29/2021  04:27:00       68.702       23.201       -9.558       49.586       37.597       24.814     2458.795     1413.497      615.711        0.492        0.224       72.514       19.251        0.070      330.264       -2.475      847.804
12/29/2021  04:28:00       83.826       35.608      -19.286       22.618       20.415       16.523      511.594      416.777      273.022        0.493        0.060       91.076       13.891        0.023      330.233       -2.525      847.813
12/29/2021  04:29:00       58.160       43.710      -13.452       24.060       17.359       20.063      578.887      301.325      402.505        0.338        0.064       72.753       13.746        0.036      330.192       -2.594      847.819
12/29/2021  04:30:00       48.649       54.794       -8.563       18.375       20.080       15.009      337.627      403.211      225.285        0.320        0.048       73.275       11.137        0.023      330.236       -2.521      847.833
12/29/2021  04:31:00       73.965       53.681      -18.401       26.262       22.399       19.363      689.691      501.701      374.910        0.513        0.078       91.392       15.275        0.028      330.262       -2.477      847.840
12/29/2021  04:32:00       51.453       38.997       -8.322       14.490       19.698        9.833      209.962      388.015       96.690        0.247        0.035       64.562        3.256        0.003      330.241       -2.512      847.859
12/29/2021  04:33:00       48.424       21.652      -10.411       20.678       17.523       13.169      427.561      307.040      173.414        0.191        0.045       53.045       11.037        0.043      330.237       -2.518      847.878
12/29/2021  04:34:00       83.388       38.254      -11.902       40.643       32.884       20.134     1651.860     1081.351      405.375        0.585        0.157       91.744       16.930        0.034      330.235       -2.522      847.884
12/29/2021  04:35:00      137.554       66.256      -16.091       23.027       19.794       14.766      530.235      391.797      218.041        1.235        0.057      152.679        7.132        0.002      330.213       -2.558      847.843
12/29/2021  04:36:00      108.720       78.972      -21.391       49.286       27.155       19.686     2429.083      737.376      387.555        1.103        0.178      134.374       11.696        0.008      330.195       -2.590      847.806
12/29/2021  04:37:00      116.043       66.378      -16.895       43.036       25.479       24.556     1852.055      649.193      602.997        1.063        0.155      133.686       17.991        0.018      330.147       -2.667      847.803
12/29/2021  04:38:00       96.403       35.513      -18.521       34.322       28.005       18.758     1177.989      784.260      351.846        0.661        0.116      102.737        9.893        0.009      330.200       -2.581      847.838
12/29/2021  04:39:00       93.105       42.985      -24.311       25.097       29.014       20.998      629.877      841.783      440.907        0.651        0.096      102.548        8.082        0.006      330.221       -2.546      847.870
12/29/2021  04:40:00      100.192       26.778      -18.955       47.777       55.168       28.329     2282.658     3043.488      802.552        0.862        0.306      103.709        6.337        0.004      330.261       -2.481      847.863
12/29/2021  04:41:00      137.215        8.447      -26.147       51.879       37.856       27.381     2691.427     1433.086      749.695        1.223        0.244      137.475       25.465        0.034      330.194       -2.588      847.817
12/29/2021  04:42:00       78.816       15.183       -4.315       42.373       35.509       26.991     1795.483     1260.909      728.494        0.512        0.189       80.265       22.694        0.080      330.114       -2.721      847.787
12/29/2021  04:43:00       76.549        8.496       -3.122       44.678       24.781       20.483     1996.125      614.088      419.568        0.449        0.151       77.019       23.993        0.097      330.059       -2.810      847.823
12/29/2021  04:44:00      103.779       25.239      -11.746       17.562       20.097       13.082      308.439      403.903      171.149        0.621        0.044      106.804        7.274        0.005      330.076       -2.783      847.882
12/29/2021  04:45:00       98.610       37.792      -16.298       14.928       21.373       10.653      222.854      456.824      113.487        0.611        0.040      105.603        5.586        0.003      330.090       -2.762      847.898
12/29/2021  04:46:00       88.551       36.597      -15.653       11.933       11.462        7.781      142.402      131.387       60.545        0.488        0.017       95.816        5.448        0.003      330.068       -2.798      847.861
12/29/2021  04:47:00       60.569       25.753       -7.299       28.064       13.088        8.466      787.614      171.286       71.673        0.271        0.052       65.816       11.075        0.028      330.045       -2.831      847.850
12/29/2021  04:48:00       29.470       23.329      -17.435       10.581       20.589       13.247      111.958      423.908      175.487        0.121        0.036       37.586        7.268        0.037      330.072       -2.789      847.876
12/29/2021  04:49:00       12.363      -26.338      -13.991       18.211       21.987       16.873      331.654      483.413      284.691        0.107        0.055       29.095        7.230        0.062      330.276       -2.454      847.900
12/29/2021  04:50:00       76.362       38.310       -5.584       38.098       42.873       30.024     1451.485     1838.104      901.414        0.576        0.210       85.433       17.713        0.043      330.263       -2.476      847.878
12/29/2021  04:51:00      105.991       32.519      -24.367       46.337       48.704       19.656     2147.082     2372.114      386.345        0.889        0.245      110.868       16.568        0.022      330.194       -2.590      847.797
12/29/2021  04:52:00      133.404       58.024      -11.890       55.465       37.421       18.598     3076.350     1400.339      345.886        1.306        0.241      145.476       12.134        0.007      330.057       -2.811      847.720
12/29/2021  04:53:00       65.548       37.451       -6.814       40.809       25.780       21.357     1665.371      664.598      456.119        0.427        0.139       75.493       17.261        0.052      330.070       -2.793      847.705
12/29/2021  04:54:00       29.186        5.194      -13.486       27.777       23.481       14.383      771.588      551.341      206.876        0.129        0.076       29.644       16.211        0.299      330.091       -2.760      847.748
12/29/2021  04:55:00       27.549      -27.287      -14.827       18.512       15.697       12.613      342.676      246.391      159.090        0.124        0.037       38.775       11.808        0.093      330.108       -2.728      847.808
12/29/2021  04:56:00       15.670        0.051       -6.519       16.875       31.931       17.696      284.754     1019.613      313.135        0.095        0.081       15.670       10.344        0.436      330.223       -2.541      847.801
12/29/2021  04:57:00       85.238       25.333      -16.317       19.824       22.234       17.177      392.975      494.349      295.065        0.468        0.059       88.922       14.597        0.027      330.094       -2.754      847.723
12/29/2021  04:58:00      116.450       53.473       -7.351       27.943       23.391       18.555      780.801      547.138      344.285        0.907        0.084      128.141        9.681        0.006      330.036       -2.847      847.646
12/29/2021  04:59:00       46.960        9.334        5.489       36.208       22.773       23.154     1310.987      518.624      536.101        0.234        0.118       47.879       13.334        0.078      330.088       -2.765      847.642
12/29/2021  05:00:00       47.909      -10.762      -10.762       25.024       13.751        7.156      626.181      189.100       51.208        0.170        0.043       49.103        6.207        0.016      330.080       -2.777      847.700
12/29/2021  05:01:00       -5.403      -10.520      -12.320       11.727       16.346       13.964      137.517      267.201      194.999        0.045        0.030       11.826        7.258        0.377      330.264       -2.475      847.746
12/29/2021  05:02:00       12.627       23.328      -13.118       30.962       35.486       13.878      958.619     1259.232      192.597        0.164        0.121       26.526        6.383        0.058      330.183       -2.608      847.756
12/29/2021  05:03:00       31.530       23.828       -5.226       17.369       15.618        6.158      301.699      243.935       37.916        0.109        0.029       39.521        5.967        0.023      330.086       -2.769      847.754
12/29/2021  05:04:00        4.508        4.074       -4.586        8.238        4.435        5.954       67.866       19.667       35.454        0.009        0.006        6.076        3.248        0.286      330.085       -2.766      847.773
12/29/2021  05:05:00      -33.120       17.207       -8.921       24.370       16.615       12.357      593.889      276.065      152.694        0.125        0.051       37.323        5.894        0.025      330.198       -2.584      847.803
12/29/2021  05:06:00      -22.054       22.474       -8.198       14.679       22.040        8.761      215.475      485.764       76.753        0.092        0.039       31.488        6.004        0.036      330.264       -2.474      847.811
12/29/2021  05:07:00      -48.884       29.503      -11.793       16.122       13.332       10.835      259.932      177.754      117.391        0.198        0.028       57.097        7.553        0.017      330.228       -2.533      847.797
12/29/2021  05:08:00      -65.623       34.936      -12.370       10.069       12.998       10.986      101.381      168.958      120.697        0.304        0.020       74.343        2.855        0.001      330.240       -2.514      847.793
12/29/2021  05:09:00      -67.629       27.293      -18.242       14.999       12.559       11.267      224.974      157.741      126.955        0.308        0.025       72.928        7.425        0.010      330.251       -2.495      847.819
12/29/2021  05:10:00      -72.025       14.223      -12.493       31.439       24.320       16.757      988.396      591.475      280.798        0.370        0.093       73.416       12.246        0.028      330.329       -2.368      847.835
12/29/2021  05:11:00      -99.938       49.862       -6.989       20.268       20.824       16.393      410.778      433.657      268.731        0.682        0.056      111.686       11.845        0.011      330.278       -2.451      847.824
12/29/2021  05:12:00      -79.480       56.457      -16.316       26.854       28.107       19.275      721.120      789.976      371.523        0.583        0.094       97.491       16.833        0.030      330.286       -2.439      847.788
12/29/2021  05:13:00      -71.655       79.847       -9.000       29.652       30.254       18.855      879.218      915.281      355.493        0.687        0.107      107.285       18.472        0.030      330.268       -2.469      847.740
12/29/2021  05:14:00      -31.854       16.963      -10.183       28.863       22.152       19.988      833.079      490.723      399.539        0.156        0.086       36.089       19.327        0.287      330.239       -2.515      847.731
12/29/2021  05:15:00      -22.288       28.160       -6.622       37.147       43.453       25.833     1379.894     1888.152      667.336        0.263        0.197       35.913       21.615        0.362      330.218       -2.551      847.756
12/29/2021  05:16:00      -27.399       -1.211      -10.700       31.103       16.782       15.356      967.400      281.625      235.822        0.118        0.074       27.426       10.505        0.147      330.240       -2.512      847.792
12/29/2021  05:17:00      -56.294        6.954      -13.591       38.703       24.607       14.858     1497.913      605.481      220.765        0.286        0.116       56.721       11.947        0.044      330.233       -2.524      847.795
12/29/2021  05:18:00      -48.064       60.377       -9.313       22.435       23.200       14.800      503.334      538.250      219.051        0.365        0.063       77.172       11.974        0.024      330.217       -2.551      847.766
12/29/2021  05:19:00      -75.777       69.099      -18.206       19.310       15.343       13.452      372.871      235.418      180.961        0.582        0.039      102.551       10.887        0.011      330.191       -2.595      847.741
12/29/2021  05:20:00      -77.708       67.589      -20.212       29.630       26.297       20.971      877.950      691.526      439.764        0.651        0.100      102.989        6.874        0.004      330.173       -2.624      847.732
12/29/2021  05:21:00      -34.981       12.226      -11.445       39.435       21.692       21.167     1555.155      470.551      448.032        0.199        0.124       37.056       23.196        0.392      330.290       -2.431      847.750
12/29/2021  05:22:00      -10.747      -17.692       -9.728       29.590       26.470       16.139      875.558      700.678      260.453        0.118        0.092       20.701       10.601        0.262      330.344       -2.344      847.775
12/29/2021  05:23:00      -12.464      -12.881       -5.794       24.365       19.767       15.740      593.638      390.722      247.762        0.079        0.062       17.924        2.655        0.022      330.229       -2.532      847.794
12/29/2021  05:24:00      -12.001      -39.001       -5.481       15.481       22.434       11.807      239.648      503.282      139.403        0.129        0.044       40.806        9.677        0.056      330.227       -2.535      847.792
12/29/2021  05:25:00       37.703       15.576       -8.692       41.639       33.599       15.069     1733.825     1128.914      227.061        0.241        0.154       40.794       12.714        0.097      330.254       -2.490      847.770
12/29/2021  05:26:00       73.836       24.515      -14.305       11.765       10.620        7.996      138.405      112.789       63.933        0.329        0.016       77.800        4.670        0.004      330.272       -2.460      847.740
12/29/2021  05:27:00       39.489        9.374       -5.671       22.642       12.576       12.252      512.672      158.151      150.114        0.125        0.041       40.587       13.518        0.111      330.292       -2.428      847.710
12/29/2021  05:28:00       59.437       12.832      -10.113       24.034       13.467       13.056      577.620      181.349      170.471        0.236        0.046       60.806       13.804        0.052      330.231       -2.530      847.681
12/29/2021  05:29:00       84.530       15.142      -13.252       14.274       18.177       11.404      203.754      330.397      130.059        0.411        0.033       85.876        6.934        0.007      330.184       -2.606      847.664
12/29/2021  05:30:00       80.200        6.133      -14.968       19.946       15.665       12.485      397.852      245.386      155.884        0.375        0.040       80.434        6.904        0.007      330.172       -2.629      847.658
12/29/2021  05:31:00       79.395       17.543      -17.589       11.927        7.863        7.708      142.264       61.821       59.412        0.359        0.013       81.310        5.167        0.004      330.132       -2.696      847.652
12/29/2021  05:32:00       36.975       14.218      -12.081       18.089        5.203        3.816      327.222       27.071       14.560        0.104        0.018       39.614        3.091        0.006      330.141       -2.679      847.654
12/29/2021  05:33:00       -4.778       22.453       -7.738       12.309       15.387       13.471      151.519      236.773      181.464        0.058        0.028       22.955       12.044        0.275      330.228       -2.532      847.668
12/29/2021  05:34:00      -39.033       11.410       -8.945       29.971       22.176       17.877      898.242      491.771      319.592        0.172        0.085       40.667       13.884        0.117      330.356       -2.324      847.689
12/29/2021  05:35:00      -60.257       30.061       -6.311       25.184       26.771       17.229      634.227      716.712      296.839        0.311        0.082       67.340       16.883        0.063      330.276       -2.453      847.713
12/29/2021  05:36:00      -86.368       46.111      -12.860       18.248       14.833       14.257      332.998      220.015      203.264        0.525        0.038       97.906       12.343        0.016      330.300       -2.415      847.733
12/29/2021  05:37:00      -84.964       34.066      -11.843       17.383       19.666       13.177      302.159      386.736      173.632        0.469        0.043       91.539       10.335        0.013      330.327       -2.370      847.746
12/29/2021  05:38:00      -63.003       20.120       -6.135       30.844       16.396       14.709      951.330      268.818      216.352        0.292        0.072       66.137       14.673        0.049      330.364       -2.310      847.771
12/29/2021  05:39:00      -57.062        7.972       -6.986       28.454       17.756       14.544      809.618      315.269      211.522        0.235        0.067       57.617       15.464        0.072      330.427       -2.207      847.780
12/29/2021  05:40:00      -27.341        2.841       -0.354       24.756       25.988       12.531      612.839      675.376      157.037        0.110        0.072       27.488       10.066        0.134      330.411       -2.234      847.788
12/29/2021  05:41:00      -33.111       39.612       -1.654       16.484       12.648       17.023      271.736      159.960      289.770        0.169        0.036       51.628       12.408        0.058      330.285       -2.438      847.794
12/29/2021  05:42:00      -17.207       18.988       -6.901       13.427       10.324        8.653      180.289      106.595       74.869        0.053        0.018       25.625        5.660        0.049      330.288       -2.432      847.790
12/29/2021  05:43:00      -16.834        3.757      -16.515       11.403       14.252        5.909      130.027      203.129       34.915        0.047        0.018       17.248        2.078        0.015      330.356       -2.326      847.808
12/29/2021  05:44:00        5.551      -21.415       -4.727       13.820       16.182       10.877      190.993      261.871      118.304        0.054        0.029       22.123        6.586        0.089      330.508       -2.076      847.832
12/29/2021  05:45:00      -36.810      -16.217       -1.552       40.544       26.109       18.048     1643.794      681.698      325.744        0.214        0.133       40.224       17.248        0.184      330.507       -2.075      847.864
12/29/2021  05:46:00        5.855        5.053        5.732       19.660       19.689       20.409      386.522      387.644      416.541        0.064        0.060        7.734        4.878        0.398      330.475       -2.130      847.891
12/29/2021  05:47:00      -53.394      -17.553       -8.519       21.722       17.604       17.352      471.846      309.901      301.094        0.216        0.054       56.205        8.422        0.022      330.522       -2.051      847.876
12/29/2021  05:48:00        1.536       15.676       -4.569       22.296       12.892        9.970      497.098      166.207       99.398        0.052        0.038       15.751       11.748        0.556      330.530       -2.039      847.829
12/29/2021  05:49:00       52.079       14.221      -13.601       21.912       37.088       17.814      480.157     1375.545      317.323        0.264        0.109       53.986        6.465        0.014      330.403       -2.247      847.793
12/29/2021  05:50:00       23.415       -3.876       -5.892       28.104       28.278       22.988      789.853      799.635      528.453        0.136        0.106       23.733       15.176        0.409      330.579       -1.957      847.772
12/29/2021  05:51:00       21.032       12.589       -7.941       37.093       36.355       28.092     1375.910     1321.703      789.185        0.207        0.174       24.511       21.657        0.781      330.648       -1.844      847.801
12/29/2021  05:52:00       12.049      -17.314      -16.465       32.542       25.122       15.835     1059.009      631.090      250.756        0.133        0.097       21.094        8.253        0.153      330.552       -2.004      847.863
12/29/2021  05:53:00        7.635      -12.675      -11.447       14.711       14.882       12.355      216.422      221.485      152.646        0.047        0.030       14.797        7.962        0.290      330.641       -1.856      847.926
12/29/2021  05:54:00        5.202       -8.559       -8.434       18.017       19.083       21.691      324.628      364.172      470.516        0.067        0.058       10.016       13.980        1.948      330.606       -1.915      847.962
12/29/2021  05:55:00       13.043      -12.788       -9.859       27.606       22.912       21.402      762.111      524.977      458.031        0.109        0.087       18.266       15.804        0.749      330.635       -1.866      847.948
12/29/2021  05:56:00       28.633       52.654      -11.058       24.840       53.687       22.201      617.045     2882.299      492.878        0.385        0.200       59.936       24.386        0.166      330.550       -2.006      847.900
12/29/2021  05:57:00      -25.373       14.166      -11.877       24.134       35.540       20.226      582.445     1263.061      409.080        0.162        0.113       29.060        7.539        0.067      330.438       -2.190      847.848
12/29/2021  05:58:00       30.475       -5.021      -12.357       23.289       24.626       18.323      542.395      606.453      335.721        0.130        0.074       30.886       11.084        0.129      330.550       -2.006      847.834
12/29/2021  05:59:00      -21.465      -23.904       -9.823       48.722       43.575       27.734     2373.831     1898.797      769.172        0.308        0.252       32.128       17.927        0.311      330.603       -1.919      847.871
12/29/2021  06:00:00      -24.945      -75.443      -43.132       41.476       29.395       19.815     1720.266      864.090      392.647        0.558        0.149       79.459       10.784        0.018      330.649       -1.844      847.923
12/29/2021  06:01:00       24.957      -58.409      -12.507       27.263       21.284       18.037      743.247      453.007      325.319        0.286        0.076       63.518       10.205        0.026      330.612       -1.903      847.959
12/29/2021  06:02:00       -0.787       -4.443       -3.652       17.516       27.256       15.822      306.794      742.874      250.332        0.067        0.065        4.513       13.151        8.493      330.596       -1.931      847.947
12/29/2021  06:03:00       27.979       44.959      -13.234       30.991       26.447       22.810      960.460      699.420      520.288        0.258        0.109       52.954       19.245        0.132      330.558       -1.992      847.933
12/29/2021  06:04:00       12.850       47.437        8.620       30.445       28.067       20.833      926.871      787.749      434.001        0.232        0.107       49.147       14.470        0.087      330.444       -2.180      847.951
12/29/2021  06:05:00        3.285       36.719      -14.560       13.634       11.717       15.126      185.887      137.281      228.796        0.106        0.028       36.866        8.357        0.051      330.269       -2.464      847.960
12/29/2021  06:06:00        7.076       15.671       -2.160       10.671       14.945       13.258      113.869      223.339      175.775        0.041        0.026       17.194        2.931        0.029      330.393       -2.263      847.976
12/29/2021  06:07:00       -2.636       15.087       -5.689       11.572       16.080        8.933      133.922      258.573       79.802        0.037        0.024       15.316        5.234        0.117      330.344       -2.345      847.959
12/29/2021  06:08:00       15.871       23.473       -2.898       24.113       24.586       14.904      581.450      604.458      222.119        0.111        0.070       28.335        8.396        0.088      330.297       -2.419      847.936
12/29/2021  06:09:00       17.960      -18.058       -2.945       23.605       22.600       15.802      557.208      510.778      249.693        0.099        0.066       25.469       10.100        0.157      330.382       -2.279      847.923
12/29/2021  06:10:00       26.168       -1.516       -1.211       22.582       14.577       11.405      509.961      212.500      130.066        0.077        0.043       26.212        7.484        0.082      330.288       -2.433      847.928
12/29/2021  06:11:00       39.098       16.925        2.748       30.745       26.547       21.846      945.262      704.733      477.269        0.197        0.106       42.604       12.341        0.084      330.272       -2.460      847.945
12/29/2021  06:12:00       45.422        3.227       -6.792       29.816       32.039       17.552      889.001     1026.525      308.072        0.217        0.111       45.536       13.616        0.089      330.275       -2.455      847.943
12/29/2021  06:13:00       49.327       11.955       -3.837       27.963       21.447       14.426      781.934      459.958      208.101        0.202        0.072       50.755       11.239        0.049      330.272       -2.462      847.942
12/29/2021  06:14:00       54.543       31.814      -10.337       20.822       15.637       13.792      433.553      244.505      190.213        0.248        0.043       63.143        6.009        0.009      330.228       -2.532      847.950
12/29/2021  06:15:00       22.417       20.705       -9.358       11.915       13.725       10.945      141.967      188.386      119.790        0.073        0.023       30.516        6.387        0.044      330.212       -2.559      847.974
12/29/2021  06:16:00        5.731       13.970       -5.728        9.342       13.513       11.386       87.270      182.588      129.646        0.033        0.020       15.100        7.282        0.233      330.255       -2.488      848.004
12/29/2021  06:17:00      -41.004       17.491       -3.711       29.746       19.892       14.584      884.810      395.675      212.685        0.175        0.075       44.579        9.918        0.049      330.325       -2.376      848.035
12/29/2021  06:18:00       -6.108       18.323        2.399       15.615       20.226       12.236      243.837      409.099      149.729        0.059        0.040       19.314        6.451        0.112      330.340       -2.349      848.066
12/29/2021  06:19:00       -2.563      -11.931        8.886       16.050       25.491       13.476      257.613      649.787      181.604        0.066        0.054       12.204       10.665        0.764      330.407       -2.239      848.096
12/29/2021  06:20:00       18.655       32.384       -8.277       17.393       18.645        9.464      302.520      347.621       89.571        0.110        0.037       37.373        6.475        0.030      330.354       -2.328      848.110
12/29/2021  06:21:00       64.146       55.442       -6.692       16.339       19.456       12.647      266.964      378.540      159.946        0.402        0.040       84.785        8.436        0.010      330.329       -2.368      848.108
12/29/2021  06:22:00      100.474       38.013      -21.353       16.693       12.867        9.723      278.641      165.559       94.535        0.627        0.027      107.424        5.542        0.003      330.221       -2.543      848.093
12/29/2021  06:23:00       55.606       12.392      -13.563       35.683       31.543       18.666     1273.306      994.945      348.405        0.302        0.131       56.970       13.006        0.052      330.291       -2.429      848.100
12/29/2021  06:24:00       43.709        6.608      -10.850       38.713       30.787       13.405     1498.683      947.826      179.701        0.235        0.131       44.206       14.873        0.113      330.356       -2.325      848.130
12/29/2021  06:25:00       13.695      -23.740      -19.562       20.086       37.931       18.570      403.456     1438.768      344.830        0.166        0.109       27.407       13.261        0.234      330.477       -2.126      848.164
12/29/2021  06:26:00        4.011      -45.327      -30.020       23.286       28.213       15.510      542.255      795.963      240.567        0.228        0.079       45.504        9.591        0.044      330.500       -2.088      848.180
12/29/2021  06:27:00       10.166        1.936       -3.483       12.478       16.038       12.510      155.689      257.219      156.491        0.034        0.028       10.348        7.914        0.585      330.412       -2.232      848.162
12/29/2021  06:28:00       16.071       10.938       -6.988       26.456       27.788       17.025      699.904      772.183      289.853        0.109        0.088       19.441       10.250        0.278      330.379       -2.284      848.142
12/29/2021  06:29:00      -30.772      -34.770      -12.034       25.636       29.663       22.301      657.219      879.895      497.329        0.217        0.102       46.432        8.877        0.037      330.505       -2.079      848.129
12/29/2021  06:30:00      -27.876        0.773       -2.518       25.008       19.073       14.084      625.407      363.768      198.349        0.099        0.059       27.887       11.345        0.166      330.531       -2.039      848.146
12/29/2021  06:31:00      -30.673       -2.202       -3.393       15.919       15.896       16.069      253.428      252.681      258.206        0.086        0.038       30.751        8.816        0.082      330.543       -2.017      848.152
12/29/2021  06:32:00        8.823       24.128        2.367       27.564       35.108       13.170      759.790     1232.574      173.443        0.142        0.108       25.690       13.746        0.286      330.392       -2.265      848.143
12/29/2021  06:33:00       40.985       36.638        0.696       28.766       21.773       19.612      827.481      474.057      384.644        0.235        0.084       54.974       15.593        0.080      330.283       -2.442      848.131
12/29/2021  06:34:00       29.984        6.722       -6.620       24.755       26.649       17.478      612.786      710.185      305.496        0.131        0.081       30.728        8.758        0.081      330.354       -2.326      848.134
12/29/2021  06:35:00       84.000      -13.133       -5.704       44.453       33.586       23.809     1976.095     1127.995      566.864        0.547        0.184       85.020       21.103        0.062      330.281       -2.447      848.133
12/29/2021  06:36:00      132.063      -18.478      -10.053       39.916       32.078       26.692     1593.308     1028.979      712.466        1.061        0.167      133.349       20.721        0.024      330.232       -2.527      848.137
12/29/2021  06:37:00      148.503       -0.822      -13.395       30.729       32.541       26.157      944.280     1058.903      684.163        1.246        0.134      148.505       19.837        0.018      330.315       -2.390      848.159
12/29/2021  06:38:00      121.382       47.995      -22.707       39.034       34.066       21.884     1523.621     1160.524      478.920        1.036        0.158      130.526       17.668        0.018      330.243       -2.508      848.193
12/29/2021  06:39:00      102.524       20.006      -27.517       53.530       43.904       22.994     2865.441     1927.580      528.743        0.849        0.266      104.458        9.504        0.008      330.333       -2.360      848.229
12/29/2021  06:40:00       89.011       11.673      -21.950       61.271       44.657       26.791     3754.137     1994.204      717.773        0.750        0.323       89.774       21.890        0.059      330.292       -2.428      848.245
12/29/2021  06:41:00       91.311       23.032      -10.403       57.860       47.705       35.237     3347.811     2275.751     1241.652        0.792        0.343       94.171       28.142        0.089      330.348       -2.336      848.243
12/29/2021  06:42:00       67.932       10.712      -15.442       53.417       40.358       28.514     2853.394     1628.743      813.047        0.513        0.265       68.771       24.301        0.125      330.408       -2.237      848.238
12/29/2021  06:43:00      118.526       -7.868      -17.289       41.383       27.370       21.758     1712.551      749.122      473.426        0.867        0.147      118.787        9.947        0.007      330.222       -2.546      848.241
12/29/2021  06:44:00      104.343       -4.470      -16.915       47.311       29.881       21.687     2238.354      892.880      470.322        0.740        0.180      104.438       12.538        0.014      330.240       -2.512      848.246
12/29/2021  06:45:00       97.532       20.347      -23.973       34.634       34.578       24.519     1199.514     1195.608      601.163        0.675        0.150       99.632       11.231        0.013      330.262       -2.477      848.248
12/29/2021  06:46:00       95.875        9.481      -18.191       26.727       17.843       15.590      714.349      318.381      243.042        0.544        0.064       96.342       13.408        0.019      330.202       -2.578      848.247
12/29/2021  06:47:00      128.368        9.967      -12.135       22.597       21.996       14.952      510.634      483.820      223.551        0.897        0.061      128.754       11.584        0.008      330.156       -2.653      848.250
12/29/2021  06:48:00      110.550      -16.709      -16.905       34.201       37.488       22.477     1169.732     1405.334      505.235        0.793        0.154      111.806       15.102        0.018      330.334       -2.360      848.243
12/29/2021  06:49:00      121.425        9.304      -13.140       19.797       27.306       19.197      391.937      745.600      368.515        0.825        0.075      121.781        7.933        0.004      330.139       -2.681      848.242
12/29/2021  06:50:00       93.835      -13.828      -14.544       30.217       31.028       17.628      913.092      962.734      310.749        0.570        0.109       94.848       10.088        0.011      330.170       -2.630      848.237
12/29/2021  06:51:00      112.014       10.011       -9.056       22.086       19.435       16.588      487.793      377.720      275.178        0.693        0.057      112.460       14.265        0.016      330.144       -2.676      848.241
12/29/2021  06:52:00       56.165       35.081       -8.418       34.564       26.544       18.397     1194.645      704.587      338.455        0.335        0.112       66.221       15.944        0.058      330.207       -2.568      848.250
12/29/2021  06:53:00       92.718       58.113       -2.466       29.597       18.881       15.211      875.956      356.492      231.368        0.672        0.073      109.424       12.903        0.014      330.166       -2.636      848.253
12/29/2021  06:54:00       76.513        6.881       -8.950       32.310       45.396       26.377     1043.961     2060.764      695.768        0.489        0.190       76.822       13.891        0.033      330.265       -2.473      848.245
12/29/2021  06:55:00       60.356       -0.399       -5.561       36.394       25.572       21.515     1324.494      653.916      462.895        0.306        0.122       60.357       13.858        0.053      330.266       -2.470      848.232
12/29/2021  06:56:00       79.085       21.818       -6.546       25.388       17.606       16.256      644.531      309.986      264.259        0.400        0.061       82.039       10.585        0.017      330.195       -2.589      848.225
12/29/2021  06:57:00       90.642       27.851      -14.171       23.418       16.006       15.144      548.398      256.203      229.337        0.511        0.052       94.824       10.269        0.012      330.209       -2.566      848.217
12/29/2021  06:58:00      102.047       16.760      -13.910       21.760       26.306       19.177      473.491      692.022      367.769        0.621        0.077      103.414        9.415        0.008      330.216       -2.555      848.194
12/29/2021  06:59:00       96.184        5.084       -9.990       37.880       35.779       24.462     1434.917     1280.155      598.411        0.634        0.166       96.319        7.624        0.006      330.249       -2.499      848.166
12/29/2021  07:00:00      116.508       14.133      -16.029       48.753       23.042       19.308     2376.869      530.957      372.804        0.866        0.164      117.362       11.194        0.009      330.205       -2.572      848.133
12/29/2021  07:01:00       99.179       34.438      -18.096       26.443       29.059       18.911      699.219      844.452      357.636        0.663        0.095      104.988        7.522        0.005      330.203       -2.575      848.112
12/29/2021  07:02:00       44.250       12.566      -17.457       38.941       20.392       12.143     1516.428      415.851      147.443        0.225        0.104       45.999       10.680        0.054      330.164       -2.640      848.145
12/29/2021  07:03:00       14.135       25.493      -19.437       17.894       13.432       13.281      320.195      180.421      176.386        0.095        0.034       29.149        7.989        0.075      330.173       -2.624      848.204
12/29/2021  07:04:00      -25.601       42.997       -7.170       21.492       23.500       15.821      461.924      552.237      250.311        0.191        0.063       50.042       13.373        0.071      330.229       -2.531      848.223
12/29/2021  07:05:00       42.699       41.048       -8.406       36.041       22.723       15.523     1298.950      516.357      240.968        0.282        0.103       59.230       21.120        0.127      330.166       -2.637      848.190
12/29/2021  07:06:00       68.392       49.880      -16.067       17.657       20.114       15.934      311.764      404.585      253.904        0.420        0.049       84.649       11.814        0.019      330.126       -2.706      848.134
12/29/2021  07:07:00       34.509        8.945      -11.693       30.360       34.743       16.427      921.754     1207.042      269.840        0.190        0.120       35.649       10.918        0.094      330.195       -2.589      848.118
12/29/2021  07:08:00        5.442      -15.313       -5.218       15.646       17.648       12.020      244.785      311.442      144.475        0.050        0.035       16.251        8.302        0.261      330.277       -2.453      848.152
12/29/2021  07:09:00       32.207       19.474       -9.333       17.842       12.611        8.584      318.319      159.028       73.677        0.103        0.028       37.637        8.036        0.046      330.139       -2.681      848.196
12/29/2021  07:10:00       71.202       51.034      -10.466       25.154       34.417       23.430      632.722     1184.536      548.973        0.507        0.118       87.602       11.871        0.018      330.226       -2.536      848.212
12/29/2021  07:11:00       61.672       50.070      -23.866       43.230       37.910       22.634     1868.817     1437.158      512.313        0.535        0.191       79.438       13.708        0.030      330.252       -2.495      848.209
12/29/2021  07:12:00       41.513        0.449      -12.416       41.944       42.475       26.790     1759.307     1804.096      717.692        0.308        0.214       41.515       17.012        0.168      330.284       -2.441      848.196
12/29/2021  07:13:00       58.270       23.579      -12.094       31.997       24.910       11.603     1023.813      620.527      134.626        0.294        0.089       62.860        7.245        0.013      330.178       -2.619      848.195
12/29/2021  07:14:00       58.840       32.201       -9.774       29.584       22.552       18.340      875.242      508.595      336.372        0.316        0.086       67.075       12.340        0.034      330.198       -2.586      848.199
12/29/2021  07:15:00       60.637       29.045      -13.796       32.159       20.982       16.827     1034.222      440.230      283.155        0.323        0.088       67.234       17.804        0.070      330.230       -2.531      848.201
12/29/2021  07:16:00       64.959       -5.167      -10.630       26.117       19.830       14.229      682.082      393.227      202.478        0.282        0.064       65.165       12.075        0.034      330.217       -2.552      848.198
12/29/2021  07:17:00       89.661        0.313      -12.062       23.956       11.778       14.379      573.878      138.723      206.765        0.455        0.046       89.662       13.139        0.021      330.177       -2.618      848.186
12/29/2021  07:18:00       97.336        6.810      -22.702       15.589       21.445       11.335      243.005      459.895      128.480        0.543        0.042       97.574        6.090        0.004      330.202       -2.579      848.178
12/29/2021  07:19:00       71.271        1.020      -21.336       24.316       23.357       17.669      591.249      545.570      312.187        0.349        0.072       71.278        7.265        0.010      330.323       -2.378      848.182
12/29/2021  07:20:00       61.801       11.252      -14.733       23.066       27.290       16.564      532.043      744.721      274.370        0.286        0.078       62.816       10.813        0.030      330.330       -2.367      848.192
12/29/2021  07:21:00       99.454       -0.772      -23.708       19.595       26.978       19.183      383.949      727.810      368.000        0.597        0.074       99.457       11.924        0.014      330.228       -2.533      848.191
12/29/2021  07:22:00      121.885       -7.686      -27.509       25.255       21.746       15.754      637.837      472.906      248.199        0.852        0.068      122.127       12.396        0.010      330.219       -2.547      848.182
12/29/2021  07:23:00       89.612       -0.702      -23.475       58.849       31.140       23.246     3463.253      969.702      540.366        0.678        0.249       89.615       19.788        0.049      330.295       -2.423      848.183
12/29/2021  07:24:00       20.853       26.733       -3.555       36.244       38.165       31.828     1313.654     1456.583     1013.005        0.247        0.189       33.904       15.246        0.202      330.415       -2.227      848.182
12/29/2021  07:25:00       44.338       22.744      -10.471       30.277       35.775       28.640      916.707     1279.824      820.226        0.280        0.151       49.831       12.861        0.067      330.266       -2.470      848.185
12/29/2021  07:26:00       46.836        7.613       -8.969       36.466       31.338       16.845     1329.777      982.058      283.739        0.246        0.130       47.450       13.339        0.079      330.198       -2.582      848.192
12/29/2021  07:27:00       66.686       16.533      -13.987       17.659       17.557       11.650      311.847      308.234      135.731        0.284        0.038       68.705        3.068        0.002      330.134       -2.688      848.203
12/29/2021  07:28:00       30.648       44.692        0.001       22.971       16.180       13.815      527.654      261.785      190.850        0.196        0.049       54.191        8.548        0.025      330.125       -2.706      848.233
12/29/2021  07:29:00       19.942       43.378        1.989       26.848       25.683       16.872      720.806      659.603      284.662        0.197        0.083       47.743       14.943        0.098      330.170       -2.629      848.258
12/29/2021  07:30:00       60.111       62.909       -0.074       29.623       28.672       18.755      877.495      822.084      351.754        0.481        0.103       87.011       16.127        0.034      330.183       -2.607      848.265
12/29/2021  07:31:00       82.755       36.099      -19.541       18.767       32.813       16.435      352.212     1076.684      270.101        0.512        0.085       90.286       10.508        0.014      330.201       -2.579      848.260
12/29/2021  07:32:00      110.580       21.768      -12.957       32.207       28.442       11.645     1037.262      808.944      135.614        0.743        0.099      112.702        7.825        0.005      330.162       -2.646      848.253
12/29/2021  07:33:00      108.863       15.273      -15.638       28.559       19.655       12.013      815.589      386.308      144.314        0.684        0.067      109.929        8.540        0.006      330.148       -2.665      848.240
12/29/2021  07:34:00      109.955       45.210      -18.678       19.028       21.769       17.132      362.055      473.901      293.503        0.781        0.056      118.887       12.490        0.011      330.151       -2.659      848.245
12/29/2021  07:35:00       87.041       51.681       -4.489       29.665       16.325       16.424      880.003      266.508      269.750        0.584        0.071      101.228       14.392        0.020      330.127       -2.699      848.263
12/29/2021  07:36:00       96.368       20.833      -14.891        8.616       11.260        6.227       74.229      126.797       38.773        0.509        0.012       98.594        5.072        0.003      330.133       -2.694      848.268
12/29/2021  07:37:00       60.759        5.078      -13.098       22.723       21.849       15.257      516.314      477.391      232.780        0.256        0.061       60.971       12.936        0.045      330.294       -2.427      848.259
12/29/2021  07:38:00       81.051       22.077      -14.637       25.929       25.246       16.241      672.314      637.381      263.762        0.442        0.079       84.004        6.216        0.005      330.219       -2.547      848.245
12/29/2021  07:39:00       95.235        1.776      -15.289       29.580       30.740       17.470      874.997      944.935      305.208        0.572        0.106       95.252       12.890        0.018      330.193       -2.592      848.234
12/29/2021  07:40:00       49.215       19.212       -7.852       30.479       22.485       20.245      928.980      505.572      409.864        0.235        0.092       52.832       14.942        0.080      330.241       -2.512      848.221
12/29/2021  07:41:00       53.187       -0.280      -12.608       38.442       27.273       21.002     1477.809      743.807      441.090        0.282        0.133       53.188       21.503        0.163      330.300       -2.415      848.201
12/29/2021  07:42:00       93.154       10.229      -12.173       40.761       33.173       18.733     1661.437     1100.443      350.918        0.602        0.156       93.714       15.086        0.026      330.219       -2.548      848.195
12/29/2021  07:43:00      131.386       25.788      -14.600       24.462       18.339       15.922      598.403      336.306      253.501        0.966        0.059      133.893        7.253        0.003      330.101       -2.742      848.202
12/29/2021  07:44:00      110.899       11.092      -23.052       28.217       27.943       17.802      796.184      780.838      316.921        0.742        0.095      111.452       12.381        0.012      330.132       -2.691      848.217
12/29/2021  07:45:00      102.482       42.010      -31.588       36.422       38.764       21.682     1326.581     1502.637      470.126        0.828        0.165      110.758        9.698        0.008      330.250       -2.498      848.225
12/29/2021  07:46:00       19.351       11.248      -17.503       36.553       43.569       25.212     1336.091     1898.233      635.652        0.234        0.193       22.382       23.726        1.124      330.283       -2.443      848.237
12/29/2021  07:47:00       82.108       36.055      -13.721       28.591       17.271       11.845      817.434      298.297      140.297        0.474        0.063       89.675       10.432        0.014      330.088       -2.766      848.253
12/29/2021  07:48:00       44.320       29.648      -13.559       24.138       23.241       15.224      582.632      540.158      231.770        0.219        0.068       53.323       13.506        0.064      330.124       -2.706      848.274
12/29/2021  07:49:00       61.842       19.781       -7.752       17.401       28.050        8.712      302.802      786.794       75.899        0.272        0.058       64.929        2.500        0.001      330.164       -2.638      848.304
12/29/2021  07:50:00       37.058       22.603       -6.754       17.902       20.876       10.595      320.472      435.788      112.263        0.140        0.043       43.407        6.528        0.023      330.163       -2.642      848.331
12/29/2021  07:51:00       58.629       22.105      -15.407        9.006       13.552       14.075       81.107      183.656      198.112        0.231        0.023       62.658        3.740        0.004      330.149       -2.666      848.348
12/29/2021  07:52:00       59.151       14.895      -12.037       21.526       13.039        9.744      463.367      170.003       94.937        0.230        0.036       60.997        9.433        0.024      330.163       -2.640      848.343
12/29/2021  07:53:00       38.073        0.520       -8.883       41.222       27.032       20.762     1699.255      730.707      431.044        0.219        0.143       38.077       15.351        0.163      330.303       -2.411      848.316
12/29/2021  07:54:00      132.219       23.733      -17.073       21.535       19.203       10.873      463.768      368.772      118.224        0.964        0.048      134.332        6.389        0.002      330.138       -2.684      848.311
12/29/2021  07:55:00      114.489       33.743      -13.873       23.490       17.266       14.016      551.763      298.109      196.444        0.774        0.052      119.357        8.727        0.005      330.094       -2.754      848.333
12/29/2021  07:56:00       60.149       33.329      -11.667       39.489       39.126       23.658     1559.380     1530.822      559.723        0.426        0.182       68.765       15.161        0.049      330.258       -2.486      848.374
12/29/2021  07:57:00       44.564       37.214        3.172       32.632       38.051       25.592     1064.844     1447.869      654.972        0.327        0.158       58.058       14.973        0.067      330.337       -2.355      848.418
12/29/2021  07:58:00       94.738       23.918      -15.168       20.488       19.173       11.743      419.769      367.617      137.887        0.535        0.046       97.711        7.451        0.006      330.188       -2.600      848.428
12/29/2021  07:59:00      105.046       15.658      -12.396       16.903       20.533       11.051      285.721      421.617      122.115        0.613        0.041      106.207        7.695        0.005      330.143       -2.674      848.422
12/29/2021  08:00:00       73.820       20.412       -8.532       39.552       21.562       17.884     1564.347      464.931      319.822        0.414        0.117       76.590       19.875        0.067      330.222       -2.543      848.397
12/29/2021  08:01:00      113.849       50.360       -9.850       31.645       19.065       14.879     1001.390      363.463      221.388        0.859        0.079      124.490       12.349        0.010      330.169       -2.632      848.361
12/29/2021  08:02:00       75.087       30.961       -4.211       43.957       26.039       21.641     1932.208      678.020      468.351        0.485        0.154       81.220       10.910        0.018      330.204       -2.575      848.347
12/29/2021  08:03:00       81.289       26.207      -15.890       20.073       22.002       16.916      402.923      484.070      286.152        0.436        0.059       85.409        8.500        0.010      330.169       -2.632      848.365
12/29/2021  08:04:00       87.292       23.030      -12.366       19.600       15.553       14.484      384.156      241.897      209.793        0.457        0.042       90.279        9.726        0.012      330.185       -2.605      848.382
12/29/2021  08:05:00       72.506        4.003       -9.411       30.370       25.518       21.066      922.336      651.176      443.784        0.369        0.101       72.616       14.897        0.042      330.335       -2.358      848.379
12/29/2021  08:06:00       83.926       36.943      -18.713       21.673       27.738       21.192      469.733      769.385      449.115        0.522        0.084       91.697        3.666        0.002      330.292       -2.430      848.372
12/29/2021  08:07:00       85.300       42.632      -25.820       32.159       26.844       15.377     1034.221      720.577      236.463        0.588        0.100       95.360        5.685        0.004      330.272       -2.461      848.391
12/29/2021  08:08:00       79.927       31.704      -22.044       16.140       20.011       11.149      260.487      400.429      124.300        0.433        0.039       85.985       10.861        0.016      330.164       -2.642      848.436
12/29/2021  08:09:00       47.445       15.433      -13.033       11.117       11.734        8.098      123.598      137.684       65.585        0.149        0.016       49.892        2.927        0.003      330.161       -2.643      848.492
12/29/2021  08:10:00       29.717        3.798      -10.847        7.372        6.104        5.573       54.352       37.256       31.054        0.057        0.006       29.959        3.623        0.015      330.158       -2.647      848.539
12/29/2021  08:11:00        7.518        4.388      -11.879       13.272        9.255        5.649      176.158       85.662       31.906        0.026        0.015        8.705        3.399        0.152      330.238       -2.516      848.560
12/29/2021  08:12:00       -6.427       18.369       -2.782       23.289       18.696       11.384      542.385      349.545      129.596        0.070        0.051       19.461        8.894        0.209      330.316       -2.389      848.563
12/29/2021  08:13:00       54.510       58.176      -12.292       16.967       16.863       14.374      287.894      284.345      206.625        0.364        0.039       79.723        6.783        0.007      330.316       -2.390      848.574
12/29/2021  08:14:00       16.600       -5.149      -16.477       25.144       31.888       25.768      632.242     1016.873      663.993        0.144        0.116       17.380       14.862        0.731      330.497       -2.093      848.594
12/29/2021  08:15:00       17.503        4.079       -4.644       25.832       28.174       20.179      667.309      793.757      407.203        0.111        0.093       17.972        9.506        0.280      330.408       -2.238      848.630
12/29/2021  08:16:00       64.470       31.867      -20.496       28.326       33.211       16.370      802.363     1102.977      267.986        0.388        0.109       71.916       11.639        0.026      330.334       -2.359      848.649
12/29/2021  08:17:00       77.335       53.153      -19.390       45.131       49.541       22.725     2036.818     2454.330      516.416        0.709        0.250       93.840       25.691        0.075      330.322       -2.378      848.640
12/29/2021  08:18:00       36.749       38.555       11.476       40.065       43.433       25.240     1605.224     1886.421      637.065        0.355        0.206       53.263       11.313        0.045      330.395       -2.259      848.639
12/29/2021  08:19:00       63.884        9.242       -9.211       43.055       42.223       24.076     1853.770     1782.794      579.639        0.423        0.211       64.549       15.736        0.059      330.399       -2.255      848.644
12/29/2021  08:20:00       92.200       -2.283      -14.290       41.127       41.828       25.827     1691.416     1749.591      667.033        0.641        0.205       92.228       20.904        0.051      330.408       -2.238      848.654
12/29/2021  08:21:00      103.420      -16.350       -9.879       44.647       34.836       20.103     1993.341     1213.559      404.125        0.734        0.181      104.705       21.125        0.041      330.330       -2.366      848.665
12/29/2021  08:22:00       86.380       24.603       -8.373       18.861       31.576       17.748      355.738      997.029      314.977        0.490        0.083       89.816        5.466        0.004      330.262       -2.477      848.694
12/29/2021  08:23:00       89.759        4.100      -15.455       27.322       30.365       17.137      746.474      922.062      293.687        0.514        0.098       89.853        3.558        0.002      330.299       -2.417      848.720
12/29/2021  08:24:00       60.092      -10.055      -10.785       32.771       28.436       16.419     1073.916      808.612      269.593        0.299        0.108       60.928       12.883        0.045      330.399       -2.251      848.728
12/29/2021  08:25:00       75.791       -8.169      -10.019       46.175       31.632       25.931     2132.137     1000.599      672.406        0.486        0.190       76.230       12.999        0.029      330.367       -2.305      848.719
12/29/2021  08:26:00       51.925        8.258        5.994       46.568       40.800       32.272     2168.605     1664.675     1041.455        0.384        0.244       52.578       29.192        0.308      330.364       -2.309      848.705
12/29/2021  08:27:00       49.712        7.201      -10.580       45.012       46.240       35.375     2026.078     2138.159     1251.397        0.402        0.271       50.231       26.132        0.271      330.391       -2.267      848.707
12/29/2021  08:28:00       52.468       31.621       -4.740       51.689       39.560       22.044     2671.754     1564.988      485.956        0.425        0.236       61.261       14.769        0.058      330.318       -2.387      848.726
12/29/2021  08:29:00       96.545       47.191      -20.553       26.150       22.369       16.505      683.841      500.377      272.410        0.671        0.073      107.461        6.646        0.004      330.268       -2.470      848.742
12/29/2021  08:30:00       85.654       37.604      -12.500       16.055       21.100       14.328      257.758      445.212      205.291        0.491        0.045       93.545        8.201        0.008      330.233       -2.525      848.736
12/29/2021  08:31:00       92.168       39.996       -6.215       27.905       15.149       15.894      778.689      229.480      252.616        0.570        0.063      100.472       14.600        0.021      330.185       -2.604      848.732
12/29/2021  08:32:00       95.362       24.499      -13.982       10.241       10.518        7.513      104.871      110.638       56.445        0.508        0.014       98.458        3.028        0.001      330.171       -2.625      848.751
12/29/2021  08:33:00       32.423       -9.770        5.421       35.727       24.839       17.682     1276.390      616.993      312.657        0.169        0.110       33.863       15.050        0.198      330.388       -2.270      848.784
12/29/2021  08:34:00       60.242       23.925       -9.840       29.230       20.143       21.893      854.370      405.725      479.303        0.302        0.087       64.819       16.910        0.068      330.315       -2.390      848.814
12/29/2021  08:35:00       53.796       18.115       -9.607       33.244       28.693       19.986     1105.174      823.281      399.421        0.282        0.116       56.764       19.204        0.114      330.408       -2.239      848.830
12/29/2021  08:36:00       43.046        7.122      -12.331       35.336       23.880       20.098     1248.660      570.261      403.940        0.214        0.111       43.631        8.243        0.036      330.385       -2.276      848.839
12/29/2021  08:37:00       42.071       14.262       -0.492       32.240       22.330       13.495     1039.430      498.638      182.109        0.185        0.086       44.423       13.096        0.087      330.381       -2.283      848.838
12/29/2021  08:38:00       32.799       51.739        3.139       26.621       32.528       21.452      708.652     1058.059      460.173        0.299        0.111       61.259       19.628        0.103      330.289       -2.433      848.855
12/29/2021  08:39:00       31.791       50.980       -4.994       24.760       18.977       18.755      613.065      360.116      351.757        0.248        0.066       60.080       16.896        0.079      330.279       -2.450      848.874
12/29/2021  08:40:00       45.075       48.276      -12.787       20.351       19.585       14.676      414.157      383.577      215.393        0.277        0.051       66.047       12.580        0.036      330.229       -2.530      848.897
12/29/2021  08:41:00       51.459       31.782       -8.655       12.399       15.391       12.654      153.744      236.897      160.124        0.214        0.028       60.483        8.721        0.021      330.242       -2.511      848.920
12/29/2021  08:42:00       41.950       20.690      -11.718       16.891       14.429       14.869      285.295      208.201      221.079        0.152        0.036       46.775       13.332        0.081      330.287       -2.437      848.930
12/29/2021  08:43:00       46.976       24.052      -10.264       15.908       15.613       11.893      253.050      243.776      141.442        0.176        0.032       52.776        8.033        0.023      330.234       -2.522      848.937
12/29/2021  08:44:00       28.064       31.655       -3.407       18.303       18.111        9.909      334.989      327.992       98.195        0.128        0.038       42.304        7.072        0.028      330.294       -2.425      848.932
12/29/2021  08:45:00        9.544       66.508      -15.960       17.962       24.106       14.254      322.641      581.090      203.163        0.294        0.055       67.189        7.658        0.013      330.444       -2.180      848.933
12/29/2021  08:46:00       27.663       42.330       -2.331       24.097       23.581       16.502      580.685      556.071      272.328        0.199        0.070       50.567        8.974        0.031      330.444       -2.180      848.931
12/29/2021  08:47:00       64.097       45.066       -7.610       25.387       17.997       13.647      644.490      323.908      186.230        0.368        0.058       78.354       11.186        0.020      330.285       -2.440      848.940
12/29/2021  08:48:00       72.538       13.322       -7.222       11.148       11.871        7.429      124.284      140.931       55.189        0.291        0.016       73.751        7.001        0.009      330.250       -2.497      848.950
12/29/2021  08:49:00       39.014       33.265      -12.640       10.035       11.242       13.644      100.695      126.390      186.172        0.160        0.021       51.270        8.044        0.025      330.312       -2.396      848.962
12/29/2021  08:50:00       38.731       40.468      -17.563       14.438        9.752       14.122      208.451       95.107      199.432        0.197        0.025       56.016        5.898        0.011      330.314       -2.392      848.943
12/29/2021  08:51:00       37.507       22.522       -9.113       21.589       22.600       13.000      466.081      510.751      169.007        0.157        0.057       43.749       10.231        0.055      330.408       -2.239      848.909
12/29/2021  08:52:00       99.170       16.460      -13.631       31.236       26.565       21.426      975.703      705.713      459.091        0.622        0.107      100.527       12.565        0.016      330.396       -2.258      848.863
12/29/2021  08:53:00       70.930       13.101       -4.329       41.197       14.314       17.033     1697.232      204.902      290.121        0.371        0.110       72.129       21.554        0.089      330.367       -2.305      848.857
12/29/2021  08:54:00       29.375       -3.942       -7.481       27.274       17.797       12.453      743.868      316.728      155.072        0.107        0.061       29.639        9.697        0.107      330.427       -2.206      848.902
12/29/2021  08:55:00       14.077       24.818       -8.342       17.324       12.137       10.703      300.132      147.309      114.546        0.072        0.028       28.532        8.832        0.096      330.397       -2.258      848.944
12/29/2021  08:56:00       21.766       -1.081       -1.620       10.063       15.811       14.782      101.272      249.989      218.518        0.052        0.028       21.793        8.292        0.145      330.472       -2.135      848.952
12/29/2021  08:57:00      -38.392       17.776      -13.942       21.618       15.076       13.857      467.338      227.295      192.025        0.144        0.044       42.307       10.439        0.061      330.497       -2.094      848.923
12/29/2021  08:58:00       -6.337       39.499       -8.187       18.781       20.194       11.954      352.738      407.778      142.905        0.129        0.045       40.005        6.055        0.023      330.535       -2.031      848.891
12/29/2021  08:59:00      -31.563       45.296      -10.064       25.969       20.976       11.014      674.391      439.980      121.298        0.219        0.062       55.208        7.061        0.016      330.590       -1.939      848.895
12/29/2021  09:00:00      -54.716       22.808      -16.095       40.988       29.601       17.579     1679.981      876.229      309.035        0.332        0.143       59.279       12.661        0.046      330.702       -1.755      848.922
12/29/2021  09:01:00      -67.372       17.406       -7.337       47.813       31.470       24.255     2286.085      990.368      588.322        0.438        0.193       69.584       22.806        0.107      330.622       -1.887      848.945
12/29/2021  09:02:00      -69.238       21.107       -8.085       26.932       26.768       17.896      725.348      716.552      320.259        0.353        0.088       72.384        8.204        0.013      330.548       -2.010      848.944
12/29/2021  09:03:00      -73.505       51.927      -16.478       32.507       30.694       22.276     1056.694      942.096      496.217        0.543        0.125       89.997       18.652        0.043      330.595       -1.932      848.921
12/29/2021  09:04:00      -73.137       49.466       -8.235       32.210       29.759       18.147     1037.504      885.624      329.325        0.506        0.113       88.294       14.386        0.027      330.445       -2.178      848.928
12/29/2021  09:05:00      -57.347       27.085      -13.510       51.139       35.965       25.375     2615.203     1293.476      643.904        0.438        0.228       63.422       24.779        0.153      330.537       -2.027      848.948
12/29/2021  09:06:00     -110.628       10.893      -10.947       62.840       32.427       23.664     3948.887     1051.520      559.991        0.902        0.278      111.163       12.210        0.012      330.525       -2.045      848.981
12/29/2021  09:07:00       -8.552      -16.785       -0.296       41.045       36.210       31.575     1684.704     1311.198      996.992        0.217        0.200       18.838       23.514        1.558      330.583       -1.950      849.020
12/29/2021  09:08:00      -46.195       10.992      -11.968       34.127       31.278       23.317     1164.633      978.343      543.676        0.254        0.134       47.485       14.404        0.092      330.498       -2.091      849.053
12/29/2021  09:09:00      -38.555       33.247       -2.471       28.499       27.319       14.991      812.214      746.353      224.732        0.219        0.089       50.910       13.458        0.070      330.401       -2.249      849.065
12/29/2021  09:10:00      -31.225       48.177      -10.892       26.065       20.568       16.329      679.364      423.029      266.632        0.239        0.068       57.411       10.389        0.033      330.373       -2.295      849.074
12/29/2021  09:11:00      -34.028       24.196       -8.600       34.046       19.840       13.679     1159.131      393.635      187.124        0.178        0.087       41.754        7.403        0.031      330.440       -2.186      849.091
12/29/2021  09:12:00       -8.588        4.650      -11.657       15.813       21.041       21.102      250.065      442.731      445.290        0.068        0.057        9.766        7.448        0.582      330.637       -1.862      849.127
12/29/2021  09:13:00      -59.402       32.570      -10.563       24.420       19.864       17.644      596.356      394.578      311.296        0.300        0.065       67.746        7.334        0.012      330.478       -2.125      849.168
12/29/2021  09:14:00       -3.908       57.649      -10.620       13.858       25.064       15.749      192.037      628.198      248.019        0.226        0.053       57.782        5.344        0.009      330.401       -2.250      849.172
12/29/2021  09:15:00       -7.842       62.232      -15.329       13.159       26.562       11.797      173.170      705.518      139.169        0.259        0.051       62.724        4.668        0.006      330.399       -2.253      849.151
12/29/2021  09:16:00      -17.528      100.325      -17.298       13.974       17.700       11.782      195.280      313.306      138.807        0.566        0.032      101.845        6.338        0.004      330.413       -2.232      849.119
12/29/2021  09:17:00       -5.600       69.040      -18.533       11.266       23.009       13.696      126.929      529.422      187.570        0.299        0.042       69.267        3.820        0.003      330.537       -2.027      849.089
12/29/2021  09:18:00      -15.871       90.633      -10.104       29.445       27.369       24.056      866.985      749.035      578.696        0.538        0.110       92.013       18.816        0.042      330.593       -1.935      849.081
12/29/2021  09:19:00      -18.362       28.424      -14.730       16.689       29.249       14.434      278.514      855.523      208.342        0.135        0.067       33.839       13.011        0.148      330.581       -1.953      849.106
12/29/2021  09:20:00       13.726      -12.564      -15.724       26.012       20.238       13.039      676.634      409.574      170.003        0.092        0.063       18.608        7.127        0.147      330.671       -1.807      849.139
12/29/2021  09:21:00      -19.360      -17.624      -17.235       31.586       22.721       26.312      997.645      516.221      692.297        0.159        0.110       26.181       20.958        0.641      330.757       -1.667      849.157
12/29/2021  09:22:00      -34.717        1.385      -12.007       26.051       25.257       23.046      678.678      637.903      531.116        0.160        0.092       34.745       14.429        0.172      330.755       -1.668      849.162
12/29/2021  09:23:00      -41.727       18.621      -18.013       22.782       13.522        9.806      519.008      182.851       96.156        0.161        0.040       45.694        6.386        0.020      330.476       -2.127      849.160
12/29/2021  09:24:00      -36.499       15.481      -20.014       16.221       12.073       10.954      263.110      145.747      120.001        0.125        0.026       39.646        5.436        0.019      330.494       -2.097      849.152
12/29/2021  09:25:00        2.124       -0.325       -5.407        9.790        5.078       10.806       95.845       25.782      116.767        0.014        0.012        2.149        3.077        2.050      330.713       -1.739      849.153
12/29/2021  09:26:00        6.542       20.819       -3.796       21.929       19.903       11.783      480.891      396.123      138.831        0.075        0.051       21.822       11.135        0.260      330.604       -1.918      849.141
12/29/2021  09:27:00       20.370       28.639       -8.659       18.526       21.785       14.138      343.213      474.599      199.879        0.116        0.051       35.145        8.883        0.064      330.627       -1.879      849.136
12/29/2021  09:28:00       16.670       26.737       -1.267       17.921       16.617       13.989      321.164      276.128      195.701        0.089        0.040       31.508       13.721        0.190      330.658       -1.827      849.147
12/29/2021  09:29:00        2.848       26.521       -7.693       39.884       16.657       11.073     1590.728      277.442      122.611        0.138        0.100       26.674        9.818        0.135      330.570       -1.972      849.186
12/29/2021  09:30:00      -11.663       -1.734      -12.729       32.817       24.733       21.631     1076.936      611.716      467.887        0.123        0.108       11.791       17.456        2.192      330.833       -1.542      849.239
12/29/2021  09:31:00      -81.928       27.158      -14.332       30.614       18.054       15.308      937.239      325.948      234.344        0.458        0.075       86.312        6.348        0.005      330.661       -1.822      849.264
12/29/2021  09:32:00      -80.012       54.618       -3.787       40.254       21.641       26.223     1620.400      468.319      687.639        0.609        0.139       96.876       27.104        0.078      330.575       -1.965      849.259
12/29/2021  09:33:00      -65.591       46.959      -11.648       35.149       22.252       19.085     1235.432      495.167      364.236        0.437        0.105       80.668       16.751        0.043      330.588       -1.942      849.245
12/29/2021  09:34:00      -61.529       67.728      -17.530       18.498       18.432       14.156      342.192      339.740      200.392        0.478        0.044       91.504        6.381        0.005      330.495       -2.095      849.232
12/29/2021  09:35:00      -61.566       20.487       -8.878       22.813       31.014       17.044      520.442      961.874      290.512        0.303        0.089       64.886       10.425        0.026      330.756       -1.666      849.229
12/29/2021  09:36:00      -41.919        2.288       -9.334       35.114       25.949       14.606     1233.000      673.341      213.344        0.198        0.106       41.982       13.957        0.111      330.761       -1.660      849.241
12/29/2021  09:37:00      -11.239        4.840       -3.534       32.989       21.168       16.261     1088.281      448.100      264.414        0.098        0.090       12.237       12.692        1.076      330.773       -1.638      849.282
12/29/2021  09:38:00        1.823       28.645       -6.906       18.621       13.025       18.489      346.736      169.641      341.840        0.086        0.043       28.702       14.172        0.244      330.685       -1.783      849.324
12/29/2021  09:39:00        2.004        8.455       -1.820       11.845        8.705        9.277      140.314       75.769       86.071        0.019        0.015        8.689        5.597        0.415      330.790       -1.612      849.333
12/29/2021  09:40:00       43.702       41.359       -8.925       44.912       29.700       21.101     2017.111      882.110      445.256        0.352        0.167       60.170       10.720        0.032      330.724       -1.719      849.301
12/29/2021  09:41:00       84.006       36.596       -9.539       22.470       23.482       22.518      504.898      551.384      507.078        0.503        0.078       91.631       13.296        0.021      330.720       -1.727      849.266
12/29/2021  09:42:00       78.787       53.422      -16.100       31.264       25.084       22.924      977.453      629.200      525.505        0.573        0.107       95.191       13.598        0.020      330.727       -1.716      849.256
12/29/2021  09:43:00        5.869       35.160      -13.613       39.042       21.540       20.371     1524.249      463.979      414.988        0.193        0.120       35.647       14.703        0.170      330.722       -1.722      849.303
12/29/2021  09:44:00      -67.452       39.457      -24.588       35.483       41.504       19.173     1259.072     1722.575      367.614        0.503        0.167       78.145       14.646        0.035      330.974       -1.310      849.376
12/29/2021  09:45:00       -3.892      -25.751       -9.827       47.514       38.392       27.684     2257.540     1473.925      766.427        0.264        0.225       26.044       13.881        0.284      330.994       -1.277      849.429
12/29/2021  09:46:00      -61.410        1.088       -9.776       43.602       42.413       29.297     1901.116     1798.871      858.321        0.421        0.228       61.419       14.438        0.055      330.843       -1.523      849.450
12/29/2021  09:47:00      -50.717      -35.103      -22.364       41.052       16.165       18.703     1685.257      261.298      349.807        0.330        0.115       61.680       12.674        0.042      330.731       -1.707      849.423
12/29/2021  09:48:00       -8.425       52.530       -5.179       28.741       24.839       20.216      826.057      616.992      408.701        0.235        0.093       53.201       15.952        0.090      330.742       -1.688      849.384
12/29/2021  09:49:00       32.408       35.078       -7.761       21.309       15.656       14.372      454.093      245.100      206.567        0.162        0.045       47.757       10.235        0.046      330.841       -1.529      849.401
12/29/2021  09:50:00        0.301       31.080      -10.093       15.507       14.791       14.630      240.479      218.776      214.047        0.087        0.034       31.082       10.445        0.113      330.903       -1.425      849.478
12/29/2021  09:51:00      -61.735       27.049      -18.460       37.135       28.293       17.439     1378.981      800.480      304.104        0.368        0.124       67.400        8.676        0.017      330.993       -1.279      849.559
12/29/2021  09:52:00      -75.153       -6.153       -9.814       64.431       43.934       34.271     4151.331     1930.223     1174.516        0.652        0.363       75.404       20.910        0.077      330.996       -1.274      849.609
12/29/2021  09:53:00     -132.620        9.447      -17.161       45.939       32.900       28.476     2110.380     1082.417      810.891        1.099        0.200      132.956       21.797        0.027      330.750       -1.677      849.633
12/29/2021  09:54:00      -37.817       34.228       -5.036       21.907       17.263       10.669      479.900      298.019      113.829        0.176        0.045       51.007        3.021        0.004      330.691       -1.771      849.630
12/29/2021  09:55:00       -2.890        9.589       -6.478       10.726       13.790       10.828      115.048      190.154      117.238        0.028        0.021       10.015        6.453        0.415      330.954       -1.342      849.619
12/29/2021  09:56:00      -21.966      -11.272      -11.267       26.146       23.274       13.065      683.623      541.676      170.690        0.107        0.070       24.689       12.308        0.249      331.092       -1.115      849.601
12/29/2021  09:57:00       13.050       22.284       -7.418       28.290       29.788       18.427      800.317      887.306      339.553        0.137        0.101       25.824       11.306        0.192      331.014       -1.244      849.586
12/29/2021  09:58:00       28.575       27.486       -3.933       23.323       20.951       17.651      543.946      438.964      311.574        0.144        0.065       39.649       14.488        0.134      331.019       -1.237      849.563
12/29/2021  09:59:00      -20.328       14.500      -13.243       22.712       14.497       11.446      515.854      210.162      131.011        0.083        0.043       24.970       12.591        0.254      331.025       -1.226      849.560
12/29/2021  10:00:00       -0.677       14.739       -9.615       26.631       20.260       18.032      709.205      410.486      325.148        0.088        0.072       14.754       13.281        0.810      330.973       -1.312      849.596
12/29/2021  10:01:00      -15.477      -11.187      -12.183       24.952       29.351       16.875      622.582      861.453      284.771        0.114        0.088       19.097       15.156        0.630      331.013       -1.245      849.659
12/29/2021  10:02:00      -30.253      -11.614        3.275       35.214       28.598       27.693     1240.028      817.839      766.906        0.194        0.141       32.406       16.014        0.244      331.077       -1.141      849.725
12/29/2021  10:03:00      -71.527        9.967       -5.591       53.034       22.735       22.475     2812.643      516.868      505.112        0.454        0.192       72.218       24.175        0.112      330.941       -1.363      849.766
12/29/2021  10:04:00      -60.250        5.414      -24.482       27.524       14.115       14.781      757.580      199.244      218.464        0.272        0.059       60.493        8.658        0.020      330.867       -1.487      849.765
12/29/2021  10:05:00       -1.036        6.127      -13.123        8.972       15.639        7.578       80.500      244.585       57.426        0.030        0.019        6.214        5.893        0.899      330.886       -1.453      849.726
12/29/2021  10:06:00        5.670        2.976       -0.678       11.444        7.428       10.167      130.972       55.180      103.372        0.017        0.014        6.403        6.299        0.968      330.971       -1.315      849.668
12/29/2021  10:07:00       87.367       23.990       -7.657       46.750       26.646       25.824     2185.603      710.025      666.892        0.591        0.178       90.600       16.858        0.035      330.852       -1.509      849.615
12/29/2021  10:08:00       61.191       58.182       -4.400       48.817       34.489       21.599     2383.067     1189.492      466.534        0.559        0.202       84.436       17.270        0.042      330.948       -1.353      849.609
12/29/2021  10:09:00       39.491       36.897       -4.205       23.258       31.877       29.432      540.951     1016.163      866.249        0.268        0.121       54.046       19.058        0.124      330.899       -1.432      849.650
12/29/2021  10:10:00      -40.978       35.648       -8.576       29.591       37.210       19.220      875.632     1384.574      369.414        0.283        0.131       54.314        8.320        0.023      331.064       -1.161      849.738
12/29/2021  10:11:00       -6.357      -19.211        3.786       29.672       30.070       25.037      880.407      904.175      626.847        0.142        0.121       20.236       14.828        0.537      331.151       -1.019      849.818
12/29/2021  10:12:00      -88.087      -15.166      -11.745       53.075       24.273       23.973     2816.972      589.161      574.698        0.605        0.199       89.383       24.443        0.075      330.889       -1.449      849.856
12/29/2021  10:13:00      -44.494       12.392      -12.074       31.816       26.740       19.949     1012.285      715.040      397.960        0.220        0.106       46.187       16.811        0.132      330.985       -1.292      849.833
12/29/2021  10:14:00       -5.965       12.609       -7.007       15.649       18.306       18.118      244.887      335.099      328.278        0.058        0.045       13.949        9.692        0.483      330.912       -1.412      849.761
12/29/2021  10:15:00       18.244       49.350       -2.272       32.076       15.717       16.349     1028.887      247.010      267.276        0.216        0.077       52.615       13.909        0.070      330.846       -1.519      849.674
12/29/2021  10:16:00       82.891       48.985      -16.341       37.005       29.481       20.417     1369.396      869.143      416.870        0.610        0.133       96.283        7.044        0.005      331.069       -1.155      849.591
12/29/2021  10:17:00      116.170       37.039      -16.846       42.157       25.018       22.027     1777.177      625.908      485.205        0.902        0.144      121.932       16.496        0.018      330.857       -1.503      849.547
12/29/2021  10:18:00       79.124       18.985      -15.750       54.702       39.787       20.299     2992.306     1583.003      412.060        0.593        0.249       81.370       17.207        0.045      331.000       -1.267      849.548
12/29/2021  10:19:00       42.899       20.879      -17.469       31.805       26.396       16.244     1011.572      696.727      263.878        0.228        0.099       47.710        9.227        0.037      331.002       -1.262      849.593
12/29/2021  10:20:00      -12.241       36.162       -6.663       20.419       16.528       12.306      416.945      273.179      151.433        0.117        0.042       38.177        4.130        0.012      331.042       -1.198      849.658
12/29/2021  10:21:00      -38.898       33.353        1.825       32.053       24.861       19.738     1027.423      618.077      389.597        0.233        0.102       51.239       13.068        0.065      331.159       -1.003      849.714
12/29/2021  10:22:00      -26.269       -8.810        1.284       30.270       33.946       19.734      916.294     1152.360      389.415        0.161        0.123       27.707       14.336        0.268      331.179       -0.972      849.745
12/29/2021  10:23:00      -30.039       23.919       -3.518       24.848       16.295       13.519      617.413      265.535      182.768        0.128        0.053       38.398        9.513        0.061      331.137       -1.041      849.749
12/29/2021  10:24:00      -16.628       10.060      -22.953       18.609       13.832       13.475      346.306      191.312      181.587        0.081        0.036       19.434       11.007        0.321      331.141       -1.034      849.738
12/29/2021  10:25:00      -23.210       22.589      -11.830       20.214       11.181       15.364      408.626      125.012      236.040        0.098        0.038       32.388        9.764        0.091      331.077       -1.140      849.724
12/29/2021  10:26:00       -1.516       34.570        2.307       19.305       14.446       16.340      372.691      208.697      267.002        0.103        0.042       34.603        6.160        0.032      331.054       -1.179      849.719
12/29/2021  10:27:00       -2.891       26.616      -16.760       30.191       24.832       14.933      911.503      616.644      223.000        0.137        0.088       26.772       17.509        0.428      331.079       -1.137      849.712
12/29/2021  10:28:00       13.568      -14.253      -17.159       23.466       14.634       13.387      550.632      214.150      179.224        0.081        0.047       19.679       10.341        0.276      331.143       -1.032      849.723
12/29/2021  10:29:00       -6.990      -17.867      -11.876       15.242       11.846       16.698      232.308      140.320      278.820        0.058        0.033       19.186        7.652        0.159      331.346       -0.698      849.726
12/29/2021  10:30:00       -4.836       10.903        0.800       16.977       21.499       15.348      288.204      462.192      235.563        0.056        0.049       11.928       12.499        1.098      331.176       -0.978      849.730
12/29/2021  10:31:00        1.795        0.182       -4.492       21.978       22.579       12.748      483.023      509.802      162.520        0.059        0.058        1.805       13.152       53.113      331.088       -1.124      849.713
12/29/2021  10:32:00        9.157       21.397       -8.504       12.322       22.641       15.185      151.821      512.627      230.597        0.075        0.045       23.275       10.729        0.212      331.075       -1.143      849.688
12/29/2021  10:33:00        6.119       35.787        5.508       22.681       15.551        9.351      514.433      241.827       87.437        0.110        0.042       36.307        7.736        0.045      331.064       -1.162      849.675
12/29/2021  10:34:00      -10.968        9.715       -3.613        8.566       10.478        9.917       73.381      109.785       98.349        0.025        0.014       14.651        5.721        0.152      331.081       -1.134      849.675
12/29/2021  10:35:00      -37.151       12.961      -21.642       16.951       12.837       16.193      287.322      164.786      262.199        0.137        0.036       39.347        7.219        0.034      331.081       -1.133      849.679
12/29/2021  10:36:00       49.141       42.751      -11.379       22.416       16.453       19.420      502.495      270.714      377.143        0.276        0.058       65.134       10.407        0.026      331.083       -1.129      849.697
12/29/2021  10:37:00       44.349       27.577      -13.621       19.122       19.790       15.429      365.632      391.637      238.052        0.195        0.050       52.224       10.478        0.040      331.083       -1.130      849.719
12/29/2021  10:38:00       25.974        1.456      -10.144       19.925       20.481       17.599      396.986      419.468      309.718        0.095        0.056       26.015       10.093        0.151      331.254       -0.848      849.723
12/29/2021  10:39:00       50.593       15.867      -13.827       16.318       15.917       13.956      266.280      253.346      194.763        0.186        0.036       53.023        7.026        0.018      331.050       -1.187      849.720
12/29/2021  10:40:00       66.442       16.442      -19.135       16.963       16.529       10.820      287.743      273.218      117.064        0.286        0.034       68.446        5.764        0.007      331.066       -1.157      849.717
12/29/2021  10:41:00       72.557       37.155      -15.797       22.029       22.778       15.757      485.290      518.856      248.278        0.407        0.063       81.517        7.866        0.009      331.125       -1.062      849.711
12/29/2021  10:42:00       63.157       16.166       -9.438       21.991       18.594       17.792      483.625      345.752      316.572        0.274        0.057       65.193       15.285        0.055      331.121       -1.068      849.693
12/29/2021  10:43:00       77.214       53.063      -17.367       16.636       18.714       13.648      276.754      350.220      186.269        0.495        0.041       93.689        8.827        0.009      331.072       -1.148      849.673
12/29/2021  10:44:00       54.633       56.796      -10.836       40.108       28.207       26.357     1608.637      795.631      694.713        0.471        0.155       78.807       27.029        0.118      331.095       -1.110      849.650
12/29/2021  10:45:00       75.448       48.108      -10.383       33.767       34.119       21.856     1140.183     1164.099      477.699        0.545        0.139       89.481       16.024        0.032      331.145       -1.029      849.641
12/29/2021  10:46:00       96.980       72.444      -11.961       43.258       27.214       23.173     1871.246      740.623      537.010        0.897        0.157      121.051       17.273        0.020      331.044       -1.194      849.647
12/29/2021  10:47:00       27.253      100.130      -10.982       30.254       39.397       24.976      915.282     1552.130      623.807        0.699        0.155      103.772       20.360        0.038      331.262       -0.836      849.665
12/29/2021  10:48:00        3.093       46.583        0.406       23.942       24.069       15.395      573.242      579.330      237.020        0.178        0.069       46.685       10.458        0.050      331.420       -0.578      849.683
12/29/2021  10:49:00        9.856       15.702       -8.035       21.351       14.859       15.303      455.878      220.777      234.193        0.066        0.046       18.539        6.955        0.141      331.300       -0.774      849.700
12/29/2021  10:50:00       13.353       72.353       -7.110       35.607       32.349       18.839     1267.855     1046.456      354.904        0.407        0.133       73.575       14.645        0.040      331.243       -0.867      849.712
12/29/2021  10:51:00        0.230       43.088      -11.616       19.375       33.903       25.415      375.387     1149.424      645.931        0.208        0.109       43.089       17.986        0.174      331.269       -0.825      849.723
12/29/2021  10:52:00       15.203       23.374       -5.709       30.576       18.507       16.595      934.915      342.524      275.380        0.118        0.078       27.883       16.719        0.360      331.304       -0.768      849.711
12/29/2021  10:53:00       48.045       17.879      -12.486        8.702        7.154        7.996       75.717       51.182       63.942        0.149        0.010       51.264        2.582        0.003      330.985       -1.293      849.697
12/29/2021  10:54:00       84.801        8.153      -10.377       47.753       42.093       25.725     2280.305     1771.844      661.781        0.604        0.236       85.192       25.827        0.092      331.265       -0.833      849.683
12/29/2021  10:55:00       59.112        4.414        2.424       64.599       44.577       35.840     4173.054     1987.107     1284.474        0.548        0.372       59.276       29.730        0.252      331.533       -0.391      849.666
12/29/2021  10:56:00      132.559       29.618      -20.577       33.851       32.241       22.344     1145.889     1039.487      499.255        1.078        0.134      135.827       19.114        0.020      331.072       -1.148      849.643
12/29/2021  10:57:00       74.214       33.001      -16.850       38.742       32.257       20.797     1500.918     1040.497      432.515        0.493        0.149       81.221       12.349        0.023      331.325       -0.733      849.620
12/29/2021  10:58:00       72.489        2.337      -21.856       51.127       48.313       32.980     2614.011     2334.130     1087.678        0.589        0.302       72.527       28.807        0.158      331.420       -0.576      849.627
12/29/2021  10:59:00       75.667       48.768      -25.451       25.419       20.415       14.498      646.120      416.764      210.193        0.501        0.064       90.021        6.950        0.006      331.140       -1.036      849.635
12/29/2021  11:00:00      115.304       32.361      -13.126       34.191       28.859       23.950     1169.015      832.837      573.601        0.854        0.129      119.759       16.253        0.018      331.161       -1.003      849.628
12/29/2021  11:01:00      134.805        9.257      -22.984       37.925       49.809       27.811     1438.305     2480.930      773.475        1.174        0.235      135.122       13.498        0.010      331.200       -0.938      849.607
12/29/2021  11:02:00      103.199        1.206      -33.507       58.582       46.425       29.621     3431.805     2155.283      877.422        0.912        0.323      103.206       24.908        0.058      331.332       -0.722      849.586
12/29/2021  11:03:00       41.885       -1.447      -21.293       42.620       38.424       30.770     1816.479     1476.439      946.767        0.322        0.212       41.910       14.336        0.117      331.446       -0.534      849.567
12/29/2021  11:04:00       60.686       50.201      -27.628       42.324       43.152       31.530     1791.340     1862.055      994.160        0.581        0.232       78.758       18.976        0.058      331.282       -0.803      849.564
12/29/2021  11:05:00       87.418        2.762      -29.906       43.409       56.832       28.127     1884.338     3229.900      791.101        0.722        0.295       87.461       15.150        0.030      331.258       -0.842      849.564
12/29/2021  11:06:00      111.726       21.036      -19.526       50.370       51.965       28.978     2537.108     2700.320      839.702        0.969        0.304      113.689       11.928        0.011      331.248       -0.860      849.566
12/29/2021  11:07:00      127.553       14.592      -12.434       39.083       39.522       27.590     1527.496     1561.993      761.199        1.024        0.193      128.385       15.551        0.015      331.192       -0.952      849.559
12/29/2021  11:08:00      108.410       37.458      -28.704       37.741       19.861       15.252     1424.417      394.478      232.614        0.802        0.103      114.699       16.149        0.020      331.126       -1.060      849.563
12/29/2021  11:09:00       96.835       46.784      -20.475       29.923       24.788       13.450      895.382      614.432      180.910        0.684        0.085      107.544        8.205        0.006      331.128       -1.058      849.568
12/29/2021  11:10:00       60.285       47.250      -10.668       35.651       28.422       18.845     1271.011      807.808      355.148        0.421        0.122       76.595       13.855        0.033      331.316       -0.746      849.576
12/29/2021  11:11:00       57.333       30.887      -20.601       21.848       31.723       20.803      477.319     1006.361      432.749        0.329        0.096       65.124       16.464        0.064      331.326       -0.732      849.584
12/29/2021  11:12:00       -0.900       -4.723       -3.062       60.690       36.597       30.673     3683.329     1339.321      940.843        0.300        0.298        4.808       17.115       12.671      331.613       -0.257      849.589
12/29/2021  11:13:00       92.950      -50.752      -30.466       52.794       50.998       34.888     2787.254     2600.800     1217.180        0.937        0.330      105.903       34.012        0.103      331.291       -0.788      849.590
12/29/2021  11:14:00       58.258      -14.662      -16.976       56.681       47.592       40.821     3212.747     2265.013     1666.326        0.552        0.357       60.075       31.167        0.269      331.396       -0.615      849.586
12/29/2021  11:15:00      134.574        5.506      -19.939       57.179       36.082       27.708     3269.437     1301.887      767.736        1.194        0.267      134.687       29.698        0.049      331.239       -0.874      849.591
12/29/2021  11:16:00      101.319        5.730      -19.823       65.362       45.578       22.956     4272.127     2077.397      526.976        0.878        0.344      101.481       12.907        0.016      331.511       -0.427      849.587
12/29/2021  11:17:00       70.709       16.507      -25.801       58.581       49.566       28.882     3431.742     2456.811      834.182        0.633        0.336       72.610       15.671        0.047      331.572       -0.327      849.591
12/29/2021  11:18:00       81.785       18.215      -22.579       42.571       20.743       15.358     1812.304      430.262      235.856        0.500        0.124       83.789       12.278        0.021      331.316       -0.747      849.597
12/29/2021  11:19:00       89.471       -0.054      -13.564       52.815       25.881       24.706     2789.424      669.803      610.391        0.613        0.203       89.471       16.126        0.032      331.509       -0.430      849.599
12/29/2021  11:20:00      139.559       65.253      -19.386       65.550       47.146       30.088     4296.752     2222.725      905.311        1.577        0.371      154.061       22.481        0.021      331.411       -0.592      849.605
12/29/2021  11:21:00       85.997       72.632       -5.444       41.572       22.666       26.864     1728.246      513.743      721.676        0.783        0.148      112.565       21.238        0.036      331.510       -0.428      849.617
12/29/2021  11:22:00       38.529      -19.643      -16.514       57.171       50.374       33.109     3268.497     2537.507     1096.188        0.452        0.345       43.248       31.897        0.544      331.618       -0.250      849.605
12/29/2021  11:23:00       97.707       -5.728      -13.935       61.326       44.327       36.453     3760.828     1964.874     1328.792        0.841        0.353       97.875       27.499        0.079      331.494       -0.454      849.601
12/29/2021  11:24:00       73.014      -55.119      -22.631       60.925       74.778       40.152     3711.823     5591.805     1612.212        0.990        0.546       91.483       35.348        0.149      331.803        0.054      849.597
12/29/2021  11:25:00       84.152      -91.801      -43.178       43.082       83.801       38.131     1856.090     7022.656     1454.002        1.385        0.517      124.534       31.290        0.063      332.147        0.621      849.593
12/29/2021  11:26:00      115.573      -52.042      -25.702       72.431      104.205       42.067     5246.251    10858.712     1769.643        1.730        0.894      126.750       47.452        0.140      331.718       -0.088      849.611
12/29/2021  11:27:00      179.667       30.159      -18.124       42.783       37.704       28.079     1830.389     1421.562      788.446        1.878        0.202      182.180       19.707        0.012      331.350       -0.691      849.636
12/29/2021  11:28:00      147.503       24.221      -12.532       36.855       25.600       24.805     1358.307      655.347      615.276        1.256        0.131      149.479       17.567        0.014      331.331       -0.723      849.650
12/29/2021  11:29:00       73.328       20.699       -9.120       53.322       52.946       33.292     2843.260     2803.292     1108.325        0.632        0.338       76.194       18.617        0.060      331.686       -0.137      849.654
12/29/2021  11:30:00       57.942      -54.181      -27.183       67.089       82.557       44.856     4500.879     6815.725     2012.092        1.018        0.666       79.328       37.627        0.225      331.807        0.061      849.648
12/29/2021  11:31:00       97.331      -87.103      -42.303       60.174       81.143       44.580     3620.946     6584.241     1987.374        1.552        0.610      130.615       38.898        0.089      332.134        0.598      849.645
12/29/2021  11:32:00       80.529       -5.864      -10.553       78.582       59.326       43.970     6175.123     3519.566     1933.345        0.913        0.581       80.742       39.983        0.245      331.846        0.124      849.638
12/29/2021  11:33:00       93.436      -26.590      -20.911       69.336       64.170       59.116     4807.429     4117.743     3494.708        1.114        0.621       97.146       42.488        0.191      332.025        0.419      849.637
12/29/2021  11:34:00       84.943      -33.264      -29.753       47.937       83.655       35.226     2297.931     6998.111     1240.899        0.987        0.527       91.224       19.778        0.047      331.821        0.082      849.645
12/29/2021  11:35:00       42.846       -2.067      -14.703       60.744       54.359       44.014     3689.865     2954.953     1937.213        0.532        0.429       42.896       32.900        0.588      331.987        0.355      849.657
12/29/2021  11:36:00       89.575      -40.890      -21.983       60.364       58.741       48.307     3643.796     3450.508     2333.559        0.980        0.471       98.466       32.239        0.107      331.934        0.268      849.653
12/29/2021  11:37:00       89.470      -58.999      -13.335       74.649       63.937       36.497     5572.494     4087.910     1332.019        1.133        0.550      107.171       40.674        0.144      331.769       -0.002      849.661
12/29/2021  11:38:00      108.988      -62.045      -34.248       68.795       85.900       39.783     4732.759     7378.767     1582.714        1.530        0.685      125.411       29.934        0.057      331.762       -0.015      849.660
12/29/2021  11:39:00       52.056      -15.333      -11.833       65.104       58.790       56.835     4238.552     3456.208     3230.274        0.700        0.546       54.267       45.863        0.714      332.125        0.584      849.659
12/29/2021  11:40:00      160.902        8.339      -35.110       37.369       39.003       19.755     1396.419     1521.208      390.245        1.525        0.165      161.118       18.702        0.013      331.433       -0.555      849.665
12/29/2021  11:41:00       75.764        8.865      -19.186       71.183       56.196       45.626     5067.030     3157.983     2081.696        0.824        0.515       76.281       35.237        0.213      331.925        0.255      849.661
12/29/2021  11:42:00       53.592      -12.193      -15.288       51.973       70.490       38.426     2701.235     4968.867     1476.569        0.620        0.457       54.962       23.168        0.178      331.999        0.378      849.676
12/29/2021  11:43:00       58.874      -62.481      -43.162       51.700       50.171       35.143     2672.889     2517.132     1235.023        0.783        0.321       85.849       25.646        0.089      331.781        0.018      849.690
12/29/2021  11:44:00       31.218        3.494      -17.015       30.075       51.227       31.738      904.476     2624.254     1007.313        0.291        0.227       31.413       20.293        0.417      331.794        0.040      849.705
12/29/2021  11:45:00      100.024       16.148      -14.347       30.749       36.157       28.104      945.514     1307.355      789.833        0.676        0.152      101.319       21.457        0.045      331.475       -0.484      849.722
12/29/2021  11:46:00       88.861       17.173      -17.457       30.867       22.276       14.144      952.781      496.200      200.055        0.507        0.082       90.505       16.705        0.034      331.392       -0.623      849.724
12/29/2021  11:47:00      133.300       24.823      -18.640       78.833       46.273       32.395     6214.579     2141.185     1049.444        1.407        0.470      135.591       25.395        0.035      331.552       -0.360      849.723
12/29/2021  11:48:00      113.382       14.548       -6.769       55.306       52.388       29.666     3058.740     2744.536      880.071        0.990        0.334      114.311       19.643        0.030      331.487       -0.466      849.738
12/29/2021  11:49:00      161.316        8.015      -17.309       38.233       33.688       24.220     1461.775     1134.856      586.604        1.478        0.159      161.515        5.865        0.001      331.434       -0.552      849.743
12/29/2021  11:50:00       71.882       42.810      -21.377       60.314       38.007       27.791     3637.730     1444.498      772.363        0.665        0.293       83.664       25.408        0.092      331.395       -0.618      849.731
12/29/2021  11:51:00       67.534       11.204      -22.472       38.703       61.543       30.899     1497.909     3787.514      954.738        0.571        0.312       68.457       24.829        0.132      331.643       -0.210      849.720
12/29/2021  11:52:00       42.260      -66.136      -40.212       41.834       56.650       30.765     1750.102     3209.180      946.493        0.684        0.295       78.485       20.854        0.071      331.754       -0.026      849.711
12/29/2021  11:53:00       23.904      -72.550      -43.106       52.203       60.662       34.161     2725.153     3679.880     1166.992        0.763        0.379       76.387       28.074        0.135      331.922        0.250      849.700
12/29/2021  11:54:00       20.225      -84.798      -15.982       46.596       90.966       42.275     2171.213     8274.818     1787.158        1.004        0.612       87.177       36.152        0.172      331.663       -0.177      849.684
12/29/2021  11:55:00       83.839       14.052      -35.519       63.442       43.226       31.858     4024.916     1868.472     1014.929        0.770        0.345       85.008       11.337        0.018      331.708       -0.102      849.679
12/29/2021  11:56:00      120.614       15.235      -12.953       38.111       19.318       22.133     1452.478      373.177      489.864        0.863        0.116      121.573        6.693        0.003      331.226       -0.895      849.681
12/29/2021  11:57:00      103.660       43.586      -29.858       51.447       54.007       27.034     2646.830     2916.775      730.857        0.991        0.315      112.450       24.381        0.047      331.406       -0.599      849.668
12/29/2021  11:58:00      102.876       -8.520      -19.661       54.822       47.799       30.694     3005.427     2284.776      942.143        0.864        0.312      103.228       12.662        0.015      331.459       -0.511      849.661
12/29/2021  11:59:00       80.099       -7.618      -17.659       26.741       32.586       22.483      715.089     1061.858      505.501        0.453        0.114       80.460       11.168        0.019      331.375       -0.650      849.648
12/29/2021  12:00:00       91.994       19.173      -24.040       46.846       37.836       25.345     2194.503     1431.599      642.384        0.684        0.213       93.970       16.066        0.029      331.385       -0.634      849.641
12/29/2021  12:01:00       65.441       28.470      -29.911       39.847       43.531       27.792     1587.797     1894.939      772.410        0.512        0.213       71.366       15.739        0.049      331.443       -0.538      849.640
12/29/2021  12:02:00       58.402       -2.366      -12.795       40.688       48.552       27.698     1655.549     2357.328      767.161        0.418        0.239       58.450       10.949        0.035      331.497       -0.450      849.631
12/29/2021  12:03:00       65.121       -0.691      -14.887       49.551       45.933       28.025     2455.342     2109.853      785.382        0.491        0.268       65.124       16.850        0.067      331.457       -0.516      849.639
12/29/2021  12:04:00      111.238       13.697      -31.393       55.838       43.641       27.134     3117.854     1904.523      736.234        0.965        0.288      112.078       14.836        0.018      331.434       -0.554      849.640
12/29/2021  12:05:00       97.948       29.873      -16.231       36.816       33.497       23.115     1355.419     1122.025      534.294        0.688        0.151      102.402       14.029        0.019      331.423       -0.571      849.648
12/29/2021  12:06:00      102.764       17.848      -12.724       19.474       18.705       10.437      379.232      349.895      108.935        0.594        0.042      104.303        5.775        0.003      331.173       -0.986      849.654
12/29/2021  12:07:00       87.161       12.563      -14.127       43.569       28.417       13.482     1898.256      807.517      181.762        0.542        0.144       88.062       14.572        0.027      331.333       -0.719      849.643
12/29/2021  12:08:00      127.318       38.011      -21.039       22.071       15.776        9.817      487.114      248.888       96.371        0.946        0.042      132.871       11.792        0.008      331.225       -0.900      849.642
12/29/2021  12:09:00       56.219        8.431      -10.339       28.032       19.027       15.063      785.787      362.036      226.904        0.236        0.069       56.848       10.140        0.032      331.352       -0.690      849.641
12/29/2021  12:10:00       69.612      -11.296      -14.045       36.750       29.583       19.410     1350.575      875.129      376.766        0.389        0.130       70.523       14.855        0.044      331.406       -0.600      849.638
12/29/2021  12:11:00       71.657       40.887      -18.553       18.774       13.825       10.640      352.472      191.130      113.204        0.390        0.033       82.501        6.989        0.007      331.310       -0.756      849.643
12/29/2021  12:12:00       57.064       20.348       -9.432       14.544       16.662       12.423      211.517      277.628      154.327        0.220        0.032       60.583        6.666        0.012      331.322       -0.736      849.640
12/29/2021  12:13:00       43.511       33.549      -11.920       40.698       26.941       17.978     1656.349      725.807      323.222        0.293        0.135       54.943       20.470        0.139      331.404       -0.602      849.640
12/29/2021  12:14:00       71.665       11.993      -10.149       17.914       21.687       14.497      320.897      470.316      210.154        0.319        0.050       72.661        6.211        0.007      331.363       -0.670      849.627
12/29/2021  12:15:00      105.882       24.353      -12.984       63.827       43.676       20.254     4073.903     1907.617      410.218        0.918        0.320      108.647       28.578        0.069      331.482       -0.475      849.613
12/29/2021  12:16:00      148.413       51.263      -29.571       24.948       31.892       16.261      622.428     1017.119      264.412        1.372        0.095      157.017        6.450        0.002      331.394       -0.617      849.601
12/29/2021  12:17:00       92.973       27.628      -20.722       55.733       44.269       29.931     3106.116     1959.762      895.839        0.790        0.298       96.991       21.619        0.050      331.601       -0.279      849.586
12/29/2021  12:18:00       90.375       84.664      -15.732       36.223       54.951       21.270     1312.100     3019.578      452.419        1.018        0.239      123.837       15.750        0.016      331.477       -0.484      849.581
12/29/2021  12:19:00       51.942      139.946      -14.289       49.011       63.073       23.426     2402.068     3978.156      548.798        1.471        0.346      149.274       32.249        0.047      331.560       -0.349      849.569
12/29/2021  12:20:00       -2.698      103.700      -17.245       39.772       30.859       17.533     1581.826      952.256      307.404        0.695        0.142      103.735       16.268        0.025      331.533       -0.392      849.565
12/29/2021  12:21:00       -2.136       99.538      -12.063       32.157       48.418       24.576     1034.070     2344.289      603.998        0.702        0.199       99.561       22.920        0.053      331.574       -0.322      849.552
12/29/2021  12:22:00       43.055      106.275      -18.148       32.006       26.150       27.814     1024.370      683.847      773.642        0.798        0.124      114.665       10.541        0.008      331.613       -0.260      849.545
12/29/2021  12:23:00       35.468       54.175      -10.658       31.488       30.242       18.068      991.465      914.600      326.456        0.327        0.112       64.753       15.199        0.055      331.578       -0.316      849.530
12/29/2021  12:24:00       64.065       71.108      -11.919       27.895       41.214       22.824      778.133     1698.563      520.937        0.615        0.150       95.711       13.527        0.020      331.495       -0.454      849.521
12/29/2021  12:25:00       90.984       21.021      -18.612       21.709       27.255       11.126      471.265      742.846      123.795        0.520        0.067       93.381        9.048        0.009      331.337       -0.714      849.510
12/29/2021  12:26:00       84.565       64.394      -18.228       25.521       28.024       24.178      651.303      785.332      584.573        0.683        0.101      106.292       15.024        0.020      331.509       -0.431      849.510
12/29/2021  12:27:00       78.206       40.537      -22.963       17.859       14.655       13.480      318.936      214.762      181.715        0.450        0.036       88.088        7.803        0.008      331.377       -0.648      849.524
12/29/2021  12:28:00       82.371       26.061      -15.476       21.835       17.296       12.519      476.782      299.139      156.723        0.432        0.047       86.395        6.619        0.006      331.380       -0.642      849.533
12/29/2021  12:29:00       75.303       -0.769      -15.287       38.732       38.724       20.177     1500.148     1499.579      407.129        0.466        0.170       75.307       10.209        0.018      331.474       -0.488      849.527
12/29/2021  12:30:00       79.480       33.626       -9.820       49.166       25.896       24.957     2417.271      670.597      622.859        0.563        0.186       86.301       29.021        0.113      331.448       -0.532      849.526
12/29/2021  12:31:00       28.868       28.417      -19.528       34.714       36.162       24.631     1205.089     1307.656      606.667        0.257        0.156       40.508       20.381        0.253      331.572       -0.325      849.527
12/29/2021  12:32:00       35.365      102.473      -23.002       30.524       32.777       33.364      931.723     1074.314     1113.133        0.770        0.156      108.404       17.640        0.026      331.684       -0.141      849.529
12/29/2021  12:33:00        7.505       54.346       -1.227       24.116       27.366       29.931      581.585      748.892      895.849        0.262        0.111       54.862       14.755        0.072      331.735       -0.057      849.528
12/29/2021  12:34:00       45.716      100.210      -10.598       23.062       42.647       22.165      531.841     1818.777      491.276        0.754        0.142      110.145       21.125        0.037      331.594       -0.290      849.524
12/29/2021  12:35:00        4.175       85.325       -5.608       31.420       47.183       24.849      987.236     2226.191      617.485        0.558        0.192       85.427       26.182        0.094      331.569       -0.330      849.522
12/29/2021  12:36:00      -52.157      104.053      -15.699       29.703       34.211       14.700      882.253     1170.379      216.089        0.803        0.113      116.393       10.512        0.008      331.397       -0.614      849.520
12/29/2021  12:37:00      -58.040       46.558      -16.480       38.372       30.690       23.008     1472.402      941.880      529.384        0.438        0.147       74.406        7.785        0.011      331.375       -0.651      849.509
12/29/2021  12:38:00      -39.849       30.359      -10.239       26.348       31.414       20.096      694.211      986.814      403.847        0.235        0.104       50.096       12.093        0.058      331.421       -0.576      849.502
12/29/2021  12:39:00      -47.503       26.249      -10.783       41.675       36.095       26.039     1736.772     1302.814      678.014        0.339        0.186       54.273       17.860        0.108      331.517       -0.418      849.502
12/29/2021  12:40:00     -122.010       60.831      -16.061       46.818       33.879       22.585     2191.953     1147.763      510.071        1.135        0.192      136.334       14.491        0.011      331.307       -0.761      849.508
12/29/2021  12:41:00     -113.156       28.706      -16.398       60.225       49.338       35.795     3627.090     2434.225     1281.314        1.062        0.367      116.740       36.398        0.097      331.327       -0.730      849.505
12/29/2021  12:42:00      -73.919       29.963      -33.599       58.802       31.154       27.573     3457.702      970.582      760.260        0.634        0.259       79.761       32.042        0.161      331.277       -0.810      849.504
12/29/2021  12:43:00      -15.232       -1.820      -15.067       30.710       54.357       26.177      943.083     2954.691      685.216        0.252        0.229       15.340       18.268        1.418      331.491       -0.460      849.503
12/29/2021  12:44:00       14.566        4.413       -2.608       31.745       33.683       26.347     1007.756     1134.513      694.190        0.154        0.142       15.220       12.546        0.679      331.449       -0.529      849.508
12/29/2021  12:45:00      -38.200      -12.244        5.337       41.595       38.235       34.599     1730.185     1461.936     1197.057        0.301        0.219       40.114       27.043        0.454      331.474       -0.487      849.528
12/29/2021  12:46:00      -62.401       -2.503        1.614       52.533       50.131       34.084     2759.682     2513.091     1161.743        0.517        0.322       62.451       25.535        0.167      331.380       -0.642      849.558
12/29/2021  12:47:00      -89.803       15.593       -4.893       45.341       39.929       23.153     2055.828     1594.307      536.083        0.626        0.209       91.147       17.995        0.039      331.293       -0.786      849.586
12/29/2021  12:48:00      -31.972       33.393        0.937       34.703       35.908       18.067     1204.271     1289.361      326.419        0.248        0.141       46.231       14.338        0.096      331.350       -0.691      849.595
12/29/2021  12:49:00      -61.644       26.968      -20.939       35.533       34.523       20.863     1262.599     1191.871      435.262        0.393        0.144       67.284       14.619        0.047      331.411       -0.593      849.595
12/29/2021  12:50:00      -58.936       32.199      -17.334       14.505       11.286       10.708      210.396      127.373      114.666        0.263        0.023       67.158        5.807        0.007      331.188       -0.957      849.565
12/29/2021  12:51:00       -6.900        6.905       -7.782       19.139        9.627        5.560      366.290       92.671       30.912        0.032        0.024        9.761        7.658        0.616      331.255       -0.851      849.530
12/29/2021  12:52:00       45.268       49.191       -5.987       30.204       32.290       20.127      912.262     1042.666      405.109        0.343        0.118       66.850       12.826        0.037      331.433       -0.557      849.505
12/29/2021  12:53:00       24.925       50.395       -9.306       29.040       22.621       17.322      843.341      511.692      300.037        0.245        0.083       56.222       13.630        0.059      331.475       -0.486      849.508
12/29/2021  12:54:00      -54.786       34.757       -9.018       47.119       22.712       25.959     2220.237      515.816      673.855        0.385        0.170       64.881       22.999        0.126      331.536       -0.385      849.539
12/29/2021  12:55:00      -44.852       44.225      -18.049       26.338       24.514       23.699      693.678      600.919      561.654        0.307        0.093       62.989       15.572        0.061      331.601       -0.279      849.590
12/29/2021  12:56:00      -64.580      -13.968      -13.884       72.588       31.917       21.928     5269.062     1018.691      480.840        0.566        0.338       66.073       14.182        0.046      331.520       -0.412      849.624
12/29/2021  12:57:00      -62.390      -11.950       -8.311       38.622       36.629       26.328     1491.622     1341.649      693.147        0.381        0.176       63.524       17.566        0.076      331.465       -0.502      849.638
12/29/2021  12:58:00      -30.646      -31.117      -10.826       23.582       27.466       18.284      556.116      754.407      334.318        0.183        0.082       43.674        7.204        0.027      331.435       -0.552      849.631
12/29/2021  12:59:00       -2.613        0.772       -8.865        6.204       11.170       13.046       38.493      124.760      170.192        0.021        0.017        2.725        9.405       11.913      331.526       -0.403      849.593
12/29/2021  13:00:00       30.177       40.691        5.907       32.391       32.614       23.462     1049.151     1063.691      550.448        0.263        0.133       50.660       10.354        0.042      331.549       -0.364      849.564
12/29/2021  13:01:00      123.612       78.584      -19.643       17.582       13.186       10.472      309.132      173.871      109.665        1.122        0.030      146.477        4.542        0.001      331.285       -0.798      849.534
12/29/2021  13:02:00      129.256       48.234      -19.778       37.881       30.413       16.921     1434.990      924.934      286.312        1.103        0.132      137.962       11.126        0.007      331.315       -0.747      849.501
12/29/2021  13:03:00      121.441       31.680      -17.734       27.217       40.833       21.729      740.779     1667.305      472.171        0.947        0.144      125.505        9.573        0.006      331.366       -0.664      849.484
12/29/2021  13:04:00      100.071       59.685      -13.372       25.787       23.989       19.630      664.981      575.489      385.323        0.769        0.081      116.518       10.957        0.009      331.452       -0.525      849.485
12/29/2021  13:05:00       79.898       43.515      -18.275       35.483       32.700       24.484     1259.078     1069.309      599.484        0.577        0.146       90.979       17.116        0.035      331.542       -0.374      849.493
12/29/2021  13:06:00      111.791       46.462      -13.080       43.267       33.221       25.479     1872.002     1103.607      649.182        0.923        0.181      121.062       18.041        0.022      331.489       -0.464      849.517
12/29/2021  13:07:00      157.511       39.432      -20.166       20.373       22.797       17.118      415.066      519.693      293.039        1.400        0.061      162.371        4.584        0.001      331.326       -0.730      849.540
12/29/2021  13:08:00      128.331       18.780      -14.622       38.536       18.105       18.171     1484.987      327.808      330.197        0.959        0.107      129.697       12.575        0.009      331.331       -0.723      849.565
12/29/2021  13:09:00       98.653       12.391      -19.953       24.307       30.016       21.108      590.821      900.932      445.561        0.611        0.097       99.429       13.244        0.018      331.440       -0.543      849.579
12/29/2021  13:10:00       98.480       56.568      -23.220       43.983       38.825       27.185     1934.483     1507.384      739.038        0.881        0.209      113.570        7.806        0.005      331.595       -0.289      849.590
12/29/2021  13:11:00       30.996       31.015       -0.281       33.882       51.760       23.348     1147.964     2679.064      545.137        0.315        0.219       43.849       17.714        0.163      331.721       -0.083      849.604
12/29/2021  13:12:00       17.402      -25.165       -5.547       61.075       75.899       38.573     3730.177     5760.582     1487.864        0.597        0.549       30.596       40.530        1.755      331.735       -0.058      849.596
12/29/2021  13:13:00       98.458      -48.100      -27.117       59.334       48.267       36.190     3520.559     2329.683     1309.722        0.995        0.358      109.580       28.338        0.067      331.634       -0.224      849.589
12/29/2021  13:14:00      162.245        2.236      -20.422       31.394       38.142       21.283      985.605     1454.793      452.970        1.482        0.145      162.260       16.159        0.010      331.388       -0.630      849.573
12/29/2021  13:15:00       66.421        7.095      -18.348       44.790       30.011       21.035     2006.113      900.685      442.484        0.407        0.167       66.799       10.134        0.023      331.467       -0.500      849.559
12/29/2021  13:16:00       75.151       28.223      -22.928       20.293       43.692       20.259      411.800     1908.958      410.434        0.485        0.137       80.276       17.371        0.047      331.513       -0.423      849.543
12/29/2021  13:17:00       40.736      -32.063      -16.325       48.783       43.091       19.751     2379.818     1856.801      390.115        0.379        0.231       51.840       25.863        0.249      331.682       -0.145      849.533
12/29/2021  13:18:00      104.229      -29.922      -22.427       82.427       48.178       43.366     6794.157     2321.077     1880.623        1.163        0.550      108.439       46.326        0.183      331.773        0.004      849.528
12/29/2021  13:19:00       68.440        2.571       -8.249       84.633       52.891       36.668     7162.785     2797.506     1344.561        0.803        0.565       68.488       27.251        0.158      332.085        0.518      849.527
12/29/2021  13:20:00       14.824      -24.607       -8.080       51.067       58.613       47.458     2607.836     3435.459     2252.232        0.459        0.415       28.727       26.842        0.873      332.235        0.765      849.531
12/29/2021  13:21:00       46.007      -13.666      -26.730       35.503       36.688       32.686     1260.492     1345.994     1068.342        0.335        0.184       47.994       15.314        0.102      332.056        0.470      849.551
12/29/2021  13:22:00       44.428       12.171       -4.941       53.183       64.996       35.330     2828.390     4224.482     1248.209        0.522        0.415       46.065       32.350        0.493      331.974        0.335      849.578
12/29/2021  13:23:00       60.649       34.689      -15.022       34.550       28.190       19.135     1193.737      794.676      366.157        0.373        0.118       69.869       15.115        0.047      331.676       -0.155      849.591
12/29/2021  13:24:00       61.275      -36.909      -22.359       32.014       42.299       19.983     1024.909     1789.176      399.313        0.441        0.161       71.532       12.928        0.033      331.693       -0.126      849.603
12/29/2021  13:25:00        7.716      -11.651      -11.006       42.034       31.415       23.182     1766.854      986.897      537.404        0.180        0.165       13.975       22.422        2.574      331.707       -0.106      849.615
12/29/2021  13:26:00      -28.895      -36.899      -21.771       36.871       39.584       22.767     1359.450     1566.882      518.334        0.306        0.172       46.866       23.168        0.244      332.121        0.577      849.594
12/29/2021  13:27:00       50.052     -119.285      -30.654       40.904       58.934       37.675     1673.121     3473.210     1419.376        1.212        0.328      129.360       22.684        0.031      332.122        0.580      849.582
12/29/2021  13:28:00       52.774      -98.836      -15.502       47.742       69.997       43.369     2279.278     4899.542     1880.911        1.093        0.453      112.043       37.083        0.110      332.183        0.680      849.572
12/29/2021  13:29:00       21.144      -10.094      -20.098       64.936       48.588       28.075     4216.748     2360.834      788.183        0.416        0.368       23.430       13.972        0.356      332.192        0.694      849.576
12/29/2021  13:30:00       41.417      -78.166      -12.772       55.505       63.101       31.205     3080.835     3981.691      973.757        0.801        0.402       88.461       32.098        0.132      332.054        0.466      849.584
12/29/2021  13:31:00      100.609      -78.153      -31.228       76.360       72.808       50.349     5830.874     5300.958     2535.071        1.543        0.683      127.397       50.258        0.156      332.167        0.652      849.585
12/29/2021  13:32:00       79.672       -1.386      -33.094       43.696       49.422       33.293     1909.305     2442.556     1108.433        0.645        0.273       79.684       13.360        0.028      332.273        0.828      849.589
12/29/2021  13:33:00      112.159       23.604      -32.338       59.055       51.758       36.935     3487.478     2678.860     1364.199        1.086        0.377      114.616       25.238        0.048      332.103        0.548      849.604
12/29/2021  13:34:00       76.634       -6.868      -32.683       42.311       32.542       20.744     1790.241     1059.007      430.333        0.513        0.164       76.941       14.262        0.034      331.715       -0.091      849.613
12/29/2021  13:35:00       90.314       22.799      -29.551       43.101       39.434       22.441     1857.711     1555.002      503.577        0.673        0.196       93.148       17.833        0.037      331.929        0.262      849.632
12/29/2021  13:36:00       83.620       38.874      -27.092       24.001       34.636       16.527      576.062     1199.650      273.128        0.564        0.102       92.214        7.375        0.006      331.606       -0.271      849.654
12/29/2021  13:37:00       59.323       44.829      -16.292       29.978       29.360       21.140      898.702      861.982      446.905        0.400        0.110       74.356       11.554        0.024      331.725       -0.075      849.667
12/29/2021  13:38:00       28.520      -20.789      -18.986       43.247       53.248       25.856     1870.260     2835.359      668.554        0.349        0.269       35.293       21.726        0.379      332.075        0.501      849.663
12/29/2021  13:39:00       25.355      -37.064      -12.221       32.447       61.667       25.195     1052.811     3802.776      634.772        0.383        0.275       44.907       16.532        0.136      332.099        0.541      849.668
12/29/2021  13:40:00       -5.746      -27.687      -11.048       33.864       48.893       23.698     1146.764     2390.536      561.617        0.251        0.205       28.277       24.801        0.769      332.276        0.832      849.672
12/29/2021  13:41:00      -28.470      -17.627      -21.054       32.772       46.603       28.225     1074.036     2171.878      796.678        0.280        0.202       33.486       21.317        0.405      332.341        0.939      849.680
12/29/2021  13:42:00       94.135       22.960      -20.981       51.030       36.075       26.861     2604.083     1301.411      721.508        0.723        0.231       96.895       28.340        0.086      331.959        0.310      849.699
12/29/2021  13:43:00      108.613       68.862      -14.647       35.473       37.134       23.979     1258.365     1378.927      574.988        0.998        0.161      128.603       16.147        0.016      331.749       -0.036      849.716
12/29/2021  13:44:00        6.724       -0.440      -22.786       34.798       43.901       29.858     1210.913     1927.300      891.528        0.230        0.201        6.738       22.132       10.789      332.216        0.734      849.733
12/29/2021  13:45:00      -16.853       -3.979      -13.445       32.896       38.592       31.945     1082.167     1489.313     1020.481        0.204        0.180       17.316       17.316        1.000      332.432        1.089      849.742
12/29/2021  13:46:00       38.769        0.827       -1.490       38.582       48.052       32.858     1488.565     2308.976     1079.678        0.319        0.244       38.778       21.797        0.316      332.244        0.780      849.751
12/29/2021  13:47:00        6.573       16.640        5.717       59.926       54.015       31.490     3591.171     2917.620      991.651        0.393        0.375       17.891       12.779        0.510      332.283        0.844      849.755
12/29/2021  13:48:00       44.126      -29.558       -2.210       76.775       57.270       47.529     5894.427     3279.858     2259.014        0.713        0.572       53.111       40.469        0.581      332.131        0.594      849.775
12/29/2021  13:49:00       78.485      -20.229      -12.047       69.030       50.995       45.034     4765.134     2600.452     2028.057        0.805        0.470       81.051       33.680        0.173      332.020        0.410      849.800
12/29/2021  13:50:00       52.607      -13.847      -17.685       50.936       40.275       32.244     2594.457     1622.061     1039.701        0.426        0.263       54.398       23.974        0.194      332.204        0.715      849.825
12/29/2021  13:51:00       36.492       10.446      -11.520       38.158       48.396       19.708     1456.044     2342.217      388.411        0.288        0.209       37.958       19.140        0.254      332.038        0.441      849.838
12/29/2021  13:52:00       23.315      -71.316      -26.834       38.153       40.203       25.127     1455.620     1616.266      631.367        0.503        0.185       75.030       20.211        0.073      332.041        0.447      849.849
12/29/2021  13:53:00       38.833       41.848       -1.246       48.748       44.246       32.500     2376.358     1957.710     1056.228        0.432        0.270       57.089       13.237        0.054      332.129        0.591      849.907
12/29/2021  13:54:00       60.248      -46.528      -34.331       46.054       51.677       32.180     2120.974     2670.522     1035.536        0.640        0.291       76.123       22.416        0.087      332.309        0.888      849.934
12/29/2021  13:55:00       95.764       60.695      -19.980       40.057       31.610       24.180     1604.539      999.195      584.677        0.822        0.159      113.378       14.713        0.017      332.053        0.467      849.938
12/29/2021  13:56:00       82.034       35.097      -16.714       33.498       38.127       18.991     1122.103     1453.644      360.651        0.559        0.147       89.226       12.636        0.020      331.980        0.346      849.947
12/29/2021  13:57:00       60.693        2.572      -19.768       34.150       58.144       24.018     1166.238     3380.684      576.841        0.460        0.256       60.747       16.942        0.078      332.104        0.550      849.958
12/29/2021  13:58:00       86.957        5.313      -20.875       50.790       45.423       29.536     2579.633     2063.207      872.354        0.677        0.276       87.119       26.193        0.090      332.098        0.539      849.964
12/29/2021  13:59:00       96.565      -10.604      -18.162       73.590       59.348       36.397     5415.441     3522.225     1324.774        1.001        0.513       97.145       38.283        0.155      332.131        0.595      849.969
12/29/2021  14:00:00       53.558      -65.659      -29.113       57.581       86.085       35.801     3315.546     7410.593     1281.726        1.002        0.600       84.733       23.467        0.077      332.445        1.111      849.974
12/29/2021  14:01:00       36.455      -81.581      -23.940       43.218       52.049       28.817     1867.831     2709.120      830.416        0.698        0.270       89.356       23.140        0.067      332.129        0.590      849.994
12/29/2021  14:02:00       61.212      -68.980      -27.652       42.192       48.659       24.719     1780.143     2367.726      611.048        0.701        0.238       92.224       16.169        0.031      332.102        0.546      850.011
12/29/2021  14:03:00       25.658      -62.640      -17.649       41.160       43.825       23.940     1694.169     1920.668      573.142        0.454        0.209       67.691       21.845        0.104      332.252        0.794      850.018
12/29/2021  14:04:00       14.796       13.838       -7.104       40.100       56.620       34.482     1607.975     3205.838     1188.995        0.323        0.300       20.258       23.226        1.314      332.338        0.935      850.016
12/29/2021  14:05:00       61.887      -16.459      -29.893       56.092       54.577       35.485     3146.301     2978.609     1259.214        0.619        0.369       64.039       28.214        0.194      332.522        1.239      850.009
12/29/2021  14:06:00      102.968      -84.749      -29.470       63.465       59.602       38.494     4027.781     3552.387     1481.776        1.386        0.453      133.360       35.607        0.071      332.354        0.963      850.019
12/29/2021  14:07:00       75.532      -83.278      -24.513       53.505       52.229       30.926     2862.737     2727.872      956.429        0.989        0.327      112.429       24.594        0.048      332.253        0.795      850.032
12/29/2021  14:08:00       48.102      -13.777      -15.588       49.936       72.239       30.883     2493.599     5218.488      953.778        0.570        0.433       50.036       25.675        0.263      332.417        1.064      850.041
12/29/2021  14:09:00        0.403      -46.974      -16.246       34.333       50.355       32.832     1178.747     2535.584     1077.939        0.363        0.240       46.976       30.744        0.428      332.374        0.996      850.052
12/29/2021  14:10:00       50.142       59.737       -3.806       29.905       21.654       14.678      894.289      468.915      215.443        0.384        0.079       77.992       10.050        0.017      331.998        0.375      850.076
12/29/2021  14:11:00       29.936       47.132       -9.545       12.515       14.400       11.314      156.630      207.360      128.004        0.185        0.025       55.835        6.615        0.014      331.953        0.300      850.093
12/29/2021  14:12:00       62.478       42.245      -12.634       24.958       21.286       11.606      622.897      453.082      134.706        0.353        0.061       75.420        6.247        0.007      331.908        0.228      850.096
12/29/2021  14:13:00       46.695       21.199       -9.263       36.376       48.575       27.728     1323.215     2359.543      768.848        0.358        0.223       51.282       19.262        0.141      332.259        0.805      850.094
12/29/2021  14:14:00       55.998      -19.851       -1.175       51.146       53.786       42.460     2615.877     2892.910     1802.830        0.542        0.366       59.413       24.916        0.176      332.397        1.032      850.096
12/29/2021  14:15:00       72.129       17.868       -9.800       46.510       57.302       36.221     2163.180     3283.539     1311.990        0.619        0.338       74.309       20.963        0.080      332.286        0.849      850.123
12/29/2021  14:16:00       79.888        2.987      -28.758       60.705       55.615       29.697     3685.147     3093.049      881.931        0.744        0.383       79.943       18.113        0.051      332.261        0.809      850.147
12/29/2021  14:17:00      109.444       12.009      -17.986       58.198       45.936       21.549     3386.997     2110.108      464.375        0.920        0.298      110.101       25.505        0.054      332.129        0.591      850.174
12/29/2021  14:18:00       80.441      -16.946      -16.639       45.383       30.773       28.035     2059.601      946.948      785.985        0.541        0.190       82.206       25.477        0.096      332.280        0.841      850.188
12/29/2021  14:19:00       17.635        3.896        0.616       22.643       26.539       23.301      512.710      704.305      542.929        0.104        0.088       18.061       14.064        0.606      332.532        1.256      850.194
12/29/2021  14:20:00       38.421       41.487       -5.794       36.948       37.886       26.847     1365.140     1435.339      720.738        0.338        0.176       56.546       10.341        0.033      332.421        1.071      850.195
12/29/2021  14:21:00       37.150      -21.299      -22.654       36.831       56.027       26.618     1356.500     3138.989      708.524        0.377        0.260       42.822       19.937        0.217      332.425        1.080      850.188
12/29/2021  14:22:00       58.038       -3.933      -35.964       36.830       53.539       29.222     1356.424     2866.429      853.951        0.488        0.254       58.171       20.222        0.121      332.389        1.019      850.182
12/29/2021  14:23:00       82.462        6.051       -9.002       72.307       53.158       26.291     5228.281     2825.726      691.201        0.783        0.437       82.684       27.713        0.112      332.096        0.538      850.186
12/29/2021  14:24:00       65.482      -17.661      -25.257       65.658       72.799       39.999     4310.967     5299.755     1599.915        0.822        0.561       67.822       36.050        0.283      332.402        1.041      850.178
12/29/2021  14:25:00       82.820      -12.638      -27.751       49.819       68.773       40.697     2481.923     4729.663     1656.226        0.833        0.443       83.779       26.531        0.100      332.484        1.176      850.184
12/29/2021  14:26:00       40.890        2.499       -5.624       41.869       50.004       34.653     1753.029     2500.370     1200.862        0.358        0.273       40.966       25.248        0.380      332.512        1.223      850.203
12/29/2021  14:27:00       39.894        0.645      -27.174       44.505       48.457       30.101     1980.706     2348.119      906.053        0.378        0.262       39.900       14.691        0.136      332.277        0.833      850.218
12/29/2021  14:28:00       81.847       63.357       -8.384       41.372       43.842       29.894     1711.626     1922.125      893.666        0.765        0.226      103.504       26.824        0.067      332.097        0.538      850.228
12/29/2021  14:29:00       51.449       15.105      -11.791       40.871       24.913       16.692     1670.467      620.642      278.609        0.279        0.128       53.621       12.213        0.052      332.063        0.482      850.240
12/29/2021  14:30:00       48.183      -49.111      -17.803       38.649       67.274       28.228     1493.740     4525.736      796.821        0.593        0.341       68.800       35.766        0.270      332.270        0.823      850.245
12/29/2021  14:31:00       64.140     -167.578      -24.144       41.511       44.042       29.863     1723.141     1939.682      891.780        1.867        0.228      179.434       23.140        0.017      332.201        0.709      850.241
12/29/2021  14:32:00       45.236      -91.613      -17.581       34.895       78.272       27.602     1217.681     6126.541      761.887        0.943        0.405      102.173       32.319        0.100      332.351        0.955      850.247
12/29/2021  14:33:00       90.357     -110.185      -33.158       52.186       79.898       31.803     2723.409     6383.643     1011.414        1.576        0.506      142.496       35.048        0.060      332.151        0.626      850.256
12/29/2021  14:34:00       85.307     -159.112      -41.960       23.544       38.330       15.067      554.326     1469.170      227.025        1.830        0.113      180.538        9.687        0.003      331.914        0.238      850.270
12/29/2021  14:35:00       69.516     -117.832      -34.663       29.875       28.531       22.578      892.515      814.004      509.782        1.107        0.111      136.810       17.912        0.017      332.101        0.545      850.278
12/29/2021  14:36:00       63.766     -133.487      -26.543       32.991       35.988       23.217     1088.415     1295.145      539.015        1.276        0.146      147.936       23.082        0.024      332.018        0.409      850.281
12/29/2021  14:37:00      102.517     -104.197      -36.401       35.403       33.256       19.456     1253.356     1105.931      378.550        1.271        0.137      146.174       12.101        0.007      331.957        0.308      850.291
12/29/2021  14:38:00       74.512      -91.670      -47.865       59.804       52.889       38.699     3576.471     2797.219     1497.597        1.206        0.394      118.133       33.729        0.082      332.253        0.795      850.305
12/29/2021  14:39:00       96.458     -174.472      -52.060       31.425       37.839       24.245      987.542     1431.821      587.801        2.273        0.150      199.361       11.259        0.003      332.051        0.460      850.319
12/29/2021  14:40:00      141.425     -221.726      -64.203       47.865       94.783       36.895     2291.101     8983.850     1361.217        4.296        0.632      262.989       28.462        0.012      331.918        0.238      850.319
12/29/2021  14:41:00      120.068     -199.021      -51.076       23.054       45.929       15.986      531.493     2109.516      255.567        2.976        0.145      232.434       15.478        0.004      331.813        0.068      850.328
12/29/2021  14:42:00       70.320     -154.616      -34.902       26.378       31.920       21.547      695.773     1018.878      464.281        1.612        0.109      169.856       13.447        0.006      331.936        0.274      850.322
12/29/2021  14:43:00       81.729      -95.876      -22.935       38.567       45.243       22.772     1487.436     2046.902      518.562        1.022        0.203      125.983       18.773        0.022      331.903        0.219      850.319
12/29/2021  14:44:00       37.574     -110.014      -15.120       30.344       48.934       28.354      920.781     2394.568      803.959        0.893        0.206      116.254       19.096        0.027      332.028        0.423      850.324
12/29/2021  14:45:00       32.431      -37.796      -24.561       57.251       35.478       24.731     3277.644     1258.691      611.636        0.411        0.257       49.802       15.784        0.100      332.363        0.976      850.353
12/29/2021  14:46:00       36.927      -74.970      -19.438       44.665       39.046       27.929     1995.001     1524.555      780.023        0.583        0.215       83.571       17.234        0.043      332.159        0.638      850.377
12/29/2021  14:47:00       -0.679      -36.389      -14.831       32.920       30.355       23.860     1083.713      921.398      569.314        0.206        0.129       36.395       16.585        0.208      332.298        0.870      850.394
12/29/2021  14:48:00      -52.865      -69.145      -17.824       39.443       38.306       32.944     1555.761     1467.321     1085.329        0.600        0.205       87.039       17.644        0.041      332.292        0.859      850.414
12/29/2021  14:49:00      -56.681      -44.647      -39.896       41.374       35.259       25.573     1711.812     1243.225      653.993        0.520        0.180       72.154       22.478        0.097      332.422        1.073      850.436
12/29/2021  14:50:00      -13.094       15.322       -9.906       16.209       15.732       15.382      262.741      247.494      236.615        0.063        0.037       20.155        7.451        0.137      332.282        0.843      850.435
12/29/2021  14:51:00       18.851      -38.985        5.418       39.948       62.266       47.546     1595.818     3877.034     2260.580        0.482        0.387       43.303       32.577        0.566      332.310        0.890      850.412
12/29/2021  14:52:00      125.976      -13.561      -13.093       78.942       41.220       43.942     6231.810     1699.090     1930.889        1.304        0.493      126.704       42.691        0.114      332.053        0.466      850.379
12/29/2021  14:53:00      146.404       20.656      -14.378       46.629       25.488       21.712     2174.291      649.648      471.393        1.268        0.165      147.854       15.249        0.011      331.855        0.140      850.358
12/29/2021  14:54:00       85.840       12.820       -2.292       67.535       39.965       29.019     4561.021     1597.201      842.103        0.727        0.350       86.792       25.523        0.086      332.053        0.466      850.361
12/29/2021  14:55:00      -14.841      -51.442       -5.821       38.546       33.936       28.748     1485.809     1151.685      826.430        0.318        0.173       53.540       12.158        0.052      332.390        1.021      850.398
12/29/2021  14:56:00       15.360      -70.832      -48.412       27.365       35.716       18.987      748.855     1275.650      360.515        0.499        0.119       72.479        8.329        0.013      332.399        1.036      850.448
12/29/2021  14:57:00      -21.583      -63.337      -38.421       37.710       34.392       24.798     1422.007     1182.803      614.954        0.459        0.161       66.913       11.250        0.028      332.315        0.898      850.485
12/29/2021  14:58:00      -18.815      -46.879      -22.667       44.821       33.610       29.575     2008.907     1129.650      874.705        0.354        0.201       50.513       21.001        0.173      332.280        0.839      850.510
12/29/2021  14:59:00      -23.459      -45.374      -29.429       19.637       22.385       23.510      385.614      501.073      552.708        0.246        0.072       51.080        9.805        0.037      332.361        0.973      850.518
12/29/2021  15:00:00      -27.278       -3.438       -1.102       23.786       32.555       17.681      565.783     1059.830      312.631        0.135        0.097       27.494       11.496        0.175      332.429        1.085      850.519
12/29/2021  15:01:00        5.505       32.846       -5.960       37.779       23.004       24.025     1427.286      529.196      577.188        0.184        0.127       33.304       10.022        0.091      332.135        0.599      850.525
12/29/2021  15:02:00       -9.960       -0.801       -1.438       37.869       23.520       22.444     1434.066      553.193      503.718        0.130        0.125        9.992       16.082        2.590      332.315        0.897      850.528
12/29/2021  15:03:00      110.172        0.258      -13.970       76.392       49.260       38.503     5835.681     2426.573     1482.446        1.104        0.487      110.173       31.991        0.084      332.346        0.949      850.537
12/29/2021  15:04:00      197.432       16.677       -7.722       60.392       46.998       30.576     3647.252     2208.842      934.884        2.305        0.340      198.135       30.094        0.023      331.976        0.335      850.548
12/29/2021  15:05:00      184.870       18.063      -15.212       29.890       26.782       21.293      893.411      717.287      453.385        1.840        0.103      185.751       12.145        0.004      331.879        0.179      850.568
12/29/2021  15:06:00      166.523       35.149      -17.748       30.480       22.571       15.927      929.050      509.439      253.661        1.549        0.085      170.192        9.934        0.003      331.879        0.179      850.594
12/29/2021  15:07:00      141.676      -27.974      -27.931       26.322       29.537       24.420      692.864      872.408      596.320        1.190        0.108      144.412       10.333        0.005      332.039        0.444      850.608
12/29/2021  15:08:00       48.202       -0.733      -21.202       42.070       51.968       32.571     1769.913     2700.676     1060.889        0.415        0.277       48.208       13.888        0.083      332.198        0.704      850.638
12/29/2021  15:09:00      132.395       -0.278      -14.211       39.757       29.952       25.840     1580.595      897.097      667.721        1.044        0.157      132.395       19.604        0.022      331.944        0.287      850.658
12/29/2021  15:10:00       67.869        8.922       -3.237       50.115       42.627       34.344     2511.535     1817.022     1179.496        0.510        0.275       68.453       27.158        0.157      332.203        0.713      850.668
12/29/2021  15:11:00       82.548       31.579      -10.497       39.821       53.297       26.302     1585.717     2840.536      691.812        0.652        0.256       88.382       15.812        0.032      332.094        0.534      850.694
12/29/2021  15:12:00       74.522       -8.470      -13.077       35.360       49.907       24.960     1250.339     2490.737      623.012        0.508        0.218       75.002       16.302        0.047      332.141        0.610      850.719
12/29/2021  15:13:00      100.198        9.072      -15.779       26.158       34.288       19.003      684.264     1175.700      361.110        0.630        0.111      100.608       11.301        0.013      331.968        0.326      850.745
12/29/2021  15:14:00      114.227       19.292       -0.767       39.682       35.850       31.427     1574.682     1285.204      987.654        0.863        0.192      115.844       26.021        0.050      331.963        0.319      850.769
12/29/2021  15:15:00      108.230       23.826      -16.412       28.527       21.820       16.463      813.818      476.124      271.017        0.706        0.078      110.821        9.780        0.008      331.881        0.182      850.800
12/29/2021  15:16:00       85.836        7.404      -12.578       16.235       14.611       10.496      263.581      213.488      110.168        0.408        0.029       86.154        3.982        0.002      331.858        0.145      850.818
12/29/2021  15:17:00       50.435       38.776       -5.496       47.222       19.940       19.757     2229.922      397.616      390.321        0.355        0.151       63.618       19.902        0.098      331.918        0.242      850.825
12/29/2021  15:18:00       42.828        4.705      -13.265       53.030       46.864       33.423     2812.176     2196.273     1117.090        0.408        0.306       43.085       25.404        0.348      332.205        0.716      850.831
12/29/2021  15:19:00      117.773       28.270      -31.736       41.295       42.931       22.274     1705.300     1843.098      496.109        0.986        0.202      121.118       14.804        0.015      331.991        0.365      850.844
12/29/2021  15:20:00       81.287      -15.947      -20.062       44.820       47.457       30.380     2008.826     2252.151      922.929        0.622        0.259       82.837        9.119        0.012      332.198        0.705      850.850
12/29/2021  15:21:00       71.721      -10.236      -21.260       49.509       47.638       38.473     2451.165     2269.398     1480.186        0.595        0.310       72.447       27.740        0.147      332.240        0.773      850.856
12/29/2021  15:22:00       81.186        7.317      -27.970       46.780       60.191       31.074     2188.388     3622.984      965.600        0.710        0.339       81.515       12.973        0.025      332.161        0.643      850.857
12/29/2021  15:23:00       70.598      -61.604      -38.130       44.490       48.557       30.445     1979.351     2357.779      926.871        0.775        0.263       93.696       14.553        0.024      332.587        1.346      850.847
12/29/2021  15:24:00       65.024      -25.691      -30.971       49.066       71.410       39.713     2407.488     5099.401     1577.137        0.746        0.454       69.916       29.615        0.179      332.259        0.807      850.846
12/29/2021  15:25:00       60.253      -21.806      -25.795       50.071       65.842       44.135     2507.085     4335.182     1947.912        0.678        0.440       64.078       22.995        0.129      332.371        0.989      850.848
12/29/2021  15:26:00       60.298       -9.965      -24.040       55.057       56.204       39.981     3031.282     3158.865     1598.506        0.605        0.389       61.116       32.243        0.278      332.508        1.218      850.862
12/29/2021  15:27:00       52.602      -10.521      -19.192       60.916       38.356       31.191     3710.724     1471.203      972.871        0.470        0.308       53.644       21.959        0.168      332.332        0.924      850.880
12/29/2021  15:28:00       -8.707      -20.681       -7.428       35.956       33.653       30.328     1292.806     1132.504      919.765        0.195        0.167       22.439       23.868        1.131      332.280        0.839      850.905
12/29/2021  15:29:00       64.416        6.609       -8.654       55.984       37.761       27.027     3134.153     1425.879      730.469        0.478        0.265       64.754       25.039        0.150      332.071        0.495      850.919
12/29/2021  15:30:00      140.349       -6.527      -27.627       61.646       49.379       36.381     3800.200     2438.286     1323.590        1.403        0.378      140.501       20.376        0.021      331.989        0.360      850.933
12/29/2021  15:31:00       57.826      -23.300       -8.313       65.787       44.790       46.634     4327.909     2006.105     2174.707        0.623        0.425       62.344       37.953        0.371      332.406        1.048      850.940
12/29/2021  15:32:00       78.665       14.644      -18.305       50.709       51.492       31.216     2571.435     2651.395      974.445        0.647        0.310       80.017       17.317        0.047      332.219        0.739      850.948
12/29/2021  15:33:00       67.623      -10.912      -19.307       49.191       43.318       27.407     2419.791     1876.436      751.134        0.506        0.252       68.498       17.945        0.069      332.149        0.625      850.953
12/29/2021  15:34:00       62.542       18.747      -14.470       50.425       55.546       34.255     2542.666     3085.315     1173.373        0.564        0.340       65.291       26.307        0.162      332.147        0.621      850.967
12/29/2021  15:35:00       58.167       22.518      -22.320       41.898       56.085       27.365     1755.456     3145.521      748.834        0.502        0.282       62.374       16.619        0.071      332.284        0.845      850.983
12/29/2021  15:36:00       89.498      -13.633      -19.560       55.739       42.470       31.372     3106.834     1803.726      984.209        0.724        0.295       90.531       24.001        0.070      332.104        0.550      850.989
12/29/2021  15:37:00       29.389      -74.618       -6.715       41.883       71.878       39.489     1754.203     5166.487     1559.412        0.748        0.424       80.198       41.947        0.274      332.149        0.622      851.001
12/29/2021  15:38:00       23.764      -98.153      -24.501       42.642       35.302       24.861     1818.343     1246.252      618.065        0.724        0.184      100.989       23.000        0.052      332.199        0.704      851.022
12/29/2021  15:39:00       -7.295      -21.344      -41.150       56.674       48.694       32.173     3211.942     2371.125     1035.097        0.441        0.331       22.556       27.873        1.527      332.237        0.769      851.045
12/29/2021  15:40:00        8.787      -11.573      -18.202       30.753       46.029       27.976      945.774     2118.712      782.638        0.219        0.192       14.531       14.656        1.017      332.157        0.634      851.058
12/29/2021  15:41:00       20.077      -69.673      -20.658       49.866       59.793       28.727     2486.649     3575.157      825.223        0.628        0.344       72.508       20.079        0.077      332.156        0.633      851.078
12/29/2021  15:42:00       73.015      -88.648      -26.278       48.800       58.794       30.637     2381.404     3456.747      938.598        1.033        0.339      114.847       26.247        0.052      332.207        0.720      851.093
12/29/2021  15:43:00       43.520      -91.920      -27.126       50.778       34.431       28.413     2578.440     1185.521      807.322        0.782        0.229      101.702       25.836        0.065      332.145        0.617      851.096
12/29/2021  15:44:00       73.301     -118.841      -32.683       49.497       66.027       39.337     2449.929     4359.521     1547.394        1.446        0.418      139.629       36.459        0.068      332.036        0.437      851.103
12/29/2021  15:45:00       63.026     -162.877      -34.725       46.493       48.702       22.119     2161.637     2371.878      489.251        1.836        0.251      174.646       12.245        0.005      332.033        0.431      851.072
12/29/2021  15:46:00       72.358     -113.825      -28.941       29.838       47.846       26.495      890.280     2289.285      701.963        1.145        0.194      134.877       25.822        0.037      332.010        0.394      851.058
12/29/2021  15:47:00       67.649      -54.105      -29.762       58.915       52.781       40.487     3471.036     2785.858     1639.224        0.814        0.395       86.624       30.868        0.127      332.045        0.453      851.042
12/29/2021  15:48:00       21.213      -59.784      -20.025       63.927       54.065       41.611     4086.606     2922.984     1731.438        0.658        0.437       63.436       39.053        0.379      332.120        0.576      851.036
12/29/2021  15:49:00       40.882     -118.742      -40.777       68.924       51.209       35.813     4750.471     2622.407     1282.572        1.304        0.433      125.583       18.617        0.022      332.136        0.602      851.042
12/29/2021  15:50:00       96.393     -152.083      -37.097       30.223       41.264       22.656      913.448     1702.711      513.309        1.846        0.156      180.058       15.916        0.008      331.832        0.101      851.060
12/29/2021  15:51:00       81.954      -85.853      -50.436       43.492       69.097       27.664     1891.587     4774.455      765.270        1.203        0.372      118.690       17.682        0.022      331.915        0.239      851.068
12/29/2021  15:52:00       74.684      -99.832      -35.238       45.851       71.118       30.587     2102.284     5057.772      935.570        1.244        0.405      124.675       26.766        0.046      332.064        0.483      851.086
12/29/2021  15:53:00      124.604     -131.335      -59.393       52.322       57.774       43.987     2737.556     3337.849     1934.819        2.215        0.401      181.039       24.654        0.019      331.819        0.079      851.102
12/29/2021  15:54:00      121.204     -158.509      -49.503       20.321       23.482       13.314      412.946      551.396      177.256        2.170        0.057      199.538        6.077        0.001      331.727       -0.071      851.114
12/29/2021  15:55:00       92.133     -158.771      -42.091       11.148       16.433        9.960      124.282      270.036       99.196        1.798        0.025      183.566        3.207        0.000      331.726       -0.074      851.119
12/29/2021  15:56:00       86.521     -152.213      -44.217       23.176       24.194       15.582      537.146      585.367      242.797        1.699        0.068      175.084        6.721        0.001      331.803        0.054      851.128
12/29/2021  15:57:00       91.848     -114.823      -39.042       24.224       34.258       13.330      586.825     1173.630      177.679        1.254        0.097      147.039       15.420        0.011      331.777        0.009      851.137
12/29/2021  15:58:00       54.367     -103.336      -26.465       40.657       40.016       25.751     1653.002     1601.295      663.130        0.913        0.196      116.765       23.611        0.041      332.022        0.415      851.142
12/29/2021  15:59:00       45.700      -98.728      -18.699       36.354       53.637       34.653     1321.614     2876.948     1200.827        0.879        0.270      108.792       24.127        0.049      332.064        0.482      851.159
12/29/2021  16:00:00       59.508     -109.984      -41.419       43.487       41.572       20.381     1891.103     1728.222      415.402        1.069        0.202      125.051        5.635        0.002      331.959        0.311      851.172
12/29/2021  16:01:00       75.203     -148.623      -36.836       36.259       48.626       23.575     1314.739     2364.515      555.758        1.667        0.212      166.566       17.322        0.011      331.940        0.279      851.187
12/29/2021  16:02:00       66.166     -140.898      -28.969       40.822       36.065       21.982     1666.473     1300.704      483.221        1.426        0.173      155.660       11.649        0.006      332.032        0.430      851.206
12/29/2021  16:03:00       78.141     -111.137      -26.260       32.043       32.936       22.898     1026.730     1084.804      524.315        1.089        0.132      135.858       12.600        0.009      331.995        0.370      851.219
12/29/2021  16:04:00       82.934     -150.756      -37.664       28.629       34.937       21.441      819.643     1220.585      459.703        1.676        0.125      172.062       11.583        0.005      331.831        0.099      851.236
12/29/2021  16:05:00       82.703     -143.461      -34.859       43.174       35.128       20.987     1863.993     1233.976      440.460        1.609        0.177      165.593       17.084        0.011      331.878        0.178      851.246
12/29/2021  16:06:00       32.527     -129.152      -23.287       52.367       56.557       33.315     2742.333     3198.684     1109.865        1.266        0.353      133.185       37.024        0.077      332.002        0.383      851.257
12/29/2021  16:07:00       21.152     -115.499      -22.106       28.680       36.501       21.774      822.542     1332.353      474.103        0.845        0.131      117.420       12.299        0.011      332.002        0.383      851.283
12/29/2021  16:08:00       62.835     -126.118      -35.385       30.452       34.734       24.908      927.341     1206.479      620.420        1.193        0.138      140.904       21.858        0.024      331.902        0.217      851.298
12/29/2021  16:09:00       27.193     -101.278      -24.534       27.646       30.743       22.141      764.298      945.134      490.240        0.690        0.110      104.865       11.664        0.012      331.904        0.220      851.307
12/29/2021  16:10:00      -12.195      -72.662      -40.565       65.997       34.556       24.480     4355.632     1194.087      599.249        0.661        0.307       73.678       19.096        0.067      332.094        0.532      851.306
12/29/2021  16:11:00      -62.366      -44.283      -27.433       27.144       35.661       28.247      736.793     1271.695      797.912        0.470        0.140       76.489       17.111        0.050      332.207        0.719      851.301
12/29/2021  16:12:00      -39.475      -22.391      -21.488       29.247       25.800       20.662      855.408      665.621      426.917        0.223        0.097       45.383       14.056        0.096      332.240        0.772      851.292
12/29/2021  16:13:00      -42.881      -19.646      -20.369       42.608       32.716       26.331     1815.422     1070.318      693.300        0.311        0.179       47.167       23.277        0.244      332.250        0.789      851.299
12/29/2021  16:14:00       21.007      -32.445      -18.943       44.894       31.592       22.742     2015.458      998.034      517.199        0.269        0.177       38.652       12.895        0.111      332.204        0.714      851.322
12/29/2021  16:15:00      -46.820      -42.230      -19.184       31.171       37.429       21.628      971.605     1400.923      467.782        0.359        0.142       63.051       19.495        0.096      332.160        0.641      851.346
12/29/2021  16:16:00       -6.412       -4.255      -14.229       26.026       35.072       19.676      677.329     1230.071      387.149        0.128        0.115        7.695       19.966        6.733      332.133        0.596      851.362
12/29/2021  16:17:00        9.341       10.195      -28.366       37.495       36.587       24.857     1405.838     1338.614      617.857        0.218        0.168       13.827       23.329        2.847      332.099        0.541      851.361
12/29/2021  16:18:00       22.600      -34.699      -17.455       33.900       33.572       31.724     1149.228     1127.103     1006.407        0.265        0.164       41.410       15.931        0.148      332.250        0.790      851.354
12/29/2021  16:19:00       12.565      -49.670      -19.052       58.972       36.529       34.600     3477.698     1334.387     1197.184        0.450        0.300       51.235       30.195        0.347      332.104        0.549      851.352
12/29/2021  16:20:00       60.109      -50.047      -35.524       30.664       39.114       28.092      940.302     1529.890      789.143        0.532        0.163       78.216       17.828        0.052      332.047        0.457      851.335
12/29/2021  16:21:00       68.863      -43.057      -29.545       29.253       39.178       23.277      855.714     1534.904      541.796        0.520        0.147       81.216       18.744        0.053      331.864        0.154      851.329
12/29/2021  16:22:00       57.682      -89.125      -28.040       33.217       31.918       20.996     1103.343     1018.770      440.837        0.731        0.128      106.163       13.959        0.017      331.956        0.306      851.329
12/29/2021  16:23:00       57.233      -85.408      -25.846       19.497       33.273       20.771      380.122     1107.062      431.430        0.658        0.096      102.811       14.281        0.019      331.981        0.348      851.335
12/29/2021  16:24:00       66.372      -27.323      -36.284       30.318       43.729       24.544      919.190     1912.196      602.421        0.495        0.172       71.776       16.818        0.055      331.985        0.355      851.351
12/29/2021  16:25:00       65.195       -5.542      -35.493       27.725       48.146       28.668      768.702     2318.007      821.851        0.472        0.195       65.430       18.195        0.077      332.136        0.603      851.376
12/29/2021  16:26:00       33.861      -33.227      -21.270       25.288       38.976       27.169      639.487     1519.117      738.174        0.280        0.145       47.440       12.496        0.069      332.160        0.641      851.386
12/29/2021  16:27:00       19.098      -29.000       -8.342       30.336       37.318       16.763      920.243     1392.618      280.988        0.193        0.130       34.724        8.876        0.065      332.151        0.626      851.411
12/29/2021  16:28:00       88.169       26.259      -11.572       15.418       19.673       10.870      237.710      387.042      118.147        0.467        0.037       91.996        5.493        0.004      331.797        0.043      851.431
12/29/2021  16:29:00      107.408       46.810       -7.569       19.765       18.496       16.668      390.671      342.094      277.811        0.740        0.051      117.165        9.161        0.006      331.821        0.083      851.443
12/29/2021  16:30:00       84.873       42.388      -12.168       27.985       27.795       20.120      783.140      772.563      404.799        0.555        0.098       94.870        8.882        0.009      331.847        0.126      851.454
12/29/2021  16:31:00       69.927       18.608       -5.885       43.092       36.790       23.083     1856.880     1353.494      532.835        0.451        0.187       72.361       18.798        0.067      331.937        0.274      851.459
12/29/2021  16:32:00       65.016       20.856      -17.264       40.767       32.045       20.232     1661.961     1026.876      409.332        0.403        0.155       68.279       11.403        0.028      331.896        0.207      851.463
12/29/2021  16:33:00      116.861       10.377      -19.631       29.799       35.189       19.867      887.990     1238.265      394.687        0.833        0.126      117.321       17.083        0.021      331.950        0.296      851.466
12/29/2021  16:34:00       98.680       37.261      -21.245       35.498       34.451       23.204     1260.117     1186.882      538.442        0.728        0.149      105.480        9.813        0.009      332.027        0.422      851.476
12/29/2021  16:35:00       41.970       14.463      -12.137       39.138       36.190       21.704     1531.812     1309.740      471.043        0.271        0.166       44.392       11.382        0.066      331.987        0.357      851.479
12/29/2021  16:36:00      130.586        5.154      -20.755       28.492       21.002       19.228      811.792      441.087      369.713        0.957        0.081      130.687       11.040        0.007      331.844        0.120      851.498
12/29/2021  16:37:00      115.962       18.299      -29.504       35.672       32.529       21.514     1272.472     1058.109      462.860        0.872        0.140      117.397       17.325        0.022      331.899        0.212      851.520
12/29/2021  16:38:00       99.695       32.774      -20.830       33.880       26.142       21.152     1147.832      683.387      447.401        0.686        0.114      104.944       12.507        0.014      331.835        0.109      851.539
12/29/2021  16:39:00      111.220       20.054      -16.563       27.831       25.184       18.515      774.589      634.235      342.811        0.740        0.088      113.014        7.722        0.005      331.840        0.113      851.555
12/29/2021  16:40:00       87.070       40.194      -19.895       46.819       42.092       26.704     2192.046     1771.727      713.099        0.713        0.234       95.900       24.697        0.066      331.959        0.312      851.562
12/29/2021  16:41:00       78.326       42.491      -18.774       40.821       48.391       26.235     1666.375     2341.660      688.288        0.649        0.235       89.109       12.162        0.019      331.995        0.370      851.570
12/29/2021  16:42:00       70.404       24.291      -16.827       34.638       40.742       22.566     1199.814     1659.932      509.242        0.460        0.168       74.477       12.014        0.026      331.979        0.344      851.600
12/29/2021  16:43:00       90.860       23.316      -16.993       13.287       15.281        9.560      176.554      233.508       91.397        0.479        0.025       93.804        5.783        0.004      331.814        0.076      851.621
12/29/2021  16:44:00       95.082       36.922      -19.862       13.467        9.044        6.766      181.349       81.793       45.785        0.555        0.015      101.999        3.796        0.001      331.816        0.079      851.648
12/29/2021  16:45:00       90.707        4.555      -15.923        9.696       11.903        8.684       94.015      141.693       75.411        0.441        0.016       90.822        6.590        0.005      331.854        0.141      851.661
12/29/2021  16:46:00      104.845       14.524      -20.236       15.604       24.299       12.152      243.489      590.456      147.672        0.630        0.049      105.846        4.217        0.002      331.883        0.187      851.654
12/29/2021  16:47:00      118.963       15.585      -15.668       12.152        8.194       10.350      147.676       67.134      107.117        0.748        0.016      119.980        4.761        0.002      331.822        0.086      851.643
12/29/2021  16:48:00      122.876       11.197      -10.830       27.793       24.068       13.468      772.449      579.280      181.392        0.844        0.077      123.385       12.875        0.011      331.845        0.124      851.634
12/29/2021  16:49:00      144.041       17.458      -10.378       24.227       29.272       18.340      586.939      856.852      336.350        1.147        0.089      145.095        9.856        0.005      331.878        0.177      851.629
12/29/2021  16:50:00      114.096        0.232      -12.981       50.444       33.364       28.267     2544.562     1113.140      799.009        0.882        0.223      114.096       13.675        0.014      331.915        0.238      851.652
12/29/2021  16:51:00      152.552       24.639      -18.837       38.431       36.662       21.556     1476.911     1344.109      464.652        1.376        0.164      154.529       16.471        0.011      331.873        0.168      851.689
12/29/2021  16:52:00      129.319       26.919      -20.462       43.191       32.176       21.599     1865.484     1035.319      466.532        1.062        0.168      132.091       19.781        0.022      331.867        0.159      851.732
12/29/2021  16:53:00       99.029       26.074      -21.224       27.842       29.695       16.796      775.158      881.777      282.113        0.644        0.097      102.404        7.712        0.006      331.845        0.125      851.776
12/29/2021  16:54:00       98.060        1.098      -13.580       24.582       25.465       18.528      604.268      648.443      343.295        0.570        0.080       98.066       11.290        0.013      331.891        0.200      851.811
12/29/2021  16:55:00       89.209       24.901      -20.435       22.265       16.548       14.915      495.720      273.825      222.460        0.499        0.050       92.619        8.560        0.009      331.921        0.248      851.835
12/29/2021  16:56:00       78.920       35.416      -13.116       26.838       22.746       16.895      720.256      517.379      285.453        0.459        0.076       86.503       12.886        0.022      331.865        0.157      851.854
12/29/2021  16:57:00       70.827       11.437      -12.919       44.676       42.367       24.036     1995.954     1795.000      577.727        0.484        0.218       71.745       11.537        0.026      331.923        0.251      851.868
12/29/2021  16:58:00      128.925      -13.711      -17.371       38.470       30.595       25.376     1479.924      936.040      643.951        1.009        0.153      129.652       14.734        0.013      332.003        0.382      851.878
12/29/2021  16:59:00      100.904       18.084      -28.414       43.658       40.408       24.089     1905.990     1632.801      580.271        0.772        0.206      102.512       13.659        0.018      331.948        0.292      851.894
12/29/2021  17:00:00       62.945       11.112      -13.063       37.511       47.708       34.979     1407.080     2276.018     1223.542        0.458        0.245       63.919       13.756        0.046      331.947        0.291      851.903
12/29/2021  17:01:00      141.864       -6.517      -19.481       56.335       32.470       27.822     3173.683     1054.303      774.069        1.277        0.250      142.014       27.730        0.038      331.896        0.208      851.914
12/29/2021  17:02:00      113.756        7.606      -22.254       65.304       49.603       35.795     4264.642     2460.489     1281.250        1.075        0.400      114.010       31.639        0.077      331.894        0.203      851.924
12/29/2021  17:03:00      156.046        3.558      -12.900       69.405       47.066       38.279     4817.010     2215.161     1465.249        1.651        0.425      156.086       24.517        0.025      331.926        0.255      851.942
12/29/2021  17:04:00      136.010       -5.820      -13.512       78.561       41.486       38.113     6171.898     1721.124     1452.566        1.403        0.467      136.135       35.945        0.070      331.912        0.232      851.973
12/29/2021  17:05:00      127.687       35.534      -18.935       46.210       40.334       26.466     2135.352     1626.816      700.454        1.119        0.223      132.539        8.499        0.004      331.914        0.238      852.013
12/29/2021  17:06:00      124.096       -5.994      -12.518       39.781       39.369       25.410     1582.500     1549.886      645.676        0.968        0.189      124.241       16.371        0.017      331.897        0.209      852.043
12/29/2021  17:07:00      115.378       16.443      -12.331       49.313       34.012       30.878     2431.742     1156.836      953.427        0.914        0.227      116.543       29.115        0.062      331.885        0.190      852.065
12/29/2021  17:08:00      108.320        9.979      -11.147       56.855       33.099       22.006     3232.456     1095.520      484.253        0.838        0.241      108.779       24.525        0.051      331.898        0.210      852.089
12/29/2021  17:09:00      121.588        8.315       -3.565       48.257       26.433       25.873     2328.776      698.727      669.400        0.928        0.185      121.872       22.228        0.033      331.830        0.100      852.113
12/29/2021  17:10:00      125.729       48.650      -14.810       33.766       29.290       25.631     1140.134      857.897      656.954        1.052        0.133      134.813       11.490        0.007      331.846        0.126      852.132
12/29/2021  17:11:00      126.639       28.756       -9.503       57.026       52.006       27.472     3251.964     2704.655      754.730        1.183        0.336      129.863       30.684        0.056      331.872        0.166      852.151
12/29/2021  17:12:00      168.041       -2.293      -12.829       48.468       56.954       27.453     2349.138     3243.754      753.653        1.738        0.317      168.057       23.329        0.019      331.870        0.164      852.175
12/29/2021  17:13:00      106.717       33.060      -17.823       46.741       36.159       25.390     2184.735     1307.501      644.659        0.847        0.207      111.721       11.282        0.010      331.922        0.252      852.203
12/29/2021  17:14:00      142.567       40.817      -13.840       68.742       44.258       40.490     4725.473     1958.741     1639.434        1.525        0.416      148.295       35.344        0.057      331.915        0.238      852.220
12/29/2021  17:15:00      175.851       52.186      -19.115       64.480       46.175       35.555     4157.635     2132.168     1264.179        2.078        0.378      183.431       21.328        0.014      331.855        0.137      852.237
12/29/2021  17:16:00      157.491       31.488       -2.873       87.367       51.207       37.988     7633.045     2622.183     1443.108        1.875        0.585      160.608       44.984        0.078      331.849        0.129      852.243
12/29/2021  17:17:00      132.711       17.257      -16.323       66.955       49.628       33.769     4482.916     2462.984     1140.331        1.313        0.404      133.829       30.458        0.052      331.928        0.261      852.252
12/29/2021  17:18:00      103.971        4.397      -13.529       69.593       50.851       32.474     4843.125     2585.819     1054.560        0.975        0.424      104.063       24.803        0.057      331.983        0.349      852.273
12/29/2021  17:19:00       78.121       61.061      -12.984       45.565       51.886       34.921     2076.215     2692.139     1219.506        0.799        0.299       99.153       25.543        0.066      331.940        0.279      852.300
12/29/2021  17:20:00      159.297       90.974      -18.129       55.607       34.635       26.047     3092.097     1199.568      678.430        1.947        0.249      183.444       17.572        0.009      331.854        0.135      852.340
12/29/2021  17:21:00      186.271       83.448      -22.486       49.149       43.384       25.668     2415.583     1882.176      658.836        2.356        0.248      204.109       11.300        0.003      331.841        0.114      852.366
12/29/2021  17:22:00      157.788       57.500      -24.436       52.827       68.455       38.274     2790.704     4686.129     1464.914        1.887        0.447      167.939       19.779        0.014      331.883        0.186      852.391
12/29/2021  17:23:00      129.597       46.212      -11.983       54.576       45.446       27.180     2978.560     2065.336      738.761        1.243        0.289      137.589       18.231        0.018      331.884        0.188      852.402
12/29/2021  17:24:00      141.686       75.597      -20.850       34.434       28.088       26.968     1185.673      788.923      727.289        1.446        0.135      160.592       10.145        0.004      331.843        0.119      852.404
12/29/2021  17:25:00      162.731       47.245      -31.330       49.412       54.989       27.427     2441.571     3023.764      752.226        1.796        0.311      169.451       13.078        0.006      331.941        0.281      852.401
12/29/2021  17:26:00      129.657       13.520      -24.352       82.437       54.468       30.247     6795.882     2966.725      914.911        1.413        0.534      130.360       21.371        0.027      331.971        0.329      852.415
12/29/2021  17:27:00       99.037       20.191      -17.099       40.392       34.945       20.093     1631.494     1221.141      403.734        0.688        0.163      101.074       14.806        0.021      331.954        0.304      852.442
12/29/2021  17:28:00       50.849       68.543       -3.791       42.789       31.427       25.461     1830.900      987.633      648.239        0.538        0.173       85.345       17.858        0.044      331.909        0.228      852.461
12/29/2021  17:29:00      140.011       74.553      -18.890       40.821       30.044       24.112     1666.379      902.668      581.374        1.433        0.158      158.623       16.364        0.011      331.888        0.193      852.487
12/29/2021  17:30:00      134.224       73.553      -20.975       30.853       26.669       23.107      951.897      711.213      533.920        1.303        0.110      153.056       10.596        0.005      331.871        0.169      852.506
12/29/2021  17:31:00      115.720       56.406      -18.074       19.910       14.318       11.508      396.417      205.007      132.427        0.882        0.037      128.735        6.216        0.002      331.856        0.142      852.517
12/29/2021  17:32:00       96.388       48.408      -18.937       25.367       30.107       16.805      643.508      906.423      282.407        0.691        0.092      107.861        6.756        0.004      331.923        0.251      852.523
12/29/2021  17:33:00      100.492       54.937      -22.673       26.069       29.740       17.462      679.574      884.490      304.934        0.775        0.093      114.529       13.248        0.013      331.890        0.200      852.528
12/29/2021  17:34:00       95.506       25.002      -15.475       35.411       38.245       28.664     1253.940     1462.683      821.634        0.676        0.177       98.725       16.950        0.029      331.940        0.279      852.525
12/29/2021  17:35:00      136.151       55.448      -32.362       32.885       29.826       15.362     1081.392      889.593      235.981        1.243        0.110      147.009        5.086        0.001      331.979        0.344      852.539
12/29/2021  17:36:00      122.885       48.636      -28.948       41.863       26.842       23.924     1752.510      720.510      572.353        1.067        0.152      132.160       15.269        0.013      331.976        0.341      852.548
12/29/2021  17:37:00       96.039        9.831       -9.421       27.249       32.887       19.553      742.518     1081.584      382.334        0.581        0.110       96.541        8.440        0.008      331.980        0.344      852.554
12/29/2021  17:38:00       80.615        8.362      -11.677       38.871       26.711       19.944     1510.978      713.500      397.750        0.466        0.131       81.047       18.207        0.050      331.918        0.244      852.555
12/29/2021  17:39:00       94.011        9.352      -14.563       18.295       17.881       12.869      334.698      319.739      165.609        0.498        0.041       94.475        9.418        0.010      331.872        0.168      852.558
12/29/2021  17:40:00       68.431       16.055      -22.841       22.076       14.111       11.146      487.367      199.128      124.224        0.314        0.041       70.290        6.805        0.009      331.905        0.222      852.563
12/29/2021  17:41:00       51.460       23.969      -12.913       12.940        9.711        7.452      167.431       94.298       55.534        0.185        0.016       56.769        6.273        0.012      331.874        0.174      852.577
12/29/2021  17:42:00       44.062       37.164      -10.561        8.482        8.054        6.865       71.946       64.864       47.123        0.181        0.009       57.642        2.805        0.002      331.874        0.176      852.596
12/29/2021  17:43:00       41.992       31.073       -8.183        8.447       10.424        7.475       71.344      108.652       55.870        0.152        0.012       52.238        5.384        0.011      331.881        0.182      852.611
12/29/2021  17:44:00       37.996       25.893       -9.030        4.839        5.360        5.384       23.416       28.734       28.984        0.114        0.004       45.980        1.696        0.001      331.902        0.214      852.624
12/29/2021  17:45:00        7.178       35.824       -9.541       14.646       12.575       10.352      214.509      158.134      107.157        0.095        0.024       36.536        9.409        0.066      331.919        0.245      852.622
12/29/2021  17:46:00      -32.857       32.312       -4.770       26.980       16.514       16.035      727.922      272.723      257.117        0.170        0.063       46.083        4.437        0.009      331.982        0.348      852.616
12/29/2021  17:47:00      -56.203       17.652      -15.255       19.094       21.547       15.097      364.564      464.278      227.917        0.238        0.053       58.910        6.172        0.011      332.035        0.436      852.612
12/29/2021  17:48:00      -29.609       33.197       -7.429       18.566       21.004       15.845      344.707      441.160      251.058        0.154        0.052       44.483        9.444        0.045      332.019        0.408      852.602
12/29/2021  17:49:00      -30.770       40.899       -3.370       17.093       13.689        8.374      292.161      187.397       70.117        0.159        0.027       51.181        5.990        0.014      332.041        0.447      852.611
12/29/2021  17:50:00      -31.824       36.667       -7.549       18.834       16.702        8.687      354.726      278.945       75.464        0.156        0.035       48.551        8.128        0.028      332.035        0.436      852.618
12/29/2021  17:51:00      -19.919       28.684      -11.856       22.632       14.100        9.014      512.223      198.821       81.255        0.108        0.040       34.922        8.271        0.056      331.994        0.368      852.641
12/29/2021  17:52:00      -37.478       29.659       -9.619       20.486       16.801       11.404      419.682      282.285      130.048        0.160        0.042       47.793        8.210        0.030      332.037        0.440      852.654
12/29/2021  17:53:00      -59.938       26.735      -12.973       26.461       16.099       18.843      700.202      259.183      355.059        0.289        0.066       65.631       12.615        0.037      332.034        0.435      852.657
12/29/2021  17:54:00      -89.817       25.321      -26.088       32.639       33.605       23.999     1065.312     1129.309      575.967        0.608        0.139       93.318       17.918        0.037      332.084        0.517      852.660
12/29/2021  17:55:00        4.898       19.246       12.237       24.507       21.304       22.019      600.615      453.875      484.832        0.104        0.077       19.860       16.265        0.671      332.113        0.565      852.647
12/29/2021  17:56:00      -34.974       20.595      -12.129       31.950       28.006       28.817     1020.782      784.337      830.423        0.221        0.132       40.588       17.882        0.194      332.129        0.589      852.634
12/29/2021  17:57:00      -67.352       39.324      -27.185       27.579       21.948       17.002      760.605      481.727      289.052        0.418        0.077       77.992       11.238        0.021      332.016        0.405      852.621
12/29/2021  17:58:00      -22.860       15.076      -15.172       18.362       24.800       18.568      337.160      615.042      344.772        0.114        0.065       27.383       10.110        0.136      332.041        0.445      852.625
12/29/2021  17:59:00      -20.690        7.390       -9.419       23.790       16.708       20.890      565.973      279.160      436.402        0.093        0.064       21.970       14.805        0.454      332.045        0.452      852.626
12/29/2021  18:00:00      -24.510       29.242      -11.275       10.607       18.206       15.316      112.517      331.446      234.587        0.113        0.034       38.155        6.386        0.028      331.965        0.320      852.631
12/29/2021  18:01:00      -26.643       -2.507      -10.077       10.493       14.069       13.895      110.100      197.939      193.060        0.066        0.025       26.761        9.658        0.130      331.967        0.322      852.637
12/29/2021  18:02:00       -6.711        9.640        3.400       16.267       11.997        7.818      264.624      143.929       61.117        0.031        0.023       11.746        4.807        0.167      332.022        0.413      852.645
12/29/2021  18:03:00       38.283       37.539       -3.485       36.214       16.722       14.001     1311.426      279.619      196.039        0.234        0.089       53.617       15.714        0.086      331.940        0.279      852.674
12/29/2021  18:04:00       66.672       33.168      -18.702       14.306       14.729       12.360      204.671      216.938      152.772        0.323        0.029       74.467       10.154        0.019      331.918        0.244      852.709
12/29/2021  18:05:00       68.775       28.510      -12.966       11.378       12.197        8.571      129.468      148.773       73.454        0.303        0.018       74.450        4.903        0.004      331.901        0.217      852.752
12/29/2021  18:06:00       87.906        5.415       -6.182       29.220       18.905       12.946      853.818      357.416      167.604        0.459        0.069       88.073       12.539        0.020      331.908        0.228      852.795
12/29/2021  18:07:00      107.751       17.155       -7.528       29.220       23.506       19.397      853.814      552.540      376.242        0.687        0.089      109.108       14.553        0.018      331.777        0.014      852.826
12/29/2021  18:08:00       63.385       39.264      -11.618       31.708       31.483       19.150     1005.404      991.173      366.715        0.403        0.118       74.560       17.095        0.053      331.815        0.075      852.846
12/29/2021  18:09:00       98.456       43.056      -23.370       31.520       30.435       18.354      993.486      926.274      336.863        0.717        0.113      107.459       11.824        0.012      331.803        0.055      852.847
12/29/2021  18:10:00       93.799       30.271      -15.471       22.399       21.204       13.099      501.700      449.630      171.593        0.554        0.056       98.562        9.208        0.009      331.793        0.038      852.844
12/29/2021  18:11:00       62.447       21.326      -10.149       19.789       12.520       13.616      391.592      156.738      185.388        0.260        0.037       65.988        6.369        0.009      331.762       -0.013      852.844
12/29/2021  18:12:00       43.639       21.220       -8.871       16.614       16.213       15.589      276.011      262.874      243.018        0.161        0.039       48.524        9.957        0.042      331.868        0.161      852.851
12/29/2021  18:13:00       65.873       33.239      -12.098       22.545       15.436        7.646      508.288      238.255       58.456        0.320        0.040       73.784        5.965        0.007      331.778        0.014      852.850
12/29/2021  18:14:00       -9.725       23.946       -9.053       19.575       19.344       10.735      383.190      374.188      115.240        0.081        0.044       25.846        7.213        0.078      331.865        0.157      852.852
12/29/2021  18:15:00       22.535       36.575       -8.821       14.095       15.899       10.598      198.676      252.775      112.309        0.124        0.028       42.960        5.829        0.018      331.836        0.110      852.858
12/29/2021  18:16:00       23.914       21.224       -5.540       13.276       14.123       13.210      176.257      199.473      174.516        0.080        0.028       31.974        7.343        0.053      331.895        0.205      852.875
12/29/2021  18:17:00        8.945       -1.731      -12.255       14.228       18.523       11.756      202.428      343.087      138.193        0.046        0.034        9.111       11.537        1.603      331.881        0.183      852.878
12/29/2021  18:18:00       48.671       20.911      -15.488       26.218       20.957       14.036      687.399      439.215      197.013        0.218        0.066       52.973       12.317        0.054      331.801        0.052      852.887
12/29/2021  18:19:00       62.863       34.714       -9.629       22.755       24.021       13.466      517.776      577.029      181.336        0.326        0.064       71.811       15.052        0.044      331.739       -0.049      852.893
12/29/2021  18:20:00       72.663       39.389      -17.831       17.107       16.301       11.257      292.639      265.720      126.723        0.392        0.034       82.652        8.144        0.010      331.698       -0.118      852.900
12/29/2021  18:21:00       82.489       21.234      -14.042       10.097       10.947        8.347      101.949      119.836       69.665        0.387        0.015       85.178        1.990        0.001      331.686       -0.139      852.910
12/29/2021  18:22:00       77.270       16.925       -7.121        8.043       10.987        5.552       64.694      120.718       30.825        0.326        0.011       79.102        3.410        0.002      331.679       -0.151      852.923
12/29/2021  18:23:00       64.128       18.539       -7.024       27.074       18.714        8.906      732.993      350.208       79.319        0.283        0.058       66.754        9.080        0.019      331.687       -0.136      852.937
12/29/2021  18:24:00       14.209       -6.204        2.517       18.922       19.798       13.310      358.038      391.963      177.149        0.059        0.046       15.504        8.447        0.297      331.769       -0.001      852.958
12/29/2021  18:25:00       46.214       10.905       -9.330       16.182       15.411       12.823      261.844      237.506      164.426        0.150        0.033       47.483        3.510        0.005      331.722       -0.080      852.979
12/29/2021  18:26:00       61.742       32.285      -11.532       15.631       23.143       13.934      244.337      535.601      194.162        0.298        0.049       69.674       10.803        0.024      331.731       -0.064      853.005
12/29/2021  18:27:00       69.557       30.420      -10.980        6.699        9.833        5.648       44.880       96.688       31.901        0.303        0.009       75.918        3.381        0.002      331.660       -0.184      853.020
12/29/2021  18:28:00       76.295       31.301      -16.822       12.152        9.588        9.694      147.671       91.935       93.969        0.371        0.017       82.466        3.721        0.002      331.696       -0.125      853.025
12/29/2021  18:29:00       60.462       27.512      -22.862       11.002        9.424       11.225      121.054       88.805      126.005        0.264        0.017       66.428        3.780        0.003      331.712       -0.097      853.024
12/29/2021  18:30:00       57.066       42.982      -14.379       10.420        7.764        8.299      108.567       60.287       68.880        0.277        0.012       71.442        4.989        0.005      331.688       -0.135      853.027
12/29/2021  18:31:00       56.429       50.279       -7.178       15.285       12.393       10.594      233.644      153.593      112.223        0.313        0.025       75.579        7.988        0.011      331.683       -0.145      853.027
12/29/2021  18:32:00       33.318       43.052       -4.459       24.912       13.686       17.469      620.625      187.310      305.171        0.205        0.056       54.438       12.267        0.051      331.762       -0.013      853.021
12/29/2021  18:33:00       -6.655        6.834        0.975       17.437       12.521        9.486      304.042      156.784       89.988        0.032        0.028        9.539        7.634        0.640      331.696       -0.121      853.005
12/29/2021  18:34:00        1.621       25.257       -3.000       13.626       16.608       10.595      185.668      275.823      112.254        0.061        0.029       25.309        6.454        0.065      331.680       -0.147      852.990
12/29/2021  18:35:00      -16.730       15.553      -19.180       22.912       32.967       11.225      524.978     1086.817      125.998        0.131        0.087       22.843        7.551        0.109      331.740       -0.049      852.977
12/29/2021  18:36:00       -9.309       10.615      -11.434       14.432       17.026       14.692      208.269      289.871      215.844        0.052        0.036       14.119        9.643        0.467      331.835        0.107      852.970
12/29/2021  18:37:00       -6.772       -8.888       -5.257       22.858       19.431       21.118      522.504      377.582      445.975        0.075        0.067       11.174       19.515        3.050      331.803        0.054      852.970
12/29/2021  18:38:00       -0.344        8.771       -4.860       10.213       29.205        9.604      104.300      852.913       92.236        0.057        0.052        8.778        8.541        0.947      331.874        0.172      852.975
12/29/2021  18:39:00      -61.443      -10.840       -3.679       26.113       19.270       17.008      681.890      371.333      289.288        0.262        0.067       62.392       10.282        0.027      331.850        0.133      852.986
12/29/2021  18:40:00      -55.856        3.364      -16.334       12.492       17.229        7.827      156.042      296.836       61.257        0.196        0.026       55.957        6.529        0.014      331.755       -0.026      853.005
12/29/2021  18:41:00      -30.161       27.786       -4.386       16.442       17.231       13.506      270.323      296.921      182.402        0.123        0.037       41.009       11.205        0.075      331.785        0.025      853.033
12/29/2021  18:42:00      -29.935       36.711      -10.475        9.913       11.137        9.731       98.270      124.043       94.687        0.134        0.016       47.369        6.535        0.019      331.782        0.019      853.049
12/29/2021  18:43:00      -28.612       44.144      -11.564       16.058       13.407        9.906      257.855      179.747       98.127        0.172        0.027       52.605        3.489        0.004      331.795        0.041      853.066
12/29/2021  18:44:00      -38.437       38.425       -9.484       11.102       13.569        6.383      123.263      184.122       40.742        0.170        0.017       54.350        5.922        0.012      331.732       -0.061      853.076
12/29/2021  18:45:00      -38.371       31.472       -8.748       12.913       17.529       10.057      166.757      307.264      101.136        0.156        0.029       49.627        6.697        0.018      331.757       -0.019      853.085
12/29/2021  18:46:00      -47.825       29.547      -15.541        9.106       12.337        8.714       82.913      152.193       75.933        0.186        0.016       56.217        5.596        0.010      331.794        0.039      853.084
12/29/2021  18:47:00      -40.347       15.028       -7.340       19.408       17.754       12.225      376.679      315.196      149.461        0.137        0.042       43.055        8.924        0.043      331.808        0.063      853.092
12/29/2021  18:48:00      -43.913        7.020       -8.010       19.029       17.652       12.332      362.115      311.586      152.087        0.143        0.041       44.470        5.864        0.017      331.797        0.046      853.092
12/29/2021  18:49:00      -12.707      -12.672       -3.124       15.350       20.725       11.832      235.637      429.513      139.993        0.057        0.040       17.946        8.821        0.242      331.898        0.212      853.096
12/29/2021  18:50:00      -10.815        1.601       -6.404       25.384       17.902       12.653      644.355      320.488      160.101        0.064        0.056       10.933        5.557        0.258      331.849        0.129      853.094
12/29/2021  18:51:00      -14.629      -21.163       -2.834       16.085       20.995       14.984      258.723      440.774      224.533        0.080        0.046       25.727       10.719        0.174      331.853        0.138      853.106
12/29/2021  18:52:00        4.871      -12.258       -2.285       14.066       14.397       12.233      197.856      207.285      149.658        0.037        0.028       13.190        6.963        0.279      331.867        0.157      853.116
12/29/2021  18:53:00      -11.047        7.652       -0.839       23.336       13.935       13.623      544.584      194.190      185.587        0.055        0.046       13.438        5.899        0.193      331.884        0.189      853.129
12/29/2021  18:54:00      -20.250       -4.353       -5.187       29.156       18.547       14.165      850.083      343.984      200.644        0.093        0.070       20.713       12.889        0.387      331.903        0.218      853.149
12/29/2021  18:55:00      -29.869      -11.264        1.189       19.143       18.879       14.921      366.442      356.426      222.641        0.098        0.047       31.922       12.225        0.147      331.932        0.268      853.166
12/29/2021  18:56:00      -15.044      -29.078      -12.234       16.049       17.980       14.820      257.572      323.275      219.636        0.101        0.040       32.740        5.364        0.027      331.816        0.078      853.185
12/29/2021  18:57:00        1.128      -27.477      -14.667       15.524       16.875       11.864      240.994      284.758      140.752        0.082        0.033       27.500        7.311        0.071      331.903        0.219      853.197
12/29/2021  18:58:00       -1.446        4.045        3.224       15.487       21.218       14.232      239.832      450.219      202.542        0.046        0.045        4.295        7.693        3.208      331.915        0.238      853.207
12/29/2021  18:59:00       31.665       14.772       -4.673       29.539       12.383       10.488      872.545      153.329      109.988        0.119        0.057       34.941        7.412        0.045      331.778        0.013      853.206
12/29/2021  19:00:00       58.134       25.902       -3.552       19.683       25.243       12.195      387.438      637.213      148.727        0.262        0.059       63.643        9.585        0.023      331.679       -0.149      853.202
12/29/2021  19:01:00       22.600       11.436       -5.872       21.625       16.529       13.878      467.656      273.199      192.590        0.080        0.047       25.329        7.197        0.081      331.694       -0.124      853.182
12/29/2021  19:02:00        4.594      -34.259       -1.905       15.278       29.055       24.854      233.431      844.181      617.732        0.145        0.085       34.566       11.396        0.109      331.851        0.133      853.166
12/29/2021  19:03:00       -4.984      -10.291      -11.960       17.469       19.388       16.665      305.162      375.881      277.712        0.062        0.048       11.435        9.630        0.709      331.780        0.015      853.148
12/29/2021  19:04:00       19.759      -11.732       -4.750       31.421       34.490       19.647      987.292     1189.545      386.009        0.156        0.128       22.979       16.811        0.535      331.698       -0.119      853.145
12/29/2021  19:05:00       51.671       20.906      -14.141       22.469       28.543       19.806      504.863      814.676      392.258        0.251        0.086       55.740       14.432        0.067      331.628       -0.233      853.151
12/29/2021  19:06:00       58.155       20.312      -25.080       32.124       37.175       20.912     1031.921     1381.995      437.293        0.364        0.143       61.600       16.315        0.070      331.672       -0.162      853.159
12/29/2021  19:07:00       99.815       27.946      -15.201       21.311       22.363       12.180      454.159      500.105      148.354        0.604        0.055      103.654       10.082        0.009      331.562       -0.343      853.162
12/29/2021  19:08:00       70.884       42.217      -11.468       13.685       16.030       11.316      187.283      256.971      128.045        0.376        0.029       82.504        8.083        0.010      331.540       -0.381      853.173
12/29/2021  19:09:00       52.848       33.833       -9.375       19.233       15.836       12.422      369.909      250.768      154.306        0.240        0.039       62.750        8.061        0.017      331.546       -0.370      853.178
12/29/2021  19:10:00       32.036       33.884       -5.829       22.085       19.323       13.406      487.755      373.374      179.714        0.162        0.052       46.630       11.175        0.057      331.568       -0.332      853.190
12/29/2021  19:11:00       40.442       47.887      -11.095       14.457       11.256        8.609      208.999      126.691       74.120        0.223        0.020       62.680        5.797        0.009      331.625       -0.236      853.212
12/29/2021  19:12:00      -12.106       25.887      -10.059       19.363        8.146        6.644      374.925       66.350       44.138        0.070        0.024       28.578        4.835        0.029      331.684       -0.139      853.227
12/29/2021  19:13:00      -32.090       35.203      -15.059       21.169       15.470       10.686      448.126      239.307      114.195        0.165        0.040       47.634        7.182        0.023      331.747       -0.037      853.245
12/29/2021  19:14:00      -47.500       40.230       -5.558       23.866       18.919       14.545      569.588      357.913      211.570        0.252        0.057       62.247       11.067        0.032      331.713       -0.094      853.242
12/29/2021  19:15:00      -41.821       40.648       -4.608       20.810       18.347       13.368      433.067      336.595      178.703        0.219        0.047       58.320       12.285        0.044      331.698       -0.118      853.237
12/29/2021  19:16:00      -23.515       28.741        4.698       16.942       17.871       13.603      287.039      319.386      185.052        0.110        0.040       37.135        8.293        0.050      331.740       -0.050      853.232
12/29/2021  19:17:00      -51.632       40.945       -9.698       27.516       19.763       10.861      757.153      390.581      117.955        0.285        0.063       65.897       11.298        0.029      331.738       -0.051      853.223
12/29/2021  19:18:00      -71.095       19.526      -28.346       28.073       17.851       16.488      788.066      318.657      271.849        0.381        0.069       73.728       12.397        0.028      331.710       -0.100      853.225
12/29/2021  19:19:00      -73.588        9.406      -18.068       16.464       13.447       12.537      271.047      180.830      157.171        0.322        0.030       74.187        9.249        0.016      331.712       -0.096      853.230
12/29/2021  19:20:00      -57.362        3.436       -9.351       24.299       15.464       17.935      590.433      239.123      321.664        0.227        0.058       57.465       15.060        0.069      331.794        0.040      853.240
12/29/2021  19:21:00      -47.827       25.384      -11.298       14.214       14.973       16.280      202.049      224.202      265.050        0.188        0.035       54.146       10.120        0.035      331.749       -0.034      853.242
12/29/2021  19:22:00      -62.054       28.753      -12.595       19.585       14.383       12.980      383.562      206.862      168.480        0.280        0.038       68.392        5.171        0.006      331.735       -0.057      853.251
12/29/2021  19:23:00      -73.152       25.436      -21.704       24.292       24.887       14.561      590.104      619.377      212.028        0.395        0.071       77.449        8.639        0.012      331.733       -0.059      853.250
12/29/2021  19:24:00      -88.730       32.450      -20.559       16.325       29.692       19.749      266.498      881.601      390.015        0.544        0.077       94.477        7.280        0.006      331.683       -0.142      853.255
12/29/2021  19:25:00     -104.348       41.487      -22.205       24.930       16.146       19.117      621.523      260.692      365.472        0.717        0.062      112.292       11.987        0.011      331.651       -0.198      853.259
12/29/2021  19:26:00      -87.863       49.395       -6.864       32.766       23.329       29.233     1073.637      544.249      854.572        0.634        0.124      100.795       19.165        0.036      331.681       -0.148      853.265
12/29/2021  19:27:00        5.988       -0.788       -8.095       30.034       50.509       30.864      902.042     2551.147      952.601        0.225        0.220        6.039       30.131       24.893      331.688       -0.133      853.279
12/29/2021  19:28:00      -52.969       33.000       -8.870       56.195       48.851       28.490     3157.849     2386.447      811.663        0.516        0.318       62.407       21.322        0.117      331.595       -0.288      853.303
12/29/2021  19:29:00      -63.425       17.418      -20.531       72.476       48.585       22.178     5252.828     2360.464      491.872        0.642        0.405       65.773       14.038        0.046      331.542       -0.375      853.332
12/29/2021  19:30:00      -12.828        7.229      -12.905       39.101       43.780       31.095     1528.885     1916.647      966.883        0.240        0.221       14.724       23.086        2.458      331.545       -0.373      853.347
12/29/2021  19:31:00      -53.752       49.558       -9.621       69.652       38.468       37.173     4851.448     1479.818     1381.838        0.657        0.386       73.111       29.877        0.167      331.552       -0.360      853.351
12/29/2021  19:32:00      -70.972        7.750      -17.018       59.601       66.222       36.031     3552.325     4385.347     1298.237        0.731        0.462       71.394       22.458        0.099      331.553       -0.358      853.349
12/29/2021  19:33:00       -6.869       -0.081        0.744       35.637       33.544       34.085     1269.975     1125.218     1161.776        0.180        0.178        6.870       25.320       13.584      331.559       -0.348      853.332
12/29/2021  19:34:00       -4.190        3.937        5.087       70.108       49.143       31.687     4915.153     2415.016     1004.092        0.420        0.417        5.750       27.989       23.694      331.518       -0.416      853.329
12/29/2021  19:35:00      -59.522       -2.154       -8.136       93.853       40.132       26.846     8808.434     1610.591      720.689        0.737        0.557       59.561       31.284        0.276      331.548       -0.368      853.321
12/29/2021  19:36:00      -52.244       -1.979      -10.325       75.585       40.383       35.669     5713.072     1630.758     1272.280        0.573        0.431       52.282       38.186        0.533      331.531       -0.395      853.329
12/29/2021  19:37:00      -69.610        5.532       -9.734       76.268       46.360       33.020     5816.874     2149.228     1090.340        0.701        0.453       69.829       21.615        0.096      331.546       -0.371      853.337
12/29/2021  19:38:00      -49.058       19.629       -7.196       70.492       48.418       29.648     4969.185     2344.296      878.981        0.552        0.410       52.840       28.787        0.297      331.539       -0.382      853.341
12/29/2021  19:39:00      -75.688       32.052       -9.533       55.470       35.374       28.702     3076.887     1251.290      823.777        0.600        0.258       82.195       17.268        0.044      331.567       -0.336      853.326
12/29/2021  19:40:00      -92.724        6.705       -2.421       63.944       54.566       29.887     4088.879     2977.436      893.260        0.830        0.398       92.966       25.035        0.073      331.532       -0.392      853.308
12/29/2021  19:41:00      -16.325       17.694        5.928       29.918       33.834       32.576      895.060     1144.713     1061.200        0.186        0.155       24.074       12.228        0.258      331.526       -0.404      853.263
12/29/2021  19:42:00      -96.395       13.052       -2.127       55.992       28.341       29.694     3135.051      803.207      881.728        0.714        0.241       97.275       23.984        0.061      331.504       -0.440      853.227
12/29/2021  19:43:00     -117.976       39.370        2.693       52.290       33.424       26.789     2734.269     1117.159      717.663        1.002        0.228      124.372       25.590        0.042      331.521       -0.413      853.212
12/29/2021  19:44:00      -76.872       20.812       -1.834       45.006       41.128       25.698     2025.541     1691.515      660.369        0.536        0.219       79.640       17.272        0.047      331.547       -0.368      853.215
12/29/2021  19:45:00      -87.265       26.710       -1.253       49.276       40.753       24.506     2428.081     1660.827      600.533        0.651        0.234       91.262       21.792        0.057      331.603       -0.276      853.254
12/29/2021  19:46:00     -132.263       31.518      -11.463       55.038       26.723       24.469     3029.233      714.118      598.754        1.148        0.217      135.966       21.879        0.026      331.561       -0.345      853.303
12/29/2021  19:47:00      -71.300       18.673        3.228       69.928       35.649       24.926     4889.969     1270.862      621.299        0.611        0.339       73.705       29.585        0.161      331.586       -0.303      853.348
12/29/2021  19:48:00      -62.681       47.444       -2.918       48.811       34.403       20.760     2382.471     1183.591      430.994        0.509        0.200       78.612       18.749        0.057      331.595       -0.289      853.383
12/29/2021  19:49:00      -48.285       32.082       -3.052       31.366       28.430       16.494      983.849      808.241      272.067        0.272        0.103       57.972       15.749        0.074      331.576       -0.320      853.399
12/29/2021  19:50:00      -49.943       51.183      -10.685       17.292       17.314       13.796      299.019      299.769      190.321        0.301        0.039       71.512        7.010        0.010      331.587       -0.301      853.398
12/29/2021  19:51:00      -59.747       32.787      -14.667       26.028       23.975       14.442      677.454      574.793      208.577        0.316        0.073       68.152        5.571        0.007      331.564       -0.341      853.391
12/29/2021  19:52:00      -48.937       17.652      -21.066       31.917       22.069       15.797     1018.715      487.062      249.546        0.245        0.088       52.023       13.912        0.072      331.595       -0.288      853.395
12/29/2021  19:53:00      -46.020        6.877       -9.196       26.776       23.033       17.661      716.966      530.508      311.921        0.190        0.078       46.531       17.180        0.136      331.595       -0.288      853.413
12/29/2021  19:54:00      -39.040       -0.943       -7.832       39.879       21.986       13.956     1590.350      483.379      194.769        0.193        0.113       39.051       13.782        0.125      331.652       -0.193      853.442
12/29/2021  19:55:00      -71.167       31.255      -14.974       45.627       21.841       17.402     2081.810      477.028      302.845        0.456        0.143       77.728        5.580        0.005      331.604       -0.274      853.481
12/29/2021  19:56:00      -79.620       60.139       -6.094       35.618       37.974       21.709     1268.662     1442.014      471.274        0.659        0.159       99.780       18.918        0.036      331.573       -0.327      853.510
12/29/2021  19:57:00      -66.516       10.431      -12.531       31.373       21.597       20.693      984.236      466.444      428.181        0.328        0.094       67.329       11.627        0.030      331.567       -0.335      853.534
12/29/2021  19:58:00      -49.725       -1.911       -5.312       50.258       30.009       19.479     2525.871      900.524      379.435        0.315        0.190       49.762       12.107        0.059      331.590       -0.297      853.551
12/29/2021  19:59:00      -25.307       12.430      -16.070       46.066       33.915       23.228     2122.052     1150.255      539.540        0.243        0.191       28.195       12.712        0.203      331.589       -0.299      853.554
12/29/2021  20:00:00       -6.298       20.824        7.159       18.131       26.598       19.930      328.730      707.468      397.216        0.098        0.072       21.755        4.934        0.051      331.559       -0.350      853.544
12/29/2021  20:01:00       -6.815       60.426      -10.346       22.264       19.551       12.779      495.691      382.252      163.292        0.242        0.052       60.809        6.219        0.010      331.656       -0.187      853.524
12/29/2021  20:02:00      -54.970       31.846      -21.944       22.006       23.383       17.561      484.244      546.746      308.402        0.293        0.067       63.528       14.622        0.053      331.565       -0.337      853.506
12/29/2021  20:03:00       -6.590       -3.795      -24.935       17.889       21.355       16.048      320.030      456.019      257.542        0.086        0.052        7.604       10.165        1.787      331.599       -0.281      853.492
12/29/2021  20:04:00      -15.381       -5.215      -25.293       25.030       29.451       13.451      626.516      867.344      180.934        0.129        0.084       16.242       12.961        0.637      331.647       -0.201      853.499
12/29/2021  20:05:00      -43.358       34.976       -7.374       25.224       30.373       13.450      636.268      922.492      180.895        0.245        0.087       55.707       16.434        0.087      331.516       -0.421      853.517
12/29/2021  20:06:00      -27.958        3.637       -6.537       18.528       11.468       11.773      343.294      131.521      138.608        0.073        0.031       28.194        9.904        0.123      331.534       -0.388      853.536
12/29/2021  20:07:00      -15.225        1.264        0.769       13.912       15.943       12.399      193.531      254.165      153.727        0.042        0.030       15.278       12.296        0.648      331.589       -0.298      853.548
12/29/2021  20:08:00       -6.881       -4.561       -3.428        8.895        8.963       10.911       79.116       80.332      119.059        0.018        0.014        8.256        7.227        0.766      331.548       -0.365      853.556
12/29/2021  20:09:00        4.406       13.291       -9.752       20.785       30.948       15.281      431.998      957.764      233.504        0.096        0.081       14.002       14.438        1.063      331.530       -0.397      853.559
12/29/2021  20:10:00      -11.229       -8.179      -17.802       18.744       21.387       17.692      351.341      457.417      313.004        0.082        0.056       13.892        7.586        0.298      331.648       -0.201      853.566
12/29/2021  20:11:00      -15.551        0.515       -9.773       35.704       33.863       20.252     1274.792     1146.674      410.142        0.158        0.142       15.559       17.174        1.218      331.592       -0.294      853.568
12/29/2021  20:12:00        1.271       -3.241      -10.312       29.618       31.498       30.283      877.235      992.111      917.045        0.145        0.139        3.481       13.366       14.745      331.717       -0.087      853.573
12/29/2021  20:13:00       76.712        8.704      -22.502       43.448       47.048       25.145     1887.701     2213.557      632.284        0.560        0.237       77.204       14.202        0.034      331.592       -0.293      853.580
12/29/2021  20:14:00       77.100       -8.553       -5.749       50.042       30.370       29.144     2504.208      922.358      849.385        0.516        0.214       77.573       26.777        0.119      331.518       -0.416      853.598
12/29/2021  20:15:00       67.699       -5.881      -10.202       46.456       23.041       27.998     2158.117      530.871      783.902        0.410        0.174       67.954       24.734        0.132      331.529       -0.397      853.620
12/29/2021  20:16:00       73.928      -21.064       -6.942       64.589       38.316       40.315     4171.767     1468.138     1625.272        0.661        0.363       76.870       35.558        0.214      331.661       -0.180      853.634
12/29/2021  20:17:00       30.376       -8.883        0.585       41.288       50.707       34.826     1704.684     2571.187     1212.877        0.324        0.274       31.648       26.553        0.704      331.697       -0.120      853.652
12/29/2021  20:18:00      117.146      -37.451      -10.662       48.670       56.562       30.290     2368.758     3199.310      917.458        1.086        0.324      122.986       23.793        0.037      331.541       -0.379      853.660
12/29/2021  20:19:00      121.971      -11.964      -19.151       76.473       38.905       29.121     5848.062     1513.606      848.029        1.180        0.410      122.557       27.763        0.051      331.592       -0.295      853.674
12/29/2021  20:20:00       70.859      -10.881      -19.867       59.973       61.139       33.803     3596.748     3737.979     1142.673        0.700        0.424       71.689       27.168        0.144      331.749       -0.035      853.689
12/29/2021  20:21:00       88.297      -12.085       -7.797       74.627       54.420       39.571     5569.191     2961.546     1565.848        0.905        0.505       89.120       39.284        0.194      331.644       -0.208      853.698
12/29/2021  20:22:00       73.633      -38.719      -11.633       53.449       48.446       41.701     2856.761     2346.994     1738.967        0.700        0.347       83.192       32.574        0.153      331.751       -0.032      853.729
12/29/2021  20:23:00       90.860       -9.245      -17.473       58.896       43.677       30.745     3468.793     1907.659      945.234        0.748        0.316       91.329       18.136        0.039      331.791        0.034      853.745
12/29/2021  20:24:00      122.197      -14.820      -23.584       49.015       52.070       28.306     2402.467     2711.311      801.223        1.081        0.296      123.092       17.764        0.021      331.616       -0.255      853.749
12/29/2021  20:25:00       61.475      -18.273      -17.959       49.821       37.572       25.574     2482.150     1411.632      654.051        0.449        0.227       64.134       12.588        0.039      331.652       -0.194      853.749
12/29/2021  20:26:00      104.588       -7.579      -14.726       62.421       56.077       43.908     3896.348     3144.625     1927.873        1.009        0.448      104.863       37.177        0.126      331.605       -0.272      853.740
12/29/2021  20:27:00       88.481        3.600      -19.075       54.925       72.368       35.324     3016.799     5237.088     1247.806        0.885        0.475       88.554       21.473        0.059      331.925        0.254      853.743
12/29/2021  20:28:00       96.173        0.495      -26.148       48.829       51.568       31.455     2384.294     2659.209      989.410        0.798        0.302       96.175       15.633        0.026      331.663       -0.176      853.747
12/29/2021  20:29:00      106.198       16.233      -24.685       41.884       32.360       20.868     1754.267     1047.151      435.469        0.769        0.162      107.431       15.329        0.020      331.501       -0.444      853.757
12/29/2021  20:30:00      109.236        6.935      -12.534       43.596       31.396       25.296     1900.616      985.730      639.870        0.783        0.176      109.456       24.273        0.049      331.508       -0.433      853.769
12/29/2021  20:31:00      122.706       45.404      -25.104       29.773       32.090       19.432      886.427     1029.771      377.585        1.002        0.115      130.837        9.045        0.005      331.432       -0.557      853.790
12/29/2021  20:32:00      119.512       42.154      -19.666       39.234       39.034       20.757     1539.305     1523.681      430.840        0.997        0.175      126.729       14.742        0.014      331.470       -0.494      853.817
12/29/2021  20:33:00      128.945       16.491      -16.834       24.986       28.121       14.210      624.287      790.767      201.923        0.940        0.081      129.995        9.093        0.005      331.503       -0.440      853.836
12/29/2021  20:34:00      136.369       21.351      -21.421       12.163       16.049       10.247      147.927      257.556      104.998        1.001        0.026      138.031        5.184        0.001      331.415       -0.585      853.842
12/29/2021  20:35:00      131.731       18.734      -13.801       23.159       16.861       14.092      536.317      284.279      198.586        0.946        0.051      133.057       10.199        0.006      331.434       -0.556      853.847
12/29/2021  20:36:00      136.993        9.125      -24.269       16.681       19.542       13.583      278.247      381.901      184.503        1.014        0.042      137.296        9.536        0.005      331.456       -0.519      853.850
12/29/2021  20:37:00      105.605       20.629      -21.809       33.976       21.059       15.702     1154.343      443.476      246.558        0.695        0.092      107.601        5.260        0.002      331.453       -0.523      853.852
12/29/2021  20:38:00       79.605       28.640      -16.858       44.886       39.938       23.014     2014.781     1595.053      529.632        0.579        0.207       84.600        8.079        0.009      331.506       -0.436      853.853
12/29/2021  20:39:00       48.213       23.589      -27.137       39.696       51.405       27.789     1575.779     2642.524      772.223        0.430        0.250       53.674       19.872        0.137      331.605       -0.271      853.847
12/29/2021  20:40:00       56.825       14.423      -39.721       45.297       63.082       29.911     2051.848     3979.293      894.657        0.597        0.346       58.627       17.491        0.089      331.713       -0.093      853.845
12/29/2021  20:41:00       55.492      -58.138      -46.277       33.640       47.693       32.347     1131.638     2274.631     1046.297        0.653        0.223       80.370       12.886        0.026      331.931        0.263      853.838
12/29/2021  20:42:00       13.966      -12.650      -19.657       53.792       43.146       36.175     2893.591     1861.548     1308.635        0.340        0.303       18.843       29.129        2.390      331.979        0.343      853.835
12/29/2021  20:43:00       50.506      -95.066      -28.096       39.657       48.965       22.644     1572.716     2397.583      512.773        0.843        0.224      107.649       17.373        0.026      331.621       -0.247      853.861
12/29/2021  20:44:00       44.389      -99.046      -29.723       25.864       43.767       28.033      668.963     1915.591      785.835        0.802        0.169      108.538       17.256        0.025      331.696       -0.123      853.890
12/29/2021  20:45:00       23.356      -33.571      -14.585       25.816       35.409       19.799      666.444     1253.782      391.983        0.210        0.116       40.897        5.585        0.019      331.793        0.039      853.919
12/29/2021  20:46:00       32.100       25.434        1.795       35.326       26.777       19.156     1247.903      717.034      366.952        0.201        0.117       40.955       16.326        0.159      331.605       -0.271      853.939
12/29/2021  20:47:00       60.683       29.280      -17.026       29.715       27.180       21.267      882.990      738.776      452.280        0.345        0.104       67.378       17.970        0.071      331.586       -0.303      853.942
12/29/2021  20:48:00       62.409       29.165      -14.924       45.090       27.967       26.538     2033.087      782.149      704.288        0.424        0.176       68.887        9.257        0.018      331.553       -0.359      853.934
12/29/2021  20:49:00       60.704       27.521      -13.740       34.904       41.819       21.947     1218.270     1748.820      481.654        0.404        0.172       66.651       16.001        0.058      331.530       -0.396      853.929
12/29/2021  20:50:00       78.997       17.568      -13.119       39.110       34.028       25.120     1529.616     1157.887      631.016        0.502        0.166       80.927       14.695        0.033      331.514       -0.422      853.938
12/29/2021  20:51:00       50.540       -3.613      -19.140       48.593       37.055       26.365     2361.278     1373.082      695.095        0.368        0.221       50.669       16.661        0.108      331.595       -0.288      853.954
12/29/2021  20:52:00       50.090      -17.841      -28.435       45.709       41.227       34.658     2089.270     1699.662     1201.165        0.431        0.250       53.173       24.615        0.214      331.630       -0.231      853.976
12/29/2021  20:53:00       57.699       27.725      -16.746       38.580       48.228       25.521     1488.423     2325.936      651.322        0.442        0.223       64.014       12.529        0.038      331.563       -0.341      853.998
12/29/2021  20:54:00       27.220       18.081      -14.368       34.007       42.531       26.189     1156.507     1808.846      685.844        0.246        0.183       32.678       18.455        0.319      331.585       -0.305      854.018
12/29/2021  20:55:00        2.534      -21.546       -4.569       36.649       37.242       29.315     1343.151     1386.949      859.357        0.204        0.179       21.695       20.987        0.936      331.831        0.101      854.028
12/29/2021  20:56:00       49.204      -99.428      -24.101       28.134       51.393       26.621      791.511     2641.198      708.677        0.851        0.207      110.937       14.436        0.017      331.649       -0.200      854.044
12/29/2021  20:57:00       46.201     -123.280      -25.121       28.125       34.195       26.408      791.030     1169.302      697.359        1.031        0.133      131.653       18.784        0.020      331.512       -0.425      854.067
12/29/2021  20:58:00       22.543      -26.260      -12.439       42.655       53.480       26.642     1819.423     2860.129      709.792        0.337        0.269       34.609       29.954        0.749      331.745       -0.041      854.084
12/29/2021  20:59:00       18.408      -28.129      -16.993       31.224       45.217       31.098      974.949     2044.616      967.076        0.270        0.199       33.617       22.981        0.467      331.762       -0.012      854.107
12/29/2021  21:00:00       12.477      -26.148       -9.669       36.034       48.609       29.020     1298.466     2362.832      842.144        0.272        0.225       28.972       23.412        0.653      331.826        0.093      854.109
12/29/2021  21:01:00       38.892       23.006      -16.293       41.687       40.172       25.677     1737.846     1613.814      659.298        0.316        0.201       45.187       12.002        0.071      331.541       -0.378      854.139
12/29/2021  21:02:00       82.475       -2.638      -15.629       51.467       45.982       27.412     2648.893     2114.371      751.397        0.628        0.276       82.518       25.173        0.093      331.468       -0.497      854.176
12/29/2021  21:03:00       20.928       -7.375        6.754       49.644       29.992       39.428     2464.526      899.530     1554.575        0.273        0.246       22.189       30.821        1.929      331.423       -0.571      854.201
12/29/2021  21:04:00       53.321        9.537      -16.468       45.092       45.539       31.174     2033.280     2073.833      971.826        0.414        0.254       54.168       20.906        0.149      331.458       -0.514      854.220
12/29/2021  21:05:00       44.960       18.847      -15.390       46.504       49.358       31.568     2162.646     2436.240      996.517        0.410        0.280       48.751       21.495        0.194      331.496       -0.452      854.240
12/29/2021  21:06:00       51.278       15.788      -16.290       48.951       51.520       25.690     2396.157     2654.264      659.995        0.443        0.286       53.653       13.100        0.060      331.504       -0.438      854.258
12/29/2021  21:07:00       49.508       31.395       -2.815       40.185       29.505       31.737     1614.807      870.570     1007.253        0.347        0.175       58.623       14.636        0.062      331.476       -0.485      854.276
12/29/2021  21:08:00       98.242       13.467       -8.367       22.431       17.332       14.525      503.135      300.385      210.968        0.546        0.051       99.160        8.330        0.007      331.366       -0.666      854.280
12/29/2021  21:09:00       73.350       24.907       -8.785       14.988       19.541       13.680      224.646      381.856      187.149        0.344        0.040       77.463        9.198        0.014      331.378       -0.647      854.294
12/29/2021  21:10:00       70.666       33.331      -12.577       30.912       20.281       12.851      955.523      411.332      165.157        0.390        0.077       78.132       12.176        0.024      331.398       -0.613      854.300
12/29/2021  21:11:00       93.113       41.101       -9.093       14.819       16.431       14.187      219.588      269.970      201.270        0.557        0.035      101.781       10.794        0.011      331.392       -0.622      854.309
12/29/2021  21:12:00       87.207       15.445      -14.555       18.181       21.239       12.426      330.556      451.087      154.410        0.450        0.047       88.564        7.361        0.007      331.410       -0.593      854.301
12/29/2021  21:13:00       53.689        9.819       -7.135       22.628       25.570       15.432      512.008      653.826      238.133        0.222        0.070       54.580        9.812        0.032      331.527       -0.400      854.293
12/29/2021  21:14:00       64.277        0.224       -7.041       20.368       18.797       12.174      414.861      353.316      148.197        0.255        0.046       64.277        4.842        0.006      331.503       -0.442      854.293
12/29/2021  21:15:00       39.033       25.181       -1.548       28.121       18.909       19.455      790.773      357.532      378.495        0.184        0.076       46.451       15.189        0.107      331.530       -0.397      854.305
12/29/2021  21:16:00       95.605       43.306      -16.334       17.954       21.714       13.716      322.349      471.482      188.125        0.613        0.049      104.955        9.112        0.008      331.472       -0.493      854.326
12/29/2021  21:17:00       32.999       37.747       -8.843       37.252       29.200       17.968     1387.716      852.661      322.862        0.258        0.128       50.138       17.179        0.117      331.501       -0.446      854.343
12/29/2021  21:18:00       50.842       29.572        2.709       45.947       30.359       23.227     2111.118      921.660      539.506        0.352        0.179       58.817       20.366        0.120      331.590       -0.297      854.354
12/29/2021  21:19:00       91.494       14.128      -16.481       14.865       14.950       12.149      220.963      223.512      147.587        0.472        0.030       92.578        5.286        0.003      331.533       -0.392      854.366
12/29/2021  21:20:00       67.467       -1.106      -12.941       23.621       17.205       13.591      557.937      296.019      184.713        0.288        0.052       67.476        9.763        0.021      331.580       -0.315      854.374
12/29/2021  21:21:00       43.463       14.745      -11.516       30.952       29.083       17.677      958.018      845.795      312.489        0.218        0.106       45.896       10.999        0.057      331.574       -0.323      854.378
12/29/2021  21:22:00       32.597        3.257       -3.939       30.956       18.705       16.158      958.277      349.892      261.065        0.133        0.078       32.759       11.122        0.115      331.539       -0.384      854.376
12/29/2021  21:23:00       73.422       16.589      -10.685       23.961       22.704       16.786      574.116      515.458      281.767        0.358        0.069       75.273       10.244        0.019      331.515       -0.421      854.372
12/29/2021  21:24:00       57.304       37.754       -8.690       17.138       13.635        9.774      293.703      185.918       95.539        0.268        0.029       68.623        6.287        0.008      331.502       -0.442      854.380
12/29/2021  21:25:00       48.173        5.217      -14.244       16.692       24.889       10.007      278.630      619.466      100.141        0.177        0.050       48.455        4.943        0.010      331.575       -0.321      854.394
12/29/2021  21:26:00       44.519        9.523      -12.205       18.500       12.914       13.061      342.265      166.767      170.599        0.145        0.034       45.526       11.257        0.061      331.558       -0.349      854.420
12/29/2021  21:27:00       46.324       25.070       -8.718       20.053       17.843       15.373      402.114      318.372      236.338        0.190        0.048       52.672        7.266        0.019      331.565       -0.337      854.433
12/29/2021  21:28:00       81.899       45.426      -18.792       15.313       18.370        9.581      234.483      337.461       91.804        0.489        0.033       93.653        6.659        0.005      331.519       -0.415      854.450
12/29/2021  21:29:00       84.741       52.908      -20.480       23.749       16.986       15.698      563.992      288.539      246.435        0.575        0.055       99.901       11.264        0.013      331.527       -0.401      854.474
12/29/2021  21:30:00      120.267       20.193      -14.299       22.510       19.575       20.812      506.688      383.193      433.158        0.820        0.066      121.950       13.510        0.012      331.501       -0.444      854.498
12/29/2021  21:31:00      119.466       24.449      -10.613       36.424       24.256       18.815     1326.714      588.373      353.985        0.863        0.113      121.942       15.740        0.017      331.538       -0.382      854.525
12/29/2021  21:32:00      111.214       29.006      -15.247       34.742       27.759       19.116     1207.018      770.551      365.407        0.789        0.117      114.935       14.759        0.016      331.538       -0.382      854.552
12/29/2021  21:33:00      109.809      -14.729       -6.302       46.194       31.615       27.611     2133.906      999.502      762.393        0.810        0.195      110.793       24.970        0.051      331.551       -0.361      854.567
12/29/2021  21:34:00       20.243       -8.055       -7.440       40.572       42.336       39.923     1646.099     1792.362     1593.877        0.278        0.252       21.787       25.818        1.404      331.574       -0.323      854.570
12/29/2021  21:35:00       68.445       10.829       -8.986       38.386       29.095       19.271     1473.455      846.538      371.358        0.379        0.135       69.296       18.164        0.069      331.576       -0.320      854.573
12/29/2021  21:36:00       77.774       33.657       -0.064       47.727       38.051       19.189     2277.889     1447.890      368.223        0.564        0.205       84.744       21.905        0.067      331.576       -0.321      854.570
12/29/2021  21:37:00      113.603       35.370       -7.833       26.333       22.808       19.758      693.452      520.217      390.397        0.791        0.080      118.981       11.741        0.010      331.529       -0.398      854.568
12/29/2021  21:38:00      105.349       46.651      -13.096       33.222       42.165       23.197     1103.691     1777.858      538.117        0.843        0.171      115.216       20.224        0.031      331.561       -0.346      854.565
12/29/2021  21:39:00      122.218       79.333      -24.902       30.445       25.631       27.745      926.919      656.941      769.780        1.210        0.118      145.709       16.982        0.014      331.557       -0.352      854.573
12/29/2021  21:40:00      108.474       80.682      -20.557       26.249       24.280       21.961      689.029      589.533      482.283        1.023        0.088      135.189       11.539        0.007      331.540       -0.380      854.594
12/29/2021  21:41:00      114.148       53.010      -11.633       31.170       21.166       18.767      971.594      447.985      352.190        0.887        0.089      125.857        8.486        0.005      331.582       -0.309      854.620
12/29/2021  21:42:00       96.363       45.350      -12.136       18.902       22.766       15.922      357.288      518.289      253.519        0.631        0.056      106.501        6.083        0.003      331.588       -0.299      854.644
12/29/2021  21:43:00       67.260       45.444      -14.353       22.517       18.965       17.364      506.993      359.658      301.512        0.398        0.058       81.173       12.174        0.022      331.610       -0.263      854.672
12/29/2021  21:44:00       85.321       43.064      -13.865       10.164       15.706       10.159      103.313      246.673      103.207        0.489        0.023       95.573        3.736        0.002      331.582       -0.309      854.695
12/29/2021  21:45:00       24.029       -7.213      -10.857       29.287       19.763       18.878      857.747      390.574      356.379        0.118        0.080       25.088       20.184        0.647      331.665       -0.171      854.711
12/29/2021  21:46:00       16.894        9.302       -7.266       16.723       17.229       14.637      279.658      296.826      214.227        0.061        0.040       19.285        9.147        0.225      331.638       -0.217      854.726
12/29/2021  21:47:00       36.559       41.301       -6.324       24.538       51.049       16.489      602.112     2605.991      271.893        0.328        0.174       55.157       15.334        0.077      331.704       -0.108      854.738
12/29/2021  21:48:00       51.490       63.164       -9.075       21.260       27.961       15.701      451.982      781.814      246.506        0.410        0.074       81.492       11.562        0.020      331.645       -0.207      854.753
12/29/2021  21:49:00       37.238       63.545      -12.609       21.583       32.930       15.955      465.834     1084.392      254.547        0.369        0.090       73.652       13.665        0.034      331.666       -0.172      854.754
12/29/2021  21:50:00       74.082       50.666      -13.249       20.757       13.771        9.048      430.855      189.651       81.863        0.447        0.035       89.751        4.767        0.003      331.648       -0.201      854.752
12/29/2021  21:51:00       68.956       50.716      -22.761       24.350       15.127       19.275      592.938      228.828      371.522        0.452        0.060       85.598        4.172        0.002      331.633       -0.225      854.744
12/29/2021  21:52:00       27.598       36.162       -1.472       29.597       21.751       17.735      875.968      473.089      314.543        0.187        0.083       45.491       14.620        0.103      331.692       -0.128      854.745
12/29/2021  21:53:00       30.480       39.338       -2.506       25.974       25.275       14.688      674.647      638.832      215.751        0.201        0.076       49.765       12.426        0.062      331.714       -0.092      854.758
12/29/2021  21:54:00       14.709       65.274        3.830       53.751       31.814       28.509     2889.217     1012.150      812.746        0.460        0.236       66.910       16.702        0.062      331.710       -0.098      854.790
12/29/2021  21:55:00        7.591       45.078        0.224       26.605       21.603       16.691      707.803      466.690      278.575        0.177        0.073       45.713       14.034        0.094      331.680       -0.148      854.840
12/29/2021  21:56:00       37.340      171.344      -13.788       48.158       62.129       36.529     2319.190     3859.997     1334.356        1.923        0.376      175.365       35.415        0.041      331.593       -0.294      854.895
12/29/2021  21:57:00        9.333      171.428        3.885       50.048       72.587       37.566     2504.768     5268.941     1411.208        1.934        0.459      171.682       39.145        0.052      331.543       -0.376      854.926
12/29/2021  21:58:00      -11.858      155.548      -14.501       36.602       45.851       27.436     1339.671     2102.344      752.708        1.437        0.210      156.000       19.723        0.016      331.546       -0.371      854.947
12/29/2021  21:59:00       41.165      143.481      -12.739       42.673       48.493       30.070     1820.974     2351.589      904.219        1.376        0.254      149.269       32.411        0.047      331.610       -0.264      854.966
12/29/2021  22:00:00      -36.754      113.841      -11.383       47.341       63.201       24.461     2241.151     3994.311      598.347        1.064        0.342      119.627       15.315        0.016      331.609       -0.265      854.972
12/29/2021  22:01:00        3.331       66.127       -4.465       27.948       41.523       20.722      781.087     1724.118      429.391        0.367        0.147       66.211       19.739        0.089      331.597       -0.285      854.970
12/29/2021  22:02:00        9.256       55.198       -2.856       33.281       31.411       16.573     1107.644      986.642      274.669        0.275        0.118       55.968        9.317        0.028      331.611       -0.262      854.965
12/29/2021  22:03:00       11.342       61.058      -13.846       27.491       32.308       19.617      755.743     1043.828      384.808        0.312        0.109       62.103       18.684        0.091      331.565       -0.337      854.953
12/29/2021  22:04:00       13.144       26.506        8.908       23.253       16.380       17.362      540.681      268.303      301.439        0.103        0.056       29.586       10.870        0.135      331.583       -0.309      854.950
12/29/2021  22:05:00       49.460       35.299       -9.009       34.937       16.292       16.591     1220.578      265.413      275.267        0.277        0.088       60.764        7.694        0.016      331.525       -0.405      854.947
12/29/2021  22:06:00       52.180       41.488      -11.335       44.334       29.481       24.716     1965.512      869.133      610.881        0.401        0.172       66.663       15.240        0.052      331.510       -0.430      854.953
12/29/2021  22:07:00       23.886       36.363       -8.247       24.231       31.405       25.052      587.138      986.273      627.616        0.208        0.110       43.506       14.873        0.117      331.569       -0.332      854.965
12/29/2021  22:08:00       20.819       18.893       -0.670       26.665       22.020       17.425      711.037      484.902      303.616        0.114        0.075       28.114       14.272        0.258      331.563       -0.340      854.972
12/29/2021  22:09:00       56.936       85.223      -13.349       30.822       59.301       29.633      949.992     3516.660      878.128        0.801        0.267      102.493       30.607        0.089      331.506       -0.436      854.981
12/29/2021  22:10:00       60.122      153.129      -20.177       33.597       38.720       21.706     1128.761     1499.243      471.141        1.528        0.155      164.509       18.541        0.013      331.555       -0.355      854.986
12/29/2021  22:11:00       20.658      149.917      -22.720       61.086       37.902       27.538     3731.502     1436.560      758.334        1.467        0.296      151.333       28.592        0.036      331.543       -0.374      854.977
12/29/2021  22:12:00       14.773      105.332       -7.891       44.677       41.785       30.733     1995.993     1745.967      944.547        0.803        0.234      106.363       24.170        0.052      331.591       -0.296      854.969
12/29/2021  22:13:00       -2.372      157.338      -12.686       36.633       47.710       21.916     1341.989     2276.281      480.305        1.451        0.205      157.356       19.347        0.015      331.532       -0.393      854.967
12/29/2021  22:14:00      -26.233       83.404      -19.886       25.147       35.280       26.813      632.359     1244.707      718.940        0.532        0.130       87.432       13.972        0.026      331.580       -0.313      854.965
12/29/2021  22:15:00       12.015       41.429       -2.051       28.725       32.631       22.646      825.103     1064.753      512.852        0.213        0.120       43.136       14.883        0.119      331.699       -0.116      854.957
12/29/2021  22:16:00       12.299       57.411      -13.710       40.557       36.182       23.825     1644.876     1309.164      567.622        0.358        0.176       58.714       13.962        0.057      331.610       -0.263      854.940
12/29/2021  22:17:00       21.651        6.986        3.496       29.575       43.117       16.757      874.689     1859.060      280.794        0.177        0.151       22.750       11.167        0.241      331.632       -0.227      854.920
12/29/2021  22:18:00      -18.029       86.007       -5.069       20.413       48.328       23.295      416.692     2335.612      542.674        0.552        0.165       87.876       26.822        0.093      331.593       -0.292      854.908
12/29/2021  22:19:00      -51.740       58.265      -17.579       30.397       22.587       18.550      923.995      510.194      344.095        0.408        0.089       77.922       13.017        0.028      331.510       -0.429      854.904
12/29/2021  22:20:00       -9.998       36.139      -13.102       22.647       20.659       19.829      512.884      426.796      393.177        0.145        0.067       37.496       13.091        0.122      331.505       -0.438      854.906
12/29/2021  22:21:00      -26.956       36.487      -13.303       30.831       33.050       22.455      950.530     1092.303      504.218        0.239        0.127       45.364       24.099        0.282      331.627       -0.235      854.921
12/29/2021  22:22:00      -38.840       52.239       -2.927       43.475       28.214       17.823     1890.102      796.040      317.652        0.362        0.150       65.095       21.038        0.104      331.557       -0.352      854.939
12/29/2021  22:23:00      -22.629      125.140      -18.723       23.793       30.623       18.035      566.108      937.764      325.266        0.918        0.091      127.169        3.767        0.001      331.555       -0.355      854.954
12/29/2021  22:24:00      -15.862       64.260      -13.218       18.804       19.631       18.738      353.589      385.368      351.117        0.282        0.055       66.188       11.174        0.028      331.579       -0.315      854.968
12/29/2021  22:25:00      -30.120       33.646       -2.258       24.368       29.763       16.309      593.784      885.810      265.999        0.189        0.087       45.158        9.348        0.043      331.600       -0.280      854.983
12/29/2021  22:26:00      -36.730       28.306      -20.380       49.595       29.042       25.835     2459.659      843.447      667.435        0.327        0.199       46.371       20.603        0.197      331.590       -0.298      854.990
12/29/2021  22:27:00      -57.636       51.259      -12.756       56.745       26.480       23.345     3219.990      701.183      544.989        0.529        0.223       77.132       21.322        0.076      331.509       -0.431      855.004
12/29/2021  22:28:00      -17.283       34.460        0.022       42.115       27.510       18.660     1773.658      756.800      348.192        0.218        0.144       38.551       20.434        0.281      331.572       -0.325      855.011
12/29/2021  22:29:00      -23.600       51.340      -13.453       19.881       27.015       18.364      395.273      729.828      337.236        0.242        0.073       56.505       11.127        0.039      331.623       -0.240      855.017
12/29/2021  22:30:00      -18.854       57.689      -16.919       26.001       27.419       21.419      676.042      751.790      458.775        0.293        0.094       60.692       10.255        0.029      331.557       -0.350      855.023
12/29/2021  22:31:00       11.974       76.801      -11.050       29.022       25.400       18.330      842.275      645.146      335.972        0.399        0.091       77.729       14.268        0.034      331.662       -0.178      855.032
12/29/2021  22:32:00        8.201       84.684       -0.087       29.935       27.276       28.003      896.131      743.998      784.169        0.483        0.121       85.080       14.851        0.030      331.646       -0.204      855.046
12/29/2021  22:33:00      -15.574       72.084       -5.225       21.991       28.631       13.282      483.613      819.718      176.402        0.347        0.074       73.748       11.280        0.023      331.656       -0.188      855.068
12/29/2021  22:34:00       26.937       88.611      -15.970       41.801       48.357       28.579     1747.317     2338.357      816.784        0.687        0.245       92.615       30.885        0.111      331.628       -0.233      855.082
12/29/2021  22:35:00       43.332       85.495      -13.878       33.304       48.252       31.142     1109.154     2328.223      969.812        0.689        0.220       95.850       26.786        0.078      331.683       -0.143      855.096
12/29/2021  22:36:00       37.646       99.962      -12.056       32.580       39.554       28.074     1061.427     1564.509      788.145        0.748        0.171      106.816       22.425        0.044      331.659       -0.183      855.107
12/29/2021  22:37:00       33.941      138.795      -19.944       33.534       31.730       18.869     1124.520     1006.763      356.053        1.165        0.124      142.885       10.086        0.005      331.663       -0.177      855.109
12/29/2021  22:38:00      -18.665      116.566      -15.715       18.393       22.694       17.995      338.294      515.010      323.812        0.768        0.059      118.051       14.896        0.016      331.572       -0.327      855.110
12/29/2021  22:39:00       38.946       80.345       -5.632       34.477       50.993       28.574     1188.672     2600.282      816.449        0.630        0.230       89.286       26.982        0.091      331.646       -0.205      855.111
12/29/2021  22:40:00       27.029       68.557        1.706       32.167       37.657       25.395     1034.724     1418.047      644.919        0.427        0.155       73.693       23.183        0.099      331.657       -0.186      855.117
12/29/2021  22:41:00       17.546       44.087       -2.093       27.099       28.924       24.247      734.366      836.606      587.939        0.221        0.108       47.450       13.151        0.077      331.638       -0.217      855.128
12/29/2021  22:42:00       29.720       54.470       -9.420       28.815       33.872       20.204      830.331     1147.279      408.207        0.316        0.119       62.050       18.706        0.091      331.625       -0.237      855.147
12/29/2021  22:43:00       23.491       78.347      -14.466       24.791       26.939       21.181      614.586      725.729      448.647        0.434        0.089       81.793       14.324        0.031      331.689       -0.132      855.167
12/29/2021  22:44:00        9.174       55.015       -7.209       24.716       18.671       14.367      610.903      348.612      206.409        0.216        0.058       55.774        9.074        0.026      331.695       -0.123      855.187
12/29/2021  22:45:00       23.101       45.988       -1.704       27.344       24.568       13.702      747.681      603.581      187.735        0.209        0.077       51.464       10.862        0.045      331.645       -0.206      855.198
12/29/2021  22:46:00       15.294       37.914       -1.600       26.713       18.465       15.303      713.597      340.963      234.176        0.148        0.064       40.882        9.514        0.054      331.670       -0.165      855.216
12/29/2021  22:47:00       22.858       39.571       -1.524       24.179       20.909       16.445      584.610      437.171      270.434        0.169        0.065       45.699       14.374        0.099      331.611       -0.263      855.233
12/29/2021  22:48:00       27.532       30.811       -1.344       17.793       15.401       14.749      316.574      237.200      217.545        0.124        0.039       41.320        9.436        0.052      331.583       -0.308      855.254
12/29/2021  22:49:00       67.077       35.642       -9.793       16.106       18.981       12.549      259.394      360.274      157.485        0.332        0.039       75.959       12.476        0.027      331.535       -0.389      855.267
12/29/2021  22:50:00       59.028       30.266      -11.764       20.827       18.324       13.485      433.768      335.769      181.845        0.274        0.048       66.335        9.782        0.022      331.543       -0.375      855.280
12/29/2021  22:51:00       45.547       28.786      -11.026       17.616       18.532       14.602      310.307      343.450      213.219        0.195        0.043       53.881       11.255        0.044      331.580       -0.314      855.289
12/29/2021  22:52:00       23.720       18.806       -9.854       14.615       17.167        9.213      213.609      294.692       84.884        0.080        0.030       30.270        6.543        0.047      331.570       -0.329      855.291
12/29/2021  22:53:00       40.692        2.438       -9.138       29.426       25.806       14.806      865.867      665.948      219.208        0.175        0.088       40.765        9.970        0.060      331.540       -0.379      855.295
12/29/2021  22:54:00       53.272       21.135       -9.499       22.351       23.582       13.491      499.567      556.113      182.008        0.231        0.062       57.311       13.004        0.051      331.495       -0.453      855.313
12/29/2021  22:55:00       59.423       30.159      -11.236       20.940       16.369       11.444      438.501      267.952      130.963        0.270        0.042       66.638        5.395        0.007      331.467       -0.500      855.323
12/29/2021  22:56:00       50.320       32.628      -11.706       20.405       15.351       11.200      416.356      235.639      125.447        0.226        0.039       59.972        6.536        0.012      331.466       -0.502      855.332
12/29/2021  22:57:00       51.791       37.696      -10.076       22.634       19.170       12.391      512.297      367.502      153.543        0.262        0.052       64.057        6.269        0.010      331.450       -0.529      855.330
12/29/2021  22:58:00       35.127       38.853       -2.846       22.984       19.548       14.880      528.264      382.116      221.410        0.194        0.057       52.378        9.728        0.034      331.471       -0.492      855.322
12/29/2021  22:59:00       30.279       11.021       -8.534       21.573       27.439       16.482      465.402      752.897      271.669        0.130        0.074       32.223       13.512        0.176      331.485       -0.470      855.301
12/29/2021  23:00:00       11.144      -11.085      -14.273       14.284       23.217       12.386      204.034      539.016      153.420        0.067        0.045       15.718        7.381        0.221      331.525       -0.405      855.283
12/29/2021  23:01:00       12.227      -26.792       -2.366       20.072       34.791       19.066      402.892     1210.431      363.514        0.142        0.099       29.450       21.851        0.551      331.537       -0.385      855.263
12/29/2021  23:02:00       31.161      -18.555      -14.345       15.412       25.801       10.173      237.543      665.715      103.489        0.126        0.050       36.267        4.275        0.014      331.528       -0.400      855.257
12/29/2021  23:03:00        8.506        6.442       -7.396       10.151        8.569        8.761      103.039       73.434       76.749        0.021        0.013       10.670        5.229        0.240      331.515       -0.421      855.254
12/29/2021  23:04:00      -41.823      -14.056       -2.471       34.258       21.980       22.503     1173.629      483.102      506.407        0.206        0.108       44.122       21.716        0.242      331.603       -0.275      855.253
12/29/2021  23:05:00      -98.698      -13.244       -6.298       39.952       25.051       23.403     1596.151      627.529      547.704        0.636        0.139       99.583       20.114        0.041      331.553       -0.357      855.243
12/29/2021  23:06:00      -72.854      -23.681       -4.991       40.147       27.398       25.783     1611.774      750.634      664.788        0.446        0.151       76.606       26.422        0.119      331.562       -0.343      855.235
12/29/2021  23:07:00      -51.030        5.263      -12.019       41.509       20.442       20.202     1722.994      417.862      408.105        0.266        0.127       51.300       17.124        0.111      331.605       -0.272      855.240
12/29/2021  23:08:00      -38.814       -9.905      -16.211       31.940       21.024       17.691     1020.193      441.990      312.969        0.182        0.089       40.058       15.579        0.151      331.616       -0.254      855.246
12/29/2021  23:09:00      -68.644       -6.915      -16.689       29.699       15.544       13.875      882.039      241.622      192.513        0.318        0.066       68.992       12.504        0.033      331.578       -0.317      855.258
12/29/2021  23:10:00      -17.878      -16.429       -1.293       23.535       22.192       17.389      553.900      492.483      302.380        0.097        0.067       24.280       13.435        0.306      331.675       -0.154      855.279
12/29/2021  23:11:00      -33.418      -11.382       -2.589       39.876       21.130       21.088     1590.082      446.470      444.692        0.187        0.124       35.303       23.391        0.439      331.701       -0.113      855.298
12/29/2021  23:12:00      -61.208      -12.499      -13.085       26.243       26.401       26.044      688.699      696.996      678.299        0.307        0.103       62.471       19.036        0.093      331.568       -0.333      855.313
12/29/2021  23:13:00        4.649       -4.660       -5.764       16.409       15.637       14.720      269.271      244.530      216.669        0.040        0.037        6.583       10.438        2.514      331.658       -0.184      855.328
12/29/2021  23:14:00      -67.268       42.813       -7.545       28.315       29.455       12.104      801.750      867.602      146.514        0.411        0.091       79.736       11.396        0.020      331.456       -0.518      855.329
12/29/2021  23:15:00      -55.280       -1.375      -20.447       30.213       32.412       20.614      912.835     1050.550      424.923        0.293        0.119       55.297       14.712        0.071      331.574       -0.323      855.344
12/29/2021  23:16:00       -8.435      -15.477       -6.587       26.135       23.961       19.685      683.022      574.122      387.483        0.100        0.082       17.626       13.051        0.548      331.675       -0.157      855.367
12/29/2021  23:17:00       18.494       -5.775       -3.577       15.117       17.495       10.965      228.536      306.081      120.221        0.052        0.033       19.374        5.075        0.069      331.720       -0.081      855.386
12/29/2021  23:18:00        9.719       -8.996        2.462       20.509       27.312       18.304      420.602      745.922      335.024        0.084        0.075       13.243       13.513        1.041      331.667       -0.169      855.403
12/29/2021  23:19:00      -46.002       13.239      -15.108       61.788       21.697       20.674     3817.700      470.775      427.428        0.362        0.236       47.869       26.577        0.308      331.630       -0.232      855.410
12/29/2021  23:20:00     -121.630       39.653      -14.211       25.390       22.627       20.039      644.664      511.980      401.553        0.906        0.078      127.931       11.519        0.008      331.480       -0.478      855.410
12/29/2021  23:21:00      -24.422        1.230        5.842       35.061       34.980       24.075     1229.295     1223.602      579.600        0.183        0.152       24.453        9.133        0.140      331.636       -0.220      855.399
12/29/2021  23:22:00      -34.497      -11.748       -7.487       38.908       29.541       22.725     1513.871      872.680      516.435        0.214        0.145       36.443       20.443        0.315      331.557       -0.349      855.405
12/29/2021  23:23:00      -48.697        1.747      -16.120       29.530       22.730       18.225      872.022      516.673      332.149        0.218        0.086       48.728       14.726        0.091      331.463       -0.505      855.414
12/29/2021  23:24:00      -34.372       31.389      -10.444       21.428       16.759       13.498      459.152      280.863      182.202        0.160        0.046       46.548        7.096        0.023      331.542       -0.377      855.433
12/29/2021  23:25:00      -50.694       62.400      -10.299       22.993       21.698       17.229      528.694      470.805      296.838        0.393        0.065       80.397       12.218        0.023      331.487       -0.468      855.442
12/29/2021  23:26:00      -74.096       48.679       -9.262       23.518       19.661       15.731      553.093      386.574      247.462        0.457        0.059       88.655       11.379        0.016      331.412       -0.590      855.440
12/29/2021  23:27:00      -74.209       20.502       -4.024       32.660       23.027       17.254     1066.660      530.249      297.711        0.392        0.095       76.989       17.729        0.053      331.427       -0.566      855.433
12/29/2021  23:28:00      -84.570       19.414       -4.738       32.308       20.990       18.845     1043.828      440.585      355.116        0.470        0.092       86.770        7.548        0.008      331.428       -0.566      855.425
12/29/2021  23:29:00      -97.634       31.495       -8.666       24.988       21.900       16.466      624.383      479.611      271.129        0.599        0.069      102.588       14.502        0.020      331.448       -0.530      855.432
12/29/2021  23:30:00      -66.913       44.411      -10.781       20.310       22.065       16.767      412.504      486.848      281.127        0.387        0.059       80.310        7.311        0.008      331.486       -0.469      855.431
12/29/2021  23:31:00      -59.571       11.241      -21.049       35.620       25.067       15.637     1268.771      628.347      244.525        0.313        0.107       60.623       13.256        0.048      331.585       -0.303      855.433
12/29/2021  23:32:00     -108.517       41.607      -17.804       20.028       13.371       11.567      401.116      178.788      133.802        0.727        0.036      116.220        7.223        0.004      331.347       -0.697      855.425
12/29/2021  23:33:00     -104.316       12.707      -23.887       35.811       21.299       18.207     1282.425      453.647      331.493        0.684        0.103      105.087       12.709        0.015      331.342       -0.705      855.410
12/29/2021  23:34:00      -54.179        0.041      -12.243       41.003       23.035       24.206     1681.217      530.605      585.935        0.294        0.140       54.179       11.371        0.044      331.429       -0.561      855.394
12/29/2021  23:35:00      -30.374       47.308      -14.654       28.366       38.662       24.604      804.658     1494.772      605.364        0.314        0.145       56.219       18.952        0.114      331.517       -0.418      855.384
12/29/2021  23:36:00      -11.331       62.485      -14.655       16.826       24.664       15.459      283.125      608.319      238.974        0.269        0.057       63.504        5.513        0.008      331.514       -0.421      855.382
12/29/2021  23:37:00      -17.958       68.970      -10.407       16.109       14.506       14.413      259.488      210.434      207.726        0.293        0.034       71.270        5.978        0.007      331.552       -0.359      855.381
12/29/2021  23:38:00      -16.858       72.923       -3.975       17.955       24.672       14.246      322.379      608.721      202.948        0.338        0.057       74.847        9.873        0.017      331.498       -0.450      855.380
12/29/2021  23:39:00      -24.035       81.602       -5.527       26.630       26.093       17.665      709.135      680.848      312.050        0.448        0.085       85.068       10.461        0.015      331.484       -0.470      855.387
12/29/2021  23:40:00      -35.768       72.020       -4.101       21.998       25.881       15.876      483.895      669.835      252.038        0.394        0.070       80.412        9.543        0.014      331.526       -0.402      855.381
12/29/2021  23:41:00      -79.700       30.382      -30.704       28.576       25.170       23.497      816.594      633.528      552.091        0.511        0.100       85.294       19.761        0.054      331.438       -0.548      855.374
12/29/2021  23:42:00      -22.192       -8.319      -11.119       34.981       23.904       28.011     1223.665      571.425      784.606        0.163        0.129       23.700       24.934        1.107      331.444       -0.535      855.364
12/29/2021  23:43:00       -5.475      -18.022       -9.787       31.031       22.308       14.686      962.907      497.630      215.693        0.106        0.084       18.836       10.967        0.339      331.417       -0.582      855.357
12/29/2021  23:44:00      -46.968       26.547      -10.860       40.221       22.851       22.000     1617.768      522.157      484.013        0.283        0.131       53.951       12.160        0.051      331.453       -0.524      855.354
12/29/2021  23:45:00        9.586        5.865      -15.238       18.360       34.901       18.894      337.074     1218.078      356.994        0.113        0.096       11.238       12.705        1.278      331.474       -0.488      855.354
12/29/2021  23:46:00       -6.440       91.495      -11.930       21.869       31.881       23.573      478.248     1016.413      555.670        0.530        0.103       91.722       15.345        0.028      331.440       -0.543      855.351
12/29/2021  23:47:00        7.287       75.753      -10.390       25.431       32.399       18.860      646.733     1049.710      355.711        0.398        0.103       76.103       11.840        0.024      331.486       -0.468      855.358
12/29/2021  23:48:00       -9.212       76.033        0.112       27.774       25.828       23.296      771.408      667.089      542.719        0.392        0.099       76.589       20.450        0.071      331.436       -0.551      855.347
12/29/2021  23:49:00      -14.530       58.087       -8.494       14.974       23.931       12.134      224.232      572.702      147.231        0.230        0.047       59.876        7.156        0.014      331.425       -0.570      855.336
12/29/2021  23:50:00      -55.621       31.302      -16.783       19.623       22.728       15.487      385.059      516.574      239.835        0.275        0.057       63.824       10.727        0.028      331.449       -0.529      855.329
12/29/2021  23:51:00      -56.959       30.800      -16.412       23.154       19.277       17.679      536.086      371.602      312.539        0.284        0.061       64.753       11.847        0.033      331.433       -0.556      855.323
12/29/2021  23:52:00      -40.415        8.399      -10.148       29.803       29.411       19.637      888.205      864.986      385.627        0.197        0.107       41.278       22.142        0.288      331.527       -0.400      855.322
12/29/2021  23:53:00      -15.733        3.248       -2.044       25.674       26.364       16.495      659.130      695.071      272.100        0.094        0.081       16.064       10.770        0.449      331.530       -0.395      855.321
12/29/2021  23:54:00      -37.521       23.097      -10.699       19.065       19.282       11.379      363.470      371.795      129.473        0.146        0.043       44.060       12.390        0.079      331.415       -0.585      855.326
12/29/2021  23:55:00      -35.678       17.234      -10.731       17.628       14.863       13.782      310.757      220.920      189.938        0.120        0.036       39.622        8.875        0.050      331.445       -0.536      855.316
12/29/2021  23:56:00      -36.238       21.486       -8.632       16.979       15.771       13.859      288.300      248.716      192.073        0.129        0.036       42.129        9.946        0.056      331.473       -0.489      855.296
12/29/2021  23:57:00      -46.858       20.659      -14.431       15.659       12.144        9.689      245.200      147.472       93.879        0.166        0.024       51.210        7.911        0.024      331.421       -0.577      855.256
12/29/2021  23:58:00        1.148       11.847       -7.871       12.658        7.531        9.969      160.238       56.715       99.373        0.026        0.016       11.902        6.740        0.321      331.436       -0.550      855.219
12/29/2021  23:59:00       -3.812       13.254       -2.051        7.590       11.269        8.404       57.610      126.998       70.625        0.022        0.013       13.792        3.446        0.062      331.451       -0.529      855.193
12/30/2021  00:00:00       10.807       32.256       -5.208       12.193       15.172        6.922      148.664      230.197       47.914        0.081        0.021       34.018        4.746        0.019      331.496       -0.454      855.174
12/30/2021  00:01:00       16.333       29.008       -0.015       17.809       13.680       11.204      317.148      187.132      125.520        0.087        0.031       33.290        4.849        0.021      331.465       -0.503      855.161
12/30/2021  00:02:00       49.698       43.802      -12.473       17.235       18.648       11.570      297.047      347.761      133.860        0.266        0.039       66.246        6.343        0.009      331.408       -0.595      855.159
12/30/2021  00:03:00       10.411        7.356      -10.946       19.458       21.113       14.191      378.595      445.769      201.390        0.065        0.051       12.747       11.516        0.816      331.421       -0.575      855.173
12/30/2021  00:04:00       12.189       13.620       -6.284       20.153       25.730       14.002      406.152      662.042      196.062        0.082        0.063       18.278        7.253        0.157      331.426       -0.566      855.205
12/30/2021  00:05:00       40.266       36.193      -10.066       28.907       18.947       18.914      835.624      358.992      357.757        0.229        0.078       54.142        9.843        0.033      331.441       -0.543      855.234
12/30/2021  00:06:00       15.324       33.342      -10.390       14.905       15.139       13.271      222.149      229.187      176.115        0.104        0.031       36.695        8.483        0.053      331.380       -0.641      855.268
12/30/2021  00:07:00       51.117       22.502      -13.142       15.581       14.415       10.747      242.777      207.793      115.502        0.193        0.028       55.850        5.941        0.011      331.334       -0.718      855.269
12/30/2021  00:08:00       15.936       -2.579       -2.795       12.718       23.131       19.099      161.755      535.046      364.783        0.066        0.053       16.143       10.804        0.448      331.437       -0.549      855.248
12/30/2021  00:09:00       15.976       11.651      -11.867       24.852       29.230       20.905      617.601      854.379      437.008        0.122        0.095       19.773       13.391        0.459      331.409       -0.596      855.210
12/30/2021  00:10:00       53.717        6.300      -14.478       41.300       40.363       20.894     1705.658     1629.142      436.567        0.345        0.189       54.085       14.785        0.075      331.336       -0.713      855.162
12/30/2021  00:11:00      125.983       19.438      -10.162       29.616       16.527       19.460      877.082      273.139      378.706        0.894        0.076      127.474       17.168        0.018      331.238       -0.875      855.118
12/30/2021  00:12:00       86.611       33.497      -14.897       39.814       23.435       19.315     1585.124      549.209      373.080        0.568        0.125       92.863       13.672        0.022      331.285       -0.795      855.087
12/30/2021  00:13:00       85.357       62.602      -21.027       33.665       18.519       18.380     1133.350      342.953      337.812        0.673        0.091      105.853       10.936        0.011      331.297       -0.778      855.079
12/30/2021  00:14:00       65.586       47.095      -17.120       29.068       25.330       13.894      844.920      641.596      193.057        0.425        0.084       80.743       15.238        0.036      331.314       -0.750      855.074
12/30/2021  00:15:00       52.724       37.307      -12.463       21.025       22.900       12.478      442.044      524.405      155.698        0.272        0.056       64.588       10.108        0.024      331.304       -0.767      855.068
12/30/2021  00:16:00       45.031       44.081      -12.930       12.464       16.006       18.646      155.342      256.195      347.687        0.245        0.038       63.015        7.432        0.014      331.341       -0.706      855.056
12/30/2021  00:17:00       41.879       48.082       -9.166       29.498       25.905       22.128      870.148      671.092      489.667        0.309        0.102       63.763       24.300        0.145      331.339       -0.708      855.036
12/30/2021  00:18:00       37.176      -10.093       -9.798       31.287       20.902       18.342      978.899      436.909      336.422        0.167        0.088       38.522       12.230        0.101      331.386       -0.633      855.017
12/30/2021  00:19:00       74.652        8.033      -13.847       13.679       16.120       11.430      187.114      259.840      130.634        0.320        0.029       75.083        6.848        0.008      331.317       -0.745      854.995
12/30/2021  00:20:00       73.589       13.628      -19.341       22.593       18.009       14.615      510.442      324.329      213.598        0.351        0.052       74.840        9.612        0.016      331.317       -0.744      854.981
12/30/2021  00:21:00       42.024        3.644       -7.905       19.519       28.794       16.346      380.987      829.083      267.184        0.166        0.074       42.182        5.443        0.017      331.377       -0.647      854.971
12/30/2021  00:22:00       51.045       21.382       -6.909       32.261       31.715       17.076     1040.766     1005.813      291.595        0.272        0.117       55.343        9.218        0.028      331.381       -0.641      854.958
12/30/2021  00:23:00       44.458      -12.429       -6.150       33.361       32.763       22.965     1112.945     1073.394      527.408        0.244        0.136       46.163       20.335        0.194      331.352       -0.688      854.947
12/30/2021  00:24:00       62.140      -17.059       -8.114       49.300       28.796       27.296     2430.499      829.230      745.068        0.411        0.200       64.439       26.759        0.172      331.362       -0.671      854.941
12/30/2021  00:25:00       92.082      -16.315       -5.317       46.109       31.173       25.882     2126.065      971.745      669.888        0.627        0.188       93.516       24.298        0.068      331.352       -0.689      854.936
12/30/2021  00:26:00       63.164       -5.095       -9.880       51.709       39.843       40.146     2673.806     1587.436     1611.680        0.499        0.294       63.369       36.841        0.338      331.420       -0.577      854.930
12/30/2021  00:27:00       36.541       -0.461       -3.535       38.374       42.221       32.826     1472.536     1782.651     1077.562        0.284        0.217       36.543       17.862        0.239      331.526       -0.402      854.937
12/30/2021  00:28:00       38.983       -8.340      -14.143       48.854       44.831       41.074     2386.712     2009.845     1687.039        0.394        0.304       39.865       31.451        0.622      331.483       -0.473      854.933
12/30/2021  00:29:00      106.465      -24.486      -10.383       66.716       42.364       42.214     4451.006     1794.715     1782.032        1.003        0.401      109.244       37.810        0.120      331.296       -0.778      854.923
12/30/2021  00:30:00       90.173       -8.868       -5.611       56.661       52.211       40.072     3210.485     2725.945     1605.747        0.789        0.377       90.608       27.291        0.091      331.305       -0.765      854.910
12/30/2021  00:31:00       39.947      -17.085        8.958       50.055       37.639       33.508     2505.539     1416.687     1122.755        0.351        0.252       43.447       31.416        0.523      331.326       -0.731      854.901
12/30/2021  00:32:00       74.398     -135.694      -28.616       48.879       76.624       32.513     2389.183     5871.277     1057.107        1.704        0.466      154.751       40.873        0.070      331.288       -0.795      854.888
12/30/2021  00:33:00      121.788     -169.144      -47.690       53.755       40.828       39.410     2889.652     1666.956     1553.130        2.591        0.305      208.427       38.916        0.035      331.206       -0.931      854.868
12/30/2021  00:34:00      105.483     -109.979      -46.535       41.914       51.284       26.286     1756.769     2630.041      690.929        1.523        0.254      152.388       16.837        0.012      331.319       -0.742      854.850
12/30/2021  00:35:00       96.368     -133.637      -39.197       43.015       43.286       25.164     1850.258     1873.676      633.236        1.652        0.218      164.759       16.985        0.011      331.381       -0.640      854.832
12/30/2021  00:36:00       99.473     -173.924      -36.937       49.776       39.971       25.821     2477.621     1597.678      666.725        2.312        0.237      200.361       30.224        0.023      331.287       -0.797      854.809
12/30/2021  00:37:00      118.668     -129.650      -39.585       40.908       47.629       28.607     1673.489     2268.567      818.362        1.861        0.238      175.759       26.997        0.024      331.322       -0.738      854.795
12/30/2021  00:38:00      110.238     -107.786      -27.834       49.490       55.226       41.158     2449.271     3049.906     1693.968        1.587        0.360      154.176       38.224        0.061      331.328       -0.728      854.783
12/30/2021  00:39:00       74.662     -106.447      -34.341       21.996       38.281       21.385      483.836     1465.428      457.312        1.025        0.120      130.020       17.039        0.017      331.339       -0.710      854.774
12/30/2021  00:40:00       76.547     -149.827      -31.988       34.522       42.886       24.308     1191.792     1839.194      590.875        1.648        0.181      168.248        9.935        0.003      331.418       -0.581      854.759
12/30/2021  00:41:00       96.007     -197.239      -39.891       36.472       47.105       26.301     1330.193     2218.921      691.733        2.698        0.212      219.364       21.263        0.009      331.294       -0.786      854.740
12/30/2021  00:42:00      106.596     -181.949      -41.999       41.654       53.667       28.371     1735.057     2880.195      804.929        2.583        0.271      210.874        8.646        0.002      331.296       -0.782      854.720
12/30/2021  00:43:00       95.897     -150.565      -37.280       38.497       50.702       30.041     1481.990     2570.715      902.460        1.910        0.248      178.511       22.772        0.016      331.359       -0.677      854.711
12/30/2021  00:44:00      122.433     -182.294      -54.264       50.417       67.557       28.961     2541.858     4563.895      838.711        2.955        0.397      219.592       19.971        0.008      331.353       -0.689      854.702
12/30/2021  00:45:00      105.149     -165.941      -44.993       61.130       78.313       38.500     3736.927     6132.894     1482.245        2.598        0.568      196.450       32.147        0.027      331.348       -0.700      854.685
12/30/2021  00:46:00       61.263     -104.967      -40.147       40.092       73.872       34.898     1607.375     5457.004     1217.880        1.233        0.414      121.537       22.091        0.033      331.421       -0.575      854.667
12/30/2021  00:47:00      111.280     -139.947      -44.160       51.386       50.666       41.063     2640.481     2567.077     1686.155        2.040        0.345      178.797       29.662        0.028      331.361       -0.675      854.644
12/30/2021  00:48:00       88.494     -157.368      -29.944       56.002       91.297       43.974     3136.279     8335.122     1933.745        2.345        0.670      180.544       44.772        0.061      331.331       -0.725      854.617
12/30/2021  00:49:00      113.546     -136.007      -48.521       59.207       84.874       42.230     3505.515     7203.656     1783.364        2.312        0.625      177.174       39.472        0.050      331.341       -0.708      854.598
12/30/2021  00:50:00       12.969      -24.078       -5.024       40.960       50.739       30.433     1677.715     2574.463      926.149        0.297        0.259       27.349       24.534        0.805      331.502       -0.442      854.577
12/30/2021  00:51:00       75.948     -158.340      -31.823       45.679       68.815       30.694     2086.580     4735.536      942.093        1.981        0.388      175.612       25.796        0.022      331.377       -0.648      854.554
12/30/2021  00:52:00       86.311     -181.113      -32.941       44.061       60.350       29.905     1941.333     3642.130      894.280        2.391        0.324      200.628       28.851        0.021      331.340       -0.709      854.517
12/30/2021  00:53:00       82.050     -149.034      -28.355       40.252       55.638       37.172     1620.260     3095.542     1381.779        1.792        0.305      170.128       25.849        0.023      331.361       -0.675      854.484
12/30/2021  00:54:00       62.387      -99.537      -22.339       67.589       71.670       44.523     4568.314     5136.566     1982.301        1.299        0.584      117.472       20.601        0.031      331.356       -0.681      854.474
12/30/2021  00:55:00       69.807      -87.813      -27.424       48.679       81.773       36.628     2369.677     6686.831     1341.602        1.187        0.520      112.179       36.663        0.107      331.383       -0.637      854.482
12/30/2021  00:56:00       17.313      -63.797      -26.909       50.868       54.691       29.383     2587.578     2991.145      863.354        0.577        0.322       66.104       18.669        0.080      331.460       -0.512      854.492
12/30/2021  00:57:00       68.797     -107.123      -33.425       32.664       56.978       29.245     1066.949     3246.449      855.278        1.125        0.258      127.312       17.975        0.020      331.323       -0.735      854.512
12/30/2021  00:58:00       85.028      -73.817      -28.611       52.948       63.245       31.162     2803.502     3999.958      971.041        1.063        0.389      112.600       32.612        0.084      331.288       -0.793      854.536
12/30/2021  00:59:00       97.204     -135.915      -39.309       46.169       76.096       28.928     2131.588     5790.586      836.834        1.911        0.438      167.097       38.007        0.052      331.285       -0.801      854.564
12/30/2021  01:00:00      133.944     -144.787      -49.088       38.527       69.461       28.673     1484.308     4824.808      822.128        2.422        0.357      197.242       26.321        0.018      331.251       -0.856      854.576
12/30/2021  01:01:00       88.715      -95.824      -27.824       75.721       85.932       52.053     5733.636     7384.238     2709.561        1.682        0.791      130.586       54.685        0.175      331.294       -0.784      854.589
12/30/2021  01:02:00      110.884     -151.250      -54.496       44.370       76.091       34.356     1968.681     5789.894     1180.351        2.354        0.447      187.542       16.414        0.008      331.228       -0.893      854.595
12/30/2021  01:03:00       95.920     -191.780      -42.631       47.649       38.438       24.749     2270.430     1477.466      612.495        2.608        0.218      214.430       28.342        0.017      331.207       -0.929      854.594
12/30/2021  01:04:00       87.676      -80.961      -24.142       35.851       71.442       40.392     1285.316     5103.923     1631.539        1.142        0.401      119.339       39.241        0.108      331.256       -0.846      854.595
12/30/2021  01:05:00       63.174     -122.713      -28.985       41.711       63.041       27.190     1739.790     3974.152      739.280        1.317        0.323      138.020       17.047        0.015      331.266       -0.828      854.591
12/30/2021  01:06:00       82.633     -172.027      -32.683       37.840       44.498       22.306     1431.837     1980.058      497.572        2.070        0.195      190.844       16.103        0.007      331.273       -0.819      854.591
12/30/2021  01:07:00      110.921     -154.369      -47.721       42.592       34.080       20.891     1814.110     1161.477      436.451        2.091        0.171      190.087       16.071        0.007      331.227       -0.894      854.591
12/30/2021  01:08:00       85.361     -157.220      -29.477       41.915       47.292       29.215     1756.882     2236.561      853.507        1.886        0.242      178.898       25.982        0.021      331.267       -0.829      854.591
12/30/2021  01:09:00       76.781     -121.811      -28.297       43.763       73.410       27.547     1915.232     5389.038      758.853        1.480        0.403      143.991       18.952        0.017      331.226       -0.895      854.581
12/30/2021  01:10:00       68.489     -158.223      -35.284       25.481       28.065       26.206      649.295      787.618      686.766        1.655        0.106      172.411       13.866        0.006      331.295       -0.782      854.580
12/30/2021  01:11:00       73.359     -114.118      -31.991       45.223       40.566       30.509     2045.085     1645.565      930.814        1.202        0.231      135.663       27.732        0.042      331.303       -0.768      854.570
12/30/2021  01:12:00       69.645      -85.158      -43.659       25.738       56.361       25.590      662.462     3176.590      654.874        0.925        0.225      110.011       17.255        0.025      331.304       -0.765      854.566
12/30/2021  01:13:00       82.616     -141.952      -40.664       26.519       38.114       18.835      703.233     1452.702      354.774        1.557        0.126      164.243       17.259        0.011      331.322       -0.736      854.572
12/30/2021  01:14:00      106.155     -139.491      -42.647       39.752       38.893       27.022     1580.203     1512.693      730.214        1.818        0.191      175.290       23.256        0.018      331.333       -0.718      854.595
12/30/2021  01:15:00       98.758     -153.425      -39.997       37.133       47.091       27.340     1378.885     2217.564      747.481        1.962        0.217      182.463       22.331        0.015      331.315       -0.750      854.616
12/30/2021  01:16:00       91.719     -131.306      -33.515       43.018       45.970       31.019     1850.552     2113.264      962.178        1.585        0.246      160.167       25.246        0.025      331.337       -0.713      854.641
12/30/2021  01:17:00       18.653      -55.328      -28.753       43.135       50.728       33.653     1860.616     2573.292     1132.508        0.490        0.278       58.388       25.372        0.189      331.449       -0.529      854.654
12/30/2021  01:18:00      -16.533      -25.731      -23.105       51.567       36.016       25.499     2659.148     1297.133      650.193        0.304        0.230       30.585       23.571        0.594      331.547       -0.368      854.652
12/30/2021  01:19:00       -8.979      -33.245      -28.194       53.515       48.777       24.915     2863.895     2379.160      620.771        0.392        0.293       34.436       23.596        0.470      331.496       -0.452      854.641
12/30/2021  01:20:00       -0.405      -45.835      -34.619       32.517       25.101       19.556     1057.346      630.044      382.455        0.268        0.103       45.837       13.052        0.081      331.446       -0.535      854.626
12/30/2021  01:21:00       -9.948      -36.001      -10.401       30.076       25.319       21.667      904.592      641.038      469.477        0.176        0.101       37.350        8.561        0.053      331.490       -0.463      854.616
12/30/2021  01:22:00      -42.291      -58.785      -13.647       51.013       46.305       30.223     2602.332     2144.190      913.446        0.554        0.283       72.417       25.308        0.122      331.459       -0.512      854.608
12/30/2021  01:23:00       57.673      -29.323      -35.912       47.151       66.686       27.375     2223.170     4447.066      749.417        0.645        0.371       64.699       32.629        0.254      331.302       -0.771      854.606
12/30/2021  01:24:00        8.345       35.156       -6.761       32.908       33.357       21.204     1082.946     1112.661      449.622        0.200        0.132       36.133       24.546        0.461      331.199       -0.942      854.605
12/30/2021  01:25:00       32.586       -5.834       -9.849       35.326       35.549       22.895     1247.926     1263.698      524.163        0.211        0.152       33.104       19.027        0.330      331.263       -0.835      854.624
12/30/2021  01:26:00       73.467      -42.366      -22.260       36.248       40.441       16.109     1313.914     1635.482      259.512        0.545        0.160       84.807       16.924        0.040      331.223       -0.900      854.639
12/30/2021  01:27:00       53.081     -110.774      -16.475       48.594       61.410       28.560     2361.382     3771.159      815.692        1.115        0.347      122.835       30.293        0.061      331.317       -0.746      854.655
12/30/2021  01:28:00       55.646     -170.220      -22.633       36.921       40.091       36.619     1363.157     1607.249     1340.923        1.845        0.216      179.084       26.847        0.022      331.279       -0.809      854.675
12/30/2021  01:29:00       81.572     -139.661      -37.834       34.863       53.166       17.488     1215.437     2826.610      305.836        1.597        0.217      161.737       17.439        0.012      331.131       -1.052      854.692
12/30/2021  01:30:00       66.197      -54.032      -20.620       31.568       25.689       20.048      996.512      659.946      401.931        0.489        0.103       85.449       20.349        0.057      331.136       -1.044      854.718
12/30/2021  01:31:00       41.470       -0.479      -20.633       25.855       30.282       19.592      668.478      916.970      383.852        0.206        0.098       41.473        7.616        0.034      331.200       -0.937      854.732
12/30/2021  01:32:00       36.427      -45.045      -21.789       32.422       33.485       19.544     1051.156     1121.260      381.968        0.319        0.128       57.930        8.410        0.021      331.339       -0.710      854.736
12/30/2021  01:33:00       47.817      -38.841       -9.114       30.693       27.740       21.274      942.066      769.517      452.580        0.302        0.108       61.605       18.042        0.086      331.221       -0.901      854.742
12/30/2021  01:34:00       28.559      -12.569      -16.805       29.537       32.313       22.229      872.425     1044.114      494.110        0.183        0.121       31.203       12.689        0.165      331.312       -0.753      854.744
12/30/2021  01:35:00        0.440       -4.354       -5.670       13.576       24.564       11.253      184.299      603.371      126.632        0.048        0.046        4.376       11.286        6.651      331.278       -0.807      854.751
12/30/2021  01:36:00        7.158       18.206       -4.381       32.663       31.836       13.318     1066.885     1013.521      177.367        0.133        0.113       19.563       11.888        0.369      331.252       -0.851      854.750
12/30/2021  01:37:00       55.482       18.938       -9.883       21.494       14.793       10.787      461.985      218.828      116.366        0.217        0.040       58.626        7.066        0.015      331.160       -1.004      854.752
12/30/2021  01:38:00       39.875       20.836      -12.414       22.523       14.909       10.720      507.299      222.283      114.909        0.151        0.042       44.990        3.178        0.005      331.224       -0.898      854.749
12/30/2021  01:39:00       17.727        0.796       -7.767       25.771       15.867       10.252      664.121      251.754      105.101        0.070        0.051       17.745        3.757        0.045      331.185       -0.964      854.743
12/30/2021  01:40:00       24.388       14.233       -7.423       13.773       16.961        8.717      189.697      287.683       75.990        0.070        0.028       28.238        5.240        0.034      331.136       -1.045      854.749
12/30/2021  01:41:00       33.823       -4.564       -9.281       20.932       17.494       15.381      438.164      306.046      236.570        0.112        0.049       34.129        9.487        0.077      331.177       -0.977      854.751
12/30/2021  01:42:00       29.326       -0.347        0.188       17.906       17.893       11.715      320.631      320.144      137.245        0.082        0.039       29.328        9.069        0.096      331.241       -0.870      854.784
12/30/2021  01:43:00       59.584       18.868      -11.899       13.451       13.181        8.220      180.923      173.740       67.571        0.223        0.021       62.500        4.965        0.006      331.158       -1.006      854.819
12/30/2021  01:44:00       37.264       -4.820      -15.540       14.788       11.320       13.647      218.685      128.132      186.243        0.109        0.027       37.575        3.928        0.011      331.172       -0.983      854.842
12/30/2021  01:45:00       40.402       35.378      -11.128       19.660       21.254       15.482      386.532      451.734      239.682        0.204        0.054       53.702       16.893        0.099      331.184       -0.961      854.873
12/30/2021  01:46:00       46.519       34.610       -5.141       27.886       25.513       17.445      777.634      650.891      304.313        0.256        0.087       57.981       14.951        0.066      331.172       -0.984      854.883
12/30/2021  01:47:00       44.083        2.013       -5.650       34.398       22.991       18.395     1183.256      528.577      338.388        0.201        0.103       44.128       19.429        0.194      331.232       -0.885      854.899
12/30/2021  01:48:00      104.029        9.690       -8.165       44.705       16.388       19.548     1998.548      268.567      382.126        0.682        0.132      104.479       21.459        0.042      331.179       -0.972      854.905
12/30/2021  01:49:00       48.260       -9.399      -15.149       37.550       26.092       19.161     1410.029      680.772      367.145        0.255        0.123       49.167       17.371        0.125      331.260       -0.840      854.914
12/30/2021  01:50:00       61.091       11.222      -14.362       35.097       27.557       24.246     1231.806      759.377      587.876        0.332        0.129       62.113        6.218        0.010      331.238       -0.873      854.913
12/30/2021  01:51:00       40.152       -4.768      -14.124       32.774       26.704       13.578     1074.159      713.084      184.366        0.190        0.099       40.434        7.434        0.034      331.232       -0.886      854.928
12/30/2021  01:52:00        1.741      -27.380      -21.772       19.608       26.340       13.300      384.487      693.798      176.882        0.124        0.063       27.436       10.134        0.136      331.326       -0.731      854.941
12/30/2021  01:53:00       21.018       12.670      -13.773       24.309       20.145       15.299      590.940      405.829      234.053        0.101        0.062       24.541        9.747        0.158      331.310       -0.756      854.948
12/30/2021  01:54:00       21.361       12.340      -11.624       16.260       32.920       19.043      264.385     1083.735      362.617        0.123        0.086       24.669       11.289        0.209      331.265       -0.831      854.950
12/30/2021  01:55:00        3.730       -2.572      -12.864       29.696       28.021       17.091      881.840      785.182      292.119        0.107        0.098        4.531       11.979        6.988      331.290       -0.789      854.946
12/30/2021  01:56:00       19.020      -11.532      -28.055       21.258       41.967       18.927      451.892     1761.229      358.229        0.193        0.129       22.243       12.955        0.339      331.323       -0.737      854.932
12/30/2021  01:57:00       -2.718       -2.767      -13.225       33.016       30.856       24.216     1090.063      952.101      586.403        0.141        0.131        3.878       16.103       17.240      331.371       -0.657      854.924
12/30/2021  01:58:00       -7.921      -40.160      -20.881       41.751       30.830       22.478     1743.109      950.470      505.267        0.265        0.160       40.934       12.094        0.087      331.424       -0.569      854.912
12/30/2021  01:59:00      -23.638        8.919      -12.014       30.916       22.918       18.209      955.803      525.249      331.559        0.130        0.091       25.264       14.084        0.311      331.440       -0.544      854.919
12/30/2021  02:00:00       -3.272      -30.848      -12.230       30.401       22.905       20.470      924.246      524.662      419.025        0.149        0.093       31.021       11.468        0.137      331.431       -0.560      854.937
12/30/2021  02:01:00        3.395      -18.439       -9.322       23.148       29.599       19.064      535.823      876.123      363.419        0.111        0.089       18.749       16.308        0.757      331.351       -0.689      854.952
12/30/2021  02:02:00       -4.181       -1.331       -8.462       14.368       14.207       15.864      206.449      201.832      251.651        0.038        0.033        4.387        9.387        4.578      331.370       -0.658      854.964
12/30/2021  02:03:00       -5.902       -5.884      -10.372       19.396       21.388       18.969      376.187      457.439      359.814        0.069        0.060        8.333       11.209        1.809      331.372       -0.656      854.977
12/30/2021  02:04:00      -19.033        3.274       -9.194       40.026       31.132       22.624     1602.050      969.193      511.843        0.177        0.154       19.313       16.450        0.726      331.317       -0.748      854.986
12/30/2021  02:05:00        5.114       15.075       -6.544       16.020       12.767       12.422      256.645      162.998      154.311        0.043        0.029       15.919        5.819        0.134      331.334       -0.721      855.002
12/30/2021  02:06:00      -13.496       15.566       -4.548       20.879       19.802       15.074      435.953      392.112      227.234        0.075        0.053       20.602        6.815        0.109      331.313       -0.753      855.014
12/30/2021  02:07:00        5.321        1.168       -4.064       16.725        8.813        8.774      279.725       77.663       76.989        0.024        0.022        5.448        7.287        1.789      331.302       -0.772      855.025
12/30/2021  02:08:00      -10.706       20.156       -2.926       12.074       20.262        7.046      145.788      410.546       49.646        0.057        0.030       22.823        5.482        0.058      331.320       -0.742      855.035
12/30/2021  02:09:00        2.138       24.837       -4.963       16.204       20.988       14.906      262.557      440.508      222.178        0.079        0.046       24.929        9.837        0.156      331.364       -0.669      855.041
12/30/2021  02:10:00      -11.304       15.725       -8.120       15.265       22.549       16.975      233.033      508.443      288.161        0.074        0.051       19.366        6.374        0.108      331.339       -0.711      855.047
12/30/2021  02:11:00      -24.150       -4.069      -10.832       16.270       22.300       14.625      264.712      497.281      213.876        0.085        0.049       24.491       10.386        0.180      331.406       -0.600      855.073
12/30/2021  02:12:00       -8.363      -35.372       -1.053       27.471       28.434       25.625      754.631      808.488      656.625        0.177        0.111       36.347       18.562        0.261      331.566       -0.336      855.090
12/30/2021  02:13:00       28.930      -22.309      -14.496       24.119       30.201       18.206      581.729      912.107      331.461        0.168        0.091       36.532       17.158        0.221      331.409       -0.594      855.102
12/30/2021  02:14:00       -0.049       -7.329      -10.747       28.028       33.395       15.062      785.544     1115.219      226.853        0.115        0.106        7.329       11.445        2.438      331.489       -0.464      855.117
12/30/2021  02:15:00       -7.526       18.089        2.978       22.287       22.396       14.359      496.717      501.587      206.180        0.080        0.060       19.592        8.693        0.197      331.412       -0.591      855.137
12/30/2021  02:16:00      -16.622       14.864        0.219       36.037       38.324       36.154     1298.682     1468.719     1307.110        0.229        0.204       22.299       18.140        0.662      331.310       -0.756      855.149
12/30/2021  02:17:00      -16.721      -12.974        0.064       42.505       33.078       28.388     1806.712     1094.147      805.852        0.208        0.185       21.164       17.421        0.678      331.349       -0.693      855.161
12/30/2021  02:18:00       51.933      -74.406      -23.169       58.605       60.162       32.528     3434.595     3619.503     1058.074        0.844        0.406       90.738       35.485        0.153      331.221       -0.904      855.162
12/30/2021  02:19:00       68.727      -80.362      -33.269       35.337       57.439       20.569     1248.710     3299.255      423.073        0.863        0.249      105.742       15.117        0.020      331.225       -0.898      855.153
12/30/2021  02:20:00       78.157     -128.836      -35.305       42.673       33.878       30.413     1820.978     1147.731      924.956        1.392        0.195      150.689       27.440        0.033      331.156       -1.011      855.134
12/30/2021  02:21:00      120.479     -196.954      -44.499       23.743       24.708       13.395      563.707      610.473      179.431        2.832        0.068      230.881       14.045        0.004      331.045       -1.200      855.104
12/30/2021  02:22:00       76.778      -35.885      -25.277       33.773       79.287       25.805     1140.640     6286.360      665.900        0.796        0.405       84.750       16.915        0.040      331.152       -1.017      855.089
12/30/2021  02:23:00       32.775      -75.743      -29.776       37.289       44.042       34.260     1390.434     1939.742     1173.769        0.610        0.225       82.530       27.038        0.107      331.239       -0.873      855.081
12/30/2021  02:24:00       95.373     -146.595      -30.839       41.795       36.091       23.362     1746.817     1302.551      545.796        1.757        0.180      174.889       22.610        0.017      331.163       -1.000      855.077
12/30/2021  02:25:00       66.600      -94.679      -37.597       33.036       84.088       22.162     1091.396     7070.717      491.136        1.173        0.433      115.757       19.864        0.029      331.234       -0.880      855.072
12/30/2021  02:26:00       54.584      -73.434      -26.822       58.559       65.610       31.298     3429.191     4304.691      979.590        0.890        0.436       91.499       26.134        0.082      331.223       -0.900      855.061
12/30/2021  02:27:00       73.244     -147.926      -34.367       38.183       46.862       26.385     1457.953     2196.053      696.171        1.639        0.218      165.066       24.141        0.021      331.232       -0.885      855.059
12/30/2021  02:28:00       89.465     -173.475      -48.139       32.466       36.305       21.801     1054.035     1318.018      475.287        2.163        0.142      195.186       13.390        0.005      331.243       -0.868      855.043
12/30/2021  02:29:00       85.649     -158.244      -34.066       40.028       42.302       25.427     1602.235     1789.450      646.550        1.879        0.202      179.935       22.920        0.016      331.229       -0.892      855.027
12/30/2021  02:30:00      108.028     -106.007      -36.248       47.162       58.527       33.519     2224.233     3425.373     1123.510        1.550        0.339      151.353       31.113        0.042      331.224       -0.899      855.022
12/30/2021  02:31:00       78.161     -109.507      -42.239       37.559       22.760       18.350     1410.692      518.016      336.730        1.107        0.113      134.540       12.735        0.009      331.203       -0.933      855.007
12/30/2021  02:32:00       56.026     -149.157      -34.418       25.994       35.444       20.114      675.666     1256.310      404.591        1.445        0.117      159.332       14.279        0.008      331.183       -0.966      854.993
12/30/2021  02:33:00       64.336     -112.673      -19.777       42.704       53.078       34.129     1823.639     2817.327     1164.814        1.151        0.290      129.747       32.468        0.063      331.233       -0.883      854.968
12/30/2021  02:34:00       40.825      -98.107      -17.028       37.027       50.826       34.890     1370.964     2583.328     1217.292        0.838        0.259      106.262       31.386        0.087      331.246       -0.864      854.957
12/30/2021  02:35:00       58.902     -154.114      -28.397       32.704       31.385       24.383     1069.560      984.997      594.522        1.534        0.132      164.987       17.744        0.012      331.258       -0.843      854.946
12/30/2021  02:36:00       81.468      -95.958      -34.335       31.335       49.286       24.689      981.878     2429.067      609.525        1.052        0.201      125.877       20.411        0.026      331.105       -1.095      854.930
12/30/2021  02:37:00       72.625     -126.738      -31.620       34.449       42.096       22.262     1186.731     1772.112      495.598        1.289        0.173      146.071       15.133        0.011      331.069       -1.154      854.922
12/30/2021  02:38:00       76.322      -83.089      -23.691       29.715       34.115       22.748      882.961     1163.816      517.455        0.793        0.128      112.822       15.480        0.019      331.186       -0.961      854.917
12/30/2021  02:39:00       33.812      -45.969      -29.363       44.327       47.668       19.415     1964.878     2272.219      376.949        0.437        0.231       57.065       11.297        0.039      331.179       -0.973      854.918
12/30/2021  02:40:00       16.341        1.405       -4.390       44.163       38.718       24.442     1950.380     1499.106      597.396        0.217        0.202       16.401       24.414        2.216      331.271       -0.820      854.909
12/30/2021  02:41:00       23.878      -11.869       -6.969       47.469       29.022       17.265     2253.324      842.300      298.088        0.208        0.170       26.665        7.873        0.087      331.219       -0.906      854.908
12/30/2021  02:42:00       23.779        8.823       -3.757       23.085       41.612       23.713      532.938     1731.558      562.310        0.174        0.141       25.363       11.565        0.208      331.219       -0.906      854.905
12/30/2021  02:43:00       19.383      -25.477       -3.783       32.098       45.532       19.665     1030.252     2073.121      386.697        0.226        0.175       32.012       14.049        0.193      331.303       -0.768      854.902
12/30/2021  02:44:00       71.478      -13.101      -18.353       48.035       46.023       32.115     2307.330     2118.126     1031.342        0.554        0.273       72.668       23.255        0.102      331.088       -1.123      854.895
12/30/2021  02:45:00       59.371      -19.061      -14.341       55.725       38.438       36.488     3105.247     1477.442     1331.395        0.500        0.296       62.356       27.525        0.195      331.053       -1.180      854.883
12/30/2021  02:46:00       76.637     -103.222      -38.285       70.416       65.303       48.237     4958.383     4264.538     2326.837        1.477        0.577      128.562       50.381        0.154      331.081       -1.135      854.857
12/30/2021  02:47:00      122.812      -94.308      -42.813       29.564       46.132       19.388      874.043     2128.143      375.890        1.459        0.169      154.844       20.510        0.018      330.933       -1.378      854.847
12/30/2021  02:48:00       42.645      -43.583      -12.997       22.627       41.765       22.613      511.978     1744.287      511.345        0.333        0.138       60.976       17.737        0.085      331.026       -1.227      854.835
12/30/2021  02:49:00       12.735      -37.317      -28.176       46.360       42.579       31.945     2149.286     1812.952     1020.469        0.366        0.249       39.431       19.738        0.251      331.137       -1.041      854.835
12/30/2021  02:50:00      -13.305        6.916        0.996       39.366       39.327       29.139     1549.717     1546.580      849.106        0.208        0.197       14.995       23.480        2.452      331.118       -1.072      854.825
12/30/2021  02:51:00       24.892      -19.689      -12.164       63.148       44.073       31.507     3987.726     1942.454      992.705        0.404        0.346       31.737       24.535        0.598      331.090       -1.118      854.817
12/30/2021  02:52:00       88.913      -15.037      -18.789       46.947       42.997       31.585     2204.014     1848.699      997.591        0.677        0.253       90.176       20.569        0.052      331.032       -1.215      854.818
12/30/2021  02:53:00       31.110      -16.965        0.526       42.336       45.140       32.274     1792.378     2037.594     1041.593        0.306        0.244       35.435       23.738        0.449      331.053       -1.179      854.809
12/30/2021  02:54:00       29.248      -20.393       -1.019       49.193       39.820       34.820     2419.993     1585.662     1212.460        0.324        0.261       35.655       30.303        0.722      331.043       -1.196      854.816
12/30/2021  02:55:00       14.909        3.135       -5.512       58.023       47.680       36.147     3366.698     2273.362     1306.599        0.360        0.347       15.235       28.925        3.604      331.040       -1.202      854.813
12/30/2021  02:56:00       42.271       -6.082       -5.415       45.493       28.760       31.222     2069.643      827.112      974.786        0.286        0.194       42.707       24.480        0.329      330.999       -1.269      854.808
12/30/2021  02:57:00      126.846      -38.549      -22.112       47.500       49.397       29.567     2256.291     2440.030      874.182        1.182        0.279      132.574       22.030        0.028      330.930       -1.382      854.803
12/30/2021  02:58:00       75.288      -29.394      -19.257       56.482       47.426       33.868     3190.248     2249.225     1147.056        0.674        0.329       80.823       29.999        0.138      330.966       -1.324      854.791
12/30/2021  02:59:00      103.729      -45.948       -8.104       63.962       52.467       42.017     4091.168     2752.838     1765.412        1.077        0.430      113.450       35.978        0.101      330.923       -1.394      854.764
12/30/2021  03:00:00       48.083       -0.232      -14.154       67.922       56.134       47.698     4613.464     3150.984     2275.093        0.627        0.502       48.083       40.258        0.701      330.913       -1.410      854.755
12/30/2021  03:01:00       51.906      -17.827       -1.397       67.080       52.791       37.841     4499.699     2786.913     1431.927        0.586        0.436       54.882       36.824        0.450      330.988       -1.287      854.750
12/30/2021  03:02:00        3.374      -34.988      -21.738       54.922       54.271       29.317     3016.376     2945.310      859.484        0.426        0.341       35.150       17.416        0.245      331.091       -1.117      854.757
12/30/2021  03:03:00      -11.523      -67.280       -6.934       43.106       36.282       34.900     1858.145     1316.379     1217.990        0.455        0.220       68.259       16.956        0.062      331.150       -1.019      854.771
12/30/2021  03:04:00       45.609      -87.333      -27.645       56.549       57.964       30.310     3197.777     3359.846      918.724        0.897        0.374       98.525       24.209        0.060      330.962       -1.328      854.769
12/30/2021  03:05:00       55.564     -110.761      -23.533       46.863       69.456       31.053     2196.154     4824.139      964.279        1.195        0.399      123.916       32.076        0.067      331.042       -1.198      854.753
12/30/2021  03:06:00       92.146     -124.364      -30.291       25.194       25.316       22.342      634.746      640.906      499.156        1.332        0.089      154.781       18.116        0.014      330.918       -1.403      854.743
12/30/2021  03:07:00       70.569      -66.452      -19.332       36.694       36.389       25.949     1346.478     1324.155      673.351        0.656        0.167       96.932       24.973        0.066      330.921       -1.398      854.741
12/30/2021  03:08:00       -8.327      -13.647      -17.332       26.187       42.705       23.406      685.775     1823.721      547.851        0.181        0.153       15.986       19.085        1.425      331.184       -0.965      854.741
12/30/2021  03:09:00      -27.451      -25.733       -4.282       24.731       16.191       19.329      611.616      262.154      373.610        0.134        0.062       37.627       14.153        0.141      331.195       -0.944      854.739
12/30/2021  03:10:00       -4.089      -10.246      -17.971       24.449       28.275       15.949      597.740      799.495      254.382        0.105        0.083       11.032        5.139        0.217      331.253       -0.851      854.743
12/30/2021  03:11:00      -57.786      -41.368      -19.511       26.522       36.201       19.676      703.432     1310.522      387.157        0.392        0.120       71.067       12.208        0.030      331.098       -1.106      854.746
12/30/2021  03:12:00       -8.889        7.010       -4.708       34.441       31.060       27.365     1186.187      964.708      748.861        0.152        0.145       11.321       18.427        2.650      331.158       -1.005      854.744
12/30/2021  03:13:00      -20.045      -12.563      -11.175       43.650       28.464       23.529     1905.304      810.201      553.626        0.198        0.163       23.656       19.132        0.654      331.126       -1.057      854.752
12/30/2021  03:14:00      -67.836        2.601      -11.331       25.214       19.097       18.707      635.745      364.713      349.970        0.304        0.068       67.886       13.340        0.039      330.922       -1.395      854.760
12/30/2021  03:15:00      -58.227       -5.247       -8.688       44.295       32.195       21.634     1962.060     1036.497      468.033        0.348        0.173       58.463       16.403        0.079      330.934       -1.375      854.773
12/30/2021  03:16:00      -55.451       -2.082        3.682       45.422       35.465       23.613     2063.164     1257.788      557.553        0.348        0.194       55.490       21.624        0.152      330.948       -1.351      854.773
12/30/2021  03:17:00       -7.748      -16.515      -14.560       32.509       23.589       19.025     1056.804      556.419      361.954        0.126        0.099       18.242       13.455        0.544      331.024       -1.228      854.767
12/30/2021  03:18:00      -36.941       -5.511       -3.500       36.497       16.468       13.584     1332.010      271.207      184.537        0.160        0.089       37.350       12.407        0.110      331.003       -1.262      854.757
12/30/2021  03:19:00      -17.115       37.290       -0.548       35.496       23.648       17.670     1259.953      559.236      312.219        0.191        0.107       41.030       15.887        0.150      330.972       -1.314      854.741
12/30/2021  03:20:00      -29.459       27.232      -12.651       21.790       16.046       12.237      474.815      257.463      149.751        0.133        0.044       40.117        8.577        0.046      330.959       -1.333      854.724
12/30/2021  03:21:00        1.464      -20.688       -4.765       23.873       27.657       19.388      569.943      764.885      375.909        0.108        0.086       20.739       14.780        0.508      331.101       -1.100      854.709
12/30/2021  03:22:00       29.724      -55.634      -25.863       34.822       26.402       26.858     1212.565      697.043      721.377        0.364        0.132       63.076       15.456        0.060      331.147       -1.026      854.707
12/30/2021  03:23:00      -32.629       41.975       -1.353       28.050       28.618       14.566      786.780      818.965      212.155        0.232        0.091       53.165       14.052        0.070      331.010       -1.252      854.690
12/30/2021  03:24:00      -50.749      -13.661      -21.166       21.278       27.023       21.070      452.749      730.216      443.955        0.242        0.081       52.556       11.362        0.047      331.186       -0.961      854.669
12/30/2021  03:25:00      -29.461      -29.349       -9.241       28.457       33.687       25.053      809.824     1134.786      627.674        0.219        0.129       41.585       18.104        0.190      331.204       -0.931      854.657
12/30/2021  03:26:00      -32.860      -23.925       -3.920       30.995       27.545       27.625      960.665      758.719      763.114        0.207        0.124       40.647        7.032        0.030      331.196       -0.944      854.648
12/30/2021  03:27:00      -23.490      -32.277      -11.693       40.043       43.415       19.728     1603.420     1884.842      389.193        0.280        0.194       39.919       18.371        0.212      331.266       -0.829      854.645
12/30/2021  03:28:00       23.799      -31.038      -15.579       29.421       27.475       26.210      865.621      754.899      686.961        0.204        0.115       39.112       12.124        0.096      331.110       -1.086      854.629
12/30/2021  03:29:00       65.577       19.191      -14.949       32.289       33.463       20.322     1042.579     1119.774      412.975        0.373        0.129       68.327       16.530        0.059      330.932       -1.378      854.604
12/30/2021  03:30:00       16.166        9.627       -4.511       25.422       28.831       14.102      646.279      831.241      198.879        0.103        0.084       18.815        7.752        0.170      330.925       -1.390      854.590
12/30/2021  03:31:00      -32.881       -9.396      -23.046       23.846       27.433       16.162      568.627      752.560      261.199        0.164        0.079       34.197       10.840        0.100      331.030       -1.218      854.585
12/30/2021  03:32:00       28.221      -26.867       -3.968       29.626       25.603       27.481      877.692      655.525      755.222        0.191        0.114       38.965       11.088        0.081      331.102       -1.099      854.576
12/30/2021  03:33:00       66.282       -8.239      -11.988       28.925       27.442       21.255      836.656      753.090      451.779        0.332        0.102       66.792        8.404        0.016      330.922       -1.395      854.567
12/30/2021  03:34:00       49.848       35.626       -1.859       35.112       28.412       19.611     1232.887      807.265      384.573        0.309        0.121       61.270       19.774        0.104      330.919       -1.399      854.563
12/30/2021  03:35:00       36.261       10.442      -15.577       23.341       36.095       18.156      544.809     1302.850      329.634        0.192        0.109       37.734       10.751        0.081      330.903       -1.428      854.559
12/30/2021  03:36:00        0.781       50.130        0.988       32.859       21.497       25.239     1079.742      462.115      636.999        0.235        0.109       50.136       16.943        0.114      330.852       -1.510      854.568
12/30/2021  03:37:00      -43.134       79.716      -27.249       37.560       23.654       21.146     1410.783      559.513      447.139        0.569        0.121       90.638        4.626        0.003      330.934       -1.376      854.568
12/30/2021  03:38:00      -35.340       22.826      -26.324       33.370       24.552       14.841     1113.546      602.777      220.269        0.220        0.097       42.070       19.103        0.206      330.893       -1.442      854.560
12/30/2021  03:39:00       20.871       16.779      -39.279       22.961       18.993       22.049      527.216      360.720      486.144        0.182        0.069       26.780       15.578        0.338      330.927       -1.387      854.541
12/30/2021  03:40:00       -2.708       21.487      -13.224       11.772       18.119       14.993      138.587      328.303      224.797        0.067        0.035       21.657        9.348        0.186      330.933       -1.377      854.514
12/30/2021  03:41:00       24.705       27.233      -13.146       19.782       15.997       17.048      391.311      255.892      290.625        0.123        0.047       36.769       12.607        0.118      330.889       -1.449      854.476
12/30/2021  03:42:00       37.990       48.567      -10.208       32.990       19.134       12.181     1088.356      366.097      148.385        0.275        0.080       61.661        9.987        0.026      330.832       -1.542      854.435
12/30/2021  03:43:00        1.252       18.740       -2.406       23.080       19.848       17.616      532.665      393.951      310.310        0.080        0.062       18.782       10.506        0.313      330.943       -1.362      854.401
12/30/2021  03:44:00      -22.116        9.201       11.334       25.323       26.450       16.192      641.230      699.604      262.195        0.115        0.080       23.953        9.118        0.145      330.967       -1.321      854.380
12/30/2021  03:45:00      -37.892      -33.550      -24.996       32.215       39.674       16.555     1037.798     1574.029      274.056        0.304        0.144       50.611       16.445        0.106      331.049       -1.186      854.359
12/30/2021  03:46:00      -55.506      -20.519      -20.149       26.559       17.427       19.938      705.392      303.705      397.540        0.266        0.070       59.177        4.379        0.005      330.956       -1.338      854.355
12/30/2021  03:47:00       29.196      -81.577      -18.726       42.079       29.602       25.079     1770.609      876.289      628.942        0.557        0.164       86.645       28.120        0.105      330.959       -1.334      854.337
12/30/2021  03:48:00        0.379      -14.937       -6.202       31.502       29.138       27.081      992.355      849.040      733.359        0.142        0.129       14.942       11.843        0.628      331.060       -1.167      854.324
12/30/2021  03:49:00      -22.558       39.296      -14.858       19.388       24.444       15.385      375.882      597.507      236.701        0.174        0.061       45.311        9.129        0.041      330.981       -1.298      854.296
12/30/2021  03:50:00       -4.539       12.183      -16.473       21.865       20.449       11.069      478.082      418.170      122.525        0.073        0.051       13.001        7.804        0.360      330.964       -1.325      854.292
12/30/2021  03:51:00       -5.394        9.791       -0.486       27.279       24.477       20.602      744.171      599.124      424.438        0.095        0.088       11.179       14.875        1.771      330.969       -1.318      854.305
12/30/2021  03:52:00       -1.717       -6.392      -15.338       16.565       16.626       14.829      274.404      276.436      219.908        0.052        0.039        6.619        7.903        1.426      330.934       -1.378      854.314
12/30/2021  03:53:00      -13.189       -1.118       -9.952       19.789       10.793        9.700      391.595      116.481       94.081        0.044        0.030       13.236        4.777        0.130      330.975       -1.310      854.315
12/30/2021  03:54:00      -14.134       11.735       -2.232       22.015       18.721       14.307      484.643      350.487      204.683        0.069        0.052       18.370       10.388        0.320      330.917       -1.404      854.308
12/30/2021  03:55:00        5.722      -11.594       -4.542       25.194       15.423       18.277      634.760      237.875      334.065        0.070        0.060       12.929        6.457        0.249      330.873       -1.475      854.309
12/30/2021  03:56:00       -9.869      -22.188      -25.514       27.287       34.441       33.329      744.602     1186.203     1110.834        0.214        0.152       24.284       19.832        0.667      330.937       -1.371      854.309
12/30/2021  03:57:00      -24.069      -25.958      -15.752       36.595       22.779       26.140     1339.162      518.873      683.287        0.202        0.127       35.399       16.138        0.208      330.937       -1.371      854.307
12/30/2021  03:58:00      -18.351       -4.660       -3.773       43.967       21.166       16.323     1933.063      448.019      266.446        0.151        0.132       18.933        9.632        0.259      330.965       -1.325      854.297
12/30/2021  03:59:00       -1.029        1.530       -7.418       23.432       20.975       16.814      549.038      439.951      282.722        0.066        0.064        1.844       12.368       45.002      330.991       -1.283      854.289
12/30/2021  04:00:00       -8.207       -8.402       -9.222       22.602       23.219       17.610      510.849      539.108      310.096        0.079        0.068       11.745       12.120        1.065      331.018       -1.237      854.285
12/30/2021  04:01:00       -8.898       -6.559       -5.976       24.886       25.731       18.459      619.305      662.086      340.750        0.089        0.081       11.054       10.044        0.826      330.981       -1.300      854.279
12/30/2021  04:02:00      -13.928       -7.320       -2.656       34.437       28.631       21.096     1185.930      819.731      445.038        0.135        0.123       15.734        9.442        0.360      330.930       -1.381      854.256
12/30/2021  04:03:00      -52.652       -4.556      -16.839       49.840       27.279       27.965     2484.037      744.123      782.024        0.354        0.201       52.849       12.730        0.058      330.863       -1.492      854.241
12/30/2021  04:04:00     -121.816      -53.113      -24.731       17.568       18.073       15.476      308.648      326.632      239.521        0.957        0.044      132.891        6.533        0.002      330.642       -1.854      854.240
12/30/2021  04:05:00      -75.476      -30.202       -6.927       46.549       34.291       25.053     2166.807     1175.871      627.630        0.531        0.199       81.294       26.591        0.107      330.799       -1.596      854.237
12/30/2021  04:06:00     -140.919       27.764      -11.193       45.172       31.302       17.827     2040.475      979.805      317.808        1.205        0.167      143.628       13.811        0.009      330.734       -1.705      854.231
12/30/2021  04:07:00      -58.718        9.828       -5.032       31.281       30.540       15.424      978.524      932.722      237.910        0.286        0.107       59.535       14.322        0.058      330.695       -1.768      854.227
12/30/2021  04:08:00      -82.630        3.068       -8.430       40.596       20.670       25.231     1648.009      427.245      636.583        0.481        0.136       82.687       20.031        0.059      330.769       -1.648      854.199
12/30/2021  04:09:00      -75.651       -9.666       -2.250       52.309       38.747       37.660     2736.265     1501.324     1418.269        0.574        0.283       76.266       31.731        0.173      330.750       -1.676      854.160
12/30/2021  04:10:00      -66.069      -17.261       -3.580       57.022       33.264       33.435     3251.560     1106.509     1117.895        0.507        0.274       68.286       30.105        0.194      330.729       -1.712      854.130
12/30/2021  04:11:00     -100.997       -3.636      -10.664       44.068       41.839       19.797     1941.979     1750.473      391.920        0.721        0.204      101.063       11.833        0.014      330.669       -1.810      854.098
12/30/2021  04:12:00      -27.399       -7.989       -8.208       31.968       26.530       17.950     1021.922      703.846      322.218        0.146        0.102       28.540       13.121        0.211      330.857       -1.502      854.075
12/30/2021  04:13:00      -89.739      -12.089       -4.533       64.729       32.508       25.771     4189.856     1056.784      664.169        0.706        0.296       90.549       24.420        0.073      330.745       -1.685      854.065
12/30/2021  04:14:00     -114.102       -5.142       -6.208       36.071       29.448       20.449     1301.130      867.209      418.165        0.783        0.129      114.218       16.307        0.020      330.679       -1.793      854.067
12/30/2021  04:15:00      -78.886       13.110       -2.986       38.283       29.893       22.475     1465.618      893.571      505.122        0.463        0.143       79.968       20.381        0.065      330.802       -1.592      854.077
12/30/2021  04:16:00      -64.451       10.348       -8.761       30.889       26.424       18.055      954.108      698.239      325.968        0.316        0.099       65.276       13.063        0.040      330.831       -1.544      854.076
12/30/2021  04:17:00     -111.522       15.780       -6.828       55.174       32.110       21.812     3044.123     1031.038      475.784        0.864        0.228      112.633       20.111        0.032      330.769       -1.645      854.073
12/30/2021  04:18:00      -70.484       11.486       -8.943       55.718       23.350       22.224     3104.502      545.208      493.920        0.466        0.207       71.414       16.966        0.056      330.736       -1.699      854.068
12/30/2021  04:19:00      -51.125      -26.743       -4.140       40.349       22.623       29.955     1628.037      511.809      897.278        0.319        0.152       57.697       28.923        0.251      330.752       -1.674      854.063
12/30/2021  04:20:00      -45.023        4.689       -9.979       35.017       26.350       26.229     1226.169      694.303      687.975        0.238        0.130       45.266       25.676        0.322      330.782       -1.625      854.058
12/30/2021  04:21:00      -56.281       48.461      -11.778       30.617       21.163       20.196      937.407      447.872      407.895        0.372        0.090       74.270       15.293        0.042      330.757       -1.665      854.037
12/30/2021  04:22:00      -31.132        2.546      -17.695       35.158       30.333       21.974     1236.084      920.099      482.840        0.196        0.132       31.236       18.610        0.355      330.897       -1.437      854.024
12/30/2021  04:23:00      -58.362       31.930        1.006       31.307       25.142       14.941      980.155      632.122      223.247        0.313        0.092       66.525       14.965        0.051      330.753       -1.671      854.027
12/30/2021  04:24:00      -64.125       42.995       -5.086       21.019       17.638       16.795      441.807      311.082      282.064        0.351        0.052       77.205       12.342        0.026      330.708       -1.746      854.033
12/30/2021  04:25:00      -78.879       43.170       -7.128       32.180       24.604       17.984     1035.561      605.368      323.432        0.505        0.098       89.920       16.659        0.034      330.736       -1.700      854.037
12/30/2021  04:26:00      -44.809       11.606       -7.549       43.102       26.677       17.992     1857.821      711.654      323.705        0.255        0.145       46.287       14.387        0.097      330.890       -1.448      854.031
12/30/2021  04:27:00      -87.428       51.084       -8.239       30.205       31.639       22.206      912.325     1000.999      493.121        0.636        0.120      101.258       15.072        0.022      330.748       -1.680      854.018
12/30/2021  04:28:00      -50.463        8.568       -6.628       33.596       31.680       24.636     1128.685     1003.651      606.909        0.270        0.137       51.185       20.342        0.158      330.769       -1.646      854.007
12/30/2021  04:29:00      -48.094      -15.130       -8.519       41.608       31.779       19.875     1731.228     1009.925      395.015        0.287        0.157       50.418       10.584        0.044      330.783       -1.623      853.996
12/30/2021  04:30:00      -87.170      -35.175       -4.775       51.239       42.940       37.783     2625.404     1843.837     1427.592        0.738        0.295       93.999       30.218        0.103      330.839       -1.531      853.982
12/30/2021  04:31:00     -105.915      -67.444      -15.616       49.354       44.610       27.795     2435.807     1990.047      772.562        1.060        0.260      125.565       16.666        0.018      330.763       -1.656      853.963
12/30/2021  04:32:00      -81.647      -76.159      -15.510       58.637       52.734       30.653     3438.273     2780.922      939.624        0.993        0.358      111.653       19.783        0.031      330.711       -1.741      853.952
12/30/2021  04:33:00      -89.935      -35.441      -19.799       83.106       44.282       31.534     6906.550     1960.919      994.411        0.980        0.493       96.666       34.669        0.129      330.689       -1.777      853.957
12/30/2021  04:34:00     -166.205      -14.237       -5.510       62.986       56.033       35.170     3967.259     3139.648     1236.926        1.810        0.417      166.814       31.395        0.035      330.641       -1.856      853.967
12/30/2021  04:35:00      -88.654      -31.502      -16.400       38.086       38.312       31.867     1450.568     1467.775     1015.483        0.653        0.197       94.085       28.814        0.094      330.688       -1.779      853.966
12/30/2021  04:36:00     -101.237        7.036       -3.318       44.821       47.309       28.469     2008.933     2238.112      810.511        0.768        0.253      101.481       22.337        0.048      330.689       -1.777      853.970
12/30/2021  04:37:00     -145.958       25.719       -6.206       55.539       44.728       24.049     3084.556     2000.595      578.355        1.383        0.283      148.207       23.070        0.024      330.604       -1.916      853.981
12/30/2021  04:38:00     -119.078       34.334        1.540       59.727       39.867       34.390     3567.362     1589.389     1182.650        1.085        0.317      123.929       30.588        0.061      330.561       -1.988      853.985
12/30/2021  04:39:00      -99.698       -5.555      -16.064       74.751       39.350       31.609     5587.680     1548.456      999.138        0.918        0.407       99.853       39.090        0.153      330.650       -1.843      853.997
12/30/2021  04:40:00      -19.492        1.173        2.446       39.612       36.985       27.885     1569.141     1367.915      777.570        0.205        0.186       19.527       23.288        1.422      330.719       -1.729      854.019
12/30/2021  04:41:00     -109.432       -6.216       -3.184       49.262       47.291       26.549     2426.763     2236.420      704.838        0.870        0.268      109.609       22.582        0.042      330.671       -1.807      854.039
12/30/2021  04:42:00     -131.834       -2.917       -2.459       74.925       45.310       45.286     5613.721     2052.973     2050.813        1.355        0.486      131.867       43.866        0.111      330.667       -1.815      854.053
12/30/2021  04:43:00     -100.593       -3.279       -0.477       65.948       36.447       29.863     4349.160     1328.390      891.786        0.835        0.328      100.646       29.215        0.084      330.619       -1.891      854.064
12/30/2021  04:44:00      -25.202       -1.728       -5.812       46.180       28.870       30.192     2132.626      833.484      911.582        0.227        0.194       25.261       28.393        1.263      330.685       -1.781      854.068
12/30/2021  04:45:00      -39.333       -4.397       -4.302       48.492       21.226       31.248     2351.462      450.528      976.446        0.268        0.189       39.578       28.394        0.515      330.762       -1.658      854.064
12/30/2021  04:46:00     -161.558       12.189        0.046       63.199       43.564       34.939     3994.085     1897.857     1220.767        1.668        0.356      162.018       30.804        0.036      330.599       -1.927      854.039
12/30/2021  04:47:00     -117.186       12.098       -2.101       61.056       40.165       32.665     3727.812     1613.194     1066.987        1.014        0.320      117.809       25.081        0.045      330.622       -1.886      854.015
12/30/2021  04:48:00     -115.654       68.562      -15.396       46.233       44.135       26.747     2137.531     1947.884      715.410        1.156        0.240      134.450       20.534        0.023      330.588       -1.944      853.982
12/30/2021  04:49:00     -148.255       44.918      -19.871       48.699       28.230       27.935     2371.641      796.914      780.346        1.417        0.197      154.910       22.969        0.022      330.624       -1.883      853.961
12/30/2021  04:50:00     -121.115       24.804       -2.769       47.834       34.892       26.761     2288.109     1217.449      716.139        0.976        0.211      123.629       26.933        0.047      330.615       -1.900      853.971
12/30/2021  04:51:00      -63.567       20.373      -12.360       46.754       28.436       24.188     2185.902      808.579      585.066        0.409        0.179       66.752       19.347        0.084      330.738       -1.695      854.003
12/30/2021  04:52:00     -128.748       20.589       -7.171       85.069       52.243       25.188     7236.700     2729.303      634.427        1.382        0.530      130.384       29.071        0.050      330.719       -1.728      854.027
12/30/2021  04:53:00     -102.377        5.835       -5.487       87.630       37.429       42.914     7679.070     1400.951     1841.646        1.073        0.546      102.543       42.250        0.170      330.639       -1.860      854.034
12/30/2021  04:54:00      -58.330      -10.676       -8.985      100.640       50.666       39.652    10128.447     2567.068     1572.280        0.893        0.713       59.299       45.223        0.582      330.685       -1.784      854.023
12/30/2021  04:55:00      -86.449       32.511        4.090       54.091       33.964       27.254     2925.868     1153.562      742.796        0.668        0.241       92.360       27.017        0.086      330.610       -1.906      854.000
12/30/2021  04:56:00      -60.827      -15.677      -12.289       57.835       31.390       25.815     3344.830      985.334      666.408        0.455        0.250       62.815       26.138        0.173      330.722       -1.722      853.979
12/30/2021  04:57:00     -100.462       -8.111      -13.628       62.142       43.267       37.301     3861.585     1872.005     1391.356        0.873        0.356      100.788       28.950        0.083      330.662       -1.822      853.972
12/30/2021  04:58:00      -66.451       43.799      -10.964       34.183       21.145       20.561     1168.464      447.122      422.761        0.425        0.102       79.587       16.900        0.045      330.713       -1.738      853.982
12/30/2021  04:59:00     -122.358       46.425      -20.827       25.638       25.233       18.854      657.328      636.707      355.488        0.960        0.082      130.869        9.266        0.005      330.619       -1.893      853.996
12/30/2021  05:00:00     -128.956       20.601       -6.310       66.705       33.775       24.045     4449.593     1140.728      578.162        1.163        0.308      130.591       29.627        0.051      330.611       -1.907      854.013
12/30/2021  05:01:00     -142.924       29.490      -14.148       34.680       31.233       21.088     1202.733      975.520      444.723        1.206        0.131      145.935       18.153        0.015      330.602       -1.922      854.017
12/30/2021  05:02:00     -123.312       51.149      -13.529       37.246       23.148       25.931     1387.296      535.824      672.412        1.030        0.130      133.500       19.909        0.022      330.588       -1.942      854.013
12/30/2021  05:03:00      -66.636       55.333       -2.015       29.660       19.188       22.826      879.716      368.188      521.044        0.464        0.088       86.614       19.226        0.049      330.604       -1.918      854.004
12/30/2021  05:04:00      -36.557       69.684       -2.698       22.516       19.805       16.494      506.977      392.251      272.038        0.369        0.059       78.691        9.024        0.013      330.655       -1.833      854.001
12/30/2021  05:05:00      -83.771       86.819      -12.056       23.377       26.523       18.177      546.485      703.470      330.402        0.814        0.079      120.645       16.847        0.019      330.629       -1.876      853.993
12/30/2021  05:06:00      -76.408       97.970      -15.238       13.088       27.693        9.742      171.305      766.910       94.906        0.835        0.052      124.243        6.229        0.003      330.588       -1.945      853.985
12/30/2021  05:07:00      -58.288       16.585      -12.851       33.407       28.831       20.095     1116.056      831.216      403.824        0.309        0.118       60.601       13.936        0.053      330.704       -1.752      853.978
12/30/2021  05:08:00      -24.669        7.454       -2.469       35.329       27.061       15.885     1248.160      732.311      252.335        0.145        0.112       25.770       16.005        0.386      330.772       -1.639      853.981
12/30/2021  05:09:00       13.553      -15.518       -1.401       17.070       19.388       15.007      291.392      375.889      225.224        0.066        0.045       20.604        9.777        0.225      330.808       -1.582      853.991
12/30/2021  05:10:00        2.655       -5.509        3.661       10.831       11.829        9.730      117.313      139.917       94.670        0.020        0.018        6.115        5.358        0.768      330.834       -1.538      853.978
12/30/2021  05:11:00      -25.048        1.005      -10.376       26.485       15.343       19.695      701.448      235.403      387.894        0.103        0.066       25.068       19.602        0.611      330.813       -1.573      853.946
12/30/2021  05:12:00      -10.053       10.903        1.456       17.243       13.633       16.833      297.338      185.872      283.346        0.049        0.038       14.830       12.165        0.673      330.804       -1.589      853.921
12/30/2021  05:13:00      -49.953       14.971       -5.828       25.893       18.948       13.667      670.440      359.024      186.790        0.198        0.061       52.148       12.759        0.060      330.805       -1.586      853.914
12/30/2021  05:14:00      -51.986       17.725      -10.008       25.025       22.939       15.946      626.238      526.205      254.273        0.226        0.070       54.924       11.259        0.042      330.856       -1.503      853.923
12/30/2021  05:15:00      -14.843       19.022       -3.337       16.007       15.337        9.825      256.218      235.234       96.521        0.059        0.029       24.128        8.103        0.113      330.831       -1.545      853.929
12/30/2021  05:16:00       -2.690       25.426       -1.140       15.933       16.136       15.332      253.855      260.359      235.061        0.070        0.037       25.568       11.780        0.212      330.826       -1.552      853.924
12/30/2021  05:17:00      -19.530       31.579      -16.872       12.921       13.094       11.572      166.949      171.446      133.904        0.107        0.024       37.130        5.054        0.019      330.836       -1.536      853.926
12/30/2021  05:18:00      -11.543       -1.255       -5.740       14.061       12.043       11.016      197.713      145.041      121.363        0.032        0.023       11.611        1.199        0.011      330.922       -1.395      853.936
12/30/2021  05:19:00      -22.884       21.786       -4.354       15.537       16.570       18.800      241.389      274.581      353.435        0.094        0.043       31.596       10.229        0.105      330.952       -1.347      853.948
12/30/2021  05:20:00        3.881       -5.710       -2.146       14.798       27.132       11.747      218.974      736.159      137.988        0.057        0.055        6.904       12.950        3.518      330.991       -1.282      853.945
12/30/2021  05:21:00       24.589        1.244       -7.520       20.584       23.898       10.317      423.696      571.133      106.432        0.088        0.055       24.620       12.421        0.255      330.865       -1.490      853.930
12/30/2021  05:22:00       23.295       23.351       -6.754       17.999       15.088        9.304      323.963      227.644       86.573        0.089        0.032       32.984       10.184        0.095      330.793       -1.606      853.908
12/30/2021  05:23:00       12.422       16.568       -4.703        8.216       11.495        5.905       67.500      132.143       34.869        0.034        0.012       20.708        3.056        0.022      330.826       -1.553      853.902
12/30/2021  05:24:00      -12.178      -10.875       -5.886       28.790       29.534       13.475      828.886      872.255      181.584        0.109        0.094       16.327        3.773        0.053      330.931       -1.380      853.897
12/30/2021  05:25:00      -18.557       -3.702       -7.160       62.421       23.991       19.756     3896.337      575.552      390.313        0.263        0.243       18.923       14.143        0.559      330.964       -1.327      853.891
12/30/2021  05:26:00      -78.884      -11.424       -5.134       46.096       37.785       30.816     2124.839     1427.674      949.641        0.544        0.225       79.707       25.001        0.098      330.787       -1.617      853.876
12/30/2021  05:27:00      -29.307        7.647       -0.920       45.367       39.048       32.375     2058.133     1524.739     1048.110        0.277        0.232       30.288       26.564        0.769      330.899       -1.432      853.868
12/30/2021  05:28:00      -85.550      -14.453       -5.996       43.196       44.270       27.671     1865.875     1959.871      765.662        0.608        0.230       86.762       24.630        0.081      330.851       -1.511      853.890
12/30/2021  05:29:00      -61.748       -7.218       -3.050       72.602       49.865       33.851     5271.038     2486.546     1145.887        0.639        0.445       62.168       22.640        0.133      330.824       -1.556      853.897
12/30/2021  05:30:00     -127.706        1.663       -1.589       44.160       38.109       31.051     1950.140     1452.294      964.140        1.034        0.218      127.716       25.772        0.041      330.726       -1.717      853.898
12/30/2021  05:31:00      -42.135        4.293        2.011       63.544       51.809       29.421     4037.874     2684.175      865.578        0.469        0.379       42.353       24.963        0.347      330.795       -1.602      853.888
12/30/2021  05:32:00      -52.414       -1.459        7.695       51.356       28.205       29.249     2637.454      795.495      855.495        0.355        0.214       52.435       23.243        0.196      330.812       -1.575      853.882
12/30/2021  05:33:00      -99.584      -54.770       -9.461       46.156       51.266       21.173     2130.351     2628.155      448.282        0.911        0.260      113.652       19.265        0.029      330.670       -1.806      853.881
12/30/2021  05:34:00      -95.050      -65.799       -6.150       51.667       44.798       34.459     2669.434     2006.884     1187.444        0.963        0.293      115.603       27.761        0.058      330.537       -2.026      853.895
12/30/2021  05:35:00      -81.427      -12.630      -18.743       50.042       48.763       44.020     2504.155     2377.798     1937.746        0.698        0.341       82.400       32.607        0.157      330.564       -1.983      853.906
12/30/2021  05:36:00     -103.565       10.802      -13.828       35.632       30.331       21.016     1269.656      919.969      441.657        0.683        0.132      104.127       15.122        0.021      330.506       -2.079      853.934
12/30/2021  05:37:00      -70.239      -19.163       -4.810       49.592       29.772       23.177     2459.337      886.379      537.159        0.460        0.194       72.806       22.382        0.095      330.620       -1.890      853.949
12/30/2021  05:38:00     -101.389      -21.508       -7.262       42.250       47.015       27.795     1785.041     2210.370      772.542        0.778        0.238      103.645       20.830        0.040      330.632       -1.870      853.955
12/30/2021  05:39:00      -86.246      -52.358      -20.915       35.506       47.559       27.281     1260.683     2261.836      744.271        0.744        0.213      100.894       16.139        0.026      330.578       -1.959      853.944
12/30/2021  05:40:00      -74.776      -22.981      -13.078       66.577       55.544       30.189     4432.471     3085.160      911.378        0.736        0.421       78.228       20.851        0.071      330.479       -2.121      853.911
12/30/2021  05:41:00      -40.808       -6.287       -8.614       38.998       39.621       22.436     1520.881     1569.855      503.371        0.269        0.180       41.289       11.327        0.075      330.546       -2.011      853.889
12/30/2021  05:42:00      -87.787        3.226        7.510       69.542       45.769       29.715     4836.080     2094.788      882.969        0.779        0.391       87.846       21.863        0.062      330.454       -2.164      853.900
12/30/2021  05:43:00     -169.518       -5.298      -11.274       56.638       41.229       34.891     3207.914     1699.803     1217.394        1.751        0.306      169.601       29.480        0.030      330.297       -2.420      853.923
12/30/2021  05:44:00      -33.952       -5.243        0.875       40.575       42.535       27.396     1646.291     1809.220      750.561        0.269        0.210       34.354       13.201        0.148      330.428       -2.207      853.944
12/30/2021  05:45:00      -93.994        0.365       -3.031       60.654       31.659       34.203     3678.884     1002.307     1169.824        0.735        0.293       93.995       27.282        0.084      330.463       -2.149      853.975
12/30/2021  05:46:00      -68.533      -13.192       -8.808       53.876       49.135       36.498     2902.600     2414.212     1332.075        0.580        0.332       69.791       28.139        0.163      330.397       -2.258      853.987
12/30/2021  05:47:00      -71.099      -10.973       -6.084       56.800       52.788       35.243     3226.271     2786.604     1242.049        0.623        0.363       71.941       23.576        0.107      330.379       -2.285      853.958
12/30/2021  05:48:00      -58.706      -12.753       -9.860       45.122       47.993       33.420     2035.953     2303.310     1116.872        0.458        0.273       60.076       20.476        0.116      330.387       -2.272      853.915
12/30/2021  05:49:00      -42.656      -16.128       -3.605       43.478       46.211       24.580     1890.369     2135.473      604.196        0.336        0.232       45.603       15.141        0.110      330.405       -2.241      853.905
12/30/2021  05:50:00      -59.200      -27.072      -14.497       42.633       46.573       31.997     1817.549     2169.001     1023.838        0.473        0.251       65.097       12.832        0.039      330.357       -2.321      853.897
12/30/2021  05:51:00      -95.695      -33.771      -22.192       55.925       46.559       33.148     3127.604     2167.708     1098.784        0.859        0.320      101.479       14.688        0.021      330.326       -2.372      853.913
12/30/2021  05:52:00      -73.417      -17.940       -5.232       53.859       54.401       34.101     2900.808     2959.517     1162.876        0.638        0.351       75.577       27.981        0.137      330.304       -2.409      853.930
12/30/2021  05:53:00      -81.882        1.822        7.460       83.815       43.130       28.335     7024.981     1860.235      802.882        0.822        0.484       81.902       21.938        0.072      330.292       -2.429      853.920
12/30/2021  05:54:00      -74.071      -25.057       -6.261       59.516       47.109       38.067     3542.146     2219.238     1449.101        0.668        0.361       78.194       31.615        0.163      330.335       -2.357      853.905
12/30/2021  05:55:00      -82.828      -70.663      -12.871       46.010       56.133       25.032     2116.949     3150.900      626.625        0.896        0.295      108.875       24.709        0.052      330.248       -2.501      853.906
12/30/2021  05:56:00      -80.615      -35.862      -18.013       39.888       54.635       23.627     1591.085     2984.987      558.212        0.662        0.257       88.232       18.521        0.044      330.307       -2.404      853.896
12/30/2021  05:57:00      -64.975      -20.723       -6.470       44.030       55.829       31.776     1938.605     3116.878     1009.733        0.538        0.303       68.200       24.568        0.130      330.278       -2.450      853.879
12/30/2021  05:58:00      -74.899      -10.775      -20.822       38.932       34.571       27.196     1515.718     1195.154      739.640        0.480        0.173       75.670        5.058        0.004      330.361       -2.315      853.888
12/30/2021  05:59:00     -104.588       -5.791       -8.863       75.673       50.191       32.402     5726.435     2519.148     1049.880        1.017        0.465      104.748       19.989        0.036      330.290       -2.432      853.904
12/30/2021  06:00:00     -111.321      -19.978      -16.470       66.324       41.343       29.903     4398.868     1709.248      894.181        1.003        0.350      113.099       25.088        0.049      330.279       -2.450      853.904
12/30/2021  06:01:00      -35.440      -27.900       -2.133       54.781       46.804       39.846     3000.963     2190.595     1587.714        0.441        0.339       45.104       22.261        0.244      330.307       -2.404      853.893
12/30/2021  06:02:00      -80.307      -11.675      -18.105       52.124       41.897       31.149     2716.957     1755.374      970.240        0.618        0.272       81.152       23.530        0.084      330.327       -2.371      853.900
12/30/2021  06:03:00      -77.444      -26.232        2.715       74.063       30.368       32.395     5485.327      922.245     1049.446        0.707        0.373       81.766       39.446        0.233      330.359       -2.319      853.907
12/30/2021  06:04:00     -147.804       -8.807       -5.613       53.410       46.621       29.645     2852.635     2173.559      878.835        1.393        0.295      148.066       22.407        0.023      330.319       -2.385      853.928
12/30/2021  06:05:00     -171.983      -14.709       -3.937       51.909       39.645       36.599     2694.577     1571.701     1339.509        1.771        0.280      172.611       29.235        0.029      330.303       -2.410      853.956
12/30/2021  06:06:00     -142.818      -41.671      -13.430       59.454       43.496       36.786     3534.724     1891.865     1353.244        1.455        0.339      148.773       24.033        0.026      330.258       -2.484      853.984
12/30/2021  06:07:00     -115.249       -6.987       -3.129       37.605       28.944       25.708     1414.157      837.750      660.927        0.813        0.146      115.461       22.445        0.038      330.332       -2.364      854.038
12/30/2021  06:08:00      -24.751       -7.791        1.701       47.427       25.626       24.181     2249.357      656.699      584.728        0.208        0.175       25.948       19.705        0.577      330.419       -2.221      854.087
12/30/2021  06:09:00      -25.677       14.616        4.160       30.558       26.377       21.605      933.802      695.759      466.781        0.149        0.105       29.545       22.046        0.557      330.391       -2.268      854.097
12/30/2021  06:10:00      -44.412        1.744       -3.275       16.766       24.942       15.092      281.092      622.121      227.779        0.156        0.057       44.446       11.876        0.071      330.406       -2.241      854.092
12/30/2021  06:11:00      -16.921        1.135       -0.662       24.276       12.791        9.097      589.317      163.606       82.749        0.056        0.042       16.959        8.071        0.227      330.526       -2.045      854.086
12/30/2021  06:12:00       -4.941        4.480        0.658        7.187        6.348        6.220       51.655       40.298       38.687        0.009        0.007        6.670        3.258        0.239      330.484       -2.114      854.082
12/30/2021  06:13:00      -17.953       -3.840      -17.219        8.420       10.342        8.742       70.898      106.965       76.417        0.044        0.013       18.360        5.230        0.081      330.487       -2.109      854.081
12/30/2021  06:14:00        1.557      -45.793      -14.425       18.044       18.510       15.310      325.572      342.621      234.388        0.160        0.045       45.819        9.096        0.039      330.562       -1.987      854.096
12/30/2021  06:15:00       -6.171      -48.747      -27.650       35.435       29.408       16.482     1255.618      864.849      271.669        0.279        0.120       49.136       12.099        0.061      330.604       -1.916      854.099
12/30/2021  06:16:00       -2.553       -0.154      -16.714       10.004       13.276       10.923      100.088      176.255      119.304        0.034        0.020        2.557        7.458        8.504      330.632       -1.872      854.082
12/30/2021  06:17:00      -31.450       15.978      -11.817       12.147       14.394        9.707      147.548      207.177       94.231        0.092        0.022       35.276        5.907        0.028      330.561       -1.987      854.063
12/30/2021  06:18:00       -5.297       16.893       -8.969       11.298       12.810        7.722      127.637      164.095       59.631        0.037        0.018       17.704        6.029        0.116      330.552       -2.002      854.069
12/30/2021  06:19:00        6.739       15.175       -7.002        7.887        9.591        6.656       62.206       91.978       44.305        0.026        0.010       16.604        2.579        0.024      330.535       -2.031      854.073
12/30/2021  06:20:00       13.871       22.628       -5.488       18.574        9.705       11.123      345.005       94.189      123.731        0.065        0.028       26.541        5.240        0.039      330.611       -1.907      854.097
12/30/2021  06:21:00       15.845       -0.614        0.826       16.167       15.418       11.993      261.360      237.709      143.843        0.045        0.032       15.857        8.402        0.281      330.679       -1.794      854.126
12/30/2021  06:22:00       35.472      -86.033      -22.928       36.353       29.439       18.982     1321.545      866.671      360.317        0.587        0.127       93.059       17.473        0.035      330.658       -1.829      854.143
12/30/2021  06:23:00       54.995      -60.651      -20.020       22.947       34.184       18.790      526.563     1168.538      353.076        0.458        0.102       81.872       17.327        0.045      330.613       -1.901      854.171
12/30/2021  06:24:00      -19.008        9.880       -3.844       20.101       20.520       12.685      404.038      421.063      160.917        0.073        0.049       21.422        5.454        0.065      330.771       -1.642      854.206
12/30/2021  06:25:00      -21.131       47.417       -7.652       21.832       17.764       16.038      476.650      315.562      257.218        0.190        0.052       51.913       12.536        0.058      330.695       -1.768      854.239
12/30/2021  06:26:00      -34.031       44.777      -10.723       29.458       22.609       17.161      867.802      511.151      294.513        0.248        0.084       56.241       15.445        0.075      330.681       -1.789      854.261
12/30/2021  06:27:00      -10.730       14.507       -2.582       10.240       12.921       10.345      104.850      166.949      107.020        0.036        0.019       18.044        6.463        0.128      330.667       -1.814      854.272
12/30/2021  06:28:00       -9.982        5.100       -3.744        5.908        4.606        9.557       34.902       21.212       91.333        0.014        0.007       11.209        3.536        0.100      330.626       -1.880      854.266
12/30/2021  06:29:00       11.109        1.785      -10.980        8.460        6.718        6.370       71.573       45.136       40.576        0.020        0.008       11.252        2.821        0.063      330.634       -1.866      854.241
12/30/2021  06:30:00        2.200      -14.364      -10.820        9.779        8.947        8.107       95.622       80.049       65.724        0.028        0.012       14.532        2.217        0.023      330.772       -1.640      854.225
12/30/2021  06:31:00       -3.779       -3.484       -1.787       12.264       11.107       10.954      150.395      123.371      119.983        0.021        0.020        5.140        3.902        0.576      330.770       -1.644      854.210
12/30/2021  06:32:00       19.947       18.501       -6.214       13.902       12.871        7.883      193.259      165.661       62.146        0.060        0.021       27.206        7.600        0.078      330.703       -1.754      854.200
12/30/2021  06:33:00       24.863       13.010      -11.841       11.371       22.873       11.687      129.303      523.175      136.582        0.086        0.039       28.061        7.986        0.081      330.690       -1.775      854.212
12/30/2021  06:34:00       32.336       24.997       -6.981       14.584       15.618        9.286      212.686      243.932       86.237        0.113        0.027       40.872        6.412        0.025      330.708       -1.744      854.220
12/30/2021  06:35:00       39.407       26.313      -19.508       21.362       33.069       16.802      456.343     1093.526      282.299        0.223        0.092       47.385       11.280        0.057      330.717       -1.731      854.227
12/30/2021  06:36:00       19.929       10.365      -15.917       18.390       26.924       16.732      338.182      724.921      279.975        0.105        0.067       22.463        9.771        0.189      330.741       -1.692      854.229
12/30/2021  06:37:00       12.599       12.616        4.351       16.161       15.144       13.641      261.181      229.331      186.064        0.051        0.034       17.829        7.918        0.197      330.782       -1.624      854.255
12/30/2021  06:38:00       32.689       22.958       -8.393        9.605        9.047        7.616       92.263       81.842       58.004        0.095        0.012       39.946        5.635        0.020      330.661       -1.821      854.287
12/30/2021  06:39:00       17.032       -1.722      -13.451       22.045        9.734       13.852      485.971       94.760      191.884        0.062        0.039       17.119       13.914        0.661      330.703       -1.754      854.308
12/30/2021  06:40:00        2.549        7.599       -6.768       10.999       10.468        7.342      120.976      109.578       53.901        0.020        0.014        8.015        5.340        0.444      330.726       -1.716      854.309
12/30/2021  06:41:00        2.273       -6.972       -5.790       15.028        7.142        9.985      225.847       51.004       99.704        0.023        0.019        7.333        8.382        1.307      330.767       -1.648      854.304
12/30/2021  06:42:00      -22.531       27.868       -4.268       20.595       20.071       16.194      424.143      402.835      262.230        0.120        0.054       35.836       11.758        0.108      330.742       -1.688      854.301
12/30/2021  06:43:00        3.082       23.072      -12.272       14.043       14.584        8.846      197.209      212.682       78.257        0.059        0.024       23.277        5.696        0.060      330.761       -1.658      854.284
12/30/2021  06:44:00       -5.331       -0.134       -2.833       14.686       10.447        8.295      215.679      109.150       68.805        0.021        0.020        5.332        3.107        0.339      330.773       -1.638      854.246
12/30/2021  06:45:00        1.636       -8.451      -10.897        9.439        7.539        7.784       89.095       56.840       60.585        0.020        0.010        8.608        3.592        0.174      330.814       -1.572      854.201
12/30/2021  06:46:00       -9.060       -2.779       -4.325       14.009       14.088       12.036      196.242      198.459      144.872        0.032        0.027        9.477        4.521        0.228      330.940       -1.366      854.165
12/30/2021  06:47:00      -18.802      -29.493       -1.130       23.695       25.892       17.081      561.440      670.408      291.745        0.137        0.076       34.977       10.691        0.093      330.893       -1.443      854.162
12/30/2021  06:48:00       -6.990      -25.931        1.342       23.587       22.329       12.543      556.342      498.605      157.320        0.097        0.061       26.856        7.597        0.080      330.912       -1.412      854.165
12/30/2021  06:49:00       18.617       11.104       -1.552       12.819       16.767        8.355      164.315      281.137       69.812        0.049        0.026       21.677        7.659        0.125      330.786       -1.616      854.150
12/30/2021  06:50:00        8.081       18.849       -8.744       19.963       10.567       10.962      398.512      111.659      120.162        0.056        0.032       20.508        5.411        0.070      330.717       -1.730      854.128
12/30/2021  06:51:00       30.931       14.178       -2.261       12.810       10.057       11.196      164.097      101.146      125.345        0.078        0.020       34.026        3.922        0.013      330.723       -1.721      854.120
12/30/2021  06:52:00       35.011        6.785       -5.785       30.582       17.932       13.114      935.281      321.541      171.985        0.137        0.071       35.662       15.572        0.191      330.746       -1.682      854.115
12/30/2021  06:53:00       14.313        0.107       -5.298       33.549       24.743       22.266     1125.529      612.217      495.790        0.123        0.112       14.313       17.186        1.442      330.787       -1.618      854.134
12/30/2021  06:54:00       47.848        1.171       -9.072       29.841       25.277       26.598      890.465      638.950      707.454        0.230        0.112       47.862       21.973        0.211      330.797       -1.600      854.172
12/30/2021  06:55:00       62.123      -14.139       -4.344       27.481       27.462       22.812      755.223      754.168      520.409        0.305        0.101       63.712       18.719        0.086      330.742       -1.690      854.208
12/30/2021  06:56:00       30.230        5.198       -2.082       28.864       16.055       14.328      833.137      257.765      205.304        0.112        0.065       30.674       13.041        0.181      330.755       -1.668      854.248
12/30/2021  06:57:00       48.503        3.821      -13.591       36.816       41.197       17.281     1355.422     1697.174      298.621        0.295        0.168       48.653       13.253        0.074      330.770       -1.644      854.275
12/30/2021  06:58:00       25.528       22.491      -13.007       26.696       33.672       17.867      712.658     1133.824      319.247        0.175        0.108       34.022       13.973        0.169      330.859       -1.499      854.295
12/30/2021  06:59:00       49.113       39.357      -11.191        8.900        8.451        9.327       79.219       71.420       86.990        0.216        0.012       62.937        5.645        0.008      330.677       -1.796      854.311
12/30/2021  07:00:00       35.298       15.798       -5.219       13.373       10.791        6.139      178.843      116.444       37.686        0.093        0.017       38.672        4.385        0.013      330.707       -1.746      854.315
12/30/2021  07:01:00       33.672        4.799       -8.222       24.165       22.481       11.283      583.948      505.408      127.311        0.122        0.061       34.012        5.797        0.029      330.797       -1.599      854.315
12/30/2021  07:02:00       18.277       -3.137       -3.149       20.773       14.165       13.983      431.507      200.644      195.522        0.059        0.041       18.544       11.856        0.409      330.810       -1.577      854.322
12/30/2021  07:03:00        8.466       -6.091       -5.347       14.057       13.481       12.778      197.589      181.744      163.272        0.034        0.027       10.429       11.474        1.210      330.834       -1.539      854.345
12/30/2021  07:04:00        4.115       16.241       -5.448       22.123       22.003       17.370      489.432      484.152      301.706        0.079        0.064       16.754       13.020        0.604      330.824       -1.556      854.365
12/30/2021  07:05:00      -73.647      -11.049      -16.861       43.316       24.038       27.481     1876.265      577.845      755.222        0.452        0.160       74.471       26.658        0.128      330.633       -1.870      854.357
12/30/2021  07:06:00      -10.168        2.579       14.414       40.964       25.413       24.868     1678.056      645.810      618.405        0.163        0.147       10.490       27.750        6.998      330.663       -1.820      854.343
12/30/2021  07:07:00      -52.353       -6.391       -9.956       36.465       27.373       23.092     1329.674      749.267      533.241        0.275        0.131       52.741       17.608        0.111      330.639       -1.859      854.341
12/30/2021  07:08:00      -39.980        5.466       -5.054       20.200       18.428       12.558      408.054      339.601      157.706        0.128        0.045       40.352       13.051        0.105      330.637       -1.862      854.324
12/30/2021  07:09:00      -11.141       -7.690      -20.520       14.911       10.062        7.338      222.326      101.235       53.853        0.049        0.019       13.537        4.013        0.088      330.589       -1.940      854.294
12/30/2021  07:10:00      -32.038       16.577       -5.477       26.517       15.794       12.900      703.157      249.466      166.414        0.122        0.056       36.072        5.628        0.024      330.675       -1.801      854.260
12/30/2021  07:11:00      -38.578        6.005       -5.798       23.842       20.557       14.507      568.447      422.575      210.445        0.138        0.060       39.043       14.862        0.145      330.690       -1.776      854.225
12/30/2021  07:12:00      -18.562        7.288       -2.018       11.377       12.555        8.009      129.435      157.619       64.143        0.038        0.018       19.942        6.675        0.112      330.719       -1.727      854.222
12/30/2021  07:13:00      -21.346       15.322       -5.702       13.169       14.081        9.590      173.421      198.268       91.964        0.059        0.023       26.275        6.264        0.057      330.778       -1.631      854.213
12/30/2021  07:14:00      -46.671       40.025       -6.283       12.923       10.080       10.085      167.017      101.598      101.703        0.209        0.019       61.483        7.779        0.016      330.707       -1.747      854.206
12/30/2021  07:15:00      -40.675       12.374      -16.753       33.080       24.783       14.424     1094.298      614.199      208.038        0.200        0.096       42.516        4.679        0.012      330.792       -1.608      854.197
12/30/2021  07:16:00       10.160      -25.754      -13.166       26.513       23.216       13.123      702.965      538.998      172.203        0.118        0.071       27.685        6.778        0.060      330.894       -1.441      854.189
12/30/2021  07:17:00        1.787       -8.087       -8.883       18.212       22.278       12.571      331.677      496.310      158.041        0.057        0.049        8.282        2.106        0.065      330.824       -1.555      854.155
12/30/2021  07:18:00       25.906       21.113      -30.200       21.704       22.962       18.773      471.074      527.232      352.425        0.169        0.068       33.420       12.914        0.149      330.759       -1.661      854.116
12/30/2021  07:19:00      -28.974       16.560       -6.902       25.528       12.177       10.896      651.696      148.284      118.725        0.104        0.046       33.372       12.126        0.132      330.726       -1.717      854.076
12/30/2021  07:20:00      -48.590       19.107      -11.144       21.345       19.676       14.034      455.607      387.126      196.951        0.194        0.052       52.211        9.452        0.033      330.770       -1.644      854.063
12/30/2021  07:21:00      -48.895       11.710        1.451       30.095       22.193       20.836      905.692      492.520      434.154        0.218        0.092       50.278       16.391        0.106      330.751       -1.676      854.040
12/30/2021  07:22:00      -23.863      -15.540       -3.028       30.678       46.209       27.190      941.159     2135.283      739.322        0.232        0.191       28.477       28.743        1.019      330.779       -1.628      854.051
12/30/2021  07:23:00      -13.970       -6.504      -16.315       16.902       23.471       19.627      285.692      550.903      385.234        0.086        0.061       15.409       13.082        0.721      330.889       -1.449      854.067
12/30/2021  07:24:00      -31.235       14.036       -3.575       43.219       19.913       22.754     1867.850      396.534      517.763        0.198        0.139       34.244       14.658        0.183      330.648       -1.843      854.086
12/30/2021  07:25:00      -48.906       10.685       -7.033       24.899       22.605       11.406      619.967      510.995      130.104        0.191        0.063       50.059        8.469        0.029      330.616       -1.898      854.096
12/30/2021  07:26:00      -20.407       -4.629       -4.862       28.257       21.134       18.705      798.458      446.639      349.873        0.103        0.080       20.926       11.381        0.296      330.758       -1.663      854.118
12/30/2021  07:27:00      -20.581      -16.073       -5.482       31.885       22.640       19.128     1016.633      512.559      365.863        0.130        0.095       26.114       17.177        0.433      330.800       -1.595      854.133
12/30/2021  07:28:00        3.082      -21.481      -16.644       26.313       31.666       14.071      692.378     1002.705      197.999        0.132        0.095       21.701       15.561        0.514      330.832       -1.543      854.122
12/30/2021  07:29:00       61.325      -16.502       -5.962       41.350       32.308       19.511     1709.804     1043.832      380.680        0.360        0.157       63.507       19.625        0.095      330.718       -1.729      854.111
12/30/2021  07:30:00        5.955       -0.801      -14.718       29.425       19.851       14.832      865.810      394.067      219.980        0.087        0.074        6.009       14.354        5.706      330.644       -1.851      854.107
12/30/2021  07:31:00      -17.163       50.006      -15.619       21.322       19.932       15.594      454.634      397.273      243.177        0.207        0.055       52.869       11.380        0.046      330.658       -1.826      854.085
12/30/2021  07:32:00       -5.818        6.213        3.959       32.247       44.305       23.004     1039.849     1962.921      529.194        0.181        0.177        8.512       16.099        3.577      330.756       -1.666      854.054
12/30/2021  07:33:00      -68.484       -4.136      -18.404       36.895       21.244       14.444     1361.245      451.292      208.616        0.353        0.101       68.609       16.740        0.060      330.548       -2.010      853.998
12/30/2021  07:34:00        0.301        8.288       -5.264       26.967       25.853       22.354      727.203      668.369      499.703        0.100        0.095        8.294       16.436        3.927      330.692       -1.774      853.951
12/30/2021  07:35:00      -30.192      -11.703      -16.580       24.642       20.700       15.400      607.250      428.504      237.173        0.130        0.064       32.381        9.188        0.081      330.765       -1.653      853.943
12/30/2021  07:36:00       -3.966      -27.552      -19.947       23.877       29.469       23.219      570.097      868.449      539.140        0.157        0.099       27.836       15.195        0.298      330.833       -1.540      853.944
12/30/2021  07:37:00        4.265       13.705        2.833       42.017       25.330       18.669     1765.462      641.586      348.515        0.148        0.138       14.354       14.654        1.042      330.712       -1.739      853.913
12/30/2021  07:38:00      -26.756       -4.187        1.187       39.157       25.538       17.580     1533.253      652.184      309.057        0.161        0.125       27.082       13.403        0.245      330.815       -1.569      853.904
12/30/2021  07:39:00      -30.269      -12.048        5.209       29.547       26.235       17.149      873.004      688.263      294.088        0.147        0.093       32.578       12.824        0.155      330.820       -1.561      853.909
12/30/2021  07:40:00      -25.209      -52.268      -17.459       25.571       31.875       16.729      653.852     1016.020      279.866        0.281        0.097       58.030       16.043        0.076      330.785       -1.619      853.898
12/30/2021  07:41:00      -53.669        0.100      -16.470       22.480       30.574       14.718      505.350      934.748      216.631        0.240        0.083       53.670       14.591        0.074      330.749       -1.677      853.913
12/30/2021  07:42:00       -4.213       -9.515       -6.045       17.348       18.284       13.935      300.961      334.310      194.172        0.049        0.041       10.406       10.517        1.021      330.790       -1.610      853.940
12/30/2021  07:43:00       -7.019       24.645       -8.159       25.762       18.075       13.566      663.671      326.701      184.043        0.095        0.059       25.625        5.097        0.040      330.724       -1.721      853.956
12/30/2021  07:44:00      -10.548       13.191      -12.291       26.185       21.189       18.428      685.670      448.961      339.602        0.096        0.074       16.890       13.953        0.682      330.647       -1.846      853.980
12/30/2021  07:45:00      -18.335       -8.042      -15.509       30.661       18.096       18.026      940.070      327.479      324.930        0.112        0.080       20.021        6.530        0.106      330.755       -1.667      853.997
12/30/2021  07:46:00       -7.644       -8.985        2.780       23.093       28.616       19.933      533.271      818.888      397.323        0.095        0.087       11.797       13.111        1.235      330.771       -1.642      853.981
12/30/2021  07:47:00      -37.403      -26.098      -17.368       46.848       22.921       24.644     2194.770      525.375      607.331        0.285        0.166       45.608       20.855        0.209      330.705       -1.750      853.937
12/30/2021  07:48:00      -37.968      -30.322      -19.207       39.032       37.446       31.123     1523.501     1402.220      968.651        0.331        0.195       48.590       25.233        0.270      330.688       -1.779      853.895
12/30/2021  07:49:00      -43.583      -29.112      -26.114       46.736       43.403       31.017     2184.207     1883.816      962.073        0.423        0.252       52.412       17.980        0.118      330.643       -1.854      853.869
12/30/2021  07:50:00       -2.243        6.124      -15.213       47.784       44.564       29.494     2283.338     1985.952      869.875        0.271        0.257        6.522       16.676        6.538      330.515       -2.062      853.829
12/30/2021  07:51:00      -24.789        7.229       -7.532       26.921       24.215       14.636      724.752      586.356      214.224        0.112        0.076       25.821        6.762        0.069      330.665       -1.815      853.810
12/30/2021  07:52:00        4.237       -7.286       -3.486       13.587       17.670       20.418      184.602      312.228      416.900        0.050        0.046        8.429       14.674        3.031      330.656       -1.832      853.841
12/30/2021  07:53:00      -37.361       38.348      -13.990       37.578       27.529       22.572     1412.079      757.865      509.489        0.287        0.134       53.539       10.652        0.040      330.678       -1.796      853.877
12/30/2021  07:54:00       -4.752       12.099      -21.294       22.702       18.005       14.624      515.393      324.187      213.852        0.084        0.053       12.999        5.657        0.189      330.681       -1.792      853.882
12/30/2021  07:55:00      -27.648       19.842       -9.521       23.521       26.281       12.845      553.230      690.696      164.991        0.133        0.070       34.031        9.317        0.075      330.668       -1.812      853.866
12/30/2021  07:56:00      -14.253        4.354      -11.185       18.043       17.152       17.961      325.555      294.192      322.598        0.064        0.047       14.903        9.686        0.422      330.699       -1.759      853.884
12/30/2021  07:57:00       12.037       44.384       -9.783       44.375       33.439       25.836     1969.118     1118.153      667.492        0.298        0.188       45.987       22.098        0.231      330.635       -1.866      853.913
12/30/2021  07:58:00       -1.809       36.090      -10.162       23.322       18.978       15.304      543.894      360.174      234.227        0.127        0.057       36.136        8.984        0.062      330.638       -1.863      853.928
12/30/2021  07:59:00      -22.414       34.765      -10.856       15.281       13.912       10.633      233.502      193.539      113.069        0.118        0.027       41.365        7.509        0.033      330.693       -1.769      853.914
12/30/2021  08:00:00      -30.094       16.882      -14.685       19.802       17.110       18.274      392.122      292.755      333.925        0.121        0.051       34.506       11.229        0.106      330.736       -1.699      853.920
12/30/2021  08:01:00      -14.618       22.611       -0.218       13.650       16.004        8.623      186.318      256.135       74.360        0.062        0.026       26.925        5.073        0.036      330.663       -1.819      853.951
12/30/2021  08:02:00       30.612      -19.247      -12.193       41.956       21.589       19.088     1760.281      466.093      364.350        0.202        0.130       36.160       12.535        0.120      330.708       -1.746      854.000
12/30/2021  08:03:00       54.562       12.248       -8.021       41.741       42.893       32.165     1742.284     1839.780     1034.611        0.390        0.231       55.919       24.051        0.185      330.721       -1.724      854.014
12/30/2021  08:04:00      112.313       -3.573      -19.748       70.074       48.554       37.578     4910.316     2357.508     1412.094        1.085        0.434      112.370       26.434        0.055      330.581       -1.956      854.019
12/30/2021  08:05:00       79.387      -20.833       -4.293       71.047       40.919       40.117     5047.675     1674.335     1609.354        0.754        0.417       82.075       42.786        0.272      330.607       -1.912      854.047
12/30/2021  08:06:00       68.080       25.768        2.811       49.258       49.018       37.911     2426.387     2402.784     1437.242        0.579        0.313       72.794       19.655        0.073      330.749       -1.679      854.092
12/30/2021  08:07:00       59.071       -3.216      -12.860       61.346       42.706       36.121     3763.386     1823.804     1304.755        0.528        0.345       59.158       30.704        0.269      330.716       -1.732      854.141
12/30/2021  08:08:00       51.010       11.179       -2.890       45.694       43.595       34.761     2087.951     1900.549     1208.313        0.397        0.260       52.220       18.810        0.130      330.631       -1.874      854.175
12/30/2021  08:09:00      103.671       37.384      -20.870       39.584       40.531       24.930     1566.892     1642.802      621.490        0.821        0.192      110.206       16.062        0.021      330.622       -1.888      854.183
12/30/2021  08:10:00       78.615       24.847      -15.620       53.726       53.586       25.774     2886.523     2871.446      664.311        0.673        0.321       82.448       20.338        0.061      330.710       -1.742      854.181
12/30/2021  08:11:00       74.239       51.373      -12.835       66.273       33.809       30.571     4392.107     1143.080      934.615        0.739        0.323       90.281       33.537        0.138      330.621       -1.889      854.181
12/30/2021  08:12:00       32.601       21.415      -13.000       27.449       34.661       22.859      753.422     1201.356      522.516        0.208        0.124       39.005       13.534        0.120      330.808       -1.582      854.178
12/30/2021  08:13:00       55.340       13.656       -7.108       38.620       35.381       35.333     1491.500     1251.847     1248.415        0.364        0.200       57.000       20.902        0.134      330.734       -1.703      854.150
12/30/2021  08:14:00       56.425      -27.431      -26.072       30.883       34.656       23.782      953.750     1201.067      565.602        0.367        0.136       62.740       17.689        0.079      330.663       -1.820      854.126
12/30/2021  08:15:00      114.711       17.567      -11.209       79.657       47.600       32.036     6345.173     2265.735     1026.283        1.161        0.482      116.048       25.456        0.048      330.600       -1.924      854.105
12/30/2021  08:16:00      140.993       45.533      -19.606       61.240       41.073       31.507     3750.339     1687.021      992.687        1.438        0.322      148.163       28.210        0.036      330.502       -2.083      854.108
12/30/2021  08:17:00      227.720       58.845      -23.030       48.893       43.670       29.798     2390.567     1907.050      887.924        3.052        0.259      235.200       20.569        0.008      330.473       -2.133      854.125
12/30/2021  08:18:00      153.545       74.890      -36.099       50.013       44.030       28.959     2501.327     1938.637      838.614        1.788        0.264      170.835       18.908        0.012      330.503       -2.084      854.143
12/30/2021  08:19:00      120.604       24.800      -10.161       46.751       52.996       26.035     2185.681     2808.574      677.819        1.047        0.284      123.128       17.570        0.020      330.535       -2.029      854.140
12/30/2021  08:20:00      213.533       45.220      -17.683       36.524       32.966       26.765     1334.027     1086.726      716.360        2.554        0.157      218.268       16.793        0.006      330.477       -2.126      854.151
12/30/2021  08:21:00      126.687       32.538      -11.324       61.591       50.580       23.463     3793.417     2558.366      550.532        1.207        0.345      130.799       19.881        0.023      330.546       -2.012      854.165
12/30/2021  08:22:00       85.292       64.989      -16.780       49.967       37.943       26.123     2496.745     1439.654      682.405        0.820        0.231      107.230       24.152        0.051      330.571       -1.972      854.206
12/30/2021  08:23:00      103.462       89.297      -14.552       41.023       33.493       28.682     1682.867     1121.805      822.656        1.126        0.181      136.668       25.020        0.034      330.542       -2.020      854.248
12/30/2021  08:24:00       82.550      106.431      -12.908       38.330       44.683       30.619     1469.175     1996.557      937.504        1.136        0.220      134.692       27.061        0.040      330.545       -2.015      854.291
12/30/2021  08:25:00       80.925       79.908      -23.623       35.096       45.031       26.744     1231.749     2027.752      715.222        0.873        0.199      113.728       22.168        0.038      330.582       -1.954      854.335
12/30/2021  08:26:00      116.845       40.561      -13.493       37.332       41.884       23.295     1393.654     1754.292      542.671        0.958        0.185      123.685       19.199        0.024      330.550       -2.006      854.333
12/30/2021  08:27:00       66.967       31.329      -18.746       47.376       58.464       31.107     2244.504     3417.994      967.644        0.622        0.332       73.933       23.584        0.102      330.694       -1.769      854.312
12/30/2021  08:28:00      142.215       63.628      -28.397       58.471       39.873       28.530     3418.812     1589.894      813.970        1.545        0.291      155.800       18.656        0.014      330.602       -1.921      854.323
12/30/2021  08:29:00      159.139       83.077      -22.735       64.892       48.747       30.308     4210.979     2376.300      918.590        2.012        0.375      179.519       14.109        0.006      330.593       -1.937      854.323
12/30/2021  08:30:00      151.423       38.260      -23.633       57.383       39.011       29.162     3292.781     1521.875      850.425        1.531        0.283      156.182       23.804        0.023      330.648       -1.845      854.322
12/30/2021  08:31:00      149.404       23.418       -7.811       49.563       35.835       34.541     2456.503     1284.140     1193.074        1.393        0.247      151.229       17.030        0.013      330.547       -2.010      854.365
12/30/2021  08:32:00      144.171       48.933      -17.122       50.492       45.384       24.237     2549.436     2059.748      587.443        1.433        0.260      152.249       12.712        0.007      330.598       -1.927      854.397
12/30/2021  08:33:00      151.657       58.180      -11.701       51.913       65.816       34.499     2694.972     4331.764     1190.196        1.737        0.411      162.434       20.918        0.017      330.556       -1.998      854.453
12/30/2021  08:34:00      103.601      114.285      -24.676       53.898       47.284       37.705     2905.036     2235.770     1421.652        1.548        0.328      154.254       29.832        0.037      330.627       -1.881      854.486
12/30/2021  08:35:00      160.621       85.134      -16.353       47.017       33.475       27.018     2210.638     1120.548      729.993        1.869        0.203      181.788       14.667        0.007      330.529       -2.042      854.493
12/30/2021  08:36:00      107.272       63.549      -15.392       59.420       34.701       26.995     3530.746     1204.153      728.730        1.062        0.273      124.682       31.194        0.063      330.587       -1.947      854.491
12/30/2021  08:37:00      112.814       23.561      -14.070       60.935       42.005       21.694     3713.016     1764.406      470.621        0.971        0.297      115.249       22.719        0.039      330.634       -1.868      854.476
12/30/2021  08:38:00      140.651       68.416      -19.947       59.223       44.531       26.255     3507.395     1983.000      689.325        1.552        0.309      156.408       15.749        0.010      330.485       -2.114      854.451
12/30/2021  08:39:00      159.841       85.261      -23.372       54.347       50.355       30.395     2953.647     2535.651      923.858        1.989        0.321      181.159       18.633        0.011      330.436       -2.193      854.443
12/30/2021  08:40:00      182.022       93.378      -26.302       40.878       39.433       28.912     1670.970     1554.996      835.887        2.330        0.203      204.576        7.899        0.001      330.438       -2.192      854.453
12/30/2021  08:41:00      124.970       78.644      -27.583       71.550       47.334       30.305     5119.425     2240.510      918.385        1.542        0.414      147.657       27.830        0.036      330.528       -2.044      854.492
12/30/2021  08:42:00      132.167       49.764      -17.591       79.174       44.288       28.168     6268.496     1961.408      793.410        1.464        0.451      141.226       33.778        0.057      330.628       -1.879      854.510
12/30/2021  08:43:00      162.640       61.603      -18.411       64.228       48.746       36.891     4125.222     2376.214     1360.967        1.922        0.393      173.916       29.758        0.029      330.561       -1.990      854.486
12/30/2021  08:44:00       98.260       33.971      -13.905       50.856       40.813       26.529     2586.310     1665.703      703.771        0.798        0.248      103.967       11.420        0.012      330.626       -1.880      854.479
12/30/2021  08:45:00       84.407       36.488       -3.855       50.036       39.782       30.466     2503.606     1582.633      928.194        0.674        0.251       91.957       16.879        0.034      330.744       -1.685      854.488
12/30/2021  08:46:00      140.404       62.911      -17.714       80.101       57.630       31.013     6416.164     3321.182      961.781        1.734        0.535      153.854       28.170        0.034      330.676       -1.801      854.469
12/30/2021  08:47:00      225.285       53.007      -22.970       45.029       56.714       30.989     2027.571     3216.509      960.341        3.015        0.310      231.437       22.487        0.009      330.566       -1.983      854.433
12/30/2021  08:48:00      195.288       42.026      -11.870       77.149       50.170       39.180     5951.984     2517.073     1535.058        2.502        0.500      199.759       42.871        0.046      330.631       -1.877      854.405
12/30/2021  08:49:00      214.536       68.268      -15.805       65.683       47.649       36.486     4314.315     2270.443     1331.217        2.942        0.396      225.136       30.618        0.018      330.609       -1.912      854.408
12/30/2021  08:50:00      142.503       51.786      -22.994       93.268       72.680       35.822     8698.908     5282.352     1283.180        1.939        0.763      151.621       34.252        0.051      330.722       -1.725      854.407
12/30/2021  08:51:00       92.098       10.065       -9.570       84.490       61.601       45.548     7138.547     3794.669     2074.648        1.084        0.650       92.646       37.482        0.164      330.838       -1.532      854.372
12/30/2021  08:52:00       64.335       31.264       -5.022       55.239       42.582       31.038     3051.383     1813.243      963.362        0.548        0.291       71.529       25.244        0.125      330.760       -1.660      854.378
12/30/2021  08:53:00       56.841        1.928       -6.183       39.699       31.263       22.943     1576.016      977.381      526.381        0.318        0.154       56.874       18.210        0.103      330.735       -1.701      854.379
12/30/2021  08:54:00       72.800       20.803      -12.608       55.663       27.929       20.030     3098.414      780.041      401.195        0.508        0.214       75.714        7.975        0.011      330.724       -1.720      854.358
12/30/2021  08:55:00      133.914       49.208       -6.026       50.385       47.912       36.651     2538.661     2295.582     1343.306        1.328        0.309      142.669       25.452        0.032      330.635       -1.866      854.331
12/30/2021  08:56:00       65.617       10.445       -4.892       72.155       43.064       33.802     5206.355     1854.514     1142.589        0.632        0.410       66.443       31.878        0.230      330.831       -1.544      854.314
12/30/2021  08:57:00      106.219       30.270      -16.036       58.284       43.312       29.147     3397.077     1875.945      849.532        0.929        0.306      110.448       13.817        0.016      330.708       -1.745      854.308
12/30/2021  08:58:00      114.123       -4.577      -21.421       43.355       64.146       30.174     1879.635     4114.757      910.462        1.020        0.345      114.215       26.532        0.054      330.671       -1.805      854.288
12/30/2021  08:59:00       57.296       -5.770       -4.015       59.969       59.389       48.545     3596.311     3527.045     2356.636        0.640        0.474       57.586       37.642        0.427      330.781       -1.627      854.257
12/30/2021  09:00:00       99.326      -55.598      -11.656       62.187       37.149       28.622     3867.245     1380.024      819.227        0.958        0.303      113.828       31.020        0.074      330.675       -1.799      854.283
12/30/2021  09:01:00       55.020      -82.652       -9.003       64.480       46.271       33.637     4157.722     2140.986     1131.465        0.868        0.372       99.291       30.591        0.095      330.871       -1.478      854.302
12/30/2021  09:02:00       30.279      -32.379      -16.887       61.614       72.059       31.762     3796.276     5192.470     1008.845        0.612        0.500       44.331       22.832        0.265      330.947       -1.353      854.308
12/30/2021  09:03:00       32.344      -25.620      -25.366       45.672       45.055       32.059     2085.919     2029.965     1027.788        0.374        0.257       41.261       28.681        0.483      330.981       -1.299      854.273
12/30/2021  09:04:00      110.468      -44.530       -1.597       74.314       56.476       46.232     5522.522     3189.576     2137.353        1.252        0.542      119.106       49.086        0.170      330.767       -1.650      854.242
12/30/2021  09:05:00       76.661      -28.308      -23.445       40.003       59.654       32.284     1600.260     3558.608     1042.227        0.671        0.310       81.721       19.457        0.057      330.727       -1.716      854.242
12/30/2021  09:06:00       90.576      -27.144      -16.885       71.525       49.302       38.551     5115.887     2430.729     1486.151        0.913        0.452       94.556       37.886        0.161      330.714       -1.737      854.237
12/30/2021  09:07:00       78.460      -18.469       -7.518       65.391       42.652       36.188     4275.963     1819.231     1309.591        0.698        0.370       80.604       35.766        0.197      330.672       -1.805      854.243
12/30/2021  09:08:00       77.360      -14.263       -4.063       51.191       44.495       41.537     2620.471     1979.830     1725.339        0.626        0.316       78.664       33.424        0.181      330.680       -1.790      854.236
12/30/2021  09:09:00      121.967        9.843      -28.109      106.234       60.459       45.850    11285.595     3655.287     2102.236        1.640        0.852      122.364       43.981        0.129      330.724       -1.721      854.200
12/30/2021  09:10:00       48.614      -73.820      -18.359       52.952       69.826       40.369     2803.866     4875.633     1629.686        0.873        0.465       88.389       36.840        0.174      330.833       -1.542      854.199
12/30/2021  09:11:00       76.026       21.426      -29.138       60.166       44.023       28.116     3619.953     1937.997      790.501        0.672        0.317       78.987       12.018        0.023      330.807       -1.583      854.228
12/30/2021  09:12:00      126.644      -21.604      -26.201       48.228       38.109       23.222     2325.937     1452.300      539.253        1.075        0.216      128.473       19.360        0.023      330.697       -1.765      854.239
12/30/2021  09:13:00       87.213       -9.024      -23.299       48.423       48.673       35.983     2344.744     2369.066     1294.794        0.712        0.300       87.679       14.895        0.029      330.826       -1.553      854.228
12/30/2021  09:14:00       97.745      -15.691      -19.658       57.362       64.870       44.304     3290.413     4208.061     1962.827        0.982        0.473       98.996       32.788        0.110      330.874       -1.474      854.189
12/30/2021  09:15:00       62.366      -16.523      -36.568       68.616       73.647       44.564     4708.122     5423.944     1985.934        0.881        0.606       64.518       40.125        0.387      330.877       -1.470      854.106
12/30/2021  09:16:00        2.761      -31.591      -11.176       39.606       47.771       37.910     1568.674     2282.048     1437.159        0.321        0.264       31.711       22.789        0.516      331.009       -1.252      854.118
12/30/2021  09:17:00       76.199     -141.117      -44.505       68.463       86.943       47.522     4687.195     7559.041     2258.351        2.110        0.725      160.375       52.249        0.106      330.876       -1.472      854.171
12/30/2021  09:18:00      115.520      -96.925      -60.022       38.765       54.148       29.549     1502.752     2932.004      873.133        1.582        0.265      150.796       15.209        0.010      330.621       -1.890      854.143
12/30/2021  09:19:00       89.282      -80.620      -30.624       21.129       26.511       15.735      446.433      702.846      247.594        0.840        0.070      120.294        5.755        0.002      330.596       -1.928      854.114
12/30/2021  09:20:00      116.246     -104.601      -40.042       57.261       39.618       25.951     3278.817     1569.581      673.433        1.579        0.276      156.379       24.276        0.024      330.726       -1.718      854.100
12/30/2021  09:21:00       33.993      -34.646      -15.400       45.484       46.359       32.893     2068.821     2149.189     1081.972        0.395        0.265       48.537       23.060        0.226      331.030       -1.219      854.130
12/30/2021  09:22:00       47.320      -14.094      -11.905       60.039       48.910       38.778     3604.697     2392.178     1503.708        0.504        0.375       49.374       15.277        0.096      330.882       -1.461      854.176
12/30/2021  09:23:00       93.942       -9.196       -7.568       56.633       57.048       45.915     3207.344     3254.496     2108.174        0.877        0.429       94.391       32.578        0.119      330.736       -1.701      854.198
12/30/2021  09:24:00      100.039      -38.635      -10.856       54.377       37.062       31.262     2956.854     1373.610      977.315        0.846        0.265      107.240       27.080        0.064      330.675       -1.800      854.212
12/30/2021  09:25:00       31.860       14.722       -6.586       54.520       52.922       42.615     2972.428     2800.728     1816.044        0.443        0.379       35.097       25.685        0.536      331.000       -1.268      854.207
12/30/2021  09:26:00      121.956      -43.394      -39.655       65.878       67.794       45.927     4339.907     4596.046     2109.276        1.468        0.552      129.446       23.097        0.032      330.905       -1.423      854.193
12/30/2021  09:27:00      108.073       -8.998      -11.139       65.901       59.747       52.727     4342.980     3569.726     2780.108        1.129        0.535      108.447       42.451        0.153      330.777       -1.632      854.201
12/30/2021  09:28:00      160.099       -5.370      -14.128       79.517       46.717       44.934     6322.981     2182.497     2019.056        1.819        0.526      160.189       39.416        0.061      330.715       -1.736      854.188
12/30/2021  09:29:00       75.238      -23.762      -19.069       78.732       76.907       33.546     6198.779     5914.664     1125.345        0.991        0.662       78.901       10.241        0.017      330.757       -1.666      854.165
12/30/2021  09:30:00       86.811      -33.035      -27.196       63.264       60.876       41.060     4002.303     3705.874     1685.917        0.938        0.470       92.884       37.770        0.165      330.808       -1.583      854.161
12/30/2021  09:31:00      157.003       -9.057      -12.333       93.677       51.062       38.229     8775.381     2607.367     1461.475        1.886        0.642      157.264       37.238        0.056      330.686       -1.784      854.133
12/30/2021  09:32:00       95.865      -35.710       -4.582      120.918       77.730       62.688    14621.139     6041.911     3929.817        1.754        1.230      102.300       64.743        0.401      330.793       -1.607      854.098
12/30/2021  09:33:00       -0.605      -54.223      -19.688       51.959       47.971       33.144     2699.769     2301.182     1098.526        0.471        0.305       54.227       26.046        0.231      330.996       -1.273      854.168
12/30/2021  09:34:00        3.197      -40.521      -28.532       44.756       44.357       26.747     2003.137     1967.561      715.411        0.358        0.234       40.647       22.381        0.303      331.155       -1.012      854.196
12/30/2021  09:35:00       61.092      -39.313      -48.302       41.187       60.625       34.642     1696.380     3675.370     1200.102        0.709        0.329       72.648       22.760        0.098      330.902       -1.428      854.136
12/30/2021  09:36:00       81.544       13.861      -14.734       65.918       75.632       43.781     4345.133     5720.251     1916.810        0.952        0.599       82.714       32.655        0.156      330.953       -1.344      854.107
12/30/2021  09:37:00       65.975        3.226       -7.681       58.785       64.706       36.442     3455.729     4186.915     1328.009        0.669        0.449       66.053       21.018        0.101      331.011       -1.250      854.143
12/30/2021  09:38:00        8.029        7.171      -12.940       44.271       55.497       25.090     1959.896     3079.871      629.514        0.298        0.283       10.766       15.793        2.152      330.983       -1.295      854.231
12/30/2021  09:39:00       95.152       34.303      -18.300       47.090       47.167       23.349     2217.500     2224.754      545.190        0.778        0.249      101.146       22.291        0.049      330.856       -1.504      854.257
12/30/2021  09:40:00       49.346       -9.284      -23.588       66.391       69.310       34.058     4407.745     4803.940     1159.965        0.672        0.519       50.211       28.054        0.312      331.037       -1.206      854.194
12/30/2021  09:41:00       80.775      -28.152      -22.725       77.378       69.805       50.528     5987.365     4872.683     2553.069        1.062        0.671       85.540       42.876        0.251      330.975       -1.307      854.174
12/30/2021  09:42:00       83.203      -58.666      -36.111       67.488       78.918       44.553     4554.670     6228.082     1984.994        1.222        0.638      101.806       36.397        0.128      331.012       -1.247      854.158
12/30/2021  09:43:00      115.328      -96.804      -23.842       57.710       64.617       42.450     3330.484     4175.398     1802.003        1.627        0.465      150.571       50.335        0.112      330.876       -1.474      854.175
12/30/2021  09:44:00      118.894      -65.923      -22.501       82.179       67.571       41.870     6753.411     4565.818     1753.088        1.603        0.654      135.948       39.954        0.086      330.818       -1.567      854.189
12/30/2021  09:45:00       83.557      -39.940      -10.834       58.192       48.126       40.650     3386.366     2316.073     1652.427        0.802        0.368       92.612       36.913        0.159      330.765       -1.652      854.205
12/30/2021  09:46:00       86.908       -8.289       -3.623       65.328       44.191       39.935     4267.797     1952.877     1594.838        0.772        0.391       87.302       36.350        0.173      330.815       -1.571      854.192
12/30/2021  09:47:00       91.051      -32.267      -31.409       74.803       90.661       55.707     5595.432     8219.434     3103.219        1.361        0.846       96.599       40.550        0.176      330.961       -1.333      854.119
12/30/2021  09:48:00      132.083      -39.791      -16.916       81.772       55.702       55.730     6686.676     3102.662     3105.816        1.610        0.645      137.947       45.988        0.111      330.990       -1.285      854.057
12/30/2021  09:49:00       89.702      -29.041       -8.743       92.979       65.660       55.439     8645.057     4311.222     3073.524        1.250        0.801       94.286       54.807        0.338      331.000       -1.268      854.049
12/30/2021  09:50:00       24.642      -40.413       -7.434       73.045       65.102       44.639     5335.520     4238.281     1992.629        0.693        0.578       47.334       22.126        0.219      331.034       -1.211      854.054
12/30/2021  09:51:00       79.579     -130.730      -16.739       63.665      102.370       48.257     4053.205    10479.614     2328.715        2.028        0.843      153.046       57.622        0.142      330.998       -1.272      854.050
12/30/2021  09:52:00       86.396     -156.302      -28.892       79.465       68.856       41.206     6314.681     4741.130     1697.894        2.274        0.638      178.591       44.089        0.061      331.021       -1.235      854.080
12/30/2021  09:53:00       -8.815      -76.605      -16.267       77.163       77.888       44.134     5954.074     6066.516     1947.795        1.009        0.698       77.111       34.400        0.199      331.268       -0.827      854.146
12/30/2021  09:54:00       85.044     -158.950      -47.595       61.699       75.925       29.343     3806.820     5764.596      861.022        2.260        0.522      180.271       19.024        0.011      330.974       -1.312      854.206
12/30/2021  09:55:00      113.050     -203.765      -42.769       31.564       33.506       24.031      996.257     1122.643      577.470        2.941        0.135      233.024       21.629        0.009      330.708       -1.752      854.178
12/30/2021  09:56:00      149.312     -172.824      -54.276       37.428       48.456       24.376     1400.879     2347.987      594.207        2.972        0.217      228.390       19.562        0.007      330.791       -1.614      854.122
12/30/2021  09:57:00       80.095     -106.026      -31.969       33.579       47.370       27.645     1127.554     2243.922      764.271        1.141        0.207      132.879       19.651        0.022      330.883       -1.459      854.146
12/30/2021  09:58:00       81.556      -88.666      -32.645       56.719       64.204       33.065     3217.091     4122.117     1093.264        1.200        0.422      120.470       24.856        0.043      331.112       -1.083      854.152
12/30/2021  09:59:00      105.291       -7.241      -43.245       65.950       82.874       49.145     4349.400     6868.140     2415.208        1.332        0.682      105.540       31.206        0.087      331.091       -1.119      854.114
12/30/2021  10:00:00      103.854      -14.745       -7.280       71.447       47.835       35.849     5104.638     2288.232     1285.122        0.987        0.434      104.895       33.102        0.100      331.017       -1.239      854.148
12/30/2021  10:01:00      137.282      -21.649      -18.246       57.805       31.782       28.788     3341.367     1010.122      828.735        1.241        0.259      138.978       26.172        0.035      330.922       -1.393      854.207
12/30/2021  10:02:00       75.065      -15.447      -12.319       91.189       69.553       75.538     8315.399     4837.595     5705.928        1.244        0.943       76.637       64.152        0.701      331.022       -1.230      854.170
12/30/2021  10:03:00       86.649      -26.077      -21.477       96.343       59.294       61.720     9281.956     3515.831     3809.411        1.263        0.830       90.488       49.767        0.302      330.963       -1.328      854.149
12/30/2021  10:04:00      122.988      -40.989      -20.981       55.426       50.758       40.910     3072.030     2576.386     1673.599        1.228        0.366      129.638       28.198        0.047      330.916       -1.404      854.174
12/30/2021  10:05:00       72.435       -3.834       -8.065       67.102       54.125       41.350     4502.696     2929.513     1709.837        0.723        0.457       72.536       30.364        0.175      330.958       -1.337      854.134
12/30/2021  10:06:00      137.735      -16.861      -16.609       84.720       55.712       48.172     7177.535     3103.776     2320.585        1.606        0.630      138.763       43.274        0.097      330.899       -1.433      854.081
12/30/2021  10:07:00      109.318      -59.831      -24.183       92.739       62.963       56.475     8600.554     3964.313     3189.393        1.593        0.788      124.621       46.714        0.141      330.923       -1.394      854.091
12/30/2021  10:08:00       69.534      -27.486       -5.363       78.567       51.490       32.331     6172.846     2651.220     1045.270        0.774        0.493       74.769       33.005        0.195      331.028       -1.221      854.116
12/30/2021  10:09:00       29.750      -81.733      -26.539       36.537       43.005       34.343     1334.978     1849.410     1179.451        0.632        0.218       86.979       22.814        0.069      331.172       -0.983      854.082
12/30/2021  10:10:00       75.195      -86.291      -32.158       36.774       51.571       22.362     1352.322     2659.551      500.077        0.932        0.226      114.458       16.281        0.020      331.168       -0.992      854.053
12/30/2021  10:11:00       90.050     -216.921      -48.878       51.029       56.031       34.836     2603.930     3139.473     1213.513        3.225        0.348      234.870       24.803        0.011      331.085       -1.131      854.027
12/30/2021  10:12:00      139.059     -139.264      -44.497       49.609       56.328       30.018     2461.069     3172.801      901.072        2.362        0.327      196.804       30.038        0.023      331.056       -1.177      853.954
12/30/2021  10:13:00       32.038      -39.573      -13.332       52.855       54.389       31.202     2793.696     2958.205      973.544        0.475        0.336       50.916       34.383        0.456      331.253       -0.851      853.896
12/30/2021  10:14:00       39.677      -48.596      -21.508       56.605       65.316       38.780     3204.103     4266.169     1503.882        0.668        0.449       62.736       18.541        0.087      331.277       -0.810      853.875
12/30/2021  10:15:00       29.027       -1.702      -15.996       68.356       49.401       35.867     4672.510     2440.508     1286.442        0.475        0.420       29.076       15.559        0.286      331.258       -0.842      853.879
12/30/2021  10:16:00       15.350        5.910       -7.537       39.857       27.246       32.677     1588.551      742.369     1067.762        0.186        0.170       16.449       12.551        0.582      331.359       -0.677      853.898
12/30/2021  10:17:00      -12.010      -18.172       -0.282       22.389       32.420       22.796      501.288     1051.049      519.641        0.127        0.104       21.782       19.280        0.783      331.371       -0.657      853.870
12/30/2021  10:18:00       11.321      -40.015       -8.177       27.514       27.302       23.076      757.022      745.386      532.502        0.192        0.102       41.586       13.173        0.100      331.497       -0.450      853.807
12/30/2021  10:19:00      -32.194      -39.903      -23.237       36.596       32.183       18.458     1339.259     1035.718      340.684        0.294        0.136       51.271       10.570        0.042      331.541       -0.377      853.788
12/30/2021  10:20:00       14.523      -57.212      -16.921       54.370       41.073       29.571     2956.070     1687.023      874.420        0.464        0.276       59.027       22.474        0.145      331.595       -0.288      853.771
12/30/2021  10:21:00       47.843     -115.407      -35.533       45.252       38.535       32.534     2047.754     1484.965     1058.462        1.073        0.230      124.930       19.096        0.023      331.520       -0.414      853.810
12/30/2021  10:22:00      110.559     -149.037      -51.383       59.196       69.272       40.448     3504.134     4798.636     1636.059        2.351        0.497      185.567       35.038        0.036      331.223       -0.903      853.798
12/30/2021  10:23:00      149.679     -124.022      -40.625       37.760       54.529       38.719     1425.813     2973.431     1499.166        2.267        0.295      194.385       32.426        0.028      331.061       -1.170      853.724
12/30/2021  10:24:00       65.527     -202.204      -41.388       33.330       34.975       27.475     1110.869     1223.270      754.876        2.499        0.154      212.556       12.807        0.004      331.278       -0.811      853.684
12/30/2021  10:25:00       84.783     -149.385      -42.937       57.290       48.923       35.903     3282.171     2393.464     1289.044        1.915        0.348      171.768       26.206        0.023      331.326       -0.733      853.677
12/30/2021  10:26:00      101.681     -141.868      -40.723       58.332       65.728       39.675     3402.655     4320.154     1574.112        2.071        0.465      174.544       37.509        0.046      331.358       -0.679      853.645
12/30/2021  10:27:00       32.004      -65.969      -38.490       90.260       74.545       38.121     8146.813     5556.892     1453.188        1.100        0.758       73.322       28.974        0.156      331.406       -0.599      853.619
12/30/2021  10:28:00        1.743      -14.637      -13.306       28.185       35.468       20.153      794.417     1257.997      406.139        0.143        0.123       14.741       14.845        1.014      331.469       -0.495      853.604
12/30/2021  10:29:00       -9.816       -2.815       -7.341       30.168       35.052       22.168      910.118     1228.672      491.435        0.139        0.132       10.212       13.203        1.672      331.642       -0.211      853.623
12/30/2021  10:30:00       25.780       11.281      -32.258       79.420       58.810       38.162     6307.495     3458.557     1456.302        0.653        0.561       28.140       43.701        2.412      331.396       -0.617      853.597
12/30/2021  10:31:00      105.838      -83.156      -35.700       65.877       64.726       43.258     4339.776     4189.428     1871.227        1.489        0.520      134.598       32.935        0.060      331.304       -0.767      853.504
12/30/2021  10:32:00       86.989        2.179      -24.745       84.719       66.604       48.416     7177.342     4436.125     2344.138        1.107        0.698       87.017       36.961        0.180      331.559       -0.349      853.498
12/30/2021  10:33:00       38.011      -39.801       -8.884       74.995       56.115       52.225     5624.232     3148.924     2727.503        0.730        0.575       55.036       32.646        0.352      331.579       -0.316      853.480
12/30/2021  10:34:00       62.387        6.273      -15.104       76.218       54.466       32.374     5809.136     2966.523     1048.059        0.699        0.491       62.702       29.822        0.226      331.487       -0.466      853.461
12/30/2021  10:35:00      110.228      -15.573      -14.098       86.097       66.642       63.387     7412.668     4441.213     4017.971        1.423        0.794      111.323       48.757        0.192      331.433       -0.555      853.410
12/30/2021  10:36:00      135.359      -27.643      -22.516       82.538       63.617       42.989     6812.567     4047.075     1848.060        1.615        0.635      138.153       34.597        0.063      331.412       -0.590      853.413
12/30/2021  10:37:00       74.169      -10.437      -12.412       77.538       48.078       40.098     6012.208     2311.454     1607.844        0.785        0.497       74.900       30.680        0.168      331.404       -0.604      853.427
12/30/2021  10:38:00       62.138      -23.395      -18.659       54.536       55.235       42.673     2974.141     3050.893     1821.006        0.630        0.392       66.396       30.207        0.207      331.542       -0.376      853.445
12/30/2021  10:39:00      164.758       -3.318      -29.792       76.989       54.936       41.521     5927.249     3017.973     1724.013        1.935        0.533      164.791       24.580        0.022      331.363       -0.672      853.458
12/30/2021  10:40:00      102.494      -44.122      -27.254       92.122       65.042       42.620     8486.413     4230.485     1816.425        1.386        0.727      111.587       30.874        0.077      331.547       -0.368      853.445
12/30/2021  10:41:00      120.217        1.803      -14.689      102.704       83.028       63.230    10548.143     6893.687     3998.039        1.805        1.072      120.231       58.019        0.233      331.511       -0.427      853.403
12/30/2021  10:42:00       93.252      -45.689      -36.304       92.944       91.630       62.902     8638.558     8396.145     3956.618        1.654        1.050      103.843       44.930        0.187      331.430       -0.562      853.331
12/30/2021  10:43:00      149.426      -70.184      -24.614      111.402       75.306       65.317    12410.397     5671.036     4266.255        2.510        1.117      165.087       68.973        0.175      331.382       -0.641      853.264
12/30/2021  10:44:00      154.202      -37.541      -21.719      102.815       87.277       60.222    10570.953     7617.202     3626.731        2.373        1.091      158.706       58.877        0.138      331.413       -0.590      853.228
12/30/2021  10:45:00      175.158      -60.263      -11.262      107.748      100.276       67.616    11609.530    10055.320     4571.878        3.033        1.312      185.235       61.875        0.112      331.331       -0.726      853.182
12/30/2021  10:46:00      131.977      -52.857      -13.240       90.538       64.834       52.971     8197.161     4203.484     2805.956        1.779        0.760      142.168       41.874        0.087      331.422       -0.575      853.162
12/30/2021  10:47:00       96.801      -46.833      -17.536       80.358       71.743       47.277     6457.471     5147.091     2235.115        1.285        0.692      107.535       32.716        0.093      331.419       -0.579      853.147
12/30/2021  10:48:00       66.833      -29.908       -4.175       55.942       57.301       37.305     3129.561     3283.376     1391.654        0.659        0.390       73.220       31.321        0.183      331.547       -0.368      853.148
12/30/2021  10:49:00        0.663       26.647       12.045       52.884       34.479       40.034     2796.728     1188.826     1602.728        0.322        0.279       26.655       20.042        0.565      331.596       -0.287      853.121
12/30/2021  10:50:00       58.304     -105.059      -40.476       71.506       95.885       45.958     5113.053     9193.872     2112.157        1.624        0.821      120.153       36.145        0.090      331.611       -0.262      853.068
12/30/2021  10:51:00       67.202      -21.759      -13.300       82.184       70.993       56.779     6754.202     5039.953     3223.809        1.009        0.751       70.637       38.408        0.296      331.645       -0.207      853.001
12/30/2021  10:52:00      149.597      -34.055      -18.232      111.809       78.917       59.078    12501.165     6227.933     3490.231        2.304        1.111      153.424       53.466        0.121      331.509       -0.431      852.963
12/30/2021  10:53:00      125.404     -147.812      -46.947       86.802      132.151       59.450     7534.624    17463.885     3534.274        3.415        1.427      193.842       42.986        0.049      331.607       -0.270      852.922
12/30/2021  10:54:00      124.184     -176.590      -76.689       66.361      112.570       56.697     4403.727    12672.068     3214.599        3.638        1.015      215.884       34.167        0.025      331.607       -0.272      852.806
12/30/2021  10:55:00       99.049      -21.731      -19.846       83.707      113.989       72.848     7006.791    12993.417     5306.900        1.799        1.265      101.405       47.014        0.215      331.930        0.261      852.710
12/30/2021  10:56:00      212.664      -34.426       -7.972      143.482       95.855       79.398    20587.197     9188.256     6303.974        4.127        1.804      215.432       85.657        0.158      331.508       -0.435      852.662
12/30/2021  10:57:00      207.772        2.813      -23.173      115.141       82.130       60.818    13257.524     6745.413     3698.829        3.370        1.185      207.792       40.622        0.038      331.543       -0.376      852.675
12/30/2021  10:58:00      100.364      -22.648       -1.163       93.602       89.329       53.425     8761.321     7979.715     2854.224        1.509        0.980      102.888       42.587        0.171      331.743       -0.046      852.675
12/30/2021  10:59:00      -19.773      -68.199      -23.774       82.640       80.715       36.097     6829.289     6514.875     1302.993        1.012        0.732       71.008       34.016        0.229      331.707       -0.105      852.750
12/30/2021  11:00:00      -26.657      -75.515      -39.769       61.063       42.529       41.561     3728.663     1808.733     1727.302        0.763        0.363       80.082       23.910        0.089      331.904        0.221      852.804
12/30/2021  11:01:00       64.257      -70.815      -33.955       50.066       54.971       32.015     2506.593     3021.845     1024.989        0.842        0.328       95.623       25.643        0.072      331.830        0.099      852.823
12/30/2021  11:02:00       51.082       -2.817      -17.575       40.634       32.133       21.466     1651.099     1032.557      460.809        0.303        0.157       51.159       20.338        0.158      331.859        0.147      852.807
12/30/2021  11:03:00       15.243       -4.199       -1.332       89.438       39.359       32.250     7999.154     1549.134     1040.074        0.542        0.529       15.811       26.562        2.822      332.025        0.418      852.752
12/30/2021  11:04:00       50.343      -29.971       -9.330       81.033       48.261       41.433     6566.275     2329.168     1716.682        0.706        0.531       58.589       30.814        0.277      331.826        0.092      852.728
12/30/2021  11:05:00       25.272      -21.808      -34.358       39.282       56.123       32.535     1543.068     3149.827     1058.508        0.402        0.288       33.380       18.668        0.313      331.997        0.374      852.592
12/30/2021  11:06:00       -5.072       18.293      -17.153       88.746       56.613       41.493     7875.814     3204.998     1721.671        0.673        0.640       18.983       21.430        1.274      332.128        0.588      852.511
12/30/2021  11:07:00      -27.919      -18.126       -3.645       75.636       56.960       47.426     5720.782     3244.467     2249.202        0.617        0.561       33.287       37.085        1.241      332.218        0.738      852.573
12/30/2021  11:08:00       33.257       41.720      -16.675      133.079       52.476       34.578    17709.989     2753.780     1195.668        1.239        1.083       53.353       21.069        0.156      332.089        0.524      852.587
12/30/2021  11:09:00      146.901      -10.866        1.659       75.394       73.645       45.561     5684.215     5423.608     2075.797        1.744        0.659      147.302       39.989        0.074      331.935        0.271      852.514
12/30/2021  11:10:00       86.608      -76.926      -25.257       92.962       94.438       52.436     8642.001     8918.612     2749.573        1.718        1.016      115.838       56.584        0.239      332.061        0.477      852.546
12/30/2021  11:11:00      132.903      -82.576      -45.860       90.017       75.434       36.351     8102.980     5690.262     1321.376        2.085        0.756      156.467       18.969        0.015      331.883        0.184      852.597
12/30/2021  11:12:00      234.629     -103.552      -19.537       94.339       57.952       53.194     8899.873     3358.412     2829.645        4.062        0.754      256.464       44.919        0.031      331.703       -0.115      852.622
12/30/2021  11:13:00      102.183      -43.273      -13.236      103.288       82.713       46.812    10668.376     6841.373     2191.379        1.609        0.985      110.968       48.259        0.189      331.961        0.313      852.541
12/30/2021  11:14:00      127.775       -9.535      -18.353      101.151       62.899       62.879    10231.530     3956.264     3953.745        1.744        0.907      128.130       65.121        0.258      331.923        0.250      852.475
12/30/2021  11:15:00       64.135      -75.507      -27.661       57.748       88.507       33.496     3334.848     7833.516     1121.998        1.143        0.615       99.069       20.764        0.044      331.962        0.316      852.509
12/30/2021  11:16:00       75.630       -7.963      -26.181       87.151       42.857       41.059     7595.355     1836.760     1685.871        0.879        0.556       76.048       27.966        0.135      332.098        0.539      852.488
12/30/2021  11:17:00      121.147      -18.638      -19.830       51.923       49.044       33.125     2696.029     2405.348     1097.235        1.081        0.310      122.572       28.217        0.053      331.901        0.217      852.497
12/30/2021  11:18:00       89.274      -18.302       -9.085       47.545       58.308       41.270     2260.480     3399.775     1703.246        0.787        0.368       91.130       31.570        0.120      331.992        0.365      852.556
12/30/2021  11:19:00      127.185       -9.359      -35.167      106.233       76.597       58.252    11285.415     5867.158     3393.276        1.902        1.027      127.528       50.228        0.155      331.953        0.299      852.431
12/30/2021  11:20:00      149.873      -25.266      -13.446      121.742       67.736       60.743    14821.033     4588.218     3689.685        2.319        1.155      151.988       55.113        0.131      332.007        0.387      852.336
12/30/2021  11:21:00      149.120       -5.544      -20.284      102.192       66.935       46.570    10443.271     4480.350     2168.721        1.988        0.855      149.223       21.156        0.020      332.096        0.535      852.300
12/30/2021  11:22:00      176.982     -106.464      -28.972       72.061       52.711       33.763     5192.763     2778.407     1139.910        2.630        0.456      206.537       25.386        0.015      331.972        0.330      852.315
12/30/2021  11:23:00      123.112      -31.508       -6.172       78.502       66.366       41.844     6162.620     4404.477     1750.938        1.425        0.616      127.080       37.498        0.087      332.093        0.531      852.281
12/30/2021  11:24:00      120.080     -146.443      -24.379       81.558       83.826       42.245     6651.688     7026.743     1784.602        2.596        0.773      189.380       32.757        0.030      332.090        0.523      852.280
12/30/2021  11:25:00      179.908      -44.604      -40.966       78.107       92.804       47.107     6100.676     8612.636     2219.085        2.648        0.847      185.354       35.551        0.037      332.033        0.429      852.262
12/30/2021  11:26:00       77.225       -4.845      -10.384      103.488       83.273       64.137    10709.671     6934.412     4113.512        1.392        1.088       77.377       45.728        0.349      332.185        0.681      852.106
12/30/2021  11:27:00      132.685      -43.620        1.524      119.339       77.975       63.796    14241.806     6080.054     4069.935        2.195        1.220      139.671       68.544        0.241      332.172        0.660      852.059
12/30/2021  11:28:00       92.601     -155.568      -43.279      112.140      158.669       48.270    12575.422    25175.840     2329.954        3.736        2.004      181.043       70.540        0.152      332.262        0.808      852.043
12/30/2021  11:29:00      106.111     -189.904      -43.554       70.814       73.175       44.741     5014.689     5354.653     2001.751        3.079        0.619      217.539       42.350        0.038      332.230        0.753      852.049
12/30/2021  11:30:00       99.143     -127.429      -45.748       41.317       89.046       24.248     1707.089     7929.232      587.952        1.919        0.511      161.455       22.220        0.019      332.155        0.632      852.050
12/30/2021  11:31:00       54.184     -102.598      -42.477       53.557       43.949       37.887     2868.372     1931.492     1435.390        1.075        0.312      116.027       27.953        0.058      332.424        1.076      852.074
12/30/2021  11:32:00       29.743      -81.632      -23.116       79.179       92.249       38.944     6269.262     8509.912     1516.606        1.219        0.815       86.882       44.855        0.267      332.512        1.222      852.115
12/30/2021  11:33:00       48.902      -43.432      -25.023       58.556       51.911       35.165     3428.769     2694.786     1236.549        0.613        0.368       65.404       32.349        0.245      332.407        1.050      852.115
12/30/2021  11:34:00       31.241      -54.085      -29.482       53.746       50.213       23.792     2888.586     2521.329      566.065        0.537        0.299       62.459       22.744        0.133      332.518        1.232      852.133
12/30/2021  11:35:00       70.619      -67.349      -30.282       46.742       70.679       34.330     2184.822     4995.506     1178.529        0.940        0.418       97.585       25.654        0.069      332.421        1.072      852.105
12/30/2021  11:36:00       67.638      -65.764      -30.219       77.039       87.879       44.941     5934.989     7722.714     2019.685        1.274        0.784       94.339       38.622        0.168      332.379        1.003      852.098
12/30/2021  11:37:00      129.322     -170.680      -56.143       52.432      100.083       38.088     2749.166    10016.662     1450.682        3.161        0.711      214.140       25.102        0.014      332.320        0.903      852.058
12/30/2021  11:38:00       65.350     -176.689      -33.845       50.430       52.318       29.809     2543.189     2737.161      888.548        2.140        0.308      188.387       25.352        0.018      332.379        1.000      852.075
12/30/2021  11:39:00       91.411     -124.639      -36.965       62.007       59.411       29.886     3844.884     3529.709      893.180        1.676        0.413      154.567       29.831        0.037      332.410        1.053      852.120
12/30/2021  11:40:00       71.847     -123.825      -34.019       76.956       64.561       40.439     5922.172     4168.155     1635.280        1.669        0.586      143.159       38.622        0.073      332.499        1.199      852.111
12/30/2021  11:41:00      129.255     -196.846      -50.548       53.291       53.082       36.961     2839.907     2817.751     1366.106        3.252        0.351      235.489       32.933        0.020      332.226        0.747      852.099
12/30/2021  11:42:00      128.153     -207.211      -47.423       47.740       56.441       31.060     2279.090     3185.577      964.696        3.402        0.321      243.638       28.873        0.014      332.216        0.731      852.097
12/30/2021  11:43:00       74.889     -175.774      -40.043       60.532       97.109       39.148     3664.138     9430.214     1532.578        2.636        0.731      191.063       40.048        0.044      332.381        1.003      852.103
12/30/2021  11:44:00      -81.704       -4.651      -14.539       59.575       55.107       26.379     3549.124     3036.821      695.866        0.709        0.364       81.836       17.711        0.047      332.697        1.528      852.144
12/30/2021  11:45:00      121.568     -179.366      -49.566       67.987       54.027       34.823     4622.179     2918.897     1212.612        2.908        0.438      216.682       40.746        0.035      332.449        1.115      852.095
12/30/2021  11:46:00       97.878     -210.519      -52.925       78.195       77.879       42.002     6114.486     6065.106     1764.151        3.532        0.697      232.160       34.774        0.022      332.445        1.108      851.977
12/30/2021  11:47:00       57.267     -177.731      -35.809       51.428       64.350       41.732     2644.836     4140.904     1741.531        2.234        0.426      186.729       37.333        0.040      332.656        1.458      851.977
12/30/2021  11:48:00       -0.192      -86.447      -29.115       76.117       80.545       42.016     5793.822     6487.440     1765.323        1.118        0.702       86.447       38.219        0.195      332.726        1.576      852.023
12/30/2021  11:49:00       -8.581      -46.756      -28.989       46.942       46.182       26.775     2203.525     2132.738      716.889        0.408        0.253       47.537       22.147        0.217      332.817        1.728      852.036
12/30/2021  11:50:00       92.245     -109.095      -40.813       64.088       86.133       36.547     4107.242     7418.938     1335.687        1.747        0.643      142.866       30.066        0.044      332.550        1.283      851.969
12/30/2021  11:51:00       39.120     -131.705      -44.008       97.509       81.482       52.547     9508.003     6639.277     2761.151        1.986        0.945      137.393       38.940        0.080      332.749        1.614      851.941
12/30/2021  11:52:00      116.086     -189.179      -52.974       63.114       80.182       40.417     3983.333     6429.126     1633.494        3.206        0.602      221.956       31.140        0.020      332.414        1.057      851.962
12/30/2021  11:53:00       84.545      -74.771      -55.613       76.324       70.078       46.287     5825.411     4910.903     2142.507        1.435        0.644      112.865       46.108        0.167      332.555        1.293      851.921
12/30/2021  11:54:00      -12.452      -55.615      -22.427       68.674       40.360       36.168     4716.050     1628.911     1308.104        0.570        0.383       56.992       31.525        0.306      332.799        1.696      851.989
12/30/2021  11:55:00      -15.678       -5.773      -14.523       55.424       60.116       38.422     3071.795     3613.897     1476.222        0.432        0.408       16.707       28.701        2.951      332.827        1.743      852.011
12/30/2021  11:56:00       30.520      -63.140      -34.571       61.431       76.178       37.523     3773.752     5803.137     1407.953        0.855        0.549       70.129       42.519        0.368      332.919        1.895      852.001
12/30/2021  11:57:00       95.667     -126.137      -38.057       56.683       74.788       45.223     3212.939     5593.225     2045.080        1.868        0.543      158.312       37.086        0.055      332.552        1.287      851.902
12/30/2021  11:58:00       45.745      -83.295      -14.359       51.675       52.150       34.060     2670.321     2719.621     1160.091        0.789        0.328       95.030       25.917        0.074      332.695        1.526      851.885
12/30/2021  11:59:00       68.132      -70.150      -20.748       35.700       41.880       25.606     1274.462     1753.904      655.672        0.684        0.184       97.791       23.885        0.060      332.629        1.415      851.913
12/30/2021  12:00:00       54.635      -64.033      -28.564       55.706       71.259       35.374     3103.188     5077.779     1251.289        0.866        0.472       84.174       41.670        0.245      332.620        1.401      851.860
12/30/2021  12:01:00      116.395     -176.679      -54.679       28.626       45.296       20.958      819.431     2051.722      439.239        2.553        0.166      211.574       14.205        0.005      332.339        0.936      851.794
12/30/2021  12:02:00      154.421     -179.259      -71.260       61.579      100.172       29.584     3792.021    10034.490      875.211        3.788        0.735      236.600       27.942        0.014      332.424        1.075      851.729
12/30/2021  12:03:00      114.119     -212.399      -45.220       45.933       59.315       37.910     2109.826     3518.277     1437.176        3.362        0.353      241.115       29.591        0.015      332.433        1.087      851.731
12/30/2021  12:04:00       79.618     -183.506      -26.488       46.792       71.955       37.925     2189.497     5177.511     1438.274        2.476        0.440      200.034       38.535        0.037      332.518        1.229      851.688
12/30/2021  12:05:00      -35.372      -33.482       -3.539       64.393       45.824       29.194     4146.497     2099.875      852.299        0.474        0.355       48.705       29.676        0.371      333.139        2.259      851.691
12/30/2021  12:06:00      -49.689      -86.203      -31.932       46.938       35.376       23.386     2203.200     1251.428      546.918        0.746        0.200       99.499       16.201        0.027      333.172        2.314      851.689
12/30/2021  12:07:00       30.458     -232.731      -61.800       96.949       91.393       49.276     9399.037     8352.752     2428.114        3.954        1.009      234.716       33.854        0.021      333.319        2.552      851.652
12/30/2021  12:08:00     -127.559     -154.687      -25.010       72.812       89.688       41.877     5301.649     8043.967     1753.718        2.796        0.755      200.498       14.607        0.005      333.901        3.518      851.589
12/30/2021  12:09:00       77.674     -166.970      -58.897      121.166      124.101       45.830    14681.254    15401.017     2100.390        3.478        1.609      184.152       62.376        0.115      333.188        2.336      851.538
12/30/2021  12:10:00      -20.541      -90.038      -25.496      100.295       64.672       38.914    10059.167     4182.470     1514.322        1.246        0.788       92.351       46.196        0.250      333.652        3.107      851.543
12/30/2021  12:11:00       98.548      -76.886      -30.974       56.839       48.135       30.896     3230.679     2316.948      954.563        1.154        0.325      124.993       32.363        0.067      333.417        2.719      851.443
12/30/2021  12:12:00       69.401     -130.158      -35.770       58.784       48.205       39.108     3455.615     2323.740     1529.419        1.517        0.365      147.505       41.326        0.078      333.450        2.773      851.456
12/30/2021  12:13:00       20.051      -62.522      -32.986       41.201       41.466       34.167     1697.530     1719.443     1167.358        0.499        0.229       65.659       21.045        0.103      333.837        3.414      851.490
12/30/2021  12:14:00      116.007      -92.642      -62.037       59.328       95.612       48.441     3519.766     9141.720     2346.530        2.045        0.750      148.459       36.162        0.059      333.743        3.256      851.366
12/30/2021  12:15:00       -1.817      -29.896      -13.324       79.967       56.959       43.096     6394.751     3244.298     1857.240        0.628        0.575       29.951       41.476        1.918      334.020        3.717      851.393
12/30/2021  12:16:00       12.581       -3.888      -36.002       97.643       83.039       43.768     9534.153     6895.551     1915.654        0.990        0.917       13.168       33.642        6.527      334.089        3.831      851.414
12/30/2021  12:17:00       10.839      -50.603      -36.014       72.719       63.812       47.304     5288.037     4071.957     2237.714        0.778        0.580       51.751       37.258        0.518      334.241        4.083      851.358
12/30/2021  12:18:00      -23.686      -12.115      -27.553       59.446       58.327       43.489     3533.870     3402.000     1891.256        0.515        0.441       26.604       31.716        1.421      334.370        4.298      851.300
12/30/2021  12:19:00      -64.875        8.597        0.978       90.352       68.545       52.391     8163.505     4698.471     2744.780        0.994        0.780       65.442       49.335        0.568      334.574        4.636      851.299
12/30/2021  12:20:00     -177.409     -178.583      -20.209       77.527       99.825       53.135     6010.408     9964.946     2823.310        4.128        0.940      251.726       31.826        0.016      334.441        4.412      851.237
12/30/2021  12:21:00     -180.871       18.985        0.822      117.058       97.016       55.598    13702.537     9412.153     3091.141        2.964        1.310      181.865       45.447        0.062      334.559        4.611      851.265
12/30/2021  12:22:00     -151.836       63.240       -7.302      111.708       75.091       43.420    12478.753     5638.629     1885.337        2.355        1.000      164.479       31.905        0.038      334.596        4.671      851.302
12/30/2021  12:23:00     -150.189      129.325       -7.947      125.916       69.458       57.116    15854.832     4824.471     3262.292        3.164        1.197      198.196       39.697        0.040      334.658        4.773      851.259
12/30/2021  12:24:00     -461.649      102.572      -17.375      260.090      160.976      108.923    67646.734    25913.225    11864.122       16.466        5.271      472.907      114.274        0.058      334.774        4.965      851.231
12/30/2021  12:25:00     -402.843       -6.272       -5.335      220.669      183.741       85.568    48694.908    33760.876     7321.877       12.605        4.489      402.892       91.963        0.052      334.859        5.106      851.199
12/30/2021  12:26:00     -304.979      -53.050      -15.889      209.238      157.695       82.575    43780.679    24867.749     6818.650        8.576        3.773      309.559       73.410        0.056      334.875        5.134      851.126
12/30/2021  12:27:00     -151.572      -35.068       -8.430      142.342       94.034       78.521    20261.316     8842.371     6165.623        2.977        1.763      155.576       51.988        0.112      334.964        5.283      851.095
12/30/2021  12:28:00     -146.748      -73.758      -39.094      161.734      118.639       78.819    26157.790    14075.164     6212.407        3.747        2.322      164.242       45.097        0.075      334.846        5.086      851.161
12/30/2021  12:29:00      -42.494      -65.102        5.458       74.212       84.208       49.376     5507.456     7090.927     2437.969        1.055        0.752       77.744       24.338        0.098      334.920        5.211      851.160
12/30/2021  12:30:00      -91.894      -82.984      -11.726      144.883      110.664       56.372    20991.010    12246.598     3177.767        2.594        1.821      123.818       48.341        0.152      334.931        5.229      851.171
12/30/2021  12:31:00     -279.818     -184.953      -44.247      190.432      115.276       63.854    36264.437    13288.459     4077.300        8.404        2.682      335.419       50.142        0.022      334.829        5.056      851.189
12/30/2021  12:32:00      -65.065      -98.237      -27.023      138.226       97.149       53.609    19106.417     9437.961     2873.921        2.301        1.571      117.831       35.913        0.093      335.011        5.361      851.210
12/30/2021  12:33:00     -119.089       28.277      -25.051      116.345      100.921       66.116    13536.052    10185.092     4371.333        2.185        1.405      122.400       34.420        0.079      334.995        5.333      851.198
12/30/2021  12:34:00     -256.161     -110.798      -23.807      205.143      104.612       73.874    42083.730    10943.688     5457.366        6.846        2.924      279.097       77.355        0.077      334.844        5.083      851.254
12/30/2021  12:35:00     -247.542       14.951      -15.483      162.869      170.226       87.188    26526.188    28976.849     7601.772        6.241        3.155      247.993       73.403        0.088      334.896        5.170      851.194
12/30/2021  12:36:00     -218.714       -6.913      -19.502      122.658       89.568       77.404    15045.077     8022.373     5991.395        3.866        1.453      218.823       60.583        0.077      334.950        5.260      851.190
12/30/2021  12:37:00     -265.021      -60.470      -18.880      125.978      137.037       79.312    15870.451    18779.219     6290.452        5.759        2.047      271.832       73.474        0.073      334.807        5.020      851.232
12/30/2021  12:38:00     -289.097       13.434      -44.707      175.031      212.921       86.118    30635.879    45335.416     7416.287        8.456        4.169      289.409       71.581        0.061      334.785        4.983      851.241
12/30/2021  12:39:00     -455.440      -22.015      -19.471      189.634      140.001       95.003    35960.936    19600.325     9025.607       13.643        3.229      455.971       72.223        0.025      334.754        4.933      851.212
12/30/2021  12:40:00     -188.956      -35.658      -11.620      151.621      104.074       71.147    22989.075    10831.349     5061.874        3.799        1.944      192.291       72.182        0.141      334.824        5.049      851.167
12/30/2021  12:41:00     -249.122       38.589      -35.299      127.567      102.101       64.594    16273.420    10424.681     4172.339        4.783        1.544      252.093       41.732        0.027      334.798        5.005      851.195
12/30/2021  12:42:00     -219.344      -38.131      -12.606      225.286      125.408       96.221    50753.723    15727.160     9258.485        6.272        3.787      222.634       92.372        0.172      334.789        4.990      851.134
12/30/2021  12:43:00     -298.843      -32.017      -19.031      197.371      129.499       89.154    38955.358    16769.998     7948.433        7.717        3.184      300.553       77.969        0.067      334.755        4.935      851.152
12/30/2021  12:44:00     -378.928       13.916      -26.817      264.414      140.644       87.093    69914.904    19780.598     7585.244       12.087        4.864      379.183       73.862        0.038      334.703        4.848      851.119
12/30/2021  12:45:00     -461.788       19.177      -29.750      296.895      148.490      104.993    88146.624    22049.272    11023.617       16.784        6.061      462.186      109.048        0.056      334.705        4.852      851.035
12/30/2021  12:46:00     -461.639      103.688       -1.101      238.099      185.328      121.542    56691.350    34346.557    14772.462       16.482        5.291      473.141      116.183        0.060      334.722        4.878      851.003
12/30/2021  12:47:00     -215.510       62.754        8.558      248.916      159.823      102.152    61959.181    25543.335    10435.099        7.418        4.897      224.460       71.344        0.101      334.753        4.932      850.973
12/30/2021  12:48:00     -303.148      161.316      -18.153      251.127      169.176       92.501    63064.826    28620.664     8556.397       10.923        5.012      343.397       75.114        0.048      334.781        4.977      850.974
12/30/2021  12:49:00     -393.883       58.652      -10.592      283.042      163.383      103.395    80112.515    26694.148    10690.461       13.808        5.875      398.226      107.765        0.073      334.739        4.907      850.993
12/30/2021  12:50:00     -544.656      -32.223      -64.873      270.411      215.379      107.859    73122.235    46388.089    11633.497       21.650        6.557      545.608       80.338        0.022      334.695        4.834      850.940
12/30/2021  12:51:00     -420.512       65.293      -16.196      335.693      215.088      127.033   112689.517    46262.739    16137.500       17.819        8.754      425.550      126.926        0.089      334.700        4.841      850.942
12/30/2021  12:52:00     -249.893      -47.033      -18.967      237.683      177.771      122.626    56493.138    31602.357    15037.131        8.406        5.157      254.281      111.587        0.193      334.720        4.875      850.939
12/30/2021  12:53:00     -317.802       68.600        1.107      202.287      135.646       81.151    40919.999    18399.895     6585.547        8.579        3.295      325.122       84.448        0.067      334.733        4.898      850.955
12/30/2021  12:54:00     -426.238       80.817      -24.450      217.606      167.463      102.045    47352.428    28043.718    10413.096       13.729        4.290      433.832      104.153        0.058      334.713        4.863      850.940
12/30/2021  12:55:00     -438.420       45.616      -27.066      267.576      167.394       98.189    71596.860    28020.855     9641.080       15.212        5.463      440.787      115.653        0.069      334.721        4.878      850.992
12/30/2021  12:56:00     -474.351       90.065        1.808      303.511      167.074      121.434    92118.831    27913.638    14746.215       18.393        6.739      482.826      128.002        0.070      334.693        4.831      850.953
12/30/2021  12:57:00     -516.975       89.355      -24.391      248.973      161.531      102.667    61987.710    26092.278    10540.460       18.721        4.931      524.640       96.894        0.034      334.713        4.863      850.986
12/30/2021  12:58:00     -380.423      153.953        5.946      236.333      186.685      118.866    55853.343    34851.378    14129.103       13.663        5.242      410.394      116.348        0.080      334.769        4.957      850.962
12/30/2021  12:59:00     -389.635       69.210        4.117      266.033      171.023      105.663    70773.452    29248.806    11164.627       13.388        5.559      395.734      116.032        0.086      334.772        4.963      850.946
12/30/2021  13:00:00     -231.336       44.905      -12.645      251.007      126.297       80.695    63004.688    15951.022     6511.719        7.056        4.273      235.654       87.276        0.137      334.819        5.041      850.947
12/30/2021  13:01:00     -383.936      133.401        5.303      261.728      165.291       84.973    68501.306    27320.953     7220.396       13.412        5.152      406.451       99.655        0.060      334.801        5.012      850.967
12/30/2021  13:02:00     -415.361      151.899       -1.203      247.173      166.220      104.733    61094.464    27629.238    10968.938       14.763        4.985      442.265      102.428        0.054      334.789        4.992      850.934
12/30/2021  13:03:00     -393.823      103.564      -34.276      185.536      153.523      107.163    34423.788    23569.462    11483.967       11.822        3.474      407.213       97.242        0.057      334.767        4.953      850.949
12/30/2021  13:04:00     -421.000       79.101      -31.824      227.156      143.609       94.370    51599.710    20623.442     8905.774       13.281        4.056      428.367       80.372        0.035      334.757        4.938      850.964
12/30/2021  13:05:00     -252.572       53.358      -13.202      240.542      143.825      103.282    57860.295    20685.511    10667.101        7.800        4.461      258.147      105.972        0.169      334.754        4.933      850.988
12/30/2021  13:06:00     -385.151       83.174       -7.045      150.202      165.023       88.684    22560.736    27232.697     7864.794       10.647        2.883      394.030       80.531        0.042      334.740        4.911      851.001
12/30/2021  13:07:00     -276.115       72.571       -3.697      232.260      158.630      102.414    53944.701    25163.607    10488.704        8.554        4.480      285.492      102.821        0.130      334.771        4.960      850.987
12/30/2021  13:08:00     -208.359      -23.031       -6.688      330.858      167.124      101.655   109467.266    27930.590    10333.776        9.583        7.387      209.628       90.074        0.185      334.774        4.966      850.946
12/30/2021  13:09:00     -334.602      110.066      -24.021      187.736      143.350      106.441    35244.968    20549.247    11329.627        9.587        3.356      352.240       93.443        0.070      334.804        5.016      850.981
12/30/2021  13:10:00     -455.904      134.520       -0.095      283.307      185.458      113.117    80262.639    34394.669    12795.444       17.668        6.373      475.336      111.968        0.055      334.761        4.945      850.998
12/30/2021  13:11:00     -501.759      122.401       -5.553      297.948      186.250      128.333    88773.209    34689.196    16469.300       20.333        6.997      516.473      141.133        0.075      334.727        4.887      850.944
12/30/2021  13:12:00     -307.856      100.663      -17.412      160.760      153.479       90.995    25843.669    23555.925     8280.094        8.144        2.884      323.896       63.407        0.038      334.801        5.011      850.967
12/30/2021  13:13:00     -410.527      120.921      -27.438      324.709      217.787      102.168   105436.053    47431.288    10438.398       17.358        8.165      427.965      120.906        0.080      334.737        4.902      850.944
12/30/2021  13:14:00     -439.695       89.862       -9.873      272.082      183.618      113.899    74028.364    33715.518    12973.016       16.109        6.036      448.784      115.211        0.066      334.780        4.975      850.892
12/30/2021  13:15:00     -413.796      145.595       -7.210      293.550      172.537      114.967    86171.686    29769.127    13217.372       16.079        6.458      438.662      116.446        0.070      334.822        5.044      850.858
12/30/2021  13:16:00     -345.808       68.520      -21.287      279.062      182.512      117.956    77875.739    33310.692    13913.629       12.489        6.255      352.531       97.048        0.076      334.876        5.135      850.828
12/30/2021  13:17:00     -478.265      134.005       -0.448      273.250      197.528      112.634    74665.406    39017.157    12686.357       18.651        6.318      496.684      121.979        0.060      334.832        5.062      850.853
12/30/2021  13:18:00     -329.862       47.602       16.556      218.342      143.072       96.656    47673.082    20469.659     9342.409        9.440        3.874      333.279      108.524        0.106      334.918        5.204      850.888
12/30/2021  13:19:00     -270.555       46.505       -7.549      231.342      139.461       92.018    53519.196    19449.400     8467.237        7.841        4.072      274.523       72.489        0.070      334.990        5.326      850.950
12/30/2021  13:20:00     -336.020      119.682        4.495      216.138      153.858       89.688    46715.536    23672.196     8043.888       10.283        3.922      356.698       93.472        0.069      335.055        5.434      850.963
12/30/2021  13:21:00     -429.376      146.334       -1.160      267.567      173.626      109.850    71592.210    30146.140    12067.111       15.977        5.690      453.627      102.260        0.051      334.982        5.311      850.941
12/30/2021  13:22:00     -368.617       41.463      -23.905      285.703      165.385       87.022    81626.129    27352.336     7572.903       12.734        5.828      370.941       69.817        0.035      334.946        5.250      850.898
12/30/2021  13:23:00     -266.881       77.261       15.922      191.846      151.250       79.117    36804.885    22876.562     6259.425        7.168        3.297      277.840       86.554        0.097      335.027        5.386      850.909
12/30/2021  13:24:00     -182.369       14.980        4.268      202.529      146.772      102.816    41017.904    21541.914    10571.209        5.330        3.657      182.983      105.944        0.335      335.013        5.363      850.880
12/30/2021  13:25:00     -258.071       85.581       -9.005      123.565       97.363       61.525    15268.304     9479.546     3785.381        5.126        1.427      271.891       57.424        0.045      335.149        5.589      850.874
12/30/2021  13:26:00     -252.538      104.055       -9.123      142.621       93.268       77.889    20340.742     8698.830     6066.698        5.489        1.755      273.136       64.230        0.055      335.243        5.744      850.897
12/30/2021  13:27:00     -558.535      146.748      -24.648      233.856      162.275       92.373    54688.408    26333.226     8532.801       21.181        4.478      577.492       84.034        0.021      334.966        5.287      850.873
12/30/2021  13:28:00     -368.917      110.029       -6.080      201.351      150.896       90.876    40542.395    22769.700     8258.377       10.989        3.579      384.976       84.732        0.048      335.080        5.475      850.874
12/30/2021  13:29:00     -344.681      102.962        1.195      295.162      168.849      105.279    87120.575    28510.054    11083.752       12.804        6.336      359.731       98.723        0.075      335.063        5.446      850.872
12/30/2021  13:30:00     -492.048      106.147      -21.357      245.988      199.967      111.213    60510.207    39986.911    12368.246       18.333        5.643      503.367      121.190        0.058      334.992        5.329      850.828
12/30/2021  13:31:00     -658.035      153.262      -36.633      304.334      183.186      117.571    92618.993    33557.030    13822.828       29.889        7.000      675.647      137.578        0.041      334.880        5.141      850.830
12/30/2021  13:32:00     -283.392      126.470       11.459      224.317      175.985       83.824    50318.028    30970.725     7026.468        9.236        4.416      310.332       91.648        0.087      335.055        5.433      850.866
12/30/2021  13:33:00     -382.762      151.754       -5.677      222.926      152.783       95.950    49696.061    23342.623     9206.494       12.589        4.112      411.748      100.592        0.060      334.992        5.329      850.865
12/30/2021  13:34:00     -468.378       89.455        5.526      222.196      160.558      108.678    49371.252    25779.024    11810.963       15.717        4.348      476.843      104.758        0.048      334.955        5.267      850.887
12/30/2021  13:35:00     -322.115      102.778      -19.013      257.818      157.229      106.551    66469.953    24721.044    11353.206       10.859        5.127      338.115       68.667        0.041      334.993        5.329      850.877
12/30/2021  13:36:00     -362.036       53.018      -28.762      212.826      108.073       74.695    45294.807    11679.745     5579.282        9.862        3.128      365.897       36.092        0.010      334.999        5.339      850.881
12/30/2021  13:37:00     -269.961       71.575        2.307      188.405      144.368       75.572    35496.540    20842.088     5711.171        7.002        3.102      279.288       57.950        0.043      335.064        5.447      850.932
12/30/2021  13:38:00     -342.233       56.066       -2.600      211.119      158.258      109.860    44571.161    25045.644    12069.215       10.096        4.084      346.796       88.328        0.065      334.993        5.329      850.934
12/30/2021  13:39:00     -543.579       85.972      -23.718      329.459      191.643      121.349   108543.309    36726.861    14725.581       23.168        8.000      550.335      138.606        0.063      334.950        5.258      850.942
12/30/2021  13:40:00     -347.765       39.921        3.067      262.360      201.249      105.944    68832.533    40500.965    11224.060       12.153        6.028      350.049      106.595        0.093      334.954        5.265      850.968
12/30/2021  13:41:00     -297.597      -24.715        5.810      356.173      212.468      129.821   126859.427    45142.816    16853.609       13.900        9.443      298.621      162.740        0.297      334.954        5.266      850.981
12/30/2021  13:42:00     -274.229       54.820      -27.493      177.898      123.677      101.809    31647.612    15296.090    10365.091        6.813        2.865      279.654       96.433        0.119      335.005        5.350      850.969
12/30/2021  13:43:00     -350.786       80.786      -35.385      308.741      156.745      113.043    95321.082    24569.136    12778.780       13.172        6.633      359.968      123.390        0.117      334.947        5.252      850.921
12/30/2021  13:44:00     -323.503       64.362       -4.160      208.689      129.479       87.729    43551.155    16764.915     7696.452        8.840        3.401      329.844       81.851        0.062      334.997        5.335      850.919
12/30/2021  13:45:00     -279.046       11.905       -3.932      168.473      147.795       87.810    28383.164    21843.330     7710.664        6.797        2.897      279.300       78.218        0.078      334.990        5.325      850.887
12/30/2021  13:46:00     -296.717       -1.133       -1.568      292.673      165.211       94.600    85657.750    27294.677     8949.173       10.495        6.095      296.719       98.112        0.109      334.909        5.191      850.847
12/30/2021  13:47:00     -267.474        5.034      -16.411      153.627      111.458       57.055    23601.198    12422.983     3255.281        5.555        1.964      267.521       59.657        0.050      334.982        5.312      850.827
12/30/2021  13:48:00     -405.485      -33.164      -10.420      298.358      151.131      119.034    89017.367    22840.689    14169.200       14.580        6.301      406.839      124.445        0.094      334.958        5.271      850.795
12/30/2021  13:49:00     -329.706        5.278      -14.497      318.628      186.135      122.634   101524.005    34646.147    15039.062       13.005        7.560      329.749      125.272        0.144      334.917        5.203      850.753
12/30/2021  13:50:00     -251.815      -24.061       -7.871      196.143      150.272       97.770    38472.183    22581.689     9558.994        6.732        3.531      252.962      103.235        0.167      334.975        5.300      850.769
12/30/2021  13:51:00     -278.189       14.112      -15.693      290.359      176.260      125.661    84308.115    31067.584    15790.702       10.448        6.558      278.547      121.469        0.190      334.942        5.246      850.729
12/30/2021  13:52:00     -255.049      118.156       -1.825      251.913      164.539      103.095    63460.050    27073.040    10628.652        9.007        5.058      281.089       97.433        0.120      335.018        5.371      850.685
12/30/2021  13:53:00     -266.153      107.354        8.240      196.575      166.497      102.783    38641.660    27721.354    10564.256        7.966        3.846      286.988      107.600        0.141      335.038        5.405      850.673
12/30/2021  13:54:00     -350.802      169.423       -2.404      287.435      244.856      129.758    82618.789    59954.362    16837.050       15.556        7.971      389.572      149.284        0.147      334.933        5.230      850.629
12/30/2021  13:55:00     -126.266      103.338      -15.239      172.513      107.757       85.120    29760.824    11611.517     7245.424        3.773        2.431      163.162       86.751        0.283      335.064        5.448      850.595
12/30/2021  13:56:00     -436.856      111.687      -28.275      183.988      170.559       98.780    33851.468    29090.217     9757.564       13.839        3.635      450.907       96.215        0.046      334.904        5.181      850.572
12/30/2021  13:57:00     -412.263      220.462       -3.333      267.997      214.162      126.088    71822.139    45865.525    15898.184       17.606        6.679      467.509      125.719        0.072      334.951        5.260      850.555
12/30/2021  13:58:00     -325.295      108.523       11.659      217.318      142.786       95.218    47227.144    20387.980     9066.487        9.719        3.834      342.919       84.225        0.060      334.910        5.192      850.546
12/30/2021  13:59:00     -289.749       85.526       -9.562      322.256      142.711      111.443   103848.675    20366.477    12419.506       11.397        6.832      302.108      127.650        0.179      334.894        5.165      850.510
12/30/2021  14:00:00     -440.621      206.844      -14.096      216.588      139.758       94.229    46910.155    19532.216     8879.129       15.621        3.766      486.756      106.650        0.048      334.834        5.064      850.516
12/30/2021  14:01:00     -508.422      162.084      -11.028      228.040      171.823       92.550    52002.105    29523.156     8565.442       18.747        4.505      533.633       96.292        0.033      334.846        5.085      850.508
12/30/2021  14:02:00     -458.781      141.957      -18.401      274.598      136.687       99.812    75404.005    18683.213     9962.475       16.749        5.202      480.241      101.326        0.045      334.946        5.250      850.558
12/30/2021  14:03:00     -512.251       66.207      -36.674      230.423      176.837      106.302    53094.977    31271.383    11300.152       18.188        4.783      516.512      106.075        0.042      334.857        5.104      850.612
12/30/2021  14:04:00     -343.538      124.989       -3.976      180.899      107.032       82.604    32724.356    11455.763     6823.482        9.232        2.550      365.568       87.093        0.057      334.936        5.233      850.674
12/30/2021  14:05:00     -596.219      156.550      -11.895      263.620      182.056      131.318    69495.598    33144.279    17244.417       24.998        5.994      616.429      110.855        0.032      334.839        5.075      850.635
12/30/2021  14:06:00     -465.306       97.469        4.138      265.358      211.841      135.919    70414.940    44876.632    18473.959       17.987        6.688      475.405      139.321        0.086      334.829        5.057      850.679
12/30/2021  14:07:00     -405.409        2.303      -13.615      289.290      184.450      146.959    83688.814    34021.774    21596.994       15.190        6.965      405.415      155.349        0.147      334.864        5.115      850.658
12/30/2021  14:08:00     -314.015       80.762       -8.139      228.969      149.693      111.232    52426.854    22407.895    12372.572        9.618        4.360      324.235      115.997        0.128      334.868        5.122      850.662
12/30/2021  14:09:00     -315.495      -45.723      -37.092      217.049      200.655      126.484    47110.291    40262.622    15998.077       10.317        5.169      318.791      107.030        0.113      334.841        5.076      850.703
12/30/2021  14:10:00     -419.053       97.961      -28.153      238.398      179.434      118.102    56833.652    32196.543    13947.995       14.447        5.149      430.351       92.780        0.046      334.779        4.972      850.710
12/30/2021  14:11:00     -465.527      146.461        0.487      265.090      185.513      136.196    70272.865    34414.888    18549.322       18.068        6.162      488.023      124.719        0.065      334.799        5.006      850.715
12/30/2021  14:12:00     -565.604      115.869      -26.948      380.427      231.489      130.244   144724.918    53587.165    16963.447       27.463       10.764      577.350      112.682        0.038      334.722        4.879      850.686
12/30/2021  14:13:00     -519.917      183.128      -15.055      281.522      221.529      123.077    79254.438    49075.035    15147.841       22.375        7.174      551.225      113.628        0.042      334.717        4.869      850.722
12/30/2021  14:14:00     -484.625      123.534       -5.507      353.313      177.631      128.395   124830.296    31552.856    16485.365       21.148        8.643      500.122      136.789        0.075      334.714        4.867      850.781
12/30/2021  14:15:00     -387.990       70.682      -20.096      252.772      205.395      119.838    63893.569    42186.929    14361.121       13.817        6.022      394.375      102.626        0.068      334.699        4.839      850.842
12/30/2021  14:16:00     -203.750       17.087       -9.487      240.212      171.674      121.006    57702.018    29472.124    14642.471        7.184        5.091      204.465      119.780        0.343      334.724        4.884      850.863
12/30/2021  14:17:00     -574.061      110.052      -20.361      294.075      189.919      123.819    86479.966    36069.078    15331.192       23.995        6.894      584.515      115.352        0.039      334.696        4.836      850.859
12/30/2021  14:18:00     -563.209      124.300       -0.239      313.116      193.731      116.590    98041.372    37531.786    13593.312       24.088        7.458      576.763      135.667        0.055      334.676        4.801      850.872
12/30/2021  14:19:00     -237.587       67.695       -7.739      283.516      178.189      134.647    80381.334    31751.487    18129.723        9.565        6.513      247.043      125.647        0.259      334.728        4.888      850.893
12/30/2021  14:20:00     -352.034       51.270      -19.874      296.978      160.039      120.848    88196.129    25612.343    14604.210       12.766        6.421      355.748      109.912        0.095      334.709        4.856      850.918
12/30/2021  14:21:00     -467.831        3.276      -33.119      374.414      193.847      141.948   140185.651    37576.712    20149.179       20.891        9.896      467.843      155.850        0.111      334.656        4.769      850.951
12/30/2021  14:22:00     -315.664       32.714      -33.551      305.661      194.335      157.905    93428.714    37766.102    24933.850       12.896        7.806      317.354      156.483        0.243      334.671        4.794      850.940
12/30/2021  14:23:00     -356.676       66.204       -1.073      259.686      152.528       94.579    67436.728    23264.925     8945.130       11.561        4.982      362.768       95.482        0.069      334.699        4.842      850.950
12/30/2021  14:24:00     -326.516       10.103      -32.656      319.505      172.411      118.861   102083.706    29725.428    14127.976       12.683        7.297      326.673      116.800        0.128      334.693        4.830      850.944
12/30/2021  14:25:00     -383.472      117.147      -23.178      238.669      207.238      131.726    56963.014    42947.716    17351.831       13.927        5.863      400.966      110.502        0.076      334.663        4.781      850.896
12/30/2021  14:26:00     -390.967       69.306      -17.445      253.863      199.630      130.439    64446.376    39852.009    17014.404       13.962        6.066      397.062      126.421        0.101      334.684        4.815      850.912
12/30/2021  14:27:00     -511.152      138.953      -23.901      330.074      225.921      132.353   108948.703    51040.210    17517.259       22.930        8.875      529.702      111.949        0.045      334.643        4.748      850.867
12/30/2021  14:28:00     -423.699      201.667        6.591      327.678      182.662      137.832   107372.718    33365.359    18997.582       18.996        7.987      469.245      159.222        0.115      334.651        4.761      850.866
12/30/2021  14:29:00     -671.448      123.117       -4.765      390.741      242.848      154.196   152678.694    58975.098    23776.446       35.068       11.772      682.642      163.119        0.057      334.611        4.693      850.828
12/30/2021  14:30:00     -638.566      219.380      -26.736      290.543      201.167      134.842    84415.248    40468.238    18182.466       29.981        7.153      675.200      126.801        0.035      334.629        4.722      850.854
12/30/2021  14:31:00     -455.079       74.270       -0.399      286.281      198.743      127.503    81957.002    39498.829    16256.905       17.514        6.886      461.099      136.943        0.088      334.658        4.771      850.918
12/30/2021  14:32:00     -409.779      119.418       -8.926      265.849      211.356      133.897    70675.860    44671.558    17928.385       15.774        6.664      426.824      129.744        0.092      334.644        4.749      850.935
12/30/2021  14:33:00     -240.642       55.799      -24.854      190.295      159.961      126.024    36212.167    25587.504    15882.087        6.965        3.884      247.026      103.894        0.177      334.703        4.848      851.046
12/30/2021  14:34:00     -412.286      107.007      -29.200      277.762      162.147      106.826    77151.607    26291.729    11411.729       14.855        5.743      425.946      119.368        0.079      334.663        4.781      851.082
12/30/2021  14:35:00     -699.785      204.201      -32.816      309.028      187.952      125.755    95498.117    35325.980    15814.391       33.953        7.332      728.970      113.886        0.024      334.573        4.630      851.072
12/30/2021  14:36:00     -492.160       67.491       -0.974      337.579      238.478      127.775   113959.303    56871.945    16326.350       21.693        9.358      496.766      118.459        0.057      334.612        4.697      851.076
12/30/2021  14:37:00     -553.122      111.887      -19.795      300.517      219.786      123.154    90310.189    48305.776    15166.826       23.629        7.689      564.325      143.356        0.065      334.572        4.629      851.139
12/30/2021  14:38:00     -304.643       49.997      -14.837      243.030      137.922       98.095    59063.789    19022.601     9622.670        9.160        4.385      308.718       99.506        0.104      334.641        4.743      851.182
12/30/2021  14:39:00     -547.048       24.971      -21.935      315.094      223.746      138.011    99284.209    50062.406    19046.965       23.435        8.420      547.618      134.125        0.060      334.590        4.659      851.170
12/30/2021  14:40:00     -624.791      112.136      -42.646      322.548      261.655      139.613   104037.203    68463.154    19491.835       29.834        9.600      634.774      108.723        0.029      334.562        4.612      851.146
12/30/2021  14:41:00     -374.851        4.144      -36.309      297.025      274.575      149.577    88223.641    75391.579    22373.272       16.388        9.299      374.874      138.177        0.136      334.570        4.626      851.123
12/30/2021  14:42:00     -312.011      111.287       -5.833      312.394      166.248      133.706    97589.745    27638.486    17877.213       12.641        7.155      331.264      133.616        0.163      334.577        4.638      851.134
12/30/2021  14:43:00     -387.015      -14.321      -29.472      358.416      175.532      136.367   128462.318    30811.324    18595.902       16.433        8.893      387.280      139.817        0.130      334.571        4.627      851.157
12/30/2021  14:44:00     -217.344       18.090      -18.743      255.425      200.337      100.029    65242.082    40135.099    10005.866        8.163        5.769      218.095      102.635        0.221      334.611        4.694      851.164
12/30/2021  14:45:00     -192.942       56.471       -6.621      264.401      189.217      115.486    69907.858    35803.134    13337.048        7.973        5.952      201.036      105.075        0.273      334.595        4.668      851.176
12/30/2021  14:46:00     -242.706       67.964      -10.707      246.781      151.044      120.630    60900.786    22814.247    14551.597        8.094        4.913      252.042      131.500        0.272      334.612        4.695      851.167
12/30/2021  14:47:00     -385.188      154.107      -15.290      201.842      208.612      105.219    40740.352    43518.843    11070.940       13.382        4.767      414.872      108.351        0.068      334.595        4.666      851.167
12/30/2021  14:48:00     -439.604      139.938        2.848      262.792      169.701      104.135    69059.825    28798.332    10844.182       16.075        5.435      461.340      117.433        0.065      334.577        4.637      851.114
12/30/2021  14:49:00     -669.290      192.003      -28.587      363.919      195.172      112.206   132437.280    38092.067    12590.090       33.434        9.156      696.286      124.278        0.032      334.482        4.481      851.072
12/30/2021  14:50:00     -555.615      140.410        7.638      230.789      177.161       97.923    53263.564    31385.948     9588.888       21.134        4.712      573.082      100.845        0.031      334.525        4.552      851.064
12/30/2021  14:51:00     -430.499       69.247      -15.749      335.880      191.247      118.146   112815.414    36575.351    13958.430       17.683        8.167      436.032      128.571        0.087      334.548        4.590      851.066
12/30/2021  14:52:00     -452.718      148.435      -11.994      319.509      205.212      134.180   102085.700    42112.165    18004.275       19.464        8.110      476.431      112.209        0.055      334.513        4.531      851.072
12/30/2021  14:53:00     -539.471       77.948      -23.545      323.116      252.132      131.290   104404.025    63570.395    17236.996       24.140        9.261      545.073      131.431        0.058      334.490        4.493      851.091
12/30/2021  14:54:00     -253.989       48.405      -10.525      305.034      178.848      134.440    93045.929    31986.613    18074.186       10.501        7.155      258.560      129.594        0.251      334.522        4.545      851.084
12/30/2021  14:55:00     -416.797      109.871      -31.693      356.072      159.923      119.686   126786.928    25575.308    14324.843       17.671        8.334      431.035      147.075        0.116      334.522        4.549      851.086
12/30/2021  14:56:00     -219.513       20.652       -2.092      266.794      190.389      129.417    71179.148    36247.783    16748.815        8.637        6.209      220.482      118.334        0.288      334.513        4.533      851.048
12/30/2021  14:57:00     -420.555      120.965      -42.592      336.840      174.640       94.506   113460.936    30498.980     8931.422       17.307        7.645      437.606      106.564        0.059      334.500        4.511      851.034
12/30/2021  14:58:00     -334.397      161.752      -23.076      196.654      138.207       93.163    38672.874    19101.208     8679.419       10.247        3.323      371.464      102.838        0.077      334.524        4.552      851.006
12/30/2021  14:59:00     -235.753       93.900      -11.546      270.119      153.756      110.525    72964.233    23640.970    12215.818        8.666        5.441      253.765       95.946        0.143      334.494        4.500      850.991
12/30/2021  15:00:00     -335.200       42.928      -34.165      294.655      185.574      121.580    86821.726    34437.783    14781.662       12.568        6.802      337.938       84.215        0.062      334.460        4.445      850.998
12/30/2021  15:01:00     -381.349      201.893        0.628      300.130      168.592       97.205    90077.722    28423.167     9448.854       15.705        6.397      431.495      106.473        0.061      334.480        4.477      851.017
12/30/2021  15:02:00     -506.194      139.314      -25.232      281.255      219.180      124.610    79104.446    48039.767    15527.644       20.945        7.134      525.015      127.762        0.059      334.461        4.446      851.012
12/30/2021  15:03:00     -519.557      109.775      -23.055      359.780      215.934      136.703   129441.638    46627.485    18687.714       23.860        9.738      531.028      154.186        0.084      334.439        4.410      851.014
12/30/2021  15:04:00     -460.184        3.996        0.924      404.766      203.739      144.731   163835.306    41509.741    20947.082       21.900       11.315      460.201      183.839        0.160      334.430        4.394      850.972
12/30/2021  15:05:00     -214.995       47.139       -7.167      242.335      152.477      102.059    58726.416    23249.124    10416.110        7.043        4.620      220.102       96.526        0.192      334.467        4.456      851.029
12/30/2021  15:06:00     -526.121      158.681      -10.402      318.430      206.734      111.816   101397.629    42739.045    12502.739       22.934        7.832      549.530      124.687        0.051      334.412        4.365      851.013
12/30/2021  15:07:00     -215.282       38.785      -22.968      267.006      189.804      130.076    71292.289    36025.731    16919.687        8.629        6.212      218.748       42.109        0.037      334.455        4.436      851.001
12/30/2021  15:08:00     -361.698       92.651      -42.400      334.618      207.980      125.876   111969.065    43255.512    15844.878       15.611        8.553      373.376      130.595        0.122      334.432        4.399      851.007
12/30/2021  15:09:00     -498.124      137.557        1.126      395.790      204.429      102.942   156649.773    41791.351    10597.061       23.801       10.452      516.768      131.078        0.064      334.402        4.349      851.028
12/30/2021  15:10:00     -565.091      163.562      -18.402      308.322      241.017      151.503    95062.708    58089.381    22953.029       26.123        8.805      588.286      154.716        0.069      334.368        4.292      851.068
12/30/2021  15:11:00     -358.661       90.101      -18.927      266.809      196.929      129.346    71187.041    38781.107    16730.294       13.188        6.335      369.806      119.366        0.104      334.424        4.385      851.102
12/30/2021  15:12:00     -341.564      101.916       14.743      299.484      230.355      134.529    89690.472    53063.299    18098.014       14.403        8.043      356.445      131.359        0.136      334.417        4.373      851.147
12/30/2021  15:13:00     -588.308      141.518      -16.610      266.881      199.513      116.191    71225.485    39805.460    13500.459       24.545        6.227      605.090      109.346        0.033      334.379        4.311      851.163
12/30/2021  15:14:00     -629.722       99.861       -8.199      413.690      208.233      156.579   171139.054    43360.953    24517.032       32.276       11.951      637.591      153.373        0.058      334.351        4.263      851.186
12/30/2021  15:15:00     -528.174      143.068      -28.542      339.397      264.741      157.399   115190.301    70087.666    24774.303       25.511       10.503      547.207      162.395        0.088      334.347        4.257      851.236
12/30/2021  15:16:00     -511.077      104.598      -29.417      289.010      221.468      130.611    83526.849    49047.870    17059.347       21.129        7.482      521.671      125.422        0.058      334.372        4.298      851.268
12/30/2021  15:17:00     -410.016      164.617       -0.747      323.637      207.621      124.637   104740.988    43106.331    15534.382       17.927        8.169      441.828      143.325        0.105      334.395        4.336      851.296
12/30/2021  15:18:00     -232.897       88.208        0.127      373.540      198.276      132.829   139531.762    39313.437    17643.555       12.922        9.824      249.042      149.653        0.361      334.422        4.381      851.289
12/30/2021  15:19:00     -575.816      173.950       -1.041      324.816      265.947      145.585   105505.527    70727.831    21194.969       27.959        9.871      601.517      138.298        0.053      334.371        4.298      851.288
12/30/2021  15:20:00     -566.717      198.679        2.004      305.269      264.164      151.241    93188.913    69782.456    22873.957       27.321        9.292      600.534      130.205        0.047      334.396        4.338      851.265
12/30/2021  15:21:00     -552.820      133.030        2.645      393.967      235.649      138.544   155209.624    55530.473    19194.448       27.658       11.497      568.601      127.912        0.051      334.396        4.337      851.271
12/30/2021  15:22:00     -373.057       93.579       14.503      308.465      191.814      114.499    95150.558    36792.731    13109.974       14.657        7.253      384.614      116.532        0.092      334.436        4.404      851.252
12/30/2021  15:23:00     -443.424      163.070      -14.683      244.854      172.393      101.063    59953.528    29719.496    10213.630       16.164        4.994      472.458       87.049        0.034      334.447        4.424      851.278
12/30/2021  15:24:00     -182.234       85.490      -14.055      261.627      171.241      110.905    68448.780    29323.400    12299.895        7.537        5.504      201.291       92.081        0.209      334.551        4.595      851.280
12/30/2021  15:25:00     -662.615      115.551       -8.801      396.089      278.723      144.029   156886.694    77686.272    20744.245       35.386       12.766      672.615      168.043        0.062      334.453        4.433      851.248
12/30/2021  15:26:00     -484.449      150.255      -45.595      345.717      227.057      117.487   119520.266    51554.691    13803.242       22.208        9.244      507.215      143.785        0.080      334.512        4.529      851.248
12/30/2021  15:27:00     -462.013       83.342      -17.899      338.235      271.622      157.828   114403.057    73778.687    24909.713       21.687       10.655      469.470      155.770        0.110      334.513        4.531      851.216
12/30/2021  15:28:00     -337.289       53.656      -19.047      331.364      187.705      129.031   109802.426    35233.176    16648.926       13.932        8.084      341.530      104.835        0.094      334.530        4.561      851.279
12/30/2021  15:29:00     -734.732      232.396        9.422      403.661      219.319      130.415   162942.136    48100.636    17007.954       41.095       11.403      770.609      143.854        0.035      334.453        4.432      851.275
12/30/2021  15:30:00     -677.788      167.717       -1.043      416.766      218.119      146.362   173693.670    47575.856    21421.695       36.506       12.135      698.230      164.072        0.055      334.441        4.414      851.306
12/30/2021  15:31:00     -461.597      152.329      -12.269      242.297      199.396      111.348    58707.983    39758.609    12398.324       17.363        5.543      486.082      118.726        0.060      334.514        4.534      851.413
12/30/2021  15:32:00     -662.410      208.624      -22.510      333.107      230.841      130.911   110960.263    53287.522    17137.619       33.207        9.069      694.486      146.779        0.045      334.440        4.411      851.392
12/30/2021  15:33:00     -524.513       98.180      -12.608      234.999      185.392      113.904    55224.358    34370.299    12974.149       19.372        5.128      533.622      121.386        0.052      334.451        4.430      851.452
12/30/2021  15:34:00     -316.957       51.464        0.442      258.909      167.583      111.563    67033.770    28084.047    12446.245       10.532        5.378      321.108      107.989        0.113      334.470        4.462      851.481
12/30/2021  15:35:00     -482.155      176.035      -12.132      321.918      183.451      110.374   103630.964    33654.365    12182.406       20.651        7.473      513.285      116.305        0.051      334.467        4.456      851.522
12/30/2021  15:36:00     -452.109       10.625      -25.168      333.180      207.990      144.247   111009.045    43259.829    20807.061       19.008        8.754      452.234      140.374        0.096      334.447        4.424      851.500
12/30/2021  15:37:00     -163.107       76.689      -53.031      290.027      180.210      122.164    84115.743    32475.796    14924.162        8.338        6.576      180.236       70.794        0.154      334.491        4.496      851.544
12/30/2021  15:38:00     -360.205       89.482      -14.685      330.811      167.685      110.060   109435.637    28118.219    12113.121       14.379        7.483      371.153       91.241        0.060      334.481        4.480      851.529
12/30/2021  15:39:00     -500.899      117.756      -18.271      318.097      203.145      116.035   101185.553    41267.985    13464.022       21.048        7.796      514.554       90.954        0.031      334.420        4.378      851.487
12/30/2021  15:40:00     -690.623      146.075      -42.309      277.238      201.892      111.137    76861.091    40760.502    12351.472       31.501        6.499      705.902      126.251        0.032      334.387        4.326      851.505
12/30/2021  15:41:00     -466.261      184.453      -12.506      267.697      188.157      118.579    71661.682    35403.212    14060.883       18.633        6.056      501.420      122.512        0.060      334.452        4.431      851.524
12/30/2021  15:42:00     -171.975       11.525       -1.963      245.915      173.660      100.656    60474.124    30157.723    10131.555        6.522        5.038      172.360       96.614        0.314      334.448        4.426      851.508
12/30/2021  15:43:00     -589.256       18.605        3.038      384.535      212.207      151.828   147866.954    45031.969    23051.787       28.172       10.798      589.549      164.503        0.078      334.351        4.263      851.528
12/30/2021  15:44:00     -357.821       25.983      -13.612      366.391      228.583      168.940   134242.299    52250.251    28540.837       17.192       10.752      358.763      167.647        0.218      334.327        4.224      851.504
12/30/2021  15:45:00     -507.625      106.657      -16.225      353.275      192.942      116.526   124803.133    37226.461    13578.267       22.243        8.780      518.709      120.063        0.054      334.325        4.222      851.500
12/30/2021  15:46:00     -446.902      101.878      -20.776      232.860      180.757      102.615    54223.965    32673.025    10529.813       15.396        4.871      458.368       98.699        0.046      334.275        4.138      851.487
12/30/2021  15:47:00     -340.106       83.654       -7.034      306.800      179.022      102.307    94126.360    32048.931    10466.697       12.966        6.832      350.243      106.617        0.093      334.300        4.178      851.475
12/30/2021  15:48:00     -232.216      108.326       17.183      227.305      146.762       86.560    51667.493    21539.057     7492.553        7.331        4.035      256.240       87.212        0.116      334.352        4.265      851.428
12/30/2021  15:49:00     -448.986      132.200       16.803      364.254      210.354      130.288   132680.929    44248.643    16974.921       20.659        9.695      468.044      140.683        0.090      334.262        4.115      851.396
12/30/2021  15:50:00     -302.061      127.793       15.870      239.793      183.274      110.383    57500.725    33589.428    12184.316       10.553        5.164      327.981      100.919        0.095      334.275        4.136      851.417
12/30/2021  15:51:00     -529.573       75.365      -43.425      343.643      250.578      129.535   118090.391    62789.447    16779.436       24.280        9.883      534.908      116.581        0.048      334.230        4.062      851.439
12/30/2021  15:52:00     -560.225      171.228      -23.159      278.306      183.221      121.108    77454.451    33569.833    14667.059       23.468        6.285      585.808      125.740        0.046      334.228        4.057      851.464
12/30/2021  15:53:00     -500.937      155.064       -8.225      293.387      207.231      124.815    86075.877    42944.857    15578.715       20.980        7.230      524.388      146.436        0.078      334.227        4.057      851.486
12/30/2021  15:54:00     -465.714      124.548      -32.047      242.226      174.186      119.291    58673.663    30340.843    14230.337       16.832        5.162      482.080      122.961        0.065      334.245        4.088      851.487
12/30/2021  15:55:00     -372.850      165.637       -1.269      241.165      205.544      118.963    58160.675    42248.453    14152.222       14.049        5.728      407.986      126.931        0.097      334.264        4.118      851.489
12/30/2021  15:56:00     -674.334       82.859      -38.155      348.944      230.058      156.454   121762.144    52926.901    24477.738       33.107        9.958      679.405      154.291        0.052      334.219        4.044      851.456
12/30/2021  15:57:00     -434.380      139.928      -19.853      374.520      185.669      121.563   140265.384    34472.837    14777.579       19.905        9.476      456.362      110.630        0.059      334.226        4.053      851.492
12/30/2021  15:58:00     -629.885      129.358       -6.921      287.522      201.756      109.508    82668.707    40705.559    11991.925       27.443        6.768      643.030      120.714        0.035      334.186        3.988      851.522
12/30/2021  15:59:00     -607.236      162.005      -19.418      321.012      205.134      130.413   103048.679    42079.804    17007.479       27.872        8.107      628.475      134.116        0.046      334.199        4.012      851.575
12/30/2021  16:00:00     -506.093       85.490        0.495      288.959      205.687      118.236    83497.301    42307.280    13979.719       20.159        6.989      513.263      121.631        0.056      334.196        4.006      851.571
12/30/2021  16:01:00     -355.105      102.565       19.351      373.526      219.749      138.060   139521.557    48289.656    19060.701       17.189       10.344      369.620      153.102        0.172      334.222        4.047      851.567
12/30/2021  16:02:00     -544.081      145.567       -4.629      347.083      234.664      143.851   120466.337    55067.210    20693.040       25.670        9.811      563.218      148.124        0.069      334.203        4.017      851.575
12/30/2021  16:03:00     -588.521      184.197      -11.228      307.763      211.005      131.344    94717.797    44523.279    17251.277       26.842        7.825      616.673      129.486        0.044      334.192        4.000      851.560
12/30/2021  16:04:00     -488.064       90.038        5.337      222.038      185.464      101.195    49300.811    34396.858    10240.400       17.012        4.697      496.299       98.272        0.039      334.177        3.973      851.562
12/30/2021  16:05:00     -263.180       86.259       -5.473      232.200      160.583      107.521    53916.610    25786.833    11560.778        8.398        4.563      276.955       90.581        0.107      334.192        3.997      851.519
12/30/2021  16:06:00     -256.552      -26.281      -11.709      276.552      135.574      114.371    76480.918    18380.393    13080.674        8.727        5.397      257.895      120.313        0.218      334.179        3.977      851.455
12/30/2021  16:07:00     -194.223      105.182        5.094      210.724      135.725      104.163    44404.405    18421.251    10849.856        6.123        3.684      220.875       87.739        0.158      334.152        3.933      851.439
12/30/2021  16:08:00     -358.862      131.681      -16.622      204.837      202.682       98.733    41958.182    41079.994     9748.279       11.958        4.639      382.259      100.657        0.069      334.129        3.893      851.418
12/30/2021  16:09:00     -490.739      136.876      -29.288      314.933      206.008      137.659    99182.776    42439.347    18950.095       21.047        8.029      509.470      108.906        0.046      334.114        3.867      851.444
12/30/2021  16:10:00     -580.242       33.233        3.439      324.496      246.711      139.990   105297.463    60866.198    19597.110       26.174        9.288      581.193      148.180        0.065      334.121        3.881      851.417
12/30/2021  16:11:00     -356.085      140.206       -3.413      307.230      205.680      133.175    94390.352    42304.362    17735.499       15.042        7.722      382.693      147.692        0.149      334.140        3.912      851.415
12/30/2021  16:12:00     -267.438       54.556       -5.702      253.436      169.599      111.244    64229.665    28763.775    12375.214        8.993        5.268      272.946      108.401        0.158      334.120        3.878      851.469
12/30/2021  16:13:00     -501.775      174.252      -23.556      194.406      161.613      100.761    37793.629    26118.676    10152.794       17.837        3.703      531.170       84.062        0.025      334.078        3.809      851.499
12/30/2021  16:14:00     -345.697      123.990        1.936      269.557      181.555      107.767    72660.852    32962.210    11613.737       12.604        5.862      367.261      125.968        0.118      334.086        3.823      851.492
12/30/2021  16:15:00     -452.494      113.118       -1.048      284.313      162.016      111.220    80833.861    26249.334    12369.864       16.848        5.973      466.418      108.455        0.054      334.051        3.765      851.517
12/30/2021  16:16:00     -439.506      143.379        3.899      306.748      173.676      113.991    94094.444    30163.305    12993.872       17.547        6.863      462.302      117.526        0.065      334.042        3.751      851.564
12/30/2021  16:17:00     -451.579       15.645      -33.401      207.247      179.569      106.573    42951.137    32245.106    11357.888       14.590        4.328      451.850       91.656        0.041      334.057        3.775      851.578
12/30/2021  16:18:00     -291.800       53.443       -6.554      207.841      158.343       98.830    43197.678    25072.621     9767.307        8.303        3.902      296.654       91.910        0.096      334.060        3.780      851.562
12/30/2021  16:19:00     -538.915       87.197        2.356      334.180      170.245      122.352   111676.016    28983.376    14969.895       22.681        7.781      545.924      150.395        0.076      334.049        3.763      851.535
12/30/2021  16:20:00     -305.435      150.958       -2.746      303.914      153.040      101.507    92363.713    23421.289    10303.586       12.106        6.304      340.703      116.606        0.117      334.085        3.820      851.501
12/30/2021  16:21:00     -359.729      143.388      -14.920      220.286      151.433       92.853    48526.064    22932.044     8621.729       11.512        4.004      387.253       87.033        0.051      334.086        3.822      851.500
12/30/2021  16:22:00     -338.386       93.349      -30.682      259.882      215.317      135.064    67538.505    46361.292    18242.332       12.813        6.607      351.026      122.326        0.121      334.100        3.846      851.469
12/30/2021  16:23:00     -376.131      121.611       -1.450      291.236      164.901      121.705    84818.547    27192.203    14812.113       14.152        6.341      395.302      141.210        0.128      334.095        3.836      851.437
12/30/2021  16:24:00     -340.100      118.931      -13.391      156.745      161.731       96.014    24568.876    26157.019     9218.645        9.496        2.997      360.295       92.080        0.065      334.076        3.807      851.459
12/30/2021  16:25:00     -390.593      132.245       -9.063      220.006      174.455      103.245    48402.698    30434.417    10659.489       12.980        4.475      412.373       99.794        0.059      334.075        3.803      851.535
12/30/2021  16:26:00     -340.576       68.842       -1.137      257.107      126.950       90.455    66104.123    16116.400     8182.113       10.555        4.520      347.464       82.428        0.056      334.053        3.769      851.615
12/30/2021  16:27:00     -421.538       99.902      -25.597      229.529      179.742      106.803    52683.395    32307.186    11406.914       14.235        4.820      433.214      100.657        0.054      334.059        3.777      851.628
12/30/2021  16:28:00     -555.720       93.482      -23.805      314.570      182.606      108.045    98954.357    33344.773    11673.710       23.103        7.199      563.528       95.778        0.029      334.053        3.769      851.621
12/30/2021  16:29:00     -298.213       32.491       11.650      306.989      181.650      108.868    94242.448    32996.764    11852.167       11.458        6.955      299.978      119.417        0.158      334.047        3.759      851.607
12/30/2021  16:30:00     -485.632      105.214       -7.101      241.890      156.660      104.195    58510.740    24542.262    10856.636       17.042        4.695      496.899       85.466        0.030      334.030        3.729      851.565
12/30/2021  16:31:00     -401.903      115.516       20.648      255.505      153.040      107.981    65282.728    23421.188    11659.947       13.781        5.018      418.174      120.665        0.083      334.009        3.696      851.564
12/30/2021  16:32:00     -300.867       77.620       18.677      283.954      183.453      113.143    80629.828    33655.060    12801.258       11.197        6.354      310.718      103.035        0.110      333.998        3.678      851.538
12/30/2021  16:33:00     -464.289      118.258       -3.874      220.620      182.494      106.118    48673.312    33304.034    11261.117       16.138        4.662      479.113      105.913        0.049      334.003        3.687      851.549
12/30/2021  16:34:00     -427.263       97.804       13.914      259.664      162.838      106.922    67425.488    26516.182    11432.384       14.882        5.269      438.314      100.879        0.053      333.994        3.673      851.533
12/30/2021  16:35:00     -408.465      103.192        1.396      261.320      176.259      100.238    68288.387    31067.231    10047.610       14.343        5.470      421.298       87.584        0.043      334.012        3.701      851.540
12/30/2021  16:36:00     -449.235      131.198       -7.399      302.259      183.271      121.666    91360.226    33588.215    14802.589       17.939        6.988      468.001      107.547        0.053      334.012        3.701      851.562
12/30/2021  16:37:00     -694.270      189.834      -10.793      355.846      185.454      124.962   126626.182    34393.263    15615.613       34.737        8.832      719.755      145.233        0.041      333.989        3.664      851.582
12/30/2021  16:38:00     -371.019       70.404       -3.779      197.010      153.702       93.033    38813.102    23624.250     8655.220       10.685        3.555      377.640       81.836        0.047      333.992        3.668      851.612
12/30/2021  16:39:00     -448.171      110.189      -15.498      224.703      177.604       97.953    50491.549    31543.218     9594.799       15.242        4.581      461.518       96.008        0.043      333.988        3.663      851.632
12/30/2021  16:40:00     -634.835      145.300       22.368      333.797      202.573      127.426   111420.147    41035.668    16237.370       29.663        8.435      651.251      120.248        0.034      333.989        3.664      851.590
12/30/2021  16:41:00     -413.965      106.122       -0.775      330.626      179.888      118.710   109313.426    32359.550    14092.137       16.917        7.788      427.351      119.285        0.078      333.985        3.658      851.569
12/30/2021  16:42:00     -349.450      139.081       20.699      245.775      154.079      103.443    60405.407    23740.412    10700.361       11.835        4.742      376.111      114.336        0.092      333.952        3.601      851.553
12/30/2021  16:43:00     -339.761      123.126      -20.095      313.657      163.159      110.124    98380.720    26620.840    12127.354       13.404        6.856      361.383       93.474        0.067      333.948        3.595      851.517
12/30/2021  16:44:00     -552.096      121.210        0.095      385.313      241.184      145.142   148465.793    58169.903    21066.298       27.356       11.385      565.245      137.335        0.059      333.948        3.594      851.500
12/30/2021  16:45:00     -426.100      107.907      -13.858      284.113      198.183      120.611    80720.103    39276.621    14546.957       16.395        6.727      439.551      112.426        0.065      333.966        3.625      851.465
12/30/2021  16:46:00     -391.954       85.872      -10.035      289.838      181.911      106.529    84006.169    33091.452    11348.438       14.475        6.422      401.251      129.323        0.104      333.950        3.598      851.495
12/30/2021  16:47:00     -440.889      146.772        0.926      330.107      205.909      144.347   108970.667    42398.352    20836.118       19.403        8.610      464.678      163.490        0.124      333.950        3.599      851.485
12/30/2021  16:48:00     -275.577      114.938       16.355      298.869      183.231      127.749    89322.407    33573.744    16319.882       11.429        6.961      298.586      113.475        0.144      334.008        3.695      851.499
12/30/2021  16:49:00     -300.280       71.056      -17.641      277.796      206.214      150.756    77170.647    42524.307    22727.422       11.895        7.121      308.572      134.211        0.189      333.970        3.630      851.530
12/30/2021  16:50:00     -278.806       81.983       18.901      237.475      143.518      106.073    56394.193    20597.377    11251.492        8.651        4.412      290.610      118.526        0.166      333.947        3.594      851.591
12/30/2021  16:51:00     -156.463       48.809       16.165      179.383      134.919       80.313    32178.357    18203.066     6450.165        4.197        2.842      163.899       70.314        0.184      333.922        3.553      851.588
12/30/2021  16:52:00     -322.560      123.740       10.417      238.654      171.133      112.884    56955.635    29286.373    12742.704       10.921        4.949      345.481      114.939        0.111      333.892        3.502      851.568
12/30/2021  16:53:00     -656.532      161.773      -15.385      270.225      249.688      115.145    73021.344    62344.271    13258.306       30.301        7.431      676.169      116.653        0.030      333.903        3.521      851.518
12/30/2021  16:54:00     -486.072      134.281      -17.719      217.514      200.018      102.979    47312.389    40007.148    10604.773       17.625        4.896      504.279      103.224        0.042      333.898        3.512      851.514
12/30/2021  16:55:00     -553.296      100.561      -11.831      323.868      213.825      129.483   104890.208    45721.131    16765.841       24.185        8.369      562.360      145.080        0.067      333.903        3.519      851.537
12/30/2021  16:56:00     -485.146      106.297       -6.479      305.832      185.319      116.478    93533.203    34343.245    13567.186       19.405        7.072      496.655      107.375        0.047      333.914        3.538      851.540
12/30/2021  16:57:00     -272.294       92.836      -21.661      222.384      188.115      104.647    49454.793    35387.396    10951.005        8.949        4.790      287.685       82.630        0.082      333.896        3.508      851.564
12/30/2021  16:58:00     -357.959       24.607      -12.954      221.850      153.232      107.727    49217.380    23480.084    11605.213       10.659        4.215      358.804      101.484        0.080      333.891        3.501      851.547
12/30/2021  16:59:00     -370.504       64.101       -0.284      261.229      211.105      139.902    68240.351    44565.141    19572.691       13.686        6.619      376.008      151.809        0.163      333.903        3.521      851.534
12/30/2021  17:00:00     -278.604      109.812        1.941      255.523      192.243       97.763    65291.836    36957.520     9557.537       10.072        5.590      299.464      111.268        0.138      333.895        3.507      851.569
12/30/2021  17:01:00     -412.521      113.404       -2.933      307.554      199.269      109.043    94589.708    39708.010    11890.381       16.459        7.309      427.825      123.004        0.083      333.872        3.468      851.589
12/30/2021  17:02:00     -571.932      106.944       -3.653      274.744      184.915      122.958    75484.209    34193.615    15118.678       23.165        6.240      581.845      126.495        0.047      333.869        3.464      851.585
12/30/2021  17:03:00     -624.534      153.371      -21.353      318.765      209.368      116.685   101611.028    43834.899    13615.334       28.651        7.953      643.090      115.422        0.032      333.894        3.503      851.589
12/30/2021  17:04:00     -430.689      172.553        3.193      254.380      156.366      113.364    64709.205    24450.462    12851.479       15.863        5.101      463.970      125.690        0.073      333.863        3.455      851.638
12/30/2021  17:05:00     -419.675       60.056      -21.710      274.198      190.944      130.447    75184.389    36459.561    17016.336       15.441        6.433      423.950      119.306        0.079      333.881        3.483      851.651
12/30/2021  17:06:00     -266.596      129.523      -15.214      181.325      105.154       92.150    32878.919    11057.410     8491.638        7.024        2.621      296.394       68.687        0.054      333.844        3.422      851.682
12/30/2021  17:07:00     -470.691      138.479      -13.231      301.767      169.625      107.979    91063.418    28772.480    11659.547       18.617        6.575      490.639       98.996        0.041      333.813        3.370      851.668
12/30/2021  17:08:00     -476.366       71.112      -26.330      349.639      177.724      119.777   122247.403    31585.805    14346.619       20.040        8.409      481.645      116.339        0.058      333.823        3.387      851.650
12/30/2021  17:09:00     -501.051       72.883      -12.936      264.355      171.015      105.960    69883.377    29246.116    11227.519       18.342        5.518      506.324      109.778        0.047      333.820        3.382      851.684
12/30/2021  17:10:00     -283.381       95.638      -12.549      204.295      152.088       95.729    41736.401    23130.822     9164.016        8.181        3.702      299.084       88.412        0.087      333.821        3.384      851.728
12/30/2021  17:11:00     -431.307      135.011      -12.023      268.116      148.192      106.810    71886.268    21960.953    11408.446       15.481        5.263      451.944       94.329        0.044      333.825        3.390      851.766
12/30/2021  17:12:00     -438.469       33.504      -27.498      234.763      230.663      119.681    55113.434    53205.282    14323.617       15.837        6.132      439.748      116.819        0.071      333.861        3.451      851.803
12/30/2021  17:13:00     -424.200      135.645      -25.455      291.405      227.668      135.004    84916.596    51832.807    18225.946       17.696        7.749      445.359      132.407        0.088      333.837        3.412      851.810
12/30/2021  17:14:00     -341.341      106.431      -26.392      200.355      202.145      106.799    40142.124    40862.485    11405.932       11.046        4.621      357.549       91.144        0.065      333.816        3.373      851.775
12/30/2021  17:15:00     -432.436       81.576      -23.812      235.722      206.648      123.593    55565.070    42703.279    15275.352       15.386        5.677      440.064      113.971        0.067      333.813        3.370      851.752
12/30/2021  17:16:00     -331.587       86.810       -5.406      268.780      185.947      135.278    72242.880    34576.243    18300.035       12.129        6.256      342.762      121.440        0.126      333.809        3.363      851.731
12/30/2021  17:17:00     -402.892      123.500       -8.659      277.799      180.037      112.836    77172.127    32413.304    12732.065       14.996        6.116      421.396      125.206        0.088      333.784        3.323      851.730
12/30/2021  17:18:00     -365.035       90.850       -9.847      244.615      151.044      106.066    59836.349    22814.401    11249.942       11.773        4.695      376.170      113.032        0.090      333.806        3.358      851.745
12/30/2021  17:19:00     -422.254       74.589      -10.018      274.360      179.462      120.122    75273.531    32206.433    14429.234       15.291        6.095      428.791      118.432        0.076      333.796        3.340      851.767
12/30/2021  17:20:00     -416.984       74.932      -27.993      271.358      213.237      116.614    73635.340    45470.011    13598.809       15.646        6.635      423.663       94.947        0.050      333.808        3.361      851.762
12/30/2021  17:21:00     -365.065       89.465      -21.035      357.398      184.248      111.983   127733.675    33947.229    12540.110       15.794        8.711      375.868      102.578        0.074      333.782        3.319      851.733
12/30/2021  17:22:00     -275.852      113.548       -7.135      343.342      177.363      119.223   117883.959    31457.748    14214.069       12.627        8.178      298.307       69.507        0.054      333.806        3.357      851.731
12/30/2021  17:23:00     -388.779      129.424       -4.353      285.926      183.105      111.542    81753.487    33527.298    12441.682       14.780        6.386      409.755      109.327        0.071      333.793        3.338      851.772
12/30/2021  17:24:00     -636.595      245.459      -29.886      285.520      225.001      129.384    81521.903    50625.360    16740.247       30.761        7.444      682.278      116.993        0.029      333.831        3.400      851.762
12/30/2021  17:25:00     -334.902       55.696       13.221      273.114      163.367      116.742    74591.119    26688.733    13628.759       11.515        5.745      339.502      128.200        0.143      333.831        3.400      851.788
12/30/2021  17:26:00     -353.127       99.777       -8.022      364.702      192.541      144.625   133007.322    37072.148    20916.475       16.282        9.550      366.953      128.131        0.122      333.843        3.420      851.781
12/30/2021  17:27:00     -488.365      136.247      -14.370      290.009      198.359      111.956    84105.198    39346.346    12534.192       19.660        6.799      507.015       99.177        0.038      333.845        3.424      851.748
12/30/2021  17:28:00     -518.647      111.467      -10.458      277.570      191.598      125.607    77045.148    36709.861    15777.206       20.551        6.477      530.490      120.150        0.051      333.823        3.386      851.703
12/30/2021  17:29:00     -245.130       42.276      -11.055      289.357      216.419      149.945    83727.740    46837.132    22483.374       10.750        7.652      248.749      132.743        0.285      333.815        3.373      851.660
12/30/2021  17:30:00     -230.187       44.094        7.419      229.958      192.319      116.072    52880.900    36986.530    13472.658        7.914        5.167      234.372       78.827        0.113      333.798        3.347      851.645
12/30/2021  17:31:00     -462.561      190.228        3.501      235.989      173.610      121.960    55690.573    30140.484    14874.174       17.541        5.035      500.149      113.760        0.052      333.775        3.307      851.667
12/30/2021  17:32:00     -638.729      235.725       13.088      279.783      222.221      129.135    78278.770    49382.149    16675.751       30.400        7.217      680.838      130.597        0.037      333.797        3.344      851.662
12/30/2021  17:33:00     -321.966      108.481        0.495      298.523      192.355      113.481    89116.047    37000.346    12877.954       12.719        6.950      339.750      115.551        0.116      333.782        3.319      851.701
12/30/2021  17:34:00     -418.547      164.560       -8.936      195.964      165.519       98.740    38401.842    27396.553     9749.683       13.893        3.777      449.735       80.325        0.032      333.751        3.268      851.719
12/30/2021  17:35:00     -419.688       93.854      -15.253      217.691      155.649      103.699    47389.454    24226.556    10753.474       13.376        4.118      430.054       75.968        0.031      333.733        3.237      851.760
12/30/2021  17:36:00     -536.458       98.638       -0.983      279.762      180.093      121.762    78266.719    32433.346    14826.025       21.150        6.276      545.450      102.250        0.035      333.754        3.273      851.757
12/30/2021  17:37:00     -377.659       91.879       -5.760      206.273      136.722      108.966    42548.748    18692.810    11873.553       11.209        3.656      388.675       89.308        0.053      333.743        3.253      851.774
12/30/2021  17:38:00     -496.671      168.057      -14.901      296.148      204.238      126.285    87703.377    41713.309    15947.946       21.023        7.268      524.333      115.661        0.049      333.758        3.279      851.746
12/30/2021  17:39:00     -290.091       87.458      -10.413      240.415      163.486      104.909    57799.315    26727.708    11005.908        9.370        4.777      302.988       96.034        0.100      333.748        3.262      851.729
12/30/2021  17:40:00     -470.548       66.756      -28.205      270.812      201.136      132.029    73339.092    40455.500    17431.702       17.892        6.561      475.260      120.297        0.064      333.750        3.266      851.721
12/30/2021  17:41:00     -461.062       92.646      -27.500      229.012      171.478       96.212    52446.360    29404.678     9256.837       15.650        4.555      470.278      113.209        0.058      333.722        3.219      851.695
12/30/2021  17:42:00     -492.755      148.881      -20.185      244.948      178.069      110.811    59999.584    31708.736    12279.119       18.466        5.199      514.755      101.716        0.039      333.747        3.258      851.678
12/30/2021  17:43:00     -222.318       91.224      -11.732      262.916      124.521      100.683    69124.843    15505.395    10137.108        7.631        4.738      240.306      111.601        0.216      333.715        3.209      851.681
12/30/2021  17:44:00     -353.472      108.033      -16.810      207.510      176.083       95.778    43060.255    31005.076     9173.400       11.005        4.162      369.613       94.179        0.065      333.714        3.207      851.643
12/30/2021  17:45:00     -556.376      139.348      -15.821      311.749      185.983      109.871    97187.664    34589.772    12071.722       23.651        7.192      573.561       92.400        0.026      333.733        3.237      851.633
12/30/2021  17:46:00     -489.949      174.301       30.878      295.823      180.589      111.964    87511.143    32612.335    12535.863       20.200        6.633      520.030      123.786        0.057      333.710        3.200      851.643
12/30/2021  17:47:00     -391.326       71.564      -21.960      238.820      144.168      108.871    57035.035    20784.520    11852.987       12.419        4.484      397.816      104.971        0.070      333.712        3.204      851.673
12/30/2021  17:48:00     -269.939       41.020      -14.125      192.561      137.431       88.266    37079.805    18887.384     7790.803        6.924        3.188      273.038       74.400        0.074      333.707        3.195      851.673
12/30/2021  17:49:00     -462.141      121.720      -41.378      311.636      178.207      103.206    97116.776    31757.776    10651.432       18.479        6.976      477.902      110.840        0.054      333.703        3.188      851.681
12/30/2021  17:50:00     -413.577      113.739      -25.545      178.263      168.741       99.232    31777.520    28473.413     9846.962       12.735        3.505      428.932       79.504        0.034      333.670        3.133      851.687
12/30/2021  17:51:00     -167.353       45.284      -24.253      194.525      158.956       98.546    37840.166    25267.141     9711.389        5.172        3.641      173.371       97.112        0.314      333.705        3.192      851.697
12/30/2021  17:52:00     -417.771       50.430      -21.807      287.414      210.265      113.880    82606.709    44211.474    12968.727       15.864        6.989      420.804       88.754        0.044      333.756        3.274      851.716
12/30/2021  17:53:00     -528.035      105.564      -12.495      262.435      175.221      113.752    68871.987    30702.487    12939.507       20.130        5.626      538.484       98.537        0.033      333.721        3.216      851.741
12/30/2021  17:54:00     -417.071      101.953       -5.221      368.950      199.141      134.059   136124.104    39657.200    17971.832       18.903        9.688      429.352      131.735        0.094      333.745        3.257      851.747
12/30/2021  17:55:00     -319.744      149.047       -2.058      250.547      177.014      112.208    62773.897    31334.072    12590.629       11.556        5.335      352.776       96.372        0.075      333.723        3.222      851.767
12/30/2021  17:56:00     -123.277       22.670       -6.440      226.627      142.764      112.950    51359.696    20381.653    12757.646        5.011        4.225      125.344      107.980        0.742      333.728        3.230      851.763
12/30/2021  17:57:00     -459.654      -10.495      -43.218      324.771      218.976      143.066   105476.248    47950.473    20467.969       19.355        8.695      459.774      146.330        0.101      333.743        3.253      851.713
12/30/2021  17:58:00     -351.887       79.245      -26.952      239.957      188.973      112.743    57579.412    35710.710    12711.016       11.840        5.300      360.700       81.043        0.050      333.728        3.229      851.733
12/30/2021  17:59:00     -454.280      166.519      -19.678      245.108      191.057      121.800    60077.689    36502.967    14835.166       17.293        5.571      483.838      110.585        0.052      333.754        3.272      851.710
12/30/2021  18:00:00     -559.456      186.048       -8.860      282.717      241.573      132.685    79928.887    58357.660    17605.359       25.176        7.795      589.580      141.790        0.058      333.743        3.254      851.707
12/30/2021  18:01:00     -400.458       81.947      -14.686      286.580      214.034      135.292    82128.382    45810.661    18304.028       15.674        7.312      408.756      148.975        0.133      333.770        3.298      851.713
12/30/2021  18:02:00     -567.699      189.173      -21.129      287.489      238.747      130.475    82650.126    57000.103    17023.710       25.757        7.834      598.388      128.410        0.046      333.765        3.290      851.754
12/30/2021  18:03:00     -505.305       22.123      -26.682      268.877      210.553      112.974    72294.692    44332.454    12763.210       19.294        6.470      505.789       97.282        0.037      333.766        3.292      851.783
12/30/2021  18:04:00     -254.516       36.201       -6.046      262.970      187.399      122.246    69152.971    35118.476    14944.144        9.265        5.961      257.078      105.162        0.167      333.771        3.300      851.823
12/30/2021  18:05:00     -349.393      110.740      -10.942      305.427      192.090      116.479    93285.704    36898.745    13567.321       13.908        7.188      366.523      108.765        0.088      333.761        3.284      851.819
12/30/2021  18:06:00     -387.700      -24.661      -11.651      340.388      200.318      151.238   115864.295    40127.456    22872.957       16.493        8.943      388.484      158.809        0.167      333.756        3.274      851.815
12/30/2021  18:07:00     -459.018      116.726      -21.098      244.656      197.711      115.702    59856.454    39089.771    13386.942       16.853        5.617      473.627      113.608        0.058      333.749        3.263      851.774
12/30/2021  18:08:00     -227.152       26.599       -8.723      281.075      169.052      101.752    79003.407    28578.607    10353.532        8.514        5.897      228.704      117.922        0.266      333.723        3.222      851.743
12/30/2021  18:09:00     -249.382       34.203       -8.611      206.703      143.737      125.181    42726.142    20660.374    15670.219        7.123        3.953      251.717      107.271        0.182      333.714        3.207      851.722
12/30/2021  18:10:00     -374.499      -22.726      -14.129      293.284      194.510      138.809    86015.547    37834.021    19267.973       14.201        7.156      375.187      158.484        0.178      333.734        3.238      851.710
12/30/2021  18:11:00     -289.273       56.200       -0.329      354.035      206.252      128.750   125340.557    42539.830    16576.681       13.561        9.223      294.682      139.944        0.226      333.731        3.233      851.701
12/30/2021  18:12:00     -385.226       32.140        2.167      336.412      160.278      127.767   113172.913    25688.915    16324.330       15.228        7.759      386.564      160.215        0.172      333.733        3.238      851.748
12/30/2021  18:13:00     -331.640       98.285      -10.002      254.415      192.862      119.401    64726.815    37195.694    14256.577       11.794        5.809      345.897      130.062        0.141      333.748        3.263      851.756
12/30/2021  18:14:00     -256.496       35.427      -10.843      279.218      202.295      135.688    77962.805    40923.450    18411.293       10.220        6.865      258.931      108.687        0.176      333.755        3.274      851.748
12/30/2021  18:15:00     -524.142       30.078      -27.242      370.123      178.895      119.702   136991.030    32003.591    14328.656       22.981        9.166      525.004      131.419        0.063      333.826        3.393      851.747
12/30/2021  18:16:00     -468.497      167.661       -2.249      257.387      205.547      128.852    66248.260    42249.602    16602.861       18.633        6.255      497.594      136.185        0.075      333.808        3.360      851.781
12/30/2021  18:17:00     -289.581       96.812        0.125      216.329      152.929       92.057    46798.431    23387.318     8474.402        8.593        3.933      305.335       97.211        0.101      333.776        3.310      851.785
12/30/2021  18:18:00     -515.748      -34.551      -41.611      328.444      211.606      129.275   107875.399    44776.997    16712.140       21.911        8.468      516.904      137.116        0.070      333.787        3.327      851.768
12/30/2021  18:19:00     -286.055       -3.740       -4.978      275.385      160.405      118.054    75837.111    25729.818    13936.672        9.866        5.775      286.080      104.236        0.133      333.777        3.310      851.762
12/30/2021  18:20:00     -455.745       34.253      -20.885      324.975      171.640      124.368   105608.641    29460.330    15467.424       17.990        7.527      457.031      138.393        0.092      333.752        3.269      851.757
12/30/2021  18:21:00     -372.666       -8.956        4.602      319.041      209.968      133.628   101786.897    44086.558    17856.316       15.133        8.186      372.774      137.085        0.135      333.776        3.309      851.732
12/30/2021  18:22:00     -544.552       64.109      -16.513      364.771      221.971      125.337   133058.124    49271.221    15709.276       24.944        9.902      548.313      122.289        0.050      333.792        3.335      851.719
12/30/2021  18:23:00     -202.109       42.451       -5.356      300.799      192.126      121.013    90479.806    36912.361    14644.071        9.233        7.102      206.519       80.823        0.153      333.792        3.335      851.721
12/30/2021  18:24:00     -346.669       -6.595      -13.683      316.238      148.903      121.314   100006.526    22172.226    14717.095       12.863        6.845      346.731      122.917        0.126      333.798        3.346      851.708
12/30/2021  18:25:00     -268.737       37.752       -8.292      296.505      171.397      111.923    87915.200    29377.019    12526.791       10.174        6.491      271.376      122.277        0.203      333.766        3.293      851.675
12/30/2021  18:26:00     -451.747      146.697      -12.268      270.611      204.255      139.117    73230.080    41720.084    19353.489       18.000        6.715      474.969      122.945        0.067      333.780        3.315      851.679
12/30/2021  18:27:00     -493.043       21.216       -0.102      373.533      188.114      120.632   139526.686    35387.028    14552.048       21.647        9.473      493.499      143.783        0.085      333.785        3.324      851.668
12/30/2021  18:28:00     -510.573        7.723      -34.444      320.375      166.965      131.751   102640.329    27877.223    17358.415       20.488        7.394      510.632      125.535        0.060      333.769        3.297      851.688
12/30/2021  18:29:00     -278.055       74.160      -25.708      295.657      186.043      119.417    87413.044    34612.119    14260.333       10.986        6.814      287.775       93.341        0.105      333.790        3.333      851.684
12/30/2021  18:30:00     -341.674       30.222      -17.318      204.173      160.182      103.684    41686.773    25658.278    10750.326        9.801        3.905      343.008       96.194        0.079      333.765        3.289      851.717
12/30/2021  18:31:00     -523.003      126.580      -22.447      341.660      195.019      117.193   116731.401    38032.605    13734.259       22.925        8.425      538.103      121.905        0.051      333.750        3.267      851.723
12/30/2021  18:32:00     -463.472       67.577      -19.385      336.684      174.269      130.763   113356.417    30369.653    17099.019       19.026        8.041      468.373      140.700        0.090      333.763        3.288      851.713
12/30/2021  18:33:00     -396.867       41.544       -2.390      326.681      191.904      113.624   106720.565    36827.232    12910.466       15.782        7.823      399.036      120.501        0.091      333.777        3.310      851.726
12/30/2021  18:34:00     -328.906        3.561       -5.657      314.060      174.293      133.638    98633.407    30377.975    17859.123       12.752        7.344      328.925      124.983        0.144      333.742        3.252      851.701
12/30/2021  18:35:00     -592.485       62.861      -18.080      258.343      161.334       98.148    66741.175    26028.801     9633.006       22.884        5.120      595.810       93.090        0.024      333.737        3.243      851.681
12/30/2021  18:36:00     -423.330       56.179        2.961      387.343      223.568      135.125   150034.833    49982.710    18258.711       20.028       10.914      427.041      155.616        0.133      333.788        3.329      851.657
12/30/2021  18:37:00     -567.749       36.010      -12.086      373.818      174.701      130.799   139739.695    30520.495    17108.367       25.554        9.368      568.890      149.701        0.069      333.780        3.315      851.665
12/30/2021  18:38:00     -349.417       42.370      -30.333      298.153      188.697      128.630    88895.163    35606.410    16545.577       13.290        7.052      351.977      132.860        0.142      333.767        3.293      851.682
12/30/2021  18:39:00     -219.206       76.424        0.727      336.901      199.461      155.386   113501.952    39784.742    24144.885       11.563        8.872      232.147      183.531        0.625      333.747        3.260      851.690
12/30/2021  18:40:00     -393.522        8.593      -17.185      362.442      164.974      121.165   131364.463    27216.414    14681.041       16.421        8.663      393.616      140.519        0.127      333.765        3.291      851.732
12/30/2021  18:41:00     -336.460       27.405      -48.972      282.942      171.285      119.908    80056.139    29338.400    14378.036       12.004        6.189      337.574      116.711        0.120      333.777        3.309      851.754
12/30/2021  18:42:00     -238.592      -33.562      -16.340      248.473      167.096      124.284    61738.707    27921.077    15446.470        8.169        5.255      240.941      105.166        0.191      333.785        3.324      851.765
12/30/2021  18:43:00     -355.495       -4.711      -25.751      236.055      173.327      125.395    55722.015    30042.296    15723.890       11.426        5.074      355.526      121.273        0.116      333.754        3.273      851.747
12/30/2021  18:44:00     -573.135       89.637      -47.755      302.286      173.985      121.770    91376.755    30270.740    14827.982       23.761        6.824      580.102      115.958        0.040      333.741        3.249      851.690
12/30/2021  18:45:00     -457.850       97.255      -15.771      275.241      189.375      108.213    75757.468    35862.941    11710.046       17.131        6.167      468.065       94.826        0.041      333.735        3.241      851.677
12/30/2021  18:46:00     -416.622       -7.688      -18.238      300.545      171.976      126.099    90327.084    29575.912    15901.059       15.486        6.790      416.693      121.036        0.084      333.742        3.252      851.672
12/30/2021  18:47:00     -160.428       37.267       20.612      243.242      161.993      110.273    59166.820    26241.872    12160.031        6.254        4.878      164.700       99.969        0.368      333.716        3.211      851.674
12/30/2021  18:48:00     -520.615       26.227      -25.783      316.527      166.376      113.843   100189.616    27680.957    12960.199       20.659        7.042      521.275      115.117        0.049      333.754        3.273      851.689
12/30/2021  18:49:00     -236.677       -1.005       15.646      235.853      126.618      109.765    55626.845    16032.049    12048.448        6.997        4.185      236.679      101.057        0.182      333.715        3.208      851.686
12/30/2021  18:50:00     -488.976      -26.620      -22.653      334.789      153.022      137.176   112083.692    23415.792    18817.200       19.729        7.716      489.700      143.235        0.086      333.722        3.219      851.657
12/30/2021  18:51:00     -340.943       14.368      -21.706      251.722      141.933      100.494    63363.979    20145.101    10098.983       10.525        4.680      341.246       98.750        0.084      333.722        3.220      851.665
12/30/2021  18:52:00     -296.076       71.698      -22.655      234.195      169.940      112.319    54847.492    28879.706    12615.505        9.481        4.817      304.634      102.938        0.114      333.728        3.230      851.679
12/30/2021  18:53:00     -415.292       -5.859       -5.635      364.589      186.353      154.475   132925.177    34727.289    23862.407       18.199        9.576      415.333      171.784        0.171      333.752        3.269      851.674
12/30/2021  18:54:00     -531.482        2.967      -20.708      286.870      190.216      130.159    82294.591    36182.234    16941.402       20.914        6.771      531.490      129.577        0.059      333.761        3.283      851.648
12/30/2021  18:55:00     -239.320       30.186        5.788      243.059      191.654      140.037    59077.776    36731.314    19610.475        8.680        5.771      241.216      129.841        0.290      333.718        3.214      851.642
12/30/2021  18:56:00     -405.456       48.438      -21.397      261.226      198.891      117.560    68238.873    39557.563    13820.242       14.439        6.081      408.339      115.428        0.080      333.778        3.311      851.578
12/30/2021  18:57:00     -410.852      117.726       -4.451      223.543      173.822      117.902    49971.333    30213.941    13900.857       13.837        4.704      427.386      121.209        0.080      333.720        3.215      851.548
12/30/2021  18:58:00     -337.970      132.634      -15.035      243.897      190.609      103.354    59485.718    36331.942    10681.964       11.925        5.325      363.065       96.808        0.071      333.696        3.177      851.504
12/30/2021  18:59:00     -277.585       77.327       12.690      164.009      135.773       78.290    26899.094    18434.287     6129.268        6.732        2.573      288.154       81.364        0.080      333.643        3.090      851.476
12/30/2021  19:00:00     -205.174       98.760       11.381      277.615      188.069      118.901    77069.848    35369.801    14137.493        8.925        6.329      227.706       97.004        0.181      333.654        3.109      851.489
12/30/2021  19:01:00     -460.552       45.714      -33.556      244.036      216.949      131.894    59553.617    47066.882    17396.138       16.965        6.201      462.815      111.463        0.058      333.807        3.359      851.451
12/30/2021  19:02:00     -513.021       73.852      -47.500      288.344      216.145      130.448    83142.395    46718.518    17016.774       20.886        7.344      518.309      131.845        0.065      333.802        3.352      851.475
12/30/2021  19:03:00     -299.658      -18.714      -32.029      270.014      178.937      121.103    72907.363    32018.400    14666.032       10.536        5.980      300.242      124.808        0.173      333.737        3.245      851.487
12/30/2021  19:04:00     -320.288       10.139       -9.789      303.007      157.831      116.556    91813.351    24910.781    13585.244       11.652        6.515      320.448      121.907        0.145      333.720        3.217      851.520
12/30/2021  19:05:00     -222.487       11.718       -7.257      180.966      126.317       98.186    32748.704    15955.978     9640.438        5.401        2.917      222.795       79.093        0.126      333.691        3.169      851.547
12/30/2021  19:06:00     -389.423       53.379      -13.999      210.824      202.703      113.095    44446.607    41088.526    12790.422       12.649        4.916      393.064      105.728        0.072      333.734        3.240      851.547
12/30/2021  19:07:00     -219.623       72.084      -42.229      212.921      128.833       99.972    45335.219    16597.900     9994.471        6.356        3.596      231.150       65.659        0.081      333.722        3.220      851.542
12/30/2021  19:08:00     -489.137       60.454      -23.707      297.131      167.651      119.172    88286.534    28107.021    14201.984       18.701        6.530      492.859      136.560        0.077      333.730        3.233      851.593
12/30/2021  19:09:00     -288.489       67.014      -14.004      352.002      171.292      119.037   123905.587    29341.081    14169.745       12.763        8.371      296.170      132.706        0.201      333.737        3.245      851.586
12/30/2021  19:10:00     -423.936       80.129      -31.127      214.517      215.410      107.669    46017.487    46401.261    11592.596       14.554        5.201      431.442       90.318        0.044      333.722        3.220      851.567
12/30/2021  19:11:00     -446.383       39.826      -46.132      301.594      155.491      104.406    90959.165    24177.332    10900.606       16.448        6.302      448.156      106.309        0.056      333.696        3.179      851.560
12/30/2021  19:12:00     -359.703      108.115       -9.085      267.673      167.739      102.616    71648.589    28136.296    10530.044       12.572        5.516      375.600      114.016        0.092      333.678        3.147      851.600
12/30/2021  19:13:00     -318.699       65.488      -12.149      195.066      147.608       97.769    38050.586    21787.993     9558.787        8.769        3.470      325.357       74.183        0.052      333.657        3.111      851.635
12/30/2021  19:14:00     -279.169        1.623       -0.383      259.260      141.376      113.320    67215.788    19987.062    12841.410        8.897        5.002      279.173      119.721        0.184      333.651        3.103      851.691
12/30/2021  19:15:00     -410.163       99.770      -16.455      261.415      182.117      126.553    68337.592    33166.549    16015.702       14.797        5.876      422.123      104.452        0.061      333.683        3.156      851.648
12/30/2021  19:16:00     -268.583       31.513      -34.783      273.762      153.027       90.540    74945.485    23417.222     8197.476        9.043        5.328      270.425       94.935        0.123      333.689        3.165      851.629
12/30/2021  19:17:00     -281.343      -15.545      -22.972      235.480      176.751      109.219    55450.887    31240.833    11928.857        8.925        4.931      281.772       86.810        0.095      333.695        3.175      851.620
12/30/2021  19:18:00     -184.700      -28.405        0.270      201.630      125.416      104.932    40654.551    15729.099    11010.721        5.115        3.370      186.872      111.373        0.355      333.644        3.091      851.592
12/30/2021  19:19:00     -268.450       46.391        3.289      238.298      140.175      107.293    56786.129    19649.102    11511.695        8.107        4.397      272.428      123.240        0.205      333.595        3.011      851.589
12/30/2021  19:20:00     -481.590      103.703        6.044      345.933      174.651      101.634   119669.544    30502.900    10329.512       20.158        8.025      492.629      130.038        0.070      333.587        2.997      851.561
12/30/2021  19:21:00     -155.696       40.046      -23.043      204.075      126.006       88.936    41646.517    15877.567     7909.642        4.589        3.272      160.763       79.404        0.244      333.605        3.028      851.563
12/30/2021  19:22:00     -137.560       34.725       -8.289      257.847      136.690       97.453    66485.045    18684.078     9497.055        5.741        4.733      141.876      101.671        0.514      333.613        3.041      851.618
12/30/2021  19:23:00     -429.923      -67.662      -57.822      318.691      197.310      103.677   101563.911    38931.263    10748.971       17.197        7.562      435.215       91.339        0.044      333.717        3.212      851.625
12/30/2021  19:24:00     -153.111       -0.802       -2.955      193.442      115.349       98.286    37419.754    13305.408     9660.198        4.191        3.019      153.113      102.060        0.444      333.657        3.113      851.660
12/30/2021  19:25:00     -357.576      109.288      -21.254      279.988      131.211       78.714    78393.152    17216.242     6195.916       12.101        5.090      373.905       80.286        0.046      333.626        3.062      851.718
12/30/2021  19:26:00     -319.611       48.681      -19.819      152.683      106.985       85.387    23312.082    11445.834     7290.875        7.347        2.102      323.297       71.240        0.049      333.591        3.004      851.750
12/30/2021  19:27:00     -143.764       17.681      -22.582      118.382      102.105       72.659    14014.282    10425.486     5279.287        2.560        1.486      144.847       53.443        0.136      333.585        2.994      851.794
12/30/2021  19:28:00      -66.891       33.246        4.495      175.034      141.561       89.319    30636.920    20039.443     7977.873        3.212        2.933       74.698       85.938        1.324      333.549        2.935      851.833
12/30/2021  19:29:00     -477.811       73.797      -22.282      266.376      209.842      113.797    70956.239    44033.529    12949.687       18.107        6.397      483.476      115.785        0.057      333.636        3.079      851.814
12/30/2021  19:30:00     -290.387       17.764      -14.482      254.858      183.873      108.772    64952.718    33809.404    11831.267        9.770        5.530      290.930       95.372        0.107      333.598        3.014      851.831
12/30/2021  19:31:00     -439.902       52.560      -17.182      183.771      142.910       88.981    33771.610    20423.378     7917.625       12.933        3.106      443.031       93.895        0.045      333.583        2.990      851.834
12/30/2021  19:32:00     -325.369       92.135       -0.950      231.596      128.941      104.345    53636.850    16625.706    10887.784        9.774        4.058      338.163      118.432        0.123      333.584        2.992      851.848
12/30/2021  19:33:00     -404.155       52.832      -36.612      289.948      173.321      106.372    84069.819    30040.340    11315.048       14.643        6.271      407.593      109.606        0.072      333.655        3.110      851.836
12/30/2021  19:34:00     -408.404       44.484      -19.696      309.650      175.917      100.504    95883.342    30946.772    10101.062       15.302        6.847      410.819      104.667        0.065      333.680        3.150      851.900
12/30/2021  19:35:00     -365.613       68.256      -27.412      218.195      154.171       83.365    47609.139    23768.691     6949.660       10.869        3.916      371.930       92.152        0.061      333.638        3.082      851.938
12/30/2021  19:36:00     -441.104       64.617      -16.491      284.771      178.175      102.500    81094.779    31746.165    10506.293       16.116        6.167      445.811      102.802        0.053      333.649        3.099      851.925
12/30/2021  19:37:00     -315.046       25.294      -42.004      176.743      118.630       71.105    31238.052    14073.105     5055.956        7.600        2.518      316.060       63.205        0.040      333.657        3.112      851.927
12/30/2021  19:38:00     -378.417      154.969        5.226      244.812      173.900      111.590    59932.970    30241.087    12452.306       13.492        5.131      408.919      114.344        0.078      333.656        3.110      851.923
12/30/2021  19:39:00     -368.820      125.248       -2.018      222.423      176.981      100.739    49472.086    31322.224    10148.445       12.131        4.547      389.506       83.968        0.046      333.592        3.005      851.921
12/30/2021  19:40:00     -366.814      100.278       -0.011      267.081      184.614      110.435    71332.501    34082.196    12195.931       13.109        5.881      380.274      107.436        0.080      333.587        2.996      851.902
12/30/2021  19:41:00     -106.607       42.490      -16.308      139.741      119.087       90.307    19527.451    14181.737     8155.349        2.764        2.093      114.763       64.228        0.313      333.574        2.977      851.885
12/30/2021  19:42:00     -283.755       90.285      -10.846      180.584      140.332       90.224    32610.502    19693.098     8140.418        7.460        3.022      297.773       69.222        0.054      333.578        2.983      851.868
12/30/2021  19:43:00     -283.914       92.766        8.833      204.629      111.379       98.130    41873.105    12405.340     9629.539        7.659        3.195      298.685       91.898        0.095      333.562        2.957      851.867
12/30/2021  19:44:00     -286.209       51.555       -0.983      193.167      174.127      105.804    37313.484    30320.306    11194.516        8.169        3.941      290.815       94.099        0.105      333.561        2.954      851.859
12/30/2021  19:45:00     -384.624       80.017        7.068      306.839      161.547      111.703    94150.411    26097.519    12477.571       14.353        6.636      392.859      108.450        0.076      333.618        3.047      851.813
12/30/2021  19:46:00     -454.352       98.474      -25.093      229.567      192.782      106.296    52701.015    37165.036    11298.786       15.895        5.058      464.901      113.884        0.060      333.609        3.035      851.830
12/30/2021  19:47:00     -186.867       69.820       -4.236      267.761      155.235       98.141    71696.116    24097.885     9631.565        7.260        5.271      199.484      107.592        0.291      333.594        3.010      851.826
12/30/2021  19:48:00     -211.284       60.553       -4.372      242.126      138.284       92.031    58625.124    19122.423     8469.628        6.726        4.311      219.790      101.873        0.215      333.607        3.032      851.838
12/30/2021  19:49:00     -240.438       48.671        4.447      184.040      114.138       83.312    33870.828    13027.510     6940.840        5.701        2.692      245.315       72.390        0.087      333.558        2.950      851.865
12/30/2021  19:50:00     -163.681       13.296      -18.136      155.321      132.273       96.607    24124.702    17496.040     9332.924        3.912        2.548      164.220       51.981        0.100      333.579        2.985      851.840
12/30/2021  19:51:00     -217.108        4.939      -16.060      171.655      116.781       89.651    29465.350    13637.713     8037.245        4.927        2.557      217.165       88.897        0.168      333.555        2.944      851.795
12/30/2021  19:52:00     -459.534      -44.133      -48.760      278.112      177.197      112.187    77346.302    31398.608    12585.904       16.839        6.067      461.648       95.340        0.043      333.586        2.997      851.788
12/30/2021  19:53:00      -86.722       31.488       18.646      202.140      140.044      111.560    40860.460    19612.312    12445.572        4.088        3.646       92.262      110.038        1.422      333.568        2.966      851.799
12/30/2021  19:54:00     -284.350       44.835       -7.914      291.284      172.139      127.179    84846.610    29631.685    16174.479       10.677        6.533      287.863      134.077        0.217      333.584        2.992      851.798
12/30/2021  19:55:00     -354.487       70.777        4.501      310.699      207.741      144.720    96533.572    43156.489    20943.877       14.563        8.032      361.483      144.859        0.161      333.588        3.000      851.779
12/30/2021  19:56:00     -338.158       11.068      -20.474      266.827      145.520       92.850    71196.588    21176.061     8621.212       10.792        5.050      338.339       93.559        0.076      333.587        2.997      851.744
12/30/2021  19:57:00     -288.230       22.752      -10.476      272.170      172.444      121.116    74076.365    29736.855    14669.103       10.107        5.924      289.127      113.228        0.153      333.562        2.956      851.768
12/30/2021  19:58:00     -339.722       71.281       -4.342      183.339      163.406       93.173    33613.177    26701.379     8681.144        9.474        3.450      347.120       81.202        0.055      333.550        2.935      851.767
12/30/2021  19:59:00     -229.962       -2.918      -48.534      231.452      159.829       83.154    53569.993    25545.169     6914.586        7.062        4.301      229.980       71.643        0.097      333.558        2.950      851.794
12/30/2021  20:00:00     -400.199       41.004      -18.713      265.979      189.265      120.698    70744.633    35821.317    14567.916       14.164        6.057      402.294      114.324        0.081      333.550        2.934      851.782
12/30/2021  20:01:00     -359.918       76.560        1.484      243.183      154.159      106.544    59138.166    23765.057    11351.614       11.481        4.713      367.971      108.943        0.088      333.532        2.907      851.778
12/30/2021  20:02:00     -475.726      137.191        6.153      271.669      182.443      111.340    73804.234    33285.524    12396.498       18.231        5.974      495.112      128.089        0.067      333.568        2.965      851.785
12/30/2021  20:03:00     -327.992       93.184      -11.529      166.659      141.555       86.008    27775.244    20037.869     7397.429        8.579        2.761      340.972       88.684        0.068      333.555        2.943      851.758
12/30/2021  20:04:00     -280.041       81.424      -10.296      233.376      140.363      102.045    54464.194    19701.760    10413.253        8.485        4.229      291.638       99.880        0.117      333.527        2.897      851.773
12/30/2021  20:05:00     -483.737       95.990      -21.531      287.826      181.070      118.770    82843.787    32786.220    14106.359       18.668        6.487      493.169       90.226        0.033      333.556        2.945      851.758
12/30/2021  20:06:00     -486.368      171.851      -21.043      255.989      169.389      116.367    65530.297    28692.622    13541.315       18.713        5.388      515.836      126.627        0.060      333.558        2.949      851.773
12/30/2021  20:07:00     -458.336      127.977       -9.541      247.787      186.678      123.878    61398.342    34848.547    15345.794       16.905        5.580      475.868      122.264        0.066      333.597        3.013      851.808
12/30/2021  20:08:00     -401.821      151.220       -3.066      248.681      150.428      101.007    61842.270    22628.714    10202.514       13.949        4.734      429.334       90.221        0.044      333.559        2.951      851.858
12/30/2021  20:09:00     -364.847        8.640       -1.374      225.122      152.883      107.005    50679.810    23373.106    11450.151       10.933        4.275      364.949      111.127        0.093      333.568        2.964      851.890
12/30/2021  20:10:00     -368.137       96.999      -27.788      177.205      176.690       91.436    31401.568    31219.257     8360.477       10.833        3.549      380.701       79.914        0.044      333.537        2.913      851.903
12/30/2021  20:11:00     -247.489       68.169      -12.843      171.113      150.392       85.396    29279.548    22617.717     7292.552        6.262        2.959      256.706       65.301        0.065      333.536        2.911      851.921
12/30/2021  20:12:00     -281.669      107.247      -18.256      161.867      151.309       86.085    26201.002    22894.285     7410.702        7.383        2.825      301.396       85.745        0.081      333.559        2.951      851.914
12/30/2021  20:13:00     -279.778       57.579       13.998      291.382      122.980      102.043    84903.410    15124.079    10412.763        9.609        5.522      285.641      108.782        0.145      333.500        2.853      851.929
12/30/2021  20:14:00     -272.875       98.842      -14.512      202.939      153.322       93.296    41184.289    23507.763     8704.210        7.891        3.670      290.225       84.904        0.086      333.526        2.895      851.931
12/30/2021  20:15:00     -606.669      196.357       -5.844      239.766      153.660       96.178    57487.512    23611.279     9250.230       24.848        4.517      637.655       93.960        0.022      333.547        2.930      851.948
12/30/2021  20:16:00     -203.815       77.759       -1.444      238.217      109.541       76.872    56747.375    11999.141     5909.373        6.111        3.733      218.145       61.743        0.080      333.497        2.849      851.962
12/30/2021  20:17:00     -253.018      163.898        3.384      194.975      175.158       87.560    38015.344    30680.403     7666.666        8.361        3.818      301.464       91.456        0.092      333.499        2.853      851.970
12/30/2021  20:18:00     -463.703      133.499      -41.255      220.032      161.805       98.209    48413.915    26180.729     9645.061       15.938        4.212      482.537       89.628        0.035      333.516        2.877      851.981
12/30/2021  20:19:00     -294.453      131.658        1.543      215.223      163.297       87.160    46320.865    26665.998     7596.946        9.230        4.029      322.547       86.713        0.072      333.513        2.874      851.967
12/30/2021  20:20:00     -348.588      120.227        4.418      185.848      144.525       90.530    34539.665    20887.385     8195.649        9.979        3.181      368.739       81.975        0.049      333.514        2.876      851.984
12/30/2021  20:21:00     -301.181      105.287        3.555      177.281      131.817       86.915    31428.622    17375.667     7554.163        7.907        2.818      319.053       73.706        0.053      333.509        2.867      851.978
12/30/2021  20:22:00     -374.757       64.411        3.733      229.435      136.779       93.458    52640.470    18708.433     8734.309       11.233        4.004      380.252       98.476        0.067      333.534        2.908      851.944
12/30/2021  20:23:00     -377.670       44.220       -8.558      182.018      116.173       81.717    33130.573    13496.171     6677.697        9.897        2.665      380.250       57.144        0.023      333.512        2.872      851.936
12/30/2021  20:24:00     -313.014       63.875        2.628      191.941      153.654       93.321    36841.385    23609.485     8708.882        8.560        3.458      319.464      102.010        0.102      333.556        2.946      851.930
12/30/2021  20:25:00     -230.691       84.909      -12.221      193.950      153.092       85.880    37616.787    23437.258     7375.419        6.449        3.421      245.820       75.854        0.095      333.527        2.898      851.933
12/30/2021  20:26:00     -231.969       19.525      -15.962      213.448      122.259       94.358    45560.108    14947.362     8903.433        6.192        3.471      232.790       94.564        0.165      333.514        2.877      851.926
12/30/2021  20:27:00     -480.667       91.202      -20.363      234.609      165.943      102.286    55041.579    27537.084    10462.483       16.639        4.652      489.243       94.470        0.037      333.539        2.917      851.924
12/30/2021  20:28:00     -413.501      155.382        2.484      183.579      150.597       94.629    33701.420    22679.308     8954.673       13.022        3.267      441.732       93.314        0.045      333.525        2.893      851.914
12/30/2021  20:29:00     -294.689       24.888      -10.246      143.385      124.938       87.840    20559.324    15609.567     7715.907        6.572        2.194      295.738       71.843        0.059      333.507        2.864      851.901
12/30/2021  20:30:00     -230.320       67.417       14.643      152.014      114.031       76.946    23108.238    13003.104     5920.746        4.991        2.102      239.984       63.096        0.069      333.501        2.853      851.864
12/30/2021  20:31:00     -400.464      106.971      -25.047      159.110      148.768       97.632    25315.991    22131.774     9532.090       11.470        2.849      414.504       80.182        0.037      333.514        2.875      851.847
12/30/2021  20:32:00     -399.677      101.806        5.870      205.645      168.631       96.645    42289.671    28436.554     9340.302       12.509        4.003      412.439      106.537        0.067      333.511        2.869      851.814
12/30/2021  20:33:00     -416.933      166.591       -4.598      269.584      164.261      112.353    72675.519    26981.788    12623.129       15.692        5.614      448.983      128.561        0.082      333.556        2.944      851.774
12/30/2021  20:34:00     -361.208      122.443      -19.163      184.417      130.770       85.626    34009.611    17100.706     7331.749       10.213        2.922      381.397       80.925        0.045      333.536        2.911      851.744
12/30/2021  20:35:00     -379.379       95.291      -12.612      172.002      131.752       72.490    29584.817    17358.639     5254.843       10.267        2.610      391.163       67.249        0.030      333.533        2.908      851.719
12/30/2021  20:36:00     -380.851       76.710       -2.666      209.769      147.395       84.669    44003.069    21725.374     7168.782       11.190        3.645      388.499       90.500        0.054      333.518        2.882      851.684
12/30/2021  20:37:00     -310.751       53.071      -11.921      173.267      119.954       82.505    30021.339    14388.864     6807.048        7.536        2.561      315.250       67.163        0.045      333.493        2.841      851.666
12/30/2021  20:38:00     -231.925       56.358       18.050      261.026      163.764      108.200    68134.525    26818.590    11707.318        8.196        5.333      238.674      122.663        0.264      333.503        2.858      851.670
12/30/2021  20:39:00     -490.280      141.980      -14.826      241.010      132.993      110.107    58085.861    17687.234    12123.443       17.431        4.395      510.424       96.273        0.036      333.508        2.865      851.663
12/30/2021  20:40:00     -278.019      106.092       -4.151      176.447      113.048      100.752    31133.651    12779.908    10150.979        7.131        2.703      297.574       88.793        0.089      333.490        2.835      851.692
12/30/2021  20:41:00     -293.444       16.056       -2.313      176.191      116.361       87.220    31043.356    13539.937     7607.274        6.927        2.610      293.883       87.743        0.089      333.466        2.796      851.697
12/30/2021  20:42:00     -364.087       48.579      -28.796      192.214      144.230       99.036    36946.076    20802.362     9808.162       10.164        3.378      367.314       89.466        0.059      333.493        2.841      851.696
12/30/2021  20:43:00     -474.104       79.500      -16.797      274.152      140.560      111.758    75159.454    19757.232    12489.902       16.937        5.370      480.723       88.906        0.034      333.503        2.857      851.681
12/30/2021  20:44:00     -321.597       39.058       -4.276      204.168      151.422       81.542    41684.501    22928.695     6649.109        8.810        3.563      323.961       91.546        0.080      333.474        2.810      851.668
12/30/2021  20:45:00     -259.527       35.231       -5.471      254.898      154.057       94.444    64973.005    23733.590     8919.747        8.311        4.881      261.907       87.933        0.113      333.490        2.837      851.691
12/30/2021  20:46:00     -250.843       70.779        4.463      155.913      109.486       74.434    24308.978    11987.197     5540.482        5.489        2.092      260.638       79.895        0.094      333.469        2.799      851.716
12/30/2021  20:47:00     -393.222      140.273       -2.447      209.903      135.606       89.669    44059.191    18389.018     8040.539       12.238        3.524      417.492       82.346        0.039      333.514        2.875      851.699
12/30/2021  20:48:00     -387.238       50.972      -30.954      215.610      184.757      105.859    46487.572    34135.122    11206.188       12.265        4.591      390.578       90.602        0.054      333.524        2.892      851.671
12/30/2021  20:49:00     -229.729       87.841       -5.381      153.877      139.508       74.306    23678.003    19462.546     5521.311        5.458        2.433      245.950       54.993        0.050      333.514        2.878      851.660
12/30/2021  20:50:00     -255.615       50.205       -2.201      165.433       87.471       66.346    27368.226     7651.099     4401.830        5.364        1.971      260.499       67.176        0.066      333.502        2.856      851.630
12/30/2021  20:51:00     -382.768       98.481      -12.507      192.715      124.029       79.407    37139.234    15383.070     6305.411       10.759        2.941      395.234       89.385        0.051      333.475        2.810      851.567
12/30/2021  20:52:00     -409.635      108.020        2.179      239.799      169.519      106.852    57503.740    28736.527    11417.350       13.855        4.883      423.638      106.080        0.063      333.470        2.802      851.568
12/30/2021  20:53:00     -417.986       37.464       10.485      224.088      153.005       96.640    50215.503    23410.521     9339.217       12.958        4.148      419.662       90.788        0.047      333.477        2.813      851.583
12/30/2021  20:54:00     -479.835       68.044       -2.212      313.071      161.753      103.005    98013.514    26164.085    10610.128       18.481        6.739      484.636      115.868        0.057      333.507        2.864      851.565
12/30/2021  20:55:00     -444.237      128.635       -2.861      228.578      162.514      106.364    52248.120    26410.823    11313.263       15.192        4.499      462.486      101.644        0.048      333.524        2.892      851.591
12/30/2021  20:56:00     -343.265       53.135      -10.134      218.486      152.007       94.841    47736.350    23105.997     8994.773       10.028        3.992      347.353       84.031        0.059      333.518        2.882      851.641
12/30/2021  20:57:00     -301.223       54.430      -20.819      261.995      162.551      100.489    68641.586    26422.789    10097.961        9.963        5.258      306.101       92.056        0.090      333.518        2.881      851.645
12/30/2021  20:58:00     -480.307       34.448       -9.104      219.405      161.382      112.671    48138.623    26044.051    12694.835       15.941        4.344      481.541      112.211        0.054      333.549        2.933      851.659
12/30/2021  20:59:00     -498.089       71.610      -26.599      259.093      164.847      113.377    67129.081    27174.665    12854.386       18.052        5.358      503.211       83.765        0.028      333.521        2.885      851.663
12/30/2021  21:00:00     -373.126      108.868      -16.075      307.417      192.417      118.948    94505.361    37024.356    14148.696       14.848        7.284      388.684      138.862        0.128      333.514        2.875      851.687
12/30/2021  21:01:00     -383.051       30.782      -25.266      257.580      137.112      104.401    66347.545    18799.591    10899.527       12.216        4.802      384.286      110.863        0.083      333.534        2.910      851.668
12/30/2021  21:02:00     -366.472      123.052        4.321      275.421      162.062      107.340    75856.796    26264.064    11521.871       13.153        5.682      386.579      114.411        0.088      333.522        2.890      851.679
12/30/2021  21:03:00     -250.476       89.352       13.515      234.723      147.567      119.198    55094.828    21775.934    14208.071        8.098        4.554      265.936      124.976        0.221      333.536        2.912      851.701
12/30/2021  21:04:00     -313.335       79.148      -20.681      300.944      131.480      108.358    90567.522    17286.967    11741.363       11.221        5.980      323.177      111.558        0.119      333.552        2.939      851.713
12/30/2021  21:05:00     -314.814      103.216       -5.573      183.072      112.152       72.263    33515.178    12578.021     5221.912        8.054        2.566      331.302       69.374        0.044      333.551        2.937      851.667
12/30/2021  21:06:00     -263.180      108.615       23.229      263.182      142.648       74.483    69264.771    20348.363     5547.785        8.836        4.758      284.712       70.059        0.061      333.521        2.888      851.657
12/30/2021  21:07:00     -272.268       99.889       10.521      212.728      150.568       87.342    45253.210    22670.806     7628.591        7.987        3.778      290.013       89.550        0.095      333.517        2.881      851.606
12/30/2021  21:08:00     -366.231      120.393       -6.790      270.310      178.338       97.724    73067.661    31804.559     9549.898       13.152        5.721      385.512       95.300        0.061      333.509        2.867      851.579
12/30/2021  21:09:00     -327.589       24.219       -8.147      234.499      125.633       83.862    54989.743    15783.625     7032.833        9.287        3.890      328.483       92.795        0.080      333.506        2.862      851.565
12/30/2021  21:10:00     -241.572       31.775        9.220      175.944      170.773       93.505    30956.181    29163.511     8743.215        6.414        3.443      243.653       97.489        0.160      333.497        2.847      851.540
12/30/2021  21:11:00     -272.837      116.657      -21.658      144.432      122.927       89.983    20860.568    15111.113     8096.972        6.629        2.203      296.730       80.637        0.074      333.501        2.855      851.512
12/30/2021  21:12:00      -54.515       39.892      -13.462      132.476       98.125       75.854    17549.999     9628.589     5753.886        1.883        1.647       67.552       51.962        0.592      333.484        2.828      851.508
12/30/2021  21:13:00     -201.309       72.933      -11.855      147.162      100.232       69.479    21656.753    10046.360     4827.391        4.125        1.827      214.114       58.275        0.074      333.475        2.811      851.509
12/30/2021  21:14:00     -229.348       34.872      -12.959      178.857      104.258       62.036    31989.852    10869.819     3848.461        5.034        2.335      231.984       71.725        0.096      333.474        2.809      851.475
12/30/2021  21:15:00     -233.443       51.892       -5.903      183.707      174.371      105.180    33748.406    30405.135    11062.913        6.621        3.761      239.141       91.620        0.147      333.486        2.830      851.481
12/30/2021  21:16:00     -323.513       14.952      -30.160      301.452      152.024      121.708    90873.292    23111.280    14812.872       11.727        6.440      323.858      113.216        0.122      333.509        2.867      851.455
12/30/2021  21:17:00     -454.130       58.690      -50.897      288.741      192.848      117.687    83371.372    37190.234    13850.175       17.332        6.721      457.907      107.919        0.056      333.538        2.915      851.426
12/30/2021  21:18:00     -302.323       -6.237      -17.855      197.842      137.276       80.151    39141.598    18844.662     6424.254        7.807        3.221      302.388       70.632        0.055      333.475        2.811      851.427
12/30/2021  21:19:00     -256.368       74.117      -10.891      140.166      141.186       75.021    19646.382    19933.461     5628.132        5.826        2.260      266.867       66.786        0.063      333.459        2.785      851.437
12/30/2021  21:20:00     -234.996       27.604      -14.713      210.297      174.576       98.060    44224.792    30476.617     9615.800        7.024        4.216      236.612       81.291        0.118      333.455        2.779      851.428
12/30/2021  21:21:00     -197.408       96.796       -8.712      180.466      112.751       83.526    32567.984    12712.803     6976.588        5.033        2.613      219.862       92.390        0.177      333.444        2.759      851.434
12/30/2021  21:22:00     -223.523       38.664      -52.571      178.515      232.089       86.202    31867.661    53865.138     7430.827        7.368        4.658      226.842       47.355        0.044      333.518        2.882      851.443
12/30/2021  21:23:00     -378.515       65.654        6.132      190.683      135.003       91.240    36359.911    18225.847     8324.688       10.525        3.146      384.167       87.847        0.052      333.525        2.894      851.436
12/30/2021  21:24:00     -485.805      149.605      -19.793      217.431      132.305       87.761    47276.068    17504.629     7702.040       16.562        3.624      508.319       93.885        0.034      333.559        2.950      851.457
12/30/2021  21:25:00     -323.037       69.931       -8.754      235.224      163.452      118.416    55330.269    26716.403    14022.458       10.268        4.803      330.519      105.640        0.102      333.570        2.968      851.435
12/30/2021  21:26:00     -442.868       67.480      -10.624      210.341      198.267      109.191    44243.276    39309.910    11922.770       14.812        4.774      447.979      104.670        0.055      333.577        2.980      851.485
12/30/2021  21:27:00     -358.389       76.622      -21.778      260.169      202.732      104.071    67687.682    41100.224    10830.736       12.718        5.981      366.488       87.520        0.057      333.548        2.932      851.496
12/30/2021  21:28:00     -338.914       73.620      -13.581      217.678      159.831       95.888    47383.859    25546.063     9194.575       10.128        4.106      346.818       93.868        0.073      333.540        2.917      851.492
12/30/2021  21:29:00     -349.596        0.053      -20.253      218.492      125.375       82.106    47738.586    15718.984     6741.382        9.640        3.510      349.596       74.232        0.045      333.494        2.842      851.486
12/30/2021  21:30:00     -327.255      106.085       -4.805      280.357      141.787       99.635    78600.316    20103.619     9927.170       11.348        5.432      344.020       98.900        0.083      333.480        2.819      851.503
12/30/2021  21:31:00     -395.920       85.402        1.076      215.874      143.847       99.056    46601.674    20691.895     9812.055       12.056        3.855      405.027      100.325        0.061      333.505        2.861      851.493
12/30/2021  21:32:00     -507.354      141.680      -15.595      253.864      153.852      106.961    64447.151    23670.427    11440.594       18.862        4.978      526.765       97.713        0.034      333.495        2.844      851.520
12/30/2021  21:33:00     -377.791      115.330       -9.841      292.910      168.484       99.749    85796.512    28386.723     9949.933       14.011        6.207      395.002      112.002        0.080      333.477        2.814      851.552
12/30/2021  21:34:00     -507.633      106.936      -36.816      271.903      202.877      120.193    73931.045    41159.088    14446.314       19.999        6.477      518.774       94.056        0.033      333.512        2.871      851.597
12/30/2021  21:35:00     -208.624       31.331       -4.242      180.532      132.510       85.537    32591.951    17558.982     7316.637        5.098        2.873      210.963       89.631        0.181      333.492        2.839      851.632
12/30/2021  21:36:00     -216.031       41.694        0.414      217.703      134.151       92.170    47394.401    17996.568     8495.399        6.113        3.694      220.018      100.698        0.209      333.474        2.810      851.669
12/30/2021  21:37:00     -318.140      110.876       -7.883      185.035      110.276       85.034    34237.903    12160.697     7230.717        8.359        2.681      336.907       66.654        0.039      333.487        2.831      851.639
12/30/2021  21:38:00     -245.352       45.229       -1.922      275.285      147.746       88.938    75781.911    21828.877     7909.923        8.386        5.276      249.486       92.407        0.137      333.479        2.818      851.611
12/30/2021  21:39:00     -454.536       87.831       -6.688      280.651      181.178       95.758    78764.845    32825.400     9169.608       16.754        6.038      462.944      111.375        0.058      333.478        2.817      851.582
12/30/2021  21:40:00     -344.572       72.427      -17.156      278.278      155.343       90.969    77438.740    24131.524     8275.396       11.704        5.492      352.102       88.208        0.063      333.449        2.768      851.560
12/30/2021  21:41:00     -331.387      108.865       12.646      209.653      172.059       93.331    43954.313    29604.335     8710.599       10.203        4.113      348.811       94.004        0.073      333.460        2.787      851.593
12/30/2021  21:42:00     -277.393       74.037       24.764      198.657      127.604       96.114    39464.462    16282.798     9237.825        7.400        3.249      287.103       94.106        0.107      333.446        2.763      851.631
12/30/2021  21:43:00     -437.033      168.448      -24.454      209.423      190.481       98.371    43857.912    36282.894     9676.893       15.488        4.491      468.372       84.480        0.033      333.515        2.878      851.638
12/30/2021  21:44:00     -319.329      -11.615      -46.913      230.665      138.363       95.067    53206.356    19144.423     9037.776        9.283        4.069      319.541       96.836        0.092      333.525        2.894      851.702
12/30/2021  21:45:00     -226.398       25.468        5.241      193.927      107.281       88.366    37607.735    11509.173     7808.550        5.442        2.846      227.826       84.887        0.139      333.461        2.789      851.709
12/30/2021  21:46:00     -292.792       38.112       13.905      315.261      134.366      102.399    99389.341    18054.253    10485.615       10.763        6.396      295.262      143.593        0.237      333.497        2.848      851.660
12/30/2021  21:47:00     -307.892        3.050      -24.421      292.415      131.156       96.234    85506.590    17201.866     9260.940       10.367        5.598      307.907      114.807        0.139      333.526        2.895      851.634
12/30/2021  21:48:00     -269.167       80.190        2.014      207.929      144.767      104.772    43234.525    20957.413    10977.273        7.701        3.758      280.858      105.224        0.140      333.547        2.932      851.605
12/30/2021  21:49:00     -283.974       55.491      -18.573      146.962      127.072       87.754    21597.786    16147.282     7700.759        6.475        2.272      289.345       79.867        0.076      333.517        2.880      851.599
12/30/2021  21:50:00     -190.392       81.670       -9.768      152.328       81.295       63.991    23203.937     6608.957     4094.856        3.845        1.695      207.170       62.882        0.092      333.447        2.766      851.608
12/30/2021  21:51:00     -487.164       39.035      -55.094      221.886      239.114      113.769    49233.335    57175.347    12943.411       18.060        5.968      488.726      103.435        0.045      333.501        2.854      851.622
12/30/2021  21:52:00     -297.999       44.851       -6.440      209.575      137.594       85.543    43921.743    18932.152     7317.671        8.050        3.509      301.356       92.935        0.095      333.447        2.765      851.636
12/30/2021  21:53:00     -286.932       54.142      -17.556      194.473      164.384       89.887    37819.572    27022.239     8079.648        7.923        3.646      291.996       77.349        0.070      333.470        2.802      851.620
12/30/2021  21:54:00     -234.402       44.391       -8.173      179.624      102.131       75.760    32264.890    10430.758     5739.551        5.270        2.422      238.568       56.399        0.056      333.431        2.739      851.618
12/30/2021  21:55:00     -294.790      101.487      -18.848      146.406      124.878       86.378    21434.574    15594.546     7461.166        7.101        2.225      311.770       71.954        0.053      333.412        2.708      851.593
12/30/2021  21:56:00     -514.566      227.126        1.069      254.884      213.596      119.929    64965.830    45623.430    14383.019       22.065        6.249      562.463      131.911        0.055      333.478        2.816      851.549
12/30/2021  21:57:00     -435.562      126.766       -8.882      279.310      188.397      103.296    78014.213    35493.390    10670.150       16.500        6.209      453.634       84.370        0.035      333.491        2.838      851.543
12/30/2021  21:58:00     -359.961      -22.038       -7.254      235.378      149.550      111.813    55402.837    22365.245    12502.216       11.017        4.514      360.635      121.367        0.113      333.498        2.850      851.567
12/30/2021  21:59:00     -356.873      150.105        2.350      224.779      143.168       99.609    50525.599    20497.181     9921.887       11.540        4.047      387.156       84.353        0.047      333.477        2.816      851.560
12/30/2021  22:00:00     -336.892       78.097        2.655      220.608      132.802       85.834    48667.685    17636.429     7367.455        9.662        3.684      345.826       84.504        0.060      333.492        2.841      851.492
12/30/2021  22:01:00     -321.452       96.126        4.388      208.161      134.347       88.074    43330.974    18049.239     7756.976        9.085        3.457      335.517       81.360        0.059      333.462        2.788      851.484
12/30/2021  22:02:00     -170.156       70.386       -1.724      151.784      146.451       77.233    23038.415    21447.933     5964.999        4.217        2.523      184.139       58.205        0.100      333.432        2.740      851.491
12/30/2021  22:03:00     -221.734      -16.673       -0.459      164.223       97.736       79.979    26969.170     9552.304     6396.565        4.617        2.146      222.360       83.583        0.141      333.428        2.733      851.450
12/30/2021  22:04:00     -328.595       19.877       -6.399      271.560      135.783      100.812    73745.008    18436.945    10163.143       10.536        5.117      329.195       98.779        0.090      333.438        2.750      851.429
12/30/2021  22:05:00     -191.448       65.644      -21.207      192.002      154.717       86.702    36864.748    23937.263     7517.174        5.485        3.416      202.390       54.761        0.073      333.451        2.772      851.376
12/30/2021  22:06:00     -178.969       55.797        0.656      137.692      107.304       83.207    18959.160    11514.085     6923.388        3.626        1.870      187.465       69.489        0.137      333.443        2.760      851.320
12/30/2021  22:07:00     -267.688       60.708      -18.008      250.212      131.802       97.559    62605.966    17371.795     9517.807        8.256        4.475      274.486      102.859        0.140      333.448        2.767      851.269
12/30/2021  22:08:00     -170.917       52.993      -12.462      193.758      175.260      113.922    37542.127    30715.930    12978.293        5.669        4.062      178.944       79.749        0.199      333.463        2.792      851.252
12/30/2021  22:09:00     -323.379       74.625       -5.924      201.102      119.278       94.631    40442.151    14227.140     8955.105        8.689        3.181      331.878       99.625        0.090      333.454        2.776      851.270
12/30/2021  22:10:00     -329.391      -22.021      -21.716      251.623      139.220       93.481    63314.304    19382.322     8738.689       10.043        4.572      330.126       96.625        0.086      333.466        2.796      851.268
12/30/2021  22:11:00     -278.552       22.323       25.482      226.406      173.108      103.076    51259.519    29966.361    10624.561        8.528        4.593      279.445       94.787        0.115      333.448        2.766      851.252
12/30/2021  22:12:00     -344.695      126.982       -6.741      221.867      165.508       82.286    49224.795    27393.025     6770.909       10.917        4.169      367.341       87.344        0.057      333.436        2.746      851.272
12/30/2021  22:13:00     -337.220       78.553       -5.668      224.727      181.677      105.454    50502.346    33006.706    11120.650       10.726        4.731      346.249       77.396        0.050      333.419        2.719      851.253
12/30/2021  22:14:00     -342.729       27.782       -3.279      257.746      157.246       98.318    66432.754    24726.294     9666.410       10.952        5.041      343.853       93.295        0.074      333.455        2.777      851.228
12/30/2021  22:15:00     -339.920      105.850      -10.995      244.882      155.623       83.810    59967.301    24218.605     7024.194       10.902        4.561      356.019       63.434        0.032      333.475        2.812      851.238
12/30/2021  22:16:00     -313.444       63.476       -8.316      187.538      159.261      106.466    35170.510    25363.910    11335.080        8.709        3.593      319.807      106.033        0.110      333.481        2.821      851.227
12/30/2021  22:17:00     -576.017       21.138      -30.436      231.382      180.301       99.386    53537.649    32508.531     9877.661       21.453        4.796      576.405       84.938        0.022      333.491        2.837      851.205
12/30/2021  22:18:00     -448.096       32.281      -29.893      283.271      175.896      118.618    80242.646    30939.309    14070.215       16.397        6.263      449.257      128.130        0.081      333.500        2.852      851.200
12/30/2021  22:19:00     -400.784       53.672      -17.834      343.452      152.868      118.518   117959.561    23368.581    14046.619       15.957        7.769      404.361      157.363        0.151      333.518        2.884      851.197
12/30/2021  22:20:00     -363.128      115.127        8.019      250.553      214.113      127.705    62776.733    45844.383    16308.534       13.503        6.246      380.941      116.038        0.093      333.578        2.982      851.197
12/30/2021  22:21:00     -220.803      136.545      -11.982      216.245      144.313      120.858    46761.882    20826.250    14606.760        7.485        4.110      259.613      109.737        0.179      333.559        2.951      851.176
12/30/2021  22:22:00     -360.334       74.008       13.328      264.750      153.810      100.052    70092.735    23657.390    10010.448       11.961        5.188      367.856      100.407        0.075      333.529        2.900      851.097
12/30/2021  22:23:00     -305.643      -39.937        6.986      283.192      163.614      121.303    80197.445    26769.599    14714.473       10.835        6.084      308.241      121.500        0.155      333.511        2.872      851.058
12/30/2021  22:24:00     -379.683       31.855      -48.337      292.445      145.180       93.579    85524.237    21077.111     8757.098       13.141        5.768      381.017       79.361        0.043      333.504        2.860      851.028
12/30/2021  22:25:00     -219.487       25.892      -21.477      168.594      136.700       94.076    28423.782    18686.979     8850.385        5.262        2.798      221.008       95.516        0.187      333.480        2.821      851.021
12/30/2021  22:26:00     -219.887       43.567      -10.831      180.698      151.557      101.512    32651.620    22969.599    10304.611        5.813        3.296      224.162       73.428        0.107      333.474        2.808      851.022
12/30/2021  22:27:00     -428.237      113.041      -36.563      303.261      176.181      104.702    91967.077    31039.746    10962.521       16.571        6.698      442.905      108.824        0.060      333.516        2.878      851.008
12/30/2021  22:28:00     -380.879       88.327       19.314      307.381      205.145      117.644    94483.233    42084.535    13840.202       15.180        7.520      390.987      124.876        0.102      333.564        2.959      850.991
12/30/2021  22:29:00     -362.594      -28.654      -26.944      298.594      187.812      140.561    89158.661    35273.262    19757.467       13.858        7.209      363.724      113.621        0.098      333.626        3.061      851.004
12/30/2021  22:30:00     -277.112       81.126      -38.086      221.205      203.529       99.972    48931.640    41424.231     9994.395        9.257        5.018      288.743       53.732        0.035      333.589        3.001      851.002
12/30/2021  22:31:00     -406.622       84.189       -4.114      279.219      194.582      121.943    77963.476    37862.058    14870.189       15.155        6.535      415.246      112.320        0.073      333.604        3.025      850.960
12/30/2021  22:32:00     -323.480       87.330       -0.862      227.103      174.130      105.557    51575.562    30321.321    11142.337       10.264        4.652      335.061       98.492        0.086      333.575        2.976      850.884
12/30/2021  22:33:00     -561.761      118.055      -29.536      317.455      192.432      123.275   100777.836    37030.238    15196.741       24.167        7.650      574.032      136.266        0.056      333.575        2.978      850.842
12/30/2021  22:34:00     -516.894       86.038      -42.378      165.684      182.203      107.340    27451.050    33197.994    11521.771       17.426        3.609      524.006       85.355        0.027      333.568        2.964      850.854
12/30/2021  22:35:00     -357.608        1.965      -10.902      308.425      173.719      125.814    95125.917    30178.240    15829.107       13.454        7.057      357.613      144.953        0.164      333.569        2.967      850.845
12/30/2021  22:36:00     -290.591       34.964       -3.987      246.915      185.636      121.046    60966.872    34460.868    14652.140        9.786        5.504      292.687      115.231        0.155      333.560        2.953      850.838
12/30/2021  22:37:00     -307.646       75.327       -1.879      203.090      141.807       80.245    41245.554    20109.096     6439.259        8.405        3.390      316.733       82.831        0.068      333.564        2.960      850.837
12/30/2021  22:38:00     -295.925       74.844        4.965      213.697      146.203      100.825    45666.297    21375.357    10165.744        8.519        3.860      305.243       94.364        0.096      333.565        2.962      850.838
12/30/2021  22:39:00     -275.886       76.625      -24.154      195.893      186.950      102.233    38374.171    34950.237    10451.590        8.316        4.189      286.329       79.475        0.077      333.584        2.993      850.852
12/30/2021  22:40:00     -354.934       98.012       -6.442      276.382      167.270       97.242    76387.259    27979.145     9456.095       12.470        5.691      368.217       89.098        0.059      333.565        2.961      850.832
12/30/2021  22:41:00     -515.164      116.947      -38.228      293.598      242.563      112.572    86199.928    58836.740    12672.440       21.909        7.885      528.272      105.742        0.040      333.596        3.012      850.814
12/30/2021  22:42:00     -169.211       26.947      -13.517      179.216      147.313      102.168    32118.346    21701.246    10438.361        4.689        3.213      171.344       83.842        0.239      333.583        2.991      850.868
12/30/2021  22:43:00     -257.958       47.510      -27.569      200.571      114.743       81.157    40228.808    13165.867     6586.389        6.476        2.999      262.297       78.236        0.089      333.569        2.967      850.879
12/30/2021  22:44:00     -291.944        0.208      -16.525      248.455       99.604      101.242    61729.992     9920.924    10249.846        8.369        4.095      291.944      109.443        0.141      333.565        2.961      850.872
12/30/2021  22:45:00     -396.011       30.056      -30.058      285.459      147.393      109.388    81486.811    21724.638    11965.654       13.688        5.759      397.150      128.647        0.105      333.553        2.940      850.839
12/30/2021  22:46:00     -572.549      107.385      -32.821      275.903      192.068      120.769    76122.555    36890.086    14585.091       23.399        6.380      582.533      113.605        0.038      333.568        2.964      850.819
12/30/2021  22:47:00     -464.501       45.209      -36.014      235.457      148.061       88.677    55439.997    21921.924     7863.596       15.215        4.261      466.696       80.037        0.029      333.550        2.934      850.820
12/30/2021  22:48:00     -387.809       71.300      -32.534      189.258      128.910       83.846    35818.435    16617.769     7030.188       10.799        2.973      394.309       86.467        0.048      333.522        2.889      850.834
12/30/2021  22:49:00     -379.102      102.735       -1.789      300.930      223.571      142.208    90558.696    49983.907    20223.254       15.749        8.038      392.775      131.517        0.112      333.573        2.974      850.828
12/30/2021  22:50:00     -449.101       69.249      -27.645      344.214      185.128      133.115   118483.224    34272.320    17719.590       18.883        8.524      454.409      146.981        0.105      333.610        3.035      850.804
12/30/2021  22:51:00     -375.784       47.786      -31.701      193.836      149.355      100.547    37572.580    22307.011    10109.648       10.723        3.499      378.810       84.981        0.050      333.605        3.027      850.822
12/30/2021  22:52:00     -391.372       51.506       -5.717      242.793      183.219      129.881    58948.290    33569.220    16869.012       13.260        5.469      394.747      135.973        0.119      333.612        3.038      850.807
12/30/2021  22:53:00     -464.717      159.735       -3.864      249.573      192.419      106.510    62286.641    37025.199    11344.339       17.605        5.533      491.403       96.650        0.039      333.580        2.986      850.777
12/30/2021  22:54:00     -416.301        2.385      -27.381      338.039      160.808      101.137   114270.504    25859.238    10228.776       16.218        7.518      416.308      106.009        0.065      333.600        3.018      850.761
12/30/2021  22:55:00     -142.439       32.507      -23.175      171.332      105.308       83.823    29354.517    11089.855     7026.363        3.467        2.374      146.102       71.001        0.236      333.580        2.987      850.787
12/30/2021  22:56:00     -238.236       72.060       -7.889      244.085      155.960       98.744    59577.731    24323.469     9750.425        7.781        4.683      248.896       82.881        0.111      333.566        2.962      850.753
12/30/2021  22:57:00     -493.959       62.192      -31.499      271.319      158.284      101.967    73614.257    25053.917    10397.321       17.894        5.453      497.859       94.260        0.036      333.577        2.980      850.760
12/30/2021  22:58:00     -239.517      144.486       -5.228      181.136      159.163       85.235    32810.097    25332.779     7264.977        7.183        3.270      279.722       89.666        0.103      333.561        2.955      850.749
12/30/2021  22:59:00     -261.556      184.729      -12.509      313.319      178.236      120.806    98169.069    31768.126    14594.130       12.359        7.227      320.213       88.720        0.077      333.574        2.976      850.733
12/30/2021  23:00:00     -251.289       35.812      -16.026      206.428      173.918       99.685    42612.687    30247.599     9937.193        7.373        4.140      253.829      103.122        0.165      333.591        3.004      850.708
12/30/2021  23:01:00     -284.185       42.572       -6.921      290.358      180.987      124.189    84307.542    32756.313    15422.956       10.753        6.624      287.356      109.666        0.146      333.587        2.999      850.739
12/30/2021  23:02:00     -660.098      162.641      -41.369      347.053      209.823      136.128   120445.486    44025.582    18530.791       32.341        9.150      679.839      129.102        0.036      333.611        3.035      850.738
12/30/2021  23:03:00     -413.114      129.243      -11.045      255.662      151.989      113.340    65363.055    23100.667    12846.004       14.438        5.065      432.859       96.746        0.050      333.600        3.018      850.746
12/30/2021  23:04:00     -366.574      175.339       -5.494      195.844      174.327      105.527    38354.761    30389.804    11135.914       12.250        3.994      406.350       89.347        0.048      333.605        3.027      850.741
12/30/2021  23:05:00     -362.219       93.528      -30.117      300.552      172.541       96.464    90331.295    29770.354     9305.300       13.511        6.470      374.099       90.728        0.059      333.587        2.997      850.731
12/30/2021  23:06:00     -338.345       59.358      -35.459      299.113      124.847       92.708    89468.698    15586.778     8594.802       11.643        5.683      343.512       73.502        0.046      333.579        2.983      850.710
12/30/2021  23:07:00     -368.207      184.291      -28.827      245.102      161.347       95.516    60074.884    26032.936     9123.215       13.278        4.762      411.752       99.022        0.058      333.535        2.909      850.672
12/30/2021  23:08:00     -498.820      194.859      -26.711      269.409      158.353      104.985    72581.408    25075.577    11021.832       19.807        5.434      535.529      105.009        0.038      333.524        2.893      850.606
12/30/2021  23:09:00     -350.345      125.313      -18.155      334.012      218.121      132.867   111563.768    47576.934    17653.739       15.775        8.840      372.082       99.910        0.072      333.546        2.930      850.550
12/30/2021  23:10:00     -320.153       79.783      -10.788      201.771      135.036      109.856    40711.614    18234.713    12068.258        8.998        3.551      329.944       86.420        0.069      333.528        2.899      850.586
12/30/2021  23:11:00     -343.903      120.938       -9.520      197.359      139.056       91.211    38950.682    19336.617     8319.529        9.978        3.330      364.548       92.377        0.064      333.549        2.934      850.633
12/30/2021  23:12:00     -335.446       65.333      -11.284      274.137      141.898      103.738    75150.870    20135.093    10761.481       11.146        5.302      341.749       71.557        0.044      333.533        2.908      850.606
12/30/2021  23:13:00     -492.759      141.065       -6.212      273.522      209.995      103.349    74814.036    44097.914    10681.104       19.615        6.480      512.553       92.300        0.032      333.521        2.887      850.590
12/30/2021  23:14:00     -404.533       83.844       -3.807      194.906      144.775       84.869    37988.299    20959.682     7202.793       11.841        3.308      413.130       65.234        0.025      333.476        2.813      850.594
12/30/2021  23:15:00     -351.815       62.565        9.531      258.928      186.266      101.668    67043.804    34695.013    10336.441       11.991        5.604      357.335      100.570        0.079      333.540        2.919      850.573
12/30/2021  23:16:00     -417.006      125.743       -2.290      289.352      181.135      107.071    83724.627    32809.790    11464.149       15.883        6.400      435.552      130.453        0.090      333.537        2.914      850.582
12/30/2021  23:17:00     -326.331      135.137      -11.856      264.995      200.358      111.300    70222.138    40143.519    12387.579       12.380        6.138      353.205      123.913        0.123      333.512        2.871      850.624
12/30/2021  23:18:00     -465.904      152.403      -24.073      167.131      169.547      104.688    27932.723    28746.093    10959.555       15.424        3.382      490.197       83.084        0.029      333.490        2.835      850.661
12/30/2021  23:19:00     -555.280       73.966      -29.465      277.931      214.676      113.891    77245.691    46085.882    12971.109       22.546        6.815      560.185       98.679        0.031      333.517        2.879      850.601
12/30/2021  23:20:00     -216.086      -19.541      -42.538      251.123      199.216       99.299    63062.646    39687.214     9860.358        8.073        5.631      216.967      102.656        0.224      333.523        2.892      850.584
12/30/2021  23:21:00     -433.766      165.147      -25.787      247.901      205.486      110.171    61454.940    42224.379    12137.718       16.593        5.791      464.141       94.759        0.042      333.485        2.826      850.564
12/30/2021  23:22:00     -537.474      162.111        6.483      308.067      212.470      122.386    94905.122    45143.516    14978.218       23.509        7.751      561.390      118.231        0.044      333.461        2.786      850.636
12/30/2021  23:23:00     -496.405       68.755      -25.268      381.306      195.974      145.774   145393.928    38405.907    21249.987       22.838       10.252      501.144      116.975        0.054      333.523        2.890      850.625
12/30/2021  23:24:00     -369.481      152.763       -0.995      239.747      175.855      106.857    57478.386    30924.893    11418.474       12.982        4.991      399.816       87.140        0.048      333.516        2.878      850.633
12/30/2021  23:25:00     -328.104      162.762      -13.779      201.271      197.580       98.800    40510.127    39037.694     9761.458       11.181        4.465      366.257      105.267        0.083      333.496        2.845      850.663
12/30/2021  23:26:00     -522.054       79.939       -6.511      260.368      172.772      106.143    67791.595    29850.313    11266.233       19.392        5.445      528.139      116.504        0.049      333.513        2.875      850.640
12/30/2021  23:27:00     -602.581      145.017       -5.186      289.837      182.148      115.623    84005.558    33177.756    13368.781       25.733        6.528      619.785      125.447        0.041      333.549        2.934      850.651
12/30/2021  23:28:00     -466.734      127.063        1.830      242.858      172.109       96.562    58980.088    29621.461     9324.181       16.594        4.896      483.720      107.578        0.049      333.515        2.877      850.672
12/30/2021  23:29:00     -367.495      129.629      -19.111      187.812      127.931       88.838    35273.294    16366.225     7892.159       10.587        2.977      389.687       85.291        0.048      333.494        2.843      850.665
12/30/2021  23:30:00     -399.710      166.899        1.070      248.469      178.872       95.474    61736.644    31995.084     9115.324       14.522        5.142      433.155       74.787        0.030      333.494        2.840      850.644
12/30/2021  23:31:00     -409.412       81.169      -14.686      292.194      168.917      104.664    85377.620    28532.869    10954.469       14.962        6.243      417.381      114.521        0.075      333.500        2.853      850.691
12/30/2021  23:32:00     -359.444       39.242      -26.775      197.761      154.880       88.058    39109.466    23987.888     7754.138       10.114        3.543      361.579       64.600        0.032      333.504        2.860      850.689
12/30/2021  23:33:00     -394.786      169.833       12.218      210.762      172.947      110.423    44420.529    29910.666    12193.210       13.567        4.326      429.766      100.354        0.055      333.486        2.829      850.716
12/30/2021  23:34:00     -517.053      239.115       -8.193      271.471      176.334      126.955    73696.414    31093.544    16117.494       22.273        6.045      569.667      116.532        0.042      333.583        2.989      850.677
12/30/2021  23:35:00     -469.421       80.114      -20.441      321.499      213.362      119.524   103361.520    45523.383    14285.971       19.515        8.159      476.209      138.032        0.084      333.593        3.008      850.726
12/30/2021  23:36:00     -631.386      196.973      -24.600      273.499      200.443      112.926    74801.633    40177.303    12752.344       28.287        6.387      661.398      117.305        0.031      333.564        2.958      850.722
12/30/2021  23:37:00     -490.551      126.086        4.943      293.146      189.259      118.619    85934.841    35818.908    14070.475       19.617        6.791      506.496      111.226        0.048      333.505        2.859      850.698
12/30/2021  23:38:00     -477.152      137.403       -1.804      328.470      177.051      122.945   107892.286    31346.996    15115.447       20.043        7.718      496.541      138.855        0.078      333.528        2.900      850.752
12/30/2021  23:39:00     -500.526      180.025      -11.223      262.842      191.285      118.124    69085.684    36589.863    13953.195       20.132        5.981      531.917      121.225        0.052      333.549        2.933      850.763
12/30/2021  23:40:00     -500.421      173.618       20.493      290.075      203.031      129.059    84143.684    41221.636    16656.141       21.148        7.101      529.683      128.168        0.059      333.520        2.886      850.804
12/30/2021  23:41:00     -188.812       34.352        5.024      273.055      151.476      112.200    74558.800    22945.111    12588.822        7.345        5.505      191.911      113.429        0.349      333.502        2.855      850.810
12/30/2021  23:42:00     -435.714       43.371      -24.925      302.671      191.766      132.183    91610.034    36774.167    17472.214       16.908        7.293      437.867      148.130        0.114      333.523        2.891      850.852
12/30/2021  23:43:00     -573.764      106.054      -36.912      334.125      217.291      133.013   111639.705    47215.541    17692.367       25.915        8.827      583.483      158.363        0.074      333.562        2.955      850.875
12/30/2021  23:44:00     -537.128      222.323        9.554      303.827      190.428      125.920    92311.060    36262.949    15855.869       24.120        7.221      581.321      129.362        0.050      333.562        2.955      850.908
12/30/2021  23:45:00     -466.068      122.353      -15.053      211.728      233.723      110.544    44828.823    54626.402    12219.989       17.203        5.584      481.861       98.735        0.042      333.557        2.947      850.930
12/30/2021  23:46:00     -418.901      148.849       10.476      243.375      191.472      115.239    59231.293    36661.577    13279.928       15.344        5.459      444.560      117.838        0.070      333.517        2.881      850.926
12/30/2021  23:47:00     -482.969      117.097      -37.371      346.442      185.549      102.483   120021.864    34428.497    10502.864       20.663        8.248      496.962      132.985        0.072      333.531        2.904      850.916
12/30/2021  23:48:00     -469.396       97.237       -7.739      238.208      183.259      118.464    56743.221    33583.934    14033.606       16.708        5.218      479.362      117.484        0.060      333.544        2.924      850.924
12/30/2021  23:49:00     -369.915      149.011       -4.396      307.116      239.830      143.964    94319.933    57518.484    20725.657       16.578        8.628      398.800      154.236        0.150      333.553        2.939      850.950
12/30/2021  23:50:00     -346.303       76.071       -8.518      224.804      204.724      115.169    50536.854    41911.824    13263.855       11.573        5.286      354.559       87.155        0.060      333.523        2.889      850.986
12/30/2021  23:51:00     -447.258       75.986      -33.599      280.372      173.279      121.708    78608.583    30025.719    14812.764       16.517        6.172      453.666      137.140        0.091      333.531        2.904      850.963
12/30/2021  23:52:00     -393.783       66.379      -23.044      296.198      168.586      107.795    87733.119    28421.340    11619.750       14.386        6.389      399.338      100.232        0.063      333.500        2.853      850.989
12/30/2021  23:53:00     -568.344      186.197      -10.287      316.661      189.292      119.338   100274.505    35831.479    14241.516       25.404        7.517      598.067      130.615        0.048      333.494        2.842      850.976
12/30/2021  23:54:00     -454.116       98.580      -18.321      304.019      220.500      114.444    92427.502    48620.462    13097.401       18.518        7.707      464.693      114.529        0.061      333.634        3.074      850.975
12/30/2021  23:55:00     -478.162      134.426      -32.679      249.067      184.249      117.655    62034.460    33947.636    13842.684       17.878        5.491      496.699      116.219        0.055      333.544        2.925      851.017
12/30/2021  23:56:00     -474.984      133.587       -3.455      295.645      197.394      104.650    87406.119    38964.347    10951.653       19.037        6.866      493.412       93.143        0.036      333.502        2.856      850.986
12/30/2021  23:57:00     -294.377      122.509        9.207      226.424      148.696       97.433    51267.666    22110.630     9493.231        9.230        4.144      318.852      118.735        0.139      333.493        2.841      851.007
12/30/2021  23:58:00     -370.545       97.223       -8.416      271.345      177.818      110.937    73628.216    31619.330    12307.094       13.217        5.878      383.087      124.142        0.105      333.486        2.828      850.978
12/30/2021  23:59:00     -348.457       51.417       -3.841      225.485      140.631       97.394    50843.290    19777.022     9485.616       10.208        4.005      352.230       88.696        0.063      333.459        2.784      850.995
12/31/2021  00:00:00     -375.215      117.334      -12.896      297.732      171.935       99.313    88644.145    29561.551     9863.049       14.137        6.403      393.133       72.984        0.034      333.481        2.822      850.972
12/31/2021  00:01:00     -532.735      112.979      -21.427      280.593      165.018      109.995    78732.632    27230.823    12099.001       20.752        5.903      544.583      130.140        0.057      333.498        2.849      850.941
12/31/2021  00:02:00     -377.002       33.199       -8.975      237.975      124.160       97.661    56632.044    15415.783     9537.705       11.243        4.079      378.461      112.201        0.088      333.477        2.814      850.899
12/31/2021  00:03:00     -477.707        8.469      -27.073      273.107      180.558      118.203    74587.287    32601.321    13971.969       17.506        6.058      477.782      117.934        0.061      333.511        2.871      850.936
12/31/2021  00:04:00     -176.970       77.111       -8.043      252.497      232.745      121.278    63754.767    54170.013    14708.381        8.496        6.632      193.040      109.973        0.325      333.493        2.841      851.003
12/31/2021  00:05:00     -448.680       80.998      -22.711      298.068      163.892      114.463    88844.238    26860.446    13101.708       16.857        6.440      455.932      117.120        0.066      333.484        2.826      851.044
12/31/2021  00:06:00     -496.198       96.115       -8.850      250.891      150.241      106.923    62946.083    22572.363    11432.429       17.622        4.848      505.421      107.330        0.045      333.512        2.871      851.039
12/31/2021  00:07:00     -405.581       95.553       -0.997      269.721      206.137      123.290    72749.675    42492.388    15200.351       15.201        6.522      416.685      123.632        0.088      333.499        2.851      851.002
12/31/2021  00:08:00     -557.301       77.047       -6.952      357.113      205.145      129.853   127529.592    42084.595    16861.866       25.149        9.324      562.602      120.804        0.046      333.561        2.952      850.962
12/31/2021  00:09:00     -457.889      103.576      -14.709      351.327      209.469      134.507   123430.890    43877.373    18092.055       20.297        9.270      469.457      138.650        0.087      333.563        2.957      850.949
12/31/2021  00:10:00     -483.065       38.552      -13.094      299.568      195.639      131.150    89741.106    38274.476    17200.195       19.009        7.261      484.601      136.641        0.080      333.542        2.921      850.950
12/31/2021  00:11:00     -357.391       86.987       25.000      291.208      186.349      128.172    84801.822    34725.853    16428.120       13.591        6.798      367.825      128.038        0.121      333.533        2.907      850.958
12/31/2021  00:12:00     -250.830       88.013      -21.103      332.292      184.068      124.958   110417.877    33881.176    15614.465       11.548        7.996      265.823      137.151        0.266      333.538        2.916      850.971
12/31/2021  00:13:00     -433.215       71.540      -19.878      291.065      192.259      122.353    84718.695    36963.402    14970.155       16.490        6.833      439.083      127.863        0.085      333.522        2.891      850.993
12/31/2021  00:14:00     -486.982       -3.172      -17.327      338.580      178.119      138.576   114636.556    31726.484    19203.322       20.148        8.278      486.993      128.992        0.070      333.571        2.968      850.975
12/31/2021  00:15:00     -234.437      100.876       -9.752      249.024      154.391      104.421    62012.901    23836.572    10903.710        8.097        4.838      255.219       74.318        0.085      333.561        2.954      851.021
12/31/2021  00:16:00     -404.686       93.419      -22.364      239.941      168.333      100.210    57571.693    28335.855    10042.072       13.446        4.797      415.329      105.245        0.064      333.556        2.946      851.048
12/31/2021  00:17:00     -440.701      -19.644      -19.004      180.142      151.037       99.054    32451.176    22812.093     9811.755       13.001        3.254      441.139       89.383        0.041      333.539        2.918      851.068
12/31/2021  00:18:00     -388.714       98.594      -13.031      239.550      184.023      119.442    57384.287    33864.569    14266.447       13.323        5.276      401.023      102.113        0.065      333.547        2.929      851.099
12/31/2021  00:19:00     -399.123       79.058      -19.869      233.772      160.379       96.781    54649.527    25721.379     9366.648       12.782        4.487      406.877      101.113        0.062      333.546        2.928      851.135
12/31/2021  00:20:00     -324.791       70.827       -7.780      256.814      190.141      129.855    65953.433    36153.419    16862.267       11.475        5.948      332.424      133.685        0.162      333.554        2.941      851.122
12/31/2021  00:21:00     -273.796       84.180        1.365      238.736      163.790       98.701    56994.831    26827.061     9741.811        8.779        4.678      286.445       69.825        0.059      333.565        2.960      851.124
12/31/2021  00:22:00     -239.764       55.669       -0.072      258.190      174.080      137.496    66661.918    30303.985    18905.224        8.821        5.794      246.142      137.063        0.310      333.592        3.005      851.129
12/31/2021  00:23:00     -441.548        6.228      -22.753      363.470      216.529      150.377   132110.262    46884.749    22613.336       19.853       10.080      441.592      150.063        0.115      333.608        3.031      851.130
12/31/2021  00:24:00     -477.684       78.541        1.995      258.155      186.946      107.459    66643.946    34948.841    11547.463       17.373        5.657      484.098      111.807        0.053      333.601        3.021      851.094
12/31/2021  00:25:00     -292.804        5.498      -28.781      273.051      165.492      153.176    74556.771    27387.758    23463.007       10.598        6.270      292.855      140.574        0.230      333.604        3.026      851.099
12/31/2021  00:26:00     -374.010        1.393      -14.891      329.718      201.314      136.592   108713.884    40527.424    18657.335       15.397        8.395      374.013      122.323        0.107      333.631        3.070      851.066
12/31/2021  00:27:00     -269.050       16.493       -2.557      204.222      128.794       95.873    41706.731    16587.810     9191.608        7.006        3.374      269.555       93.874        0.121      333.596        3.011      851.093
12/31/2021  00:28:00     -266.034      -14.031      -12.798      261.360      194.625      122.116    68308.888    37878.926    14912.296        9.610        6.055      266.404      131.128        0.242      333.581        2.988      851.100
12/31/2021  00:29:00     -352.992      -15.409       -2.861      288.031      172.040      121.197    82961.590    29597.815    14688.831       12.603        6.362      353.328      120.526        0.116      333.611        3.036      851.077
12/31/2021  00:30:00     -543.609      -66.285      -46.061      383.657      209.322      155.729   147192.469    43815.742    24251.372       25.860       10.763      547.635      169.562        0.096      333.631        3.070      851.063
12/31/2021  00:31:00     -468.205       55.531      -23.401      316.954      193.658      117.844   100459.979    37503.339    13887.102       18.732        7.593      471.487      131.215        0.077      333.581        2.986      851.097
12/31/2021  00:32:00     -247.863       14.003        7.612      289.348      176.255      125.163    83722.426    31065.730    15665.659        9.605        6.523      248.258      136.176        0.301      333.586        2.996      851.099
12/31/2021  00:33:00     -652.657       11.298      -19.437      277.007      193.175      118.770    76732.738    37316.741    14106.340       27.729        6.408      652.755      125.646        0.037      333.593        3.008      851.111
12/31/2021  00:34:00     -587.947      -42.792      -22.168      356.783      191.353      130.255   127294.459    36616.040    16966.253       26.441        9.044      589.502      149.210        0.064      333.651        3.103      851.116
12/31/2021  00:35:00     -650.732        2.762      -29.056      308.499      168.749      145.180    95171.372    28476.237    21077.112       28.449        7.236      650.738      150.110        0.053      333.694        3.173      851.119
12/31/2021  00:36:00     -470.611        5.694      -14.275      325.933      192.521      117.684   106232.397    37064.446    13849.417       18.940        7.857      470.645      125.657        0.071      333.680        3.149      851.117
12/31/2021  00:37:00     -616.434       55.822      -32.444      276.403      157.305      113.380    76398.512    24744.788    12854.930       24.906        5.700      618.956      121.685        0.039      333.671        3.136      851.135
12/31/2021  00:38:00     -388.604      -45.994      -37.330      182.693      145.307      103.386    33376.895    21114.155    10688.604       10.984        3.259      391.317       79.677        0.041      333.667        3.131      851.121
12/31/2021  00:39:00     -420.959      -34.113      -18.377      259.941      195.469      115.996    67569.578    38208.098    13455.000       14.895        5.962      422.339      113.165        0.072      333.661        3.118      851.102
12/31/2021  00:40:00     -588.278      -41.019      -42.040      232.967      133.115      103.775    54273.540    17719.494    10769.204       21.613        4.138      589.706       86.777        0.022      333.654        3.108      851.092
12/31/2021  00:41:00     -419.099      -15.718       -9.655      280.750      161.172      150.797    78820.792    25976.493    22739.595       15.174        6.377      419.394      151.702        0.131      333.637        3.079      851.112
12/31/2021  00:42:00     -425.103       42.123      -32.793      258.953      219.809      127.630    67056.891    48315.889    16289.296       15.759        6.583      427.184       89.346        0.044      333.656        3.110      851.078
12/31/2021  00:43:00     -342.869       -0.234       -7.980      296.924      144.510      114.826    88164.084    20883.203    13185.107       11.991        6.112      342.869      132.652        0.150      333.651        3.102      851.077
12/31/2021  00:44:00     -333.002       55.311       -2.745      254.355      183.617      102.308    64696.401    33715.146    10466.968       11.140        5.444      337.565      106.196        0.099      333.626        3.062      851.074
12/31/2021  00:45:00     -462.035      -48.488      -18.993      337.734      196.342      132.764   114063.997    38550.049    17626.350       19.318        8.512      464.572      139.933        0.091      333.621        3.055      851.064
12/31/2021  00:46:00     -413.870      -21.983      -29.484      274.280      192.337      134.432    75229.327    36993.680    18071.850       15.144        6.515      414.453      136.593        0.109      333.651        3.103      851.036
12/31/2021  00:47:00     -458.399      -31.276       -8.157      326.685      167.766      131.189   106723.258    28145.456    17210.613       18.160        7.604      459.465      140.112        0.093      333.648        3.098      851.087
12/31/2021  00:48:00     -476.325      -44.554      -35.159      389.824      201.584      126.815   151962.513    40636.066    16082.061       21.936       10.434      478.404      119.794        0.063      333.660        3.118      851.098
12/31/2021  00:49:00     -447.135      -11.061       -6.638      260.134      128.629      114.515    67669.838    16545.441    13113.583       14.869        4.866      447.272      121.851        0.074      333.633        3.073      851.127
12/31/2021  00:50:00     -311.329       74.767        3.272      258.320      195.902      105.197    66729.066    38377.679    11066.426       10.933        5.809      320.181      102.775        0.103      333.618        3.047      851.116
12/31/2021  00:51:00     -361.105      -58.570       -4.774      273.755      186.896      124.472    74941.900    34930.123    15493.217       12.958        6.268      365.824      126.283        0.119      333.616        3.046      851.100
12/31/2021  00:52:00     -315.117        0.684      -12.073      252.710      153.644      132.992    63862.231    23606.570    17686.858       10.228        5.258      315.118      145.862        0.214      333.611        3.037      851.123
12/31/2021  00:53:00     -262.886       28.495        6.197      253.350      140.667       99.939    64186.071    19787.314     9987.749        8.194        4.698      264.426       97.296        0.135      333.592        3.005      851.109
12/31/2021  00:54:00     -510.700      -65.321      -30.126      299.116      153.750      115.221    89470.420    23638.975    13275.939       19.616        6.319      514.860      100.346        0.038      333.651        3.103      851.103
12/31/2021  00:55:00     -415.022      -19.966      -27.024      215.077      139.444       92.969    46258.074    19444.616     8643.290       12.385        3.717      415.502       82.763        0.040      333.654        3.107      851.086
12/31/2021  00:56:00     -224.273       53.550        6.033      143.824       87.914       74.760    20685.452     7728.864     5589.056        4.360        1.700      230.578       76.052        0.109      333.593        3.008      851.117
12/31/2021  00:57:00     -376.508       42.203        6.264      248.374      156.747      106.374    61689.555    24569.619    11315.381       12.056        4.879      378.865      109.800        0.084      333.604        3.026      851.138
12/31/2021  00:58:00     -595.064      -36.266      -47.417      314.216      210.226      138.876    98731.542    44195.136    19286.425       25.991        8.111      596.168      145.312        0.059      333.654        3.107      851.096
12/31/2021  00:59:00     -234.287       91.557      -10.457      242.175      175.053      107.400    58648.905    30643.648    11534.723        8.209        5.041      251.541      100.293        0.159      333.639        3.084      851.135
12/31/2021  01:00:00     -463.520       69.014       -9.412      261.043      172.912      111.886    68143.486    29898.711    12518.522       16.511        5.528      468.630      113.520        0.059      333.640        3.085      851.123
12/31/2021  01:01:00     -301.410       16.950       -8.635      291.414      137.379      100.516    84922.036    18873.005    10103.440       10.253        5.695      301.886       99.874        0.109      333.640        3.086      851.182
12/31/2021  01:02:00     -406.460      -27.608      -14.803      233.069      169.526      108.547    54321.236    28738.962    11782.428       13.050        4.742      407.396      106.805        0.069      333.653        3.106      851.150
12/31/2021  01:03:00     -362.425        7.167       -3.061      280.270      167.471      109.177    78551.537    28046.593    11919.524       12.494        5.926      362.496      114.534        0.100      333.642        3.089      851.136
12/31/2021  01:04:00     -383.924        9.897       -5.317      254.298      162.824      111.402    64667.618    26511.761    12410.339       12.554        5.179      384.052      115.320        0.090      333.619        3.050      851.118
12/31/2021  01:05:00     -483.755        3.850      -13.236      330.863      191.755      143.088   109470.240    36770.006    20474.261       20.043        8.336      483.770      164.907        0.116      333.616        3.045      851.091
12/31/2021  01:06:00     -261.022       83.937        7.089      214.319      168.474       95.369    45932.673    28383.644     9095.245        7.930        4.171      274.186       90.199        0.108      333.594        3.008      851.149
12/31/2021  01:07:00     -258.701      -62.312      -10.638      261.919      191.434      131.759    68601.407    36646.920    17360.356        9.674        6.130      266.100      133.279        0.251      333.592        3.008      851.134
12/31/2021  01:08:00     -387.301       65.802      -25.575      226.431      162.235      110.451    51270.860    26320.296    12199.368       12.237        4.490      392.851      101.623        0.067      333.588        2.998      851.121
12/31/2021  01:09:00     -436.489       69.341      -18.751      215.460      197.830       91.804    46422.969    39136.561     8428.000       14.482        4.699      441.962       99.957        0.051      333.574        2.974      851.122
12/31/2021  01:10:00     -216.497        7.169       -2.390      280.887      147.434      111.843    78897.497    21736.916    12508.881        8.001        5.657      216.615      132.908        0.376      333.578        2.984      851.082
12/31/2021  01:11:00     -282.445       85.657       -0.675      297.407      174.621      117.689    88450.696    30492.449    13850.584       10.993        6.640      295.148      129.315        0.192      333.575        2.976      851.072
12/31/2021  01:12:00     -441.825      131.723        6.061      339.504      186.910      127.396   115262.744    34935.487    16229.688       18.948        8.321      461.043      138.154        0.090      333.590        3.002      851.037
12/31/2021  01:13:00     -285.331       33.148      -26.154      324.271      147.973       99.123   105151.406    21895.900     9825.464       11.001        6.844      287.250       84.956        0.087      333.602        3.023      851.040
12/31/2021  01:14:00     -686.481       57.501      -30.892      299.986      223.154      134.664    89991.445    49797.642    18134.446       31.669        7.896      688.885      157.128        0.052      333.620        3.051      851.010
12/31/2021  01:15:00     -330.709       11.054       -1.424      267.919      174.326      118.121    71780.596    30389.681    13952.612       11.279        5.806      330.894      108.546        0.108      333.642        3.087      850.987
12/31/2021  01:16:00     -427.805       58.072      -19.735      233.552      150.205      101.200    54546.383    22561.442    10241.366       13.705        4.367      431.729      105.809        0.060      333.649        3.100      851.010
12/31/2021  01:17:00     -260.709       33.100      -24.067      199.221      129.944       95.771    39689.098    16885.433     9172.040        6.768        3.287      262.802       75.637        0.083      333.640        3.086      851.030
12/31/2021  01:18:00     -339.766       64.038      -21.861      189.415      187.281       97.836    35878.164    35074.319     9571.837       10.026        4.026      345.748       78.634        0.052      333.613        3.039      851.048
12/31/2021  01:19:00     -169.885       27.406      -28.184      216.949      147.382      106.800    47066.904    21721.342    11406.160        5.529        4.010      172.082       86.758        0.254      333.612        3.037      851.062
12/31/2021  01:20:00     -148.621       27.352      -34.681      278.146      137.337       94.778    77365.454    18861.508     8982.881        6.461        5.260      151.117       94.190        0.388      333.616        3.044      851.057
12/31/2021  01:21:00     -287.489      -18.202       -2.579      201.434      139.845       92.199    40575.468    19556.677     8500.638        7.580        3.432      288.065       74.501        0.067      333.588        2.999      851.068
12/31/2021  01:22:00     -430.864       18.221      -38.015      255.139      151.760      116.332    65095.941    23030.978    13533.158       14.452        5.083      431.249       94.809        0.048      333.575        2.977      851.057
12/31/2021  01:23:00     -275.938      -16.524      -19.420      241.770      162.872      121.116    58452.688    26527.329    14669.168        8.820        4.982      276.433      120.266        0.189      333.586        2.997      851.011
12/31/2021  01:24:00     -558.586       52.732      -37.038      302.423      174.628      106.367    91459.532    30494.930    11313.895       22.470        6.663      561.070      122.282        0.047      333.557        2.946      851.001
12/31/2021  01:25:00     -281.872       96.016       -5.489      239.623      202.219      102.273    57419.369    40892.674    10459.784        9.872        5.439      297.776       77.556        0.068      333.559        2.950      851.003
12/31/2021  01:26:00     -482.731      121.478      -43.818      318.406      209.797      122.559   101382.254    44014.867    15020.809       20.503        8.021      497.781      113.832        0.052      333.556        2.946      851.011
12/31/2021  01:27:00     -460.297      -11.526      -33.278      341.731      164.135      103.996   116780.238    26940.397    10815.155       18.380        7.727      460.441      110.106        0.057      333.560        2.952      851.008
12/31/2021  01:28:00     -358.946      -61.550      -23.043      337.666      181.068      133.970   114018.310    32785.687    17948.033       14.893        8.238      364.185      139.110        0.146      333.553        2.941      850.997
12/31/2021  01:29:00     -411.394       44.706      -24.054      254.407      196.812       90.634    64723.002    38734.954     8214.447       14.173        5.584      413.816       89.924        0.047      333.588        2.999      851.009
12/31/2021  01:30:00     -415.872       33.124      -15.299      360.886      194.115      129.754   130238.746    37680.594    16836.037       17.948        9.238      417.189      127.606        0.094      333.587        2.997      851.021
12/31/2021  01:31:00     -300.378       79.822        5.451      279.045      167.370      110.492    77865.859    28012.713    12208.381       10.734        5.904      310.803      108.565        0.122      333.608        3.032      851.041
12/31/2021  01:32:00     -212.727      -25.740       -5.795      269.062      156.916      117.331    72394.095    24622.616    13766.544        7.835        5.539      214.279      107.366        0.251      333.619        3.050      851.025
12/31/2021  01:33:00     -426.261       -2.530      -26.936      247.149      189.772      122.806    61082.734    36013.489    15081.263       14.728        5.609      426.268      117.885        0.076      333.593        3.008      851.020
12/31/2021  01:34:00     -422.918       78.763      -11.079      212.848      161.625      106.745    45304.143    26122.658    11394.451       13.399        4.141      430.190       98.795        0.053      333.599        3.015      851.024
12/31/2021  01:35:00     -267.641        2.548      -36.373      250.930      133.802      114.471    62966.059    17902.887    13103.632        8.345        4.699      267.653      117.544        0.193      333.633        3.072      851.028
12/31/2021  01:36:00     -261.074       77.590       12.601      279.249      157.473      118.060    77980.187    24797.694    13938.152        9.551        5.836      272.360      109.822        0.163      333.597        3.013      851.056
12/31/2021  01:37:00     -688.766       67.441      -26.073      283.280      205.300      133.954    80247.373    42147.913    17943.632       30.996        7.017      692.060      114.297        0.027      333.609        3.033      851.035
12/31/2021  01:38:00     -404.849      103.215        9.063      246.107      167.483      105.218    60568.713    28050.393    11070.741       13.715        4.984      417.799      104.775        0.063      333.575        2.977      851.085
12/31/2021  01:39:00     -756.783      138.600      -55.703      326.706      244.499      139.878   106736.485    59779.906    19565.929       39.052        9.304      769.370      142.053        0.034      333.599        3.016      851.021
12/31/2021  01:40:00     -284.809       88.845      -20.891      270.780      157.049      102.011    73322.024    24664.252    10406.327        9.890        5.420      298.344      100.036        0.112      333.596        3.011      851.063
12/31/2021  01:41:00     -422.279       87.902      -11.778      319.843      126.942       94.437   102299.408    16114.195     8918.361       15.673        6.367      431.331      119.977        0.077      333.611        3.037      851.053
12/31/2021  01:42:00     -428.532       67.908      -25.875      220.134      129.092       92.448    48458.984    16664.665     8546.722       13.128        3.684      433.879       88.096        0.041      333.598        3.014      851.043
12/31/2021  01:43:00     -385.814       13.443      -41.677      201.232      143.426      123.150    40494.315    20571.007    15165.975       11.349        3.812      386.048      116.635        0.091      333.608        3.032      851.060
12/31/2021  01:44:00     -414.780      174.097       -7.338      274.222      144.890      103.162    75197.892    20993.089    10642.344       15.460        5.342      449.836      104.770        0.054      333.590        3.002      851.079
12/31/2021  01:45:00     -618.578       57.809      -25.527      370.285      190.752      126.822   137111.203    36386.209    16083.789       28.807        9.479      621.273      139.154        0.050      333.580        2.985      851.072
12/31/2021  01:46:00     -481.109       72.257      -36.405      358.319      173.700      113.761   128392.211    30171.743    12941.647       20.473        8.575      486.505      124.444        0.065      333.609        3.033      851.090
12/31/2021  01:47:00     -580.274      166.137      -17.929      279.282      187.176      125.304    77998.293    35034.827    15700.985       24.666        6.437      603.589      105.855        0.031      333.573        2.975      851.087
12/31/2021  01:48:00     -365.072      120.760       -4.412      239.050      176.310       97.463    57145.081    31085.071     9498.979       12.279        4.886      384.526      100.219        0.068      333.586        2.996      851.106
12/31/2021  01:49:00     -459.766       87.439       -3.239      266.641      165.724       97.145    71097.577    27464.596     9437.244       16.350        5.400      468.007      110.438        0.056      333.567        2.963      851.081
12/31/2021  01:50:00     -352.183       73.068      -23.392      253.935      200.675      117.178    64482.928    40270.511    13730.773       12.418        5.924      359.683      105.297        0.086      333.574        2.976      851.098
12/31/2021  01:51:00     -392.926       57.757      -12.533      206.144      119.808       77.202    42495.478    14353.895     5960.114       11.034        3.140      397.148       64.786        0.027      333.567        2.964      851.119
12/31/2021  01:52:00     -466.945      141.933      -13.375      171.629      134.336       87.495    29456.569    18046.046     7655.406       14.675        2.758      488.040       66.308        0.018      333.558        2.949      851.109
12/31/2021  01:53:00     -300.262       50.536      -18.168      151.854      130.100       95.812    23059.705    16925.917     9179.896        7.109        2.458      304.485       88.239        0.084      333.575        2.976      851.079
12/31/2021  01:54:00     -276.044       43.915       -1.879      174.639       99.673       70.501    30498.704     9934.686     4970.322        6.176        2.270      279.516       75.852        0.074      333.564        2.960      851.063
12/31/2021  01:55:00     -341.342       13.478      -23.636      314.891      142.745      103.996    99156.617    20376.058    10815.260       12.378        6.517      341.608      109.577        0.103      333.573        2.974      851.060
12/31/2021  01:56:00     -278.150       50.808       -2.738      236.555      136.322      103.030    55958.348    18583.657    10615.271        8.254        4.258      282.752       95.690        0.115      333.570        2.969      851.088
12/31/2021  01:57:00     -426.854      135.684       -3.835      274.157      208.207      113.898    75161.977    43350.142    12972.741       16.603        6.574      447.900      108.373        0.059      333.550        2.935      851.114
12/31/2021  01:58:00     -359.804       78.819       11.792      225.979      130.372      100.436    51066.578    16996.870    10087.445       10.697        3.908      368.335       97.994        0.071      333.570        2.969      851.088
12/31/2021  01:59:00     -415.007       66.512      -19.106      317.541      146.029      115.948   100832.504    21324.436    13443.823       15.629        6.780      420.303      122.273        0.085      333.565        2.961      851.102
12/31/2021  02:00:00     -337.814      169.626        4.079      214.992      159.694       99.034    46221.721    25502.098     9807.679       11.220        4.077      378.009       88.253        0.055      333.553        2.940      851.131
12/31/2021  02:01:00     -241.677       27.079      -26.033      223.535      150.017      108.473    49967.737    22505.156    11766.440        7.201        4.212      243.189       79.657        0.107      333.568        2.966      851.145
12/31/2021  02:02:00     -210.864       18.717        0.366      235.565      133.514       96.624    55490.677    17825.944     9336.196        6.372        4.133      211.693       84.761        0.160      333.561        2.954      851.186
12/31/2021  02:03:00     -411.513      154.682       -5.637      228.795      155.475       87.812    52347.103    24172.428     7711.018       13.875        4.212      439.624       74.207        0.028      333.527        2.896      851.191
12/31/2021  02:04:00     -416.088       68.834      -10.369      253.072      131.090      109.517    64045.481    17184.675    11994.007       13.558        4.661      421.744      115.822        0.075      333.538        2.914      851.176
12/31/2021  02:05:00     -334.509       93.020       -6.958      182.997      143.283       76.046    33487.750    20529.924     5783.009        9.019        2.990      347.202       70.571        0.041      333.520        2.887      851.220
12/31/2021  02:06:00     -318.136       93.909       -6.032      121.529      106.256       68.597    14769.241    11290.375     4705.610        7.041        1.538      331.707       65.835        0.039      333.512        2.873      851.203
12/31/2021  02:07:00     -151.183       41.912        7.711      163.267      132.124       91.607    26656.145    17456.680     8391.840        3.858        2.625      156.885       92.415        0.347      333.508        2.867      851.186
12/31/2021  02:08:00     -211.070       83.022       -5.820      211.737      153.483       85.837    44832.740    23556.977     7368.026        6.360        3.788      226.811       83.392        0.135      333.504        2.859      851.172
12/31/2021  02:09:00     -454.833      112.900      -10.889      283.942      182.559      113.393    80623.303    33327.839    12857.864       17.325        6.340      468.636      100.551        0.046      333.511        2.870      851.134
12/31/2021  02:10:00     -257.162       71.956       12.990      182.310      127.597       81.181    33237.078    16281.078     6590.351        6.378        2.805      267.039       84.233        0.099      333.511        2.872      851.138
12/31/2021  02:11:00     -273.786       92.312        9.668      188.477      154.895       90.535    35523.727    23992.578     8196.648        7.563        3.386      288.929       87.791        0.092      333.515        2.878      851.113
12/31/2021  02:12:00     -428.027      168.290      -10.568      232.701      137.293       95.289    54149.714    18849.261     9080.000       14.684        4.104      459.923       97.271        0.045      333.487        2.829      851.122
12/31/2021  02:13:00     -467.930       80.565        1.411      257.917      138.766       99.466    66521.324    19256.056     9893.401       16.054        4.784      474.815      108.726        0.052      333.480        2.818      851.093
12/31/2021  02:14:00     -454.026       98.533        7.278      254.596      141.457      102.537    64819.162    20009.991    10513.847       15.560        4.767      464.595      111.838        0.058      333.482        2.822      851.068
12/31/2021  02:15:00     -311.566       51.595        5.140      176.120      137.700       83.977    31018.107    18961.394     7052.175        7.839        2.852      315.809       83.980        0.071      333.482        2.823      851.072
12/31/2021  02:16:00     -266.478       66.466       -4.483      183.786      116.049       69.989    33777.201    13467.281     4898.481        6.379        2.607      274.642       65.076        0.056      333.475        2.812      851.060
12/31/2021  02:17:00     -274.591       44.243       -2.220      199.755       97.222       80.860    39902.142     9452.030     6538.394        6.662        2.795      278.132       86.260        0.096      333.475        2.811      851.041
12/31/2021  02:18:00     -362.232       65.853      -21.471      207.076      123.451       75.246    42880.266    15240.239     5661.999        9.988        3.189      368.169       53.534        0.021      333.479        2.817      851.042
12/31/2021  02:19:00     -306.877       42.806       13.458      237.774      144.860       91.641    56536.386    20984.424     8398.099        9.104        4.296      309.848      102.029        0.108      333.476        2.814      851.022
12/31/2021  02:20:00     -374.362       65.395       -8.169      283.576      160.840       99.515    80415.238    25869.593     9903.248       13.032        5.809      380.031      118.165        0.097      333.469        2.800      851.005
12/31/2021  02:21:00     -375.316      129.057       16.685      192.067      137.735       89.140    36889.678    18970.908     7945.869       11.079        3.190      396.885       87.391        0.048      333.455        2.778      850.995
12/31/2021  02:22:00     -286.142      112.683      -12.651      297.417      184.207      112.517    88457.049    33932.214    12660.156       11.487        6.752      307.530      122.354        0.158      333.491        2.837      850.961
12/31/2021  02:23:00     -318.608      104.991        5.854      298.590      161.361      105.018    89156.061    26037.234    11028.786       11.937        6.311      335.461       89.200        0.071      333.477        2.815      850.987
12/31/2021  02:24:00     -178.428       45.488      -23.511      220.747      148.407      103.810    48729.044    22024.737    10776.473        5.798        4.077      184.135       88.913        0.233      333.490        2.835      850.976
12/31/2021  02:25:00     -199.823       84.788       -3.958      215.527      130.831       81.752    46452.093    17116.770     6683.438        5.868        3.513      217.067       81.731        0.142      333.500        2.852      850.961
12/31/2021  02:26:00     -204.922       65.355      -10.336      194.701      121.234       85.531    37908.336    14697.652     7315.507        5.314        2.996      215.091       74.583        0.120      333.500        2.851      850.932
12/31/2021  02:27:00     -192.982       35.903       -4.333      226.546      142.070       77.813    51323.070    20183.893     6054.836        5.804        3.878      196.293       59.690        0.092      333.488        2.835      850.907
12/31/2021  02:28:00     -433.225      139.653       -1.615      196.584      165.900       95.716    38645.128    27522.698     9161.461       14.125        3.766      455.178      105.534        0.054      333.456        2.779      850.944
12/31/2021  02:29:00     -418.834       98.927       23.431      293.437      183.547      109.067    86105.373    33689.369    11895.599       15.870        6.585      430.358      125.733        0.085      333.468        2.798      850.919
12/31/2021  02:30:00     -491.641      101.001      -20.607      310.137      163.777      125.374    96185.249    26822.804    15718.560       19.551        6.936      501.908      141.295        0.079      333.474        2.810      850.894
12/31/2021  02:31:00     -469.746       88.068        7.270      285.565      179.466      102.455    81547.257    32208.018    10497.110       17.634        6.213      477.930      116.680        0.060      333.491        2.836      850.885
12/31/2021  02:32:00     -384.149       75.885      -13.706      227.015      153.215      105.765    51535.611    23474.776    11186.278       11.984        4.310      391.573      102.797        0.069      333.469        2.800      850.900
12/31/2021  02:33:00     -402.780      131.537       -1.519      220.206      166.442       98.682    48490.671    27702.791     9738.118       13.272        4.297      423.714      102.581        0.059      333.477        2.815      850.917
12/31/2021  02:34:00     -335.421       77.396       -8.301      276.325      152.854       98.187    76355.550    23364.310     9640.635       11.394        5.468      344.234       98.677        0.082      333.483        2.824      850.931
12/31/2021  02:35:00     -341.908      141.669       -0.503      213.296      177.427      109.152    45495.181    31480.514    11914.220       11.291        4.444      370.096      105.080        0.081      333.496        2.844      850.914
12/31/2021  02:36:00     -464.856      116.470        4.789      350.944      209.942      123.097   123161.962    44075.561    15152.885       20.600        9.120      479.225      136.548        0.081      333.499        2.851      850.890
12/31/2021  02:37:00     -573.417      141.804      -19.995      374.457      231.876      124.681   140218.156    53766.499    15545.274       27.938       10.476      590.691      124.007        0.044      333.480        2.819      850.877
12/31/2021  02:38:00     -338.506      174.329       -8.937      177.741      129.946      101.919    31591.902    16885.854    10387.420       10.195        2.943      380.758       89.554        0.055      333.476        2.814      850.929
12/31/2021  02:39:00     -239.332      132.354       15.082      214.430       98.111       92.651    45980.033     9625.687     8584.118        6.960        3.209      273.491      103.588        0.143      333.464        2.793      850.915
12/31/2021  02:40:00     -287.499      136.004       -2.251      167.958      108.669       85.327    28210.021    11808.945     7280.634        7.422        2.365      318.045       69.158        0.047      333.433        2.741      850.914
12/31/2021  02:41:00     -407.746      124.024      -16.539      240.299      162.030       89.985    57743.431    26253.666     8097.371       13.699        4.605      426.191       97.723        0.053      333.447        2.765      850.889
12/31/2021  02:42:00     -503.709      182.266      -15.697      245.833      161.887      129.870    60434.031    26207.388    16866.163       19.533        5.175      535.671      133.606        0.062      333.455        2.778      850.821
12/31/2021  02:43:00     -343.419       53.474      -12.268      245.077      155.835      110.370    60062.719    24284.488    12181.591       10.872        4.826      347.557      102.077        0.086      333.454        2.776      850.803
12/31/2021  02:44:00     -481.697      109.299      -25.547      265.294      142.170       96.423    70381.052    20212.239     9297.357       17.224        4.995      493.942      115.183        0.054      333.458        2.783      850.799
12/31/2021  02:45:00     -354.650      116.657        0.668      348.025      176.705      125.467   121121.293    31224.673    15741.852       15.371        8.404      373.343      129.136        0.120      333.465        2.794      850.782
12/31/2021  02:46:00     -262.384       92.554       -4.317      337.721      149.921       92.893   114055.195    22476.378     8629.118       11.127        7.258      278.229       95.011        0.117      333.483        2.824      850.747
12/31/2021  02:47:00     -422.122      125.748       28.484      304.008      187.093      109.906    92420.856    35003.921    12079.422       16.713        6.975      440.454       98.427        0.050      333.463        2.791      850.749
12/31/2021  02:48:00     -377.042      151.257      -14.674      222.928      161.375      108.405    49696.960    26041.850    11751.550       12.636        4.375      406.250       95.358        0.055      333.478        2.814      850.751
12/31/2021  02:49:00     -413.540       -4.213      -26.612      327.486      150.232      122.567   107246.953    22569.772    15022.749       15.826        7.242      413.562      137.786        0.111      333.470        2.803      850.751
12/31/2021  02:50:00     -403.944       69.647      -18.078      217.106      151.000      121.191    47134.898    22800.861    14687.217       12.647        4.231      409.905       95.922        0.055      333.464        2.791      850.737
12/31/2021  02:51:00     -502.699       49.029      -26.253      323.132      175.549      100.533   104414.265    30817.409    10106.802       20.054        7.267      505.085      112.899        0.050      333.469        2.800      850.703
12/31/2021  02:52:00     -368.357       99.613      -13.329      264.057      173.976      114.859    69726.293    30267.774    13192.567       12.947        5.659      381.589      108.552        0.081      333.470        2.803      850.716
12/31/2021  02:53:00     -445.185      100.819      -19.081      247.770      205.857      118.692    61390.129    42377.008    14087.896       16.327        5.893      456.459      116.091        0.065      333.472        2.805      850.724
12/31/2021  02:54:00     -393.297       60.508       -8.669      300.421      251.798      142.374    90252.982    63402.093    20270.357       16.614        8.696      397.924      143.173        0.129      333.498        2.850      850.701
12/31/2021  02:55:00     -292.579       72.303      -16.316      268.575      159.116      118.775    72132.692    25318.041    14107.521       10.131        5.578      301.380      112.185        0.139      333.539        2.917      850.692
12/31/2021  02:56:00     -288.105       12.020       -2.732      282.782      161.116      116.878    79965.412    25958.508    13660.567       10.135        5.979      288.356      130.018        0.203      333.524        2.893      850.739
12/31/2021  02:57:00     -397.457       80.972       -6.232      317.996      198.408      122.160   101121.552    39365.592    14923.150       15.996        7.771      405.621      122.188        0.091      333.513        2.874      850.719
12/31/2021  02:58:00     -312.640      121.956       18.506      219.631      166.372      105.329    48237.856    27679.479    11094.172        9.997        4.351      335.584      105.339        0.099      333.502        2.854      850.706
12/31/2021  02:59:00     -287.948       61.535      -18.461      272.631      180.570      117.765    74327.707    32605.419    13868.612       10.390        6.040      294.450      107.439        0.133      333.514        2.876      850.660
12/31/2021  03:00:00     -294.053       35.082      -33.828      315.375      241.289      142.663    99461.521    58220.486    20352.699       13.341        8.902      296.138       91.189        0.095      333.509        2.869      850.665
12/31/2021  03:01:00     -460.673       35.249      -23.635      232.273      184.776      109.696    53950.729    34142.294    12033.282       15.706        5.006      462.020       74.813        0.026      333.521        2.886      850.716
12/31/2021  03:02:00     -543.389      170.916      -45.726      210.707      215.235      122.155    44397.565    46326.143    14921.913       21.609        5.282      569.635       98.552        0.030      333.480        2.817      850.711
12/31/2021  03:03:00     -240.401      -74.015      -36.104      364.853      204.346      165.138   133117.576    41757.479    27270.667       13.332       10.107      251.537      160.026        0.405      333.486        2.828      850.695
12/31/2021  03:04:00     -242.179       48.751       -9.245      233.831      172.489      122.401    54676.742    29752.432    14981.946        8.024        4.971      247.037      109.253        0.196      333.489        2.834      850.702
12/31/2021  03:05:00     -477.517       65.349       13.660      326.087      203.772      122.450   106332.998    41522.919    14994.119       19.764        8.143      481.968      130.105        0.073      333.465        2.793      850.696
12/31/2021  03:06:00     -558.643      127.813       -4.190      287.910      197.510      121.631    82891.997    39010.310    14794.133       23.254        6.835      573.078      117.897        0.042      333.460        2.786      850.714
12/31/2021  03:07:00     -465.709       53.594      -43.368      285.547      140.061      105.484    81536.834    19617.009    11126.960       16.694        5.614      468.782      118.930        0.064      333.472        2.804      850.703
12/31/2021  03:08:00     -219.216       29.250      -19.079      232.962      143.991      107.408    54271.104    20733.292    11536.374        6.789        4.327      221.158       90.575        0.168      333.478        2.817      850.703
12/31/2021  03:09:00     -294.793      -39.449       -2.029      306.076      179.134      128.196    93682.486    32089.158    16434.276       11.531        7.110      297.421      132.076        0.197      333.480        2.818      850.650
12/31/2021  03:10:00     -291.623       54.700      -41.550      281.540      158.765      106.879    79264.499    25206.394    11423.068       10.281        5.795      296.708      122.435        0.170      333.501        2.854      850.648
12/31/2021  03:11:00     -444.534       52.627      -33.421      308.168      202.564      133.337    94967.745    41032.344    17778.655       17.761        7.689      447.639      105.610        0.056      333.504        2.859      850.639
12/31/2021  03:12:00     -270.693       11.938      -14.290      227.991      153.482       91.114    51979.799    23556.842     8301.762        7.871        4.192      270.956       74.150        0.075      333.496        2.847      850.599
12/31/2021  03:13:00     -286.210       18.327      -10.068      277.121      183.959      131.918    76796.078    33840.922    17402.425       10.517        6.402      286.796      113.019        0.155      333.473        2.808      850.601
12/31/2021  03:14:00     -382.547       65.241      -14.654      314.534      180.422      131.230    98931.619    32552.224    17221.334       14.973        7.435      388.071      113.282        0.085      333.468        2.798      850.614
12/31/2021  03:15:00     -246.768      -17.771      -17.086      275.121      167.847      154.673    75691.520    28172.750    23923.753        9.462        6.389      247.407      151.670        0.376      333.465        2.795      850.589
12/31/2021  03:16:00     -277.403       17.621       -6.266      221.833      149.860      110.138    49210.048    22457.887    12130.399        8.053        4.190      277.962      100.582        0.131      333.443        2.758      850.637
12/31/2021  03:17:00     -332.645      -17.515      -14.369      251.391      180.358      119.929    63197.420    32528.988    14382.887       11.062        5.505      333.106       97.132        0.085      333.438        2.749      850.600
12/31/2021  03:18:00     -334.607       72.185        0.069      207.774      155.119      101.651    43170.071    24061.868    10332.953        9.735        3.878      342.305       92.693        0.073      333.409        2.703      850.610
12/31/2021  03:19:00     -332.920       -1.455      -32.988      320.250      186.648      151.660   102560.292    34837.510    23000.821       13.613        8.020      332.924      145.274        0.190      333.412        2.707      850.586
12/31/2021  03:20:00     -382.114      -70.520       -6.481      294.810      184.580      154.890    86913.137    34069.607    23991.061       14.797        7.249      388.567      146.073        0.141      333.429        2.734      850.582
12/31/2021  03:21:00     -282.977       26.107       -6.928      340.406      223.797      163.208   115875.944    50085.138    26636.998       13.667        9.630      284.179      150.796        0.282      333.412        2.706      850.535
12/31/2021  03:22:00     -651.789       21.925      -19.219      359.218      188.975      145.604   129037.292    35711.560    21200.568       30.578        9.297      652.158      142.596        0.048      333.390        2.672      850.507
12/31/2021  03:23:00     -492.897       73.484      -29.638      238.966      189.919      120.668    57104.585    36069.387    14560.829       17.846        5.387      498.345      100.594        0.041      333.389        2.670      850.536
12/31/2021  03:24:00     -411.802      -45.095      -38.666      330.650      195.581      146.695   109329.326    38252.030    21519.429       17.107        8.455      414.263      170.140        0.169      333.394        2.679      850.511
12/31/2021  03:25:00     -371.982       67.367        9.329      302.953      203.277      104.823    91780.230    41321.716    10987.905       14.352        7.204      378.033      106.917        0.080      333.379        2.654      850.510
12/31/2021  03:26:00     -485.624       57.385      -20.812      383.033      208.670      149.424   146714.409    43543.252    22327.396       22.603       10.629      489.003      161.650        0.109      333.375        2.646      850.487
12/31/2021  03:27:00     -324.684        2.623        1.113      312.028      182.972      160.520    97361.655    33478.870    25766.710       13.099        7.830      324.694      172.656        0.283      333.383        2.661      850.463
12/31/2021  03:28:00     -418.624      112.049      -26.167      289.175      268.097      126.539    83622.145    71876.148    16012.229       17.997        8.576      433.360      113.108        0.068      333.384        2.661      850.462
12/31/2021  03:29:00     -426.657       72.444        6.878      298.060      249.252      141.438    88839.478    62126.806    20004.619       17.912        8.549      432.764      143.691        0.110      333.389        2.669      850.449
12/31/2021  03:30:00     -308.051       74.250        3.381      278.013      243.093      116.211    77291.041    59094.225    13504.943       12.513        7.495      316.873      126.879        0.160      333.373        2.642      850.458
12/31/2021  03:31:00     -471.610       -5.249      -11.817      309.954      239.548      148.307    96071.377    57383.128    21995.075       19.898        8.772      471.639      146.226        0.096      333.378        2.650      850.398
12/31/2021  03:32:00     -313.502       -6.768        3.951      297.643      181.304      125.659    88591.118    32871.289    15790.224       11.777        6.863      313.575      104.325        0.111      333.371        2.642      850.401
12/31/2021  03:33:00     -267.815       82.192       -8.354      249.147      182.438       98.530    62074.024    33283.624     9708.259        9.179        5.253      280.143       86.904        0.096      333.336        2.583      850.414
12/31/2021  03:34:00     -374.915      -33.455       -4.556      350.114      219.542      141.361   122580.035    48198.631    19983.047       16.620        9.538      376.404      144.077        0.147      333.327        2.568      850.369
12/31/2021  03:35:00     -429.173       11.842      -37.987      369.195      240.170      179.359   136304.710    57681.656    32169.700       20.592       11.308      429.336      176.810        0.170      333.330        2.572      850.271
12/31/2021  03:36:00     -353.176      -16.857      -16.589      341.959      200.088      153.439   116935.633    40035.351    23543.457       15.287        9.026      353.578      157.214        0.198      333.313        2.544      850.215
12/31/2021  03:37:00     -516.531       50.492        3.775      358.818      247.787      177.357   128750.124    61398.342    31455.460       24.545       11.080      518.993      188.705        0.132      333.298        2.519      850.127
12/31/2021  03:38:00     -470.371      -72.720      -21.171      295.219      203.735      148.178    87154.500    41508.110    21956.708       18.877        7.531      475.960      144.565        0.092      333.323        2.560      850.068
12/31/2021  03:39:00     -572.021       10.801       -5.774      395.457      229.150      168.375   156385.869    52509.769    28349.996       28.226       11.862      572.123      175.279        0.094      333.287        2.502      849.993
12/31/2021  03:40:00     -560.048      -51.094      -50.301      293.096      218.730      130.315    85905.497    47842.942    16981.975       23.473        7.537      562.374      144.554        0.066      333.305        2.532      849.981
12/31/2021  03:41:00     -423.763       30.148       -0.741      228.832      174.043      121.699    52364.128    30291.012    14810.574       13.896        4.873      424.834      117.789        0.077      333.284        2.495      849.997
12/31/2021  03:42:00     -610.305      -30.253      -36.850      300.828      273.340      136.981    90497.198    74714.760    18763.924       27.933        9.199      611.055      128.495        0.044      333.277        2.483      849.965
12/31/2021  03:43:00     -541.719      115.256      -55.679      395.553      252.134      143.073   156462.016    63571.715    20469.913       27.513       12.025      553.844      127.997        0.053      333.262        2.458      849.973
12/31/2021  03:44:00     -629.231       29.007      -29.212      312.763      195.562      140.405    97820.443    38244.460    19713.424       27.667        7.789      629.899      147.615        0.055      333.273        2.476      849.982
12/31/2021  03:45:00     -485.259       86.792      -16.066      356.008      208.121      120.904   126741.369    43314.299    14617.870       21.394        9.234      492.959      116.978        0.056      333.264        2.463      849.999
12/31/2021  03:46:00     -474.776      -19.150      -34.260      388.082      186.258      132.445   150607.730    34692.224    17541.633       21.486       10.142      475.162      121.008        0.065      333.263        2.460      850.039
12/31/2021  03:47:00     -709.360       81.025      -12.649      366.449      241.129      152.785   134284.993    58143.247    23343.264       36.280       10.789      713.973      155.326        0.047      333.276        2.481      850.007
12/31/2021  03:48:00     -543.222       56.102      -28.795      359.070      237.334      144.133   128931.108    56327.333    20774.289       25.251       10.302      546.112      131.868        0.058      333.297        2.517      849.961
12/31/2021  03:49:00     -675.910       -0.956      -33.961      366.674      291.000      148.808   134449.732    84681.250    22143.917       34.960       12.064      675.911      150.436        0.050      333.273        2.476      849.982
12/31/2021  03:50:00     -458.060        0.109      -51.128      339.794      202.062      123.702   115459.733    40829.132    15302.177       19.198        8.580      458.060      141.178        0.095      333.267        2.467      849.995
12/31/2021  03:51:00     -385.025       34.509      -16.950      313.222      194.442      126.235    98108.064    37807.498    15935.366       15.076        7.593      386.568      150.410        0.151      333.213        2.377      849.973
12/31/2021  03:52:00     -594.012       80.265       -2.374      358.624      276.671      137.912   128611.067    76546.833    19019.832       29.170       11.209      599.410      157.737        0.069      333.206        2.366      849.948
12/31/2021  03:53:00     -400.265       -3.415      -13.036      323.955      188.879      132.936   104946.963    35675.159    17672.047       15.931        7.915      400.280      149.927        0.140      333.214        2.379      849.946
12/31/2021  03:54:00     -572.035      114.488       -8.041      354.435      264.983      161.805   125624.499    70216.051    26180.982       28.117       11.101      583.380      185.116        0.101      333.173        2.311      849.957
12/31/2021  03:55:00     -515.370        1.607      -13.325      417.433      212.628      143.467   174250.431    45210.746    20582.759       25.287       12.002      515.373      158.615        0.095      333.185        2.332      849.931
12/31/2021  03:56:00     -557.033      -88.093      -38.229      439.598      215.143      179.730   193246.590    46286.396    32302.784       29.562       13.592      563.956      154.365        0.075      333.201        2.358      849.944
12/31/2021  03:57:00     -343.343      -39.568      -18.932      305.604      207.266      129.057    93393.887    42959.157    16655.756       13.638        7.650      345.615      133.025        0.148      333.192        2.343      849.974
12/31/2021  03:58:00     -381.931      -65.411      -32.549      305.743      178.739      128.993    93478.637    31947.741    16639.204       14.661        7.103      387.492      123.303        0.101      333.213        2.378      850.022
12/31/2021  03:59:00     -301.284       38.754       18.363      245.135      200.275      111.519    60091.041    40110.108    12436.480       10.260        5.632      303.766      108.216        0.127      333.198        2.352      850.043
12/31/2021  04:00:00     -536.534      163.356      -18.945      396.815      255.432      131.171   157462.094    65245.434    17205.957       27.737       11.996      560.851      154.801        0.076      333.198        2.354      850.055
12/31/2021  04:01:00     -363.581      106.980      -35.036      293.262      203.987      120.351    86002.460    41610.826    14484.265       14.345        7.105      378.993      140.179        0.137      333.186        2.334      850.070
12/31/2021  04:02:00     -214.576       -6.381      -14.867      269.821      199.228      135.529    72803.374    39691.943    18368.016        8.856        6.543      214.671      117.575        0.300      333.205        2.365      850.103
12/31/2021  04:03:00     -225.389      127.418      -15.651      239.135      174.071       90.855    57185.550    30300.775     8254.625        8.149        4.787      258.912       87.431        0.114      333.158        2.287      850.103
12/31/2021  04:04:00     -193.056       25.083       11.151      233.891      142.078      107.763    54705.205    20186.251    11612.815        6.225        4.325      194.679       92.819        0.227      333.145        2.266      850.071
12/31/2021  04:05:00     -263.838      101.487       -1.568      197.756      177.984       90.057    39107.326    31678.443     8110.345        7.939        3.945      282.684       82.036        0.084      333.143        2.262      850.115
12/31/2021  04:06:00     -301.012        9.774      -13.015      239.196      181.835      112.640    57214.831    33064.116    12687.876        9.690        5.148      301.171      110.200        0.134      333.188        2.335      850.103
12/31/2021  04:07:00     -177.356       93.256       -9.274      229.920      109.627       70.202    52863.076    12017.994     4928.347        5.501        3.490      200.379       69.329        0.120      333.172        2.312      850.136
12/31/2021  04:08:00     -264.694       50.945      -23.626      181.710      136.761       93.949    33018.505    18703.685     8826.333        6.687        3.027      269.553       76.522        0.081      333.149        2.272      850.178
12/31/2021  04:09:00     -322.535      129.874       -1.301      242.058      174.212       99.189    58592.184    30349.900     9838.405       10.982        4.939      347.701      109.495        0.099      333.132        2.244      850.215
12/31/2021  04:10:00     -349.601       71.461      -19.278      249.613      131.273       80.360    62306.780    17232.701     6457.735       10.683        4.300      356.830       78.763        0.049      333.131        2.242      850.220
12/31/2021  04:11:00     -195.089       38.196        6.326      148.077      110.677       66.979    21926.874    12249.468     4486.224        3.910        1.933      198.794       55.823        0.079      333.111        2.212      850.269
12/31/2021  04:12:00     -126.485      133.561      -19.556      104.627      117.616       93.778    10946.853    13833.461     8794.318        3.389        1.679      183.949       62.261        0.115      333.123        2.230      850.286
12/31/2021  04:13:00     -354.875      139.788      -31.324      201.372      103.345       80.872    40550.764    10680.211     6540.222       10.210        2.889      381.414       95.929        0.063      333.073        2.148      850.279
12/31/2021  04:14:00     -205.598       96.232       -6.543      161.577      132.312       79.612    26107.187    17506.594     6338.077        5.075        2.498      227.005       71.052        0.098      333.043        2.098      850.280
12/31/2021  04:15:00     -142.041       18.481       12.780      188.891      163.496       90.748    35679.962    26730.901     8235.266        4.565        3.532      143.238       96.375        0.453      333.058        2.122      850.271
12/31/2021  04:16:00      -61.497       15.121        5.895      157.577      118.170       73.054    24830.503    13964.235     5336.926        2.408        2.207       63.328       72.833        1.323      333.064        2.134      850.292
12/31/2021  04:17:00     -190.600       77.415      -28.893      147.723       97.036       65.724    21822.184     9415.921     4319.643        3.935        1.778      205.722       71.095        0.119      333.052        2.112      850.280
12/31/2021  04:18:00     -192.938       72.908       -2.501      165.328      107.506       58.779    27333.296    11557.555     3454.962        4.244        2.117      206.254       59.740        0.084      333.023        2.065      850.296
12/31/2021  04:19:00     -328.615      137.134      -25.611      171.851      149.600       76.277    29532.883    22380.132     5818.133        9.258        2.887      356.081       73.571        0.043      333.082        2.161      850.329
12/31/2021  04:20:00     -583.352      150.549      -33.687      279.909      179.826      106.429    78349.322    32337.220    11327.127       24.303        6.101      602.465       70.272        0.014      333.152        2.277      850.315
12/31/2021  04:21:00     -166.660       52.222      -36.735      160.604      127.568       73.265    25793.540    16273.517     5367.830        3.963        2.372      174.650       72.512        0.172      333.128        2.240      850.378
12/31/2021  04:22:00      -49.241       97.842      -16.307       75.983       71.984       51.674     5773.483     5181.671     2670.179        1.294        0.681      109.534       34.850        0.101      333.100        2.195      850.371
12/31/2021  04:23:00     -104.353      125.535      -16.655       84.171      113.398       54.554     7084.801    12859.059     2976.191        2.492        1.146      163.244       41.830        0.066      333.068        2.140      850.341
12/31/2021  04:24:00     -281.176      157.571      -19.833      206.810      126.962       83.830    42770.411    16119.345     7027.407        8.509        3.296      322.317       81.409        0.064      333.033        2.080      850.370
12/31/2021  04:25:00     -209.155      118.048      -36.629      136.804       81.962       55.969    18715.437     6717.843     3132.551        4.379        1.428      240.169       58.683        0.060      333.025        2.067      850.322
12/31/2021  04:26:00     -192.389       70.062      -30.308      190.740      100.741       79.845    36381.891    10148.782     6375.175        4.786        2.645      204.749       75.353        0.135      332.987        2.005      850.334
12/31/2021  04:27:00      -84.401      262.544      -32.018       84.784      103.476       56.956     7188.377    10707.327     3243.937        4.910        1.057      275.777       43.413        0.025      332.931        1.911      850.321
12/31/2021  04:28:00     -135.336       93.225      -38.366       99.371       89.120       45.308     9874.520     7942.424     2052.799        2.417        0.993      164.337       17.749        0.012      332.878        1.827      850.265
12/31/2021  04:29:00     -112.248      115.005      -26.499      135.160       90.858       62.271    18268.229     8255.203     3877.688        2.846        1.520      160.704       57.332        0.127      332.819        1.729      850.221
12/31/2021  04:30:00      -48.196      247.045      -30.937      113.454      141.669       49.407    12871.769    20070.113     2441.024        4.984        1.769      251.703       26.716        0.011      332.907        1.871      850.224
12/31/2021  04:31:00     -100.518      214.728      -39.974      116.922      126.268       59.385    13670.647    15943.594     3526.545        4.547        1.657      237.091       46.841        0.039      332.899        1.860      850.275
12/31/2021  04:32:00      -60.858      363.195      -36.540       89.402       99.391       61.681     7992.796     9878.498     3804.531        7.931        1.084      368.258       38.740        0.011      332.851        1.778      850.305
12/31/2021  04:33:00       75.131      355.209      -49.704      106.244      103.081       64.269    11287.838    10625.629     4130.454        8.016        1.302      363.067       51.166        0.020      332.887        1.837      850.236
12/31/2021  04:34:00       35.211      299.055      -29.068      164.919      124.521       67.612    27198.290    15505.531     4571.449        6.939        2.364      301.121       68.251        0.051      332.845        1.769      850.148
12/31/2021  04:35:00     -107.645      346.833      -38.212      121.378      123.126       67.750    14732.711    15160.042     4590.081        8.391        1.724      363.154       51.083        0.020      332.751        1.613      850.288
12/31/2021  04:36:00      -81.620      222.434      -35.914      103.778      101.069       52.988    10769.778    10214.879     2807.718        4.061        1.190      236.936       32.002        0.018      332.689        1.512      850.264
12/31/2021  04:37:00      -51.751      255.698      -15.871       65.266       97.937       46.368     4259.591     9591.727     2149.976        4.215        0.800      260.882       35.892        0.019      332.682        1.499      850.300
12/31/2021  04:38:00       -8.266      285.652      -33.732       94.902       95.990       51.931     9006.455     9214.149     2696.781        5.186        1.046      285.771       40.144        0.020      332.637        1.425      850.315
12/31/2021  04:39:00      -22.465      328.925      -26.081       92.125      115.708       50.604     8486.976    13388.323     2560.752        6.690        1.222      329.691       39.473        0.014      332.608        1.377      850.301
12/31/2021  04:40:00      -37.948      328.777      -27.601       85.192      110.720       55.565     7257.610    12258.906     3087.432        6.645        1.130      330.960       55.268        0.028      332.599        1.362      850.322
12/31/2021  04:41:00      -50.422      265.122      -11.878      127.239       90.506       62.839    16189.740     8191.403     3948.703        5.065        1.416      269.874       57.643        0.046      332.625        1.406      850.377
12/31/2021  04:42:00      -72.248      314.058      -31.253       81.002       94.065       47.498     6561.373     8848.142     2256.087        6.124        0.883      322.262       33.762        0.011      332.579        1.329      850.444
12/31/2021  04:43:00       13.823      315.320      -12.381       97.170       95.679       50.138     9442.042     9154.469     2513.815        6.044        1.056      315.623       45.967        0.021      332.520        1.233      850.385
12/31/2021  04:44:00      -51.992      319.730      -29.718       77.824      113.516       46.001     6056.509    12885.886     2116.078        6.343        1.053      323.929       44.241        0.019      332.477        1.162      850.408
12/31/2021  04:45:00      -39.734      202.449      -20.403      105.626       99.208       49.940    11156.762     9842.144     2493.981        3.323        1.175      206.311       32.427        0.025      332.429        1.084      850.415
12/31/2021  04:46:00      -81.073      300.554       -8.707      159.828      153.268       82.662    25545.122    23490.982     6833.051        7.642        2.793      311.297       75.359        0.059      332.304        0.876      850.416
12/31/2021  04:47:00      -30.712      378.721      -41.304      121.702      143.252       67.631    14811.281    20521.249     4573.937        9.299        1.995      379.964       69.287        0.033      332.318        0.901      850.373
12/31/2021  04:48:00      -18.349      406.633      -36.019      112.735      105.764       69.145    12709.258    11186.055     4781.094        9.783        1.434      407.047       57.730        0.020      332.344        0.944      850.328
12/31/2021  04:49:00      -69.101      185.828      -23.997      114.240       90.336       42.326    13050.712     8160.554     1791.527        3.144        1.150      198.260       41.199        0.043      332.327        0.916      850.356
12/31/2021  04:50:00        1.097       84.499      -22.799      126.981      125.010       52.215    16124.151    15627.528     2726.422        2.106        1.724       84.507       55.101        0.425      332.313        0.894      850.377
12/31/2021  04:51:00      -22.438      228.052      -15.654       90.893       82.365       55.969     8261.599     6783.976     3132.549        3.546        0.909      229.153       37.070        0.026      332.278        0.833      850.390
12/31/2021  04:52:00       17.358      255.300      -18.771      103.734      166.826       81.010    10760.682    27830.919     6562.574        5.548        2.258      255.890       78.763        0.095      332.273        0.826      850.267
12/31/2021  04:53:00      -25.785      285.243      -22.635      147.019      143.587       74.263    21614.543    20617.258     5515.030        6.513        2.387      286.406       59.174        0.043      332.203        0.710      850.245
12/31/2021  04:54:00        4.690      376.187      -32.357      148.724      164.555       86.892    22118.813    27078.459     7550.162        9.966        2.837      376.217       60.743        0.026      332.277        0.832      850.232
12/31/2021  04:55:00      -83.895      383.874      -39.533      119.155      121.012       76.422    14197.855    14643.994     5840.334        9.532        1.734      392.935       63.766        0.026      332.351        0.954      850.281
12/31/2021  04:56:00      -71.323      362.251      -40.311      107.765      126.035       70.717    11613.255    15884.908     5000.922        8.521        1.625      369.206       63.157        0.029      332.234        0.761      850.288
12/31/2021  04:57:00      -59.504      394.891      -33.230      125.049      165.760       74.692    15637.324    27476.330     5578.888       10.463        2.435      399.349       64.693        0.026      332.323        0.908      850.328
12/31/2021  04:58:00      -49.672      262.972      -19.547       82.925       91.184       48.327     6876.593     8314.578     2335.467        4.476        0.876      267.622       39.070        0.021      332.289        0.851      850.350
12/31/2021  04:59:00      -60.174      298.123      -25.167       98.395      133.667       64.441     9681.655    17866.891     4152.618        6.241        1.585      304.135       49.115        0.026      332.196        0.699      850.317
12/31/2021  05:00:00     -118.650      269.777      -25.353      107.905       89.258       54.558    11643.453     7966.932     2976.563        5.504        1.129      294.716       16.821        0.003      332.093        0.529      850.302
12/31/2021  05:01:00     -110.691      350.705      -36.356      114.324      139.726       62.744    13069.917    19523.262     3936.757        8.654        1.826      367.758       51.357        0.020      332.016        0.402      850.308
12/31/2021  05:02:00     -106.775      338.192      -40.765      106.563      115.416       57.980    11355.632    13320.887     3361.719        7.773        1.402      354.647       51.936        0.021      331.997        0.371      850.303
12/31/2021  05:03:00     -125.085      234.547      -16.732       85.821      118.731       56.670     7365.229    14097.046     3211.467        4.780        1.234      265.817       47.193        0.032      331.979        0.341      850.287
12/31/2021  05:04:00     -113.877      255.811      -20.063      122.013      106.546       61.168    14887.168    11352.026     3741.465        5.439        1.499      280.013       46.987        0.028      332.001        0.377      850.281
12/31/2021  05:05:00      -97.759      274.653      -25.188      152.213      149.571       79.149    23168.940    22371.404     6264.567        6.871        2.590      291.533       65.365        0.050      331.951        0.295      850.289
12/31/2021  05:06:00      -49.150      321.225      -26.711      109.259      153.371       68.051    11937.486    23522.764     4630.936        7.320        2.005      324.963       59.913        0.034      332.022        0.412      850.193
12/31/2021  05:07:00      -79.708      158.506      -12.497       71.050       95.923       55.733     5048.054     9201.228     3106.162        2.449        0.868      177.419       28.880        0.026      331.997        0.371      850.278
12/31/2021  05:08:00      -96.029      138.845      -23.763      146.798      148.505       77.707    21549.541    22053.617     6038.361        3.934        2.482      168.818       58.701        0.121      331.936        0.269      850.290
12/31/2021  05:09:00      -97.250      277.481      -40.245      137.552      221.494       89.591    18920.684    49059.499     8026.481        8.203        3.800      294.029       65.805        0.050      332.011        0.394      850.293
12/31/2021  05:10:00     -112.922      239.138      -53.672      128.644      144.053       82.735    16549.245    20751.338     6845.060        5.847        2.207      264.459       55.221        0.044      332.022        0.412      850.286
12/31/2021  05:11:00     -205.260      284.872      -73.210      174.382      203.882      100.852    30408.963    41567.966    10171.027       10.538        4.107      351.117       67.477        0.037      331.967        0.321      850.323
12/31/2021  05:12:00     -165.424      215.028      -40.543      164.776      127.655       81.483    27150.984    16295.831     6639.476        6.266        2.504      271.297       36.078        0.018      331.968        0.322      850.264
12/31/2021  05:13:00      -49.950      178.457      -38.385      124.056      136.748       61.996    15389.975    18699.894     3843.450        3.687        1.897      185.315       26.478        0.020      331.966        0.319      850.243
12/31/2021  05:14:00     -141.837      214.800      -49.745      108.947      192.930      104.856    11869.419    37221.885    10994.759        6.440        3.004      257.404       56.765        0.049      331.968        0.322      850.250
12/31/2021  05:15:00     -146.121      184.839      -13.783      196.455      180.595      110.477    38594.417    32614.388    12205.188        6.955        4.171      235.620       95.683        0.165      331.890        0.194      850.260
12/31/2021  05:16:00     -149.734      237.995      -10.503      170.520      140.512      117.597    29076.931    19743.587    13828.970        7.090        3.132      281.180       84.990        0.091      331.924        0.249      850.250
12/31/2021  05:17:00     -184.754      286.617      -42.112      189.134      145.521      100.830    35771.705    21176.390    10166.718        9.257        3.356      341.004       81.154        0.057      331.935        0.268      850.227
12/31/2021  05:18:00     -191.048      259.847      -47.713      181.512      154.000      106.125    32946.598    23716.084    11262.601        8.710        3.396      322.521       95.837        0.088      331.916        0.236      850.226
12/31/2021  05:19:00     -177.854      273.556      -24.265      176.251      139.614      101.957    31064.543    19491.994    10395.197        8.399        3.048      326.290       77.921        0.057      331.983        0.349      850.248
12/31/2021  05:20:00     -137.998      271.068      -62.027      149.810      184.196       85.086    22443.166    33928.029     7239.710        7.998        3.181      304.173       52.998        0.030      331.891        0.197      850.210
12/31/2021  05:21:00     -105.890      363.975      -30.837      152.097      138.521       84.226    23133.361    19187.948     7094.089        9.702        2.471      379.065       64.624        0.029      331.883        0.183      850.181
12/31/2021  05:22:00     -126.884      390.493      -36.513      162.424      183.684       89.043    26381.516    33739.828     7928.587       11.897        3.402      410.590       52.165        0.016      332.057        0.470      850.192
12/31/2021  05:23:00     -196.142      152.259      -40.238      199.658      176.571       82.795    39863.205    31177.424     6854.956        7.057        3.895      248.304       68.533        0.076      331.975        0.334      850.192
12/31/2021  05:24:00     -208.298      151.844      -28.361      192.788      175.475       92.445    37167.244    30791.354     8546.054        7.186        3.825      257.769      103.101        0.160      331.905        0.220      850.291
12/31/2021  05:25:00     -141.016      207.084      -19.480      149.926      178.492       83.769    22477.662    31859.263     7017.271        6.224        3.068      250.538       77.759        0.096      331.936        0.270      850.296
12/31/2021  05:26:00     -195.211      232.422      -31.256      152.319      147.876       82.854    23201.180    21867.255     6864.834        7.251        2.597      303.525       64.513        0.045      331.918        0.241      850.278
12/31/2021  05:27:00      -99.963      276.216      -22.718      115.860      122.086       59.374    13423.598    14904.960     3525.219        5.932        1.593      293.748       43.258        0.022      331.959        0.308      850.269
12/31/2021  05:28:00     -119.580      139.700      -52.670      118.687      135.957       81.305    14086.539    18484.368     6610.484        3.788        1.959      183.889       55.066        0.090      331.960        0.309      850.307
12/31/2021  05:29:00      -76.160      121.375      -31.107      107.676      128.094       70.619    11594.050    16408.194     4987.002        2.724        1.649      143.291       54.513        0.145      331.944        0.285      850.333
12/31/2021  05:30:00     -129.406      156.418      -57.686      134.578      155.644       95.556    18111.215    24224.928     9130.980        4.799        2.573      203.009       56.525        0.078      331.946        0.285      850.327
12/31/2021  05:31:00      -62.950      135.902      -44.065       96.437      122.293       77.952     9300.038    14955.578     6076.508        2.735        1.517      149.773       34.206        0.052      331.920        0.244      850.354
12/31/2021  05:32:00     -167.463      153.429      -29.532      172.256      201.044       91.207    29672.067    40418.749     8318.689        6.542        3.920      227.122       94.283        0.172      331.790        0.031      850.369
12/31/2021  05:33:00     -128.275      136.085      -22.720      124.566      111.466       75.422    15516.565    12424.767     5688.454        3.455        1.681      187.012       56.881        0.093      331.767       -0.007      850.366
12/31/2021  05:34:00      -62.433      278.628      -23.764       83.264      114.215       65.521     6932.977    13044.992     4292.980        5.318        1.214      285.537       41.969        0.022      331.823        0.084      850.358
12/31/2021  05:35:00      -78.931      291.183      -25.921      171.064      170.618       78.647    29262.876    29110.373     6185.277        7.811        3.228      301.691       72.690        0.058      331.885        0.188      850.361
12/31/2021  05:36:00     -111.614      345.722      -32.036      129.010      211.048       68.848    16643.709    44541.056     4740.025        9.945        3.296      363.292       78.398        0.047      331.933        0.264      850.340
12/31/2021  05:37:00      -49.405      465.940      -33.161       97.636      131.913       69.927     9532.829    17401.144     4889.772       12.623        1.591      468.552       69.041        0.022      331.916        0.237      850.374
12/31/2021  05:38:00      -18.990      342.343      -24.508      147.270      165.241       88.917    21688.375    27304.669     7906.310        8.752        2.845      342.869       86.438        0.064      331.922        0.246      850.318
12/31/2021  05:39:00     -120.839      222.962      -40.848       98.557       93.642       68.649     9713.516     8768.803     4712.692        4.458        1.160      253.603       38.473        0.023      331.917        0.238      850.426
12/31/2021  05:40:00     -125.995      122.237      -44.417      115.034      100.916       67.784    13232.767    10183.978     4594.704        3.040        1.401      175.547       23.676        0.018      331.786        0.023      850.482
12/31/2021  05:41:00     -116.300      255.879      -22.497      161.863      155.092       86.837    26199.702    24053.521     7540.594        6.864        2.890      281.068       83.174        0.088      331.765       -0.011      850.496
12/31/2021  05:42:00     -186.356      145.978      -45.849      209.915      142.194       84.087    44064.175    20219.152     7070.554        6.473        3.568      236.724       81.850        0.120      331.751       -0.033      850.503
12/31/2021  05:43:00     -102.055      175.432      -32.397      132.781      133.700       81.238    17630.858    17875.648     6599.572        4.217        2.105      202.957       54.290        0.072      331.741       -0.049      850.511
12/31/2021  05:44:00     -200.281      106.436      -35.219      204.058      136.786       78.813    41639.595    18710.366     6211.551        5.961        3.328      226.806       77.155        0.116      331.696       -0.124      850.547
12/31/2021  05:45:00      -56.817        7.384      -11.343      209.866      127.660      119.655    44043.660    16297.151    14317.310        3.902        3.733       57.295      102.122        3.177      331.694       -0.127      850.587
12/31/2021  05:46:00     -206.648       75.791      -56.120      182.958      154.164      118.500    33473.809    23766.674    14042.254        6.143        3.564      220.108       88.032        0.160      331.674       -0.159      850.651
12/31/2021  05:47:00      -23.150      177.390      -23.057      134.215      218.831       81.158    18013.599    47886.906     6586.693        5.250        3.624      178.894       64.132        0.129      331.820        0.080      850.614
12/31/2021  05:48:00       -7.549      394.613      -31.254      175.817      120.115       83.088    30911.575    14427.522     6903.625       10.449        2.612      394.686       53.991        0.019      332.105        0.549      850.537
12/31/2021  05:49:00     -127.088      151.091      -30.804      142.417      165.495       92.521    20282.577    27388.673     8560.108        4.807        2.812      197.433       60.821        0.095      331.909        0.226      850.657
12/31/2021  05:50:00     -148.321      241.317      -29.612      127.373      136.078       77.578    16223.967    18517.324     6018.274        6.093        2.038      283.255       39.448        0.019      331.843        0.116      850.605
12/31/2021  05:51:00      -13.612       43.951      -24.020      158.286      116.955       77.630    25054.576    13678.527     6026.419        2.372        2.238       46.010       40.564        0.777      331.900        0.213      850.546
12/31/2021  05:52:00     -167.720       61.577      -43.137      210.695      108.705       80.240    44392.549    11816.854     6438.424        4.820        3.132      178.667       73.989        0.171      331.845        0.122      850.522
12/31/2021  05:53:00      -57.131       62.066      -25.526      147.956      123.116       79.727    21891.054    15157.483     6356.389        2.558        2.170       84.357       29.802        0.125      331.792        0.035      850.551
12/31/2021  05:54:00     -131.561      157.903      -42.523       92.131       91.699       61.989     8488.042     8408.733     3842.671        3.239        1.037      205.528       46.649        0.052      331.679       -0.154      850.601
12/31/2021  05:55:00      -89.043      243.388      -33.119       96.291      101.421       58.093     9271.904    10286.171     3374.793        4.559        1.147      259.165       52.383        0.041      331.768       -0.007      850.605
12/31/2021  05:56:00      -11.493      170.394       -2.261       68.042       74.248       51.649     4629.777     5512.703     2667.640        2.099        0.641      170.781       37.928        0.049      331.925        0.254      850.590
12/31/2021  05:57:00      -59.961       62.799      -22.187       91.931       69.932       42.859     8451.261     4890.489     1836.875        1.160        0.759       86.827       30.066        0.120      331.832        0.101      850.606
12/31/2021  05:58:00      -62.247      140.333       -4.078       85.671      101.195       48.369     7339.556    10240.366     2339.532        2.175        0.996      153.519       26.665        0.030      331.849        0.131      850.618
12/31/2021  05:59:00      -34.098       10.393      -37.503       63.057       68.895       44.231     3976.169     4746.461     1956.372        0.668        0.534       35.646       30.108        0.713      331.654       -0.193      850.617
12/31/2021  06:00:00     -183.852       65.002      -10.196      146.573       85.130       64.001    21483.533     7247.183     4096.141        3.547        1.641      195.004       64.057        0.108      331.511       -0.430      850.598
12/31/2021  06:01:00      -50.251       38.837       -1.668      102.075       68.512       45.895    10419.275     4693.899     2106.389        1.062        0.861       63.510       33.160        0.273      331.550       -0.364      850.577
12/31/2021  06:02:00      -56.847       34.522        0.599      149.305       89.597       43.915    22292.045     8027.533     1928.491        1.833        1.612       66.508       45.569        0.469      331.703       -0.112      850.536
12/31/2021  06:03:00      -21.913       99.203        7.616       59.259       83.398       42.753     3511.626     6955.249     1827.847        1.133        0.615      101.594       31.834        0.098      331.659       -0.182      850.525
12/31/2021  06:04:00      -23.317       30.008       -2.179       58.677       65.824       34.196     3443.013     4332.831     1169.357        0.520        0.447       38.002       18.807        0.245      331.642       -0.211      850.553
12/31/2021  06:05:00      -68.368       21.392      -25.917       71.977       86.066       37.446     5180.632     7407.353     1402.194        0.989        0.700       71.636       35.061        0.240      331.720       -0.082      850.595
12/31/2021  06:06:00     -110.317       90.274      -37.466      128.968       90.671       61.981    16632.769     8221.278     3841.628        2.520        1.435      142.545       39.298        0.076      331.716       -0.090      850.651
12/31/2021  06:07:00     -138.712       45.814      -39.192      119.773       99.503       87.999    14345.664     9900.772     7743.911        2.743        1.600      146.082       40.687        0.078      331.656       -0.191      850.646
12/31/2021  06:08:00     -190.278      127.299      -49.453      117.958       93.598       83.743    13914.016     8760.598     7012.876        4.227        1.484      228.934       66.859        0.085      331.613       -0.261      850.633
12/31/2021  06:09:00     -193.030      101.871      -38.125      129.300      129.235       85.074    16718.479    16701.592     7237.627        4.487        2.033      218.263       63.924        0.086      331.552       -0.362      850.657
12/31/2021  06:10:00     -140.893      166.045      -45.313      129.492      137.436       85.733    16768.277    18888.525     7350.186        4.623        2.150      217.765       61.757        0.080      331.523       -0.410      850.699
12/31/2021  06:11:00      -82.525      144.122      -20.486      100.921      108.643       53.283    10185.113    11803.231     2839.057        2.641        1.241      166.077       47.893        0.083      331.471       -0.495      850.699
12/31/2021  06:12:00     -150.468       86.278      -18.766      150.873      120.796       62.707    22762.543    14591.732     3932.125        3.585        2.064      173.449       59.829        0.119      331.473       -0.492      850.636
12/31/2021  06:13:00      -86.684       -0.514       -7.577      129.798       93.565       68.885    16847.592     8754.491     4745.178        1.895        1.517       86.685       69.605        0.645      331.444       -0.539      850.640
12/31/2021  06:14:00     -270.045       91.851       -7.512      164.802      113.686       66.395    27159.579    12924.586     4408.313        6.295        2.225      285.239       60.234        0.045      331.369       -0.664      850.660
12/31/2021  06:15:00     -136.910      111.376      -11.482      145.162      141.620       78.462    21071.930    20056.225     6156.285        3.927        2.364      176.491       69.654        0.156      331.425       -0.571      850.712
12/31/2021  06:16:00     -120.541      123.362      -14.995      124.210      105.717       73.397    15428.011    11176.176     5387.095        3.098        1.600      172.477       55.386        0.103      331.459       -0.515      850.652
12/31/2021  06:17:00      -16.420      291.650      -24.064      116.291      108.523       81.284    13523.573    11777.345     6607.114        5.890        1.595      292.111       59.914        0.042      331.553       -0.361      850.636
12/31/2021  06:18:00      -92.280      255.335      -26.907      117.039      126.507       65.364    13698.184    16004.069     4272.421        5.420        1.699      271.499       45.822        0.028      331.550       -0.366      850.619
12/31/2021  06:19:00      -51.454      150.249      -35.505       78.525      104.933       44.473     6166.227    11011.017     1977.830        2.282        0.958      158.815       10.956        0.005      331.543       -0.376      850.634
12/31/2021  06:20:00     -103.799      155.700      -25.335      102.811       84.600       53.328    10570.187     7157.203     2843.894        2.811        1.029      187.128       22.323        0.014      331.512       -0.429      850.633
12/31/2021  06:21:00     -127.077       71.287      -43.717      116.587       91.726       66.952    13592.485     8413.742     4482.602        2.481        1.324      145.707       54.144        0.138      331.478       -0.485      850.629
12/31/2021  06:22:00      -81.258      110.043      -37.193      100.217      108.241       59.703    10043.377    11716.115     3564.452        2.271        1.266      136.793       40.439        0.087      331.444       -0.539      850.650
12/31/2021  06:23:00     -144.611      113.453      -68.193      141.845      100.842       83.327    20120.052    10169.069     6943.401        3.783        1.862      183.805       37.287        0.041      331.476       -0.487      850.620
12/31/2021  06:24:00     -145.458      190.151      -14.631       91.629       83.230       61.029     8395.948     6927.238     3724.564        3.829        0.952      239.406       49.666        0.043      331.491       -0.463      850.603
12/31/2021  06:25:00       -0.293      218.941       -4.232      100.577      122.326       65.878    10115.788    14963.553     4339.870        3.868        1.471      218.941       60.207        0.076      331.510       -0.432      850.568
12/31/2021  06:26:00      -64.029      130.770       -2.298      135.106      139.471       85.241    18253.613    19452.244     7266.061        3.308        2.249      145.603       38.706        0.071      331.549       -0.367      850.575
12/31/2021  06:27:00      -30.941      306.745      -21.363      102.720      142.056       72.911    10551.445    20179.877     5315.974        6.577        1.802      308.302       58.778        0.036      331.535       -0.392      850.600
12/31/2021  06:28:00      -82.065      166.151      -24.532      117.714      148.471       73.860    13856.539    22043.653     5455.334        3.814        2.068      185.312       59.371        0.103      331.548       -0.369      850.641
12/31/2021  06:29:00       -0.953      109.606       -7.875       78.383      122.386       63.340     6143.914    14978.262     4011.965        1.860        1.257      109.610       38.996        0.127      331.543       -0.377      850.645
12/31/2021  06:30:00      -86.523      277.411      -22.722      150.290      127.600       69.947    22587.207    16281.684     4892.589        6.435        2.188      290.591       60.652        0.044      331.553       -0.360      850.619
12/31/2021  06:31:00     -115.961      220.089       -4.260      140.684      141.652       77.731    19792.093    20065.157     6042.058        5.389        2.295      248.769       62.803        0.064      331.604       -0.276      850.595
12/31/2021  06:32:00     -114.516      164.963      -61.357      108.821      131.135       85.582    11841.973    17196.509     7324.233        4.022        1.818      200.815       54.788        0.074      331.600       -0.283      850.586
12/31/2021  06:33:00     -101.302      199.229      -30.112      120.342      176.642       77.592    14482.301    31202.443     6020.537        5.127        2.585      223.504       66.560        0.089      331.585       -0.307      850.587
12/31/2021  06:34:00      -38.356      208.646      -41.714       73.083      104.326       72.094     5341.170    10884.000     5197.586        3.408        1.071      212.143       38.938        0.034      331.597       -0.288      850.592
12/31/2021  06:35:00     -128.984      152.079      -37.856      150.032      138.624       77.326    22509.727    19216.515     5979.236        4.444        2.385      199.411       34.491        0.030      331.622       -0.245      850.601
12/31/2021  06:36:00      -95.995      121.715      -57.234      116.711      108.263       86.489    13621.446    11720.806     7480.306        3.006        1.641      155.015       22.191        0.020      331.653       -0.196      850.607
12/31/2021  06:37:00     -168.697      288.047      -58.327      121.471      147.347       78.720    14755.202    21711.031     6196.864        7.874        2.133      333.812       40.838        0.015      331.645       -0.209      850.641
12/31/2021  06:38:00     -141.235      142.625      -33.497      123.662      135.135       73.879    15292.260    18261.566     5458.095        4.020        1.951      200.722       52.524        0.068      331.682       -0.147      850.651
12/31/2021  06:39:00      -58.970      -16.653        9.367      140.366       98.938       80.010    19702.660     9788.686     6401.603        1.986        1.795       61.277       67.612        1.217      331.700       -0.116      850.705
12/31/2021  06:40:00      -20.506      -12.392        0.397       85.044       80.251       49.439     7232.432     6440.194     2444.209        0.834        0.806       23.960       33.631        1.970      331.697       -0.120      850.730
12/31/2021  06:41:00      -43.161        0.444        4.231       71.475       66.591       50.689     5108.613     4434.329     2569.329        0.699        0.606       43.164       41.303        0.916      331.633       -0.226      850.791
12/31/2021  06:42:00     -206.338       -1.926       -7.874      123.368       92.636       61.162    15219.741     8581.513     3740.847        3.509        1.377      206.347       50.055        0.059      331.671       -0.166      850.819
12/31/2021  06:43:00     -236.051       70.247      -10.624      159.758      157.728       84.152    25522.545    24878.023     7081.535        5.911        2.874      246.282       75.259        0.093      331.818        0.076      850.880
12/31/2021  06:44:00     -275.716       -5.567      -12.828      136.976       75.510       62.559    18762.301     5701.753     3913.657        5.229        1.419      275.772       63.452        0.053      331.893        0.199      850.925
12/31/2021  06:45:00     -170.678      -15.569      -11.124       98.538       75.231       57.526     9709.818     5659.658     3309.212        2.408        0.934      171.386       45.771        0.071      331.870        0.162      851.009
12/31/2021  06:46:00     -234.032        3.952       -5.783       86.139       62.800       48.850     7419.871     3943.889     2386.364        3.428        0.688      234.065       40.909        0.031      331.794        0.036      851.082
12/31/2021  06:47:00     -143.067      -12.028      -23.471       56.271       41.335       28.459     3166.382     1708.612      809.913        1.342        0.284      143.572       25.329        0.031      331.807        0.060      851.123
12/31/2021  06:48:00     -111.075       16.285        8.128       79.823       54.891       37.294     6371.765     3013.074     1390.822        1.172        0.539      112.262       32.357        0.083      331.733       -0.062      851.185
12/31/2021  06:49:00      -87.985       94.091       -7.819       78.705       68.558       34.519     6194.497     4700.193     1191.554        1.437        0.604      128.820       24.756        0.037      331.760       -0.017      851.234
12/31/2021  06:50:00       32.980       33.048      -28.181       18.391       19.424       14.069      338.234      377.285      197.933        0.194        0.046       46.689        4.354        0.009      331.788        0.029      851.234
12/31/2021  06:51:00      -20.860      -13.749       -5.168       30.042       34.632       15.529      902.501     1199.365      241.143        0.150        0.117       24.983       10.148        0.165      331.743       -0.045      851.256
12/31/2021  06:52:00      -27.050       -8.545      -15.374       48.579       35.648       20.832     2359.920     1270.801      433.960        0.255        0.203       28.368       17.093        0.363      331.888        0.194      851.274
12/31/2021  06:53:00      128.622      -28.017      -22.917       39.343       55.360       26.096     1547.864     3064.784      681.003        1.157        0.265      131.638       28.747        0.048      331.891        0.199      851.273
12/31/2021  06:54:00       19.536      -22.488      -23.421       31.972       36.222       17.236     1022.202     1312.013      297.082        0.203        0.132       29.789       15.661        0.276      331.865        0.157      851.277
12/31/2021  06:55:00       14.142        2.245        1.985       28.414       21.283       16.655      807.361      452.958      277.396        0.087        0.077       14.319       10.062        0.494      331.839        0.114      851.304
12/31/2021  06:56:00       82.389       15.746       -9.105       27.544       33.789       17.145      758.649     1141.665      293.968        0.466        0.110       83.880       11.077        0.017      331.845        0.123      851.329
12/31/2021  06:57:00       56.506       -0.219      -11.128       16.812       17.252       10.715      282.637      297.618      114.806        0.201        0.035       56.507        7.266        0.017      331.885        0.189      851.350
12/31/2021  06:58:00       22.896       18.857       -6.276       20.822       23.394       16.692      433.563      547.271      278.634        0.109        0.063       29.661       11.995        0.164      331.787        0.027      851.367
12/31/2021  06:59:00       40.956       45.430        1.462       32.228       25.946       15.424     1038.665      673.209      237.889        0.285        0.097       61.166       12.162        0.040      331.795        0.042      851.394
12/31/2021  07:00:00      -17.453       56.902       -3.021       29.175       13.331        8.943      851.174      177.705       79.978        0.233        0.055       59.518       12.667        0.045      331.726       -0.069      851.417
12/31/2021  07:01:00      -58.110       26.988       -7.002       35.283       27.281       18.915     1244.915      744.247      357.768        0.325        0.117       64.071       11.945        0.035      331.635       -0.223      851.423
12/31/2021  07:02:00      -25.840        2.814        0.362       43.454       30.653       19.657     1888.280      939.613      386.410        0.194        0.161       25.993       18.645        0.515      331.662       -0.177      851.442
12/31/2021  07:03:00       40.534       21.584      -13.070       31.927       28.564       26.876     1019.334      815.904      722.315        0.242        0.128       45.923        8.634        0.035      331.796        0.043      851.446
12/31/2021  07:04:00      -33.186       26.469      -32.797       62.826       33.779       41.997     3947.133     1141.013     1763.757        0.486        0.343       42.449       21.331        0.253      331.973        0.333      851.417
12/31/2021  07:05:00     -144.305       10.234       -5.556       84.117       51.100       45.107     7075.700     2611.239     2034.628        1.634        0.586      144.667       43.530        0.091      331.942        0.283      851.417
12/31/2021  07:06:00      -61.139       15.092       -5.352       49.507       27.963       31.307     2450.925      781.949      980.124        0.410        0.211       62.975       16.602        0.070      331.910        0.231      851.386
12/31/2021  07:07:00        3.246      -11.072      -19.304       23.846       52.701       14.771      568.654     2777.355      218.184        0.203        0.178       11.538        4.463        0.150      331.922        0.250      851.338
12/31/2021  07:08:00      -59.423      -41.088      -37.767       92.754       46.829       32.886     8603.319     2192.991     1081.500        0.926        0.594       72.245       24.502        0.115      331.980        0.345      851.334
12/31/2021  07:09:00      -41.587       -2.387      -20.308       45.503       30.940       27.561     2070.546      957.277      759.584        0.297        0.189       41.656       28.913        0.482      331.841        0.115      851.337
12/31/2021  07:10:00       49.624       93.118       -8.431       48.299       91.630       24.755     2332.766     8395.996      612.794        1.127        0.567      105.516       36.620        0.120      331.801        0.050      851.318
12/31/2021  07:11:00       91.619      102.284      -22.260       36.963       65.524       23.989     1366.258     4293.340      575.457        1.279        0.312      137.317       28.278        0.042      331.688       -0.137      851.298
12/31/2021  07:12:00       15.716       18.224      -14.225       38.638       26.665       20.923     1492.896      711.020      437.792        0.171        0.132       24.064       17.008        0.500      331.652       -0.196      851.280
12/31/2021  07:13:00      -78.419       33.590      -29.805       80.344       46.934       38.507     6455.110     2202.806     1482.797        0.915        0.507       85.310       17.985        0.044      331.623       -0.244      851.291
12/31/2021  07:14:00     -253.552       81.093      -12.021       84.787       58.799       39.754     7188.915     3457.346     1580.364        4.162        0.611      266.204       42.418        0.025      331.574       -0.324      851.317
12/31/2021  07:15:00      -68.868       24.366       -6.121      116.880       51.751       37.344    13660.944     2678.137     1394.592        1.155        0.887       73.052       40.536        0.308      331.536       -0.389      851.335
12/31/2021  07:16:00     -139.156       24.933      -26.158       88.961       54.934       46.369     7914.136     3017.712     2150.060        1.687        0.654      141.372       37.272        0.070      331.507       -0.435      851.328
12/31/2021  07:17:00     -134.871       67.921      -23.545       79.492       55.919       40.368     6319.025     3126.944     1629.568        1.721        0.554      151.008       38.570        0.065      331.546       -0.370      851.339
12/31/2021  07:18:00     -270.820       87.196      -24.940       88.576       63.775       48.886     7845.660     4067.311     2389.874        4.793        0.715      284.512       46.495        0.027      331.527       -0.404      851.370
12/31/2021  07:19:00     -278.504      163.242      -31.361       91.322       61.697       39.146     8339.739     3806.546     1532.411        5.943        0.684      322.820       24.812        0.006      331.540       -0.384      851.387
12/31/2021  07:20:00      -16.583       84.426      -24.690       61.826       96.601       47.719     3822.477     9331.684     2277.104        1.172        0.772       86.039       45.001        0.274      331.571       -0.330      851.365
12/31/2021  07:21:00     -190.610       45.272      -17.869      164.954      108.180       59.390    27209.769    11702.830     3527.146        4.056        2.122      195.912       57.006        0.085      331.546       -0.372      851.347
12/31/2021  07:22:00     -177.011       63.389      -18.790      127.147       93.016       54.580    16166.316     8652.060     2978.950        3.175        1.390      188.018       41.510        0.049      331.491       -0.463      851.304
12/31/2021  07:23:00      -86.601       88.050      -14.809       99.536       88.437       60.127     9907.489     7821.151     3615.208        1.840        1.067      123.501       45.286        0.134      331.609       -0.267      851.295
12/31/2021  07:24:00     -209.860      135.297      -41.097      117.862       87.530       59.260    13891.501     7661.429     3511.707        4.455        1.253      249.693       40.105        0.026      331.608       -0.270      851.287
12/31/2021  07:25:00      -63.565       82.601      -19.623       64.277       88.614       42.533     4131.503     7852.471     1809.019        1.252        0.690      104.228       29.657        0.081      331.646       -0.206      851.293
12/31/2021  07:26:00     -283.067       86.551      -53.717      129.656      106.031       82.204    16810.701    11242.563     6757.561        6.265        1.741      296.003       66.697        0.051      331.573       -0.326      851.262
12/31/2021  07:27:00     -167.157       71.992      -43.693       76.458       62.148       43.731     5845.768     3862.322     1912.418        2.332        0.581      182.001       25.780        0.020      331.660       -0.187      851.278
12/31/2021  07:28:00      -65.157       12.557       -6.597       36.557       81.141       30.864     1336.417     6583.854      952.568        0.666        0.444       66.356       24.689        0.138      331.619       -0.250      851.224
12/31/2021  07:29:00      -68.600       55.375      -24.402       41.758       54.547       36.315     1743.742     2975.424     1318.764        0.720        0.302       88.161       26.942        0.093      331.665       -0.173      851.205
12/31/2021  07:30:00      -99.506       90.090      -21.266       69.921       58.497       36.437     4888.964     3421.919     1327.640        1.405        0.482      134.229       27.402        0.042      331.646       -0.206      851.198
12/31/2021  07:31:00      -47.629       79.536      -19.464       48.866       79.813       42.747     2387.844     6370.072     1827.303        0.978        0.529       92.706       22.912        0.061      331.632       -0.228      851.188
12/31/2021  07:32:00     -129.795      116.124      -18.563       58.393       64.548       43.022     3409.693     4166.503     1850.886        2.005        0.471      174.160       31.624        0.033      331.591       -0.297      851.159
12/31/2021  07:33:00      -92.687      140.501      -20.392       81.388       85.683       45.159     6624.042     7341.609     2039.372        2.237        0.800      168.319       32.384        0.037      331.585       -0.306      851.138
12/31/2021  07:34:00      -79.449       98.354      -23.816       63.845       82.415       41.440     4076.245     6792.154     1717.290        1.457        0.629      126.435       22.246        0.031      331.651       -0.196      851.132
12/31/2021  07:35:00     -158.580      207.181      -27.401       76.131       67.458       41.746     5795.857     4550.539     1742.720        4.045        0.604      260.905       33.480        0.016      331.574       -0.328      851.102
12/31/2021  07:36:00     -179.025       67.333      -24.353       75.748       51.334       45.984     5737.765     2635.153     2114.568        2.383        0.524      191.268       17.530        0.008      331.569       -0.335      851.093
12/31/2021  07:37:00      -45.280       21.642       12.193      128.496       77.646       57.077    16511.258     6028.843     3257.788        1.423        1.290       50.186       55.019        1.202      331.601       -0.280      851.078
12/31/2021  07:38:00     -136.492       48.171      -17.037       73.711       54.184       33.387     5433.253     2935.939     1114.694        1.536        0.474      144.743       18.436        0.016      331.646       -0.205      851.071
12/31/2021  07:39:00     -192.068       80.915      -13.885       74.676       60.747       39.109     5576.496     3690.219     1529.503        2.721        0.540      208.416       25.937        0.015      331.679       -0.155      851.064
12/31/2021  07:40:00     -126.236       23.611      -14.609       57.997       40.194       35.784     3363.594     1615.554     1280.527        1.148        0.313      128.425       27.291        0.045      331.614       -0.258      851.074
12/31/2021  07:41:00     -146.223       36.080       -0.487       71.368       46.997       33.205     5093.461     2208.720     1102.598        1.554        0.420      150.609       25.801        0.029      331.740       -0.051      851.068
12/31/2021  07:42:00     -131.707        6.515       -9.779       75.295       32.052       32.305     5669.357     1027.338     1043.617        1.261        0.387      131.868       37.757        0.082      331.774        0.007      851.076
12/31/2021  07:43:00     -113.350        4.317      -13.300       71.711       28.204       25.727     5142.441      795.462      661.873        0.982        0.330      113.433       30.026        0.070      331.687       -0.137      851.082
12/31/2021  07:44:00     -106.217       27.942       -7.197       52.728       29.443       17.538     2780.291      866.910      307.596        0.803        0.198      109.830       16.796        0.023      331.742       -0.046      851.089
12/31/2021  07:45:00      -40.454      -36.913       -7.737       30.029       46.377       19.312      901.763     2150.835      372.961        0.324        0.171       54.764       14.436        0.069      331.753       -0.027      851.116
12/31/2021  07:46:00      -43.693      -26.840      -17.278       36.187       22.840       23.710     1309.469      521.672      562.149        0.266        0.120       51.278       12.577        0.060      331.718       -0.086      851.139
12/31/2021  07:47:00       -0.963      -29.250        0.971       53.259       32.259       28.912     2836.483     1040.633      835.880        0.278        0.236       29.266       15.352        0.275      331.769       -0.002      851.153
12/31/2021  07:48:00      100.995     -122.567      -39.993       54.607       80.072       34.544     2981.913     6411.577     1193.297        1.870        0.529      158.816       30.371        0.037      331.660       -0.182      851.170
12/31/2021  07:49:00       94.209     -131.925      -26.270       69.460       69.669       43.337     4824.653     4853.785     1878.125        1.926        0.578      162.110       38.681        0.057      331.638       -0.219      851.184
12/31/2021  07:50:00      149.804     -137.044      -46.129       54.075       66.262       50.180     2924.093     4390.699     2518.074        2.659        0.492      203.033       47.354        0.054      331.551       -0.364      851.172
12/31/2021  07:51:00      119.307     -206.862      -43.444       58.332       51.307       36.178     3402.564     2632.386     1308.862        3.313        0.367      238.801       22.360        0.009      331.538       -0.387      851.198
12/31/2021  07:52:00       99.095     -157.806      -43.623       33.896       38.879       19.497     1148.945     1511.613      380.134        1.983        0.152      186.340       10.158        0.003      331.498       -0.452      851.229
12/31/2021  07:53:00      -44.779      -72.635      -25.938       72.890       48.028       44.871     5312.953     2306.705     2013.418        0.879        0.482       85.329       37.654        0.195      331.594       -0.291      851.233
12/31/2021  07:54:00       28.539        6.780      -26.053       44.134       55.353       41.735     1947.769     3063.974     1741.821        0.415        0.338       29.333       31.547        1.157      331.813        0.071      851.205
12/31/2021  07:55:00       86.811     -124.448      -38.422       58.162       83.073       42.399     3382.786     6901.087     1797.685        1.829        0.604      151.735       27.183        0.032      331.591       -0.296      851.197
12/31/2021  07:56:00      125.171     -204.479      -40.790       39.786       55.840       25.486     1582.892     3118.075      649.534        3.225        0.268      239.748       20.680        0.007      331.340       -0.710      851.209
12/31/2021  07:57:00      102.365     -178.593      -41.920       41.616       54.794       31.369     1731.874     3002.346      984.022        2.492        0.286      205.850       22.952        0.012      331.421       -0.578      851.204
12/31/2021  07:58:00       27.339      -45.154      -29.482       71.707       49.720       45.958     5141.893     2472.118     2112.116        0.669        0.486       52.785       42.687        0.654      331.439       -0.546      851.181
12/31/2021  07:59:00       35.148     -121.275      -15.734       48.751       45.486       32.450     2376.697     2068.967     1052.995        1.084        0.275      126.266       26.110        0.043      331.475       -0.486      851.183
12/31/2021  08:00:00        9.076      -52.079      -13.398       69.344       45.570       30.591     4808.576     2076.615      935.837        0.540        0.391       52.864        9.375        0.031      331.399       -0.613      851.201
12/31/2021  08:01:00      -71.620       21.247       -4.806       47.544       38.127       29.240     2260.443     1453.673      854.964        0.509        0.228       74.706       21.456        0.082      331.381       -0.640      851.235
12/31/2021  08:02:00      -40.634       67.843       -8.934       44.345       23.691       17.205     1966.440      561.255      296.026        0.458        0.141       79.081       10.633        0.018      331.327       -0.730      851.239
12/31/2021  08:03:00       31.160       -0.651      -26.378       33.333       43.343       34.321     1111.117     1878.597     1177.950        0.292        0.208       31.167       20.468        0.431      331.558       -0.349      851.203
12/31/2021  08:04:00       59.954        6.716      -36.914       58.682       87.159       49.860     3443.561     7596.713     2486.028        0.926        0.676       60.329       24.153        0.160      331.492       -0.458      851.153
12/31/2021  08:05:00      111.464       -2.209      -27.093       83.108       55.747       51.795     6906.963     3107.682     2682.753        1.293        0.635      111.486       38.695        0.120      331.266       -0.830      851.144
12/31/2021  08:06:00       46.850      -44.049      -28.129       37.501       54.047       29.243     1406.311     2921.132      855.171        0.505        0.259       64.305       18.005        0.078      331.314       -0.750      851.174
12/31/2021  08:07:00      124.538       11.589      -19.286       41.533       40.726       19.777     1724.987     1658.637      391.113        0.989        0.189      125.076       14.296        0.013      331.209       -0.924      851.212
12/31/2021  08:08:00      110.004      -11.731      -12.961       45.944       51.325       29.904     2110.872     2634.243      894.274        0.902        0.282      110.628       23.278        0.044      331.232       -0.885      851.217
12/31/2021  08:09:00      103.387      -15.543        1.079       71.732       62.128       41.719     5145.484     3859.923     1740.454        1.084        0.537      104.549       40.327        0.149      331.362       -0.674      851.199
12/31/2021  08:10:00      109.665       -8.930      -31.907       84.808       63.589       60.868     7192.393     4043.500     3704.922        1.403        0.747      110.028       42.843        0.152      331.286       -0.798      851.169
12/31/2021  08:11:00       94.979      -39.392      -56.017       80.999       79.447       56.345     6560.872     6311.751     3174.772        1.488        0.802      102.824       37.727        0.135      331.264       -0.833      851.146
12/31/2021  08:12:00       25.630     -113.412      -26.619       81.703       53.291       34.126     6675.391     2839.943     1164.592        1.245        0.534      116.272       24.321        0.044      331.348       -0.696      851.185
12/31/2021  08:13:00       26.783      -85.910      -18.207       52.168       39.759       28.261     2721.468     1580.796      798.662        0.676        0.255       89.988       11.982        0.018      331.384       -0.635      851.239
12/31/2021  08:14:00       74.501     -128.791      -36.217       72.088       55.113       37.388     5196.702     3037.426     1397.857        1.654        0.482      148.786       34.246        0.053      331.290       -0.790      851.256
12/31/2021  08:15:00      130.203     -112.473      -48.029       41.478       60.474       35.586     1720.453     3657.085     1266.359        1.928        0.332      172.055       19.358        0.013      331.287       -0.795      851.263
12/31/2021  08:16:00      101.698      -64.595      -40.712       47.016       67.425       38.037     2210.475     4546.066     1446.851        1.219        0.410      120.478       24.124        0.040      331.321       -0.739      851.257
12/31/2021  08:17:00       35.975      -68.510      -25.296       44.082       49.472       29.035     1943.254     2447.528      843.045        0.593        0.262       77.381       17.103        0.049      331.432       -0.556      851.285
12/31/2021  08:18:00       12.922      -51.833      -25.255       51.140       39.844       27.407     2615.350     1587.558      751.163        0.422        0.248       53.419       19.972        0.140      331.613       -0.260      851.315
12/31/2021  08:19:00       17.516      -30.682      -26.830       60.008       31.787       20.607     3600.994     1010.406      424.668        0.350        0.252       35.330       18.686        0.280      331.519       -0.414      851.344
12/31/2021  08:20:00      104.418     -174.697      -47.492       28.287       30.100       18.707      800.158      906.024      349.968        2.287        0.103      203.524       10.975        0.003      331.203       -0.933      851.354
12/31/2021  08:21:00      121.251     -178.878      -50.592       31.280       43.666       20.380      978.464     1906.728      415.327        2.628        0.165      216.100       13.104        0.004      331.241       -0.873      851.324
12/31/2021  08:22:00       52.027     -124.480      -21.082       42.517       49.756       33.140     1807.712     2475.674     1098.242        1.201        0.269      134.915       23.362        0.030      331.336       -0.713      851.359
12/31/2021  08:23:00      -29.980        5.671      -14.765       32.950       44.984       29.072     1085.705     2023.578      845.182        0.255        0.198       30.512       21.069        0.477      331.491       -0.459      851.441
12/31/2021  08:24:00       -6.066      -24.633       -6.363       22.635       38.204       18.498      512.348     1459.520      342.174        0.150        0.116       25.368       15.924        0.394      331.627       -0.236      851.484
12/31/2021  08:25:00      -36.396        8.110       -7.054       42.316       28.500       21.269     1790.648      812.274      452.391        0.225        0.153       37.289       10.739        0.083      331.492       -0.460      851.468
12/31/2021  08:26:00       30.286      -18.644      -23.530       44.565       56.328       37.028     1986.083     3172.859     1371.100        0.417        0.327       35.564       32.889        0.855      331.554       -0.356      851.379
12/31/2021  08:27:00      115.190     -178.000      -47.907       68.781      101.109       59.972     4730.844    10223.043     3596.697        3.290        0.928      212.021       45.032        0.045      331.738       -0.056      851.299
12/31/2021  08:28:00      133.613     -215.628      -43.500       91.880       90.473       62.198     8441.909     8185.409     3868.617        4.336        1.025      253.669       63.826        0.063      331.704       -0.112      851.279
12/31/2021  08:29:00       29.203     -137.893      -31.381       80.034       92.378       43.167     6405.496     8533.659     1863.369        1.882        0.840      140.952       24.226        0.030      331.392       -0.624      851.334
12/31/2021  08:30:00       -9.857      -26.571      -23.591       50.269       49.428       27.539     2526.976     2443.144      758.411        0.354        0.286       28.341        6.800        0.058      331.654       -0.190      851.401
12/31/2021  08:31:00      -78.837      -10.069        8.437       78.872       53.819       39.433     6220.757     2896.488     1554.973        0.853        0.534       79.477       31.647        0.159      331.510       -0.428      851.437
12/31/2021  08:32:00      -49.083      -54.585      -26.748       86.679       78.200       38.438     7513.312     6115.277     1477.486        1.060        0.755       73.408       37.265        0.258      331.455       -0.519      851.445
12/31/2021  08:33:00       39.474      -74.622      -21.186       51.219       60.391       42.251     2623.370     3647.075     1785.111        0.781        0.403       84.419       30.998        0.135      331.642       -0.212      851.416
12/31/2021  08:34:00       -7.769       24.475       -6.261       26.030       19.809       27.028      677.541      392.384      730.498        0.125        0.090       25.679        7.648        0.089      331.623       -0.240      851.399
12/31/2021  08:35:00        3.378        2.490      -16.263       36.231       26.737       22.980     1312.705      714.842      528.101        0.142        0.128        4.196       21.178       25.468      331.624       -0.239      851.404
12/31/2021  08:36:00       55.251      -20.202      -28.388       39.812       50.329       37.302     1585.005     2533.010     1391.406        0.489        0.275       58.828       27.841        0.224      331.733       -0.062      851.398
12/31/2021  08:37:00       38.328     -111.680      -45.263       75.025       54.896       28.690     5628.755     3013.625      823.127        1.273        0.473      118.074       23.522        0.040      331.528       -0.399      851.376
12/31/2021  08:38:00       14.836      -86.120      -30.045       48.468       44.800       29.306     2349.134     2007.052      858.837        0.688        0.261       87.389       20.344        0.054      331.571       -0.328      851.467
12/31/2021  08:39:00        9.695       20.555      -18.265       35.859       41.839       19.387     1285.844     1750.503      375.863        0.213        0.171       22.727       21.898        0.928      331.480       -0.477      851.542
12/31/2021  08:40:00      -30.529        5.144       -3.039       51.623       25.727       22.160     2664.912      661.867      491.047        0.239        0.191       30.959       25.758        0.692      331.537       -0.385      851.564
12/31/2021  08:41:00      -51.843       17.273       -2.410       37.149       39.874       26.620     1380.014     1589.955      708.599        0.333        0.184       54.645       17.710        0.105      331.487       -0.466      851.568
12/31/2021  08:42:00       -1.353       -0.122       -4.464       24.769       25.530       21.932      613.528      651.778      481.006        0.088        0.087        1.359       14.590      115.274      331.761       -0.015      851.547
12/31/2021  08:43:00      -10.620       40.034       -8.665       51.455       30.606       15.590     2647.645      936.726      243.046        0.281        0.191       41.419       12.433        0.090      331.600       -0.280      851.533
12/31/2021  08:44:00       -4.311       11.043       -7.287       21.970       10.387       11.769      482.696      107.893      138.517        0.046        0.036       11.855        5.544        0.219      331.651       -0.195      851.530
12/31/2021  08:45:00      -33.099       20.240        0.321       18.315       12.732       14.943      335.423      162.105      223.305        0.111        0.036       38.797        7.331        0.036      331.531       -0.393      851.517
12/31/2021  08:46:00      -24.086       15.220      -11.180       20.859       24.866       12.955      435.112      618.327      167.843        0.108        0.061       28.492       12.226        0.184      331.600       -0.279      851.538
12/31/2021  08:47:00      -13.909      -18.765        0.969       30.083       26.714       19.372      904.962      713.646      375.278        0.127        0.100       23.357        6.318        0.073      331.773        0.004      851.578
12/31/2021  08:48:00      -22.997      -13.688      -13.947       23.337       22.166       21.158      544.608      491.319      447.680        0.120        0.074       26.762       10.465        0.153      331.714       -0.092      851.581
12/31/2021  08:49:00       -6.667      -11.548      -16.172       30.831       30.968       22.959      950.563      959.007      527.115        0.144        0.122       13.334       17.539        1.730      331.827        0.095      851.584
12/31/2021  08:50:00      -13.810       -6.823       -6.055       28.876       37.530       20.672      833.813     1408.489      427.346        0.147        0.133       15.403        7.144        0.215      331.816        0.075      851.582
12/31/2021  08:51:00       50.754      -61.399      -18.924       40.085       52.195       34.968     1606.814     2724.313     1222.734        0.613        0.278       79.661       28.732        0.130      331.849        0.131      851.578
12/31/2021  08:52:00        7.414      -71.758      -40.104       46.420       42.617       35.693     2154.852     1816.172     1274.002        0.603        0.262       72.140       29.061        0.162      331.840        0.114      851.586
12/31/2021  08:53:00      102.089     -133.401      -38.980       34.835       41.805       24.974     1213.452     1747.640      623.694        1.666        0.179      167.983       15.745        0.009      331.548       -0.365      851.583
12/31/2021  08:54:00       71.653     -157.481      -36.501       72.576       60.839       34.841     5267.227     3701.425     1213.890        2.072        0.509      173.016       33.446        0.037      331.599       -0.282      851.590
12/31/2021  08:55:00       75.886     -150.856      -27.911       40.421       54.059       33.989     1633.851     2922.397     1155.248        1.750        0.286      168.867       29.166        0.030      331.622       -0.245      851.614
12/31/2021  08:56:00       13.165     -105.156      -20.087       36.416       34.293       29.109     1326.114     1176.034      847.335        0.749        0.167      105.977       11.095        0.011      331.810        0.067      851.608
12/31/2021  08:57:00      -29.900      -89.538      -27.183       73.105       67.191       35.254     5344.322     4514.693     1242.815        1.037        0.555       94.398       41.852        0.197      331.728       -0.070      851.604
12/31/2021  08:58:00      -39.988      -40.016        9.314       43.138       35.849       35.488     1860.923     1285.164     1259.421        0.385        0.220       56.571       15.216        0.072      331.888        0.196      851.618
12/31/2021  08:59:00      -60.967        3.952      -12.529       71.365       39.237       34.668     5093.030     1539.507     1201.844        0.586        0.392       61.095       10.585        0.030      331.696       -0.122      851.609
12/31/2021  09:00:00      -74.470      -21.394      -10.411       60.386       47.004       36.471     3646.520     2209.410     1330.143        0.665        0.359       77.482       30.021        0.150      331.689       -0.135      851.611
12/31/2021  09:01:00      -83.276       14.562      -11.148       38.056       49.819       29.584     1448.268     2481.973      875.215        0.604        0.240       84.539       24.066        0.081      331.519       -0.415      851.625
12/31/2021  09:02:00      -85.022       56.333      -23.661       22.543       21.545       16.353      508.183      464.198      267.415        0.610        0.062      101.991       10.443        0.010      331.485       -0.472      851.646
12/31/2021  09:03:00      -94.792       35.101       -9.328       73.187       53.993       32.136     5356.294     2915.229     1032.748        0.980        0.465      101.082       35.383        0.123      331.574       -0.323      851.663
12/31/2021  09:04:00     -137.675        5.667       -1.091       95.367       79.909       47.642     9094.921     6385.421     2269.720        1.837        0.888      137.791       43.981        0.102      331.674       -0.160      851.676
12/31/2021  09:05:00     -241.121       -9.656      -15.091       94.749       62.810       49.805     8977.381     3945.034     2480.503        3.693        0.770      241.314       50.841        0.044      331.473       -0.495      851.702
12/31/2021  09:06:00     -146.914       47.622       -0.433       93.294       65.443       40.697     8703.839     4282.762     1656.285        1.924        0.732      154.439       41.098        0.071      331.551       -0.362      851.725
12/31/2021  09:07:00     -148.726       31.509       -7.445      130.610       41.631       31.862    17058.970     1733.147     1015.159        2.148        0.990      152.027       26.527        0.030      331.552       -0.362      851.742
12/31/2021  09:08:00     -163.968       11.572      -17.953       67.079       36.333       30.390     4499.576     1320.082      923.543        1.704        0.337      164.375       10.596        0.004      331.504       -0.440      851.749
12/31/2021  09:09:00     -107.741       -6.680      -13.453       60.027       44.044       26.160     3603.301     1939.840      684.342        0.903        0.311      107.948       28.515        0.070      331.557       -0.353      851.749
12/31/2021  09:10:00     -165.238      -12.067       -9.313       83.976       59.757       50.200     7051.905     3570.871     2520.067        2.034        0.657      165.678       45.190        0.074      331.577       -0.320      851.775
12/31/2021  09:11:00     -157.826       19.504       -4.094       69.704       49.416       34.454     4858.663     2441.957     1187.075        1.690        0.424      159.027       38.256        0.058      331.587       -0.303      851.799
12/31/2021  09:12:00     -170.802       17.207       -5.121       74.854       53.851       39.265     5603.083     2899.909     1541.726        1.977        0.502      171.666       36.998        0.046      331.585       -0.307      851.816
12/31/2021  09:13:00      -95.060       69.704       -6.365       51.960       61.880       28.741     2699.825     3829.078      826.047        1.064        0.368      117.877       30.791        0.068      331.679       -0.151      851.833
12/31/2021  09:14:00      -54.791       34.205      -16.395       41.892       38.460       26.579     1754.950     1479.137      706.446        0.419        0.197       64.591       16.824        0.068      331.738       -0.054      851.838
12/31/2021  09:15:00      -37.929       14.559        0.414       45.966       32.677       27.073     2112.842     1067.816      732.964        0.278        0.196       40.627       22.715        0.313      331.807        0.060      851.837
12/31/2021  09:16:00      -61.639        0.195       -6.213       51.070       31.415       33.510     2608.192      986.897     1122.928        0.428        0.236       61.639       31.670        0.264      331.699       -0.118      851.851
12/31/2021  09:17:00      -80.179       -3.890        2.059       55.124       35.947       31.837     3038.706     1292.171     1013.617        0.590        0.267       80.274       29.699        0.137      331.705       -0.106      851.890
12/31/2021  09:18:00      -79.292       46.708       -1.751       65.434       47.722       27.656     4281.602     2277.352      764.844        0.790        0.366       92.027        8.460        0.008      331.770        0.000      851.914
12/31/2021  09:19:00      -73.989        1.161       -6.655       96.049       54.408       45.345     9225.404     2960.193     2056.147        0.988        0.712       73.999       29.159        0.155      331.871        0.165      851.925
12/31/2021  09:20:00     -116.416        7.158      -11.749      121.384       62.595       46.987    14734.164     3918.074     2207.815        1.730        1.043      116.636       19.551        0.028      331.741       -0.048      851.909
12/31/2021  09:21:00     -161.207      -27.525      -21.233       46.107       55.924       32.711     2125.872     3127.493     1070.004        1.676        0.316      163.540       26.148        0.026      331.634       -0.226      851.876
12/31/2021  09:22:00     -157.982      -13.329      -19.700       51.181       39.431       29.019     2619.478     1554.822      842.129        1.527        0.251      158.543       26.536        0.028      331.616       -0.254      851.853
12/31/2021  09:23:00      -74.898        4.489        3.785       61.738       40.101       39.136     3811.523     1608.092     1531.591        0.630        0.348       75.033       36.332        0.234      331.794        0.039      851.844
12/31/2021  09:24:00     -101.427      -21.545      -18.940       40.555       29.271       26.538     1644.692      856.811      704.292        0.716        0.160      103.690       15.570        0.023      331.709       -0.100      851.850
12/31/2021  09:25:00      -45.472       -1.158      -11.559       26.471       19.972       14.456      700.691      398.898      208.985        0.176        0.065       45.487        6.697        0.022      331.836        0.108      851.849
12/31/2021  09:26:00      -71.071       17.510      -16.769       33.025       26.189       18.550     1090.669      685.871      344.111        0.388        0.106       73.196       10.622        0.021      331.861        0.151      851.877
12/31/2021  09:27:00     -161.492      112.327      -18.331       64.039       55.140       34.299     4100.967     3040.421     1176.400        2.367        0.416      196.716       29.203        0.022      331.773        0.002      851.933
12/31/2021  09:28:00     -108.547       47.630      -13.643       59.982       49.660       33.714     3597.875     2466.112     1136.651        1.072        0.360      118.537       38.819        0.107      331.740       -0.050      851.973
12/31/2021  09:29:00      -56.036       34.413      -12.936       41.070       36.402       21.271     1686.726     1325.105      452.465        0.398        0.173       65.760       18.992        0.083      331.822        0.084      851.998
12/31/2021  09:30:00        3.639       30.459       -2.939       73.752       60.878       28.764     5439.388     3706.097      827.339        0.546        0.499       30.675       16.484        0.289      331.925        0.254      852.015
12/31/2021  09:31:00      -13.485       47.974       -8.501       27.751       35.258       17.606      770.115     1243.160      309.966        0.244        0.116       49.833       11.770        0.056      331.988        0.358      852.048
12/31/2021  09:32:00        1.201       -2.072      -17.218       13.510       13.586        9.254      182.522      184.586       85.644        0.038        0.023        2.395        6.350        7.031      332.064        0.483      852.070
12/31/2021  09:33:00      -13.465      -28.773      -22.332       29.883       19.360       16.571      892.990      374.824      274.595        0.152        0.077       31.768       11.306        0.127      332.002        0.382      852.057
12/31/2021  09:34:00      -65.916      -23.466      -14.725       24.367       23.622       17.017      593.774      557.976      289.594        0.328        0.072       69.969       11.631        0.028      331.830        0.100      852.035
12/31/2021  09:35:00      -33.960      -32.758       -8.941       18.462       20.558       24.283      340.852      422.614      589.678        0.183        0.068       47.184       11.159        0.056      331.989        0.361      852.017
12/31/2021  09:36:00      -23.062       -8.754       -6.442       21.632       13.622       16.638      467.944      185.551      276.838        0.079        0.047       24.667       14.806        0.360      332.207        0.720      852.006
12/31/2021  09:37:00        5.844        2.303       -5.259       16.275       21.464       17.158      264.891      460.704      294.403        0.054        0.051        6.281        8.930        2.021      332.234        0.765      852.004
12/31/2021  09:38:00      -53.674      -34.198      -21.232       29.741       45.673       22.241      884.555     2086.039      494.659        0.398        0.173       63.643       17.419        0.075      332.019        0.409      852.014
12/31/2021  09:39:00      -65.600      -18.678       -8.956       53.425       51.837       23.706     2854.254     2687.057      561.961        0.542        0.305       68.207       24.470        0.129      332.108        0.557      852.041
12/31/2021  09:40:00      -84.389        2.705       -5.169       45.509       34.965       30.753     2071.101     1222.531      945.731        0.570        0.212       84.432       25.249        0.089      332.028        0.425      852.076
12/31/2021  09:41:00      -64.267       -3.793      -16.783       43.369       23.808       25.870     1880.883      566.823      669.269        0.377        0.156       64.379       17.214        0.071      331.973        0.334      852.094
12/31/2021  09:42:00      -30.510        9.516      -13.623       22.046       16.694       17.833      486.016      278.699      318.022        0.114        0.054       31.959        9.664        0.091      331.993        0.367      852.091
12/31/2021  09:43:00      -26.485        2.568       -7.258       29.962       21.519       18.918      897.708      463.079      357.890        0.124        0.086       26.609       14.501        0.297      332.124        0.583      852.079
12/31/2021  09:44:00      -43.501        6.267       -4.324       30.308       16.912       15.924      918.568      286.032      253.581        0.170        0.073       43.950       16.337        0.138      332.132        0.598      852.071
12/31/2021  09:45:00      -39.021       -6.613       -9.763       37.428       24.591       18.812     1400.838      604.728      353.879        0.201        0.118       39.578       17.327        0.192      332.128        0.589      852.065
12/31/2021  09:46:00       22.294       19.140      -15.795       16.024       23.706       20.386      256.780      561.982      415.574        0.117        0.062       29.383        7.333        0.062      332.179        0.671      852.063
12/31/2021  09:47:00      -16.417       28.839       -1.284       38.996       29.380       13.025     1520.683      863.194      169.656        0.183        0.128       33.184        9.889        0.089      332.236        0.766      852.087
12/31/2021  09:48:00       24.078      156.061      -17.347       54.753       70.539       37.496     2997.936     4975.685     1405.927        1.731        0.469      157.907       36.721        0.054      332.227        0.750      852.135
12/31/2021  09:49:00       10.747      134.544      -15.209       41.862       85.060       41.095     1752.444     7235.168     1688.772        1.456        0.534      134.973       16.183        0.014      332.142        0.609      852.134
12/31/2021  09:50:00      -48.153      154.886      -24.105      167.379      101.913       49.662    28015.807    10386.305     2466.295        3.387        2.043      162.199       39.849        0.060      332.247        0.782      852.134
12/31/2021  09:51:00      -68.300       54.113      -25.415       99.748       77.646       41.585     9949.582     6028.834     1729.322        1.297        0.885       87.139       44.665        0.263      332.255        0.798      852.149
12/31/2021  09:52:00      -56.196       23.635      -22.316      175.633       63.807       63.131    30846.987     4071.271     3985.481        2.155        1.945       60.964       54.312        0.794      332.274        0.830      852.108
12/31/2021  09:53:00      -81.664      159.597      -18.680       72.118       84.366       63.318     5201.007     7117.667     4009.222        2.441        0.816      179.277       42.405        0.056      332.267        0.816      852.116
12/31/2021  09:54:00     -103.213      147.058      -19.187       92.978       92.438       50.255     8644.954     8544.700     2525.585        2.618        0.986      179.664       40.251        0.050      332.315        0.894      852.112
12/31/2021  09:55:00      -99.318      290.163      -29.736      107.456      100.310       55.923    11546.869    10062.056     3127.436        5.984        1.237      306.690       41.927        0.019      332.279        0.836      852.084
12/31/2021  09:56:00      -63.885      151.280      -24.548       96.043       75.670       56.420     9224.290     5725.944     3183.164        2.285        0.907      164.216       46.804        0.081      332.337        0.931      852.071
12/31/2021  09:57:00      -11.952      240.964      -35.879       78.378      112.554       50.267     6143.035    12668.316     2526.789        4.041        1.067      241.260       48.580        0.041      332.301        0.873      852.069
12/31/2021  09:58:00       55.549      267.894      -35.468      103.227      116.073       46.829    10655.809    13473.042     2192.909        5.121        1.316      273.592       40.198        0.022      332.256        0.797      852.061
12/31/2021  09:59:00      -36.999      280.114      -37.779      128.760      130.556       76.063    16579.013    17044.824     5785.646        6.033        1.970      282.547       48.383        0.029      332.379        1.000      852.075
12/31/2021  10:00:00      -53.952      394.980      -36.510      100.477      129.017       74.849    10095.690    16645.263     5602.435        9.629        1.617      398.648       66.499        0.028      332.199        0.702      852.085
12/31/2021  10:01:00      -50.516      298.446      -33.604      109.452      124.102       65.018    11979.832    15401.405     4227.322        6.217        1.580      302.691       56.474        0.035      332.267        0.814      852.037
12/31/2021  10:02:00      -84.867      280.297      -36.028       73.632      155.970       54.238     5421.632    24326.489     2941.718        5.987        1.634      292.863       32.452        0.012      332.329        0.917      851.994
12/31/2021  10:03:00      -58.753      220.000      -19.737       98.204      137.065       63.585     9644.003    18786.786     4043.109        4.235        1.624      227.710       64.299        0.080      332.350        0.953      851.973
12/31/2021  10:04:00     -119.966      361.015      -28.836      119.849      109.244       65.678    14363.807    11934.331     4313.588        8.808        1.531      380.426       54.268        0.020      332.340        0.936      851.938
12/31/2021  10:05:00     -104.370      362.656      -28.508      145.228      108.415       68.324    21091.230    11753.810     4668.212        9.036        1.876      377.376       57.458        0.023      332.234        0.761      851.984
12/31/2021  10:06:00      -59.482      249.243      -29.773       92.206       92.928       53.614     8501.963     8635.551     2874.411        4.328        1.001      256.243       35.633        0.019      332.300        0.870      852.006
12/31/2021  10:07:00      -39.921      178.343      -23.145       50.649       89.116       40.954     2565.328     7941.700     1677.214        2.306        0.609      182.757       15.308        0.007      332.234        0.762      852.010
12/31/2021  10:08:00      -31.964      103.973        5.835       57.115       76.909       47.227     3262.111     5914.979     2230.390        1.163        0.570      108.776       35.677        0.108      332.593        1.356      851.977
12/31/2021  10:09:00      -97.399      317.106      -15.862      134.993      164.842       85.627    18223.218    27172.967     7332.018        8.150        2.636      331.727       65.244        0.039      332.362        0.972      851.997
12/31/2021  10:10:00     -141.110      321.440      -39.738      164.832      144.455       67.622    27169.425    20867.291     4572.714        8.870        2.630      351.049       61.880        0.031      332.287        0.850      852.030
12/31/2021  10:11:00      -79.634      205.610      -21.948      130.516      116.917       59.639    17034.382    13669.527     3556.798        4.167        1.713      220.493       47.191        0.046      332.280        0.837      852.061
12/31/2021  10:12:00      -50.493       81.813      -26.914       85.323       81.233       64.293     7280.010     6598.817     4133.579        1.399        0.901       96.140       49.280        0.263      332.423        1.074      852.068
12/31/2021  10:13:00      -66.569      230.669      -12.487      105.166       85.902       75.231    11059.804     7379.074     5659.646        4.094        1.205      240.082       43.132        0.032      332.358        0.965      852.095
12/31/2021  10:14:00     -126.249      117.428      -44.168      152.467       63.283       52.598    23246.117     4004.696     2766.538        3.084        1.501      172.419       51.935        0.091      332.413        1.057      852.119
12/31/2021  10:15:00        7.907      124.700      -20.516       61.467      120.901       54.658     3778.213    14617.157     2987.468        1.870        1.069      124.951       14.793        0.014      332.577        1.330      852.132
12/31/2021  10:16:00      -55.640      148.780      -28.066      100.685      108.486       47.301    10137.428    11769.283     2237.369        2.508        1.207      158.843       28.366        0.032      332.491        1.185      852.158
12/31/2021  10:17:00      -74.649      229.597      -32.084       95.619      101.458       59.475     9142.957    10293.656     3537.328        4.114        1.149      241.428       53.440        0.049      332.423        1.073      852.160
12/31/2021  10:18:00      -61.526      341.896      -31.816      103.733      106.910       66.874    10760.474    11429.821     4472.118        7.417        1.333      347.388       49.942        0.021      332.298        0.866      852.155
12/31/2021  10:19:00     -148.510      232.230      -48.038      105.098      128.702       63.655    11045.601    16564.215     4052.014        5.497        1.583      275.656       32.325        0.014      332.371        0.987      852.157
12/31/2021  10:20:00      -58.851      330.887      -34.463      115.146      113.611       70.247    13258.558    12907.385     4934.696        7.261        1.555      336.080       37.652        0.013      332.338        0.932      852.173
12/31/2021  10:21:00      -92.942      196.346      -20.530      111.923       84.206       87.500    12526.849     7090.714     7656.192        3.744        1.364      217.233       45.708        0.044      332.371        0.986      852.177
12/31/2021  10:22:00      -58.615      256.659      -28.321       72.470      105.966       55.328     5251.953    11228.749     3061.196        4.482        0.977      263.267       29.129        0.012      332.387        1.013      852.181
12/31/2021  10:23:00      -32.236      264.518      -27.664       87.246      115.219       58.474     7611.868    13275.468     3419.261        4.804        1.215      266.475       56.581        0.045      332.384        1.008      852.197
12/31/2021  10:24:00     -107.368      191.583      -37.124       99.669       96.399       53.324     9933.820     9292.735     2843.454        3.584        1.104      219.618       40.271        0.034      332.445        1.108      852.199
12/31/2021  10:25:00     -118.172      297.195      -38.857       99.096      113.673       58.851     9819.932    12921.574     3463.424        6.500        1.310      319.828       34.985        0.012      332.411        1.053      852.222
12/31/2021  10:26:00     -100.018      336.137      -51.835      112.216      114.892       59.266    12592.443    13200.183     3512.469        7.749        1.465      350.702       36.560        0.011      332.419        1.066      852.270
12/31/2021  10:27:00     -115.544      348.439      -33.700      106.519      119.124       69.203    11346.218    14190.481     4789.015        8.311        1.516      367.097       46.760        0.016      332.372        0.988      852.288
12/31/2021  10:28:00      -45.726      270.509      -10.118       96.189      133.580       65.321     9252.294    17843.563     4266.876        5.336        1.568      274.346       61.892        0.051      332.419        1.066      852.292
12/31/2021  10:29:00       43.479      336.832      -13.995      108.808      165.697       70.352    11839.262    27455.595     4949.367        7.989        2.212      339.627       73.736        0.047      332.604        1.372      852.287
12/31/2021  10:30:00       37.269      348.205      -13.844      105.877      110.489       73.017    11209.985    12207.748     5331.542        7.578        1.437      350.194       59.115        0.028      332.497        1.194      852.287
12/31/2021  10:31:00      -81.066      181.279      -32.859      115.574       89.672       67.125    13357.291     8041.139     4505.727        3.320        1.295      198.580       51.115        0.066      332.589        1.346      852.299
12/31/2021  10:32:00      -47.077      247.469      -27.338      104.495      159.103       57.993    10919.110    25313.687     3363.187        5.189        1.980      251.907       50.647        0.040      332.557        1.295      852.291
12/31/2021  10:33:00      -58.891      308.836      -21.468      118.463      125.576       64.158    14033.470    15769.307     4116.270        6.661        1.696      314.401       50.709        0.026      332.511        1.218      852.272
12/31/2021  10:34:00      -83.096      257.890       -7.640      105.350      116.811       59.679    11098.681    13644.834     3561.553        5.088        1.415      270.947       40.318        0.022      332.550        1.281      852.269
12/31/2021  10:35:00       -7.575      211.273      -19.680      119.280      115.124       67.863    14227.653    13253.547     4605.354        3.858        1.604      211.409       42.736        0.041      332.629        1.413      852.257
12/31/2021  10:36:00      -34.405      193.926      -18.542       79.180      102.813       56.062     6269.509    10570.579     3143.004        2.956        0.999      196.954       29.824        0.023      332.578        1.329      852.255
12/31/2021  10:37:00       -2.419      341.800      -31.321      150.932      142.194       67.716    22780.351    20219.029     4585.490        8.269        2.379      341.809       74.296        0.047      332.489        1.182      852.261
12/31/2021  10:38:00        6.793      366.186      -32.019      124.825      109.021       64.413    15581.174    11885.549     4149.010        8.338        1.581      366.249       49.816        0.019      332.388        1.014      852.270
12/31/2021  10:39:00       14.624      250.665      -17.627       79.449      129.786       58.079     6312.092    16844.418     3373.181        4.494        1.326      251.091       55.815        0.049      332.542        1.270      852.254
12/31/2021  10:40:00       59.356      247.986      -12.459       81.455      103.869       68.104     6634.851    10788.690     4638.207        4.361        1.103      254.991       66.403        0.068      332.560        1.298      852.226
12/31/2021  10:41:00       29.277      239.103      -34.006       99.835      114.556       68.431     9966.975    13123.052     4682.865        4.347        1.389      240.889       58.367        0.059      332.603        1.371      852.213
12/31/2021  10:42:00      -34.032      214.597      -32.996      125.557       78.059       52.208    15764.549     6093.206     2725.720        3.644        1.229      217.279       26.662        0.015      332.596        1.359      852.210
12/31/2021  10:43:00        6.769      263.954      -31.579       85.084       83.467       50.076     7239.245     6966.682     2507.623        4.371        0.836      264.040       42.021        0.025      332.517        1.228      852.203
12/31/2021  10:44:00      -78.829      164.897      -15.628      110.349      128.807       79.194    12177.000    16591.124     6271.746        3.434        1.752      182.771       71.046        0.151      332.595        1.358      852.195
12/31/2021  10:45:00        6.473      206.407      -11.046       86.687      101.841       51.857     7514.713    10371.666     2689.171        3.167        1.029      206.509       47.843        0.054      332.682        1.500      852.193
12/31/2021  10:46:00      -33.186      232.067      -28.518      127.065       82.704       60.891    16145.482     6840.006     3707.769        4.123        1.335      234.427       46.116        0.039      332.591        1.350      852.193
12/31/2021  10:47:00      -50.330      286.109      -48.881      124.812      111.736       54.524    15577.971    12484.954     2972.897        5.890        1.552      290.502       49.918        0.030      332.419        1.066      852.195
12/31/2021  10:48:00       49.594      250.936      -20.848       77.387      145.474       63.074     5988.672    21162.807     3978.385        4.849        1.556      255.790       61.112        0.057      332.667        1.476      852.180
12/31/2021  10:49:00      -12.548      324.075      -21.726      101.916      153.053       66.773    10386.885    23425.089     4458.608        7.196        1.914      324.318       70.671        0.047      332.484        1.173      852.171
12/31/2021  10:50:00       81.699      364.394      -26.993      101.457      162.238       71.646    10293.472    26321.090     5133.170        9.096        2.087      373.441       79.910        0.046      332.443        1.105      852.164
12/31/2021  10:51:00       40.403      316.786      -36.497      116.047       96.437       63.397    13466.824     9300.069     4019.156        6.505        1.339      319.352       43.673        0.019      332.487        1.179      852.147
12/31/2021  10:52:00      -41.499      260.603      -37.210       95.595      157.761       51.756     9138.317    24888.614     2678.652        5.386        1.835      263.887       56.243        0.045      332.476        1.162      852.128
12/31/2021  10:53:00      -42.265      312.321      -41.716      138.013      136.659       63.640    19047.603    18675.679     4049.996        7.141        2.089      315.168       39.199        0.015      332.539        1.263      852.112
12/31/2021  10:54:00      -10.440      333.337      -35.384      100.143       98.354       54.323    10028.622     9673.592     2950.939        6.756        1.133      333.501       47.944        0.021      332.567        1.310      852.125
12/31/2021  10:55:00      114.746      377.876      -46.027      130.426      133.858       72.295    17011.042    17917.983     5226.537        9.911        2.008      394.914       71.613        0.033      332.518        1.229      852.136
12/31/2021  10:56:00      -34.098      357.387      -43.595      172.353      152.908       58.980    29705.619    23380.917     3478.596        9.367        2.828      359.010       63.743        0.032      332.282        0.841      852.155
12/31/2021  10:57:00      173.770      351.440      -45.420      130.548      133.390       82.781    17042.708    17792.977     6852.690        9.872        2.084      392.053       80.652        0.042      332.194        0.695      852.179
12/31/2021  10:58:00      276.713      442.994      -70.781       92.399      192.663       74.277     8537.573    37118.860     5517.144       16.449        2.559      522.316       83.146        0.025      331.987        0.353      852.178
12/31/2021  10:59:00      130.956      316.606      -37.644      104.384      135.933       58.611    10896.065    18477.828     3435.233        7.580        1.640      342.620       56.223        0.027      332.127        0.585      852.195
12/31/2021  11:00:00      134.069      264.244      -25.459      126.354      130.195       67.850    15965.308    16950.746     4603.676        6.298        1.876      296.309       61.769        0.043      332.158        0.634      852.212
12/31/2021  11:01:00      153.288      213.958      -43.407      130.607      111.263       72.718    17058.270    12379.425     5287.894        5.294        1.736      263.202       60.540        0.053      332.132        0.593      852.217
12/31/2021  11:02:00       49.191      197.199      -26.471       69.552      102.049       48.423     4837.430    10413.976     2344.788        2.980        0.880      203.242       50.437        0.062      332.173        0.659      852.220
12/31/2021  11:03:00       43.224      195.929       -2.417      124.852      101.623       54.436    15588.090    10327.241     2963.302        3.457        1.444      200.640       49.777        0.062      332.127        0.584      852.215
12/31/2021  11:04:00       80.663      176.608      -27.816      109.275      161.723       58.973    11941.090    26154.355     3477.842        4.001        2.079      194.157       68.446        0.124      332.092        0.528      852.207
12/31/2021  11:05:00      197.995      353.792      -54.669      135.413      145.632       76.112    18336.634    21208.666     5793.053       10.634        2.267      405.427       79.349        0.038      331.829        0.093      852.200
12/31/2021  11:06:00      186.523      344.452      -53.651       83.013       83.875       69.009     6891.181     7035.076     4762.176        8.750        0.934      391.712       58.305        0.022      331.842        0.114      852.186
12/31/2021  11:07:00      261.710      344.890      -52.141      114.652      155.959       69.053    13145.193    24323.098     4768.377       11.619        2.112      432.945       58.037        0.018      331.740       -0.053      852.166
12/31/2021  11:08:00      196.175      300.420      -43.643      128.420      138.887       68.429    16491.570    19289.524     4682.592        8.555        2.023      358.799       60.174        0.028      331.832        0.098      852.137
12/31/2021  11:09:00      283.053      253.496      -54.031      164.199      147.671       88.184    26961.228    21806.591     7776.396       10.191        2.827      379.972       81.203        0.046      331.731       -0.068      852.112
12/31/2021  11:10:00      205.110      400.353      -51.180      203.088      182.194      101.500    41244.542    33194.813    10302.166       14.484        4.237      449.836       97.553        0.047      331.672       -0.164      852.093
12/31/2021  11:11:00      228.110      342.501      -58.964      134.554      160.785       90.012    18104.731    25851.886     8102.177       11.243        2.603      411.511       91.448        0.049      331.696       -0.126      852.083
12/31/2021  11:12:00      206.475      414.211      -57.497      115.829      167.102       68.002    13416.296    27923.185     4624.272       13.173        2.298      462.820       68.239        0.022      331.684       -0.145      852.079
12/31/2021  11:13:00      287.964      433.680      -65.744      157.174      181.990      107.498    24703.548    33120.496    11555.863       17.234        3.469      520.578      115.421        0.049      331.662       -0.181      852.092
12/31/2021  11:14:00      269.305      459.072      -66.143      147.867      183.131       99.899    21864.697    33537.017     9979.851       17.650        3.269      532.233       94.736        0.032      331.631       -0.232      852.105
12/31/2021  11:15:00      171.178      463.131      -50.637      163.860      233.409       94.978    26850.126    54479.634     9020.824       16.834        4.518      493.753      104.117        0.044      331.656       -0.191      852.110
12/31/2021  11:16:00      186.058      349.306      -51.257      122.340      146.359       63.341    14967.075    21421.041     4012.091        9.982        2.020      395.768       62.572        0.025      331.655       -0.193      852.080
12/31/2021  11:17:00      224.282      415.577      -48.409      184.981      193.908       91.238    34217.826    37600.276     8324.463       15.273        4.007      472.236      103.611        0.048      331.661       -0.183      852.084
12/31/2021  11:18:00      218.734      423.267      -65.642      163.344      166.814      106.866    26681.364    27826.961    11420.436       14.861        3.296      476.444       95.476        0.040      331.630       -0.235      852.067
12/31/2021  11:19:00      136.864      393.181      -28.178      158.768      199.250      103.095    25207.381    39700.738    10628.502       12.481        3.777      416.321       95.339        0.052      331.654       -0.195      852.036
12/31/2021  11:20:00       87.827      419.446      -35.430      141.856      200.773       82.806    20123.205    40309.848     6856.770       12.608        3.364      428.543       85.390        0.040      331.633       -0.230      852.017
12/31/2021  11:21:00      100.732      236.683       -0.778      114.595      168.050       73.840    13131.907    28240.742     5452.291        5.649        2.341      257.227       78.822        0.094      331.755       -0.026      852.011
12/31/2021  11:22:00      177.330      240.261      -14.923      131.882      152.089       86.293    17392.903    23130.937     7446.415        6.867        2.399      298.615       84.119        0.079      331.829        0.094      851.986
12/31/2021  11:23:00      160.561      297.948      -39.264      153.754      138.075       71.898    23640.271    19064.636     5169.286        8.198        2.394      338.456       57.399        0.029      331.760       -0.021      851.968
12/31/2021  11:24:00      141.125      406.675      -43.920      141.725      154.091       82.133    20086.065    23744.182     6745.748       11.889        2.529      430.466       81.324        0.036      331.756       -0.027      851.988
12/31/2021  11:25:00      213.596      364.856      -58.962      144.368      129.062       79.674    20841.988    16656.922     6348.012       11.303        2.192      422.781       82.583        0.038      331.769       -0.006      851.995
12/31/2021  11:26:00      233.061      374.928      -52.089      171.737      174.582       94.526    29493.633    30479.020     8935.077       13.324        3.445      441.462       91.195        0.043      331.645       -0.209      851.999
12/31/2021  11:27:00       83.335      285.955      -29.856      120.575      124.206       68.587    14538.290    15427.248     4704.111        6.213        1.733      297.850       63.320        0.045      331.766       -0.011      851.988
12/31/2021  11:28:00      142.130      330.360      -14.927      134.836      160.624       89.761    18180.824    25800.102     8056.983        9.079        2.602      359.636       88.162        0.060      331.691       -0.134      851.962
12/31/2021  11:29:00      196.082      377.410      -58.204      125.208      150.094       76.533    15677.124    22528.352     5857.243       11.416        2.203      425.308       73.050        0.030      331.694       -0.129      851.938
12/31/2021  11:30:00      -43.103      324.036      -30.688      138.622      118.714       87.429    19216.050    14093.055     7643.848        7.437        2.048      326.890       66.365        0.041      331.678       -0.155      851.931
12/31/2021  11:31:00       40.791      376.351      -39.248      168.267      164.880       72.648    28313.860    27185.285     5277.746       10.280        3.039      378.555       77.075        0.041      331.685       -0.144      851.936
12/31/2021  11:32:00       23.585      443.438      -55.883      175.338      160.584       80.047    30743.538    25787.085     6407.521       13.162        3.147      444.065       74.438        0.028      331.603       -0.278      851.916
12/31/2021  11:33:00      161.598      516.215      -60.273      187.097      177.590       95.071    35005.112    31538.120     9038.515       18.589        3.779      540.918       89.734        0.028      331.544       -0.377      851.907
12/31/2021  11:34:00      144.733      508.231      -46.043      149.952      204.113       95.961    22485.655    41661.946     9208.510       17.735        3.668      528.438      106.367        0.041      331.549       -0.368      851.929
12/31/2021  11:35:00      156.066      671.097      -55.667      173.618      209.209      102.743    30143.089    43768.564    10556.169       28.113        4.223      689.005       98.903        0.021      331.439       -0.548      851.919
12/31/2021  11:36:00       83.830      500.554      -41.749      190.929      174.500       88.170    36453.791    30450.244     7773.915       16.699        3.734      507.525       90.126        0.032      331.509       -0.433      851.912
12/31/2021  11:37:00      157.517      542.659      -68.072      172.946      193.877       95.926    29910.214    37588.313     9201.720       20.030        3.835      565.058       91.709        0.026      331.465       -0.505      851.890
12/31/2021  11:38:00       50.726      354.434      -33.245      140.158      126.102       79.200    19644.192    15901.708     6272.640        8.555        2.091      358.045       65.552        0.034      331.586       -0.305      851.859
12/31/2021  11:39:00      115.526      387.210      -44.504      168.313      225.681       97.512    28329.353    50932.007     9508.577       12.700        4.438      404.076       94.345        0.055      331.509       -0.433      851.843
12/31/2021  11:40:00      140.270      625.371      -70.947      186.514      186.845      116.579    34787.518    34911.225    13590.733       24.953        4.164      640.909      117.267        0.033      331.424       -0.573      851.807
12/31/2021  11:41:00      178.418      696.380      -58.168      176.073      217.700      100.217    31001.583    47393.356    10043.482       30.428        4.422      718.873      115.735        0.026      331.357       -0.683      851.805
12/31/2021  11:42:00      155.937      611.894      -60.133      148.484      188.526       96.086    22047.610    35542.059     9232.520       23.457        3.341      631.451       98.143        0.024      331.389       -0.632      851.817
12/31/2021  11:43:00       97.600      476.630      -59.477      198.931      199.173      105.545    39573.741    39670.038    11139.779       16.529        4.519      486.520       61.493        0.016      331.474       -0.491      851.820
12/31/2021  11:44:00       -2.101      505.267      -44.829      153.157      170.526       91.615    23457.053    29079.043     8393.223       15.911        3.046      505.272       80.175        0.025      331.500       -0.449      851.814
12/31/2021  11:45:00      119.951      514.400      -56.685      183.043      165.901       99.280    33504.609    27523.064     9856.553       17.653        3.544      528.200       96.315        0.033      331.479       -0.483      851.806
12/31/2021  11:46:00       27.876      445.410      -27.508      182.152      171.834       95.001    33179.240    29526.848     9025.253       13.581        3.587      446.282       92.781        0.043      331.515       -0.424      851.784
12/31/2021  11:47:00      116.555      559.378      -63.875      203.436      149.151       98.003    41386.267    22246.010     9604.551       20.189        3.662      571.392       87.979        0.024      331.441       -0.546      851.773
12/31/2021  11:48:00      131.479      488.786      -56.260      166.087      180.898      101.891    27585.057    32724.248    10381.823       16.501        3.535      506.160       91.338        0.033      331.447       -0.534      851.767
12/31/2021  11:49:00      134.954      553.947      -43.494      147.984      215.017       95.673    21899.216    46232.272     9153.235       20.211        3.864      570.149      107.907        0.036      331.435       -0.554      851.763
12/31/2021  11:50:00      125.300      549.048      -55.359      204.023      194.637       96.395    41625.499    37883.453     9291.957       20.449        4.440      563.164       94.503        0.028      331.418       -0.583      851.741
12/31/2021  11:51:00      121.441      575.895      -44.887      152.414      229.501       92.926    23230.108    52670.662     8635.290       21.646        4.227      588.560      107.271        0.033      331.401       -0.611      851.735
12/31/2021  11:52:00       82.644      477.681      -38.219      164.996      184.251       98.123    27223.556    33948.593     9628.208       15.362        3.540      484.777       95.660        0.039      331.423       -0.575      851.719
12/31/2021  11:53:00       76.889      354.237      -28.120      166.071      160.009       92.006    27579.444    25602.783     8465.099        9.691        3.082      362.485       89.644        0.061      331.498       -0.451      851.713
12/31/2021  11:54:00       87.322      320.618      -26.569      147.881      227.556       93.442    21868.743    51781.814     8731.459        9.674        4.119      332.297      112.314        0.114      331.523       -0.410      851.712
12/31/2021  11:55:00      117.991      381.397      -51.707      134.173      150.461       73.958    18002.525    22638.505     5469.800       10.408        2.306      399.231       71.726        0.032      331.516       -0.423      851.695
12/31/2021  11:56:00      141.382      423.247      -57.018      140.901      145.693       77.005    19853.032    21226.516     5929.723       12.469        2.350      446.236       75.789        0.029      331.509       -0.434      851.689
12/31/2021  11:57:00       83.684      378.698      -21.771      158.822      186.307       91.110    25224.331    34710.135     8300.957       10.955        3.412      387.834       95.843        0.061      331.527       -0.402      851.691
12/31/2021  11:58:00       75.919      513.635      -53.058      168.624      174.665       94.191    28434.083    30507.966     8871.873       17.009        3.391      519.216      100.218        0.037      331.508       -0.436      851.699
12/31/2021  11:59:00       28.641      400.446      -47.727      148.798      131.880       70.280    22140.836    17392.375     4939.269       10.396        2.224      401.469       58.696        0.021      331.575       -0.325      851.719
12/31/2021  12:00:00       90.604      415.598      -46.476      136.748      152.297       60.241    18700.030    23194.262     3628.980       11.430        2.276      425.359       51.786        0.015      331.627       -0.239      851.715
12/31/2021  12:01:00       63.863      389.902      -37.505      124.898      128.801       72.842    15599.423    16589.583     5305.901        9.749        1.875      395.097       63.334        0.026      331.683       -0.146      851.746
12/31/2021  12:02:00       63.828      409.730      -37.428      170.882      191.138       85.048    29200.587    36533.824     7233.225       12.315        3.648      414.672       93.857        0.051      331.719       -0.087      851.755
12/31/2021  12:03:00       83.051      522.752      -61.141      215.807      227.334       95.270    46572.623    51680.530     9076.386       19.560        5.366      529.308       92.752        0.031      331.669       -0.170      851.753
12/31/2021  12:04:00      -61.894      403.867      -35.143      155.095      153.609       68.977    24054.387    23595.857     4757.880       11.028        2.620      408.582       71.585        0.031      331.730       -0.068      851.766
12/31/2021  12:05:00      -10.260      307.568      -19.316       99.945      109.112       61.160     9989.094    11905.418     3740.519        6.035        1.282      307.739       57.935        0.035      331.892        0.197      851.758
12/31/2021  12:06:00       22.838      298.052      -30.432      119.357      106.512       67.899    14246.074    11344.761     4610.234        6.024        1.510      298.926       46.756        0.024      331.930        0.260      851.766
12/31/2021  12:07:00      -12.938      471.231      -48.758      157.980      152.721       85.566    24957.550    23323.658     7321.569       14.009        2.780      471.409       75.282        0.026      331.849        0.126      851.757
12/31/2021  12:08:00      -31.701      488.007      -45.255      221.855      178.841       87.173    49219.688    31984.146     7599.100       16.499        4.440      489.035       64.368        0.017      331.718       -0.089      851.752
12/31/2021  12:09:00       19.727      505.980      -41.760      125.314      200.328       89.667    15703.485    40131.165     8040.109       16.100        3.194      506.365       93.556        0.034      331.698       -0.123      851.756
12/31/2021  12:10:00     -116.048      455.978      -57.195      152.918      156.342       92.180    23383.961    24442.743     8497.072       14.048        2.816      470.513       70.438        0.022      331.697       -0.124      851.773
12/31/2021  12:11:00       11.143      366.829      -31.815      126.997      135.167       83.100    16128.156    18270.010     6905.578        8.849        2.065      366.999       64.431        0.031      331.814        0.069      851.775
12/31/2021  12:12:00      -72.791      318.165      -43.551      141.693      148.801       73.567    20076.809    22141.720     5412.081        7.802        2.382      326.385       37.046        0.013      331.861        0.146      851.775
12/31/2021  12:13:00      -28.063      483.076      -51.093      124.467      131.395       79.940    15491.959    17264.564     6390.396       13.795        1.957      483.890       70.548        0.021      331.738       -0.057      851.795
12/31/2021  12:14:00       43.710      393.353      -32.304      130.318      167.707       72.806    16982.888    28125.737     5300.745       10.404        2.520      395.774       70.142        0.031      331.855        0.136      851.798
12/31/2021  12:15:00      -76.808      359.427      -41.977      126.356      151.027       73.344    15965.786    22809.056     5379.342        9.049        2.208      367.542       52.706        0.021      331.937        0.271      851.788
12/31/2021  12:16:00     -166.615      415.553      -33.865      134.342      189.541       88.349    18047.698    35925.787     7805.633       13.167        3.089      447.711       85.056        0.036      331.874        0.168      851.812
12/31/2021  12:17:00      -85.710      433.637      -34.771      175.607      173.179       87.101    30837.918    29991.027     7586.518       13.249        3.421      442.026       78.412        0.031      331.827        0.091      851.765
12/31/2021  12:18:00      -58.133      371.326      -32.809      132.628      158.021       70.828    17590.218    24970.537     5016.579        9.495        2.379      375.849       67.208        0.032      332.031        0.426      851.790
12/31/2021  12:19:00      -31.432      370.308      -35.041      129.544      160.894       63.798    16781.596    25886.842     4070.145        9.303        2.337      371.639       61.999        0.028      331.917        0.237      851.788
12/31/2021  12:20:00       -2.745      397.849      -38.193      117.294      143.580       77.577    13757.936    20615.151     6018.150       10.006        2.020      397.858       68.166        0.029      331.819        0.078      851.777
12/31/2021  12:21:00       14.396      410.789      -38.331      115.942      157.623       77.261    13442.638    24845.089     5969.245       10.733        2.213      411.041       79.235        0.037      331.775        0.005      851.755
12/31/2021  12:22:00        0.275      307.306      -29.180       78.106      113.616       53.774     6100.485    12908.704     2891.674        5.859        1.095      307.306       48.148        0.025      331.938        0.273      851.765
12/31/2021  12:23:00       25.707      381.960      -43.216       91.941      132.881       70.756     8453.061    17657.373     5006.442        8.976        1.556      382.824       62.098        0.026      331.910        0.227      851.785
12/31/2021  12:24:00      -21.523      322.290      -34.030      147.770      164.018       74.620    21835.998    26901.981     5568.218        7.989        2.715      323.008       51.851        0.026      331.945        0.285      851.814
12/31/2021  12:25:00      105.944      395.899      -43.229      147.253      133.665       89.604    21683.509    17866.393     8028.947       10.870        2.379      409.829       87.940        0.046      331.874        0.166      851.807
12/31/2021  12:26:00      165.479      406.021      -45.212       98.696      108.278       60.743     9740.816    11724.022     3689.678       10.971        1.258      438.448       55.969        0.016      331.792        0.031      851.784
12/31/2021  12:27:00      -79.445      211.123      -39.679      102.200      106.570       69.942    10444.740    11357.194     4891.887        3.957        1.335      225.575       34.860        0.024      332.092        0.527      851.834
12/31/2021  12:28:00      -59.701      338.260      -39.934       94.231      137.517       61.821     8879.562    18910.934     3821.840        7.559        1.581      343.488       57.259        0.028      332.026        0.418      851.851
12/31/2021  12:29:00      -35.144      454.579      -55.646      133.726      118.686       68.461    17882.535    14086.393     4686.968       12.381        1.833      455.935       48.166        0.011      331.904        0.218      851.845
12/31/2021  12:30:00      -60.281      391.231      -30.941      109.470      142.345       69.882    11983.787    20262.084     4883.484        9.738        1.856      395.848       49.827        0.016      331.920        0.244      851.838
12/31/2021  12:31:00       24.727      228.090      -22.790       64.156      121.982       51.285     4115.999    14879.634     2630.149        3.739        1.081      229.427       31.594        0.019      332.134        0.597      851.831
12/31/2021  12:32:00      -15.005      218.062      -28.183       86.525       77.205       53.390     7486.506     5960.635     2850.537        3.243        0.815      218.578       48.787        0.050      332.074        0.497      851.810
12/31/2021  12:33:00       93.078      305.417      -27.756       87.129      126.664       61.561     7591.482    16043.887     3789.727        6.506        1.371      319.285       62.900        0.039      332.069        0.488      851.778
12/31/2021  12:34:00       49.660      198.709      -25.340      116.485      138.058       51.249    13568.670    19060.021     2626.497        3.892        1.763      204.821       44.853        0.048      332.242        0.774      851.754
12/31/2021  12:35:00        7.313      402.315      -44.025      128.877      153.520       73.268    16609.332    23568.457     5368.211       10.469        2.277      402.381       68.893        0.029      331.875        0.170      851.789
12/31/2021  12:36:00       -5.787      331.410      -29.891      126.309      101.211       62.044    15953.985    10243.626     3849.442        7.040        1.502      331.461       57.206        0.030      331.996        0.368      851.760
12/31/2021  12:37:00       50.554      206.508      -22.838       86.329      129.133       61.611     7452.769    16675.410     3795.912        3.682        1.396      212.606       45.926        0.047      332.194        0.695      851.731
12/31/2021  12:38:00      -59.443      258.478      -33.784      125.145      122.068       47.843    15661.246    14900.698     2288.953        5.216        1.643      265.225       39.497        0.022      332.194        0.694      851.754
12/31/2021  12:39:00      -60.990      226.285      -31.750      119.258      112.315       71.751    14222.537    12614.665     5148.246        4.395        1.599      234.360       61.555        0.069      332.137        0.602      851.742
12/31/2021  12:40:00       14.859      379.134      -36.122      122.850      137.297       78.387    15092.033    18850.506     6144.545        9.267        2.004      379.426       76.059        0.040      331.966        0.319      851.716
12/31/2021  12:41:00      -71.091      288.409      -34.484      123.403       98.316       52.073    15228.278     9666.085     2711.649        5.851        1.380      297.042       39.002        0.017      332.097        0.535      851.673
12/31/2021  12:42:00      -59.515      206.231      -40.318      160.426      156.328       82.454    25736.566    24438.371     6798.628        5.233        2.849      214.647       72.468        0.114      332.361        0.971      851.673
12/31/2021  12:43:00      -95.658      320.304      -40.170      153.944      147.966       88.471    23698.861    21893.962     7827.039        8.338        2.671      334.283       86.016        0.066      332.010        0.392      851.706
12/31/2021  12:44:00      -73.355      351.440      -29.880      129.979      150.005       58.943    16894.636    22501.457     3474.323        8.632        2.144      359.014       41.911        0.014      331.998        0.372      851.690
12/31/2021  12:45:00       20.610      315.468      -31.857      142.182      192.768       77.473    20215.597    37159.345     6002.128        8.216        3.169      316.141       69.038        0.048      332.097        0.536      851.675
12/31/2021  12:46:00      -75.342      198.270      -32.081      114.560      123.607       64.918    13124.051    15278.595     4214.386        3.931        1.631      212.102       41.408        0.038      332.171        0.658      851.695
12/31/2021  12:47:00        5.481      345.212      -39.675      139.191      161.709       80.649    19374.017    26149.785     6504.330        8.639        2.601      345.255       69.353        0.040      332.073        0.496      851.701
12/31/2021  12:48:00       12.775      355.187      -29.911      114.737      164.679       81.948    13164.556    27119.317     6715.449        8.710        2.350      355.417       82.148        0.053      332.146        0.616      851.692
12/31/2021  12:49:00      -63.711      231.221      -21.592      109.917       99.819       56.518    12081.728     9963.811     3194.307        4.161        1.262      239.838       58.646        0.060      332.318        0.900      851.705
12/31/2021  12:50:00      -66.823      229.925      -33.903      132.189      104.919       64.197    17473.910    11008.058     4121.273        4.554        1.630      239.439       50.024        0.044      332.231        0.757      851.716
12/31/2021  12:51:00      -80.073      278.972      -39.328      112.174      145.749       60.986    12583.112    21242.833     3719.284        6.166        1.877      290.236       35.335        0.015      332.214        0.726      851.700
12/31/2021  12:52:00     -104.618      293.628      -39.304      155.676      207.724       82.967    24234.973    43149.085     6883.530        8.647        3.713      311.709       60.839        0.038      332.189        0.689      851.713
12/31/2021  12:53:00      -87.026      460.619      -60.008      135.597      145.436       78.851    18386.445    21151.687     6217.426       13.454        2.288      468.768       51.879        0.012      331.958        0.306      851.704
12/31/2021  12:54:00      -72.667      400.529      -33.476      147.109      155.712       79.343    21641.159    24246.086     6295.262       10.949        2.609      407.068       70.311        0.030      332.009        0.391      851.723
12/31/2021  12:55:00     -170.264      372.869      -33.668      134.622      133.720       77.791    18123.012    17881.101     6051.453       10.560        2.103      409.904       57.021        0.019      331.919        0.240      851.750
12/31/2021  12:56:00     -109.571      315.802      -37.980      167.283      132.573       79.039    27983.736    17575.489     6247.234        8.248        2.590      334.270       72.866        0.048      331.984        0.349      851.755
12/31/2021  12:57:00     -119.838      318.985      -31.432      108.734      128.227       63.859    11823.147    16442.081     4077.960        7.472        1.617      340.753       55.953        0.027      332.155        0.630      851.748
12/31/2021  12:58:00      -72.799      329.390      -36.166      151.876      164.078       72.489    23066.348    26921.670     5254.624        8.516        2.762      337.339       71.685        0.045      332.218        0.734      851.763
12/31/2021  12:59:00      -77.966      469.644      -48.011      153.128      147.621       94.763    23448.045    21791.997     8980.118       14.157        2.711      476.071       79.921        0.028      331.952        0.296      851.775
12/31/2021  13:00:00      -55.452      445.104      -42.385      127.125      167.777       69.721    16160.703    28149.033     4861.043       12.607        2.459      448.545       69.438        0.024      331.999        0.373      851.769
12/31/2021  13:01:00      -46.593      316.254      -11.395      124.198      114.104       76.806    15425.103    13019.706     5899.132        6.832        1.717      319.668       59.634        0.035      332.052        0.460      851.808
12/31/2021  13:02:00     -114.570      293.719      -23.585      107.045      129.858       49.351    11458.592    16863.072     2435.546        6.535        1.538      315.273       31.902        0.010      332.062        0.478      851.830
12/31/2021  13:03:00     -171.355      317.029      -50.203      119.801      131.783       82.736    14352.200    17366.863     6845.166        8.547        1.928      360.375       55.918        0.024      332.035        0.432      851.839
12/31/2021  13:04:00      -64.334      332.282      -41.431      117.161      154.896       58.402    13726.797    23992.636     3410.805        7.869        2.057      338.452       37.204        0.012      332.019        0.408      851.846
12/31/2021  13:05:00     -115.765      340.531      -29.309      121.346      120.777       49.025    14724.867    14587.199     2403.486        8.096        1.586      359.670       43.921        0.015      332.138        0.603      851.851
12/31/2021  13:06:00      -16.965      225.045      -20.443      122.994      105.515       68.650    15127.518    11133.450     4712.817        4.116        1.549      225.683       56.383        0.062      332.267        0.815      851.870
12/31/2021  13:07:00      -90.419      350.739      -24.455       92.920       98.463       59.443     8634.073     9694.910     3533.436        7.682        1.093      362.206       47.677        0.017      332.111        0.557      851.880
12/31/2021  13:08:00      -60.665      393.376      -43.533      152.825      112.321       75.478    23355.390    12616.074     5696.953       10.099        2.083      398.027       57.156        0.021      332.037        0.436      851.913
12/31/2021  13:09:00      -62.919      403.434      -35.842      133.015      173.153       86.783    17692.974    29982.093     7531.304       11.159        2.760      408.311       79.658        0.038      331.959        0.308      851.949
12/31/2021  13:10:00      -10.172      388.913      -27.770      106.929      129.619       71.535    11433.784    16801.208     5117.259        9.273        1.668      389.046       65.014        0.028      331.956        0.304      851.947
12/31/2021  13:11:00     -140.268      357.122      -49.181      110.752      185.306       71.962    12265.907    34338.271     5178.509       10.070        2.589      383.681       74.359        0.038      332.073        0.497      851.934
12/31/2021  13:12:00      -90.143      286.990      -23.817       91.486      119.698       59.005     8369.731    14327.647     3481.614        5.861        1.309      300.814       50.761        0.028      332.200        0.704      851.935
12/31/2021  13:13:00      -38.694      321.986      -23.045       80.289      130.044       69.393     6446.351    16911.446     4815.380        6.693        1.409      324.302       63.062        0.038      332.165        0.647      851.938
12/31/2021  13:14:00      -47.297      269.579      -28.755       88.235      100.574       64.699     7785.413    10115.111     4185.914        4.891        1.104      273.697       43.063        0.025      332.202        0.709      851.934
12/31/2021  13:15:00     -101.609      325.795      -30.110       85.987      109.577       60.450     7393.841    12007.020     3654.151        7.021        1.153      341.273       32.875        0.009      332.019        0.405      851.969
12/31/2021  13:16:00      -92.326      265.848      -25.961       89.948       81.389       58.105     8090.645     6624.219     3376.197        4.898        0.905      281.424       37.597        0.018      332.010        0.390      851.991
12/31/2021  13:17:00      -69.333      234.817      -27.566       64.735       85.660       48.722     4190.675     7337.620     2373.871        3.730        0.695      244.839       35.034        0.020      332.083        0.512      851.982
12/31/2021  13:18:00      -64.645      150.875      -15.992      105.610       76.937       68.874    11153.441     5919.237     4743.640        2.450        1.091      164.141       51.761        0.099      332.167        0.651      851.972
12/31/2021  13:19:00      -53.680      178.708      -21.516       66.338      129.437       53.298     4400.734    16753.860     2840.690        2.963        1.200      186.596       51.261        0.075      332.142        0.610      851.970
12/31/2021  13:20:00      -61.560      140.629      -21.997       96.270      100.412       52.798     9267.965    10082.614     2787.603        2.309        1.107      153.513       37.677        0.060      332.150        0.625      851.957
12/31/2021  13:21:00      -43.481      158.089      -19.574       86.620       68.636       37.697     7502.962     4710.934     1421.033        2.045        0.682      163.960       17.822        0.012      332.119        0.574      851.942
12/31/2021  13:22:00     -139.411      149.097      -38.779       93.062       81.161       58.289     8660.570     6587.117     3397.567        3.090        0.932      204.121       47.722        0.055      332.055        0.469      851.956
12/31/2021  13:23:00      -87.683       85.648      -32.165      172.523      131.917       76.913    29764.212    17402.208     5915.590        3.456        2.654      122.572       77.672        0.402      331.932        0.264      851.952
12/31/2021  13:24:00     -105.266      146.334      -28.773      114.777      155.077       63.796    13173.798    24048.907     4069.946        3.730        2.065      180.262       23.453        0.017      331.881        0.180      851.958
12/31/2021  13:25:00      -75.347      212.883      -31.679       78.232      100.335       69.100     6120.249    10067.063     4774.776        3.648        1.048      225.824       47.635        0.044      331.894        0.201      851.947
12/31/2021  13:26:00      -66.976       76.033      -44.316      102.927       89.501       83.210    10593.934     8010.452     6923.894        1.887        1.276      101.325       59.734        0.348      331.959        0.312      851.937
12/31/2021  13:27:00     -123.870      121.631      -27.848       89.982      118.543       65.193     8096.850    14052.507     4250.173        2.865        1.320      173.603       23.449        0.018      331.878        0.175      851.931
12/31/2021  13:28:00     -121.873       86.569      -32.383       85.589       89.873       42.021     7325.560     8077.101     1765.790        2.028        0.858      149.490       27.388        0.034      331.908        0.227      851.935
12/31/2021  13:29:00     -127.013       74.835       -9.884      145.191      123.212       76.858    21080.407    15181.219     5907.097        3.199        2.108      147.420       71.889        0.238      332.001        0.378      851.949
12/31/2021  13:30:00     -182.162       82.541      -41.212      145.785      126.490       77.436    21253.224    15999.780     5996.369        4.246        2.162      199.990       70.825        0.125      331.908        0.224      851.985
12/31/2021  13:31:00      -56.302      109.134      -28.289       95.850      110.435       49.874     9187.167    12195.965     2487.439        1.987        1.194      122.801       21.982        0.032      331.999        0.376      852.015
12/31/2021  13:32:00      -76.795       99.695      -30.613       80.494       84.331       68.276     6479.264     7111.721     4661.600        1.751        0.913      125.844       41.577        0.109      332.070        0.492      852.038
12/31/2021  13:33:00      -58.220       31.051      -11.616       96.732       89.299       63.834     9357.054     7974.385     4074.733        1.294        1.070       65.982       35.139        0.284      332.149        0.623      852.063
12/31/2021  13:34:00     -138.033      118.130      -43.615      133.855       91.379       75.585    17917.097     8350.139     5713.032        3.344        1.599      181.680       62.893        0.120      332.137        0.601      852.098
12/31/2021  13:35:00     -100.435      175.347      -43.390       86.142      119.563       67.819     7420.464    14295.195     4599.395        3.451        1.316      202.073       37.594        0.035      332.158        0.637      852.116
12/31/2021  13:36:00     -111.857      220.549      -52.812      145.167      197.320       77.265    21073.363    38935.133     5969.890        6.495        3.299      247.293       64.379        0.068      332.183        0.676      852.141
12/31/2021  13:37:00     -148.359      340.268      -42.376      141.100      188.765       82.025    19909.319    35632.248     6728.169       10.092        3.113      371.204       42.954        0.013      332.094        0.529      852.144
12/31/2021  13:38:00     -107.317      218.621      -36.448       97.268      138.860       77.108     9460.992    19282.020     5945.710        4.766        1.734      243.541       34.803        0.020      332.098        0.537      852.159
12/31/2021  13:39:00      -73.243      214.944      -22.954      113.574      147.361       80.317    12899.040    21715.292     6450.802        4.657        2.053      227.081       48.940        0.046      332.128        0.587      852.185
12/31/2021  13:40:00     -120.761      138.213      -58.371      134.665      120.071       96.216    18134.724    14417.093     9257.578        3.944        2.090      183.538       70.050        0.146      332.187        0.684      852.180
12/31/2021  13:41:00     -200.788      150.282      -38.651      145.382      119.907       81.158    21136.010    14377.613     6586.684        5.324        2.105      250.799       49.730        0.039      332.139        0.606      852.172
12/31/2021  13:42:00      -82.660      115.708      -40.004      119.298      111.624       80.762    14231.949    12459.959     6522.440        2.751        1.661      142.200       30.563        0.046      332.219        0.736      852.150
12/31/2021  13:43:00      -44.623      142.607       -0.270       93.096      122.557       62.480     8666.890    15020.316     3903.785        2.495        1.380      149.425       26.055        0.030      332.253        0.793      852.144
12/31/2021  13:44:00      -22.086       36.467       -7.480       69.344       62.019       38.320     4808.618     3846.416     1468.453        0.600        0.506       42.634       38.786        0.828      332.243        0.779      852.143
12/31/2021  13:45:00     -137.654       85.526      -12.830      100.097      121.446       60.056    10019.432    14749.233     3606.664        2.740        1.419      162.060       44.561        0.076      332.212        0.727      852.177
12/31/2021  13:46:00      -65.701       28.227      -29.400      161.683       79.463       55.155    26141.255     6314.395     3042.116        2.073        1.775       71.508       59.444        0.691      332.305        0.880      852.215
12/31/2021  13:47:00      -30.826       83.599       -5.454      101.340      106.192       73.252    10269.805    11276.673     5365.886        1.744        1.346       89.101       29.213        0.107      332.227        0.751      852.265
12/31/2021  13:48:00      -63.532      159.593      -28.657      113.786       91.830       58.370    12947.160     8432.789     3407.112        2.755        1.239      171.774       49.741        0.084      332.128        0.586      852.332
12/31/2021  13:49:00     -143.727      139.526      -35.304       89.890      104.993       57.931     8080.183    11023.575     3356.000        3.191        1.123      200.312       35.320        0.031      332.137        0.602      852.392
12/31/2021  13:50:00     -108.447       78.490      -25.199      122.937       70.797       39.925    15113.605     5012.246     1594.030        2.013        1.086      133.871       49.205        0.135      332.188        0.686      852.421
12/31/2021  13:51:00      -92.058      128.237      -42.734       87.824      110.153       60.536     7712.987    12133.625     3664.652        2.512        1.176      157.858       45.638        0.084      332.177        0.668      852.431
12/31/2021  13:52:00      -53.222      157.343      -20.671       69.063       88.601       51.586     4769.653     7850.176     2661.165        2.165        0.764      166.101       23.593        0.020      332.149        0.623      852.445
12/31/2021  13:53:00      -37.468      109.848      -33.436       57.852       58.254       54.153     3346.848     3393.565     2932.518        1.213        0.484      116.062       36.169        0.097      332.257        0.801      852.462
12/31/2021  13:54:00       -5.335      141.466      -31.426       67.327       56.405       57.265     4532.881     3181.471     3279.240        1.601        0.550      141.567       27.176        0.037      332.130        0.591      852.489
12/31/2021  13:55:00      -28.484      188.990      -16.583       54.495       73.603       43.482     2969.660     5417.381     1890.670        2.354        0.514      191.124       27.050        0.020      332.201        0.707      852.504
12/31/2021  13:56:00      -25.955      131.433      -24.592       65.311       75.566       40.944     4265.586     5710.218     1676.449        1.510        0.583      133.971       29.525        0.049      332.168        0.655      852.532
12/31/2021  13:57:00        2.443       76.422       -8.962       56.658       51.432       31.565     3210.081     2645.281      996.373        0.639        0.343       76.461       20.326        0.071      332.167        0.654      852.529
12/31/2021  13:58:00      -81.988      113.509      -31.116       59.735       61.108       45.261     3568.328     3734.145     2048.592        1.496        0.468      140.023       27.845        0.040      332.182        0.678      852.545
12/31/2021  13:59:00      -91.645       87.090      -27.615       72.740       83.389       37.652     5291.126     6953.723     1417.638        1.520        0.683      126.426       29.223        0.053      332.122        0.577      852.548
12/31/2021  14:00:00      -82.696      123.250      -31.597       91.306       76.151       45.176     8336.808     5798.979     2040.831        1.960        0.809      148.422       38.162        0.066      332.187        0.687      852.572
12/31/2021  14:01:00     -107.756       98.553      -29.417      106.268       79.063       52.912    11292.942     6250.975     2799.662        2.126        1.017      146.028       46.780        0.103      332.217        0.733      852.591
12/31/2021  14:02:00     -101.762       94.179      -28.586       62.175       45.253       42.367     3865.672     2047.813     1794.978        1.387        0.385      138.655       18.702        0.018      332.252        0.792      852.620
12/31/2021  14:03:00      -85.599       87.180      -17.818       64.468       63.338       49.064     4156.110     4011.738     2407.286        1.291        0.529      122.178       39.896        0.107      332.264        0.814      852.657
12/31/2021  14:04:00       -4.738      145.857      -22.634       48.730       45.452       31.942     2374.639     2065.869     1020.279        1.363        0.273      145.934       18.404        0.016      332.363        0.976      852.684
12/31/2021  14:05:00      113.066      224.462      -33.815       81.347      126.423       69.981     6617.411    15982.715     4897.380        4.590        1.375      251.331       59.593        0.056      332.333        0.926      852.651
12/31/2021  14:06:00     -144.153      152.586      -42.701      104.705      148.238       59.501    10963.073    21974.402     3540.383        4.118        1.824      209.911       43.739        0.043      332.341        0.938      852.698
12/31/2021  14:07:00     -164.039      353.945      -52.447      151.791      137.054       70.224    23040.443    18783.781     4931.420       10.084        2.338      390.110       45.597        0.014      332.211        0.723      852.680
12/31/2021  14:08:00      -53.666      219.091      -28.670      127.314      149.119       76.349    16208.904    22236.337     5829.119        4.798        2.214      225.568       59.968        0.071      332.305        0.877      852.663
12/31/2021  14:09:00      -50.531      280.091      -37.458      168.464      184.449       76.594    28380.243    34021.434     5866.571        7.533        3.413      284.613       61.010        0.046      332.298        0.867      852.669
12/31/2021  14:10:00     -201.909      332.499      -45.325      150.994      150.521       98.375    22799.067    22656.634     9677.634       10.425        2.757      389.002       67.090        0.030      332.223        0.743      852.666
12/31/2021  14:11:00      -92.831      424.035      -39.815      146.173      159.202       69.973    21366.630    25345.262     4896.186       12.080        2.580      434.078       51.334        0.014      332.271        0.822      852.697
12/31/2021  14:12:00      -37.234      373.412      -25.215      134.595      196.381       74.651    18115.720    38565.426     5572.741       10.184        3.113      375.263       78.792        0.044      332.304        0.877      852.715
12/31/2021  14:13:00      -73.247      234.496      -37.035      133.664      107.574       67.306    17866.095    11572.220     4530.123        4.784        1.698      245.669       50.873        0.043      332.420        1.068      852.743
12/31/2021  14:14:00      -50.055      141.157      -13.399       67.533       65.486       56.745     4560.659     4288.475     3219.950        1.734        0.603      149.769       25.366        0.029      332.475        1.160      852.771
12/31/2021  14:15:00       15.676      126.121      -15.181       65.856       80.166       43.973     4337.062     6426.623     1933.591        1.454        0.635      127.091       26.313        0.043      332.464        1.142      852.789
12/31/2021  14:16:00      133.711      205.188      -45.562       71.736      107.135       42.510     5146.093    11477.996     1807.102        4.024        0.922      244.909       40.030        0.027      332.403        1.041      852.802
12/31/2021  14:17:00      -16.968      167.268      -32.485       96.915       67.121       49.602     9392.424     4505.164     2460.400        2.284        0.818      168.126       38.907        0.054      332.496        1.193      852.838
12/31/2021  14:18:00      -48.771      119.458      -18.310       61.034      105.722       49.967     3725.091    11177.166     2496.722        1.719        0.870      129.031       37.372        0.084      332.622        1.403      852.880
12/31/2021  14:19:00     -117.945      162.982      -30.420       63.682       87.880       57.293     4055.335     7722.975     3282.516        2.823        0.753      201.181       26.285        0.017      332.467        1.145      852.922
12/31/2021  14:20:00      -46.345      127.537       -8.742       55.749       45.530       37.481     3107.915     2072.980     1404.833        1.254        0.329      135.697       28.328        0.044      332.469        1.150      852.941
12/31/2021  14:21:00       37.497      179.281      -28.569       73.177       70.084       43.685     5354.819     4911.716     1908.346        2.327        0.609      183.160       40.831        0.050      332.404        1.043      852.943
12/31/2021  14:22:00      -74.654      117.818      -18.628       74.785       78.261       41.349     5592.732     6124.738     1709.728        1.661        0.671      139.478       20.078        0.021      332.636        1.426      852.929
12/31/2021  14:23:00      -98.440      304.984      -25.202       96.324       93.713       53.260     9278.223     8782.178     2836.629        6.211        1.045      320.477       43.290        0.018      332.420        1.067      852.933
12/31/2021  14:24:00       94.592      333.750      -35.032      127.722      150.964       49.631    16312.992    22790.269     2463.195        8.156        2.078      346.896       74.071        0.046      332.167        0.652      852.945
12/31/2021  14:25:00       64.468      350.500      -30.900      105.939      119.349       48.521    11223.043    14244.156     2354.331        7.789        1.391      356.379       50.378        0.020      332.090        0.524      852.955
12/31/2021  14:26:00       19.109      246.858      -14.547       89.644       87.698       51.851     8036.016     7690.923     2688.492        3.996        0.921      247.596       46.644        0.035      332.266        0.813      852.996
12/31/2021  14:27:00      -93.422       79.577      -20.296       82.432       57.310       42.966     6795.024     3284.488     1846.101        1.370        0.596      122.720       26.013        0.045      332.514        1.223      853.027
12/31/2021  14:28:00      -15.328       71.647       -3.811       66.309       90.606       48.439     4396.852     8209.481     2346.324        1.016        0.748       73.269       30.244        0.170      332.643        1.438      853.047
12/31/2021  14:29:00      -15.293      152.421      -55.316      132.734       93.663       68.294    17618.381     8772.741     4664.082        2.878        1.553      153.186       54.869        0.128      332.395        1.027      853.067
12/31/2021  14:30:00      -29.776      209.540      -26.707      148.705      158.715       81.426    22113.318    25190.472     6630.185        4.971        2.697      211.645       63.324        0.090      332.272        0.824      853.057
12/31/2021  14:31:00      -31.026      291.850      -36.815       85.958      116.692       57.488     7388.850    13617.028     3304.845        5.590        1.216      293.494       31.080        0.011      332.277        0.832      853.041
12/31/2021  14:32:00        7.892      265.593      -27.480      102.978       68.407       43.237    10604.495     4679.549     1869.434        4.425        0.858      265.710       18.378        0.005      332.228        0.751      853.044
12/31/2021  14:33:00        2.925      226.044      -21.888       71.788       89.510       50.165     5153.457     8012.073     2516.541        3.363        0.784      226.063       36.820        0.027      332.405        1.043      853.020
12/31/2021  14:34:00     -113.759      169.647      -34.315      110.863       69.997       56.317    12290.520     4899.617     3171.558        3.163        1.018      204.257       44.215        0.047      332.491        1.186      853.004
12/31/2021  14:35:00       51.936      190.711      -21.390      101.066      144.606       58.735    10214.395    20910.856     3449.787        3.704        1.729      197.656       70.899        0.129      332.493        1.190      852.976
12/31/2021  14:36:00      -39.061       87.543        0.289       75.532      112.177       64.291     5705.080    12583.582     4133.362        1.580        1.121       95.862       37.446        0.153      332.731        1.583      852.976
12/31/2021  14:37:00      -71.328       46.609      -20.520       56.565       59.057       38.400     3199.546     3487.702     1474.552        0.792        0.408       85.206       23.170        0.074      332.449        1.118      852.985
12/31/2021  14:38:00      -19.863       20.381      -12.574       54.762       94.050       42.014     2998.842     8845.326     1765.153        0.729        0.680       28.459       30.821        1.173      332.552        1.290      852.964
12/31/2021  14:39:00      -55.345       51.417        1.059       74.987       81.973       53.915     5623.064     6719.574     2906.783        1.048        0.762       75.544       46.199        0.374      332.537        1.264      852.966
12/31/2021  14:40:00      -36.426      116.666       -9.431       68.675       78.481       49.492     4716.265     6159.324     2449.438        1.417        0.666      122.221       25.049        0.042      332.622        1.403      852.962
12/31/2021  14:41:00     -111.334      132.075      -14.050      116.944      110.189       84.353    13675.906    12141.583     7115.467        3.148        1.647      172.740       71.022        0.169      332.479        1.168      852.977
12/31/2021  14:42:00      -92.730       94.147      -22.221       99.323      134.307       60.857     9864.986    18038.238     3703.543        2.478        1.580      132.145       43.587        0.109      332.391        1.020      852.949
12/31/2021  14:43:00     -254.227       92.276      -33.215      180.522      119.996       66.674    32588.337    14399.091     4445.394        6.283        2.572      270.456       56.061        0.043      332.261        0.807      852.902
12/31/2021  14:44:00      -40.600       17.496       -8.424      124.705      105.855       71.128    15551.256    11205.354     5059.182        1.691        1.591       44.209       50.876        1.324      332.384        1.010      852.851
12/31/2021  14:45:00       47.582        2.311      -17.652       42.819       62.900       44.181     1833.448     3956.351     1951.956        0.516        0.387       47.638       27.110        0.324      332.525        1.244      852.850
12/31/2021  14:46:00     -282.830      117.132      -34.949      148.968      115.118       69.434    22191.325    13252.135     4821.071        6.759        2.013      306.125       78.799        0.066      332.265        0.811      852.838
12/31/2021  14:47:00      -64.806       62.183       -2.239      117.363      104.992       75.205    13774.182    11023.364     5655.724        1.926        1.523       89.814       59.427        0.438      332.439        1.100      852.821
12/31/2021  14:48:00      -59.868       68.824      -20.037      145.310      113.675       56.107    21114.940    12922.115     3148.001        2.295        1.859       91.219       33.809        0.137      332.309        0.886      852.752
12/31/2021  14:49:00     -257.097      144.573      -16.653      157.278      120.717       71.414    24736.249    14572.614     5099.978        6.584        2.220      294.958       77.415        0.069      332.152        0.626      852.731
12/31/2021  14:50:00     -118.547       23.827       -2.371      174.090       94.238       84.971    30307.380     8880.866     7220.004        3.051        2.320      120.918       76.586        0.401      332.325        0.913      852.706
12/31/2021  14:51:00     -367.017       39.170      -16.026      182.733      139.743       76.048    33391.434    19527.974     5783.353        9.759        2.935      369.102       74.249        0.040      332.136        0.601      852.686
12/31/2021  14:52:00     -305.976       71.103      -16.421      155.663       96.335       56.602    24230.909     9280.491     3203.763        6.782        1.836      314.129       44.287        0.020      332.203        0.709      852.673
12/31/2021  14:53:00     -265.104       22.941        3.698      141.848      113.601       77.102    20120.829    12905.228     5944.764        5.489        1.949      266.094       75.129        0.080      332.215        0.729      852.648
12/31/2021  14:54:00     -252.365       69.377      -11.780      148.996       86.848       73.470    22199.693     7542.611     5397.819        5.188        1.757      261.727       69.058        0.070      332.218        0.736      852.629
12/31/2021  14:55:00     -107.995        5.309      -23.914      174.871       83.613       61.716    30579.906     6991.154     3808.824        2.681        2.069      108.125       72.826        0.454      332.278        0.835      852.620
12/31/2021  14:56:00     -111.861       16.814        5.583      146.578       93.125       83.725    21485.161     8672.178     7009.799        2.499        1.858      113.118       71.764        0.402      332.236        0.765      852.634
12/31/2021  14:57:00       -5.001       12.574        4.948      121.446       95.680       77.312    14749.097     9154.650     5977.187        1.504        1.494       13.532       57.123       17.821      332.328        0.917      852.681
12/31/2021  14:58:00      -94.822       14.841      -13.419      144.129      101.000       84.558    20773.215    10200.917     7150.050        2.375        1.906       95.976       59.721        0.387      332.235        0.764      852.681
12/31/2021  14:59:00      -55.251      117.904       -8.588       90.686       98.377       43.954     8223.958     9678.070     1931.965        1.843        0.992      130.207       31.994        0.060      332.273        0.827      852.725
12/31/2021  15:00:00     -169.702      119.851      -46.163      111.794       72.280       69.987    12497.978     5224.425     4898.246        3.395        1.131      207.758       53.421        0.066      332.176        0.665      852.738
12/31/2021  15:01:00     -103.001       15.611      -22.638       85.056       88.713       53.817     7234.471     7870.038     2896.238        1.468        0.900      104.177       39.443        0.143      332.266        0.815      852.733
12/31/2021  15:02:00     -110.710      124.122      -10.009       85.929       94.152       46.065     7383.867     8864.627     2122.008        2.306        0.919      166.322       35.162        0.045      332.271        0.823      852.729
12/31/2021  15:03:00      -30.232       54.604      -12.350       73.093       94.622       51.344     5342.586     8953.254     2636.220        1.049        0.847       62.415       36.141        0.335      332.413        1.059      852.719
12/31/2021  15:04:00      -91.734      154.692      -50.600       98.778       87.734       67.277     9757.062     7697.261     4526.185        2.844        1.099      179.847       34.822        0.037      332.225        0.746      852.736
12/31/2021  15:05:00     -111.343       64.696       -7.485      119.559      117.129       52.763    14294.250    13719.225     2783.918        2.371        1.540      128.775       58.446        0.206      332.266        0.814      852.736
12/31/2021  15:06:00     -104.777      139.028      -34.302      107.543      121.512       58.364    11565.550    14765.072     3406.365        3.060        1.487      174.090       37.959        0.048      332.193        0.693      852.782
12/31/2021  15:07:00      -32.642       65.034       -4.885       98.670       99.388       61.991     9735.787     9877.950     3842.909        1.438        1.173       72.766       42.518        0.341      332.234        0.763      852.798
12/31/2021  15:08:00      -83.266      105.715      -33.563       81.596       58.027       55.015     6657.919     3367.155     3026.604        1.614        0.653      134.569       32.729        0.059      332.265        0.813      852.777
12/31/2021  15:09:00      -45.485       82.188       -2.036       94.935       72.573       63.646     9012.713     5266.861     4050.761        1.358        0.917       93.935       49.212        0.274      332.333        0.927      852.740
12/31/2021  15:10:00      -34.727      117.099      -23.612       64.049       79.063       66.964     4102.221     6251.014     4484.225        1.515        0.742      122.140       34.044        0.078      332.339        0.937      852.720
12/31/2021  15:11:00      -67.479      196.942      -24.370       71.427       85.899       43.807     5101.810     7378.626     1919.049        2.916        0.720      208.181       31.712        0.023      332.245        0.780      852.725
12/31/2021  15:12:00      -40.546       82.663      -21.479       57.765       78.080       35.956     3336.851     6096.497     1292.810        0.983        0.536       92.071       27.296        0.088      332.468        1.149      852.723
12/31/2021  15:13:00      -58.548       96.361      -23.719       72.666       62.712       51.918     5280.335     3932.770     2695.468        1.259        0.595      112.753       33.033        0.086      332.333        0.926      852.750
12/31/2021  15:14:00      -65.647       76.690      -20.968       89.525       98.362       45.677     8014.809     9675.066     2086.423        1.520        0.989      100.950       36.130        0.128      332.309        0.887      852.795
12/31/2021  15:15:00      -49.820      149.765      -19.878       79.529       74.955       40.099     6324.934     5618.237     1607.942        1.943        0.678      157.834       29.730        0.035      332.317        0.898      852.821
12/31/2021  15:16:00      -42.251       98.336       -8.036       58.415       73.943       37.885     3412.285     5467.634     1435.302        1.092        0.516      107.028       16.987        0.025      332.467        1.148      852.848
12/31/2021  15:17:00      -37.386       84.688      -20.157       77.393       81.308       61.723     5989.718     6611.031     3809.758        1.269        0.821       92.573       51.020        0.304      332.287        0.852      852.867
12/31/2021  15:18:00     -159.343       38.145        5.607      135.725       70.844       57.485    18421.242     5018.909     3304.578        2.681        1.337      163.845       69.255        0.179      332.232        0.758      852.897
12/31/2021  15:19:00     -114.345       86.208       -6.473       78.379       58.402       56.221     6143.193     3410.774     3160.823        1.663        0.636      143.201       39.913        0.078      332.183        0.678      852.909
12/31/2021  15:20:00     -158.278      134.144      -36.675      131.859      102.303       59.964    17386.760    10465.885     3595.719        3.791        1.572      207.477       69.474        0.112      332.099        0.539      852.922
12/31/2021  15:21:00      -40.318      118.375      -34.370       73.214       68.826       55.401     5360.321     4737.016     3069.239        1.499        0.658      125.052       40.253        0.104      332.102        0.545      852.946
12/31/2021  15:22:00      -77.210      122.766      -28.760      117.325      126.436       54.311    13765.265    15986.045     2949.713        2.727        1.635      145.028       48.871        0.114      332.200        0.707      852.955
12/31/2021  15:23:00        9.506      -24.114       11.435       54.184      111.323       57.480     2935.856    12392.823     3303.920        0.971        0.932       25.920       29.008        1.253      332.242        0.777      852.959
12/31/2021  15:24:00      -16.067       37.146      -30.843       76.324      122.272       40.279     5825.359    14950.345     1622.385        1.249        1.120       40.472       30.443        0.566      332.225        0.748      852.990
12/31/2021  15:25:00      -33.029      120.458      -14.614       60.109       54.347       37.418     3613.043     2953.570     1400.108        1.189        0.398      124.904       23.923        0.037      332.299        0.870      853.021
12/31/2021  15:26:00      -48.224       69.335      -13.529       34.699       50.011       25.243     1204.009     2501.050      637.218        0.583        0.217       84.456       11.137        0.017      332.487        1.182      853.042
12/31/2021  15:27:00      -87.721      135.966      -20.680       63.498       59.668       40.383     4031.963     3560.325     1630.762        1.791        0.461      161.808       31.321        0.037      332.354        0.962      853.063
12/31/2021  15:28:00      -58.160      175.557       -9.052       44.152       65.633       34.616     1949.365     4307.632     1198.282        2.087        0.373      184.940       32.963        0.032      332.240        0.772      853.068
12/31/2021  15:29:00     -116.109      163.416      -31.750       61.161       89.151       38.270     3740.700     7947.955     1464.617        2.717        0.658      200.465       24.302        0.015      332.187        0.685      853.060
12/31/2021  15:30:00      -21.131       58.574       -9.966       51.006       38.174       37.902     2601.640     1457.226     1436.524        0.474        0.275       62.270       16.950        0.074      332.226        0.750      853.032
12/31/2021  15:31:00       78.728      -10.129      -17.979       46.046       64.535       26.282     2120.250     4164.807      690.741        0.680        0.349       79.377       22.314        0.079      332.387        1.016      852.976
12/31/2021  15:32:00      -49.253        9.158       -8.897       78.090       56.773       45.238     6098.007     3223.206     2046.483        0.698        0.568       50.097       41.038        0.671      332.344        0.944      852.967
12/31/2021  15:33:00     -133.850       73.453      -25.301      108.723       67.120       33.089    11820.753     4505.056     1094.912        2.068        0.871      152.680        9.614        0.004      332.300        0.871      852.983
12/31/2021  15:34:00     -143.655       38.951      -15.104      115.615       85.741       52.048    13366.804     7351.495     2708.995        2.290        1.171      148.842       48.686        0.107      332.186        0.685      853.011
12/31/2021  15:35:00     -167.684       23.356      -15.000      110.867       89.163       58.054    12291.443     7950.047     3370.225        2.625        1.181      169.302       44.595        0.069      332.111        0.560      853.050
12/31/2021  15:36:00      -17.606       -1.997      -18.312       55.897       54.510       41.171     3124.518     2971.298     1695.043        0.422        0.390       17.719       27.250        2.365      332.261        0.807      853.088
12/31/2021  15:37:00       11.982       10.565       -6.147       45.724       45.741       35.172     2090.664     2092.198     1237.100        0.286        0.271       15.974       24.316        2.317      332.417        1.065      853.090
12/31/2021  15:38:00     -102.238       73.849       -7.967       91.280       92.581       41.877     8332.123     8571.325     1753.656        1.731        0.933      126.120       31.892        0.064      332.286        0.849      853.092
12/31/2021  15:39:00     -125.496       -5.777      -25.152      143.666       91.680       54.758    20639.905     8405.213     2998.482        2.422        1.602      125.629       68.240        0.295      332.273        0.826      853.091
12/31/2021  15:40:00     -107.888       27.957      -13.358      122.144       61.572       57.688    14919.062     3791.137     3327.922        1.731        1.102      111.451       55.685        0.250      332.114        0.564      853.091
12/31/2021  15:41:00     -175.081       67.795      -21.645      117.774       76.289       49.067    13870.759     5820.074     2407.564        2.890        1.105      187.748       44.076        0.055      332.110        0.556      853.100
12/31/2021  15:42:00     -123.244       42.993      -14.868       86.559       68.340       56.594     7492.445     4670.332     3202.876        1.631        0.768      130.528       57.054        0.191      332.163        0.644      853.108
12/31/2021  15:43:00        0.445       30.140      -15.825       54.869       41.161       31.277     3010.585     1694.218      978.246        0.342        0.284       30.144       28.971        0.924      332.218        0.736      853.104
12/31/2021  15:44:00      -50.572       33.264       -4.279      114.836       59.207       33.293    13187.368     3505.518     1108.417        1.074        0.890       60.531       43.786        0.523      332.208        0.720      853.105
12/31/2021  15:45:00     -176.468       45.589      -15.659      141.121       72.335       57.038    19915.242     5232.364     3253.281        3.093        1.420      182.261       59.482        0.107      332.086        0.517      853.087
12/31/2021  15:46:00      -51.222       13.965        3.048       91.429       63.171       43.568     8359.278     3990.554     1898.157        0.854        0.712       53.092       47.468        0.799      332.209        0.722      853.093
12/31/2021  15:47:00     -211.044       48.822       -1.010      122.991      103.519       57.962    15126.777    10716.201     3359.540        3.806        1.460      216.618       63.500        0.086      332.056        0.468      853.104
12/31/2021  15:48:00     -241.472       66.842      -18.794      123.304      104.824       65.506    15203.858    10987.982     4290.985        4.680        1.524      250.553       67.680        0.073      332.015        0.401      853.119
12/31/2021  15:49:00     -232.519       93.913      -15.638      105.251       92.867       53.766    11077.720     8624.364     2890.773        4.286        1.130      250.769       53.941        0.046      332.015        0.400      853.129
12/31/2021  15:50:00     -124.061       58.516       -2.728      131.483       87.979       70.514    17287.909     7740.269     4972.286        2.441        1.500      137.169       66.530        0.235      332.078        0.504      853.147
12/31/2021  15:51:00     -109.337       54.773      -16.304       68.181       56.607       43.228     4648.602     3204.347     1868.668        1.247        0.486      122.289       38.094        0.097      332.067        0.489      853.125
12/31/2021  15:52:00      -96.666       64.639      -15.619       86.909       81.868       48.005     7553.138     6702.304     2304.515        1.516        0.828      116.287       32.197        0.077      332.051        0.460      853.129
12/31/2021  15:53:00        7.889        5.321       11.096       39.744       79.813       32.281     1579.559     6370.183     1042.060        0.460        0.450        9.516       25.028        6.918      332.171        0.659      853.151
12/31/2021  15:54:00      -47.908       26.805      -15.909       82.695       51.551       41.486     6838.466     2657.527     1721.059        0.724        0.561       54.897       27.776        0.256      332.177        0.668      853.152
12/31/2021  15:55:00     -117.132       54.131      -26.538      100.843       98.000       61.411    10169.275     9604.022     3771.337        2.045        1.177      129.035       66.839        0.268      331.964        0.318      853.169
12/31/2021  15:56:00      -40.782       30.306       -1.890      119.244       73.062       52.521    14219.248     5338.077     2758.418        1.245        1.116       50.810       56.847        1.252      331.990        0.359      853.173
12/31/2021  15:57:00      -14.468       89.680       -1.979       47.557       76.111       51.801     2261.672     5792.938     2683.327        0.949        0.537       90.839       38.516        0.180      332.000        0.378      853.192
12/31/2021  15:58:00      -18.172       54.855      -31.841       87.924       56.239       27.246     7730.645     3162.878      742.362        0.799        0.582       57.787       23.962        0.172      331.894        0.204      853.161
12/31/2021  15:59:00      -90.171       47.645      -33.895      105.874       86.780       42.837    11209.343     7530.706     1835.023        1.606        1.029      101.985       31.389        0.095      331.973        0.332      853.181
12/31/2021  16:00:00      -51.850       91.508      -11.207       64.222       62.942       34.347     4124.422     3961.757     1179.735        1.023        0.463      105.177       28.519        0.074      331.905        0.222      853.201
12/31/2021  16:01:00      -10.319       55.948      -10.982       38.844       55.828       28.305     1508.838     3116.764      801.199        0.439        0.271       56.892       14.674        0.067      332.209        0.722      853.237
12/31/2021  16:02:00      -34.743       15.530      -18.243       77.184       61.146       38.975     5957.366     3738.788     1519.076        0.650        0.561       38.056       41.023        1.162      332.074        0.498      853.246
12/31/2021  16:03:00      -45.251      116.796       -7.320       67.178       84.511       46.829     4512.847     7142.192     2192.981        1.479        0.692      125.255       30.315        0.059      331.993        0.366      853.264
12/31/2021  16:04:00     -114.408       85.493      -18.866       61.612       75.817       36.395     3796.042     5748.291     1324.592        1.581        0.543      142.823       27.182        0.036      331.927        0.258      853.258
12/31/2021  16:05:00      -49.907       68.230      -30.753       98.594       48.907       37.394     9720.713     2391.850     1398.312        1.080        0.676       84.534       41.109        0.236      331.856        0.143      853.268
12/31/2021  16:06:00      -74.083      138.339      -33.864       74.720       75.039       52.222     5583.021     5630.832     2727.151        1.985        0.697      156.927       40.645        0.067      331.938        0.276      853.263
12/31/2021  16:07:00      -76.805       24.792       -8.395       92.711       71.210       54.452     8595.287     5070.844     2965.057        1.160        0.832       80.707       38.828        0.231      331.890        0.197      853.237
12/31/2021  16:08:00     -144.101       17.502      -12.199       94.861       76.266       63.356     8998.556     5816.463     4014.028        2.002        0.941      145.160       52.270        0.130      331.690       -0.132      853.237
12/31/2021  16:09:00      -88.918       30.610        3.561      115.305       70.823       43.835    13295.166     5015.850     1921.519        1.454        1.012       94.039       44.008        0.219      331.723       -0.078      853.235
12/31/2021  16:10:00      -63.791       42.909        7.825      110.055       53.025       36.357    12112.187     2811.628     1321.809        1.111        0.812       76.879       15.698        0.042      331.702       -0.113      853.288
12/31/2021  16:11:00      -82.231       -7.210      -21.933       92.653       44.940       37.506     8584.661     2019.579     1406.736        0.965        0.601       82.547       46.749        0.321      331.691       -0.131      853.308
12/31/2021  16:12:00      -54.599      132.356      -15.503       62.391       95.549       39.538     3892.652     9129.607     1563.292        1.766        0.729      143.175       38.822        0.074      331.722       -0.080      853.320
12/31/2021  16:13:00      -64.485      108.371      -14.587       65.205       72.720       39.663     4251.640     5288.244     1573.179        1.361        0.556      126.105       25.410        0.041      331.780        0.016      853.348
12/31/2021  16:14:00      -40.666       39.189        6.427       72.951       56.865       42.294     5321.909     3233.642     1788.799        0.679        0.517       56.475       35.197        0.388      331.804        0.056      853.368
12/31/2021  16:15:00       -4.822       78.002      -22.582       53.935       82.761       45.648     2909.000     6849.419     2083.709        0.923        0.592       78.151       39.221        0.252      331.740       -0.048      853.379
12/31/2021  16:16:00     -110.673       38.216      -16.199       99.121       56.355       42.406     9825.071     3175.861     1798.284        1.438        0.740      117.085       39.724        0.115      331.761       -0.016      853.384
12/31/2021  16:17:00      -74.586       48.783      -11.677       88.891       52.216       33.686     7901.694     2726.559     1134.744        0.992        0.588       89.123       32.286        0.131      331.659       -0.183      853.402
12/31/2021  16:18:00       11.487       20.960        3.842       27.708       41.245       28.709      767.739     1701.155      824.190        0.194        0.165       23.901       26.024        1.186      331.727       -0.071      853.420
12/31/2021  16:19:00      -50.157       38.393      -12.572       51.847       72.648       33.955     2688.102     5277.780     1152.920        0.663        0.456       63.164       28.297        0.201      331.674       -0.158      853.436
12/31/2021  16:20:00      -46.958      113.281      -11.728       84.003       75.838       46.318     7056.455     5751.391     2145.371        1.506        0.748      122.628       50.929        0.172      331.627       -0.236      853.457
12/31/2021  16:21:00       33.277       93.931      -24.014       87.953      103.510       40.884     7735.818    10714.326     1671.502        1.531        1.006       99.651       37.582        0.142      331.736       -0.059      853.442
12/31/2021  16:22:00      -38.794       19.068       -4.069       62.116       54.817       42.977     3858.434     3004.879     1847.017        0.530        0.436       43.227       37.897        0.769      331.672       -0.161      853.466
12/31/2021  16:23:00      -40.179       16.185      -25.540       50.515       63.600       37.679     2551.738     4044.949     1419.716        0.527        0.401       43.316       26.355        0.370      331.531       -0.394      853.474
12/31/2021  16:24:00      -97.571       40.568      -12.077      118.021       70.447       54.203    13929.016     4962.764     2937.965        1.657        1.091      105.669       44.144        0.175      331.566       -0.338      853.458
12/31/2021  16:25:00      -94.550       14.626      -27.701       65.175       70.451       41.109     4247.775     4963.365     1689.938        1.041        0.545       95.674       30.010        0.098      331.594       -0.291      853.481
12/31/2021  16:26:00      -32.881       49.048      -25.395       54.205       59.510       43.037     2938.141     3541.403     1852.174        0.623        0.417       59.050       18.193        0.095      331.572       -0.326      853.484
12/31/2021  16:27:00      -19.490       39.602       -8.580       55.908       58.753       40.614     3125.679     3451.889     1649.478        0.512        0.411       44.138       43.612        0.976      331.604       -0.274      853.493
12/31/2021  16:28:00        6.295       50.792       -2.998       58.567       54.660       42.087     3430.088     2987.764     1771.275        0.541        0.409       51.180       23.423        0.209      331.536       -0.386      853.488
12/31/2021  16:29:00      -44.419       69.946       -9.848       83.385       73.573       55.919     6953.076     5412.948     3126.951        1.122        0.775       82.858       50.511        0.372      331.535       -0.388      853.491
12/31/2021  16:30:00      -19.253       66.591       -8.811       82.597       64.913       43.129     6822.256     4213.677     1860.119        0.889        0.645       69.318       30.035        0.188      331.585       -0.304      853.492
12/31/2021  16:31:00       -9.942      -59.947      -29.576       53.615       79.306       39.827     2874.571     6289.391     1586.191        0.766        0.538       60.766       23.575        0.151      331.543       -0.375      853.478
12/31/2021  16:32:00     -100.221       18.723        1.390      110.244       54.348       35.723    12153.686     2953.714     1276.142        1.339        0.819      101.955       33.849        0.110      331.417       -0.581      853.500
12/31/2021  16:33:00     -124.884       98.180      -21.770       72.240       95.693       41.723     5218.680     9157.216     1740.848        2.091        0.806      158.856       31.886        0.040      331.407       -0.600      853.537
12/31/2021  16:34:00     -165.921       79.164      -30.735      117.231       84.971       49.600    13743.163     7220.152     2460.117        2.908        1.171      183.839       30.580        0.028      331.413       -0.590      853.546
12/31/2021  16:35:00      -81.799       46.066      -11.657       89.818       86.687       54.422     8067.300     7514.615     2961.723        1.374        0.927       93.878       33.341        0.126      331.425       -0.569      853.573
12/31/2021  16:36:00     -104.977       98.277       -8.466       67.662       55.478       36.860     4578.148     3077.784     1358.627        1.488        0.451      143.801        6.835        0.002      331.417       -0.582      853.587
12/31/2021  16:37:00      -17.878       28.217       -1.991       47.327       39.553       24.408     2239.863     1564.470      595.753        0.276        0.220       33.404       22.429        0.451      331.328       -0.728      853.607
12/31/2021  16:38:00       24.957       43.554       -4.766       66.400       54.730       27.512     4408.967     2995.378      756.899        0.535        0.408       50.198       20.115        0.161      331.393       -0.621      853.641
12/31/2021  16:39:00      -12.274       98.568      -12.356       46.889       43.890       34.641     2198.550     1926.361     1199.995        0.767        0.266       99.329       30.078        0.092      331.462       -0.507      853.681
12/31/2021  16:40:00      -33.333       60.691      -20.901       68.526       64.392       34.216     4695.845     4146.333     1170.735        0.762        0.501       69.242       28.356        0.168      331.505       -0.437      853.688
12/31/2021  16:41:00      -25.004      114.911      -16.632       52.448       63.299       31.585     2750.814     4006.729      997.598        1.093        0.388      117.600       15.591        0.018      331.452       -0.526      853.702
12/31/2021  16:42:00      -17.287      116.522      -16.603       86.711       91.493       39.830     7518.830     8370.991     1586.414        1.581        0.874      117.797       38.194        0.105      331.459       -0.513      853.727
12/31/2021  16:43:00       -0.204      120.402      -18.037       76.121      102.352       42.039     5794.358    10476.030     1767.304        1.643        0.902      120.402       42.918        0.127      331.417       -0.583      853.733
12/31/2021  16:44:00      -53.538      117.469      -52.575       75.175       53.235       52.400     5651.352     2833.995     2745.749        1.533        0.562      129.095       43.736        0.115      331.471       -0.493      853.744
12/31/2021  16:45:00      -43.099       62.214      -19.060       55.872       51.697       41.294     3121.681     2672.578     1705.157        0.679        0.375       75.684       24.268        0.103      331.463       -0.507      853.742
12/31/2021  16:46:00       35.517      160.539       -6.191       62.983      107.560       52.294     3966.864    11569.190     2734.700        2.267        0.914      164.420       48.116        0.086      331.407       -0.600      853.748
12/31/2021  16:47:00      -24.773      121.216       -9.702       52.715       72.794       39.505     2778.896     5298.958     1560.633        1.252        0.482      123.722       30.483        0.061      331.487       -0.468      853.745
12/31/2021  16:48:00      -91.014      164.308      -16.142       88.866      119.350       50.455     7897.162    14244.425     2545.692        3.011        1.234      187.832       53.043        0.080      331.410       -0.595      853.761
12/31/2021  16:49:00      -64.352      162.747      -14.663       88.558       74.301       46.130     7842.563     5520.651     2127.949        2.316        0.775      175.008       41.123        0.055      331.460       -0.513      853.768
12/31/2021  16:50:00      -85.600      185.003      -20.666      127.792       81.944       48.520    16330.715     6714.814     2354.192        3.369        1.270      203.846       29.802        0.021      331.426       -0.569      853.770
12/31/2021  16:51:00      -28.834      243.780      -22.914       65.940      102.739       47.978     4348.037    10555.272     2301.854        3.899        0.860      245.480       41.270        0.028      331.365       -0.668      853.787
12/31/2021  16:52:00      -65.090      135.219      -29.389       86.843      102.372       39.767     7541.790    10479.990     1581.424        2.149        0.980      150.070       21.943        0.021      331.462       -0.509      853.797
12/31/2021  16:53:00      -62.654      174.871      -15.573       53.376       68.252       35.261     2848.972     4658.334     1243.313        2.175        0.438      185.756       30.593        0.027      331.446       -0.536      853.810
12/31/2021  16:54:00      -35.780      127.298      -13.786       68.015       69.519       31.010     4626.042     4832.847      961.634        1.405        0.521      132.231       14.320        0.012      331.415       -0.586      853.812
12/31/2021  16:55:00      -57.752      268.472      -34.144      105.269      103.175       53.444    11081.609    10644.994     2856.248        5.058        1.229      274.613       45.579        0.028      331.383       -0.640      853.808
12/31/2021  16:56:00      -61.739      175.914      -27.835       64.433       94.740       40.239     4151.668     8975.700     1619.189        2.514        0.737      186.433       39.264        0.044      331.391       -0.627      853.812
12/31/2021  16:57:00      -59.534      183.210      -32.808       88.053       90.818       65.726     7753.360     8247.917     4319.955        2.925        1.016      192.640       36.855        0.037      331.402       -0.609      853.821
12/31/2021  16:58:00      -70.793      194.191      -35.566      104.097      102.178       61.946    10836.263    10440.330     3837.260        3.455        1.256      206.692       52.497        0.065      331.382       -0.641      853.836
12/31/2021  16:59:00      -10.553      195.901      -20.893       75.530       85.465       43.790     5704.775     7304.193     1917.523        2.692        0.746      196.185       40.072        0.042      331.392       -0.624      853.858
12/31/2021  17:00:00      -36.022      276.068      -23.856       67.242       75.020       40.222     4521.512     5627.969     1617.796        4.492        0.588      278.408       32.474        0.014      331.366       -0.669      853.882
12/31/2021  17:01:00      -65.599      255.560      -26.351       67.910      100.970       44.730     4611.826    10194.878     2000.754        4.355        0.840      263.845       33.712        0.016      331.353       -0.690      853.889
12/31/2021  17:02:00      -88.871      197.571      -27.662       78.074      113.443       46.448     6095.600    12869.278     2157.394        3.441        1.056      216.639       39.116        0.033      331.332       -0.724      853.891
12/31/2021  17:03:00      -61.767      168.698      -13.873       94.462       81.784       58.422     8923.144     6688.547     3413.130        2.574        0.951      179.650       44.518        0.061      331.332       -0.724      853.897
12/31/2021  17:04:00      -55.168      102.211      -19.364       68.854       49.493       28.941     4740.894     2449.546      837.561        1.095        0.401      116.149       12.933        0.012      331.387       -0.632      853.905
12/31/2021  17:05:00      -62.509       47.263      -19.836       80.534       45.802       32.484     6485.677     2097.866     1055.210        0.808        0.482       78.366       28.765        0.135      331.349       -0.694      853.929
12/31/2021  17:06:00      -47.577      150.110      -17.966       66.074       62.691       39.857     4365.758     3930.220     1588.582        1.750        0.494      157.469       16.471        0.011      331.315       -0.749      853.942
12/31/2021  17:07:00     -107.172      100.851      -29.560       46.942       55.441       34.345     2203.536     3073.672     1179.548        1.449        0.323      147.162       17.944        0.015      331.272       -0.819      853.970
12/31/2021  17:08:00      -44.531       76.766      -10.663       54.481       37.710       30.020     2968.181     1422.020      901.208        0.664        0.265       88.747       16.835        0.036      331.254       -0.848      853.985
12/31/2021  17:09:00      -38.824       76.557      -12.791       35.736       52.249       32.394     1277.045     2729.956     1049.400        0.629        0.253       85.838       19.024        0.049      331.307       -0.761      854.002
12/31/2021  17:10:00      -50.869       40.297       -4.430       57.504       60.864       43.777     3306.708     3704.412     1916.467        0.658        0.446       64.896        6.644        0.010      331.250       -0.854      854.002
12/31/2021  17:11:00      -54.140       41.258      -42.078       62.609       44.375       49.249     3919.861     1969.170     2425.487        0.736        0.416       68.069       26.647        0.153      331.270       -0.823      854.025
12/31/2021  17:12:00      -64.280      134.019      -24.481       67.948       61.597       44.517     4616.920     3794.213     1981.731        1.654        0.520      148.637       33.615        0.051      331.181       -0.969      854.040
12/31/2021  17:13:00      -88.194       43.902        1.193       80.574       87.443       53.500     6492.149     7646.347     2862.249        1.335        0.850       98.517       43.005        0.191      330.976       -1.308      854.041
12/31/2021  17:14:00      -80.783      -12.177      -16.234       94.064       60.168       55.705     8847.960     3620.133     3103.039        1.125        0.779       81.696       49.596        0.369      330.908       -1.419      854.053
12/31/2021  17:15:00      -62.481      -22.395      -22.774      116.730       58.418       37.787    13625.983     3412.699     1427.841        1.169        0.923       66.374       28.904        0.190      330.775       -1.638      854.054
12/31/2021  17:16:00     -133.800       69.989      -28.944       66.825       68.314       41.172     4465.608     4666.812     1695.121        1.723        0.541      151.000       18.627        0.015      330.679       -1.796      854.076
12/31/2021  17:17:00      -61.703       88.676      -18.835       57.196       66.695       48.724     3271.438     4448.195     2373.995        1.106        0.505      108.031       29.770        0.076      330.676       -1.800      854.091
12/31/2021  17:18:00      -44.940       44.087       -7.311       85.615       63.910       33.655     7329.896     4084.444     1132.685        0.828        0.627       62.955       29.311        0.217      330.671       -1.806      854.104
12/31/2021  17:19:00      -72.178       12.695      -12.927       64.328       60.035       34.102     4138.091     3604.214     1162.952        0.722        0.445       73.286       22.242        0.092      330.664       -1.817      854.117
12/31/2021  17:20:00      -64.595       -7.351      -11.444       91.216       76.800       39.026     8320.374     5898.216     1523.056        1.005        0.787       65.012       31.159        0.230      330.670       -1.809      854.122
12/31/2021  17:21:00      -83.216       35.784      -16.308       78.188       63.295       45.190     6113.363     4006.250     2042.166        1.031        0.608       90.584       35.808        0.156      330.640       -1.860      854.149
12/31/2021  17:22:00      -80.857       48.449       -7.716      103.455       51.537       33.505    10702.997     2656.031     1122.576        1.171        0.724       94.261        5.486        0.003      330.645       -1.851      854.192
12/31/2021  17:23:00      -87.838      118.368      -36.942       76.193       60.743       40.440     5805.409     3689.743     1635.420        1.711        0.557      147.399       31.908        0.047      330.754       -1.671      854.223
12/31/2021  17:24:00      -16.665       -5.467       -8.178       42.933       76.909       35.859     1843.213     5915.009     1285.887        0.471        0.452       17.539       19.683        1.259      330.715       -1.734      854.239
12/31/2021  17:25:00      -21.108       55.640       -3.440       71.764       74.099       51.027     5150.112     5490.686     2603.804        0.840        0.662       59.510       35.421        0.354      330.736       -1.700      854.238
12/31/2021  17:26:00      -44.131       94.051      -26.262       78.964       65.843       44.892     6235.388     4335.338     2015.321        1.203        0.629      103.890       20.399        0.039      330.755       -1.667      854.249
12/31/2021  17:27:00      -30.301        8.881      -16.094       63.411       91.345       45.600     4020.916     8343.917     2079.349        0.785        0.722       31.576       43.919        1.935      330.690       -1.776      854.242
12/31/2021  17:28:00      -48.931       22.208      -24.061       74.809       38.521       33.746     5596.351     1483.832     1138.814        0.584        0.411       53.734       32.132        0.358      330.697       -1.762      854.254
12/31/2021  17:29:00       27.141       48.962        3.590       37.940       51.910       24.259     1439.469     2694.626      588.501        0.393        0.236       55.982       16.867        0.091      330.670       -1.807      854.269
12/31/2021  17:30:00       -1.176       -7.082       -1.997       40.762       38.973       26.782     1661.505     1518.890      717.274        0.198        0.195        7.179       23.816       11.006      330.601       -1.921      854.293
12/31/2021  17:31:00      -37.593       -2.382      -31.153       46.458       58.353       39.841     2158.342     3405.088     1587.284        0.477        0.358       37.669       27.709        0.541      330.699       -1.761      854.305
12/31/2021  17:32:00       -4.470       33.567      -10.701       43.075       65.756       39.260     1855.416     4323.882     1541.327        0.449        0.386       33.863       17.151        0.257      330.642       -1.854      854.293
12/31/2021  17:33:00      -48.212       57.441       -1.113       93.729       61.201       34.830     8785.046     3745.611     1213.128        0.968        0.687       74.992       37.351        0.248      330.570       -1.974      854.269
12/31/2021  17:34:00      -43.136       33.640      -27.827       71.515       75.283       40.445     5114.361     5667.531     1635.835        0.809        0.621       54.703       19.952        0.133      330.553       -2.001      854.263
12/31/2021  17:35:00      -48.217       21.890      -17.640       79.192       65.237       35.715     6271.389     4255.887     1275.540        0.746        0.590       52.953       18.246        0.119      330.532       -2.036      854.289
12/31/2021  17:36:00      -97.884      -11.565       -1.385      120.517       73.492       62.967    14524.389     5401.119     3964.894        1.680        1.195       98.565       50.893        0.267      330.537       -2.028      854.321
12/31/2021  17:37:00      -36.659       50.483      -15.964       93.695       81.435       57.291     8778.739     6631.715     3282.275        1.142        0.935       62.390       43.772        0.492      330.531       -2.039      854.343
12/31/2021  17:38:00      -14.816       17.546      -11.568       46.653       67.043       38.190     2176.547     4494.775     1458.491        0.439        0.406       22.965       33.373        2.112      330.522       -2.053      854.369
12/31/2021  17:39:00      -26.146       50.237      -12.017       49.192       59.392       35.996     2419.897     3527.435     1295.714        0.530        0.362       56.634       27.554        0.237      330.591       -1.938      854.397
12/31/2021  17:40:00      -28.440       62.373      -34.304       87.526       66.414       39.232     7660.763     4410.761     1539.178        0.974        0.681       68.551       22.122        0.104      330.537       -2.029      854.432
12/31/2021  17:41:00      -40.449       49.931       -2.195       94.186       60.973       44.976     8870.936     3717.684     2022.831        0.937        0.731       64.259       33.054        0.265      330.565       -1.982      854.453
12/31/2021  17:42:00      -76.385       38.723      -39.433       87.754       59.817       64.072     7700.817     3578.071     4105.239        1.213        0.769       85.639       44.131        0.266      330.605       -1.916      854.476
12/31/2021  17:43:00      -27.014       -2.685       -8.106       87.729       78.626       52.028     7696.375     6182.042     2706.947        0.869        0.829       27.147       43.047        2.514      330.550       -2.006      854.486
12/31/2021  17:44:00      -93.559       18.078      -21.966       83.593       56.396       45.915     6987.857     3180.531     2108.231        1.092        0.614       95.289       47.410        0.248      330.540       -2.024      854.479
12/31/2021  17:45:00       12.301       33.208        9.407       63.636       83.672       42.831     4049.581     7000.926     1834.516        0.711        0.644       35.413       28.371        0.642      330.583       -1.951      854.453
12/31/2021  17:46:00     -107.441       91.325      -23.520      110.225       79.871       70.966    12149.475     6379.449     5036.123        2.200        1.178      141.010       71.499        0.257      330.478       -2.125      854.444
12/31/2021  17:47:00      -83.705       51.668      -32.247       95.954       84.009       56.327     9207.178     7057.445     3172.778        1.507        0.972       98.367       33.440        0.116      330.491       -2.103      854.423
12/31/2021  17:48:00      -96.970       46.059      -31.333       84.363       58.100       53.020     7117.139     3375.563     2811.143        1.290        0.665      107.353       32.897        0.094      330.530       -2.040      854.400
12/31/2021  17:49:00      -20.526      -12.629       -9.875       57.979       51.998       42.094     3361.622     2703.823     1771.885        0.426        0.392       24.100       29.428        1.491      330.499       -2.091      854.404
12/31/2021  17:50:00       27.533      -12.934        4.941       54.396       51.479       37.190     2958.922     2650.041     1383.108        0.397        0.350       30.420       28.244        0.862      330.539       -2.023      854.425
12/31/2021  17:51:00      -51.123       62.095      -14.968       94.618       62.923       43.893     8952.657     3959.272     1926.575        1.076        0.742       80.432       36.742        0.209      330.541       -2.022      854.456
12/31/2021  17:52:00        2.609       19.592       -3.683       48.700       49.745       43.017     2371.646     2474.586     1850.462        0.355        0.335       19.764       35.670        3.257      330.517       -2.059      854.467
12/31/2021  17:53:00      -53.794       28.752      -14.112       77.568       51.090       50.255     6016.780     2610.216     2525.539        0.753        0.558       60.996       29.599        0.235      330.518       -2.059      854.476
12/31/2021  17:54:00      -59.517        8.790      -20.281      108.321       78.381       33.022    11733.515     6143.535     1090.472        1.150        0.948       60.163       32.749        0.296      330.504       -2.084      854.477
12/31/2021  17:55:00       -1.856       37.847       15.098       68.172       48.510       42.906     4647.372     2353.256     1840.922        0.525        0.442       37.892       21.978        0.336      330.502       -2.084      854.474
12/31/2021  17:56:00        1.343       29.657      -25.566       48.408       43.997       43.415     2343.371     1935.722     1884.840        0.385        0.308       29.687       27.446        0.855      330.494       -2.099      854.462
12/31/2021  17:57:00      -48.293       59.798      -26.466       62.315       69.634       36.357     3883.126     4848.921     1321.848        0.833        0.503       76.864       23.227        0.091      330.524       -2.047      854.448
12/31/2021  17:58:00      -42.409       37.153      -19.318       78.584       66.571       39.562     6175.387     4431.701     1565.181        0.786        0.609       56.381       28.035        0.247      330.511       -2.070      854.438
12/31/2021  17:59:00      -25.939       54.258      -17.128       42.432       38.433       29.968     1800.495     1477.061      898.099        0.404        0.209       60.140       21.760        0.131      330.563       -1.984      854.435
12/31/2021  18:00:00      -23.273       43.681       -6.217       48.171       78.983       33.759     2320.419     6238.316     1139.694        0.609        0.485       49.494       26.108        0.278      330.558       -1.993      854.444
12/31/2021  18:01:00      -63.426       78.514      -17.563       80.175       97.450       50.993     6428.008     9496.479     2600.324        1.451        0.926      100.932       35.988        0.127      330.583       -1.953      854.453
12/31/2021  18:02:00       -9.083        8.990      -10.756       46.780       52.881       38.147     2188.394     2796.412     1455.192        0.336        0.322       12.779       31.268        5.987      330.539       -2.025      854.458
12/31/2021  18:03:00        2.097        4.582       -9.816       41.088       41.306       29.186     1688.248     1706.203      851.818        0.218        0.212        5.039       10.479        4.325      330.517       -2.061      854.474
12/31/2021  18:04:00        0.132      -15.272       -3.901       56.232       63.349       37.571     3161.987     4013.055     1411.582        0.442        0.429       15.273       28.935        3.589      330.507       -2.076      854.500
12/31/2021  18:05:00       22.220      -27.511        4.716       66.077       53.549       34.948     4366.191     2867.465     1221.375        0.486        0.423       35.363       20.566        0.338      330.525       -2.046      854.547
12/31/2021  18:06:00      -23.197       14.980       -4.632       34.257       62.038       29.070     1173.550     3848.655      845.073        0.332        0.293       27.614       15.321        0.308      330.467       -2.142      854.588
12/31/2021  18:07:00      -75.968      109.645      -30.368       74.844       97.024       51.468     5601.695     9413.625     2648.957        1.819        0.883      133.391       24.657        0.034      330.564       -1.985      854.641
12/31/2021  18:08:00      -74.815      107.286      -22.176       85.486       80.551       46.975     7307.934     6488.532     2206.663        1.680        0.800      130.796       36.572        0.078      330.588       -1.944      854.677
12/31/2021  18:09:00      -85.614      168.610      -30.558       67.668       83.014       46.985     4578.913     6891.305     2207.623        2.518        0.684      189.101       18.924        0.010      330.580       -1.958      854.718
12/31/2021  18:10:00      -75.560       67.747      -25.481       47.822       56.399       44.354     2286.953     3180.803     1967.294        0.919        0.372      101.484       33.807        0.111      330.605       -1.915      854.742
12/31/2021  18:11:00      -88.558       90.806      -20.337       77.636       81.801       45.696     6027.290     6691.449     2088.090        1.565        0.740      126.839       33.274        0.069      330.617       -1.897      854.769
12/31/2021  18:12:00      -63.266      185.601      -18.746       56.600       82.498       46.048     3203.592     6805.893     2120.378        2.546        0.606      196.088       37.946        0.037      330.600       -1.926      854.770
12/31/2021  18:13:00      -66.339      145.538       -4.040       84.820       79.316       57.426     7194.463     6291.005     3297.750        2.119        0.839      159.944       51.131        0.102      330.596       -1.931      854.765
12/31/2021  18:14:00      -83.210      144.491      -27.030       56.104       86.074       55.656     3147.628     7408.722     3097.601        2.109        0.683      166.738       12.997        0.006      330.541       -2.022      854.756
12/31/2021  18:15:00     -109.063      121.332      -35.828       86.554       83.676       69.393     7491.666     7001.651     4815.360        2.360        0.965      163.145       52.794        0.105      330.541       -2.023      854.733
12/31/2021  18:16:00     -119.044      181.383      -45.950       82.816       92.429       47.910     6858.565     8543.110     2295.372        3.344        0.885      216.959       40.368        0.035      330.521       -2.056      854.723
12/31/2021  18:17:00      -70.022       30.883      -45.481       88.039       86.283       57.459     7750.882     7444.821     3301.512        1.321        0.925       76.530       33.797        0.195      330.551       -2.004      854.719
12/31/2021  18:18:00      -87.393       89.610      -28.008       97.250       92.208       55.007     9457.511     8502.403     3025.755        1.871        1.049      125.170       40.190        0.103      330.514       -2.067      854.743
12/31/2021  18:19:00     -109.139       72.411      -37.007       97.425       93.988       54.279     9491.622     8833.683     2946.157        1.989        1.064      130.976       54.581        0.174      330.495       -2.098      854.783
12/31/2021  18:20:00      -65.371       40.596      -17.547       73.751       50.622       38.590     5439.143     2562.601     1489.203        0.786        0.475       76.950       29.568        0.148      330.485       -2.114      854.798
12/31/2021  18:21:00      -52.012       51.836      -20.979       68.572       59.785       44.597     4702.067     3574.258     1988.857        0.805        0.513       73.432       28.970        0.156      330.491       -2.104      854.798
12/31/2021  18:22:00        2.222       87.316      -15.817       77.447      143.987       47.183     5998.019    20732.378     2226.225        1.841        1.448       87.344       35.552        0.166      330.427       -2.208      854.801
12/31/2021  18:23:00      -74.628      155.595      -19.778       64.457       76.922       59.878     4154.726     5917.014     3585.384        2.191        0.683      172.566       29.476        0.029      330.523       -2.053      854.823
12/31/2021  18:24:00      -82.926      142.050      -25.076       73.313       72.000       55.012     5374.813     5183.974     3026.322        2.063        0.679      164.484       24.538        0.022      330.453       -2.166      854.839
12/31/2021  18:25:00      -58.142       84.640      -23.146       92.369      125.139       54.158     8532.054    15659.647     2933.079        1.910        1.356      102.686       41.499        0.163      330.461       -2.153      854.861
12/31/2021  18:26:00     -114.800      137.955      -10.784       81.366       94.825       50.348     6620.437     8991.749     2534.940        2.523        0.907      179.473       39.087        0.047      330.474       -2.132      854.878
12/31/2021  18:27:00     -156.406      117.254      -35.163      115.575       88.402       60.633    13357.582     7814.843     3676.377        3.214        1.242      195.477       52.329        0.072      330.483       -2.117      854.906
12/31/2021  18:28:00      -67.509      143.586      -20.752       73.521       78.925       48.224     5405.363     6229.105     2325.556        1.978        0.698      158.664       36.072        0.052      330.537       -2.030      854.939
12/31/2021  18:29:00      -80.627      133.991      -14.769       98.751       91.799       53.584     9751.675     8427.053     2871.226        2.286        1.052      156.379       33.305        0.045      330.540       -2.024      854.947
12/31/2021  18:30:00      -45.834       82.220       -3.832      102.748       87.769       53.454    10557.094     7703.352     2857.312        1.499        1.056       94.132       53.547        0.324      330.519       -2.057      854.948
12/31/2021  18:31:00      -72.107      182.128      -31.261       84.384       76.269       45.249     7120.742     5816.973     2047.513        2.716        0.749      195.883       20.828        0.011      330.516       -2.064      854.948
12/31/2021  18:32:00      -39.395      168.350      -21.160       70.001       75.591       38.022     4900.083     5714.006     1445.679        2.120        0.603      172.898       21.222        0.015      330.495       -2.099      854.953
12/31/2021  18:33:00      -38.540      252.585      -18.624       69.050       83.700       34.226     4767.905     7005.736     1171.407        3.929        0.647      255.508       32.657        0.016      330.503       -2.085      854.948
12/31/2021  18:34:00      -53.817      199.751      -15.604       52.129       62.244       32.261     2717.425     3874.284     1040.790        2.533        0.382      206.874       26.685        0.017      330.548       -2.011      854.962
12/31/2021  18:35:00      -71.960      181.800      -14.483       84.666       76.342       44.912     7168.378     5828.052     2017.109        2.672        0.751      195.524       38.194        0.038      330.452       -2.167      854.989
12/31/2021  18:36:00      -19.004      241.598      -16.987       62.538       73.869       40.937     3911.018     5456.648     1675.820        3.503        0.552      242.344       29.696        0.015      330.396       -2.262      855.035
12/31/2021  18:37:00      -82.089      183.629      -19.084       70.218       77.004       38.675     4930.534     5929.607     1495.789        2.659        0.618      201.142       21.600        0.012      330.440       -2.188      855.080
12/31/2021  18:38:00      -30.799      137.882      -13.794       56.214       64.129       31.032     3160.057     4112.503      962.983        1.419        0.412      141.280       23.035        0.027      330.397       -2.257      855.079
12/31/2021  18:39:00      -38.752      172.894      -29.359       57.763       52.220       32.537     3336.610     2726.936     1058.632        1.969        0.356      177.184       20.644        0.014      330.386       -2.277      855.072
12/31/2021  18:40:00      -40.246      127.322       -5.406       65.086       60.807       35.847     4236.133     3697.513     1285.040        1.354        0.461      133.531       30.159        0.051      330.409       -2.238      855.087
12/31/2021  18:41:00      -34.426      128.218      -12.505       43.981       51.268       25.220     1934.323     2628.431      636.052        1.149        0.260      132.759       20.654        0.024      330.407       -2.241      855.118
12/31/2021  18:42:00      -44.704      100.144       -5.126       39.603       56.414       25.357     1568.434     3182.563      642.989        0.872        0.270      109.669       18.980        0.030      330.432       -2.198      855.153
12/31/2021  18:43:00       -6.807      169.916       -8.905       62.535       70.008       37.427     3910.584     4901.123     1400.785        1.960        0.511      170.053       30.267        0.032      330.338       -2.354      855.162
12/31/2021  18:44:00      -38.817      143.112      -14.102       55.558       70.613       37.378     3086.673     4986.219     1397.092        1.583        0.473      148.283       32.772        0.049      330.314       -2.394      855.181
12/31/2021  18:45:00      -63.070      231.535      -25.552       72.528       52.725       32.704     5260.361     2779.876     1069.566        3.367        0.455      239.971       18.731        0.006      330.269       -2.472      855.216
12/31/2021  18:46:00      -65.810      215.733      -31.817       74.870       95.304       49.908     5605.519     9082.940     2490.786        3.453        0.859      225.548       26.496        0.014      330.295       -2.427      855.257
12/31/2021  18:47:00     -121.308      171.906      -24.313       91.502       74.711       37.082     8372.541     5581.662     1375.106        3.009        0.766      210.398       32.731        0.024      330.292       -2.432      855.272
12/31/2021  18:48:00      -72.645      118.828      -20.347       65.428       55.193       31.748     4280.840     3046.229     1007.946        1.407        0.417      139.275       26.440        0.036      330.295       -2.425      855.270
12/31/2021  18:49:00      -51.324      137.537       -9.065       93.088       68.702       45.581     8665.450     4719.925     2077.669        1.855        0.773      146.801       45.277        0.095      330.275       -2.459      855.249
12/31/2021  18:50:00      -76.833      142.597      -23.402       92.931       60.423       32.774     8636.176     3650.959     1074.129        2.007        0.668      161.979       20.933        0.017      330.290       -2.434      855.235
12/31/2021  18:51:00      -25.098       85.491       -7.134       54.677       59.630       33.307     2989.542     3555.737     1109.367        0.782        0.383       89.099       22.801        0.065      330.291       -2.430      855.234
12/31/2021  18:52:00       -9.327       62.202       -1.379       24.755       42.770       23.396      612.818     1829.256      547.367        0.347        0.149       62.897       13.761        0.048      330.266       -2.471      855.270
12/31/2021  18:53:00       -0.773        0.266       -2.524       27.021       42.659       22.713      730.116     1819.814      515.869        0.154        0.153        0.817       23.475      824.614      330.245       -2.505      855.323
12/31/2021  18:54:00      -23.647      100.509        1.986       53.391       53.569       32.448     2850.634     2869.630     1052.864        0.872        0.339      103.253       28.452        0.076      330.281       -2.447      855.362
12/31/2021  18:55:00      -23.040      161.022      -19.478       56.144       79.979       36.103     3152.133     6396.711     1303.393        1.884        0.543      162.662       21.278        0.017      330.204       -2.575      855.411
12/31/2021  18:56:00      -37.332       58.552      -16.320       46.457       58.142       32.161     2158.206     3380.534     1034.310        0.583        0.329       69.441       18.837        0.074      330.206       -2.571      855.437
12/31/2021  18:57:00      -42.368       82.300       -2.658       52.233       50.323       24.700     2728.291     2532.426      610.089        0.722        0.294       92.565       17.911        0.037      330.220       -2.547      855.491
12/31/2021  18:58:00      -28.506      135.014      -30.852       76.660       72.343       45.992     5876.711     5233.511     2115.281        1.661        0.661      137.990       32.241        0.055      330.215       -2.557      855.517
12/31/2021  18:59:00      -20.937      159.682      -15.328       61.103       74.448       41.369     3733.597     5542.556     1711.410        1.858        0.549      161.049       17.802        0.012      330.156       -2.653      855.546
12/31/2021  19:00:00      -17.641       45.893        6.399       30.261       43.211       25.999      915.705     1867.156      675.954        0.296        0.173       49.166       20.488        0.174      330.263       -2.476      855.545
12/31/2021  19:01:00      -26.656       29.861       -6.966       51.217       58.954       34.484     2623.171     3475.585     1189.156        0.447        0.364       40.028       27.946        0.487      330.127       -2.701      855.559
12/31/2021  19:02:00      -53.899      124.754      -11.021       55.997       77.290       35.180     3135.621     5973.691     1237.619        1.447        0.517      135.899       21.477        0.025      330.133       -2.691      855.574
12/31/2021  19:03:00      -71.718       78.563      -21.863       51.802       48.902       39.511     2683.453     2391.372     1561.129        0.921        0.332      106.375       28.477        0.072      330.134       -2.690      855.596
12/31/2021  19:04:00       11.460      106.200      -17.195       29.766       51.760       30.305      886.005     2679.091      918.373        0.809        0.224      106.817       27.586        0.067      330.097       -2.749      855.617
12/31/2021  19:05:00      -11.128       40.381      -19.631       44.056       69.869       25.610     1940.970     4881.736      655.857        0.481        0.374       41.886       23.198        0.307      330.174       -2.624      855.638
12/31/2021  19:06:00      -25.028       79.791       -5.515       61.059       48.003       30.950     3728.146     2304.275      957.918        0.701        0.350       83.625       33.691        0.162      330.160       -2.647      855.673
12/31/2021  19:07:00      -43.629       47.491        4.741       48.283       27.526       25.294     2331.253      757.683      639.792        0.395        0.186       64.490       28.576        0.196      330.077       -2.780      855.704
12/31/2021  19:08:00      -49.385       53.404      -10.850       63.396       27.610       27.346     4019.062      762.307      747.821        0.547        0.276       72.739       18.429        0.064      330.054       -2.818      855.764
12/31/2021  19:09:00      -13.826       45.705       -6.636       29.255       28.509       17.408      855.877      812.774      303.036        0.215        0.099       47.751        6.740        0.020      330.124       -2.705      855.781
12/31/2021  19:10:00      -61.606       27.240      -12.368       32.397       20.449       18.127     1049.550      418.171      328.590        0.324        0.090       67.360       14.115        0.044      330.065       -2.799      855.782
12/31/2021  19:11:00      -13.214        4.378       -6.848       31.916       24.911       26.026     1018.630      620.545      677.375        0.128        0.116       13.920       23.260        2.792      330.097       -2.749      855.766
12/31/2021  19:12:00      -78.425       12.129       -7.566       76.695       54.683       31.068     5882.187     2990.204      965.207        0.809        0.492       79.358       29.316        0.136      330.038       -2.846      855.735
12/31/2021  19:13:00      -34.217       17.835       -7.066       37.955       59.024       29.909     1440.585     3483.867      894.531        0.368        0.291       38.586       24.621        0.407      329.990       -2.922      855.736
12/31/2021  19:14:00      -20.587       -3.593      -12.451       23.561       23.223       20.089      555.105      539.298      403.586        0.104        0.075       20.898        7.704        0.136      329.949       -2.991      855.736
12/31/2021  19:15:00       30.597       -2.328      -13.663       30.754       13.930       16.997      945.778      194.044      288.913        0.128        0.071       30.685        7.068        0.053      330.026       -2.866      855.762
12/31/2021  19:16:00      -74.198       30.160      -12.561       62.943       38.045       25.722     3961.804     1447.390      661.625        0.632        0.304       80.094       32.671        0.166      329.858       -3.140      855.782
12/31/2021  19:17:00      -50.944       28.254      -20.987       41.834       31.248       24.095     1750.079      976.442      580.591        0.357        0.165       58.255       17.815        0.094      329.690       -3.412      855.796
12/31/2021  19:18:00       -7.247       32.619       -2.045       24.348       30.550       20.344      592.847      933.317      413.893        0.153        0.097       33.415       13.011        0.152      329.741       -3.333      855.814
12/31/2021  19:19:00      -29.089      -21.112       -5.701       47.739       35.040       23.895     2279.009     1227.822      570.991        0.270        0.204       35.943       17.175        0.228      329.808       -3.221      855.806
12/31/2021  19:20:00      -52.509       -9.168       -6.842       45.764       81.862       31.633     2094.310     6701.417     1000.617        0.634        0.490       53.303       25.495        0.229      329.789       -3.254      855.794
12/31/2021  19:21:00      -87.516        5.566      -18.100       48.391       35.380       28.495     2341.652     1251.774      811.980        0.621        0.220       87.693       26.903        0.094      329.785       -3.259      855.805
12/31/2021  19:22:00      -76.032        5.918      -14.225       30.156       47.398       23.663      909.359     2246.574      559.958        0.487        0.186       76.262        9.841        0.017      329.797       -3.239      855.824
12/31/2021  19:23:00      -19.792       41.584       -3.320       32.859       34.021       22.107     1079.721     1157.418      488.722        0.243        0.136       46.054       13.252        0.083      329.792       -3.248      855.841
12/31/2021  19:24:00      -54.015       20.955       -7.521       69.369       42.746       30.963     4812.074     1827.225      958.729        0.550        0.380       57.937       31.057        0.287      329.760       -3.300      855.853
12/31/2021  19:25:00     -116.076       49.258      -29.844       53.086       65.034       34.317     2818.147     4229.372     1177.641        1.251        0.411      126.095       20.355        0.026      329.782       -3.263      855.878
12/31/2021  19:26:00     -106.166       70.209      -11.297       47.403       49.990       27.126     2247.078     2499.002      735.820        1.090        0.274      127.282       25.170        0.039      329.742       -3.327      855.901
12/31/2021  19:27:00      -88.970       -6.342       -8.475       39.205       34.771       21.191     1537.039     1208.992      449.041        0.561        0.160       89.196       18.348        0.042      329.869       -3.122      855.918
12/31/2021  19:28:00      -81.955       -5.648      -15.487       47.321       25.317       26.882     2239.246      640.956      722.658        0.529        0.180       82.150       20.079        0.060      329.801       -3.234      855.934
12/31/2021  19:29:00     -123.337        3.570      -12.874       48.344       23.188       24.502     2337.188      537.668      600.342        0.943        0.174      123.388       16.769        0.018      329.723       -3.360      855.933
12/31/2021  19:30:00     -119.959        8.120       -8.289       57.741       33.956       26.585     3334.054     1152.986      706.783        0.986        0.260      120.233       29.470        0.060      329.669       -3.447      855.947
12/31/2021  19:31:00      -98.936      -13.141       -7.340       36.997       30.756       29.088     1368.776      945.955      846.134        0.659        0.158       99.805       19.531        0.038      329.772       -3.280      855.972
12/31/2021  19:32:00     -131.606      -17.490      -19.547       39.912       32.704       27.338     1592.984     1069.547      747.340        1.071        0.170      132.763       17.776        0.018      329.795       -3.243      855.981
12/31/2021  19:33:00     -157.874      -34.609      -12.110       53.501       41.301       29.363     2862.331     1705.793      862.158        1.585        0.272      161.623       30.359        0.035      329.787       -3.255      856.002
12/31/2021  19:34:00      -70.923      -23.287      -25.769       59.214       51.036       39.634     3506.334     2604.712     1570.872        0.696        0.384       74.648       30.056        0.162      329.752       -3.314      856.023
12/31/2021  19:35:00      -45.305      -15.155        1.866       72.309       50.597       35.145     5228.659     2560.103     1235.191        0.565        0.451       47.773       31.493        0.435      329.721       -3.364      856.050
12/31/2021  19:36:00     -125.739       -7.542       -4.790       49.201       40.389       33.038     2420.747     1631.251     1091.501        1.052        0.257      125.965       27.100        0.046      329.656       -3.471      856.067
12/31/2021  19:37:00      -69.447       -6.789       -0.372       62.965       43.286       29.178     3964.620     1873.672      851.362        0.578        0.334       69.778       22.038        0.100      329.707       -3.386      856.075
12/31/2021  19:38:00      -94.190       -7.512       -8.949       29.826       33.073       27.342      889.561     1093.812      747.580        0.587        0.137       94.489       18.056        0.037      329.717       -3.370      856.084
12/31/2021  19:39:00      -72.585      -12.946      -13.624       75.019       45.276       33.288     5627.919     2049.879     1108.095        0.720        0.439       73.731       36.166        0.241      329.741       -3.332      856.103
12/31/2021  19:40:00        8.637      -11.455       -0.466       47.522       32.139       44.672     2258.376     1032.929     1995.586        0.275        0.264       14.346       15.699        1.198      329.721       -3.363      856.137
12/31/2021  19:41:00      -67.765       18.176       -2.923       49.588       45.712       28.611     2458.943     2089.576      818.595        0.515        0.268       70.160       15.662        0.050      329.763       -3.296      856.159
12/31/2021  19:42:00     -107.246        3.414       -8.060       62.313       36.651       31.029     3882.949     1343.265      962.786        0.888        0.309      107.300       32.347        0.091      329.709       -3.385      856.178
12/31/2021  19:43:00      -98.652      -10.115       -6.590       70.270       38.872       35.334     4937.814     1511.070     1248.460        0.879        0.385       99.169       38.181        0.148      329.695       -3.406      856.173
12/31/2021  19:44:00      -13.546       15.714       -4.959       42.168       42.624       21.534     1778.158     1816.833      463.692        0.226        0.203       20.747       19.396        0.874      329.720       -3.366      856.186
12/31/2021  19:45:00      -66.440       44.905       -8.651       52.900       36.663       18.230     2798.420     1344.209      332.323        0.549        0.224       80.192       19.380        0.058      329.737       -3.337      856.181
12/31/2021  19:46:00      -98.014       62.954      -21.219       35.386       47.064       23.101     1252.179     2214.992      533.655        0.901        0.200      116.490       23.907        0.042      329.742       -3.331      856.180
12/31/2021  19:47:00     -110.597       -3.408        0.554       66.212       39.486       35.701     4384.029     1559.157     1274.544        0.973        0.361      110.650       31.268        0.080      329.801       -3.234      856.189
12/31/2021  19:48:00     -112.157      -23.906      -26.573       56.443       39.814       28.434     3185.810     1585.127      808.470        0.972        0.279      114.676       20.246        0.031      329.908       -3.056      856.189
12/31/2021  19:49:00      -82.565       -2.854      -18.043       25.840       19.831       15.589      667.691      393.257      243.015        0.423        0.065       82.614        8.829        0.011      330.005       -2.898      856.191
12/31/2021  19:50:00      -38.789        4.475        2.127       45.507       29.553       29.342     2070.856      873.383      860.933        0.267        0.190       39.046       17.277        0.196      330.007       -2.896      856.173
12/31/2021  19:51:00      -60.008       -8.148       -3.979       54.524       41.435       33.656     2972.875     1716.823     1132.702        0.475        0.291       60.558       23.814        0.155      330.004       -2.902      856.155
12/31/2021  19:52:00      -98.003       10.510        1.013       61.444       37.118       26.880     3775.425     1377.713      722.538        0.779        0.294       98.565       28.964        0.086      329.859       -3.137      856.126
12/31/2021  19:53:00      -76.239      -16.629       -7.035       47.561       35.347       25.363     2262.092     1249.422      643.270        0.515        0.208       78.031       15.631        0.040      330.049       -2.827      856.093
12/31/2021  19:54:00      -84.296        9.569       -2.134       54.754       55.265       35.453     2998.043     3054.175     1256.906        0.725        0.365       84.838       31.604        0.139      330.047       -2.831      856.101
12/31/2021  19:55:00     -158.666       39.591       -4.889       66.070       38.783       44.012     4365.247     1504.104     1937.041        1.728        0.390      163.531       32.947        0.041      329.906       -3.063      856.136
12/31/2021  19:56:00     -148.470      -19.039       -1.112       95.738       56.486       57.778     9165.677     3190.648     3338.346        1.905        0.785      149.686       58.521        0.153      329.935       -3.014      856.159
12/31/2021  19:57:00     -223.043       87.487       -9.942       69.619       68.612       40.545     4846.872     4707.667     1643.923        3.435        0.560      239.588       44.141        0.034      329.889       -3.093      856.159
12/31/2021  19:58:00     -104.932       42.087       -5.937       75.798       53.996       26.744     5745.313     2915.560      715.224        1.109        0.469      113.058       22.069        0.038      329.885       -3.097      856.167
12/31/2021  19:59:00      -85.938       10.338       -9.174       45.263       42.792       34.272     2048.698     1831.118     1174.601        0.631        0.253       86.558       23.386        0.073      329.966       -2.963      856.192
12/31/2021  20:00:00      -45.972       -4.091      -15.776       21.091       30.176       14.613      444.851      910.563      213.545        0.197        0.078       46.153        8.438        0.033      330.037       -2.847      856.246
12/31/2021  20:01:00      -88.759       -5.246      -13.559       44.290       34.778       25.617     1961.607     1209.543      656.216        0.596        0.191       88.914       16.719        0.035      330.109       -2.728      856.301
12/31/2021  20:02:00      -84.677      -41.317      -12.655       56.714       28.414       26.919     3216.423      807.355      724.614        0.689        0.237       94.219       19.240        0.042      330.103       -2.740      856.349
12/31/2021  20:03:00      -58.985      -74.341      -12.675       55.442       27.746       29.814     3073.831      769.837      888.846        0.695        0.237       94.899       15.004        0.025      330.258       -2.485      856.375
12/31/2021  20:04:00      -40.562       12.121      -15.831       38.503       26.908       18.828     1482.451      724.052      354.493        0.230        0.128       42.334       17.817        0.177      330.196       -2.588      856.436
12/31/2021  20:05:00        1.625        4.234      -15.640       19.529       16.074       14.180      381.376      258.368      201.068        0.055        0.042        4.535        8.920        3.869      330.238       -2.517      856.471
12/31/2021  20:06:00       -0.584       23.009      -20.189       18.683       31.964       11.310      349.056     1021.674      127.917        0.122        0.075       23.017       12.750        0.307      330.198       -2.585      856.523
12/31/2021  20:07:00       -1.074       17.302      -10.200       29.147       29.788       20.668      849.561      887.322      427.172        0.128        0.108       17.335        8.740        0.254      330.168       -2.632      856.542
12/31/2021  20:08:00      -47.975       45.016      -11.976       36.808       21.127       19.029     1354.839      446.346      362.091        0.332        0.108       65.788       11.527        0.031      330.135       -2.687      856.558
12/31/2021  20:09:00     -126.854       30.903      -19.343       37.250       30.642       26.503     1387.561      938.926      702.392        1.022        0.151      130.564       16.597        0.016      330.106       -2.735      856.577
12/31/2021  20:10:00      -39.082       46.153      -10.859       25.678       22.508       16.034      659.355      506.625      257.100        0.260        0.071       60.477       12.474        0.043      330.159       -2.648      856.592
12/31/2021  20:11:00       23.548      -87.185      -32.411       37.638       47.215       29.537     1416.641     2229.296      872.462        0.686        0.226       90.309       17.739        0.039      330.420       -2.218      856.571
12/31/2021  20:12:00       25.380      -75.791      -36.458       63.382       41.929       22.682     4017.287     1758.020      514.452        0.700        0.314       79.928       24.838        0.097      330.306       -2.404      856.567
12/31/2021  20:13:00       -1.487      -44.067      -18.796       42.927       53.746       31.474     1842.747     2888.624      990.602        0.401        0.286       44.092       32.168        0.532      330.281       -2.447      856.591
12/31/2021  20:14:00      -69.243       29.415        7.720       63.457       44.188       33.916     4026.784     1952.617     1150.293        0.642        0.356       75.232       34.068        0.205      330.288       -2.434      856.611
12/31/2021  20:15:00        8.632      -22.258       -9.629       33.222       72.770       31.550     1103.695     5295.414      995.399        0.403        0.370       23.873       24.104        1.019      330.223       -2.542      856.631
12/31/2021  20:16:00       52.616       58.870      -23.866       44.534       78.513       21.745     1983.303     6164.342      472.851        0.771        0.431       78.957       12.324        0.024      330.168       -2.631      856.656
12/31/2021  20:17:00        5.984       23.476      -13.164       18.239       31.321       22.016      332.677      980.988      484.706        0.128        0.090       24.226       15.907        0.431      330.166       -2.637      856.657
12/31/2021  20:18:00        2.569      -28.548       -9.953       27.169       32.114       25.684      738.163     1031.328      659.655        0.167        0.121       28.663       19.664        0.471      330.319       -2.385      856.658
12/31/2021  20:19:00      -19.927      -11.336       -7.986       57.864       34.028       24.980     3348.259     1157.883      623.997        0.286        0.257       22.925       19.523        0.725      330.205       -2.571      856.668
12/31/2021  20:20:00      -63.009       -9.697       -6.537       69.229       51.580       38.975     4792.598     2660.493     1519.039        0.654        0.449       63.751       30.999        0.236      330.132       -2.691      856.644
12/31/2021  20:21:00      -64.364       31.184      -23.491       44.439       21.599       32.189     1974.820      466.515     1036.122        0.457        0.174       71.521       27.789        0.151      330.171       -2.628      856.619
12/31/2021  20:22:00      -63.492        3.071       -4.394       64.707       43.404       24.932     4187.031     1883.872      621.590        0.537        0.335       63.566       26.531        0.174      330.161       -2.645      856.589
12/31/2021  20:23:00      -37.463       -5.311      -24.070       41.368       19.094       18.790     1711.303      364.576      353.059        0.222        0.121       37.838       22.543        0.355      330.119       -2.710      856.556
12/31/2021  20:24:00      -29.797      -19.629       -1.181       47.188       41.106       33.227     2226.702     1689.702     1104.057        0.315        0.251       35.682       25.056        0.493      330.231       -2.529      856.546
12/31/2021  20:25:00      -71.297        2.186       -1.893       60.296       33.540       31.937     3635.657     1124.945     1019.999        0.544        0.289       71.330       27.497        0.149      330.164       -2.639      856.549
12/31/2021  20:26:00     -124.302      -15.381      -14.286       48.345       29.784       27.711     2337.197      887.108      767.875        0.994        0.200      125.250       24.995        0.040      330.140       -2.679      856.556
12/31/2021  20:27:00     -123.169      -14.267       -7.854       78.815       33.122       33.083     6211.743     1097.083     1094.486        1.192        0.420      123.992       29.750        0.058      330.116       -2.719      856.569
12/31/2021  20:28:00      -57.753        3.889       -3.663       44.273       30.102       24.153     1960.084      906.125      583.352        0.341        0.172       57.884       20.527        0.126      330.124       -2.705      856.568
12/31/2021  20:29:00      -52.037       -9.343        6.844       67.899       32.723       33.729     4610.256     1070.766     1137.632        0.483        0.341       52.869       27.325        0.267      330.139       -2.680      856.573
12/31/2021  20:30:00     -167.657      -12.431      -16.508       66.514       55.830       41.120     4424.057     3117.015     1690.823        1.888        0.462      168.118       35.163        0.044      330.032       -2.856      856.582
12/31/2021  20:31:00      -43.481      -35.781       -8.140       51.341       62.492       31.771     2635.868     3905.281     1009.394        0.539        0.378       56.310        6.756        0.014      330.068       -2.795      856.603
12/31/2021  20:32:00     -117.715      -47.129      -19.657       67.837       66.027       34.994     4601.876     4359.576     1224.604        1.332        0.509      126.799       33.837        0.071      330.107       -2.733      856.615
12/31/2021  20:33:00      -98.817      -54.100      -15.323       68.142       48.686       33.663     4643.335     2370.346     1133.230        1.054        0.407      112.657       31.470        0.078      330.151       -2.663      856.657
12/31/2021  20:34:00     -160.448      -43.422      -19.444       76.354       67.123       43.467     5829.926     4505.545     1889.358        2.011        0.611      166.220       36.844        0.049      330.049       -2.829      856.713
12/31/2021  20:35:00     -151.844     -179.170      -15.703       30.000       61.993       24.770      899.979     3843.118      613.560        3.038        0.268      234.858       19.868        0.007      329.942       -3.007      856.718
12/31/2021  20:36:00     -119.053      -90.706      -11.996       82.983      104.474       44.889     6886.254    10914.857     2014.979        2.118        0.991      149.670       34.361        0.053      330.046       -2.834      856.685
12/31/2021  20:37:00     -173.323      -39.664      -11.686       80.735       83.526       48.518     6518.137     6976.671     2354.009        2.380        0.792      177.803       45.726        0.066      330.030       -2.862      856.682
12/31/2021  20:38:00     -146.215       18.765      -16.143       69.941       56.580       37.462     4891.695     3201.299     1403.438        1.574        0.475      147.414       10.147        0.005      329.965       -2.966      856.760
12/31/2021  20:39:00      -66.578       -0.705       -6.328       73.279       61.669       41.883     5369.808     3803.117     1754.213        0.770        0.546       66.582       37.255        0.313      329.917       -3.044      856.812
12/31/2021  20:40:00     -132.862       12.211       -1.546       85.768       61.950       45.547     7356.076     3837.793     2074.491        1.553        0.663      133.422       36.519        0.075      329.945       -2.999      856.843
12/31/2021  20:41:00     -110.351       14.626      -14.705       77.303       43.341       38.629     5975.803     1878.474     1492.193        1.098        0.467      111.316       27.235        0.060      329.981       -2.939      856.838
12/31/2021  20:42:00      -85.021      -44.395      -16.889       93.749       57.354       29.001     8788.913     3289.451      841.080        1.120        0.646       95.914       21.524        0.050      330.176       -2.620      856.813
12/31/2021  20:43:00      -73.941       -4.493      -14.493       69.087       44.543       38.244     4773.074     1984.040     1462.586        0.696        0.411       74.077       26.239        0.125      330.214       -2.557      856.815
12/31/2021  20:44:00     -247.758       -5.121      -24.282      123.506       96.324       51.587    15253.778     9278.242     2661.192        4.459        1.360      247.811       49.958        0.041      330.135       -2.690      856.863
12/31/2021  20:45:00     -195.174       35.960       -2.388      147.554       99.801       55.611    21772.063     9960.178     3092.547        3.710        1.741      198.459       30.749        0.024      330.120       -2.712      856.899
12/31/2021  20:46:00     -134.852       40.552      -10.867       87.092       74.264       39.117     7585.098     5515.112     1530.148        1.729        0.732      140.818       24.622        0.031      330.161       -2.646      856.949
12/31/2021  20:47:00     -188.338       28.922        0.568       96.642       73.951       41.424     9339.586     5468.743     1715.939        2.641        0.826      190.546       42.977        0.051      330.150       -2.665      857.035
12/31/2021  20:48:00     -179.273       26.963       -8.057       85.998       60.292       45.831     7395.729     3635.103     2100.511        2.303        0.657      181.289       40.106        0.049      330.034       -2.852      857.071
12/31/2021  20:49:00     -253.564      -37.529      -10.367      129.860       82.441       61.314    16863.690     6796.577     3759.457        4.661        1.371      256.326       62.180        0.059      329.933       -3.020      857.052
12/31/2021  20:50:00     -181.125      -20.858      -10.925      140.087      103.132       64.995    19624.360    10636.288     4224.336        3.392        1.724      182.322       67.055        0.135      330.040       -2.845      857.030
12/31/2021  20:51:00     -183.460       28.523        0.825      104.131       82.647       48.429    10843.338     6830.568     2345.325        2.724        1.001      185.664       52.007        0.078      330.032       -2.857      857.062
12/31/2021  20:52:00     -189.450       60.844       -5.804       85.336       70.908       40.901     7282.149     5027.886     1672.865        2.680        0.699      198.981       40.872        0.042      330.084       -2.772      857.096
12/31/2021  20:53:00     -177.958       73.756      -29.602       52.262       51.959       33.777     2731.325     2699.705     1140.901        2.228        0.329      192.637       28.359        0.022      329.963       -2.968      857.123
12/31/2021  20:54:00     -143.309       15.715      -20.219       84.455       70.858       46.516     7132.680     5020.858     2163.764        1.775        0.716      144.168       37.189        0.067      329.891       -3.088      857.126
12/31/2021  20:55:00     -140.013       25.258      -16.375       71.758       56.565       48.645     5149.230     3199.557     2366.357        1.561        0.536      142.273       26.118        0.034      329.908       -3.060      857.134
12/31/2021  20:56:00      -39.187        3.285       -0.325       66.621       50.529       44.281     4438.364     2553.189     1960.809        0.525        0.448       39.324       32.048        0.664      329.910       -3.054      857.164
12/31/2021  20:57:00      -75.273       48.324      -17.295       86.363       50.367       34.066     7458.567     2536.843     1160.463        0.973        0.558       89.450       27.182        0.092      329.887       -3.091      857.212
12/31/2021  20:58:00        6.871        1.992       -9.387       71.777       42.888       37.016     5151.965     1839.363     1370.150        0.425        0.418        7.154       29.485       16.987      329.947       -2.993      857.231
12/31/2021  20:59:00     -127.997       15.538      -17.461       98.193       73.144       39.573     9641.825     5349.972     1566.022        1.674        0.828      128.937       29.389        0.052      329.917       -3.044      857.260
12/31/2021  21:00:00     -153.780       63.567      -14.072       88.874       52.850       28.432     7898.560     2793.114      808.365        1.969        0.575      166.400       32.145        0.037      329.884       -3.099      857.269
12/31/2021  21:01:00     -125.152       15.848       -9.342       53.407       43.256       24.737     2852.294     1871.092      611.936        1.067        0.267      126.152       17.892        0.020      329.900       -3.072      857.283
12/31/2021  21:02:00      -53.577       31.218      -16.833       43.068       34.495       19.926     1854.843     1189.882      397.047        0.378        0.172       62.009       16.925        0.074      329.859       -3.137      857.306
12/31/2021  21:03:00      -98.804       70.228       -4.818       51.012       34.980       31.519     2602.256     1223.621      993.430        0.977        0.241      121.220       29.754        0.060      329.807       -3.224      857.309
12/31/2021  21:04:00     -113.849       88.118      -17.969       39.534       39.246       33.726     1562.908     1540.223     1137.420        1.264        0.212      143.967       24.772        0.030      329.765       -3.292      857.320
12/31/2021  21:05:00      -58.165        9.396       -5.828      109.874       45.566       42.417    12072.199     2076.289     1799.179        0.972        0.797       58.918       40.594        0.475      329.744       -3.327      857.344
12/31/2021  21:06:00     -151.730       76.752      -19.696       85.903       45.643       31.348     7379.379     2083.313      982.719        1.987        0.522      170.038       24.690        0.021      329.666       -3.455      857.369
12/31/2021  21:07:00      -85.210       32.869        3.917       56.674       38.698       27.809     3211.901     1497.547      773.350        0.692        0.274       91.329       30.887        0.114      329.603       -3.557      857.391
12/31/2021  21:08:00     -120.940       82.896      -14.700       93.925       72.108       31.333     8821.833     5199.581      981.751        1.836        0.750      146.622       43.601        0.088      329.623       -3.526      857.398
12/31/2021  21:09:00     -165.729       95.639      -24.158       73.961       58.314       30.763     5470.241     3400.498      946.388        2.350        0.491      191.345       23.614        0.015      329.649       -3.483      857.394
12/31/2021  21:10:00     -163.149       43.629        3.013       73.737       50.171       34.034     5437.091     2517.086     1158.305        1.882        0.456      168.882       34.433        0.042      329.606       -3.553      857.397
12/31/2021  21:11:00      -87.680       48.594        2.737      120.182       57.424       29.018    14443.802     3297.532      842.018        1.432        0.929      100.245       28.230        0.079      329.577       -3.602      857.409
12/31/2021  21:12:00      -83.078       36.027      -18.690       95.939       41.940       37.861     9204.262     1758.993     1433.447        1.047        0.620       90.553       13.056        0.021      329.684       -3.424      857.422
12/31/2021  21:13:00      -98.518        7.034       -9.306       91.525       34.031       35.928     8376.825     1158.137     1290.791        1.033        0.541       98.768       47.432        0.231      329.647       -3.486      857.440
12/31/2021  21:14:00     -177.063       61.824      -13.571       85.387       45.497       25.228     7290.920     2069.996      636.443        2.268        0.500      187.546       18.795        0.010      329.633       -3.510      857.460
12/31/2021  21:15:00     -117.748       24.207       -6.240       98.034       61.618       46.010     9610.707     3796.755     2116.908        1.500        0.776      120.211       46.751        0.151      329.582       -3.593      857.475
12/31/2021  21:16:00      -97.338        7.303       -0.751       93.714       54.492       43.041     8782.314     2969.401     1852.547        1.156        0.680       97.612       36.838        0.142      329.602       -3.558      857.477
12/31/2021  21:17:00     -123.608       66.277        6.205       80.669       46.374       36.400     6507.450     2150.582     1324.983        1.484        0.499      140.255       39.954        0.081      329.508       -3.713      857.483
12/31/2021  21:18:00     -126.087       38.843      -16.105       62.484       44.100       31.660     3904.265     1944.793     1002.382        1.226        0.343      131.935       29.456        0.050      329.587       -3.584      857.494
12/31/2021  21:19:00     -134.008       53.538      -15.655       59.523       39.824       28.456     3542.963     1585.955      809.762        1.350        0.297      144.307       27.517        0.036      329.517       -3.698      857.497
12/31/2021  21:20:00     -161.246       83.473      -11.938       47.694       34.359       22.548     2274.705     1180.549      508.422        1.854        0.198      181.571       22.345        0.015      329.520       -3.694      857.523
12/31/2021  21:21:00     -142.167       51.115      -18.205       53.174       51.441       35.628     2827.515     2646.166     1269.354        1.495        0.337      151.077       19.549        0.017      329.548       -3.646      857.556
12/31/2021  21:22:00      -76.200       49.239      -22.458       60.094       61.603       44.061     3611.282     3794.944     1941.328        0.904        0.467       90.724       31.854        0.123      329.534       -3.671      857.586
12/31/2021  21:23:00      -71.973       56.360      -20.517       47.688       37.869       37.446     2274.101     1434.091     1402.187        0.694        0.256       91.415       22.296        0.059      329.594       -3.571      857.610
12/31/2021  21:24:00      -67.161       62.884      -10.956       56.525       62.181       36.213     3195.116     3866.515     1311.409        0.848        0.419       92.005       25.396        0.076      329.642       -3.492      857.649
12/31/2021  21:25:00      -24.232       55.926       -2.348       24.541       32.347       17.033      602.240     1046.316      290.122        0.283        0.097       60.950       10.162        0.028      329.638       -3.499      857.669
12/31/2021  21:26:00      -43.447       79.796       -7.506       34.658       35.152       24.999     1201.174     1235.673      624.969        0.569        0.153       90.857       15.356        0.029      329.863       -3.131      857.689
12/31/2021  21:27:00      -54.810       65.062      -11.865       44.155       34.396       28.756     1949.691     1183.075      826.933        0.567        0.198       85.071       17.629        0.043      329.743       -3.328      857.717
12/31/2021  21:28:00      -48.203      134.724      -18.443       35.700       37.299       30.644     1274.483     1391.220      939.069        1.221        0.180      143.088       19.257        0.018      329.860       -3.137      857.750
12/31/2021  21:29:00      -64.915       71.912      -14.668       41.027       45.783       26.614     1683.181     2096.085      708.321        0.704        0.224       96.878       14.789        0.023      329.783       -3.263      857.756
12/31/2021  21:30:00      -78.055       99.199      -15.165       57.415       51.645       30.062     3296.533     2667.237      903.728        1.151        0.343      126.226       21.256        0.028      329.803       -3.231      857.741
12/31/2021  21:31:00      -28.393       54.816      -15.689       70.708       74.563       48.680     4999.553     5559.647     2369.729        0.849        0.646       61.733       28.076        0.207      329.761       -3.299      857.717
12/31/2021  21:32:00      -89.472       97.851      -15.643       49.278       48.448       30.390     2428.362     2347.163      923.533        1.176        0.285      132.590       21.679        0.027      329.796       -3.240      857.704
12/31/2021  21:33:00      -65.357      128.477      -29.905       85.067       68.602       49.156     7236.355     4706.172     2416.305        1.801        0.718      144.146       33.261        0.053      329.779       -3.271      857.703
12/31/2021  21:34:00      -88.415       67.955      -17.280       81.409       51.095       31.987     6627.499     2610.686     1023.146        1.150        0.513      111.513       25.192        0.051      329.743       -3.328      857.702
12/31/2021  21:35:00      -64.190       40.566      -28.198       71.732       53.179       41.345     5145.532     2828.016     1709.412        0.812        0.484       75.934       26.666        0.123      329.758       -3.304      857.687
12/31/2021  21:36:00        6.680        1.800        9.558       55.970       46.152       41.797     3132.635     2129.974     1746.957        0.357        0.350        6.918       31.131       20.251      329.584       -3.587      857.699
12/31/2021  21:37:00     -100.654        5.177        2.046       86.641       48.105       42.628     7506.741     2314.114     1817.154        1.090        0.582      100.787       40.574        0.162      329.491       -3.740      857.715
12/31/2021  21:38:00      -97.504        9.869        5.230       72.532       56.138       37.332     5260.933     3151.507     1393.701        0.972        0.490       98.002       34.956        0.127      329.421       -3.856      857.723
12/31/2021  21:39:00     -114.249       19.073      -11.149       71.172       51.193       30.926     5065.463     2620.751      956.417        1.109        0.432      115.830       29.544        0.065      329.369       -3.940      857.710
12/31/2021  21:40:00     -155.752       61.864      -12.741       76.564       51.380       38.194     5862.104     2639.907     1458.754        1.910        0.498      167.589       33.840        0.041      329.356       -3.961      857.707
12/31/2021  21:41:00     -193.499       66.489       -1.672       98.433       58.021       37.970     9688.969     3366.474     1441.753        2.818        0.725      204.604       31.786        0.024      329.277       -4.093      857.714
12/31/2021  21:42:00     -180.809       61.820      -11.756       78.865       63.595       36.824     6219.732     4044.335     1356.010        2.413        0.581      191.086       36.308        0.036      329.288       -4.076      857.738
12/31/2021  21:43:00     -105.990       14.238       -8.996       64.873       50.917       42.846     4208.482     2592.556     1835.796        1.008        0.432      106.942       32.946        0.095      329.276       -4.093      857.755
12/31/2021  21:44:00     -146.882       49.843      -24.353       91.825       58.047       39.898     8431.914     3369.470     1591.814        1.902        0.670      155.108       35.599        0.053      329.259       -4.120      857.777
12/31/2021  21:45:00     -165.703       56.957      -19.136       69.254       79.751       35.301     4796.084     6360.297     1246.167        2.173        0.620      175.219       21.743        0.015      329.198       -4.219      857.797
12/31/2021  21:46:00      -42.098       35.362       -1.038       74.156       68.426       39.840     5499.117     4682.148     1587.209        0.739        0.588       54.979       34.956        0.404      329.246       -4.139      857.807
12/31/2021  21:47:00      -34.268       87.407      -25.792       62.913       61.999       51.772     3958.016     3843.889     2680.320        0.998        0.524       93.884       33.411        0.127      329.270       -4.101      857.791
12/31/2021  21:48:00       -5.386       -9.944        2.688       65.632       46.791       53.826     4307.550     2189.437     2897.197        0.476        0.470       11.309       37.026       10.719      329.262       -4.116      857.769
12/31/2021  21:49:00     -113.450       41.586      -10.789      134.856       79.853       57.005    18186.014     6376.546     3249.541        2.126        1.391      120.832       72.060        0.356      329.212       -4.198      857.757
12/31/2021  21:50:00      -24.962       24.693      -12.396       51.151       78.679       46.891     2616.399     6190.358     2198.743        0.619        0.550       35.112       33.770        0.925      329.180       -4.250      857.769
12/31/2021  21:51:00      -52.221       52.373      -22.770       96.986       64.745       47.623     9406.360     4191.876     2267.994        1.092        0.793       73.960       44.517        0.362      329.232       -4.165      857.784
12/31/2021  21:52:00       10.085       56.076        9.540       52.888       62.517       40.538     2797.110     3908.350     1643.360        0.584        0.417       56.976       17.276        0.092      329.236       -4.157      857.802
12/31/2021  21:53:00     -132.361       67.429      -26.751       96.286       58.325       48.234     9270.902     3401.764     2326.566        1.889        0.750      148.547       44.192        0.089      329.311       -4.036      857.842
12/31/2021  21:54:00      -81.400       21.711      -20.397       56.776      105.220       38.496     3223.484    11071.150     1481.932        1.164        0.789       84.245       29.579        0.123      329.352       -3.967      857.870
12/31/2021  21:55:00      -89.542      124.041      -22.065       74.891       71.261       37.470     5608.602     5078.137     1404.024        1.799        0.605      152.984       31.933        0.044      329.543       -3.657      857.898
12/31/2021  21:56:00      -77.529      100.121      -10.326       66.622      107.556       50.559     4438.490    11568.243     2556.184        1.735        0.928      126.630       44.100        0.121      329.606       -3.552      857.936
12/31/2021  21:57:00      -57.258       91.103      -19.084       71.097       84.262       34.052     5054.773     7100.062     1159.522        1.263        0.666      107.602       28.211        0.069      329.540       -3.661      857.973
12/31/2021  21:58:00      -58.461      104.875      -11.793       68.210       52.766       47.813     4652.588     2784.300     2286.130        1.214        0.486      120.068       24.007        0.040      329.576       -3.600      857.994
12/31/2021  21:59:00      -93.600      140.753      -21.648       86.925       81.085       45.818     7555.965     6574.720     2099.269        2.263        0.811      169.034       26.092        0.024      329.533       -3.674      858.037
12/31/2021  22:00:00      -60.878       68.889      -31.420       69.382       95.057       45.135     4813.833     9035.848     2037.135        1.266        0.794       91.934       29.270        0.101      329.525       -3.686      858.070
12/31/2021  22:01:00     -105.795       63.169      -25.771       68.743       48.522       32.307     4725.634     2354.361     1043.711        1.198        0.406      123.218       25.826        0.044      329.539       -3.663      858.128
12/31/2021  22:02:00      -44.805      140.089      -23.727       55.578       53.212       38.593     3088.964     2831.568     1489.400        1.480        0.370      147.080       15.781        0.012      329.617       -3.532      858.182
12/31/2021  22:03:00      -32.324      118.795      -10.454       34.414       41.865       23.257     1184.299     1752.713      540.910        0.937        0.174      123.114       11.756        0.009      329.605       -3.554      858.210
12/31/2021  22:04:00      -65.659      171.012      -25.429       38.120       84.632       36.519     1453.140     7162.649     1333.618        2.207        0.497      183.183       26.396        0.021      329.607       -3.553      858.208
12/31/2021  22:05:00      -84.515      215.816      -23.309       79.675       66.657       36.212     6348.049     4443.138     1311.317        3.318        0.605      231.774       25.890        0.012      329.572       -3.609      858.195
12/31/2021  22:06:00      -48.716      207.763      -14.319       64.339       82.446       38.681     4139.469     6797.303     1496.182        2.909        0.622      213.398       35.430        0.028      329.566       -3.621      858.188
12/31/2021  22:07:00      -56.787      138.242       -6.995       59.914       56.251       36.113     3589.642     3164.187     1304.171        1.522        0.403      149.451       21.896        0.021      329.591       -3.577      858.192
12/31/2021  22:08:00      -25.612      225.594      -21.186       66.023       76.794       39.778     4358.983     5897.321     1582.316        3.192        0.592      227.044       25.993        0.013      329.607       -3.554      858.193
12/31/2021  22:09:00      -62.140      240.346      -27.596       66.501       73.314       36.835     4422.400     5374.905     1356.817        3.677        0.558      248.249       23.021        0.009      329.608       -3.553      858.204
12/31/2021  22:10:00      -26.657      200.043      -24.398       70.131       89.910       41.178     4918.361     8083.892     1695.657        2.801        0.735      201.811       25.761        0.016      329.563       -3.626      858.213
12/31/2021  22:11:00      -54.054      170.881      -16.945       70.552       52.895       28.692     4977.558     2797.863      823.240        2.050        0.430      179.227       22.631        0.016      329.640       -3.497      858.232
12/31/2021  22:12:00      -24.631      168.259      -23.120       49.845       52.901       35.068     2484.533     2798.530     1229.788        1.798        0.326      170.052       24.461        0.021      329.578       -3.599      858.245
12/31/2021  22:13:00      -51.161      160.790       -4.540       63.118       97.242       38.825     3983.848     9456.016     1507.355        2.172        0.747      168.733       34.777        0.042      329.557       -3.634      858.254
12/31/2021  22:14:00      -55.446      187.637      -17.860       47.692       47.810       27.897     2274.488     2285.801      778.252        2.197        0.267      195.657       19.462        0.010      329.611       -3.547      858.251
12/31/2021  22:15:00      -52.996      175.971      -14.945       47.373       46.912       26.416     2244.211     2200.719      697.826        1.957        0.257      183.778       16.980        0.009      329.584       -3.589      858.267
12/31/2021  22:16:00      -26.702      172.950      -18.430       59.196       56.502       33.696     3504.174     3192.456     1135.404        1.940        0.392      174.999        5.602        0.001      329.546       -3.651      858.287
12/31/2021  22:17:00      -45.955      139.149      -15.107       65.135       51.711       35.101     4242.620     2674.044     1232.081        1.492        0.407      146.541       23.332        0.025      329.577       -3.601      858.326
12/31/2021  22:18:00      -64.371      247.007      -31.408       76.376       54.692       37.238     5833.347     2991.191     1386.678        3.817        0.511      255.257       22.352        0.008      329.519       -3.700      858.365
12/31/2021  22:19:00      -80.498      143.635      -18.652       73.331       69.154       38.765     5377.403     4782.322     1502.726        1.956        0.583      164.654       22.167        0.018      329.523       -3.690      858.405
12/31/2021  22:20:00      -31.265      230.686      -20.239       67.532       82.407       47.021     4560.579     6790.834     2210.930        3.408        0.678      232.795       31.981        0.019      329.489       -3.746      858.421
12/31/2021  22:21:00      -35.254      186.299      -23.115       74.755       64.822       36.680     5588.279     4201.906     1345.456        2.381        0.557      189.606       24.873        0.017      329.451       -3.807      858.432
12/31/2021  22:22:00      -38.335      226.522      -23.081       51.143       68.754       37.330     2615.638     4727.103     1393.544        3.102        0.437      229.743       29.201        0.016      329.418       -3.860      858.430
12/31/2021  22:23:00      -73.786      136.177       -5.758       61.663       56.509       32.694     3802.385     3193.216     1068.920        1.604        0.403      154.883       23.968        0.024      329.451       -3.805      858.418
12/31/2021  22:24:00      -72.095      249.835      -26.074       57.388       83.117       37.181     3293.379     6908.440     1382.440        3.994        0.579      260.030       31.815        0.015      329.397       -3.897      858.410
12/31/2021  22:25:00      -74.168      242.319      -21.392       52.183       86.507       36.134     2723.036     7483.384     1305.673        3.809        0.576      253.416       32.925        0.017      329.391       -3.907      858.415
12/31/2021  22:26:00      -74.989      193.314      -23.450       70.574       79.254       44.643     4980.702     6281.221     1993.015        2.840        0.663      207.350       28.748        0.019      329.393       -3.902      858.420
12/31/2021  22:27:00      -58.878      280.323      -26.926       52.802       63.203       34.073     2788.088     3994.571     1160.939        4.536        0.397      286.440       12.216        0.002      329.344       -3.984      858.427
12/31/2021  22:28:00      -73.675      236.085      -29.095       72.122       82.876       51.078     5201.521     6868.485     2608.936        3.834        0.734      247.314       40.833        0.027      329.342       -3.989      858.440
12/31/2021  22:29:00      -93.536      224.693      -22.902       59.657       63.420       32.783     3558.949     4022.153     1074.741        3.421        0.433      243.384       16.697        0.005      329.352       -3.972      858.455
12/31/2021  22:30:00      -75.403      252.755      -28.855       72.507       80.590       40.583     5257.310     6494.684     1646.982        4.190        0.670      263.763       30.902        0.014      329.273       -4.099      858.464
12/31/2021  22:31:00      -67.550      143.765       -8.506       72.247       72.192       46.153     5219.646     5211.704     2130.107        1.893        0.628      158.844       32.349        0.041      329.302       -4.050      858.475
12/31/2021  22:32:00      -49.494      226.218      -15.354       58.901       87.532       39.405     3469.376     7661.848     1552.753        3.327        0.634      231.569       36.274        0.025      329.267       -4.108      858.501
12/31/2021  22:33:00      -93.176      232.310      -27.307       77.181       80.623       39.070     5956.962     6500.013     1526.435        3.869        0.699      250.300       23.330        0.009      329.290       -4.072      858.527
12/31/2021  22:34:00      -88.367      237.357      -24.996       52.947       84.069       45.373     2803.347     7067.662     2058.692        3.835        0.596      253.273       33.263        0.017      329.290       -4.070      858.535
12/31/2021  22:35:00      -78.427      131.036      -20.755       63.909      101.708       42.878     4084.300    10344.436     1838.482        2.001        0.813      152.713       32.826        0.046      329.270       -4.103      858.563
12/31/2021  22:36:00      -60.057      185.375      -31.669       74.965      109.854       46.079     5619.787    12067.912     2123.233        2.939        0.991      194.861       49.820        0.065      329.284       -4.080      858.615
12/31/2021  22:37:00      -99.218      215.492      -22.423       72.852       85.705       52.100     5307.357     7345.350     2714.423        3.607        0.768      237.236       31.961        0.018      329.298       -4.059      858.670
12/31/2021  22:38:00     -107.700      198.731      -33.188       97.295       84.955       60.805     9466.243     7217.276     3697.214        3.628        1.019      226.039       37.002        0.027      329.272       -4.101      858.716
12/31/2021  22:39:00      -72.903      199.707      -38.666       68.979       89.842       45.192     4758.111     8071.606     2042.337        3.078        0.744      212.598       42.411        0.040      329.249       -4.140      858.762
12/31/2021  22:40:00      -54.547      239.368      -26.442       69.176       74.353       42.375     4785.319     5528.372     1795.602        3.654        0.605      245.505       26.669        0.012      329.311       -4.039      858.789
12/31/2021  22:41:00      -47.340      102.198      -19.003       66.745       66.711       28.407     4454.888     4450.295      806.935        1.138        0.486      112.630       25.668        0.052      329.290       -4.069      858.824
12/31/2021  22:42:00      -91.691      131.934      -16.344      109.982       91.209       63.793    12096.099     8319.165     4069.582        2.528        1.224      160.667       41.136        0.066      329.235       -4.161      858.849
12/31/2021  22:43:00      -78.902      185.135      -19.064       63.656       64.675       38.330     4052.053     4182.901     1469.217        2.528        0.485      201.248       19.275        0.009      329.269       -4.105      858.894
12/31/2021  22:44:00      -74.523      103.939       -8.489       58.819       61.656       48.135     3459.722     3801.503     2316.944        1.300        0.479      127.895       18.335        0.021      329.275       -4.093      858.933
12/31/2021  22:45:00      -28.088      135.524      -13.897       37.420       78.024       40.774     1400.245     6087.713     1662.537        1.425        0.458      138.404       20.098        0.021      329.279       -4.088      858.954
12/31/2021  22:46:00      -48.363       57.707      -12.396       43.970       46.296       32.732     1933.366     2143.328     1071.415        0.548        0.257       75.293       14.383        0.036      329.267       -4.106      858.978
12/31/2021  22:47:00      -78.882       55.456      -21.498       52.464       32.721       32.806     2752.508     1070.657     1076.226        0.733        0.245       96.425       14.885        0.024      329.195       -4.224      859.009
12/31/2021  22:48:00      -21.620       10.252      -21.225       47.710       64.363       35.411     2276.237     4142.613     1253.946        0.435        0.384       23.927       32.059        1.795      329.150       -4.297      859.053
12/31/2021  22:49:00      -91.759       35.002       -7.125       60.263       46.836       39.313     3631.596     2193.581     1545.506        0.853        0.369       98.208       29.921        0.093      329.085       -4.403      859.076
12/31/2021  22:50:00      -33.727        6.488      -11.595       47.522       49.972       34.335     2258.368     2497.167     1178.923        0.362        0.297       34.345       19.561        0.324      329.004       -4.536      859.083
12/31/2021  22:51:00      -59.764       30.769       -0.520       44.661       42.116       30.169     1994.590     1773.737      910.145        0.460        0.234       67.220       26.245        0.152      328.953       -4.618      859.092
12/31/2021  22:52:00       -6.215      -10.780        1.612       30.700       25.379       18.002      942.492      644.090      324.069        0.103        0.096       12.443       10.600        0.726      329.031       -4.491      859.097
12/31/2021  22:53:00      -46.608        7.426        0.144       44.262       43.932       38.100     1959.140     1929.982     1451.628        0.378        0.267       47.196       28.725        0.370      328.994       -4.553      859.134
12/31/2021  22:54:00      -11.641       18.266       -2.720       32.269       13.695       16.297     1041.258      187.547      265.588        0.099        0.075       21.660       17.040        0.619      328.884       -4.729      859.145
12/31/2021  22:55:00      -50.289      -13.167       -9.997       54.138       36.385       24.256     2930.891     1323.854      588.372        0.382        0.242       51.984       21.112        0.165      328.946       -4.630      859.180
12/31/2021  22:56:00     -115.314       24.089       -9.978       59.384       31.160       33.228     3526.413      970.922     1104.076        0.979        0.280      117.803       26.466        0.050      328.881       -4.738      859.242
12/31/2021  22:57:00      -46.636      -22.333       -2.208       72.272       51.095       38.365     5223.243     2610.721     1471.886        0.599        0.465       51.708       29.171        0.318      328.920       -4.673      859.294
12/31/2021  22:58:00      -76.089       -3.974       -5.021       75.229       48.322       38.565     5659.459     2335.028     1487.247        0.765        0.474       76.192       40.228        0.279      328.911       -4.688      859.322
12/31/2021  22:59:00     -113.995       10.851        3.593       67.123       53.647       36.084     4505.561     2878.016     1302.078        1.090        0.434      114.510       37.811        0.109      328.798       -4.872      859.362
12/31/2021  23:00:00      -68.817       28.394        7.908       68.324       39.576       32.334     4668.212     1566.275     1045.501        0.644        0.364       74.445       31.270        0.176      328.778       -4.906      859.396
12/31/2021  23:01:00     -142.348       -8.531       -5.063       86.374       57.231       43.569     7460.517     3275.430     1898.252        1.650        0.632      142.604       42.984        0.091      328.795       -4.880      859.422
12/31/2021  23:02:00     -131.883       -0.564        7.550      136.687       56.411       60.365    18683.234     3182.194     3643.928        2.148        1.275      131.885       65.245        0.245      328.839       -4.806      859.448
12/31/2021  23:03:00      -34.159        8.304        5.711       43.805       42.260       31.536     1918.882     1785.893      994.545        0.298        0.235       35.154       21.485        0.374      328.842       -4.801      859.481
12/31/2021  23:04:00     -100.948       17.247       -1.049       84.627       54.511       40.694     7161.797     2971.485     1656.021        1.114        0.589      102.411       42.908        0.176      328.893       -4.717      859.498
12/31/2021  23:05:00     -128.448      -12.032      -12.966       92.484       61.601       48.093     8553.233     3794.622     2312.927        1.573        0.733      129.010       50.892        0.156      328.904       -4.699      859.486
12/31/2021  23:06:00     -137.458       -1.420       -1.754       75.703       57.222       39.643     5730.947     3274.318     1571.590        1.474        0.529      137.465       40.188        0.085      328.898       -4.710      859.489
12/31/2021  23:07:00     -104.371       -0.693      -12.811       74.369       47.693       32.224     5530.816     2274.605     1038.401        0.995        0.442      104.374       13.713        0.017      328.932       -4.653      859.510
12/31/2021  23:08:00     -146.509       -6.387      -17.163       68.016       48.559       34.149     4626.112     2357.955     1166.133        1.497        0.408      146.648       34.088        0.054      328.989       -4.562      859.532
12/31/2021  23:09:00     -181.835        2.324       -7.527       77.491       50.085       44.400     6004.784     2508.500     1971.334        2.180        0.524      181.849       44.285        0.059      328.929       -4.661      859.545
12/31/2021  23:10:00     -110.398       -6.971        2.166       88.071       55.971       43.384     7756.495     3132.740     1882.132        1.250        0.639      110.618       42.079        0.145      328.929       -4.660      859.533
12/31/2021  23:11:00     -126.546      -16.777        0.446       83.646       49.207       43.746     6996.574     2421.367     1913.691        1.381        0.567      127.653       43.260        0.115      328.860       -4.772      859.519
12/31/2021  23:12:00     -178.742      -18.707       -8.959       92.988       45.979       39.960     8646.843     2114.025     1596.794        2.237        0.618      179.719       43.708        0.059      328.921       -4.674      859.521
12/31/2021  23:13:00     -139.051        1.371      -15.173       84.036       46.695       36.548     7062.113     2180.384     1335.790        1.507        0.529      139.058       32.607        0.055      328.934       -4.651      859.522
12/31/2021  23:14:00     -165.441        9.545      -15.942       50.316       32.369       27.390     2531.736     1047.736      750.194        1.602        0.216      165.716       21.796        0.017      328.918       -4.676      859.546
12/31/2021  23:15:00     -106.679       25.812       -8.401       50.534       54.877       23.855     2553.726     3011.481      569.050        0.912        0.307      109.757       16.245        0.022      328.898       -4.707      859.548
12/31/2021  23:16:00      -64.784       -8.077       -8.895       40.791       41.521       25.426     1663.893     1723.988      646.470        0.419        0.202       65.285       14.097        0.047      329.010       -4.525      859.545
12/31/2021  23:17:00     -162.234      -21.927      -13.690       53.386       43.995       36.139     2850.021     1935.555     1306.004        1.654        0.305      163.709       32.992        0.041      328.920       -4.672      859.551
12/31/2021  23:18:00     -117.806        7.952       -7.316       67.902       56.657       39.496     4610.693     3209.971     1559.939        1.169        0.469      118.074       31.615        0.072      328.858       -4.774      859.556
12/31/2021  23:19:00      -82.182       32.679       -3.489       54.170       57.633       30.689     2934.381     3321.516      941.837        0.751        0.360       88.441       27.193        0.095      328.763       -4.929      859.565
12/31/2021  23:20:00      -77.670        4.061        0.757       89.967       40.524       37.017     8094.128     1642.219     1370.247        0.858        0.555       77.776       36.609        0.222      328.707       -5.021      859.566
12/31/2021  23:21:00     -132.282       -4.186       -2.214       66.664       45.486       38.682     4444.111     2068.943     1496.277        1.276        0.400      132.349       39.595        0.090      328.680       -5.065      859.577
12/31/2021  23:22:00      -62.878       -3.211        9.701       87.733       40.517       28.888     7697.094     1641.621      834.495        0.711        0.509       62.960       36.512        0.336      328.673       -5.076      859.599
12/31/2021  23:23:00     -101.130        6.974       -6.505       71.321       42.606       29.062     5086.674     1815.307      844.580        0.903        0.387      101.370       33.750        0.111      328.775       -4.909      859.629
12/31/2021  23:24:00      -70.731       26.675       -4.678       34.766       35.617       21.834     1208.657     1268.584      476.735        0.434        0.148       75.594       23.684        0.098      328.747       -4.955      859.669
12/31/2021  23:25:00      -60.598       36.852      -10.419       42.431       26.953       17.003     1800.386      726.464      289.113        0.398        0.141       70.924       16.081        0.051      328.793       -4.880      859.719
12/31/2021  23:26:00      -89.059       11.358      -14.008       39.266       25.570       19.281     1541.830      653.841      371.769        0.541        0.128       89.780       18.500        0.042      328.733       -4.976      859.769
12/31/2021  23:27:00      -73.770       36.001       -8.462       26.275       23.356       13.825      690.351      545.504      191.135        0.412        0.071       82.086        9.882        0.014      328.740       -4.966      859.792
12/31/2021  23:28:00      -39.192        7.881      -12.112       38.803       40.697       16.439     1505.692     1656.224      270.234        0.259        0.172       39.976        9.240        0.053      328.800       -4.869      859.791
12/31/2021  23:29:00      -27.678      -19.570       -5.762       21.395       30.879       13.647      457.731      953.526      186.234        0.139        0.080       33.898        5.245        0.024      328.741       -4.965      859.795
12/31/2021  23:30:00      -31.816       10.854       -6.864       30.458       24.625       14.584      927.708      606.405      212.700        0.146        0.087       33.616        8.471        0.064      328.749       -4.952      859.814
12/31/2021  23:31:00      -18.477       28.140      -14.397       28.646       23.214       15.288      820.568      538.878      233.725        0.147        0.080       33.664       13.479        0.160      328.731       -4.982      859.841
12/31/2021  23:32:00        6.948       85.914      -11.800       58.433       32.845       31.196     3414.471     1078.799      973.205        0.652        0.273       86.195       17.919        0.043      328.936       -4.647      859.854
12/31/2021  23:33:00      -25.074       98.028       -7.269       33.013       52.412       28.718     1089.864     2747.039      824.749        0.748        0.233      101.184       10.363        0.010      328.948       -4.628      859.878
12/31/2021  23:34:00       -5.610       90.309       -7.871       26.343       39.323       24.391      693.952     1546.338      594.937        0.554        0.142       90.483       21.689        0.057      328.967       -4.595      859.890
12/31/2021  23:35:00       11.760       18.198        2.167       29.133       17.517       12.061      848.738      306.850      145.467        0.089        0.065       21.667        9.783        0.204      328.746       -4.957      859.888
12/31/2021  23:36:00       24.899       63.557       -3.150       28.840       27.499       19.895      831.720      756.189      395.797        0.333        0.099       68.260       10.943        0.026      328.861       -4.770      859.899
12/31/2021  23:37:00       36.608       74.141       -5.289       26.985       52.996       25.437      728.178     2808.579      647.045        0.552        0.209       82.687       27.292        0.109      328.825       -4.828      859.899
12/31/2021  23:38:00       64.124      134.362      -10.926       43.375       85.396       26.215     1881.400     7292.398      687.239        1.607        0.493      148.879       33.048        0.049      328.794       -4.880      859.908
12/31/2021  23:39:00       52.491      126.792      -13.693       35.839       46.945       30.956     1284.399     2203.847      958.288        1.173        0.222      137.228       26.488        0.037      328.825       -4.827      859.911
12/31/2021  23:40:00       60.825      152.919      -21.401       38.419       62.847       26.852     1476.028     3949.805      721.015        1.684        0.307      164.572       29.709        0.033      328.910       -4.690      859.903
12/31/2021  23:41:00       27.540      120.907       -7.508       37.680       49.253       25.807     1419.800     2425.899      666.027        0.997        0.226      124.004       17.689        0.020      328.912       -4.687      859.885
12/31/2021  23:42:00        9.193       65.230      -10.965       47.088       45.920       26.883     2217.320     2108.641      722.712        0.475        0.252       65.874       24.956        0.144      328.888       -4.725      859.852
12/31/2021  23:43:00       18.531       79.068      -13.982       43.614       72.765       32.003     1902.212     5294.810     1024.216        0.750        0.411       81.211       17.560        0.047      328.921       -4.673      859.812
12/31/2021  23:44:00       23.870      184.893      -22.292       50.389       52.358       29.804     2539.066     2741.381      888.284        2.071        0.308      186.427       21.221        0.013      328.875       -4.747      859.787
12/31/2021  23:45:00       20.512      173.979      -16.463       66.179       48.381       38.777     4379.652     2340.747     1503.624        1.959        0.411      175.184       24.435        0.019      328.904       -4.700      859.777
12/31/2021  23:46:00       22.259      170.749      -19.398       55.631       86.524       37.386     3094.769     7486.445     1397.741        2.100        0.599      172.194       39.775        0.053      328.933       -4.654      859.780
12/31/2021  23:47:00       23.258      196.098       -0.146       78.884       84.803       53.422     6222.616     7191.561     2853.890        2.763        0.813      197.472       50.917        0.066      328.858       -4.777      859.773
12/31/2021  23:48:00       24.770      173.637      -13.305       48.416       50.679       36.843     2344.153     2568.411     1357.370        1.860        0.313      175.395       23.593        0.018      328.902       -4.703      859.774
12/31/2021  23:49:00       -0.351      153.473      -23.870       50.205       37.812       30.712     2520.563     1429.766      943.243        1.451        0.245      153.473       16.832        0.012      328.878       -4.741      859.771
12/31/2021  23:50:00       48.148      216.418      -21.007       50.826       59.493       38.089     2583.302     3539.444     1450.773        2.858        0.379      221.709       28.406        0.016      328.842       -4.803      859.783
12/31/2021  23:51:00       -4.800      191.107      -28.776       62.831       63.007       44.566     3947.712     3969.918     1986.108        2.364        0.495      191.167       35.687        0.035      328.796       -4.879      859.830
12/31/2021  23:52:00        6.492      224.031      -15.491       83.559       90.806       50.791     6982.179     8245.672     2579.731        3.414        0.890      224.125       48.936        0.048      328.770       -4.920      859.871
12/31/2021  23:53:00       12.441      195.431      -11.875       82.420       81.242       44.735     6793.008     6600.300     2001.182        2.694        0.770      195.826       43.365        0.049      328.772       -4.918      859.911
12/31/2021  23:54:00      -39.890      198.133      -28.463       69.008       55.156       37.199     4762.134     3042.163     1383.741        2.542        0.459      202.109       26.757        0.018      328.787       -4.892      859.951
12/31/2021  23:55:00       44.703      180.506      -17.712       57.154       63.220       40.269     3266.551     3996.782     1621.590        2.189        0.444      185.960       33.452        0.032      328.750       -4.951      859.991
12/31/2021  23:56:00      -40.354      128.206      -11.889       73.197       64.437       37.439     5357.786     4152.113     1401.705        1.456        0.546      134.407       27.013        0.040      328.789       -4.888      860.029
12/31/2021  23:57:00       19.873      147.538      -14.351       51.119       53.210       39.537     2613.184     2831.267     1563.197        1.469        0.350      148.871       25.674        0.030      328.771       -4.915      860.042
12/31/2021  23:58:00       15.582      126.413      -10.116       55.877       67.961       40.673     3122.202     4618.713     1654.311        1.286        0.470      127.370       32.793        0.066      328.754       -4.944      860.050
12/31/2021  23:59:00      -10.405      165.749      -30.325       64.896       64.043       47.535     4211.440     4101.510     2259.597        1.953        0.529      166.076       36.606        0.049      328.745       -4.961      860.062
